<?xml version="1.0" encoding="UTF-8"?>
<gpx version="1.1" creator="https://www.youtrack.es" xsi:schemaLocation="http://www.topografix.com/GPX/1/1 http://www.topografix.com/GPX/1/1/gpx.xsd http://www.garmin.com/xmlschemas/GpxExtensions/v3 http://www.garmin.com/xmlschemas/GpxExtensionsv3.xsd http://www.garmin.com/xmlschemas/TrackPointExtension/v1 http://www.garmin.com/xmlschemas/TrackPointExtensionv1.xsd" xmlns:gpxtpx="http://www.garmin.com/xmlschemas/TrackPointExtension/v1" xmlns:gpxx="http://www.garmin.com/xmlschemas/GpxExtensions/v3" xmlns:xsi="http://www.w3.org/2001/XMLSchema-instance">
  <metadata>
    <link href="https://www.youtrack.es">
      <text>YouTrack.es</text>
    </link>
    <time>2026-05-08T11:01:47Z</time>
  </metadata>
  <trk>
    <src>https://www.youtrack.es</src>
    <link href="https://www.youtrack.es/ruta/33576-etapa-4--logrono-osorno">
      <text>YouTrack.es</text>
    </link>
    <trkseg>
      <trkpt lat="42.4659960" lon="-2.4434270">
        <ele>386.0</ele>
        <time>2022-06-27T05:47:58Z</time>
      </trkpt>
      <trkpt lat="42.4659790" lon="-2.4434520">
        <ele>391.8</ele>
        <time>2022-06-27T05:47:59Z</time>
      </trkpt>
      <trkpt lat="42.4659510" lon="-2.4434860">
        <ele>392.4</ele>
        <time>2022-06-27T05:48:00Z</time>
      </trkpt>
      <trkpt lat="42.4659190" lon="-2.4435100">
        <ele>392.8</ele>
        <time>2022-06-27T05:48:01Z</time>
      </trkpt>
      <trkpt lat="42.4658880" lon="-2.4435380">
        <ele>392.4</ele>
        <time>2022-06-27T05:48:02Z</time>
      </trkpt>
      <trkpt lat="42.4658560" lon="-2.4435650">
        <ele>392.6</ele>
        <time>2022-06-27T05:48:03Z</time>
      </trkpt>
      <trkpt lat="42.4658210" lon="-2.4435970">
        <ele>393.0</ele>
        <time>2022-06-27T05:48:04Z</time>
      </trkpt>
      <trkpt lat="42.4657990" lon="-2.4436330">
        <ele>393.4</ele>
        <time>2022-06-27T05:48:05Z</time>
      </trkpt>
      <trkpt lat="42.4657780" lon="-2.4436700">
        <ele>393.6</ele>
        <time>2022-06-27T05:48:06Z</time>
      </trkpt>
      <trkpt lat="42.4657480" lon="-2.4436990">
        <ele>392.8</ele>
        <time>2022-06-27T05:48:07Z</time>
      </trkpt>
      <trkpt lat="42.4657090" lon="-2.4437200">
        <ele>393.0</ele>
        <time>2022-06-27T05:48:08Z</time>
      </trkpt>
      <trkpt lat="42.4656680" lon="-2.4437440">
        <ele>392.6</ele>
        <time>2022-06-27T05:48:09Z</time>
      </trkpt>
      <trkpt lat="42.4656250" lon="-2.4437690">
        <ele>392.8</ele>
        <time>2022-06-27T05:48:10Z</time>
      </trkpt>
      <trkpt lat="42.4655770" lon="-2.4437880">
        <ele>393.0</ele>
        <time>2022-06-27T05:48:11Z</time>
      </trkpt>
      <trkpt lat="42.4655240" lon="-2.4437990">
        <ele>393.0</ele>
        <time>2022-06-27T05:48:12Z</time>
      </trkpt>
      <trkpt lat="42.4654700" lon="-2.4438130">
        <ele>393.2</ele>
        <time>2022-06-27T05:48:13Z</time>
      </trkpt>
      <trkpt lat="42.4654170" lon="-2.4438310">
        <ele>393.2</ele>
        <time>2022-06-27T05:48:14Z</time>
      </trkpt>
      <trkpt lat="42.4653700" lon="-2.4438530">
        <ele>393.2</ele>
        <time>2022-06-27T05:48:15Z</time>
      </trkpt>
      <trkpt lat="42.4653250" lon="-2.4438810">
        <ele>393.4</ele>
        <time>2022-06-27T05:48:16Z</time>
      </trkpt>
      <trkpt lat="42.4652840" lon="-2.4439190">
        <ele>393.4</ele>
        <time>2022-06-27T05:48:17Z</time>
      </trkpt>
      <trkpt lat="42.4652370" lon="-2.4439460">
        <ele>393.4</ele>
        <time>2022-06-27T05:48:18Z</time>
      </trkpt>
      <trkpt lat="42.4651910" lon="-2.4439730">
        <ele>393.6</ele>
        <time>2022-06-27T05:48:19Z</time>
      </trkpt>
      <trkpt lat="42.4651440" lon="-2.4440010">
        <ele>393.6</ele>
        <time>2022-06-27T05:48:20Z</time>
      </trkpt>
      <trkpt lat="42.4650940" lon="-2.4440300">
        <ele>393.6</ele>
        <time>2022-06-27T05:48:21Z</time>
      </trkpt>
      <trkpt lat="42.4650480" lon="-2.4440640">
        <ele>393.8</ele>
        <time>2022-06-27T05:48:22Z</time>
      </trkpt>
      <trkpt lat="42.4649990" lon="-2.4440990">
        <ele>393.8</ele>
        <time>2022-06-27T05:48:23Z</time>
      </trkpt>
      <trkpt lat="42.4649470" lon="-2.4441300">
        <ele>394.0</ele>
        <time>2022-06-27T05:48:24Z</time>
      </trkpt>
      <trkpt lat="42.4648830" lon="-2.4441630">
        <ele>394.0</ele>
        <time>2022-06-27T05:48:25Z</time>
      </trkpt>
      <trkpt lat="42.4648380" lon="-2.4441830">
        <ele>394.0</ele>
        <time>2022-06-27T05:48:26Z</time>
      </trkpt>
      <trkpt lat="42.4647830" lon="-2.4442060">
        <ele>394.0</ele>
        <time>2022-06-27T05:48:27Z</time>
      </trkpt>
      <trkpt lat="42.4647300" lon="-2.4442310">
        <ele>394.2</ele>
        <time>2022-06-27T05:48:28Z</time>
      </trkpt>
      <trkpt lat="42.4646790" lon="-2.4442570">
        <ele>394.2</ele>
        <time>2022-06-27T05:48:29Z</time>
      </trkpt>
      <trkpt lat="42.4646300" lon="-2.4442830">
        <ele>394.2</ele>
        <time>2022-06-27T05:48:30Z</time>
      </trkpt>
      <trkpt lat="42.4645880" lon="-2.4443090">
        <ele>394.2</ele>
        <time>2022-06-27T05:48:31Z</time>
      </trkpt>
      <trkpt lat="42.4645450" lon="-2.4443300">
        <ele>394.2</ele>
        <time>2022-06-27T05:48:32Z</time>
      </trkpt>
      <trkpt lat="42.4645070" lon="-2.4443540">
        <ele>394.2</ele>
        <time>2022-06-27T05:48:33Z</time>
      </trkpt>
      <trkpt lat="42.4644680" lon="-2.4443760">
        <ele>394.2</ele>
        <time>2022-06-27T05:48:34Z</time>
      </trkpt>
      <trkpt lat="42.4644330" lon="-2.4443940">
        <ele>394.2</ele>
        <time>2022-06-27T05:48:35Z</time>
      </trkpt>
      <trkpt lat="42.4644070" lon="-2.4444100">
        <ele>394.2</ele>
        <time>2022-06-27T05:48:36Z</time>
      </trkpt>
      <trkpt lat="42.4641300" lon="-2.4445150">
        <ele>394.2</ele>
        <time>2022-06-27T05:49:43Z</time>
      </trkpt>
      <trkpt lat="42.4641110" lon="-2.4445220">
        <ele>394.2</ele>
        <time>2022-06-27T05:49:44Z</time>
      </trkpt>
      <trkpt lat="42.4640500" lon="-2.4445430">
        <ele>394.2</ele>
        <time>2022-06-27T05:49:45Z</time>
      </trkpt>
      <trkpt lat="42.4640320" lon="-2.4445490">
        <ele>394.2</ele>
        <time>2022-06-27T05:49:46Z</time>
      </trkpt>
      <trkpt lat="42.4639860" lon="-2.4445610">
        <ele>394.2</ele>
        <time>2022-06-27T05:49:47Z</time>
      </trkpt>
      <trkpt lat="42.4639380" lon="-2.4445700">
        <ele>394.2</ele>
        <time>2022-06-27T05:49:48Z</time>
      </trkpt>
      <trkpt lat="42.4638750" lon="-2.4445790">
        <ele>394.2</ele>
        <time>2022-06-27T05:49:49Z</time>
      </trkpt>
      <trkpt lat="42.4638260" lon="-2.4445890">
        <ele>394.4</ele>
        <time>2022-06-27T05:49:50Z</time>
      </trkpt>
      <trkpt lat="42.4637740" lon="-2.4446000">
        <ele>394.4</ele>
        <time>2022-06-27T05:49:51Z</time>
      </trkpt>
      <trkpt lat="42.4637320" lon="-2.4446140">
        <ele>394.4</ele>
        <time>2022-06-27T05:49:52Z</time>
      </trkpt>
      <trkpt lat="42.4636770" lon="-2.4446270">
        <ele>394.4</ele>
        <time>2022-06-27T05:49:53Z</time>
      </trkpt>
      <trkpt lat="42.4636220" lon="-2.4446420">
        <ele>394.4</ele>
        <time>2022-06-27T05:49:54Z</time>
      </trkpt>
      <trkpt lat="42.4635580" lon="-2.4446590">
        <ele>394.4</ele>
        <time>2022-06-27T05:49:55Z</time>
      </trkpt>
      <trkpt lat="42.4634920" lon="-2.4446610">
        <ele>394.4</ele>
        <time>2022-06-27T05:49:56Z</time>
      </trkpt>
      <trkpt lat="42.4634460" lon="-2.4447550">
        <ele>394.4</ele>
        <time>2022-06-27T05:49:57Z</time>
      </trkpt>
      <trkpt lat="42.4633970" lon="-2.4447840">
        <ele>394.4</ele>
        <time>2022-06-27T05:49:58Z</time>
      </trkpt>
      <trkpt lat="42.4633430" lon="-2.4448010">
        <ele>394.4</ele>
        <time>2022-06-27T05:49:59Z</time>
      </trkpt>
      <trkpt lat="42.4632940" lon="-2.4448220">
        <ele>394.4</ele>
        <time>2022-06-27T05:50:00Z</time>
      </trkpt>
      <trkpt lat="42.4632420" lon="-2.4448390">
        <ele>394.6</ele>
        <time>2022-06-27T05:50:01Z</time>
      </trkpt>
      <trkpt lat="42.4631840" lon="-2.4448450">
        <ele>394.6</ele>
        <time>2022-06-27T05:50:02Z</time>
      </trkpt>
      <trkpt lat="42.4631300" lon="-2.4448690">
        <ele>394.6</ele>
        <time>2022-06-27T05:50:03Z</time>
      </trkpt>
      <trkpt lat="42.4630480" lon="-2.4448730">
        <ele>394.6</ele>
        <time>2022-06-27T05:50:04Z</time>
      </trkpt>
      <trkpt lat="42.4629980" lon="-2.4449220">
        <ele>394.8</ele>
        <time>2022-06-27T05:50:05Z</time>
      </trkpt>
      <trkpt lat="42.4629600" lon="-2.4449910">
        <ele>394.8</ele>
        <time>2022-06-27T05:50:06Z</time>
      </trkpt>
      <trkpt lat="42.4629140" lon="-2.4450430">
        <ele>394.8</ele>
        <time>2022-06-27T05:50:07Z</time>
      </trkpt>
      <trkpt lat="42.4628720" lon="-2.4450930">
        <ele>394.8</ele>
        <time>2022-06-27T05:50:08Z</time>
      </trkpt>
      <trkpt lat="42.4628230" lon="-2.4451270">
        <ele>394.8</ele>
        <time>2022-06-27T05:50:09Z</time>
      </trkpt>
      <trkpt lat="42.4627690" lon="-2.4451500">
        <ele>395.0</ele>
        <time>2022-06-27T05:50:10Z</time>
      </trkpt>
      <trkpt lat="42.4627140" lon="-2.4451620">
        <ele>395.0</ele>
        <time>2022-06-27T05:50:11Z</time>
      </trkpt>
      <trkpt lat="42.4626560" lon="-2.4451650">
        <ele>395.0</ele>
        <time>2022-06-27T05:50:12Z</time>
      </trkpt>
      <trkpt lat="42.4626010" lon="-2.4451670">
        <ele>395.0</ele>
        <time>2022-06-27T05:50:13Z</time>
      </trkpt>
      <trkpt lat="42.4625470" lon="-2.4451730">
        <ele>395.0</ele>
        <time>2022-06-27T05:50:14Z</time>
      </trkpt>
      <trkpt lat="42.4624950" lon="-2.4451840">
        <ele>395.0</ele>
        <time>2022-06-27T05:50:15Z</time>
      </trkpt>
      <trkpt lat="42.4624440" lon="-2.4451970">
        <ele>395.0</ele>
        <time>2022-06-27T05:50:16Z</time>
      </trkpt>
      <trkpt lat="42.4623920" lon="-2.4452150">
        <ele>395.0</ele>
        <time>2022-06-27T05:50:17Z</time>
      </trkpt>
      <trkpt lat="42.4623400" lon="-2.4452350">
        <ele>395.2</ele>
        <time>2022-06-27T05:50:18Z</time>
      </trkpt>
      <trkpt lat="42.4622860" lon="-2.4452540">
        <ele>395.2</ele>
        <time>2022-06-27T05:50:19Z</time>
      </trkpt>
      <trkpt lat="42.4622330" lon="-2.4452730">
        <ele>395.2</ele>
        <time>2022-06-27T05:50:20Z</time>
      </trkpt>
      <trkpt lat="42.4621800" lon="-2.4452920">
        <ele>395.2</ele>
        <time>2022-06-27T05:50:21Z</time>
      </trkpt>
      <trkpt lat="42.4621240" lon="-2.4453090">
        <ele>394.8</ele>
        <time>2022-06-27T05:50:22Z</time>
      </trkpt>
      <trkpt lat="42.4620690" lon="-2.4453260">
        <ele>394.8</ele>
        <time>2022-06-27T05:50:23Z</time>
      </trkpt>
      <trkpt lat="42.4620120" lon="-2.4453420">
        <ele>395.2</ele>
        <time>2022-06-27T05:50:24Z</time>
      </trkpt>
      <trkpt lat="42.4619550" lon="-2.4453590">
        <ele>395.2</ele>
        <time>2022-06-27T05:50:25Z</time>
      </trkpt>
      <trkpt lat="42.4618950" lon="-2.4453740">
        <ele>395.2</ele>
        <time>2022-06-27T05:50:26Z</time>
      </trkpt>
      <trkpt lat="42.4618390" lon="-2.4453920">
        <ele>395.4</ele>
        <time>2022-06-27T05:50:27Z</time>
      </trkpt>
      <trkpt lat="42.4617810" lon="-2.4454090">
        <ele>395.4</ele>
        <time>2022-06-27T05:50:28Z</time>
      </trkpt>
      <trkpt lat="42.4617220" lon="-2.4454240">
        <ele>395.4</ele>
        <time>2022-06-27T05:50:29Z</time>
      </trkpt>
      <trkpt lat="42.4616620" lon="-2.4454390">
        <ele>395.6</ele>
        <time>2022-06-27T05:50:30Z</time>
      </trkpt>
      <trkpt lat="42.4616040" lon="-2.4454570">
        <ele>395.6</ele>
        <time>2022-06-27T05:50:31Z</time>
      </trkpt>
      <trkpt lat="42.4615420" lon="-2.4454700">
        <ele>395.6</ele>
        <time>2022-06-27T05:50:32Z</time>
      </trkpt>
      <trkpt lat="42.4614820" lon="-2.4454830">
        <ele>395.8</ele>
        <time>2022-06-27T05:50:33Z</time>
      </trkpt>
      <trkpt lat="42.4614300" lon="-2.4455050">
        <ele>395.8</ele>
        <time>2022-06-27T05:50:34Z</time>
      </trkpt>
      <trkpt lat="42.4613800" lon="-2.4455240">
        <ele>395.8</ele>
        <time>2022-06-27T05:50:35Z</time>
      </trkpt>
      <trkpt lat="42.4613280" lon="-2.4455350">
        <ele>395.8</ele>
        <time>2022-06-27T05:50:36Z</time>
      </trkpt>
      <trkpt lat="42.4612730" lon="-2.4455420">
        <ele>395.8</ele>
        <time>2022-06-27T05:50:37Z</time>
      </trkpt>
      <trkpt lat="42.4612150" lon="-2.4455420">
        <ele>396.0</ele>
        <time>2022-06-27T05:50:38Z</time>
      </trkpt>
      <trkpt lat="42.4611710" lon="-2.4455560">
        <ele>396.0</ele>
        <time>2022-06-27T05:50:39Z</time>
      </trkpt>
      <trkpt lat="42.4611180" lon="-2.4455450">
        <ele>396.0</ele>
        <time>2022-06-27T05:50:40Z</time>
      </trkpt>
      <trkpt lat="42.4610840" lon="-2.4455510">
        <ele>395.8</ele>
        <time>2022-06-27T05:50:41Z</time>
      </trkpt>
      <trkpt lat="42.4608870" lon="-2.4455760">
        <ele>396.0</ele>
        <time>2022-06-27T05:51:12Z</time>
      </trkpt>
      <trkpt lat="42.4608530" lon="-2.4455790">
        <ele>396.0</ele>
        <time>2022-06-27T05:51:13Z</time>
      </trkpt>
      <trkpt lat="42.4608160" lon="-2.4455970">
        <ele>396.0</ele>
        <time>2022-06-27T05:51:14Z</time>
      </trkpt>
      <trkpt lat="42.4607750" lon="-2.4456220">
        <ele>396.0</ele>
        <time>2022-06-27T05:51:15Z</time>
      </trkpt>
      <trkpt lat="42.4607310" lon="-2.4456450">
        <ele>396.0</ele>
        <time>2022-06-27T05:51:16Z</time>
      </trkpt>
      <trkpt lat="42.4606850" lon="-2.4456670">
        <ele>396.0</ele>
        <time>2022-06-27T05:51:17Z</time>
      </trkpt>
      <trkpt lat="42.4606450" lon="-2.4456890">
        <ele>396.0</ele>
        <time>2022-06-27T05:51:18Z</time>
      </trkpt>
      <trkpt lat="42.4606070" lon="-2.4457120">
        <ele>396.0</ele>
        <time>2022-06-27T05:51:19Z</time>
      </trkpt>
      <trkpt lat="42.4605700" lon="-2.4457440">
        <ele>396.0</ele>
        <time>2022-06-27T05:51:20Z</time>
      </trkpt>
      <trkpt lat="42.4605260" lon="-2.4457750">
        <ele>396.0</ele>
        <time>2022-06-27T05:51:21Z</time>
      </trkpt>
      <trkpt lat="42.4604820" lon="-2.4458010">
        <ele>396.0</ele>
        <time>2022-06-27T05:51:22Z</time>
      </trkpt>
      <trkpt lat="42.4604280" lon="-2.4458210">
        <ele>396.0</ele>
        <time>2022-06-27T05:51:23Z</time>
      </trkpt>
      <trkpt lat="42.4603730" lon="-2.4458410">
        <ele>396.0</ele>
        <time>2022-06-27T05:51:24Z</time>
      </trkpt>
      <trkpt lat="42.4603190" lon="-2.4458630">
        <ele>396.0</ele>
        <time>2022-06-27T05:51:25Z</time>
      </trkpt>
      <trkpt lat="42.4602650" lon="-2.4458870">
        <ele>396.0</ele>
        <time>2022-06-27T05:51:26Z</time>
      </trkpt>
      <trkpt lat="42.4602100" lon="-2.4459110">
        <ele>396.2</ele>
        <time>2022-06-27T05:51:27Z</time>
      </trkpt>
      <trkpt lat="42.4601560" lon="-2.4459310">
        <ele>396.0</ele>
        <time>2022-06-27T05:51:28Z</time>
      </trkpt>
      <trkpt lat="42.4601020" lon="-2.4459530">
        <ele>396.2</ele>
        <time>2022-06-27T05:51:29Z</time>
      </trkpt>
      <trkpt lat="42.4600420" lon="-2.4459730">
        <ele>396.2</ele>
        <time>2022-06-27T05:51:30Z</time>
      </trkpt>
      <trkpt lat="42.4599810" lon="-2.4459960">
        <ele>396.4</ele>
        <time>2022-06-27T05:51:31Z</time>
      </trkpt>
      <trkpt lat="42.4599270" lon="-2.4460230">
        <ele>396.4</ele>
        <time>2022-06-27T05:51:32Z</time>
      </trkpt>
      <trkpt lat="42.4598730" lon="-2.4460450">
        <ele>396.4</ele>
        <time>2022-06-27T05:51:33Z</time>
      </trkpt>
      <trkpt lat="42.4598170" lon="-2.4460670">
        <ele>396.6</ele>
        <time>2022-06-27T05:51:34Z</time>
      </trkpt>
      <trkpt lat="42.4597640" lon="-2.4460840">
        <ele>396.6</ele>
        <time>2022-06-27T05:51:35Z</time>
      </trkpt>
      <trkpt lat="42.4597100" lon="-2.4461080">
        <ele>396.6</ele>
        <time>2022-06-27T05:51:36Z</time>
      </trkpt>
      <trkpt lat="42.4596630" lon="-2.4461460">
        <ele>396.6</ele>
        <time>2022-06-27T05:51:37Z</time>
      </trkpt>
      <trkpt lat="42.4596110" lon="-2.4461800">
        <ele>396.8</ele>
        <time>2022-06-27T05:51:38Z</time>
      </trkpt>
      <trkpt lat="42.4595600" lon="-2.4462130">
        <ele>397.0</ele>
        <time>2022-06-27T05:51:39Z</time>
      </trkpt>
      <trkpt lat="42.4595070" lon="-2.4462420">
        <ele>397.0</ele>
        <time>2022-06-27T05:51:40Z</time>
      </trkpt>
      <trkpt lat="42.4594520" lon="-2.4462580">
        <ele>397.2</ele>
        <time>2022-06-27T05:51:41Z</time>
      </trkpt>
      <trkpt lat="42.4593920" lon="-2.4462750">
        <ele>397.4</ele>
        <time>2022-06-27T05:51:42Z</time>
      </trkpt>
      <trkpt lat="42.4593340" lon="-2.4462970">
        <ele>397.2</ele>
        <time>2022-06-27T05:51:43Z</time>
      </trkpt>
      <trkpt lat="42.4592740" lon="-2.4463210">
        <ele>397.4</ele>
        <time>2022-06-27T05:51:44Z</time>
      </trkpt>
      <trkpt lat="42.4592160" lon="-2.4463430">
        <ele>397.4</ele>
        <time>2022-06-27T05:51:45Z</time>
      </trkpt>
      <trkpt lat="42.4591600" lon="-2.4463800">
        <ele>397.4</ele>
        <time>2022-06-27T05:51:46Z</time>
      </trkpt>
      <trkpt lat="42.4591000" lon="-2.4464030">
        <ele>397.4</ele>
        <time>2022-06-27T05:51:47Z</time>
      </trkpt>
      <trkpt lat="42.4590420" lon="-2.4464270">
        <ele>397.6</ele>
        <time>2022-06-27T05:51:48Z</time>
      </trkpt>
      <trkpt lat="42.4589830" lon="-2.4464470">
        <ele>397.6</ele>
        <time>2022-06-27T05:51:49Z</time>
      </trkpt>
      <trkpt lat="42.4589260" lon="-2.4464700">
        <ele>397.6</ele>
        <time>2022-06-27T05:51:50Z</time>
      </trkpt>
      <trkpt lat="42.4588710" lon="-2.4464930">
        <ele>397.6</ele>
        <time>2022-06-27T05:51:51Z</time>
      </trkpt>
      <trkpt lat="42.4588050" lon="-2.4465090">
        <ele>397.6</ele>
        <time>2022-06-27T05:51:52Z</time>
      </trkpt>
      <trkpt lat="42.4587500" lon="-2.4465240">
        <ele>397.6</ele>
        <time>2022-06-27T05:51:53Z</time>
      </trkpt>
      <trkpt lat="42.4586420" lon="-2.4466210">
        <ele>398.0</ele>
        <time>2022-06-27T05:52:50Z</time>
      </trkpt>
      <trkpt lat="42.4586250" lon="-2.4466550">
        <ele>397.8</ele>
        <time>2022-06-27T05:52:51Z</time>
      </trkpt>
      <trkpt lat="42.4586050" lon="-2.4466820">
        <ele>397.8</ele>
        <time>2022-06-27T05:52:52Z</time>
      </trkpt>
      <trkpt lat="42.4585850" lon="-2.4466990">
        <ele>397.8</ele>
        <time>2022-06-27T05:52:53Z</time>
      </trkpt>
      <trkpt lat="42.4585640" lon="-2.4467160">
        <ele>397.8</ele>
        <time>2022-06-27T05:52:54Z</time>
      </trkpt>
      <trkpt lat="42.4585390" lon="-2.4467300">
        <ele>397.6</ele>
        <time>2022-06-27T05:52:55Z</time>
      </trkpt>
      <trkpt lat="42.4585180" lon="-2.4467400">
        <ele>397.6</ele>
        <time>2022-06-27T05:52:56Z</time>
      </trkpt>
      <trkpt lat="42.4584990" lon="-2.4467370">
        <ele>397.6</ele>
        <time>2022-06-27T05:52:57Z</time>
      </trkpt>
      <trkpt lat="42.4584840" lon="-2.4467190">
        <ele>397.6</ele>
        <time>2022-06-27T05:52:58Z</time>
      </trkpt>
      <trkpt lat="42.4584740" lon="-2.4466880">
        <ele>397.6</ele>
        <time>2022-06-27T05:52:59Z</time>
      </trkpt>
      <trkpt lat="42.4584670" lon="-2.4466500">
        <ele>397.6</ele>
        <time>2022-06-27T05:53:00Z</time>
      </trkpt>
      <trkpt lat="42.4584600" lon="-2.4466080">
        <ele>397.6</ele>
        <time>2022-06-27T05:53:01Z</time>
      </trkpt>
      <trkpt lat="42.4584500" lon="-2.4465580">
        <ele>397.6</ele>
        <time>2022-06-27T05:53:02Z</time>
      </trkpt>
      <trkpt lat="42.4584380" lon="-2.4464960">
        <ele>397.4</ele>
        <time>2022-06-27T05:53:03Z</time>
      </trkpt>
      <trkpt lat="42.4584260" lon="-2.4464260">
        <ele>397.4</ele>
        <time>2022-06-27T05:53:04Z</time>
      </trkpt>
      <trkpt lat="42.4584110" lon="-2.4463510">
        <ele>397.4</ele>
        <time>2022-06-27T05:53:05Z</time>
      </trkpt>
      <trkpt lat="42.4583930" lon="-2.4462670">
        <ele>397.4</ele>
        <time>2022-06-27T05:53:06Z</time>
      </trkpt>
      <trkpt lat="42.4583800" lon="-2.4461930">
        <ele>397.2</ele>
        <time>2022-06-27T05:53:07Z</time>
      </trkpt>
      <trkpt lat="42.4583670" lon="-2.4461160">
        <ele>397.2</ele>
        <time>2022-06-27T05:53:08Z</time>
      </trkpt>
      <trkpt lat="42.4583440" lon="-2.4460170">
        <ele>397.2</ele>
        <time>2022-06-27T05:53:09Z</time>
      </trkpt>
      <trkpt lat="42.4583240" lon="-2.4459260">
        <ele>397.2</ele>
        <time>2022-06-27T05:53:10Z</time>
      </trkpt>
      <trkpt lat="42.4583020" lon="-2.4458420">
        <ele>397.0</ele>
        <time>2022-06-27T05:53:11Z</time>
      </trkpt>
      <trkpt lat="42.4582840" lon="-2.4457520">
        <ele>396.8</ele>
        <time>2022-06-27T05:53:12Z</time>
      </trkpt>
      <trkpt lat="42.4582610" lon="-2.4456550">
        <ele>396.6</ele>
        <time>2022-06-27T05:53:13Z</time>
      </trkpt>
      <trkpt lat="42.4582410" lon="-2.4455600">
        <ele>396.4</ele>
        <time>2022-06-27T05:53:14Z</time>
      </trkpt>
      <trkpt lat="42.4582180" lon="-2.4454700">
        <ele>396.2</ele>
        <time>2022-06-27T05:53:15Z</time>
      </trkpt>
      <trkpt lat="42.4581910" lon="-2.4453870">
        <ele>396.2</ele>
        <time>2022-06-27T05:53:16Z</time>
      </trkpt>
      <trkpt lat="42.4581690" lon="-2.4452990">
        <ele>396.0</ele>
        <time>2022-06-27T05:53:17Z</time>
      </trkpt>
      <trkpt lat="42.4581530" lon="-2.4452120">
        <ele>396.0</ele>
        <time>2022-06-27T05:53:18Z</time>
      </trkpt>
      <trkpt lat="42.4581220" lon="-2.4451280">
        <ele>396.0</ele>
        <time>2022-06-27T05:53:19Z</time>
      </trkpt>
      <trkpt lat="42.4580930" lon="-2.4450510">
        <ele>395.8</ele>
        <time>2022-06-27T05:53:20Z</time>
      </trkpt>
      <trkpt lat="42.4580590" lon="-2.4449800">
        <ele>395.6</ele>
        <time>2022-06-27T05:53:21Z</time>
      </trkpt>
      <trkpt lat="42.4580200" lon="-2.4449170">
        <ele>395.4</ele>
        <time>2022-06-27T05:53:22Z</time>
      </trkpt>
      <trkpt lat="42.4579830" lon="-2.4448700">
        <ele>395.4</ele>
        <time>2022-06-27T05:53:23Z</time>
      </trkpt>
      <trkpt lat="42.4579340" lon="-2.4448300">
        <ele>395.4</ele>
        <time>2022-06-27T05:53:24Z</time>
      </trkpt>
      <trkpt lat="42.4578840" lon="-2.4448040">
        <ele>395.4</ele>
        <time>2022-06-27T05:53:25Z</time>
      </trkpt>
      <trkpt lat="42.4578370" lon="-2.4447870">
        <ele>395.2</ele>
        <time>2022-06-27T05:53:26Z</time>
      </trkpt>
      <trkpt lat="42.4577920" lon="-2.4447800">
        <ele>395.2</ele>
        <time>2022-06-27T05:53:27Z</time>
      </trkpt>
      <trkpt lat="42.4577480" lon="-2.4447840">
        <ele>395.2</ele>
        <time>2022-06-27T05:53:28Z</time>
      </trkpt>
      <trkpt lat="42.4577050" lon="-2.4447960">
        <ele>395.2</ele>
        <time>2022-06-27T05:53:29Z</time>
      </trkpt>
      <trkpt lat="42.4576650" lon="-2.4448160">
        <ele>395.2</ele>
        <time>2022-06-27T05:53:30Z</time>
      </trkpt>
      <trkpt lat="42.4576240" lon="-2.4448410">
        <ele>395.2</ele>
        <time>2022-06-27T05:53:31Z</time>
      </trkpt>
      <trkpt lat="42.4575850" lon="-2.4448680">
        <ele>395.2</ele>
        <time>2022-06-27T05:53:32Z</time>
      </trkpt>
      <trkpt lat="42.4575480" lon="-2.4448940">
        <ele>395.2</ele>
        <time>2022-06-27T05:53:33Z</time>
      </trkpt>
      <trkpt lat="42.4575100" lon="-2.4449180">
        <ele>395.2</ele>
        <time>2022-06-27T05:53:34Z</time>
      </trkpt>
      <trkpt lat="42.4574720" lon="-2.4449420">
        <ele>395.2</ele>
        <time>2022-06-27T05:53:35Z</time>
      </trkpt>
      <trkpt lat="42.4574360" lon="-2.4449650">
        <ele>395.2</ele>
        <time>2022-06-27T05:53:36Z</time>
      </trkpt>
      <trkpt lat="42.4574010" lon="-2.4449860">
        <ele>395.2</ele>
        <time>2022-06-27T05:53:37Z</time>
      </trkpt>
      <trkpt lat="42.4573680" lon="-2.4450070">
        <ele>395.4</ele>
        <time>2022-06-27T05:53:38Z</time>
      </trkpt>
      <trkpt lat="42.4573360" lon="-2.4450280">
        <ele>395.4</ele>
        <time>2022-06-27T05:53:39Z</time>
      </trkpt>
      <trkpt lat="42.4573040" lon="-2.4450490">
        <ele>395.6</ele>
        <time>2022-06-27T05:53:40Z</time>
      </trkpt>
      <trkpt lat="42.4572700" lon="-2.4450680">
        <ele>395.6</ele>
        <time>2022-06-27T05:53:41Z</time>
      </trkpt>
      <trkpt lat="42.4572350" lon="-2.4450870">
        <ele>396.0</ele>
        <time>2022-06-27T05:53:42Z</time>
      </trkpt>
      <trkpt lat="42.4572020" lon="-2.4451060">
        <ele>396.0</ele>
        <time>2022-06-27T05:53:43Z</time>
      </trkpt>
      <trkpt lat="42.4571660" lon="-2.4451250">
        <ele>396.6</ele>
        <time>2022-06-27T05:53:44Z</time>
      </trkpt>
      <trkpt lat="42.4571300" lon="-2.4451460">
        <ele>396.8</ele>
        <time>2022-06-27T05:53:45Z</time>
      </trkpt>
      <trkpt lat="42.4570950" lon="-2.4451670">
        <ele>397.0</ele>
        <time>2022-06-27T05:53:46Z</time>
      </trkpt>
      <trkpt lat="42.4570590" lon="-2.4451870">
        <ele>397.0</ele>
        <time>2022-06-27T05:53:47Z</time>
      </trkpt>
      <trkpt lat="42.4570220" lon="-2.4452110">
        <ele>397.0</ele>
        <time>2022-06-27T05:53:48Z</time>
      </trkpt>
      <trkpt lat="42.4569800" lon="-2.4452340">
        <ele>397.2</ele>
        <time>2022-06-27T05:53:49Z</time>
      </trkpt>
      <trkpt lat="42.4569310" lon="-2.4452540">
        <ele>397.2</ele>
        <time>2022-06-27T05:53:50Z</time>
      </trkpt>
      <trkpt lat="42.4568820" lon="-2.4452800">
        <ele>397.2</ele>
        <time>2022-06-27T05:53:51Z</time>
      </trkpt>
      <trkpt lat="42.4568370" lon="-2.4453080">
        <ele>397.2</ele>
        <time>2022-06-27T05:53:52Z</time>
      </trkpt>
      <trkpt lat="42.4567950" lon="-2.4453340">
        <ele>397.6</ele>
        <time>2022-06-27T05:53:53Z</time>
      </trkpt>
      <trkpt lat="42.4567460" lon="-2.4453600">
        <ele>397.6</ele>
        <time>2022-06-27T05:53:54Z</time>
      </trkpt>
      <trkpt lat="42.4566960" lon="-2.4453830">
        <ele>397.6</ele>
        <time>2022-06-27T05:53:55Z</time>
      </trkpt>
      <trkpt lat="42.4566450" lon="-2.4454070">
        <ele>397.6</ele>
        <time>2022-06-27T05:53:56Z</time>
      </trkpt>
      <trkpt lat="42.4565950" lon="-2.4454350">
        <ele>397.4</ele>
        <time>2022-06-27T05:53:57Z</time>
      </trkpt>
      <trkpt lat="42.4565450" lon="-2.4454630">
        <ele>397.4</ele>
        <time>2022-06-27T05:53:58Z</time>
      </trkpt>
      <trkpt lat="42.4564880" lon="-2.4454900">
        <ele>397.2</ele>
        <time>2022-06-27T05:53:59Z</time>
      </trkpt>
      <trkpt lat="42.4564310" lon="-2.4455120">
        <ele>397.2</ele>
        <time>2022-06-27T05:54:00Z</time>
      </trkpt>
      <trkpt lat="42.4563780" lon="-2.4455350">
        <ele>397.2</ele>
        <time>2022-06-27T05:54:01Z</time>
      </trkpt>
      <trkpt lat="42.4563250" lon="-2.4455540">
        <ele>397.2</ele>
        <time>2022-06-27T05:54:02Z</time>
      </trkpt>
      <trkpt lat="42.4562750" lon="-2.4455740">
        <ele>397.2</ele>
        <time>2022-06-27T05:54:03Z</time>
      </trkpt>
      <trkpt lat="42.4562240" lon="-2.4455950">
        <ele>397.0</ele>
        <time>2022-06-27T05:54:04Z</time>
      </trkpt>
      <trkpt lat="42.4561730" lon="-2.4456180">
        <ele>397.0</ele>
        <time>2022-06-27T05:54:05Z</time>
      </trkpt>
      <trkpt lat="42.4561200" lon="-2.4456380">
        <ele>397.0</ele>
        <time>2022-06-27T05:54:06Z</time>
      </trkpt>
      <trkpt lat="42.4560700" lon="-2.4456580">
        <ele>397.0</ele>
        <time>2022-06-27T05:54:07Z</time>
      </trkpt>
      <trkpt lat="42.4560190" lon="-2.4456790">
        <ele>397.0</ele>
        <time>2022-06-27T05:54:08Z</time>
      </trkpt>
      <trkpt lat="42.4559690" lon="-2.4456980">
        <ele>397.0</ele>
        <time>2022-06-27T05:54:09Z</time>
      </trkpt>
      <trkpt lat="42.4559210" lon="-2.4457170">
        <ele>397.0</ele>
        <time>2022-06-27T05:54:10Z</time>
      </trkpt>
      <trkpt lat="42.4558720" lon="-2.4457330">
        <ele>397.0</ele>
        <time>2022-06-27T05:54:11Z</time>
      </trkpt>
      <trkpt lat="42.4558220" lon="-2.4457500">
        <ele>396.8</ele>
        <time>2022-06-27T05:54:12Z</time>
      </trkpt>
      <trkpt lat="42.4557740" lon="-2.4457670">
        <ele>396.8</ele>
        <time>2022-06-27T05:54:13Z</time>
      </trkpt>
      <trkpt lat="42.4557220" lon="-2.4457830">
        <ele>397.0</ele>
        <time>2022-06-27T05:54:14Z</time>
      </trkpt>
      <trkpt lat="42.4556700" lon="-2.4457960">
        <ele>397.0</ele>
        <time>2022-06-27T05:54:15Z</time>
      </trkpt>
      <trkpt lat="42.4556210" lon="-2.4458160">
        <ele>397.0</ele>
        <time>2022-06-27T05:54:16Z</time>
      </trkpt>
      <trkpt lat="42.4555720" lon="-2.4458390">
        <ele>397.0</ele>
        <time>2022-06-27T05:54:17Z</time>
      </trkpt>
      <trkpt lat="42.4555290" lon="-2.4458730">
        <ele>397.0</ele>
        <time>2022-06-27T05:54:18Z</time>
      </trkpt>
      <trkpt lat="42.4554910" lon="-2.4459150">
        <ele>397.0</ele>
        <time>2022-06-27T05:54:19Z</time>
      </trkpt>
      <trkpt lat="42.4554600" lon="-2.4459740">
        <ele>397.0</ele>
        <time>2022-06-27T05:54:20Z</time>
      </trkpt>
      <trkpt lat="42.4554440" lon="-2.4460380">
        <ele>397.2</ele>
        <time>2022-06-27T05:54:21Z</time>
      </trkpt>
      <trkpt lat="42.4554470" lon="-2.4461110">
        <ele>397.2</ele>
        <time>2022-06-27T05:54:22Z</time>
      </trkpt>
      <trkpt lat="42.4554590" lon="-2.4461760">
        <ele>397.2</ele>
        <time>2022-06-27T05:54:23Z</time>
      </trkpt>
      <trkpt lat="42.4554730" lon="-2.4462370">
        <ele>397.2</ele>
        <time>2022-06-27T05:54:24Z</time>
      </trkpt>
      <trkpt lat="42.4554900" lon="-2.4463060">
        <ele>397.4</ele>
        <time>2022-06-27T05:54:25Z</time>
      </trkpt>
      <trkpt lat="42.4555070" lon="-2.4463690">
        <ele>397.4</ele>
        <time>2022-06-27T05:54:26Z</time>
      </trkpt>
      <trkpt lat="42.4555260" lon="-2.4464340">
        <ele>397.6</ele>
        <time>2022-06-27T05:54:27Z</time>
      </trkpt>
      <trkpt lat="42.4555450" lon="-2.4464990">
        <ele>397.6</ele>
        <time>2022-06-27T05:54:28Z</time>
      </trkpt>
      <trkpt lat="42.4555630" lon="-2.4465610">
        <ele>397.6</ele>
        <time>2022-06-27T05:54:29Z</time>
      </trkpt>
      <trkpt lat="42.4555800" lon="-2.4466110">
        <ele>397.8</ele>
        <time>2022-06-27T05:54:30Z</time>
      </trkpt>
      <trkpt lat="42.4555980" lon="-2.4466620">
        <ele>397.8</ele>
        <time>2022-06-27T05:54:31Z</time>
      </trkpt>
      <trkpt lat="42.4556100" lon="-2.4467210">
        <ele>398.0</ele>
        <time>2022-06-27T05:54:32Z</time>
      </trkpt>
      <trkpt lat="42.4556200" lon="-2.4467780">
        <ele>398.0</ele>
        <time>2022-06-27T05:54:33Z</time>
      </trkpt>
      <trkpt lat="42.4556350" lon="-2.4468410">
        <ele>398.0</ele>
        <time>2022-06-27T05:54:34Z</time>
      </trkpt>
      <trkpt lat="42.4556490" lon="-2.4468920">
        <ele>398.2</ele>
        <time>2022-06-27T05:54:35Z</time>
      </trkpt>
      <trkpt lat="42.4556650" lon="-2.4469410">
        <ele>398.2</ele>
        <time>2022-06-27T05:54:36Z</time>
      </trkpt>
      <trkpt lat="42.4556740" lon="-2.4469880">
        <ele>398.2</ele>
        <time>2022-06-27T05:54:37Z</time>
      </trkpt>
      <trkpt lat="42.4556820" lon="-2.4470290">
        <ele>398.2</ele>
        <time>2022-06-27T05:54:38Z</time>
      </trkpt>
      <trkpt lat="42.4556930" lon="-2.4470610">
        <ele>398.2</ele>
        <time>2022-06-27T05:54:39Z</time>
      </trkpt>
      <trkpt lat="42.4557030" lon="-2.4470940">
        <ele>398.4</ele>
        <time>2022-06-27T05:54:40Z</time>
      </trkpt>
      <trkpt lat="42.4557090" lon="-2.4471110">
        <ele>398.4</ele>
        <time>2022-06-27T05:54:41Z</time>
      </trkpt>
      <trkpt lat="42.4557230" lon="-2.4471290">
        <ele>398.8</ele>
        <time>2022-06-27T05:54:42Z</time>
      </trkpt>
      <trkpt lat="42.4557300" lon="-2.4471480">
        <ele>398.8</ele>
        <time>2022-06-27T05:54:43Z</time>
      </trkpt>
      <trkpt lat="42.4557370" lon="-2.4471780">
        <ele>399.0</ele>
        <time>2022-06-27T05:54:44Z</time>
      </trkpt>
      <trkpt lat="42.4557440" lon="-2.4472140">
        <ele>399.0</ele>
        <time>2022-06-27T05:54:45Z</time>
      </trkpt>
      <trkpt lat="42.4557530" lon="-2.4472680">
        <ele>399.0</ele>
        <time>2022-06-27T05:54:46Z</time>
      </trkpt>
      <trkpt lat="42.4557790" lon="-2.4473350">
        <ele>399.0</ele>
        <time>2022-06-27T05:54:47Z</time>
      </trkpt>
      <trkpt lat="42.4557920" lon="-2.4473850">
        <ele>399.2</ele>
        <time>2022-06-27T05:54:48Z</time>
      </trkpt>
      <trkpt lat="42.4558110" lon="-2.4474460">
        <ele>399.2</ele>
        <time>2022-06-27T05:54:49Z</time>
      </trkpt>
      <trkpt lat="42.4558150" lon="-2.4475120">
        <ele>399.2</ele>
        <time>2022-06-27T05:54:50Z</time>
      </trkpt>
      <trkpt lat="42.4557960" lon="-2.4475770">
        <ele>399.2</ele>
        <time>2022-06-27T05:54:51Z</time>
      </trkpt>
      <trkpt lat="42.4557760" lon="-2.4476350">
        <ele>399.2</ele>
        <time>2022-06-27T05:54:52Z</time>
      </trkpt>
      <trkpt lat="42.4557500" lon="-2.4476910">
        <ele>399.4</ele>
        <time>2022-06-27T05:54:53Z</time>
      </trkpt>
      <trkpt lat="42.4557310" lon="-2.4477390">
        <ele>399.4</ele>
        <time>2022-06-27T05:54:54Z</time>
      </trkpt>
      <trkpt lat="42.4557090" lon="-2.4477840">
        <ele>399.4</ele>
        <time>2022-06-27T05:54:55Z</time>
      </trkpt>
      <trkpt lat="42.4556820" lon="-2.4478180">
        <ele>399.4</ele>
        <time>2022-06-27T05:54:56Z</time>
      </trkpt>
      <trkpt lat="42.4556530" lon="-2.4478400">
        <ele>399.6</ele>
        <time>2022-06-27T05:54:57Z</time>
      </trkpt>
      <trkpt lat="42.4556190" lon="-2.4478560">
        <ele>399.6</ele>
        <time>2022-06-27T05:54:58Z</time>
      </trkpt>
      <trkpt lat="42.4555830" lon="-2.4478660">
        <ele>399.6</ele>
        <time>2022-06-27T05:54:59Z</time>
      </trkpt>
      <trkpt lat="42.4555410" lon="-2.4478710">
        <ele>399.6</ele>
        <time>2022-06-27T05:55:00Z</time>
      </trkpt>
      <trkpt lat="42.4554890" lon="-2.4478670">
        <ele>399.6</ele>
        <time>2022-06-27T05:55:01Z</time>
      </trkpt>
      <trkpt lat="42.4554380" lon="-2.4478690">
        <ele>399.6</ele>
        <time>2022-06-27T05:55:02Z</time>
      </trkpt>
      <trkpt lat="42.4553880" lon="-2.4478870">
        <ele>399.6</ele>
        <time>2022-06-27T05:55:03Z</time>
      </trkpt>
      <trkpt lat="42.4553430" lon="-2.4479200">
        <ele>399.6</ele>
        <time>2022-06-27T05:55:04Z</time>
      </trkpt>
      <trkpt lat="42.4553090" lon="-2.4479340">
        <ele>399.8</ele>
        <time>2022-06-27T05:55:05Z</time>
      </trkpt>
      <trkpt lat="42.4552700" lon="-2.4479390">
        <ele>399.8</ele>
        <time>2022-06-27T05:55:06Z</time>
      </trkpt>
      <trkpt lat="42.4552080" lon="-2.4479570">
        <ele>399.8</ele>
        <time>2022-06-27T05:55:07Z</time>
      </trkpt>
      <trkpt lat="42.4551580" lon="-2.4479720">
        <ele>399.8</ele>
        <time>2022-06-27T05:55:08Z</time>
      </trkpt>
      <trkpt lat="42.4551090" lon="-2.4479940">
        <ele>399.8</ele>
        <time>2022-06-27T05:55:09Z</time>
      </trkpt>
      <trkpt lat="42.4550560" lon="-2.4480100">
        <ele>399.8</ele>
        <time>2022-06-27T05:55:10Z</time>
      </trkpt>
      <trkpt lat="42.4550000" lon="-2.4480220">
        <ele>400.2</ele>
        <time>2022-06-27T05:55:11Z</time>
      </trkpt>
      <trkpt lat="42.4549600" lon="-2.4480410">
        <ele>400.4</ele>
        <time>2022-06-27T05:55:12Z</time>
      </trkpt>
      <trkpt lat="42.4548960" lon="-2.4480620">
        <ele>400.4</ele>
        <time>2022-06-27T05:55:13Z</time>
      </trkpt>
      <trkpt lat="42.4548430" lon="-2.4480720">
        <ele>400.6</ele>
        <time>2022-06-27T05:55:14Z</time>
      </trkpt>
      <trkpt lat="42.4547880" lon="-2.4480770">
        <ele>400.8</ele>
        <time>2022-06-27T05:55:15Z</time>
      </trkpt>
      <trkpt lat="42.4547370" lon="-2.4480880">
        <ele>400.8</ele>
        <time>2022-06-27T05:55:16Z</time>
      </trkpt>
      <trkpt lat="42.4546850" lon="-2.4481020">
        <ele>400.8</ele>
        <time>2022-06-27T05:55:17Z</time>
      </trkpt>
      <trkpt lat="42.4546350" lon="-2.4481110">
        <ele>401.0</ele>
        <time>2022-06-27T05:55:18Z</time>
      </trkpt>
      <trkpt lat="42.4545830" lon="-2.4481110">
        <ele>401.0</ele>
        <time>2022-06-27T05:55:19Z</time>
      </trkpt>
      <trkpt lat="42.4545360" lon="-2.4481160">
        <ele>401.0</ele>
        <time>2022-06-27T05:55:20Z</time>
      </trkpt>
      <trkpt lat="42.4544940" lon="-2.4481220">
        <ele>401.0</ele>
        <time>2022-06-27T05:55:21Z</time>
      </trkpt>
      <trkpt lat="42.4544470" lon="-2.4481300">
        <ele>401.0</ele>
        <time>2022-06-27T05:55:22Z</time>
      </trkpt>
      <trkpt lat="42.4544120" lon="-2.4481440">
        <ele>401.0</ele>
        <time>2022-06-27T05:55:23Z</time>
      </trkpt>
      <trkpt lat="42.4543540" lon="-2.4481590">
        <ele>401.0</ele>
        <time>2022-06-27T05:55:24Z</time>
      </trkpt>
      <trkpt lat="42.4543060" lon="-2.4481690">
        <ele>401.0</ele>
        <time>2022-06-27T05:55:25Z</time>
      </trkpt>
      <trkpt lat="42.4542560" lon="-2.4481930">
        <ele>401.2</ele>
        <time>2022-06-27T05:55:26Z</time>
      </trkpt>
      <trkpt lat="42.4542130" lon="-2.4482250">
        <ele>401.2</ele>
        <time>2022-06-27T05:55:27Z</time>
      </trkpt>
      <trkpt lat="42.4541730" lon="-2.4482390">
        <ele>401.2</ele>
        <time>2022-06-27T05:55:28Z</time>
      </trkpt>
      <trkpt lat="42.4541150" lon="-2.4482590">
        <ele>401.2</ele>
        <time>2022-06-27T05:55:29Z</time>
      </trkpt>
      <trkpt lat="42.4540680" lon="-2.4482770">
        <ele>401.2</ele>
        <time>2022-06-27T05:55:30Z</time>
      </trkpt>
      <trkpt lat="42.4540250" lon="-2.4482990">
        <ele>401.2</ele>
        <time>2022-06-27T05:55:31Z</time>
      </trkpt>
      <trkpt lat="42.4539850" lon="-2.4483210">
        <ele>401.2</ele>
        <time>2022-06-27T05:55:32Z</time>
      </trkpt>
      <trkpt lat="42.4539490" lon="-2.4483440">
        <ele>401.2</ele>
        <time>2022-06-27T05:55:33Z</time>
      </trkpt>
      <trkpt lat="42.4539200" lon="-2.4483690">
        <ele>401.2</ele>
        <time>2022-06-27T05:55:34Z</time>
      </trkpt>
      <trkpt lat="42.4538960" lon="-2.4483900">
        <ele>401.4</ele>
        <time>2022-06-27T05:55:35Z</time>
      </trkpt>
      <trkpt lat="42.4538800" lon="-2.4484070">
        <ele>401.4</ele>
        <time>2022-06-27T05:55:36Z</time>
      </trkpt>
      <trkpt lat="42.4538740" lon="-2.4484170">
        <ele>401.4</ele>
        <time>2022-06-27T05:55:37Z</time>
      </trkpt>
      <trkpt lat="42.4538650" lon="-2.4484270">
        <ele>401.6</ele>
        <time>2022-06-27T05:55:38Z</time>
      </trkpt>
      <trkpt lat="42.4538580" lon="-2.4484350">
        <ele>401.6</ele>
        <time>2022-06-27T05:55:39Z</time>
      </trkpt>
      <trkpt lat="42.4538480" lon="-2.4484460">
        <ele>401.8</ele>
        <time>2022-06-27T05:55:40Z</time>
      </trkpt>
      <trkpt lat="42.4538370" lon="-2.4484600">
        <ele>401.8</ele>
        <time>2022-06-27T05:55:41Z</time>
      </trkpt>
      <trkpt lat="42.4538260" lon="-2.4484880">
        <ele>401.8</ele>
        <time>2022-06-27T05:55:42Z</time>
      </trkpt>
      <trkpt lat="42.4538150" lon="-2.4485190">
        <ele>401.8</ele>
        <time>2022-06-27T05:55:43Z</time>
      </trkpt>
      <trkpt lat="42.4537950" lon="-2.4485700">
        <ele>402.0</ele>
        <time>2022-06-27T05:55:44Z</time>
      </trkpt>
      <trkpt lat="42.4537720" lon="-2.4486150">
        <ele>402.0</ele>
        <time>2022-06-27T05:55:45Z</time>
      </trkpt>
      <trkpt lat="42.4537430" lon="-2.4486570">
        <ele>402.0</ele>
        <time>2022-06-27T05:55:46Z</time>
      </trkpt>
      <trkpt lat="42.4537180" lon="-2.4486900">
        <ele>402.0</ele>
        <time>2022-06-27T05:55:47Z</time>
      </trkpt>
      <trkpt lat="42.4536790" lon="-2.4487180">
        <ele>402.0</ele>
        <time>2022-06-27T05:55:48Z</time>
      </trkpt>
      <trkpt lat="42.4536400" lon="-2.4487470">
        <ele>402.2</ele>
        <time>2022-06-27T05:55:49Z</time>
      </trkpt>
      <trkpt lat="42.4535980" lon="-2.4487660">
        <ele>402.2</ele>
        <time>2022-06-27T05:55:50Z</time>
      </trkpt>
      <trkpt lat="42.4535540" lon="-2.4487720">
        <ele>402.2</ele>
        <time>2022-06-27T05:55:51Z</time>
      </trkpt>
      <trkpt lat="42.4535060" lon="-2.4487670">
        <ele>402.2</ele>
        <time>2022-06-27T05:55:52Z</time>
      </trkpt>
      <trkpt lat="42.4534570" lon="-2.4487540">
        <ele>402.2</ele>
        <time>2022-06-27T05:55:53Z</time>
      </trkpt>
      <trkpt lat="42.4534100" lon="-2.4487300">
        <ele>402.2</ele>
        <time>2022-06-27T05:55:54Z</time>
      </trkpt>
      <trkpt lat="42.4533640" lon="-2.4487000">
        <ele>402.2</ele>
        <time>2022-06-27T05:55:55Z</time>
      </trkpt>
      <trkpt lat="42.4533210" lon="-2.4486660">
        <ele>402.2</ele>
        <time>2022-06-27T05:55:56Z</time>
      </trkpt>
      <trkpt lat="42.4532770" lon="-2.4486270">
        <ele>402.2</ele>
        <time>2022-06-27T05:55:57Z</time>
      </trkpt>
      <trkpt lat="42.4532310" lon="-2.4485940">
        <ele>402.2</ele>
        <time>2022-06-27T05:55:58Z</time>
      </trkpt>
      <trkpt lat="42.4531800" lon="-2.4485740">
        <ele>402.2</ele>
        <time>2022-06-27T05:55:59Z</time>
      </trkpt>
      <trkpt lat="42.4531270" lon="-2.4485700">
        <ele>402.0</ele>
        <time>2022-06-27T05:56:00Z</time>
      </trkpt>
      <trkpt lat="42.4530620" lon="-2.4485800">
        <ele>402.0</ele>
        <time>2022-06-27T05:56:01Z</time>
      </trkpt>
      <trkpt lat="42.4530060" lon="-2.4485930">
        <ele>402.0</ele>
        <time>2022-06-27T05:56:02Z</time>
      </trkpt>
      <trkpt lat="42.4529480" lon="-2.4486060">
        <ele>402.0</ele>
        <time>2022-06-27T05:56:03Z</time>
      </trkpt>
      <trkpt lat="42.4528930" lon="-2.4486220">
        <ele>402.0</ele>
        <time>2022-06-27T05:56:04Z</time>
      </trkpt>
      <trkpt lat="42.4528380" lon="-2.4486400">
        <ele>402.2</ele>
        <time>2022-06-27T05:56:05Z</time>
      </trkpt>
      <trkpt lat="42.4527830" lon="-2.4486590">
        <ele>402.2</ele>
        <time>2022-06-27T05:56:06Z</time>
      </trkpt>
      <trkpt lat="42.4527280" lon="-2.4486780">
        <ele>402.4</ele>
        <time>2022-06-27T05:56:07Z</time>
      </trkpt>
      <trkpt lat="42.4526720" lon="-2.4486950">
        <ele>402.4</ele>
        <time>2022-06-27T05:56:08Z</time>
      </trkpt>
      <trkpt lat="42.4526170" lon="-2.4487100">
        <ele>402.4</ele>
        <time>2022-06-27T05:56:09Z</time>
      </trkpt>
      <trkpt lat="42.4525730" lon="-2.4487220">
        <ele>402.4</ele>
        <time>2022-06-27T05:56:10Z</time>
      </trkpt>
      <trkpt lat="42.4525070" lon="-2.4487390">
        <ele>402.4</ele>
        <time>2022-06-27T05:56:11Z</time>
      </trkpt>
      <trkpt lat="42.4524550" lon="-2.4487550">
        <ele>402.4</ele>
        <time>2022-06-27T05:56:12Z</time>
      </trkpt>
      <trkpt lat="42.4524020" lon="-2.4487710">
        <ele>402.6</ele>
        <time>2022-06-27T05:56:13Z</time>
      </trkpt>
      <trkpt lat="42.4523490" lon="-2.4487850">
        <ele>402.6</ele>
        <time>2022-06-27T05:56:14Z</time>
      </trkpt>
      <trkpt lat="42.4522950" lon="-2.4488010">
        <ele>402.6</ele>
        <time>2022-06-27T05:56:15Z</time>
      </trkpt>
      <trkpt lat="42.4522420" lon="-2.4488170">
        <ele>402.6</ele>
        <time>2022-06-27T05:56:16Z</time>
      </trkpt>
      <trkpt lat="42.4521890" lon="-2.4488340">
        <ele>402.6</ele>
        <time>2022-06-27T05:56:17Z</time>
      </trkpt>
      <trkpt lat="42.4521360" lon="-2.4488520">
        <ele>402.6</ele>
        <time>2022-06-27T05:56:18Z</time>
      </trkpt>
      <trkpt lat="42.4520840" lon="-2.4488670">
        <ele>402.6</ele>
        <time>2022-06-27T05:56:19Z</time>
      </trkpt>
      <trkpt lat="42.4520420" lon="-2.4488800">
        <ele>402.6</ele>
        <time>2022-06-27T05:56:20Z</time>
      </trkpt>
      <trkpt lat="42.4519790" lon="-2.4489010">
        <ele>402.6</ele>
        <time>2022-06-27T05:56:21Z</time>
      </trkpt>
      <trkpt lat="42.4519260" lon="-2.4489160">
        <ele>402.6</ele>
        <time>2022-06-27T05:56:22Z</time>
      </trkpt>
      <trkpt lat="42.4518710" lon="-2.4489320">
        <ele>402.8</ele>
        <time>2022-06-27T05:56:23Z</time>
      </trkpt>
      <trkpt lat="42.4518140" lon="-2.4489450">
        <ele>402.8</ele>
        <time>2022-06-27T05:56:24Z</time>
      </trkpt>
      <trkpt lat="42.4517600" lon="-2.4489610">
        <ele>402.8</ele>
        <time>2022-06-27T05:56:25Z</time>
      </trkpt>
      <trkpt lat="42.4517060" lon="-2.4489770">
        <ele>403.0</ele>
        <time>2022-06-27T05:56:26Z</time>
      </trkpt>
      <trkpt lat="42.4516510" lon="-2.4489910">
        <ele>403.0</ele>
        <time>2022-06-27T05:56:27Z</time>
      </trkpt>
      <trkpt lat="42.4515970" lon="-2.4490060">
        <ele>403.0</ele>
        <time>2022-06-27T05:56:28Z</time>
      </trkpt>
      <trkpt lat="42.4515420" lon="-2.4490210">
        <ele>403.2</ele>
        <time>2022-06-27T05:56:29Z</time>
      </trkpt>
      <trkpt lat="42.4514850" lon="-2.4490370">
        <ele>403.2</ele>
        <time>2022-06-27T05:56:30Z</time>
      </trkpt>
      <trkpt lat="42.4514280" lon="-2.4490540">
        <ele>403.2</ele>
        <time>2022-06-27T05:56:31Z</time>
      </trkpt>
      <trkpt lat="42.4513700" lon="-2.4490720">
        <ele>403.4</ele>
        <time>2022-06-27T05:56:32Z</time>
      </trkpt>
      <trkpt lat="42.4513120" lon="-2.4490900">
        <ele>403.4</ele>
        <time>2022-06-27T05:56:33Z</time>
      </trkpt>
      <trkpt lat="42.4512540" lon="-2.4491060">
        <ele>403.4</ele>
        <time>2022-06-27T05:56:34Z</time>
      </trkpt>
      <trkpt lat="42.4511970" lon="-2.4491230">
        <ele>403.4</ele>
        <time>2022-06-27T05:56:35Z</time>
      </trkpt>
      <trkpt lat="42.4511380" lon="-2.4491380">
        <ele>403.4</ele>
        <time>2022-06-27T05:56:36Z</time>
      </trkpt>
      <trkpt lat="42.4510810" lon="-2.4491540">
        <ele>403.6</ele>
        <time>2022-06-27T05:56:37Z</time>
      </trkpt>
      <trkpt lat="42.4510240" lon="-2.4491720">
        <ele>403.6</ele>
        <time>2022-06-27T05:56:38Z</time>
      </trkpt>
      <trkpt lat="42.4509670" lon="-2.4491890">
        <ele>403.6</ele>
        <time>2022-06-27T05:56:39Z</time>
      </trkpt>
      <trkpt lat="42.4509100" lon="-2.4492060">
        <ele>403.6</ele>
        <time>2022-06-27T05:56:40Z</time>
      </trkpt>
      <trkpt lat="42.4508530" lon="-2.4492230">
        <ele>403.6</ele>
        <time>2022-06-27T05:56:41Z</time>
      </trkpt>
      <trkpt lat="42.4507960" lon="-2.4492380">
        <ele>403.8</ele>
        <time>2022-06-27T05:56:42Z</time>
      </trkpt>
      <trkpt lat="42.4507380" lon="-2.4492530">
        <ele>403.8</ele>
        <time>2022-06-27T05:56:43Z</time>
      </trkpt>
      <trkpt lat="42.4506810" lon="-2.4492700">
        <ele>403.8</ele>
        <time>2022-06-27T05:56:44Z</time>
      </trkpt>
      <trkpt lat="42.4506230" lon="-2.4492850">
        <ele>403.8</ele>
        <time>2022-06-27T05:56:45Z</time>
      </trkpt>
      <trkpt lat="42.4505670" lon="-2.4493000">
        <ele>403.8</ele>
        <time>2022-06-27T05:56:46Z</time>
      </trkpt>
      <trkpt lat="42.4505110" lon="-2.4493160">
        <ele>403.8</ele>
        <time>2022-06-27T05:56:47Z</time>
      </trkpt>
      <trkpt lat="42.4504560" lon="-2.4493320">
        <ele>403.8</ele>
        <time>2022-06-27T05:56:48Z</time>
      </trkpt>
      <trkpt lat="42.4503980" lon="-2.4493480">
        <ele>403.8</ele>
        <time>2022-06-27T05:56:49Z</time>
      </trkpt>
      <trkpt lat="42.4503430" lon="-2.4493640">
        <ele>403.8</ele>
        <time>2022-06-27T05:56:50Z</time>
      </trkpt>
      <trkpt lat="42.4502880" lon="-2.4493810">
        <ele>403.8</ele>
        <time>2022-06-27T05:56:51Z</time>
      </trkpt>
      <trkpt lat="42.4502330" lon="-2.4493990">
        <ele>403.8</ele>
        <time>2022-06-27T05:56:52Z</time>
      </trkpt>
      <trkpt lat="42.4501780" lon="-2.4494170">
        <ele>403.8</ele>
        <time>2022-06-27T05:56:53Z</time>
      </trkpt>
      <trkpt lat="42.4501230" lon="-2.4494320">
        <ele>404.0</ele>
        <time>2022-06-27T05:56:54Z</time>
      </trkpt>
      <trkpt lat="42.4500680" lon="-2.4494480">
        <ele>404.0</ele>
        <time>2022-06-27T05:56:55Z</time>
      </trkpt>
      <trkpt lat="42.4500130" lon="-2.4494630">
        <ele>404.0</ele>
        <time>2022-06-27T05:56:56Z</time>
      </trkpt>
      <trkpt lat="42.4499710" lon="-2.4494750">
        <ele>404.0</ele>
        <time>2022-06-27T05:56:57Z</time>
      </trkpt>
      <trkpt lat="42.4499060" lon="-2.4494910">
        <ele>404.2</ele>
        <time>2022-06-27T05:56:58Z</time>
      </trkpt>
      <trkpt lat="42.4498540" lon="-2.4495070">
        <ele>404.2</ele>
        <time>2022-06-27T05:56:59Z</time>
      </trkpt>
      <trkpt lat="42.4498010" lon="-2.4495230">
        <ele>404.2</ele>
        <time>2022-06-27T05:57:00Z</time>
      </trkpt>
      <trkpt lat="42.4497490" lon="-2.4495410">
        <ele>404.4</ele>
        <time>2022-06-27T05:57:01Z</time>
      </trkpt>
      <trkpt lat="42.4496960" lon="-2.4495590">
        <ele>404.4</ele>
        <time>2022-06-27T05:57:02Z</time>
      </trkpt>
      <trkpt lat="42.4496420" lon="-2.4495780">
        <ele>404.4</ele>
        <time>2022-06-27T05:57:03Z</time>
      </trkpt>
      <trkpt lat="42.4495880" lon="-2.4495950">
        <ele>404.4</ele>
        <time>2022-06-27T05:57:04Z</time>
      </trkpt>
      <trkpt lat="42.4495340" lon="-2.4496130">
        <ele>404.6</ele>
        <time>2022-06-27T05:57:05Z</time>
      </trkpt>
      <trkpt lat="42.4494780" lon="-2.4496290">
        <ele>404.6</ele>
        <time>2022-06-27T05:57:06Z</time>
      </trkpt>
      <trkpt lat="42.4494220" lon="-2.4496440">
        <ele>404.6</ele>
        <time>2022-06-27T05:57:07Z</time>
      </trkpt>
      <trkpt lat="42.4493670" lon="-2.4496600">
        <ele>404.8</ele>
        <time>2022-06-27T05:57:08Z</time>
      </trkpt>
      <trkpt lat="42.4493100" lon="-2.4496740">
        <ele>404.8</ele>
        <time>2022-06-27T05:57:09Z</time>
      </trkpt>
      <trkpt lat="42.4492530" lon="-2.4496880">
        <ele>404.8</ele>
        <time>2022-06-27T05:57:10Z</time>
      </trkpt>
      <trkpt lat="42.4491970" lon="-2.4497020">
        <ele>405.0</ele>
        <time>2022-06-27T05:57:11Z</time>
      </trkpt>
      <trkpt lat="42.4491390" lon="-2.4497140">
        <ele>405.0</ele>
        <time>2022-06-27T05:57:12Z</time>
      </trkpt>
      <trkpt lat="42.4490840" lon="-2.4497290">
        <ele>405.0</ele>
        <time>2022-06-27T05:57:13Z</time>
      </trkpt>
      <trkpt lat="42.4490320" lon="-2.4497450">
        <ele>405.0</ele>
        <time>2022-06-27T05:57:14Z</time>
      </trkpt>
      <trkpt lat="42.4489910" lon="-2.4497570">
        <ele>405.0</ele>
        <time>2022-06-27T05:57:15Z</time>
      </trkpt>
      <trkpt lat="42.4489420" lon="-2.4497730">
        <ele>405.0</ele>
        <time>2022-06-27T05:57:16Z</time>
      </trkpt>
      <trkpt lat="42.4488950" lon="-2.4497910">
        <ele>405.0</ele>
        <time>2022-06-27T05:57:17Z</time>
      </trkpt>
      <trkpt lat="42.4488500" lon="-2.4498100">
        <ele>405.2</ele>
        <time>2022-06-27T05:57:18Z</time>
      </trkpt>
      <trkpt lat="42.4488130" lon="-2.4498370">
        <ele>405.4</ele>
        <time>2022-06-27T05:57:19Z</time>
      </trkpt>
      <trkpt lat="42.4487840" lon="-2.4498790">
        <ele>405.4</ele>
        <time>2022-06-27T05:57:20Z</time>
      </trkpt>
      <trkpt lat="42.4487510" lon="-2.4499420">
        <ele>405.6</ele>
        <time>2022-06-27T05:57:21Z</time>
      </trkpt>
      <trkpt lat="42.4487250" lon="-2.4500020">
        <ele>405.6</ele>
        <time>2022-06-27T05:57:22Z</time>
      </trkpt>
      <trkpt lat="42.4486940" lon="-2.4500570">
        <ele>405.6</ele>
        <time>2022-06-27T05:57:23Z</time>
      </trkpt>
      <trkpt lat="42.4486550" lon="-2.4500960">
        <ele>405.6</ele>
        <time>2022-06-27T05:57:24Z</time>
      </trkpt>
      <trkpt lat="42.4486100" lon="-2.4501180">
        <ele>405.6</ele>
        <time>2022-06-27T05:57:25Z</time>
      </trkpt>
      <trkpt lat="42.4485610" lon="-2.4501220">
        <ele>405.8</ele>
        <time>2022-06-27T05:57:26Z</time>
      </trkpt>
      <trkpt lat="42.4485140" lon="-2.4501040">
        <ele>405.8</ele>
        <time>2022-06-27T05:57:27Z</time>
      </trkpt>
      <trkpt lat="42.4484700" lon="-2.4500690">
        <ele>405.8</ele>
        <time>2022-06-27T05:57:28Z</time>
      </trkpt>
      <trkpt lat="42.4484280" lon="-2.4500310">
        <ele>405.8</ele>
        <time>2022-06-27T05:57:29Z</time>
      </trkpt>
      <trkpt lat="42.4483840" lon="-2.4500000">
        <ele>405.8</ele>
        <time>2022-06-27T05:57:30Z</time>
      </trkpt>
      <trkpt lat="42.4483470" lon="-2.4499850">
        <ele>405.8</ele>
        <time>2022-06-27T05:57:31Z</time>
      </trkpt>
      <trkpt lat="42.4482900" lon="-2.4499730">
        <ele>405.8</ele>
        <time>2022-06-27T05:57:32Z</time>
      </trkpt>
      <trkpt lat="42.4482390" lon="-2.4499780">
        <ele>405.8</ele>
        <time>2022-06-27T05:57:33Z</time>
      </trkpt>
      <trkpt lat="42.4481880" lon="-2.4499910">
        <ele>405.8</ele>
        <time>2022-06-27T05:57:34Z</time>
      </trkpt>
      <trkpt lat="42.4481360" lon="-2.4500080">
        <ele>405.8</ele>
        <time>2022-06-27T05:57:35Z</time>
      </trkpt>
      <trkpt lat="42.4480820" lon="-2.4500220">
        <ele>405.8</ele>
        <time>2022-06-27T05:57:36Z</time>
      </trkpt>
      <trkpt lat="42.4480270" lon="-2.4500360">
        <ele>405.8</ele>
        <time>2022-06-27T05:57:37Z</time>
      </trkpt>
      <trkpt lat="42.4479730" lon="-2.4500550">
        <ele>406.0</ele>
        <time>2022-06-27T05:57:38Z</time>
      </trkpt>
      <trkpt lat="42.4479180" lon="-2.4500740">
        <ele>406.0</ele>
        <time>2022-06-27T05:57:39Z</time>
      </trkpt>
      <trkpt lat="42.4478720" lon="-2.4500900">
        <ele>406.4</ele>
        <time>2022-06-27T05:57:40Z</time>
      </trkpt>
      <trkpt lat="42.4478050" lon="-2.4501110">
        <ele>406.4</ele>
        <time>2022-06-27T05:57:41Z</time>
      </trkpt>
      <trkpt lat="42.4477490" lon="-2.4501290">
        <ele>406.6</ele>
        <time>2022-06-27T05:57:42Z</time>
      </trkpt>
      <trkpt lat="42.4476950" lon="-2.4501470">
        <ele>406.6</ele>
        <time>2022-06-27T05:57:43Z</time>
      </trkpt>
      <trkpt lat="42.4476390" lon="-2.4501630">
        <ele>406.8</ele>
        <time>2022-06-27T05:57:44Z</time>
      </trkpt>
      <trkpt lat="42.4475830" lon="-2.4501780">
        <ele>406.8</ele>
        <time>2022-06-27T05:57:45Z</time>
      </trkpt>
      <trkpt lat="42.4475380" lon="-2.4501910">
        <ele>406.8</ele>
        <time>2022-06-27T05:57:46Z</time>
      </trkpt>
      <trkpt lat="42.4474720" lon="-2.4502090">
        <ele>407.0</ele>
        <time>2022-06-27T05:57:47Z</time>
      </trkpt>
      <trkpt lat="42.4474180" lon="-2.4502260">
        <ele>407.0</ele>
        <time>2022-06-27T05:57:48Z</time>
      </trkpt>
      <trkpt lat="42.4473640" lon="-2.4502430">
        <ele>407.0</ele>
        <time>2022-06-27T05:57:49Z</time>
      </trkpt>
      <trkpt lat="42.4473100" lon="-2.4502610">
        <ele>407.2</ele>
        <time>2022-06-27T05:57:50Z</time>
      </trkpt>
      <trkpt lat="42.4472540" lon="-2.4502810">
        <ele>407.2</ele>
        <time>2022-06-27T05:57:51Z</time>
      </trkpt>
      <trkpt lat="42.4472080" lon="-2.4502970">
        <ele>407.2</ele>
        <time>2022-06-27T05:57:52Z</time>
      </trkpt>
      <trkpt lat="42.4471400" lon="-2.4503210">
        <ele>407.4</ele>
        <time>2022-06-27T05:57:53Z</time>
      </trkpt>
      <trkpt lat="42.4470820" lon="-2.4503390">
        <ele>407.4</ele>
        <time>2022-06-27T05:57:54Z</time>
      </trkpt>
      <trkpt lat="42.4470230" lon="-2.4503540">
        <ele>407.6</ele>
        <time>2022-06-27T05:57:55Z</time>
      </trkpt>
      <trkpt lat="42.4469660" lon="-2.4503730">
        <ele>407.6</ele>
        <time>2022-06-27T05:57:56Z</time>
      </trkpt>
      <trkpt lat="42.4469090" lon="-2.4503900">
        <ele>407.6</ele>
        <time>2022-06-27T05:57:57Z</time>
      </trkpt>
      <trkpt lat="42.4468520" lon="-2.4504070">
        <ele>407.6</ele>
        <time>2022-06-27T05:57:58Z</time>
      </trkpt>
      <trkpt lat="42.4467980" lon="-2.4504250">
        <ele>407.6</ele>
        <time>2022-06-27T05:57:59Z</time>
      </trkpt>
      <trkpt lat="42.4467420" lon="-2.4504400">
        <ele>407.6</ele>
        <time>2022-06-27T05:58:00Z</time>
      </trkpt>
      <trkpt lat="42.4466850" lon="-2.4504540">
        <ele>407.8</ele>
        <time>2022-06-27T05:58:01Z</time>
      </trkpt>
      <trkpt lat="42.4466290" lon="-2.4504660">
        <ele>407.8</ele>
        <time>2022-06-27T05:58:02Z</time>
      </trkpt>
      <trkpt lat="42.4465740" lon="-2.4504810">
        <ele>407.8</ele>
        <time>2022-06-27T05:58:03Z</time>
      </trkpt>
      <trkpt lat="42.4465170" lon="-2.4504950">
        <ele>407.8</ele>
        <time>2022-06-27T05:58:04Z</time>
      </trkpt>
      <trkpt lat="42.4464630" lon="-2.4505110">
        <ele>408.0</ele>
        <time>2022-06-27T05:58:05Z</time>
      </trkpt>
      <trkpt lat="42.4464070" lon="-2.4505260">
        <ele>408.0</ele>
        <time>2022-06-27T05:58:06Z</time>
      </trkpt>
      <trkpt lat="42.4463620" lon="-2.4505390">
        <ele>408.0</ele>
        <time>2022-06-27T05:58:07Z</time>
      </trkpt>
      <trkpt lat="42.4463070" lon="-2.4505550">
        <ele>408.2</ele>
        <time>2022-06-27T05:58:08Z</time>
      </trkpt>
      <trkpt lat="42.4462410" lon="-2.4505740">
        <ele>408.2</ele>
        <time>2022-06-27T05:58:09Z</time>
      </trkpt>
      <trkpt lat="42.4461870" lon="-2.4505910">
        <ele>408.2</ele>
        <time>2022-06-27T05:58:10Z</time>
      </trkpt>
      <trkpt lat="42.4461320" lon="-2.4506070">
        <ele>408.4</ele>
        <time>2022-06-27T05:58:11Z</time>
      </trkpt>
      <trkpt lat="42.4460770" lon="-2.4506250">
        <ele>408.4</ele>
        <time>2022-06-27T05:58:12Z</time>
      </trkpt>
      <trkpt lat="42.4460230" lon="-2.4506450">
        <ele>408.4</ele>
        <time>2022-06-27T05:58:13Z</time>
      </trkpt>
      <trkpt lat="42.4459690" lon="-2.4506600">
        <ele>408.8</ele>
        <time>2022-06-27T05:58:14Z</time>
      </trkpt>
      <trkpt lat="42.4459150" lon="-2.4506750">
        <ele>408.8</ele>
        <time>2022-06-27T05:58:15Z</time>
      </trkpt>
      <trkpt lat="42.4458610" lon="-2.4506920">
        <ele>408.8</ele>
        <time>2022-06-27T05:58:16Z</time>
      </trkpt>
      <trkpt lat="42.4458180" lon="-2.4507070">
        <ele>408.8</ele>
        <time>2022-06-27T05:58:17Z</time>
      </trkpt>
      <trkpt lat="42.4457540" lon="-2.4507310">
        <ele>408.8</ele>
        <time>2022-06-27T05:58:18Z</time>
      </trkpt>
      <trkpt lat="42.4457010" lon="-2.4507530">
        <ele>409.0</ele>
        <time>2022-06-27T05:58:19Z</time>
      </trkpt>
      <trkpt lat="42.4456470" lon="-2.4507690">
        <ele>409.0</ele>
        <time>2022-06-27T05:58:20Z</time>
      </trkpt>
      <trkpt lat="42.4455910" lon="-2.4507840">
        <ele>409.0</ele>
        <time>2022-06-27T05:58:21Z</time>
      </trkpt>
      <trkpt lat="42.4455360" lon="-2.4508010">
        <ele>409.0</ele>
        <time>2022-06-27T05:58:22Z</time>
      </trkpt>
      <trkpt lat="42.4454800" lon="-2.4508160">
        <ele>409.0</ele>
        <time>2022-06-27T05:58:23Z</time>
      </trkpt>
      <trkpt lat="42.4454260" lon="-2.4508320">
        <ele>409.0</ele>
        <time>2022-06-27T05:58:24Z</time>
      </trkpt>
      <trkpt lat="42.4453730" lon="-2.4508500">
        <ele>409.0</ele>
        <time>2022-06-27T05:58:25Z</time>
      </trkpt>
      <trkpt lat="42.4453180" lon="-2.4508630">
        <ele>409.0</ele>
        <time>2022-06-27T05:58:26Z</time>
      </trkpt>
      <trkpt lat="42.4452640" lon="-2.4508780">
        <ele>409.0</ele>
        <time>2022-06-27T05:58:27Z</time>
      </trkpt>
      <trkpt lat="42.4452120" lon="-2.4508940">
        <ele>409.0</ele>
        <time>2022-06-27T05:58:28Z</time>
      </trkpt>
      <trkpt lat="42.4451610" lon="-2.4509090">
        <ele>409.2</ele>
        <time>2022-06-27T05:58:29Z</time>
      </trkpt>
      <trkpt lat="42.4451080" lon="-2.4509250">
        <ele>409.0</ele>
        <time>2022-06-27T05:58:30Z</time>
      </trkpt>
      <trkpt lat="42.4450570" lon="-2.4509450">
        <ele>409.0</ele>
        <time>2022-06-27T05:58:31Z</time>
      </trkpt>
      <trkpt lat="42.4450060" lon="-2.4509690">
        <ele>409.0</ele>
        <time>2022-06-27T05:58:32Z</time>
      </trkpt>
      <trkpt lat="42.4449580" lon="-2.4510030">
        <ele>409.0</ele>
        <time>2022-06-27T05:58:33Z</time>
      </trkpt>
      <trkpt lat="42.4449140" lon="-2.4510450">
        <ele>409.0</ele>
        <time>2022-06-27T05:58:34Z</time>
      </trkpt>
      <trkpt lat="42.4448700" lon="-2.4510890">
        <ele>409.0</ele>
        <time>2022-06-27T05:58:35Z</time>
      </trkpt>
      <trkpt lat="42.4448280" lon="-2.4511350">
        <ele>409.0</ele>
        <time>2022-06-27T05:58:36Z</time>
      </trkpt>
      <trkpt lat="42.4447830" lon="-2.4511810">
        <ele>409.0</ele>
        <time>2022-06-27T05:58:37Z</time>
      </trkpt>
      <trkpt lat="42.4447320" lon="-2.4512130">
        <ele>409.0</ele>
        <time>2022-06-27T05:58:38Z</time>
      </trkpt>
      <trkpt lat="42.4446760" lon="-2.4512260">
        <ele>409.0</ele>
        <time>2022-06-27T05:58:39Z</time>
      </trkpt>
      <trkpt lat="42.4446210" lon="-2.4512230">
        <ele>409.0</ele>
        <time>2022-06-27T05:58:40Z</time>
      </trkpt>
      <trkpt lat="42.4445690" lon="-2.4512030">
        <ele>409.0</ele>
        <time>2022-06-27T05:58:41Z</time>
      </trkpt>
      <trkpt lat="42.4445200" lon="-2.4511760">
        <ele>409.0</ele>
        <time>2022-06-27T05:58:42Z</time>
      </trkpt>
      <trkpt lat="42.4444710" lon="-2.4511550">
        <ele>409.2</ele>
        <time>2022-06-27T05:58:43Z</time>
      </trkpt>
      <trkpt lat="42.4444180" lon="-2.4511450">
        <ele>409.2</ele>
        <time>2022-06-27T05:58:44Z</time>
      </trkpt>
      <trkpt lat="42.4443640" lon="-2.4511460">
        <ele>409.4</ele>
        <time>2022-06-27T05:58:45Z</time>
      </trkpt>
      <trkpt lat="42.4443100" lon="-2.4511570">
        <ele>409.4</ele>
        <time>2022-06-27T05:58:46Z</time>
      </trkpt>
      <trkpt lat="42.4442560" lon="-2.4511750">
        <ele>409.6</ele>
        <time>2022-06-27T05:58:47Z</time>
      </trkpt>
      <trkpt lat="42.4442020" lon="-2.4511960">
        <ele>409.8</ele>
        <time>2022-06-27T05:58:48Z</time>
      </trkpt>
      <trkpt lat="42.4441470" lon="-2.4512150">
        <ele>409.8</ele>
        <time>2022-06-27T05:58:49Z</time>
      </trkpt>
      <trkpt lat="42.4440930" lon="-2.4512330">
        <ele>410.0</ele>
        <time>2022-06-27T05:58:50Z</time>
      </trkpt>
      <trkpt lat="42.4440380" lon="-2.4512500">
        <ele>410.0</ele>
        <time>2022-06-27T05:58:51Z</time>
      </trkpt>
      <trkpt lat="42.4439840" lon="-2.4512670">
        <ele>410.2</ele>
        <time>2022-06-27T05:58:52Z</time>
      </trkpt>
      <trkpt lat="42.4439300" lon="-2.4512830">
        <ele>410.2</ele>
        <time>2022-06-27T05:58:53Z</time>
      </trkpt>
      <trkpt lat="42.4438750" lon="-2.4513000">
        <ele>410.4</ele>
        <time>2022-06-27T05:58:54Z</time>
      </trkpt>
      <trkpt lat="42.4438210" lon="-2.4513160">
        <ele>410.4</ele>
        <time>2022-06-27T05:58:55Z</time>
      </trkpt>
      <trkpt lat="42.4437660" lon="-2.4513330">
        <ele>410.4</ele>
        <time>2022-06-27T05:58:56Z</time>
      </trkpt>
      <trkpt lat="42.4437130" lon="-2.4513490">
        <ele>410.4</ele>
        <time>2022-06-27T05:58:57Z</time>
      </trkpt>
      <trkpt lat="42.4436600" lon="-2.4513660">
        <ele>410.4</ele>
        <time>2022-06-27T05:58:58Z</time>
      </trkpt>
      <trkpt lat="42.4436060" lon="-2.4513840">
        <ele>410.6</ele>
        <time>2022-06-27T05:58:59Z</time>
      </trkpt>
      <trkpt lat="42.4435520" lon="-2.4514000">
        <ele>410.6</ele>
        <time>2022-06-27T05:59:00Z</time>
      </trkpt>
      <trkpt lat="42.4434970" lon="-2.4514160">
        <ele>410.8</ele>
        <time>2022-06-27T05:59:01Z</time>
      </trkpt>
      <trkpt lat="42.4434430" lon="-2.4514320">
        <ele>410.8</ele>
        <time>2022-06-27T05:59:02Z</time>
      </trkpt>
      <trkpt lat="42.4433900" lon="-2.4514490">
        <ele>410.8</ele>
        <time>2022-06-27T05:59:03Z</time>
      </trkpt>
      <trkpt lat="42.4433360" lon="-2.4514670">
        <ele>410.8</ele>
        <time>2022-06-27T05:59:04Z</time>
      </trkpt>
      <trkpt lat="42.4432830" lon="-2.4514870">
        <ele>411.0</ele>
        <time>2022-06-27T05:59:05Z</time>
      </trkpt>
      <trkpt lat="42.4432290" lon="-2.4515040">
        <ele>411.2</ele>
        <time>2022-06-27T05:59:06Z</time>
      </trkpt>
      <trkpt lat="42.4431740" lon="-2.4515210">
        <ele>411.2</ele>
        <time>2022-06-27T05:59:07Z</time>
      </trkpt>
      <trkpt lat="42.4431200" lon="-2.4515390">
        <ele>411.2</ele>
        <time>2022-06-27T05:59:08Z</time>
      </trkpt>
      <trkpt lat="42.4430660" lon="-2.4515560">
        <ele>411.2</ele>
        <time>2022-06-27T05:59:09Z</time>
      </trkpt>
      <trkpt lat="42.4430100" lon="-2.4515710">
        <ele>411.4</ele>
        <time>2022-06-27T05:59:10Z</time>
      </trkpt>
      <trkpt lat="42.4429550" lon="-2.4515870">
        <ele>411.4</ele>
        <time>2022-06-27T05:59:11Z</time>
      </trkpt>
      <trkpt lat="42.4429020" lon="-2.4516050">
        <ele>411.4</ele>
        <time>2022-06-27T05:59:12Z</time>
      </trkpt>
      <trkpt lat="42.4428480" lon="-2.4516220">
        <ele>411.6</ele>
        <time>2022-06-27T05:59:13Z</time>
      </trkpt>
      <trkpt lat="42.4427950" lon="-2.4516380">
        <ele>411.6</ele>
        <time>2022-06-27T05:59:14Z</time>
      </trkpt>
      <trkpt lat="42.4427410" lon="-2.4516560">
        <ele>411.8</ele>
        <time>2022-06-27T05:59:15Z</time>
      </trkpt>
      <trkpt lat="42.4426850" lon="-2.4516720">
        <ele>411.8</ele>
        <time>2022-06-27T05:59:16Z</time>
      </trkpt>
      <trkpt lat="42.4426300" lon="-2.4516900">
        <ele>412.0</ele>
        <time>2022-06-27T05:59:17Z</time>
      </trkpt>
      <trkpt lat="42.4425730" lon="-2.4517080">
        <ele>412.0</ele>
        <time>2022-06-27T05:59:18Z</time>
      </trkpt>
      <trkpt lat="42.4425270" lon="-2.4517210">
        <ele>412.0</ele>
        <time>2022-06-27T05:59:19Z</time>
      </trkpt>
      <trkpt lat="42.4424740" lon="-2.4517380">
        <ele>412.0</ele>
        <time>2022-06-27T05:59:20Z</time>
      </trkpt>
      <trkpt lat="42.4424190" lon="-2.4517560">
        <ele>412.0</ele>
        <time>2022-06-27T05:59:21Z</time>
      </trkpt>
      <trkpt lat="42.4423670" lon="-2.4517740">
        <ele>412.2</ele>
        <time>2022-06-27T05:59:22Z</time>
      </trkpt>
      <trkpt lat="42.4423120" lon="-2.4517910">
        <ele>412.2</ele>
        <time>2022-06-27T05:59:23Z</time>
      </trkpt>
      <trkpt lat="42.4422550" lon="-2.4518090">
        <ele>412.2</ele>
        <time>2022-06-27T05:59:24Z</time>
      </trkpt>
      <trkpt lat="42.4422000" lon="-2.4518250">
        <ele>412.4</ele>
        <time>2022-06-27T05:59:25Z</time>
      </trkpt>
      <trkpt lat="42.4421450" lon="-2.4518420">
        <ele>412.4</ele>
        <time>2022-06-27T05:59:26Z</time>
      </trkpt>
      <trkpt lat="42.4420880" lon="-2.4518570">
        <ele>412.4</ele>
        <time>2022-06-27T05:59:27Z</time>
      </trkpt>
      <trkpt lat="42.4420330" lon="-2.4518720">
        <ele>412.4</ele>
        <time>2022-06-27T05:59:28Z</time>
      </trkpt>
      <trkpt lat="42.4419660" lon="-2.4518930">
        <ele>412.4</ele>
        <time>2022-06-27T05:59:29Z</time>
      </trkpt>
      <trkpt lat="42.4419230" lon="-2.4519070">
        <ele>412.6</ele>
        <time>2022-06-27T05:59:30Z</time>
      </trkpt>
      <trkpt lat="42.4418700" lon="-2.4519260">
        <ele>412.6</ele>
        <time>2022-06-27T05:59:31Z</time>
      </trkpt>
      <trkpt lat="42.4418150" lon="-2.4519430">
        <ele>412.6</ele>
        <time>2022-06-27T05:59:32Z</time>
      </trkpt>
      <trkpt lat="42.4417490" lon="-2.4519640">
        <ele>412.6</ele>
        <time>2022-06-27T05:59:33Z</time>
      </trkpt>
      <trkpt lat="42.4416940" lon="-2.4519790">
        <ele>412.6</ele>
        <time>2022-06-27T05:59:34Z</time>
      </trkpt>
      <trkpt lat="42.4416390" lon="-2.4519970">
        <ele>412.6</ele>
        <time>2022-06-27T05:59:35Z</time>
      </trkpt>
      <trkpt lat="42.4415870" lon="-2.4520160">
        <ele>412.6</ele>
        <time>2022-06-27T05:59:36Z</time>
      </trkpt>
      <trkpt lat="42.4415340" lon="-2.4520350">
        <ele>412.6</ele>
        <time>2022-06-27T05:59:37Z</time>
      </trkpt>
      <trkpt lat="42.4414820" lon="-2.4520530">
        <ele>412.8</ele>
        <time>2022-06-27T05:59:38Z</time>
      </trkpt>
      <trkpt lat="42.4414270" lon="-2.4520700">
        <ele>412.8</ele>
        <time>2022-06-27T05:59:39Z</time>
      </trkpt>
      <trkpt lat="42.4413710" lon="-2.4520840">
        <ele>413.0</ele>
        <time>2022-06-27T05:59:40Z</time>
      </trkpt>
      <trkpt lat="42.4413180" lon="-2.4520990">
        <ele>413.0</ele>
        <time>2022-06-27T05:59:41Z</time>
      </trkpt>
      <trkpt lat="42.4412650" lon="-2.4521150">
        <ele>413.2</ele>
        <time>2022-06-27T05:59:42Z</time>
      </trkpt>
      <trkpt lat="42.4412110" lon="-2.4521300">
        <ele>413.2</ele>
        <time>2022-06-27T05:59:43Z</time>
      </trkpt>
      <trkpt lat="42.4411570" lon="-2.4521440">
        <ele>413.2</ele>
        <time>2022-06-27T05:59:44Z</time>
      </trkpt>
      <trkpt lat="42.4411030" lon="-2.4521660">
        <ele>413.2</ele>
        <time>2022-06-27T05:59:45Z</time>
      </trkpt>
      <trkpt lat="42.4410510" lon="-2.4521840">
        <ele>413.2</ele>
        <time>2022-06-27T05:59:46Z</time>
      </trkpt>
      <trkpt lat="42.4409980" lon="-2.4522010">
        <ele>413.2</ele>
        <time>2022-06-27T05:59:47Z</time>
      </trkpt>
      <trkpt lat="42.4409440" lon="-2.4522190">
        <ele>413.4</ele>
        <time>2022-06-27T05:59:48Z</time>
      </trkpt>
      <trkpt lat="42.4408890" lon="-2.4522390">
        <ele>413.4</ele>
        <time>2022-06-27T05:59:49Z</time>
      </trkpt>
      <trkpt lat="42.4408350" lon="-2.4522560">
        <ele>413.4</ele>
        <time>2022-06-27T05:59:50Z</time>
      </trkpt>
      <trkpt lat="42.4407810" lon="-2.4522750">
        <ele>413.6</ele>
        <time>2022-06-27T05:59:51Z</time>
      </trkpt>
      <trkpt lat="42.4407260" lon="-2.4522920">
        <ele>413.8</ele>
        <time>2022-06-27T05:59:52Z</time>
      </trkpt>
      <trkpt lat="42.4406720" lon="-2.4523100">
        <ele>414.0</ele>
        <time>2022-06-27T05:59:53Z</time>
      </trkpt>
      <trkpt lat="42.4406190" lon="-2.4523250">
        <ele>414.0</ele>
        <time>2022-06-27T05:59:54Z</time>
      </trkpt>
      <trkpt lat="42.4405650" lon="-2.4523390">
        <ele>414.0</ele>
        <time>2022-06-27T05:59:55Z</time>
      </trkpt>
      <trkpt lat="42.4405120" lon="-2.4523530">
        <ele>414.0</ele>
        <time>2022-06-27T05:59:56Z</time>
      </trkpt>
      <trkpt lat="42.4404570" lon="-2.4523660">
        <ele>414.0</ele>
        <time>2022-06-27T05:59:57Z</time>
      </trkpt>
      <trkpt lat="42.4404020" lon="-2.4523790">
        <ele>414.2</ele>
        <time>2022-06-27T05:59:58Z</time>
      </trkpt>
      <trkpt lat="42.4403490" lon="-2.4523920">
        <ele>414.2</ele>
        <time>2022-06-27T05:59:59Z</time>
      </trkpt>
      <trkpt lat="42.4402960" lon="-2.4524070">
        <ele>414.2</ele>
        <time>2022-06-27T06:00:00Z</time>
      </trkpt>
      <trkpt lat="42.4402440" lon="-2.4524220">
        <ele>414.4</ele>
        <time>2022-06-27T06:00:01Z</time>
      </trkpt>
      <trkpt lat="42.4401900" lon="-2.4524370">
        <ele>414.4</ele>
        <time>2022-06-27T06:00:02Z</time>
      </trkpt>
      <trkpt lat="42.4401380" lon="-2.4524550">
        <ele>414.6</ele>
        <time>2022-06-27T06:00:03Z</time>
      </trkpt>
      <trkpt lat="42.4400850" lon="-2.4524760">
        <ele>414.6</ele>
        <time>2022-06-27T06:00:04Z</time>
      </trkpt>
      <trkpt lat="42.4400320" lon="-2.4524940">
        <ele>414.6</ele>
        <time>2022-06-27T06:00:05Z</time>
      </trkpt>
      <trkpt lat="42.4399780" lon="-2.4525090">
        <ele>414.6</ele>
        <time>2022-06-27T06:00:06Z</time>
      </trkpt>
      <trkpt lat="42.4399240" lon="-2.4525250">
        <ele>414.6</ele>
        <time>2022-06-27T06:00:07Z</time>
      </trkpt>
      <trkpt lat="42.4398700" lon="-2.4525430">
        <ele>414.8</ele>
        <time>2022-06-27T06:00:08Z</time>
      </trkpt>
      <trkpt lat="42.4398150" lon="-2.4525600">
        <ele>414.8</ele>
        <time>2022-06-27T06:00:09Z</time>
      </trkpt>
      <trkpt lat="42.4397590" lon="-2.4525760">
        <ele>415.0</ele>
        <time>2022-06-27T06:00:10Z</time>
      </trkpt>
      <trkpt lat="42.4397050" lon="-2.4525910">
        <ele>415.2</ele>
        <time>2022-06-27T06:00:11Z</time>
      </trkpt>
      <trkpt lat="42.4396520" lon="-2.4526090">
        <ele>415.2</ele>
        <time>2022-06-27T06:00:12Z</time>
      </trkpt>
      <trkpt lat="42.4395980" lon="-2.4526290">
        <ele>415.4</ele>
        <time>2022-06-27T06:00:13Z</time>
      </trkpt>
      <trkpt lat="42.4395440" lon="-2.4526470">
        <ele>415.4</ele>
        <time>2022-06-27T06:00:14Z</time>
      </trkpt>
      <trkpt lat="42.4394900" lon="-2.4526630">
        <ele>415.4</ele>
        <time>2022-06-27T06:00:15Z</time>
      </trkpt>
      <trkpt lat="42.4394360" lon="-2.4526790">
        <ele>415.4</ele>
        <time>2022-06-27T06:00:16Z</time>
      </trkpt>
      <trkpt lat="42.4393810" lon="-2.4526960">
        <ele>415.4</ele>
        <time>2022-06-27T06:00:17Z</time>
      </trkpt>
      <trkpt lat="42.4393280" lon="-2.4527140">
        <ele>415.4</ele>
        <time>2022-06-27T06:00:18Z</time>
      </trkpt>
      <trkpt lat="42.4392750" lon="-2.4527310">
        <ele>415.4</ele>
        <time>2022-06-27T06:00:19Z</time>
      </trkpt>
      <trkpt lat="42.4392210" lon="-2.4527470">
        <ele>415.6</ele>
        <time>2022-06-27T06:00:20Z</time>
      </trkpt>
      <trkpt lat="42.4391780" lon="-2.4527600">
        <ele>415.6</ele>
        <time>2022-06-27T06:00:21Z</time>
      </trkpt>
      <trkpt lat="42.4391250" lon="-2.4527770">
        <ele>415.6</ele>
        <time>2022-06-27T06:00:22Z</time>
      </trkpt>
      <trkpt lat="42.4390720" lon="-2.4527940">
        <ele>415.6</ele>
        <time>2022-06-27T06:00:23Z</time>
      </trkpt>
      <trkpt lat="42.4390190" lon="-2.4528100">
        <ele>415.8</ele>
        <time>2022-06-27T06:00:24Z</time>
      </trkpt>
      <trkpt lat="42.4389660" lon="-2.4528300">
        <ele>415.8</ele>
        <time>2022-06-27T06:00:25Z</time>
      </trkpt>
      <trkpt lat="42.4389130" lon="-2.4528480">
        <ele>415.8</ele>
        <time>2022-06-27T06:00:26Z</time>
      </trkpt>
      <trkpt lat="42.4388500" lon="-2.4528700">
        <ele>416.0</ele>
        <time>2022-06-27T06:00:27Z</time>
      </trkpt>
      <trkpt lat="42.4387990" lon="-2.4528850">
        <ele>416.0</ele>
        <time>2022-06-27T06:00:28Z</time>
      </trkpt>
      <trkpt lat="42.4387480" lon="-2.4529000">
        <ele>416.0</ele>
        <time>2022-06-27T06:00:29Z</time>
      </trkpt>
      <trkpt lat="42.4386940" lon="-2.4529110">
        <ele>416.0</ele>
        <time>2022-06-27T06:00:30Z</time>
      </trkpt>
      <trkpt lat="42.4386390" lon="-2.4529240">
        <ele>416.2</ele>
        <time>2022-06-27T06:00:31Z</time>
      </trkpt>
      <trkpt lat="42.4385850" lon="-2.4529390">
        <ele>416.2</ele>
        <time>2022-06-27T06:00:32Z</time>
      </trkpt>
      <trkpt lat="42.4385320" lon="-2.4529550">
        <ele>416.2</ele>
        <time>2022-06-27T06:00:33Z</time>
      </trkpt>
      <trkpt lat="42.4384790" lon="-2.4529710">
        <ele>416.2</ele>
        <time>2022-06-27T06:00:34Z</time>
      </trkpt>
      <trkpt lat="42.4384260" lon="-2.4529870">
        <ele>416.4</ele>
        <time>2022-06-27T06:00:35Z</time>
      </trkpt>
      <trkpt lat="42.4383730" lon="-2.4530040">
        <ele>416.4</ele>
        <time>2022-06-27T06:00:36Z</time>
      </trkpt>
      <trkpt lat="42.4383210" lon="-2.4530200">
        <ele>416.6</ele>
        <time>2022-06-27T06:00:37Z</time>
      </trkpt>
      <trkpt lat="42.4382680" lon="-2.4530340">
        <ele>416.6</ele>
        <time>2022-06-27T06:00:38Z</time>
      </trkpt>
      <trkpt lat="42.4382170" lon="-2.4530480">
        <ele>416.8</ele>
        <time>2022-06-27T06:00:39Z</time>
      </trkpt>
      <trkpt lat="42.4381660" lon="-2.4530630">
        <ele>416.8</ele>
        <time>2022-06-27T06:00:40Z</time>
      </trkpt>
      <trkpt lat="42.4381260" lon="-2.4530750">
        <ele>416.8</ele>
        <time>2022-06-27T06:00:41Z</time>
      </trkpt>
      <trkpt lat="42.4380790" lon="-2.4530910">
        <ele>416.8</ele>
        <time>2022-06-27T06:00:42Z</time>
      </trkpt>
      <trkpt lat="42.4380310" lon="-2.4531080">
        <ele>417.0</ele>
        <time>2022-06-27T06:00:43Z</time>
      </trkpt>
      <trkpt lat="42.4379850" lon="-2.4531300">
        <ele>417.0</ele>
        <time>2022-06-27T06:00:44Z</time>
      </trkpt>
      <trkpt lat="42.4379400" lon="-2.4531550">
        <ele>417.0</ele>
        <time>2022-06-27T06:00:45Z</time>
      </trkpt>
      <trkpt lat="42.4378960" lon="-2.4531870">
        <ele>417.0</ele>
        <time>2022-06-27T06:00:46Z</time>
      </trkpt>
      <trkpt lat="42.4378530" lon="-2.4532230">
        <ele>417.0</ele>
        <time>2022-06-27T06:00:47Z</time>
      </trkpt>
      <trkpt lat="42.4378100" lon="-2.4532610">
        <ele>417.0</ele>
        <time>2022-06-27T06:00:48Z</time>
      </trkpt>
      <trkpt lat="42.4377640" lon="-2.4532950">
        <ele>417.0</ele>
        <time>2022-06-27T06:00:49Z</time>
      </trkpt>
      <trkpt lat="42.4377140" lon="-2.4533250">
        <ele>417.0</ele>
        <time>2022-06-27T06:00:50Z</time>
      </trkpt>
      <trkpt lat="42.4376590" lon="-2.4533420">
        <ele>417.0</ele>
        <time>2022-06-27T06:00:51Z</time>
      </trkpt>
      <trkpt lat="42.4376040" lon="-2.4533440">
        <ele>417.0</ele>
        <time>2022-06-27T06:00:52Z</time>
      </trkpt>
      <trkpt lat="42.4375490" lon="-2.4533320">
        <ele>417.0</ele>
        <time>2022-06-27T06:00:53Z</time>
      </trkpt>
      <trkpt lat="42.4374860" lon="-2.4533150">
        <ele>417.2</ele>
        <time>2022-06-27T06:00:54Z</time>
      </trkpt>
      <trkpt lat="42.4374440" lon="-2.4533050">
        <ele>417.2</ele>
        <time>2022-06-27T06:00:55Z</time>
      </trkpt>
      <trkpt lat="42.4373920" lon="-2.4533000">
        <ele>417.2</ele>
        <time>2022-06-27T06:00:56Z</time>
      </trkpt>
      <trkpt lat="42.4373410" lon="-2.4533070">
        <ele>417.2</ele>
        <time>2022-06-27T06:00:57Z</time>
      </trkpt>
      <trkpt lat="42.4372890" lon="-2.4533180">
        <ele>417.4</ele>
        <time>2022-06-27T06:00:58Z</time>
      </trkpt>
      <trkpt lat="42.4372360" lon="-2.4533330">
        <ele>417.4</ele>
        <time>2022-06-27T06:00:59Z</time>
      </trkpt>
      <trkpt lat="42.4371840" lon="-2.4533490">
        <ele>417.8</ele>
        <time>2022-06-27T06:01:00Z</time>
      </trkpt>
      <trkpt lat="42.4371320" lon="-2.4533640">
        <ele>417.6</ele>
        <time>2022-06-27T06:01:01Z</time>
      </trkpt>
      <trkpt lat="42.4370810" lon="-2.4533800">
        <ele>418.0</ele>
        <time>2022-06-27T06:01:02Z</time>
      </trkpt>
      <trkpt lat="42.4370300" lon="-2.4533970">
        <ele>418.2</ele>
        <time>2022-06-27T06:01:03Z</time>
      </trkpt>
      <trkpt lat="42.4369780" lon="-2.4534130">
        <ele>418.2</ele>
        <time>2022-06-27T06:01:04Z</time>
      </trkpt>
      <trkpt lat="42.4369240" lon="-2.4534270">
        <ele>418.0</ele>
        <time>2022-06-27T06:01:05Z</time>
      </trkpt>
      <trkpt lat="42.4368710" lon="-2.4534420">
        <ele>418.2</ele>
        <time>2022-06-27T06:01:06Z</time>
      </trkpt>
      <trkpt lat="42.4368200" lon="-2.4534600">
        <ele>418.4</ele>
        <time>2022-06-27T06:01:07Z</time>
      </trkpt>
      <trkpt lat="42.4367670" lon="-2.4534770">
        <ele>418.4</ele>
        <time>2022-06-27T06:01:08Z</time>
      </trkpt>
      <trkpt lat="42.4367140" lon="-2.4534910">
        <ele>418.4</ele>
        <time>2022-06-27T06:01:09Z</time>
      </trkpt>
      <trkpt lat="42.4366620" lon="-2.4535070">
        <ele>418.4</ele>
        <time>2022-06-27T06:01:10Z</time>
      </trkpt>
      <trkpt lat="42.4366110" lon="-2.4535240">
        <ele>418.4</ele>
        <time>2022-06-27T06:01:11Z</time>
      </trkpt>
      <trkpt lat="42.4365590" lon="-2.4535410">
        <ele>418.4</ele>
        <time>2022-06-27T06:01:12Z</time>
      </trkpt>
      <trkpt lat="42.4365070" lon="-2.4535570">
        <ele>418.6</ele>
        <time>2022-06-27T06:01:13Z</time>
      </trkpt>
      <trkpt lat="42.4364560" lon="-2.4535720">
        <ele>418.6</ele>
        <time>2022-06-27T06:01:14Z</time>
      </trkpt>
      <trkpt lat="42.4364030" lon="-2.4535870">
        <ele>418.8</ele>
        <time>2022-06-27T06:01:15Z</time>
      </trkpt>
      <trkpt lat="42.4363500" lon="-2.4536020">
        <ele>418.8</ele>
        <time>2022-06-27T06:01:16Z</time>
      </trkpt>
      <trkpt lat="42.4362970" lon="-2.4536150">
        <ele>419.0</ele>
        <time>2022-06-27T06:01:17Z</time>
      </trkpt>
      <trkpt lat="42.4362430" lon="-2.4536320">
        <ele>419.0</ele>
        <time>2022-06-27T06:01:18Z</time>
      </trkpt>
      <trkpt lat="42.4361910" lon="-2.4536510">
        <ele>419.0</ele>
        <time>2022-06-27T06:01:19Z</time>
      </trkpt>
      <trkpt lat="42.4361410" lon="-2.4536700">
        <ele>419.2</ele>
        <time>2022-06-27T06:01:20Z</time>
      </trkpt>
      <trkpt lat="42.4360810" lon="-2.4536940">
        <ele>419.2</ele>
        <time>2022-06-27T06:01:21Z</time>
      </trkpt>
      <trkpt lat="42.4360410" lon="-2.4537110">
        <ele>419.2</ele>
        <time>2022-06-27T06:01:22Z</time>
      </trkpt>
      <trkpt lat="42.4359890" lon="-2.4537320">
        <ele>419.2</ele>
        <time>2022-06-27T06:01:23Z</time>
      </trkpt>
      <trkpt lat="42.4359380" lon="-2.4537500">
        <ele>419.2</ele>
        <time>2022-06-27T06:01:24Z</time>
      </trkpt>
      <trkpt lat="42.4358880" lon="-2.4537680">
        <ele>419.2</ele>
        <time>2022-06-27T06:01:25Z</time>
      </trkpt>
      <trkpt lat="42.4358370" lon="-2.4537840">
        <ele>419.2</ele>
        <time>2022-06-27T06:01:26Z</time>
      </trkpt>
      <trkpt lat="42.4357840" lon="-2.4538000">
        <ele>419.4</ele>
        <time>2022-06-27T06:01:27Z</time>
      </trkpt>
      <trkpt lat="42.4357310" lon="-2.4538160">
        <ele>419.4</ele>
        <time>2022-06-27T06:01:28Z</time>
      </trkpt>
      <trkpt lat="42.4356790" lon="-2.4538320">
        <ele>419.4</ele>
        <time>2022-06-27T06:01:29Z</time>
      </trkpt>
      <trkpt lat="42.4356270" lon="-2.4538480">
        <ele>419.4</ele>
        <time>2022-06-27T06:01:30Z</time>
      </trkpt>
      <trkpt lat="42.4355730" lon="-2.4538620">
        <ele>419.6</ele>
        <time>2022-06-27T06:01:31Z</time>
      </trkpt>
      <trkpt lat="42.4355200" lon="-2.4538770">
        <ele>419.6</ele>
        <time>2022-06-27T06:01:32Z</time>
      </trkpt>
      <trkpt lat="42.4354690" lon="-2.4538930">
        <ele>419.6</ele>
        <time>2022-06-27T06:01:33Z</time>
      </trkpt>
      <trkpt lat="42.4354170" lon="-2.4539100">
        <ele>419.6</ele>
        <time>2022-06-27T06:01:34Z</time>
      </trkpt>
      <trkpt lat="42.4353680" lon="-2.4539290">
        <ele>419.6</ele>
        <time>2022-06-27T06:01:35Z</time>
      </trkpt>
      <trkpt lat="42.4353180" lon="-2.4539470">
        <ele>419.8</ele>
        <time>2022-06-27T06:01:36Z</time>
      </trkpt>
      <trkpt lat="42.4352560" lon="-2.4539670">
        <ele>419.8</ele>
        <time>2022-06-27T06:01:37Z</time>
      </trkpt>
      <trkpt lat="42.4352150" lon="-2.4539800">
        <ele>420.0</ele>
        <time>2022-06-27T06:01:38Z</time>
      </trkpt>
      <trkpt lat="42.4351670" lon="-2.4539970">
        <ele>420.2</ele>
        <time>2022-06-27T06:01:39Z</time>
      </trkpt>
      <trkpt lat="42.4351190" lon="-2.4540150">
        <ele>420.4</ele>
        <time>2022-06-27T06:01:40Z</time>
      </trkpt>
      <trkpt lat="42.4350710" lon="-2.4540300">
        <ele>420.6</ele>
        <time>2022-06-27T06:01:41Z</time>
      </trkpt>
      <trkpt lat="42.4350240" lon="-2.4540460">
        <ele>420.6</ele>
        <time>2022-06-27T06:01:42Z</time>
      </trkpt>
      <trkpt lat="42.4349780" lon="-2.4540640">
        <ele>421.0</ele>
        <time>2022-06-27T06:01:43Z</time>
      </trkpt>
      <trkpt lat="42.4349300" lon="-2.4540800">
        <ele>421.2</ele>
        <time>2022-06-27T06:01:44Z</time>
      </trkpt>
      <trkpt lat="42.4348830" lon="-2.4540950">
        <ele>421.4</ele>
        <time>2022-06-27T06:01:45Z</time>
      </trkpt>
      <trkpt lat="42.4348380" lon="-2.4541120">
        <ele>421.6</ele>
        <time>2022-06-27T06:01:46Z</time>
      </trkpt>
      <trkpt lat="42.4347930" lon="-2.4541290">
        <ele>421.6</ele>
        <time>2022-06-27T06:01:47Z</time>
      </trkpt>
      <trkpt lat="42.4347480" lon="-2.4541440">
        <ele>421.8</ele>
        <time>2022-06-27T06:01:48Z</time>
      </trkpt>
      <trkpt lat="42.4347020" lon="-2.4541600">
        <ele>422.0</ele>
        <time>2022-06-27T06:01:49Z</time>
      </trkpt>
      <trkpt lat="42.4346590" lon="-2.4541740">
        <ele>422.0</ele>
        <time>2022-06-27T06:01:50Z</time>
      </trkpt>
      <trkpt lat="42.4346160" lon="-2.4541870">
        <ele>422.2</ele>
        <time>2022-06-27T06:01:51Z</time>
      </trkpt>
      <trkpt lat="42.4345740" lon="-2.4542000">
        <ele>422.4</ele>
        <time>2022-06-27T06:01:52Z</time>
      </trkpt>
      <trkpt lat="42.4345320" lon="-2.4542130">
        <ele>422.6</ele>
        <time>2022-06-27T06:01:53Z</time>
      </trkpt>
      <trkpt lat="42.4344880" lon="-2.4542250">
        <ele>422.8</ele>
        <time>2022-06-27T06:01:54Z</time>
      </trkpt>
      <trkpt lat="42.4344440" lon="-2.4542360">
        <ele>423.0</ele>
        <time>2022-06-27T06:01:55Z</time>
      </trkpt>
      <trkpt lat="42.4343990" lon="-2.4542480">
        <ele>423.0</ele>
        <time>2022-06-27T06:01:56Z</time>
      </trkpt>
      <trkpt lat="42.4343540" lon="-2.4542640">
        <ele>423.2</ele>
        <time>2022-06-27T06:01:57Z</time>
      </trkpt>
      <trkpt lat="42.4343090" lon="-2.4542770">
        <ele>423.2</ele>
        <time>2022-06-27T06:01:58Z</time>
      </trkpt>
      <trkpt lat="42.4342650" lon="-2.4542900">
        <ele>423.4</ele>
        <time>2022-06-27T06:01:59Z</time>
      </trkpt>
      <trkpt lat="42.4342210" lon="-2.4543000">
        <ele>423.6</ele>
        <time>2022-06-27T06:02:00Z</time>
      </trkpt>
      <trkpt lat="42.4341770" lon="-2.4543110">
        <ele>423.8</ele>
        <time>2022-06-27T06:02:01Z</time>
      </trkpt>
      <trkpt lat="42.4341300" lon="-2.4543200">
        <ele>424.0</ele>
        <time>2022-06-27T06:02:02Z</time>
      </trkpt>
      <trkpt lat="42.4340830" lon="-2.4543290">
        <ele>424.2</ele>
        <time>2022-06-27T06:02:03Z</time>
      </trkpt>
      <trkpt lat="42.4340350" lon="-2.4543400">
        <ele>424.2</ele>
        <time>2022-06-27T06:02:04Z</time>
      </trkpt>
      <trkpt lat="42.4339880" lon="-2.4543520">
        <ele>424.4</ele>
        <time>2022-06-27T06:02:05Z</time>
      </trkpt>
      <trkpt lat="42.4339400" lon="-2.4543650">
        <ele>424.4</ele>
        <time>2022-06-27T06:02:06Z</time>
      </trkpt>
      <trkpt lat="42.4338920" lon="-2.4543730">
        <ele>424.6</ele>
        <time>2022-06-27T06:02:07Z</time>
      </trkpt>
      <trkpt lat="42.4338450" lon="-2.4543810">
        <ele>425.0</ele>
        <time>2022-06-27T06:02:08Z</time>
      </trkpt>
      <trkpt lat="42.4337970" lon="-2.4543870">
        <ele>425.2</ele>
        <time>2022-06-27T06:02:09Z</time>
      </trkpt>
      <trkpt lat="42.4337510" lon="-2.4543930">
        <ele>425.2</ele>
        <time>2022-06-27T06:02:10Z</time>
      </trkpt>
      <trkpt lat="42.4337020" lon="-2.4543960">
        <ele>425.2</ele>
        <time>2022-06-27T06:02:11Z</time>
      </trkpt>
      <trkpt lat="42.4336540" lon="-2.4544030">
        <ele>425.4</ele>
        <time>2022-06-27T06:02:12Z</time>
      </trkpt>
      <trkpt lat="42.4336060" lon="-2.4544070">
        <ele>425.6</ele>
        <time>2022-06-27T06:02:13Z</time>
      </trkpt>
      <trkpt lat="42.4335570" lon="-2.4544110">
        <ele>425.6</ele>
        <time>2022-06-27T06:02:14Z</time>
      </trkpt>
      <trkpt lat="42.4335110" lon="-2.4544170">
        <ele>425.8</ele>
        <time>2022-06-27T06:02:15Z</time>
      </trkpt>
      <trkpt lat="42.4334630" lon="-2.4544260">
        <ele>426.2</ele>
        <time>2022-06-27T06:02:16Z</time>
      </trkpt>
      <trkpt lat="42.4334120" lon="-2.4544300">
        <ele>426.2</ele>
        <time>2022-06-27T06:02:17Z</time>
      </trkpt>
      <trkpt lat="42.4333610" lon="-2.4544330">
        <ele>426.4</ele>
        <time>2022-06-27T06:02:18Z</time>
      </trkpt>
      <trkpt lat="42.4333090" lon="-2.4544400">
        <ele>426.4</ele>
        <time>2022-06-27T06:02:19Z</time>
      </trkpt>
      <trkpt lat="42.4332560" lon="-2.4544490">
        <ele>426.6</ele>
        <time>2022-06-27T06:02:20Z</time>
      </trkpt>
      <trkpt lat="42.4332050" lon="-2.4544600">
        <ele>426.6</ele>
        <time>2022-06-27T06:02:21Z</time>
      </trkpt>
      <trkpt lat="42.4331540" lon="-2.4544720">
        <ele>427.0</ele>
        <time>2022-06-27T06:02:22Z</time>
      </trkpt>
      <trkpt lat="42.4331050" lon="-2.4544850">
        <ele>427.2</ele>
        <time>2022-06-27T06:02:23Z</time>
      </trkpt>
      <trkpt lat="42.4330470" lon="-2.4544990">
        <ele>427.2</ele>
        <time>2022-06-27T06:02:24Z</time>
      </trkpt>
      <trkpt lat="42.4330070" lon="-2.4545090">
        <ele>427.2</ele>
        <time>2022-06-27T06:02:25Z</time>
      </trkpt>
      <trkpt lat="42.4329490" lon="-2.4545230">
        <ele>427.4</ele>
        <time>2022-06-27T06:02:26Z</time>
      </trkpt>
      <trkpt lat="42.4329080" lon="-2.4545300">
        <ele>427.4</ele>
        <time>2022-06-27T06:02:27Z</time>
      </trkpt>
      <trkpt lat="42.4328580" lon="-2.4545430">
        <ele>427.4</ele>
        <time>2022-06-27T06:02:28Z</time>
      </trkpt>
      <trkpt lat="42.4327990" lon="-2.4545640">
        <ele>427.6</ele>
        <time>2022-06-27T06:02:29Z</time>
      </trkpt>
      <trkpt lat="42.4327470" lon="-2.4545830">
        <ele>427.6</ele>
        <time>2022-06-27T06:02:30Z</time>
      </trkpt>
      <trkpt lat="42.4326960" lon="-2.4546040">
        <ele>427.6</ele>
        <time>2022-06-27T06:02:31Z</time>
      </trkpt>
      <trkpt lat="42.4326550" lon="-2.4546210">
        <ele>427.8</ele>
        <time>2022-06-27T06:02:32Z</time>
      </trkpt>
      <trkpt lat="42.4326030" lon="-2.4546430">
        <ele>427.8</ele>
        <time>2022-06-27T06:02:33Z</time>
      </trkpt>
      <trkpt lat="42.4325410" lon="-2.4546700">
        <ele>427.8</ele>
        <time>2022-06-27T06:02:34Z</time>
      </trkpt>
      <trkpt lat="42.4324870" lon="-2.4546940">
        <ele>428.0</ele>
        <time>2022-06-27T06:02:35Z</time>
      </trkpt>
      <trkpt lat="42.4324330" lon="-2.4547180">
        <ele>427.8</ele>
        <time>2022-06-27T06:02:36Z</time>
      </trkpt>
      <trkpt lat="42.4323890" lon="-2.4547390">
        <ele>427.8</ele>
        <time>2022-06-27T06:02:37Z</time>
      </trkpt>
      <trkpt lat="42.4323350" lon="-2.4547660">
        <ele>427.8</ele>
        <time>2022-06-27T06:02:38Z</time>
      </trkpt>
      <trkpt lat="42.4322800" lon="-2.4547930">
        <ele>427.8</ele>
        <time>2022-06-27T06:02:39Z</time>
      </trkpt>
      <trkpt lat="42.4322110" lon="-2.4548230">
        <ele>427.8</ele>
        <time>2022-06-27T06:02:40Z</time>
      </trkpt>
      <trkpt lat="42.4321530" lon="-2.4548460">
        <ele>427.6</ele>
        <time>2022-06-27T06:02:41Z</time>
      </trkpt>
      <trkpt lat="42.4321090" lon="-2.4548670">
        <ele>427.4</ele>
        <time>2022-06-27T06:02:42Z</time>
      </trkpt>
      <trkpt lat="42.4320510" lon="-2.4548940">
        <ele>427.4</ele>
        <time>2022-06-27T06:02:43Z</time>
      </trkpt>
      <trkpt lat="42.4319910" lon="-2.4549190">
        <ele>427.4</ele>
        <time>2022-06-27T06:02:44Z</time>
      </trkpt>
      <trkpt lat="42.4319170" lon="-2.4549470">
        <ele>427.2</ele>
        <time>2022-06-27T06:02:45Z</time>
      </trkpt>
      <trkpt lat="42.4318550" lon="-2.4549710">
        <ele>427.0</ele>
        <time>2022-06-27T06:02:46Z</time>
      </trkpt>
      <trkpt lat="42.4317910" lon="-2.4549930">
        <ele>427.0</ele>
        <time>2022-06-27T06:02:47Z</time>
      </trkpt>
      <trkpt lat="42.4317400" lon="-2.4550080">
        <ele>426.8</ele>
        <time>2022-06-27T06:02:48Z</time>
      </trkpt>
      <trkpt lat="42.4316760" lon="-2.4550280">
        <ele>426.8</ele>
        <time>2022-06-27T06:02:49Z</time>
      </trkpt>
      <trkpt lat="42.4316000" lon="-2.4550510">
        <ele>426.6</ele>
        <time>2022-06-27T06:02:50Z</time>
      </trkpt>
      <trkpt lat="42.4315350" lon="-2.4550710">
        <ele>426.6</ele>
        <time>2022-06-27T06:02:51Z</time>
      </trkpt>
      <trkpt lat="42.4314720" lon="-2.4550900">
        <ele>426.4</ele>
        <time>2022-06-27T06:02:52Z</time>
      </trkpt>
      <trkpt lat="42.4314210" lon="-2.4551050">
        <ele>426.4</ele>
        <time>2022-06-27T06:02:53Z</time>
      </trkpt>
      <trkpt lat="42.4313580" lon="-2.4551230">
        <ele>426.2</ele>
        <time>2022-06-27T06:02:54Z</time>
      </trkpt>
      <trkpt lat="42.4312840" lon="-2.4551450">
        <ele>426.0</ele>
        <time>2022-06-27T06:02:55Z</time>
      </trkpt>
      <trkpt lat="42.4312220" lon="-2.4551640">
        <ele>426.0</ele>
        <time>2022-06-27T06:02:56Z</time>
      </trkpt>
      <trkpt lat="42.4311630" lon="-2.4551840">
        <ele>425.8</ele>
        <time>2022-06-27T06:02:57Z</time>
      </trkpt>
      <trkpt lat="42.4311170" lon="-2.4552010">
        <ele>425.8</ele>
        <time>2022-06-27T06:02:58Z</time>
      </trkpt>
      <trkpt lat="42.4310580" lon="-2.4552210">
        <ele>425.6</ele>
        <time>2022-06-27T06:02:59Z</time>
      </trkpt>
      <trkpt lat="42.4309900" lon="-2.4552430">
        <ele>425.8</ele>
        <time>2022-06-27T06:03:00Z</time>
      </trkpt>
      <trkpt lat="42.4309330" lon="-2.4552610">
        <ele>425.8</ele>
        <time>2022-06-27T06:03:01Z</time>
      </trkpt>
      <trkpt lat="42.4308750" lon="-2.4552790">
        <ele>425.8</ele>
        <time>2022-06-27T06:03:02Z</time>
      </trkpt>
      <trkpt lat="42.4308300" lon="-2.4552930">
        <ele>426.0</ele>
        <time>2022-06-27T06:03:03Z</time>
      </trkpt>
      <trkpt lat="42.4307740" lon="-2.4553100">
        <ele>426.2</ele>
        <time>2022-06-27T06:03:04Z</time>
      </trkpt>
      <trkpt lat="42.4307180" lon="-2.4553280">
        <ele>426.4</ele>
        <time>2022-06-27T06:03:05Z</time>
      </trkpt>
      <trkpt lat="42.4306520" lon="-2.4553480">
        <ele>426.4</ele>
        <time>2022-06-27T06:03:06Z</time>
      </trkpt>
      <trkpt lat="42.4305960" lon="-2.4553650">
        <ele>426.4</ele>
        <time>2022-06-27T06:03:07Z</time>
      </trkpt>
      <trkpt lat="42.4305420" lon="-2.4553840">
        <ele>426.4</ele>
        <time>2022-06-27T06:03:08Z</time>
      </trkpt>
      <trkpt lat="42.4305000" lon="-2.4553990">
        <ele>426.4</ele>
        <time>2022-06-27T06:03:09Z</time>
      </trkpt>
      <trkpt lat="42.4304490" lon="-2.4554190">
        <ele>426.4</ele>
        <time>2022-06-27T06:03:10Z</time>
      </trkpt>
      <trkpt lat="42.4303840" lon="-2.4554400">
        <ele>426.6</ele>
        <time>2022-06-27T06:03:11Z</time>
      </trkpt>
      <trkpt lat="42.4303300" lon="-2.4554540">
        <ele>426.6</ele>
        <time>2022-06-27T06:03:12Z</time>
      </trkpt>
      <trkpt lat="42.4302770" lon="-2.4554710">
        <ele>426.6</ele>
        <time>2022-06-27T06:03:13Z</time>
      </trkpt>
      <trkpt lat="42.4302360" lon="-2.4554840">
        <ele>426.6</ele>
        <time>2022-06-27T06:03:14Z</time>
      </trkpt>
      <trkpt lat="42.4301820" lon="-2.4554970">
        <ele>426.6</ele>
        <time>2022-06-27T06:03:15Z</time>
      </trkpt>
      <trkpt lat="42.4301190" lon="-2.4555170">
        <ele>426.8</ele>
        <time>2022-06-27T06:03:16Z</time>
      </trkpt>
      <trkpt lat="42.4300660" lon="-2.4555350">
        <ele>426.8</ele>
        <time>2022-06-27T06:03:17Z</time>
      </trkpt>
      <trkpt lat="42.4300140" lon="-2.4555520">
        <ele>426.8</ele>
        <time>2022-06-27T06:03:18Z</time>
      </trkpt>
      <trkpt lat="42.4299710" lon="-2.4555640">
        <ele>426.8</ele>
        <time>2022-06-27T06:03:19Z</time>
      </trkpt>
      <trkpt lat="42.4299170" lon="-2.4555780">
        <ele>427.0</ele>
        <time>2022-06-27T06:03:20Z</time>
      </trkpt>
      <trkpt lat="42.4298540" lon="-2.4555950">
        <ele>427.0</ele>
        <time>2022-06-27T06:03:21Z</time>
      </trkpt>
      <trkpt lat="42.4298120" lon="-2.4556070">
        <ele>427.2</ele>
        <time>2022-06-27T06:03:22Z</time>
      </trkpt>
      <trkpt lat="42.4297500" lon="-2.4556230">
        <ele>427.4</ele>
        <time>2022-06-27T06:03:23Z</time>
      </trkpt>
      <trkpt lat="42.4297090" lon="-2.4556360">
        <ele>427.4</ele>
        <time>2022-06-27T06:03:24Z</time>
      </trkpt>
      <trkpt lat="42.4296570" lon="-2.4556540">
        <ele>427.4</ele>
        <time>2022-06-27T06:03:25Z</time>
      </trkpt>
      <trkpt lat="42.4296060" lon="-2.4556740">
        <ele>427.4</ele>
        <time>2022-06-27T06:03:26Z</time>
      </trkpt>
      <trkpt lat="42.4295450" lon="-2.4556990">
        <ele>427.4</ele>
        <time>2022-06-27T06:03:27Z</time>
      </trkpt>
      <trkpt lat="42.4294930" lon="-2.4557160">
        <ele>427.6</ele>
        <time>2022-06-27T06:03:28Z</time>
      </trkpt>
      <trkpt lat="42.4294520" lon="-2.4557270">
        <ele>427.6</ele>
        <time>2022-06-27T06:03:29Z</time>
      </trkpt>
      <trkpt lat="42.4294010" lon="-2.4557450">
        <ele>427.8</ele>
        <time>2022-06-27T06:03:30Z</time>
      </trkpt>
      <trkpt lat="42.4293490" lon="-2.4557610">
        <ele>427.8</ele>
        <time>2022-06-27T06:03:31Z</time>
      </trkpt>
      <trkpt lat="42.4292890" lon="-2.4557780">
        <ele>428.0</ele>
        <time>2022-06-27T06:03:32Z</time>
      </trkpt>
      <trkpt lat="42.4292380" lon="-2.4557940">
        <ele>428.0</ele>
        <time>2022-06-27T06:03:33Z</time>
      </trkpt>
      <trkpt lat="42.4291970" lon="-2.4558070">
        <ele>428.0</ele>
        <time>2022-06-27T06:03:34Z</time>
      </trkpt>
      <trkpt lat="42.4291450" lon="-2.4558230">
        <ele>428.2</ele>
        <time>2022-06-27T06:03:35Z</time>
      </trkpt>
      <trkpt lat="42.4290940" lon="-2.4558380">
        <ele>428.2</ele>
        <time>2022-06-27T06:03:36Z</time>
      </trkpt>
      <trkpt lat="42.4290330" lon="-2.4558570">
        <ele>428.4</ele>
        <time>2022-06-27T06:03:37Z</time>
      </trkpt>
      <trkpt lat="42.4289850" lon="-2.4558720">
        <ele>428.4</ele>
        <time>2022-06-27T06:03:38Z</time>
      </trkpt>
      <trkpt lat="42.4289360" lon="-2.4558870">
        <ele>428.6</ele>
        <time>2022-06-27T06:03:39Z</time>
      </trkpt>
      <trkpt lat="42.4288980" lon="-2.4559040">
        <ele>428.6</ele>
        <time>2022-06-27T06:03:40Z</time>
      </trkpt>
      <trkpt lat="42.4288490" lon="-2.4559250">
        <ele>428.8</ele>
        <time>2022-06-27T06:03:41Z</time>
      </trkpt>
      <trkpt lat="42.4287900" lon="-2.4559480">
        <ele>429.0</ele>
        <time>2022-06-27T06:03:42Z</time>
      </trkpt>
      <trkpt lat="42.4287400" lon="-2.4559660">
        <ele>429.0</ele>
        <time>2022-06-27T06:03:43Z</time>
      </trkpt>
      <trkpt lat="42.4286930" lon="-2.4559850">
        <ele>429.2</ele>
        <time>2022-06-27T06:03:44Z</time>
      </trkpt>
      <trkpt lat="42.4286530" lon="-2.4559990">
        <ele>429.2</ele>
        <time>2022-06-27T06:03:45Z</time>
      </trkpt>
      <trkpt lat="42.4286060" lon="-2.4560190">
        <ele>429.2</ele>
        <time>2022-06-27T06:03:46Z</time>
      </trkpt>
      <trkpt lat="42.4285590" lon="-2.4560380">
        <ele>429.4</ele>
        <time>2022-06-27T06:03:47Z</time>
      </trkpt>
      <trkpt lat="42.4285040" lon="-2.4560580">
        <ele>429.4</ele>
        <time>2022-06-27T06:03:48Z</time>
      </trkpt>
      <trkpt lat="42.4284690" lon="-2.4560710">
        <ele>429.4</ele>
        <time>2022-06-27T06:03:49Z</time>
      </trkpt>
      <trkpt lat="42.4284260" lon="-2.4560890">
        <ele>429.6</ele>
        <time>2022-06-27T06:03:50Z</time>
      </trkpt>
      <trkpt lat="42.4283800" lon="-2.4561030">
        <ele>429.4</ele>
        <time>2022-06-27T06:03:51Z</time>
      </trkpt>
      <trkpt lat="42.4283350" lon="-2.4561180">
        <ele>429.6</ele>
        <time>2022-06-27T06:03:52Z</time>
      </trkpt>
      <trkpt lat="42.4282830" lon="-2.4561350">
        <ele>429.8</ele>
        <time>2022-06-27T06:03:53Z</time>
      </trkpt>
      <trkpt lat="42.4282350" lon="-2.4561460">
        <ele>429.8</ele>
        <time>2022-06-27T06:03:54Z</time>
      </trkpt>
      <trkpt lat="42.4281870" lon="-2.4561570">
        <ele>429.8</ele>
        <time>2022-06-27T06:03:55Z</time>
      </trkpt>
      <trkpt lat="42.4281480" lon="-2.4561640">
        <ele>430.0</ele>
        <time>2022-06-27T06:03:56Z</time>
      </trkpt>
      <trkpt lat="42.4280990" lon="-2.4561740">
        <ele>430.0</ele>
        <time>2022-06-27T06:03:57Z</time>
      </trkpt>
      <trkpt lat="42.4280420" lon="-2.4561890">
        <ele>430.0</ele>
        <time>2022-06-27T06:03:58Z</time>
      </trkpt>
      <trkpt lat="42.4279920" lon="-2.4562040">
        <ele>430.2</ele>
        <time>2022-06-27T06:03:59Z</time>
      </trkpt>
      <trkpt lat="42.4279420" lon="-2.4562190">
        <ele>430.4</ele>
        <time>2022-06-27T06:04:00Z</time>
      </trkpt>
      <trkpt lat="42.4279010" lon="-2.4562280">
        <ele>430.6</ele>
        <time>2022-06-27T06:04:01Z</time>
      </trkpt>
      <trkpt lat="42.4278480" lon="-2.4562370">
        <ele>430.6</ele>
        <time>2022-06-27T06:04:02Z</time>
      </trkpt>
      <trkpt lat="42.4277880" lon="-2.4562510">
        <ele>430.8</ele>
        <time>2022-06-27T06:04:03Z</time>
      </trkpt>
      <trkpt lat="42.4277350" lon="-2.4562630">
        <ele>431.0</ele>
        <time>2022-06-27T06:04:04Z</time>
      </trkpt>
      <trkpt lat="42.4276860" lon="-2.4562780">
        <ele>431.0</ele>
        <time>2022-06-27T06:04:05Z</time>
      </trkpt>
      <trkpt lat="42.4276470" lon="-2.4562910">
        <ele>431.0</ele>
        <time>2022-06-27T06:04:06Z</time>
      </trkpt>
      <trkpt lat="42.4275970" lon="-2.4563050">
        <ele>431.2</ele>
        <time>2022-06-27T06:04:07Z</time>
      </trkpt>
      <trkpt lat="42.4275460" lon="-2.4563180">
        <ele>431.2</ele>
        <time>2022-06-27T06:04:08Z</time>
      </trkpt>
      <trkpt lat="42.4274860" lon="-2.4563360">
        <ele>431.4</ele>
        <time>2022-06-27T06:04:09Z</time>
      </trkpt>
      <trkpt lat="42.4274370" lon="-2.4563510">
        <ele>431.4</ele>
        <time>2022-06-27T06:04:10Z</time>
      </trkpt>
      <trkpt lat="42.4273990" lon="-2.4563640">
        <ele>431.4</ele>
        <time>2022-06-27T06:04:11Z</time>
      </trkpt>
      <trkpt lat="42.4273480" lon="-2.4563750">
        <ele>431.4</ele>
        <time>2022-06-27T06:04:12Z</time>
      </trkpt>
      <trkpt lat="42.4272970" lon="-2.4563810">
        <ele>431.4</ele>
        <time>2022-06-27T06:04:13Z</time>
      </trkpt>
      <trkpt lat="42.4272360" lon="-2.4563970">
        <ele>431.6</ele>
        <time>2022-06-27T06:04:14Z</time>
      </trkpt>
      <trkpt lat="42.4271850" lon="-2.4564120">
        <ele>431.6</ele>
        <time>2022-06-27T06:04:15Z</time>
      </trkpt>
      <trkpt lat="42.4271350" lon="-2.4564250">
        <ele>431.8</ele>
        <time>2022-06-27T06:04:16Z</time>
      </trkpt>
      <trkpt lat="42.4270940" lon="-2.4564330">
        <ele>431.8</ele>
        <time>2022-06-27T06:04:17Z</time>
      </trkpt>
      <trkpt lat="42.4270460" lon="-2.4564450">
        <ele>432.0</ele>
        <time>2022-06-27T06:04:18Z</time>
      </trkpt>
      <trkpt lat="42.4269890" lon="-2.4564630">
        <ele>432.0</ele>
        <time>2022-06-27T06:04:19Z</time>
      </trkpt>
      <trkpt lat="42.4269420" lon="-2.4564790">
        <ele>432.2</ele>
        <time>2022-06-27T06:04:20Z</time>
      </trkpt>
      <trkpt lat="42.4268930" lon="-2.4564910">
        <ele>432.2</ele>
        <time>2022-06-27T06:04:21Z</time>
      </trkpt>
      <trkpt lat="42.4268530" lon="-2.4565010">
        <ele>432.4</ele>
        <time>2022-06-27T06:04:22Z</time>
      </trkpt>
      <trkpt lat="42.4268030" lon="-2.4565150">
        <ele>432.4</ele>
        <time>2022-06-27T06:04:23Z</time>
      </trkpt>
      <trkpt lat="42.4267410" lon="-2.4565290">
        <ele>432.4</ele>
        <time>2022-06-27T06:04:24Z</time>
      </trkpt>
      <trkpt lat="42.4266940" lon="-2.4565480">
        <ele>432.4</ele>
        <time>2022-06-27T06:04:25Z</time>
      </trkpt>
      <trkpt lat="42.4266480" lon="-2.4565670">
        <ele>432.4</ele>
        <time>2022-06-27T06:04:26Z</time>
      </trkpt>
      <trkpt lat="42.4266110" lon="-2.4565820">
        <ele>432.6</ele>
        <time>2022-06-27T06:04:27Z</time>
      </trkpt>
      <trkpt lat="42.4265640" lon="-2.4566000">
        <ele>432.6</ele>
        <time>2022-06-27T06:04:28Z</time>
      </trkpt>
      <trkpt lat="42.4265180" lon="-2.4566170">
        <ele>432.8</ele>
        <time>2022-06-27T06:04:29Z</time>
      </trkpt>
      <trkpt lat="42.4264620" lon="-2.4566360">
        <ele>433.0</ele>
        <time>2022-06-27T06:04:30Z</time>
      </trkpt>
      <trkpt lat="42.4264160" lon="-2.4566490">
        <ele>433.2</ele>
        <time>2022-06-27T06:04:31Z</time>
      </trkpt>
      <trkpt lat="42.4263680" lon="-2.4566600">
        <ele>433.2</ele>
        <time>2022-06-27T06:04:32Z</time>
      </trkpt>
      <trkpt lat="42.4263320" lon="-2.4566730">
        <ele>433.4</ele>
        <time>2022-06-27T06:04:33Z</time>
      </trkpt>
      <trkpt lat="42.4262860" lon="-2.4566890">
        <ele>433.4</ele>
        <time>2022-06-27T06:04:34Z</time>
      </trkpt>
      <trkpt lat="42.4262300" lon="-2.4567090">
        <ele>433.6</ele>
        <time>2022-06-27T06:04:35Z</time>
      </trkpt>
      <trkpt lat="42.4261860" lon="-2.4567250">
        <ele>433.6</ele>
        <time>2022-06-27T06:04:36Z</time>
      </trkpt>
      <trkpt lat="42.4261390" lon="-2.4567390">
        <ele>433.8</ele>
        <time>2022-06-27T06:04:37Z</time>
      </trkpt>
      <trkpt lat="42.4261040" lon="-2.4567520">
        <ele>433.8</ele>
        <time>2022-06-27T06:04:38Z</time>
      </trkpt>
      <trkpt lat="42.4260580" lon="-2.4567670">
        <ele>433.8</ele>
        <time>2022-06-27T06:04:39Z</time>
      </trkpt>
      <trkpt lat="42.4260030" lon="-2.4567840">
        <ele>434.0</ele>
        <time>2022-06-27T06:04:40Z</time>
      </trkpt>
      <trkpt lat="42.4259570" lon="-2.4567990">
        <ele>434.2</ele>
        <time>2022-06-27T06:04:41Z</time>
      </trkpt>
      <trkpt lat="42.4259100" lon="-2.4568120">
        <ele>434.2</ele>
        <time>2022-06-27T06:04:42Z</time>
      </trkpt>
      <trkpt lat="42.4258720" lon="-2.4568240">
        <ele>434.4</ele>
        <time>2022-06-27T06:04:43Z</time>
      </trkpt>
      <trkpt lat="42.4258250" lon="-2.4568390">
        <ele>434.6</ele>
        <time>2022-06-27T06:04:44Z</time>
      </trkpt>
      <trkpt lat="42.4257680" lon="-2.4568540">
        <ele>434.6</ele>
        <time>2022-06-27T06:04:45Z</time>
      </trkpt>
      <trkpt lat="42.4257310" lon="-2.4568640">
        <ele>434.8</ele>
        <time>2022-06-27T06:04:46Z</time>
      </trkpt>
      <trkpt lat="42.4256730" lon="-2.4568800">
        <ele>434.8</ele>
        <time>2022-06-27T06:04:47Z</time>
      </trkpt>
      <trkpt lat="42.4256360" lon="-2.4568930">
        <ele>434.8</ele>
        <time>2022-06-27T06:04:48Z</time>
      </trkpt>
      <trkpt lat="42.4255910" lon="-2.4569090">
        <ele>434.8</ele>
        <time>2022-06-27T06:04:49Z</time>
      </trkpt>
      <trkpt lat="42.4255450" lon="-2.4569260">
        <ele>434.8</ele>
        <time>2022-06-27T06:04:50Z</time>
      </trkpt>
      <trkpt lat="42.4254890" lon="-2.4569440">
        <ele>434.8</ele>
        <time>2022-06-27T06:04:51Z</time>
      </trkpt>
      <trkpt lat="42.4254420" lon="-2.4569580">
        <ele>435.0</ele>
        <time>2022-06-27T06:04:52Z</time>
      </trkpt>
      <trkpt lat="42.4253950" lon="-2.4569700">
        <ele>435.0</ele>
        <time>2022-06-27T06:04:53Z</time>
      </trkpt>
      <trkpt lat="42.4253570" lon="-2.4569790">
        <ele>435.0</ele>
        <time>2022-06-27T06:04:54Z</time>
      </trkpt>
      <trkpt lat="42.4253090" lon="-2.4569870">
        <ele>435.0</ele>
        <time>2022-06-27T06:04:55Z</time>
      </trkpt>
      <trkpt lat="42.4252530" lon="-2.4569990">
        <ele>435.0</ele>
        <time>2022-06-27T06:04:56Z</time>
      </trkpt>
      <trkpt lat="42.4252070" lon="-2.4570140">
        <ele>435.2</ele>
        <time>2022-06-27T06:04:57Z</time>
      </trkpt>
      <trkpt lat="42.4251600" lon="-2.4570270">
        <ele>435.2</ele>
        <time>2022-06-27T06:04:58Z</time>
      </trkpt>
      <trkpt lat="42.4251230" lon="-2.4570390">
        <ele>435.2</ele>
        <time>2022-06-27T06:04:59Z</time>
      </trkpt>
      <trkpt lat="42.4250770" lon="-2.4570540">
        <ele>435.4</ele>
        <time>2022-06-27T06:05:00Z</time>
      </trkpt>
      <trkpt lat="42.4250220" lon="-2.4570730">
        <ele>435.4</ele>
        <time>2022-06-27T06:05:01Z</time>
      </trkpt>
      <trkpt lat="42.4249760" lon="-2.4570880">
        <ele>435.6</ele>
        <time>2022-06-27T06:05:02Z</time>
      </trkpt>
      <trkpt lat="42.4249310" lon="-2.4571010">
        <ele>435.8</ele>
        <time>2022-06-27T06:05:03Z</time>
      </trkpt>
      <trkpt lat="42.4248960" lon="-2.4571140">
        <ele>436.0</ele>
        <time>2022-06-27T06:05:04Z</time>
      </trkpt>
      <trkpt lat="42.4248510" lon="-2.4571290">
        <ele>436.0</ele>
        <time>2022-06-27T06:05:05Z</time>
      </trkpt>
      <trkpt lat="42.4247970" lon="-2.4571480">
        <ele>436.2</ele>
        <time>2022-06-27T06:05:06Z</time>
      </trkpt>
      <trkpt lat="42.4247510" lon="-2.4571620">
        <ele>436.4</ele>
        <time>2022-06-27T06:05:07Z</time>
      </trkpt>
      <trkpt lat="42.4247050" lon="-2.4571740">
        <ele>436.4</ele>
        <time>2022-06-27T06:05:08Z</time>
      </trkpt>
      <trkpt lat="42.4246690" lon="-2.4571840">
        <ele>436.6</ele>
        <time>2022-06-27T06:05:09Z</time>
      </trkpt>
      <trkpt lat="42.4246230" lon="-2.4571970">
        <ele>436.6</ele>
        <time>2022-06-27T06:05:10Z</time>
      </trkpt>
      <trkpt lat="42.4245780" lon="-2.4572110">
        <ele>436.8</ele>
        <time>2022-06-27T06:05:11Z</time>
      </trkpt>
      <trkpt lat="42.4245250" lon="-2.4572290">
        <ele>436.8</ele>
        <time>2022-06-27T06:05:12Z</time>
      </trkpt>
      <trkpt lat="42.4244810" lon="-2.4572440">
        <ele>437.0</ele>
        <time>2022-06-27T06:05:13Z</time>
      </trkpt>
      <trkpt lat="42.4244460" lon="-2.4572560">
        <ele>437.4</ele>
        <time>2022-06-27T06:05:14Z</time>
      </trkpt>
      <trkpt lat="42.4244020" lon="-2.4572710">
        <ele>437.6</ele>
        <time>2022-06-27T06:05:15Z</time>
      </trkpt>
      <trkpt lat="42.4243590" lon="-2.4572850">
        <ele>437.8</ele>
        <time>2022-06-27T06:05:16Z</time>
      </trkpt>
      <trkpt lat="42.4243060" lon="-2.4573020">
        <ele>438.0</ele>
        <time>2022-06-27T06:05:17Z</time>
      </trkpt>
      <trkpt lat="42.4242640" lon="-2.4573170">
        <ele>438.0</ele>
        <time>2022-06-27T06:05:18Z</time>
      </trkpt>
      <trkpt lat="42.4242310" lon="-2.4573320">
        <ele>438.2</ele>
        <time>2022-06-27T06:05:19Z</time>
      </trkpt>
      <trkpt lat="42.4241860" lon="-2.4573460">
        <ele>438.2</ele>
        <time>2022-06-27T06:05:20Z</time>
      </trkpt>
      <trkpt lat="42.4241440" lon="-2.4573620">
        <ele>438.2</ele>
        <time>2022-06-27T06:05:21Z</time>
      </trkpt>
      <trkpt lat="42.4240900" lon="-2.4573760">
        <ele>438.4</ele>
        <time>2022-06-27T06:05:22Z</time>
      </trkpt>
      <trkpt lat="42.4240470" lon="-2.4573880">
        <ele>438.4</ele>
        <time>2022-06-27T06:05:23Z</time>
      </trkpt>
      <trkpt lat="42.4240050" lon="-2.4574030">
        <ele>438.6</ele>
        <time>2022-06-27T06:05:24Z</time>
      </trkpt>
      <trkpt lat="42.4239710" lon="-2.4574160">
        <ele>438.6</ele>
        <time>2022-06-27T06:05:25Z</time>
      </trkpt>
      <trkpt lat="42.4239260" lon="-2.4574310">
        <ele>438.6</ele>
        <time>2022-06-27T06:05:26Z</time>
      </trkpt>
      <trkpt lat="42.4238730" lon="-2.4574460">
        <ele>438.8</ele>
        <time>2022-06-27T06:05:27Z</time>
      </trkpt>
      <trkpt lat="42.4238300" lon="-2.4574620">
        <ele>438.8</ele>
        <time>2022-06-27T06:05:28Z</time>
      </trkpt>
      <trkpt lat="42.4237870" lon="-2.4574740">
        <ele>439.0</ele>
        <time>2022-06-27T06:05:29Z</time>
      </trkpt>
      <trkpt lat="42.4237520" lon="-2.4574830">
        <ele>439.2</ele>
        <time>2022-06-27T06:05:30Z</time>
      </trkpt>
      <trkpt lat="42.4237070" lon="-2.4574940">
        <ele>439.2</ele>
        <time>2022-06-27T06:05:31Z</time>
      </trkpt>
      <trkpt lat="42.4236650" lon="-2.4575060">
        <ele>439.4</ele>
        <time>2022-06-27T06:05:32Z</time>
      </trkpt>
      <trkpt lat="42.4236130" lon="-2.4575220">
        <ele>439.6</ele>
        <time>2022-06-27T06:05:33Z</time>
      </trkpt>
      <trkpt lat="42.4235780" lon="-2.4575340">
        <ele>439.6</ele>
        <time>2022-06-27T06:05:34Z</time>
      </trkpt>
      <trkpt lat="42.4235350" lon="-2.4575480">
        <ele>439.8</ele>
        <time>2022-06-27T06:05:35Z</time>
      </trkpt>
      <trkpt lat="42.4234920" lon="-2.4575610">
        <ele>439.8</ele>
        <time>2022-06-27T06:05:36Z</time>
      </trkpt>
      <trkpt lat="42.4234480" lon="-2.4575740">
        <ele>440.0</ele>
        <time>2022-06-27T06:05:37Z</time>
      </trkpt>
      <trkpt lat="42.4233960" lon="-2.4575880">
        <ele>440.0</ele>
        <time>2022-06-27T06:05:38Z</time>
      </trkpt>
      <trkpt lat="42.4233540" lon="-2.4576000">
        <ele>440.2</ele>
        <time>2022-06-27T06:05:39Z</time>
      </trkpt>
      <trkpt lat="42.4233120" lon="-2.4576160">
        <ele>440.2</ele>
        <time>2022-06-27T06:05:40Z</time>
      </trkpt>
      <trkpt lat="42.4232810" lon="-2.4576310">
        <ele>440.4</ele>
        <time>2022-06-27T06:05:41Z</time>
      </trkpt>
      <trkpt lat="42.4232400" lon="-2.4576450">
        <ele>440.6</ele>
        <time>2022-06-27T06:05:42Z</time>
      </trkpt>
      <trkpt lat="42.4231910" lon="-2.4576580">
        <ele>440.8</ele>
        <time>2022-06-27T06:05:43Z</time>
      </trkpt>
      <trkpt lat="42.4231500" lon="-2.4576700">
        <ele>441.0</ele>
        <time>2022-06-27T06:05:44Z</time>
      </trkpt>
      <trkpt lat="42.4231090" lon="-2.4576830">
        <ele>441.0</ele>
        <time>2022-06-27T06:05:45Z</time>
      </trkpt>
      <trkpt lat="42.4230760" lon="-2.4576920">
        <ele>441.0</ele>
        <time>2022-06-27T06:05:46Z</time>
      </trkpt>
      <trkpt lat="42.4230360" lon="-2.4577030">
        <ele>441.2</ele>
        <time>2022-06-27T06:05:47Z</time>
      </trkpt>
      <trkpt lat="42.4229970" lon="-2.4577180">
        <ele>441.2</ele>
        <time>2022-06-27T06:05:48Z</time>
      </trkpt>
      <trkpt lat="42.4229480" lon="-2.4577320">
        <ele>441.2</ele>
        <time>2022-06-27T06:05:49Z</time>
      </trkpt>
      <trkpt lat="42.4229070" lon="-2.4577430">
        <ele>441.4</ele>
        <time>2022-06-27T06:05:50Z</time>
      </trkpt>
      <trkpt lat="42.4228670" lon="-2.4577550">
        <ele>441.8</ele>
        <time>2022-06-27T06:05:51Z</time>
      </trkpt>
      <trkpt lat="42.4228360" lon="-2.4577650">
        <ele>442.0</ele>
        <time>2022-06-27T06:05:52Z</time>
      </trkpt>
      <trkpt lat="42.4227960" lon="-2.4577800">
        <ele>442.2</ele>
        <time>2022-06-27T06:05:53Z</time>
      </trkpt>
      <trkpt lat="42.4227510" lon="-2.4578060">
        <ele>442.2</ele>
        <time>2022-06-27T06:05:54Z</time>
      </trkpt>
      <trkpt lat="42.4227190" lon="-2.4578390">
        <ele>442.4</ele>
        <time>2022-06-27T06:05:55Z</time>
      </trkpt>
      <trkpt lat="42.4227000" lon="-2.4578730">
        <ele>442.4</ele>
        <time>2022-06-27T06:05:56Z</time>
      </trkpt>
      <trkpt lat="42.4226840" lon="-2.4579220">
        <ele>442.6</ele>
        <time>2022-06-27T06:05:57Z</time>
      </trkpt>
      <trkpt lat="42.4226760" lon="-2.4579770">
        <ele>442.6</ele>
        <time>2022-06-27T06:05:58Z</time>
      </trkpt>
      <trkpt lat="42.4226800" lon="-2.4580430">
        <ele>442.8</ele>
        <time>2022-06-27T06:05:59Z</time>
      </trkpt>
      <trkpt lat="42.4226990" lon="-2.4580930">
        <ele>442.8</ele>
        <time>2022-06-27T06:06:00Z</time>
      </trkpt>
      <trkpt lat="42.4227210" lon="-2.4581290">
        <ele>442.8</ele>
        <time>2022-06-27T06:06:01Z</time>
      </trkpt>
      <trkpt lat="42.4227540" lon="-2.4581710">
        <ele>442.8</ele>
        <time>2022-06-27T06:06:02Z</time>
      </trkpt>
      <trkpt lat="42.4227890" lon="-2.4582090">
        <ele>442.8</ele>
        <time>2022-06-27T06:06:03Z</time>
      </trkpt>
      <trkpt lat="42.4228330" lon="-2.4582530">
        <ele>443.0</ele>
        <time>2022-06-27T06:06:04Z</time>
      </trkpt>
      <trkpt lat="42.4228720" lon="-2.4582890">
        <ele>443.0</ele>
        <time>2022-06-27T06:06:05Z</time>
      </trkpt>
      <trkpt lat="42.4229130" lon="-2.4583220">
        <ele>443.2</ele>
        <time>2022-06-27T06:06:06Z</time>
      </trkpt>
      <trkpt lat="42.4229450" lon="-2.4583490">
        <ele>443.2</ele>
        <time>2022-06-27T06:06:07Z</time>
      </trkpt>
      <trkpt lat="42.4229840" lon="-2.4583850">
        <ele>443.0</ele>
        <time>2022-06-27T06:06:08Z</time>
      </trkpt>
      <trkpt lat="42.4230310" lon="-2.4584290">
        <ele>443.0</ele>
        <time>2022-06-27T06:06:09Z</time>
      </trkpt>
      <trkpt lat="42.4230690" lon="-2.4584670">
        <ele>443.0</ele>
        <time>2022-06-27T06:06:10Z</time>
      </trkpt>
      <trkpt lat="42.4231090" lon="-2.4585070">
        <ele>442.8</ele>
        <time>2022-06-27T06:06:11Z</time>
      </trkpt>
      <trkpt lat="42.4231400" lon="-2.4585400">
        <ele>442.8</ele>
        <time>2022-06-27T06:06:12Z</time>
      </trkpt>
      <trkpt lat="42.4231800" lon="-2.4585810">
        <ele>442.8</ele>
        <time>2022-06-27T06:06:13Z</time>
      </trkpt>
      <trkpt lat="42.4232200" lon="-2.4586200">
        <ele>442.8</ele>
        <time>2022-06-27T06:06:14Z</time>
      </trkpt>
      <trkpt lat="42.4232590" lon="-2.4586600">
        <ele>442.8</ele>
        <time>2022-06-27T06:06:15Z</time>
      </trkpt>
      <trkpt lat="42.4233030" lon="-2.4587070">
        <ele>442.8</ele>
        <time>2022-06-27T06:06:16Z</time>
      </trkpt>
      <trkpt lat="42.4233330" lon="-2.4587380">
        <ele>442.8</ele>
        <time>2022-06-27T06:06:17Z</time>
      </trkpt>
      <trkpt lat="42.4233730" lon="-2.4587780">
        <ele>443.0</ele>
        <time>2022-06-27T06:06:18Z</time>
      </trkpt>
      <trkpt lat="42.4234130" lon="-2.4588170">
        <ele>442.8</ele>
        <time>2022-06-27T06:06:19Z</time>
      </trkpt>
      <trkpt lat="42.4234550" lon="-2.4588560">
        <ele>442.8</ele>
        <time>2022-06-27T06:06:20Z</time>
      </trkpt>
      <trkpt lat="42.4235030" lon="-2.4589030">
        <ele>442.8</ele>
        <time>2022-06-27T06:06:21Z</time>
      </trkpt>
      <trkpt lat="42.4235360" lon="-2.4589350">
        <ele>442.8</ele>
        <time>2022-06-27T06:06:22Z</time>
      </trkpt>
      <trkpt lat="42.4235780" lon="-2.4589770">
        <ele>442.8</ele>
        <time>2022-06-27T06:06:23Z</time>
      </trkpt>
      <trkpt lat="42.4236210" lon="-2.4590190">
        <ele>442.8</ele>
        <time>2022-06-27T06:06:24Z</time>
      </trkpt>
      <trkpt lat="42.4236730" lon="-2.4590670">
        <ele>442.6</ele>
        <time>2022-06-27T06:06:25Z</time>
      </trkpt>
      <trkpt lat="42.4237170" lon="-2.4591110">
        <ele>442.6</ele>
        <time>2022-06-27T06:06:26Z</time>
      </trkpt>
      <trkpt lat="42.4237550" lon="-2.4591550">
        <ele>442.4</ele>
        <time>2022-06-27T06:06:27Z</time>
      </trkpt>
      <trkpt lat="42.4237900" lon="-2.4591900">
        <ele>442.4</ele>
        <time>2022-06-27T06:06:28Z</time>
      </trkpt>
      <trkpt lat="42.4238330" lon="-2.4592320">
        <ele>442.4</ele>
        <time>2022-06-27T06:06:29Z</time>
      </trkpt>
      <trkpt lat="42.4238770" lon="-2.4592740">
        <ele>442.4</ele>
        <time>2022-06-27T06:06:30Z</time>
      </trkpt>
      <trkpt lat="42.4239300" lon="-2.4593270">
        <ele>442.4</ele>
        <time>2022-06-27T06:06:31Z</time>
      </trkpt>
      <trkpt lat="42.4239750" lon="-2.4593710">
        <ele>442.4</ele>
        <time>2022-06-27T06:06:32Z</time>
      </trkpt>
      <trkpt lat="42.4240210" lon="-2.4594160">
        <ele>442.2</ele>
        <time>2022-06-27T06:06:33Z</time>
      </trkpt>
      <trkpt lat="42.4240640" lon="-2.4594600">
        <ele>442.2</ele>
        <time>2022-06-27T06:06:34Z</time>
      </trkpt>
      <trkpt lat="42.4241100" lon="-2.4595010">
        <ele>442.2</ele>
        <time>2022-06-27T06:06:35Z</time>
      </trkpt>
      <trkpt lat="42.4241560" lon="-2.4595440">
        <ele>442.2</ele>
        <time>2022-06-27T06:06:36Z</time>
      </trkpt>
      <trkpt lat="42.4242040" lon="-2.4595850">
        <ele>442.2</ele>
        <time>2022-06-27T06:06:37Z</time>
      </trkpt>
      <trkpt lat="42.4242510" lon="-2.4596270">
        <ele>442.2</ele>
        <time>2022-06-27T06:06:38Z</time>
      </trkpt>
      <trkpt lat="42.4242970" lon="-2.4596680">
        <ele>442.2</ele>
        <time>2022-06-27T06:06:39Z</time>
      </trkpt>
      <trkpt lat="42.4243440" lon="-2.4597070">
        <ele>442.2</ele>
        <time>2022-06-27T06:06:40Z</time>
      </trkpt>
      <trkpt lat="42.4243940" lon="-2.4597460">
        <ele>442.0</ele>
        <time>2022-06-27T06:06:41Z</time>
      </trkpt>
      <trkpt lat="42.4244430" lon="-2.4597860">
        <ele>442.0</ele>
        <time>2022-06-27T06:06:42Z</time>
      </trkpt>
      <trkpt lat="42.4244930" lon="-2.4598220">
        <ele>442.0</ele>
        <time>2022-06-27T06:06:43Z</time>
      </trkpt>
      <trkpt lat="42.4245440" lon="-2.4598600">
        <ele>442.0</ele>
        <time>2022-06-27T06:06:44Z</time>
      </trkpt>
      <trkpt lat="42.4245940" lon="-2.4598970">
        <ele>442.0</ele>
        <time>2022-06-27T06:06:45Z</time>
      </trkpt>
      <trkpt lat="42.4246440" lon="-2.4599340">
        <ele>442.0</ele>
        <time>2022-06-27T06:06:46Z</time>
      </trkpt>
      <trkpt lat="42.4246930" lon="-2.4599720">
        <ele>442.0</ele>
        <time>2022-06-27T06:06:47Z</time>
      </trkpt>
      <trkpt lat="42.4247420" lon="-2.4600110">
        <ele>442.0</ele>
        <time>2022-06-27T06:06:48Z</time>
      </trkpt>
      <trkpt lat="42.4247920" lon="-2.4600480">
        <ele>442.0</ele>
        <time>2022-06-27T06:06:49Z</time>
      </trkpt>
      <trkpt lat="42.4248400" lon="-2.4600840">
        <ele>442.0</ele>
        <time>2022-06-27T06:06:50Z</time>
      </trkpt>
      <trkpt lat="42.4248880" lon="-2.4601200">
        <ele>442.0</ele>
        <time>2022-06-27T06:06:51Z</time>
      </trkpt>
      <trkpt lat="42.4249370" lon="-2.4601560">
        <ele>442.0</ele>
        <time>2022-06-27T06:06:52Z</time>
      </trkpt>
      <trkpt lat="42.4249840" lon="-2.4601920">
        <ele>442.0</ele>
        <time>2022-06-27T06:06:53Z</time>
      </trkpt>
      <trkpt lat="42.4250300" lon="-2.4602280">
        <ele>442.0</ele>
        <time>2022-06-27T06:06:54Z</time>
      </trkpt>
      <trkpt lat="42.4250780" lon="-2.4602640">
        <ele>442.0</ele>
        <time>2022-06-27T06:06:55Z</time>
      </trkpt>
      <trkpt lat="42.4251250" lon="-2.4602980">
        <ele>442.0</ele>
        <time>2022-06-27T06:06:56Z</time>
      </trkpt>
      <trkpt lat="42.4251720" lon="-2.4603340">
        <ele>441.8</ele>
        <time>2022-06-27T06:06:57Z</time>
      </trkpt>
      <trkpt lat="42.4252170" lon="-2.4603710">
        <ele>441.8</ele>
        <time>2022-06-27T06:06:58Z</time>
      </trkpt>
      <trkpt lat="42.4252640" lon="-2.4604090">
        <ele>441.8</ele>
        <time>2022-06-27T06:06:59Z</time>
      </trkpt>
      <trkpt lat="42.4253110" lon="-2.4604440">
        <ele>441.8</ele>
        <time>2022-06-27T06:07:00Z</time>
      </trkpt>
      <trkpt lat="42.4253590" lon="-2.4604780">
        <ele>441.8</ele>
        <time>2022-06-27T06:07:01Z</time>
      </trkpt>
      <trkpt lat="42.4254070" lon="-2.4605120">
        <ele>441.8</ele>
        <time>2022-06-27T06:07:02Z</time>
      </trkpt>
      <trkpt lat="42.4254540" lon="-2.4605470">
        <ele>441.8</ele>
        <time>2022-06-27T06:07:03Z</time>
      </trkpt>
      <trkpt lat="42.4255020" lon="-2.4605830">
        <ele>441.8</ele>
        <time>2022-06-27T06:07:04Z</time>
      </trkpt>
      <trkpt lat="42.4255470" lon="-2.4606180">
        <ele>442.0</ele>
        <time>2022-06-27T06:07:05Z</time>
      </trkpt>
      <trkpt lat="42.4255930" lon="-2.4606520">
        <ele>442.0</ele>
        <time>2022-06-27T06:07:06Z</time>
      </trkpt>
      <trkpt lat="42.4256410" lon="-2.4606860">
        <ele>442.0</ele>
        <time>2022-06-27T06:07:07Z</time>
      </trkpt>
      <trkpt lat="42.4256890" lon="-2.4607170">
        <ele>442.0</ele>
        <time>2022-06-27T06:07:08Z</time>
      </trkpt>
      <trkpt lat="42.4257360" lon="-2.4607500">
        <ele>442.0</ele>
        <time>2022-06-27T06:07:09Z</time>
      </trkpt>
      <trkpt lat="42.4257820" lon="-2.4607820">
        <ele>442.0</ele>
        <time>2022-06-27T06:07:10Z</time>
      </trkpt>
      <trkpt lat="42.4258290" lon="-2.4608130">
        <ele>442.0</ele>
        <time>2022-06-27T06:07:11Z</time>
      </trkpt>
      <trkpt lat="42.4258760" lon="-2.4608440">
        <ele>442.0</ele>
        <time>2022-06-27T06:07:12Z</time>
      </trkpt>
      <trkpt lat="42.4259230" lon="-2.4608790">
        <ele>442.0</ele>
        <time>2022-06-27T06:07:13Z</time>
      </trkpt>
      <trkpt lat="42.4259700" lon="-2.4609150">
        <ele>442.0</ele>
        <time>2022-06-27T06:07:14Z</time>
      </trkpt>
      <trkpt lat="42.4260150" lon="-2.4609530">
        <ele>442.0</ele>
        <time>2022-06-27T06:07:15Z</time>
      </trkpt>
      <trkpt lat="42.4260610" lon="-2.4609910">
        <ele>442.0</ele>
        <time>2022-06-27T06:07:16Z</time>
      </trkpt>
      <trkpt lat="42.4261060" lon="-2.4610320">
        <ele>442.0</ele>
        <time>2022-06-27T06:07:17Z</time>
      </trkpt>
      <trkpt lat="42.4261480" lon="-2.4610730">
        <ele>441.8</ele>
        <time>2022-06-27T06:07:18Z</time>
      </trkpt>
      <trkpt lat="42.4261880" lon="-2.4611180">
        <ele>441.8</ele>
        <time>2022-06-27T06:07:19Z</time>
      </trkpt>
      <trkpt lat="42.4262250" lon="-2.4611680">
        <ele>441.8</ele>
        <time>2022-06-27T06:07:20Z</time>
      </trkpt>
      <trkpt lat="42.4262620" lon="-2.4612200">
        <ele>441.8</ele>
        <time>2022-06-27T06:07:21Z</time>
      </trkpt>
      <trkpt lat="42.4262920" lon="-2.4612620">
        <ele>441.8</ele>
        <time>2022-06-27T06:07:22Z</time>
      </trkpt>
      <trkpt lat="42.4263210" lon="-2.4613250">
        <ele>441.8</ele>
        <time>2022-06-27T06:07:23Z</time>
      </trkpt>
      <trkpt lat="42.4263410" lon="-2.4614110">
        <ele>441.8</ele>
        <time>2022-06-27T06:07:24Z</time>
      </trkpt>
      <trkpt lat="42.4263420" lon="-2.4614830">
        <ele>441.8</ele>
        <time>2022-06-27T06:07:25Z</time>
      </trkpt>
      <trkpt lat="42.4263280" lon="-2.4615580">
        <ele>441.6</ele>
        <time>2022-06-27T06:07:26Z</time>
      </trkpt>
      <trkpt lat="42.4263110" lon="-2.4616180">
        <ele>441.6</ele>
        <time>2022-06-27T06:07:27Z</time>
      </trkpt>
      <trkpt lat="42.4262910" lon="-2.4616910">
        <ele>441.6</ele>
        <time>2022-06-27T06:07:28Z</time>
      </trkpt>
      <trkpt lat="42.4262680" lon="-2.4617640">
        <ele>441.6</ele>
        <time>2022-06-27T06:07:29Z</time>
      </trkpt>
      <trkpt lat="42.4262440" lon="-2.4618450">
        <ele>441.6</ele>
        <time>2022-06-27T06:07:30Z</time>
      </trkpt>
      <trkpt lat="42.4262240" lon="-2.4618980">
        <ele>441.4</ele>
        <time>2022-06-27T06:07:31Z</time>
      </trkpt>
      <trkpt lat="42.4262000" lon="-2.4619530">
        <ele>441.4</ele>
        <time>2022-06-27T06:07:32Z</time>
      </trkpt>
      <trkpt lat="42.4261760" lon="-2.4619970">
        <ele>441.4</ele>
        <time>2022-06-27T06:07:33Z</time>
      </trkpt>
      <trkpt lat="42.4261480" lon="-2.4620490">
        <ele>441.4</ele>
        <time>2022-06-27T06:07:34Z</time>
      </trkpt>
      <trkpt lat="42.4261260" lon="-2.4621110">
        <ele>441.6</ele>
        <time>2022-06-27T06:07:35Z</time>
      </trkpt>
      <trkpt lat="42.4261080" lon="-2.4621590">
        <ele>441.6</ele>
        <time>2022-06-27T06:07:36Z</time>
      </trkpt>
      <trkpt lat="42.4260900" lon="-2.4622050">
        <ele>441.8</ele>
        <time>2022-06-27T06:07:37Z</time>
      </trkpt>
      <trkpt lat="42.4260770" lon="-2.4622520">
        <ele>442.0</ele>
        <time>2022-06-27T06:07:38Z</time>
      </trkpt>
      <trkpt lat="42.4260710" lon="-2.4622980">
        <ele>442.6</ele>
        <time>2022-06-27T06:07:39Z</time>
      </trkpt>
      <trkpt lat="42.4260670" lon="-2.4623500">
        <ele>442.8</ele>
        <time>2022-06-27T06:07:40Z</time>
      </trkpt>
      <trkpt lat="42.4260600" lon="-2.4624070">
        <ele>443.2</ele>
        <time>2022-06-27T06:07:41Z</time>
      </trkpt>
      <trkpt lat="42.4260490" lon="-2.4624640">
        <ele>443.4</ele>
        <time>2022-06-27T06:07:42Z</time>
      </trkpt>
      <trkpt lat="42.4260370" lon="-2.4625220">
        <ele>443.4</ele>
        <time>2022-06-27T06:07:43Z</time>
      </trkpt>
      <trkpt lat="42.4260270" lon="-2.4625820">
        <ele>443.6</ele>
        <time>2022-06-27T06:07:44Z</time>
      </trkpt>
      <trkpt lat="42.4260170" lon="-2.4626430">
        <ele>443.6</ele>
        <time>2022-06-27T06:07:45Z</time>
      </trkpt>
      <trkpt lat="42.4260070" lon="-2.4627070">
        <ele>443.8</ele>
        <time>2022-06-27T06:07:46Z</time>
      </trkpt>
      <trkpt lat="42.4259960" lon="-2.4627700">
        <ele>443.8</ele>
        <time>2022-06-27T06:07:47Z</time>
      </trkpt>
      <trkpt lat="42.4259830" lon="-2.4628340">
        <ele>444.0</ele>
        <time>2022-06-27T06:07:48Z</time>
      </trkpt>
      <trkpt lat="42.4259780" lon="-2.4628930">
        <ele>444.0</ele>
        <time>2022-06-27T06:07:49Z</time>
      </trkpt>
      <trkpt lat="42.4259740" lon="-2.4629530">
        <ele>444.2</ele>
        <time>2022-06-27T06:07:50Z</time>
      </trkpt>
      <trkpt lat="42.4259700" lon="-2.4630170">
        <ele>444.2</ele>
        <time>2022-06-27T06:07:51Z</time>
      </trkpt>
      <trkpt lat="42.4259620" lon="-2.4630810">
        <ele>444.2</ele>
        <time>2022-06-27T06:07:52Z</time>
      </trkpt>
      <trkpt lat="42.4259530" lon="-2.4631420">
        <ele>444.2</ele>
        <time>2022-06-27T06:07:53Z</time>
      </trkpt>
      <trkpt lat="42.4259480" lon="-2.4632020">
        <ele>444.2</ele>
        <time>2022-06-27T06:07:54Z</time>
      </trkpt>
      <trkpt lat="42.4259440" lon="-2.4632600">
        <ele>444.2</ele>
        <time>2022-06-27T06:07:55Z</time>
      </trkpt>
      <trkpt lat="42.4259380" lon="-2.4633210">
        <ele>444.4</ele>
        <time>2022-06-27T06:07:56Z</time>
      </trkpt>
      <trkpt lat="42.4259370" lon="-2.4633810">
        <ele>444.4</ele>
        <time>2022-06-27T06:07:57Z</time>
      </trkpt>
      <trkpt lat="42.4259380" lon="-2.4634340">
        <ele>444.4</ele>
        <time>2022-06-27T06:07:58Z</time>
      </trkpt>
      <trkpt lat="42.4259380" lon="-2.4634900">
        <ele>444.4</ele>
        <time>2022-06-27T06:07:59Z</time>
      </trkpt>
      <trkpt lat="42.4259480" lon="-2.4635440">
        <ele>444.6</ele>
        <time>2022-06-27T06:08:00Z</time>
      </trkpt>
      <trkpt lat="42.4259640" lon="-2.4635940">
        <ele>444.6</ele>
        <time>2022-06-27T06:08:01Z</time>
      </trkpt>
      <trkpt lat="42.4259770" lon="-2.4636490">
        <ele>444.8</ele>
        <time>2022-06-27T06:08:02Z</time>
      </trkpt>
      <trkpt lat="42.4259830" lon="-2.4636970">
        <ele>445.0</ele>
        <time>2022-06-27T06:08:03Z</time>
      </trkpt>
      <trkpt lat="42.4259780" lon="-2.4637390">
        <ele>445.2</ele>
        <time>2022-06-27T06:08:04Z</time>
      </trkpt>
      <trkpt lat="42.4259610" lon="-2.4637770">
        <ele>445.2</ele>
        <time>2022-06-27T06:08:05Z</time>
      </trkpt>
      <trkpt lat="42.4259340" lon="-2.4638010">
        <ele>445.4</ele>
        <time>2022-06-27T06:08:06Z</time>
      </trkpt>
      <trkpt lat="42.4259040" lon="-2.4638230">
        <ele>445.4</ele>
        <time>2022-06-27T06:08:07Z</time>
      </trkpt>
      <trkpt lat="42.4258740" lon="-2.4638450">
        <ele>445.4</ele>
        <time>2022-06-27T06:08:08Z</time>
      </trkpt>
      <trkpt lat="42.4258430" lon="-2.4638630">
        <ele>445.6</ele>
        <time>2022-06-27T06:08:09Z</time>
      </trkpt>
      <trkpt lat="42.4258090" lon="-2.4638870">
        <ele>445.6</ele>
        <time>2022-06-27T06:08:10Z</time>
      </trkpt>
      <trkpt lat="42.4257730" lon="-2.4639130">
        <ele>445.6</ele>
        <time>2022-06-27T06:08:11Z</time>
      </trkpt>
      <trkpt lat="42.4257370" lon="-2.4639320">
        <ele>445.6</ele>
        <time>2022-06-27T06:08:12Z</time>
      </trkpt>
      <trkpt lat="42.4257050" lon="-2.4639420">
        <ele>445.6</ele>
        <time>2022-06-27T06:08:13Z</time>
      </trkpt>
      <trkpt lat="42.4256770" lon="-2.4639560">
        <ele>445.6</ele>
        <time>2022-06-27T06:08:14Z</time>
      </trkpt>
      <trkpt lat="42.4256480" lon="-2.4639750">
        <ele>445.6</ele>
        <time>2022-06-27T06:08:15Z</time>
      </trkpt>
      <trkpt lat="42.4256210" lon="-2.4639900">
        <ele>445.8</ele>
        <time>2022-06-27T06:08:16Z</time>
      </trkpt>
      <trkpt lat="42.4256010" lon="-2.4640010">
        <ele>445.8</ele>
        <time>2022-06-27T06:08:17Z</time>
      </trkpt>
      <trkpt lat="42.4255700" lon="-2.4640160">
        <ele>446.0</ele>
        <time>2022-06-27T06:08:18Z</time>
      </trkpt>
      <trkpt lat="42.4255400" lon="-2.4640310">
        <ele>446.2</ele>
        <time>2022-06-27T06:08:19Z</time>
      </trkpt>
      <trkpt lat="42.4255080" lon="-2.4640470">
        <ele>446.2</ele>
        <time>2022-06-27T06:08:20Z</time>
      </trkpt>
      <trkpt lat="42.4254790" lon="-2.4640710">
        <ele>446.4</ele>
        <time>2022-06-27T06:08:21Z</time>
      </trkpt>
      <trkpt lat="42.4254440" lon="-2.4640990">
        <ele>446.6</ele>
        <time>2022-06-27T06:08:22Z</time>
      </trkpt>
      <trkpt lat="42.4254020" lon="-2.4641320">
        <ele>446.8</ele>
        <time>2022-06-27T06:08:23Z</time>
      </trkpt>
      <trkpt lat="42.4253690" lon="-2.4641580">
        <ele>446.8</ele>
        <time>2022-06-27T06:08:24Z</time>
      </trkpt>
      <trkpt lat="42.4253350" lon="-2.4641960">
        <ele>447.0</ele>
        <time>2022-06-27T06:08:25Z</time>
      </trkpt>
      <trkpt lat="42.4253080" lon="-2.4642170">
        <ele>447.2</ele>
        <time>2022-06-27T06:08:26Z</time>
      </trkpt>
      <trkpt lat="42.4252830" lon="-2.4642350">
        <ele>447.4</ele>
        <time>2022-06-27T06:08:27Z</time>
      </trkpt>
      <trkpt lat="42.4252530" lon="-2.4642520">
        <ele>447.4</ele>
        <time>2022-06-27T06:08:28Z</time>
      </trkpt>
      <trkpt lat="42.4252250" lon="-2.4642680">
        <ele>447.6</ele>
        <time>2022-06-27T06:08:29Z</time>
      </trkpt>
      <trkpt lat="42.4251980" lon="-2.4642810">
        <ele>447.8</ele>
        <time>2022-06-27T06:08:30Z</time>
      </trkpt>
      <trkpt lat="42.4251720" lon="-2.4642960">
        <ele>448.0</ele>
        <time>2022-06-27T06:08:31Z</time>
      </trkpt>
      <trkpt lat="42.4251400" lon="-2.4643070">
        <ele>448.2</ele>
        <time>2022-06-27T06:08:32Z</time>
      </trkpt>
      <trkpt lat="42.4251120" lon="-2.4643250">
        <ele>448.4</ele>
        <time>2022-06-27T06:08:33Z</time>
      </trkpt>
      <trkpt lat="42.4250850" lon="-2.4643520">
        <ele>448.8</ele>
        <time>2022-06-27T06:08:34Z</time>
      </trkpt>
      <trkpt lat="42.4250590" lon="-2.4643730">
        <ele>449.2</ele>
        <time>2022-06-27T06:08:35Z</time>
      </trkpt>
      <trkpt lat="42.4250290" lon="-2.4643900">
        <ele>449.2</ele>
        <time>2022-06-27T06:08:36Z</time>
      </trkpt>
      <trkpt lat="42.4249960" lon="-2.4644110">
        <ele>449.6</ele>
        <time>2022-06-27T06:08:37Z</time>
      </trkpt>
      <trkpt lat="42.4249630" lon="-2.4644350">
        <ele>449.6</ele>
        <time>2022-06-27T06:08:38Z</time>
      </trkpt>
      <trkpt lat="42.4249340" lon="-2.4644590">
        <ele>449.8</ele>
        <time>2022-06-27T06:08:39Z</time>
      </trkpt>
      <trkpt lat="42.4249040" lon="-2.4644780">
        <ele>450.0</ele>
        <time>2022-06-27T06:08:40Z</time>
      </trkpt>
      <trkpt lat="42.4248780" lon="-2.4644970">
        <ele>450.2</ele>
        <time>2022-06-27T06:08:41Z</time>
      </trkpt>
      <trkpt lat="42.4248530" lon="-2.4645100">
        <ele>450.8</ele>
        <time>2022-06-27T06:08:42Z</time>
      </trkpt>
      <trkpt lat="42.4248280" lon="-2.4645230">
        <ele>451.0</ele>
        <time>2022-06-27T06:08:43Z</time>
      </trkpt>
      <trkpt lat="42.4248060" lon="-2.4645400">
        <ele>451.2</ele>
        <time>2022-06-27T06:08:44Z</time>
      </trkpt>
      <trkpt lat="42.4247800" lon="-2.4645620">
        <ele>451.4</ele>
        <time>2022-06-27T06:08:45Z</time>
      </trkpt>
      <trkpt lat="42.4247540" lon="-2.4645860">
        <ele>451.6</ele>
        <time>2022-06-27T06:08:46Z</time>
      </trkpt>
      <trkpt lat="42.4247290" lon="-2.4646110">
        <ele>451.6</ele>
        <time>2022-06-27T06:08:47Z</time>
      </trkpt>
      <trkpt lat="42.4247050" lon="-2.4646380">
        <ele>451.8</ele>
        <time>2022-06-27T06:08:48Z</time>
      </trkpt>
      <trkpt lat="42.4246820" lon="-2.4646580">
        <ele>452.2</ele>
        <time>2022-06-27T06:08:49Z</time>
      </trkpt>
      <trkpt lat="42.4246570" lon="-2.4646780">
        <ele>452.4</ele>
        <time>2022-06-27T06:08:50Z</time>
      </trkpt>
      <trkpt lat="42.4246320" lon="-2.4646980">
        <ele>452.6</ele>
        <time>2022-06-27T06:08:51Z</time>
      </trkpt>
      <trkpt lat="42.4246080" lon="-2.4647200">
        <ele>452.6</ele>
        <time>2022-06-27T06:08:52Z</time>
      </trkpt>
      <trkpt lat="42.4245830" lon="-2.4647430">
        <ele>453.0</ele>
        <time>2022-06-27T06:08:53Z</time>
      </trkpt>
      <trkpt lat="42.4245600" lon="-2.4647690">
        <ele>453.2</ele>
        <time>2022-06-27T06:08:54Z</time>
      </trkpt>
      <trkpt lat="42.4245390" lon="-2.4647970">
        <ele>453.6</ele>
        <time>2022-06-27T06:08:55Z</time>
      </trkpt>
      <trkpt lat="42.4245180" lon="-2.4648280">
        <ele>454.0</ele>
        <time>2022-06-27T06:08:56Z</time>
      </trkpt>
      <trkpt lat="42.4244970" lon="-2.4648610">
        <ele>454.0</ele>
        <time>2022-06-27T06:08:57Z</time>
      </trkpt>
      <trkpt lat="42.4244780" lon="-2.4648960">
        <ele>454.4</ele>
        <time>2022-06-27T06:08:58Z</time>
      </trkpt>
      <trkpt lat="42.4244580" lon="-2.4649330">
        <ele>454.4</ele>
        <time>2022-06-27T06:08:59Z</time>
      </trkpt>
      <trkpt lat="42.4244360" lon="-2.4649710">
        <ele>454.8</ele>
        <time>2022-06-27T06:09:00Z</time>
      </trkpt>
      <trkpt lat="42.4244130" lon="-2.4650110">
        <ele>454.8</ele>
        <time>2022-06-27T06:09:01Z</time>
      </trkpt>
      <trkpt lat="42.4243880" lon="-2.4650520">
        <ele>455.0</ele>
        <time>2022-06-27T06:09:02Z</time>
      </trkpt>
      <trkpt lat="42.4243660" lon="-2.4650920">
        <ele>455.2</ele>
        <time>2022-06-27T06:09:03Z</time>
      </trkpt>
      <trkpt lat="42.4243440" lon="-2.4651250">
        <ele>455.2</ele>
        <time>2022-06-27T06:09:04Z</time>
      </trkpt>
      <trkpt lat="42.4243210" lon="-2.4651610">
        <ele>455.4</ele>
        <time>2022-06-27T06:09:05Z</time>
      </trkpt>
      <trkpt lat="42.4242990" lon="-2.4651980">
        <ele>455.4</ele>
        <time>2022-06-27T06:09:06Z</time>
      </trkpt>
      <trkpt lat="42.4242800" lon="-2.4652370">
        <ele>455.6</ele>
        <time>2022-06-27T06:09:07Z</time>
      </trkpt>
      <trkpt lat="42.4242590" lon="-2.4652770">
        <ele>455.6</ele>
        <time>2022-06-27T06:09:08Z</time>
      </trkpt>
      <trkpt lat="42.4242380" lon="-2.4653170">
        <ele>456.0</ele>
        <time>2022-06-27T06:09:09Z</time>
      </trkpt>
      <trkpt lat="42.4242160" lon="-2.4653600">
        <ele>456.2</ele>
        <time>2022-06-27T06:09:10Z</time>
      </trkpt>
      <trkpt lat="42.4241920" lon="-2.4654030">
        <ele>456.4</ele>
        <time>2022-06-27T06:09:11Z</time>
      </trkpt>
      <trkpt lat="42.4241700" lon="-2.4654430">
        <ele>456.6</ele>
        <time>2022-06-27T06:09:12Z</time>
      </trkpt>
      <trkpt lat="42.4241480" lon="-2.4654840">
        <ele>456.6</ele>
        <time>2022-06-27T06:09:13Z</time>
      </trkpt>
      <trkpt lat="42.4241250" lon="-2.4655240">
        <ele>456.8</ele>
        <time>2022-06-27T06:09:14Z</time>
      </trkpt>
      <trkpt lat="42.4241030" lon="-2.4655620">
        <ele>456.8</ele>
        <time>2022-06-27T06:09:15Z</time>
      </trkpt>
      <trkpt lat="42.4240830" lon="-2.4655970">
        <ele>457.0</ele>
        <time>2022-06-27T06:09:16Z</time>
      </trkpt>
      <trkpt lat="42.4240610" lon="-2.4656330">
        <ele>457.0</ele>
        <time>2022-06-27T06:09:17Z</time>
      </trkpt>
      <trkpt lat="42.4240420" lon="-2.4656700">
        <ele>457.2</ele>
        <time>2022-06-27T06:09:18Z</time>
      </trkpt>
      <trkpt lat="42.4240220" lon="-2.4657080">
        <ele>457.6</ele>
        <time>2022-06-27T06:09:19Z</time>
      </trkpt>
      <trkpt lat="42.4240030" lon="-2.4657460">
        <ele>457.4</ele>
        <time>2022-06-27T06:09:20Z</time>
      </trkpt>
      <trkpt lat="42.4239850" lon="-2.4657830">
        <ele>457.6</ele>
        <time>2022-06-27T06:09:21Z</time>
      </trkpt>
      <trkpt lat="42.4239660" lon="-2.4658160">
        <ele>457.6</ele>
        <time>2022-06-27T06:09:22Z</time>
      </trkpt>
      <trkpt lat="42.4239440" lon="-2.4658500">
        <ele>458.0</ele>
        <time>2022-06-27T06:09:23Z</time>
      </trkpt>
      <trkpt lat="42.4239220" lon="-2.4658870">
        <ele>458.2</ele>
        <time>2022-06-27T06:09:24Z</time>
      </trkpt>
      <trkpt lat="42.4238990" lon="-2.4659250">
        <ele>458.6</ele>
        <time>2022-06-27T06:09:25Z</time>
      </trkpt>
      <trkpt lat="42.4238760" lon="-2.4659590">
        <ele>458.6</ele>
        <time>2022-06-27T06:09:26Z</time>
      </trkpt>
      <trkpt lat="42.4238510" lon="-2.4659930">
        <ele>458.6</ele>
        <time>2022-06-27T06:09:27Z</time>
      </trkpt>
      <trkpt lat="42.4238270" lon="-2.4660260">
        <ele>459.0</ele>
        <time>2022-06-27T06:09:28Z</time>
      </trkpt>
      <trkpt lat="42.4238060" lon="-2.4660570">
        <ele>459.0</ele>
        <time>2022-06-27T06:09:29Z</time>
      </trkpt>
      <trkpt lat="42.4237880" lon="-2.4660890">
        <ele>459.2</ele>
        <time>2022-06-27T06:09:30Z</time>
      </trkpt>
      <trkpt lat="42.4237680" lon="-2.4661210">
        <ele>459.2</ele>
        <time>2022-06-27T06:09:31Z</time>
      </trkpt>
      <trkpt lat="42.4237450" lon="-2.4661550">
        <ele>459.4</ele>
        <time>2022-06-27T06:09:32Z</time>
      </trkpt>
      <trkpt lat="42.4237210" lon="-2.4661870">
        <ele>459.8</ele>
        <time>2022-06-27T06:09:33Z</time>
      </trkpt>
      <trkpt lat="42.4236970" lon="-2.4662200">
        <ele>459.8</ele>
        <time>2022-06-27T06:09:34Z</time>
      </trkpt>
      <trkpt lat="42.4236770" lon="-2.4662540">
        <ele>460.0</ele>
        <time>2022-06-27T06:09:35Z</time>
      </trkpt>
      <trkpt lat="42.4236590" lon="-2.4662870">
        <ele>460.2</ele>
        <time>2022-06-27T06:09:36Z</time>
      </trkpt>
      <trkpt lat="42.4236350" lon="-2.4663240">
        <ele>460.4</ele>
        <time>2022-06-27T06:09:37Z</time>
      </trkpt>
      <trkpt lat="42.4236080" lon="-2.4663620">
        <ele>460.2</ele>
        <time>2022-06-27T06:09:38Z</time>
      </trkpt>
      <trkpt lat="42.4235810" lon="-2.4663960">
        <ele>460.6</ele>
        <time>2022-06-27T06:09:39Z</time>
      </trkpt>
      <trkpt lat="42.4235510" lon="-2.4664290">
        <ele>460.6</ele>
        <time>2022-06-27T06:09:40Z</time>
      </trkpt>
      <trkpt lat="42.4235240" lon="-2.4664600">
        <ele>460.8</ele>
        <time>2022-06-27T06:09:41Z</time>
      </trkpt>
      <trkpt lat="42.4234960" lon="-2.4664950">
        <ele>461.0</ele>
        <time>2022-06-27T06:09:42Z</time>
      </trkpt>
      <trkpt lat="42.4234700" lon="-2.4665270">
        <ele>461.0</ele>
        <time>2022-06-27T06:09:43Z</time>
      </trkpt>
      <trkpt lat="42.4234410" lon="-2.4665600">
        <ele>461.4</ele>
        <time>2022-06-27T06:09:44Z</time>
      </trkpt>
      <trkpt lat="42.4234120" lon="-2.4665950">
        <ele>461.4</ele>
        <time>2022-06-27T06:09:45Z</time>
      </trkpt>
      <trkpt lat="42.4233820" lon="-2.4666290">
        <ele>461.4</ele>
        <time>2022-06-27T06:09:46Z</time>
      </trkpt>
      <trkpt lat="42.4233520" lon="-2.4666580">
        <ele>461.4</ele>
        <time>2022-06-27T06:09:47Z</time>
      </trkpt>
      <trkpt lat="42.4233170" lon="-2.4666860">
        <ele>461.6</ele>
        <time>2022-06-27T06:09:48Z</time>
      </trkpt>
      <trkpt lat="42.4232820" lon="-2.4667130">
        <ele>461.6</ele>
        <time>2022-06-27T06:09:49Z</time>
      </trkpt>
      <trkpt lat="42.4232450" lon="-2.4667410">
        <ele>461.6</ele>
        <time>2022-06-27T06:09:50Z</time>
      </trkpt>
      <trkpt lat="42.4232110" lon="-2.4667680">
        <ele>461.8</ele>
        <time>2022-06-27T06:09:51Z</time>
      </trkpt>
      <trkpt lat="42.4231760" lon="-2.4667950">
        <ele>462.0</ele>
        <time>2022-06-27T06:09:52Z</time>
      </trkpt>
      <trkpt lat="42.4231390" lon="-2.4668230">
        <ele>462.2</ele>
        <time>2022-06-27T06:09:53Z</time>
      </trkpt>
      <trkpt lat="42.4231030" lon="-2.4668510">
        <ele>462.2</ele>
        <time>2022-06-27T06:09:54Z</time>
      </trkpt>
      <trkpt lat="42.4230650" lon="-2.4668760">
        <ele>462.6</ele>
        <time>2022-06-27T06:09:55Z</time>
      </trkpt>
      <trkpt lat="42.4230250" lon="-2.4669030">
        <ele>463.0</ele>
        <time>2022-06-27T06:09:56Z</time>
      </trkpt>
      <trkpt lat="42.4229860" lon="-2.4669320">
        <ele>463.0</ele>
        <time>2022-06-27T06:09:57Z</time>
      </trkpt>
      <trkpt lat="42.4229490" lon="-2.4669600">
        <ele>463.2</ele>
        <time>2022-06-27T06:09:58Z</time>
      </trkpt>
      <trkpt lat="42.4229110" lon="-2.4669900">
        <ele>463.2</ele>
        <time>2022-06-27T06:09:59Z</time>
      </trkpt>
      <trkpt lat="42.4228710" lon="-2.4670190">
        <ele>463.2</ele>
        <time>2022-06-27T06:10:00Z</time>
      </trkpt>
      <trkpt lat="42.4228330" lon="-2.4670450">
        <ele>463.2</ele>
        <time>2022-06-27T06:10:01Z</time>
      </trkpt>
      <trkpt lat="42.4227970" lon="-2.4670690">
        <ele>463.4</ele>
        <time>2022-06-27T06:10:02Z</time>
      </trkpt>
      <trkpt lat="42.4227600" lon="-2.4670990">
        <ele>463.4</ele>
        <time>2022-06-27T06:10:03Z</time>
      </trkpt>
      <trkpt lat="42.4227230" lon="-2.4671300">
        <ele>463.4</ele>
        <time>2022-06-27T06:10:04Z</time>
      </trkpt>
      <trkpt lat="42.4226830" lon="-2.4671610">
        <ele>463.4</ele>
        <time>2022-06-27T06:10:05Z</time>
      </trkpt>
      <trkpt lat="42.4226420" lon="-2.4671910">
        <ele>463.4</ele>
        <time>2022-06-27T06:10:06Z</time>
      </trkpt>
      <trkpt lat="42.4226020" lon="-2.4672210">
        <ele>463.4</ele>
        <time>2022-06-27T06:10:07Z</time>
      </trkpt>
      <trkpt lat="42.4225640" lon="-2.4672500">
        <ele>463.4</ele>
        <time>2022-06-27T06:10:08Z</time>
      </trkpt>
      <trkpt lat="42.4225250" lon="-2.4672790">
        <ele>463.4</ele>
        <time>2022-06-27T06:10:09Z</time>
      </trkpt>
      <trkpt lat="42.4224860" lon="-2.4673080">
        <ele>463.4</ele>
        <time>2022-06-27T06:10:10Z</time>
      </trkpt>
      <trkpt lat="42.4224480" lon="-2.4673390">
        <ele>463.4</ele>
        <time>2022-06-27T06:10:11Z</time>
      </trkpt>
      <trkpt lat="42.4224110" lon="-2.4673690">
        <ele>463.4</ele>
        <time>2022-06-27T06:10:12Z</time>
      </trkpt>
      <trkpt lat="42.4223730" lon="-2.4673990">
        <ele>463.4</ele>
        <time>2022-06-27T06:10:13Z</time>
      </trkpt>
      <trkpt lat="42.4223350" lon="-2.4674290">
        <ele>463.4</ele>
        <time>2022-06-27T06:10:14Z</time>
      </trkpt>
      <trkpt lat="42.4222930" lon="-2.4674600">
        <ele>463.4</ele>
        <time>2022-06-27T06:10:15Z</time>
      </trkpt>
      <trkpt lat="42.4222520" lon="-2.4674930">
        <ele>463.4</ele>
        <time>2022-06-27T06:10:16Z</time>
      </trkpt>
      <trkpt lat="42.4222100" lon="-2.4675260">
        <ele>463.4</ele>
        <time>2022-06-27T06:10:17Z</time>
      </trkpt>
      <trkpt lat="42.4221660" lon="-2.4675580">
        <ele>463.4</ele>
        <time>2022-06-27T06:10:18Z</time>
      </trkpt>
      <trkpt lat="42.4221230" lon="-2.4675890">
        <ele>463.6</ele>
        <time>2022-06-27T06:10:19Z</time>
      </trkpt>
      <trkpt lat="42.4220800" lon="-2.4676210">
        <ele>463.6</ele>
        <time>2022-06-27T06:10:20Z</time>
      </trkpt>
      <trkpt lat="42.4220370" lon="-2.4676550">
        <ele>463.6</ele>
        <time>2022-06-27T06:10:21Z</time>
      </trkpt>
      <trkpt lat="42.4219930" lon="-2.4676880">
        <ele>463.6</ele>
        <time>2022-06-27T06:10:22Z</time>
      </trkpt>
      <trkpt lat="42.4219480" lon="-2.4677220">
        <ele>463.6</ele>
        <time>2022-06-27T06:10:23Z</time>
      </trkpt>
      <trkpt lat="42.4219010" lon="-2.4677520">
        <ele>463.6</ele>
        <time>2022-06-27T06:10:24Z</time>
      </trkpt>
      <trkpt lat="42.4218550" lon="-2.4677770">
        <ele>463.6</ele>
        <time>2022-06-27T06:10:25Z</time>
      </trkpt>
      <trkpt lat="42.4218090" lon="-2.4678040">
        <ele>463.6</ele>
        <time>2022-06-27T06:10:26Z</time>
      </trkpt>
      <trkpt lat="42.4217590" lon="-2.4678300">
        <ele>463.8</ele>
        <time>2022-06-27T06:10:27Z</time>
      </trkpt>
      <trkpt lat="42.4217100" lon="-2.4678520">
        <ele>463.8</ele>
        <time>2022-06-27T06:10:28Z</time>
      </trkpt>
      <trkpt lat="42.4216580" lon="-2.4678730">
        <ele>463.6</ele>
        <time>2022-06-27T06:10:29Z</time>
      </trkpt>
      <trkpt lat="42.4216050" lon="-2.4678910">
        <ele>463.6</ele>
        <time>2022-06-27T06:10:30Z</time>
      </trkpt>
      <trkpt lat="42.4215510" lon="-2.4679090">
        <ele>463.6</ele>
        <time>2022-06-27T06:10:31Z</time>
      </trkpt>
      <trkpt lat="42.4214970" lon="-2.4679280">
        <ele>463.6</ele>
        <time>2022-06-27T06:10:32Z</time>
      </trkpt>
      <trkpt lat="42.4214420" lon="-2.4679460">
        <ele>463.6</ele>
        <time>2022-06-27T06:10:33Z</time>
      </trkpt>
      <trkpt lat="42.4213880" lon="-2.4679610">
        <ele>463.6</ele>
        <time>2022-06-27T06:10:34Z</time>
      </trkpt>
      <trkpt lat="42.4213340" lon="-2.4679760">
        <ele>463.4</ele>
        <time>2022-06-27T06:10:35Z</time>
      </trkpt>
      <trkpt lat="42.4212820" lon="-2.4679940">
        <ele>463.4</ele>
        <time>2022-06-27T06:10:36Z</time>
      </trkpt>
      <trkpt lat="42.4212300" lon="-2.4680100">
        <ele>463.4</ele>
        <time>2022-06-27T06:10:37Z</time>
      </trkpt>
      <trkpt lat="42.4211770" lon="-2.4680250">
        <ele>463.4</ele>
        <time>2022-06-27T06:10:38Z</time>
      </trkpt>
      <trkpt lat="42.4211220" lon="-2.4680440">
        <ele>463.4</ele>
        <time>2022-06-27T06:10:39Z</time>
      </trkpt>
      <trkpt lat="42.4210680" lon="-2.4680620">
        <ele>463.4</ele>
        <time>2022-06-27T06:10:40Z</time>
      </trkpt>
      <trkpt lat="42.4210130" lon="-2.4680810">
        <ele>463.4</ele>
        <time>2022-06-27T06:10:41Z</time>
      </trkpt>
      <trkpt lat="42.4209580" lon="-2.4680970">
        <ele>463.2</ele>
        <time>2022-06-27T06:10:42Z</time>
      </trkpt>
      <trkpt lat="42.4209030" lon="-2.4681130">
        <ele>463.2</ele>
        <time>2022-06-27T06:10:43Z</time>
      </trkpt>
      <trkpt lat="42.4208480" lon="-2.4681290">
        <ele>463.2</ele>
        <time>2022-06-27T06:10:44Z</time>
      </trkpt>
      <trkpt lat="42.4207920" lon="-2.4681460">
        <ele>463.2</ele>
        <time>2022-06-27T06:10:45Z</time>
      </trkpt>
      <trkpt lat="42.4207360" lon="-2.4681620">
        <ele>463.2</ele>
        <time>2022-06-27T06:10:46Z</time>
      </trkpt>
      <trkpt lat="42.4206820" lon="-2.4681790">
        <ele>463.2</ele>
        <time>2022-06-27T06:10:47Z</time>
      </trkpt>
      <trkpt lat="42.4206280" lon="-2.4681970">
        <ele>463.2</ele>
        <time>2022-06-27T06:10:48Z</time>
      </trkpt>
      <trkpt lat="42.4205740" lon="-2.4682130">
        <ele>463.2</ele>
        <time>2022-06-27T06:10:49Z</time>
      </trkpt>
      <trkpt lat="42.4205200" lon="-2.4682260">
        <ele>463.2</ele>
        <time>2022-06-27T06:10:50Z</time>
      </trkpt>
      <trkpt lat="42.4204650" lon="-2.4682390">
        <ele>463.2</ele>
        <time>2022-06-27T06:10:51Z</time>
      </trkpt>
      <trkpt lat="42.4204120" lon="-2.4682520">
        <ele>463.2</ele>
        <time>2022-06-27T06:10:52Z</time>
      </trkpt>
      <trkpt lat="42.4203580" lon="-2.4682650">
        <ele>463.2</ele>
        <time>2022-06-27T06:10:53Z</time>
      </trkpt>
      <trkpt lat="42.4203020" lon="-2.4682790">
        <ele>463.2</ele>
        <time>2022-06-27T06:10:54Z</time>
      </trkpt>
      <trkpt lat="42.4202470" lon="-2.4682910">
        <ele>463.2</ele>
        <time>2022-06-27T06:10:55Z</time>
      </trkpt>
      <trkpt lat="42.4201910" lon="-2.4683040">
        <ele>463.4</ele>
        <time>2022-06-27T06:10:56Z</time>
      </trkpt>
      <trkpt lat="42.4201470" lon="-2.4683140">
        <ele>463.4</ele>
        <time>2022-06-27T06:10:57Z</time>
      </trkpt>
      <trkpt lat="42.4200810" lon="-2.4683300">
        <ele>463.4</ele>
        <time>2022-06-27T06:10:58Z</time>
      </trkpt>
      <trkpt lat="42.4200270" lon="-2.4683430">
        <ele>463.4</ele>
        <time>2022-06-27T06:10:59Z</time>
      </trkpt>
      <trkpt lat="42.4199720" lon="-2.4683570">
        <ele>463.4</ele>
        <time>2022-06-27T06:11:00Z</time>
      </trkpt>
      <trkpt lat="42.4199190" lon="-2.4683700">
        <ele>463.4</ele>
        <time>2022-06-27T06:11:01Z</time>
      </trkpt>
      <trkpt lat="42.4198670" lon="-2.4683830">
        <ele>463.4</ele>
        <time>2022-06-27T06:11:02Z</time>
      </trkpt>
      <trkpt lat="42.4198170" lon="-2.4683940">
        <ele>463.4</ele>
        <time>2022-06-27T06:11:03Z</time>
      </trkpt>
      <trkpt lat="42.4197660" lon="-2.4684040">
        <ele>463.4</ele>
        <time>2022-06-27T06:11:04Z</time>
      </trkpt>
      <trkpt lat="42.4197190" lon="-2.4684120">
        <ele>463.4</ele>
        <time>2022-06-27T06:11:05Z</time>
      </trkpt>
      <trkpt lat="42.4196720" lon="-2.4684220">
        <ele>463.6</ele>
        <time>2022-06-27T06:11:06Z</time>
      </trkpt>
      <trkpt lat="42.4196270" lon="-2.4684300">
        <ele>463.6</ele>
        <time>2022-06-27T06:11:07Z</time>
      </trkpt>
      <trkpt lat="42.4195830" lon="-2.4684360">
        <ele>463.6</ele>
        <time>2022-06-27T06:11:08Z</time>
      </trkpt>
      <trkpt lat="42.4195400" lon="-2.4684440">
        <ele>463.6</ele>
        <time>2022-06-27T06:11:09Z</time>
      </trkpt>
      <trkpt lat="42.4194980" lon="-2.4684540">
        <ele>464.2</ele>
        <time>2022-06-27T06:11:10Z</time>
      </trkpt>
      <trkpt lat="42.4194570" lon="-2.4684670">
        <ele>464.2</ele>
        <time>2022-06-27T06:11:11Z</time>
      </trkpt>
      <trkpt lat="42.4194170" lon="-2.4684840">
        <ele>464.4</ele>
        <time>2022-06-27T06:11:12Z</time>
      </trkpt>
      <trkpt lat="42.4193790" lon="-2.4685030">
        <ele>464.6</ele>
        <time>2022-06-27T06:11:13Z</time>
      </trkpt>
      <trkpt lat="42.4193430" lon="-2.4685230">
        <ele>464.6</ele>
        <time>2022-06-27T06:11:14Z</time>
      </trkpt>
      <trkpt lat="42.4193100" lon="-2.4685420">
        <ele>464.8</ele>
        <time>2022-06-27T06:11:15Z</time>
      </trkpt>
      <trkpt lat="42.4192810" lon="-2.4685640">
        <ele>465.0</ele>
        <time>2022-06-27T06:11:16Z</time>
      </trkpt>
      <trkpt lat="42.4192530" lon="-2.4685830">
        <ele>465.2</ele>
        <time>2022-06-27T06:11:17Z</time>
      </trkpt>
      <trkpt lat="42.4192230" lon="-2.4686020">
        <ele>465.2</ele>
        <time>2022-06-27T06:11:18Z</time>
      </trkpt>
      <trkpt lat="42.4191950" lon="-2.4686180">
        <ele>465.4</ele>
        <time>2022-06-27T06:11:19Z</time>
      </trkpt>
      <trkpt lat="42.4191670" lon="-2.4686400">
        <ele>465.4</ele>
        <time>2022-06-27T06:11:20Z</time>
      </trkpt>
      <trkpt lat="42.4191430" lon="-2.4686670">
        <ele>465.8</ele>
        <time>2022-06-27T06:11:21Z</time>
      </trkpt>
      <trkpt lat="42.4191210" lon="-2.4686940">
        <ele>466.2</ele>
        <time>2022-06-27T06:11:22Z</time>
      </trkpt>
      <trkpt lat="42.4190990" lon="-2.4687220">
        <ele>466.4</ele>
        <time>2022-06-27T06:11:23Z</time>
      </trkpt>
      <trkpt lat="42.4190770" lon="-2.4687500">
        <ele>466.8</ele>
        <time>2022-06-27T06:11:24Z</time>
      </trkpt>
      <trkpt lat="42.4190560" lon="-2.4687740">
        <ele>467.0</ele>
        <time>2022-06-27T06:11:25Z</time>
      </trkpt>
      <trkpt lat="42.4190330" lon="-2.4687940">
        <ele>467.2</ele>
        <time>2022-06-27T06:11:26Z</time>
      </trkpt>
      <trkpt lat="42.4190100" lon="-2.4688170">
        <ele>467.4</ele>
        <time>2022-06-27T06:11:27Z</time>
      </trkpt>
      <trkpt lat="42.4189950" lon="-2.4688360">
        <ele>467.6</ele>
        <time>2022-06-27T06:11:28Z</time>
      </trkpt>
      <trkpt lat="42.4189780" lon="-2.4688620">
        <ele>467.6</ele>
        <time>2022-06-27T06:11:29Z</time>
      </trkpt>
      <trkpt lat="42.4189600" lon="-2.4688920">
        <ele>468.2</ele>
        <time>2022-06-27T06:11:30Z</time>
      </trkpt>
      <trkpt lat="42.4189390" lon="-2.4689290">
        <ele>468.4</ele>
        <time>2022-06-27T06:11:31Z</time>
      </trkpt>
      <trkpt lat="42.4189210" lon="-2.4689590">
        <ele>468.6</ele>
        <time>2022-06-27T06:11:32Z</time>
      </trkpt>
      <trkpt lat="42.4189040" lon="-2.4689850">
        <ele>469.0</ele>
        <time>2022-06-27T06:11:33Z</time>
      </trkpt>
      <trkpt lat="42.4188860" lon="-2.4690130">
        <ele>469.0</ele>
        <time>2022-06-27T06:11:34Z</time>
      </trkpt>
      <trkpt lat="42.4188680" lon="-2.4690400">
        <ele>469.2</ele>
        <time>2022-06-27T06:11:35Z</time>
      </trkpt>
      <trkpt lat="42.4188540" lon="-2.4690660">
        <ele>469.4</ele>
        <time>2022-06-27T06:11:36Z</time>
      </trkpt>
      <trkpt lat="42.4188420" lon="-2.4690960">
        <ele>469.8</ele>
        <time>2022-06-27T06:11:37Z</time>
      </trkpt>
      <trkpt lat="42.4188280" lon="-2.4691270">
        <ele>470.2</ele>
        <time>2022-06-27T06:11:38Z</time>
      </trkpt>
      <trkpt lat="42.4188150" lon="-2.4691550">
        <ele>470.4</ele>
        <time>2022-06-27T06:11:39Z</time>
      </trkpt>
      <trkpt lat="42.4188010" lon="-2.4691830">
        <ele>470.8</ele>
        <time>2022-06-27T06:11:40Z</time>
      </trkpt>
      <trkpt lat="42.4187860" lon="-2.4692120">
        <ele>470.8</ele>
        <time>2022-06-27T06:11:41Z</time>
      </trkpt>
      <trkpt lat="42.4187720" lon="-2.4692430">
        <ele>471.0</ele>
        <time>2022-06-27T06:11:42Z</time>
      </trkpt>
      <trkpt lat="42.4187580" lon="-2.4692740">
        <ele>471.2</ele>
        <time>2022-06-27T06:11:43Z</time>
      </trkpt>
      <trkpt lat="42.4187440" lon="-2.4692990">
        <ele>471.6</ele>
        <time>2022-06-27T06:11:44Z</time>
      </trkpt>
      <trkpt lat="42.4187290" lon="-2.4693270">
        <ele>471.8</ele>
        <time>2022-06-27T06:11:45Z</time>
      </trkpt>
      <trkpt lat="42.4187140" lon="-2.4693590">
        <ele>471.8</ele>
        <time>2022-06-27T06:11:46Z</time>
      </trkpt>
      <trkpt lat="42.4186990" lon="-2.4693920">
        <ele>471.8</ele>
        <time>2022-06-27T06:11:47Z</time>
      </trkpt>
      <trkpt lat="42.4186850" lon="-2.4694220">
        <ele>472.0</ele>
        <time>2022-06-27T06:11:48Z</time>
      </trkpt>
      <trkpt lat="42.4186680" lon="-2.4694540">
        <ele>472.2</ele>
        <time>2022-06-27T06:11:49Z</time>
      </trkpt>
      <trkpt lat="42.4186530" lon="-2.4694780">
        <ele>472.2</ele>
        <time>2022-06-27T06:11:50Z</time>
      </trkpt>
      <trkpt lat="42.4186340" lon="-2.4695080">
        <ele>472.4</ele>
        <time>2022-06-27T06:11:51Z</time>
      </trkpt>
      <trkpt lat="42.4186090" lon="-2.4695470">
        <ele>472.8</ele>
        <time>2022-06-27T06:11:52Z</time>
      </trkpt>
      <trkpt lat="42.4185890" lon="-2.4695790">
        <ele>472.8</ele>
        <time>2022-06-27T06:11:53Z</time>
      </trkpt>
      <trkpt lat="42.4185680" lon="-2.4696130">
        <ele>473.2</ele>
        <time>2022-06-27T06:11:54Z</time>
      </trkpt>
      <trkpt lat="42.4185470" lon="-2.4696500">
        <ele>473.2</ele>
        <time>2022-06-27T06:11:55Z</time>
      </trkpt>
      <trkpt lat="42.4185270" lon="-2.4696870">
        <ele>473.4</ele>
        <time>2022-06-27T06:11:56Z</time>
      </trkpt>
      <trkpt lat="42.4185040" lon="-2.4697260">
        <ele>473.4</ele>
        <time>2022-06-27T06:11:57Z</time>
      </trkpt>
      <trkpt lat="42.4184810" lon="-2.4697640">
        <ele>473.6</ele>
        <time>2022-06-27T06:11:58Z</time>
      </trkpt>
      <trkpt lat="42.4184590" lon="-2.4698000">
        <ele>473.8</ele>
        <time>2022-06-27T06:11:59Z</time>
      </trkpt>
      <trkpt lat="42.4184360" lon="-2.4698350">
        <ele>473.8</ele>
        <time>2022-06-27T06:12:00Z</time>
      </trkpt>
      <trkpt lat="42.4184150" lon="-2.4698720">
        <ele>474.0</ele>
        <time>2022-06-27T06:12:01Z</time>
      </trkpt>
      <trkpt lat="42.4183910" lon="-2.4699090">
        <ele>474.0</ele>
        <time>2022-06-27T06:12:02Z</time>
      </trkpt>
      <trkpt lat="42.4183670" lon="-2.4699470">
        <ele>474.2</ele>
        <time>2022-06-27T06:12:03Z</time>
      </trkpt>
      <trkpt lat="42.4183430" lon="-2.4699850">
        <ele>474.2</ele>
        <time>2022-06-27T06:12:04Z</time>
      </trkpt>
      <trkpt lat="42.4183170" lon="-2.4700220">
        <ele>474.4</ele>
        <time>2022-06-27T06:12:05Z</time>
      </trkpt>
      <trkpt lat="42.4182930" lon="-2.4700610">
        <ele>474.6</ele>
        <time>2022-06-27T06:12:06Z</time>
      </trkpt>
      <trkpt lat="42.4182760" lon="-2.4700940">
        <ele>474.6</ele>
        <time>2022-06-27T06:12:07Z</time>
      </trkpt>
      <trkpt lat="42.4182590" lon="-2.4701360">
        <ele>474.8</ele>
        <time>2022-06-27T06:12:08Z</time>
      </trkpt>
      <trkpt lat="42.4182440" lon="-2.4701930">
        <ele>474.8</ele>
        <time>2022-06-27T06:12:09Z</time>
      </trkpt>
      <trkpt lat="42.4182380" lon="-2.4702420">
        <ele>475.0</ele>
        <time>2022-06-27T06:12:10Z</time>
      </trkpt>
      <trkpt lat="42.4182310" lon="-2.4702810">
        <ele>475.0</ele>
        <time>2022-06-27T06:12:11Z</time>
      </trkpt>
      <trkpt lat="42.4182210" lon="-2.4703250">
        <ele>475.0</ele>
        <time>2022-06-27T06:12:12Z</time>
      </trkpt>
      <trkpt lat="42.4182050" lon="-2.4703750">
        <ele>475.0</ele>
        <time>2022-06-27T06:12:13Z</time>
      </trkpt>
      <trkpt lat="42.4181860" lon="-2.4704140">
        <ele>475.0</ele>
        <time>2022-06-27T06:12:14Z</time>
      </trkpt>
      <trkpt lat="42.4181620" lon="-2.4704500">
        <ele>475.2</ele>
        <time>2022-06-27T06:12:15Z</time>
      </trkpt>
      <trkpt lat="42.4181410" lon="-2.4704730">
        <ele>475.2</ele>
        <time>2022-06-27T06:12:16Z</time>
      </trkpt>
      <trkpt lat="42.4181150" lon="-2.4705010">
        <ele>475.4</ele>
        <time>2022-06-27T06:12:17Z</time>
      </trkpt>
      <trkpt lat="42.4180800" lon="-2.4705310">
        <ele>475.4</ele>
        <time>2022-06-27T06:12:18Z</time>
      </trkpt>
      <trkpt lat="42.4180490" lon="-2.4705510">
        <ele>475.8</ele>
        <time>2022-06-27T06:12:19Z</time>
      </trkpt>
      <trkpt lat="42.4180180" lon="-2.4705660">
        <ele>475.8</ele>
        <time>2022-06-27T06:12:20Z</time>
      </trkpt>
      <trkpt lat="42.4179840" lon="-2.4705740">
        <ele>476.0</ele>
        <time>2022-06-27T06:12:21Z</time>
      </trkpt>
      <trkpt lat="42.4179550" lon="-2.4705790">
        <ele>476.4</ele>
        <time>2022-06-27T06:12:22Z</time>
      </trkpt>
      <trkpt lat="42.4179130" lon="-2.4705840">
        <ele>476.6</ele>
        <time>2022-06-27T06:12:23Z</time>
      </trkpt>
      <trkpt lat="42.4178750" lon="-2.4705890">
        <ele>477.0</ele>
        <time>2022-06-27T06:12:24Z</time>
      </trkpt>
      <trkpt lat="42.4178390" lon="-2.4705960">
        <ele>477.0</ele>
        <time>2022-06-27T06:12:25Z</time>
      </trkpt>
      <trkpt lat="42.4178020" lon="-2.4706040">
        <ele>477.0</ele>
        <time>2022-06-27T06:12:26Z</time>
      </trkpt>
      <trkpt lat="42.4177730" lon="-2.4706120">
        <ele>477.2</ele>
        <time>2022-06-27T06:12:27Z</time>
      </trkpt>
      <trkpt lat="42.4177280" lon="-2.4706270">
        <ele>477.2</ele>
        <time>2022-06-27T06:12:28Z</time>
      </trkpt>
      <trkpt lat="42.4176920" lon="-2.4706430">
        <ele>477.4</ele>
        <time>2022-06-27T06:12:29Z</time>
      </trkpt>
      <trkpt lat="42.4176570" lon="-2.4706590">
        <ele>477.4</ele>
        <time>2022-06-27T06:12:30Z</time>
      </trkpt>
      <trkpt lat="42.4176220" lon="-2.4706740">
        <ele>477.6</ele>
        <time>2022-06-27T06:12:31Z</time>
      </trkpt>
      <trkpt lat="42.4175880" lon="-2.4706900">
        <ele>477.6</ele>
        <time>2022-06-27T06:12:32Z</time>
      </trkpt>
      <trkpt lat="42.4175570" lon="-2.4707090">
        <ele>477.8</ele>
        <time>2022-06-27T06:12:33Z</time>
      </trkpt>
      <trkpt lat="42.4175260" lon="-2.4707280">
        <ele>477.8</ele>
        <time>2022-06-27T06:12:34Z</time>
      </trkpt>
      <trkpt lat="42.4174930" lon="-2.4707440">
        <ele>477.8</ele>
        <time>2022-06-27T06:12:35Z</time>
      </trkpt>
      <trkpt lat="42.4174590" lon="-2.4707590">
        <ele>478.0</ele>
        <time>2022-06-27T06:12:36Z</time>
      </trkpt>
      <trkpt lat="42.4174250" lon="-2.4707740">
        <ele>478.0</ele>
        <time>2022-06-27T06:12:37Z</time>
      </trkpt>
      <trkpt lat="42.4173930" lon="-2.4707890">
        <ele>478.0</ele>
        <time>2022-06-27T06:12:38Z</time>
      </trkpt>
      <trkpt lat="42.4173610" lon="-2.4708040">
        <ele>478.0</ele>
        <time>2022-06-27T06:12:39Z</time>
      </trkpt>
      <trkpt lat="42.4173300" lon="-2.4708200">
        <ele>478.2</ele>
        <time>2022-06-27T06:12:40Z</time>
      </trkpt>
      <trkpt lat="42.4172970" lon="-2.4708360">
        <ele>478.4</ele>
        <time>2022-06-27T06:12:41Z</time>
      </trkpt>
      <trkpt lat="42.4172640" lon="-2.4708540">
        <ele>478.6</ele>
        <time>2022-06-27T06:12:42Z</time>
      </trkpt>
      <trkpt lat="42.4172290" lon="-2.4708720">
        <ele>478.8</ele>
        <time>2022-06-27T06:12:43Z</time>
      </trkpt>
      <trkpt lat="42.4171950" lon="-2.4708880">
        <ele>478.8</ele>
        <time>2022-06-27T06:12:44Z</time>
      </trkpt>
      <trkpt lat="42.4171600" lon="-2.4709050">
        <ele>479.4</ele>
        <time>2022-06-27T06:12:45Z</time>
      </trkpt>
      <trkpt lat="42.4171260" lon="-2.4709200">
        <ele>479.4</ele>
        <time>2022-06-27T06:12:46Z</time>
      </trkpt>
      <trkpt lat="42.4170900" lon="-2.4709350">
        <ele>479.8</ele>
        <time>2022-06-27T06:12:47Z</time>
      </trkpt>
      <trkpt lat="42.4170540" lon="-2.4709510">
        <ele>479.8</ele>
        <time>2022-06-27T06:12:48Z</time>
      </trkpt>
      <trkpt lat="42.4170170" lon="-2.4709660">
        <ele>479.8</ele>
        <time>2022-06-27T06:12:49Z</time>
      </trkpt>
      <trkpt lat="42.4169810" lon="-2.4709820">
        <ele>480.0</ele>
        <time>2022-06-27T06:12:50Z</time>
      </trkpt>
      <trkpt lat="42.4169440" lon="-2.4710010">
        <ele>480.0</ele>
        <time>2022-06-27T06:12:51Z</time>
      </trkpt>
      <trkpt lat="42.4169040" lon="-2.4710220">
        <ele>480.2</ele>
        <time>2022-06-27T06:12:52Z</time>
      </trkpt>
      <trkpt lat="42.4168630" lon="-2.4710430">
        <ele>480.2</ele>
        <time>2022-06-27T06:12:53Z</time>
      </trkpt>
      <trkpt lat="42.4168230" lon="-2.4710650">
        <ele>480.2</ele>
        <time>2022-06-27T06:12:54Z</time>
      </trkpt>
      <trkpt lat="42.4167810" lon="-2.4710900">
        <ele>480.2</ele>
        <time>2022-06-27T06:12:55Z</time>
      </trkpt>
      <trkpt lat="42.4167380" lon="-2.4711190">
        <ele>480.2</ele>
        <time>2022-06-27T06:12:56Z</time>
      </trkpt>
      <trkpt lat="42.4166950" lon="-2.4711500">
        <ele>480.2</ele>
        <time>2022-06-27T06:12:57Z</time>
      </trkpt>
      <trkpt lat="42.4166510" lon="-2.4711850">
        <ele>480.2</ele>
        <time>2022-06-27T06:12:58Z</time>
      </trkpt>
      <trkpt lat="42.4166050" lon="-2.4712260">
        <ele>480.2</ele>
        <time>2022-06-27T06:12:59Z</time>
      </trkpt>
      <trkpt lat="42.4165650" lon="-2.4712730">
        <ele>480.2</ele>
        <time>2022-06-27T06:13:00Z</time>
      </trkpt>
      <trkpt lat="42.4165270" lon="-2.4713260">
        <ele>480.2</ele>
        <time>2022-06-27T06:13:01Z</time>
      </trkpt>
      <trkpt lat="42.4164930" lon="-2.4713870">
        <ele>480.0</ele>
        <time>2022-06-27T06:13:02Z</time>
      </trkpt>
      <trkpt lat="42.4164660" lon="-2.4714550">
        <ele>480.0</ele>
        <time>2022-06-27T06:13:03Z</time>
      </trkpt>
      <trkpt lat="42.4164470" lon="-2.4715260">
        <ele>479.8</ele>
        <time>2022-06-27T06:13:04Z</time>
      </trkpt>
      <trkpt lat="42.4164290" lon="-2.4715960">
        <ele>479.4</ele>
        <time>2022-06-27T06:13:05Z</time>
      </trkpt>
      <trkpt lat="42.4164080" lon="-2.4716590">
        <ele>479.2</ele>
        <time>2022-06-27T06:13:06Z</time>
      </trkpt>
      <trkpt lat="42.4163800" lon="-2.4717130">
        <ele>479.2</ele>
        <time>2022-06-27T06:13:07Z</time>
      </trkpt>
      <trkpt lat="42.4163430" lon="-2.4717590">
        <ele>479.0</ele>
        <time>2022-06-27T06:13:08Z</time>
      </trkpt>
      <trkpt lat="42.4163000" lon="-2.4717930">
        <ele>479.0</ele>
        <time>2022-06-27T06:13:09Z</time>
      </trkpt>
      <trkpt lat="42.4162520" lon="-2.4718160">
        <ele>479.0</ele>
        <time>2022-06-27T06:13:10Z</time>
      </trkpt>
      <trkpt lat="42.4162000" lon="-2.4718230">
        <ele>479.0</ele>
        <time>2022-06-27T06:13:11Z</time>
      </trkpt>
      <trkpt lat="42.4161460" lon="-2.4718180">
        <ele>479.0</ele>
        <time>2022-06-27T06:13:12Z</time>
      </trkpt>
      <trkpt lat="42.4160910" lon="-2.4718060">
        <ele>479.0</ele>
        <time>2022-06-27T06:13:13Z</time>
      </trkpt>
      <trkpt lat="42.4160340" lon="-2.4717920">
        <ele>479.0</ele>
        <time>2022-06-27T06:13:14Z</time>
      </trkpt>
      <trkpt lat="42.4159750" lon="-2.4717800">
        <ele>479.0</ele>
        <time>2022-06-27T06:13:15Z</time>
      </trkpt>
      <trkpt lat="42.4159140" lon="-2.4717710">
        <ele>479.0</ele>
        <time>2022-06-27T06:13:16Z</time>
      </trkpt>
      <trkpt lat="42.4158540" lon="-2.4717660">
        <ele>479.0</ele>
        <time>2022-06-27T06:13:17Z</time>
      </trkpt>
      <trkpt lat="42.4157930" lon="-2.4717650">
        <ele>479.0</ele>
        <time>2022-06-27T06:13:18Z</time>
      </trkpt>
      <trkpt lat="42.4157320" lon="-2.4717700">
        <ele>479.0</ele>
        <time>2022-06-27T06:13:19Z</time>
      </trkpt>
      <trkpt lat="42.4156730" lon="-2.4717790">
        <ele>479.0</ele>
        <time>2022-06-27T06:13:20Z</time>
      </trkpt>
      <trkpt lat="42.4156160" lon="-2.4717930">
        <ele>478.8</ele>
        <time>2022-06-27T06:13:21Z</time>
      </trkpt>
      <trkpt lat="42.4155630" lon="-2.4718130">
        <ele>478.6</ele>
        <time>2022-06-27T06:13:22Z</time>
      </trkpt>
      <trkpt lat="42.4155130" lon="-2.4718370">
        <ele>478.4</ele>
        <time>2022-06-27T06:13:23Z</time>
      </trkpt>
      <trkpt lat="42.4154640" lon="-2.4718630">
        <ele>478.4</ele>
        <time>2022-06-27T06:13:24Z</time>
      </trkpt>
      <trkpt lat="42.4154160" lon="-2.4718940">
        <ele>478.4</ele>
        <time>2022-06-27T06:13:25Z</time>
      </trkpt>
      <trkpt lat="42.4153710" lon="-2.4719280">
        <ele>478.4</ele>
        <time>2022-06-27T06:13:26Z</time>
      </trkpt>
      <trkpt lat="42.4153280" lon="-2.4719620">
        <ele>478.2</ele>
        <time>2022-06-27T06:13:27Z</time>
      </trkpt>
      <trkpt lat="42.4152880" lon="-2.4719970">
        <ele>478.2</ele>
        <time>2022-06-27T06:13:28Z</time>
      </trkpt>
      <trkpt lat="42.4152500" lon="-2.4720330">
        <ele>478.4</ele>
        <time>2022-06-27T06:13:29Z</time>
      </trkpt>
      <trkpt lat="42.4152120" lon="-2.4720670">
        <ele>478.4</ele>
        <time>2022-06-27T06:13:30Z</time>
      </trkpt>
      <trkpt lat="42.4151760" lon="-2.4721010">
        <ele>478.4</ele>
        <time>2022-06-27T06:13:31Z</time>
      </trkpt>
      <trkpt lat="42.4151390" lon="-2.4721340">
        <ele>478.6</ele>
        <time>2022-06-27T06:13:32Z</time>
      </trkpt>
      <trkpt lat="42.4151040" lon="-2.4721650">
        <ele>478.8</ele>
        <time>2022-06-27T06:13:33Z</time>
      </trkpt>
      <trkpt lat="42.4150700" lon="-2.4721990">
        <ele>479.2</ele>
        <time>2022-06-27T06:13:34Z</time>
      </trkpt>
      <trkpt lat="42.4150390" lon="-2.4722300">
        <ele>479.4</ele>
        <time>2022-06-27T06:13:35Z</time>
      </trkpt>
      <trkpt lat="42.4150090" lon="-2.4722610">
        <ele>479.6</ele>
        <time>2022-06-27T06:13:36Z</time>
      </trkpt>
      <trkpt lat="42.4149820" lon="-2.4722930">
        <ele>479.8</ele>
        <time>2022-06-27T06:13:37Z</time>
      </trkpt>
      <trkpt lat="42.4149550" lon="-2.4723240">
        <ele>480.0</ele>
        <time>2022-06-27T06:13:38Z</time>
      </trkpt>
      <trkpt lat="42.4149280" lon="-2.4723540">
        <ele>480.0</ele>
        <time>2022-06-27T06:13:39Z</time>
      </trkpt>
      <trkpt lat="42.4149040" lon="-2.4723830">
        <ele>480.2</ele>
        <time>2022-06-27T06:13:40Z</time>
      </trkpt>
      <trkpt lat="42.4148780" lon="-2.4724130">
        <ele>480.4</ele>
        <time>2022-06-27T06:13:41Z</time>
      </trkpt>
      <trkpt lat="42.4148540" lon="-2.4724420">
        <ele>480.6</ele>
        <time>2022-06-27T06:13:42Z</time>
      </trkpt>
      <trkpt lat="42.4148300" lon="-2.4724730">
        <ele>481.0</ele>
        <time>2022-06-27T06:13:43Z</time>
      </trkpt>
      <trkpt lat="42.4148060" lon="-2.4725030">
        <ele>481.2</ele>
        <time>2022-06-27T06:13:44Z</time>
      </trkpt>
      <trkpt lat="42.4147820" lon="-2.4725330">
        <ele>481.4</ele>
        <time>2022-06-27T06:13:45Z</time>
      </trkpt>
      <trkpt lat="42.4147590" lon="-2.4725640">
        <ele>481.6</ele>
        <time>2022-06-27T06:13:46Z</time>
      </trkpt>
      <trkpt lat="42.4147350" lon="-2.4725940">
        <ele>482.0</ele>
        <time>2022-06-27T06:13:47Z</time>
      </trkpt>
      <trkpt lat="42.4147110" lon="-2.4726230">
        <ele>482.4</ele>
        <time>2022-06-27T06:13:48Z</time>
      </trkpt>
      <trkpt lat="42.4146880" lon="-2.4726510">
        <ele>482.6</ele>
        <time>2022-06-27T06:13:49Z</time>
      </trkpt>
      <trkpt lat="42.4146670" lon="-2.4726800">
        <ele>482.8</ele>
        <time>2022-06-27T06:13:50Z</time>
      </trkpt>
      <trkpt lat="42.4146450" lon="-2.4727120">
        <ele>483.0</ele>
        <time>2022-06-27T06:13:51Z</time>
      </trkpt>
      <trkpt lat="42.4146250" lon="-2.4727430">
        <ele>483.0</ele>
        <time>2022-06-27T06:13:52Z</time>
      </trkpt>
      <trkpt lat="42.4146040" lon="-2.4727740">
        <ele>483.2</ele>
        <time>2022-06-27T06:13:53Z</time>
      </trkpt>
      <trkpt lat="42.4145840" lon="-2.4728060">
        <ele>483.4</ele>
        <time>2022-06-27T06:13:54Z</time>
      </trkpt>
      <trkpt lat="42.4145640" lon="-2.4728370">
        <ele>484.0</ele>
        <time>2022-06-27T06:13:55Z</time>
      </trkpt>
      <trkpt lat="42.4145440" lon="-2.4728670">
        <ele>484.0</ele>
        <time>2022-06-27T06:13:56Z</time>
      </trkpt>
      <trkpt lat="42.4145240" lon="-2.4728960">
        <ele>484.2</ele>
        <time>2022-06-27T06:13:57Z</time>
      </trkpt>
      <trkpt lat="42.4145050" lon="-2.4729270">
        <ele>484.4</ele>
        <time>2022-06-27T06:13:58Z</time>
      </trkpt>
      <trkpt lat="42.4144870" lon="-2.4729580">
        <ele>484.6</ele>
        <time>2022-06-27T06:13:59Z</time>
      </trkpt>
      <trkpt lat="42.4144700" lon="-2.4729860">
        <ele>484.8</ele>
        <time>2022-06-27T06:14:00Z</time>
      </trkpt>
      <trkpt lat="42.4144520" lon="-2.4730160">
        <ele>485.0</ele>
        <time>2022-06-27T06:14:01Z</time>
      </trkpt>
      <trkpt lat="42.4144330" lon="-2.4730450">
        <ele>485.2</ele>
        <time>2022-06-27T06:14:02Z</time>
      </trkpt>
      <trkpt lat="42.4144110" lon="-2.4730700">
        <ele>485.4</ele>
        <time>2022-06-27T06:14:03Z</time>
      </trkpt>
      <trkpt lat="42.4143880" lon="-2.4730920">
        <ele>485.6</ele>
        <time>2022-06-27T06:14:04Z</time>
      </trkpt>
      <trkpt lat="42.4143680" lon="-2.4731180">
        <ele>485.8</ele>
        <time>2022-06-27T06:14:05Z</time>
      </trkpt>
      <trkpt lat="42.4143510" lon="-2.4731480">
        <ele>486.0</ele>
        <time>2022-06-27T06:14:06Z</time>
      </trkpt>
      <trkpt lat="42.4143370" lon="-2.4731790">
        <ele>486.2</ele>
        <time>2022-06-27T06:14:07Z</time>
      </trkpt>
      <trkpt lat="42.4143210" lon="-2.4732120">
        <ele>486.6</ele>
        <time>2022-06-27T06:14:08Z</time>
      </trkpt>
      <trkpt lat="42.4143050" lon="-2.4732430">
        <ele>486.8</ele>
        <time>2022-06-27T06:14:09Z</time>
      </trkpt>
      <trkpt lat="42.4142900" lon="-2.4732720">
        <ele>487.0</ele>
        <time>2022-06-27T06:14:10Z</time>
      </trkpt>
      <trkpt lat="42.4142760" lon="-2.4732990">
        <ele>487.2</ele>
        <time>2022-06-27T06:14:11Z</time>
      </trkpt>
      <trkpt lat="42.4142630" lon="-2.4733300">
        <ele>487.4</ele>
        <time>2022-06-27T06:14:12Z</time>
      </trkpt>
      <trkpt lat="42.4142460" lon="-2.4733600">
        <ele>487.6</ele>
        <time>2022-06-27T06:14:13Z</time>
      </trkpt>
      <trkpt lat="42.4142290" lon="-2.4733890">
        <ele>487.6</ele>
        <time>2022-06-27T06:14:14Z</time>
      </trkpt>
      <trkpt lat="42.4142140" lon="-2.4734180">
        <ele>487.8</ele>
        <time>2022-06-27T06:14:15Z</time>
      </trkpt>
      <trkpt lat="42.4142020" lon="-2.4734490">
        <ele>487.8</ele>
        <time>2022-06-27T06:14:16Z</time>
      </trkpt>
      <trkpt lat="42.4141870" lon="-2.4734810">
        <ele>488.0</ele>
        <time>2022-06-27T06:14:17Z</time>
      </trkpt>
      <trkpt lat="42.4141720" lon="-2.4735100">
        <ele>488.2</ele>
        <time>2022-06-27T06:14:18Z</time>
      </trkpt>
      <trkpt lat="42.4141580" lon="-2.4735410">
        <ele>488.2</ele>
        <time>2022-06-27T06:14:19Z</time>
      </trkpt>
      <trkpt lat="42.4141440" lon="-2.4735730">
        <ele>488.4</ele>
        <time>2022-06-27T06:14:20Z</time>
      </trkpt>
      <trkpt lat="42.4141300" lon="-2.4736060">
        <ele>488.4</ele>
        <time>2022-06-27T06:14:21Z</time>
      </trkpt>
      <trkpt lat="42.4141160" lon="-2.4736380">
        <ele>488.8</ele>
        <time>2022-06-27T06:14:22Z</time>
      </trkpt>
      <trkpt lat="42.4141020" lon="-2.4736690">
        <ele>488.8</ele>
        <time>2022-06-27T06:14:23Z</time>
      </trkpt>
      <trkpt lat="42.4140860" lon="-2.4737010">
        <ele>489.2</ele>
        <time>2022-06-27T06:14:24Z</time>
      </trkpt>
      <trkpt lat="42.4140710" lon="-2.4737340">
        <ele>489.2</ele>
        <time>2022-06-27T06:14:25Z</time>
      </trkpt>
      <trkpt lat="42.4140580" lon="-2.4737680">
        <ele>489.4</ele>
        <time>2022-06-27T06:14:26Z</time>
      </trkpt>
      <trkpt lat="42.4140440" lon="-2.4738010">
        <ele>489.4</ele>
        <time>2022-06-27T06:14:27Z</time>
      </trkpt>
      <trkpt lat="42.4140290" lon="-2.4738330">
        <ele>489.4</ele>
        <time>2022-06-27T06:14:28Z</time>
      </trkpt>
      <trkpt lat="42.4140140" lon="-2.4738660">
        <ele>489.8</ele>
        <time>2022-06-27T06:14:29Z</time>
      </trkpt>
      <trkpt lat="42.4140020" lon="-2.4738970">
        <ele>489.8</ele>
        <time>2022-06-27T06:14:30Z</time>
      </trkpt>
      <trkpt lat="42.4139890" lon="-2.4739330">
        <ele>490.0</ele>
        <time>2022-06-27T06:14:31Z</time>
      </trkpt>
      <trkpt lat="42.4139760" lon="-2.4739670">
        <ele>490.2</ele>
        <time>2022-06-27T06:14:32Z</time>
      </trkpt>
      <trkpt lat="42.4139620" lon="-2.4740000">
        <ele>490.2</ele>
        <time>2022-06-27T06:14:33Z</time>
      </trkpt>
      <trkpt lat="42.4139490" lon="-2.4740310">
        <ele>490.6</ele>
        <time>2022-06-27T06:14:34Z</time>
      </trkpt>
      <trkpt lat="42.4139380" lon="-2.4740620">
        <ele>490.6</ele>
        <time>2022-06-27T06:14:35Z</time>
      </trkpt>
      <trkpt lat="42.4139260" lon="-2.4740970">
        <ele>490.8</ele>
        <time>2022-06-27T06:14:36Z</time>
      </trkpt>
      <trkpt lat="42.4139130" lon="-2.4741310">
        <ele>491.0</ele>
        <time>2022-06-27T06:14:37Z</time>
      </trkpt>
      <trkpt lat="42.4139010" lon="-2.4741640">
        <ele>491.2</ele>
        <time>2022-06-27T06:14:38Z</time>
      </trkpt>
      <trkpt lat="42.4138890" lon="-2.4741980">
        <ele>491.6</ele>
        <time>2022-06-27T06:14:39Z</time>
      </trkpt>
      <trkpt lat="42.4138760" lon="-2.4742330">
        <ele>491.8</ele>
        <time>2022-06-27T06:14:40Z</time>
      </trkpt>
      <trkpt lat="42.4138640" lon="-2.4742680">
        <ele>492.0</ele>
        <time>2022-06-27T06:14:41Z</time>
      </trkpt>
      <trkpt lat="42.4138530" lon="-2.4743000">
        <ele>492.0</ele>
        <time>2022-06-27T06:14:42Z</time>
      </trkpt>
      <trkpt lat="42.4138410" lon="-2.4743330">
        <ele>492.4</ele>
        <time>2022-06-27T06:14:43Z</time>
      </trkpt>
      <trkpt lat="42.4138310" lon="-2.4743660">
        <ele>492.6</ele>
        <time>2022-06-27T06:14:44Z</time>
      </trkpt>
      <trkpt lat="42.4138200" lon="-2.4744000">
        <ele>492.8</ele>
        <time>2022-06-27T06:14:45Z</time>
      </trkpt>
      <trkpt lat="42.4138080" lon="-2.4744290">
        <ele>493.0</ele>
        <time>2022-06-27T06:14:46Z</time>
      </trkpt>
      <trkpt lat="42.4137960" lon="-2.4744620">
        <ele>493.2</ele>
        <time>2022-06-27T06:14:47Z</time>
      </trkpt>
      <trkpt lat="42.4137870" lon="-2.4744970">
        <ele>493.4</ele>
        <time>2022-06-27T06:14:48Z</time>
      </trkpt>
      <trkpt lat="42.4137760" lon="-2.4745340">
        <ele>493.6</ele>
        <time>2022-06-27T06:14:49Z</time>
      </trkpt>
      <trkpt lat="42.4137640" lon="-2.4745680">
        <ele>493.8</ele>
        <time>2022-06-27T06:14:50Z</time>
      </trkpt>
      <trkpt lat="42.4137550" lon="-2.4746030">
        <ele>494.0</ele>
        <time>2022-06-27T06:14:51Z</time>
      </trkpt>
      <trkpt lat="42.4137470" lon="-2.4746370">
        <ele>494.2</ele>
        <time>2022-06-27T06:14:52Z</time>
      </trkpt>
      <trkpt lat="42.4137390" lon="-2.4746680">
        <ele>494.4</ele>
        <time>2022-06-27T06:14:53Z</time>
      </trkpt>
      <trkpt lat="42.4137300" lon="-2.4747010">
        <ele>494.4</ele>
        <time>2022-06-27T06:14:54Z</time>
      </trkpt>
      <trkpt lat="42.4137230" lon="-2.4747340">
        <ele>494.6</ele>
        <time>2022-06-27T06:14:55Z</time>
      </trkpt>
      <trkpt lat="42.4137150" lon="-2.4747690">
        <ele>494.8</ele>
        <time>2022-06-27T06:14:56Z</time>
      </trkpt>
      <trkpt lat="42.4137090" lon="-2.4748040">
        <ele>495.0</ele>
        <time>2022-06-27T06:14:57Z</time>
      </trkpt>
      <trkpt lat="42.4137010" lon="-2.4748420">
        <ele>495.0</ele>
        <time>2022-06-27T06:14:58Z</time>
      </trkpt>
      <trkpt lat="42.4136910" lon="-2.4748780">
        <ele>495.2</ele>
        <time>2022-06-27T06:14:59Z</time>
      </trkpt>
      <trkpt lat="42.4136830" lon="-2.4749110">
        <ele>495.4</ele>
        <time>2022-06-27T06:15:00Z</time>
      </trkpt>
      <trkpt lat="42.4136750" lon="-2.4749440">
        <ele>495.4</ele>
        <time>2022-06-27T06:15:01Z</time>
      </trkpt>
      <trkpt lat="42.4136660" lon="-2.4749770">
        <ele>495.6</ele>
        <time>2022-06-27T06:15:02Z</time>
      </trkpt>
      <trkpt lat="42.4136570" lon="-2.4750110">
        <ele>495.8</ele>
        <time>2022-06-27T06:15:03Z</time>
      </trkpt>
      <trkpt lat="42.4136460" lon="-2.4750480">
        <ele>496.0</ele>
        <time>2022-06-27T06:15:04Z</time>
      </trkpt>
      <trkpt lat="42.4136370" lon="-2.4750830">
        <ele>496.0</ele>
        <time>2022-06-27T06:15:05Z</time>
      </trkpt>
      <trkpt lat="42.4136300" lon="-2.4751200">
        <ele>496.2</ele>
        <time>2022-06-27T06:15:06Z</time>
      </trkpt>
      <trkpt lat="42.4136250" lon="-2.4751580">
        <ele>496.4</ele>
        <time>2022-06-27T06:15:07Z</time>
      </trkpt>
      <trkpt lat="42.4136210" lon="-2.4751940">
        <ele>496.6</ele>
        <time>2022-06-27T06:15:08Z</time>
      </trkpt>
      <trkpt lat="42.4136180" lon="-2.4752290">
        <ele>497.0</ele>
        <time>2022-06-27T06:15:09Z</time>
      </trkpt>
      <trkpt lat="42.4136130" lon="-2.4752630">
        <ele>497.2</ele>
        <time>2022-06-27T06:15:10Z</time>
      </trkpt>
      <trkpt lat="42.4136080" lon="-2.4752960">
        <ele>497.4</ele>
        <time>2022-06-27T06:15:11Z</time>
      </trkpt>
      <trkpt lat="42.4136020" lon="-2.4753310">
        <ele>497.4</ele>
        <time>2022-06-27T06:15:12Z</time>
      </trkpt>
      <trkpt lat="42.4135970" lon="-2.4753630">
        <ele>497.6</ele>
        <time>2022-06-27T06:15:13Z</time>
      </trkpt>
      <trkpt lat="42.4135930" lon="-2.4753950">
        <ele>497.6</ele>
        <time>2022-06-27T06:15:14Z</time>
      </trkpt>
      <trkpt lat="42.4135890" lon="-2.4754280">
        <ele>497.8</ele>
        <time>2022-06-27T06:15:15Z</time>
      </trkpt>
      <trkpt lat="42.4135810" lon="-2.4754600">
        <ele>498.0</ele>
        <time>2022-06-27T06:15:16Z</time>
      </trkpt>
      <trkpt lat="42.4135730" lon="-2.4754920">
        <ele>498.2</ele>
        <time>2022-06-27T06:15:17Z</time>
      </trkpt>
      <trkpt lat="42.4135660" lon="-2.4755260">
        <ele>498.4</ele>
        <time>2022-06-27T06:15:18Z</time>
      </trkpt>
      <trkpt lat="42.4135600" lon="-2.4755600">
        <ele>498.6</ele>
        <time>2022-06-27T06:15:19Z</time>
      </trkpt>
      <trkpt lat="42.4135560" lon="-2.4755930">
        <ele>498.8</ele>
        <time>2022-06-27T06:15:20Z</time>
      </trkpt>
      <trkpt lat="42.4135500" lon="-2.4756290">
        <ele>499.0</ele>
        <time>2022-06-27T06:15:21Z</time>
      </trkpt>
      <trkpt lat="42.4135420" lon="-2.4756650">
        <ele>499.2</ele>
        <time>2022-06-27T06:15:22Z</time>
      </trkpt>
      <trkpt lat="42.4135360" lon="-2.4757010">
        <ele>499.2</ele>
        <time>2022-06-27T06:15:23Z</time>
      </trkpt>
      <trkpt lat="42.4135300" lon="-2.4757350">
        <ele>499.4</ele>
        <time>2022-06-27T06:15:24Z</time>
      </trkpt>
      <trkpt lat="42.4135240" lon="-2.4757670">
        <ele>499.8</ele>
        <time>2022-06-27T06:15:25Z</time>
      </trkpt>
      <trkpt lat="42.4135190" lon="-2.4758010">
        <ele>500.0</ele>
        <time>2022-06-27T06:15:26Z</time>
      </trkpt>
      <trkpt lat="42.4135160" lon="-2.4758360">
        <ele>500.2</ele>
        <time>2022-06-27T06:15:27Z</time>
      </trkpt>
      <trkpt lat="42.4135140" lon="-2.4758720">
        <ele>500.4</ele>
        <time>2022-06-27T06:15:28Z</time>
      </trkpt>
      <trkpt lat="42.4135100" lon="-2.4759110">
        <ele>500.6</ele>
        <time>2022-06-27T06:15:29Z</time>
      </trkpt>
      <trkpt lat="42.4135040" lon="-2.4759480">
        <ele>500.6</ele>
        <time>2022-06-27T06:15:30Z</time>
      </trkpt>
      <trkpt lat="42.4134950" lon="-2.4759870">
        <ele>500.8</ele>
        <time>2022-06-27T06:15:31Z</time>
      </trkpt>
      <trkpt lat="42.4134860" lon="-2.4760260">
        <ele>501.0</ele>
        <time>2022-06-27T06:15:32Z</time>
      </trkpt>
      <trkpt lat="42.4134800" lon="-2.4760650">
        <ele>501.0</ele>
        <time>2022-06-27T06:15:33Z</time>
      </trkpt>
      <trkpt lat="42.4134750" lon="-2.4761030">
        <ele>501.2</ele>
        <time>2022-06-27T06:15:34Z</time>
      </trkpt>
      <trkpt lat="42.4134710" lon="-2.4761390">
        <ele>501.4</ele>
        <time>2022-06-27T06:15:35Z</time>
      </trkpt>
      <trkpt lat="42.4134670" lon="-2.4761780">
        <ele>501.6</ele>
        <time>2022-06-27T06:15:36Z</time>
      </trkpt>
      <trkpt lat="42.4134630" lon="-2.4762180">
        <ele>502.0</ele>
        <time>2022-06-27T06:15:37Z</time>
      </trkpt>
      <trkpt lat="42.4134590" lon="-2.4762580">
        <ele>502.0</ele>
        <time>2022-06-27T06:15:38Z</time>
      </trkpt>
      <trkpt lat="42.4134530" lon="-2.4762990">
        <ele>502.2</ele>
        <time>2022-06-27T06:15:39Z</time>
      </trkpt>
      <trkpt lat="42.4134500" lon="-2.4763370">
        <ele>502.2</ele>
        <time>2022-06-27T06:15:40Z</time>
      </trkpt>
      <trkpt lat="42.4134480" lon="-2.4763760">
        <ele>502.4</ele>
        <time>2022-06-27T06:15:41Z</time>
      </trkpt>
      <trkpt lat="42.4134440" lon="-2.4764150">
        <ele>502.4</ele>
        <time>2022-06-27T06:15:42Z</time>
      </trkpt>
      <trkpt lat="42.4134380" lon="-2.4764540">
        <ele>502.6</ele>
        <time>2022-06-27T06:15:43Z</time>
      </trkpt>
      <trkpt lat="42.4134320" lon="-2.4764920">
        <ele>502.8</ele>
        <time>2022-06-27T06:15:44Z</time>
      </trkpt>
      <trkpt lat="42.4134280" lon="-2.4765310">
        <ele>502.8</ele>
        <time>2022-06-27T06:15:45Z</time>
      </trkpt>
      <trkpt lat="42.4134240" lon="-2.4765700">
        <ele>503.0</ele>
        <time>2022-06-27T06:15:46Z</time>
      </trkpt>
      <trkpt lat="42.4134180" lon="-2.4766080">
        <ele>503.2</ele>
        <time>2022-06-27T06:15:47Z</time>
      </trkpt>
      <trkpt lat="42.4134120" lon="-2.4766480">
        <ele>503.2</ele>
        <time>2022-06-27T06:15:48Z</time>
      </trkpt>
      <trkpt lat="42.4134060" lon="-2.4766910">
        <ele>503.4</ele>
        <time>2022-06-27T06:15:49Z</time>
      </trkpt>
      <trkpt lat="42.4134010" lon="-2.4767360">
        <ele>503.6</ele>
        <time>2022-06-27T06:15:50Z</time>
      </trkpt>
      <trkpt lat="42.4133940" lon="-2.4767840">
        <ele>503.6</ele>
        <time>2022-06-27T06:15:51Z</time>
      </trkpt>
      <trkpt lat="42.4133870" lon="-2.4768310">
        <ele>503.6</ele>
        <time>2022-06-27T06:15:52Z</time>
      </trkpt>
      <trkpt lat="42.4133800" lon="-2.4768750">
        <ele>503.8</ele>
        <time>2022-06-27T06:15:53Z</time>
      </trkpt>
      <trkpt lat="42.4133720" lon="-2.4769210">
        <ele>504.0</ele>
        <time>2022-06-27T06:15:54Z</time>
      </trkpt>
      <trkpt lat="42.4133610" lon="-2.4769680">
        <ele>504.0</ele>
        <time>2022-06-27T06:15:55Z</time>
      </trkpt>
      <trkpt lat="42.4133510" lon="-2.4770150">
        <ele>504.2</ele>
        <time>2022-06-27T06:15:56Z</time>
      </trkpt>
      <trkpt lat="42.4133470" lon="-2.4770660">
        <ele>504.2</ele>
        <time>2022-06-27T06:15:57Z</time>
      </trkpt>
      <trkpt lat="42.4133420" lon="-2.4771160">
        <ele>504.4</ele>
        <time>2022-06-27T06:15:58Z</time>
      </trkpt>
      <trkpt lat="42.4133350" lon="-2.4771640">
        <ele>504.6</ele>
        <time>2022-06-27T06:15:59Z</time>
      </trkpt>
      <trkpt lat="42.4133260" lon="-2.4772130">
        <ele>504.6</ele>
        <time>2022-06-27T06:16:00Z</time>
      </trkpt>
      <trkpt lat="42.4133190" lon="-2.4772610">
        <ele>504.6</ele>
        <time>2022-06-27T06:16:01Z</time>
      </trkpt>
      <trkpt lat="42.4133130" lon="-2.4773080">
        <ele>504.8</ele>
        <time>2022-06-27T06:16:02Z</time>
      </trkpt>
      <trkpt lat="42.4133070" lon="-2.4773570">
        <ele>504.8</ele>
        <time>2022-06-27T06:16:03Z</time>
      </trkpt>
      <trkpt lat="42.4132990" lon="-2.4774050">
        <ele>504.8</ele>
        <time>2022-06-27T06:16:04Z</time>
      </trkpt>
      <trkpt lat="42.4132900" lon="-2.4774560">
        <ele>504.8</ele>
        <time>2022-06-27T06:16:05Z</time>
      </trkpt>
      <trkpt lat="42.4132820" lon="-2.4775110">
        <ele>505.0</ele>
        <time>2022-06-27T06:16:06Z</time>
      </trkpt>
      <trkpt lat="42.4132740" lon="-2.4775650">
        <ele>505.0</ele>
        <time>2022-06-27T06:16:07Z</time>
      </trkpt>
      <trkpt lat="42.4132670" lon="-2.4776190">
        <ele>505.0</ele>
        <time>2022-06-27T06:16:08Z</time>
      </trkpt>
      <trkpt lat="42.4132590" lon="-2.4776730">
        <ele>505.0</ele>
        <time>2022-06-27T06:16:09Z</time>
      </trkpt>
      <trkpt lat="42.4132500" lon="-2.4777270">
        <ele>505.2</ele>
        <time>2022-06-27T06:16:10Z</time>
      </trkpt>
      <trkpt lat="42.4132430" lon="-2.4777830">
        <ele>505.2</ele>
        <time>2022-06-27T06:16:11Z</time>
      </trkpt>
      <trkpt lat="42.4132370" lon="-2.4778360">
        <ele>505.2</ele>
        <time>2022-06-27T06:16:12Z</time>
      </trkpt>
      <trkpt lat="42.4132310" lon="-2.4778890">
        <ele>505.2</ele>
        <time>2022-06-27T06:16:13Z</time>
      </trkpt>
      <trkpt lat="42.4132240" lon="-2.4779460">
        <ele>505.2</ele>
        <time>2022-06-27T06:16:14Z</time>
      </trkpt>
      <trkpt lat="42.4132160" lon="-2.4780060">
        <ele>505.2</ele>
        <time>2022-06-27T06:16:15Z</time>
      </trkpt>
      <trkpt lat="42.4132080" lon="-2.4780650">
        <ele>505.2</ele>
        <time>2022-06-27T06:16:16Z</time>
      </trkpt>
      <trkpt lat="42.4131990" lon="-2.4781230">
        <ele>505.2</ele>
        <time>2022-06-27T06:16:17Z</time>
      </trkpt>
      <trkpt lat="42.4131880" lon="-2.4781830">
        <ele>505.4</ele>
        <time>2022-06-27T06:16:18Z</time>
      </trkpt>
      <trkpt lat="42.4131800" lon="-2.4782420">
        <ele>505.4</ele>
        <time>2022-06-27T06:16:19Z</time>
      </trkpt>
      <trkpt lat="42.4131720" lon="-2.4783010">
        <ele>505.4</ele>
        <time>2022-06-27T06:16:20Z</time>
      </trkpt>
      <trkpt lat="42.4131630" lon="-2.4783590">
        <ele>505.6</ele>
        <time>2022-06-27T06:16:21Z</time>
      </trkpt>
      <trkpt lat="42.4131540" lon="-2.4784180">
        <ele>505.6</ele>
        <time>2022-06-27T06:16:22Z</time>
      </trkpt>
      <trkpt lat="42.4131460" lon="-2.4784760">
        <ele>505.6</ele>
        <time>2022-06-27T06:16:23Z</time>
      </trkpt>
      <trkpt lat="42.4131380" lon="-2.4785360">
        <ele>505.6</ele>
        <time>2022-06-27T06:16:24Z</time>
      </trkpt>
      <trkpt lat="42.4131270" lon="-2.4785960">
        <ele>505.8</ele>
        <time>2022-06-27T06:16:25Z</time>
      </trkpt>
      <trkpt lat="42.4131180" lon="-2.4786560">
        <ele>505.8</ele>
        <time>2022-06-27T06:16:26Z</time>
      </trkpt>
      <trkpt lat="42.4131080" lon="-2.4787180">
        <ele>505.8</ele>
        <time>2022-06-27T06:16:27Z</time>
      </trkpt>
      <trkpt lat="42.4130990" lon="-2.4787790">
        <ele>506.0</ele>
        <time>2022-06-27T06:16:28Z</time>
      </trkpt>
      <trkpt lat="42.4130890" lon="-2.4788390">
        <ele>506.0</ele>
        <time>2022-06-27T06:16:29Z</time>
      </trkpt>
      <trkpt lat="42.4130790" lon="-2.4789000">
        <ele>506.0</ele>
        <time>2022-06-27T06:16:30Z</time>
      </trkpt>
      <trkpt lat="42.4130700" lon="-2.4789600">
        <ele>506.0</ele>
        <time>2022-06-27T06:16:31Z</time>
      </trkpt>
      <trkpt lat="42.4130610" lon="-2.4790220">
        <ele>506.0</ele>
        <time>2022-06-27T06:16:32Z</time>
      </trkpt>
      <trkpt lat="42.4130520" lon="-2.4790830">
        <ele>506.0</ele>
        <time>2022-06-27T06:16:33Z</time>
      </trkpt>
      <trkpt lat="42.4130440" lon="-2.4791440">
        <ele>506.2</ele>
        <time>2022-06-27T06:16:34Z</time>
      </trkpt>
      <trkpt lat="42.4130350" lon="-2.4792030">
        <ele>506.2</ele>
        <time>2022-06-27T06:16:35Z</time>
      </trkpt>
      <trkpt lat="42.4130270" lon="-2.4792620">
        <ele>506.4</ele>
        <time>2022-06-27T06:16:36Z</time>
      </trkpt>
      <trkpt lat="42.4130180" lon="-2.4793190">
        <ele>506.4</ele>
        <time>2022-06-27T06:16:37Z</time>
      </trkpt>
      <trkpt lat="42.4130090" lon="-2.4793750">
        <ele>506.6</ele>
        <time>2022-06-27T06:16:38Z</time>
      </trkpt>
      <trkpt lat="42.4129980" lon="-2.4794310">
        <ele>506.6</ele>
        <time>2022-06-27T06:16:39Z</time>
      </trkpt>
      <trkpt lat="42.4129880" lon="-2.4794890">
        <ele>506.6</ele>
        <time>2022-06-27T06:16:40Z</time>
      </trkpt>
      <trkpt lat="42.4129780" lon="-2.4795450">
        <ele>506.6</ele>
        <time>2022-06-27T06:16:41Z</time>
      </trkpt>
      <trkpt lat="42.4129680" lon="-2.4796010">
        <ele>506.8</ele>
        <time>2022-06-27T06:16:42Z</time>
      </trkpt>
      <trkpt lat="42.4129600" lon="-2.4796560">
        <ele>506.8</ele>
        <time>2022-06-27T06:16:43Z</time>
      </trkpt>
      <trkpt lat="42.4129520" lon="-2.4797120">
        <ele>507.0</ele>
        <time>2022-06-27T06:16:44Z</time>
      </trkpt>
      <trkpt lat="42.4129410" lon="-2.4797670">
        <ele>507.2</ele>
        <time>2022-06-27T06:16:45Z</time>
      </trkpt>
      <trkpt lat="42.4129310" lon="-2.4798210">
        <ele>507.4</ele>
        <time>2022-06-27T06:16:46Z</time>
      </trkpt>
      <trkpt lat="42.4129240" lon="-2.4798770">
        <ele>507.4</ele>
        <time>2022-06-27T06:16:47Z</time>
      </trkpt>
      <trkpt lat="42.4129170" lon="-2.4799310">
        <ele>507.6</ele>
        <time>2022-06-27T06:16:48Z</time>
      </trkpt>
      <trkpt lat="42.4129110" lon="-2.4799850">
        <ele>507.6</ele>
        <time>2022-06-27T06:16:49Z</time>
      </trkpt>
      <trkpt lat="42.4129040" lon="-2.4800390">
        <ele>507.8</ele>
        <time>2022-06-27T06:16:50Z</time>
      </trkpt>
      <trkpt lat="42.4128940" lon="-2.4800910">
        <ele>508.0</ele>
        <time>2022-06-27T06:16:51Z</time>
      </trkpt>
      <trkpt lat="42.4128840" lon="-2.4801420">
        <ele>508.0</ele>
        <time>2022-06-27T06:16:52Z</time>
      </trkpt>
      <trkpt lat="42.4128730" lon="-2.4801950">
        <ele>508.2</ele>
        <time>2022-06-27T06:16:53Z</time>
      </trkpt>
      <trkpt lat="42.4128620" lon="-2.4802470">
        <ele>508.4</ele>
        <time>2022-06-27T06:16:54Z</time>
      </trkpt>
      <trkpt lat="42.4128540" lon="-2.4802980">
        <ele>508.6</ele>
        <time>2022-06-27T06:16:55Z</time>
      </trkpt>
      <trkpt lat="42.4128450" lon="-2.4803500">
        <ele>508.6</ele>
        <time>2022-06-27T06:16:56Z</time>
      </trkpt>
      <trkpt lat="42.4128370" lon="-2.4804020">
        <ele>508.8</ele>
        <time>2022-06-27T06:16:57Z</time>
      </trkpt>
      <trkpt lat="42.4128280" lon="-2.4804520">
        <ele>509.0</ele>
        <time>2022-06-27T06:16:58Z</time>
      </trkpt>
      <trkpt lat="42.4128200" lon="-2.4805040">
        <ele>509.0</ele>
        <time>2022-06-27T06:16:59Z</time>
      </trkpt>
      <trkpt lat="42.4128110" lon="-2.4805550">
        <ele>509.4</ele>
        <time>2022-06-27T06:17:00Z</time>
      </trkpt>
      <trkpt lat="42.4128020" lon="-2.4806060">
        <ele>509.4</ele>
        <time>2022-06-27T06:17:01Z</time>
      </trkpt>
      <trkpt lat="42.4127940" lon="-2.4806560">
        <ele>509.8</ele>
        <time>2022-06-27T06:17:02Z</time>
      </trkpt>
      <trkpt lat="42.4127850" lon="-2.4807040">
        <ele>509.8</ele>
        <time>2022-06-27T06:17:03Z</time>
      </trkpt>
      <trkpt lat="42.4127760" lon="-2.4807540">
        <ele>510.0</ele>
        <time>2022-06-27T06:17:04Z</time>
      </trkpt>
      <trkpt lat="42.4127670" lon="-2.4808030">
        <ele>510.2</ele>
        <time>2022-06-27T06:17:05Z</time>
      </trkpt>
      <trkpt lat="42.4127580" lon="-2.4808530">
        <ele>510.2</ele>
        <time>2022-06-27T06:17:06Z</time>
      </trkpt>
      <trkpt lat="42.4127480" lon="-2.4809000">
        <ele>510.4</ele>
        <time>2022-06-27T06:17:07Z</time>
      </trkpt>
      <trkpt lat="42.4127380" lon="-2.4809500">
        <ele>510.6</ele>
        <time>2022-06-27T06:17:08Z</time>
      </trkpt>
      <trkpt lat="42.4127290" lon="-2.4809980">
        <ele>511.0</ele>
        <time>2022-06-27T06:17:09Z</time>
      </trkpt>
      <trkpt lat="42.4127160" lon="-2.4810480">
        <ele>511.0</ele>
        <time>2022-06-27T06:17:10Z</time>
      </trkpt>
      <trkpt lat="42.4127040" lon="-2.4810980">
        <ele>511.2</ele>
        <time>2022-06-27T06:17:11Z</time>
      </trkpt>
      <trkpt lat="42.4126940" lon="-2.4811470">
        <ele>511.2</ele>
        <time>2022-06-27T06:17:12Z</time>
      </trkpt>
      <trkpt lat="42.4126850" lon="-2.4811960">
        <ele>511.4</ele>
        <time>2022-06-27T06:17:13Z</time>
      </trkpt>
      <trkpt lat="42.4126740" lon="-2.4812480">
        <ele>511.6</ele>
        <time>2022-06-27T06:17:14Z</time>
      </trkpt>
      <trkpt lat="42.4126630" lon="-2.4812980">
        <ele>511.8</ele>
        <time>2022-06-27T06:17:15Z</time>
      </trkpt>
      <trkpt lat="42.4126530" lon="-2.4813450">
        <ele>511.8</ele>
        <time>2022-06-27T06:17:16Z</time>
      </trkpt>
      <trkpt lat="42.4126430" lon="-2.4813910">
        <ele>512.0</ele>
        <time>2022-06-27T06:17:17Z</time>
      </trkpt>
      <trkpt lat="42.4126320" lon="-2.4814390">
        <ele>512.0</ele>
        <time>2022-06-27T06:17:18Z</time>
      </trkpt>
      <trkpt lat="42.4126210" lon="-2.4814850">
        <ele>512.2</ele>
        <time>2022-06-27T06:17:19Z</time>
      </trkpt>
      <trkpt lat="42.4126090" lon="-2.4815330">
        <ele>512.4</ele>
        <time>2022-06-27T06:17:20Z</time>
      </trkpt>
      <trkpt lat="42.4125980" lon="-2.4815800">
        <ele>512.6</ele>
        <time>2022-06-27T06:17:21Z</time>
      </trkpt>
      <trkpt lat="42.4125870" lon="-2.4816260">
        <ele>512.6</ele>
        <time>2022-06-27T06:17:22Z</time>
      </trkpt>
      <trkpt lat="42.4125770" lon="-2.4816700">
        <ele>512.8</ele>
        <time>2022-06-27T06:17:23Z</time>
      </trkpt>
      <trkpt lat="42.4125680" lon="-2.4817150">
        <ele>512.8</ele>
        <time>2022-06-27T06:17:24Z</time>
      </trkpt>
      <trkpt lat="42.4125580" lon="-2.4817610">
        <ele>513.0</ele>
        <time>2022-06-27T06:17:25Z</time>
      </trkpt>
      <trkpt lat="42.4125490" lon="-2.4818050">
        <ele>513.2</ele>
        <time>2022-06-27T06:17:26Z</time>
      </trkpt>
      <trkpt lat="42.4125390" lon="-2.4818500">
        <ele>513.4</ele>
        <time>2022-06-27T06:17:27Z</time>
      </trkpt>
      <trkpt lat="42.4125300" lon="-2.4818940">
        <ele>513.8</ele>
        <time>2022-06-27T06:17:28Z</time>
      </trkpt>
      <trkpt lat="42.4125190" lon="-2.4819400">
        <ele>514.0</ele>
        <time>2022-06-27T06:17:29Z</time>
      </trkpt>
      <trkpt lat="42.4125080" lon="-2.4819840">
        <ele>514.2</ele>
        <time>2022-06-27T06:17:30Z</time>
      </trkpt>
      <trkpt lat="42.4124970" lon="-2.4820240">
        <ele>514.4</ele>
        <time>2022-06-27T06:17:31Z</time>
      </trkpt>
      <trkpt lat="42.4124870" lon="-2.4820620">
        <ele>514.6</ele>
        <time>2022-06-27T06:17:32Z</time>
      </trkpt>
      <trkpt lat="42.4124760" lon="-2.4821040">
        <ele>514.6</ele>
        <time>2022-06-27T06:17:33Z</time>
      </trkpt>
      <trkpt lat="42.4124640" lon="-2.4821460">
        <ele>514.8</ele>
        <time>2022-06-27T06:17:34Z</time>
      </trkpt>
      <trkpt lat="42.4124520" lon="-2.4821900">
        <ele>515.0</ele>
        <time>2022-06-27T06:17:35Z</time>
      </trkpt>
      <trkpt lat="42.4124390" lon="-2.4822330">
        <ele>515.2</ele>
        <time>2022-06-27T06:17:36Z</time>
      </trkpt>
      <trkpt lat="42.4124240" lon="-2.4822780">
        <ele>515.2</ele>
        <time>2022-06-27T06:17:37Z</time>
      </trkpt>
      <trkpt lat="42.4124090" lon="-2.4823230">
        <ele>515.4</ele>
        <time>2022-06-27T06:17:38Z</time>
      </trkpt>
      <trkpt lat="42.4123990" lon="-2.4823670">
        <ele>515.6</ele>
        <time>2022-06-27T06:17:39Z</time>
      </trkpt>
      <trkpt lat="42.4123880" lon="-2.4824120">
        <ele>515.8</ele>
        <time>2022-06-27T06:17:40Z</time>
      </trkpt>
      <trkpt lat="42.4123770" lon="-2.4824540">
        <ele>516.2</ele>
        <time>2022-06-27T06:17:41Z</time>
      </trkpt>
      <trkpt lat="42.4123660" lon="-2.4824960">
        <ele>516.4</ele>
        <time>2022-06-27T06:17:42Z</time>
      </trkpt>
      <trkpt lat="42.4123550" lon="-2.4825370">
        <ele>516.6</ele>
        <time>2022-06-27T06:17:43Z</time>
      </trkpt>
      <trkpt lat="42.4123430" lon="-2.4825790">
        <ele>516.8</ele>
        <time>2022-06-27T06:17:44Z</time>
      </trkpt>
      <trkpt lat="42.4123310" lon="-2.4826210">
        <ele>517.0</ele>
        <time>2022-06-27T06:17:45Z</time>
      </trkpt>
      <trkpt lat="42.4123190" lon="-2.4826650">
        <ele>517.2</ele>
        <time>2022-06-27T06:17:46Z</time>
      </trkpt>
      <trkpt lat="42.4123060" lon="-2.4827080">
        <ele>517.2</ele>
        <time>2022-06-27T06:17:47Z</time>
      </trkpt>
      <trkpt lat="42.4122940" lon="-2.4827500">
        <ele>517.4</ele>
        <time>2022-06-27T06:17:48Z</time>
      </trkpt>
      <trkpt lat="42.4122820" lon="-2.4827930">
        <ele>517.6</ele>
        <time>2022-06-27T06:17:49Z</time>
      </trkpt>
      <trkpt lat="42.4122720" lon="-2.4828330">
        <ele>517.6</ele>
        <time>2022-06-27T06:17:50Z</time>
      </trkpt>
      <trkpt lat="42.4122600" lon="-2.4828710">
        <ele>517.8</ele>
        <time>2022-06-27T06:17:51Z</time>
      </trkpt>
      <trkpt lat="42.4122490" lon="-2.4829090">
        <ele>517.8</ele>
        <time>2022-06-27T06:17:52Z</time>
      </trkpt>
      <trkpt lat="42.4122370" lon="-2.4829500">
        <ele>518.0</ele>
        <time>2022-06-27T06:17:53Z</time>
      </trkpt>
      <trkpt lat="42.4122240" lon="-2.4829920">
        <ele>518.0</ele>
        <time>2022-06-27T06:17:54Z</time>
      </trkpt>
      <trkpt lat="42.4122110" lon="-2.4830340">
        <ele>518.4</ele>
        <time>2022-06-27T06:17:55Z</time>
      </trkpt>
      <trkpt lat="42.4121990" lon="-2.4830750">
        <ele>518.6</ele>
        <time>2022-06-27T06:17:56Z</time>
      </trkpt>
      <trkpt lat="42.4121860" lon="-2.4831160">
        <ele>518.8</ele>
        <time>2022-06-27T06:17:57Z</time>
      </trkpt>
      <trkpt lat="42.4121750" lon="-2.4831560">
        <ele>519.0</ele>
        <time>2022-06-27T06:17:58Z</time>
      </trkpt>
      <trkpt lat="42.4121620" lon="-2.4831970">
        <ele>519.0</ele>
        <time>2022-06-27T06:17:59Z</time>
      </trkpt>
      <trkpt lat="42.4121490" lon="-2.4832370">
        <ele>519.2</ele>
        <time>2022-06-27T06:18:00Z</time>
      </trkpt>
      <trkpt lat="42.4121350" lon="-2.4832770">
        <ele>519.4</ele>
        <time>2022-06-27T06:18:01Z</time>
      </trkpt>
      <trkpt lat="42.4121210" lon="-2.4833130">
        <ele>519.6</ele>
        <time>2022-06-27T06:18:02Z</time>
      </trkpt>
      <trkpt lat="42.4121080" lon="-2.4833490">
        <ele>519.6</ele>
        <time>2022-06-27T06:18:03Z</time>
      </trkpt>
      <trkpt lat="42.4120960" lon="-2.4833800">
        <ele>520.0</ele>
        <time>2022-06-27T06:18:04Z</time>
      </trkpt>
      <trkpt lat="42.4120800" lon="-2.4834290">
        <ele>520.2</ele>
        <time>2022-06-27T06:18:05Z</time>
      </trkpt>
      <trkpt lat="42.4120690" lon="-2.4834680">
        <ele>520.2</ele>
        <time>2022-06-27T06:18:06Z</time>
      </trkpt>
      <trkpt lat="42.4120580" lon="-2.4835070">
        <ele>520.6</ele>
        <time>2022-06-27T06:18:07Z</time>
      </trkpt>
      <trkpt lat="42.4120460" lon="-2.4835450">
        <ele>520.6</ele>
        <time>2022-06-27T06:18:08Z</time>
      </trkpt>
      <trkpt lat="42.4120330" lon="-2.4835860">
        <ele>521.0</ele>
        <time>2022-06-27T06:18:09Z</time>
      </trkpt>
      <trkpt lat="42.4120210" lon="-2.4836200">
        <ele>521.0</ele>
        <time>2022-06-27T06:18:10Z</time>
      </trkpt>
      <trkpt lat="42.4120050" lon="-2.4836630">
        <ele>521.2</ele>
        <time>2022-06-27T06:18:11Z</time>
      </trkpt>
      <trkpt lat="42.4119900" lon="-2.4837010">
        <ele>521.4</ele>
        <time>2022-06-27T06:18:12Z</time>
      </trkpt>
      <trkpt lat="42.4119770" lon="-2.4837370">
        <ele>521.4</ele>
        <time>2022-06-27T06:18:13Z</time>
      </trkpt>
      <trkpt lat="42.4119640" lon="-2.4837750">
        <ele>521.6</ele>
        <time>2022-06-27T06:18:14Z</time>
      </trkpt>
      <trkpt lat="42.4119520" lon="-2.4838120">
        <ele>521.8</ele>
        <time>2022-06-27T06:18:15Z</time>
      </trkpt>
      <trkpt lat="42.4119380" lon="-2.4838520">
        <ele>522.0</ele>
        <time>2022-06-27T06:18:16Z</time>
      </trkpt>
      <trkpt lat="42.4119250" lon="-2.4838920">
        <ele>522.0</ele>
        <time>2022-06-27T06:18:17Z</time>
      </trkpt>
      <trkpt lat="42.4119100" lon="-2.4839320">
        <ele>522.4</ele>
        <time>2022-06-27T06:18:18Z</time>
      </trkpt>
      <trkpt lat="42.4118960" lon="-2.4839700">
        <ele>522.6</ele>
        <time>2022-06-27T06:18:19Z</time>
      </trkpt>
      <trkpt lat="42.4118810" lon="-2.4840050">
        <ele>522.6</ele>
        <time>2022-06-27T06:18:20Z</time>
      </trkpt>
      <trkpt lat="42.4118660" lon="-2.4840420">
        <ele>523.0</ele>
        <time>2022-06-27T06:18:21Z</time>
      </trkpt>
      <trkpt lat="42.4118480" lon="-2.4840860">
        <ele>523.2</ele>
        <time>2022-06-27T06:18:22Z</time>
      </trkpt>
      <trkpt lat="42.4118350" lon="-2.4841260">
        <ele>523.4</ele>
        <time>2022-06-27T06:18:23Z</time>
      </trkpt>
      <trkpt lat="42.4118200" lon="-2.4841650">
        <ele>523.6</ele>
        <time>2022-06-27T06:18:24Z</time>
      </trkpt>
      <trkpt lat="42.4118050" lon="-2.4842040">
        <ele>523.8</ele>
        <time>2022-06-27T06:18:25Z</time>
      </trkpt>
      <trkpt lat="42.4117920" lon="-2.4842410">
        <ele>524.0</ele>
        <time>2022-06-27T06:18:26Z</time>
      </trkpt>
      <trkpt lat="42.4117760" lon="-2.4842800">
        <ele>524.2</ele>
        <time>2022-06-27T06:18:27Z</time>
      </trkpt>
      <trkpt lat="42.4117600" lon="-2.4843220">
        <ele>524.2</ele>
        <time>2022-06-27T06:18:28Z</time>
      </trkpt>
      <trkpt lat="42.4117430" lon="-2.4843630">
        <ele>524.4</ele>
        <time>2022-06-27T06:18:29Z</time>
      </trkpt>
      <trkpt lat="42.4117280" lon="-2.4844040">
        <ele>524.4</ele>
        <time>2022-06-27T06:18:30Z</time>
      </trkpt>
      <trkpt lat="42.4117120" lon="-2.4844420">
        <ele>524.6</ele>
        <time>2022-06-27T06:18:31Z</time>
      </trkpt>
      <trkpt lat="42.4116950" lon="-2.4844800">
        <ele>524.8</ele>
        <time>2022-06-27T06:18:32Z</time>
      </trkpt>
      <trkpt lat="42.4116790" lon="-2.4845190">
        <ele>525.0</ele>
        <time>2022-06-27T06:18:33Z</time>
      </trkpt>
      <trkpt lat="42.4116610" lon="-2.4845590">
        <ele>525.0</ele>
        <time>2022-06-27T06:18:34Z</time>
      </trkpt>
      <trkpt lat="42.4116440" lon="-2.4846000">
        <ele>525.2</ele>
        <time>2022-06-27T06:18:35Z</time>
      </trkpt>
      <trkpt lat="42.4116270" lon="-2.4846400">
        <ele>525.2</ele>
        <time>2022-06-27T06:18:36Z</time>
      </trkpt>
      <trkpt lat="42.4116110" lon="-2.4846830">
        <ele>525.4</ele>
        <time>2022-06-27T06:18:37Z</time>
      </trkpt>
      <trkpt lat="42.4115930" lon="-2.4847270">
        <ele>525.6</ele>
        <time>2022-06-27T06:18:38Z</time>
      </trkpt>
      <trkpt lat="42.4115750" lon="-2.4847720">
        <ele>525.8</ele>
        <time>2022-06-27T06:18:39Z</time>
      </trkpt>
      <trkpt lat="42.4115580" lon="-2.4848190">
        <ele>525.8</ele>
        <time>2022-06-27T06:18:40Z</time>
      </trkpt>
      <trkpt lat="42.4115380" lon="-2.4848640">
        <ele>526.0</ele>
        <time>2022-06-27T06:18:41Z</time>
      </trkpt>
      <trkpt lat="42.4115170" lon="-2.4849080">
        <ele>526.2</ele>
        <time>2022-06-27T06:18:42Z</time>
      </trkpt>
      <trkpt lat="42.4114960" lon="-2.4849530">
        <ele>526.2</ele>
        <time>2022-06-27T06:18:43Z</time>
      </trkpt>
      <trkpt lat="42.4114730" lon="-2.4849980">
        <ele>526.2</ele>
        <time>2022-06-27T06:18:44Z</time>
      </trkpt>
      <trkpt lat="42.4114520" lon="-2.4850460">
        <ele>526.4</ele>
        <time>2022-06-27T06:18:45Z</time>
      </trkpt>
      <trkpt lat="42.4114330" lon="-2.4850910">
        <ele>526.6</ele>
        <time>2022-06-27T06:18:46Z</time>
      </trkpt>
      <trkpt lat="42.4114100" lon="-2.4851390">
        <ele>526.6</ele>
        <time>2022-06-27T06:18:47Z</time>
      </trkpt>
      <trkpt lat="42.4113870" lon="-2.4851870">
        <ele>526.8</ele>
        <time>2022-06-27T06:18:48Z</time>
      </trkpt>
      <trkpt lat="42.4113610" lon="-2.4852360">
        <ele>526.8</ele>
        <time>2022-06-27T06:18:49Z</time>
      </trkpt>
      <trkpt lat="42.4113350" lon="-2.4852870">
        <ele>526.8</ele>
        <time>2022-06-27T06:18:50Z</time>
      </trkpt>
      <trkpt lat="42.4113120" lon="-2.4853400">
        <ele>527.0</ele>
        <time>2022-06-27T06:18:51Z</time>
      </trkpt>
      <trkpt lat="42.4112890" lon="-2.4853960">
        <ele>527.0</ele>
        <time>2022-06-27T06:18:52Z</time>
      </trkpt>
      <trkpt lat="42.4112640" lon="-2.4854520">
        <ele>527.0</ele>
        <time>2022-06-27T06:18:53Z</time>
      </trkpt>
      <trkpt lat="42.4112370" lon="-2.4855070">
        <ele>527.0</ele>
        <time>2022-06-27T06:18:54Z</time>
      </trkpt>
      <trkpt lat="42.4112080" lon="-2.4855610">
        <ele>527.2</ele>
        <time>2022-06-27T06:18:55Z</time>
      </trkpt>
      <trkpt lat="42.4111780" lon="-2.4856170">
        <ele>527.2</ele>
        <time>2022-06-27T06:18:56Z</time>
      </trkpt>
      <trkpt lat="42.4111480" lon="-2.4856730">
        <ele>527.2</ele>
        <time>2022-06-27T06:18:57Z</time>
      </trkpt>
      <trkpt lat="42.4111170" lon="-2.4857290">
        <ele>527.2</ele>
        <time>2022-06-27T06:18:58Z</time>
      </trkpt>
      <trkpt lat="42.4110870" lon="-2.4857860">
        <ele>527.4</ele>
        <time>2022-06-27T06:18:59Z</time>
      </trkpt>
      <trkpt lat="42.4110540" lon="-2.4858430">
        <ele>527.4</ele>
        <time>2022-06-27T06:19:00Z</time>
      </trkpt>
      <trkpt lat="42.4110230" lon="-2.4859000">
        <ele>527.4</ele>
        <time>2022-06-27T06:19:01Z</time>
      </trkpt>
      <trkpt lat="42.4109910" lon="-2.4859600">
        <ele>527.4</ele>
        <time>2022-06-27T06:19:02Z</time>
      </trkpt>
      <trkpt lat="42.4109590" lon="-2.4860220">
        <ele>527.4</ele>
        <time>2022-06-27T06:19:03Z</time>
      </trkpt>
      <trkpt lat="42.4109230" lon="-2.4860860">
        <ele>527.4</ele>
        <time>2022-06-27T06:19:04Z</time>
      </trkpt>
      <trkpt lat="42.4108870" lon="-2.4861490">
        <ele>527.2</ele>
        <time>2022-06-27T06:19:05Z</time>
      </trkpt>
      <trkpt lat="42.4108500" lon="-2.4862170">
        <ele>527.2</ele>
        <time>2022-06-27T06:19:06Z</time>
      </trkpt>
      <trkpt lat="42.4108120" lon="-2.4862870">
        <ele>526.8</ele>
        <time>2022-06-27T06:19:07Z</time>
      </trkpt>
      <trkpt lat="42.4107730" lon="-2.4863580">
        <ele>526.8</ele>
        <time>2022-06-27T06:19:08Z</time>
      </trkpt>
      <trkpt lat="42.4107290" lon="-2.4864300">
        <ele>526.6</ele>
        <time>2022-06-27T06:19:09Z</time>
      </trkpt>
      <trkpt lat="42.4106850" lon="-2.4865030">
        <ele>526.6</ele>
        <time>2022-06-27T06:19:10Z</time>
      </trkpt>
      <trkpt lat="42.4106400" lon="-2.4865760">
        <ele>526.4</ele>
        <time>2022-06-27T06:19:11Z</time>
      </trkpt>
      <trkpt lat="42.4105910" lon="-2.4866490">
        <ele>526.0</ele>
        <time>2022-06-27T06:19:12Z</time>
      </trkpt>
      <trkpt lat="42.4105430" lon="-2.4867260">
        <ele>526.0</ele>
        <time>2022-06-27T06:19:13Z</time>
      </trkpt>
      <trkpt lat="42.4104960" lon="-2.4868030">
        <ele>525.6</ele>
        <time>2022-06-27T06:19:14Z</time>
      </trkpt>
      <trkpt lat="42.4104490" lon="-2.4868780">
        <ele>525.4</ele>
        <time>2022-06-27T06:19:15Z</time>
      </trkpt>
      <trkpt lat="42.4104040" lon="-2.4869550">
        <ele>525.2</ele>
        <time>2022-06-27T06:19:16Z</time>
      </trkpt>
      <trkpt lat="42.4103570" lon="-2.4870330">
        <ele>525.0</ele>
        <time>2022-06-27T06:19:17Z</time>
      </trkpt>
      <trkpt lat="42.4103070" lon="-2.4871100">
        <ele>524.8</ele>
        <time>2022-06-27T06:19:18Z</time>
      </trkpt>
      <trkpt lat="42.4102560" lon="-2.4871870">
        <ele>524.2</ele>
        <time>2022-06-27T06:19:19Z</time>
      </trkpt>
      <trkpt lat="42.4102060" lon="-2.4872650">
        <ele>523.8</ele>
        <time>2022-06-27T06:19:20Z</time>
      </trkpt>
      <trkpt lat="42.4101530" lon="-2.4873420">
        <ele>523.6</ele>
        <time>2022-06-27T06:19:21Z</time>
      </trkpt>
      <trkpt lat="42.4101000" lon="-2.4874200">
        <ele>523.4</ele>
        <time>2022-06-27T06:19:22Z</time>
      </trkpt>
      <trkpt lat="42.4100470" lon="-2.4874950">
        <ele>522.8</ele>
        <time>2022-06-27T06:19:23Z</time>
      </trkpt>
      <trkpt lat="42.4099940" lon="-2.4875720">
        <ele>522.4</ele>
        <time>2022-06-27T06:19:24Z</time>
      </trkpt>
      <trkpt lat="42.4099420" lon="-2.4876490">
        <ele>522.0</ele>
        <time>2022-06-27T06:19:25Z</time>
      </trkpt>
      <trkpt lat="42.4098880" lon="-2.4877280">
        <ele>521.6</ele>
        <time>2022-06-27T06:19:26Z</time>
      </trkpt>
      <trkpt lat="42.4098320" lon="-2.4878100">
        <ele>521.2</ele>
        <time>2022-06-27T06:19:27Z</time>
      </trkpt>
      <trkpt lat="42.4097740" lon="-2.4878930">
        <ele>520.8</ele>
        <time>2022-06-27T06:19:28Z</time>
      </trkpt>
      <trkpt lat="42.4097130" lon="-2.4879790">
        <ele>520.6</ele>
        <time>2022-06-27T06:19:29Z</time>
      </trkpt>
      <trkpt lat="42.4096510" lon="-2.4880640">
        <ele>520.2</ele>
        <time>2022-06-27T06:19:30Z</time>
      </trkpt>
      <trkpt lat="42.4095860" lon="-2.4881500">
        <ele>520.0</ele>
        <time>2022-06-27T06:19:31Z</time>
      </trkpt>
      <trkpt lat="42.4095160" lon="-2.4882380">
        <ele>519.8</ele>
        <time>2022-06-27T06:19:32Z</time>
      </trkpt>
      <trkpt lat="42.4094450" lon="-2.4883280">
        <ele>519.4</ele>
        <time>2022-06-27T06:19:33Z</time>
      </trkpt>
      <trkpt lat="42.4093710" lon="-2.4884180">
        <ele>519.0</ele>
        <time>2022-06-27T06:19:34Z</time>
      </trkpt>
      <trkpt lat="42.4092980" lon="-2.4885070">
        <ele>518.2</ele>
        <time>2022-06-27T06:19:35Z</time>
      </trkpt>
      <trkpt lat="42.4092230" lon="-2.4885970">
        <ele>518.0</ele>
        <time>2022-06-27T06:19:36Z</time>
      </trkpt>
      <trkpt lat="42.4091470" lon="-2.4886880">
        <ele>517.4</ele>
        <time>2022-06-27T06:19:37Z</time>
      </trkpt>
      <trkpt lat="42.4090680" lon="-2.4887790">
        <ele>517.0</ele>
        <time>2022-06-27T06:19:38Z</time>
      </trkpt>
      <trkpt lat="42.4089910" lon="-2.4888680">
        <ele>516.2</ele>
        <time>2022-06-27T06:19:39Z</time>
      </trkpt>
      <trkpt lat="42.4089120" lon="-2.4889560">
        <ele>515.8</ele>
        <time>2022-06-27T06:19:40Z</time>
      </trkpt>
      <trkpt lat="42.4088310" lon="-2.4890450">
        <ele>515.6</ele>
        <time>2022-06-27T06:19:41Z</time>
      </trkpt>
      <trkpt lat="42.4087510" lon="-2.4891350">
        <ele>515.2</ele>
        <time>2022-06-27T06:19:42Z</time>
      </trkpt>
      <trkpt lat="42.4086720" lon="-2.4892240">
        <ele>514.8</ele>
        <time>2022-06-27T06:19:43Z</time>
      </trkpt>
      <trkpt lat="42.4085940" lon="-2.4893100">
        <ele>514.2</ele>
        <time>2022-06-27T06:19:44Z</time>
      </trkpt>
      <trkpt lat="42.4085150" lon="-2.4893940">
        <ele>513.8</ele>
        <time>2022-06-27T06:19:45Z</time>
      </trkpt>
      <trkpt lat="42.4084390" lon="-2.4894780">
        <ele>513.2</ele>
        <time>2022-06-27T06:19:46Z</time>
      </trkpt>
      <trkpt lat="42.4083650" lon="-2.4895610">
        <ele>512.8</ele>
        <time>2022-06-27T06:19:47Z</time>
      </trkpt>
      <trkpt lat="42.4082940" lon="-2.4896420">
        <ele>512.6</ele>
        <time>2022-06-27T06:19:48Z</time>
      </trkpt>
      <trkpt lat="42.4082210" lon="-2.4897230">
        <ele>512.4</ele>
        <time>2022-06-27T06:19:49Z</time>
      </trkpt>
      <trkpt lat="42.4081480" lon="-2.4898010">
        <ele>512.2</ele>
        <time>2022-06-27T06:19:50Z</time>
      </trkpt>
      <trkpt lat="42.4080760" lon="-2.4898780">
        <ele>511.8</ele>
        <time>2022-06-27T06:19:51Z</time>
      </trkpt>
      <trkpt lat="42.4080190" lon="-2.4899400">
        <ele>511.6</ele>
        <time>2022-06-27T06:19:52Z</time>
      </trkpt>
      <trkpt lat="42.4079460" lon="-2.4900160">
        <ele>511.4</ele>
        <time>2022-06-27T06:19:53Z</time>
      </trkpt>
      <trkpt lat="42.4078610" lon="-2.4901070">
        <ele>511.0</ele>
        <time>2022-06-27T06:19:54Z</time>
      </trkpt>
      <trkpt lat="42.4077900" lon="-2.4901820">
        <ele>510.8</ele>
        <time>2022-06-27T06:19:55Z</time>
      </trkpt>
      <trkpt lat="42.4077180" lon="-2.4902580">
        <ele>510.4</ele>
        <time>2022-06-27T06:19:56Z</time>
      </trkpt>
      <trkpt lat="42.4076630" lon="-2.4903190">
        <ele>510.2</ele>
        <time>2022-06-27T06:19:57Z</time>
      </trkpt>
      <trkpt lat="42.4075920" lon="-2.4903960">
        <ele>510.0</ele>
        <time>2022-06-27T06:19:58Z</time>
      </trkpt>
      <trkpt lat="42.4075100" lon="-2.4904850">
        <ele>509.8</ele>
        <time>2022-06-27T06:19:59Z</time>
      </trkpt>
      <trkpt lat="42.4074450" lon="-2.4905580">
        <ele>509.4</ele>
        <time>2022-06-27T06:20:00Z</time>
      </trkpt>
      <trkpt lat="42.4073840" lon="-2.4906310">
        <ele>509.2</ele>
        <time>2022-06-27T06:20:01Z</time>
      </trkpt>
      <trkpt lat="42.4073360" lon="-2.4906900">
        <ele>509.2</ele>
        <time>2022-06-27T06:20:02Z</time>
      </trkpt>
      <trkpt lat="42.4072750" lon="-2.4907650">
        <ele>509.0</ele>
        <time>2022-06-27T06:20:03Z</time>
      </trkpt>
      <trkpt lat="42.4072020" lon="-2.4908570">
        <ele>508.8</ele>
        <time>2022-06-27T06:20:04Z</time>
      </trkpt>
      <trkpt lat="42.4071410" lon="-2.4909360">
        <ele>508.6</ele>
        <time>2022-06-27T06:20:05Z</time>
      </trkpt>
      <trkpt lat="42.4070820" lon="-2.4910170">
        <ele>508.6</ele>
        <time>2022-06-27T06:20:06Z</time>
      </trkpt>
      <trkpt lat="42.4070350" lon="-2.4910810">
        <ele>508.2</ele>
        <time>2022-06-27T06:20:07Z</time>
      </trkpt>
      <trkpt lat="42.4069730" lon="-2.4911660">
        <ele>508.0</ele>
        <time>2022-06-27T06:20:08Z</time>
      </trkpt>
      <trkpt lat="42.4068990" lon="-2.4912720">
        <ele>507.8</ele>
        <time>2022-06-27T06:20:09Z</time>
      </trkpt>
      <trkpt lat="42.4068400" lon="-2.4913620">
        <ele>507.6</ele>
        <time>2022-06-27T06:20:10Z</time>
      </trkpt>
      <trkpt lat="42.4067810" lon="-2.4914560">
        <ele>507.4</ele>
        <time>2022-06-27T06:20:11Z</time>
      </trkpt>
      <trkpt lat="42.4067230" lon="-2.4915530">
        <ele>507.0</ele>
        <time>2022-06-27T06:20:12Z</time>
      </trkpt>
      <trkpt lat="42.4066640" lon="-2.4916520">
        <ele>506.8</ele>
        <time>2022-06-27T06:20:13Z</time>
      </trkpt>
      <trkpt lat="42.4066050" lon="-2.4917550">
        <ele>506.4</ele>
        <time>2022-06-27T06:20:14Z</time>
      </trkpt>
      <trkpt lat="42.4065480" lon="-2.4918620">
        <ele>505.8</ele>
        <time>2022-06-27T06:20:15Z</time>
      </trkpt>
      <trkpt lat="42.4064910" lon="-2.4919730">
        <ele>505.2</ele>
        <time>2022-06-27T06:20:16Z</time>
      </trkpt>
      <trkpt lat="42.4064480" lon="-2.4920620">
        <ele>504.6</ele>
        <time>2022-06-27T06:20:17Z</time>
      </trkpt>
      <trkpt lat="42.4063810" lon="-2.4921990">
        <ele>504.2</ele>
        <time>2022-06-27T06:20:18Z</time>
      </trkpt>
      <trkpt lat="42.4063250" lon="-2.4923160">
        <ele>503.6</ele>
        <time>2022-06-27T06:20:19Z</time>
      </trkpt>
      <trkpt lat="42.4062680" lon="-2.4924360">
        <ele>503.2</ele>
        <time>2022-06-27T06:20:20Z</time>
      </trkpt>
      <trkpt lat="42.4062210" lon="-2.4925320">
        <ele>502.4</ele>
        <time>2022-06-27T06:20:21Z</time>
      </trkpt>
      <trkpt lat="42.4061600" lon="-2.4926560">
        <ele>502.2</ele>
        <time>2022-06-27T06:20:22Z</time>
      </trkpt>
      <trkpt lat="42.4060870" lon="-2.4928030">
        <ele>501.8</ele>
        <time>2022-06-27T06:20:23Z</time>
      </trkpt>
      <trkpt lat="42.4060260" lon="-2.4929290">
        <ele>500.6</ele>
        <time>2022-06-27T06:20:24Z</time>
      </trkpt>
      <trkpt lat="42.4059630" lon="-2.4930550">
        <ele>500.4</ele>
        <time>2022-06-27T06:20:25Z</time>
      </trkpt>
      <trkpt lat="42.4059140" lon="-2.4931550">
        <ele>499.4</ele>
        <time>2022-06-27T06:20:26Z</time>
      </trkpt>
      <trkpt lat="42.4058550" lon="-2.4932780">
        <ele>499.0</ele>
        <time>2022-06-27T06:20:27Z</time>
      </trkpt>
      <trkpt lat="42.4057840" lon="-2.4934230">
        <ele>498.2</ele>
        <time>2022-06-27T06:20:28Z</time>
      </trkpt>
      <trkpt lat="42.4057290" lon="-2.4935430">
        <ele>497.8</ele>
        <time>2022-06-27T06:20:29Z</time>
      </trkpt>
      <trkpt lat="42.4056750" lon="-2.4936610">
        <ele>497.2</ele>
        <time>2022-06-27T06:20:30Z</time>
      </trkpt>
      <trkpt lat="42.4056310" lon="-2.4937530">
        <ele>496.0</ele>
        <time>2022-06-27T06:20:31Z</time>
      </trkpt>
      <trkpt lat="42.4055640" lon="-2.4938880">
        <ele>495.6</ele>
        <time>2022-06-27T06:20:32Z</time>
      </trkpt>
      <trkpt lat="42.4055110" lon="-2.4939960">
        <ele>495.0</ele>
        <time>2022-06-27T06:20:33Z</time>
      </trkpt>
      <trkpt lat="42.4054620" lon="-2.4941050">
        <ele>494.8</ele>
        <time>2022-06-27T06:20:34Z</time>
      </trkpt>
      <trkpt lat="42.4054120" lon="-2.4942100">
        <ele>494.4</ele>
        <time>2022-06-27T06:20:35Z</time>
      </trkpt>
      <trkpt lat="42.4053630" lon="-2.4943140">
        <ele>494.2</ele>
        <time>2022-06-27T06:20:36Z</time>
      </trkpt>
      <trkpt lat="42.4053130" lon="-2.4944170">
        <ele>494.0</ele>
        <time>2022-06-27T06:20:37Z</time>
      </trkpt>
      <trkpt lat="42.4052650" lon="-2.4945180">
        <ele>494.0</ele>
        <time>2022-06-27T06:20:38Z</time>
      </trkpt>
      <trkpt lat="42.4052160" lon="-2.4946170">
        <ele>493.8</ele>
        <time>2022-06-27T06:20:39Z</time>
      </trkpt>
      <trkpt lat="42.4051690" lon="-2.4947170">
        <ele>493.8</ele>
        <time>2022-06-27T06:20:40Z</time>
      </trkpt>
      <trkpt lat="42.4051220" lon="-2.4948170">
        <ele>493.8</ele>
        <time>2022-06-27T06:20:41Z</time>
      </trkpt>
      <trkpt lat="42.4050850" lon="-2.4948950">
        <ele>493.6</ele>
        <time>2022-06-27T06:20:42Z</time>
      </trkpt>
      <trkpt lat="42.4050300" lon="-2.4950090">
        <ele>493.4</ele>
        <time>2022-06-27T06:20:43Z</time>
      </trkpt>
      <trkpt lat="42.4049850" lon="-2.4951020">
        <ele>493.4</ele>
        <time>2022-06-27T06:20:44Z</time>
      </trkpt>
      <trkpt lat="42.4049490" lon="-2.4951760">
        <ele>493.4</ele>
        <time>2022-06-27T06:20:45Z</time>
      </trkpt>
      <trkpt lat="42.4049040" lon="-2.4952670">
        <ele>493.2</ele>
        <time>2022-06-27T06:20:46Z</time>
      </trkpt>
      <trkpt lat="42.4048520" lon="-2.4953750">
        <ele>493.2</ele>
        <time>2022-06-27T06:20:47Z</time>
      </trkpt>
      <trkpt lat="42.4048080" lon="-2.4954640">
        <ele>493.2</ele>
        <time>2022-06-27T06:20:48Z</time>
      </trkpt>
      <trkpt lat="42.4047630" lon="-2.4955520">
        <ele>493.2</ele>
        <time>2022-06-27T06:20:49Z</time>
      </trkpt>
      <trkpt lat="42.4047270" lon="-2.4956230">
        <ele>493.2</ele>
        <time>2022-06-27T06:20:50Z</time>
      </trkpt>
      <trkpt lat="42.4046820" lon="-2.4957110">
        <ele>493.2</ele>
        <time>2022-06-27T06:20:51Z</time>
      </trkpt>
      <trkpt lat="42.4046280" lon="-2.4958140">
        <ele>493.2</ele>
        <time>2022-06-27T06:20:52Z</time>
      </trkpt>
      <trkpt lat="42.4045820" lon="-2.4958990">
        <ele>493.2</ele>
        <time>2022-06-27T06:20:53Z</time>
      </trkpt>
      <trkpt lat="42.4045340" lon="-2.4959800">
        <ele>493.0</ele>
        <time>2022-06-27T06:20:54Z</time>
      </trkpt>
      <trkpt lat="42.4044850" lon="-2.4960580">
        <ele>493.0</ele>
        <time>2022-06-27T06:20:55Z</time>
      </trkpt>
      <trkpt lat="42.4044450" lon="-2.4961210">
        <ele>493.0</ele>
        <time>2022-06-27T06:20:56Z</time>
      </trkpt>
      <trkpt lat="42.4043870" lon="-2.4962140">
        <ele>492.8</ele>
        <time>2022-06-27T06:20:57Z</time>
      </trkpt>
      <trkpt lat="42.4043380" lon="-2.4962900">
        <ele>492.8</ele>
        <time>2022-06-27T06:20:58Z</time>
      </trkpt>
      <trkpt lat="42.4042880" lon="-2.4963620">
        <ele>492.8</ele>
        <time>2022-06-27T06:20:59Z</time>
      </trkpt>
      <trkpt lat="42.4042480" lon="-2.4964190">
        <ele>492.8</ele>
        <time>2022-06-27T06:21:00Z</time>
      </trkpt>
      <trkpt lat="42.4041980" lon="-2.4964870">
        <ele>492.8</ele>
        <time>2022-06-27T06:21:01Z</time>
      </trkpt>
      <trkpt lat="42.4041390" lon="-2.4965650">
        <ele>492.8</ele>
        <time>2022-06-27T06:21:02Z</time>
      </trkpt>
      <trkpt lat="42.4040880" lon="-2.4966260">
        <ele>492.8</ele>
        <time>2022-06-27T06:21:03Z</time>
      </trkpt>
      <trkpt lat="42.4040370" lon="-2.4966850">
        <ele>492.8</ele>
        <time>2022-06-27T06:21:04Z</time>
      </trkpt>
      <trkpt lat="42.4039960" lon="-2.4967310">
        <ele>492.8</ele>
        <time>2022-06-27T06:21:05Z</time>
      </trkpt>
      <trkpt lat="42.4039360" lon="-2.4968000">
        <ele>492.8</ele>
        <time>2022-06-27T06:21:06Z</time>
      </trkpt>
      <trkpt lat="42.4038870" lon="-2.4968530">
        <ele>493.0</ele>
        <time>2022-06-27T06:21:07Z</time>
      </trkpt>
      <trkpt lat="42.4038390" lon="-2.4969060">
        <ele>493.0</ele>
        <time>2022-06-27T06:21:08Z</time>
      </trkpt>
      <trkpt lat="42.4038010" lon="-2.4969450">
        <ele>493.2</ele>
        <time>2022-06-27T06:21:09Z</time>
      </trkpt>
      <trkpt lat="42.4037460" lon="-2.4970010">
        <ele>493.4</ele>
        <time>2022-06-27T06:21:10Z</time>
      </trkpt>
      <trkpt lat="42.4037010" lon="-2.4970450">
        <ele>493.6</ele>
        <time>2022-06-27T06:21:11Z</time>
      </trkpt>
      <trkpt lat="42.4036570" lon="-2.4970880">
        <ele>493.8</ele>
        <time>2022-06-27T06:21:12Z</time>
      </trkpt>
      <trkpt lat="42.4036140" lon="-2.4971300">
        <ele>493.8</ele>
        <time>2022-06-27T06:21:13Z</time>
      </trkpt>
      <trkpt lat="42.4035710" lon="-2.4971670">
        <ele>494.0</ele>
        <time>2022-06-27T06:21:14Z</time>
      </trkpt>
      <trkpt lat="42.4035290" lon="-2.4972040">
        <ele>494.2</ele>
        <time>2022-06-27T06:21:15Z</time>
      </trkpt>
      <trkpt lat="42.4034870" lon="-2.4972390">
        <ele>494.6</ele>
        <time>2022-06-27T06:21:16Z</time>
      </trkpt>
      <trkpt lat="42.4034450" lon="-2.4972730">
        <ele>494.8</ele>
        <time>2022-06-27T06:21:17Z</time>
      </trkpt>
      <trkpt lat="42.4034020" lon="-2.4973060">
        <ele>494.8</ele>
        <time>2022-06-27T06:21:18Z</time>
      </trkpt>
      <trkpt lat="42.4033580" lon="-2.4973390">
        <ele>495.2</ele>
        <time>2022-06-27T06:21:19Z</time>
      </trkpt>
      <trkpt lat="42.4033240" lon="-2.4973640">
        <ele>495.4</ele>
        <time>2022-06-27T06:21:20Z</time>
      </trkpt>
      <trkpt lat="42.4032750" lon="-2.4974020">
        <ele>495.6</ele>
        <time>2022-06-27T06:21:21Z</time>
      </trkpt>
      <trkpt lat="42.4032360" lon="-2.4974330">
        <ele>495.8</ele>
        <time>2022-06-27T06:21:22Z</time>
      </trkpt>
      <trkpt lat="42.4031950" lon="-2.4974610">
        <ele>496.2</ele>
        <time>2022-06-27T06:21:23Z</time>
      </trkpt>
      <trkpt lat="42.4031560" lon="-2.4974870">
        <ele>496.6</ele>
        <time>2022-06-27T06:21:24Z</time>
      </trkpt>
      <trkpt lat="42.4031160" lon="-2.4975140">
        <ele>496.6</ele>
        <time>2022-06-27T06:21:25Z</time>
      </trkpt>
      <trkpt lat="42.4030750" lon="-2.4975410">
        <ele>497.0</ele>
        <time>2022-06-27T06:21:26Z</time>
      </trkpt>
      <trkpt lat="42.4030350" lon="-2.4975680">
        <ele>497.2</ele>
        <time>2022-06-27T06:21:27Z</time>
      </trkpt>
      <trkpt lat="42.4030040" lon="-2.4975890">
        <ele>497.8</ele>
        <time>2022-06-27T06:21:28Z</time>
      </trkpt>
      <trkpt lat="42.4029640" lon="-2.4976140">
        <ele>498.0</ele>
        <time>2022-06-27T06:21:29Z</time>
      </trkpt>
      <trkpt lat="42.4029160" lon="-2.4976430">
        <ele>498.2</ele>
        <time>2022-06-27T06:21:30Z</time>
      </trkpt>
      <trkpt lat="42.4028770" lon="-2.4976640">
        <ele>498.4</ele>
        <time>2022-06-27T06:21:31Z</time>
      </trkpt>
      <trkpt lat="42.4028390" lon="-2.4976880">
        <ele>498.6</ele>
        <time>2022-06-27T06:21:32Z</time>
      </trkpt>
      <trkpt lat="42.4028000" lon="-2.4977130">
        <ele>498.8</ele>
        <time>2022-06-27T06:21:33Z</time>
      </trkpt>
      <trkpt lat="42.4027680" lon="-2.4977320">
        <ele>498.8</ele>
        <time>2022-06-27T06:21:34Z</time>
      </trkpt>
      <trkpt lat="42.4027210" lon="-2.4977600">
        <ele>499.0</ele>
        <time>2022-06-27T06:21:35Z</time>
      </trkpt>
      <trkpt lat="42.4026820" lon="-2.4977830">
        <ele>499.0</ele>
        <time>2022-06-27T06:21:36Z</time>
      </trkpt>
      <trkpt lat="42.4026400" lon="-2.4978050">
        <ele>499.2</ele>
        <time>2022-06-27T06:21:37Z</time>
      </trkpt>
      <trkpt lat="42.4025980" lon="-2.4978260">
        <ele>499.4</ele>
        <time>2022-06-27T06:21:38Z</time>
      </trkpt>
      <trkpt lat="42.4025560" lon="-2.4978490">
        <ele>499.4</ele>
        <time>2022-06-27T06:21:39Z</time>
      </trkpt>
      <trkpt lat="42.4025170" lon="-2.4978720">
        <ele>499.6</ele>
        <time>2022-06-27T06:21:40Z</time>
      </trkpt>
      <trkpt lat="42.4024770" lon="-2.4978930">
        <ele>499.6</ele>
        <time>2022-06-27T06:21:41Z</time>
      </trkpt>
      <trkpt lat="42.4024360" lon="-2.4979130">
        <ele>499.8</ele>
        <time>2022-06-27T06:21:42Z</time>
      </trkpt>
      <trkpt lat="42.4023940" lon="-2.4979370">
        <ele>499.8</ele>
        <time>2022-06-27T06:21:43Z</time>
      </trkpt>
      <trkpt lat="42.4023530" lon="-2.4979590">
        <ele>500.2</ele>
        <time>2022-06-27T06:21:44Z</time>
      </trkpt>
      <trkpt lat="42.4023090" lon="-2.4979800">
        <ele>500.4</ele>
        <time>2022-06-27T06:21:45Z</time>
      </trkpt>
      <trkpt lat="42.4022660" lon="-2.4980010">
        <ele>500.4</ele>
        <time>2022-06-27T06:21:46Z</time>
      </trkpt>
      <trkpt lat="42.4022240" lon="-2.4980240">
        <ele>500.6</ele>
        <time>2022-06-27T06:21:47Z</time>
      </trkpt>
      <trkpt lat="42.4021810" lon="-2.4980480">
        <ele>500.8</ele>
        <time>2022-06-27T06:21:48Z</time>
      </trkpt>
      <trkpt lat="42.4021390" lon="-2.4980710">
        <ele>501.0</ele>
        <time>2022-06-27T06:21:49Z</time>
      </trkpt>
      <trkpt lat="42.4020970" lon="-2.4980920">
        <ele>501.0</ele>
        <time>2022-06-27T06:21:50Z</time>
      </trkpt>
      <trkpt lat="42.4020540" lon="-2.4981140">
        <ele>501.2</ele>
        <time>2022-06-27T06:21:51Z</time>
      </trkpt>
      <trkpt lat="42.4020120" lon="-2.4981370">
        <ele>501.2</ele>
        <time>2022-06-27T06:21:52Z</time>
      </trkpt>
      <trkpt lat="42.4019700" lon="-2.4981600">
        <ele>501.4</ele>
        <time>2022-06-27T06:21:53Z</time>
      </trkpt>
      <trkpt lat="42.4019280" lon="-2.4981820">
        <ele>501.6</ele>
        <time>2022-06-27T06:21:54Z</time>
      </trkpt>
      <trkpt lat="42.4018850" lon="-2.4982050">
        <ele>501.8</ele>
        <time>2022-06-27T06:21:55Z</time>
      </trkpt>
      <trkpt lat="42.4018430" lon="-2.4982280">
        <ele>501.8</ele>
        <time>2022-06-27T06:21:56Z</time>
      </trkpt>
      <trkpt lat="42.4018030" lon="-2.4982500">
        <ele>501.8</ele>
        <time>2022-06-27T06:21:57Z</time>
      </trkpt>
      <trkpt lat="42.4017630" lon="-2.4982730">
        <ele>502.0</ele>
        <time>2022-06-27T06:21:58Z</time>
      </trkpt>
      <trkpt lat="42.4017230" lon="-2.4982950">
        <ele>502.2</ele>
        <time>2022-06-27T06:21:59Z</time>
      </trkpt>
      <trkpt lat="42.4016840" lon="-2.4983170">
        <ele>502.4</ele>
        <time>2022-06-27T06:22:00Z</time>
      </trkpt>
      <trkpt lat="42.4016430" lon="-2.4983390">
        <ele>502.6</ele>
        <time>2022-06-27T06:22:01Z</time>
      </trkpt>
      <trkpt lat="42.4016020" lon="-2.4983610">
        <ele>502.8</ele>
        <time>2022-06-27T06:22:02Z</time>
      </trkpt>
      <trkpt lat="42.4015610" lon="-2.4983830">
        <ele>502.8</ele>
        <time>2022-06-27T06:22:03Z</time>
      </trkpt>
      <trkpt lat="42.4015210" lon="-2.4984060">
        <ele>503.0</ele>
        <time>2022-06-27T06:22:04Z</time>
      </trkpt>
      <trkpt lat="42.4014810" lon="-2.4984270">
        <ele>503.0</ele>
        <time>2022-06-27T06:22:05Z</time>
      </trkpt>
      <trkpt lat="42.4014410" lon="-2.4984480">
        <ele>503.2</ele>
        <time>2022-06-27T06:22:06Z</time>
      </trkpt>
      <trkpt lat="42.4014010" lon="-2.4984690">
        <ele>503.4</ele>
        <time>2022-06-27T06:22:07Z</time>
      </trkpt>
      <trkpt lat="42.4013620" lon="-2.4984890">
        <ele>503.6</ele>
        <time>2022-06-27T06:22:08Z</time>
      </trkpt>
      <trkpt lat="42.4013230" lon="-2.4985090">
        <ele>503.6</ele>
        <time>2022-06-27T06:22:09Z</time>
      </trkpt>
      <trkpt lat="42.4012840" lon="-2.4985310">
        <ele>503.8</ele>
        <time>2022-06-27T06:22:10Z</time>
      </trkpt>
      <trkpt lat="42.4012450" lon="-2.4985530">
        <ele>503.8</ele>
        <time>2022-06-27T06:22:11Z</time>
      </trkpt>
      <trkpt lat="42.4012070" lon="-2.4985750">
        <ele>504.0</ele>
        <time>2022-06-27T06:22:12Z</time>
      </trkpt>
      <trkpt lat="42.4011670" lon="-2.4985970">
        <ele>504.0</ele>
        <time>2022-06-27T06:22:13Z</time>
      </trkpt>
      <trkpt lat="42.4011270" lon="-2.4986180">
        <ele>504.2</ele>
        <time>2022-06-27T06:22:14Z</time>
      </trkpt>
      <trkpt lat="42.4010890" lon="-2.4986380">
        <ele>504.4</ele>
        <time>2022-06-27T06:22:15Z</time>
      </trkpt>
      <trkpt lat="42.4010490" lon="-2.4986580">
        <ele>504.4</ele>
        <time>2022-06-27T06:22:16Z</time>
      </trkpt>
      <trkpt lat="42.4010110" lon="-2.4986780">
        <ele>504.8</ele>
        <time>2022-06-27T06:22:17Z</time>
      </trkpt>
      <trkpt lat="42.4009750" lon="-2.4986980">
        <ele>505.0</ele>
        <time>2022-06-27T06:22:18Z</time>
      </trkpt>
      <trkpt lat="42.4009380" lon="-2.4987170">
        <ele>505.4</ele>
        <time>2022-06-27T06:22:19Z</time>
      </trkpt>
      <trkpt lat="42.4008990" lon="-2.4987340">
        <ele>505.4</ele>
        <time>2022-06-27T06:22:20Z</time>
      </trkpt>
      <trkpt lat="42.4008610" lon="-2.4987540">
        <ele>505.6</ele>
        <time>2022-06-27T06:22:21Z</time>
      </trkpt>
      <trkpt lat="42.4008230" lon="-2.4987730">
        <ele>505.6</ele>
        <time>2022-06-27T06:22:22Z</time>
      </trkpt>
      <trkpt lat="42.4007850" lon="-2.4987950">
        <ele>505.8</ele>
        <time>2022-06-27T06:22:23Z</time>
      </trkpt>
      <trkpt lat="42.4007480" lon="-2.4988180">
        <ele>505.8</ele>
        <time>2022-06-27T06:22:24Z</time>
      </trkpt>
      <trkpt lat="42.4007120" lon="-2.4988410">
        <ele>505.8</ele>
        <time>2022-06-27T06:22:25Z</time>
      </trkpt>
      <trkpt lat="42.4006740" lon="-2.4988620">
        <ele>506.2</ele>
        <time>2022-06-27T06:22:26Z</time>
      </trkpt>
      <trkpt lat="42.4006380" lon="-2.4988840">
        <ele>506.2</ele>
        <time>2022-06-27T06:22:27Z</time>
      </trkpt>
      <trkpt lat="42.4006000" lon="-2.4989050">
        <ele>506.4</ele>
        <time>2022-06-27T06:22:28Z</time>
      </trkpt>
      <trkpt lat="42.4005640" lon="-2.4989240">
        <ele>506.6</ele>
        <time>2022-06-27T06:22:29Z</time>
      </trkpt>
      <trkpt lat="42.4005290" lon="-2.4989420">
        <ele>507.0</ele>
        <time>2022-06-27T06:22:30Z</time>
      </trkpt>
      <trkpt lat="42.4004940" lon="-2.4989610">
        <ele>507.4</ele>
        <time>2022-06-27T06:22:31Z</time>
      </trkpt>
      <trkpt lat="42.4004570" lon="-2.4989810">
        <ele>507.6</ele>
        <time>2022-06-27T06:22:32Z</time>
      </trkpt>
      <trkpt lat="42.4004210" lon="-2.4990000">
        <ele>507.8</ele>
        <time>2022-06-27T06:22:33Z</time>
      </trkpt>
      <trkpt lat="42.4003860" lon="-2.4990180">
        <ele>508.0</ele>
        <time>2022-06-27T06:22:34Z</time>
      </trkpt>
      <trkpt lat="42.4003500" lon="-2.4990360">
        <ele>508.2</ele>
        <time>2022-06-27T06:22:35Z</time>
      </trkpt>
      <trkpt lat="42.4003170" lon="-2.4990550">
        <ele>508.2</ele>
        <time>2022-06-27T06:22:36Z</time>
      </trkpt>
      <trkpt lat="42.4002820" lon="-2.4990740">
        <ele>508.4</ele>
        <time>2022-06-27T06:22:37Z</time>
      </trkpt>
      <trkpt lat="42.4002470" lon="-2.4990920">
        <ele>508.6</ele>
        <time>2022-06-27T06:22:38Z</time>
      </trkpt>
      <trkpt lat="42.4002130" lon="-2.4991110">
        <ele>508.6</ele>
        <time>2022-06-27T06:22:39Z</time>
      </trkpt>
      <trkpt lat="42.4001780" lon="-2.4991290">
        <ele>508.8</ele>
        <time>2022-06-27T06:22:40Z</time>
      </trkpt>
      <trkpt lat="42.4001430" lon="-2.4991470">
        <ele>509.0</ele>
        <time>2022-06-27T06:22:41Z</time>
      </trkpt>
      <trkpt lat="42.4001080" lon="-2.4991650">
        <ele>509.0</ele>
        <time>2022-06-27T06:22:42Z</time>
      </trkpt>
      <trkpt lat="42.4000730" lon="-2.4991840">
        <ele>509.2</ele>
        <time>2022-06-27T06:22:43Z</time>
      </trkpt>
      <trkpt lat="42.4000370" lon="-2.4992020">
        <ele>509.4</ele>
        <time>2022-06-27T06:22:44Z</time>
      </trkpt>
      <trkpt lat="42.4000030" lon="-2.4992200">
        <ele>509.6</ele>
        <time>2022-06-27T06:22:45Z</time>
      </trkpt>
      <trkpt lat="42.3999670" lon="-2.4992390">
        <ele>509.8</ele>
        <time>2022-06-27T06:22:46Z</time>
      </trkpt>
      <trkpt lat="42.3999310" lon="-2.4992580">
        <ele>510.0</ele>
        <time>2022-06-27T06:22:47Z</time>
      </trkpt>
      <trkpt lat="42.3998970" lon="-2.4992780">
        <ele>510.2</ele>
        <time>2022-06-27T06:22:48Z</time>
      </trkpt>
      <trkpt lat="42.3998620" lon="-2.4992970">
        <ele>510.2</ele>
        <time>2022-06-27T06:22:49Z</time>
      </trkpt>
      <trkpt lat="42.3998270" lon="-2.4993150">
        <ele>510.4</ele>
        <time>2022-06-27T06:22:50Z</time>
      </trkpt>
      <trkpt lat="42.3997920" lon="-2.4993330">
        <ele>510.4</ele>
        <time>2022-06-27T06:22:51Z</time>
      </trkpt>
      <trkpt lat="42.3997570" lon="-2.4993530">
        <ele>510.4</ele>
        <time>2022-06-27T06:22:52Z</time>
      </trkpt>
      <trkpt lat="42.3997210" lon="-2.4993700">
        <ele>510.6</ele>
        <time>2022-06-27T06:22:53Z</time>
      </trkpt>
      <trkpt lat="42.3996840" lon="-2.4993900">
        <ele>511.2</ele>
        <time>2022-06-27T06:22:54Z</time>
      </trkpt>
      <trkpt lat="42.3996480" lon="-2.4994090">
        <ele>511.4</ele>
        <time>2022-06-27T06:22:55Z</time>
      </trkpt>
      <trkpt lat="42.3996110" lon="-2.4994290">
        <ele>511.8</ele>
        <time>2022-06-27T06:22:56Z</time>
      </trkpt>
      <trkpt lat="42.3995750" lon="-2.4994500">
        <ele>511.8</ele>
        <time>2022-06-27T06:22:57Z</time>
      </trkpt>
      <trkpt lat="42.3995390" lon="-2.4994690">
        <ele>512.0</ele>
        <time>2022-06-27T06:22:58Z</time>
      </trkpt>
      <trkpt lat="42.3995030" lon="-2.4994880">
        <ele>512.2</ele>
        <time>2022-06-27T06:22:59Z</time>
      </trkpt>
      <trkpt lat="42.3994660" lon="-2.4995080">
        <ele>512.2</ele>
        <time>2022-06-27T06:23:00Z</time>
      </trkpt>
      <trkpt lat="42.3994300" lon="-2.4995290">
        <ele>512.6</ele>
        <time>2022-06-27T06:23:01Z</time>
      </trkpt>
      <trkpt lat="42.3993940" lon="-2.4995480">
        <ele>512.6</ele>
        <time>2022-06-27T06:23:02Z</time>
      </trkpt>
      <trkpt lat="42.3993590" lon="-2.4995680">
        <ele>512.8</ele>
        <time>2022-06-27T06:23:03Z</time>
      </trkpt>
      <trkpt lat="42.3993230" lon="-2.4995870">
        <ele>513.0</ele>
        <time>2022-06-27T06:23:04Z</time>
      </trkpt>
      <trkpt lat="42.3992860" lon="-2.4996060">
        <ele>513.2</ele>
        <time>2022-06-27T06:23:05Z</time>
      </trkpt>
      <trkpt lat="42.3992490" lon="-2.4996250">
        <ele>513.2</ele>
        <time>2022-06-27T06:23:06Z</time>
      </trkpt>
      <trkpt lat="42.3992110" lon="-2.4996450">
        <ele>513.4</ele>
        <time>2022-06-27T06:23:07Z</time>
      </trkpt>
      <trkpt lat="42.3991710" lon="-2.4996680">
        <ele>513.8</ele>
        <time>2022-06-27T06:23:08Z</time>
      </trkpt>
      <trkpt lat="42.3991340" lon="-2.4996910">
        <ele>513.8</ele>
        <time>2022-06-27T06:23:09Z</time>
      </trkpt>
      <trkpt lat="42.3990960" lon="-2.4997140">
        <ele>514.0</ele>
        <time>2022-06-27T06:23:10Z</time>
      </trkpt>
      <trkpt lat="42.3990580" lon="-2.4997340">
        <ele>514.0</ele>
        <time>2022-06-27T06:23:11Z</time>
      </trkpt>
      <trkpt lat="42.3990170" lon="-2.4997570">
        <ele>514.2</ele>
        <time>2022-06-27T06:23:12Z</time>
      </trkpt>
      <trkpt lat="42.3989760" lon="-2.4997820">
        <ele>514.2</ele>
        <time>2022-06-27T06:23:13Z</time>
      </trkpt>
      <trkpt lat="42.3989330" lon="-2.4998070">
        <ele>514.4</ele>
        <time>2022-06-27T06:23:14Z</time>
      </trkpt>
      <trkpt lat="42.3988920" lon="-2.4998300">
        <ele>514.4</ele>
        <time>2022-06-27T06:23:15Z</time>
      </trkpt>
      <trkpt lat="42.3988500" lon="-2.4998570">
        <ele>514.4</ele>
        <time>2022-06-27T06:23:16Z</time>
      </trkpt>
      <trkpt lat="42.3988080" lon="-2.4998840">
        <ele>514.6</ele>
        <time>2022-06-27T06:23:17Z</time>
      </trkpt>
      <trkpt lat="42.3987660" lon="-2.4999100">
        <ele>514.6</ele>
        <time>2022-06-27T06:23:18Z</time>
      </trkpt>
      <trkpt lat="42.3987270" lon="-2.4999370">
        <ele>514.8</ele>
        <time>2022-06-27T06:23:19Z</time>
      </trkpt>
      <trkpt lat="42.3986880" lon="-2.4999640">
        <ele>515.0</ele>
        <time>2022-06-27T06:23:20Z</time>
      </trkpt>
      <trkpt lat="42.3986460" lon="-2.4999940">
        <ele>515.0</ele>
        <time>2022-06-27T06:23:21Z</time>
      </trkpt>
      <trkpt lat="42.3986040" lon="-2.5000230">
        <ele>515.2</ele>
        <time>2022-06-27T06:23:22Z</time>
      </trkpt>
      <trkpt lat="42.3985620" lon="-2.5000520">
        <ele>515.2</ele>
        <time>2022-06-27T06:23:23Z</time>
      </trkpt>
      <trkpt lat="42.3985220" lon="-2.5000810">
        <ele>515.4</ele>
        <time>2022-06-27T06:23:24Z</time>
      </trkpt>
      <trkpt lat="42.3984830" lon="-2.5001090">
        <ele>515.4</ele>
        <time>2022-06-27T06:23:25Z</time>
      </trkpt>
      <trkpt lat="42.3984450" lon="-2.5001390">
        <ele>515.6</ele>
        <time>2022-06-27T06:23:26Z</time>
      </trkpt>
      <trkpt lat="42.3984060" lon="-2.5001710">
        <ele>515.6</ele>
        <time>2022-06-27T06:23:27Z</time>
      </trkpt>
      <trkpt lat="42.3983670" lon="-2.5002050">
        <ele>515.6</ele>
        <time>2022-06-27T06:23:28Z</time>
      </trkpt>
      <trkpt lat="42.3983300" lon="-2.5002370">
        <ele>515.6</ele>
        <time>2022-06-27T06:23:29Z</time>
      </trkpt>
      <trkpt lat="42.3982920" lon="-2.5002690">
        <ele>515.8</ele>
        <time>2022-06-27T06:23:30Z</time>
      </trkpt>
      <trkpt lat="42.3982540" lon="-2.5003010">
        <ele>516.2</ele>
        <time>2022-06-27T06:23:31Z</time>
      </trkpt>
      <trkpt lat="42.3982190" lon="-2.5003340">
        <ele>516.2</ele>
        <time>2022-06-27T06:23:32Z</time>
      </trkpt>
      <trkpt lat="42.3981840" lon="-2.5003680">
        <ele>516.4</ele>
        <time>2022-06-27T06:23:33Z</time>
      </trkpt>
      <trkpt lat="42.3981490" lon="-2.5004010">
        <ele>516.4</ele>
        <time>2022-06-27T06:23:34Z</time>
      </trkpt>
      <trkpt lat="42.3981140" lon="-2.5004350">
        <ele>516.6</ele>
        <time>2022-06-27T06:23:35Z</time>
      </trkpt>
      <trkpt lat="42.3980810" lon="-2.5004680">
        <ele>516.6</ele>
        <time>2022-06-27T06:23:36Z</time>
      </trkpt>
      <trkpt lat="42.3980480" lon="-2.5005000">
        <ele>516.8</ele>
        <time>2022-06-27T06:23:37Z</time>
      </trkpt>
      <trkpt lat="42.3980160" lon="-2.5005340">
        <ele>517.0</ele>
        <time>2022-06-27T06:23:38Z</time>
      </trkpt>
      <trkpt lat="42.3979850" lon="-2.5005700">
        <ele>517.0</ele>
        <time>2022-06-27T06:23:39Z</time>
      </trkpt>
      <trkpt lat="42.3979550" lon="-2.5006050">
        <ele>517.2</ele>
        <time>2022-06-27T06:23:40Z</time>
      </trkpt>
      <trkpt lat="42.3979260" lon="-2.5006390">
        <ele>517.4</ele>
        <time>2022-06-27T06:23:41Z</time>
      </trkpt>
      <trkpt lat="42.3978960" lon="-2.5006730">
        <ele>517.6</ele>
        <time>2022-06-27T06:23:42Z</time>
      </trkpt>
      <trkpt lat="42.3978670" lon="-2.5007060">
        <ele>517.8</ele>
        <time>2022-06-27T06:23:43Z</time>
      </trkpt>
      <trkpt lat="42.3978380" lon="-2.5007400">
        <ele>518.0</ele>
        <time>2022-06-27T06:23:44Z</time>
      </trkpt>
      <trkpt lat="42.3978090" lon="-2.5007760">
        <ele>518.2</ele>
        <time>2022-06-27T06:23:45Z</time>
      </trkpt>
      <trkpt lat="42.3977820" lon="-2.5008090">
        <ele>518.2</ele>
        <time>2022-06-27T06:23:46Z</time>
      </trkpt>
      <trkpt lat="42.3977550" lon="-2.5008420">
        <ele>518.6</ele>
        <time>2022-06-27T06:23:47Z</time>
      </trkpt>
      <trkpt lat="42.3977250" lon="-2.5008780">
        <ele>518.8</ele>
        <time>2022-06-27T06:23:48Z</time>
      </trkpt>
      <trkpt lat="42.3976970" lon="-2.5009160">
        <ele>519.0</ele>
        <time>2022-06-27T06:23:49Z</time>
      </trkpt>
      <trkpt lat="42.3976700" lon="-2.5009530">
        <ele>519.0</ele>
        <time>2022-06-27T06:23:50Z</time>
      </trkpt>
      <trkpt lat="42.3976420" lon="-2.5009860">
        <ele>519.4</ele>
        <time>2022-06-27T06:23:51Z</time>
      </trkpt>
      <trkpt lat="42.3976160" lon="-2.5010160">
        <ele>519.8</ele>
        <time>2022-06-27T06:23:52Z</time>
      </trkpt>
      <trkpt lat="42.3975900" lon="-2.5010490">
        <ele>520.0</ele>
        <time>2022-06-27T06:23:53Z</time>
      </trkpt>
      <trkpt lat="42.3975640" lon="-2.5010850">
        <ele>520.2</ele>
        <time>2022-06-27T06:23:54Z</time>
      </trkpt>
      <trkpt lat="42.3975360" lon="-2.5011250">
        <ele>520.2</ele>
        <time>2022-06-27T06:23:55Z</time>
      </trkpt>
      <trkpt lat="42.3975090" lon="-2.5011640">
        <ele>520.4</ele>
        <time>2022-06-27T06:23:56Z</time>
      </trkpt>
      <trkpt lat="42.3974820" lon="-2.5012020">
        <ele>520.6</ele>
        <time>2022-06-27T06:23:57Z</time>
      </trkpt>
      <trkpt lat="42.3974590" lon="-2.5012380">
        <ele>520.8</ele>
        <time>2022-06-27T06:23:58Z</time>
      </trkpt>
      <trkpt lat="42.3974360" lon="-2.5012780">
        <ele>521.2</ele>
        <time>2022-06-27T06:23:59Z</time>
      </trkpt>
      <trkpt lat="42.3974130" lon="-2.5013170">
        <ele>521.4</ele>
        <time>2022-06-27T06:24:00Z</time>
      </trkpt>
      <trkpt lat="42.3973910" lon="-2.5013520">
        <ele>521.6</ele>
        <time>2022-06-27T06:24:01Z</time>
      </trkpt>
      <trkpt lat="42.3973670" lon="-2.5013840">
        <ele>521.8</ele>
        <time>2022-06-27T06:24:02Z</time>
      </trkpt>
      <trkpt lat="42.3973450" lon="-2.5014170">
        <ele>522.0</ele>
        <time>2022-06-27T06:24:03Z</time>
      </trkpt>
      <trkpt lat="42.3973220" lon="-2.5014530">
        <ele>522.2</ele>
        <time>2022-06-27T06:24:04Z</time>
      </trkpt>
      <trkpt lat="42.3973010" lon="-2.5014940">
        <ele>522.4</ele>
        <time>2022-06-27T06:24:05Z</time>
      </trkpt>
      <trkpt lat="42.3972820" lon="-2.5015330">
        <ele>522.4</ele>
        <time>2022-06-27T06:24:06Z</time>
      </trkpt>
      <trkpt lat="42.3972620" lon="-2.5015710">
        <ele>522.6</ele>
        <time>2022-06-27T06:24:07Z</time>
      </trkpt>
      <trkpt lat="42.3972420" lon="-2.5016110">
        <ele>523.0</ele>
        <time>2022-06-27T06:24:08Z</time>
      </trkpt>
      <trkpt lat="42.3972200" lon="-2.5016540">
        <ele>523.2</ele>
        <time>2022-06-27T06:24:09Z</time>
      </trkpt>
      <trkpt lat="42.3971970" lon="-2.5016980">
        <ele>523.6</ele>
        <time>2022-06-27T06:24:10Z</time>
      </trkpt>
      <trkpt lat="42.3971750" lon="-2.5017410">
        <ele>523.8</ele>
        <time>2022-06-27T06:24:11Z</time>
      </trkpt>
      <trkpt lat="42.3971540" lon="-2.5017810">
        <ele>524.0</ele>
        <time>2022-06-27T06:24:12Z</time>
      </trkpt>
      <trkpt lat="42.3971330" lon="-2.5018200">
        <ele>524.4</ele>
        <time>2022-06-27T06:24:13Z</time>
      </trkpt>
      <trkpt lat="42.3971100" lon="-2.5018620">
        <ele>524.4</ele>
        <time>2022-06-27T06:24:14Z</time>
      </trkpt>
      <trkpt lat="42.3970870" lon="-2.5019030">
        <ele>524.6</ele>
        <time>2022-06-27T06:24:15Z</time>
      </trkpt>
      <trkpt lat="42.3970640" lon="-2.5019430">
        <ele>524.6</ele>
        <time>2022-06-27T06:24:16Z</time>
      </trkpt>
      <trkpt lat="42.3970440" lon="-2.5019840">
        <ele>524.8</ele>
        <time>2022-06-27T06:24:17Z</time>
      </trkpt>
      <trkpt lat="42.3970240" lon="-2.5020300">
        <ele>525.0</ele>
        <time>2022-06-27T06:24:18Z</time>
      </trkpt>
      <trkpt lat="42.3970050" lon="-2.5020780">
        <ele>525.2</ele>
        <time>2022-06-27T06:24:19Z</time>
      </trkpt>
      <trkpt lat="42.3969870" lon="-2.5021250">
        <ele>525.4</ele>
        <time>2022-06-27T06:24:20Z</time>
      </trkpt>
      <trkpt lat="42.3969690" lon="-2.5021710">
        <ele>525.6</ele>
        <time>2022-06-27T06:24:21Z</time>
      </trkpt>
      <trkpt lat="42.3969510" lon="-2.5022180">
        <ele>525.6</ele>
        <time>2022-06-27T06:24:22Z</time>
      </trkpt>
      <trkpt lat="42.3969320" lon="-2.5022680">
        <ele>525.8</ele>
        <time>2022-06-27T06:24:23Z</time>
      </trkpt>
      <trkpt lat="42.3969130" lon="-2.5023200">
        <ele>526.0</ele>
        <time>2022-06-27T06:24:24Z</time>
      </trkpt>
      <trkpt lat="42.3968930" lon="-2.5023730">
        <ele>526.0</ele>
        <time>2022-06-27T06:24:25Z</time>
      </trkpt>
      <trkpt lat="42.3968730" lon="-2.5024230">
        <ele>526.2</ele>
        <time>2022-06-27T06:24:26Z</time>
      </trkpt>
      <trkpt lat="42.3968530" lon="-2.5024760">
        <ele>526.2</ele>
        <time>2022-06-27T06:24:27Z</time>
      </trkpt>
      <trkpt lat="42.3968330" lon="-2.5025300">
        <ele>526.4</ele>
        <time>2022-06-27T06:24:28Z</time>
      </trkpt>
      <trkpt lat="42.3968160" lon="-2.5025840">
        <ele>526.6</ele>
        <time>2022-06-27T06:24:29Z</time>
      </trkpt>
      <trkpt lat="42.3967990" lon="-2.5026400">
        <ele>526.6</ele>
        <time>2022-06-27T06:24:30Z</time>
      </trkpt>
      <trkpt lat="42.3967820" lon="-2.5026980">
        <ele>526.8</ele>
        <time>2022-06-27T06:24:31Z</time>
      </trkpt>
      <trkpt lat="42.3967630" lon="-2.5027550">
        <ele>526.8</ele>
        <time>2022-06-27T06:24:32Z</time>
      </trkpt>
      <trkpt lat="42.3967440" lon="-2.5028120">
        <ele>526.8</ele>
        <time>2022-06-27T06:24:33Z</time>
      </trkpt>
      <trkpt lat="42.3967230" lon="-2.5028700">
        <ele>526.8</ele>
        <time>2022-06-27T06:24:34Z</time>
      </trkpt>
      <trkpt lat="42.3967040" lon="-2.5029290">
        <ele>526.8</ele>
        <time>2022-06-27T06:24:35Z</time>
      </trkpt>
      <trkpt lat="42.3966840" lon="-2.5029870">
        <ele>527.0</ele>
        <time>2022-06-27T06:24:36Z</time>
      </trkpt>
      <trkpt lat="42.3966660" lon="-2.5030450">
        <ele>527.0</ele>
        <time>2022-06-27T06:24:37Z</time>
      </trkpt>
      <trkpt lat="42.3966460" lon="-2.5031040">
        <ele>527.0</ele>
        <time>2022-06-27T06:24:38Z</time>
      </trkpt>
      <trkpt lat="42.3966270" lon="-2.5031630">
        <ele>527.2</ele>
        <time>2022-06-27T06:24:39Z</time>
      </trkpt>
      <trkpt lat="42.3966080" lon="-2.5032210">
        <ele>527.2</ele>
        <time>2022-06-27T06:24:40Z</time>
      </trkpt>
      <trkpt lat="42.3965890" lon="-2.5032800">
        <ele>527.2</ele>
        <time>2022-06-27T06:24:41Z</time>
      </trkpt>
      <trkpt lat="42.3965700" lon="-2.5033400">
        <ele>527.2</ele>
        <time>2022-06-27T06:24:42Z</time>
      </trkpt>
      <trkpt lat="42.3965500" lon="-2.5033970">
        <ele>527.2</ele>
        <time>2022-06-27T06:24:43Z</time>
      </trkpt>
      <trkpt lat="42.3965300" lon="-2.5034540">
        <ele>527.4</ele>
        <time>2022-06-27T06:24:44Z</time>
      </trkpt>
      <trkpt lat="42.3965100" lon="-2.5035120">
        <ele>527.4</ele>
        <time>2022-06-27T06:24:45Z</time>
      </trkpt>
      <trkpt lat="42.3964920" lon="-2.5035700">
        <ele>527.4</ele>
        <time>2022-06-27T06:24:46Z</time>
      </trkpt>
      <trkpt lat="42.3964730" lon="-2.5036290">
        <ele>527.4</ele>
        <time>2022-06-27T06:24:47Z</time>
      </trkpt>
      <trkpt lat="42.3964520" lon="-2.5036890">
        <ele>527.6</ele>
        <time>2022-06-27T06:24:48Z</time>
      </trkpt>
      <trkpt lat="42.3964330" lon="-2.5037490">
        <ele>527.6</ele>
        <time>2022-06-27T06:24:49Z</time>
      </trkpt>
      <trkpt lat="42.3964130" lon="-2.5038100">
        <ele>527.6</ele>
        <time>2022-06-27T06:24:50Z</time>
      </trkpt>
      <trkpt lat="42.3963940" lon="-2.5038690">
        <ele>527.8</ele>
        <time>2022-06-27T06:24:51Z</time>
      </trkpt>
      <trkpt lat="42.3963720" lon="-2.5039290">
        <ele>528.0</ele>
        <time>2022-06-27T06:24:52Z</time>
      </trkpt>
      <trkpt lat="42.3963510" lon="-2.5039900">
        <ele>528.0</ele>
        <time>2022-06-27T06:24:53Z</time>
      </trkpt>
      <trkpt lat="42.3963280" lon="-2.5040520">
        <ele>528.0</ele>
        <time>2022-06-27T06:24:54Z</time>
      </trkpt>
      <trkpt lat="42.3963050" lon="-2.5041140">
        <ele>528.0</ele>
        <time>2022-06-27T06:24:55Z</time>
      </trkpt>
      <trkpt lat="42.3962820" lon="-2.5041740">
        <ele>528.0</ele>
        <time>2022-06-27T06:24:56Z</time>
      </trkpt>
      <trkpt lat="42.3962560" lon="-2.5042340">
        <ele>528.0</ele>
        <time>2022-06-27T06:24:57Z</time>
      </trkpt>
      <trkpt lat="42.3962320" lon="-2.5042940">
        <ele>528.0</ele>
        <time>2022-06-27T06:24:58Z</time>
      </trkpt>
      <trkpt lat="42.3962090" lon="-2.5043540">
        <ele>528.0</ele>
        <time>2022-06-27T06:24:59Z</time>
      </trkpt>
      <trkpt lat="42.3961840" lon="-2.5044150">
        <ele>528.0</ele>
        <time>2022-06-27T06:25:00Z</time>
      </trkpt>
      <trkpt lat="42.3961570" lon="-2.5044740">
        <ele>528.0</ele>
        <time>2022-06-27T06:25:01Z</time>
      </trkpt>
      <trkpt lat="42.3961300" lon="-2.5045330">
        <ele>528.0</ele>
        <time>2022-06-27T06:25:02Z</time>
      </trkpt>
      <trkpt lat="42.3961030" lon="-2.5045900">
        <ele>528.0</ele>
        <time>2022-06-27T06:25:03Z</time>
      </trkpt>
      <trkpt lat="42.3960770" lon="-2.5046480">
        <ele>528.0</ele>
        <time>2022-06-27T06:25:04Z</time>
      </trkpt>
      <trkpt lat="42.3960480" lon="-2.5047070">
        <ele>528.0</ele>
        <time>2022-06-27T06:25:05Z</time>
      </trkpt>
      <trkpt lat="42.3960180" lon="-2.5047640">
        <ele>528.0</ele>
        <time>2022-06-27T06:25:06Z</time>
      </trkpt>
      <trkpt lat="42.3959880" lon="-2.5048210">
        <ele>528.0</ele>
        <time>2022-06-27T06:25:07Z</time>
      </trkpt>
      <trkpt lat="42.3959580" lon="-2.5048780">
        <ele>528.0</ele>
        <time>2022-06-27T06:25:08Z</time>
      </trkpt>
      <trkpt lat="42.3959280" lon="-2.5049370">
        <ele>528.0</ele>
        <time>2022-06-27T06:25:09Z</time>
      </trkpt>
      <trkpt lat="42.3958990" lon="-2.5049940">
        <ele>528.0</ele>
        <time>2022-06-27T06:25:10Z</time>
      </trkpt>
      <trkpt lat="42.3958680" lon="-2.5050490">
        <ele>528.0</ele>
        <time>2022-06-27T06:25:11Z</time>
      </trkpt>
      <trkpt lat="42.3958380" lon="-2.5051060">
        <ele>528.2</ele>
        <time>2022-06-27T06:25:12Z</time>
      </trkpt>
      <trkpt lat="42.3958080" lon="-2.5051630">
        <ele>528.2</ele>
        <time>2022-06-27T06:25:13Z</time>
      </trkpt>
      <trkpt lat="42.3957750" lon="-2.5052200">
        <ele>528.2</ele>
        <time>2022-06-27T06:25:14Z</time>
      </trkpt>
      <trkpt lat="42.3957430" lon="-2.5052780">
        <ele>528.2</ele>
        <time>2022-06-27T06:25:15Z</time>
      </trkpt>
      <trkpt lat="42.3957110" lon="-2.5053340">
        <ele>528.2</ele>
        <time>2022-06-27T06:25:16Z</time>
      </trkpt>
      <trkpt lat="42.3956790" lon="-2.5053890">
        <ele>528.2</ele>
        <time>2022-06-27T06:25:17Z</time>
      </trkpt>
      <trkpt lat="42.3956470" lon="-2.5054490">
        <ele>528.2</ele>
        <time>2022-06-27T06:25:18Z</time>
      </trkpt>
      <trkpt lat="42.3956140" lon="-2.5055100">
        <ele>528.2</ele>
        <time>2022-06-27T06:25:19Z</time>
      </trkpt>
      <trkpt lat="42.3955790" lon="-2.5055700">
        <ele>528.2</ele>
        <time>2022-06-27T06:25:20Z</time>
      </trkpt>
      <trkpt lat="42.3955450" lon="-2.5056280">
        <ele>528.2</ele>
        <time>2022-06-27T06:25:21Z</time>
      </trkpt>
      <trkpt lat="42.3955120" lon="-2.5056860">
        <ele>528.4</ele>
        <time>2022-06-27T06:25:22Z</time>
      </trkpt>
      <trkpt lat="42.3954780" lon="-2.5057460">
        <ele>528.4</ele>
        <time>2022-06-27T06:25:23Z</time>
      </trkpt>
      <trkpt lat="42.3954430" lon="-2.5058060">
        <ele>528.4</ele>
        <time>2022-06-27T06:25:24Z</time>
      </trkpt>
      <trkpt lat="42.3954080" lon="-2.5058650">
        <ele>528.4</ele>
        <time>2022-06-27T06:25:25Z</time>
      </trkpt>
      <trkpt lat="42.3953730" lon="-2.5059260">
        <ele>528.6</ele>
        <time>2022-06-27T06:25:26Z</time>
      </trkpt>
      <trkpt lat="42.3953380" lon="-2.5059850">
        <ele>528.6</ele>
        <time>2022-06-27T06:25:27Z</time>
      </trkpt>
      <trkpt lat="42.3953030" lon="-2.5060460">
        <ele>528.6</ele>
        <time>2022-06-27T06:25:28Z</time>
      </trkpt>
      <trkpt lat="42.3952670" lon="-2.5061080">
        <ele>528.6</ele>
        <time>2022-06-27T06:25:29Z</time>
      </trkpt>
      <trkpt lat="42.3952340" lon="-2.5061680">
        <ele>528.6</ele>
        <time>2022-06-27T06:25:30Z</time>
      </trkpt>
      <trkpt lat="42.3951980" lon="-2.5062280">
        <ele>528.6</ele>
        <time>2022-06-27T06:25:31Z</time>
      </trkpt>
      <trkpt lat="42.3951650" lon="-2.5062870">
        <ele>528.6</ele>
        <time>2022-06-27T06:25:32Z</time>
      </trkpt>
      <trkpt lat="42.3951300" lon="-2.5063470">
        <ele>528.6</ele>
        <time>2022-06-27T06:25:33Z</time>
      </trkpt>
      <trkpt lat="42.3950960" lon="-2.5064080">
        <ele>528.8</ele>
        <time>2022-06-27T06:25:34Z</time>
      </trkpt>
      <trkpt lat="42.3950610" lon="-2.5064690">
        <ele>528.8</ele>
        <time>2022-06-27T06:25:35Z</time>
      </trkpt>
      <trkpt lat="42.3950260" lon="-2.5065300">
        <ele>528.8</ele>
        <time>2022-06-27T06:25:36Z</time>
      </trkpt>
      <trkpt lat="42.3949920" lon="-2.5065910">
        <ele>528.8</ele>
        <time>2022-06-27T06:25:37Z</time>
      </trkpt>
      <trkpt lat="42.3949570" lon="-2.5066520">
        <ele>528.8</ele>
        <time>2022-06-27T06:25:38Z</time>
      </trkpt>
      <trkpt lat="42.3949220" lon="-2.5067130">
        <ele>528.8</ele>
        <time>2022-06-27T06:25:39Z</time>
      </trkpt>
      <trkpt lat="42.3948860" lon="-2.5067740">
        <ele>528.8</ele>
        <time>2022-06-27T06:25:40Z</time>
      </trkpt>
      <trkpt lat="42.3948510" lon="-2.5068340">
        <ele>528.8</ele>
        <time>2022-06-27T06:25:41Z</time>
      </trkpt>
      <trkpt lat="42.3948150" lon="-2.5068950">
        <ele>528.8</ele>
        <time>2022-06-27T06:25:42Z</time>
      </trkpt>
      <trkpt lat="42.3947830" lon="-2.5069570">
        <ele>528.8</ele>
        <time>2022-06-27T06:25:43Z</time>
      </trkpt>
      <trkpt lat="42.3947490" lon="-2.5070180">
        <ele>528.8</ele>
        <time>2022-06-27T06:25:44Z</time>
      </trkpt>
      <trkpt lat="42.3947160" lon="-2.5070820">
        <ele>529.0</ele>
        <time>2022-06-27T06:25:45Z</time>
      </trkpt>
      <trkpt lat="42.3946850" lon="-2.5071450">
        <ele>529.2</ele>
        <time>2022-06-27T06:25:46Z</time>
      </trkpt>
      <trkpt lat="42.3946530" lon="-2.5072090">
        <ele>529.2</ele>
        <time>2022-06-27T06:25:47Z</time>
      </trkpt>
      <trkpt lat="42.3946220" lon="-2.5072730">
        <ele>529.2</ele>
        <time>2022-06-27T06:25:48Z</time>
      </trkpt>
      <trkpt lat="42.3945900" lon="-2.5073370">
        <ele>529.2</ele>
        <time>2022-06-27T06:25:49Z</time>
      </trkpt>
      <trkpt lat="42.3945600" lon="-2.5074020">
        <ele>529.2</ele>
        <time>2022-06-27T06:25:50Z</time>
      </trkpt>
      <trkpt lat="42.3945300" lon="-2.5074690">
        <ele>529.2</ele>
        <time>2022-06-27T06:25:51Z</time>
      </trkpt>
      <trkpt lat="42.3945000" lon="-2.5075350">
        <ele>529.2</ele>
        <time>2022-06-27T06:25:52Z</time>
      </trkpt>
      <trkpt lat="42.3944710" lon="-2.5076030">
        <ele>529.2</ele>
        <time>2022-06-27T06:25:53Z</time>
      </trkpt>
      <trkpt lat="42.3944420" lon="-2.5076720">
        <ele>529.2</ele>
        <time>2022-06-27T06:25:54Z</time>
      </trkpt>
      <trkpt lat="42.3944140" lon="-2.5077420">
        <ele>529.2</ele>
        <time>2022-06-27T06:25:55Z</time>
      </trkpt>
      <trkpt lat="42.3943850" lon="-2.5078120">
        <ele>529.2</ele>
        <time>2022-06-27T06:25:56Z</time>
      </trkpt>
      <trkpt lat="42.3943610" lon="-2.5078810">
        <ele>529.2</ele>
        <time>2022-06-27T06:25:57Z</time>
      </trkpt>
      <trkpt lat="42.3943370" lon="-2.5079500">
        <ele>529.2</ele>
        <time>2022-06-27T06:25:58Z</time>
      </trkpt>
      <trkpt lat="42.3943130" lon="-2.5080210">
        <ele>529.2</ele>
        <time>2022-06-27T06:25:59Z</time>
      </trkpt>
      <trkpt lat="42.3942880" lon="-2.5080940">
        <ele>529.2</ele>
        <time>2022-06-27T06:26:00Z</time>
      </trkpt>
      <trkpt lat="42.3942660" lon="-2.5081660">
        <ele>529.2</ele>
        <time>2022-06-27T06:26:01Z</time>
      </trkpt>
      <trkpt lat="42.3942480" lon="-2.5082240">
        <ele>529.2</ele>
        <time>2022-06-27T06:26:02Z</time>
      </trkpt>
      <trkpt lat="42.3942210" lon="-2.5083110">
        <ele>529.2</ele>
        <time>2022-06-27T06:26:03Z</time>
      </trkpt>
      <trkpt lat="42.3941990" lon="-2.5083840">
        <ele>529.2</ele>
        <time>2022-06-27T06:26:04Z</time>
      </trkpt>
      <trkpt lat="42.3941780" lon="-2.5084580">
        <ele>529.2</ele>
        <time>2022-06-27T06:26:05Z</time>
      </trkpt>
      <trkpt lat="42.3941570" lon="-2.5085320">
        <ele>529.2</ele>
        <time>2022-06-27T06:26:06Z</time>
      </trkpt>
      <trkpt lat="42.3941350" lon="-2.5086070">
        <ele>529.2</ele>
        <time>2022-06-27T06:26:07Z</time>
      </trkpt>
      <trkpt lat="42.3941150" lon="-2.5086810">
        <ele>529.2</ele>
        <time>2022-06-27T06:26:08Z</time>
      </trkpt>
      <trkpt lat="42.3940950" lon="-2.5087560">
        <ele>529.2</ele>
        <time>2022-06-27T06:26:09Z</time>
      </trkpt>
      <trkpt lat="42.3940740" lon="-2.5088310">
        <ele>529.2</ele>
        <time>2022-06-27T06:26:10Z</time>
      </trkpt>
      <trkpt lat="42.3940540" lon="-2.5089060">
        <ele>529.2</ele>
        <time>2022-06-27T06:26:11Z</time>
      </trkpt>
      <trkpt lat="42.3940350" lon="-2.5089820">
        <ele>529.2</ele>
        <time>2022-06-27T06:26:12Z</time>
      </trkpt>
      <trkpt lat="42.3940170" lon="-2.5090570">
        <ele>529.2</ele>
        <time>2022-06-27T06:26:13Z</time>
      </trkpt>
      <trkpt lat="42.3939970" lon="-2.5091310">
        <ele>529.2</ele>
        <time>2022-06-27T06:26:14Z</time>
      </trkpt>
      <trkpt lat="42.3939770" lon="-2.5092070">
        <ele>529.0</ele>
        <time>2022-06-27T06:26:15Z</time>
      </trkpt>
      <trkpt lat="42.3939580" lon="-2.5092810">
        <ele>529.0</ele>
        <time>2022-06-27T06:26:16Z</time>
      </trkpt>
      <trkpt lat="42.3939390" lon="-2.5093560">
        <ele>529.0</ele>
        <time>2022-06-27T06:26:17Z</time>
      </trkpt>
      <trkpt lat="42.3939200" lon="-2.5094320">
        <ele>529.0</ele>
        <time>2022-06-27T06:26:18Z</time>
      </trkpt>
      <trkpt lat="42.3939000" lon="-2.5095060">
        <ele>529.0</ele>
        <time>2022-06-27T06:26:19Z</time>
      </trkpt>
      <trkpt lat="42.3938790" lon="-2.5095800">
        <ele>529.0</ele>
        <time>2022-06-27T06:26:20Z</time>
      </trkpt>
      <trkpt lat="42.3938580" lon="-2.5096530">
        <ele>528.8</ele>
        <time>2022-06-27T06:26:21Z</time>
      </trkpt>
      <trkpt lat="42.3938350" lon="-2.5097280">
        <ele>528.8</ele>
        <time>2022-06-27T06:26:22Z</time>
      </trkpt>
      <trkpt lat="42.3938130" lon="-2.5098050">
        <ele>528.8</ele>
        <time>2022-06-27T06:26:23Z</time>
      </trkpt>
      <trkpt lat="42.3937900" lon="-2.5098790">
        <ele>529.0</ele>
        <time>2022-06-27T06:26:24Z</time>
      </trkpt>
      <trkpt lat="42.3937680" lon="-2.5099510">
        <ele>528.8</ele>
        <time>2022-06-27T06:26:25Z</time>
      </trkpt>
      <trkpt lat="42.3937450" lon="-2.5100250">
        <ele>528.8</ele>
        <time>2022-06-27T06:26:26Z</time>
      </trkpt>
      <trkpt lat="42.3937220" lon="-2.5100990">
        <ele>528.8</ele>
        <time>2022-06-27T06:26:27Z</time>
      </trkpt>
      <trkpt lat="42.3936960" lon="-2.5101730">
        <ele>528.8</ele>
        <time>2022-06-27T06:26:28Z</time>
      </trkpt>
      <trkpt lat="42.3936690" lon="-2.5102450">
        <ele>528.8</ele>
        <time>2022-06-27T06:26:29Z</time>
      </trkpt>
      <trkpt lat="42.3936430" lon="-2.5103140">
        <ele>528.8</ele>
        <time>2022-06-27T06:26:30Z</time>
      </trkpt>
      <trkpt lat="42.3936170" lon="-2.5103840">
        <ele>528.8</ele>
        <time>2022-06-27T06:26:31Z</time>
      </trkpt>
      <trkpt lat="42.3935900" lon="-2.5104530">
        <ele>528.8</ele>
        <time>2022-06-27T06:26:32Z</time>
      </trkpt>
      <trkpt lat="42.3935620" lon="-2.5105230">
        <ele>528.8</ele>
        <time>2022-06-27T06:26:33Z</time>
      </trkpt>
      <trkpt lat="42.3935340" lon="-2.5105930">
        <ele>528.8</ele>
        <time>2022-06-27T06:26:34Z</time>
      </trkpt>
      <trkpt lat="42.3935040" lon="-2.5106610">
        <ele>528.6</ele>
        <time>2022-06-27T06:26:35Z</time>
      </trkpt>
      <trkpt lat="42.3934730" lon="-2.5107280">
        <ele>528.6</ele>
        <time>2022-06-27T06:26:36Z</time>
      </trkpt>
      <trkpt lat="42.3934430" lon="-2.5107950">
        <ele>528.6</ele>
        <time>2022-06-27T06:26:37Z</time>
      </trkpt>
      <trkpt lat="42.3934120" lon="-2.5108640">
        <ele>528.8</ele>
        <time>2022-06-27T06:26:38Z</time>
      </trkpt>
      <trkpt lat="42.3933810" lon="-2.5109300">
        <ele>528.8</ele>
        <time>2022-06-27T06:26:39Z</time>
      </trkpt>
      <trkpt lat="42.3933490" lon="-2.5109960">
        <ele>528.8</ele>
        <time>2022-06-27T06:26:40Z</time>
      </trkpt>
      <trkpt lat="42.3933140" lon="-2.5110600">
        <ele>528.8</ele>
        <time>2022-06-27T06:26:41Z</time>
      </trkpt>
      <trkpt lat="42.3932820" lon="-2.5111230">
        <ele>528.8</ele>
        <time>2022-06-27T06:26:42Z</time>
      </trkpt>
      <trkpt lat="42.3932500" lon="-2.5111850">
        <ele>528.8</ele>
        <time>2022-06-27T06:26:43Z</time>
      </trkpt>
      <trkpt lat="42.3932160" lon="-2.5112480">
        <ele>529.0</ele>
        <time>2022-06-27T06:26:44Z</time>
      </trkpt>
      <trkpt lat="42.3931810" lon="-2.5113110">
        <ele>529.0</ele>
        <time>2022-06-27T06:26:45Z</time>
      </trkpt>
      <trkpt lat="42.3931480" lon="-2.5113730">
        <ele>529.0</ele>
        <time>2022-06-27T06:26:46Z</time>
      </trkpt>
      <trkpt lat="42.3931140" lon="-2.5114330">
        <ele>529.2</ele>
        <time>2022-06-27T06:26:47Z</time>
      </trkpt>
      <trkpt lat="42.3930810" lon="-2.5114890">
        <ele>529.2</ele>
        <time>2022-06-27T06:26:48Z</time>
      </trkpt>
      <trkpt lat="42.3930480" lon="-2.5115480">
        <ele>529.2</ele>
        <time>2022-06-27T06:26:49Z</time>
      </trkpt>
      <trkpt lat="42.3930140" lon="-2.5116070">
        <ele>529.2</ele>
        <time>2022-06-27T06:26:50Z</time>
      </trkpt>
      <trkpt lat="42.3929800" lon="-2.5116670">
        <ele>529.4</ele>
        <time>2022-06-27T06:26:51Z</time>
      </trkpt>
      <trkpt lat="42.3929460" lon="-2.5117250">
        <ele>529.4</ele>
        <time>2022-06-27T06:26:52Z</time>
      </trkpt>
      <trkpt lat="42.3929120" lon="-2.5117830">
        <ele>529.4</ele>
        <time>2022-06-27T06:26:53Z</time>
      </trkpt>
      <trkpt lat="42.3928770" lon="-2.5118400">
        <ele>529.4</ele>
        <time>2022-06-27T06:26:54Z</time>
      </trkpt>
      <trkpt lat="42.3928440" lon="-2.5118940">
        <ele>529.4</ele>
        <time>2022-06-27T06:26:55Z</time>
      </trkpt>
      <trkpt lat="42.3928100" lon="-2.5119500">
        <ele>529.4</ele>
        <time>2022-06-27T06:26:56Z</time>
      </trkpt>
      <trkpt lat="42.3927780" lon="-2.5120040">
        <ele>529.6</ele>
        <time>2022-06-27T06:26:57Z</time>
      </trkpt>
      <trkpt lat="42.3927460" lon="-2.5120580">
        <ele>529.6</ele>
        <time>2022-06-27T06:26:58Z</time>
      </trkpt>
      <trkpt lat="42.3927160" lon="-2.5121110">
        <ele>529.8</ele>
        <time>2022-06-27T06:26:59Z</time>
      </trkpt>
      <trkpt lat="42.3926820" lon="-2.5121630">
        <ele>530.0</ele>
        <time>2022-06-27T06:27:00Z</time>
      </trkpt>
      <trkpt lat="42.3926480" lon="-2.5122160">
        <ele>530.0</ele>
        <time>2022-06-27T06:27:01Z</time>
      </trkpt>
      <trkpt lat="42.3926150" lon="-2.5122670">
        <ele>530.0</ele>
        <time>2022-06-27T06:27:02Z</time>
      </trkpt>
      <trkpt lat="42.3925830" lon="-2.5123190">
        <ele>530.2</ele>
        <time>2022-06-27T06:27:03Z</time>
      </trkpt>
      <trkpt lat="42.3925540" lon="-2.5123700">
        <ele>530.2</ele>
        <time>2022-06-27T06:27:04Z</time>
      </trkpt>
      <trkpt lat="42.3925230" lon="-2.5124220">
        <ele>530.2</ele>
        <time>2022-06-27T06:27:05Z</time>
      </trkpt>
      <trkpt lat="42.3924930" lon="-2.5124720">
        <ele>530.4</ele>
        <time>2022-06-27T06:27:06Z</time>
      </trkpt>
      <trkpt lat="42.3924650" lon="-2.5125210">
        <ele>530.4</ele>
        <time>2022-06-27T06:27:07Z</time>
      </trkpt>
      <trkpt lat="42.3924350" lon="-2.5125710">
        <ele>530.6</ele>
        <time>2022-06-27T06:27:08Z</time>
      </trkpt>
      <trkpt lat="42.3924050" lon="-2.5126210">
        <ele>530.6</ele>
        <time>2022-06-27T06:27:09Z</time>
      </trkpt>
      <trkpt lat="42.3923750" lon="-2.5126680">
        <ele>530.8</ele>
        <time>2022-06-27T06:27:10Z</time>
      </trkpt>
      <trkpt lat="42.3923470" lon="-2.5127140">
        <ele>531.0</ele>
        <time>2022-06-27T06:27:11Z</time>
      </trkpt>
      <trkpt lat="42.3923180" lon="-2.5127600">
        <ele>531.0</ele>
        <time>2022-06-27T06:27:12Z</time>
      </trkpt>
      <trkpt lat="42.3922890" lon="-2.5128070">
        <ele>531.2</ele>
        <time>2022-06-27T06:27:13Z</time>
      </trkpt>
      <trkpt lat="42.3922600" lon="-2.5128540">
        <ele>531.4</ele>
        <time>2022-06-27T06:27:14Z</time>
      </trkpt>
      <trkpt lat="42.3922320" lon="-2.5129010">
        <ele>531.6</ele>
        <time>2022-06-27T06:27:15Z</time>
      </trkpt>
      <trkpt lat="42.3922050" lon="-2.5129480">
        <ele>531.8</ele>
        <time>2022-06-27T06:27:16Z</time>
      </trkpt>
      <trkpt lat="42.3921780" lon="-2.5129950">
        <ele>532.2</ele>
        <time>2022-06-27T06:27:17Z</time>
      </trkpt>
      <trkpt lat="42.3921490" lon="-2.5130430">
        <ele>532.2</ele>
        <time>2022-06-27T06:27:18Z</time>
      </trkpt>
      <trkpt lat="42.3921180" lon="-2.5130910">
        <ele>532.6</ele>
        <time>2022-06-27T06:27:19Z</time>
      </trkpt>
      <trkpt lat="42.3920880" lon="-2.5131400">
        <ele>532.6</ele>
        <time>2022-06-27T06:27:20Z</time>
      </trkpt>
      <trkpt lat="42.3920580" lon="-2.5131910">
        <ele>532.8</ele>
        <time>2022-06-27T06:27:21Z</time>
      </trkpt>
      <trkpt lat="42.3920270" lon="-2.5132410">
        <ele>533.0</ele>
        <time>2022-06-27T06:27:22Z</time>
      </trkpt>
      <trkpt lat="42.3919950" lon="-2.5132930">
        <ele>533.0</ele>
        <time>2022-06-27T06:27:23Z</time>
      </trkpt>
      <trkpt lat="42.3919660" lon="-2.5133430">
        <ele>533.2</ele>
        <time>2022-06-27T06:27:24Z</time>
      </trkpt>
      <trkpt lat="42.3919340" lon="-2.5133930">
        <ele>533.4</ele>
        <time>2022-06-27T06:27:25Z</time>
      </trkpt>
      <trkpt lat="42.3919020" lon="-2.5134440">
        <ele>533.4</ele>
        <time>2022-06-27T06:27:26Z</time>
      </trkpt>
      <trkpt lat="42.3918700" lon="-2.5134950">
        <ele>533.4</ele>
        <time>2022-06-27T06:27:27Z</time>
      </trkpt>
      <trkpt lat="42.3918380" lon="-2.5135460">
        <ele>533.6</ele>
        <time>2022-06-27T06:27:28Z</time>
      </trkpt>
      <trkpt lat="42.3918060" lon="-2.5135970">
        <ele>533.8</ele>
        <time>2022-06-27T06:27:29Z</time>
      </trkpt>
      <trkpt lat="42.3917790" lon="-2.5136470">
        <ele>533.8</ele>
        <time>2022-06-27T06:27:30Z</time>
      </trkpt>
      <trkpt lat="42.3917520" lon="-2.5136960">
        <ele>533.8</ele>
        <time>2022-06-27T06:27:31Z</time>
      </trkpt>
      <trkpt lat="42.3917210" lon="-2.5137460">
        <ele>533.8</ele>
        <time>2022-06-27T06:27:32Z</time>
      </trkpt>
      <trkpt lat="42.3916910" lon="-2.5137970">
        <ele>534.0</ele>
        <time>2022-06-27T06:27:33Z</time>
      </trkpt>
      <trkpt lat="42.3916590" lon="-2.5138480">
        <ele>534.0</ele>
        <time>2022-06-27T06:27:34Z</time>
      </trkpt>
      <trkpt lat="42.3916300" lon="-2.5138990">
        <ele>534.2</ele>
        <time>2022-06-27T06:27:35Z</time>
      </trkpt>
      <trkpt lat="42.3916010" lon="-2.5139480">
        <ele>534.4</ele>
        <time>2022-06-27T06:27:36Z</time>
      </trkpt>
      <trkpt lat="42.3915710" lon="-2.5139970">
        <ele>534.4</ele>
        <time>2022-06-27T06:27:37Z</time>
      </trkpt>
      <trkpt lat="42.3915400" lon="-2.5140470">
        <ele>534.6</ele>
        <time>2022-06-27T06:27:38Z</time>
      </trkpt>
      <trkpt lat="42.3915080" lon="-2.5140970">
        <ele>534.6</ele>
        <time>2022-06-27T06:27:39Z</time>
      </trkpt>
      <trkpt lat="42.3914790" lon="-2.5141460">
        <ele>534.6</ele>
        <time>2022-06-27T06:27:40Z</time>
      </trkpt>
      <trkpt lat="42.3914480" lon="-2.5141960">
        <ele>534.6</ele>
        <time>2022-06-27T06:27:41Z</time>
      </trkpt>
      <trkpt lat="42.3914180" lon="-2.5142470">
        <ele>534.8</ele>
        <time>2022-06-27T06:27:42Z</time>
      </trkpt>
      <trkpt lat="42.3913890" lon="-2.5142960">
        <ele>534.8</ele>
        <time>2022-06-27T06:27:43Z</time>
      </trkpt>
      <trkpt lat="42.3913590" lon="-2.5143450">
        <ele>534.8</ele>
        <time>2022-06-27T06:27:44Z</time>
      </trkpt>
      <trkpt lat="42.3913310" lon="-2.5143930">
        <ele>535.0</ele>
        <time>2022-06-27T06:27:45Z</time>
      </trkpt>
      <trkpt lat="42.3913020" lon="-2.5144430">
        <ele>535.0</ele>
        <time>2022-06-27T06:27:46Z</time>
      </trkpt>
      <trkpt lat="42.3912740" lon="-2.5144900">
        <ele>535.2</ele>
        <time>2022-06-27T06:27:47Z</time>
      </trkpt>
      <trkpt lat="42.3912440" lon="-2.5145390">
        <ele>535.4</ele>
        <time>2022-06-27T06:27:48Z</time>
      </trkpt>
      <trkpt lat="42.3912140" lon="-2.5145890">
        <ele>535.4</ele>
        <time>2022-06-27T06:27:49Z</time>
      </trkpt>
      <trkpt lat="42.3911850" lon="-2.5146380">
        <ele>535.6</ele>
        <time>2022-06-27T06:27:50Z</time>
      </trkpt>
      <trkpt lat="42.3911580" lon="-2.5146860">
        <ele>535.8</ele>
        <time>2022-06-27T06:27:51Z</time>
      </trkpt>
      <trkpt lat="42.3911290" lon="-2.5147330">
        <ele>536.0</ele>
        <time>2022-06-27T06:27:52Z</time>
      </trkpt>
      <trkpt lat="42.3911020" lon="-2.5147800">
        <ele>536.0</ele>
        <time>2022-06-27T06:27:53Z</time>
      </trkpt>
      <trkpt lat="42.3910760" lon="-2.5148260">
        <ele>536.2</ele>
        <time>2022-06-27T06:27:54Z</time>
      </trkpt>
      <trkpt lat="42.3910490" lon="-2.5148710">
        <ele>536.2</ele>
        <time>2022-06-27T06:27:55Z</time>
      </trkpt>
      <trkpt lat="42.3910230" lon="-2.5149150">
        <ele>536.2</ele>
        <time>2022-06-27T06:27:56Z</time>
      </trkpt>
      <trkpt lat="42.3909970" lon="-2.5149600">
        <ele>536.4</ele>
        <time>2022-06-27T06:27:57Z</time>
      </trkpt>
      <trkpt lat="42.3909690" lon="-2.5150040">
        <ele>536.4</ele>
        <time>2022-06-27T06:27:58Z</time>
      </trkpt>
      <trkpt lat="42.3909420" lon="-2.5150480">
        <ele>536.6</ele>
        <time>2022-06-27T06:27:59Z</time>
      </trkpt>
      <trkpt lat="42.3909140" lon="-2.5150910">
        <ele>536.6</ele>
        <time>2022-06-27T06:28:00Z</time>
      </trkpt>
      <trkpt lat="42.3908850" lon="-2.5151350">
        <ele>536.8</ele>
        <time>2022-06-27T06:28:01Z</time>
      </trkpt>
      <trkpt lat="42.3908590" lon="-2.5151790">
        <ele>537.0</ele>
        <time>2022-06-27T06:28:02Z</time>
      </trkpt>
      <trkpt lat="42.3908330" lon="-2.5152220">
        <ele>537.2</ele>
        <time>2022-06-27T06:28:03Z</time>
      </trkpt>
      <trkpt lat="42.3908070" lon="-2.5152650">
        <ele>537.4</ele>
        <time>2022-06-27T06:28:04Z</time>
      </trkpt>
      <trkpt lat="42.3907800" lon="-2.5153090">
        <ele>537.6</ele>
        <time>2022-06-27T06:28:05Z</time>
      </trkpt>
      <trkpt lat="42.3907540" lon="-2.5153530">
        <ele>537.8</ele>
        <time>2022-06-27T06:28:06Z</time>
      </trkpt>
      <trkpt lat="42.3907280" lon="-2.5153960">
        <ele>538.0</ele>
        <time>2022-06-27T06:28:07Z</time>
      </trkpt>
      <trkpt lat="42.3906990" lon="-2.5154370">
        <ele>538.2</ele>
        <time>2022-06-27T06:28:08Z</time>
      </trkpt>
      <trkpt lat="42.3906710" lon="-2.5154780">
        <ele>538.2</ele>
        <time>2022-06-27T06:28:09Z</time>
      </trkpt>
      <trkpt lat="42.3906450" lon="-2.5155200">
        <ele>538.2</ele>
        <time>2022-06-27T06:28:10Z</time>
      </trkpt>
      <trkpt lat="42.3906190" lon="-2.5155640">
        <ele>538.4</ele>
        <time>2022-06-27T06:28:11Z</time>
      </trkpt>
      <trkpt lat="42.3905940" lon="-2.5156070">
        <ele>538.8</ele>
        <time>2022-06-27T06:28:12Z</time>
      </trkpt>
      <trkpt lat="42.3905700" lon="-2.5156490">
        <ele>539.0</ele>
        <time>2022-06-27T06:28:13Z</time>
      </trkpt>
      <trkpt lat="42.3905460" lon="-2.5156880">
        <ele>539.2</ele>
        <time>2022-06-27T06:28:14Z</time>
      </trkpt>
      <trkpt lat="42.3905210" lon="-2.5157290">
        <ele>539.4</ele>
        <time>2022-06-27T06:28:15Z</time>
      </trkpt>
      <trkpt lat="42.3904960" lon="-2.5157680">
        <ele>539.4</ele>
        <time>2022-06-27T06:28:16Z</time>
      </trkpt>
      <trkpt lat="42.3904730" lon="-2.5158080">
        <ele>539.6</ele>
        <time>2022-06-27T06:28:17Z</time>
      </trkpt>
      <trkpt lat="42.3904510" lon="-2.5158480">
        <ele>539.6</ele>
        <time>2022-06-27T06:28:18Z</time>
      </trkpt>
      <trkpt lat="42.3904280" lon="-2.5158890">
        <ele>540.0</ele>
        <time>2022-06-27T06:28:19Z</time>
      </trkpt>
      <trkpt lat="42.3904050" lon="-2.5159280">
        <ele>540.0</ele>
        <time>2022-06-27T06:28:20Z</time>
      </trkpt>
      <trkpt lat="42.3903860" lon="-2.5159670">
        <ele>540.4</ele>
        <time>2022-06-27T06:28:21Z</time>
      </trkpt>
      <trkpt lat="42.3903650" lon="-2.5160050">
        <ele>540.6</ele>
        <time>2022-06-27T06:28:22Z</time>
      </trkpt>
      <trkpt lat="42.3903450" lon="-2.5160440">
        <ele>540.6</ele>
        <time>2022-06-27T06:28:23Z</time>
      </trkpt>
      <trkpt lat="42.3903240" lon="-2.5160840">
        <ele>540.8</ele>
        <time>2022-06-27T06:28:24Z</time>
      </trkpt>
      <trkpt lat="42.3903020" lon="-2.5161250">
        <ele>541.0</ele>
        <time>2022-06-27T06:28:25Z</time>
      </trkpt>
      <trkpt lat="42.3902790" lon="-2.5161670">
        <ele>541.2</ele>
        <time>2022-06-27T06:28:26Z</time>
      </trkpt>
      <trkpt lat="42.3902550" lon="-2.5162090">
        <ele>541.4</ele>
        <time>2022-06-27T06:28:27Z</time>
      </trkpt>
      <trkpt lat="42.3902320" lon="-2.5162500">
        <ele>541.6</ele>
        <time>2022-06-27T06:28:28Z</time>
      </trkpt>
      <trkpt lat="42.3902080" lon="-2.5162890">
        <ele>541.8</ele>
        <time>2022-06-27T06:28:29Z</time>
      </trkpt>
      <trkpt lat="42.3901840" lon="-2.5163300">
        <ele>542.0</ele>
        <time>2022-06-27T06:28:30Z</time>
      </trkpt>
      <trkpt lat="42.3901620" lon="-2.5163710">
        <ele>542.0</ele>
        <time>2022-06-27T06:28:31Z</time>
      </trkpt>
      <trkpt lat="42.3901400" lon="-2.5164120">
        <ele>542.2</ele>
        <time>2022-06-27T06:28:32Z</time>
      </trkpt>
      <trkpt lat="42.3901200" lon="-2.5164530">
        <ele>542.6</ele>
        <time>2022-06-27T06:28:33Z</time>
      </trkpt>
      <trkpt lat="42.3901010" lon="-2.5164910">
        <ele>542.6</ele>
        <time>2022-06-27T06:28:34Z</time>
      </trkpt>
      <trkpt lat="42.3900800" lon="-2.5165300">
        <ele>543.0</ele>
        <time>2022-06-27T06:28:35Z</time>
      </trkpt>
      <trkpt lat="42.3900600" lon="-2.5165710">
        <ele>543.2</ele>
        <time>2022-06-27T06:28:36Z</time>
      </trkpt>
      <trkpt lat="42.3900410" lon="-2.5166140">
        <ele>543.4</ele>
        <time>2022-06-27T06:28:37Z</time>
      </trkpt>
      <trkpt lat="42.3900230" lon="-2.5166570">
        <ele>543.6</ele>
        <time>2022-06-27T06:28:38Z</time>
      </trkpt>
      <trkpt lat="42.3900070" lon="-2.5166960">
        <ele>543.8</ele>
        <time>2022-06-27T06:28:39Z</time>
      </trkpt>
      <trkpt lat="42.3899890" lon="-2.5167340">
        <ele>544.2</ele>
        <time>2022-06-27T06:28:40Z</time>
      </trkpt>
      <trkpt lat="42.3899720" lon="-2.5167710">
        <ele>544.4</ele>
        <time>2022-06-27T06:28:41Z</time>
      </trkpt>
      <trkpt lat="42.3899550" lon="-2.5168100">
        <ele>544.6</ele>
        <time>2022-06-27T06:28:42Z</time>
      </trkpt>
      <trkpt lat="42.3899390" lon="-2.5168460">
        <ele>544.6</ele>
        <time>2022-06-27T06:28:43Z</time>
      </trkpt>
      <trkpt lat="42.3899230" lon="-2.5168800">
        <ele>544.8</ele>
        <time>2022-06-27T06:28:44Z</time>
      </trkpt>
      <trkpt lat="42.3899060" lon="-2.5169170">
        <ele>545.2</ele>
        <time>2022-06-27T06:28:45Z</time>
      </trkpt>
      <trkpt lat="42.3898910" lon="-2.5169560">
        <ele>545.2</ele>
        <time>2022-06-27T06:28:46Z</time>
      </trkpt>
      <trkpt lat="42.3898740" lon="-2.5169980">
        <ele>545.4</ele>
        <time>2022-06-27T06:28:47Z</time>
      </trkpt>
      <trkpt lat="42.3898580" lon="-2.5170370">
        <ele>545.6</ele>
        <time>2022-06-27T06:28:48Z</time>
      </trkpt>
      <trkpt lat="42.3898420" lon="-2.5170760">
        <ele>546.0</ele>
        <time>2022-06-27T06:28:49Z</time>
      </trkpt>
      <trkpt lat="42.3898260" lon="-2.5171180">
        <ele>546.2</ele>
        <time>2022-06-27T06:28:50Z</time>
      </trkpt>
      <trkpt lat="42.3898110" lon="-2.5171610">
        <ele>546.6</ele>
        <time>2022-06-27T06:28:51Z</time>
      </trkpt>
      <trkpt lat="42.3897970" lon="-2.5172030">
        <ele>546.8</ele>
        <time>2022-06-27T06:28:52Z</time>
      </trkpt>
      <trkpt lat="42.3897810" lon="-2.5172470">
        <ele>547.0</ele>
        <time>2022-06-27T06:28:53Z</time>
      </trkpt>
      <trkpt lat="42.3897640" lon="-2.5172910">
        <ele>547.2</ele>
        <time>2022-06-27T06:28:54Z</time>
      </trkpt>
      <trkpt lat="42.3897480" lon="-2.5173320">
        <ele>547.4</ele>
        <time>2022-06-27T06:28:55Z</time>
      </trkpt>
      <trkpt lat="42.3897310" lon="-2.5173760">
        <ele>547.6</ele>
        <time>2022-06-27T06:28:56Z</time>
      </trkpt>
      <trkpt lat="42.3897160" lon="-2.5174210">
        <ele>547.8</ele>
        <time>2022-06-27T06:28:57Z</time>
      </trkpt>
      <trkpt lat="42.3897020" lon="-2.5174650">
        <ele>547.8</ele>
        <time>2022-06-27T06:28:58Z</time>
      </trkpt>
      <trkpt lat="42.3896880" lon="-2.5175100">
        <ele>548.0</ele>
        <time>2022-06-27T06:28:59Z</time>
      </trkpt>
      <trkpt lat="42.3896740" lon="-2.5175560">
        <ele>548.0</ele>
        <time>2022-06-27T06:29:00Z</time>
      </trkpt>
      <trkpt lat="42.3896570" lon="-2.5176040">
        <ele>548.2</ele>
        <time>2022-06-27T06:29:01Z</time>
      </trkpt>
      <trkpt lat="42.3896390" lon="-2.5176520">
        <ele>548.4</ele>
        <time>2022-06-27T06:29:02Z</time>
      </trkpt>
      <trkpt lat="42.3896240" lon="-2.5176990">
        <ele>548.4</ele>
        <time>2022-06-27T06:29:03Z</time>
      </trkpt>
      <trkpt lat="42.3896090" lon="-2.5177490">
        <ele>548.6</ele>
        <time>2022-06-27T06:29:04Z</time>
      </trkpt>
      <trkpt lat="42.3895950" lon="-2.5177990">
        <ele>548.8</ele>
        <time>2022-06-27T06:29:05Z</time>
      </trkpt>
      <trkpt lat="42.3895790" lon="-2.5178510">
        <ele>549.0</ele>
        <time>2022-06-27T06:29:06Z</time>
      </trkpt>
      <trkpt lat="42.3895610" lon="-2.5179030">
        <ele>549.2</ele>
        <time>2022-06-27T06:29:07Z</time>
      </trkpt>
      <trkpt lat="42.3895450" lon="-2.5179540">
        <ele>549.6</ele>
        <time>2022-06-27T06:29:08Z</time>
      </trkpt>
      <trkpt lat="42.3895280" lon="-2.5180090">
        <ele>549.6</ele>
        <time>2022-06-27T06:29:09Z</time>
      </trkpt>
      <trkpt lat="42.3895110" lon="-2.5180640">
        <ele>549.8</ele>
        <time>2022-06-27T06:29:10Z</time>
      </trkpt>
      <trkpt lat="42.3894960" lon="-2.5181190">
        <ele>549.8</ele>
        <time>2022-06-27T06:29:11Z</time>
      </trkpt>
      <trkpt lat="42.3894820" lon="-2.5181730">
        <ele>550.0</ele>
        <time>2022-06-27T06:29:12Z</time>
      </trkpt>
      <trkpt lat="42.3894650" lon="-2.5182260">
        <ele>550.0</ele>
        <time>2022-06-27T06:29:13Z</time>
      </trkpt>
      <trkpt lat="42.3894500" lon="-2.5182760">
        <ele>550.2</ele>
        <time>2022-06-27T06:29:14Z</time>
      </trkpt>
      <trkpt lat="42.3894340" lon="-2.5183290">
        <ele>550.2</ele>
        <time>2022-06-27T06:29:15Z</time>
      </trkpt>
      <trkpt lat="42.3894190" lon="-2.5183850">
        <ele>550.4</ele>
        <time>2022-06-27T06:29:16Z</time>
      </trkpt>
      <trkpt lat="42.3894060" lon="-2.5184430">
        <ele>550.6</ele>
        <time>2022-06-27T06:29:17Z</time>
      </trkpt>
      <trkpt lat="42.3893920" lon="-2.5185000">
        <ele>550.6</ele>
        <time>2022-06-27T06:29:18Z</time>
      </trkpt>
      <trkpt lat="42.3893790" lon="-2.5185610">
        <ele>550.8</ele>
        <time>2022-06-27T06:29:19Z</time>
      </trkpt>
      <trkpt lat="42.3893680" lon="-2.5186210">
        <ele>550.8</ele>
        <time>2022-06-27T06:29:20Z</time>
      </trkpt>
      <trkpt lat="42.3893580" lon="-2.5186830">
        <ele>551.0</ele>
        <time>2022-06-27T06:29:21Z</time>
      </trkpt>
      <trkpt lat="42.3893490" lon="-2.5187460">
        <ele>551.0</ele>
        <time>2022-06-27T06:29:22Z</time>
      </trkpt>
      <trkpt lat="42.3893420" lon="-2.5188110">
        <ele>551.2</ele>
        <time>2022-06-27T06:29:23Z</time>
      </trkpt>
      <trkpt lat="42.3893370" lon="-2.5188770">
        <ele>551.2</ele>
        <time>2022-06-27T06:29:24Z</time>
      </trkpt>
      <trkpt lat="42.3893330" lon="-2.5189410">
        <ele>551.2</ele>
        <time>2022-06-27T06:29:25Z</time>
      </trkpt>
      <trkpt lat="42.3893310" lon="-2.5190050">
        <ele>551.4</ele>
        <time>2022-06-27T06:29:26Z</time>
      </trkpt>
      <trkpt lat="42.3893280" lon="-2.5190690">
        <ele>551.6</ele>
        <time>2022-06-27T06:29:27Z</time>
      </trkpt>
      <trkpt lat="42.3893270" lon="-2.5191350">
        <ele>551.8</ele>
        <time>2022-06-27T06:29:28Z</time>
      </trkpt>
      <trkpt lat="42.3893240" lon="-2.5192000">
        <ele>552.0</ele>
        <time>2022-06-27T06:29:29Z</time>
      </trkpt>
      <trkpt lat="42.3893210" lon="-2.5192600">
        <ele>552.2</ele>
        <time>2022-06-27T06:29:30Z</time>
      </trkpt>
      <trkpt lat="42.3893190" lon="-2.5193190">
        <ele>552.4</ele>
        <time>2022-06-27T06:29:31Z</time>
      </trkpt>
      <trkpt lat="42.3893180" lon="-2.5193780">
        <ele>552.4</ele>
        <time>2022-06-27T06:29:32Z</time>
      </trkpt>
      <trkpt lat="42.3893180" lon="-2.5194370">
        <ele>552.4</ele>
        <time>2022-06-27T06:29:33Z</time>
      </trkpt>
      <trkpt lat="42.3893180" lon="-2.5194970">
        <ele>552.4</ele>
        <time>2022-06-27T06:29:34Z</time>
      </trkpt>
      <trkpt lat="42.3893180" lon="-2.5195590">
        <ele>552.6</ele>
        <time>2022-06-27T06:29:35Z</time>
      </trkpt>
      <trkpt lat="42.3893180" lon="-2.5196200">
        <ele>552.6</ele>
        <time>2022-06-27T06:29:36Z</time>
      </trkpt>
      <trkpt lat="42.3893180" lon="-2.5196820">
        <ele>552.6</ele>
        <time>2022-06-27T06:29:37Z</time>
      </trkpt>
      <trkpt lat="42.3893180" lon="-2.5197450">
        <ele>552.8</ele>
        <time>2022-06-27T06:29:38Z</time>
      </trkpt>
      <trkpt lat="42.3893180" lon="-2.5198070">
        <ele>552.8</ele>
        <time>2022-06-27T06:29:39Z</time>
      </trkpt>
      <trkpt lat="42.3893190" lon="-2.5198690">
        <ele>553.0</ele>
        <time>2022-06-27T06:29:40Z</time>
      </trkpt>
      <trkpt lat="42.3893200" lon="-2.5199320">
        <ele>553.2</ele>
        <time>2022-06-27T06:29:41Z</time>
      </trkpt>
      <trkpt lat="42.3893220" lon="-2.5199930">
        <ele>553.6</ele>
        <time>2022-06-27T06:29:42Z</time>
      </trkpt>
      <trkpt lat="42.3893210" lon="-2.5200540">
        <ele>553.6</ele>
        <time>2022-06-27T06:29:43Z</time>
      </trkpt>
      <trkpt lat="42.3893220" lon="-2.5201160">
        <ele>553.8</ele>
        <time>2022-06-27T06:29:44Z</time>
      </trkpt>
      <trkpt lat="42.3893230" lon="-2.5201790">
        <ele>553.8</ele>
        <time>2022-06-27T06:29:45Z</time>
      </trkpt>
      <trkpt lat="42.3893250" lon="-2.5202410">
        <ele>554.0</ele>
        <time>2022-06-27T06:29:46Z</time>
      </trkpt>
      <trkpt lat="42.3893280" lon="-2.5203030">
        <ele>554.0</ele>
        <time>2022-06-27T06:29:47Z</time>
      </trkpt>
      <trkpt lat="42.3893310" lon="-2.5203650">
        <ele>554.2</ele>
        <time>2022-06-27T06:29:48Z</time>
      </trkpt>
      <trkpt lat="42.3893340" lon="-2.5204270">
        <ele>554.2</ele>
        <time>2022-06-27T06:29:49Z</time>
      </trkpt>
      <trkpt lat="42.3893360" lon="-2.5204890">
        <ele>554.4</ele>
        <time>2022-06-27T06:29:50Z</time>
      </trkpt>
      <trkpt lat="42.3893370" lon="-2.5205540">
        <ele>554.4</ele>
        <time>2022-06-27T06:29:51Z</time>
      </trkpt>
      <trkpt lat="42.3893370" lon="-2.5206180">
        <ele>554.6</ele>
        <time>2022-06-27T06:29:52Z</time>
      </trkpt>
      <trkpt lat="42.3893380" lon="-2.5206820">
        <ele>554.6</ele>
        <time>2022-06-27T06:29:53Z</time>
      </trkpt>
      <trkpt lat="42.3893400" lon="-2.5207460">
        <ele>554.8</ele>
        <time>2022-06-27T06:29:54Z</time>
      </trkpt>
      <trkpt lat="42.3893420" lon="-2.5208100">
        <ele>555.0</ele>
        <time>2022-06-27T06:29:55Z</time>
      </trkpt>
      <trkpt lat="42.3893440" lon="-2.5208750">
        <ele>555.2</ele>
        <time>2022-06-27T06:29:56Z</time>
      </trkpt>
      <trkpt lat="42.3893460" lon="-2.5209400">
        <ele>555.2</ele>
        <time>2022-06-27T06:29:57Z</time>
      </trkpt>
      <trkpt lat="42.3893460" lon="-2.5210050">
        <ele>555.2</ele>
        <time>2022-06-27T06:29:58Z</time>
      </trkpt>
      <trkpt lat="42.3893480" lon="-2.5210670">
        <ele>555.4</ele>
        <time>2022-06-27T06:29:59Z</time>
      </trkpt>
      <trkpt lat="42.3893500" lon="-2.5211300">
        <ele>555.4</ele>
        <time>2022-06-27T06:30:00Z</time>
      </trkpt>
      <trkpt lat="42.3893520" lon="-2.5211930">
        <ele>555.4</ele>
        <time>2022-06-27T06:30:01Z</time>
      </trkpt>
      <trkpt lat="42.3893530" lon="-2.5212560">
        <ele>555.6</ele>
        <time>2022-06-27T06:30:02Z</time>
      </trkpt>
      <trkpt lat="42.3893530" lon="-2.5213200">
        <ele>555.6</ele>
        <time>2022-06-27T06:30:03Z</time>
      </trkpt>
      <trkpt lat="42.3893510" lon="-2.5213840">
        <ele>555.8</ele>
        <time>2022-06-27T06:30:04Z</time>
      </trkpt>
      <trkpt lat="42.3893490" lon="-2.5214480">
        <ele>556.0</ele>
        <time>2022-06-27T06:30:05Z</time>
      </trkpt>
      <trkpt lat="42.3893480" lon="-2.5215140">
        <ele>556.2</ele>
        <time>2022-06-27T06:30:06Z</time>
      </trkpt>
      <trkpt lat="42.3893490" lon="-2.5215770">
        <ele>556.2</ele>
        <time>2022-06-27T06:30:07Z</time>
      </trkpt>
      <trkpt lat="42.3893500" lon="-2.5216410">
        <ele>556.4</ele>
        <time>2022-06-27T06:30:08Z</time>
      </trkpt>
      <trkpt lat="42.3893520" lon="-2.5217060">
        <ele>556.4</ele>
        <time>2022-06-27T06:30:09Z</time>
      </trkpt>
      <trkpt lat="42.3893530" lon="-2.5217700">
        <ele>556.4</ele>
        <time>2022-06-27T06:30:10Z</time>
      </trkpt>
      <trkpt lat="42.3893550" lon="-2.5218350">
        <ele>556.4</ele>
        <time>2022-06-27T06:30:11Z</time>
      </trkpt>
      <trkpt lat="42.3893570" lon="-2.5218990">
        <ele>556.6</ele>
        <time>2022-06-27T06:30:12Z</time>
      </trkpt>
      <trkpt lat="42.3893580" lon="-2.5219610">
        <ele>556.6</ele>
        <time>2022-06-27T06:30:13Z</time>
      </trkpt>
      <trkpt lat="42.3893580" lon="-2.5220250">
        <ele>556.8</ele>
        <time>2022-06-27T06:30:14Z</time>
      </trkpt>
      <trkpt lat="42.3893580" lon="-2.5220870">
        <ele>557.0</ele>
        <time>2022-06-27T06:30:15Z</time>
      </trkpt>
      <trkpt lat="42.3893580" lon="-2.5221500">
        <ele>557.0</ele>
        <time>2022-06-27T06:30:16Z</time>
      </trkpt>
      <trkpt lat="42.3893600" lon="-2.5222120">
        <ele>557.2</ele>
        <time>2022-06-27T06:30:17Z</time>
      </trkpt>
      <trkpt lat="42.3893600" lon="-2.5222770">
        <ele>557.2</ele>
        <time>2022-06-27T06:30:18Z</time>
      </trkpt>
      <trkpt lat="42.3893600" lon="-2.5223400">
        <ele>557.4</ele>
        <time>2022-06-27T06:30:19Z</time>
      </trkpt>
      <trkpt lat="42.3893590" lon="-2.5224050">
        <ele>557.4</ele>
        <time>2022-06-27T06:30:20Z</time>
      </trkpt>
      <trkpt lat="42.3893570" lon="-2.5224700">
        <ele>557.6</ele>
        <time>2022-06-27T06:30:21Z</time>
      </trkpt>
      <trkpt lat="42.3893540" lon="-2.5225340">
        <ele>557.6</ele>
        <time>2022-06-27T06:30:22Z</time>
      </trkpt>
      <trkpt lat="42.3893530" lon="-2.5225990">
        <ele>557.4</ele>
        <time>2022-06-27T06:30:23Z</time>
      </trkpt>
      <trkpt lat="42.3893500" lon="-2.5226640">
        <ele>557.6</ele>
        <time>2022-06-27T06:30:24Z</time>
      </trkpt>
      <trkpt lat="42.3893480" lon="-2.5227300">
        <ele>557.6</ele>
        <time>2022-06-27T06:30:25Z</time>
      </trkpt>
      <trkpt lat="42.3893460" lon="-2.5227960">
        <ele>557.6</ele>
        <time>2022-06-27T06:30:26Z</time>
      </trkpt>
      <trkpt lat="42.3893440" lon="-2.5228590">
        <ele>557.6</ele>
        <time>2022-06-27T06:30:27Z</time>
      </trkpt>
      <trkpt lat="42.3893430" lon="-2.5229240">
        <ele>557.8</ele>
        <time>2022-06-27T06:30:28Z</time>
      </trkpt>
      <trkpt lat="42.3893410" lon="-2.5229900">
        <ele>557.8</ele>
        <time>2022-06-27T06:30:29Z</time>
      </trkpt>
      <trkpt lat="42.3893350" lon="-2.5230600">
        <ele>557.8</ele>
        <time>2022-06-27T06:30:30Z</time>
      </trkpt>
      <trkpt lat="42.3893290" lon="-2.5231300">
        <ele>557.8</ele>
        <time>2022-06-27T06:30:31Z</time>
      </trkpt>
      <trkpt lat="42.3893260" lon="-2.5231990">
        <ele>557.8</ele>
        <time>2022-06-27T06:30:32Z</time>
      </trkpt>
      <trkpt lat="42.3893210" lon="-2.5232710">
        <ele>557.8</ele>
        <time>2022-06-27T06:30:33Z</time>
      </trkpt>
      <trkpt lat="42.3893140" lon="-2.5233450">
        <ele>557.8</ele>
        <time>2022-06-27T06:30:34Z</time>
      </trkpt>
      <trkpt lat="42.3893080" lon="-2.5234220">
        <ele>557.8</ele>
        <time>2022-06-27T06:30:35Z</time>
      </trkpt>
      <trkpt lat="42.3893010" lon="-2.5235030">
        <ele>557.8</ele>
        <time>2022-06-27T06:30:36Z</time>
      </trkpt>
      <trkpt lat="42.3892950" lon="-2.5235850">
        <ele>557.6</ele>
        <time>2022-06-27T06:30:37Z</time>
      </trkpt>
      <trkpt lat="42.3892900" lon="-2.5236730">
        <ele>557.6</ele>
        <time>2022-06-27T06:30:38Z</time>
      </trkpt>
      <trkpt lat="42.3892840" lon="-2.5237650">
        <ele>557.6</ele>
        <time>2022-06-27T06:30:39Z</time>
      </trkpt>
      <trkpt lat="42.3892770" lon="-2.5238620">
        <ele>557.4</ele>
        <time>2022-06-27T06:30:40Z</time>
      </trkpt>
      <trkpt lat="42.3892680" lon="-2.5239560">
        <ele>557.2</ele>
        <time>2022-06-27T06:30:41Z</time>
      </trkpt>
      <trkpt lat="42.3892580" lon="-2.5240460">
        <ele>557.0</ele>
        <time>2022-06-27T06:30:42Z</time>
      </trkpt>
      <trkpt lat="42.3892490" lon="-2.5241270">
        <ele>556.8</ele>
        <time>2022-06-27T06:30:43Z</time>
      </trkpt>
      <trkpt lat="42.3892420" lon="-2.5242020">
        <ele>556.2</ele>
        <time>2022-06-27T06:30:44Z</time>
      </trkpt>
      <trkpt lat="42.3892330" lon="-2.5242760">
        <ele>555.6</ele>
        <time>2022-06-27T06:30:45Z</time>
      </trkpt>
      <trkpt lat="42.3892250" lon="-2.5243470">
        <ele>555.2</ele>
        <time>2022-06-27T06:30:46Z</time>
      </trkpt>
      <trkpt lat="42.3892190" lon="-2.5244110">
        <ele>554.8</ele>
        <time>2022-06-27T06:30:47Z</time>
      </trkpt>
      <trkpt lat="42.3892170" lon="-2.5244660">
        <ele>554.6</ele>
        <time>2022-06-27T06:30:48Z</time>
      </trkpt>
      <trkpt lat="42.3892150" lon="-2.5245130">
        <ele>554.0</ele>
        <time>2022-06-27T06:30:49Z</time>
      </trkpt>
      <trkpt lat="42.3892150" lon="-2.5245480">
        <ele>553.6</ele>
        <time>2022-06-27T06:30:50Z</time>
      </trkpt>
      <trkpt lat="42.3892140" lon="-2.5245750">
        <ele>552.8</ele>
        <time>2022-06-27T06:30:51Z</time>
      </trkpt>
      <trkpt lat="42.3892130" lon="-2.5245960">
        <ele>552.4</ele>
        <time>2022-06-27T06:30:52Z</time>
      </trkpt>
      <trkpt lat="42.3892130" lon="-2.5246180">
        <ele>552.2</ele>
        <time>2022-06-27T06:30:53Z</time>
      </trkpt>
      <trkpt lat="42.3892110" lon="-2.5246390">
        <ele>552.0</ele>
        <time>2022-06-27T06:30:54Z</time>
      </trkpt>
      <trkpt lat="42.3892110" lon="-2.5246540">
        <ele>551.8</ele>
        <time>2022-06-27T06:30:55Z</time>
      </trkpt>
      <trkpt lat="42.3892120" lon="-2.5246640">
        <ele>551.4</ele>
        <time>2022-06-27T06:30:56Z</time>
      </trkpt>
      <trkpt lat="42.3892110" lon="-2.5246690">
        <ele>551.2</ele>
        <time>2022-06-27T06:30:57Z</time>
      </trkpt>
      <trkpt lat="42.3892110" lon="-2.5246690">
        <ele>550.8</ele>
        <time>2022-06-27T06:30:58Z</time>
      </trkpt>
      <trkpt lat="42.3892060" lon="-2.5247180">
        <ele>550.0</ele>
        <time>2022-06-27T06:34:08Z</time>
      </trkpt>
      <trkpt lat="42.3892010" lon="-2.5247620">
        <ele>549.8</ele>
        <time>2022-06-27T06:34:09Z</time>
      </trkpt>
      <trkpt lat="42.3891970" lon="-2.5248110">
        <ele>549.6</ele>
        <time>2022-06-27T06:34:10Z</time>
      </trkpt>
      <trkpt lat="42.3891920" lon="-2.5248660">
        <ele>549.6</ele>
        <time>2022-06-27T06:34:11Z</time>
      </trkpt>
      <trkpt lat="42.3891860" lon="-2.5249280">
        <ele>549.4</ele>
        <time>2022-06-27T06:34:12Z</time>
      </trkpt>
      <trkpt lat="42.3891780" lon="-2.5249970">
        <ele>549.4</ele>
        <time>2022-06-27T06:34:13Z</time>
      </trkpt>
      <trkpt lat="42.3891690" lon="-2.5250740">
        <ele>549.2</ele>
        <time>2022-06-27T06:34:14Z</time>
      </trkpt>
      <trkpt lat="42.3891630" lon="-2.5251580">
        <ele>548.8</ele>
        <time>2022-06-27T06:34:15Z</time>
      </trkpt>
      <trkpt lat="42.3891550" lon="-2.5252490">
        <ele>548.8</ele>
        <time>2022-06-27T06:34:16Z</time>
      </trkpt>
      <trkpt lat="42.3891470" lon="-2.5253420">
        <ele>548.4</ele>
        <time>2022-06-27T06:34:17Z</time>
      </trkpt>
      <trkpt lat="42.3891390" lon="-2.5254400">
        <ele>548.2</ele>
        <time>2022-06-27T06:34:18Z</time>
      </trkpt>
      <trkpt lat="42.3891280" lon="-2.5255420">
        <ele>548.0</ele>
        <time>2022-06-27T06:34:19Z</time>
      </trkpt>
      <trkpt lat="42.3891190" lon="-2.5256460">
        <ele>547.8</ele>
        <time>2022-06-27T06:34:20Z</time>
      </trkpt>
      <trkpt lat="42.3891090" lon="-2.5257480">
        <ele>547.2</ele>
        <time>2022-06-27T06:34:21Z</time>
      </trkpt>
      <trkpt lat="42.3890900" lon="-2.5258490">
        <ele>546.8</ele>
        <time>2022-06-27T06:34:22Z</time>
      </trkpt>
      <trkpt lat="42.3890670" lon="-2.5259520">
        <ele>546.6</ele>
        <time>2022-06-27T06:34:23Z</time>
      </trkpt>
      <trkpt lat="42.3890450" lon="-2.5260550">
        <ele>546.2</ele>
        <time>2022-06-27T06:34:24Z</time>
      </trkpt>
      <trkpt lat="42.3890130" lon="-2.5261550">
        <ele>546.0</ele>
        <time>2022-06-27T06:34:25Z</time>
      </trkpt>
      <trkpt lat="42.3889780" lon="-2.5262620">
        <ele>545.8</ele>
        <time>2022-06-27T06:34:26Z</time>
      </trkpt>
      <trkpt lat="42.3889440" lon="-2.5263680">
        <ele>545.4</ele>
        <time>2022-06-27T06:34:27Z</time>
      </trkpt>
      <trkpt lat="42.3889090" lon="-2.5264740">
        <ele>545.0</ele>
        <time>2022-06-27T06:34:28Z</time>
      </trkpt>
      <trkpt lat="42.3888670" lon="-2.5265800">
        <ele>544.6</ele>
        <time>2022-06-27T06:34:29Z</time>
      </trkpt>
      <trkpt lat="42.3888310" lon="-2.5266840">
        <ele>544.6</ele>
        <time>2022-06-27T06:34:30Z</time>
      </trkpt>
      <trkpt lat="42.3888010" lon="-2.5267800">
        <ele>544.2</ele>
        <time>2022-06-27T06:34:31Z</time>
      </trkpt>
      <trkpt lat="42.3887710" lon="-2.5268810">
        <ele>544.2</ele>
        <time>2022-06-27T06:34:32Z</time>
      </trkpt>
      <trkpt lat="42.3887450" lon="-2.5269780">
        <ele>544.0</ele>
        <time>2022-06-27T06:34:33Z</time>
      </trkpt>
      <trkpt lat="42.3887150" lon="-2.5270680">
        <ele>543.8</ele>
        <time>2022-06-27T06:34:34Z</time>
      </trkpt>
      <trkpt lat="42.3886790" lon="-2.5271540">
        <ele>543.6</ele>
        <time>2022-06-27T06:34:35Z</time>
      </trkpt>
      <trkpt lat="42.3886430" lon="-2.5272370">
        <ele>543.2</ele>
        <time>2022-06-27T06:34:36Z</time>
      </trkpt>
      <trkpt lat="42.3886020" lon="-2.5273170">
        <ele>543.2</ele>
        <time>2022-06-27T06:34:37Z</time>
      </trkpt>
      <trkpt lat="42.3885600" lon="-2.5274000">
        <ele>543.0</ele>
        <time>2022-06-27T06:34:38Z</time>
      </trkpt>
      <trkpt lat="42.3885180" lon="-2.5274820">
        <ele>542.8</ele>
        <time>2022-06-27T06:34:39Z</time>
      </trkpt>
      <trkpt lat="42.3884740" lon="-2.5275640">
        <ele>542.8</ele>
        <time>2022-06-27T06:34:40Z</time>
      </trkpt>
      <trkpt lat="42.3884320" lon="-2.5276440">
        <ele>542.8</ele>
        <time>2022-06-27T06:34:41Z</time>
      </trkpt>
      <trkpt lat="42.3883900" lon="-2.5277210">
        <ele>542.6</ele>
        <time>2022-06-27T06:34:42Z</time>
      </trkpt>
      <trkpt lat="42.3883480" lon="-2.5278000">
        <ele>542.6</ele>
        <time>2022-06-27T06:34:43Z</time>
      </trkpt>
      <trkpt lat="42.3883090" lon="-2.5278800">
        <ele>542.6</ele>
        <time>2022-06-27T06:34:44Z</time>
      </trkpt>
      <trkpt lat="42.3882750" lon="-2.5279570">
        <ele>542.6</ele>
        <time>2022-06-27T06:34:45Z</time>
      </trkpt>
      <trkpt lat="42.3882400" lon="-2.5280320">
        <ele>542.6</ele>
        <time>2022-06-27T06:34:46Z</time>
      </trkpt>
      <trkpt lat="42.3882070" lon="-2.5281030">
        <ele>542.4</ele>
        <time>2022-06-27T06:34:47Z</time>
      </trkpt>
      <trkpt lat="42.3881730" lon="-2.5281730">
        <ele>542.4</ele>
        <time>2022-06-27T06:34:48Z</time>
      </trkpt>
      <trkpt lat="42.3881410" lon="-2.5282400">
        <ele>542.6</ele>
        <time>2022-06-27T06:34:49Z</time>
      </trkpt>
      <trkpt lat="42.3881090" lon="-2.5283060">
        <ele>542.6</ele>
        <time>2022-06-27T06:34:50Z</time>
      </trkpt>
      <trkpt lat="42.3880800" lon="-2.5283710">
        <ele>542.6</ele>
        <time>2022-06-27T06:34:51Z</time>
      </trkpt>
      <trkpt lat="42.3880590" lon="-2.5284350">
        <ele>542.6</ele>
        <time>2022-06-27T06:34:52Z</time>
      </trkpt>
      <trkpt lat="42.3880370" lon="-2.5285010">
        <ele>542.4</ele>
        <time>2022-06-27T06:34:53Z</time>
      </trkpt>
      <trkpt lat="42.3880190" lon="-2.5285680">
        <ele>542.4</ele>
        <time>2022-06-27T06:34:54Z</time>
      </trkpt>
      <trkpt lat="42.3880050" lon="-2.5286370">
        <ele>542.4</ele>
        <time>2022-06-27T06:34:55Z</time>
      </trkpt>
      <trkpt lat="42.3879940" lon="-2.5287060">
        <ele>542.4</ele>
        <time>2022-06-27T06:34:56Z</time>
      </trkpt>
      <trkpt lat="42.3879850" lon="-2.5287760">
        <ele>542.4</ele>
        <time>2022-06-27T06:34:57Z</time>
      </trkpt>
      <trkpt lat="42.3879790" lon="-2.5288440">
        <ele>542.4</ele>
        <time>2022-06-27T06:34:58Z</time>
      </trkpt>
      <trkpt lat="42.3879760" lon="-2.5289090">
        <ele>542.6</ele>
        <time>2022-06-27T06:34:59Z</time>
      </trkpt>
      <trkpt lat="42.3879770" lon="-2.5289750">
        <ele>542.6</ele>
        <time>2022-06-27T06:35:00Z</time>
      </trkpt>
      <trkpt lat="42.3879830" lon="-2.5290400">
        <ele>542.8</ele>
        <time>2022-06-27T06:35:01Z</time>
      </trkpt>
      <trkpt lat="42.3879910" lon="-2.5291010">
        <ele>542.8</ele>
        <time>2022-06-27T06:35:02Z</time>
      </trkpt>
      <trkpt lat="42.3880000" lon="-2.5291600">
        <ele>543.0</ele>
        <time>2022-06-27T06:35:03Z</time>
      </trkpt>
      <trkpt lat="42.3880090" lon="-2.5292160">
        <ele>543.0</ele>
        <time>2022-06-27T06:35:04Z</time>
      </trkpt>
      <trkpt lat="42.3880200" lon="-2.5292650">
        <ele>543.0</ele>
        <time>2022-06-27T06:35:05Z</time>
      </trkpt>
      <trkpt lat="42.3880280" lon="-2.5293140">
        <ele>543.4</ele>
        <time>2022-06-27T06:35:06Z</time>
      </trkpt>
      <trkpt lat="42.3880370" lon="-2.5293590">
        <ele>543.6</ele>
        <time>2022-06-27T06:35:07Z</time>
      </trkpt>
      <trkpt lat="42.3880460" lon="-2.5294050">
        <ele>543.8</ele>
        <time>2022-06-27T06:35:08Z</time>
      </trkpt>
      <trkpt lat="42.3880510" lon="-2.5294520">
        <ele>544.0</ele>
        <time>2022-06-27T06:35:09Z</time>
      </trkpt>
      <trkpt lat="42.3880540" lon="-2.5294850">
        <ele>544.4</ele>
        <time>2022-06-27T06:35:10Z</time>
      </trkpt>
      <trkpt lat="42.3880590" lon="-2.5295360">
        <ele>544.4</ele>
        <time>2022-06-27T06:35:11Z</time>
      </trkpt>
      <trkpt lat="42.3880610" lon="-2.5295760">
        <ele>544.8</ele>
        <time>2022-06-27T06:35:12Z</time>
      </trkpt>
      <trkpt lat="42.3880560" lon="-2.5296160">
        <ele>545.2</ele>
        <time>2022-06-27T06:35:13Z</time>
      </trkpt>
      <trkpt lat="42.3880490" lon="-2.5296570">
        <ele>545.2</ele>
        <time>2022-06-27T06:35:14Z</time>
      </trkpt>
      <trkpt lat="42.3880370" lon="-2.5296930">
        <ele>545.6</ele>
        <time>2022-06-27T06:35:15Z</time>
      </trkpt>
      <trkpt lat="42.3880250" lon="-2.5297300">
        <ele>545.6</ele>
        <time>2022-06-27T06:35:16Z</time>
      </trkpt>
      <trkpt lat="42.3880130" lon="-2.5297660">
        <ele>546.0</ele>
        <time>2022-06-27T06:35:17Z</time>
      </trkpt>
      <trkpt lat="42.3880010" lon="-2.5297990">
        <ele>546.2</ele>
        <time>2022-06-27T06:35:18Z</time>
      </trkpt>
      <trkpt lat="42.3880080" lon="-2.5298350">
        <ele>546.2</ele>
        <time>2022-06-27T06:35:19Z</time>
      </trkpt>
      <trkpt lat="42.3880170" lon="-2.5298760">
        <ele>546.4</ele>
        <time>2022-06-27T06:35:20Z</time>
      </trkpt>
      <trkpt lat="42.3880320" lon="-2.5299170">
        <ele>546.6</ele>
        <time>2022-06-27T06:35:21Z</time>
      </trkpt>
      <trkpt lat="42.3880410" lon="-2.5299550">
        <ele>547.0</ele>
        <time>2022-06-27T06:35:22Z</time>
      </trkpt>
      <trkpt lat="42.3880510" lon="-2.5299930">
        <ele>547.0</ele>
        <time>2022-06-27T06:35:23Z</time>
      </trkpt>
      <trkpt lat="42.3880650" lon="-2.5300270">
        <ele>547.2</ele>
        <time>2022-06-27T06:35:24Z</time>
      </trkpt>
      <trkpt lat="42.3880770" lon="-2.5300560">
        <ele>547.4</ele>
        <time>2022-06-27T06:35:25Z</time>
      </trkpt>
      <trkpt lat="42.3881000" lon="-2.5300790">
        <ele>547.6</ele>
        <time>2022-06-27T06:35:26Z</time>
      </trkpt>
      <trkpt lat="42.3881360" lon="-2.5301040">
        <ele>547.8</ele>
        <time>2022-06-27T06:35:27Z</time>
      </trkpt>
      <trkpt lat="42.3881820" lon="-2.5301270">
        <ele>547.8</ele>
        <time>2022-06-27T06:35:28Z</time>
      </trkpt>
      <trkpt lat="42.3882370" lon="-2.5301490">
        <ele>548.0</ele>
        <time>2022-06-27T06:35:29Z</time>
      </trkpt>
      <trkpt lat="42.3883000" lon="-2.5301690">
        <ele>548.0</ele>
        <time>2022-06-27T06:35:30Z</time>
      </trkpt>
      <trkpt lat="42.3883640" lon="-2.5301920">
        <ele>548.0</ele>
        <time>2022-06-27T06:35:31Z</time>
      </trkpt>
      <trkpt lat="42.3884240" lon="-2.5302140">
        <ele>548.0</ele>
        <time>2022-06-27T06:35:32Z</time>
      </trkpt>
      <trkpt lat="42.3884690" lon="-2.5302310">
        <ele>548.0</ele>
        <time>2022-06-27T06:35:33Z</time>
      </trkpt>
      <trkpt lat="42.3885340" lon="-2.5302470">
        <ele>548.0</ele>
        <time>2022-06-27T06:35:34Z</time>
      </trkpt>
      <trkpt lat="42.3885970" lon="-2.5302660">
        <ele>547.8</ele>
        <time>2022-06-27T06:35:35Z</time>
      </trkpt>
      <trkpt lat="42.3886690" lon="-2.5302890">
        <ele>547.4</ele>
        <time>2022-06-27T06:35:36Z</time>
      </trkpt>
      <trkpt lat="42.3887460" lon="-2.5303170">
        <ele>547.2</ele>
        <time>2022-06-27T06:35:37Z</time>
      </trkpt>
      <trkpt lat="42.3888330" lon="-2.5303430">
        <ele>546.6</ele>
        <time>2022-06-27T06:35:38Z</time>
      </trkpt>
      <trkpt lat="42.3889170" lon="-2.5303640">
        <ele>546.4</ele>
        <time>2022-06-27T06:35:39Z</time>
      </trkpt>
      <trkpt lat="42.3889960" lon="-2.5303840">
        <ele>546.2</ele>
        <time>2022-06-27T06:35:40Z</time>
      </trkpt>
      <trkpt lat="42.3890870" lon="-2.5304080">
        <ele>546.0</ele>
        <time>2022-06-27T06:35:41Z</time>
      </trkpt>
      <trkpt lat="42.3891620" lon="-2.5304210">
        <ele>545.8</ele>
        <time>2022-06-27T06:35:42Z</time>
      </trkpt>
      <trkpt lat="42.3892500" lon="-2.5304410">
        <ele>545.6</ele>
        <time>2022-06-27T06:35:43Z</time>
      </trkpt>
      <trkpt lat="42.3893420" lon="-2.5304640">
        <ele>545.4</ele>
        <time>2022-06-27T06:35:44Z</time>
      </trkpt>
      <trkpt lat="42.3894280" lon="-2.5304890">
        <ele>545.0</ele>
        <time>2022-06-27T06:35:45Z</time>
      </trkpt>
      <trkpt lat="42.3895050" lon="-2.5305060">
        <ele>544.8</ele>
        <time>2022-06-27T06:35:46Z</time>
      </trkpt>
      <trkpt lat="42.3896070" lon="-2.5305240">
        <ele>544.4</ele>
        <time>2022-06-27T06:35:47Z</time>
      </trkpt>
      <trkpt lat="42.3897040" lon="-2.5305350">
        <ele>544.2</ele>
        <time>2022-06-27T06:35:48Z</time>
      </trkpt>
      <trkpt lat="42.3898000" lon="-2.5305450">
        <ele>543.8</ele>
        <time>2022-06-27T06:35:49Z</time>
      </trkpt>
      <trkpt lat="42.3898940" lon="-2.5305600">
        <ele>543.0</ele>
        <time>2022-06-27T06:35:50Z</time>
      </trkpt>
      <trkpt lat="42.3899920" lon="-2.5305900">
        <ele>542.4</ele>
        <time>2022-06-27T06:35:51Z</time>
      </trkpt>
      <trkpt lat="42.3900870" lon="-2.5306270">
        <ele>541.6</ele>
        <time>2022-06-27T06:35:52Z</time>
      </trkpt>
      <trkpt lat="42.3901860" lon="-2.5306800">
        <ele>541.4</ele>
        <time>2022-06-27T06:35:53Z</time>
      </trkpt>
      <trkpt lat="42.3902750" lon="-2.5307520">
        <ele>541.0</ele>
        <time>2022-06-27T06:35:54Z</time>
      </trkpt>
      <trkpt lat="42.3903550" lon="-2.5308420">
        <ele>541.0</ele>
        <time>2022-06-27T06:35:55Z</time>
      </trkpt>
      <trkpt lat="42.3904300" lon="-2.5309710">
        <ele>540.4</ele>
        <time>2022-06-27T06:35:56Z</time>
      </trkpt>
      <trkpt lat="42.3904520" lon="-2.5310950">
        <ele>540.0</ele>
        <time>2022-06-27T06:35:57Z</time>
      </trkpt>
      <trkpt lat="42.3904850" lon="-2.5312400">
        <ele>539.2</ele>
        <time>2022-06-27T06:35:58Z</time>
      </trkpt>
      <trkpt lat="42.3904820" lon="-2.5313920">
        <ele>538.4</ele>
        <time>2022-06-27T06:35:59Z</time>
      </trkpt>
      <trkpt lat="42.3904720" lon="-2.5315470">
        <ele>538.0</ele>
        <time>2022-06-27T06:36:00Z</time>
      </trkpt>
      <trkpt lat="42.3904560" lon="-2.5317040">
        <ele>537.4</ele>
        <time>2022-06-27T06:36:01Z</time>
      </trkpt>
      <trkpt lat="42.3904320" lon="-2.5318610">
        <ele>536.8</ele>
        <time>2022-06-27T06:36:02Z</time>
      </trkpt>
      <trkpt lat="42.3904070" lon="-2.5320200">
        <ele>536.0</ele>
        <time>2022-06-27T06:36:03Z</time>
      </trkpt>
      <trkpt lat="42.3903870" lon="-2.5321440">
        <ele>535.2</ele>
        <time>2022-06-27T06:36:04Z</time>
      </trkpt>
      <trkpt lat="42.3903570" lon="-2.5323300">
        <ele>534.4</ele>
        <time>2022-06-27T06:36:05Z</time>
      </trkpt>
      <trkpt lat="42.3903350" lon="-2.5324840">
        <ele>533.6</ele>
        <time>2022-06-27T06:36:06Z</time>
      </trkpt>
      <trkpt lat="42.3903130" lon="-2.5326360">
        <ele>532.8</ele>
        <time>2022-06-27T06:36:07Z</time>
      </trkpt>
      <trkpt lat="42.3902910" lon="-2.5327860">
        <ele>531.8</ele>
        <time>2022-06-27T06:36:08Z</time>
      </trkpt>
      <trkpt lat="42.3902670" lon="-2.5329310">
        <ele>531.4</ele>
        <time>2022-06-27T06:36:09Z</time>
      </trkpt>
      <trkpt lat="42.3902440" lon="-2.5330770">
        <ele>530.8</ele>
        <time>2022-06-27T06:36:10Z</time>
      </trkpt>
      <trkpt lat="42.3902220" lon="-2.5332200">
        <ele>530.4</ele>
        <time>2022-06-27T06:36:11Z</time>
      </trkpt>
      <trkpt lat="42.3902000" lon="-2.5333600">
        <ele>529.6</ele>
        <time>2022-06-27T06:36:12Z</time>
      </trkpt>
      <trkpt lat="42.3901830" lon="-2.5334690">
        <ele>529.2</ele>
        <time>2022-06-27T06:36:13Z</time>
      </trkpt>
      <trkpt lat="42.3901630" lon="-2.5336040">
        <ele>528.8</ele>
        <time>2022-06-27T06:36:14Z</time>
      </trkpt>
      <trkpt lat="42.3901450" lon="-2.5337340">
        <ele>528.4</ele>
        <time>2022-06-27T06:36:15Z</time>
      </trkpt>
      <trkpt lat="42.3901250" lon="-2.5338610">
        <ele>528.2</ele>
        <time>2022-06-27T06:36:16Z</time>
      </trkpt>
      <trkpt lat="42.3901060" lon="-2.5339870">
        <ele>527.6</ele>
        <time>2022-06-27T06:36:17Z</time>
      </trkpt>
      <trkpt lat="42.3900880" lon="-2.5341140">
        <ele>527.4</ele>
        <time>2022-06-27T06:36:18Z</time>
      </trkpt>
      <trkpt lat="42.3900750" lon="-2.5342400">
        <ele>527.0</ele>
        <time>2022-06-27T06:36:19Z</time>
      </trkpt>
      <trkpt lat="42.3900660" lon="-2.5343640">
        <ele>526.6</ele>
        <time>2022-06-27T06:36:20Z</time>
      </trkpt>
      <trkpt lat="42.3900620" lon="-2.5344890">
        <ele>526.2</ele>
        <time>2022-06-27T06:36:21Z</time>
      </trkpt>
      <trkpt lat="42.3900660" lon="-2.5346140">
        <ele>525.6</ele>
        <time>2022-06-27T06:36:22Z</time>
      </trkpt>
      <trkpt lat="42.3900800" lon="-2.5347360">
        <ele>525.4</ele>
        <time>2022-06-27T06:36:23Z</time>
      </trkpt>
      <trkpt lat="42.3901050" lon="-2.5348530">
        <ele>525.0</ele>
        <time>2022-06-27T06:36:24Z</time>
      </trkpt>
      <trkpt lat="42.3901360" lon="-2.5349670">
        <ele>524.8</ele>
        <time>2022-06-27T06:36:25Z</time>
      </trkpt>
      <trkpt lat="42.3901760" lon="-2.5350730">
        <ele>524.4</ele>
        <time>2022-06-27T06:36:26Z</time>
      </trkpt>
      <trkpt lat="42.3902190" lon="-2.5351720">
        <ele>524.2</ele>
        <time>2022-06-27T06:36:27Z</time>
      </trkpt>
      <trkpt lat="42.3902630" lon="-2.5352660">
        <ele>523.8</ele>
        <time>2022-06-27T06:36:28Z</time>
      </trkpt>
      <trkpt lat="42.3903100" lon="-2.5353520">
        <ele>523.6</ele>
        <time>2022-06-27T06:36:29Z</time>
      </trkpt>
      <trkpt lat="42.3903620" lon="-2.5354290">
        <ele>523.6</ele>
        <time>2022-06-27T06:36:30Z</time>
      </trkpt>
      <trkpt lat="42.3904150" lon="-2.5355050">
        <ele>523.4</ele>
        <time>2022-06-27T06:36:31Z</time>
      </trkpt>
      <trkpt lat="42.3904710" lon="-2.5355750">
        <ele>523.4</ele>
        <time>2022-06-27T06:36:32Z</time>
      </trkpt>
      <trkpt lat="42.3905320" lon="-2.5356390">
        <ele>523.4</ele>
        <time>2022-06-27T06:36:33Z</time>
      </trkpt>
      <trkpt lat="42.3905950" lon="-2.5356960">
        <ele>523.4</ele>
        <time>2022-06-27T06:36:34Z</time>
      </trkpt>
      <trkpt lat="42.3906570" lon="-2.5357460">
        <ele>523.4</ele>
        <time>2022-06-27T06:36:35Z</time>
      </trkpt>
      <trkpt lat="42.3907200" lon="-2.5357890">
        <ele>523.4</ele>
        <time>2022-06-27T06:36:36Z</time>
      </trkpt>
      <trkpt lat="42.3907860" lon="-2.5358240">
        <ele>523.4</ele>
        <time>2022-06-27T06:36:37Z</time>
      </trkpt>
      <trkpt lat="42.3908530" lon="-2.5358530">
        <ele>523.4</ele>
        <time>2022-06-27T06:36:38Z</time>
      </trkpt>
      <trkpt lat="42.3909200" lon="-2.5358770">
        <ele>523.4</ele>
        <time>2022-06-27T06:36:39Z</time>
      </trkpt>
      <trkpt lat="42.3909870" lon="-2.5359000">
        <ele>523.4</ele>
        <time>2022-06-27T06:36:40Z</time>
      </trkpt>
      <trkpt lat="42.3910660" lon="-2.5359240">
        <ele>523.4</ele>
        <time>2022-06-27T06:36:41Z</time>
      </trkpt>
      <trkpt lat="42.3911190" lon="-2.5359400">
        <ele>523.4</ele>
        <time>2022-06-27T06:36:42Z</time>
      </trkpt>
      <trkpt lat="42.3911850" lon="-2.5359580">
        <ele>523.6</ele>
        <time>2022-06-27T06:36:43Z</time>
      </trkpt>
      <trkpt lat="42.3912640" lon="-2.5359770">
        <ele>523.6</ele>
        <time>2022-06-27T06:36:44Z</time>
      </trkpt>
      <trkpt lat="42.3913290" lon="-2.5359990">
        <ele>523.6</ele>
        <time>2022-06-27T06:36:45Z</time>
      </trkpt>
      <trkpt lat="42.3913940" lon="-2.5360220">
        <ele>523.8</ele>
        <time>2022-06-27T06:36:46Z</time>
      </trkpt>
      <trkpt lat="42.3914590" lon="-2.5360450">
        <ele>524.0</ele>
        <time>2022-06-27T06:36:47Z</time>
      </trkpt>
      <trkpt lat="42.3915240" lon="-2.5360670">
        <ele>524.0</ele>
        <time>2022-06-27T06:36:48Z</time>
      </trkpt>
      <trkpt lat="42.3915880" lon="-2.5360880">
        <ele>524.2</ele>
        <time>2022-06-27T06:36:49Z</time>
      </trkpt>
      <trkpt lat="42.3916500" lon="-2.5361050">
        <ele>524.2</ele>
        <time>2022-06-27T06:36:50Z</time>
      </trkpt>
      <trkpt lat="42.3917160" lon="-2.5361250">
        <ele>524.2</ele>
        <time>2022-06-27T06:36:51Z</time>
      </trkpt>
      <trkpt lat="42.3917810" lon="-2.5361440">
        <ele>524.4</ele>
        <time>2022-06-27T06:36:52Z</time>
      </trkpt>
      <trkpt lat="42.3918470" lon="-2.5361630">
        <ele>524.4</ele>
        <time>2022-06-27T06:36:53Z</time>
      </trkpt>
      <trkpt lat="42.3919150" lon="-2.5361840">
        <ele>524.4</ele>
        <time>2022-06-27T06:36:54Z</time>
      </trkpt>
      <trkpt lat="42.3919840" lon="-2.5362050">
        <ele>524.4</ele>
        <time>2022-06-27T06:36:55Z</time>
      </trkpt>
      <trkpt lat="42.3920380" lon="-2.5362230">
        <ele>524.4</ele>
        <time>2022-06-27T06:36:56Z</time>
      </trkpt>
      <trkpt lat="42.3921040" lon="-2.5362480">
        <ele>524.6</ele>
        <time>2022-06-27T06:36:57Z</time>
      </trkpt>
      <trkpt lat="42.3921690" lon="-2.5362740">
        <ele>524.6</ele>
        <time>2022-06-27T06:36:58Z</time>
      </trkpt>
      <trkpt lat="42.3922350" lon="-2.5362970">
        <ele>524.8</ele>
        <time>2022-06-27T06:36:59Z</time>
      </trkpt>
      <trkpt lat="42.3923000" lon="-2.5363200">
        <ele>524.8</ele>
        <time>2022-06-27T06:37:00Z</time>
      </trkpt>
      <trkpt lat="42.3923670" lon="-2.5363440">
        <ele>525.0</ele>
        <time>2022-06-27T06:37:01Z</time>
      </trkpt>
      <trkpt lat="42.3924340" lon="-2.5363690">
        <ele>525.0</ele>
        <time>2022-06-27T06:37:02Z</time>
      </trkpt>
      <trkpt lat="42.3924980" lon="-2.5363970">
        <ele>525.2</ele>
        <time>2022-06-27T06:37:03Z</time>
      </trkpt>
      <trkpt lat="42.3925650" lon="-2.5364270">
        <ele>525.2</ele>
        <time>2022-06-27T06:37:04Z</time>
      </trkpt>
      <trkpt lat="42.3926330" lon="-2.5364540">
        <ele>525.2</ele>
        <time>2022-06-27T06:37:05Z</time>
      </trkpt>
      <trkpt lat="42.3927010" lon="-2.5364820">
        <ele>525.2</ele>
        <time>2022-06-27T06:37:06Z</time>
      </trkpt>
      <trkpt lat="42.3927810" lon="-2.5365210">
        <ele>525.2</ele>
        <time>2022-06-27T06:37:07Z</time>
      </trkpt>
      <trkpt lat="42.3928480" lon="-2.5365500">
        <ele>525.2</ele>
        <time>2022-06-27T06:37:08Z</time>
      </trkpt>
      <trkpt lat="42.3929160" lon="-2.5365820">
        <ele>525.4</ele>
        <time>2022-06-27T06:37:09Z</time>
      </trkpt>
      <trkpt lat="42.3929840" lon="-2.5366120">
        <ele>525.4</ele>
        <time>2022-06-27T06:37:10Z</time>
      </trkpt>
      <trkpt lat="42.3930370" lon="-2.5366360">
        <ele>525.4</ele>
        <time>2022-06-27T06:37:11Z</time>
      </trkpt>
      <trkpt lat="42.3931040" lon="-2.5366670">
        <ele>525.6</ele>
        <time>2022-06-27T06:37:12Z</time>
      </trkpt>
      <trkpt lat="42.3931850" lon="-2.5367040">
        <ele>525.6</ele>
        <time>2022-06-27T06:37:13Z</time>
      </trkpt>
      <trkpt lat="42.3932550" lon="-2.5367350">
        <ele>525.6</ele>
        <time>2022-06-27T06:37:14Z</time>
      </trkpt>
      <trkpt lat="42.3933260" lon="-2.5367670">
        <ele>525.6</ele>
        <time>2022-06-27T06:37:15Z</time>
      </trkpt>
      <trkpt lat="42.3933970" lon="-2.5367960">
        <ele>525.6</ele>
        <time>2022-06-27T06:37:16Z</time>
      </trkpt>
      <trkpt lat="42.3934520" lon="-2.5368190">
        <ele>525.6</ele>
        <time>2022-06-27T06:37:17Z</time>
      </trkpt>
      <trkpt lat="42.3935380" lon="-2.5368550">
        <ele>525.6</ele>
        <time>2022-06-27T06:37:18Z</time>
      </trkpt>
      <trkpt lat="42.3936090" lon="-2.5368830">
        <ele>525.6</ele>
        <time>2022-06-27T06:37:19Z</time>
      </trkpt>
      <trkpt lat="42.3936830" lon="-2.5369110">
        <ele>525.6</ele>
        <time>2022-06-27T06:37:20Z</time>
      </trkpt>
      <trkpt lat="42.3937560" lon="-2.5369390">
        <ele>525.6</ele>
        <time>2022-06-27T06:37:21Z</time>
      </trkpt>
      <trkpt lat="42.3938300" lon="-2.5369680">
        <ele>525.4</ele>
        <time>2022-06-27T06:37:22Z</time>
      </trkpt>
      <trkpt lat="42.3939040" lon="-2.5369970">
        <ele>525.4</ele>
        <time>2022-06-27T06:37:23Z</time>
      </trkpt>
      <trkpt lat="42.3939780" lon="-2.5370250">
        <ele>525.2</ele>
        <time>2022-06-27T06:37:24Z</time>
      </trkpt>
      <trkpt lat="42.3940530" lon="-2.5370510">
        <ele>525.2</ele>
        <time>2022-06-27T06:37:25Z</time>
      </trkpt>
      <trkpt lat="42.3941320" lon="-2.5370750">
        <ele>525.2</ele>
        <time>2022-06-27T06:37:26Z</time>
      </trkpt>
      <trkpt lat="42.3942080" lon="-2.5371030">
        <ele>525.2</ele>
        <time>2022-06-27T06:37:27Z</time>
      </trkpt>
      <trkpt lat="42.3942860" lon="-2.5371290">
        <ele>525.2</ele>
        <time>2022-06-27T06:37:28Z</time>
      </trkpt>
      <trkpt lat="42.3943640" lon="-2.5371570">
        <ele>525.2</ele>
        <time>2022-06-27T06:37:29Z</time>
      </trkpt>
      <trkpt lat="42.3944420" lon="-2.5371850">
        <ele>525.0</ele>
        <time>2022-06-27T06:37:30Z</time>
      </trkpt>
      <trkpt lat="42.3945060" lon="-2.5372100">
        <ele>525.0</ele>
        <time>2022-06-27T06:37:31Z</time>
      </trkpt>
      <trkpt lat="42.3946010" lon="-2.5372480">
        <ele>525.0</ele>
        <time>2022-06-27T06:37:32Z</time>
      </trkpt>
      <trkpt lat="42.3946810" lon="-2.5372820">
        <ele>524.8</ele>
        <time>2022-06-27T06:37:33Z</time>
      </trkpt>
      <trkpt lat="42.3947590" lon="-2.5373180">
        <ele>524.6</ele>
        <time>2022-06-27T06:37:34Z</time>
      </trkpt>
      <trkpt lat="42.3948380" lon="-2.5373570">
        <ele>524.6</ele>
        <time>2022-06-27T06:37:35Z</time>
      </trkpt>
      <trkpt lat="42.3949130" lon="-2.5374040">
        <ele>524.2</ele>
        <time>2022-06-27T06:37:36Z</time>
      </trkpt>
      <trkpt lat="42.3949880" lon="-2.5374580">
        <ele>524.2</ele>
        <time>2022-06-27T06:37:37Z</time>
      </trkpt>
      <trkpt lat="42.3950610" lon="-2.5375150">
        <ele>524.0</ele>
        <time>2022-06-27T06:37:38Z</time>
      </trkpt>
      <trkpt lat="42.3951330" lon="-2.5375780">
        <ele>523.8</ele>
        <time>2022-06-27T06:37:39Z</time>
      </trkpt>
      <trkpt lat="42.3952040" lon="-2.5376430">
        <ele>523.6</ele>
        <time>2022-06-27T06:37:40Z</time>
      </trkpt>
      <trkpt lat="42.3952750" lon="-2.5377090">
        <ele>523.6</ele>
        <time>2022-06-27T06:37:41Z</time>
      </trkpt>
      <trkpt lat="42.3953440" lon="-2.5377770">
        <ele>523.2</ele>
        <time>2022-06-27T06:37:42Z</time>
      </trkpt>
      <trkpt lat="42.3954130" lon="-2.5378420">
        <ele>523.0</ele>
        <time>2022-06-27T06:37:43Z</time>
      </trkpt>
      <trkpt lat="42.3954800" lon="-2.5379080">
        <ele>523.0</ele>
        <time>2022-06-27T06:37:44Z</time>
      </trkpt>
      <trkpt lat="42.3955460" lon="-2.5379750">
        <ele>523.0</ele>
        <time>2022-06-27T06:37:45Z</time>
      </trkpt>
      <trkpt lat="42.3956130" lon="-2.5380420">
        <ele>523.0</ele>
        <time>2022-06-27T06:37:46Z</time>
      </trkpt>
      <trkpt lat="42.3956800" lon="-2.5381080">
        <ele>522.8</ele>
        <time>2022-06-27T06:37:47Z</time>
      </trkpt>
      <trkpt lat="42.3957460" lon="-2.5381740">
        <ele>522.8</ele>
        <time>2022-06-27T06:37:48Z</time>
      </trkpt>
      <trkpt lat="42.3958140" lon="-2.5382380">
        <ele>522.6</ele>
        <time>2022-06-27T06:37:49Z</time>
      </trkpt>
      <trkpt lat="42.3958820" lon="-2.5382990">
        <ele>522.6</ele>
        <time>2022-06-27T06:37:50Z</time>
      </trkpt>
      <trkpt lat="42.3959510" lon="-2.5383590">
        <ele>522.6</ele>
        <time>2022-06-27T06:37:51Z</time>
      </trkpt>
      <trkpt lat="42.3960210" lon="-2.5384200">
        <ele>522.4</ele>
        <time>2022-06-27T06:37:52Z</time>
      </trkpt>
      <trkpt lat="42.3960910" lon="-2.5384800">
        <ele>522.4</ele>
        <time>2022-06-27T06:37:53Z</time>
      </trkpt>
      <trkpt lat="42.3961490" lon="-2.5385250">
        <ele>522.2</ele>
        <time>2022-06-27T06:37:54Z</time>
      </trkpt>
      <trkpt lat="42.3962230" lon="-2.5385770">
        <ele>522.2</ele>
        <time>2022-06-27T06:37:55Z</time>
      </trkpt>
      <trkpt lat="42.3963120" lon="-2.5386320">
        <ele>522.0</ele>
        <time>2022-06-27T06:37:56Z</time>
      </trkpt>
      <trkpt lat="42.3963890" lon="-2.5386730">
        <ele>522.0</ele>
        <time>2022-06-27T06:37:57Z</time>
      </trkpt>
      <trkpt lat="42.3964690" lon="-2.5387110">
        <ele>522.0</ele>
        <time>2022-06-27T06:37:58Z</time>
      </trkpt>
      <trkpt lat="42.3965490" lon="-2.5387420">
        <ele>522.0</ele>
        <time>2022-06-27T06:37:59Z</time>
      </trkpt>
      <trkpt lat="42.3966310" lon="-2.5387690">
        <ele>521.8</ele>
        <time>2022-06-27T06:38:00Z</time>
      </trkpt>
      <trkpt lat="42.3967140" lon="-2.5387910">
        <ele>521.8</ele>
        <time>2022-06-27T06:38:01Z</time>
      </trkpt>
      <trkpt lat="42.3967980" lon="-2.5388090">
        <ele>521.8</ele>
        <time>2022-06-27T06:38:02Z</time>
      </trkpt>
      <trkpt lat="42.3968830" lon="-2.5388170">
        <ele>521.6</ele>
        <time>2022-06-27T06:38:03Z</time>
      </trkpt>
      <trkpt lat="42.3969490" lon="-2.5388200">
        <ele>521.6</ele>
        <time>2022-06-27T06:38:04Z</time>
      </trkpt>
      <trkpt lat="42.3970320" lon="-2.5388230">
        <ele>521.4</ele>
        <time>2022-06-27T06:38:05Z</time>
      </trkpt>
      <trkpt lat="42.3971280" lon="-2.5388200">
        <ele>521.2</ele>
        <time>2022-06-27T06:38:06Z</time>
      </trkpt>
      <trkpt lat="42.3972080" lon="-2.5388180">
        <ele>521.2</ele>
        <time>2022-06-27T06:38:07Z</time>
      </trkpt>
      <trkpt lat="42.3972890" lon="-2.5388140">
        <ele>521.0</ele>
        <time>2022-06-27T06:38:08Z</time>
      </trkpt>
      <trkpt lat="42.3973700" lon="-2.5388110">
        <ele>520.8</ele>
        <time>2022-06-27T06:38:09Z</time>
      </trkpt>
      <trkpt lat="42.3974480" lon="-2.5388190">
        <ele>520.8</ele>
        <time>2022-06-27T06:38:10Z</time>
      </trkpt>
      <trkpt lat="42.3975220" lon="-2.5388390">
        <ele>520.8</ele>
        <time>2022-06-27T06:38:11Z</time>
      </trkpt>
      <trkpt lat="42.3975980" lon="-2.5388660">
        <ele>520.8</ele>
        <time>2022-06-27T06:38:12Z</time>
      </trkpt>
      <trkpt lat="42.3976720" lon="-2.5389020">
        <ele>520.8</ele>
        <time>2022-06-27T06:38:13Z</time>
      </trkpt>
      <trkpt lat="42.3977400" lon="-2.5389490">
        <ele>520.8</ele>
        <time>2022-06-27T06:38:14Z</time>
      </trkpt>
      <trkpt lat="42.3977910" lon="-2.5389950">
        <ele>520.8</ele>
        <time>2022-06-27T06:38:15Z</time>
      </trkpt>
      <trkpt lat="42.3978600" lon="-2.5390730">
        <ele>520.8</ele>
        <time>2022-06-27T06:38:16Z</time>
      </trkpt>
      <trkpt lat="42.3979050" lon="-2.5391520">
        <ele>520.8</ele>
        <time>2022-06-27T06:38:17Z</time>
      </trkpt>
      <trkpt lat="42.3979390" lon="-2.5392390">
        <ele>520.8</ele>
        <time>2022-06-27T06:38:18Z</time>
      </trkpt>
      <trkpt lat="42.3979650" lon="-2.5393300">
        <ele>520.8</ele>
        <time>2022-06-27T06:38:19Z</time>
      </trkpt>
      <trkpt lat="42.3979820" lon="-2.5394190">
        <ele>520.8</ele>
        <time>2022-06-27T06:38:20Z</time>
      </trkpt>
      <trkpt lat="42.3979930" lon="-2.5394870">
        <ele>520.8</ele>
        <time>2022-06-27T06:38:21Z</time>
      </trkpt>
      <trkpt lat="42.3980070" lon="-2.5395900">
        <ele>520.8</ele>
        <time>2022-06-27T06:38:22Z</time>
      </trkpt>
      <trkpt lat="42.3980220" lon="-2.5396760">
        <ele>521.0</ele>
        <time>2022-06-27T06:38:23Z</time>
      </trkpt>
      <trkpt lat="42.3980390" lon="-2.5397610">
        <ele>521.2</ele>
        <time>2022-06-27T06:38:24Z</time>
      </trkpt>
      <trkpt lat="42.3980550" lon="-2.5398480">
        <ele>521.2</ele>
        <time>2022-06-27T06:38:25Z</time>
      </trkpt>
      <trkpt lat="42.3980730" lon="-2.5399350">
        <ele>521.2</ele>
        <time>2022-06-27T06:38:26Z</time>
      </trkpt>
      <trkpt lat="42.3980960" lon="-2.5400210">
        <ele>521.2</ele>
        <time>2022-06-27T06:38:27Z</time>
      </trkpt>
      <trkpt lat="42.3981320" lon="-2.5400990">
        <ele>521.4</ele>
        <time>2022-06-27T06:38:28Z</time>
      </trkpt>
      <trkpt lat="42.3981810" lon="-2.5401660">
        <ele>521.4</ele>
        <time>2022-06-27T06:38:29Z</time>
      </trkpt>
      <trkpt lat="42.3982370" lon="-2.5402230">
        <ele>521.4</ele>
        <time>2022-06-27T06:38:30Z</time>
      </trkpt>
      <trkpt lat="42.3982950" lon="-2.5402730">
        <ele>521.6</ele>
        <time>2022-06-27T06:38:31Z</time>
      </trkpt>
      <trkpt lat="42.3983540" lon="-2.5403230">
        <ele>521.8</ele>
        <time>2022-06-27T06:38:32Z</time>
      </trkpt>
      <trkpt lat="42.3984130" lon="-2.5403760">
        <ele>521.8</ele>
        <time>2022-06-27T06:38:33Z</time>
      </trkpt>
      <trkpt lat="42.3984720" lon="-2.5404320">
        <ele>521.8</ele>
        <time>2022-06-27T06:38:34Z</time>
      </trkpt>
      <trkpt lat="42.3985290" lon="-2.5404830">
        <ele>522.0</ele>
        <time>2022-06-27T06:38:35Z</time>
      </trkpt>
      <trkpt lat="42.3985880" lon="-2.5405330">
        <ele>522.0</ele>
        <time>2022-06-27T06:38:36Z</time>
      </trkpt>
      <trkpt lat="42.3986470" lon="-2.5405800">
        <ele>522.0</ele>
        <time>2022-06-27T06:38:37Z</time>
      </trkpt>
      <trkpt lat="42.3987060" lon="-2.5406290">
        <ele>522.0</ele>
        <time>2022-06-27T06:38:38Z</time>
      </trkpt>
      <trkpt lat="42.3987700" lon="-2.5406780">
        <ele>522.0</ele>
        <time>2022-06-27T06:38:39Z</time>
      </trkpt>
      <trkpt lat="42.3988340" lon="-2.5407250">
        <ele>522.0</ele>
        <time>2022-06-27T06:38:40Z</time>
      </trkpt>
      <trkpt lat="42.3989000" lon="-2.5407740">
        <ele>521.8</ele>
        <time>2022-06-27T06:38:41Z</time>
      </trkpt>
      <trkpt lat="42.3989670" lon="-2.5408210">
        <ele>521.8</ele>
        <time>2022-06-27T06:38:42Z</time>
      </trkpt>
      <trkpt lat="42.3990360" lon="-2.5408690">
        <ele>521.8</ele>
        <time>2022-06-27T06:38:43Z</time>
      </trkpt>
      <trkpt lat="42.3991080" lon="-2.5409130">
        <ele>521.6</ele>
        <time>2022-06-27T06:38:44Z</time>
      </trkpt>
      <trkpt lat="42.3991820" lon="-2.5409550">
        <ele>521.6</ele>
        <time>2022-06-27T06:38:45Z</time>
      </trkpt>
      <trkpt lat="42.3992560" lon="-2.5409940">
        <ele>521.4</ele>
        <time>2022-06-27T06:38:46Z</time>
      </trkpt>
      <trkpt lat="42.3993320" lon="-2.5410320">
        <ele>521.4</ele>
        <time>2022-06-27T06:38:47Z</time>
      </trkpt>
      <trkpt lat="42.3994080" lon="-2.5410680">
        <ele>521.4</ele>
        <time>2022-06-27T06:38:48Z</time>
      </trkpt>
      <trkpt lat="42.3994860" lon="-2.5411040">
        <ele>521.2</ele>
        <time>2022-06-27T06:38:49Z</time>
      </trkpt>
      <trkpt lat="42.3995660" lon="-2.5411370">
        <ele>521.2</ele>
        <time>2022-06-27T06:38:50Z</time>
      </trkpt>
      <trkpt lat="42.3996480" lon="-2.5411670">
        <ele>521.2</ele>
        <time>2022-06-27T06:38:51Z</time>
      </trkpt>
      <trkpt lat="42.3997320" lon="-2.5411930">
        <ele>521.0</ele>
        <time>2022-06-27T06:38:52Z</time>
      </trkpt>
      <trkpt lat="42.3998000" lon="-2.5412120">
        <ele>521.0</ele>
        <time>2022-06-27T06:38:53Z</time>
      </trkpt>
      <trkpt lat="42.3999000" lon="-2.5412370">
        <ele>521.0</ele>
        <time>2022-06-27T06:38:54Z</time>
      </trkpt>
      <trkpt lat="42.3999880" lon="-2.5412530">
        <ele>521.0</ele>
        <time>2022-06-27T06:38:55Z</time>
      </trkpt>
      <trkpt lat="42.4000780" lon="-2.5412680">
        <ele>520.8</ele>
        <time>2022-06-27T06:38:56Z</time>
      </trkpt>
      <trkpt lat="42.4001690" lon="-2.5412800">
        <ele>520.6</ele>
        <time>2022-06-27T06:38:57Z</time>
      </trkpt>
      <trkpt lat="42.4002450" lon="-2.5412870">
        <ele>520.6</ele>
        <time>2022-06-27T06:38:58Z</time>
      </trkpt>
      <trkpt lat="42.4003610" lon="-2.5412930">
        <ele>520.2</ele>
        <time>2022-06-27T06:38:59Z</time>
      </trkpt>
      <trkpt lat="42.4004610" lon="-2.5412930">
        <ele>520.0</ele>
        <time>2022-06-27T06:39:00Z</time>
      </trkpt>
      <trkpt lat="42.4005620" lon="-2.5412910">
        <ele>519.8</ele>
        <time>2022-06-27T06:39:01Z</time>
      </trkpt>
      <trkpt lat="42.4006450" lon="-2.5412890">
        <ele>519.6</ele>
        <time>2022-06-27T06:39:02Z</time>
      </trkpt>
      <trkpt lat="42.4007490" lon="-2.5412850">
        <ele>519.2</ele>
        <time>2022-06-27T06:39:03Z</time>
      </trkpt>
      <trkpt lat="42.4008540" lon="-2.5412780">
        <ele>518.8</ele>
        <time>2022-06-27T06:39:04Z</time>
      </trkpt>
      <trkpt lat="42.4009630" lon="-2.5412710">
        <ele>518.2</ele>
        <time>2022-06-27T06:39:05Z</time>
      </trkpt>
      <trkpt lat="42.4010730" lon="-2.5412630">
        <ele>517.8</ele>
        <time>2022-06-27T06:39:06Z</time>
      </trkpt>
      <trkpt lat="42.4011860" lon="-2.5412530">
        <ele>517.4</ele>
        <time>2022-06-27T06:39:07Z</time>
      </trkpt>
      <trkpt lat="42.4013000" lon="-2.5412450">
        <ele>517.0</ele>
        <time>2022-06-27T06:39:08Z</time>
      </trkpt>
      <trkpt lat="42.4014390" lon="-2.5412350">
        <ele>516.8</ele>
        <time>2022-06-27T06:39:09Z</time>
      </trkpt>
      <trkpt lat="42.4015560" lon="-2.5412300">
        <ele>516.4</ele>
        <time>2022-06-27T06:39:10Z</time>
      </trkpt>
      <trkpt lat="42.4016750" lon="-2.5412290">
        <ele>516.0</ele>
        <time>2022-06-27T06:39:11Z</time>
      </trkpt>
      <trkpt lat="42.4017940" lon="-2.5412340">
        <ele>515.0</ele>
        <time>2022-06-27T06:39:12Z</time>
      </trkpt>
      <trkpt lat="42.4019130" lon="-2.5412470">
        <ele>514.0</ele>
        <time>2022-06-27T06:39:13Z</time>
      </trkpt>
      <trkpt lat="42.4020340" lon="-2.5412670">
        <ele>513.8</ele>
        <time>2022-06-27T06:39:14Z</time>
      </trkpt>
      <trkpt lat="42.4021300" lon="-2.5412890">
        <ele>513.0</ele>
        <time>2022-06-27T06:39:15Z</time>
      </trkpt>
      <trkpt lat="42.4022740" lon="-2.5413250">
        <ele>512.6</ele>
        <time>2022-06-27T06:39:16Z</time>
      </trkpt>
      <trkpt lat="42.4023930" lon="-2.5413560">
        <ele>511.8</ele>
        <time>2022-06-27T06:39:17Z</time>
      </trkpt>
      <trkpt lat="42.4025120" lon="-2.5413920">
        <ele>511.6</ele>
        <time>2022-06-27T06:39:18Z</time>
      </trkpt>
      <trkpt lat="42.4026070" lon="-2.5414210">
        <ele>511.2</ele>
        <time>2022-06-27T06:39:19Z</time>
      </trkpt>
      <trkpt lat="42.4027220" lon="-2.5414600">
        <ele>510.8</ele>
        <time>2022-06-27T06:39:20Z</time>
      </trkpt>
      <trkpt lat="42.4028370" lon="-2.5414970">
        <ele>510.4</ele>
        <time>2022-06-27T06:39:21Z</time>
      </trkpt>
      <trkpt lat="42.4029500" lon="-2.5415340">
        <ele>509.8</ele>
        <time>2022-06-27T06:39:22Z</time>
      </trkpt>
      <trkpt lat="42.4030590" lon="-2.5415660">
        <ele>509.4</ele>
        <time>2022-06-27T06:39:23Z</time>
      </trkpt>
      <trkpt lat="42.4031670" lon="-2.5416010">
        <ele>508.6</ele>
        <time>2022-06-27T06:39:24Z</time>
      </trkpt>
      <trkpt lat="42.4032700" lon="-2.5416360">
        <ele>508.4</ele>
        <time>2022-06-27T06:39:25Z</time>
      </trkpt>
      <trkpt lat="42.4033720" lon="-2.5416680">
        <ele>508.0</ele>
        <time>2022-06-27T06:39:26Z</time>
      </trkpt>
      <trkpt lat="42.4034710" lon="-2.5417010">
        <ele>507.8</ele>
        <time>2022-06-27T06:39:27Z</time>
      </trkpt>
      <trkpt lat="42.4035720" lon="-2.5417340">
        <ele>507.8</ele>
        <time>2022-06-27T06:39:28Z</time>
      </trkpt>
      <trkpt lat="42.4036690" lon="-2.5417690">
        <ele>507.4</ele>
        <time>2022-06-27T06:39:29Z</time>
      </trkpt>
      <trkpt lat="42.4037660" lon="-2.5418020">
        <ele>507.4</ele>
        <time>2022-06-27T06:39:30Z</time>
      </trkpt>
      <trkpt lat="42.4038590" lon="-2.5418310">
        <ele>507.2</ele>
        <time>2022-06-27T06:39:31Z</time>
      </trkpt>
      <trkpt lat="42.4039530" lon="-2.5418630">
        <ele>507.0</ele>
        <time>2022-06-27T06:39:32Z</time>
      </trkpt>
      <trkpt lat="42.4040460" lon="-2.5418960">
        <ele>506.8</ele>
        <time>2022-06-27T06:39:33Z</time>
      </trkpt>
      <trkpt lat="42.4041360" lon="-2.5419320">
        <ele>506.8</ele>
        <time>2022-06-27T06:39:34Z</time>
      </trkpt>
      <trkpt lat="42.4042280" lon="-2.5419690">
        <ele>506.6</ele>
        <time>2022-06-27T06:39:35Z</time>
      </trkpt>
      <trkpt lat="42.4043190" lon="-2.5420110">
        <ele>506.6</ele>
        <time>2022-06-27T06:39:36Z</time>
      </trkpt>
      <trkpt lat="42.4044100" lon="-2.5420580">
        <ele>506.4</ele>
        <time>2022-06-27T06:39:37Z</time>
      </trkpt>
      <trkpt lat="42.4045000" lon="-2.5421100">
        <ele>506.0</ele>
        <time>2022-06-27T06:39:38Z</time>
      </trkpt>
      <trkpt lat="42.4045900" lon="-2.5421670">
        <ele>506.0</ele>
        <time>2022-06-27T06:39:39Z</time>
      </trkpt>
      <trkpt lat="42.4046810" lon="-2.5422300">
        <ele>505.8</ele>
        <time>2022-06-27T06:39:40Z</time>
      </trkpt>
      <trkpt lat="42.4047720" lon="-2.5422970">
        <ele>505.8</ele>
        <time>2022-06-27T06:39:41Z</time>
      </trkpt>
      <trkpt lat="42.4048850" lon="-2.5423820">
        <ele>505.6</ele>
        <time>2022-06-27T06:39:42Z</time>
      </trkpt>
      <trkpt lat="42.4049810" lon="-2.5424540">
        <ele>505.4</ele>
        <time>2022-06-27T06:39:43Z</time>
      </trkpt>
      <trkpt lat="42.4050780" lon="-2.5425310">
        <ele>505.2</ele>
        <time>2022-06-27T06:39:44Z</time>
      </trkpt>
      <trkpt lat="42.4051560" lon="-2.5425950">
        <ele>505.0</ele>
        <time>2022-06-27T06:39:45Z</time>
      </trkpt>
      <trkpt lat="42.4052530" lon="-2.5426740">
        <ele>504.8</ele>
        <time>2022-06-27T06:39:46Z</time>
      </trkpt>
      <trkpt lat="42.4053510" lon="-2.5427540">
        <ele>503.6</ele>
        <time>2022-06-27T06:39:47Z</time>
      </trkpt>
      <trkpt lat="42.4054720" lon="-2.5428510">
        <ele>503.0</ele>
        <time>2022-06-27T06:39:48Z</time>
      </trkpt>
      <trkpt lat="42.4055740" lon="-2.5429320">
        <ele>502.2</ele>
        <time>2022-06-27T06:39:49Z</time>
      </trkpt>
      <trkpt lat="42.4056750" lon="-2.5430130">
        <ele>501.6</ele>
        <time>2022-06-27T06:39:50Z</time>
      </trkpt>
      <trkpt lat="42.4057550" lon="-2.5430780">
        <ele>501.2</ele>
        <time>2022-06-27T06:39:51Z</time>
      </trkpt>
      <trkpt lat="42.4058560" lon="-2.5431590">
        <ele>500.6</ele>
        <time>2022-06-27T06:39:52Z</time>
      </trkpt>
      <trkpt lat="42.4059750" lon="-2.5432560">
        <ele>500.4</ele>
        <time>2022-06-27T06:39:53Z</time>
      </trkpt>
      <trkpt lat="42.4060700" lon="-2.5433340">
        <ele>499.0</ele>
        <time>2022-06-27T06:39:54Z</time>
      </trkpt>
      <trkpt lat="42.4061640" lon="-2.5434100">
        <ele>498.6</ele>
        <time>2022-06-27T06:39:55Z</time>
      </trkpt>
      <trkpt lat="42.4062390" lon="-2.5434720">
        <ele>497.8</ele>
        <time>2022-06-27T06:39:56Z</time>
      </trkpt>
      <trkpt lat="42.4063300" lon="-2.5435450">
        <ele>497.0</ele>
        <time>2022-06-27T06:39:57Z</time>
      </trkpt>
      <trkpt lat="42.4064390" lon="-2.5436330">
        <ele>496.6</ele>
        <time>2022-06-27T06:39:58Z</time>
      </trkpt>
      <trkpt lat="42.4065280" lon="-2.5437050">
        <ele>496.4</ele>
        <time>2022-06-27T06:39:59Z</time>
      </trkpt>
      <trkpt lat="42.4066170" lon="-2.5437780">
        <ele>496.2</ele>
        <time>2022-06-27T06:40:00Z</time>
      </trkpt>
      <trkpt lat="42.4066840" lon="-2.5438350">
        <ele>495.8</ele>
        <time>2022-06-27T06:40:01Z</time>
      </trkpt>
      <trkpt lat="42.4067700" lon="-2.5439060">
        <ele>495.6</ele>
        <time>2022-06-27T06:40:02Z</time>
      </trkpt>
      <trkpt lat="42.4068560" lon="-2.5439740">
        <ele>495.4</ele>
        <time>2022-06-27T06:40:03Z</time>
      </trkpt>
      <trkpt lat="42.4069590" lon="-2.5440550">
        <ele>495.4</ele>
        <time>2022-06-27T06:40:04Z</time>
      </trkpt>
      <trkpt lat="42.4070430" lon="-2.5441240">
        <ele>495.2</ele>
        <time>2022-06-27T06:40:05Z</time>
      </trkpt>
      <trkpt lat="42.4071240" lon="-2.5441930">
        <ele>495.0</ele>
        <time>2022-06-27T06:40:06Z</time>
      </trkpt>
      <trkpt lat="42.4071880" lon="-2.5442470">
        <ele>495.0</ele>
        <time>2022-06-27T06:40:07Z</time>
      </trkpt>
      <trkpt lat="42.4072870" lon="-2.5443290">
        <ele>495.0</ele>
        <time>2022-06-27T06:40:08Z</time>
      </trkpt>
      <trkpt lat="42.4073680" lon="-2.5443950">
        <ele>495.0</ele>
        <time>2022-06-27T06:40:09Z</time>
      </trkpt>
      <trkpt lat="42.4074500" lon="-2.5444600">
        <ele>495.0</ele>
        <time>2022-06-27T06:40:10Z</time>
      </trkpt>
      <trkpt lat="42.4075320" lon="-2.5445270">
        <ele>494.8</ele>
        <time>2022-06-27T06:40:11Z</time>
      </trkpt>
      <trkpt lat="42.4075990" lon="-2.5445790">
        <ele>494.8</ele>
        <time>2022-06-27T06:40:12Z</time>
      </trkpt>
      <trkpt lat="42.4076980" lon="-2.5446550">
        <ele>494.6</ele>
        <time>2022-06-27T06:40:13Z</time>
      </trkpt>
      <trkpt lat="42.4077780" lon="-2.5447190">
        <ele>494.6</ele>
        <time>2022-06-27T06:40:14Z</time>
      </trkpt>
      <trkpt lat="42.4078580" lon="-2.5447830">
        <ele>494.4</ele>
        <time>2022-06-27T06:40:15Z</time>
      </trkpt>
      <trkpt lat="42.4079380" lon="-2.5448480">
        <ele>494.2</ele>
        <time>2022-06-27T06:40:16Z</time>
      </trkpt>
      <trkpt lat="42.4080180" lon="-2.5449140">
        <ele>494.0</ele>
        <time>2022-06-27T06:40:17Z</time>
      </trkpt>
      <trkpt lat="42.4080810" lon="-2.5449650">
        <ele>494.0</ele>
        <time>2022-06-27T06:40:18Z</time>
      </trkpt>
      <trkpt lat="42.4081590" lon="-2.5450290">
        <ele>493.8</ele>
        <time>2022-06-27T06:40:19Z</time>
      </trkpt>
      <trkpt lat="42.4082530" lon="-2.5451030">
        <ele>493.6</ele>
        <time>2022-06-27T06:40:20Z</time>
      </trkpt>
      <trkpt lat="42.4083300" lon="-2.5451660">
        <ele>493.6</ele>
        <time>2022-06-27T06:40:21Z</time>
      </trkpt>
      <trkpt lat="42.4084070" lon="-2.5452300">
        <ele>493.4</ele>
        <time>2022-06-27T06:40:22Z</time>
      </trkpt>
      <trkpt lat="42.4084670" lon="-2.5452810">
        <ele>493.2</ele>
        <time>2022-06-27T06:40:23Z</time>
      </trkpt>
      <trkpt lat="42.4085440" lon="-2.5453420">
        <ele>493.2</ele>
        <time>2022-06-27T06:40:24Z</time>
      </trkpt>
      <trkpt lat="42.4086350" lon="-2.5454150">
        <ele>493.0</ele>
        <time>2022-06-27T06:40:25Z</time>
      </trkpt>
      <trkpt lat="42.4087120" lon="-2.5454760">
        <ele>493.0</ele>
        <time>2022-06-27T06:40:26Z</time>
      </trkpt>
      <trkpt lat="42.4087880" lon="-2.5455370">
        <ele>493.0</ele>
        <time>2022-06-27T06:40:27Z</time>
      </trkpt>
      <trkpt lat="42.4088640" lon="-2.5455910">
        <ele>492.8</ele>
        <time>2022-06-27T06:40:28Z</time>
      </trkpt>
      <trkpt lat="42.4089230" lon="-2.5456360">
        <ele>492.6</ele>
        <time>2022-06-27T06:40:29Z</time>
      </trkpt>
      <trkpt lat="42.4090120" lon="-2.5457100">
        <ele>492.6</ele>
        <time>2022-06-27T06:40:30Z</time>
      </trkpt>
      <trkpt lat="42.4090860" lon="-2.5457710">
        <ele>492.4</ele>
        <time>2022-06-27T06:40:31Z</time>
      </trkpt>
      <trkpt lat="42.4091600" lon="-2.5458300">
        <ele>492.4</ele>
        <time>2022-06-27T06:40:32Z</time>
      </trkpt>
      <trkpt lat="42.4092320" lon="-2.5458870">
        <ele>492.4</ele>
        <time>2022-06-27T06:40:33Z</time>
      </trkpt>
      <trkpt lat="42.4092910" lon="-2.5459340">
        <ele>492.4</ele>
        <time>2022-06-27T06:40:34Z</time>
      </trkpt>
      <trkpt lat="42.4093650" lon="-2.5459920">
        <ele>492.2</ele>
        <time>2022-06-27T06:40:35Z</time>
      </trkpt>
      <trkpt lat="42.4094520" lon="-2.5460620">
        <ele>492.2</ele>
        <time>2022-06-27T06:40:36Z</time>
      </trkpt>
      <trkpt lat="42.4095240" lon="-2.5461200">
        <ele>492.2</ele>
        <time>2022-06-27T06:40:37Z</time>
      </trkpt>
      <trkpt lat="42.4095940" lon="-2.5461770">
        <ele>492.0</ele>
        <time>2022-06-27T06:40:38Z</time>
      </trkpt>
      <trkpt lat="42.4096650" lon="-2.5462350">
        <ele>492.0</ele>
        <time>2022-06-27T06:40:39Z</time>
      </trkpt>
      <trkpt lat="42.4097210" lon="-2.5462790">
        <ele>491.8</ele>
        <time>2022-06-27T06:40:40Z</time>
      </trkpt>
      <trkpt lat="42.4098050" lon="-2.5463450">
        <ele>491.8</ele>
        <time>2022-06-27T06:40:41Z</time>
      </trkpt>
      <trkpt lat="42.4098740" lon="-2.5463990">
        <ele>491.6</ele>
        <time>2022-06-27T06:40:42Z</time>
      </trkpt>
      <trkpt lat="42.4099420" lon="-2.5464490">
        <ele>491.6</ele>
        <time>2022-06-27T06:40:43Z</time>
      </trkpt>
      <trkpt lat="42.4100090" lon="-2.5465030">
        <ele>491.6</ele>
        <time>2022-06-27T06:40:44Z</time>
      </trkpt>
      <trkpt lat="42.4100600" lon="-2.5465470">
        <ele>491.6</ele>
        <time>2022-06-27T06:40:45Z</time>
      </trkpt>
      <trkpt lat="42.4101270" lon="-2.5466010">
        <ele>491.6</ele>
        <time>2022-06-27T06:40:46Z</time>
      </trkpt>
      <trkpt lat="42.4102060" lon="-2.5466680">
        <ele>491.6</ele>
        <time>2022-06-27T06:40:47Z</time>
      </trkpt>
      <trkpt lat="42.4102720" lon="-2.5467230">
        <ele>491.6</ele>
        <time>2022-06-27T06:40:48Z</time>
      </trkpt>
      <trkpt lat="42.4103380" lon="-2.5467770">
        <ele>491.8</ele>
        <time>2022-06-27T06:40:49Z</time>
      </trkpt>
      <trkpt lat="42.4103910" lon="-2.5468190">
        <ele>491.8</ele>
        <time>2022-06-27T06:40:50Z</time>
      </trkpt>
      <trkpt lat="42.4104580" lon="-2.5468730">
        <ele>491.8</ele>
        <time>2022-06-27T06:40:51Z</time>
      </trkpt>
      <trkpt lat="42.4105350" lon="-2.5469380">
        <ele>491.8</ele>
        <time>2022-06-27T06:40:52Z</time>
      </trkpt>
      <trkpt lat="42.4106010" lon="-2.5469910">
        <ele>491.8</ele>
        <time>2022-06-27T06:40:53Z</time>
      </trkpt>
      <trkpt lat="42.4106680" lon="-2.5470450">
        <ele>491.8</ele>
        <time>2022-06-27T06:40:54Z</time>
      </trkpt>
      <trkpt lat="42.4107210" lon="-2.5470890">
        <ele>491.8</ele>
        <time>2022-06-27T06:40:55Z</time>
      </trkpt>
      <trkpt lat="42.4108000" lon="-2.5471550">
        <ele>491.6</ele>
        <time>2022-06-27T06:40:56Z</time>
      </trkpt>
      <trkpt lat="42.4108650" lon="-2.5472110">
        <ele>491.6</ele>
        <time>2022-06-27T06:40:57Z</time>
      </trkpt>
      <trkpt lat="42.4109320" lon="-2.5472660">
        <ele>491.6</ele>
        <time>2022-06-27T06:40:58Z</time>
      </trkpt>
      <trkpt lat="42.4110010" lon="-2.5473180">
        <ele>491.4</ele>
        <time>2022-06-27T06:40:59Z</time>
      </trkpt>
      <trkpt lat="42.4110690" lon="-2.5473720">
        <ele>491.2</ele>
        <time>2022-06-27T06:41:00Z</time>
      </trkpt>
      <trkpt lat="42.4111210" lon="-2.5474170">
        <ele>491.2</ele>
        <time>2022-06-27T06:41:01Z</time>
      </trkpt>
      <trkpt lat="42.4111900" lon="-2.5474700">
        <ele>491.2</ele>
        <time>2022-06-27T06:41:02Z</time>
      </trkpt>
      <trkpt lat="42.4112720" lon="-2.5475360">
        <ele>491.0</ele>
        <time>2022-06-27T06:41:03Z</time>
      </trkpt>
      <trkpt lat="42.4113400" lon="-2.5475900">
        <ele>491.0</ele>
        <time>2022-06-27T06:41:04Z</time>
      </trkpt>
      <trkpt lat="42.4114100" lon="-2.5476460">
        <ele>491.0</ele>
        <time>2022-06-27T06:41:05Z</time>
      </trkpt>
      <trkpt lat="42.4114660" lon="-2.5476910">
        <ele>490.8</ele>
        <time>2022-06-27T06:41:06Z</time>
      </trkpt>
      <trkpt lat="42.4115350" lon="-2.5477460">
        <ele>490.8</ele>
        <time>2022-06-27T06:41:07Z</time>
      </trkpt>
      <trkpt lat="42.4116170" lon="-2.5478150">
        <ele>490.6</ele>
        <time>2022-06-27T06:41:08Z</time>
      </trkpt>
      <trkpt lat="42.4116870" lon="-2.5478710">
        <ele>490.4</ele>
        <time>2022-06-27T06:41:09Z</time>
      </trkpt>
      <trkpt lat="42.4117570" lon="-2.5479270">
        <ele>490.4</ele>
        <time>2022-06-27T06:41:10Z</time>
      </trkpt>
      <trkpt lat="42.4118130" lon="-2.5479720">
        <ele>490.2</ele>
        <time>2022-06-27T06:41:11Z</time>
      </trkpt>
      <trkpt lat="42.4118830" lon="-2.5480290">
        <ele>490.2</ele>
        <time>2022-06-27T06:41:12Z</time>
      </trkpt>
      <trkpt lat="42.4119660" lon="-2.5480960">
        <ele>490.0</ele>
        <time>2022-06-27T06:41:13Z</time>
      </trkpt>
      <trkpt lat="42.4120360" lon="-2.5481530">
        <ele>490.0</ele>
        <time>2022-06-27T06:41:14Z</time>
      </trkpt>
      <trkpt lat="42.4121070" lon="-2.5482110">
        <ele>489.8</ele>
        <time>2022-06-27T06:41:15Z</time>
      </trkpt>
      <trkpt lat="42.4121780" lon="-2.5482680">
        <ele>489.8</ele>
        <time>2022-06-27T06:41:16Z</time>
      </trkpt>
      <trkpt lat="42.4122500" lon="-2.5483230">
        <ele>489.6</ele>
        <time>2022-06-27T06:41:17Z</time>
      </trkpt>
      <trkpt lat="42.4123210" lon="-2.5483800">
        <ele>489.4</ele>
        <time>2022-06-27T06:41:18Z</time>
      </trkpt>
      <trkpt lat="42.4123920" lon="-2.5484370">
        <ele>489.2</ele>
        <time>2022-06-27T06:41:19Z</time>
      </trkpt>
      <trkpt lat="42.4124630" lon="-2.5484940">
        <ele>489.2</ele>
        <time>2022-06-27T06:41:20Z</time>
      </trkpt>
      <trkpt lat="42.4125320" lon="-2.5485530">
        <ele>489.0</ele>
        <time>2022-06-27T06:41:21Z</time>
      </trkpt>
      <trkpt lat="42.4125880" lon="-2.5485980">
        <ele>488.8</ele>
        <time>2022-06-27T06:41:22Z</time>
      </trkpt>
      <trkpt lat="42.4126740" lon="-2.5486690">
        <ele>488.8</ele>
        <time>2022-06-27T06:41:23Z</time>
      </trkpt>
      <trkpt lat="42.4127460" lon="-2.5487280">
        <ele>488.6</ele>
        <time>2022-06-27T06:41:24Z</time>
      </trkpt>
      <trkpt lat="42.4128180" lon="-2.5487860">
        <ele>488.6</ele>
        <time>2022-06-27T06:41:25Z</time>
      </trkpt>
      <trkpt lat="42.4128890" lon="-2.5488440">
        <ele>488.4</ele>
        <time>2022-06-27T06:41:26Z</time>
      </trkpt>
      <trkpt lat="42.4129610" lon="-2.5489010">
        <ele>488.4</ele>
        <time>2022-06-27T06:41:27Z</time>
      </trkpt>
      <trkpt lat="42.4130320" lon="-2.5489600">
        <ele>488.4</ele>
        <time>2022-06-27T06:41:28Z</time>
      </trkpt>
      <trkpt lat="42.4131030" lon="-2.5490180">
        <ele>488.2</ele>
        <time>2022-06-27T06:41:29Z</time>
      </trkpt>
      <trkpt lat="42.4131740" lon="-2.5490780">
        <ele>488.2</ele>
        <time>2022-06-27T06:41:30Z</time>
      </trkpt>
      <trkpt lat="42.4132310" lon="-2.5491240">
        <ele>488.2</ele>
        <time>2022-06-27T06:41:31Z</time>
      </trkpt>
      <trkpt lat="42.4133020" lon="-2.5491810">
        <ele>488.2</ele>
        <time>2022-06-27T06:41:32Z</time>
      </trkpt>
      <trkpt lat="42.4133890" lon="-2.5492510">
        <ele>488.0</ele>
        <time>2022-06-27T06:41:33Z</time>
      </trkpt>
      <trkpt lat="42.4134600" lon="-2.5493100">
        <ele>488.0</ele>
        <time>2022-06-27T06:41:34Z</time>
      </trkpt>
      <trkpt lat="42.4135330" lon="-2.5493680">
        <ele>488.0</ele>
        <time>2022-06-27T06:41:35Z</time>
      </trkpt>
      <trkpt lat="42.4136040" lon="-2.5494260">
        <ele>487.8</ele>
        <time>2022-06-27T06:41:36Z</time>
      </trkpt>
      <trkpt lat="42.4136750" lon="-2.5494850">
        <ele>487.8</ele>
        <time>2022-06-27T06:41:37Z</time>
      </trkpt>
      <trkpt lat="42.4137320" lon="-2.5495310">
        <ele>487.6</ele>
        <time>2022-06-27T06:41:38Z</time>
      </trkpt>
      <trkpt lat="42.4138170" lon="-2.5495990">
        <ele>487.6</ele>
        <time>2022-06-27T06:41:39Z</time>
      </trkpt>
      <trkpt lat="42.4138860" lon="-2.5496550">
        <ele>487.4</ele>
        <time>2022-06-27T06:41:40Z</time>
      </trkpt>
      <trkpt lat="42.4139580" lon="-2.5497120">
        <ele>487.4</ele>
        <time>2022-06-27T06:41:41Z</time>
      </trkpt>
      <trkpt lat="42.4140290" lon="-2.5497680">
        <ele>487.2</ele>
        <time>2022-06-27T06:41:42Z</time>
      </trkpt>
      <trkpt lat="42.4140860" lon="-2.5498120">
        <ele>487.0</ele>
        <time>2022-06-27T06:41:43Z</time>
      </trkpt>
      <trkpt lat="42.4141700" lon="-2.5498780">
        <ele>487.0</ele>
        <time>2022-06-27T06:41:44Z</time>
      </trkpt>
      <trkpt lat="42.4142400" lon="-2.5499320">
        <ele>487.0</ele>
        <time>2022-06-27T06:41:45Z</time>
      </trkpt>
      <trkpt lat="42.4143080" lon="-2.5499880">
        <ele>486.8</ele>
        <time>2022-06-27T06:41:46Z</time>
      </trkpt>
      <trkpt lat="42.4143750" lon="-2.5500430">
        <ele>486.8</ele>
        <time>2022-06-27T06:41:47Z</time>
      </trkpt>
      <trkpt lat="42.4144300" lon="-2.5500870">
        <ele>486.8</ele>
        <time>2022-06-27T06:41:48Z</time>
      </trkpt>
      <trkpt lat="42.4145140" lon="-2.5501540">
        <ele>486.8</ele>
        <time>2022-06-27T06:41:49Z</time>
      </trkpt>
      <trkpt lat="42.4145840" lon="-2.5502090">
        <ele>486.8</ele>
        <time>2022-06-27T06:41:50Z</time>
      </trkpt>
      <trkpt lat="42.4146540" lon="-2.5502650">
        <ele>486.8</ele>
        <time>2022-06-27T06:41:51Z</time>
      </trkpt>
      <trkpt lat="42.4147110" lon="-2.5503090">
        <ele>486.8</ele>
        <time>2022-06-27T06:41:52Z</time>
      </trkpt>
      <trkpt lat="42.4147800" lon="-2.5503650">
        <ele>486.8</ele>
        <time>2022-06-27T06:41:53Z</time>
      </trkpt>
      <trkpt lat="42.4148490" lon="-2.5504190">
        <ele>486.8</ele>
        <time>2022-06-27T06:41:54Z</time>
      </trkpt>
      <trkpt lat="42.4149310" lon="-2.5504840">
        <ele>486.8</ele>
        <time>2022-06-27T06:41:55Z</time>
      </trkpt>
      <trkpt lat="42.4150020" lon="-2.5505380">
        <ele>486.8</ele>
        <time>2022-06-27T06:41:56Z</time>
      </trkpt>
      <trkpt lat="42.4150720" lon="-2.5505910">
        <ele>486.8</ele>
        <time>2022-06-27T06:41:57Z</time>
      </trkpt>
      <trkpt lat="42.4151270" lon="-2.5506350">
        <ele>486.8</ele>
        <time>2022-06-27T06:41:58Z</time>
      </trkpt>
      <trkpt lat="42.4151970" lon="-2.5506900">
        <ele>486.6</ele>
        <time>2022-06-27T06:41:59Z</time>
      </trkpt>
      <trkpt lat="42.4152810" lon="-2.5507580">
        <ele>486.6</ele>
        <time>2022-06-27T06:42:00Z</time>
      </trkpt>
      <trkpt lat="42.4153500" lon="-2.5508150">
        <ele>486.6</ele>
        <time>2022-06-27T06:42:01Z</time>
      </trkpt>
      <trkpt lat="42.4154200" lon="-2.5508710">
        <ele>486.6</ele>
        <time>2022-06-27T06:42:02Z</time>
      </trkpt>
      <trkpt lat="42.4154770" lon="-2.5509170">
        <ele>486.4</ele>
        <time>2022-06-27T06:42:03Z</time>
      </trkpt>
      <trkpt lat="42.4155480" lon="-2.5509750">
        <ele>486.4</ele>
        <time>2022-06-27T06:42:04Z</time>
      </trkpt>
      <trkpt lat="42.4156290" lon="-2.5510420">
        <ele>486.4</ele>
        <time>2022-06-27T06:42:05Z</time>
      </trkpt>
      <trkpt lat="42.4156960" lon="-2.5510970">
        <ele>486.4</ele>
        <time>2022-06-27T06:42:06Z</time>
      </trkpt>
      <trkpt lat="42.4157650" lon="-2.5511530">
        <ele>486.2</ele>
        <time>2022-06-27T06:42:07Z</time>
      </trkpt>
      <trkpt lat="42.4158340" lon="-2.5512080">
        <ele>486.2</ele>
        <time>2022-06-27T06:42:08Z</time>
      </trkpt>
      <trkpt lat="42.4158880" lon="-2.5512530">
        <ele>486.2</ele>
        <time>2022-06-27T06:42:09Z</time>
      </trkpt>
      <trkpt lat="42.4159550" lon="-2.5513090">
        <ele>486.2</ele>
        <time>2022-06-27T06:42:10Z</time>
      </trkpt>
      <trkpt lat="42.4160340" lon="-2.5513760">
        <ele>486.2</ele>
        <time>2022-06-27T06:42:11Z</time>
      </trkpt>
      <trkpt lat="42.4160990" lon="-2.5514330">
        <ele>486.2</ele>
        <time>2022-06-27T06:42:12Z</time>
      </trkpt>
      <trkpt lat="42.4161680" lon="-2.5514870">
        <ele>486.2</ele>
        <time>2022-06-27T06:42:13Z</time>
      </trkpt>
      <trkpt lat="42.4162230" lon="-2.5515290">
        <ele>486.0</ele>
        <time>2022-06-27T06:42:14Z</time>
      </trkpt>
      <trkpt lat="42.4162920" lon="-2.5515840">
        <ele>486.0</ele>
        <time>2022-06-27T06:42:15Z</time>
      </trkpt>
      <trkpt lat="42.4163600" lon="-2.5516380">
        <ele>485.8</ele>
        <time>2022-06-27T06:42:16Z</time>
      </trkpt>
      <trkpt lat="42.4164410" lon="-2.5517050">
        <ele>485.8</ele>
        <time>2022-06-27T06:42:17Z</time>
      </trkpt>
      <trkpt lat="42.4165100" lon="-2.5517590">
        <ele>485.8</ele>
        <time>2022-06-27T06:42:18Z</time>
      </trkpt>
      <trkpt lat="42.4165790" lon="-2.5518130">
        <ele>485.8</ele>
        <time>2022-06-27T06:42:19Z</time>
      </trkpt>
      <trkpt lat="42.4166470" lon="-2.5518710">
        <ele>485.8</ele>
        <time>2022-06-27T06:42:20Z</time>
      </trkpt>
      <trkpt lat="42.4167150" lon="-2.5519280">
        <ele>485.6</ele>
        <time>2022-06-27T06:42:21Z</time>
      </trkpt>
      <trkpt lat="42.4167830" lon="-2.5519830">
        <ele>485.6</ele>
        <time>2022-06-27T06:42:22Z</time>
      </trkpt>
      <trkpt lat="42.4168500" lon="-2.5520370">
        <ele>485.6</ele>
        <time>2022-06-27T06:42:23Z</time>
      </trkpt>
      <trkpt lat="42.4169170" lon="-2.5520930">
        <ele>485.4</ele>
        <time>2022-06-27T06:42:24Z</time>
      </trkpt>
      <trkpt lat="42.4169840" lon="-2.5521500">
        <ele>485.4</ele>
        <time>2022-06-27T06:42:25Z</time>
      </trkpt>
      <trkpt lat="42.4170550" lon="-2.5522040">
        <ele>485.2</ele>
        <time>2022-06-27T06:42:26Z</time>
      </trkpt>
      <trkpt lat="42.4171240" lon="-2.5522610">
        <ele>485.2</ele>
        <time>2022-06-27T06:42:27Z</time>
      </trkpt>
      <trkpt lat="42.4171790" lon="-2.5523060">
        <ele>485.2</ele>
        <time>2022-06-27T06:42:28Z</time>
      </trkpt>
      <trkpt lat="42.4172480" lon="-2.5523630">
        <ele>485.0</ele>
        <time>2022-06-27T06:42:29Z</time>
      </trkpt>
      <trkpt lat="42.4173310" lon="-2.5524310">
        <ele>485.0</ele>
        <time>2022-06-27T06:42:30Z</time>
      </trkpt>
      <trkpt lat="42.4174010" lon="-2.5524910">
        <ele>485.0</ele>
        <time>2022-06-27T06:42:31Z</time>
      </trkpt>
      <trkpt lat="42.4174700" lon="-2.5525480">
        <ele>485.0</ele>
        <time>2022-06-27T06:42:32Z</time>
      </trkpt>
      <trkpt lat="42.4175400" lon="-2.5526020">
        <ele>485.0</ele>
        <time>2022-06-27T06:42:33Z</time>
      </trkpt>
      <trkpt lat="42.4175950" lon="-2.5526470">
        <ele>485.0</ele>
        <time>2022-06-27T06:42:34Z</time>
      </trkpt>
      <trkpt lat="42.4176780" lon="-2.5527110">
        <ele>485.0</ele>
        <time>2022-06-27T06:42:35Z</time>
      </trkpt>
      <trkpt lat="42.4177480" lon="-2.5527660">
        <ele>485.0</ele>
        <time>2022-06-27T06:42:36Z</time>
      </trkpt>
      <trkpt lat="42.4178170" lon="-2.5528190">
        <ele>485.0</ele>
        <time>2022-06-27T06:42:37Z</time>
      </trkpt>
      <trkpt lat="42.4178880" lon="-2.5528730">
        <ele>485.0</ele>
        <time>2022-06-27T06:42:38Z</time>
      </trkpt>
      <trkpt lat="42.4179530" lon="-2.5529300">
        <ele>484.8</ele>
        <time>2022-06-27T06:42:39Z</time>
      </trkpt>
      <trkpt lat="42.4180200" lon="-2.5529850">
        <ele>484.8</ele>
        <time>2022-06-27T06:42:40Z</time>
      </trkpt>
      <trkpt lat="42.4180880" lon="-2.5530380">
        <ele>484.8</ele>
        <time>2022-06-27T06:42:41Z</time>
      </trkpt>
      <trkpt lat="42.4181550" lon="-2.5530920">
        <ele>484.8</ele>
        <time>2022-06-27T06:42:42Z</time>
      </trkpt>
      <trkpt lat="42.4182220" lon="-2.5531470">
        <ele>484.6</ele>
        <time>2022-06-27T06:42:43Z</time>
      </trkpt>
      <trkpt lat="42.4182890" lon="-2.5532020">
        <ele>484.4</ele>
        <time>2022-06-27T06:42:44Z</time>
      </trkpt>
      <trkpt lat="42.4183580" lon="-2.5532570">
        <ele>484.4</ele>
        <time>2022-06-27T06:42:45Z</time>
      </trkpt>
      <trkpt lat="42.4184250" lon="-2.5533110">
        <ele>484.4</ele>
        <time>2022-06-27T06:42:46Z</time>
      </trkpt>
      <trkpt lat="42.4184940" lon="-2.5533660">
        <ele>484.4</ele>
        <time>2022-06-27T06:42:47Z</time>
      </trkpt>
      <trkpt lat="42.4185620" lon="-2.5534210">
        <ele>484.4</ele>
        <time>2022-06-27T06:42:48Z</time>
      </trkpt>
      <trkpt lat="42.4186310" lon="-2.5534760">
        <ele>484.4</ele>
        <time>2022-06-27T06:42:49Z</time>
      </trkpt>
      <trkpt lat="42.4186980" lon="-2.5535310">
        <ele>484.4</ele>
        <time>2022-06-27T06:42:50Z</time>
      </trkpt>
      <trkpt lat="42.4187640" lon="-2.5535830">
        <ele>484.2</ele>
        <time>2022-06-27T06:42:51Z</time>
      </trkpt>
      <trkpt lat="42.4188300" lon="-2.5536350">
        <ele>484.2</ele>
        <time>2022-06-27T06:42:52Z</time>
      </trkpt>
      <trkpt lat="42.4188940" lon="-2.5536890">
        <ele>484.2</ele>
        <time>2022-06-27T06:42:53Z</time>
      </trkpt>
      <trkpt lat="42.4189580" lon="-2.5537450">
        <ele>484.2</ele>
        <time>2022-06-27T06:42:54Z</time>
      </trkpt>
      <trkpt lat="42.4190220" lon="-2.5537990">
        <ele>484.2</ele>
        <time>2022-06-27T06:42:55Z</time>
      </trkpt>
      <trkpt lat="42.4190870" lon="-2.5538510">
        <ele>484.0</ele>
        <time>2022-06-27T06:42:56Z</time>
      </trkpt>
      <trkpt lat="42.4191540" lon="-2.5539040">
        <ele>484.0</ele>
        <time>2022-06-27T06:42:57Z</time>
      </trkpt>
      <trkpt lat="42.4192210" lon="-2.5539560">
        <ele>484.0</ele>
        <time>2022-06-27T06:42:58Z</time>
      </trkpt>
      <trkpt lat="42.4192880" lon="-2.5540060">
        <ele>484.0</ele>
        <time>2022-06-27T06:42:59Z</time>
      </trkpt>
      <trkpt lat="42.4193550" lon="-2.5540570">
        <ele>483.8</ele>
        <time>2022-06-27T06:43:00Z</time>
      </trkpt>
      <trkpt lat="42.4194210" lon="-2.5541080">
        <ele>483.8</ele>
        <time>2022-06-27T06:43:01Z</time>
      </trkpt>
      <trkpt lat="42.4194860" lon="-2.5541620">
        <ele>483.8</ele>
        <time>2022-06-27T06:43:02Z</time>
      </trkpt>
      <trkpt lat="42.4195530" lon="-2.5542150">
        <ele>483.8</ele>
        <time>2022-06-27T06:43:03Z</time>
      </trkpt>
      <trkpt lat="42.4196180" lon="-2.5542710">
        <ele>483.8</ele>
        <time>2022-06-27T06:43:04Z</time>
      </trkpt>
      <trkpt lat="42.4196830" lon="-2.5543270">
        <ele>483.8</ele>
        <time>2022-06-27T06:43:05Z</time>
      </trkpt>
      <trkpt lat="42.4197370" lon="-2.5543710">
        <ele>483.8</ele>
        <time>2022-06-27T06:43:06Z</time>
      </trkpt>
      <trkpt lat="42.4198170" lon="-2.5544360">
        <ele>483.6</ele>
        <time>2022-06-27T06:43:07Z</time>
      </trkpt>
      <trkpt lat="42.4198810" lon="-2.5544910">
        <ele>483.6</ele>
        <time>2022-06-27T06:43:08Z</time>
      </trkpt>
      <trkpt lat="42.4199490" lon="-2.5545470">
        <ele>483.6</ele>
        <time>2022-06-27T06:43:09Z</time>
      </trkpt>
      <trkpt lat="42.4200160" lon="-2.5546010">
        <ele>483.6</ele>
        <time>2022-06-27T06:43:10Z</time>
      </trkpt>
      <trkpt lat="42.4200840" lon="-2.5546520">
        <ele>483.4</ele>
        <time>2022-06-27T06:43:11Z</time>
      </trkpt>
      <trkpt lat="42.4201510" lon="-2.5547040">
        <ele>483.4</ele>
        <time>2022-06-27T06:43:12Z</time>
      </trkpt>
      <trkpt lat="42.4202180" lon="-2.5547590">
        <ele>483.4</ele>
        <time>2022-06-27T06:43:13Z</time>
      </trkpt>
      <trkpt lat="42.4202840" lon="-2.5548150">
        <ele>483.4</ele>
        <time>2022-06-27T06:43:14Z</time>
      </trkpt>
      <trkpt lat="42.4203510" lon="-2.5548700">
        <ele>483.4</ele>
        <time>2022-06-27T06:43:15Z</time>
      </trkpt>
      <trkpt lat="42.4204180" lon="-2.5549240">
        <ele>483.4</ele>
        <time>2022-06-27T06:43:16Z</time>
      </trkpt>
      <trkpt lat="42.4204830" lon="-2.5549760">
        <ele>483.4</ele>
        <time>2022-06-27T06:43:17Z</time>
      </trkpt>
      <trkpt lat="42.4205500" lon="-2.5550300">
        <ele>483.4</ele>
        <time>2022-06-27T06:43:18Z</time>
      </trkpt>
      <trkpt lat="42.4206170" lon="-2.5550850">
        <ele>483.4</ele>
        <time>2022-06-27T06:43:19Z</time>
      </trkpt>
      <trkpt lat="42.4206840" lon="-2.5551390">
        <ele>483.4</ele>
        <time>2022-06-27T06:43:20Z</time>
      </trkpt>
      <trkpt lat="42.4207520" lon="-2.5551920">
        <ele>483.4</ele>
        <time>2022-06-27T06:43:21Z</time>
      </trkpt>
      <trkpt lat="42.4208170" lon="-2.5552450">
        <ele>483.4</ele>
        <time>2022-06-27T06:43:22Z</time>
      </trkpt>
      <trkpt lat="42.4208840" lon="-2.5552960">
        <ele>483.4</ele>
        <time>2022-06-27T06:43:23Z</time>
      </trkpt>
      <trkpt lat="42.4209490" lon="-2.5553480">
        <ele>483.4</ele>
        <time>2022-06-27T06:43:24Z</time>
      </trkpt>
      <trkpt lat="42.4210000" lon="-2.5553910">
        <ele>483.4</ele>
        <time>2022-06-27T06:43:25Z</time>
      </trkpt>
      <trkpt lat="42.4210790" lon="-2.5554530">
        <ele>483.2</ele>
        <time>2022-06-27T06:43:26Z</time>
      </trkpt>
      <trkpt lat="42.4211420" lon="-2.5555040">
        <ele>483.2</ele>
        <time>2022-06-27T06:43:27Z</time>
      </trkpt>
      <trkpt lat="42.4212060" lon="-2.5555550">
        <ele>482.8</ele>
        <time>2022-06-27T06:43:28Z</time>
      </trkpt>
      <trkpt lat="42.4212690" lon="-2.5556080">
        <ele>482.6</ele>
        <time>2022-06-27T06:43:29Z</time>
      </trkpt>
      <trkpt lat="42.4213330" lon="-2.5556600">
        <ele>482.6</ele>
        <time>2022-06-27T06:43:30Z</time>
      </trkpt>
      <trkpt lat="42.4213970" lon="-2.5557120">
        <ele>482.6</ele>
        <time>2022-06-27T06:43:31Z</time>
      </trkpt>
      <trkpt lat="42.4214590" lon="-2.5557660">
        <ele>482.6</ele>
        <time>2022-06-27T06:43:32Z</time>
      </trkpt>
      <trkpt lat="42.4215230" lon="-2.5558170">
        <ele>482.6</ele>
        <time>2022-06-27T06:43:33Z</time>
      </trkpt>
      <trkpt lat="42.4215860" lon="-2.5558670">
        <ele>482.6</ele>
        <time>2022-06-27T06:43:34Z</time>
      </trkpt>
      <trkpt lat="42.4216370" lon="-2.5559080">
        <ele>482.6</ele>
        <time>2022-06-27T06:43:35Z</time>
      </trkpt>
      <trkpt lat="42.4217130" lon="-2.5559700">
        <ele>482.6</ele>
        <time>2022-06-27T06:43:36Z</time>
      </trkpt>
      <trkpt lat="42.4217780" lon="-2.5560190">
        <ele>482.6</ele>
        <time>2022-06-27T06:43:37Z</time>
      </trkpt>
      <trkpt lat="42.4218420" lon="-2.5560700">
        <ele>482.6</ele>
        <time>2022-06-27T06:43:38Z</time>
      </trkpt>
      <trkpt lat="42.4219050" lon="-2.5561230">
        <ele>482.6</ele>
        <time>2022-06-27T06:43:39Z</time>
      </trkpt>
      <trkpt lat="42.4219680" lon="-2.5561730">
        <ele>482.6</ele>
        <time>2022-06-27T06:43:40Z</time>
      </trkpt>
      <trkpt lat="42.4220180" lon="-2.5562140">
        <ele>482.6</ele>
        <time>2022-06-27T06:43:41Z</time>
      </trkpt>
      <trkpt lat="42.4220810" lon="-2.5562650">
        <ele>482.6</ele>
        <time>2022-06-27T06:43:42Z</time>
      </trkpt>
      <trkpt lat="42.4221430" lon="-2.5563160">
        <ele>482.6</ele>
        <time>2022-06-27T06:43:43Z</time>
      </trkpt>
      <trkpt lat="42.4222050" lon="-2.5563670">
        <ele>482.8</ele>
        <time>2022-06-27T06:43:44Z</time>
      </trkpt>
      <trkpt lat="42.4222660" lon="-2.5564150">
        <ele>482.8</ele>
        <time>2022-06-27T06:43:45Z</time>
      </trkpt>
      <trkpt lat="42.4223370" lon="-2.5564740">
        <ele>482.8</ele>
        <time>2022-06-27T06:43:46Z</time>
      </trkpt>
      <trkpt lat="42.4223850" lon="-2.5565130">
        <ele>482.8</ele>
        <time>2022-06-27T06:43:47Z</time>
      </trkpt>
      <trkpt lat="42.4224440" lon="-2.5565630">
        <ele>482.8</ele>
        <time>2022-06-27T06:43:48Z</time>
      </trkpt>
      <trkpt lat="42.4225040" lon="-2.5566110">
        <ele>483.0</ele>
        <time>2022-06-27T06:43:49Z</time>
      </trkpt>
      <trkpt lat="42.4225750" lon="-2.5566710">
        <ele>483.2</ele>
        <time>2022-06-27T06:43:50Z</time>
      </trkpt>
      <trkpt lat="42.4226360" lon="-2.5567200">
        <ele>483.4</ele>
        <time>2022-06-27T06:43:51Z</time>
      </trkpt>
      <trkpt lat="42.4226950" lon="-2.5567680">
        <ele>483.6</ele>
        <time>2022-06-27T06:43:52Z</time>
      </trkpt>
      <trkpt lat="42.4227530" lon="-2.5568150">
        <ele>483.6</ele>
        <time>2022-06-27T06:43:53Z</time>
      </trkpt>
      <trkpt lat="42.4228100" lon="-2.5568630">
        <ele>483.8</ele>
        <time>2022-06-27T06:43:54Z</time>
      </trkpt>
      <trkpt lat="42.4228680" lon="-2.5569070">
        <ele>484.0</ele>
        <time>2022-06-27T06:43:55Z</time>
      </trkpt>
      <trkpt lat="42.4229260" lon="-2.5569500">
        <ele>484.0</ele>
        <time>2022-06-27T06:43:56Z</time>
      </trkpt>
      <trkpt lat="42.4229820" lon="-2.5569940">
        <ele>484.2</ele>
        <time>2022-06-27T06:43:57Z</time>
      </trkpt>
      <trkpt lat="42.4230370" lon="-2.5570380">
        <ele>484.6</ele>
        <time>2022-06-27T06:43:58Z</time>
      </trkpt>
      <trkpt lat="42.4230920" lon="-2.5570840">
        <ele>484.8</ele>
        <time>2022-06-27T06:43:59Z</time>
      </trkpt>
      <trkpt lat="42.4231470" lon="-2.5571310">
        <ele>484.8</ele>
        <time>2022-06-27T06:44:00Z</time>
      </trkpt>
      <trkpt lat="42.4232010" lon="-2.5571790">
        <ele>485.0</ele>
        <time>2022-06-27T06:44:01Z</time>
      </trkpt>
      <trkpt lat="42.4232540" lon="-2.5572260">
        <ele>485.0</ele>
        <time>2022-06-27T06:44:02Z</time>
      </trkpt>
      <trkpt lat="42.4233060" lon="-2.5572750">
        <ele>485.0</ele>
        <time>2022-06-27T06:44:03Z</time>
      </trkpt>
      <trkpt lat="42.4233570" lon="-2.5573230">
        <ele>485.2</ele>
        <time>2022-06-27T06:44:04Z</time>
      </trkpt>
      <trkpt lat="42.4234070" lon="-2.5573750">
        <ele>485.2</ele>
        <time>2022-06-27T06:44:05Z</time>
      </trkpt>
      <trkpt lat="42.4234590" lon="-2.5574240">
        <ele>485.2</ele>
        <time>2022-06-27T06:44:06Z</time>
      </trkpt>
      <trkpt lat="42.4235110" lon="-2.5574720">
        <ele>485.2</ele>
        <time>2022-06-27T06:44:07Z</time>
      </trkpt>
      <trkpt lat="42.4235630" lon="-2.5575190">
        <ele>485.4</ele>
        <time>2022-06-27T06:44:08Z</time>
      </trkpt>
      <trkpt lat="42.4236130" lon="-2.5575660">
        <ele>485.4</ele>
        <time>2022-06-27T06:44:09Z</time>
      </trkpt>
      <trkpt lat="42.4236620" lon="-2.5576110">
        <ele>485.6</ele>
        <time>2022-06-27T06:44:10Z</time>
      </trkpt>
      <trkpt lat="42.4237100" lon="-2.5576560">
        <ele>485.6</ele>
        <time>2022-06-27T06:44:11Z</time>
      </trkpt>
      <trkpt lat="42.4237600" lon="-2.5577020">
        <ele>485.8</ele>
        <time>2022-06-27T06:44:12Z</time>
      </trkpt>
      <trkpt lat="42.4238070" lon="-2.5577460">
        <ele>485.8</ele>
        <time>2022-06-27T06:44:13Z</time>
      </trkpt>
      <trkpt lat="42.4238540" lon="-2.5577890">
        <ele>485.8</ele>
        <time>2022-06-27T06:44:14Z</time>
      </trkpt>
      <trkpt lat="42.4238980" lon="-2.5578340">
        <ele>486.0</ele>
        <time>2022-06-27T06:44:15Z</time>
      </trkpt>
      <trkpt lat="42.4239420" lon="-2.5578750">
        <ele>486.0</ele>
        <time>2022-06-27T06:44:16Z</time>
      </trkpt>
      <trkpt lat="42.4239840" lon="-2.5579170">
        <ele>486.0</ele>
        <time>2022-06-27T06:44:17Z</time>
      </trkpt>
      <trkpt lat="42.4240260" lon="-2.5579570">
        <ele>486.2</ele>
        <time>2022-06-27T06:44:18Z</time>
      </trkpt>
      <trkpt lat="42.4240700" lon="-2.5579980">
        <ele>486.4</ele>
        <time>2022-06-27T06:44:19Z</time>
      </trkpt>
      <trkpt lat="42.4241120" lon="-2.5580370">
        <ele>486.4</ele>
        <time>2022-06-27T06:44:20Z</time>
      </trkpt>
      <trkpt lat="42.4241540" lon="-2.5580720">
        <ele>486.4</ele>
        <time>2022-06-27T06:44:21Z</time>
      </trkpt>
      <trkpt lat="42.4241870" lon="-2.5581000">
        <ele>486.6</ele>
        <time>2022-06-27T06:44:22Z</time>
      </trkpt>
      <trkpt lat="42.4242370" lon="-2.5581460">
        <ele>486.8</ele>
        <time>2022-06-27T06:44:23Z</time>
      </trkpt>
      <trkpt lat="42.4242770" lon="-2.5581850">
        <ele>487.0</ele>
        <time>2022-06-27T06:44:24Z</time>
      </trkpt>
      <trkpt lat="42.4243150" lon="-2.5582190">
        <ele>487.0</ele>
        <time>2022-06-27T06:44:25Z</time>
      </trkpt>
      <trkpt lat="42.4243480" lon="-2.5582460">
        <ele>487.2</ele>
        <time>2022-06-27T06:44:26Z</time>
      </trkpt>
      <trkpt lat="42.4243930" lon="-2.5582860">
        <ele>487.4</ele>
        <time>2022-06-27T06:44:27Z</time>
      </trkpt>
      <trkpt lat="42.4244240" lon="-2.5583180">
        <ele>487.4</ele>
        <time>2022-06-27T06:44:28Z</time>
      </trkpt>
      <trkpt lat="42.4244570" lon="-2.5583520">
        <ele>487.6</ele>
        <time>2022-06-27T06:44:29Z</time>
      </trkpt>
      <trkpt lat="42.4244890" lon="-2.5583850">
        <ele>487.8</ele>
        <time>2022-06-27T06:44:30Z</time>
      </trkpt>
      <trkpt lat="42.4245230" lon="-2.5584140">
        <ele>488.0</ele>
        <time>2022-06-27T06:44:31Z</time>
      </trkpt>
      <trkpt lat="42.4245550" lon="-2.5584420">
        <ele>488.0</ele>
        <time>2022-06-27T06:44:32Z</time>
      </trkpt>
      <trkpt lat="42.4245840" lon="-2.5584710">
        <ele>488.2</ele>
        <time>2022-06-27T06:44:33Z</time>
      </trkpt>
      <trkpt lat="42.4246140" lon="-2.5585000">
        <ele>488.2</ele>
        <time>2022-06-27T06:44:34Z</time>
      </trkpt>
      <trkpt lat="42.4246360" lon="-2.5585210">
        <ele>488.4</ele>
        <time>2022-06-27T06:44:35Z</time>
      </trkpt>
      <trkpt lat="42.4246690" lon="-2.5585540">
        <ele>488.6</ele>
        <time>2022-06-27T06:44:36Z</time>
      </trkpt>
      <trkpt lat="42.4246930" lon="-2.5585820">
        <ele>489.0</ele>
        <time>2022-06-27T06:44:37Z</time>
      </trkpt>
      <trkpt lat="42.4247180" lon="-2.5586110">
        <ele>489.2</ele>
        <time>2022-06-27T06:44:38Z</time>
      </trkpt>
      <trkpt lat="42.4247450" lon="-2.5586400">
        <ele>489.4</ele>
        <time>2022-06-27T06:44:39Z</time>
      </trkpt>
      <trkpt lat="42.4247700" lon="-2.5586660">
        <ele>489.8</ele>
        <time>2022-06-27T06:44:40Z</time>
      </trkpt>
      <trkpt lat="42.4247940" lon="-2.5586930">
        <ele>490.0</ele>
        <time>2022-06-27T06:44:41Z</time>
      </trkpt>
      <trkpt lat="42.4248200" lon="-2.5587140">
        <ele>490.4</ele>
        <time>2022-06-27T06:44:42Z</time>
      </trkpt>
      <trkpt lat="42.4248430" lon="-2.5587360">
        <ele>490.4</ele>
        <time>2022-06-27T06:44:43Z</time>
      </trkpt>
      <trkpt lat="42.4248690" lon="-2.5587610">
        <ele>490.4</ele>
        <time>2022-06-27T06:44:44Z</time>
      </trkpt>
      <trkpt lat="42.4249000" lon="-2.5587870">
        <ele>490.6</ele>
        <time>2022-06-27T06:44:45Z</time>
      </trkpt>
      <trkpt lat="42.4249340" lon="-2.5588200">
        <ele>490.6</ele>
        <time>2022-06-27T06:44:46Z</time>
      </trkpt>
      <trkpt lat="42.4249680" lon="-2.5588550">
        <ele>490.6</ele>
        <time>2022-06-27T06:44:47Z</time>
      </trkpt>
      <trkpt lat="42.4250030" lon="-2.5588910">
        <ele>490.6</ele>
        <time>2022-06-27T06:44:48Z</time>
      </trkpt>
      <trkpt lat="42.4250350" lon="-2.5589220">
        <ele>490.8</ele>
        <time>2022-06-27T06:44:49Z</time>
      </trkpt>
      <trkpt lat="42.4250840" lon="-2.5589700">
        <ele>490.8</ele>
        <time>2022-06-27T06:44:50Z</time>
      </trkpt>
      <trkpt lat="42.4251280" lon="-2.5590070">
        <ele>491.0</ele>
        <time>2022-06-27T06:44:51Z</time>
      </trkpt>
      <trkpt lat="42.4251740" lon="-2.5590460">
        <ele>491.0</ele>
        <time>2022-06-27T06:44:52Z</time>
      </trkpt>
      <trkpt lat="42.4252190" lon="-2.5590900">
        <ele>491.0</ele>
        <time>2022-06-27T06:44:53Z</time>
      </trkpt>
      <trkpt lat="42.4252580" lon="-2.5591290">
        <ele>491.2</ele>
        <time>2022-06-27T06:44:54Z</time>
      </trkpt>
      <trkpt lat="42.4253170" lon="-2.5591850">
        <ele>491.2</ele>
        <time>2022-06-27T06:44:55Z</time>
      </trkpt>
      <trkpt lat="42.4253680" lon="-2.5592340">
        <ele>491.2</ele>
        <time>2022-06-27T06:44:56Z</time>
      </trkpt>
      <trkpt lat="42.4254160" lon="-2.5592870">
        <ele>491.2</ele>
        <time>2022-06-27T06:44:57Z</time>
      </trkpt>
      <trkpt lat="42.4254650" lon="-2.5593370">
        <ele>491.2</ele>
        <time>2022-06-27T06:44:58Z</time>
      </trkpt>
      <trkpt lat="42.4255170" lon="-2.5593850">
        <ele>491.2</ele>
        <time>2022-06-27T06:44:59Z</time>
      </trkpt>
      <trkpt lat="42.4255680" lon="-2.5594340">
        <ele>491.2</ele>
        <time>2022-06-27T06:45:00Z</time>
      </trkpt>
      <trkpt lat="42.4256180" lon="-2.5594850">
        <ele>491.4</ele>
        <time>2022-06-27T06:45:01Z</time>
      </trkpt>
      <trkpt lat="42.4256660" lon="-2.5595340">
        <ele>491.4</ele>
        <time>2022-06-27T06:45:02Z</time>
      </trkpt>
      <trkpt lat="42.4257120" lon="-2.5595800">
        <ele>491.2</ele>
        <time>2022-06-27T06:45:03Z</time>
      </trkpt>
      <trkpt lat="42.4257530" lon="-2.5596230">
        <ele>491.2</ele>
        <time>2022-06-27T06:45:04Z</time>
      </trkpt>
      <trkpt lat="42.4257900" lon="-2.5596610">
        <ele>491.4</ele>
        <time>2022-06-27T06:45:05Z</time>
      </trkpt>
      <trkpt lat="42.4258270" lon="-2.5596990">
        <ele>491.4</ele>
        <time>2022-06-27T06:45:06Z</time>
      </trkpt>
      <trkpt lat="42.4258660" lon="-2.5597390">
        <ele>491.4</ele>
        <time>2022-06-27T06:45:07Z</time>
      </trkpt>
      <trkpt lat="42.4259060" lon="-2.5597790">
        <ele>491.6</ele>
        <time>2022-06-27T06:45:08Z</time>
      </trkpt>
      <trkpt lat="42.4259500" lon="-2.5598210">
        <ele>491.8</ele>
        <time>2022-06-27T06:45:09Z</time>
      </trkpt>
      <trkpt lat="42.4259930" lon="-2.5598670">
        <ele>491.8</ele>
        <time>2022-06-27T06:45:10Z</time>
      </trkpt>
      <trkpt lat="42.4260370" lon="-2.5599160">
        <ele>492.0</ele>
        <time>2022-06-27T06:45:11Z</time>
      </trkpt>
      <trkpt lat="42.4260800" lon="-2.5599640">
        <ele>492.0</ele>
        <time>2022-06-27T06:45:12Z</time>
      </trkpt>
      <trkpt lat="42.4261240" lon="-2.5600110">
        <ele>492.0</ele>
        <time>2022-06-27T06:45:13Z</time>
      </trkpt>
      <trkpt lat="42.4261680" lon="-2.5600510">
        <ele>492.0</ele>
        <time>2022-06-27T06:45:14Z</time>
      </trkpt>
      <trkpt lat="42.4262090" lon="-2.5600930">
        <ele>492.2</ele>
        <time>2022-06-27T06:45:15Z</time>
      </trkpt>
      <trkpt lat="42.4262480" lon="-2.5601340">
        <ele>492.2</ele>
        <time>2022-06-27T06:45:16Z</time>
      </trkpt>
      <trkpt lat="42.4262910" lon="-2.5601770">
        <ele>492.2</ele>
        <time>2022-06-27T06:45:17Z</time>
      </trkpt>
      <trkpt lat="42.4263310" lon="-2.5602210">
        <ele>492.4</ele>
        <time>2022-06-27T06:45:18Z</time>
      </trkpt>
      <trkpt lat="42.4263730" lon="-2.5602660">
        <ele>492.4</ele>
        <time>2022-06-27T06:45:19Z</time>
      </trkpt>
      <trkpt lat="42.4264140" lon="-2.5603100">
        <ele>492.4</ele>
        <time>2022-06-27T06:45:20Z</time>
      </trkpt>
      <trkpt lat="42.4264550" lon="-2.5603550">
        <ele>492.4</ele>
        <time>2022-06-27T06:45:21Z</time>
      </trkpt>
      <trkpt lat="42.4264970" lon="-2.5604000">
        <ele>492.8</ele>
        <time>2022-06-27T06:45:22Z</time>
      </trkpt>
      <trkpt lat="42.4265360" lon="-2.5604410">
        <ele>492.8</ele>
        <time>2022-06-27T06:45:23Z</time>
      </trkpt>
      <trkpt lat="42.4265660" lon="-2.5604660">
        <ele>493.0</ele>
        <time>2022-06-27T06:45:24Z</time>
      </trkpt>
      <trkpt lat="42.4266050" lon="-2.5604990">
        <ele>493.2</ele>
        <time>2022-06-27T06:45:25Z</time>
      </trkpt>
      <trkpt lat="42.4266450" lon="-2.5605380">
        <ele>493.2</ele>
        <time>2022-06-27T06:45:26Z</time>
      </trkpt>
      <trkpt lat="42.4266840" lon="-2.5605800">
        <ele>493.4</ele>
        <time>2022-06-27T06:45:27Z</time>
      </trkpt>
      <trkpt lat="42.4267270" lon="-2.5606290">
        <ele>493.4</ele>
        <time>2022-06-27T06:45:28Z</time>
      </trkpt>
      <trkpt lat="42.4267520" lon="-2.5606640">
        <ele>493.4</ele>
        <time>2022-06-27T06:45:29Z</time>
      </trkpt>
      <trkpt lat="42.4267900" lon="-2.5607070">
        <ele>493.6</ele>
        <time>2022-06-27T06:45:30Z</time>
      </trkpt>
      <trkpt lat="42.4268320" lon="-2.5607480">
        <ele>493.6</ele>
        <time>2022-06-27T06:45:31Z</time>
      </trkpt>
      <trkpt lat="42.4268770" lon="-2.5607890">
        <ele>493.6</ele>
        <time>2022-06-27T06:45:32Z</time>
      </trkpt>
      <trkpt lat="42.4269270" lon="-2.5608390">
        <ele>493.6</ele>
        <time>2022-06-27T06:45:33Z</time>
      </trkpt>
      <trkpt lat="42.4269700" lon="-2.5608880">
        <ele>493.8</ele>
        <time>2022-06-27T06:45:34Z</time>
      </trkpt>
      <trkpt lat="42.4270150" lon="-2.5609350">
        <ele>493.6</ele>
        <time>2022-06-27T06:45:35Z</time>
      </trkpt>
      <trkpt lat="42.4270610" lon="-2.5609770">
        <ele>493.8</ele>
        <time>2022-06-27T06:45:36Z</time>
      </trkpt>
      <trkpt lat="42.4271060" lon="-2.5610220">
        <ele>493.8</ele>
        <time>2022-06-27T06:45:37Z</time>
      </trkpt>
      <trkpt lat="42.4271420" lon="-2.5610620">
        <ele>494.0</ele>
        <time>2022-06-27T06:45:38Z</time>
      </trkpt>
      <trkpt lat="42.4271820" lon="-2.5611050">
        <ele>494.0</ele>
        <time>2022-06-27T06:45:39Z</time>
      </trkpt>
      <trkpt lat="42.4272210" lon="-2.5611510">
        <ele>494.2</ele>
        <time>2022-06-27T06:45:40Z</time>
      </trkpt>
      <trkpt lat="42.4272590" lon="-2.5611900">
        <ele>494.2</ele>
        <time>2022-06-27T06:45:41Z</time>
      </trkpt>
      <trkpt lat="42.4272970" lon="-2.5612310">
        <ele>494.4</ele>
        <time>2022-06-27T06:45:42Z</time>
      </trkpt>
      <trkpt lat="42.4273370" lon="-2.5612670">
        <ele>494.4</ele>
        <time>2022-06-27T06:45:43Z</time>
      </trkpt>
      <trkpt lat="42.4273660" lon="-2.5613010">
        <ele>494.4</ele>
        <time>2022-06-27T06:45:44Z</time>
      </trkpt>
      <trkpt lat="42.4273930" lon="-2.5613290">
        <ele>494.4</ele>
        <time>2022-06-27T06:45:45Z</time>
      </trkpt>
      <trkpt lat="42.4274170" lon="-2.5613590">
        <ele>494.6</ele>
        <time>2022-06-27T06:45:46Z</time>
      </trkpt>
      <trkpt lat="42.4274440" lon="-2.5613900">
        <ele>494.8</ele>
        <time>2022-06-27T06:45:47Z</time>
      </trkpt>
      <trkpt lat="42.4274710" lon="-2.5614210">
        <ele>494.8</ele>
        <time>2022-06-27T06:45:48Z</time>
      </trkpt>
      <trkpt lat="42.4275100" lon="-2.5614500">
        <ele>494.8</ele>
        <time>2022-06-27T06:45:49Z</time>
      </trkpt>
      <trkpt lat="42.4275390" lon="-2.5614760">
        <ele>494.8</ele>
        <time>2022-06-27T06:45:50Z</time>
      </trkpt>
      <trkpt lat="42.4275680" lon="-2.5615010">
        <ele>495.0</ele>
        <time>2022-06-27T06:45:51Z</time>
      </trkpt>
      <trkpt lat="42.4276050" lon="-2.5615210">
        <ele>495.2</ele>
        <time>2022-06-27T06:45:52Z</time>
      </trkpt>
      <trkpt lat="42.4276470" lon="-2.5615440">
        <ele>495.4</ele>
        <time>2022-06-27T06:45:53Z</time>
      </trkpt>
      <trkpt lat="42.4276840" lon="-2.5615590">
        <ele>495.4</ele>
        <time>2022-06-27T06:45:54Z</time>
      </trkpt>
      <trkpt lat="42.4277130" lon="-2.5615730">
        <ele>495.6</ele>
        <time>2022-06-27T06:45:55Z</time>
      </trkpt>
      <trkpt lat="42.4277440" lon="-2.5615930">
        <ele>495.6</ele>
        <time>2022-06-27T06:45:56Z</time>
      </trkpt>
      <trkpt lat="42.4277810" lon="-2.5616140">
        <ele>495.8</ele>
        <time>2022-06-27T06:45:57Z</time>
      </trkpt>
      <trkpt lat="42.4278210" lon="-2.5616320">
        <ele>495.8</ele>
        <time>2022-06-27T06:45:58Z</time>
      </trkpt>
      <trkpt lat="42.4278670" lon="-2.5616440">
        <ele>496.0</ele>
        <time>2022-06-27T06:45:59Z</time>
      </trkpt>
      <trkpt lat="42.4279120" lon="-2.5616540">
        <ele>496.0</ele>
        <time>2022-06-27T06:46:00Z</time>
      </trkpt>
      <trkpt lat="42.4279490" lon="-2.5616520">
        <ele>496.0</ele>
        <time>2022-06-27T06:46:01Z</time>
      </trkpt>
      <trkpt lat="42.4279870" lon="-2.5616470">
        <ele>496.2</ele>
        <time>2022-06-27T06:46:02Z</time>
      </trkpt>
      <trkpt lat="42.4280230" lon="-2.5616420">
        <ele>496.2</ele>
        <time>2022-06-27T06:46:03Z</time>
      </trkpt>
      <trkpt lat="42.4280670" lon="-2.5616450">
        <ele>496.2</ele>
        <time>2022-06-27T06:46:04Z</time>
      </trkpt>
      <trkpt lat="42.4281100" lon="-2.5616430">
        <ele>496.4</ele>
        <time>2022-06-27T06:46:05Z</time>
      </trkpt>
      <trkpt lat="42.4281670" lon="-2.5616380">
        <ele>496.4</ele>
        <time>2022-06-27T06:46:06Z</time>
      </trkpt>
      <trkpt lat="42.4282100" lon="-2.5616330">
        <ele>496.6</ele>
        <time>2022-06-27T06:46:07Z</time>
      </trkpt>
      <trkpt lat="42.4282430" lon="-2.5616240">
        <ele>496.6</ele>
        <time>2022-06-27T06:46:08Z</time>
      </trkpt>
      <trkpt lat="42.4282800" lon="-2.5616120">
        <ele>496.6</ele>
        <time>2022-06-27T06:46:09Z</time>
      </trkpt>
      <trkpt lat="42.4283190" lon="-2.5616020">
        <ele>496.8</ele>
        <time>2022-06-27T06:46:10Z</time>
      </trkpt>
      <trkpt lat="42.4283650" lon="-2.5615890">
        <ele>497.0</ele>
        <time>2022-06-27T06:46:11Z</time>
      </trkpt>
      <trkpt lat="42.4284000" lon="-2.5615760">
        <ele>497.2</ele>
        <time>2022-06-27T06:46:12Z</time>
      </trkpt>
      <trkpt lat="42.4284350" lon="-2.5615650">
        <ele>497.4</ele>
        <time>2022-06-27T06:46:13Z</time>
      </trkpt>
      <trkpt lat="42.4284690" lon="-2.5615560">
        <ele>497.4</ele>
        <time>2022-06-27T06:46:14Z</time>
      </trkpt>
      <trkpt lat="42.4285010" lon="-2.5615520">
        <ele>497.6</ele>
        <time>2022-06-27T06:46:15Z</time>
      </trkpt>
      <trkpt lat="42.4285310" lon="-2.5615480">
        <ele>497.8</ele>
        <time>2022-06-27T06:46:16Z</time>
      </trkpt>
      <trkpt lat="42.4285610" lon="-2.5615400">
        <ele>498.0</ele>
        <time>2022-06-27T06:46:17Z</time>
      </trkpt>
      <trkpt lat="42.4285910" lon="-2.5615310">
        <ele>498.0</ele>
        <time>2022-06-27T06:46:18Z</time>
      </trkpt>
      <trkpt lat="42.4286190" lon="-2.5615210">
        <ele>498.4</ele>
        <time>2022-06-27T06:46:19Z</time>
      </trkpt>
      <trkpt lat="42.4286450" lon="-2.5615140">
        <ele>498.6</ele>
        <time>2022-06-27T06:46:20Z</time>
      </trkpt>
      <trkpt lat="42.4286720" lon="-2.5615100">
        <ele>499.2</ele>
        <time>2022-06-27T06:46:21Z</time>
      </trkpt>
      <trkpt lat="42.4286980" lon="-2.5615060">
        <ele>499.6</ele>
        <time>2022-06-27T06:46:22Z</time>
      </trkpt>
      <trkpt lat="42.4287270" lon="-2.5615000">
        <ele>499.6</ele>
        <time>2022-06-27T06:46:23Z</time>
      </trkpt>
      <trkpt lat="42.4287590" lon="-2.5614940">
        <ele>499.8</ele>
        <time>2022-06-27T06:46:24Z</time>
      </trkpt>
      <trkpt lat="42.4287870" lon="-2.5614900">
        <ele>500.0</ele>
        <time>2022-06-27T06:46:25Z</time>
      </trkpt>
      <trkpt lat="42.4288100" lon="-2.5614820">
        <ele>500.6</ele>
        <time>2022-06-27T06:46:26Z</time>
      </trkpt>
      <trkpt lat="42.4288300" lon="-2.5614780">
        <ele>500.6</ele>
        <time>2022-06-27T06:46:27Z</time>
      </trkpt>
      <trkpt lat="42.4288490" lon="-2.5614830">
        <ele>501.0</ele>
        <time>2022-06-27T06:46:28Z</time>
      </trkpt>
      <trkpt lat="42.4288660" lon="-2.5614960">
        <ele>501.2</ele>
        <time>2022-06-27T06:46:29Z</time>
      </trkpt>
      <trkpt lat="42.4288810" lon="-2.5615260">
        <ele>501.4</ele>
        <time>2022-06-27T06:46:30Z</time>
      </trkpt>
      <trkpt lat="42.4288930" lon="-2.5615600">
        <ele>501.6</ele>
        <time>2022-06-27T06:46:31Z</time>
      </trkpt>
      <trkpt lat="42.4289020" lon="-2.5615920">
        <ele>501.8</ele>
        <time>2022-06-27T06:46:32Z</time>
      </trkpt>
      <trkpt lat="42.4289110" lon="-2.5616250">
        <ele>502.4</ele>
        <time>2022-06-27T06:46:33Z</time>
      </trkpt>
      <trkpt lat="42.4289180" lon="-2.5616610">
        <ele>502.4</ele>
        <time>2022-06-27T06:46:34Z</time>
      </trkpt>
      <trkpt lat="42.4289260" lon="-2.5617000">
        <ele>502.6</ele>
        <time>2022-06-27T06:46:35Z</time>
      </trkpt>
      <trkpt lat="42.4289360" lon="-2.5617390">
        <ele>502.8</ele>
        <time>2022-06-27T06:46:36Z</time>
      </trkpt>
      <trkpt lat="42.4289470" lon="-2.5617780">
        <ele>502.8</ele>
        <time>2022-06-27T06:46:37Z</time>
      </trkpt>
      <trkpt lat="42.4289580" lon="-2.5618200">
        <ele>502.8</ele>
        <time>2022-06-27T06:46:38Z</time>
      </trkpt>
      <trkpt lat="42.4289720" lon="-2.5618640">
        <ele>502.8</ele>
        <time>2022-06-27T06:46:39Z</time>
      </trkpt>
      <trkpt lat="42.4289870" lon="-2.5619070">
        <ele>503.0</ele>
        <time>2022-06-27T06:46:40Z</time>
      </trkpt>
      <trkpt lat="42.4289990" lon="-2.5619500">
        <ele>503.0</ele>
        <time>2022-06-27T06:46:41Z</time>
      </trkpt>
      <trkpt lat="42.4290130" lon="-2.5619910">
        <ele>503.2</ele>
        <time>2022-06-27T06:46:42Z</time>
      </trkpt>
      <trkpt lat="42.4290270" lon="-2.5620270">
        <ele>503.2</ele>
        <time>2022-06-27T06:46:43Z</time>
      </trkpt>
      <trkpt lat="42.4290390" lon="-2.5620650">
        <ele>503.4</ele>
        <time>2022-06-27T06:46:44Z</time>
      </trkpt>
      <trkpt lat="42.4290490" lon="-2.5621060">
        <ele>503.4</ele>
        <time>2022-06-27T06:46:45Z</time>
      </trkpt>
      <trkpt lat="42.4290590" lon="-2.5621480">
        <ele>503.6</ele>
        <time>2022-06-27T06:46:46Z</time>
      </trkpt>
      <trkpt lat="42.4290730" lon="-2.5621930">
        <ele>503.6</ele>
        <time>2022-06-27T06:46:47Z</time>
      </trkpt>
      <trkpt lat="42.4290870" lon="-2.5622350">
        <ele>503.8</ele>
        <time>2022-06-27T06:46:48Z</time>
      </trkpt>
      <trkpt lat="42.4291020" lon="-2.5622790">
        <ele>503.8</ele>
        <time>2022-06-27T06:46:49Z</time>
      </trkpt>
      <trkpt lat="42.4291160" lon="-2.5623230">
        <ele>503.8</ele>
        <time>2022-06-27T06:46:50Z</time>
      </trkpt>
      <trkpt lat="42.4291310" lon="-2.5623670">
        <ele>503.8</ele>
        <time>2022-06-27T06:46:51Z</time>
      </trkpt>
      <trkpt lat="42.4291480" lon="-2.5624130">
        <ele>504.0</ele>
        <time>2022-06-27T06:46:52Z</time>
      </trkpt>
      <trkpt lat="42.4291650" lon="-2.5624590">
        <ele>504.0</ele>
        <time>2022-06-27T06:46:53Z</time>
      </trkpt>
      <trkpt lat="42.4291840" lon="-2.5625060">
        <ele>504.0</ele>
        <time>2022-06-27T06:46:54Z</time>
      </trkpt>
      <trkpt lat="42.4292020" lon="-2.5625550">
        <ele>504.2</ele>
        <time>2022-06-27T06:46:55Z</time>
      </trkpt>
      <trkpt lat="42.4292170" lon="-2.5626030">
        <ele>504.2</ele>
        <time>2022-06-27T06:46:56Z</time>
      </trkpt>
      <trkpt lat="42.4292310" lon="-2.5626440">
        <ele>504.2</ele>
        <time>2022-06-27T06:46:57Z</time>
      </trkpt>
      <trkpt lat="42.4292520" lon="-2.5627040">
        <ele>504.4</ele>
        <time>2022-06-27T06:46:58Z</time>
      </trkpt>
      <trkpt lat="42.4292700" lon="-2.5627540">
        <ele>504.4</ele>
        <time>2022-06-27T06:46:59Z</time>
      </trkpt>
      <trkpt lat="42.4292870" lon="-2.5628020">
        <ele>504.4</ele>
        <time>2022-06-27T06:47:00Z</time>
      </trkpt>
      <trkpt lat="42.4293030" lon="-2.5628510">
        <ele>504.6</ele>
        <time>2022-06-27T06:47:01Z</time>
      </trkpt>
      <trkpt lat="42.4293240" lon="-2.5629010">
        <ele>504.6</ele>
        <time>2022-06-27T06:47:02Z</time>
      </trkpt>
      <trkpt lat="42.4293420" lon="-2.5629380">
        <ele>504.8</ele>
        <time>2022-06-27T06:47:03Z</time>
      </trkpt>
      <trkpt lat="42.4293690" lon="-2.5629890">
        <ele>504.8</ele>
        <time>2022-06-27T06:47:04Z</time>
      </trkpt>
      <trkpt lat="42.4293860" lon="-2.5630370">
        <ele>505.0</ele>
        <time>2022-06-27T06:47:05Z</time>
      </trkpt>
      <trkpt lat="42.4294010" lon="-2.5630850">
        <ele>505.0</ele>
        <time>2022-06-27T06:47:06Z</time>
      </trkpt>
      <trkpt lat="42.4294200" lon="-2.5631350">
        <ele>505.0</ele>
        <time>2022-06-27T06:47:07Z</time>
      </trkpt>
      <trkpt lat="42.4294400" lon="-2.5631870">
        <ele>505.0</ele>
        <time>2022-06-27T06:47:08Z</time>
      </trkpt>
      <trkpt lat="42.4294610" lon="-2.5632390">
        <ele>505.2</ele>
        <time>2022-06-27T06:47:09Z</time>
      </trkpt>
      <trkpt lat="42.4294820" lon="-2.5632920">
        <ele>505.2</ele>
        <time>2022-06-27T06:47:10Z</time>
      </trkpt>
      <trkpt lat="42.4295060" lon="-2.5633430">
        <ele>505.2</ele>
        <time>2022-06-27T06:47:11Z</time>
      </trkpt>
      <trkpt lat="42.4295350" lon="-2.5633920">
        <ele>505.2</ele>
        <time>2022-06-27T06:47:12Z</time>
      </trkpt>
      <trkpt lat="42.4295640" lon="-2.5634420">
        <ele>505.2</ele>
        <time>2022-06-27T06:47:13Z</time>
      </trkpt>
      <trkpt lat="42.4295920" lon="-2.5634920">
        <ele>505.2</ele>
        <time>2022-06-27T06:47:14Z</time>
      </trkpt>
      <trkpt lat="42.4296190" lon="-2.5635390">
        <ele>505.2</ele>
        <time>2022-06-27T06:47:15Z</time>
      </trkpt>
      <trkpt lat="42.4296450" lon="-2.5635840">
        <ele>505.2</ele>
        <time>2022-06-27T06:47:16Z</time>
      </trkpt>
      <trkpt lat="42.4296710" lon="-2.5636320">
        <ele>505.2</ele>
        <time>2022-06-27T06:47:17Z</time>
      </trkpt>
      <trkpt lat="42.4296970" lon="-2.5636760">
        <ele>505.2</ele>
        <time>2022-06-27T06:47:18Z</time>
      </trkpt>
      <trkpt lat="42.4297180" lon="-2.5637220">
        <ele>505.0</ele>
        <time>2022-06-27T06:47:19Z</time>
      </trkpt>
      <trkpt lat="42.4297450" lon="-2.5637720">
        <ele>505.0</ele>
        <time>2022-06-27T06:47:20Z</time>
      </trkpt>
      <trkpt lat="42.4297770" lon="-2.5638220">
        <ele>505.0</ele>
        <time>2022-06-27T06:47:21Z</time>
      </trkpt>
      <trkpt lat="42.4298060" lon="-2.5638700">
        <ele>505.0</ele>
        <time>2022-06-27T06:47:22Z</time>
      </trkpt>
      <trkpt lat="42.4298350" lon="-2.5639100">
        <ele>504.8</ele>
        <time>2022-06-27T06:47:23Z</time>
      </trkpt>
      <trkpt lat="42.4298650" lon="-2.5639470">
        <ele>504.8</ele>
        <time>2022-06-27T06:47:24Z</time>
      </trkpt>
      <trkpt lat="42.4298900" lon="-2.5639790">
        <ele>504.8</ele>
        <time>2022-06-27T06:47:25Z</time>
      </trkpt>
      <trkpt lat="42.4299110" lon="-2.5640080">
        <ele>504.8</ele>
        <time>2022-06-27T06:47:26Z</time>
      </trkpt>
      <trkpt lat="42.4300810" lon="-2.5642840">
        <ele>504.0</ele>
        <time>2022-06-27T06:51:09Z</time>
      </trkpt>
      <trkpt lat="42.4301020" lon="-2.5643010">
        <ele>504.0</ele>
        <time>2022-06-27T06:51:10Z</time>
      </trkpt>
      <trkpt lat="42.4301460" lon="-2.5643370">
        <ele>504.0</ele>
        <time>2022-06-27T06:51:11Z</time>
      </trkpt>
      <trkpt lat="42.4301880" lon="-2.5643690">
        <ele>504.0</ele>
        <time>2022-06-27T06:51:12Z</time>
      </trkpt>
      <trkpt lat="42.4302300" lon="-2.5644020">
        <ele>504.2</ele>
        <time>2022-06-27T06:51:13Z</time>
      </trkpt>
      <trkpt lat="42.4302730" lon="-2.5644300">
        <ele>503.8</ele>
        <time>2022-06-27T06:51:14Z</time>
      </trkpt>
      <trkpt lat="42.4303160" lon="-2.5644460">
        <ele>503.8</ele>
        <time>2022-06-27T06:51:15Z</time>
      </trkpt>
      <trkpt lat="42.4303590" lon="-2.5644610">
        <ele>503.8</ele>
        <time>2022-06-27T06:51:16Z</time>
      </trkpt>
      <trkpt lat="42.4303800" lon="-2.5644700">
        <ele>503.8</ele>
        <time>2022-06-27T06:51:17Z</time>
      </trkpt>
      <trkpt lat="42.4304010" lon="-2.5644790">
        <ele>503.8</ele>
        <time>2022-06-27T06:51:18Z</time>
      </trkpt>
      <trkpt lat="42.4304920" lon="-2.5645220">
        <ele>503.8</ele>
        <time>2022-06-27T06:51:19Z</time>
      </trkpt>
      <trkpt lat="42.4305440" lon="-2.5645630">
        <ele>503.8</ele>
        <time>2022-06-27T06:51:20Z</time>
      </trkpt>
      <trkpt lat="42.4305780" lon="-2.5646030">
        <ele>503.8</ele>
        <time>2022-06-27T06:51:21Z</time>
      </trkpt>
      <trkpt lat="42.4306170" lon="-2.5646600">
        <ele>503.8</ele>
        <time>2022-06-27T06:51:22Z</time>
      </trkpt>
      <trkpt lat="42.4306350" lon="-2.5647300">
        <ele>503.8</ele>
        <time>2022-06-27T06:51:23Z</time>
      </trkpt>
      <trkpt lat="42.4306280" lon="-2.5647590">
        <ele>503.8</ele>
        <time>2022-06-27T06:51:24Z</time>
      </trkpt>
      <trkpt lat="42.4306210" lon="-2.5647890">
        <ele>503.8</ele>
        <time>2022-06-27T06:51:25Z</time>
      </trkpt>
      <trkpt lat="42.4306130" lon="-2.5648430">
        <ele>503.4</ele>
        <time>2022-06-27T06:51:26Z</time>
      </trkpt>
      <trkpt lat="42.4305970" lon="-2.5649470">
        <ele>503.4</ele>
        <time>2022-06-27T06:51:27Z</time>
      </trkpt>
      <trkpt lat="42.4305810" lon="-2.5650240">
        <ele>503.4</ele>
        <time>2022-06-27T06:51:28Z</time>
      </trkpt>
      <trkpt lat="42.4305760" lon="-2.5650590">
        <ele>503.4</ele>
        <time>2022-06-27T06:51:29Z</time>
      </trkpt>
      <trkpt lat="42.4305700" lon="-2.5650930">
        <ele>503.4</ele>
        <time>2022-06-27T06:51:30Z</time>
      </trkpt>
      <trkpt lat="42.4305510" lon="-2.5652410">
        <ele>503.4</ele>
        <time>2022-06-27T06:51:31Z</time>
      </trkpt>
      <trkpt lat="42.4305480" lon="-2.5652790">
        <ele>503.2</ele>
        <time>2022-06-27T06:51:32Z</time>
      </trkpt>
      <trkpt lat="42.4305450" lon="-2.5653180">
        <ele>503.2</ele>
        <time>2022-06-27T06:51:33Z</time>
      </trkpt>
      <trkpt lat="42.4305340" lon="-2.5654490">
        <ele>502.8</ele>
        <time>2022-06-27T06:51:34Z</time>
      </trkpt>
      <trkpt lat="42.4305280" lon="-2.5655040">
        <ele>502.6</ele>
        <time>2022-06-27T06:51:35Z</time>
      </trkpt>
      <trkpt lat="42.4305180" lon="-2.5656130">
        <ele>502.6</ele>
        <time>2022-06-27T06:51:36Z</time>
      </trkpt>
      <trkpt lat="42.4305150" lon="-2.5656710">
        <ele>502.6</ele>
        <time>2022-06-27T06:51:37Z</time>
      </trkpt>
      <trkpt lat="42.4305080" lon="-2.5657410">
        <ele>502.6</ele>
        <time>2022-06-27T06:51:38Z</time>
      </trkpt>
      <trkpt lat="42.4305030" lon="-2.5658070">
        <ele>502.6</ele>
        <time>2022-06-27T06:51:39Z</time>
      </trkpt>
      <trkpt lat="42.4304980" lon="-2.5658730">
        <ele>502.6</ele>
        <time>2022-06-27T06:51:40Z</time>
      </trkpt>
      <trkpt lat="42.4304850" lon="-2.5659440">
        <ele>502.6</ele>
        <time>2022-06-27T06:51:41Z</time>
      </trkpt>
      <trkpt lat="42.4304720" lon="-2.5660070">
        <ele>502.6</ele>
        <time>2022-06-27T06:51:42Z</time>
      </trkpt>
      <trkpt lat="42.4304640" lon="-2.5660630">
        <ele>502.6</ele>
        <time>2022-06-27T06:51:43Z</time>
      </trkpt>
      <trkpt lat="42.4304550" lon="-2.5661200">
        <ele>502.6</ele>
        <time>2022-06-27T06:51:44Z</time>
      </trkpt>
      <trkpt lat="42.4304380" lon="-2.5662330">
        <ele>502.6</ele>
        <time>2022-06-27T06:51:45Z</time>
      </trkpt>
      <trkpt lat="42.4304280" lon="-2.5663040">
        <ele>502.2</ele>
        <time>2022-06-27T06:51:46Z</time>
      </trkpt>
      <trkpt lat="42.4304190" lon="-2.5663630">
        <ele>502.2</ele>
        <time>2022-06-27T06:51:47Z</time>
      </trkpt>
      <trkpt lat="42.4304130" lon="-2.5664030">
        <ele>502.2</ele>
        <time>2022-06-27T06:51:48Z</time>
      </trkpt>
      <trkpt lat="42.4304070" lon="-2.5664430">
        <ele>502.2</ele>
        <time>2022-06-27T06:51:49Z</time>
      </trkpt>
      <trkpt lat="42.4303890" lon="-2.5665600">
        <ele>502.2</ele>
        <time>2022-06-27T06:51:50Z</time>
      </trkpt>
      <trkpt lat="42.4303830" lon="-2.5665960">
        <ele>502.2</ele>
        <time>2022-06-27T06:51:51Z</time>
      </trkpt>
      <trkpt lat="42.4303690" lon="-2.5666670">
        <ele>502.2</ele>
        <time>2022-06-27T06:51:52Z</time>
      </trkpt>
      <trkpt lat="42.4303580" lon="-2.5667360">
        <ele>502.2</ele>
        <time>2022-06-27T06:51:53Z</time>
      </trkpt>
      <trkpt lat="42.4303370" lon="-2.5668750">
        <ele>502.2</ele>
        <time>2022-06-27T06:51:54Z</time>
      </trkpt>
      <trkpt lat="42.4303280" lon="-2.5669450">
        <ele>502.2</ele>
        <time>2022-06-27T06:51:55Z</time>
      </trkpt>
      <trkpt lat="42.4303200" lon="-2.5669980">
        <ele>502.2</ele>
        <time>2022-06-27T06:51:56Z</time>
      </trkpt>
      <trkpt lat="42.4303160" lon="-2.5670320">
        <ele>502.2</ele>
        <time>2022-06-27T06:51:57Z</time>
      </trkpt>
      <trkpt lat="42.4303110" lon="-2.5670650">
        <ele>502.2</ele>
        <time>2022-06-27T06:51:58Z</time>
      </trkpt>
      <trkpt lat="42.4302930" lon="-2.5672100">
        <ele>502.6</ele>
        <time>2022-06-27T06:51:59Z</time>
      </trkpt>
      <trkpt lat="42.4302850" lon="-2.5672700">
        <ele>502.6</ele>
        <time>2022-06-27T06:52:00Z</time>
      </trkpt>
      <trkpt lat="42.4302760" lon="-2.5673230">
        <ele>502.6</ele>
        <time>2022-06-27T06:52:01Z</time>
      </trkpt>
      <trkpt lat="42.4302710" lon="-2.5673550">
        <ele>502.8</ele>
        <time>2022-06-27T06:52:02Z</time>
      </trkpt>
      <trkpt lat="42.4302650" lon="-2.5673870">
        <ele>503.2</ele>
        <time>2022-06-27T06:52:03Z</time>
      </trkpt>
      <trkpt lat="42.4302450" lon="-2.5675150">
        <ele>503.2</ele>
        <time>2022-06-27T06:52:04Z</time>
      </trkpt>
      <trkpt lat="42.4302330" lon="-2.5675890">
        <ele>503.2</ele>
        <time>2022-06-27T06:52:05Z</time>
      </trkpt>
      <trkpt lat="42.4302270" lon="-2.5676400">
        <ele>503.2</ele>
        <time>2022-06-27T06:52:06Z</time>
      </trkpt>
      <trkpt lat="42.4302220" lon="-2.5677000">
        <ele>503.2</ele>
        <time>2022-06-27T06:52:07Z</time>
      </trkpt>
      <trkpt lat="42.4302140" lon="-2.5677630">
        <ele>503.2</ele>
        <time>2022-06-27T06:52:08Z</time>
      </trkpt>
      <trkpt lat="42.4302070" lon="-2.5678260">
        <ele>503.2</ele>
        <time>2022-06-27T06:52:09Z</time>
      </trkpt>
      <trkpt lat="42.4301960" lon="-2.5678810">
        <ele>503.4</ele>
        <time>2022-06-27T06:52:10Z</time>
      </trkpt>
      <trkpt lat="42.4301840" lon="-2.5679280">
        <ele>503.4</ele>
        <time>2022-06-27T06:52:11Z</time>
      </trkpt>
      <trkpt lat="42.4301720" lon="-2.5679870">
        <ele>503.8</ele>
        <time>2022-06-27T06:52:12Z</time>
      </trkpt>
      <trkpt lat="42.4301570" lon="-2.5680570">
        <ele>503.8</ele>
        <time>2022-06-27T06:52:13Z</time>
      </trkpt>
      <trkpt lat="42.4301400" lon="-2.5681140">
        <ele>503.8</ele>
        <time>2022-06-27T06:52:14Z</time>
      </trkpt>
      <trkpt lat="42.4301190" lon="-2.5681660">
        <ele>503.8</ele>
        <time>2022-06-27T06:52:15Z</time>
      </trkpt>
      <trkpt lat="42.4301010" lon="-2.5682080">
        <ele>503.8</ele>
        <time>2022-06-27T06:52:16Z</time>
      </trkpt>
      <trkpt lat="42.4300790" lon="-2.5682630">
        <ele>503.8</ele>
        <time>2022-06-27T06:52:17Z</time>
      </trkpt>
      <trkpt lat="42.4300670" lon="-2.5682920">
        <ele>503.8</ele>
        <time>2022-06-27T06:52:18Z</time>
      </trkpt>
      <trkpt lat="42.4300540" lon="-2.5683210">
        <ele>503.8</ele>
        <time>2022-06-27T06:52:19Z</time>
      </trkpt>
      <trkpt lat="42.4299990" lon="-2.5684510">
        <ele>503.8</ele>
        <time>2022-06-27T06:52:20Z</time>
      </trkpt>
      <trkpt lat="42.4299740" lon="-2.5685040">
        <ele>504.0</ele>
        <time>2022-06-27T06:52:21Z</time>
      </trkpt>
      <trkpt lat="42.4299500" lon="-2.5685580">
        <ele>504.0</ele>
        <time>2022-06-27T06:52:22Z</time>
      </trkpt>
      <trkpt lat="42.4299360" lon="-2.5685890">
        <ele>504.2</ele>
        <time>2022-06-27T06:52:23Z</time>
      </trkpt>
      <trkpt lat="42.4299220" lon="-2.5686200">
        <ele>504.6</ele>
        <time>2022-06-27T06:52:24Z</time>
      </trkpt>
      <trkpt lat="42.4298670" lon="-2.5687360">
        <ele>504.6</ele>
        <time>2022-06-27T06:52:25Z</time>
      </trkpt>
      <trkpt lat="42.4298410" lon="-2.5687900">
        <ele>504.6</ele>
        <time>2022-06-27T06:52:26Z</time>
      </trkpt>
      <trkpt lat="42.4298270" lon="-2.5688200">
        <ele>504.6</ele>
        <time>2022-06-27T06:52:27Z</time>
      </trkpt>
      <trkpt lat="42.4298130" lon="-2.5688500">
        <ele>504.6</ele>
        <time>2022-06-27T06:52:28Z</time>
      </trkpt>
      <trkpt lat="42.4297520" lon="-2.5689760">
        <ele>504.6</ele>
        <time>2022-06-27T06:52:29Z</time>
      </trkpt>
      <trkpt lat="42.4297270" lon="-2.5690320">
        <ele>504.6</ele>
        <time>2022-06-27T06:52:30Z</time>
      </trkpt>
      <trkpt lat="42.4297050" lon="-2.5690770">
        <ele>504.6</ele>
        <time>2022-06-27T06:52:31Z</time>
      </trkpt>
      <trkpt lat="42.4296780" lon="-2.5691330">
        <ele>504.8</ele>
        <time>2022-06-27T06:52:32Z</time>
      </trkpt>
      <trkpt lat="42.4296570" lon="-2.5691780">
        <ele>504.8</ele>
        <time>2022-06-27T06:52:33Z</time>
      </trkpt>
      <trkpt lat="42.4296360" lon="-2.5692230">
        <ele>504.8</ele>
        <time>2022-06-27T06:52:34Z</time>
      </trkpt>
      <trkpt lat="42.4295940" lon="-2.5693130">
        <ele>504.8</ele>
        <time>2022-06-27T06:52:35Z</time>
      </trkpt>
      <trkpt lat="42.4295730" lon="-2.5693590">
        <ele>504.8</ele>
        <time>2022-06-27T06:52:36Z</time>
      </trkpt>
      <trkpt lat="42.4295470" lon="-2.5694160">
        <ele>504.8</ele>
        <time>2022-06-27T06:52:37Z</time>
      </trkpt>
      <trkpt lat="42.4295200" lon="-2.5694740">
        <ele>504.8</ele>
        <time>2022-06-27T06:52:38Z</time>
      </trkpt>
      <trkpt lat="42.4294910" lon="-2.5695300">
        <ele>504.8</ele>
        <time>2022-06-27T06:52:39Z</time>
      </trkpt>
      <trkpt lat="42.4294550" lon="-2.5695980">
        <ele>504.8</ele>
        <time>2022-06-27T06:52:40Z</time>
      </trkpt>
      <trkpt lat="42.4294330" lon="-2.5696460">
        <ele>504.8</ele>
        <time>2022-06-27T06:52:41Z</time>
      </trkpt>
      <trkpt lat="42.4294080" lon="-2.5697030">
        <ele>504.8</ele>
        <time>2022-06-27T06:52:42Z</time>
      </trkpt>
      <trkpt lat="42.4293860" lon="-2.5697490">
        <ele>504.8</ele>
        <time>2022-06-27T06:52:43Z</time>
      </trkpt>
      <trkpt lat="42.4293640" lon="-2.5697940">
        <ele>504.8</ele>
        <time>2022-06-27T06:52:44Z</time>
      </trkpt>
      <trkpt lat="42.4293200" lon="-2.5698850">
        <ele>505.2</ele>
        <time>2022-06-27T06:52:45Z</time>
      </trkpt>
      <trkpt lat="42.4292980" lon="-2.5699310">
        <ele>504.8</ele>
        <time>2022-06-27T06:52:46Z</time>
      </trkpt>
      <trkpt lat="42.4292710" lon="-2.5699890">
        <ele>505.2</ele>
        <time>2022-06-27T06:52:47Z</time>
      </trkpt>
      <trkpt lat="42.4292500" lon="-2.5700340">
        <ele>505.2</ele>
        <time>2022-06-27T06:52:48Z</time>
      </trkpt>
      <trkpt lat="42.4292290" lon="-2.5700800">
        <ele>505.2</ele>
        <time>2022-06-27T06:52:49Z</time>
      </trkpt>
      <trkpt lat="42.4291880" lon="-2.5701710">
        <ele>505.2</ele>
        <time>2022-06-27T06:52:50Z</time>
      </trkpt>
      <trkpt lat="42.4291680" lon="-2.5702150">
        <ele>505.2</ele>
        <time>2022-06-27T06:52:51Z</time>
      </trkpt>
      <trkpt lat="42.4291420" lon="-2.5702700">
        <ele>505.2</ele>
        <time>2022-06-27T06:52:52Z</time>
      </trkpt>
      <trkpt lat="42.4291210" lon="-2.5703160">
        <ele>505.2</ele>
        <time>2022-06-27T06:52:53Z</time>
      </trkpt>
      <trkpt lat="42.4291000" lon="-2.5703620">
        <ele>505.2</ele>
        <time>2022-06-27T06:52:54Z</time>
      </trkpt>
      <trkpt lat="42.4290580" lon="-2.5704540">
        <ele>505.2</ele>
        <time>2022-06-27T06:52:55Z</time>
      </trkpt>
      <trkpt lat="42.4290370" lon="-2.5705010">
        <ele>505.4</ele>
        <time>2022-06-27T06:52:56Z</time>
      </trkpt>
      <trkpt lat="42.4290120" lon="-2.5705580">
        <ele>505.4</ele>
        <time>2022-06-27T06:52:57Z</time>
      </trkpt>
      <trkpt lat="42.4289870" lon="-2.5706150">
        <ele>505.8</ele>
        <time>2022-06-27T06:52:58Z</time>
      </trkpt>
      <trkpt lat="42.4289580" lon="-2.5706730">
        <ele>505.8</ele>
        <time>2022-06-27T06:52:59Z</time>
      </trkpt>
      <trkpt lat="42.4289300" lon="-2.5707300">
        <ele>505.8</ele>
        <time>2022-06-27T06:53:00Z</time>
      </trkpt>
      <trkpt lat="42.4289070" lon="-2.5707750">
        <ele>505.8</ele>
        <time>2022-06-27T06:53:01Z</time>
      </trkpt>
      <trkpt lat="42.4288800" lon="-2.5708320">
        <ele>505.8</ele>
        <time>2022-06-27T06:53:02Z</time>
      </trkpt>
      <trkpt lat="42.4288520" lon="-2.5708900">
        <ele>505.8</ele>
        <time>2022-06-27T06:53:03Z</time>
      </trkpt>
      <trkpt lat="42.4288250" lon="-2.5709460">
        <ele>505.8</ele>
        <time>2022-06-27T06:53:04Z</time>
      </trkpt>
      <trkpt lat="42.4287920" lon="-2.5710120">
        <ele>506.0</ele>
        <time>2022-06-27T06:53:05Z</time>
      </trkpt>
      <trkpt lat="42.4287650" lon="-2.5710680">
        <ele>506.0</ele>
        <time>2022-06-27T06:53:06Z</time>
      </trkpt>
      <trkpt lat="42.4287380" lon="-2.5711240">
        <ele>506.0</ele>
        <time>2022-06-27T06:53:07Z</time>
      </trkpt>
      <trkpt lat="42.4287100" lon="-2.5711790">
        <ele>506.0</ele>
        <time>2022-06-27T06:53:08Z</time>
      </trkpt>
      <trkpt lat="42.4286890" lon="-2.5712230">
        <ele>506.0</ele>
        <time>2022-06-27T06:53:09Z</time>
      </trkpt>
      <trkpt lat="42.4286580" lon="-2.5712880">
        <ele>506.4</ele>
        <time>2022-06-27T06:53:10Z</time>
      </trkpt>
      <trkpt lat="42.4286310" lon="-2.5713440">
        <ele>506.4</ele>
        <time>2022-06-27T06:53:11Z</time>
      </trkpt>
      <trkpt lat="42.4286030" lon="-2.5714010">
        <ele>506.4</ele>
        <time>2022-06-27T06:53:12Z</time>
      </trkpt>
      <trkpt lat="42.4285810" lon="-2.5714450">
        <ele>506.4</ele>
        <time>2022-06-27T06:53:13Z</time>
      </trkpt>
      <trkpt lat="42.4285500" lon="-2.5715120">
        <ele>506.4</ele>
        <time>2022-06-27T06:53:14Z</time>
      </trkpt>
      <trkpt lat="42.4285220" lon="-2.5715690">
        <ele>506.4</ele>
        <time>2022-06-27T06:53:15Z</time>
      </trkpt>
      <trkpt lat="42.4284950" lon="-2.5716270">
        <ele>506.4</ele>
        <time>2022-06-27T06:53:16Z</time>
      </trkpt>
      <trkpt lat="42.4284740" lon="-2.5716730">
        <ele>506.6</ele>
        <time>2022-06-27T06:53:17Z</time>
      </trkpt>
      <trkpt lat="42.4284530" lon="-2.5717180">
        <ele>506.8</ele>
        <time>2022-06-27T06:53:18Z</time>
      </trkpt>
      <trkpt lat="42.4284310" lon="-2.5717640">
        <ele>506.8</ele>
        <time>2022-06-27T06:53:19Z</time>
      </trkpt>
      <trkpt lat="42.4283880" lon="-2.5718550">
        <ele>506.8</ele>
        <time>2022-06-27T06:53:20Z</time>
      </trkpt>
      <trkpt lat="42.4283660" lon="-2.5719000">
        <ele>507.0</ele>
        <time>2022-06-27T06:53:21Z</time>
      </trkpt>
      <trkpt lat="42.4283390" lon="-2.5719570">
        <ele>507.0</ele>
        <time>2022-06-27T06:53:22Z</time>
      </trkpt>
      <trkpt lat="42.4283110" lon="-2.5720160">
        <ele>507.2</ele>
        <time>2022-06-27T06:53:23Z</time>
      </trkpt>
      <trkpt lat="42.4282790" lon="-2.5720870">
        <ele>507.2</ele>
        <time>2022-06-27T06:53:24Z</time>
      </trkpt>
      <trkpt lat="42.4282520" lon="-2.5721450">
        <ele>507.4</ele>
        <time>2022-06-27T06:53:25Z</time>
      </trkpt>
      <trkpt lat="42.4282280" lon="-2.5721930">
        <ele>507.4</ele>
        <time>2022-06-27T06:53:26Z</time>
      </trkpt>
      <trkpt lat="42.4281980" lon="-2.5722520">
        <ele>507.4</ele>
        <time>2022-06-27T06:53:27Z</time>
      </trkpt>
      <trkpt lat="42.4281700" lon="-2.5723110">
        <ele>507.4</ele>
        <time>2022-06-27T06:53:28Z</time>
      </trkpt>
      <trkpt lat="42.4281360" lon="-2.5723800">
        <ele>507.4</ele>
        <time>2022-06-27T06:53:29Z</time>
      </trkpt>
      <trkpt lat="42.4281070" lon="-2.5724380">
        <ele>507.4</ele>
        <time>2022-06-27T06:53:30Z</time>
      </trkpt>
      <trkpt lat="42.4280780" lon="-2.5724970">
        <ele>507.4</ele>
        <time>2022-06-27T06:53:31Z</time>
      </trkpt>
      <trkpt lat="42.4280560" lon="-2.5725420">
        <ele>507.4</ele>
        <time>2022-06-27T06:53:32Z</time>
      </trkpt>
      <trkpt lat="42.4280310" lon="-2.5725970">
        <ele>507.4</ele>
        <time>2022-06-27T06:53:33Z</time>
      </trkpt>
      <trkpt lat="42.4280010" lon="-2.5726610">
        <ele>507.4</ele>
        <time>2022-06-27T06:53:34Z</time>
      </trkpt>
      <trkpt lat="42.4279770" lon="-2.5727160">
        <ele>507.8</ele>
        <time>2022-06-27T06:53:35Z</time>
      </trkpt>
      <trkpt lat="42.4279510" lon="-2.5727720">
        <ele>507.8</ele>
        <time>2022-06-27T06:53:36Z</time>
      </trkpt>
      <trkpt lat="42.4279270" lon="-2.5728220">
        <ele>507.8</ele>
        <time>2022-06-27T06:53:37Z</time>
      </trkpt>
      <trkpt lat="42.4279030" lon="-2.5728730">
        <ele>507.8</ele>
        <time>2022-06-27T06:53:38Z</time>
      </trkpt>
      <trkpt lat="42.4278800" lon="-2.5729270">
        <ele>508.0</ele>
        <time>2022-06-27T06:53:39Z</time>
      </trkpt>
      <trkpt lat="42.4278490" lon="-2.5729930">
        <ele>508.0</ele>
        <time>2022-06-27T06:53:40Z</time>
      </trkpt>
      <trkpt lat="42.4278240" lon="-2.5730460">
        <ele>508.0</ele>
        <time>2022-06-27T06:53:41Z</time>
      </trkpt>
      <trkpt lat="42.4278050" lon="-2.5730870">
        <ele>508.0</ele>
        <time>2022-06-27T06:53:42Z</time>
      </trkpt>
      <trkpt lat="42.4277810" lon="-2.5731390">
        <ele>508.0</ele>
        <time>2022-06-27T06:53:43Z</time>
      </trkpt>
      <trkpt lat="42.4277620" lon="-2.5731810">
        <ele>508.0</ele>
        <time>2022-06-27T06:53:44Z</time>
      </trkpt>
      <trkpt lat="42.4277430" lon="-2.5732220">
        <ele>508.0</ele>
        <time>2022-06-27T06:53:45Z</time>
      </trkpt>
      <trkpt lat="42.4277040" lon="-2.5733050">
        <ele>508.0</ele>
        <time>2022-06-27T06:53:46Z</time>
      </trkpt>
      <trkpt lat="42.4276850" lon="-2.5733450">
        <ele>508.0</ele>
        <time>2022-06-27T06:53:47Z</time>
      </trkpt>
      <trkpt lat="42.4276610" lon="-2.5733940">
        <ele>508.4</ele>
        <time>2022-06-27T06:53:48Z</time>
      </trkpt>
      <trkpt lat="42.4276360" lon="-2.5734480">
        <ele>508.4</ele>
        <time>2022-06-27T06:53:49Z</time>
      </trkpt>
      <trkpt lat="42.4276120" lon="-2.5735010">
        <ele>508.4</ele>
        <time>2022-06-27T06:53:50Z</time>
      </trkpt>
      <trkpt lat="42.4275940" lon="-2.5735400">
        <ele>508.6</ele>
        <time>2022-06-27T06:53:51Z</time>
      </trkpt>
      <trkpt lat="42.4275720" lon="-2.5735910">
        <ele>508.6</ele>
        <time>2022-06-27T06:53:52Z</time>
      </trkpt>
      <trkpt lat="42.4275510" lon="-2.5736360">
        <ele>508.6</ele>
        <time>2022-06-27T06:53:53Z</time>
      </trkpt>
      <trkpt lat="42.4275250" lon="-2.5736870">
        <ele>509.0</ele>
        <time>2022-06-27T06:53:54Z</time>
      </trkpt>
      <trkpt lat="42.4275000" lon="-2.5737380">
        <ele>509.2</ele>
        <time>2022-06-27T06:53:55Z</time>
      </trkpt>
      <trkpt lat="42.4274760" lon="-2.5737860">
        <ele>509.2</ele>
        <time>2022-06-27T06:53:56Z</time>
      </trkpt>
      <trkpt lat="42.4274570" lon="-2.5738250">
        <ele>509.2</ele>
        <time>2022-06-27T06:53:57Z</time>
      </trkpt>
      <trkpt lat="42.4274330" lon="-2.5738750">
        <ele>509.2</ele>
        <time>2022-06-27T06:53:58Z</time>
      </trkpt>
      <trkpt lat="42.4274090" lon="-2.5739290">
        <ele>509.2</ele>
        <time>2022-06-27T06:53:59Z</time>
      </trkpt>
      <trkpt lat="42.4273840" lon="-2.5739830">
        <ele>509.6</ele>
        <time>2022-06-27T06:54:00Z</time>
      </trkpt>
      <trkpt lat="42.4273590" lon="-2.5740310">
        <ele>509.6</ele>
        <time>2022-06-27T06:54:01Z</time>
      </trkpt>
      <trkpt lat="42.4273380" lon="-2.5740730">
        <ele>509.8</ele>
        <time>2022-06-27T06:54:02Z</time>
      </trkpt>
      <trkpt lat="42.4273160" lon="-2.5741160">
        <ele>509.8</ele>
        <time>2022-06-27T06:54:03Z</time>
      </trkpt>
      <trkpt lat="42.4272890" lon="-2.5741700">
        <ele>509.8</ele>
        <time>2022-06-27T06:54:04Z</time>
      </trkpt>
      <trkpt lat="42.4272620" lon="-2.5742240">
        <ele>510.0</ele>
        <time>2022-06-27T06:54:05Z</time>
      </trkpt>
      <trkpt lat="42.4272380" lon="-2.5742720">
        <ele>510.0</ele>
        <time>2022-06-27T06:54:06Z</time>
      </trkpt>
      <trkpt lat="42.4272190" lon="-2.5743130">
        <ele>510.0</ele>
        <time>2022-06-27T06:54:07Z</time>
      </trkpt>
      <trkpt lat="42.4271950" lon="-2.5743650">
        <ele>510.4</ele>
        <time>2022-06-27T06:54:08Z</time>
      </trkpt>
      <trkpt lat="42.4271720" lon="-2.5744160">
        <ele>510.4</ele>
        <time>2022-06-27T06:54:09Z</time>
      </trkpt>
      <trkpt lat="42.4271490" lon="-2.5744660">
        <ele>510.4</ele>
        <time>2022-06-27T06:54:10Z</time>
      </trkpt>
      <trkpt lat="42.4271220" lon="-2.5745260">
        <ele>510.6</ele>
        <time>2022-06-27T06:54:11Z</time>
      </trkpt>
      <trkpt lat="42.4271030" lon="-2.5745670">
        <ele>510.8</ele>
        <time>2022-06-27T06:54:12Z</time>
      </trkpt>
      <trkpt lat="42.4270790" lon="-2.5746180">
        <ele>510.8</ele>
        <time>2022-06-27T06:54:13Z</time>
      </trkpt>
      <trkpt lat="42.4270530" lon="-2.5746740">
        <ele>511.0</ele>
        <time>2022-06-27T06:54:14Z</time>
      </trkpt>
      <trkpt lat="42.4270270" lon="-2.5747290">
        <ele>511.0</ele>
        <time>2022-06-27T06:54:15Z</time>
      </trkpt>
      <trkpt lat="42.4270060" lon="-2.5747790">
        <ele>511.0</ele>
        <time>2022-06-27T06:54:16Z</time>
      </trkpt>
      <trkpt lat="42.4269890" lon="-2.5748180">
        <ele>511.0</ele>
        <time>2022-06-27T06:54:17Z</time>
      </trkpt>
      <trkpt lat="42.4269770" lon="-2.5748430">
        <ele>511.4</ele>
        <time>2022-06-27T06:54:18Z</time>
      </trkpt>
      <trkpt lat="42.4269660" lon="-2.5748690">
        <ele>511.6</ele>
        <time>2022-06-27T06:54:19Z</time>
      </trkpt>
      <trkpt lat="42.4269230" lon="-2.5749720">
        <ele>511.6</ele>
        <time>2022-06-27T06:54:20Z</time>
      </trkpt>
      <trkpt lat="42.4269010" lon="-2.5750200">
        <ele>511.8</ele>
        <time>2022-06-27T06:54:21Z</time>
      </trkpt>
      <trkpt lat="42.4268830" lon="-2.5750600">
        <ele>511.8</ele>
        <time>2022-06-27T06:54:22Z</time>
      </trkpt>
      <trkpt lat="42.4268590" lon="-2.5751110">
        <ele>512.0</ele>
        <time>2022-06-27T06:54:23Z</time>
      </trkpt>
      <trkpt lat="42.4268340" lon="-2.5751640">
        <ele>512.0</ele>
        <time>2022-06-27T06:54:24Z</time>
      </trkpt>
      <trkpt lat="42.4268080" lon="-2.5752180">
        <ele>512.2</ele>
        <time>2022-06-27T06:54:25Z</time>
      </trkpt>
      <trkpt lat="42.4267850" lon="-2.5752660">
        <ele>512.2</ele>
        <time>2022-06-27T06:54:26Z</time>
      </trkpt>
      <trkpt lat="42.4267680" lon="-2.5753060">
        <ele>512.2</ele>
        <time>2022-06-27T06:54:27Z</time>
      </trkpt>
      <trkpt lat="42.4267470" lon="-2.5753540">
        <ele>512.2</ele>
        <time>2022-06-27T06:54:28Z</time>
      </trkpt>
      <trkpt lat="42.4267220" lon="-2.5754060">
        <ele>512.4</ele>
        <time>2022-06-27T06:54:29Z</time>
      </trkpt>
      <trkpt lat="42.4266980" lon="-2.5754580">
        <ele>512.4</ele>
        <time>2022-06-27T06:54:30Z</time>
      </trkpt>
      <trkpt lat="42.4266780" lon="-2.5755050">
        <ele>512.8</ele>
        <time>2022-06-27T06:54:31Z</time>
      </trkpt>
      <trkpt lat="42.4266620" lon="-2.5755400">
        <ele>512.8</ele>
        <time>2022-06-27T06:54:32Z</time>
      </trkpt>
      <trkpt lat="42.4266430" lon="-2.5755880">
        <ele>513.0</ele>
        <time>2022-06-27T06:54:33Z</time>
      </trkpt>
      <trkpt lat="42.4266200" lon="-2.5756420">
        <ele>513.2</ele>
        <time>2022-06-27T06:54:34Z</time>
      </trkpt>
      <trkpt lat="42.4265960" lon="-2.5756950">
        <ele>513.2</ele>
        <time>2022-06-27T06:54:35Z</time>
      </trkpt>
      <trkpt lat="42.4265770" lon="-2.5757400">
        <ele>513.2</ele>
        <time>2022-06-27T06:54:36Z</time>
      </trkpt>
      <trkpt lat="42.4265610" lon="-2.5757760">
        <ele>513.6</ele>
        <time>2022-06-27T06:54:37Z</time>
      </trkpt>
      <trkpt lat="42.4265380" lon="-2.5758240">
        <ele>513.8</ele>
        <time>2022-06-27T06:54:38Z</time>
      </trkpt>
      <trkpt lat="42.4265150" lon="-2.5758750">
        <ele>514.0</ele>
        <time>2022-06-27T06:54:39Z</time>
      </trkpt>
      <trkpt lat="42.4264930" lon="-2.5759270">
        <ele>514.0</ele>
        <time>2022-06-27T06:54:40Z</time>
      </trkpt>
      <trkpt lat="42.4264720" lon="-2.5759750">
        <ele>514.2</ele>
        <time>2022-06-27T06:54:41Z</time>
      </trkpt>
      <trkpt lat="42.4264560" lon="-2.5760130">
        <ele>514.2</ele>
        <time>2022-06-27T06:54:42Z</time>
      </trkpt>
      <trkpt lat="42.4264350" lon="-2.5760610">
        <ele>514.4</ele>
        <time>2022-06-27T06:54:43Z</time>
      </trkpt>
      <trkpt lat="42.4264140" lon="-2.5761070">
        <ele>514.6</ele>
        <time>2022-06-27T06:54:44Z</time>
      </trkpt>
      <trkpt lat="42.4263890" lon="-2.5761640">
        <ele>514.6</ele>
        <time>2022-06-27T06:54:45Z</time>
      </trkpt>
      <trkpt lat="42.4263710" lon="-2.5762120">
        <ele>514.8</ele>
        <time>2022-06-27T06:54:46Z</time>
      </trkpt>
      <trkpt lat="42.4263510" lon="-2.5762630">
        <ele>515.0</ele>
        <time>2022-06-27T06:54:47Z</time>
      </trkpt>
      <trkpt lat="42.4263350" lon="-2.5763030">
        <ele>515.2</ele>
        <time>2022-06-27T06:54:48Z</time>
      </trkpt>
      <trkpt lat="42.4263160" lon="-2.5763500">
        <ele>515.2</ele>
        <time>2022-06-27T06:54:49Z</time>
      </trkpt>
      <trkpt lat="42.4262940" lon="-2.5764070">
        <ele>515.4</ele>
        <time>2022-06-27T06:54:50Z</time>
      </trkpt>
      <trkpt lat="42.4262730" lon="-2.5764560">
        <ele>515.4</ele>
        <time>2022-06-27T06:54:51Z</time>
      </trkpt>
      <trkpt lat="42.4262530" lon="-2.5765040">
        <ele>515.6</ele>
        <time>2022-06-27T06:54:52Z</time>
      </trkpt>
      <trkpt lat="42.4262370" lon="-2.5765440">
        <ele>515.6</ele>
        <time>2022-06-27T06:54:53Z</time>
      </trkpt>
      <trkpt lat="42.4262170" lon="-2.5765920">
        <ele>515.8</ele>
        <time>2022-06-27T06:54:54Z</time>
      </trkpt>
      <trkpt lat="42.4261930" lon="-2.5766480">
        <ele>515.8</ele>
        <time>2022-06-27T06:54:55Z</time>
      </trkpt>
      <trkpt lat="42.4261730" lon="-2.5766960">
        <ele>515.8</ele>
        <time>2022-06-27T06:54:56Z</time>
      </trkpt>
      <trkpt lat="42.4261570" lon="-2.5767330">
        <ele>515.8</ele>
        <time>2022-06-27T06:54:57Z</time>
      </trkpt>
      <trkpt lat="42.4261470" lon="-2.5767570">
        <ele>516.0</ele>
        <time>2022-06-27T06:54:58Z</time>
      </trkpt>
      <trkpt lat="42.4261370" lon="-2.5767800">
        <ele>516.0</ele>
        <time>2022-06-27T06:54:59Z</time>
      </trkpt>
      <trkpt lat="42.4260930" lon="-2.5768830">
        <ele>516.2</ele>
        <time>2022-06-27T06:55:00Z</time>
      </trkpt>
      <trkpt lat="42.4260740" lon="-2.5769270">
        <ele>516.2</ele>
        <time>2022-06-27T06:55:01Z</time>
      </trkpt>
      <trkpt lat="42.4260560" lon="-2.5769640">
        <ele>516.4</ele>
        <time>2022-06-27T06:55:02Z</time>
      </trkpt>
      <trkpt lat="42.4260360" lon="-2.5770080">
        <ele>516.6</ele>
        <time>2022-06-27T06:55:03Z</time>
      </trkpt>
      <trkpt lat="42.4260150" lon="-2.5770530">
        <ele>516.8</ele>
        <time>2022-06-27T06:55:04Z</time>
      </trkpt>
      <trkpt lat="42.4259890" lon="-2.5771090">
        <ele>517.0</ele>
        <time>2022-06-27T06:55:05Z</time>
      </trkpt>
      <trkpt lat="42.4259680" lon="-2.5771540">
        <ele>517.2</ele>
        <time>2022-06-27T06:55:06Z</time>
      </trkpt>
      <trkpt lat="42.4259500" lon="-2.5771970">
        <ele>517.2</ele>
        <time>2022-06-27T06:55:07Z</time>
      </trkpt>
      <trkpt lat="42.4259350" lon="-2.5772360">
        <ele>517.4</ele>
        <time>2022-06-27T06:55:08Z</time>
      </trkpt>
      <trkpt lat="42.4259190" lon="-2.5772750">
        <ele>517.4</ele>
        <time>2022-06-27T06:55:09Z</time>
      </trkpt>
      <trkpt lat="42.4259010" lon="-2.5773170">
        <ele>517.6</ele>
        <time>2022-06-27T06:55:10Z</time>
      </trkpt>
      <trkpt lat="42.4258790" lon="-2.5773700">
        <ele>517.6</ele>
        <time>2022-06-27T06:55:11Z</time>
      </trkpt>
      <trkpt lat="42.4258610" lon="-2.5774160">
        <ele>517.6</ele>
        <time>2022-06-27T06:55:12Z</time>
      </trkpt>
      <trkpt lat="42.4258470" lon="-2.5774560">
        <ele>517.6</ele>
        <time>2022-06-27T06:55:13Z</time>
      </trkpt>
      <trkpt lat="42.4258280" lon="-2.5775050">
        <ele>517.8</ele>
        <time>2022-06-27T06:55:14Z</time>
      </trkpt>
      <trkpt lat="42.4258040" lon="-2.5775630">
        <ele>517.8</ele>
        <time>2022-06-27T06:55:15Z</time>
      </trkpt>
      <trkpt lat="42.4257850" lon="-2.5776110">
        <ele>518.0</ele>
        <time>2022-06-27T06:55:16Z</time>
      </trkpt>
      <trkpt lat="42.4257660" lon="-2.5776600">
        <ele>518.0</ele>
        <time>2022-06-27T06:55:17Z</time>
      </trkpt>
      <trkpt lat="42.4257460" lon="-2.5777060">
        <ele>518.4</ele>
        <time>2022-06-27T06:55:18Z</time>
      </trkpt>
      <trkpt lat="42.4257240" lon="-2.5777510">
        <ele>518.4</ele>
        <time>2022-06-27T06:55:19Z</time>
      </trkpt>
      <trkpt lat="42.4257020" lon="-2.5777980">
        <ele>518.6</ele>
        <time>2022-06-27T06:55:20Z</time>
      </trkpt>
      <trkpt lat="42.4256830" lon="-2.5778440">
        <ele>518.8</ele>
        <time>2022-06-27T06:55:21Z</time>
      </trkpt>
      <trkpt lat="42.4256630" lon="-2.5778870">
        <ele>519.0</ele>
        <time>2022-06-27T06:55:22Z</time>
      </trkpt>
      <trkpt lat="42.4256420" lon="-2.5779320">
        <ele>519.0</ele>
        <time>2022-06-27T06:55:23Z</time>
      </trkpt>
      <trkpt lat="42.4256220" lon="-2.5779780">
        <ele>519.2</ele>
        <time>2022-06-27T06:55:24Z</time>
      </trkpt>
      <trkpt lat="42.4256030" lon="-2.5780260">
        <ele>519.4</ele>
        <time>2022-06-27T06:55:25Z</time>
      </trkpt>
      <trkpt lat="42.4255840" lon="-2.5780760">
        <ele>519.4</ele>
        <time>2022-06-27T06:55:26Z</time>
      </trkpt>
      <trkpt lat="42.4255640" lon="-2.5781260">
        <ele>519.6</ele>
        <time>2022-06-27T06:55:27Z</time>
      </trkpt>
      <trkpt lat="42.4255430" lon="-2.5781750">
        <ele>519.6</ele>
        <time>2022-06-27T06:55:28Z</time>
      </trkpt>
      <trkpt lat="42.4255210" lon="-2.5782240">
        <ele>519.8</ele>
        <time>2022-06-27T06:55:29Z</time>
      </trkpt>
      <trkpt lat="42.4255000" lon="-2.5782730">
        <ele>519.8</ele>
        <time>2022-06-27T06:55:30Z</time>
      </trkpt>
      <trkpt lat="42.4254780" lon="-2.5783220">
        <ele>519.8</ele>
        <time>2022-06-27T06:55:31Z</time>
      </trkpt>
      <trkpt lat="42.4254570" lon="-2.5783740">
        <ele>520.0</ele>
        <time>2022-06-27T06:55:32Z</time>
      </trkpt>
      <trkpt lat="42.4254360" lon="-2.5784240">
        <ele>520.0</ele>
        <time>2022-06-27T06:55:33Z</time>
      </trkpt>
      <trkpt lat="42.4254150" lon="-2.5784730">
        <ele>520.2</ele>
        <time>2022-06-27T06:55:34Z</time>
      </trkpt>
      <trkpt lat="42.4253960" lon="-2.5785190">
        <ele>520.4</ele>
        <time>2022-06-27T06:55:35Z</time>
      </trkpt>
      <trkpt lat="42.4253770" lon="-2.5785670">
        <ele>520.4</ele>
        <time>2022-06-27T06:55:36Z</time>
      </trkpt>
      <trkpt lat="42.4253560" lon="-2.5786150">
        <ele>520.6</ele>
        <time>2022-06-27T06:55:37Z</time>
      </trkpt>
      <trkpt lat="42.4253340" lon="-2.5786640">
        <ele>520.6</ele>
        <time>2022-06-27T06:55:38Z</time>
      </trkpt>
      <trkpt lat="42.4253120" lon="-2.5787130">
        <ele>520.6</ele>
        <time>2022-06-27T06:55:39Z</time>
      </trkpt>
      <trkpt lat="42.4252880" lon="-2.5787620">
        <ele>520.8</ele>
        <time>2022-06-27T06:55:40Z</time>
      </trkpt>
      <trkpt lat="42.4252670" lon="-2.5788110">
        <ele>521.0</ele>
        <time>2022-06-27T06:55:41Z</time>
      </trkpt>
      <trkpt lat="42.4252560" lon="-2.5788350">
        <ele>521.4</ele>
        <time>2022-06-27T06:55:42Z</time>
      </trkpt>
      <trkpt lat="42.4252450" lon="-2.5788590">
        <ele>521.4</ele>
        <time>2022-06-27T06:55:43Z</time>
      </trkpt>
      <trkpt lat="42.4252030" lon="-2.5789610">
        <ele>521.6</ele>
        <time>2022-06-27T06:55:44Z</time>
      </trkpt>
      <trkpt lat="42.4251820" lon="-2.5790090">
        <ele>521.8</ele>
        <time>2022-06-27T06:55:45Z</time>
      </trkpt>
      <trkpt lat="42.4251620" lon="-2.5790570">
        <ele>521.8</ele>
        <time>2022-06-27T06:55:46Z</time>
      </trkpt>
      <trkpt lat="42.4251430" lon="-2.5791030">
        <ele>522.0</ele>
        <time>2022-06-27T06:55:47Z</time>
      </trkpt>
      <trkpt lat="42.4251210" lon="-2.5791520">
        <ele>522.0</ele>
        <time>2022-06-27T06:55:48Z</time>
      </trkpt>
      <trkpt lat="42.4250980" lon="-2.5792020">
        <ele>522.0</ele>
        <time>2022-06-27T06:55:49Z</time>
      </trkpt>
      <trkpt lat="42.4250770" lon="-2.5792500">
        <ele>522.2</ele>
        <time>2022-06-27T06:55:50Z</time>
      </trkpt>
      <trkpt lat="42.4250550" lon="-2.5792990">
        <ele>522.2</ele>
        <time>2022-06-27T06:55:51Z</time>
      </trkpt>
      <trkpt lat="42.4250360" lon="-2.5793450">
        <ele>522.4</ele>
        <time>2022-06-27T06:55:52Z</time>
      </trkpt>
      <trkpt lat="42.4250170" lon="-2.5793930">
        <ele>522.6</ele>
        <time>2022-06-27T06:55:53Z</time>
      </trkpt>
      <trkpt lat="42.4249980" lon="-2.5794410">
        <ele>522.6</ele>
        <time>2022-06-27T06:55:54Z</time>
      </trkpt>
      <trkpt lat="42.4249760" lon="-2.5794890">
        <ele>522.8</ele>
        <time>2022-06-27T06:55:55Z</time>
      </trkpt>
      <trkpt lat="42.4249550" lon="-2.5795370">
        <ele>523.0</ele>
        <time>2022-06-27T06:55:56Z</time>
      </trkpt>
      <trkpt lat="42.4249360" lon="-2.5795840">
        <ele>523.2</ele>
        <time>2022-06-27T06:55:57Z</time>
      </trkpt>
      <trkpt lat="42.4249180" lon="-2.5796320">
        <ele>523.4</ele>
        <time>2022-06-27T06:55:58Z</time>
      </trkpt>
      <trkpt lat="42.4248990" lon="-2.5796750">
        <ele>523.6</ele>
        <time>2022-06-27T06:55:59Z</time>
      </trkpt>
      <trkpt lat="42.4248780" lon="-2.5797230">
        <ele>523.8</ele>
        <time>2022-06-27T06:56:00Z</time>
      </trkpt>
      <trkpt lat="42.4248580" lon="-2.5797710">
        <ele>523.8</ele>
        <time>2022-06-27T06:56:01Z</time>
      </trkpt>
      <trkpt lat="42.4248380" lon="-2.5798190">
        <ele>524.0</ele>
        <time>2022-06-27T06:56:02Z</time>
      </trkpt>
      <trkpt lat="42.4248190" lon="-2.5798680">
        <ele>524.0</ele>
        <time>2022-06-27T06:56:03Z</time>
      </trkpt>
      <trkpt lat="42.4247980" lon="-2.5799170">
        <ele>524.0</ele>
        <time>2022-06-27T06:56:04Z</time>
      </trkpt>
      <trkpt lat="42.4247760" lon="-2.5799650">
        <ele>524.2</ele>
        <time>2022-06-27T06:56:05Z</time>
      </trkpt>
      <trkpt lat="42.4247540" lon="-2.5800120">
        <ele>524.2</ele>
        <time>2022-06-27T06:56:06Z</time>
      </trkpt>
      <trkpt lat="42.4247310" lon="-2.5800610">
        <ele>524.4</ele>
        <time>2022-06-27T06:56:07Z</time>
      </trkpt>
      <trkpt lat="42.4247120" lon="-2.5801070">
        <ele>524.4</ele>
        <time>2022-06-27T06:56:08Z</time>
      </trkpt>
      <trkpt lat="42.4246920" lon="-2.5801570">
        <ele>524.6</ele>
        <time>2022-06-27T06:56:09Z</time>
      </trkpt>
      <trkpt lat="42.4246710" lon="-2.5802060">
        <ele>524.8</ele>
        <time>2022-06-27T06:56:10Z</time>
      </trkpt>
      <trkpt lat="42.4246500" lon="-2.5802560">
        <ele>525.0</ele>
        <time>2022-06-27T06:56:11Z</time>
      </trkpt>
      <trkpt lat="42.4246300" lon="-2.5803060">
        <ele>525.2</ele>
        <time>2022-06-27T06:56:12Z</time>
      </trkpt>
      <trkpt lat="42.4246080" lon="-2.5803550">
        <ele>525.4</ele>
        <time>2022-06-27T06:56:13Z</time>
      </trkpt>
      <trkpt lat="42.4245870" lon="-2.5804050">
        <ele>525.4</ele>
        <time>2022-06-27T06:56:14Z</time>
      </trkpt>
      <trkpt lat="42.4245660" lon="-2.5804530">
        <ele>525.6</ele>
        <time>2022-06-27T06:56:15Z</time>
      </trkpt>
      <trkpt lat="42.4245440" lon="-2.5805030">
        <ele>525.6</ele>
        <time>2022-06-27T06:56:16Z</time>
      </trkpt>
      <trkpt lat="42.4245220" lon="-2.5805520">
        <ele>525.8</ele>
        <time>2022-06-27T06:56:17Z</time>
      </trkpt>
      <trkpt lat="42.4245030" lon="-2.5805980">
        <ele>526.0</ele>
        <time>2022-06-27T06:56:18Z</time>
      </trkpt>
      <trkpt lat="42.4244830" lon="-2.5806470">
        <ele>526.2</ele>
        <time>2022-06-27T06:56:19Z</time>
      </trkpt>
      <trkpt lat="42.4244610" lon="-2.5806960">
        <ele>526.4</ele>
        <time>2022-06-27T06:56:20Z</time>
      </trkpt>
      <trkpt lat="42.4244390" lon="-2.5807460">
        <ele>526.8</ele>
        <time>2022-06-27T06:56:21Z</time>
      </trkpt>
      <trkpt lat="42.4244180" lon="-2.5807930">
        <ele>526.8</ele>
        <time>2022-06-27T06:56:22Z</time>
      </trkpt>
      <trkpt lat="42.4243970" lon="-2.5808430">
        <ele>527.0</ele>
        <time>2022-06-27T06:56:23Z</time>
      </trkpt>
      <trkpt lat="42.4243750" lon="-2.5808910">
        <ele>526.8</ele>
        <time>2022-06-27T06:56:24Z</time>
      </trkpt>
      <trkpt lat="42.4243550" lon="-2.5809370">
        <ele>527.0</ele>
        <time>2022-06-27T06:56:25Z</time>
      </trkpt>
      <trkpt lat="42.4243350" lon="-2.5809820">
        <ele>527.2</ele>
        <time>2022-06-27T06:56:26Z</time>
      </trkpt>
      <trkpt lat="42.4243160" lon="-2.5810280">
        <ele>527.4</ele>
        <time>2022-06-27T06:56:27Z</time>
      </trkpt>
      <trkpt lat="42.4242960" lon="-2.5810760">
        <ele>527.6</ele>
        <time>2022-06-27T06:56:28Z</time>
      </trkpt>
      <trkpt lat="42.4242760" lon="-2.5811240">
        <ele>527.6</ele>
        <time>2022-06-27T06:56:29Z</time>
      </trkpt>
      <trkpt lat="42.4242550" lon="-2.5811720">
        <ele>527.8</ele>
        <time>2022-06-27T06:56:30Z</time>
      </trkpt>
      <trkpt lat="42.4242340" lon="-2.5812190">
        <ele>527.8</ele>
        <time>2022-06-27T06:56:31Z</time>
      </trkpt>
      <trkpt lat="42.4242140" lon="-2.5812680">
        <ele>528.0</ele>
        <time>2022-06-27T06:56:32Z</time>
      </trkpt>
      <trkpt lat="42.4241930" lon="-2.5813150">
        <ele>528.0</ele>
        <time>2022-06-27T06:56:33Z</time>
      </trkpt>
      <trkpt lat="42.4241750" lon="-2.5813600">
        <ele>528.0</ele>
        <time>2022-06-27T06:56:34Z</time>
      </trkpt>
      <trkpt lat="42.4241560" lon="-2.5814060">
        <ele>528.2</ele>
        <time>2022-06-27T06:56:35Z</time>
      </trkpt>
      <trkpt lat="42.4241370" lon="-2.5814510">
        <ele>528.4</ele>
        <time>2022-06-27T06:56:36Z</time>
      </trkpt>
      <trkpt lat="42.4241180" lon="-2.5814970">
        <ele>528.8</ele>
        <time>2022-06-27T06:56:37Z</time>
      </trkpt>
      <trkpt lat="42.4240990" lon="-2.5815430">
        <ele>528.8</ele>
        <time>2022-06-27T06:56:38Z</time>
      </trkpt>
      <trkpt lat="42.4240800" lon="-2.5815880">
        <ele>528.8</ele>
        <time>2022-06-27T06:56:39Z</time>
      </trkpt>
      <trkpt lat="42.4240610" lon="-2.5816340">
        <ele>529.0</ele>
        <time>2022-06-27T06:56:40Z</time>
      </trkpt>
      <trkpt lat="42.4240420" lon="-2.5816790">
        <ele>529.2</ele>
        <time>2022-06-27T06:56:41Z</time>
      </trkpt>
      <trkpt lat="42.4240230" lon="-2.5817260">
        <ele>529.4</ele>
        <time>2022-06-27T06:56:42Z</time>
      </trkpt>
      <trkpt lat="42.4240020" lon="-2.5817740">
        <ele>529.4</ele>
        <time>2022-06-27T06:56:43Z</time>
      </trkpt>
      <trkpt lat="42.4239810" lon="-2.5818220">
        <ele>529.4</ele>
        <time>2022-06-27T06:56:44Z</time>
      </trkpt>
      <trkpt lat="42.4239620" lon="-2.5818690">
        <ele>529.6</ele>
        <time>2022-06-27T06:56:45Z</time>
      </trkpt>
      <trkpt lat="42.4239430" lon="-2.5819150">
        <ele>529.8</ele>
        <time>2022-06-27T06:56:46Z</time>
      </trkpt>
      <trkpt lat="42.4239200" lon="-2.5819620">
        <ele>530.0</ele>
        <time>2022-06-27T06:56:47Z</time>
      </trkpt>
      <trkpt lat="42.4239000" lon="-2.5820080">
        <ele>530.4</ele>
        <time>2022-06-27T06:56:48Z</time>
      </trkpt>
      <trkpt lat="42.4238800" lon="-2.5820550">
        <ele>530.4</ele>
        <time>2022-06-27T06:56:49Z</time>
      </trkpt>
      <trkpt lat="42.4238590" lon="-2.5821020">
        <ele>530.6</ele>
        <time>2022-06-27T06:56:50Z</time>
      </trkpt>
      <trkpt lat="42.4238380" lon="-2.5821480">
        <ele>530.8</ele>
        <time>2022-06-27T06:56:51Z</time>
      </trkpt>
      <trkpt lat="42.4238180" lon="-2.5821970">
        <ele>530.6</ele>
        <time>2022-06-27T06:56:52Z</time>
      </trkpt>
      <trkpt lat="42.4237990" lon="-2.5822430">
        <ele>530.8</ele>
        <time>2022-06-27T06:56:53Z</time>
      </trkpt>
      <trkpt lat="42.4237780" lon="-2.5822880">
        <ele>530.8</ele>
        <time>2022-06-27T06:56:54Z</time>
      </trkpt>
      <trkpt lat="42.4237580" lon="-2.5823330">
        <ele>531.2</ele>
        <time>2022-06-27T06:56:55Z</time>
      </trkpt>
      <trkpt lat="42.4237390" lon="-2.5823780">
        <ele>531.0</ele>
        <time>2022-06-27T06:56:56Z</time>
      </trkpt>
      <trkpt lat="42.4237210" lon="-2.5824230">
        <ele>531.2</ele>
        <time>2022-06-27T06:56:57Z</time>
      </trkpt>
      <trkpt lat="42.4237020" lon="-2.5824690">
        <ele>531.6</ele>
        <time>2022-06-27T06:56:58Z</time>
      </trkpt>
      <trkpt lat="42.4236820" lon="-2.5825140">
        <ele>531.6</ele>
        <time>2022-06-27T06:56:59Z</time>
      </trkpt>
      <trkpt lat="42.4236620" lon="-2.5825600">
        <ele>532.0</ele>
        <time>2022-06-27T06:57:00Z</time>
      </trkpt>
      <trkpt lat="42.4236440" lon="-2.5826070">
        <ele>532.0</ele>
        <time>2022-06-27T06:57:01Z</time>
      </trkpt>
      <trkpt lat="42.4236260" lon="-2.5826530">
        <ele>532.2</ele>
        <time>2022-06-27T06:57:02Z</time>
      </trkpt>
      <trkpt lat="42.4236070" lon="-2.5827010">
        <ele>532.2</ele>
        <time>2022-06-27T06:57:03Z</time>
      </trkpt>
      <trkpt lat="42.4235880" lon="-2.5827470">
        <ele>532.4</ele>
        <time>2022-06-27T06:57:04Z</time>
      </trkpt>
      <trkpt lat="42.4235690" lon="-2.5827930">
        <ele>532.6</ele>
        <time>2022-06-27T06:57:05Z</time>
      </trkpt>
      <trkpt lat="42.4235490" lon="-2.5828380">
        <ele>532.8</ele>
        <time>2022-06-27T06:57:06Z</time>
      </trkpt>
      <trkpt lat="42.4235300" lon="-2.5828860">
        <ele>532.8</ele>
        <time>2022-06-27T06:57:07Z</time>
      </trkpt>
      <trkpt lat="42.4235110" lon="-2.5829330">
        <ele>533.0</ele>
        <time>2022-06-27T06:57:08Z</time>
      </trkpt>
      <trkpt lat="42.4234920" lon="-2.5829810">
        <ele>533.0</ele>
        <time>2022-06-27T06:57:09Z</time>
      </trkpt>
      <trkpt lat="42.4234720" lon="-2.5830260">
        <ele>533.2</ele>
        <time>2022-06-27T06:57:10Z</time>
      </trkpt>
      <trkpt lat="42.4234500" lon="-2.5830710">
        <ele>533.4</ele>
        <time>2022-06-27T06:57:11Z</time>
      </trkpt>
      <trkpt lat="42.4234290" lon="-2.5831170">
        <ele>533.4</ele>
        <time>2022-06-27T06:57:12Z</time>
      </trkpt>
      <trkpt lat="42.4234080" lon="-2.5831620">
        <ele>533.6</ele>
        <time>2022-06-27T06:57:13Z</time>
      </trkpt>
      <trkpt lat="42.4233900" lon="-2.5832090">
        <ele>533.8</ele>
        <time>2022-06-27T06:57:14Z</time>
      </trkpt>
      <trkpt lat="42.4233720" lon="-2.5832550">
        <ele>533.8</ele>
        <time>2022-06-27T06:57:15Z</time>
      </trkpt>
      <trkpt lat="42.4233520" lon="-2.5832990">
        <ele>534.0</ele>
        <time>2022-06-27T06:57:16Z</time>
      </trkpt>
      <trkpt lat="42.4233330" lon="-2.5833450">
        <ele>534.0</ele>
        <time>2022-06-27T06:57:17Z</time>
      </trkpt>
      <trkpt lat="42.4233140" lon="-2.5833910">
        <ele>534.2</ele>
        <time>2022-06-27T06:57:18Z</time>
      </trkpt>
      <trkpt lat="42.4232940" lon="-2.5834370">
        <ele>534.4</ele>
        <time>2022-06-27T06:57:19Z</time>
      </trkpt>
      <trkpt lat="42.4232770" lon="-2.5834810">
        <ele>534.6</ele>
        <time>2022-06-27T06:57:20Z</time>
      </trkpt>
      <trkpt lat="42.4232590" lon="-2.5835270">
        <ele>535.0</ele>
        <time>2022-06-27T06:57:21Z</time>
      </trkpt>
      <trkpt lat="42.4232390" lon="-2.5835730">
        <ele>534.8</ele>
        <time>2022-06-27T06:57:22Z</time>
      </trkpt>
      <trkpt lat="42.4232190" lon="-2.5836200">
        <ele>535.0</ele>
        <time>2022-06-27T06:57:23Z</time>
      </trkpt>
      <trkpt lat="42.4231980" lon="-2.5836670">
        <ele>535.2</ele>
        <time>2022-06-27T06:57:24Z</time>
      </trkpt>
      <trkpt lat="42.4231760" lon="-2.5837150">
        <ele>535.4</ele>
        <time>2022-06-27T06:57:25Z</time>
      </trkpt>
      <trkpt lat="42.4231550" lon="-2.5837620">
        <ele>535.6</ele>
        <time>2022-06-27T06:57:26Z</time>
      </trkpt>
      <trkpt lat="42.4231340" lon="-2.5838090">
        <ele>535.8</ele>
        <time>2022-06-27T06:57:27Z</time>
      </trkpt>
      <trkpt lat="42.4231140" lon="-2.5838550">
        <ele>535.8</ele>
        <time>2022-06-27T06:57:28Z</time>
      </trkpt>
      <trkpt lat="42.4230950" lon="-2.5839040">
        <ele>536.0</ele>
        <time>2022-06-27T06:57:29Z</time>
      </trkpt>
      <trkpt lat="42.4230750" lon="-2.5839510">
        <ele>536.2</ele>
        <time>2022-06-27T06:57:30Z</time>
      </trkpt>
      <trkpt lat="42.4230550" lon="-2.5839970">
        <ele>536.2</ele>
        <time>2022-06-27T06:57:31Z</time>
      </trkpt>
      <trkpt lat="42.4230340" lon="-2.5840440">
        <ele>536.4</ele>
        <time>2022-06-27T06:57:32Z</time>
      </trkpt>
      <trkpt lat="42.4230140" lon="-2.5840910">
        <ele>536.4</ele>
        <time>2022-06-27T06:57:33Z</time>
      </trkpt>
      <trkpt lat="42.4229930" lon="-2.5841400">
        <ele>536.6</ele>
        <time>2022-06-27T06:57:34Z</time>
      </trkpt>
      <trkpt lat="42.4229730" lon="-2.5841890">
        <ele>536.8</ele>
        <time>2022-06-27T06:57:35Z</time>
      </trkpt>
      <trkpt lat="42.4229530" lon="-2.5842390">
        <ele>536.8</ele>
        <time>2022-06-27T06:57:36Z</time>
      </trkpt>
      <trkpt lat="42.4229310" lon="-2.5842870">
        <ele>537.0</ele>
        <time>2022-06-27T06:57:37Z</time>
      </trkpt>
      <trkpt lat="42.4229080" lon="-2.5843340">
        <ele>537.0</ele>
        <time>2022-06-27T06:57:38Z</time>
      </trkpt>
      <trkpt lat="42.4228870" lon="-2.5843820">
        <ele>537.2</ele>
        <time>2022-06-27T06:57:39Z</time>
      </trkpt>
      <trkpt lat="42.4228660" lon="-2.5844310">
        <ele>537.4</ele>
        <time>2022-06-27T06:57:40Z</time>
      </trkpt>
      <trkpt lat="42.4228450" lon="-2.5844780">
        <ele>537.6</ele>
        <time>2022-06-27T06:57:41Z</time>
      </trkpt>
      <trkpt lat="42.4228250" lon="-2.5845260">
        <ele>537.6</ele>
        <time>2022-06-27T06:57:42Z</time>
      </trkpt>
      <trkpt lat="42.4228050" lon="-2.5845760">
        <ele>537.8</ele>
        <time>2022-06-27T06:57:43Z</time>
      </trkpt>
      <trkpt lat="42.4227860" lon="-2.5846210">
        <ele>538.0</ele>
        <time>2022-06-27T06:57:44Z</time>
      </trkpt>
      <trkpt lat="42.4227640" lon="-2.5846700">
        <ele>538.0</ele>
        <time>2022-06-27T06:57:45Z</time>
      </trkpt>
      <trkpt lat="42.4227420" lon="-2.5847190">
        <ele>538.2</ele>
        <time>2022-06-27T06:57:46Z</time>
      </trkpt>
      <trkpt lat="42.4227220" lon="-2.5847660">
        <ele>538.0</ele>
        <time>2022-06-27T06:57:47Z</time>
      </trkpt>
      <trkpt lat="42.4227030" lon="-2.5848150">
        <ele>538.6</ele>
        <time>2022-06-27T06:57:48Z</time>
      </trkpt>
      <trkpt lat="42.4226850" lon="-2.5848620">
        <ele>538.4</ele>
        <time>2022-06-27T06:57:49Z</time>
      </trkpt>
      <trkpt lat="42.4226650" lon="-2.5849090">
        <ele>538.8</ele>
        <time>2022-06-27T06:57:50Z</time>
      </trkpt>
      <trkpt lat="42.4226460" lon="-2.5849560">
        <ele>538.8</ele>
        <time>2022-06-27T06:57:51Z</time>
      </trkpt>
      <trkpt lat="42.4226270" lon="-2.5850030">
        <ele>539.0</ele>
        <time>2022-06-27T06:57:52Z</time>
      </trkpt>
      <trkpt lat="42.4226070" lon="-2.5850480">
        <ele>539.2</ele>
        <time>2022-06-27T06:57:53Z</time>
      </trkpt>
      <trkpt lat="42.4225860" lon="-2.5850960">
        <ele>539.2</ele>
        <time>2022-06-27T06:57:54Z</time>
      </trkpt>
      <trkpt lat="42.4225650" lon="-2.5851430">
        <ele>539.4</ele>
        <time>2022-06-27T06:57:55Z</time>
      </trkpt>
      <trkpt lat="42.4225480" lon="-2.5851890">
        <ele>539.2</ele>
        <time>2022-06-27T06:57:56Z</time>
      </trkpt>
      <trkpt lat="42.4225280" lon="-2.5852380">
        <ele>539.6</ele>
        <time>2022-06-27T06:57:57Z</time>
      </trkpt>
      <trkpt lat="42.4225080" lon="-2.5852840">
        <ele>539.8</ele>
        <time>2022-06-27T06:57:58Z</time>
      </trkpt>
      <trkpt lat="42.4224870" lon="-2.5853310">
        <ele>539.8</ele>
        <time>2022-06-27T06:57:59Z</time>
      </trkpt>
      <trkpt lat="42.4224660" lon="-2.5853780">
        <ele>540.0</ele>
        <time>2022-06-27T06:58:00Z</time>
      </trkpt>
      <trkpt lat="42.4224470" lon="-2.5854250">
        <ele>540.0</ele>
        <time>2022-06-27T06:58:01Z</time>
      </trkpt>
      <trkpt lat="42.4224270" lon="-2.5854710">
        <ele>540.4</ele>
        <time>2022-06-27T06:58:02Z</time>
      </trkpt>
      <trkpt lat="42.4224060" lon="-2.5855170">
        <ele>540.6</ele>
        <time>2022-06-27T06:58:03Z</time>
      </trkpt>
      <trkpt lat="42.4223860" lon="-2.5855640">
        <ele>540.8</ele>
        <time>2022-06-27T06:58:04Z</time>
      </trkpt>
      <trkpt lat="42.4223660" lon="-2.5856140">
        <ele>541.2</ele>
        <time>2022-06-27T06:58:05Z</time>
      </trkpt>
      <trkpt lat="42.4223460" lon="-2.5856620">
        <ele>541.2</ele>
        <time>2022-06-27T06:58:06Z</time>
      </trkpt>
      <trkpt lat="42.4223250" lon="-2.5857090">
        <ele>541.6</ele>
        <time>2022-06-27T06:58:07Z</time>
      </trkpt>
      <trkpt lat="42.4223050" lon="-2.5857540">
        <ele>541.6</ele>
        <time>2022-06-27T06:58:08Z</time>
      </trkpt>
      <trkpt lat="42.4222850" lon="-2.5857990">
        <ele>541.6</ele>
        <time>2022-06-27T06:58:09Z</time>
      </trkpt>
      <trkpt lat="42.4222620" lon="-2.5858460">
        <ele>541.6</ele>
        <time>2022-06-27T06:58:10Z</time>
      </trkpt>
      <trkpt lat="42.4222420" lon="-2.5858930">
        <ele>541.8</ele>
        <time>2022-06-27T06:58:11Z</time>
      </trkpt>
      <trkpt lat="42.4222210" lon="-2.5859410">
        <ele>541.8</ele>
        <time>2022-06-27T06:58:12Z</time>
      </trkpt>
      <trkpt lat="42.4222010" lon="-2.5859850">
        <ele>542.2</ele>
        <time>2022-06-27T06:58:13Z</time>
      </trkpt>
      <trkpt lat="42.4221800" lon="-2.5860300">
        <ele>542.4</ele>
        <time>2022-06-27T06:58:14Z</time>
      </trkpt>
      <trkpt lat="42.4221600" lon="-2.5860760">
        <ele>542.6</ele>
        <time>2022-06-27T06:58:15Z</time>
      </trkpt>
      <trkpt lat="42.4221400" lon="-2.5861220">
        <ele>542.8</ele>
        <time>2022-06-27T06:58:16Z</time>
      </trkpt>
      <trkpt lat="42.4221190" lon="-2.5861670">
        <ele>542.6</ele>
        <time>2022-06-27T06:58:17Z</time>
      </trkpt>
      <trkpt lat="42.4221010" lon="-2.5862100">
        <ele>542.8</ele>
        <time>2022-06-27T06:58:18Z</time>
      </trkpt>
      <trkpt lat="42.4220810" lon="-2.5862530">
        <ele>543.0</ele>
        <time>2022-06-27T06:58:19Z</time>
      </trkpt>
      <trkpt lat="42.4220610" lon="-2.5862950">
        <ele>543.4</ele>
        <time>2022-06-27T06:58:20Z</time>
      </trkpt>
      <trkpt lat="42.4220420" lon="-2.5863400">
        <ele>543.6</ele>
        <time>2022-06-27T06:58:21Z</time>
      </trkpt>
      <trkpt lat="42.4220230" lon="-2.5863860">
        <ele>543.8</ele>
        <time>2022-06-27T06:58:22Z</time>
      </trkpt>
      <trkpt lat="42.4220040" lon="-2.5864330">
        <ele>543.8</ele>
        <time>2022-06-27T06:58:23Z</time>
      </trkpt>
      <trkpt lat="42.4219850" lon="-2.5864790">
        <ele>544.2</ele>
        <time>2022-06-27T06:58:24Z</time>
      </trkpt>
      <trkpt lat="42.4219670" lon="-2.5865240">
        <ele>544.2</ele>
        <time>2022-06-27T06:58:25Z</time>
      </trkpt>
      <trkpt lat="42.4219490" lon="-2.5865700">
        <ele>544.2</ele>
        <time>2022-06-27T06:58:26Z</time>
      </trkpt>
      <trkpt lat="42.4219310" lon="-2.5866150">
        <ele>544.4</ele>
        <time>2022-06-27T06:58:27Z</time>
      </trkpt>
      <trkpt lat="42.4219110" lon="-2.5866600">
        <ele>544.6</ele>
        <time>2022-06-27T06:58:28Z</time>
      </trkpt>
      <trkpt lat="42.4218900" lon="-2.5867070">
        <ele>544.6</ele>
        <time>2022-06-27T06:58:29Z</time>
      </trkpt>
      <trkpt lat="42.4218710" lon="-2.5867550">
        <ele>544.8</ele>
        <time>2022-06-27T06:58:30Z</time>
      </trkpt>
      <trkpt lat="42.4218510" lon="-2.5868040">
        <ele>544.8</ele>
        <time>2022-06-27T06:58:31Z</time>
      </trkpt>
      <trkpt lat="42.4218300" lon="-2.5868520">
        <ele>545.2</ele>
        <time>2022-06-27T06:58:32Z</time>
      </trkpt>
      <trkpt lat="42.4218070" lon="-2.5869020">
        <ele>545.2</ele>
        <time>2022-06-27T06:58:33Z</time>
      </trkpt>
      <trkpt lat="42.4217830" lon="-2.5869520">
        <ele>545.6</ele>
        <time>2022-06-27T06:58:34Z</time>
      </trkpt>
      <trkpt lat="42.4217590" lon="-2.5870030">
        <ele>545.8</ele>
        <time>2022-06-27T06:58:35Z</time>
      </trkpt>
      <trkpt lat="42.4217350" lon="-2.5870540">
        <ele>545.8</ele>
        <time>2022-06-27T06:58:36Z</time>
      </trkpt>
      <trkpt lat="42.4217100" lon="-2.5871060">
        <ele>546.0</ele>
        <time>2022-06-27T06:58:37Z</time>
      </trkpt>
      <trkpt lat="42.4216860" lon="-2.5871580">
        <ele>546.0</ele>
        <time>2022-06-27T06:58:38Z</time>
      </trkpt>
      <trkpt lat="42.4216620" lon="-2.5872110">
        <ele>546.2</ele>
        <time>2022-06-27T06:58:39Z</time>
      </trkpt>
      <trkpt lat="42.4216390" lon="-2.5872640">
        <ele>546.4</ele>
        <time>2022-06-27T06:58:40Z</time>
      </trkpt>
      <trkpt lat="42.4216160" lon="-2.5873200">
        <ele>546.6</ele>
        <time>2022-06-27T06:58:41Z</time>
      </trkpt>
      <trkpt lat="42.4215930" lon="-2.5873760">
        <ele>546.8</ele>
        <time>2022-06-27T06:58:42Z</time>
      </trkpt>
      <trkpt lat="42.4215690" lon="-2.5874350">
        <ele>546.8</ele>
        <time>2022-06-27T06:58:43Z</time>
      </trkpt>
      <trkpt lat="42.4215440" lon="-2.5874950">
        <ele>547.0</ele>
        <time>2022-06-27T06:58:44Z</time>
      </trkpt>
      <trkpt lat="42.4215190" lon="-2.5875540">
        <ele>547.2</ele>
        <time>2022-06-27T06:58:45Z</time>
      </trkpt>
      <trkpt lat="42.4214960" lon="-2.5876120">
        <ele>547.4</ele>
        <time>2022-06-27T06:58:46Z</time>
      </trkpt>
      <trkpt lat="42.4214750" lon="-2.5876720">
        <ele>547.6</ele>
        <time>2022-06-27T06:58:47Z</time>
      </trkpt>
      <trkpt lat="42.4214490" lon="-2.5877320">
        <ele>547.8</ele>
        <time>2022-06-27T06:58:48Z</time>
      </trkpt>
      <trkpt lat="42.4214250" lon="-2.5877900">
        <ele>547.8</ele>
        <time>2022-06-27T06:58:49Z</time>
      </trkpt>
      <trkpt lat="42.4213980" lon="-2.5878430">
        <ele>548.0</ele>
        <time>2022-06-27T06:58:50Z</time>
      </trkpt>
      <trkpt lat="42.4213720" lon="-2.5878960">
        <ele>548.4</ele>
        <time>2022-06-27T06:58:51Z</time>
      </trkpt>
      <trkpt lat="42.4213440" lon="-2.5879510">
        <ele>548.6</ele>
        <time>2022-06-27T06:58:52Z</time>
      </trkpt>
      <trkpt lat="42.4213170" lon="-2.5880070">
        <ele>548.8</ele>
        <time>2022-06-27T06:58:53Z</time>
      </trkpt>
      <trkpt lat="42.4212950" lon="-2.5880590">
        <ele>549.0</ele>
        <time>2022-06-27T06:58:54Z</time>
      </trkpt>
      <trkpt lat="42.4212760" lon="-2.5881080">
        <ele>549.2</ele>
        <time>2022-06-27T06:58:55Z</time>
      </trkpt>
      <trkpt lat="42.4212550" lon="-2.5881660">
        <ele>549.4</ele>
        <time>2022-06-27T06:58:56Z</time>
      </trkpt>
      <trkpt lat="42.4212340" lon="-2.5882250">
        <ele>549.6</ele>
        <time>2022-06-27T06:58:57Z</time>
      </trkpt>
      <trkpt lat="42.4212140" lon="-2.5882840">
        <ele>549.8</ele>
        <time>2022-06-27T06:58:58Z</time>
      </trkpt>
      <trkpt lat="42.4211940" lon="-2.5883410">
        <ele>550.0</ele>
        <time>2022-06-27T06:58:59Z</time>
      </trkpt>
      <trkpt lat="42.4211730" lon="-2.5883980">
        <ele>550.2</ele>
        <time>2022-06-27T06:59:00Z</time>
      </trkpt>
      <trkpt lat="42.4211510" lon="-2.5884580">
        <ele>550.4</ele>
        <time>2022-06-27T06:59:01Z</time>
      </trkpt>
      <trkpt lat="42.4211290" lon="-2.5885170">
        <ele>550.6</ele>
        <time>2022-06-27T06:59:02Z</time>
      </trkpt>
      <trkpt lat="42.4211030" lon="-2.5885750">
        <ele>550.6</ele>
        <time>2022-06-27T06:59:03Z</time>
      </trkpt>
      <trkpt lat="42.4210770" lon="-2.5886310">
        <ele>550.8</ele>
        <time>2022-06-27T06:59:04Z</time>
      </trkpt>
      <trkpt lat="42.4210520" lon="-2.5886870">
        <ele>551.0</ele>
        <time>2022-06-27T06:59:05Z</time>
      </trkpt>
      <trkpt lat="42.4210250" lon="-2.5887450">
        <ele>551.2</ele>
        <time>2022-06-27T06:59:06Z</time>
      </trkpt>
      <trkpt lat="42.4209990" lon="-2.5888040">
        <ele>551.4</ele>
        <time>2022-06-27T06:59:07Z</time>
      </trkpt>
      <trkpt lat="42.4209720" lon="-2.5888640">
        <ele>551.4</ele>
        <time>2022-06-27T06:59:08Z</time>
      </trkpt>
      <trkpt lat="42.4209500" lon="-2.5889200">
        <ele>551.4</ele>
        <time>2022-06-27T06:59:09Z</time>
      </trkpt>
      <trkpt lat="42.4209260" lon="-2.5889770">
        <ele>551.6</ele>
        <time>2022-06-27T06:59:10Z</time>
      </trkpt>
      <trkpt lat="42.4209010" lon="-2.5890350">
        <ele>551.8</ele>
        <time>2022-06-27T06:59:11Z</time>
      </trkpt>
      <trkpt lat="42.4208750" lon="-2.5890940">
        <ele>551.8</ele>
        <time>2022-06-27T06:59:12Z</time>
      </trkpt>
      <trkpt lat="42.4208500" lon="-2.5891530">
        <ele>552.0</ele>
        <time>2022-06-27T06:59:13Z</time>
      </trkpt>
      <trkpt lat="42.4208250" lon="-2.5892110">
        <ele>552.2</ele>
        <time>2022-06-27T06:59:14Z</time>
      </trkpt>
      <trkpt lat="42.4208000" lon="-2.5892660">
        <ele>552.2</ele>
        <time>2022-06-27T06:59:15Z</time>
      </trkpt>
      <trkpt lat="42.4207830" lon="-2.5893110">
        <ele>552.4</ele>
        <time>2022-06-27T06:59:16Z</time>
      </trkpt>
      <trkpt lat="42.4207580" lon="-2.5893680">
        <ele>552.4</ele>
        <time>2022-06-27T06:59:17Z</time>
      </trkpt>
      <trkpt lat="42.4207360" lon="-2.5894240">
        <ele>552.6</ele>
        <time>2022-06-27T06:59:18Z</time>
      </trkpt>
      <trkpt lat="42.4207180" lon="-2.5894860">
        <ele>552.8</ele>
        <time>2022-06-27T06:59:19Z</time>
      </trkpt>
      <trkpt lat="42.4207080" lon="-2.5895530">
        <ele>552.8</ele>
        <time>2022-06-27T06:59:20Z</time>
      </trkpt>
      <trkpt lat="42.4207120" lon="-2.5896220">
        <ele>553.0</ele>
        <time>2022-06-27T06:59:21Z</time>
      </trkpt>
      <trkpt lat="42.4207270" lon="-2.5896920">
        <ele>553.0</ele>
        <time>2022-06-27T06:59:22Z</time>
      </trkpt>
      <trkpt lat="42.4207400" lon="-2.5897280">
        <ele>553.0</ele>
        <time>2022-06-27T06:59:23Z</time>
      </trkpt>
      <trkpt lat="42.4207520" lon="-2.5897640">
        <ele>553.0</ele>
        <time>2022-06-27T06:59:24Z</time>
      </trkpt>
      <trkpt lat="42.4207860" lon="-2.5898940">
        <ele>553.2</ele>
        <time>2022-06-27T06:59:25Z</time>
      </trkpt>
      <trkpt lat="42.4207940" lon="-2.5899520">
        <ele>553.2</ele>
        <time>2022-06-27T06:59:26Z</time>
      </trkpt>
      <trkpt lat="42.4208100" lon="-2.5900690">
        <ele>553.2</ele>
        <time>2022-06-27T06:59:27Z</time>
      </trkpt>
      <trkpt lat="42.4207990" lon="-2.5901480">
        <ele>553.0</ele>
        <time>2022-06-27T06:59:28Z</time>
      </trkpt>
      <trkpt lat="42.4207750" lon="-2.5902210">
        <ele>553.0</ele>
        <time>2022-06-27T06:59:29Z</time>
      </trkpt>
      <trkpt lat="42.4207390" lon="-2.5902820">
        <ele>553.0</ele>
        <time>2022-06-27T06:59:30Z</time>
      </trkpt>
      <trkpt lat="42.4206940" lon="-2.5903280">
        <ele>553.0</ele>
        <time>2022-06-27T06:59:31Z</time>
      </trkpt>
      <trkpt lat="42.4206440" lon="-2.5903560">
        <ele>553.0</ele>
        <time>2022-06-27T06:59:32Z</time>
      </trkpt>
      <trkpt lat="42.4205930" lon="-2.5903680">
        <ele>553.0</ele>
        <time>2022-06-27T06:59:33Z</time>
      </trkpt>
      <trkpt lat="42.4205400" lon="-2.5903640">
        <ele>553.0</ele>
        <time>2022-06-27T06:59:34Z</time>
      </trkpt>
      <trkpt lat="42.4204790" lon="-2.5903450">
        <ele>553.0</ele>
        <time>2022-06-27T06:59:35Z</time>
      </trkpt>
      <trkpt lat="42.4204410" lon="-2.5903230">
        <ele>553.2</ele>
        <time>2022-06-27T06:59:36Z</time>
      </trkpt>
      <trkpt lat="42.4203960" lon="-2.5902960">
        <ele>553.4</ele>
        <time>2022-06-27T06:59:37Z</time>
      </trkpt>
      <trkpt lat="42.4203530" lon="-2.5902680">
        <ele>553.6</ele>
        <time>2022-06-27T06:59:38Z</time>
      </trkpt>
      <trkpt lat="42.4203100" lon="-2.5902420">
        <ele>553.8</ele>
        <time>2022-06-27T06:59:39Z</time>
      </trkpt>
      <trkpt lat="42.4202710" lon="-2.5902180">
        <ele>554.2</ele>
        <time>2022-06-27T06:59:40Z</time>
      </trkpt>
      <trkpt lat="42.4197480" lon="-2.5904230">
        <ele>557.2</ele>
        <time>2022-06-27T07:02:42Z</time>
      </trkpt>
      <trkpt lat="42.4197190" lon="-2.5904420">
        <ele>557.2</ele>
        <time>2022-06-27T07:02:43Z</time>
      </trkpt>
      <trkpt lat="42.4196940" lon="-2.5904620">
        <ele>557.4</ele>
        <time>2022-06-27T07:02:44Z</time>
      </trkpt>
      <trkpt lat="42.4196660" lon="-2.5904840">
        <ele>557.4</ele>
        <time>2022-06-27T07:02:45Z</time>
      </trkpt>
      <trkpt lat="42.4196370" lon="-2.5905010">
        <ele>557.6</ele>
        <time>2022-06-27T07:02:46Z</time>
      </trkpt>
      <trkpt lat="42.4196070" lon="-2.5905200">
        <ele>557.6</ele>
        <time>2022-06-27T07:02:47Z</time>
      </trkpt>
      <trkpt lat="42.4195760" lon="-2.5905410">
        <ele>558.0</ele>
        <time>2022-06-27T07:02:48Z</time>
      </trkpt>
      <trkpt lat="42.4195450" lon="-2.5905570">
        <ele>558.0</ele>
        <time>2022-06-27T07:02:49Z</time>
      </trkpt>
      <trkpt lat="42.4195150" lon="-2.5905740">
        <ele>558.2</ele>
        <time>2022-06-27T07:02:50Z</time>
      </trkpt>
      <trkpt lat="42.4194860" lon="-2.5905960">
        <ele>558.2</ele>
        <time>2022-06-27T07:02:51Z</time>
      </trkpt>
      <trkpt lat="42.4194570" lon="-2.5906160">
        <ele>558.2</ele>
        <time>2022-06-27T07:02:52Z</time>
      </trkpt>
      <trkpt lat="42.4194260" lon="-2.5906380">
        <ele>558.2</ele>
        <time>2022-06-27T07:02:53Z</time>
      </trkpt>
      <trkpt lat="42.4193920" lon="-2.5906600">
        <ele>558.4</ele>
        <time>2022-06-27T07:02:54Z</time>
      </trkpt>
      <trkpt lat="42.4193570" lon="-2.5906800">
        <ele>558.4</ele>
        <time>2022-06-27T07:02:55Z</time>
      </trkpt>
      <trkpt lat="42.4193210" lon="-2.5907030">
        <ele>558.4</ele>
        <time>2022-06-27T07:02:56Z</time>
      </trkpt>
      <trkpt lat="42.4192860" lon="-2.5907280">
        <ele>558.6</ele>
        <time>2022-06-27T07:02:57Z</time>
      </trkpt>
      <trkpt lat="42.4192510" lon="-2.5907540">
        <ele>558.8</ele>
        <time>2022-06-27T07:02:58Z</time>
      </trkpt>
      <trkpt lat="42.4192170" lon="-2.5907790">
        <ele>558.8</ele>
        <time>2022-06-27T07:02:59Z</time>
      </trkpt>
      <trkpt lat="42.4191830" lon="-2.5908010">
        <ele>559.0</ele>
        <time>2022-06-27T07:03:00Z</time>
      </trkpt>
      <trkpt lat="42.4191500" lon="-2.5908220">
        <ele>559.0</ele>
        <time>2022-06-27T07:03:01Z</time>
      </trkpt>
      <trkpt lat="42.4191170" lon="-2.5908410">
        <ele>559.2</ele>
        <time>2022-06-27T07:03:02Z</time>
      </trkpt>
      <trkpt lat="42.4190820" lon="-2.5908570">
        <ele>559.4</ele>
        <time>2022-06-27T07:03:03Z</time>
      </trkpt>
      <trkpt lat="42.4190480" lon="-2.5908780">
        <ele>559.6</ele>
        <time>2022-06-27T07:03:04Z</time>
      </trkpt>
      <trkpt lat="42.4190130" lon="-2.5908980">
        <ele>559.8</ele>
        <time>2022-06-27T07:03:05Z</time>
      </trkpt>
      <trkpt lat="42.4189800" lon="-2.5909170">
        <ele>560.0</ele>
        <time>2022-06-27T07:03:06Z</time>
      </trkpt>
      <trkpt lat="42.4189480" lon="-2.5909350">
        <ele>560.2</ele>
        <time>2022-06-27T07:03:07Z</time>
      </trkpt>
      <trkpt lat="42.4189170" lon="-2.5909530">
        <ele>560.2</ele>
        <time>2022-06-27T07:03:08Z</time>
      </trkpt>
      <trkpt lat="42.4188870" lon="-2.5909740">
        <ele>560.4</ele>
        <time>2022-06-27T07:03:09Z</time>
      </trkpt>
      <trkpt lat="42.4188580" lon="-2.5909980">
        <ele>560.6</ele>
        <time>2022-06-27T07:03:10Z</time>
      </trkpt>
      <trkpt lat="42.4188290" lon="-2.5910200">
        <ele>560.8</ele>
        <time>2022-06-27T07:03:11Z</time>
      </trkpt>
      <trkpt lat="42.4187980" lon="-2.5910400">
        <ele>560.8</ele>
        <time>2022-06-27T07:03:12Z</time>
      </trkpt>
      <trkpt lat="42.4187660" lon="-2.5910590">
        <ele>561.0</ele>
        <time>2022-06-27T07:03:13Z</time>
      </trkpt>
      <trkpt lat="42.4187350" lon="-2.5910780">
        <ele>561.0</ele>
        <time>2022-06-27T07:03:14Z</time>
      </trkpt>
      <trkpt lat="42.4187030" lon="-2.5911000">
        <ele>561.2</ele>
        <time>2022-06-27T07:03:15Z</time>
      </trkpt>
      <trkpt lat="42.4186700" lon="-2.5911200">
        <ele>561.2</ele>
        <time>2022-06-27T07:03:16Z</time>
      </trkpt>
      <trkpt lat="42.4186360" lon="-2.5911380">
        <ele>561.4</ele>
        <time>2022-06-27T07:03:17Z</time>
      </trkpt>
      <trkpt lat="42.4186040" lon="-2.5911570">
        <ele>561.6</ele>
        <time>2022-06-27T07:03:18Z</time>
      </trkpt>
      <trkpt lat="42.4185710" lon="-2.5911780">
        <ele>561.6</ele>
        <time>2022-06-27T07:03:19Z</time>
      </trkpt>
      <trkpt lat="42.4185410" lon="-2.5911990">
        <ele>561.6</ele>
        <time>2022-06-27T07:03:20Z</time>
      </trkpt>
      <trkpt lat="42.4185100" lon="-2.5912220">
        <ele>561.8</ele>
        <time>2022-06-27T07:03:21Z</time>
      </trkpt>
      <trkpt lat="42.4184770" lon="-2.5912430">
        <ele>562.0</ele>
        <time>2022-06-27T07:03:22Z</time>
      </trkpt>
      <trkpt lat="42.4184440" lon="-2.5912600">
        <ele>562.4</ele>
        <time>2022-06-27T07:03:23Z</time>
      </trkpt>
      <trkpt lat="42.4184110" lon="-2.5912810">
        <ele>562.6</ele>
        <time>2022-06-27T07:03:24Z</time>
      </trkpt>
      <trkpt lat="42.4183770" lon="-2.5913020">
        <ele>562.8</ele>
        <time>2022-06-27T07:03:25Z</time>
      </trkpt>
      <trkpt lat="42.4183430" lon="-2.5913250">
        <ele>563.0</ele>
        <time>2022-06-27T07:03:26Z</time>
      </trkpt>
      <trkpt lat="42.4183090" lon="-2.5913490">
        <ele>563.2</ele>
        <time>2022-06-27T07:03:27Z</time>
      </trkpt>
      <trkpt lat="42.4182740" lon="-2.5913740">
        <ele>563.4</ele>
        <time>2022-06-27T07:03:28Z</time>
      </trkpt>
      <trkpt lat="42.4182400" lon="-2.5913970">
        <ele>563.6</ele>
        <time>2022-06-27T07:03:29Z</time>
      </trkpt>
      <trkpt lat="42.4182060" lon="-2.5914190">
        <ele>563.6</ele>
        <time>2022-06-27T07:03:30Z</time>
      </trkpt>
      <trkpt lat="42.4181740" lon="-2.5914430">
        <ele>563.6</ele>
        <time>2022-06-27T07:03:31Z</time>
      </trkpt>
      <trkpt lat="42.4181410" lon="-2.5914660">
        <ele>563.8</ele>
        <time>2022-06-27T07:03:32Z</time>
      </trkpt>
      <trkpt lat="42.4181060" lon="-2.5914870">
        <ele>563.8</ele>
        <time>2022-06-27T07:03:33Z</time>
      </trkpt>
      <trkpt lat="42.4180700" lon="-2.5915110">
        <ele>563.8</ele>
        <time>2022-06-27T07:03:34Z</time>
      </trkpt>
      <trkpt lat="42.4180360" lon="-2.5915340">
        <ele>564.0</ele>
        <time>2022-06-27T07:03:35Z</time>
      </trkpt>
      <trkpt lat="42.4180020" lon="-2.5915530">
        <ele>564.0</ele>
        <time>2022-06-27T07:03:36Z</time>
      </trkpt>
      <trkpt lat="42.4179690" lon="-2.5915720">
        <ele>564.2</ele>
        <time>2022-06-27T07:03:37Z</time>
      </trkpt>
      <trkpt lat="42.4179350" lon="-2.5915920">
        <ele>564.2</ele>
        <time>2022-06-27T07:03:38Z</time>
      </trkpt>
      <trkpt lat="42.4179020" lon="-2.5916100">
        <ele>564.2</ele>
        <time>2022-06-27T07:03:39Z</time>
      </trkpt>
      <trkpt lat="42.4178670" lon="-2.5916280">
        <ele>564.4</ele>
        <time>2022-06-27T07:03:40Z</time>
      </trkpt>
      <trkpt lat="42.4178340" lon="-2.5916490">
        <ele>564.8</ele>
        <time>2022-06-27T07:03:41Z</time>
      </trkpt>
      <trkpt lat="42.4178010" lon="-2.5916690">
        <ele>564.8</ele>
        <time>2022-06-27T07:03:42Z</time>
      </trkpt>
      <trkpt lat="42.4177670" lon="-2.5916900">
        <ele>565.0</ele>
        <time>2022-06-27T07:03:43Z</time>
      </trkpt>
      <trkpt lat="42.4177330" lon="-2.5917110">
        <ele>565.0</ele>
        <time>2022-06-27T07:03:44Z</time>
      </trkpt>
      <trkpt lat="42.4176990" lon="-2.5917290">
        <ele>565.2</ele>
        <time>2022-06-27T07:03:45Z</time>
      </trkpt>
      <trkpt lat="42.4176640" lon="-2.5917460">
        <ele>565.4</ele>
        <time>2022-06-27T07:03:46Z</time>
      </trkpt>
      <trkpt lat="42.4176310" lon="-2.5917660">
        <ele>565.4</ele>
        <time>2022-06-27T07:03:47Z</time>
      </trkpt>
      <trkpt lat="42.4175980" lon="-2.5917840">
        <ele>565.6</ele>
        <time>2022-06-27T07:03:48Z</time>
      </trkpt>
      <trkpt lat="42.4175640" lon="-2.5918010">
        <ele>565.8</ele>
        <time>2022-06-27T07:03:49Z</time>
      </trkpt>
      <trkpt lat="42.4175310" lon="-2.5918180">
        <ele>566.0</ele>
        <time>2022-06-27T07:03:50Z</time>
      </trkpt>
      <trkpt lat="42.4174970" lon="-2.5918370">
        <ele>566.0</ele>
        <time>2022-06-27T07:03:51Z</time>
      </trkpt>
      <trkpt lat="42.4174620" lon="-2.5918540">
        <ele>566.2</ele>
        <time>2022-06-27T07:03:52Z</time>
      </trkpt>
      <trkpt lat="42.4174270" lon="-2.5918700">
        <ele>566.4</ele>
        <time>2022-06-27T07:03:53Z</time>
      </trkpt>
      <trkpt lat="42.4173920" lon="-2.5918860">
        <ele>566.6</ele>
        <time>2022-06-27T07:03:54Z</time>
      </trkpt>
      <trkpt lat="42.4173580" lon="-2.5919030">
        <ele>566.6</ele>
        <time>2022-06-27T07:03:55Z</time>
      </trkpt>
      <trkpt lat="42.4173220" lon="-2.5919200">
        <ele>566.6</ele>
        <time>2022-06-27T07:03:56Z</time>
      </trkpt>
      <trkpt lat="42.4172850" lon="-2.5919340">
        <ele>566.8</ele>
        <time>2022-06-27T07:03:57Z</time>
      </trkpt>
      <trkpt lat="42.4172480" lon="-2.5919490">
        <ele>567.0</ele>
        <time>2022-06-27T07:03:58Z</time>
      </trkpt>
      <trkpt lat="42.4172130" lon="-2.5919630">
        <ele>567.2</ele>
        <time>2022-06-27T07:03:59Z</time>
      </trkpt>
      <trkpt lat="42.4171780" lon="-2.5919760">
        <ele>567.4</ele>
        <time>2022-06-27T07:04:00Z</time>
      </trkpt>
      <trkpt lat="42.4171420" lon="-2.5919880">
        <ele>567.6</ele>
        <time>2022-06-27T07:04:01Z</time>
      </trkpt>
      <trkpt lat="42.4171060" lon="-2.5920030">
        <ele>567.6</ele>
        <time>2022-06-27T07:04:02Z</time>
      </trkpt>
      <trkpt lat="42.4170710" lon="-2.5920180">
        <ele>567.8</ele>
        <time>2022-06-27T07:04:03Z</time>
      </trkpt>
      <trkpt lat="42.4170370" lon="-2.5920330">
        <ele>568.2</ele>
        <time>2022-06-27T07:04:04Z</time>
      </trkpt>
      <trkpt lat="42.4170000" lon="-2.5920460">
        <ele>568.4</ele>
        <time>2022-06-27T07:04:05Z</time>
      </trkpt>
      <trkpt lat="42.4169640" lon="-2.5920590">
        <ele>568.6</ele>
        <time>2022-06-27T07:04:06Z</time>
      </trkpt>
      <trkpt lat="42.4169280" lon="-2.5920740">
        <ele>568.8</ele>
        <time>2022-06-27T07:04:07Z</time>
      </trkpt>
      <trkpt lat="42.4168920" lon="-2.5920870">
        <ele>569.0</ele>
        <time>2022-06-27T07:04:08Z</time>
      </trkpt>
      <trkpt lat="42.4168550" lon="-2.5920990">
        <ele>569.0</ele>
        <time>2022-06-27T07:04:09Z</time>
      </trkpt>
      <trkpt lat="42.4168180" lon="-2.5921100">
        <ele>569.2</ele>
        <time>2022-06-27T07:04:10Z</time>
      </trkpt>
      <trkpt lat="42.4167810" lon="-2.5921190">
        <ele>569.4</ele>
        <time>2022-06-27T07:04:11Z</time>
      </trkpt>
      <trkpt lat="42.4167440" lon="-2.5921300">
        <ele>569.4</ele>
        <time>2022-06-27T07:04:12Z</time>
      </trkpt>
      <trkpt lat="42.4167070" lon="-2.5921400">
        <ele>569.6</ele>
        <time>2022-06-27T07:04:13Z</time>
      </trkpt>
      <trkpt lat="42.4166720" lon="-2.5921480">
        <ele>569.8</ele>
        <time>2022-06-27T07:04:14Z</time>
      </trkpt>
      <trkpt lat="42.4166360" lon="-2.5921580">
        <ele>570.0</ele>
        <time>2022-06-27T07:04:15Z</time>
      </trkpt>
      <trkpt lat="42.4166010" lon="-2.5921690">
        <ele>570.0</ele>
        <time>2022-06-27T07:04:16Z</time>
      </trkpt>
      <trkpt lat="42.4165650" lon="-2.5921790">
        <ele>570.2</ele>
        <time>2022-06-27T07:04:17Z</time>
      </trkpt>
      <trkpt lat="42.4165280" lon="-2.5921920">
        <ele>570.4</ele>
        <time>2022-06-27T07:04:18Z</time>
      </trkpt>
      <trkpt lat="42.4164920" lon="-2.5922040">
        <ele>570.6</ele>
        <time>2022-06-27T07:04:19Z</time>
      </trkpt>
      <trkpt lat="42.4164560" lon="-2.5922170">
        <ele>570.8</ele>
        <time>2022-06-27T07:04:20Z</time>
      </trkpt>
      <trkpt lat="42.4164190" lon="-2.5922300">
        <ele>570.8</ele>
        <time>2022-06-27T07:04:21Z</time>
      </trkpt>
      <trkpt lat="42.4163830" lon="-2.5922420">
        <ele>570.8</ele>
        <time>2022-06-27T07:04:22Z</time>
      </trkpt>
      <trkpt lat="42.4163420" lon="-2.5922530">
        <ele>571.0</ele>
        <time>2022-06-27T07:04:23Z</time>
      </trkpt>
      <trkpt lat="42.4163030" lon="-2.5922650">
        <ele>571.2</ele>
        <time>2022-06-27T07:04:24Z</time>
      </trkpt>
      <trkpt lat="42.4162670" lon="-2.5922760">
        <ele>571.4</ele>
        <time>2022-06-27T07:04:25Z</time>
      </trkpt>
      <trkpt lat="42.4162310" lon="-2.5922880">
        <ele>571.6</ele>
        <time>2022-06-27T07:04:26Z</time>
      </trkpt>
      <trkpt lat="42.4161950" lon="-2.5923000">
        <ele>571.8</ele>
        <time>2022-06-27T07:04:27Z</time>
      </trkpt>
      <trkpt lat="42.4161600" lon="-2.5923130">
        <ele>571.8</ele>
        <time>2022-06-27T07:04:28Z</time>
      </trkpt>
      <trkpt lat="42.4161250" lon="-2.5923270">
        <ele>571.8</ele>
        <time>2022-06-27T07:04:29Z</time>
      </trkpt>
      <trkpt lat="42.4160880" lon="-2.5923370">
        <ele>572.0</ele>
        <time>2022-06-27T07:04:30Z</time>
      </trkpt>
      <trkpt lat="42.4160530" lon="-2.5923490">
        <ele>572.2</ele>
        <time>2022-06-27T07:04:31Z</time>
      </trkpt>
      <trkpt lat="42.4160170" lon="-2.5923620">
        <ele>572.4</ele>
        <time>2022-06-27T07:04:32Z</time>
      </trkpt>
      <trkpt lat="42.4159810" lon="-2.5923730">
        <ele>572.4</ele>
        <time>2022-06-27T07:04:33Z</time>
      </trkpt>
      <trkpt lat="42.4159460" lon="-2.5923820">
        <ele>572.6</ele>
        <time>2022-06-27T07:04:34Z</time>
      </trkpt>
      <trkpt lat="42.4159100" lon="-2.5923920">
        <ele>572.8</ele>
        <time>2022-06-27T07:04:35Z</time>
      </trkpt>
      <trkpt lat="42.4158760" lon="-2.5924030">
        <ele>573.0</ele>
        <time>2022-06-27T07:04:36Z</time>
      </trkpt>
      <trkpt lat="42.4158420" lon="-2.5924120">
        <ele>573.2</ele>
        <time>2022-06-27T07:04:37Z</time>
      </trkpt>
      <trkpt lat="42.4158070" lon="-2.5924200">
        <ele>573.2</ele>
        <time>2022-06-27T07:04:38Z</time>
      </trkpt>
      <trkpt lat="42.4157710" lon="-2.5924280">
        <ele>573.4</ele>
        <time>2022-06-27T07:04:39Z</time>
      </trkpt>
      <trkpt lat="42.4157360" lon="-2.5924380">
        <ele>573.4</ele>
        <time>2022-06-27T07:04:40Z</time>
      </trkpt>
      <trkpt lat="42.4157010" lon="-2.5924460">
        <ele>573.8</ele>
        <time>2022-06-27T07:04:41Z</time>
      </trkpt>
      <trkpt lat="42.4156660" lon="-2.5924550">
        <ele>573.8</ele>
        <time>2022-06-27T07:04:42Z</time>
      </trkpt>
      <trkpt lat="42.4156310" lon="-2.5924610">
        <ele>574.0</ele>
        <time>2022-06-27T07:04:43Z</time>
      </trkpt>
      <trkpt lat="42.4155960" lon="-2.5924680">
        <ele>574.2</ele>
        <time>2022-06-27T07:04:44Z</time>
      </trkpt>
      <trkpt lat="42.4155620" lon="-2.5924780">
        <ele>574.2</ele>
        <time>2022-06-27T07:04:45Z</time>
      </trkpt>
      <trkpt lat="42.4155260" lon="-2.5924860">
        <ele>574.4</ele>
        <time>2022-06-27T07:04:46Z</time>
      </trkpt>
      <trkpt lat="42.4154910" lon="-2.5924880">
        <ele>574.6</ele>
        <time>2022-06-27T07:04:47Z</time>
      </trkpt>
      <trkpt lat="42.4154550" lon="-2.5924930">
        <ele>574.8</ele>
        <time>2022-06-27T07:04:48Z</time>
      </trkpt>
      <trkpt lat="42.4154190" lon="-2.5924950">
        <ele>575.0</ele>
        <time>2022-06-27T07:04:49Z</time>
      </trkpt>
      <trkpt lat="42.4153840" lon="-2.5924950">
        <ele>575.2</ele>
        <time>2022-06-27T07:04:50Z</time>
      </trkpt>
      <trkpt lat="42.4153480" lon="-2.5924960">
        <ele>575.4</ele>
        <time>2022-06-27T07:04:51Z</time>
      </trkpt>
      <trkpt lat="42.4153120" lon="-2.5924990">
        <ele>575.8</ele>
        <time>2022-06-27T07:04:52Z</time>
      </trkpt>
      <trkpt lat="42.4152750" lon="-2.5924990">
        <ele>576.0</ele>
        <time>2022-06-27T07:04:53Z</time>
      </trkpt>
      <trkpt lat="42.4152380" lon="-2.5924990">
        <ele>576.2</ele>
        <time>2022-06-27T07:04:54Z</time>
      </trkpt>
      <trkpt lat="42.4152010" lon="-2.5924990">
        <ele>576.4</ele>
        <time>2022-06-27T07:04:55Z</time>
      </trkpt>
      <trkpt lat="42.4151660" lon="-2.5924970">
        <ele>576.6</ele>
        <time>2022-06-27T07:04:56Z</time>
      </trkpt>
      <trkpt lat="42.4151290" lon="-2.5924930">
        <ele>576.8</ele>
        <time>2022-06-27T07:04:57Z</time>
      </trkpt>
      <trkpt lat="42.4150920" lon="-2.5924920">
        <ele>576.8</ele>
        <time>2022-06-27T07:04:58Z</time>
      </trkpt>
      <trkpt lat="42.4150550" lon="-2.5924880">
        <ele>577.0</ele>
        <time>2022-06-27T07:04:59Z</time>
      </trkpt>
      <trkpt lat="42.4150170" lon="-2.5924870">
        <ele>577.2</ele>
        <time>2022-06-27T07:05:00Z</time>
      </trkpt>
      <trkpt lat="42.4149810" lon="-2.5924840">
        <ele>577.2</ele>
        <time>2022-06-27T07:05:01Z</time>
      </trkpt>
      <trkpt lat="42.4149450" lon="-2.5924800">
        <ele>577.6</ele>
        <time>2022-06-27T07:05:02Z</time>
      </trkpt>
      <trkpt lat="42.4149100" lon="-2.5924750">
        <ele>577.6</ele>
        <time>2022-06-27T07:05:03Z</time>
      </trkpt>
      <trkpt lat="42.4148740" lon="-2.5924700">
        <ele>577.8</ele>
        <time>2022-06-27T07:05:04Z</time>
      </trkpt>
      <trkpt lat="42.4148360" lon="-2.5924660">
        <ele>577.8</ele>
        <time>2022-06-27T07:05:05Z</time>
      </trkpt>
      <trkpt lat="42.4148000" lon="-2.5924620">
        <ele>578.0</ele>
        <time>2022-06-27T07:05:06Z</time>
      </trkpt>
      <trkpt lat="42.4147640" lon="-2.5924580">
        <ele>578.4</ele>
        <time>2022-06-27T07:05:07Z</time>
      </trkpt>
      <trkpt lat="42.4147280" lon="-2.5924540">
        <ele>578.4</ele>
        <time>2022-06-27T07:05:08Z</time>
      </trkpt>
      <trkpt lat="42.4146900" lon="-2.5924500">
        <ele>578.8</ele>
        <time>2022-06-27T07:05:09Z</time>
      </trkpt>
      <trkpt lat="42.4146520" lon="-2.5924450">
        <ele>578.8</ele>
        <time>2022-06-27T07:05:10Z</time>
      </trkpt>
      <trkpt lat="42.4146160" lon="-2.5924410">
        <ele>579.2</ele>
        <time>2022-06-27T07:05:11Z</time>
      </trkpt>
      <trkpt lat="42.4145800" lon="-2.5924380">
        <ele>579.2</ele>
        <time>2022-06-27T07:05:12Z</time>
      </trkpt>
      <trkpt lat="42.4145440" lon="-2.5924340">
        <ele>579.4</ele>
        <time>2022-06-27T07:05:13Z</time>
      </trkpt>
      <trkpt lat="42.4145080" lon="-2.5924310">
        <ele>579.6</ele>
        <time>2022-06-27T07:05:14Z</time>
      </trkpt>
      <trkpt lat="42.4144720" lon="-2.5924320">
        <ele>579.8</ele>
        <time>2022-06-27T07:05:15Z</time>
      </trkpt>
      <trkpt lat="42.4144350" lon="-2.5924320">
        <ele>579.8</ele>
        <time>2022-06-27T07:05:16Z</time>
      </trkpt>
      <trkpt lat="42.4143980" lon="-2.5924300">
        <ele>579.8</ele>
        <time>2022-06-27T07:05:17Z</time>
      </trkpt>
      <trkpt lat="42.4143590" lon="-2.5924280">
        <ele>580.0</ele>
        <time>2022-06-27T07:05:18Z</time>
      </trkpt>
      <trkpt lat="42.4143210" lon="-2.5924240">
        <ele>580.0</ele>
        <time>2022-06-27T07:05:19Z</time>
      </trkpt>
      <trkpt lat="42.4142830" lon="-2.5924190">
        <ele>580.2</ele>
        <time>2022-06-27T07:05:20Z</time>
      </trkpt>
      <trkpt lat="42.4142450" lon="-2.5924150">
        <ele>580.2</ele>
        <time>2022-06-27T07:05:21Z</time>
      </trkpt>
      <trkpt lat="42.4142070" lon="-2.5924120">
        <ele>580.4</ele>
        <time>2022-06-27T07:05:22Z</time>
      </trkpt>
      <trkpt lat="42.4141680" lon="-2.5924070">
        <ele>580.6</ele>
        <time>2022-06-27T07:05:23Z</time>
      </trkpt>
      <trkpt lat="42.4141290" lon="-2.5924010">
        <ele>580.6</ele>
        <time>2022-06-27T07:05:24Z</time>
      </trkpt>
      <trkpt lat="42.4140920" lon="-2.5923950">
        <ele>580.8</ele>
        <time>2022-06-27T07:05:25Z</time>
      </trkpt>
      <trkpt lat="42.4140540" lon="-2.5923900">
        <ele>581.0</ele>
        <time>2022-06-27T07:05:26Z</time>
      </trkpt>
      <trkpt lat="42.4140160" lon="-2.5923850">
        <ele>581.2</ele>
        <time>2022-06-27T07:05:27Z</time>
      </trkpt>
      <trkpt lat="42.4139780" lon="-2.5923790">
        <ele>581.2</ele>
        <time>2022-06-27T07:05:28Z</time>
      </trkpt>
      <trkpt lat="42.4139380" lon="-2.5923750">
        <ele>581.4</ele>
        <time>2022-06-27T07:05:29Z</time>
      </trkpt>
      <trkpt lat="42.4138960" lon="-2.5923730">
        <ele>581.6</ele>
        <time>2022-06-27T07:05:30Z</time>
      </trkpt>
      <trkpt lat="42.4138550" lon="-2.5923680">
        <ele>581.8</ele>
        <time>2022-06-27T07:05:31Z</time>
      </trkpt>
      <trkpt lat="42.4138150" lon="-2.5923610">
        <ele>581.8</ele>
        <time>2022-06-27T07:05:32Z</time>
      </trkpt>
      <trkpt lat="42.4137760" lon="-2.5923580">
        <ele>582.0</ele>
        <time>2022-06-27T07:05:33Z</time>
      </trkpt>
      <trkpt lat="42.4137350" lon="-2.5923540">
        <ele>582.0</ele>
        <time>2022-06-27T07:05:34Z</time>
      </trkpt>
      <trkpt lat="42.4136940" lon="-2.5923500">
        <ele>582.0</ele>
        <time>2022-06-27T07:05:35Z</time>
      </trkpt>
      <trkpt lat="42.4136550" lon="-2.5923460">
        <ele>582.2</ele>
        <time>2022-06-27T07:05:36Z</time>
      </trkpt>
      <trkpt lat="42.4136140" lon="-2.5923430">
        <ele>582.2</ele>
        <time>2022-06-27T07:05:37Z</time>
      </trkpt>
      <trkpt lat="42.4135730" lon="-2.5923390">
        <ele>582.4</ele>
        <time>2022-06-27T07:05:38Z</time>
      </trkpt>
      <trkpt lat="42.4135340" lon="-2.5923350">
        <ele>582.6</ele>
        <time>2022-06-27T07:05:39Z</time>
      </trkpt>
      <trkpt lat="42.4134940" lon="-2.5923330">
        <ele>582.6</ele>
        <time>2022-06-27T07:05:40Z</time>
      </trkpt>
      <trkpt lat="42.4134530" lon="-2.5923320">
        <ele>582.8</ele>
        <time>2022-06-27T07:05:41Z</time>
      </trkpt>
      <trkpt lat="42.4134110" lon="-2.5923290">
        <ele>582.8</ele>
        <time>2022-06-27T07:05:42Z</time>
      </trkpt>
      <trkpt lat="42.4133700" lon="-2.5923240">
        <ele>582.8</ele>
        <time>2022-06-27T07:05:43Z</time>
      </trkpt>
      <trkpt lat="42.4133290" lon="-2.5923170">
        <ele>583.0</ele>
        <time>2022-06-27T07:05:44Z</time>
      </trkpt>
      <trkpt lat="42.4132880" lon="-2.5923120">
        <ele>583.0</ele>
        <time>2022-06-27T07:05:45Z</time>
      </trkpt>
      <trkpt lat="42.4132470" lon="-2.5923090">
        <ele>583.2</ele>
        <time>2022-06-27T07:05:46Z</time>
      </trkpt>
      <trkpt lat="42.4132070" lon="-2.5923060">
        <ele>583.2</ele>
        <time>2022-06-27T07:05:47Z</time>
      </trkpt>
      <trkpt lat="42.4131650" lon="-2.5923040">
        <ele>583.2</ele>
        <time>2022-06-27T07:05:48Z</time>
      </trkpt>
      <trkpt lat="42.4131240" lon="-2.5923000">
        <ele>583.4</ele>
        <time>2022-06-27T07:05:49Z</time>
      </trkpt>
      <trkpt lat="42.4130840" lon="-2.5922970">
        <ele>583.4</ele>
        <time>2022-06-27T07:05:50Z</time>
      </trkpt>
      <trkpt lat="42.4130430" lon="-2.5922940">
        <ele>583.4</ele>
        <time>2022-06-27T07:05:51Z</time>
      </trkpt>
      <trkpt lat="42.4130020" lon="-2.5922910">
        <ele>583.4</ele>
        <time>2022-06-27T07:05:52Z</time>
      </trkpt>
      <trkpt lat="42.4129610" lon="-2.5922860">
        <ele>583.6</ele>
        <time>2022-06-27T07:05:53Z</time>
      </trkpt>
      <trkpt lat="42.4129200" lon="-2.5922810">
        <ele>583.6</ele>
        <time>2022-06-27T07:05:54Z</time>
      </trkpt>
      <trkpt lat="42.4128790" lon="-2.5922770">
        <ele>583.8</ele>
        <time>2022-06-27T07:05:55Z</time>
      </trkpt>
      <trkpt lat="42.4128390" lon="-2.5922720">
        <ele>584.0</ele>
        <time>2022-06-27T07:05:56Z</time>
      </trkpt>
      <trkpt lat="42.4127960" lon="-2.5922680">
        <ele>584.0</ele>
        <time>2022-06-27T07:05:57Z</time>
      </trkpt>
      <trkpt lat="42.4127540" lon="-2.5922660">
        <ele>584.0</ele>
        <time>2022-06-27T07:05:58Z</time>
      </trkpt>
      <trkpt lat="42.4127120" lon="-2.5922620">
        <ele>584.2</ele>
        <time>2022-06-27T07:05:59Z</time>
      </trkpt>
      <trkpt lat="42.4126690" lon="-2.5922570">
        <ele>584.2</ele>
        <time>2022-06-27T07:06:00Z</time>
      </trkpt>
      <trkpt lat="42.4126270" lon="-2.5922530">
        <ele>584.4</ele>
        <time>2022-06-27T07:06:01Z</time>
      </trkpt>
      <trkpt lat="42.4125850" lon="-2.5922490">
        <ele>584.4</ele>
        <time>2022-06-27T07:06:02Z</time>
      </trkpt>
      <trkpt lat="42.4125440" lon="-2.5922430">
        <ele>584.6</ele>
        <time>2022-06-27T07:06:03Z</time>
      </trkpt>
      <trkpt lat="42.4125030" lon="-2.5922360">
        <ele>584.8</ele>
        <time>2022-06-27T07:06:04Z</time>
      </trkpt>
      <trkpt lat="42.4124620" lon="-2.5922340">
        <ele>584.8</ele>
        <time>2022-06-27T07:06:05Z</time>
      </trkpt>
      <trkpt lat="42.4124210" lon="-2.5922330">
        <ele>584.8</ele>
        <time>2022-06-27T07:06:06Z</time>
      </trkpt>
      <trkpt lat="42.4123810" lon="-2.5922320">
        <ele>585.0</ele>
        <time>2022-06-27T07:06:07Z</time>
      </trkpt>
      <trkpt lat="42.4123410" lon="-2.5922310">
        <ele>585.2</ele>
        <time>2022-06-27T07:06:08Z</time>
      </trkpt>
      <trkpt lat="42.4122990" lon="-2.5922330">
        <ele>585.4</ele>
        <time>2022-06-27T07:06:09Z</time>
      </trkpt>
      <trkpt lat="42.4122590" lon="-2.5922350">
        <ele>585.6</ele>
        <time>2022-06-27T07:06:10Z</time>
      </trkpt>
      <trkpt lat="42.4122180" lon="-2.5922390">
        <ele>585.8</ele>
        <time>2022-06-27T07:06:11Z</time>
      </trkpt>
      <trkpt lat="42.4121780" lon="-2.5922420">
        <ele>586.0</ele>
        <time>2022-06-27T07:06:12Z</time>
      </trkpt>
      <trkpt lat="42.4121370" lon="-2.5922460">
        <ele>586.0</ele>
        <time>2022-06-27T07:06:13Z</time>
      </trkpt>
      <trkpt lat="42.4120970" lon="-2.5922510">
        <ele>586.2</ele>
        <time>2022-06-27T07:06:14Z</time>
      </trkpt>
      <trkpt lat="42.4120570" lon="-2.5922590">
        <ele>586.2</ele>
        <time>2022-06-27T07:06:15Z</time>
      </trkpt>
      <trkpt lat="42.4120180" lon="-2.5922700">
        <ele>586.2</ele>
        <time>2022-06-27T07:06:16Z</time>
      </trkpt>
      <trkpt lat="42.4119800" lon="-2.5922770">
        <ele>586.4</ele>
        <time>2022-06-27T07:06:17Z</time>
      </trkpt>
      <trkpt lat="42.4119420" lon="-2.5922840">
        <ele>586.4</ele>
        <time>2022-06-27T07:06:18Z</time>
      </trkpt>
      <trkpt lat="42.4119060" lon="-2.5922940">
        <ele>586.6</ele>
        <time>2022-06-27T07:06:19Z</time>
      </trkpt>
      <trkpt lat="42.4118700" lon="-2.5923090">
        <ele>586.6</ele>
        <time>2022-06-27T07:06:20Z</time>
      </trkpt>
      <trkpt lat="42.4118340" lon="-2.5923220">
        <ele>586.6</ele>
        <time>2022-06-27T07:06:21Z</time>
      </trkpt>
      <trkpt lat="42.4117990" lon="-2.5923350">
        <ele>586.8</ele>
        <time>2022-06-27T07:06:22Z</time>
      </trkpt>
      <trkpt lat="42.4117650" lon="-2.5923480">
        <ele>587.0</ele>
        <time>2022-06-27T07:06:23Z</time>
      </trkpt>
      <trkpt lat="42.4117300" lon="-2.5923630">
        <ele>587.0</ele>
        <time>2022-06-27T07:06:24Z</time>
      </trkpt>
      <trkpt lat="42.4116960" lon="-2.5923780">
        <ele>587.2</ele>
        <time>2022-06-27T07:06:25Z</time>
      </trkpt>
      <trkpt lat="42.4116610" lon="-2.5923950">
        <ele>587.2</ele>
        <time>2022-06-27T07:06:26Z</time>
      </trkpt>
      <trkpt lat="42.4116270" lon="-2.5924100">
        <ele>587.4</ele>
        <time>2022-06-27T07:06:27Z</time>
      </trkpt>
      <trkpt lat="42.4115940" lon="-2.5924250">
        <ele>587.4</ele>
        <time>2022-06-27T07:06:28Z</time>
      </trkpt>
      <trkpt lat="42.4115560" lon="-2.5924390">
        <ele>587.6</ele>
        <time>2022-06-27T07:06:29Z</time>
      </trkpt>
      <trkpt lat="42.4115180" lon="-2.5924560">
        <ele>587.8</ele>
        <time>2022-06-27T07:06:30Z</time>
      </trkpt>
      <trkpt lat="42.4114830" lon="-2.5924760">
        <ele>587.8</ele>
        <time>2022-06-27T07:06:31Z</time>
      </trkpt>
      <trkpt lat="42.4114460" lon="-2.5924990">
        <ele>588.2</ele>
        <time>2022-06-27T07:06:32Z</time>
      </trkpt>
      <trkpt lat="42.4114100" lon="-2.5925210">
        <ele>588.4</ele>
        <time>2022-06-27T07:06:33Z</time>
      </trkpt>
      <trkpt lat="42.4113760" lon="-2.5925420">
        <ele>588.8</ele>
        <time>2022-06-27T07:06:34Z</time>
      </trkpt>
      <trkpt lat="42.4113430" lon="-2.5925610">
        <ele>589.0</ele>
        <time>2022-06-27T07:06:35Z</time>
      </trkpt>
      <trkpt lat="42.4113090" lon="-2.5925810">
        <ele>589.2</ele>
        <time>2022-06-27T07:06:36Z</time>
      </trkpt>
      <trkpt lat="42.4112760" lon="-2.5925970">
        <ele>589.4</ele>
        <time>2022-06-27T07:06:37Z</time>
      </trkpt>
      <trkpt lat="42.4112420" lon="-2.5926150">
        <ele>589.6</ele>
        <time>2022-06-27T07:06:38Z</time>
      </trkpt>
      <trkpt lat="42.4112070" lon="-2.5926340">
        <ele>589.8</ele>
        <time>2022-06-27T07:06:39Z</time>
      </trkpt>
      <trkpt lat="42.4111730" lon="-2.5926550">
        <ele>589.8</ele>
        <time>2022-06-27T07:06:40Z</time>
      </trkpt>
      <trkpt lat="42.4111410" lon="-2.5926750">
        <ele>590.0</ele>
        <time>2022-06-27T07:06:41Z</time>
      </trkpt>
      <trkpt lat="42.4111080" lon="-2.5926990">
        <ele>590.0</ele>
        <time>2022-06-27T07:06:42Z</time>
      </trkpt>
      <trkpt lat="42.4110760" lon="-2.5927210">
        <ele>590.4</ele>
        <time>2022-06-27T07:06:43Z</time>
      </trkpt>
      <trkpt lat="42.4110420" lon="-2.5927440">
        <ele>590.8</ele>
        <time>2022-06-27T07:06:44Z</time>
      </trkpt>
      <trkpt lat="42.4110070" lon="-2.5927680">
        <ele>590.8</ele>
        <time>2022-06-27T07:06:45Z</time>
      </trkpt>
      <trkpt lat="42.4109720" lon="-2.5927920">
        <ele>591.2</ele>
        <time>2022-06-27T07:06:46Z</time>
      </trkpt>
      <trkpt lat="42.4109400" lon="-2.5928170">
        <ele>591.2</ele>
        <time>2022-06-27T07:06:47Z</time>
      </trkpt>
      <trkpt lat="42.4109060" lon="-2.5928420">
        <ele>591.4</ele>
        <time>2022-06-27T07:06:48Z</time>
      </trkpt>
      <trkpt lat="42.4108690" lon="-2.5928680">
        <ele>591.6</ele>
        <time>2022-06-27T07:06:49Z</time>
      </trkpt>
      <trkpt lat="42.4108320" lon="-2.5928930">
        <ele>591.8</ele>
        <time>2022-06-27T07:06:50Z</time>
      </trkpt>
      <trkpt lat="42.4107980" lon="-2.5929190">
        <ele>591.8</ele>
        <time>2022-06-27T07:06:51Z</time>
      </trkpt>
      <trkpt lat="42.4107670" lon="-2.5929400">
        <ele>592.0</ele>
        <time>2022-06-27T07:06:52Z</time>
      </trkpt>
      <trkpt lat="42.4107330" lon="-2.5929630">
        <ele>592.0</ele>
        <time>2022-06-27T07:06:53Z</time>
      </trkpt>
      <trkpt lat="42.4106950" lon="-2.5929900">
        <ele>592.0</ele>
        <time>2022-06-27T07:06:54Z</time>
      </trkpt>
      <trkpt lat="42.4106580" lon="-2.5930170">
        <ele>592.2</ele>
        <time>2022-06-27T07:06:55Z</time>
      </trkpt>
      <trkpt lat="42.4106240" lon="-2.5930410">
        <ele>592.2</ele>
        <time>2022-06-27T07:06:56Z</time>
      </trkpt>
      <trkpt lat="42.4105910" lon="-2.5930650">
        <ele>592.2</ele>
        <time>2022-06-27T07:06:57Z</time>
      </trkpt>
      <trkpt lat="42.4105570" lon="-2.5930890">
        <ele>592.2</ele>
        <time>2022-06-27T07:06:58Z</time>
      </trkpt>
      <trkpt lat="42.4105200" lon="-2.5931150">
        <ele>592.4</ele>
        <time>2022-06-27T07:06:59Z</time>
      </trkpt>
      <trkpt lat="42.4104820" lon="-2.5931400">
        <ele>592.6</ele>
        <time>2022-06-27T07:07:00Z</time>
      </trkpt>
      <trkpt lat="42.4104440" lon="-2.5931660">
        <ele>592.6</ele>
        <time>2022-06-27T07:07:01Z</time>
      </trkpt>
      <trkpt lat="42.4104070" lon="-2.5931870">
        <ele>592.6</ele>
        <time>2022-06-27T07:07:02Z</time>
      </trkpt>
      <trkpt lat="42.4103720" lon="-2.5932030">
        <ele>592.6</ele>
        <time>2022-06-27T07:07:03Z</time>
      </trkpt>
      <trkpt lat="42.4103390" lon="-2.5932200">
        <ele>593.0</ele>
        <time>2022-06-27T07:07:04Z</time>
      </trkpt>
      <trkpt lat="42.4103040" lon="-2.5932430">
        <ele>593.0</ele>
        <time>2022-06-27T07:07:05Z</time>
      </trkpt>
      <trkpt lat="42.4102680" lon="-2.5932600">
        <ele>593.2</ele>
        <time>2022-06-27T07:07:06Z</time>
      </trkpt>
      <trkpt lat="42.4102320" lon="-2.5932820">
        <ele>593.4</ele>
        <time>2022-06-27T07:07:07Z</time>
      </trkpt>
      <trkpt lat="42.4101960" lon="-2.5933030">
        <ele>593.4</ele>
        <time>2022-06-27T07:07:08Z</time>
      </trkpt>
      <trkpt lat="42.4101610" lon="-2.5933260">
        <ele>593.6</ele>
        <time>2022-06-27T07:07:09Z</time>
      </trkpt>
      <trkpt lat="42.4101250" lon="-2.5933460">
        <ele>593.6</ele>
        <time>2022-06-27T07:07:10Z</time>
      </trkpt>
      <trkpt lat="42.4100890" lon="-2.5933630">
        <ele>594.0</ele>
        <time>2022-06-27T07:07:11Z</time>
      </trkpt>
      <trkpt lat="42.4100530" lon="-2.5933850">
        <ele>594.0</ele>
        <time>2022-06-27T07:07:12Z</time>
      </trkpt>
      <trkpt lat="42.4100180" lon="-2.5934070">
        <ele>594.2</ele>
        <time>2022-06-27T07:07:13Z</time>
      </trkpt>
      <trkpt lat="42.4099880" lon="-2.5934240">
        <ele>594.2</ele>
        <time>2022-06-27T07:07:14Z</time>
      </trkpt>
      <trkpt lat="42.4099560" lon="-2.5934430">
        <ele>594.4</ele>
        <time>2022-06-27T07:07:15Z</time>
      </trkpt>
      <trkpt lat="42.4099130" lon="-2.5934740">
        <ele>594.6</ele>
        <time>2022-06-27T07:07:16Z</time>
      </trkpt>
      <trkpt lat="42.4098800" lon="-2.5934980">
        <ele>594.6</ele>
        <time>2022-06-27T07:07:17Z</time>
      </trkpt>
      <trkpt lat="42.4098450" lon="-2.5935210">
        <ele>594.8</ele>
        <time>2022-06-27T07:07:18Z</time>
      </trkpt>
      <trkpt lat="42.4098090" lon="-2.5935450">
        <ele>594.8</ele>
        <time>2022-06-27T07:07:19Z</time>
      </trkpt>
      <trkpt lat="42.4097730" lon="-2.5935690">
        <ele>594.8</ele>
        <time>2022-06-27T07:07:20Z</time>
      </trkpt>
      <trkpt lat="42.4097370" lon="-2.5935930">
        <ele>595.0</ele>
        <time>2022-06-27T07:07:21Z</time>
      </trkpt>
      <trkpt lat="42.4097000" lon="-2.5936160">
        <ele>595.0</ele>
        <time>2022-06-27T07:07:22Z</time>
      </trkpt>
      <trkpt lat="42.4096640" lon="-2.5936350">
        <ele>595.0</ele>
        <time>2022-06-27T07:07:23Z</time>
      </trkpt>
      <trkpt lat="42.4096330" lon="-2.5936510">
        <ele>595.0</ele>
        <time>2022-06-27T07:07:24Z</time>
      </trkpt>
      <trkpt lat="42.4096020" lon="-2.5936700">
        <ele>595.2</ele>
        <time>2022-06-27T07:07:25Z</time>
      </trkpt>
      <trkpt lat="42.4095710" lon="-2.5936920">
        <ele>595.2</ele>
        <time>2022-06-27T07:07:26Z</time>
      </trkpt>
      <trkpt lat="42.4095390" lon="-2.5937120">
        <ele>595.2</ele>
        <time>2022-06-27T07:07:27Z</time>
      </trkpt>
      <trkpt lat="42.4095080" lon="-2.5937320">
        <ele>595.4</ele>
        <time>2022-06-27T07:07:28Z</time>
      </trkpt>
      <trkpt lat="42.4094750" lon="-2.5937540">
        <ele>595.6</ele>
        <time>2022-06-27T07:07:29Z</time>
      </trkpt>
      <trkpt lat="42.4094400" lon="-2.5937790">
        <ele>595.8</ele>
        <time>2022-06-27T07:07:30Z</time>
      </trkpt>
      <trkpt lat="42.4094050" lon="-2.5938060">
        <ele>595.8</ele>
        <time>2022-06-27T07:07:31Z</time>
      </trkpt>
      <trkpt lat="42.4093680" lon="-2.5938290">
        <ele>596.0</ele>
        <time>2022-06-27T07:07:32Z</time>
      </trkpt>
      <trkpt lat="42.4093300" lon="-2.5938540">
        <ele>596.0</ele>
        <time>2022-06-27T07:07:33Z</time>
      </trkpt>
      <trkpt lat="42.4092930" lon="-2.5938770">
        <ele>596.2</ele>
        <time>2022-06-27T07:07:34Z</time>
      </trkpt>
      <trkpt lat="42.4092590" lon="-2.5938960">
        <ele>596.2</ele>
        <time>2022-06-27T07:07:35Z</time>
      </trkpt>
      <trkpt lat="42.4092230" lon="-2.5939140">
        <ele>596.4</ele>
        <time>2022-06-27T07:07:36Z</time>
      </trkpt>
      <trkpt lat="42.4091850" lon="-2.5939320">
        <ele>596.4</ele>
        <time>2022-06-27T07:07:37Z</time>
      </trkpt>
      <trkpt lat="42.4091460" lon="-2.5939510">
        <ele>596.6</ele>
        <time>2022-06-27T07:07:38Z</time>
      </trkpt>
      <trkpt lat="42.4091090" lon="-2.5939690">
        <ele>596.6</ele>
        <time>2022-06-27T07:07:39Z</time>
      </trkpt>
      <trkpt lat="42.4090730" lon="-2.5939870">
        <ele>596.8</ele>
        <time>2022-06-27T07:07:40Z</time>
      </trkpt>
      <trkpt lat="42.4090350" lon="-2.5940040">
        <ele>596.8</ele>
        <time>2022-06-27T07:07:41Z</time>
      </trkpt>
      <trkpt lat="42.4089970" lon="-2.5940200">
        <ele>597.0</ele>
        <time>2022-06-27T07:07:42Z</time>
      </trkpt>
      <trkpt lat="42.4089570" lon="-2.5940380">
        <ele>597.0</ele>
        <time>2022-06-27T07:07:43Z</time>
      </trkpt>
      <trkpt lat="42.4089170" lon="-2.5940480">
        <ele>597.0</ele>
        <time>2022-06-27T07:07:44Z</time>
      </trkpt>
      <trkpt lat="42.4088790" lon="-2.5940550">
        <ele>597.2</ele>
        <time>2022-06-27T07:07:45Z</time>
      </trkpt>
      <trkpt lat="42.4088430" lon="-2.5940640">
        <ele>597.4</ele>
        <time>2022-06-27T07:07:46Z</time>
      </trkpt>
      <trkpt lat="42.4088080" lon="-2.5940720">
        <ele>597.4</ele>
        <time>2022-06-27T07:07:47Z</time>
      </trkpt>
      <trkpt lat="42.4087700" lon="-2.5940790">
        <ele>597.4</ele>
        <time>2022-06-27T07:07:48Z</time>
      </trkpt>
      <trkpt lat="42.4087300" lon="-2.5940870">
        <ele>597.6</ele>
        <time>2022-06-27T07:07:49Z</time>
      </trkpt>
      <trkpt lat="42.4086890" lon="-2.5940970">
        <ele>597.6</ele>
        <time>2022-06-27T07:07:50Z</time>
      </trkpt>
      <trkpt lat="42.4086490" lon="-2.5941100">
        <ele>597.8</ele>
        <time>2022-06-27T07:07:51Z</time>
      </trkpt>
      <trkpt lat="42.4086080" lon="-2.5941200">
        <ele>597.8</ele>
        <time>2022-06-27T07:07:52Z</time>
      </trkpt>
      <trkpt lat="42.4085660" lon="-2.5941290">
        <ele>598.0</ele>
        <time>2022-06-27T07:07:53Z</time>
      </trkpt>
      <trkpt lat="42.4085230" lon="-2.5941430">
        <ele>598.0</ele>
        <time>2022-06-27T07:07:54Z</time>
      </trkpt>
      <trkpt lat="42.4084770" lon="-2.5941570">
        <ele>598.0</ele>
        <time>2022-06-27T07:07:55Z</time>
      </trkpt>
      <trkpt lat="42.4084340" lon="-2.5941690">
        <ele>598.0</ele>
        <time>2022-06-27T07:07:56Z</time>
      </trkpt>
      <trkpt lat="42.4083910" lon="-2.5941800">
        <ele>598.0</ele>
        <time>2022-06-27T07:07:57Z</time>
      </trkpt>
      <trkpt lat="42.4083470" lon="-2.5941940">
        <ele>598.0</ele>
        <time>2022-06-27T07:07:58Z</time>
      </trkpt>
      <trkpt lat="42.4083030" lon="-2.5942120">
        <ele>598.0</ele>
        <time>2022-06-27T07:07:59Z</time>
      </trkpt>
      <trkpt lat="42.4082580" lon="-2.5942320">
        <ele>598.0</ele>
        <time>2022-06-27T07:08:00Z</time>
      </trkpt>
      <trkpt lat="42.4082130" lon="-2.5942520">
        <ele>598.0</ele>
        <time>2022-06-27T07:08:01Z</time>
      </trkpt>
      <trkpt lat="42.4081670" lon="-2.5942730">
        <ele>598.2</ele>
        <time>2022-06-27T07:08:02Z</time>
      </trkpt>
      <trkpt lat="42.4081230" lon="-2.5942950">
        <ele>598.2</ele>
        <time>2022-06-27T07:08:03Z</time>
      </trkpt>
      <trkpt lat="42.4080800" lon="-2.5943160">
        <ele>598.2</ele>
        <time>2022-06-27T07:08:04Z</time>
      </trkpt>
      <trkpt lat="42.4080360" lon="-2.5943390">
        <ele>598.2</ele>
        <time>2022-06-27T07:08:05Z</time>
      </trkpt>
      <trkpt lat="42.4079940" lon="-2.5943620">
        <ele>598.2</ele>
        <time>2022-06-27T07:08:06Z</time>
      </trkpt>
      <trkpt lat="42.4079540" lon="-2.5943870">
        <ele>598.2</ele>
        <time>2022-06-27T07:08:07Z</time>
      </trkpt>
      <trkpt lat="42.4079130" lon="-2.5944150">
        <ele>598.2</ele>
        <time>2022-06-27T07:08:08Z</time>
      </trkpt>
      <trkpt lat="42.4078740" lon="-2.5944440">
        <ele>598.2</ele>
        <time>2022-06-27T07:08:09Z</time>
      </trkpt>
      <trkpt lat="42.4078390" lon="-2.5944750">
        <ele>598.4</ele>
        <time>2022-06-27T07:08:10Z</time>
      </trkpt>
      <trkpt lat="42.4078040" lon="-2.5945080">
        <ele>598.2</ele>
        <time>2022-06-27T07:08:11Z</time>
      </trkpt>
      <trkpt lat="42.4077680" lon="-2.5945390">
        <ele>598.4</ele>
        <time>2022-06-27T07:08:12Z</time>
      </trkpt>
      <trkpt lat="42.4077280" lon="-2.5945710">
        <ele>598.4</ele>
        <time>2022-06-27T07:08:13Z</time>
      </trkpt>
      <trkpt lat="42.4076900" lon="-2.5946040">
        <ele>598.4</ele>
        <time>2022-06-27T07:08:14Z</time>
      </trkpt>
      <trkpt lat="42.4076500" lon="-2.5946390">
        <ele>598.4</ele>
        <time>2022-06-27T07:08:15Z</time>
      </trkpt>
      <trkpt lat="42.4076100" lon="-2.5946770">
        <ele>598.6</ele>
        <time>2022-06-27T07:08:16Z</time>
      </trkpt>
      <trkpt lat="42.4075720" lon="-2.5947150">
        <ele>598.6</ele>
        <time>2022-06-27T07:08:17Z</time>
      </trkpt>
      <trkpt lat="42.4075330" lon="-2.5947510">
        <ele>598.8</ele>
        <time>2022-06-27T07:08:18Z</time>
      </trkpt>
      <trkpt lat="42.4074930" lon="-2.5947870">
        <ele>598.8</ele>
        <time>2022-06-27T07:08:19Z</time>
      </trkpt>
      <trkpt lat="42.4074540" lon="-2.5948230">
        <ele>598.8</ele>
        <time>2022-06-27T07:08:20Z</time>
      </trkpt>
      <trkpt lat="42.4074150" lon="-2.5948600">
        <ele>598.8</ele>
        <time>2022-06-27T07:08:21Z</time>
      </trkpt>
      <trkpt lat="42.4073780" lon="-2.5948940">
        <ele>599.0</ele>
        <time>2022-06-27T07:08:22Z</time>
      </trkpt>
      <trkpt lat="42.4073400" lon="-2.5949280">
        <ele>599.0</ele>
        <time>2022-06-27T07:08:23Z</time>
      </trkpt>
      <trkpt lat="42.4073010" lon="-2.5949640">
        <ele>599.0</ele>
        <time>2022-06-27T07:08:24Z</time>
      </trkpt>
      <trkpt lat="42.4072610" lon="-2.5950020">
        <ele>599.0</ele>
        <time>2022-06-27T07:08:25Z</time>
      </trkpt>
      <trkpt lat="42.4072200" lon="-2.5950380">
        <ele>599.0</ele>
        <time>2022-06-27T07:08:26Z</time>
      </trkpt>
      <trkpt lat="42.4071790" lon="-2.5950750">
        <ele>599.0</ele>
        <time>2022-06-27T07:08:27Z</time>
      </trkpt>
      <trkpt lat="42.4071400" lon="-2.5951110">
        <ele>599.0</ele>
        <time>2022-06-27T07:08:28Z</time>
      </trkpt>
      <trkpt lat="42.4071020" lon="-2.5951460">
        <ele>599.0</ele>
        <time>2022-06-27T07:08:29Z</time>
      </trkpt>
      <trkpt lat="42.4070640" lon="-2.5951800">
        <ele>599.0</ele>
        <time>2022-06-27T07:08:30Z</time>
      </trkpt>
      <trkpt lat="42.4070250" lon="-2.5952170">
        <ele>599.0</ele>
        <time>2022-06-27T07:08:31Z</time>
      </trkpt>
      <trkpt lat="42.4069840" lon="-2.5952520">
        <ele>599.0</ele>
        <time>2022-06-27T07:08:32Z</time>
      </trkpt>
      <trkpt lat="42.4069440" lon="-2.5952860">
        <ele>599.0</ele>
        <time>2022-06-27T07:08:33Z</time>
      </trkpt>
      <trkpt lat="42.4069040" lon="-2.5953220">
        <ele>599.0</ele>
        <time>2022-06-27T07:08:34Z</time>
      </trkpt>
      <trkpt lat="42.4068660" lon="-2.5953550">
        <ele>599.0</ele>
        <time>2022-06-27T07:08:35Z</time>
      </trkpt>
      <trkpt lat="42.4068300" lon="-2.5953900">
        <ele>599.2</ele>
        <time>2022-06-27T07:08:36Z</time>
      </trkpt>
      <trkpt lat="42.4067940" lon="-2.5954210">
        <ele>599.2</ele>
        <time>2022-06-27T07:08:37Z</time>
      </trkpt>
      <trkpt lat="42.4067550" lon="-2.5954550">
        <ele>599.2</ele>
        <time>2022-06-27T07:08:38Z</time>
      </trkpt>
      <trkpt lat="42.4067160" lon="-2.5954890">
        <ele>599.2</ele>
        <time>2022-06-27T07:08:39Z</time>
      </trkpt>
      <trkpt lat="42.4066760" lon="-2.5955210">
        <ele>599.2</ele>
        <time>2022-06-27T07:08:40Z</time>
      </trkpt>
      <trkpt lat="42.4066370" lon="-2.5955550">
        <ele>599.2</ele>
        <time>2022-06-27T07:08:41Z</time>
      </trkpt>
      <trkpt lat="42.4065990" lon="-2.5955900">
        <ele>599.2</ele>
        <time>2022-06-27T07:08:42Z</time>
      </trkpt>
      <trkpt lat="42.4065620" lon="-2.5956260">
        <ele>599.4</ele>
        <time>2022-06-27T07:08:43Z</time>
      </trkpt>
      <trkpt lat="42.4065230" lon="-2.5956630">
        <ele>599.4</ele>
        <time>2022-06-27T07:08:44Z</time>
      </trkpt>
      <trkpt lat="42.4064840" lon="-2.5957010">
        <ele>599.6</ele>
        <time>2022-06-27T07:08:45Z</time>
      </trkpt>
      <trkpt lat="42.4064480" lon="-2.5957400">
        <ele>599.8</ele>
        <time>2022-06-27T07:08:46Z</time>
      </trkpt>
      <trkpt lat="42.4064090" lon="-2.5957790">
        <ele>599.8</ele>
        <time>2022-06-27T07:08:47Z</time>
      </trkpt>
      <trkpt lat="42.4063730" lon="-2.5958180">
        <ele>599.8</ele>
        <time>2022-06-27T07:08:48Z</time>
      </trkpt>
      <trkpt lat="42.4063400" lon="-2.5958580">
        <ele>599.8</ele>
        <time>2022-06-27T07:08:49Z</time>
      </trkpt>
      <trkpt lat="42.4063060" lon="-2.5959030">
        <ele>599.8</ele>
        <time>2022-06-27T07:08:50Z</time>
      </trkpt>
      <trkpt lat="42.4062740" lon="-2.5959510">
        <ele>599.8</ele>
        <time>2022-06-27T07:08:51Z</time>
      </trkpt>
      <trkpt lat="42.4062460" lon="-2.5960040">
        <ele>599.8</ele>
        <time>2022-06-27T07:08:52Z</time>
      </trkpt>
      <trkpt lat="42.4062200" lon="-2.5960560">
        <ele>599.8</ele>
        <time>2022-06-27T07:08:53Z</time>
      </trkpt>
      <trkpt lat="42.4061970" lon="-2.5961100">
        <ele>599.8</ele>
        <time>2022-06-27T07:08:54Z</time>
      </trkpt>
      <trkpt lat="42.4061770" lon="-2.5961690">
        <ele>599.8</ele>
        <time>2022-06-27T07:08:55Z</time>
      </trkpt>
      <trkpt lat="42.4061590" lon="-2.5962250">
        <ele>599.8</ele>
        <time>2022-06-27T07:08:56Z</time>
      </trkpt>
      <trkpt lat="42.4061430" lon="-2.5962810">
        <ele>599.8</ele>
        <time>2022-06-27T07:08:57Z</time>
      </trkpt>
      <trkpt lat="42.4061300" lon="-2.5963370">
        <ele>599.8</ele>
        <time>2022-06-27T07:08:58Z</time>
      </trkpt>
      <trkpt lat="42.4061160" lon="-2.5963960">
        <ele>599.8</ele>
        <time>2022-06-27T07:08:59Z</time>
      </trkpt>
      <trkpt lat="42.4061050" lon="-2.5964570">
        <ele>599.8</ele>
        <time>2022-06-27T07:09:00Z</time>
      </trkpt>
      <trkpt lat="42.4060940" lon="-2.5965170">
        <ele>599.8</ele>
        <time>2022-06-27T07:09:01Z</time>
      </trkpt>
      <trkpt lat="42.4060840" lon="-2.5965770">
        <ele>599.8</ele>
        <time>2022-06-27T07:09:02Z</time>
      </trkpt>
      <trkpt lat="42.4060750" lon="-2.5966370">
        <ele>600.0</ele>
        <time>2022-06-27T07:09:03Z</time>
      </trkpt>
      <trkpt lat="42.4060670" lon="-2.5966950">
        <ele>600.0</ele>
        <time>2022-06-27T07:09:04Z</time>
      </trkpt>
      <trkpt lat="42.4060590" lon="-2.5967520">
        <ele>600.0</ele>
        <time>2022-06-27T07:09:05Z</time>
      </trkpt>
      <trkpt lat="42.4060520" lon="-2.5968080">
        <ele>600.0</ele>
        <time>2022-06-27T07:09:06Z</time>
      </trkpt>
      <trkpt lat="42.4060450" lon="-2.5968650">
        <ele>600.2</ele>
        <time>2022-06-27T07:09:07Z</time>
      </trkpt>
      <trkpt lat="42.4060390" lon="-2.5969200">
        <ele>600.2</ele>
        <time>2022-06-27T07:09:08Z</time>
      </trkpt>
      <trkpt lat="42.4060290" lon="-2.5969730">
        <ele>600.4</ele>
        <time>2022-06-27T07:09:09Z</time>
      </trkpt>
      <trkpt lat="42.4060170" lon="-2.5970220">
        <ele>600.4</ele>
        <time>2022-06-27T07:09:10Z</time>
      </trkpt>
      <trkpt lat="42.4060070" lon="-2.5970710">
        <ele>600.6</ele>
        <time>2022-06-27T07:09:11Z</time>
      </trkpt>
      <trkpt lat="42.4059990" lon="-2.5971180">
        <ele>600.6</ele>
        <time>2022-06-27T07:09:12Z</time>
      </trkpt>
      <trkpt lat="42.4059910" lon="-2.5971620">
        <ele>600.6</ele>
        <time>2022-06-27T07:09:13Z</time>
      </trkpt>
      <trkpt lat="42.4059820" lon="-2.5972100">
        <ele>600.8</ele>
        <time>2022-06-27T07:09:14Z</time>
      </trkpt>
      <trkpt lat="42.4059740" lon="-2.5972540">
        <ele>600.8</ele>
        <time>2022-06-27T07:09:15Z</time>
      </trkpt>
      <trkpt lat="42.4059680" lon="-2.5972980">
        <ele>601.0</ele>
        <time>2022-06-27T07:09:16Z</time>
      </trkpt>
      <trkpt lat="42.4059600" lon="-2.5973400">
        <ele>601.2</ele>
        <time>2022-06-27T07:09:17Z</time>
      </trkpt>
      <trkpt lat="42.4059500" lon="-2.5973800">
        <ele>601.4</ele>
        <time>2022-06-27T07:09:18Z</time>
      </trkpt>
      <trkpt lat="42.4059410" lon="-2.5974190">
        <ele>601.4</ele>
        <time>2022-06-27T07:09:19Z</time>
      </trkpt>
      <trkpt lat="42.4059330" lon="-2.5974560">
        <ele>601.6</ele>
        <time>2022-06-27T07:09:20Z</time>
      </trkpt>
      <trkpt lat="42.4059240" lon="-2.5974920">
        <ele>601.6</ele>
        <time>2022-06-27T07:09:21Z</time>
      </trkpt>
      <trkpt lat="42.4059140" lon="-2.5975270">
        <ele>601.8</ele>
        <time>2022-06-27T07:09:22Z</time>
      </trkpt>
      <trkpt lat="42.4059030" lon="-2.5975610">
        <ele>602.0</ele>
        <time>2022-06-27T07:09:23Z</time>
      </trkpt>
      <trkpt lat="42.4058910" lon="-2.5975940">
        <ele>602.2</ele>
        <time>2022-06-27T07:09:24Z</time>
      </trkpt>
      <trkpt lat="42.4058810" lon="-2.5976280">
        <ele>602.4</ele>
        <time>2022-06-27T07:09:25Z</time>
      </trkpt>
      <trkpt lat="42.4058710" lon="-2.5976630">
        <ele>602.4</ele>
        <time>2022-06-27T07:09:26Z</time>
      </trkpt>
      <trkpt lat="42.4058600" lon="-2.5976970">
        <ele>602.6</ele>
        <time>2022-06-27T07:09:27Z</time>
      </trkpt>
      <trkpt lat="42.4058490" lon="-2.5977310">
        <ele>602.8</ele>
        <time>2022-06-27T07:09:28Z</time>
      </trkpt>
      <trkpt lat="42.4058380" lon="-2.5977660">
        <ele>603.2</ele>
        <time>2022-06-27T07:09:29Z</time>
      </trkpt>
      <trkpt lat="42.4058260" lon="-2.5977990">
        <ele>603.2</ele>
        <time>2022-06-27T07:09:30Z</time>
      </trkpt>
      <trkpt lat="42.4058140" lon="-2.5978290">
        <ele>603.4</ele>
        <time>2022-06-27T07:09:31Z</time>
      </trkpt>
      <trkpt lat="42.4058030" lon="-2.5978580">
        <ele>603.6</ele>
        <time>2022-06-27T07:09:32Z</time>
      </trkpt>
      <trkpt lat="42.4057900" lon="-2.5978870">
        <ele>603.6</ele>
        <time>2022-06-27T07:09:33Z</time>
      </trkpt>
      <trkpt lat="42.4057780" lon="-2.5979170">
        <ele>604.0</ele>
        <time>2022-06-27T07:09:34Z</time>
      </trkpt>
      <trkpt lat="42.4057650" lon="-2.5979480">
        <ele>604.0</ele>
        <time>2022-06-27T07:09:35Z</time>
      </trkpt>
      <trkpt lat="42.4057510" lon="-2.5979760">
        <ele>604.2</ele>
        <time>2022-06-27T07:09:36Z</time>
      </trkpt>
      <trkpt lat="42.4057380" lon="-2.5980050">
        <ele>604.4</ele>
        <time>2022-06-27T07:09:37Z</time>
      </trkpt>
      <trkpt lat="42.4057250" lon="-2.5980340">
        <ele>604.4</ele>
        <time>2022-06-27T07:09:38Z</time>
      </trkpt>
      <trkpt lat="42.4057150" lon="-2.5980600">
        <ele>605.0</ele>
        <time>2022-06-27T07:09:39Z</time>
      </trkpt>
      <trkpt lat="42.4057000" lon="-2.5980910">
        <ele>605.0</ele>
        <time>2022-06-27T07:09:40Z</time>
      </trkpt>
      <trkpt lat="42.4056860" lon="-2.5981230">
        <ele>605.4</ele>
        <time>2022-06-27T07:09:41Z</time>
      </trkpt>
      <trkpt lat="42.4056740" lon="-2.5981540">
        <ele>605.6</ele>
        <time>2022-06-27T07:09:42Z</time>
      </trkpt>
      <trkpt lat="42.4056630" lon="-2.5981830">
        <ele>605.8</ele>
        <time>2022-06-27T07:09:43Z</time>
      </trkpt>
      <trkpt lat="42.4056540" lon="-2.5982160">
        <ele>606.0</ele>
        <time>2022-06-27T07:09:44Z</time>
      </trkpt>
      <trkpt lat="42.4056430" lon="-2.5982490">
        <ele>606.2</ele>
        <time>2022-06-27T07:09:45Z</time>
      </trkpt>
      <trkpt lat="42.4056300" lon="-2.5982770">
        <ele>606.4</ele>
        <time>2022-06-27T07:09:46Z</time>
      </trkpt>
      <trkpt lat="42.4056170" lon="-2.5983070">
        <ele>606.4</ele>
        <time>2022-06-27T07:09:47Z</time>
      </trkpt>
      <trkpt lat="42.4056050" lon="-2.5983390">
        <ele>606.8</ele>
        <time>2022-06-27T07:09:48Z</time>
      </trkpt>
      <trkpt lat="42.4055930" lon="-2.5983690">
        <ele>607.0</ele>
        <time>2022-06-27T07:09:49Z</time>
      </trkpt>
      <trkpt lat="42.4055810" lon="-2.5983990">
        <ele>607.4</ele>
        <time>2022-06-27T07:09:50Z</time>
      </trkpt>
      <trkpt lat="42.4055690" lon="-2.5984290">
        <ele>607.4</ele>
        <time>2022-06-27T07:09:51Z</time>
      </trkpt>
      <trkpt lat="42.4055560" lon="-2.5984590">
        <ele>607.8</ele>
        <time>2022-06-27T07:09:52Z</time>
      </trkpt>
      <trkpt lat="42.4055420" lon="-2.5984880">
        <ele>608.0</ele>
        <time>2022-06-27T07:09:53Z</time>
      </trkpt>
      <trkpt lat="42.4055290" lon="-2.5985140">
        <ele>608.0</ele>
        <time>2022-06-27T07:09:54Z</time>
      </trkpt>
      <trkpt lat="42.4055160" lon="-2.5985390">
        <ele>608.4</ele>
        <time>2022-06-27T07:09:55Z</time>
      </trkpt>
      <trkpt lat="42.4055040" lon="-2.5985650">
        <ele>608.6</ele>
        <time>2022-06-27T07:09:56Z</time>
      </trkpt>
      <trkpt lat="42.4054930" lon="-2.5985900">
        <ele>608.8</ele>
        <time>2022-06-27T07:09:57Z</time>
      </trkpt>
      <trkpt lat="42.4054790" lon="-2.5986150">
        <ele>609.0</ele>
        <time>2022-06-27T07:09:58Z</time>
      </trkpt>
      <trkpt lat="42.4054600" lon="-2.5986370">
        <ele>609.2</ele>
        <time>2022-06-27T07:09:59Z</time>
      </trkpt>
      <trkpt lat="42.4054390" lon="-2.5986570">
        <ele>609.4</ele>
        <time>2022-06-27T07:10:00Z</time>
      </trkpt>
      <trkpt lat="42.4054210" lon="-2.5986780">
        <ele>609.6</ele>
        <time>2022-06-27T07:10:01Z</time>
      </trkpt>
      <trkpt lat="42.4054020" lon="-2.5986990">
        <ele>609.8</ele>
        <time>2022-06-27T07:10:02Z</time>
      </trkpt>
      <trkpt lat="42.4053820" lon="-2.5987190">
        <ele>609.8</ele>
        <time>2022-06-27T07:10:03Z</time>
      </trkpt>
      <trkpt lat="42.4053620" lon="-2.5987370">
        <ele>610.2</ele>
        <time>2022-06-27T07:10:04Z</time>
      </trkpt>
      <trkpt lat="42.4053400" lon="-2.5987540">
        <ele>610.2</ele>
        <time>2022-06-27T07:10:05Z</time>
      </trkpt>
      <trkpt lat="42.4053190" lon="-2.5987710">
        <ele>610.4</ele>
        <time>2022-06-27T07:10:06Z</time>
      </trkpt>
      <trkpt lat="42.4052970" lon="-2.5987860">
        <ele>610.8</ele>
        <time>2022-06-27T07:10:07Z</time>
      </trkpt>
      <trkpt lat="42.4052750" lon="-2.5987990">
        <ele>610.8</ele>
        <time>2022-06-27T07:10:08Z</time>
      </trkpt>
      <trkpt lat="42.4052510" lon="-2.5988090">
        <ele>611.2</ele>
        <time>2022-06-27T07:10:09Z</time>
      </trkpt>
      <trkpt lat="42.4052260" lon="-2.5988180">
        <ele>611.4</ele>
        <time>2022-06-27T07:10:10Z</time>
      </trkpt>
      <trkpt lat="42.4052010" lon="-2.5988270">
        <ele>611.6</ele>
        <time>2022-06-27T07:10:11Z</time>
      </trkpt>
      <trkpt lat="42.4051790" lon="-2.5988370">
        <ele>611.8</ele>
        <time>2022-06-27T07:10:12Z</time>
      </trkpt>
      <trkpt lat="42.4051570" lon="-2.5988490">
        <ele>612.0</ele>
        <time>2022-06-27T07:10:13Z</time>
      </trkpt>
      <trkpt lat="42.4051350" lon="-2.5988610">
        <ele>612.2</ele>
        <time>2022-06-27T07:10:14Z</time>
      </trkpt>
      <trkpt lat="42.4051140" lon="-2.5988730">
        <ele>612.2</ele>
        <time>2022-06-27T07:10:15Z</time>
      </trkpt>
      <trkpt lat="42.4050910" lon="-2.5988840">
        <ele>612.4</ele>
        <time>2022-06-27T07:10:16Z</time>
      </trkpt>
      <trkpt lat="42.4050690" lon="-2.5988930">
        <ele>612.6</ele>
        <time>2022-06-27T07:10:17Z</time>
      </trkpt>
      <trkpt lat="42.4050460" lon="-2.5989040">
        <ele>612.8</ele>
        <time>2022-06-27T07:10:18Z</time>
      </trkpt>
      <trkpt lat="42.4050240" lon="-2.5989150">
        <ele>612.8</ele>
        <time>2022-06-27T07:10:19Z</time>
      </trkpt>
      <trkpt lat="42.4050030" lon="-2.5989240">
        <ele>613.2</ele>
        <time>2022-06-27T07:10:20Z</time>
      </trkpt>
      <trkpt lat="42.4049800" lon="-2.5989300">
        <ele>613.2</ele>
        <time>2022-06-27T07:10:21Z</time>
      </trkpt>
      <trkpt lat="42.4049570" lon="-2.5989370">
        <ele>613.6</ele>
        <time>2022-06-27T07:10:22Z</time>
      </trkpt>
      <trkpt lat="42.4049350" lon="-2.5989480">
        <ele>613.8</ele>
        <time>2022-06-27T07:10:23Z</time>
      </trkpt>
      <trkpt lat="42.4049130" lon="-2.5989590">
        <ele>614.0</ele>
        <time>2022-06-27T07:10:24Z</time>
      </trkpt>
      <trkpt lat="42.4048920" lon="-2.5989690">
        <ele>614.4</ele>
        <time>2022-06-27T07:10:25Z</time>
      </trkpt>
      <trkpt lat="42.4048710" lon="-2.5989760">
        <ele>614.4</ele>
        <time>2022-06-27T07:10:26Z</time>
      </trkpt>
      <trkpt lat="42.4048500" lon="-2.5989840">
        <ele>614.6</ele>
        <time>2022-06-27T07:10:27Z</time>
      </trkpt>
      <trkpt lat="42.4048290" lon="-2.5989920">
        <ele>614.8</ele>
        <time>2022-06-27T07:10:28Z</time>
      </trkpt>
      <trkpt lat="42.4048080" lon="-2.5989980">
        <ele>615.0</ele>
        <time>2022-06-27T07:10:29Z</time>
      </trkpt>
      <trkpt lat="42.4047880" lon="-2.5990050">
        <ele>615.4</ele>
        <time>2022-06-27T07:10:30Z</time>
      </trkpt>
      <trkpt lat="42.4047670" lon="-2.5990150">
        <ele>615.4</ele>
        <time>2022-06-27T07:10:31Z</time>
      </trkpt>
      <trkpt lat="42.4047450" lon="-2.5990220">
        <ele>615.6</ele>
        <time>2022-06-27T07:10:32Z</time>
      </trkpt>
      <trkpt lat="42.4047220" lon="-2.5990300">
        <ele>615.8</ele>
        <time>2022-06-27T07:10:33Z</time>
      </trkpt>
      <trkpt lat="42.4047010" lon="-2.5990440">
        <ele>616.0</ele>
        <time>2022-06-27T07:10:34Z</time>
      </trkpt>
      <trkpt lat="42.4046780" lon="-2.5990560">
        <ele>616.2</ele>
        <time>2022-06-27T07:10:35Z</time>
      </trkpt>
      <trkpt lat="42.4046550" lon="-2.5990670">
        <ele>616.6</ele>
        <time>2022-06-27T07:10:36Z</time>
      </trkpt>
      <trkpt lat="42.4046320" lon="-2.5990760">
        <ele>617.0</ele>
        <time>2022-06-27T07:10:37Z</time>
      </trkpt>
      <trkpt lat="42.4046090" lon="-2.5990830">
        <ele>617.2</ele>
        <time>2022-06-27T07:10:38Z</time>
      </trkpt>
      <trkpt lat="42.4045870" lon="-2.5990880">
        <ele>617.4</ele>
        <time>2022-06-27T07:10:39Z</time>
      </trkpt>
      <trkpt lat="42.4045640" lon="-2.5990950">
        <ele>617.4</ele>
        <time>2022-06-27T07:10:40Z</time>
      </trkpt>
      <trkpt lat="42.4045430" lon="-2.5991050">
        <ele>617.8</ele>
        <time>2022-06-27T07:10:41Z</time>
      </trkpt>
      <trkpt lat="42.4045210" lon="-2.5991150">
        <ele>618.0</ele>
        <time>2022-06-27T07:10:42Z</time>
      </trkpt>
      <trkpt lat="42.4045000" lon="-2.5991240">
        <ele>618.4</ele>
        <time>2022-06-27T07:10:43Z</time>
      </trkpt>
      <trkpt lat="42.4044780" lon="-2.5991340">
        <ele>618.6</ele>
        <time>2022-06-27T07:10:44Z</time>
      </trkpt>
      <trkpt lat="42.4044570" lon="-2.5991450">
        <ele>618.8</ele>
        <time>2022-06-27T07:10:45Z</time>
      </trkpt>
      <trkpt lat="42.4044350" lon="-2.5991560">
        <ele>619.0</ele>
        <time>2022-06-27T07:10:46Z</time>
      </trkpt>
      <trkpt lat="42.4044130" lon="-2.5991610">
        <ele>619.2</ele>
        <time>2022-06-27T07:10:47Z</time>
      </trkpt>
      <trkpt lat="42.4043890" lon="-2.5991640">
        <ele>619.6</ele>
        <time>2022-06-27T07:10:48Z</time>
      </trkpt>
      <trkpt lat="42.4043650" lon="-2.5991720">
        <ele>619.8</ele>
        <time>2022-06-27T07:10:49Z</time>
      </trkpt>
      <trkpt lat="42.4043430" lon="-2.5991800">
        <ele>620.0</ele>
        <time>2022-06-27T07:10:50Z</time>
      </trkpt>
      <trkpt lat="42.4043220" lon="-2.5991910">
        <ele>620.2</ele>
        <time>2022-06-27T07:10:51Z</time>
      </trkpt>
      <trkpt lat="42.4043040" lon="-2.5992050">
        <ele>620.6</ele>
        <time>2022-06-27T07:10:52Z</time>
      </trkpt>
      <trkpt lat="42.4042850" lon="-2.5992170">
        <ele>621.0</ele>
        <time>2022-06-27T07:10:53Z</time>
      </trkpt>
      <trkpt lat="42.4042630" lon="-2.5992260">
        <ele>621.2</ele>
        <time>2022-06-27T07:10:54Z</time>
      </trkpt>
      <trkpt lat="42.4042410" lon="-2.5992320">
        <ele>621.4</ele>
        <time>2022-06-27T07:10:55Z</time>
      </trkpt>
      <trkpt lat="42.4042200" lon="-2.5992400">
        <ele>621.6</ele>
        <time>2022-06-27T07:10:56Z</time>
      </trkpt>
      <trkpt lat="42.4041970" lon="-2.5992490">
        <ele>621.8</ele>
        <time>2022-06-27T07:10:57Z</time>
      </trkpt>
      <trkpt lat="42.4041740" lon="-2.5992570">
        <ele>622.0</ele>
        <time>2022-06-27T07:10:58Z</time>
      </trkpt>
      <trkpt lat="42.4041520" lon="-2.5992660">
        <ele>622.2</ele>
        <time>2022-06-27T07:10:59Z</time>
      </trkpt>
      <trkpt lat="42.4041330" lon="-2.5992740">
        <ele>622.6</ele>
        <time>2022-06-27T07:11:00Z</time>
      </trkpt>
      <trkpt lat="42.4041150" lon="-2.5992850">
        <ele>622.6</ele>
        <time>2022-06-27T07:11:01Z</time>
      </trkpt>
      <trkpt lat="42.4040950" lon="-2.5992980">
        <ele>623.0</ele>
        <time>2022-06-27T07:11:02Z</time>
      </trkpt>
      <trkpt lat="42.4040760" lon="-2.5993040">
        <ele>623.2</ele>
        <time>2022-06-27T07:11:03Z</time>
      </trkpt>
      <trkpt lat="42.4040570" lon="-2.5993080">
        <ele>623.4</ele>
        <time>2022-06-27T07:11:04Z</time>
      </trkpt>
      <trkpt lat="42.4040380" lon="-2.5993150">
        <ele>623.6</ele>
        <time>2022-06-27T07:11:05Z</time>
      </trkpt>
      <trkpt lat="42.4040200" lon="-2.5993230">
        <ele>624.0</ele>
        <time>2022-06-27T07:11:06Z</time>
      </trkpt>
      <trkpt lat="42.4040030" lon="-2.5993330">
        <ele>624.2</ele>
        <time>2022-06-27T07:11:07Z</time>
      </trkpt>
      <trkpt lat="42.4039870" lon="-2.5993450">
        <ele>624.4</ele>
        <time>2022-06-27T07:11:08Z</time>
      </trkpt>
      <trkpt lat="42.4039680" lon="-2.5993540">
        <ele>624.6</ele>
        <time>2022-06-27T07:11:09Z</time>
      </trkpt>
      <trkpt lat="42.4039510" lon="-2.5993660">
        <ele>624.8</ele>
        <time>2022-06-27T07:11:10Z</time>
      </trkpt>
      <trkpt lat="42.4039320" lon="-2.5993770">
        <ele>625.0</ele>
        <time>2022-06-27T07:11:11Z</time>
      </trkpt>
      <trkpt lat="42.4039150" lon="-2.5993900">
        <ele>625.2</ele>
        <time>2022-06-27T07:11:12Z</time>
      </trkpt>
      <trkpt lat="42.4038990" lon="-2.5994020">
        <ele>625.6</ele>
        <time>2022-06-27T07:11:13Z</time>
      </trkpt>
      <trkpt lat="42.4038840" lon="-2.5994160">
        <ele>625.6</ele>
        <time>2022-06-27T07:11:14Z</time>
      </trkpt>
      <trkpt lat="42.4038650" lon="-2.5994290">
        <ele>625.8</ele>
        <time>2022-06-27T07:11:15Z</time>
      </trkpt>
      <trkpt lat="42.4038490" lon="-2.5994460">
        <ele>626.0</ele>
        <time>2022-06-27T07:11:16Z</time>
      </trkpt>
      <trkpt lat="42.4038330" lon="-2.5994600">
        <ele>626.0</ele>
        <time>2022-06-27T07:11:17Z</time>
      </trkpt>
      <trkpt lat="42.4038150" lon="-2.5994700">
        <ele>626.4</ele>
        <time>2022-06-27T07:11:18Z</time>
      </trkpt>
      <trkpt lat="42.4037950" lon="-2.5994810">
        <ele>626.4</ele>
        <time>2022-06-27T07:11:19Z</time>
      </trkpt>
      <trkpt lat="42.4037760" lon="-2.5994930">
        <ele>626.8</ele>
        <time>2022-06-27T07:11:20Z</time>
      </trkpt>
      <trkpt lat="42.4037570" lon="-2.5995060">
        <ele>627.0</ele>
        <time>2022-06-27T07:11:21Z</time>
      </trkpt>
      <trkpt lat="42.4037390" lon="-2.5995180">
        <ele>627.0</ele>
        <time>2022-06-27T07:11:22Z</time>
      </trkpt>
      <trkpt lat="42.4037210" lon="-2.5995330">
        <ele>627.4</ele>
        <time>2022-06-27T07:11:23Z</time>
      </trkpt>
      <trkpt lat="42.4037010" lon="-2.5995450">
        <ele>627.6</ele>
        <time>2022-06-27T07:11:24Z</time>
      </trkpt>
      <trkpt lat="42.4036820" lon="-2.5995550">
        <ele>627.8</ele>
        <time>2022-06-27T07:11:25Z</time>
      </trkpt>
      <trkpt lat="42.4036630" lon="-2.5995580">
        <ele>628.0</ele>
        <time>2022-06-27T07:11:26Z</time>
      </trkpt>
      <trkpt lat="42.4036470" lon="-2.5995610">
        <ele>628.0</ele>
        <time>2022-06-27T07:11:27Z</time>
      </trkpt>
      <trkpt lat="42.4036220" lon="-2.5995730">
        <ele>628.0</ele>
        <time>2022-06-27T07:11:28Z</time>
      </trkpt>
      <trkpt lat="42.4036060" lon="-2.5995920">
        <ele>628.2</ele>
        <time>2022-06-27T07:11:29Z</time>
      </trkpt>
      <trkpt lat="42.4035890" lon="-2.5996080">
        <ele>628.6</ele>
        <time>2022-06-27T07:11:30Z</time>
      </trkpt>
      <trkpt lat="42.4035720" lon="-2.5996230">
        <ele>628.6</ele>
        <time>2022-06-27T07:11:31Z</time>
      </trkpt>
      <trkpt lat="42.4035560" lon="-2.5996390">
        <ele>628.8</ele>
        <time>2022-06-27T07:11:32Z</time>
      </trkpt>
      <trkpt lat="42.4035360" lon="-2.5996530">
        <ele>629.0</ele>
        <time>2022-06-27T07:11:33Z</time>
      </trkpt>
      <trkpt lat="42.4035180" lon="-2.5996620">
        <ele>629.4</ele>
        <time>2022-06-27T07:11:34Z</time>
      </trkpt>
      <trkpt lat="42.4035020" lon="-2.5996720">
        <ele>629.6</ele>
        <time>2022-06-27T07:11:35Z</time>
      </trkpt>
      <trkpt lat="42.4034850" lon="-2.5996840">
        <ele>630.0</ele>
        <time>2022-06-27T07:11:36Z</time>
      </trkpt>
      <trkpt lat="42.4034670" lon="-2.5996970">
        <ele>630.2</ele>
        <time>2022-06-27T07:11:37Z</time>
      </trkpt>
      <trkpt lat="42.4034480" lon="-2.5997130">
        <ele>630.0</ele>
        <time>2022-06-27T07:11:38Z</time>
      </trkpt>
      <trkpt lat="42.4034290" lon="-2.5997300">
        <ele>630.2</ele>
        <time>2022-06-27T07:11:39Z</time>
      </trkpt>
      <trkpt lat="42.4034100" lon="-2.5997450">
        <ele>630.2</ele>
        <time>2022-06-27T07:11:40Z</time>
      </trkpt>
      <trkpt lat="42.4033940" lon="-2.5997610">
        <ele>630.4</ele>
        <time>2022-06-27T07:11:41Z</time>
      </trkpt>
      <trkpt lat="42.4033770" lon="-2.5997790">
        <ele>630.6</ele>
        <time>2022-06-27T07:11:42Z</time>
      </trkpt>
      <trkpt lat="42.4033610" lon="-2.5997940">
        <ele>630.8</ele>
        <time>2022-06-27T07:11:43Z</time>
      </trkpt>
      <trkpt lat="42.4033410" lon="-2.5998060">
        <ele>630.8</ele>
        <time>2022-06-27T07:11:44Z</time>
      </trkpt>
      <trkpt lat="42.4033220" lon="-2.5998200">
        <ele>631.0</ele>
        <time>2022-06-27T07:11:45Z</time>
      </trkpt>
      <trkpt lat="42.4033020" lon="-2.5998350">
        <ele>631.0</ele>
        <time>2022-06-27T07:11:46Z</time>
      </trkpt>
      <trkpt lat="42.4032820" lon="-2.5998500">
        <ele>631.2</ele>
        <time>2022-06-27T07:11:47Z</time>
      </trkpt>
      <trkpt lat="42.4032640" lon="-2.5998620">
        <ele>631.4</ele>
        <time>2022-06-27T07:11:48Z</time>
      </trkpt>
      <trkpt lat="42.4032450" lon="-2.5998750">
        <ele>631.6</ele>
        <time>2022-06-27T07:11:49Z</time>
      </trkpt>
      <trkpt lat="42.4032240" lon="-2.5998870">
        <ele>631.6</ele>
        <time>2022-06-27T07:11:50Z</time>
      </trkpt>
      <trkpt lat="42.4032050" lon="-2.5998980">
        <ele>631.8</ele>
        <time>2022-06-27T07:11:51Z</time>
      </trkpt>
      <trkpt lat="42.4031850" lon="-2.5999120">
        <ele>632.2</ele>
        <time>2022-06-27T07:11:52Z</time>
      </trkpt>
      <trkpt lat="42.4031680" lon="-2.5999260">
        <ele>632.4</ele>
        <time>2022-06-27T07:11:53Z</time>
      </trkpt>
      <trkpt lat="42.4031510" lon="-2.5999390">
        <ele>632.6</ele>
        <time>2022-06-27T07:11:54Z</time>
      </trkpt>
      <trkpt lat="42.4031320" lon="-2.5999490">
        <ele>632.8</ele>
        <time>2022-06-27T07:11:55Z</time>
      </trkpt>
      <trkpt lat="42.4031130" lon="-2.5999610">
        <ele>632.8</ele>
        <time>2022-06-27T07:11:56Z</time>
      </trkpt>
      <trkpt lat="42.4030950" lon="-2.5999740">
        <ele>633.0</ele>
        <time>2022-06-27T07:11:57Z</time>
      </trkpt>
      <trkpt lat="42.4030750" lon="-2.5999860">
        <ele>633.2</ele>
        <time>2022-06-27T07:11:58Z</time>
      </trkpt>
      <trkpt lat="42.4030560" lon="-2.6000000">
        <ele>633.4</ele>
        <time>2022-06-27T07:11:59Z</time>
      </trkpt>
      <trkpt lat="42.4030380" lon="-2.6000150">
        <ele>633.6</ele>
        <time>2022-06-27T07:12:00Z</time>
      </trkpt>
      <trkpt lat="42.4030180" lon="-2.6000300">
        <ele>633.8</ele>
        <time>2022-06-27T07:12:01Z</time>
      </trkpt>
      <trkpt lat="42.4029970" lon="-2.6000470">
        <ele>634.0</ele>
        <time>2022-06-27T07:12:02Z</time>
      </trkpt>
      <trkpt lat="42.4029770" lon="-2.6000630">
        <ele>634.0</ele>
        <time>2022-06-27T07:12:03Z</time>
      </trkpt>
      <trkpt lat="42.4029510" lon="-2.6000770">
        <ele>634.2</ele>
        <time>2022-06-27T07:12:04Z</time>
      </trkpt>
      <trkpt lat="42.4029340" lon="-2.6000850">
        <ele>634.4</ele>
        <time>2022-06-27T07:12:05Z</time>
      </trkpt>
      <trkpt lat="42.4029140" lon="-2.6000960">
        <ele>634.6</ele>
        <time>2022-06-27T07:12:06Z</time>
      </trkpt>
      <trkpt lat="42.4028940" lon="-2.6001090">
        <ele>635.0</ele>
        <time>2022-06-27T07:12:07Z</time>
      </trkpt>
      <trkpt lat="42.4028760" lon="-2.6001250">
        <ele>635.0</ele>
        <time>2022-06-27T07:12:08Z</time>
      </trkpt>
      <trkpt lat="42.4028600" lon="-2.6001440">
        <ele>635.2</ele>
        <time>2022-06-27T07:12:09Z</time>
      </trkpt>
      <trkpt lat="42.4028430" lon="-2.6001620">
        <ele>635.4</ele>
        <time>2022-06-27T07:12:10Z</time>
      </trkpt>
      <trkpt lat="42.4028240" lon="-2.6001770">
        <ele>635.4</ele>
        <time>2022-06-27T07:12:11Z</time>
      </trkpt>
      <trkpt lat="42.4028060" lon="-2.6001890">
        <ele>635.6</ele>
        <time>2022-06-27T07:12:12Z</time>
      </trkpt>
      <trkpt lat="42.4027870" lon="-2.6002000">
        <ele>635.8</ele>
        <time>2022-06-27T07:12:13Z</time>
      </trkpt>
      <trkpt lat="42.4027680" lon="-2.6002130">
        <ele>636.0</ele>
        <time>2022-06-27T07:12:14Z</time>
      </trkpt>
      <trkpt lat="42.4027490" lon="-2.6002260">
        <ele>636.2</ele>
        <time>2022-06-27T07:12:15Z</time>
      </trkpt>
      <trkpt lat="42.4027310" lon="-2.6002420">
        <ele>636.6</ele>
        <time>2022-06-27T07:12:16Z</time>
      </trkpt>
      <trkpt lat="42.4027130" lon="-2.6002560">
        <ele>636.6</ele>
        <time>2022-06-27T07:12:17Z</time>
      </trkpt>
      <trkpt lat="42.4026950" lon="-2.6002720">
        <ele>636.8</ele>
        <time>2022-06-27T07:12:18Z</time>
      </trkpt>
      <trkpt lat="42.4026750" lon="-2.6002870">
        <ele>636.8</ele>
        <time>2022-06-27T07:12:19Z</time>
      </trkpt>
      <trkpt lat="42.4026540" lon="-2.6002990">
        <ele>637.0</ele>
        <time>2022-06-27T07:12:20Z</time>
      </trkpt>
      <trkpt lat="42.4026320" lon="-2.6003060">
        <ele>637.0</ele>
        <time>2022-06-27T07:12:21Z</time>
      </trkpt>
      <trkpt lat="42.4026090" lon="-2.6003150">
        <ele>637.2</ele>
        <time>2022-06-27T07:12:22Z</time>
      </trkpt>
      <trkpt lat="42.4025860" lon="-2.6003240">
        <ele>637.6</ele>
        <time>2022-06-27T07:12:23Z</time>
      </trkpt>
      <trkpt lat="42.4025650" lon="-2.6003360">
        <ele>637.6</ele>
        <time>2022-06-27T07:12:24Z</time>
      </trkpt>
      <trkpt lat="42.4025440" lon="-2.6003470">
        <ele>638.0</ele>
        <time>2022-06-27T07:12:25Z</time>
      </trkpt>
      <trkpt lat="42.4025240" lon="-2.6003550">
        <ele>638.0</ele>
        <time>2022-06-27T07:12:26Z</time>
      </trkpt>
      <trkpt lat="42.4025040" lon="-2.6003630">
        <ele>638.2</ele>
        <time>2022-06-27T07:12:27Z</time>
      </trkpt>
      <trkpt lat="42.4024830" lon="-2.6003710">
        <ele>638.4</ele>
        <time>2022-06-27T07:12:28Z</time>
      </trkpt>
      <trkpt lat="42.4024620" lon="-2.6003750">
        <ele>638.6</ele>
        <time>2022-06-27T07:12:29Z</time>
      </trkpt>
      <trkpt lat="42.4024420" lon="-2.6003800">
        <ele>638.8</ele>
        <time>2022-06-27T07:12:30Z</time>
      </trkpt>
      <trkpt lat="42.4024220" lon="-2.6003850">
        <ele>638.8</ele>
        <time>2022-06-27T07:12:31Z</time>
      </trkpt>
      <trkpt lat="42.4024010" lon="-2.6003890">
        <ele>639.0</ele>
        <time>2022-06-27T07:12:32Z</time>
      </trkpt>
      <trkpt lat="42.4023790" lon="-2.6003920">
        <ele>639.0</ele>
        <time>2022-06-27T07:12:33Z</time>
      </trkpt>
      <trkpt lat="42.4023580" lon="-2.6003910">
        <ele>639.2</ele>
        <time>2022-06-27T07:12:34Z</time>
      </trkpt>
      <trkpt lat="42.4023350" lon="-2.6003920">
        <ele>639.2</ele>
        <time>2022-06-27T07:12:35Z</time>
      </trkpt>
      <trkpt lat="42.4023120" lon="-2.6003940">
        <ele>639.6</ele>
        <time>2022-06-27T07:12:36Z</time>
      </trkpt>
      <trkpt lat="42.4022890" lon="-2.6003990">
        <ele>639.8</ele>
        <time>2022-06-27T07:12:37Z</time>
      </trkpt>
      <trkpt lat="42.4022680" lon="-2.6004090">
        <ele>640.0</ele>
        <time>2022-06-27T07:12:38Z</time>
      </trkpt>
      <trkpt lat="42.4022450" lon="-2.6004190">
        <ele>640.2</ele>
        <time>2022-06-27T07:12:39Z</time>
      </trkpt>
      <trkpt lat="42.4022220" lon="-2.6004290">
        <ele>640.2</ele>
        <time>2022-06-27T07:12:40Z</time>
      </trkpt>
      <trkpt lat="42.4022000" lon="-2.6004350">
        <ele>640.4</ele>
        <time>2022-06-27T07:12:41Z</time>
      </trkpt>
      <trkpt lat="42.4021790" lon="-2.6004400">
        <ele>640.4</ele>
        <time>2022-06-27T07:12:42Z</time>
      </trkpt>
      <trkpt lat="42.4021570" lon="-2.6004490">
        <ele>640.6</ele>
        <time>2022-06-27T07:12:43Z</time>
      </trkpt>
      <trkpt lat="42.4021330" lon="-2.6004580">
        <ele>640.8</ele>
        <time>2022-06-27T07:12:44Z</time>
      </trkpt>
      <trkpt lat="42.4021070" lon="-2.6004650">
        <ele>641.0</ele>
        <time>2022-06-27T07:12:45Z</time>
      </trkpt>
      <trkpt lat="42.4020820" lon="-2.6004700">
        <ele>641.2</ele>
        <time>2022-06-27T07:12:46Z</time>
      </trkpt>
      <trkpt lat="42.4020600" lon="-2.6004710">
        <ele>641.4</ele>
        <time>2022-06-27T07:12:47Z</time>
      </trkpt>
      <trkpt lat="42.4020380" lon="-2.6004720">
        <ele>641.8</ele>
        <time>2022-06-27T07:12:48Z</time>
      </trkpt>
      <trkpt lat="42.4020170" lon="-2.6004680">
        <ele>641.8</ele>
        <time>2022-06-27T07:12:49Z</time>
      </trkpt>
      <trkpt lat="42.4019960" lon="-2.6004700">
        <ele>642.0</ele>
        <time>2022-06-27T07:12:50Z</time>
      </trkpt>
      <trkpt lat="42.4019750" lon="-2.6004740">
        <ele>642.2</ele>
        <time>2022-06-27T07:12:51Z</time>
      </trkpt>
      <trkpt lat="42.4019550" lon="-2.6004740">
        <ele>642.6</ele>
        <time>2022-06-27T07:12:52Z</time>
      </trkpt>
      <trkpt lat="42.4019360" lon="-2.6004740">
        <ele>642.8</ele>
        <time>2022-06-27T07:12:53Z</time>
      </trkpt>
      <trkpt lat="42.4019160" lon="-2.6004770">
        <ele>643.0</ele>
        <time>2022-06-27T07:12:54Z</time>
      </trkpt>
      <trkpt lat="42.4018980" lon="-2.6004820">
        <ele>643.4</ele>
        <time>2022-06-27T07:12:55Z</time>
      </trkpt>
      <trkpt lat="42.4018800" lon="-2.6004840">
        <ele>643.4</ele>
        <time>2022-06-27T07:12:56Z</time>
      </trkpt>
      <trkpt lat="42.4018610" lon="-2.6004870">
        <ele>643.6</ele>
        <time>2022-06-27T07:12:57Z</time>
      </trkpt>
      <trkpt lat="42.4018440" lon="-2.6004940">
        <ele>643.8</ele>
        <time>2022-06-27T07:12:58Z</time>
      </trkpt>
      <trkpt lat="42.4018260" lon="-2.6005000">
        <ele>644.0</ele>
        <time>2022-06-27T07:12:59Z</time>
      </trkpt>
      <trkpt lat="42.4018070" lon="-2.6005050">
        <ele>644.4</ele>
        <time>2022-06-27T07:13:00Z</time>
      </trkpt>
      <trkpt lat="42.4017890" lon="-2.6005120">
        <ele>644.4</ele>
        <time>2022-06-27T07:13:01Z</time>
      </trkpt>
      <trkpt lat="42.4017720" lon="-2.6005200">
        <ele>644.6</ele>
        <time>2022-06-27T07:13:02Z</time>
      </trkpt>
      <trkpt lat="42.4017530" lon="-2.6005230">
        <ele>644.8</ele>
        <time>2022-06-27T07:13:03Z</time>
      </trkpt>
      <trkpt lat="42.4017340" lon="-2.6005240">
        <ele>645.0</ele>
        <time>2022-06-27T07:13:04Z</time>
      </trkpt>
      <trkpt lat="42.4017160" lon="-2.6005290">
        <ele>645.2</ele>
        <time>2022-06-27T07:13:05Z</time>
      </trkpt>
      <trkpt lat="42.4016970" lon="-2.6005330">
        <ele>645.4</ele>
        <time>2022-06-27T07:13:06Z</time>
      </trkpt>
      <trkpt lat="42.4016790" lon="-2.6005350">
        <ele>645.6</ele>
        <time>2022-06-27T07:13:07Z</time>
      </trkpt>
      <trkpt lat="42.4016620" lon="-2.6005390">
        <ele>645.8</ele>
        <time>2022-06-27T07:13:08Z</time>
      </trkpt>
      <trkpt lat="42.4016420" lon="-2.6005410">
        <ele>646.2</ele>
        <time>2022-06-27T07:13:09Z</time>
      </trkpt>
      <trkpt lat="42.4016230" lon="-2.6005450">
        <ele>646.4</ele>
        <time>2022-06-27T07:13:10Z</time>
      </trkpt>
      <trkpt lat="42.4016050" lon="-2.6005480">
        <ele>646.6</ele>
        <time>2022-06-27T07:13:11Z</time>
      </trkpt>
      <trkpt lat="42.4015860" lon="-2.6005510">
        <ele>646.8</ele>
        <time>2022-06-27T07:13:12Z</time>
      </trkpt>
      <trkpt lat="42.4015670" lon="-2.6005510">
        <ele>647.0</ele>
        <time>2022-06-27T07:13:13Z</time>
      </trkpt>
      <trkpt lat="42.4015470" lon="-2.6005500">
        <ele>647.2</ele>
        <time>2022-06-27T07:13:14Z</time>
      </trkpt>
      <trkpt lat="42.4015290" lon="-2.6005500">
        <ele>647.2</ele>
        <time>2022-06-27T07:13:15Z</time>
      </trkpt>
      <trkpt lat="42.4015100" lon="-2.6005510">
        <ele>647.4</ele>
        <time>2022-06-27T07:13:16Z</time>
      </trkpt>
      <trkpt lat="42.4014890" lon="-2.6005560">
        <ele>647.4</ele>
        <time>2022-06-27T07:13:17Z</time>
      </trkpt>
      <trkpt lat="42.4014700" lon="-2.6005670">
        <ele>647.8</ele>
        <time>2022-06-27T07:13:18Z</time>
      </trkpt>
      <trkpt lat="42.4014530" lon="-2.6005790">
        <ele>647.8</ele>
        <time>2022-06-27T07:13:19Z</time>
      </trkpt>
      <trkpt lat="42.4014360" lon="-2.6005880">
        <ele>648.0</ele>
        <time>2022-06-27T07:13:20Z</time>
      </trkpt>
      <trkpt lat="42.4014220" lon="-2.6005910">
        <ele>648.2</ele>
        <time>2022-06-27T07:13:21Z</time>
      </trkpt>
      <trkpt lat="42.4014060" lon="-2.6005910">
        <ele>648.4</ele>
        <time>2022-06-27T07:13:22Z</time>
      </trkpt>
      <trkpt lat="42.4013880" lon="-2.6005910">
        <ele>648.6</ele>
        <time>2022-06-27T07:13:23Z</time>
      </trkpt>
      <trkpt lat="42.4013710" lon="-2.6005980">
        <ele>648.8</ele>
        <time>2022-06-27T07:13:24Z</time>
      </trkpt>
      <trkpt lat="42.4013530" lon="-2.6006070">
        <ele>648.8</ele>
        <time>2022-06-27T07:13:25Z</time>
      </trkpt>
      <trkpt lat="42.4013330" lon="-2.6006150">
        <ele>649.0</ele>
        <time>2022-06-27T07:13:26Z</time>
      </trkpt>
      <trkpt lat="42.4013140" lon="-2.6006200">
        <ele>649.2</ele>
        <time>2022-06-27T07:13:27Z</time>
      </trkpt>
      <trkpt lat="42.4012950" lon="-2.6006240">
        <ele>649.2</ele>
        <time>2022-06-27T07:13:28Z</time>
      </trkpt>
      <trkpt lat="42.4012730" lon="-2.6006340">
        <ele>649.6</ele>
        <time>2022-06-27T07:13:29Z</time>
      </trkpt>
      <trkpt lat="42.4012530" lon="-2.6006490">
        <ele>649.8</ele>
        <time>2022-06-27T07:13:30Z</time>
      </trkpt>
      <trkpt lat="42.4012350" lon="-2.6006650">
        <ele>650.0</ele>
        <time>2022-06-27T07:13:31Z</time>
      </trkpt>
      <trkpt lat="42.4012160" lon="-2.6006820">
        <ele>650.0</ele>
        <time>2022-06-27T07:13:32Z</time>
      </trkpt>
      <trkpt lat="42.4011990" lon="-2.6006950">
        <ele>650.2</ele>
        <time>2022-06-27T07:13:33Z</time>
      </trkpt>
      <trkpt lat="42.4011830" lon="-2.6007080">
        <ele>650.4</ele>
        <time>2022-06-27T07:13:34Z</time>
      </trkpt>
      <trkpt lat="42.4011650" lon="-2.6007180">
        <ele>650.4</ele>
        <time>2022-06-27T07:13:35Z</time>
      </trkpt>
      <trkpt lat="42.4011500" lon="-2.6007340">
        <ele>650.8</ele>
        <time>2022-06-27T07:13:36Z</time>
      </trkpt>
      <trkpt lat="42.4011360" lon="-2.6007510">
        <ele>651.0</ele>
        <time>2022-06-27T07:13:37Z</time>
      </trkpt>
      <trkpt lat="42.4011210" lon="-2.6007700">
        <ele>651.4</ele>
        <time>2022-06-27T07:13:38Z</time>
      </trkpt>
      <trkpt lat="42.4011070" lon="-2.6007840">
        <ele>651.8</ele>
        <time>2022-06-27T07:13:39Z</time>
      </trkpt>
      <trkpt lat="42.4010940" lon="-2.6007960">
        <ele>652.0</ele>
        <time>2022-06-27T07:13:40Z</time>
      </trkpt>
      <trkpt lat="42.4010790" lon="-2.6008120">
        <ele>652.2</ele>
        <time>2022-06-27T07:13:41Z</time>
      </trkpt>
      <trkpt lat="42.4010680" lon="-2.6008280">
        <ele>652.4</ele>
        <time>2022-06-27T07:13:42Z</time>
      </trkpt>
      <trkpt lat="42.4010560" lon="-2.6008490">
        <ele>652.6</ele>
        <time>2022-06-27T07:13:43Z</time>
      </trkpt>
      <trkpt lat="42.4010430" lon="-2.6008710">
        <ele>652.6</ele>
        <time>2022-06-27T07:13:44Z</time>
      </trkpt>
      <trkpt lat="42.4010300" lon="-2.6008870">
        <ele>653.0</ele>
        <time>2022-06-27T07:13:45Z</time>
      </trkpt>
      <trkpt lat="42.4010150" lon="-2.6009000">
        <ele>653.2</ele>
        <time>2022-06-27T07:13:46Z</time>
      </trkpt>
      <trkpt lat="42.4010000" lon="-2.6009170">
        <ele>653.4</ele>
        <time>2022-06-27T07:13:47Z</time>
      </trkpt>
      <trkpt lat="42.4009880" lon="-2.6009360">
        <ele>653.8</ele>
        <time>2022-06-27T07:13:48Z</time>
      </trkpt>
      <trkpt lat="42.4009750" lon="-2.6009580">
        <ele>654.0</ele>
        <time>2022-06-27T07:13:49Z</time>
      </trkpt>
      <trkpt lat="42.4009630" lon="-2.6009770">
        <ele>654.4</ele>
        <time>2022-06-27T07:13:50Z</time>
      </trkpt>
      <trkpt lat="42.4009530" lon="-2.6009950">
        <ele>654.6</ele>
        <time>2022-06-27T07:13:51Z</time>
      </trkpt>
      <trkpt lat="42.4009420" lon="-2.6010190">
        <ele>654.8</ele>
        <time>2022-06-27T07:13:52Z</time>
      </trkpt>
      <trkpt lat="42.4009320" lon="-2.6010390">
        <ele>655.0</ele>
        <time>2022-06-27T07:13:53Z</time>
      </trkpt>
      <trkpt lat="42.4009190" lon="-2.6010600">
        <ele>655.2</ele>
        <time>2022-06-27T07:13:54Z</time>
      </trkpt>
      <trkpt lat="42.4009060" lon="-2.6010760">
        <ele>655.6</ele>
        <time>2022-06-27T07:13:55Z</time>
      </trkpt>
      <trkpt lat="42.4008940" lon="-2.6010890">
        <ele>655.8</ele>
        <time>2022-06-27T07:13:56Z</time>
      </trkpt>
      <trkpt lat="42.4008830" lon="-2.6011040">
        <ele>656.0</ele>
        <time>2022-06-27T07:13:57Z</time>
      </trkpt>
      <trkpt lat="42.4008720" lon="-2.6011190">
        <ele>656.2</ele>
        <time>2022-06-27T07:13:58Z</time>
      </trkpt>
      <trkpt lat="42.4008590" lon="-2.6011360">
        <ele>656.4</ele>
        <time>2022-06-27T07:13:59Z</time>
      </trkpt>
      <trkpt lat="42.4008490" lon="-2.6011540">
        <ele>656.4</ele>
        <time>2022-06-27T07:14:00Z</time>
      </trkpt>
      <trkpt lat="42.4008380" lon="-2.6011710">
        <ele>656.6</ele>
        <time>2022-06-27T07:14:01Z</time>
      </trkpt>
      <trkpt lat="42.4008260" lon="-2.6011900">
        <ele>656.8</ele>
        <time>2022-06-27T07:14:02Z</time>
      </trkpt>
      <trkpt lat="42.4008170" lon="-2.6012070">
        <ele>657.0</ele>
        <time>2022-06-27T07:14:03Z</time>
      </trkpt>
      <trkpt lat="42.4008080" lon="-2.6012240">
        <ele>657.2</ele>
        <time>2022-06-27T07:14:04Z</time>
      </trkpt>
      <trkpt lat="42.4007950" lon="-2.6012460">
        <ele>657.4</ele>
        <time>2022-06-27T07:14:05Z</time>
      </trkpt>
      <trkpt lat="42.4007840" lon="-2.6012670">
        <ele>657.6</ele>
        <time>2022-06-27T07:14:06Z</time>
      </trkpt>
      <trkpt lat="42.4007720" lon="-2.6012840">
        <ele>658.0</ele>
        <time>2022-06-27T07:14:07Z</time>
      </trkpt>
      <trkpt lat="42.4007580" lon="-2.6013050">
        <ele>658.2</ele>
        <time>2022-06-27T07:14:08Z</time>
      </trkpt>
      <trkpt lat="42.4007430" lon="-2.6013260">
        <ele>658.8</ele>
        <time>2022-06-27T07:14:09Z</time>
      </trkpt>
      <trkpt lat="42.4007310" lon="-2.6013430">
        <ele>659.0</ele>
        <time>2022-06-27T07:14:10Z</time>
      </trkpt>
      <trkpt lat="42.4007200" lon="-2.6013620">
        <ele>659.2</ele>
        <time>2022-06-27T07:14:11Z</time>
      </trkpt>
      <trkpt lat="42.4007080" lon="-2.6013840">
        <ele>659.4</ele>
        <time>2022-06-27T07:14:12Z</time>
      </trkpt>
      <trkpt lat="42.4006960" lon="-2.6014030">
        <ele>659.6</ele>
        <time>2022-06-27T07:14:13Z</time>
      </trkpt>
      <trkpt lat="42.4006810" lon="-2.6014240">
        <ele>659.8</ele>
        <time>2022-06-27T07:14:14Z</time>
      </trkpt>
      <trkpt lat="42.4006710" lon="-2.6014400">
        <ele>660.0</ele>
        <time>2022-06-27T07:14:15Z</time>
      </trkpt>
      <trkpt lat="42.4006550" lon="-2.6014660">
        <ele>660.2</ele>
        <time>2022-06-27T07:14:16Z</time>
      </trkpt>
      <trkpt lat="42.4006430" lon="-2.6014900">
        <ele>660.4</ele>
        <time>2022-06-27T07:14:17Z</time>
      </trkpt>
      <trkpt lat="42.4006310" lon="-2.6015170">
        <ele>660.6</ele>
        <time>2022-06-27T07:14:18Z</time>
      </trkpt>
      <trkpt lat="42.4006180" lon="-2.6015430">
        <ele>660.8</ele>
        <time>2022-06-27T07:14:19Z</time>
      </trkpt>
      <trkpt lat="42.4006060" lon="-2.6015700">
        <ele>661.0</ele>
        <time>2022-06-27T07:14:20Z</time>
      </trkpt>
      <trkpt lat="42.4005950" lon="-2.6015910">
        <ele>661.2</ele>
        <time>2022-06-27T07:14:21Z</time>
      </trkpt>
      <trkpt lat="42.4005810" lon="-2.6016090">
        <ele>661.2</ele>
        <time>2022-06-27T07:14:22Z</time>
      </trkpt>
      <trkpt lat="42.4005680" lon="-2.6016280">
        <ele>661.2</ele>
        <time>2022-06-27T07:14:23Z</time>
      </trkpt>
      <trkpt lat="42.4005530" lon="-2.6016470">
        <ele>661.4</ele>
        <time>2022-06-27T07:14:24Z</time>
      </trkpt>
      <trkpt lat="42.4005380" lon="-2.6016650">
        <ele>661.8</ele>
        <time>2022-06-27T07:14:25Z</time>
      </trkpt>
      <trkpt lat="42.4005220" lon="-2.6016850">
        <ele>662.0</ele>
        <time>2022-06-27T07:14:26Z</time>
      </trkpt>
      <trkpt lat="42.4005060" lon="-2.6017080">
        <ele>662.2</ele>
        <time>2022-06-27T07:14:27Z</time>
      </trkpt>
      <trkpt lat="42.4004900" lon="-2.6017360">
        <ele>662.2</ele>
        <time>2022-06-27T07:14:28Z</time>
      </trkpt>
      <trkpt lat="42.4004790" lon="-2.6017630">
        <ele>662.4</ele>
        <time>2022-06-27T07:14:29Z</time>
      </trkpt>
      <trkpt lat="42.4004750" lon="-2.6017930">
        <ele>662.6</ele>
        <time>2022-06-27T07:14:30Z</time>
      </trkpt>
      <trkpt lat="42.4004800" lon="-2.6018310">
        <ele>662.8</ele>
        <time>2022-06-27T07:14:31Z</time>
      </trkpt>
      <trkpt lat="42.4004950" lon="-2.6018760">
        <ele>662.8</ele>
        <time>2022-06-27T07:14:32Z</time>
      </trkpt>
      <trkpt lat="42.4005130" lon="-2.6019280">
        <ele>662.8</ele>
        <time>2022-06-27T07:14:33Z</time>
      </trkpt>
      <trkpt lat="42.4005280" lon="-2.6019880">
        <ele>662.8</ele>
        <time>2022-06-27T07:14:34Z</time>
      </trkpt>
      <trkpt lat="42.4005430" lon="-2.6020520">
        <ele>663.0</ele>
        <time>2022-06-27T07:14:35Z</time>
      </trkpt>
      <trkpt lat="42.4005540" lon="-2.6021220">
        <ele>663.0</ele>
        <time>2022-06-27T07:14:36Z</time>
      </trkpt>
      <trkpt lat="42.4005600" lon="-2.6021960">
        <ele>662.8</ele>
        <time>2022-06-27T07:14:37Z</time>
      </trkpt>
      <trkpt lat="42.4005650" lon="-2.6022730">
        <ele>662.6</ele>
        <time>2022-06-27T07:14:38Z</time>
      </trkpt>
      <trkpt lat="42.4005630" lon="-2.6023500">
        <ele>662.4</ele>
        <time>2022-06-27T07:14:39Z</time>
      </trkpt>
      <trkpt lat="42.4005550" lon="-2.6024290">
        <ele>662.2</ele>
        <time>2022-06-27T07:14:40Z</time>
      </trkpt>
      <trkpt lat="42.4005430" lon="-2.6025050">
        <ele>661.8</ele>
        <time>2022-06-27T07:14:41Z</time>
      </trkpt>
      <trkpt lat="42.4005310" lon="-2.6025830">
        <ele>661.4</ele>
        <time>2022-06-27T07:14:42Z</time>
      </trkpt>
      <trkpt lat="42.4005180" lon="-2.6026610">
        <ele>661.2</ele>
        <time>2022-06-27T07:14:43Z</time>
      </trkpt>
      <trkpt lat="42.4005020" lon="-2.6027380">
        <ele>661.0</ele>
        <time>2022-06-27T07:14:44Z</time>
      </trkpt>
      <trkpt lat="42.4004830" lon="-2.6028160">
        <ele>660.8</ele>
        <time>2022-06-27T07:14:45Z</time>
      </trkpt>
      <trkpt lat="42.4004630" lon="-2.6028950">
        <ele>660.6</ele>
        <time>2022-06-27T07:14:46Z</time>
      </trkpt>
      <trkpt lat="42.4004440" lon="-2.6029750">
        <ele>660.4</ele>
        <time>2022-06-27T07:14:47Z</time>
      </trkpt>
      <trkpt lat="42.4004230" lon="-2.6030560">
        <ele>660.2</ele>
        <time>2022-06-27T07:14:48Z</time>
      </trkpt>
      <trkpt lat="42.4004020" lon="-2.6031360">
        <ele>660.0</ele>
        <time>2022-06-27T07:14:49Z</time>
      </trkpt>
      <trkpt lat="42.4003790" lon="-2.6032160">
        <ele>660.0</ele>
        <time>2022-06-27T07:14:50Z</time>
      </trkpt>
      <trkpt lat="42.4003570" lon="-2.6032970">
        <ele>659.8</ele>
        <time>2022-06-27T07:14:51Z</time>
      </trkpt>
      <trkpt lat="42.4003370" lon="-2.6033820">
        <ele>659.4</ele>
        <time>2022-06-27T07:14:52Z</time>
      </trkpt>
      <trkpt lat="42.4003180" lon="-2.6034720">
        <ele>658.8</ele>
        <time>2022-06-27T07:14:53Z</time>
      </trkpt>
      <trkpt lat="42.4003000" lon="-2.6035630">
        <ele>658.2</ele>
        <time>2022-06-27T07:14:54Z</time>
      </trkpt>
      <trkpt lat="42.4002810" lon="-2.6036570">
        <ele>657.8</ele>
        <time>2022-06-27T07:14:55Z</time>
      </trkpt>
      <trkpt lat="42.4002620" lon="-2.6037540">
        <ele>657.8</ele>
        <time>2022-06-27T07:14:56Z</time>
      </trkpt>
      <trkpt lat="42.4002420" lon="-2.6038520">
        <ele>657.4</ele>
        <time>2022-06-27T07:14:57Z</time>
      </trkpt>
      <trkpt lat="42.4002250" lon="-2.6039500">
        <ele>657.4</ele>
        <time>2022-06-27T07:14:58Z</time>
      </trkpt>
      <trkpt lat="42.4002070" lon="-2.6040470">
        <ele>657.2</ele>
        <time>2022-06-27T07:14:59Z</time>
      </trkpt>
      <trkpt lat="42.4001900" lon="-2.6041410">
        <ele>657.2</ele>
        <time>2022-06-27T07:15:00Z</time>
      </trkpt>
      <trkpt lat="42.4001740" lon="-2.6042340">
        <ele>657.0</ele>
        <time>2022-06-27T07:15:01Z</time>
      </trkpt>
      <trkpt lat="42.4001590" lon="-2.6043260">
        <ele>656.8</ele>
        <time>2022-06-27T07:15:02Z</time>
      </trkpt>
      <trkpt lat="42.4001400" lon="-2.6044200">
        <ele>656.6</ele>
        <time>2022-06-27T07:15:03Z</time>
      </trkpt>
      <trkpt lat="42.4001210" lon="-2.6045130">
        <ele>656.2</ele>
        <time>2022-06-27T07:15:04Z</time>
      </trkpt>
      <trkpt lat="42.4001040" lon="-2.6046050">
        <ele>656.0</ele>
        <time>2022-06-27T07:15:05Z</time>
      </trkpt>
      <trkpt lat="42.4000880" lon="-2.6046990">
        <ele>655.8</ele>
        <time>2022-06-27T07:15:06Z</time>
      </trkpt>
      <trkpt lat="42.4000710" lon="-2.6047910">
        <ele>655.6</ele>
        <time>2022-06-27T07:15:07Z</time>
      </trkpt>
      <trkpt lat="42.4000520" lon="-2.6048830">
        <ele>655.2</ele>
        <time>2022-06-27T07:15:08Z</time>
      </trkpt>
      <trkpt lat="42.4000350" lon="-2.6049760">
        <ele>655.0</ele>
        <time>2022-06-27T07:15:09Z</time>
      </trkpt>
      <trkpt lat="42.4000190" lon="-2.6050700">
        <ele>654.6</ele>
        <time>2022-06-27T07:15:10Z</time>
      </trkpt>
      <trkpt lat="42.4000010" lon="-2.6051620">
        <ele>654.2</ele>
        <time>2022-06-27T07:15:11Z</time>
      </trkpt>
      <trkpt lat="42.3999840" lon="-2.6052510">
        <ele>653.8</ele>
        <time>2022-06-27T07:15:12Z</time>
      </trkpt>
      <trkpt lat="42.3999680" lon="-2.6053400">
        <ele>653.4</ele>
        <time>2022-06-27T07:15:13Z</time>
      </trkpt>
      <trkpt lat="42.3999530" lon="-2.6054310">
        <ele>653.4</ele>
        <time>2022-06-27T07:15:14Z</time>
      </trkpt>
      <trkpt lat="42.3999370" lon="-2.6055230">
        <ele>653.0</ele>
        <time>2022-06-27T07:15:15Z</time>
      </trkpt>
      <trkpt lat="42.3999200" lon="-2.6056170">
        <ele>652.8</ele>
        <time>2022-06-27T07:15:16Z</time>
      </trkpt>
      <trkpt lat="42.3999050" lon="-2.6057110">
        <ele>652.4</ele>
        <time>2022-06-27T07:15:17Z</time>
      </trkpt>
      <trkpt lat="42.3998900" lon="-2.6058040">
        <ele>652.2</ele>
        <time>2022-06-27T07:15:18Z</time>
      </trkpt>
      <trkpt lat="42.3998740" lon="-2.6058920">
        <ele>652.2</ele>
        <time>2022-06-27T07:15:19Z</time>
      </trkpt>
      <trkpt lat="42.3998580" lon="-2.6059780">
        <ele>652.0</ele>
        <time>2022-06-27T07:15:20Z</time>
      </trkpt>
      <trkpt lat="42.3998430" lon="-2.6060630">
        <ele>651.8</ele>
        <time>2022-06-27T07:15:21Z</time>
      </trkpt>
      <trkpt lat="42.3998260" lon="-2.6061460">
        <ele>651.8</ele>
        <time>2022-06-27T07:15:22Z</time>
      </trkpt>
      <trkpt lat="42.3998120" lon="-2.6062280">
        <ele>651.8</ele>
        <time>2022-06-27T07:15:23Z</time>
      </trkpt>
      <trkpt lat="42.3997970" lon="-2.6063060">
        <ele>651.8</ele>
        <time>2022-06-27T07:15:24Z</time>
      </trkpt>
      <trkpt lat="42.3997840" lon="-2.6063820">
        <ele>651.8</ele>
        <time>2022-06-27T07:15:25Z</time>
      </trkpt>
      <trkpt lat="42.3997720" lon="-2.6064550">
        <ele>651.8</ele>
        <time>2022-06-27T07:15:26Z</time>
      </trkpt>
      <trkpt lat="42.3997590" lon="-2.6065270">
        <ele>651.8</ele>
        <time>2022-06-27T07:15:27Z</time>
      </trkpt>
      <trkpt lat="42.3997450" lon="-2.6065970">
        <ele>651.8</ele>
        <time>2022-06-27T07:15:28Z</time>
      </trkpt>
      <trkpt lat="42.3997340" lon="-2.6066670">
        <ele>651.8</ele>
        <time>2022-06-27T07:15:29Z</time>
      </trkpt>
      <trkpt lat="42.3997230" lon="-2.6067360">
        <ele>651.8</ele>
        <time>2022-06-27T07:15:30Z</time>
      </trkpt>
      <trkpt lat="42.3997130" lon="-2.6068040">
        <ele>652.0</ele>
        <time>2022-06-27T07:15:31Z</time>
      </trkpt>
      <trkpt lat="42.3997050" lon="-2.6068720">
        <ele>652.0</ele>
        <time>2022-06-27T07:15:32Z</time>
      </trkpt>
      <trkpt lat="42.3996970" lon="-2.6069380">
        <ele>652.0</ele>
        <time>2022-06-27T07:15:33Z</time>
      </trkpt>
      <trkpt lat="42.3996900" lon="-2.6070030">
        <ele>652.2</ele>
        <time>2022-06-27T07:15:34Z</time>
      </trkpt>
      <trkpt lat="42.3996840" lon="-2.6070680">
        <ele>652.2</ele>
        <time>2022-06-27T07:15:35Z</time>
      </trkpt>
      <trkpt lat="42.3996780" lon="-2.6071330">
        <ele>652.4</ele>
        <time>2022-06-27T07:15:36Z</time>
      </trkpt>
      <trkpt lat="42.3996730" lon="-2.6071960">
        <ele>652.4</ele>
        <time>2022-06-27T07:15:37Z</time>
      </trkpt>
      <trkpt lat="42.3996710" lon="-2.6072560">
        <ele>652.6</ele>
        <time>2022-06-27T07:15:38Z</time>
      </trkpt>
      <trkpt lat="42.3996680" lon="-2.6073150">
        <ele>652.8</ele>
        <time>2022-06-27T07:15:39Z</time>
      </trkpt>
      <trkpt lat="42.3996650" lon="-2.6073750">
        <ele>652.8</ele>
        <time>2022-06-27T07:15:40Z</time>
      </trkpt>
      <trkpt lat="42.3996630" lon="-2.6074300">
        <ele>653.0</ele>
        <time>2022-06-27T07:15:41Z</time>
      </trkpt>
      <trkpt lat="42.3996610" lon="-2.6074880">
        <ele>653.2</ele>
        <time>2022-06-27T07:15:42Z</time>
      </trkpt>
      <trkpt lat="42.3996590" lon="-2.6075490">
        <ele>653.2</ele>
        <time>2022-06-27T07:15:43Z</time>
      </trkpt>
      <trkpt lat="42.3996600" lon="-2.6076090">
        <ele>653.2</ele>
        <time>2022-06-27T07:15:44Z</time>
      </trkpt>
      <trkpt lat="42.3996620" lon="-2.6076690">
        <ele>653.4</ele>
        <time>2022-06-27T07:15:45Z</time>
      </trkpt>
      <trkpt lat="42.3996630" lon="-2.6077280">
        <ele>653.4</ele>
        <time>2022-06-27T07:15:46Z</time>
      </trkpt>
      <trkpt lat="42.3996640" lon="-2.6077870">
        <ele>653.6</ele>
        <time>2022-06-27T07:15:47Z</time>
      </trkpt>
      <trkpt lat="42.3996630" lon="-2.6078460">
        <ele>653.8</ele>
        <time>2022-06-27T07:15:48Z</time>
      </trkpt>
      <trkpt lat="42.3996600" lon="-2.6079040">
        <ele>653.8</ele>
        <time>2022-06-27T07:15:49Z</time>
      </trkpt>
      <trkpt lat="42.3996580" lon="-2.6079580">
        <ele>654.0</ele>
        <time>2022-06-27T07:15:50Z</time>
      </trkpt>
      <trkpt lat="42.3996570" lon="-2.6080090">
        <ele>654.0</ele>
        <time>2022-06-27T07:15:51Z</time>
      </trkpt>
      <trkpt lat="42.3996580" lon="-2.6080640">
        <ele>654.2</ele>
        <time>2022-06-27T07:15:52Z</time>
      </trkpt>
      <trkpt lat="42.3996580" lon="-2.6081220">
        <ele>654.2</ele>
        <time>2022-06-27T07:15:53Z</time>
      </trkpt>
      <trkpt lat="42.3996600" lon="-2.6081770">
        <ele>654.2</ele>
        <time>2022-06-27T07:15:54Z</time>
      </trkpt>
      <trkpt lat="42.3996610" lon="-2.6082270">
        <ele>654.2</ele>
        <time>2022-06-27T07:15:55Z</time>
      </trkpt>
      <trkpt lat="42.3996620" lon="-2.6082780">
        <ele>654.4</ele>
        <time>2022-06-27T07:15:56Z</time>
      </trkpt>
      <trkpt lat="42.3996610" lon="-2.6083300">
        <ele>654.6</ele>
        <time>2022-06-27T07:15:57Z</time>
      </trkpt>
      <trkpt lat="42.3996600" lon="-2.6083800">
        <ele>654.6</ele>
        <time>2022-06-27T07:15:58Z</time>
      </trkpt>
      <trkpt lat="42.3996580" lon="-2.6084250">
        <ele>654.8</ele>
        <time>2022-06-27T07:15:59Z</time>
      </trkpt>
      <trkpt lat="42.3996560" lon="-2.6084700">
        <ele>654.8</ele>
        <time>2022-06-27T07:16:00Z</time>
      </trkpt>
      <trkpt lat="42.3996560" lon="-2.6085170">
        <ele>655.0</ele>
        <time>2022-06-27T07:16:01Z</time>
      </trkpt>
      <trkpt lat="42.3996560" lon="-2.6085650">
        <ele>655.4</ele>
        <time>2022-06-27T07:16:02Z</time>
      </trkpt>
      <trkpt lat="42.3996560" lon="-2.6086090">
        <ele>655.6</ele>
        <time>2022-06-27T07:16:03Z</time>
      </trkpt>
      <trkpt lat="42.3996570" lon="-2.6086530">
        <ele>655.8</ele>
        <time>2022-06-27T07:16:04Z</time>
      </trkpt>
      <trkpt lat="42.3996590" lon="-2.6087000">
        <ele>656.0</ele>
        <time>2022-06-27T07:16:05Z</time>
      </trkpt>
      <trkpt lat="42.3996610" lon="-2.6087470">
        <ele>656.2</ele>
        <time>2022-06-27T07:16:06Z</time>
      </trkpt>
      <trkpt lat="42.3996620" lon="-2.6087930">
        <ele>656.4</ele>
        <time>2022-06-27T07:16:07Z</time>
      </trkpt>
      <trkpt lat="42.3996620" lon="-2.6088360">
        <ele>656.6</ele>
        <time>2022-06-27T07:16:08Z</time>
      </trkpt>
      <trkpt lat="42.3996620" lon="-2.6088800">
        <ele>657.0</ele>
        <time>2022-06-27T07:16:09Z</time>
      </trkpt>
      <trkpt lat="42.3996600" lon="-2.6089240">
        <ele>657.2</ele>
        <time>2022-06-27T07:16:10Z</time>
      </trkpt>
      <trkpt lat="42.3996590" lon="-2.6089720">
        <ele>657.4</ele>
        <time>2022-06-27T07:16:11Z</time>
      </trkpt>
      <trkpt lat="42.3996590" lon="-2.6090180">
        <ele>657.4</ele>
        <time>2022-06-27T07:16:12Z</time>
      </trkpt>
      <trkpt lat="42.3996610" lon="-2.6090680">
        <ele>657.6</ele>
        <time>2022-06-27T07:16:13Z</time>
      </trkpt>
      <trkpt lat="42.3996610" lon="-2.6091170">
        <ele>657.8</ele>
        <time>2022-06-27T07:16:14Z</time>
      </trkpt>
      <trkpt lat="42.3996600" lon="-2.6091660">
        <ele>658.0</ele>
        <time>2022-06-27T07:16:15Z</time>
      </trkpt>
      <trkpt lat="42.3996620" lon="-2.6092150">
        <ele>658.0</ele>
        <time>2022-06-27T07:16:16Z</time>
      </trkpt>
      <trkpt lat="42.3996630" lon="-2.6092690">
        <ele>658.2</ele>
        <time>2022-06-27T07:16:17Z</time>
      </trkpt>
      <trkpt lat="42.3996650" lon="-2.6093250">
        <ele>658.2</ele>
        <time>2022-06-27T07:16:18Z</time>
      </trkpt>
      <trkpt lat="42.3996660" lon="-2.6093850">
        <ele>658.4</ele>
        <time>2022-06-27T07:16:19Z</time>
      </trkpt>
      <trkpt lat="42.3996670" lon="-2.6094450">
        <ele>658.6</ele>
        <time>2022-06-27T07:16:20Z</time>
      </trkpt>
      <trkpt lat="42.3996680" lon="-2.6095070">
        <ele>658.6</ele>
        <time>2022-06-27T07:16:21Z</time>
      </trkpt>
      <trkpt lat="42.3996700" lon="-2.6095720">
        <ele>658.6</ele>
        <time>2022-06-27T07:16:22Z</time>
      </trkpt>
      <trkpt lat="42.3996710" lon="-2.6096380">
        <ele>658.6</ele>
        <time>2022-06-27T07:16:23Z</time>
      </trkpt>
      <trkpt lat="42.3996740" lon="-2.6097060">
        <ele>658.6</ele>
        <time>2022-06-27T07:16:24Z</time>
      </trkpt>
      <trkpt lat="42.3996770" lon="-2.6097730">
        <ele>658.6</ele>
        <time>2022-06-27T07:16:25Z</time>
      </trkpt>
      <trkpt lat="42.3996820" lon="-2.6098410">
        <ele>658.6</ele>
        <time>2022-06-27T07:16:26Z</time>
      </trkpt>
      <trkpt lat="42.3996860" lon="-2.6099090">
        <ele>658.6</ele>
        <time>2022-06-27T07:16:27Z</time>
      </trkpt>
      <trkpt lat="42.3996890" lon="-2.6099780">
        <ele>658.6</ele>
        <time>2022-06-27T07:16:28Z</time>
      </trkpt>
      <trkpt lat="42.3996900" lon="-2.6100480">
        <ele>658.6</ele>
        <time>2022-06-27T07:16:29Z</time>
      </trkpt>
      <trkpt lat="42.3996930" lon="-2.6101190">
        <ele>658.6</ele>
        <time>2022-06-27T07:16:30Z</time>
      </trkpt>
      <trkpt lat="42.3996990" lon="-2.6101850">
        <ele>658.4</ele>
        <time>2022-06-27T07:16:31Z</time>
      </trkpt>
      <trkpt lat="42.3997040" lon="-2.6102550">
        <ele>658.4</ele>
        <time>2022-06-27T07:16:32Z</time>
      </trkpt>
      <trkpt lat="42.3997070" lon="-2.6103270">
        <ele>658.4</ele>
        <time>2022-06-27T07:16:33Z</time>
      </trkpt>
      <trkpt lat="42.3997100" lon="-2.6103980">
        <ele>658.4</ele>
        <time>2022-06-27T07:16:34Z</time>
      </trkpt>
      <trkpt lat="42.3997120" lon="-2.6104690">
        <ele>658.4</ele>
        <time>2022-06-27T07:16:35Z</time>
      </trkpt>
      <trkpt lat="42.3997150" lon="-2.6105400">
        <ele>658.4</ele>
        <time>2022-06-27T07:16:36Z</time>
      </trkpt>
      <trkpt lat="42.3997180" lon="-2.6106130">
        <ele>658.4</ele>
        <time>2022-06-27T07:16:37Z</time>
      </trkpt>
      <trkpt lat="42.3997180" lon="-2.6106850">
        <ele>658.4</ele>
        <time>2022-06-27T07:16:38Z</time>
      </trkpt>
      <trkpt lat="42.3997210" lon="-2.6107570">
        <ele>658.4</ele>
        <time>2022-06-27T07:16:39Z</time>
      </trkpt>
      <trkpt lat="42.3997240" lon="-2.6108280">
        <ele>658.4</ele>
        <time>2022-06-27T07:16:40Z</time>
      </trkpt>
      <trkpt lat="42.3997280" lon="-2.6109000">
        <ele>658.4</ele>
        <time>2022-06-27T07:16:41Z</time>
      </trkpt>
      <trkpt lat="42.3997290" lon="-2.6109730">
        <ele>658.4</ele>
        <time>2022-06-27T07:16:42Z</time>
      </trkpt>
      <trkpt lat="42.3997310" lon="-2.6110450">
        <ele>658.6</ele>
        <time>2022-06-27T07:16:43Z</time>
      </trkpt>
      <trkpt lat="42.3997350" lon="-2.6111180">
        <ele>658.6</ele>
        <time>2022-06-27T07:16:44Z</time>
      </trkpt>
      <trkpt lat="42.3997390" lon="-2.6111910">
        <ele>658.6</ele>
        <time>2022-06-27T07:16:45Z</time>
      </trkpt>
      <trkpt lat="42.3997430" lon="-2.6112680">
        <ele>658.8</ele>
        <time>2022-06-27T07:16:46Z</time>
      </trkpt>
      <trkpt lat="42.3997470" lon="-2.6113400">
        <ele>658.8</ele>
        <time>2022-06-27T07:16:47Z</time>
      </trkpt>
      <trkpt lat="42.3997550" lon="-2.6114110">
        <ele>658.8</ele>
        <time>2022-06-27T07:16:48Z</time>
      </trkpt>
      <trkpt lat="42.3997600" lon="-2.6114780">
        <ele>659.0</ele>
        <time>2022-06-27T07:16:49Z</time>
      </trkpt>
      <trkpt lat="42.3997690" lon="-2.6115500">
        <ele>659.0</ele>
        <time>2022-06-27T07:16:50Z</time>
      </trkpt>
      <trkpt lat="42.3997780" lon="-2.6116190">
        <ele>659.0</ele>
        <time>2022-06-27T07:16:51Z</time>
      </trkpt>
      <trkpt lat="42.3997860" lon="-2.6116900">
        <ele>659.0</ele>
        <time>2022-06-27T07:16:52Z</time>
      </trkpt>
      <trkpt lat="42.3997980" lon="-2.6117570">
        <ele>659.0</ele>
        <time>2022-06-27T07:16:53Z</time>
      </trkpt>
      <trkpt lat="42.3998110" lon="-2.6118250">
        <ele>659.0</ele>
        <time>2022-06-27T07:16:54Z</time>
      </trkpt>
      <trkpt lat="42.3998270" lon="-2.6118870">
        <ele>659.2</ele>
        <time>2022-06-27T07:16:55Z</time>
      </trkpt>
      <trkpt lat="42.3998450" lon="-2.6119470">
        <ele>659.2</ele>
        <time>2022-06-27T07:16:56Z</time>
      </trkpt>
      <trkpt lat="42.3998620" lon="-2.6120080">
        <ele>659.4</ele>
        <time>2022-06-27T07:16:57Z</time>
      </trkpt>
      <trkpt lat="42.3998800" lon="-2.6120680">
        <ele>659.6</ele>
        <time>2022-06-27T07:16:58Z</time>
      </trkpt>
      <trkpt lat="42.3998990" lon="-2.6121280">
        <ele>659.8</ele>
        <time>2022-06-27T07:16:59Z</time>
      </trkpt>
      <trkpt lat="42.3999190" lon="-2.6121880">
        <ele>659.8</ele>
        <time>2022-06-27T07:17:00Z</time>
      </trkpt>
      <trkpt lat="42.3999390" lon="-2.6122470">
        <ele>659.8</ele>
        <time>2022-06-27T07:17:01Z</time>
      </trkpt>
      <trkpt lat="42.3999570" lon="-2.6123070">
        <ele>659.8</ele>
        <time>2022-06-27T07:17:02Z</time>
      </trkpt>
      <trkpt lat="42.3999730" lon="-2.6123680">
        <ele>660.0</ele>
        <time>2022-06-27T07:17:03Z</time>
      </trkpt>
      <trkpt lat="42.3999920" lon="-2.6124270">
        <ele>660.2</ele>
        <time>2022-06-27T07:17:04Z</time>
      </trkpt>
      <trkpt lat="42.4000090" lon="-2.6124860">
        <ele>660.2</ele>
        <time>2022-06-27T07:17:05Z</time>
      </trkpt>
      <trkpt lat="42.4000240" lon="-2.6125460">
        <ele>660.2</ele>
        <time>2022-06-27T07:17:06Z</time>
      </trkpt>
      <trkpt lat="42.4000430" lon="-2.6126040">
        <ele>660.4</ele>
        <time>2022-06-27T07:17:07Z</time>
      </trkpt>
      <trkpt lat="42.4000620" lon="-2.6126620">
        <ele>660.4</ele>
        <time>2022-06-27T07:17:08Z</time>
      </trkpt>
      <trkpt lat="42.4000820" lon="-2.6127200">
        <ele>660.6</ele>
        <time>2022-06-27T07:17:09Z</time>
      </trkpt>
      <trkpt lat="42.4001010" lon="-2.6127770">
        <ele>660.6</ele>
        <time>2022-06-27T07:17:10Z</time>
      </trkpt>
      <trkpt lat="42.4001180" lon="-2.6128330">
        <ele>660.8</ele>
        <time>2022-06-27T07:17:11Z</time>
      </trkpt>
      <trkpt lat="42.4001350" lon="-2.6128890">
        <ele>660.8</ele>
        <time>2022-06-27T07:17:12Z</time>
      </trkpt>
      <trkpt lat="42.4001520" lon="-2.6129420">
        <ele>660.8</ele>
        <time>2022-06-27T07:17:13Z</time>
      </trkpt>
      <trkpt lat="42.4001710" lon="-2.6129960">
        <ele>660.8</ele>
        <time>2022-06-27T07:17:14Z</time>
      </trkpt>
      <trkpt lat="42.4001890" lon="-2.6130490">
        <ele>661.0</ele>
        <time>2022-06-27T07:17:15Z</time>
      </trkpt>
      <trkpt lat="42.4002030" lon="-2.6131040">
        <ele>661.0</ele>
        <time>2022-06-27T07:17:16Z</time>
      </trkpt>
      <trkpt lat="42.4002180" lon="-2.6131590">
        <ele>661.2</ele>
        <time>2022-06-27T07:17:17Z</time>
      </trkpt>
      <trkpt lat="42.4002350" lon="-2.6132160">
        <ele>661.4</ele>
        <time>2022-06-27T07:17:18Z</time>
      </trkpt>
      <trkpt lat="42.4002520" lon="-2.6132720">
        <ele>661.6</ele>
        <time>2022-06-27T07:17:19Z</time>
      </trkpt>
      <trkpt lat="42.4002660" lon="-2.6133310">
        <ele>661.6</ele>
        <time>2022-06-27T07:17:20Z</time>
      </trkpt>
      <trkpt lat="42.4002810" lon="-2.6133890">
        <ele>661.6</ele>
        <time>2022-06-27T07:17:21Z</time>
      </trkpt>
      <trkpt lat="42.4002950" lon="-2.6134480">
        <ele>661.8</ele>
        <time>2022-06-27T07:17:22Z</time>
      </trkpt>
      <trkpt lat="42.4003060" lon="-2.6135070">
        <ele>662.0</ele>
        <time>2022-06-27T07:17:23Z</time>
      </trkpt>
      <trkpt lat="42.4003180" lon="-2.6135650">
        <ele>662.2</ele>
        <time>2022-06-27T07:17:24Z</time>
      </trkpt>
      <trkpt lat="42.4003290" lon="-2.6136260">
        <ele>662.2</ele>
        <time>2022-06-27T07:17:25Z</time>
      </trkpt>
      <trkpt lat="42.4003430" lon="-2.6136900">
        <ele>662.2</ele>
        <time>2022-06-27T07:17:26Z</time>
      </trkpt>
      <trkpt lat="42.4003570" lon="-2.6137560">
        <ele>662.4</ele>
        <time>2022-06-27T07:17:27Z</time>
      </trkpt>
      <trkpt lat="42.4003720" lon="-2.6138220">
        <ele>662.4</ele>
        <time>2022-06-27T07:17:28Z</time>
      </trkpt>
      <trkpt lat="42.4003850" lon="-2.6138940">
        <ele>662.4</ele>
        <time>2022-06-27T07:17:29Z</time>
      </trkpt>
      <trkpt lat="42.4004000" lon="-2.6139680">
        <ele>662.4</ele>
        <time>2022-06-27T07:17:30Z</time>
      </trkpt>
      <trkpt lat="42.4004130" lon="-2.6140470">
        <ele>662.4</ele>
        <time>2022-06-27T07:17:31Z</time>
      </trkpt>
      <trkpt lat="42.4004280" lon="-2.6141250">
        <ele>662.4</ele>
        <time>2022-06-27T07:17:32Z</time>
      </trkpt>
      <trkpt lat="42.4004430" lon="-2.6142060">
        <ele>662.2</ele>
        <time>2022-06-27T07:17:33Z</time>
      </trkpt>
      <trkpt lat="42.4004560" lon="-2.6142890">
        <ele>662.0</ele>
        <time>2022-06-27T07:17:34Z</time>
      </trkpt>
      <trkpt lat="42.4004690" lon="-2.6143760">
        <ele>661.8</ele>
        <time>2022-06-27T07:17:35Z</time>
      </trkpt>
      <trkpt lat="42.4004830" lon="-2.6144640">
        <ele>661.6</ele>
        <time>2022-06-27T07:17:36Z</time>
      </trkpt>
      <trkpt lat="42.4004970" lon="-2.6145540">
        <ele>661.4</ele>
        <time>2022-06-27T07:17:37Z</time>
      </trkpt>
      <trkpt lat="42.4005100" lon="-2.6146460">
        <ele>661.2</ele>
        <time>2022-06-27T07:17:38Z</time>
      </trkpt>
      <trkpt lat="42.4005250" lon="-2.6147400">
        <ele>661.0</ele>
        <time>2022-06-27T07:17:39Z</time>
      </trkpt>
      <trkpt lat="42.4005390" lon="-2.6148380">
        <ele>660.6</ele>
        <time>2022-06-27T07:17:40Z</time>
      </trkpt>
      <trkpt lat="42.4005540" lon="-2.6149370">
        <ele>660.2</ele>
        <time>2022-06-27T07:17:41Z</time>
      </trkpt>
      <trkpt lat="42.4005700" lon="-2.6150390">
        <ele>659.8</ele>
        <time>2022-06-27T07:17:42Z</time>
      </trkpt>
      <trkpt lat="42.4005840" lon="-2.6151440">
        <ele>659.0</ele>
        <time>2022-06-27T07:17:43Z</time>
      </trkpt>
      <trkpt lat="42.4005990" lon="-2.6152520">
        <ele>658.8</ele>
        <time>2022-06-27T07:17:44Z</time>
      </trkpt>
      <trkpt lat="42.4006160" lon="-2.6153630">
        <ele>658.0</ele>
        <time>2022-06-27T07:17:45Z</time>
      </trkpt>
      <trkpt lat="42.4006340" lon="-2.6154770">
        <ele>657.8</ele>
        <time>2022-06-27T07:17:46Z</time>
      </trkpt>
      <trkpt lat="42.4006520" lon="-2.6155940">
        <ele>657.4</ele>
        <time>2022-06-27T07:17:47Z</time>
      </trkpt>
      <trkpt lat="42.4006680" lon="-2.6157110">
        <ele>656.8</ele>
        <time>2022-06-27T07:17:48Z</time>
      </trkpt>
      <trkpt lat="42.4006880" lon="-2.6158300">
        <ele>656.4</ele>
        <time>2022-06-27T07:17:49Z</time>
      </trkpt>
      <trkpt lat="42.4007100" lon="-2.6159520">
        <ele>655.8</ele>
        <time>2022-06-27T07:17:50Z</time>
      </trkpt>
      <trkpt lat="42.4007320" lon="-2.6160740">
        <ele>655.6</ele>
        <time>2022-06-27T07:17:51Z</time>
      </trkpt>
      <trkpt lat="42.4007550" lon="-2.6161980">
        <ele>655.0</ele>
        <time>2022-06-27T07:17:52Z</time>
      </trkpt>
      <trkpt lat="42.4007810" lon="-2.6163200">
        <ele>654.8</ele>
        <time>2022-06-27T07:17:53Z</time>
      </trkpt>
      <trkpt lat="42.4008130" lon="-2.6164400">
        <ele>654.2</ele>
        <time>2022-06-27T07:17:54Z</time>
      </trkpt>
      <trkpt lat="42.4008520" lon="-2.6165580">
        <ele>653.6</ele>
        <time>2022-06-27T07:17:55Z</time>
      </trkpt>
      <trkpt lat="42.4008980" lon="-2.6166700">
        <ele>653.4</ele>
        <time>2022-06-27T07:17:56Z</time>
      </trkpt>
      <trkpt lat="42.4009470" lon="-2.6167800">
        <ele>652.8</ele>
        <time>2022-06-27T07:17:57Z</time>
      </trkpt>
      <trkpt lat="42.4010020" lon="-2.6168860">
        <ele>652.4</ele>
        <time>2022-06-27T07:17:58Z</time>
      </trkpt>
      <trkpt lat="42.4010570" lon="-2.6169910">
        <ele>651.8</ele>
        <time>2022-06-27T07:17:59Z</time>
      </trkpt>
      <trkpt lat="42.4011130" lon="-2.6170950">
        <ele>651.6</ele>
        <time>2022-06-27T07:18:00Z</time>
      </trkpt>
      <trkpt lat="42.4011720" lon="-2.6171980">
        <ele>651.0</ele>
        <time>2022-06-27T07:18:01Z</time>
      </trkpt>
      <trkpt lat="42.4012300" lon="-2.6173000">
        <ele>650.4</ele>
        <time>2022-06-27T07:18:02Z</time>
      </trkpt>
      <trkpt lat="42.4012890" lon="-2.6174000">
        <ele>650.2</ele>
        <time>2022-06-27T07:18:03Z</time>
      </trkpt>
      <trkpt lat="42.4013490" lon="-2.6175000">
        <ele>649.6</ele>
        <time>2022-06-27T07:18:04Z</time>
      </trkpt>
      <trkpt lat="42.4014100" lon="-2.6175990">
        <ele>649.0</ele>
        <time>2022-06-27T07:18:05Z</time>
      </trkpt>
      <trkpt lat="42.4014710" lon="-2.6176980">
        <ele>648.4</ele>
        <time>2022-06-27T07:18:06Z</time>
      </trkpt>
      <trkpt lat="42.4015320" lon="-2.6177980">
        <ele>648.0</ele>
        <time>2022-06-27T07:18:07Z</time>
      </trkpt>
      <trkpt lat="42.4015930" lon="-2.6178960">
        <ele>647.4</ele>
        <time>2022-06-27T07:18:08Z</time>
      </trkpt>
      <trkpt lat="42.4016540" lon="-2.6179940">
        <ele>647.2</ele>
        <time>2022-06-27T07:18:09Z</time>
      </trkpt>
      <trkpt lat="42.4017120" lon="-2.6180930">
        <ele>646.8</ele>
        <time>2022-06-27T07:18:10Z</time>
      </trkpt>
      <trkpt lat="42.4017720" lon="-2.6181910">
        <ele>646.4</ele>
        <time>2022-06-27T07:18:11Z</time>
      </trkpt>
      <trkpt lat="42.4018320" lon="-2.6182880">
        <ele>646.2</ele>
        <time>2022-06-27T07:18:12Z</time>
      </trkpt>
      <trkpt lat="42.4018920" lon="-2.6183850">
        <ele>645.8</ele>
        <time>2022-06-27T07:18:13Z</time>
      </trkpt>
      <trkpt lat="42.4019520" lon="-2.6184790">
        <ele>645.6</ele>
        <time>2022-06-27T07:18:14Z</time>
      </trkpt>
      <trkpt lat="42.4020130" lon="-2.6185750">
        <ele>645.6</ele>
        <time>2022-06-27T07:18:15Z</time>
      </trkpt>
      <trkpt lat="42.4020700" lon="-2.6186710">
        <ele>645.6</ele>
        <time>2022-06-27T07:18:16Z</time>
      </trkpt>
      <trkpt lat="42.4021280" lon="-2.6187670">
        <ele>645.4</ele>
        <time>2022-06-27T07:18:17Z</time>
      </trkpt>
      <trkpt lat="42.4021860" lon="-2.6188630">
        <ele>645.4</ele>
        <time>2022-06-27T07:18:18Z</time>
      </trkpt>
      <trkpt lat="42.4022440" lon="-2.6189580">
        <ele>645.4</ele>
        <time>2022-06-27T07:18:19Z</time>
      </trkpt>
      <trkpt lat="42.4023000" lon="-2.6190530">
        <ele>645.2</ele>
        <time>2022-06-27T07:18:20Z</time>
      </trkpt>
      <trkpt lat="42.4023580" lon="-2.6191460">
        <ele>645.2</ele>
        <time>2022-06-27T07:18:21Z</time>
      </trkpt>
      <trkpt lat="42.4024130" lon="-2.6192400">
        <ele>645.0</ele>
        <time>2022-06-27T07:18:22Z</time>
      </trkpt>
      <trkpt lat="42.4024690" lon="-2.6193340">
        <ele>644.8</ele>
        <time>2022-06-27T07:18:23Z</time>
      </trkpt>
      <trkpt lat="42.4025250" lon="-2.6194260">
        <ele>644.8</ele>
        <time>2022-06-27T07:18:24Z</time>
      </trkpt>
      <trkpt lat="42.4025790" lon="-2.6195180">
        <ele>644.4</ele>
        <time>2022-06-27T07:18:25Z</time>
      </trkpt>
      <trkpt lat="42.4026350" lon="-2.6196120">
        <ele>644.4</ele>
        <time>2022-06-27T07:18:26Z</time>
      </trkpt>
      <trkpt lat="42.4026930" lon="-2.6197060">
        <ele>644.2</ele>
        <time>2022-06-27T07:18:27Z</time>
      </trkpt>
      <trkpt lat="42.4027480" lon="-2.6198000">
        <ele>644.2</ele>
        <time>2022-06-27T07:18:28Z</time>
      </trkpt>
      <trkpt lat="42.4028030" lon="-2.6198920">
        <ele>644.2</ele>
        <time>2022-06-27T07:18:29Z</time>
      </trkpt>
      <trkpt lat="42.4028580" lon="-2.6199870">
        <ele>644.2</ele>
        <time>2022-06-27T07:18:30Z</time>
      </trkpt>
      <trkpt lat="42.4029110" lon="-2.6200850">
        <ele>643.8</ele>
        <time>2022-06-27T07:18:31Z</time>
      </trkpt>
      <trkpt lat="42.4029620" lon="-2.6201900">
        <ele>643.2</ele>
        <time>2022-06-27T07:18:32Z</time>
      </trkpt>
      <trkpt lat="42.4030080" lon="-2.6203000">
        <ele>643.0</ele>
        <time>2022-06-27T07:18:33Z</time>
      </trkpt>
      <trkpt lat="42.4030490" lon="-2.6204170">
        <ele>642.6</ele>
        <time>2022-06-27T07:18:34Z</time>
      </trkpt>
      <trkpt lat="42.4030850" lon="-2.6205400">
        <ele>642.6</ele>
        <time>2022-06-27T07:18:35Z</time>
      </trkpt>
      <trkpt lat="42.4031150" lon="-2.6206660">
        <ele>642.4</ele>
        <time>2022-06-27T07:18:36Z</time>
      </trkpt>
      <trkpt lat="42.4031390" lon="-2.6207970">
        <ele>642.2</ele>
        <time>2022-06-27T07:18:37Z</time>
      </trkpt>
      <trkpt lat="42.4031560" lon="-2.6209330">
        <ele>642.0</ele>
        <time>2022-06-27T07:18:38Z</time>
      </trkpt>
      <trkpt lat="42.4031670" lon="-2.6210720">
        <ele>641.6</ele>
        <time>2022-06-27T07:18:39Z</time>
      </trkpt>
      <trkpt lat="42.4031750" lon="-2.6212120">
        <ele>641.2</ele>
        <time>2022-06-27T07:18:40Z</time>
      </trkpt>
      <trkpt lat="42.4031790" lon="-2.6213550">
        <ele>640.8</ele>
        <time>2022-06-27T07:18:41Z</time>
      </trkpt>
      <trkpt lat="42.4031830" lon="-2.6214970">
        <ele>640.6</ele>
        <time>2022-06-27T07:18:42Z</time>
      </trkpt>
      <trkpt lat="42.4031860" lon="-2.6216390">
        <ele>639.8</ele>
        <time>2022-06-27T07:18:43Z</time>
      </trkpt>
      <trkpt lat="42.4031980" lon="-2.6217750">
        <ele>639.4</ele>
        <time>2022-06-27T07:18:44Z</time>
      </trkpt>
      <trkpt lat="42.4032150" lon="-2.6219060">
        <ele>639.0</ele>
        <time>2022-06-27T07:18:45Z</time>
      </trkpt>
      <trkpt lat="42.4032420" lon="-2.6220370">
        <ele>638.6</ele>
        <time>2022-06-27T07:18:46Z</time>
      </trkpt>
      <trkpt lat="42.4032770" lon="-2.6221590">
        <ele>637.2</ele>
        <time>2022-06-27T07:18:47Z</time>
      </trkpt>
      <trkpt lat="42.4033220" lon="-2.6222710">
        <ele>636.4</ele>
        <time>2022-06-27T07:18:48Z</time>
      </trkpt>
      <trkpt lat="42.4033770" lon="-2.6223730">
        <ele>636.0</ele>
        <time>2022-06-27T07:18:49Z</time>
      </trkpt>
      <trkpt lat="42.4034390" lon="-2.6224690">
        <ele>635.4</ele>
        <time>2022-06-27T07:18:50Z</time>
      </trkpt>
      <trkpt lat="42.4035010" lon="-2.6225600">
        <ele>635.0</ele>
        <time>2022-06-27T07:18:51Z</time>
      </trkpt>
      <trkpt lat="42.4035640" lon="-2.6226500">
        <ele>634.4</ele>
        <time>2022-06-27T07:18:52Z</time>
      </trkpt>
      <trkpt lat="42.4036290" lon="-2.6227360">
        <ele>634.0</ele>
        <time>2022-06-27T07:18:53Z</time>
      </trkpt>
      <trkpt lat="42.4036970" lon="-2.6228240">
        <ele>633.6</ele>
        <time>2022-06-27T07:18:54Z</time>
      </trkpt>
      <trkpt lat="42.4037640" lon="-2.6229160">
        <ele>633.2</ele>
        <time>2022-06-27T07:18:55Z</time>
      </trkpt>
      <trkpt lat="42.4038320" lon="-2.6230120">
        <ele>633.0</ele>
        <time>2022-06-27T07:18:56Z</time>
      </trkpt>
      <trkpt lat="42.4039030" lon="-2.6231070">
        <ele>632.8</ele>
        <time>2022-06-27T07:18:57Z</time>
      </trkpt>
      <trkpt lat="42.4039740" lon="-2.6232020">
        <ele>632.2</ele>
        <time>2022-06-27T07:18:58Z</time>
      </trkpt>
      <trkpt lat="42.4040460" lon="-2.6233020">
        <ele>631.6</ele>
        <time>2022-06-27T07:18:59Z</time>
      </trkpt>
      <trkpt lat="42.4041200" lon="-2.6234040">
        <ele>631.4</ele>
        <time>2022-06-27T07:19:00Z</time>
      </trkpt>
      <trkpt lat="42.4041950" lon="-2.6235080">
        <ele>631.0</ele>
        <time>2022-06-27T07:19:01Z</time>
      </trkpt>
      <trkpt lat="42.4042570" lon="-2.6235940">
        <ele>630.8</ele>
        <time>2022-06-27T07:19:02Z</time>
      </trkpt>
      <trkpt lat="42.4043320" lon="-2.6237010">
        <ele>630.2</ele>
        <time>2022-06-27T07:19:03Z</time>
      </trkpt>
      <trkpt lat="42.4044220" lon="-2.6238290">
        <ele>629.8</ele>
        <time>2022-06-27T07:19:04Z</time>
      </trkpt>
      <trkpt lat="42.4044980" lon="-2.6239340">
        <ele>629.6</ele>
        <time>2022-06-27T07:19:05Z</time>
      </trkpt>
      <trkpt lat="42.4045760" lon="-2.6240360">
        <ele>628.8</ele>
        <time>2022-06-27T07:19:06Z</time>
      </trkpt>
      <trkpt lat="42.4046540" lon="-2.6241310">
        <ele>628.4</ele>
        <time>2022-06-27T07:19:07Z</time>
      </trkpt>
      <trkpt lat="42.4047340" lon="-2.6242200">
        <ele>627.6</ele>
        <time>2022-06-27T07:19:08Z</time>
      </trkpt>
      <trkpt lat="42.4048140" lon="-2.6243060">
        <ele>627.4</ele>
        <time>2022-06-27T07:19:09Z</time>
      </trkpt>
      <trkpt lat="42.4048910" lon="-2.6243920">
        <ele>626.8</ele>
        <time>2022-06-27T07:19:10Z</time>
      </trkpt>
      <trkpt lat="42.4049660" lon="-2.6244750">
        <ele>626.6</ele>
        <time>2022-06-27T07:19:11Z</time>
      </trkpt>
      <trkpt lat="42.4050380" lon="-2.6245540">
        <ele>626.6</ele>
        <time>2022-06-27T07:19:12Z</time>
      </trkpt>
      <trkpt lat="42.4051080" lon="-2.6246300">
        <ele>626.4</ele>
        <time>2022-06-27T07:19:13Z</time>
      </trkpt>
      <trkpt lat="42.4051770" lon="-2.6247020">
        <ele>626.4</ele>
        <time>2022-06-27T07:19:14Z</time>
      </trkpt>
      <trkpt lat="42.4052430" lon="-2.6247730">
        <ele>626.2</ele>
        <time>2022-06-27T07:19:15Z</time>
      </trkpt>
      <trkpt lat="42.4053050" lon="-2.6248430">
        <ele>626.2</ele>
        <time>2022-06-27T07:19:16Z</time>
      </trkpt>
      <trkpt lat="42.4053620" lon="-2.6249120">
        <ele>626.2</ele>
        <time>2022-06-27T07:19:17Z</time>
      </trkpt>
      <trkpt lat="42.4054150" lon="-2.6249810">
        <ele>626.2</ele>
        <time>2022-06-27T07:19:18Z</time>
      </trkpt>
      <trkpt lat="42.4054650" lon="-2.6250490">
        <ele>626.2</ele>
        <time>2022-06-27T07:19:19Z</time>
      </trkpt>
      <trkpt lat="42.4055130" lon="-2.6251200">
        <ele>626.2</ele>
        <time>2022-06-27T07:19:20Z</time>
      </trkpt>
      <trkpt lat="42.4055560" lon="-2.6251910">
        <ele>626.2</ele>
        <time>2022-06-27T07:19:21Z</time>
      </trkpt>
      <trkpt lat="42.4055970" lon="-2.6252660">
        <ele>626.4</ele>
        <time>2022-06-27T07:19:22Z</time>
      </trkpt>
      <trkpt lat="42.4056340" lon="-2.6253420">
        <ele>626.4</ele>
        <time>2022-06-27T07:19:23Z</time>
      </trkpt>
      <trkpt lat="42.4056710" lon="-2.6254140">
        <ele>626.6</ele>
        <time>2022-06-27T07:19:24Z</time>
      </trkpt>
      <trkpt lat="42.4057080" lon="-2.6254850">
        <ele>626.6</ele>
        <time>2022-06-27T07:19:25Z</time>
      </trkpt>
      <trkpt lat="42.4057380" lon="-2.6255410">
        <ele>626.8</ele>
        <time>2022-06-27T07:19:26Z</time>
      </trkpt>
      <trkpt lat="42.4057850" lon="-2.6256240">
        <ele>626.8</ele>
        <time>2022-06-27T07:19:27Z</time>
      </trkpt>
      <trkpt lat="42.4058170" lon="-2.6256800">
        <ele>626.8</ele>
        <time>2022-06-27T07:19:28Z</time>
      </trkpt>
      <trkpt lat="42.4058660" lon="-2.6257630">
        <ele>626.8</ele>
        <time>2022-06-27T07:19:29Z</time>
      </trkpt>
      <trkpt lat="42.4059030" lon="-2.6258140">
        <ele>626.8</ele>
        <time>2022-06-27T07:19:30Z</time>
      </trkpt>
      <trkpt lat="42.4059550" lon="-2.6258710">
        <ele>626.8</ele>
        <time>2022-06-27T07:19:31Z</time>
      </trkpt>
      <trkpt lat="42.4060280" lon="-2.6259320">
        <ele>626.8</ele>
        <time>2022-06-27T07:19:32Z</time>
      </trkpt>
      <trkpt lat="42.4060820" lon="-2.6259640">
        <ele>626.8</ele>
        <time>2022-06-27T07:19:33Z</time>
      </trkpt>
      <trkpt lat="42.4061700" lon="-2.6259960">
        <ele>626.6</ele>
        <time>2022-06-27T07:19:34Z</time>
      </trkpt>
      <trkpt lat="42.4062500" lon="-2.6260060">
        <ele>626.6</ele>
        <time>2022-06-27T07:19:35Z</time>
      </trkpt>
      <trkpt lat="42.4063330" lon="-2.6260110">
        <ele>626.4</ele>
        <time>2022-06-27T07:19:36Z</time>
      </trkpt>
      <trkpt lat="42.4064180" lon="-2.6260180">
        <ele>626.4</ele>
        <time>2022-06-27T07:19:37Z</time>
      </trkpt>
      <trkpt lat="42.4065060" lon="-2.6260270">
        <ele>626.0</ele>
        <time>2022-06-27T07:19:38Z</time>
      </trkpt>
      <trkpt lat="42.4065980" lon="-2.6260380">
        <ele>625.6</ele>
        <time>2022-06-27T07:19:39Z</time>
      </trkpt>
      <trkpt lat="42.4066920" lon="-2.6260480">
        <ele>625.0</ele>
        <time>2022-06-27T07:19:40Z</time>
      </trkpt>
      <trkpt lat="42.4067900" lon="-2.6260590">
        <ele>624.4</ele>
        <time>2022-06-27T07:19:41Z</time>
      </trkpt>
      <trkpt lat="42.4068900" lon="-2.6260750">
        <ele>624.2</ele>
        <time>2022-06-27T07:19:42Z</time>
      </trkpt>
      <trkpt lat="42.4069910" lon="-2.6260980">
        <ele>623.4</ele>
        <time>2022-06-27T07:19:43Z</time>
      </trkpt>
      <trkpt lat="42.4070930" lon="-2.6261270">
        <ele>623.0</ele>
        <time>2022-06-27T07:19:44Z</time>
      </trkpt>
      <trkpt lat="42.4071950" lon="-2.6261620">
        <ele>622.2</ele>
        <time>2022-06-27T07:19:45Z</time>
      </trkpt>
      <trkpt lat="42.4072970" lon="-2.6262010">
        <ele>622.0</ele>
        <time>2022-06-27T07:19:46Z</time>
      </trkpt>
      <trkpt lat="42.4074010" lon="-2.6262410">
        <ele>621.6</ele>
        <time>2022-06-27T07:19:47Z</time>
      </trkpt>
      <trkpt lat="42.4075060" lon="-2.6262840">
        <ele>621.2</ele>
        <time>2022-06-27T07:19:48Z</time>
      </trkpt>
      <trkpt lat="42.4076150" lon="-2.6263280">
        <ele>620.8</ele>
        <time>2022-06-27T07:19:49Z</time>
      </trkpt>
      <trkpt lat="42.4077270" lon="-2.6263720">
        <ele>619.8</ele>
        <time>2022-06-27T07:19:50Z</time>
      </trkpt>
      <trkpt lat="42.4078380" lon="-2.6264210">
        <ele>619.2</ele>
        <time>2022-06-27T07:19:51Z</time>
      </trkpt>
      <trkpt lat="42.4079510" lon="-2.6264680">
        <ele>618.6</ele>
        <time>2022-06-27T07:19:52Z</time>
      </trkpt>
      <trkpt lat="42.4080650" lon="-2.6265170">
        <ele>618.2</ele>
        <time>2022-06-27T07:19:53Z</time>
      </trkpt>
      <trkpt lat="42.4081800" lon="-2.6265680">
        <ele>618.0</ele>
        <time>2022-06-27T07:19:54Z</time>
      </trkpt>
      <trkpt lat="42.4082950" lon="-2.6266150">
        <ele>617.6</ele>
        <time>2022-06-27T07:19:55Z</time>
      </trkpt>
      <trkpt lat="42.4084080" lon="-2.6266630">
        <ele>616.8</ele>
        <time>2022-06-27T07:19:56Z</time>
      </trkpt>
      <trkpt lat="42.4085170" lon="-2.6267170">
        <ele>616.0</ele>
        <time>2022-06-27T07:19:57Z</time>
      </trkpt>
      <trkpt lat="42.4086240" lon="-2.6267710">
        <ele>615.6</ele>
        <time>2022-06-27T07:19:58Z</time>
      </trkpt>
      <trkpt lat="42.4087250" lon="-2.6268250">
        <ele>614.6</ele>
        <time>2022-06-27T07:19:59Z</time>
      </trkpt>
      <trkpt lat="42.4088210" lon="-2.6268840">
        <ele>614.2</ele>
        <time>2022-06-27T07:20:00Z</time>
      </trkpt>
      <trkpt lat="42.4089130" lon="-2.6269460">
        <ele>613.2</ele>
        <time>2022-06-27T07:20:01Z</time>
      </trkpt>
      <trkpt lat="42.4089980" lon="-2.6270090">
        <ele>613.0</ele>
        <time>2022-06-27T07:20:02Z</time>
      </trkpt>
      <trkpt lat="42.4090810" lon="-2.6270740">
        <ele>612.0</ele>
        <time>2022-06-27T07:20:03Z</time>
      </trkpt>
      <trkpt lat="42.4091620" lon="-2.6271400">
        <ele>611.6</ele>
        <time>2022-06-27T07:20:04Z</time>
      </trkpt>
      <trkpt lat="42.4092400" lon="-2.6272060">
        <ele>611.6</ele>
        <time>2022-06-27T07:20:05Z</time>
      </trkpt>
      <trkpt lat="42.4093190" lon="-2.6272710">
        <ele>611.4</ele>
        <time>2022-06-27T07:20:06Z</time>
      </trkpt>
      <trkpt lat="42.4093980" lon="-2.6273310">
        <ele>611.4</ele>
        <time>2022-06-27T07:20:07Z</time>
      </trkpt>
      <trkpt lat="42.4094780" lon="-2.6273870">
        <ele>611.2</ele>
        <time>2022-06-27T07:20:08Z</time>
      </trkpt>
      <trkpt lat="42.4095590" lon="-2.6274400">
        <ele>611.2</ele>
        <time>2022-06-27T07:20:09Z</time>
      </trkpt>
      <trkpt lat="42.4096400" lon="-2.6274910">
        <ele>611.2</ele>
        <time>2022-06-27T07:20:10Z</time>
      </trkpt>
      <trkpt lat="42.4097240" lon="-2.6275370">
        <ele>611.2</ele>
        <time>2022-06-27T07:20:11Z</time>
      </trkpt>
      <trkpt lat="42.4098110" lon="-2.6275780">
        <ele>611.4</ele>
        <time>2022-06-27T07:20:12Z</time>
      </trkpt>
      <trkpt lat="42.4099000" lon="-2.6276210">
        <ele>611.4</ele>
        <time>2022-06-27T07:20:13Z</time>
      </trkpt>
      <trkpt lat="42.4099880" lon="-2.6276640">
        <ele>611.4</ele>
        <time>2022-06-27T07:20:14Z</time>
      </trkpt>
      <trkpt lat="42.4100770" lon="-2.6277060">
        <ele>611.6</ele>
        <time>2022-06-27T07:20:15Z</time>
      </trkpt>
      <trkpt lat="42.4101660" lon="-2.6277450">
        <ele>611.6</ele>
        <time>2022-06-27T07:20:16Z</time>
      </trkpt>
      <trkpt lat="42.4102550" lon="-2.6277820">
        <ele>611.6</ele>
        <time>2022-06-27T07:20:17Z</time>
      </trkpt>
      <trkpt lat="42.4103420" lon="-2.6278170">
        <ele>611.4</ele>
        <time>2022-06-27T07:20:18Z</time>
      </trkpt>
      <trkpt lat="42.4104300" lon="-2.6278530">
        <ele>611.0</ele>
        <time>2022-06-27T07:20:19Z</time>
      </trkpt>
      <trkpt lat="42.4105160" lon="-2.6278850">
        <ele>610.6</ele>
        <time>2022-06-27T07:20:20Z</time>
      </trkpt>
      <trkpt lat="42.4106010" lon="-2.6279130">
        <ele>610.6</ele>
        <time>2022-06-27T07:20:21Z</time>
      </trkpt>
      <trkpt lat="42.4106850" lon="-2.6279390">
        <ele>610.0</ele>
        <time>2022-06-27T07:20:22Z</time>
      </trkpt>
      <trkpt lat="42.4107680" lon="-2.6279620">
        <ele>610.0</ele>
        <time>2022-06-27T07:20:23Z</time>
      </trkpt>
      <trkpt lat="42.4108490" lon="-2.6279820">
        <ele>609.6</ele>
        <time>2022-06-27T07:20:24Z</time>
      </trkpt>
      <trkpt lat="42.4109280" lon="-2.6279970">
        <ele>609.4</ele>
        <time>2022-06-27T07:20:25Z</time>
      </trkpt>
      <trkpt lat="42.4110040" lon="-2.6280050">
        <ele>609.4</ele>
        <time>2022-06-27T07:20:26Z</time>
      </trkpt>
      <trkpt lat="42.4110770" lon="-2.6280110">
        <ele>609.2</ele>
        <time>2022-06-27T07:20:27Z</time>
      </trkpt>
      <trkpt lat="42.4111490" lon="-2.6280140">
        <ele>609.2</ele>
        <time>2022-06-27T07:20:28Z</time>
      </trkpt>
      <trkpt lat="42.4112200" lon="-2.6280130">
        <ele>609.2</ele>
        <time>2022-06-27T07:20:29Z</time>
      </trkpt>
      <trkpt lat="42.4112900" lon="-2.6280130">
        <ele>609.2</ele>
        <time>2022-06-27T07:20:30Z</time>
      </trkpt>
      <trkpt lat="42.4113570" lon="-2.6280160">
        <ele>609.2</ele>
        <time>2022-06-27T07:20:31Z</time>
      </trkpt>
      <trkpt lat="42.4114220" lon="-2.6280190">
        <ele>609.2</ele>
        <time>2022-06-27T07:20:32Z</time>
      </trkpt>
      <trkpt lat="42.4114840" lon="-2.6280200">
        <ele>609.4</ele>
        <time>2022-06-27T07:20:33Z</time>
      </trkpt>
      <trkpt lat="42.4115430" lon="-2.6280210">
        <ele>609.6</ele>
        <time>2022-06-27T07:20:34Z</time>
      </trkpt>
      <trkpt lat="42.4115990" lon="-2.6280210">
        <ele>609.6</ele>
        <time>2022-06-27T07:20:35Z</time>
      </trkpt>
      <trkpt lat="42.4116540" lon="-2.6280210">
        <ele>610.0</ele>
        <time>2022-06-27T07:20:36Z</time>
      </trkpt>
      <trkpt lat="42.4117100" lon="-2.6280210">
        <ele>610.0</ele>
        <time>2022-06-27T07:20:37Z</time>
      </trkpt>
      <trkpt lat="42.4117640" lon="-2.6280220">
        <ele>610.4</ele>
        <time>2022-06-27T07:20:38Z</time>
      </trkpt>
      <trkpt lat="42.4118160" lon="-2.6280210">
        <ele>610.4</ele>
        <time>2022-06-27T07:20:39Z</time>
      </trkpt>
      <trkpt lat="42.4118650" lon="-2.6280180">
        <ele>610.8</ele>
        <time>2022-06-27T07:20:40Z</time>
      </trkpt>
      <trkpt lat="42.4119120" lon="-2.6280120">
        <ele>611.2</ele>
        <time>2022-06-27T07:20:41Z</time>
      </trkpt>
      <trkpt lat="42.4119550" lon="-2.6279990">
        <ele>611.2</ele>
        <time>2022-06-27T07:20:42Z</time>
      </trkpt>
      <trkpt lat="42.4119970" lon="-2.6279800">
        <ele>611.4</ele>
        <time>2022-06-27T07:20:43Z</time>
      </trkpt>
      <trkpt lat="42.4120350" lon="-2.6279500">
        <ele>611.6</ele>
        <time>2022-06-27T07:20:44Z</time>
      </trkpt>
      <trkpt lat="42.4120750" lon="-2.6279130">
        <ele>611.8</ele>
        <time>2022-06-27T07:20:45Z</time>
      </trkpt>
      <trkpt lat="42.4121040" lon="-2.6278760">
        <ele>612.0</ele>
        <time>2022-06-27T07:20:46Z</time>
      </trkpt>
      <trkpt lat="42.4121170" lon="-2.6278470">
        <ele>612.2</ele>
        <time>2022-06-27T07:20:47Z</time>
      </trkpt>
      <trkpt lat="42.4121240" lon="-2.6278210">
        <ele>612.4</ele>
        <time>2022-06-27T07:20:48Z</time>
      </trkpt>
      <trkpt lat="42.4121350" lon="-2.6277890">
        <ele>612.6</ele>
        <time>2022-06-27T07:20:49Z</time>
      </trkpt>
      <trkpt lat="42.4121520" lon="-2.6277590">
        <ele>612.6</ele>
        <time>2022-06-27T07:20:50Z</time>
      </trkpt>
      <trkpt lat="42.4121740" lon="-2.6277270">
        <ele>612.6</ele>
        <time>2022-06-27T07:20:51Z</time>
      </trkpt>
      <trkpt lat="42.4122000" lon="-2.6276920">
        <ele>612.6</ele>
        <time>2022-06-27T07:20:52Z</time>
      </trkpt>
      <trkpt lat="42.4122310" lon="-2.6276600">
        <ele>612.6</ele>
        <time>2022-06-27T07:20:53Z</time>
      </trkpt>
      <trkpt lat="42.4122680" lon="-2.6276350">
        <ele>612.8</ele>
        <time>2022-06-27T07:20:54Z</time>
      </trkpt>
      <trkpt lat="42.4123060" lon="-2.6276240">
        <ele>612.8</ele>
        <time>2022-06-27T07:20:55Z</time>
      </trkpt>
      <trkpt lat="42.4123440" lon="-2.6276220">
        <ele>612.8</ele>
        <time>2022-06-27T07:20:56Z</time>
      </trkpt>
      <trkpt lat="42.4123800" lon="-2.6276290">
        <ele>612.8</ele>
        <time>2022-06-27T07:20:57Z</time>
      </trkpt>
      <trkpt lat="42.4124150" lon="-2.6276440">
        <ele>612.8</ele>
        <time>2022-06-27T07:20:58Z</time>
      </trkpt>
      <trkpt lat="42.4124490" lon="-2.6276640">
        <ele>613.0</ele>
        <time>2022-06-27T07:20:59Z</time>
      </trkpt>
      <trkpt lat="42.4124790" lon="-2.6276870">
        <ele>613.2</ele>
        <time>2022-06-27T07:21:00Z</time>
      </trkpt>
      <trkpt lat="42.4125060" lon="-2.6277200">
        <ele>613.2</ele>
        <time>2022-06-27T07:21:01Z</time>
      </trkpt>
      <trkpt lat="42.4125250" lon="-2.6277600">
        <ele>613.2</ele>
        <time>2022-06-27T07:21:02Z</time>
      </trkpt>
      <trkpt lat="42.4125380" lon="-2.6278080">
        <ele>613.4</ele>
        <time>2022-06-27T07:21:03Z</time>
      </trkpt>
      <trkpt lat="42.4125460" lon="-2.6278590">
        <ele>613.4</ele>
        <time>2022-06-27T07:21:04Z</time>
      </trkpt>
      <trkpt lat="42.4125520" lon="-2.6279120">
        <ele>613.4</ele>
        <time>2022-06-27T07:21:05Z</time>
      </trkpt>
      <trkpt lat="42.4125470" lon="-2.6279690">
        <ele>613.8</ele>
        <time>2022-06-27T07:21:06Z</time>
      </trkpt>
      <trkpt lat="42.4125350" lon="-2.6280230">
        <ele>613.8</ele>
        <time>2022-06-27T07:21:07Z</time>
      </trkpt>
      <trkpt lat="42.4125140" lon="-2.6280740">
        <ele>614.0</ele>
        <time>2022-06-27T07:21:08Z</time>
      </trkpt>
      <trkpt lat="42.4124890" lon="-2.6281220">
        <ele>614.0</ele>
        <time>2022-06-27T07:21:09Z</time>
      </trkpt>
      <trkpt lat="42.4124620" lon="-2.6281660">
        <ele>614.2</ele>
        <time>2022-06-27T07:21:10Z</time>
      </trkpt>
      <trkpt lat="42.4124320" lon="-2.6282100">
        <ele>614.2</ele>
        <time>2022-06-27T07:21:11Z</time>
      </trkpt>
      <trkpt lat="42.4124050" lon="-2.6282580">
        <ele>614.2</ele>
        <time>2022-06-27T07:21:12Z</time>
      </trkpt>
      <trkpt lat="42.4123870" lon="-2.6283020">
        <ele>614.2</ele>
        <time>2022-06-27T07:21:13Z</time>
      </trkpt>
      <trkpt lat="42.4123680" lon="-2.6283600">
        <ele>614.2</ele>
        <time>2022-06-27T07:21:14Z</time>
      </trkpt>
      <trkpt lat="42.4123510" lon="-2.6284230">
        <ele>614.2</ele>
        <time>2022-06-27T07:21:15Z</time>
      </trkpt>
      <trkpt lat="42.4123380" lon="-2.6285020">
        <ele>614.0</ele>
        <time>2022-06-27T07:21:16Z</time>
      </trkpt>
      <trkpt lat="42.4123390" lon="-2.6285730">
        <ele>614.0</ele>
        <time>2022-06-27T07:21:17Z</time>
      </trkpt>
      <trkpt lat="42.4123500" lon="-2.6286450">
        <ele>614.0</ele>
        <time>2022-06-27T07:21:18Z</time>
      </trkpt>
      <trkpt lat="42.4123680" lon="-2.6287170">
        <ele>613.8</ele>
        <time>2022-06-27T07:21:19Z</time>
      </trkpt>
      <trkpt lat="42.4123920" lon="-2.6287890">
        <ele>613.8</ele>
        <time>2022-06-27T07:21:20Z</time>
      </trkpt>
      <trkpt lat="42.4124250" lon="-2.6288580">
        <ele>613.6</ele>
        <time>2022-06-27T07:21:21Z</time>
      </trkpt>
      <trkpt lat="42.4124660" lon="-2.6289250">
        <ele>613.6</ele>
        <time>2022-06-27T07:21:22Z</time>
      </trkpt>
      <trkpt lat="42.4125110" lon="-2.6289870">
        <ele>613.4</ele>
        <time>2022-06-27T07:21:23Z</time>
      </trkpt>
      <trkpt lat="42.4125640" lon="-2.6290430">
        <ele>613.4</ele>
        <time>2022-06-27T07:21:24Z</time>
      </trkpt>
      <trkpt lat="42.4126230" lon="-2.6290910">
        <ele>613.4</ele>
        <time>2022-06-27T07:21:25Z</time>
      </trkpt>
      <trkpt lat="42.4126860" lon="-2.6291300">
        <ele>613.4</ele>
        <time>2022-06-27T07:21:26Z</time>
      </trkpt>
      <trkpt lat="42.4127520" lon="-2.6291630">
        <ele>613.2</ele>
        <time>2022-06-27T07:21:27Z</time>
      </trkpt>
      <trkpt lat="42.4128190" lon="-2.6291930">
        <ele>613.2</ele>
        <time>2022-06-27T07:21:28Z</time>
      </trkpt>
      <trkpt lat="42.4128870" lon="-2.6292250">
        <ele>612.8</ele>
        <time>2022-06-27T07:21:29Z</time>
      </trkpt>
      <trkpt lat="42.4129550" lon="-2.6292590">
        <ele>612.8</ele>
        <time>2022-06-27T07:21:30Z</time>
      </trkpt>
      <trkpt lat="42.4130200" lon="-2.6292990">
        <ele>612.6</ele>
        <time>2022-06-27T07:21:31Z</time>
      </trkpt>
      <trkpt lat="42.4130860" lon="-2.6293440">
        <ele>612.6</ele>
        <time>2022-06-27T07:21:32Z</time>
      </trkpt>
      <trkpt lat="42.4131480" lon="-2.6293980">
        <ele>612.2</ele>
        <time>2022-06-27T07:21:33Z</time>
      </trkpt>
      <trkpt lat="42.4132060" lon="-2.6294600">
        <ele>612.0</ele>
        <time>2022-06-27T07:21:34Z</time>
      </trkpt>
      <trkpt lat="42.4132600" lon="-2.6295280">
        <ele>611.8</ele>
        <time>2022-06-27T07:21:35Z</time>
      </trkpt>
      <trkpt lat="42.4133080" lon="-2.6296020">
        <ele>611.6</ele>
        <time>2022-06-27T07:21:36Z</time>
      </trkpt>
      <trkpt lat="42.4133440" lon="-2.6296620">
        <ele>611.4</ele>
        <time>2022-06-27T07:21:37Z</time>
      </trkpt>
      <trkpt lat="42.4133850" lon="-2.6297370">
        <ele>611.2</ele>
        <time>2022-06-27T07:21:38Z</time>
      </trkpt>
      <trkpt lat="42.4134280" lon="-2.6298280">
        <ele>611.2</ele>
        <time>2022-06-27T07:21:39Z</time>
      </trkpt>
      <trkpt lat="42.4134600" lon="-2.6299030">
        <ele>611.0</ele>
        <time>2022-06-27T07:21:40Z</time>
      </trkpt>
      <trkpt lat="42.4134930" lon="-2.6299750">
        <ele>611.0</ele>
        <time>2022-06-27T07:21:41Z</time>
      </trkpt>
      <trkpt lat="42.4135180" lon="-2.6300310">
        <ele>610.8</ele>
        <time>2022-06-27T07:21:42Z</time>
      </trkpt>
      <trkpt lat="42.4135490" lon="-2.6301000">
        <ele>610.8</ele>
        <time>2022-06-27T07:21:43Z</time>
      </trkpt>
      <trkpt lat="42.4135830" lon="-2.6301840">
        <ele>610.8</ele>
        <time>2022-06-27T07:21:44Z</time>
      </trkpt>
      <trkpt lat="42.4136110" lon="-2.6302500">
        <ele>610.8</ele>
        <time>2022-06-27T07:21:45Z</time>
      </trkpt>
      <trkpt lat="42.4136400" lon="-2.6303130">
        <ele>610.8</ele>
        <time>2022-06-27T07:21:46Z</time>
      </trkpt>
      <trkpt lat="42.4136690" lon="-2.6303730">
        <ele>610.8</ele>
        <time>2022-06-27T07:21:47Z</time>
      </trkpt>
      <trkpt lat="42.4136990" lon="-2.6304330">
        <ele>610.8</ele>
        <time>2022-06-27T07:21:48Z</time>
      </trkpt>
      <trkpt lat="42.4137250" lon="-2.6304920">
        <ele>611.0</ele>
        <time>2022-06-27T07:21:49Z</time>
      </trkpt>
      <trkpt lat="42.4137500" lon="-2.6305490">
        <ele>611.0</ele>
        <time>2022-06-27T07:21:50Z</time>
      </trkpt>
      <trkpt lat="42.4137760" lon="-2.6306060">
        <ele>611.0</ele>
        <time>2022-06-27T07:21:51Z</time>
      </trkpt>
      <trkpt lat="42.4138020" lon="-2.6306620">
        <ele>611.2</ele>
        <time>2022-06-27T07:21:52Z</time>
      </trkpt>
      <trkpt lat="42.4138260" lon="-2.6307180">
        <ele>611.2</ele>
        <time>2022-06-27T07:21:53Z</time>
      </trkpt>
      <trkpt lat="42.4138500" lon="-2.6307740">
        <ele>611.4</ele>
        <time>2022-06-27T07:21:54Z</time>
      </trkpt>
      <trkpt lat="42.4138740" lon="-2.6308290">
        <ele>611.6</ele>
        <time>2022-06-27T07:21:55Z</time>
      </trkpt>
      <trkpt lat="42.4138970" lon="-2.6308840">
        <ele>611.8</ele>
        <time>2022-06-27T07:21:56Z</time>
      </trkpt>
      <trkpt lat="42.4139210" lon="-2.6309380">
        <ele>611.8</ele>
        <time>2022-06-27T07:21:57Z</time>
      </trkpt>
      <trkpt lat="42.4139440" lon="-2.6309930">
        <ele>612.0</ele>
        <time>2022-06-27T07:21:58Z</time>
      </trkpt>
      <trkpt lat="42.4139680" lon="-2.6310480">
        <ele>612.0</ele>
        <time>2022-06-27T07:21:59Z</time>
      </trkpt>
      <trkpt lat="42.4139910" lon="-2.6311020">
        <ele>612.2</ele>
        <time>2022-06-27T07:22:00Z</time>
      </trkpt>
      <trkpt lat="42.4140170" lon="-2.6311550">
        <ele>612.2</ele>
        <time>2022-06-27T07:22:01Z</time>
      </trkpt>
      <trkpt lat="42.4140410" lon="-2.6312090">
        <ele>612.2</ele>
        <time>2022-06-27T07:22:02Z</time>
      </trkpt>
      <trkpt lat="42.4140650" lon="-2.6312640">
        <ele>612.4</ele>
        <time>2022-06-27T07:22:03Z</time>
      </trkpt>
      <trkpt lat="42.4140900" lon="-2.6313180">
        <ele>612.6</ele>
        <time>2022-06-27T07:22:04Z</time>
      </trkpt>
      <trkpt lat="42.4141140" lon="-2.6313710">
        <ele>612.6</ele>
        <time>2022-06-27T07:22:05Z</time>
      </trkpt>
      <trkpt lat="42.4141390" lon="-2.6314250">
        <ele>612.8</ele>
        <time>2022-06-27T07:22:06Z</time>
      </trkpt>
      <trkpt lat="42.4141640" lon="-2.6314790">
        <ele>613.0</ele>
        <time>2022-06-27T07:22:07Z</time>
      </trkpt>
      <trkpt lat="42.4141880" lon="-2.6315320">
        <ele>613.2</ele>
        <time>2022-06-27T07:22:08Z</time>
      </trkpt>
      <trkpt lat="42.4142120" lon="-2.6315860">
        <ele>613.2</ele>
        <time>2022-06-27T07:22:09Z</time>
      </trkpt>
      <trkpt lat="42.4142370" lon="-2.6316410">
        <ele>613.4</ele>
        <time>2022-06-27T07:22:10Z</time>
      </trkpt>
      <trkpt lat="42.4142590" lon="-2.6316970">
        <ele>613.4</ele>
        <time>2022-06-27T07:22:11Z</time>
      </trkpt>
      <trkpt lat="42.4142830" lon="-2.6317520">
        <ele>613.6</ele>
        <time>2022-06-27T07:22:12Z</time>
      </trkpt>
      <trkpt lat="42.4143070" lon="-2.6318060">
        <ele>613.6</ele>
        <time>2022-06-27T07:22:13Z</time>
      </trkpt>
      <trkpt lat="42.4143310" lon="-2.6318590">
        <ele>613.6</ele>
        <time>2022-06-27T07:22:14Z</time>
      </trkpt>
      <trkpt lat="42.4143560" lon="-2.6319120">
        <ele>613.8</ele>
        <time>2022-06-27T07:22:15Z</time>
      </trkpt>
      <trkpt lat="42.4143790" lon="-2.6319680">
        <ele>613.8</ele>
        <time>2022-06-27T07:22:16Z</time>
      </trkpt>
      <trkpt lat="42.4144020" lon="-2.6320220">
        <ele>614.0</ele>
        <time>2022-06-27T07:22:17Z</time>
      </trkpt>
      <trkpt lat="42.4144260" lon="-2.6320770">
        <ele>614.2</ele>
        <time>2022-06-27T07:22:18Z</time>
      </trkpt>
      <trkpt lat="42.4144500" lon="-2.6321300">
        <ele>614.4</ele>
        <time>2022-06-27T07:22:19Z</time>
      </trkpt>
      <trkpt lat="42.4144750" lon="-2.6321840">
        <ele>614.4</ele>
        <time>2022-06-27T07:22:20Z</time>
      </trkpt>
      <trkpt lat="42.4144990" lon="-2.6322390">
        <ele>614.6</ele>
        <time>2022-06-27T07:22:21Z</time>
      </trkpt>
      <trkpt lat="42.4145240" lon="-2.6322940">
        <ele>614.6</ele>
        <time>2022-06-27T07:22:22Z</time>
      </trkpt>
      <trkpt lat="42.4145490" lon="-2.6323480">
        <ele>614.8</ele>
        <time>2022-06-27T07:22:23Z</time>
      </trkpt>
      <trkpt lat="42.4145740" lon="-2.6324010">
        <ele>614.8</ele>
        <time>2022-06-27T07:22:24Z</time>
      </trkpt>
      <trkpt lat="42.4145980" lon="-2.6324540">
        <ele>614.8</ele>
        <time>2022-06-27T07:22:25Z</time>
      </trkpt>
      <trkpt lat="42.4146220" lon="-2.6325100">
        <ele>615.0</ele>
        <time>2022-06-27T07:22:26Z</time>
      </trkpt>
      <trkpt lat="42.4146460" lon="-2.6325640">
        <ele>615.0</ele>
        <time>2022-06-27T07:22:27Z</time>
      </trkpt>
      <trkpt lat="42.4146700" lon="-2.6326190">
        <ele>615.2</ele>
        <time>2022-06-27T07:22:28Z</time>
      </trkpt>
      <trkpt lat="42.4146930" lon="-2.6326740">
        <ele>615.4</ele>
        <time>2022-06-27T07:22:29Z</time>
      </trkpt>
      <trkpt lat="42.4147160" lon="-2.6327290">
        <ele>615.4</ele>
        <time>2022-06-27T07:22:30Z</time>
      </trkpt>
      <trkpt lat="42.4147380" lon="-2.6327820">
        <ele>615.4</ele>
        <time>2022-06-27T07:22:31Z</time>
      </trkpt>
      <trkpt lat="42.4147620" lon="-2.6328360">
        <ele>615.6</ele>
        <time>2022-06-27T07:22:32Z</time>
      </trkpt>
      <trkpt lat="42.4147850" lon="-2.6328880">
        <ele>615.6</ele>
        <time>2022-06-27T07:22:33Z</time>
      </trkpt>
      <trkpt lat="42.4148090" lon="-2.6329410">
        <ele>615.8</ele>
        <time>2022-06-27T07:22:34Z</time>
      </trkpt>
      <trkpt lat="42.4148310" lon="-2.6329940">
        <ele>616.0</ele>
        <time>2022-06-27T07:22:35Z</time>
      </trkpt>
      <trkpt lat="42.4148560" lon="-2.6330490">
        <ele>616.2</ele>
        <time>2022-06-27T07:22:36Z</time>
      </trkpt>
      <trkpt lat="42.4148800" lon="-2.6331020">
        <ele>616.4</ele>
        <time>2022-06-27T07:22:37Z</time>
      </trkpt>
      <trkpt lat="42.4149020" lon="-2.6331550">
        <ele>616.6</ele>
        <time>2022-06-27T07:22:38Z</time>
      </trkpt>
      <trkpt lat="42.4149250" lon="-2.6332050">
        <ele>616.8</ele>
        <time>2022-06-27T07:22:39Z</time>
      </trkpt>
      <trkpt lat="42.4149480" lon="-2.6332550">
        <ele>617.0</ele>
        <time>2022-06-27T07:22:40Z</time>
      </trkpt>
      <trkpt lat="42.4149710" lon="-2.6333060">
        <ele>617.0</ele>
        <time>2022-06-27T07:22:41Z</time>
      </trkpt>
      <trkpt lat="42.4149950" lon="-2.6333580">
        <ele>617.0</ele>
        <time>2022-06-27T07:22:42Z</time>
      </trkpt>
      <trkpt lat="42.4150180" lon="-2.6334100">
        <ele>617.2</ele>
        <time>2022-06-27T07:22:43Z</time>
      </trkpt>
      <trkpt lat="42.4150400" lon="-2.6334630">
        <ele>617.2</ele>
        <time>2022-06-27T07:22:44Z</time>
      </trkpt>
      <trkpt lat="42.4150620" lon="-2.6335150">
        <ele>617.4</ele>
        <time>2022-06-27T07:22:45Z</time>
      </trkpt>
      <trkpt lat="42.4150830" lon="-2.6335660">
        <ele>617.4</ele>
        <time>2022-06-27T07:22:46Z</time>
      </trkpt>
      <trkpt lat="42.4151070" lon="-2.6336170">
        <ele>617.6</ele>
        <time>2022-06-27T07:22:47Z</time>
      </trkpt>
      <trkpt lat="42.4151310" lon="-2.6336680">
        <ele>617.6</ele>
        <time>2022-06-27T07:22:48Z</time>
      </trkpt>
      <trkpt lat="42.4151540" lon="-2.6337200">
        <ele>617.8</ele>
        <time>2022-06-27T07:22:49Z</time>
      </trkpt>
      <trkpt lat="42.4151770" lon="-2.6337720">
        <ele>618.0</ele>
        <time>2022-06-27T07:22:50Z</time>
      </trkpt>
      <trkpt lat="42.4152000" lon="-2.6338240">
        <ele>618.2</ele>
        <time>2022-06-27T07:22:51Z</time>
      </trkpt>
      <trkpt lat="42.4152240" lon="-2.6338760">
        <ele>618.6</ele>
        <time>2022-06-27T07:22:52Z</time>
      </trkpt>
      <trkpt lat="42.4152470" lon="-2.6339280">
        <ele>618.6</ele>
        <time>2022-06-27T07:22:53Z</time>
      </trkpt>
      <trkpt lat="42.4152690" lon="-2.6339820">
        <ele>618.8</ele>
        <time>2022-06-27T07:22:54Z</time>
      </trkpt>
      <trkpt lat="42.4152910" lon="-2.6340360">
        <ele>618.8</ele>
        <time>2022-06-27T07:22:55Z</time>
      </trkpt>
      <trkpt lat="42.4153140" lon="-2.6340910">
        <ele>619.0</ele>
        <time>2022-06-27T07:22:56Z</time>
      </trkpt>
      <trkpt lat="42.4153370" lon="-2.6341450">
        <ele>619.0</ele>
        <time>2022-06-27T07:22:57Z</time>
      </trkpt>
      <trkpt lat="42.4153600" lon="-2.6341970">
        <ele>619.2</ele>
        <time>2022-06-27T07:22:58Z</time>
      </trkpt>
      <trkpt lat="42.4153850" lon="-2.6342490">
        <ele>619.4</ele>
        <time>2022-06-27T07:22:59Z</time>
      </trkpt>
      <trkpt lat="42.4154090" lon="-2.6343020">
        <ele>619.6</ele>
        <time>2022-06-27T07:23:00Z</time>
      </trkpt>
      <trkpt lat="42.4154330" lon="-2.6343540">
        <ele>619.6</ele>
        <time>2022-06-27T07:23:01Z</time>
      </trkpt>
      <trkpt lat="42.4154520" lon="-2.6343950">
        <ele>619.8</ele>
        <time>2022-06-27T07:23:02Z</time>
      </trkpt>
      <trkpt lat="42.4154750" lon="-2.6344490">
        <ele>620.0</ele>
        <time>2022-06-27T07:23:03Z</time>
      </trkpt>
      <trkpt lat="42.4155020" lon="-2.6345130">
        <ele>620.0</ele>
        <time>2022-06-27T07:23:04Z</time>
      </trkpt>
      <trkpt lat="42.4155250" lon="-2.6345670">
        <ele>620.2</ele>
        <time>2022-06-27T07:23:05Z</time>
      </trkpt>
      <trkpt lat="42.4155470" lon="-2.6346200">
        <ele>620.6</ele>
        <time>2022-06-27T07:23:06Z</time>
      </trkpt>
      <trkpt lat="42.4155660" lon="-2.6346620">
        <ele>620.6</ele>
        <time>2022-06-27T07:23:07Z</time>
      </trkpt>
      <trkpt lat="42.4155900" lon="-2.6347130">
        <ele>620.8</ele>
        <time>2022-06-27T07:23:08Z</time>
      </trkpt>
      <trkpt lat="42.4156160" lon="-2.6347750">
        <ele>620.8</ele>
        <time>2022-06-27T07:23:09Z</time>
      </trkpt>
      <trkpt lat="42.4156380" lon="-2.6348240">
        <ele>620.8</ele>
        <time>2022-06-27T07:23:10Z</time>
      </trkpt>
      <trkpt lat="42.4156610" lon="-2.6348760">
        <ele>621.0</ele>
        <time>2022-06-27T07:23:11Z</time>
      </trkpt>
      <trkpt lat="42.4156800" lon="-2.6349190">
        <ele>621.2</ele>
        <time>2022-06-27T07:23:12Z</time>
      </trkpt>
      <trkpt lat="42.4157070" lon="-2.6349820">
        <ele>621.4</ele>
        <time>2022-06-27T07:23:13Z</time>
      </trkpt>
      <trkpt lat="42.4157300" lon="-2.6350320">
        <ele>621.6</ele>
        <time>2022-06-27T07:23:14Z</time>
      </trkpt>
      <trkpt lat="42.4157520" lon="-2.6350850">
        <ele>621.8</ele>
        <time>2022-06-27T07:23:15Z</time>
      </trkpt>
      <trkpt lat="42.4157750" lon="-2.6351380">
        <ele>622.0</ele>
        <time>2022-06-27T07:23:16Z</time>
      </trkpt>
      <trkpt lat="42.4158000" lon="-2.6351900">
        <ele>622.0</ele>
        <time>2022-06-27T07:23:17Z</time>
      </trkpt>
      <trkpt lat="42.4158240" lon="-2.6352420">
        <ele>622.2</ele>
        <time>2022-06-27T07:23:18Z</time>
      </trkpt>
      <trkpt lat="42.4158480" lon="-2.6352910">
        <ele>622.2</ele>
        <time>2022-06-27T07:23:19Z</time>
      </trkpt>
      <trkpt lat="42.4158710" lon="-2.6353440">
        <ele>622.4</ele>
        <time>2022-06-27T07:23:20Z</time>
      </trkpt>
      <trkpt lat="42.4158940" lon="-2.6353960">
        <ele>622.6</ele>
        <time>2022-06-27T07:23:21Z</time>
      </trkpt>
      <trkpt lat="42.4159130" lon="-2.6354380">
        <ele>622.8</ele>
        <time>2022-06-27T07:23:22Z</time>
      </trkpt>
      <trkpt lat="42.4159420" lon="-2.6355010">
        <ele>622.8</ele>
        <time>2022-06-27T07:23:23Z</time>
      </trkpt>
      <trkpt lat="42.4159620" lon="-2.6355430">
        <ele>623.0</ele>
        <time>2022-06-27T07:23:24Z</time>
      </trkpt>
      <trkpt lat="42.4159910" lon="-2.6356070">
        <ele>623.2</ele>
        <time>2022-06-27T07:23:25Z</time>
      </trkpt>
      <trkpt lat="42.4160090" lon="-2.6356500">
        <ele>623.2</ele>
        <time>2022-06-27T07:23:26Z</time>
      </trkpt>
      <trkpt lat="42.4160330" lon="-2.6357030">
        <ele>623.4</ele>
        <time>2022-06-27T07:23:27Z</time>
      </trkpt>
      <trkpt lat="42.4160610" lon="-2.6357660">
        <ele>623.6</ele>
        <time>2022-06-27T07:23:28Z</time>
      </trkpt>
      <trkpt lat="42.4160850" lon="-2.6358150">
        <ele>623.8</ele>
        <time>2022-06-27T07:23:29Z</time>
      </trkpt>
      <trkpt lat="42.4161070" lon="-2.6358670">
        <ele>623.8</ele>
        <time>2022-06-27T07:23:30Z</time>
      </trkpt>
      <trkpt lat="42.4161250" lon="-2.6359100">
        <ele>624.0</ele>
        <time>2022-06-27T07:23:31Z</time>
      </trkpt>
      <trkpt lat="42.4161470" lon="-2.6359640">
        <ele>624.2</ele>
        <time>2022-06-27T07:23:32Z</time>
      </trkpt>
      <trkpt lat="42.4161690" lon="-2.6360180">
        <ele>624.4</ele>
        <time>2022-06-27T07:23:33Z</time>
      </trkpt>
      <trkpt lat="42.4161950" lon="-2.6360820">
        <ele>624.4</ele>
        <time>2022-06-27T07:23:34Z</time>
      </trkpt>
      <trkpt lat="42.4162200" lon="-2.6361350">
        <ele>624.6</ele>
        <time>2022-06-27T07:23:35Z</time>
      </trkpt>
      <trkpt lat="42.4162390" lon="-2.6361790">
        <ele>624.8</ele>
        <time>2022-06-27T07:23:36Z</time>
      </trkpt>
      <trkpt lat="42.4162630" lon="-2.6362320">
        <ele>625.0</ele>
        <time>2022-06-27T07:23:37Z</time>
      </trkpt>
      <trkpt lat="42.4162920" lon="-2.6362960">
        <ele>625.0</ele>
        <time>2022-06-27T07:23:38Z</time>
      </trkpt>
      <trkpt lat="42.4163100" lon="-2.6363390">
        <ele>625.2</ele>
        <time>2022-06-27T07:23:39Z</time>
      </trkpt>
      <trkpt lat="42.4163390" lon="-2.6364040">
        <ele>625.4</ele>
        <time>2022-06-27T07:23:40Z</time>
      </trkpt>
      <trkpt lat="42.4163570" lon="-2.6364460">
        <ele>625.4</ele>
        <time>2022-06-27T07:23:41Z</time>
      </trkpt>
      <trkpt lat="42.4163820" lon="-2.6364990">
        <ele>625.6</ele>
        <time>2022-06-27T07:23:42Z</time>
      </trkpt>
      <trkpt lat="42.4164090" lon="-2.6365640">
        <ele>625.8</ele>
        <time>2022-06-27T07:23:43Z</time>
      </trkpt>
      <trkpt lat="42.4164270" lon="-2.6366060">
        <ele>626.0</ele>
        <time>2022-06-27T07:23:44Z</time>
      </trkpt>
      <trkpt lat="42.4164530" lon="-2.6366690">
        <ele>626.2</ele>
        <time>2022-06-27T07:23:45Z</time>
      </trkpt>
      <trkpt lat="42.4164690" lon="-2.6367100">
        <ele>626.2</ele>
        <time>2022-06-27T07:23:46Z</time>
      </trkpt>
      <trkpt lat="42.4164910" lon="-2.6367640">
        <ele>626.4</ele>
        <time>2022-06-27T07:23:47Z</time>
      </trkpt>
      <trkpt lat="42.4165120" lon="-2.6368170">
        <ele>626.4</ele>
        <time>2022-06-27T07:23:48Z</time>
      </trkpt>
      <trkpt lat="42.4165380" lon="-2.6368800">
        <ele>626.6</ele>
        <time>2022-06-27T07:23:49Z</time>
      </trkpt>
      <trkpt lat="42.4165590" lon="-2.6369320">
        <ele>626.6</ele>
        <time>2022-06-27T07:23:50Z</time>
      </trkpt>
      <trkpt lat="42.4165760" lon="-2.6369730">
        <ele>626.8</ele>
        <time>2022-06-27T07:23:51Z</time>
      </trkpt>
      <trkpt lat="42.4165970" lon="-2.6370250">
        <ele>627.0</ele>
        <time>2022-06-27T07:23:52Z</time>
      </trkpt>
      <trkpt lat="42.4166220" lon="-2.6370870">
        <ele>627.2</ele>
        <time>2022-06-27T07:23:53Z</time>
      </trkpt>
      <trkpt lat="42.4166390" lon="-2.6371290">
        <ele>627.4</ele>
        <time>2022-06-27T07:23:54Z</time>
      </trkpt>
      <trkpt lat="42.4166660" lon="-2.6371910">
        <ele>627.6</ele>
        <time>2022-06-27T07:23:55Z</time>
      </trkpt>
      <trkpt lat="42.4166830" lon="-2.6372310">
        <ele>627.6</ele>
        <time>2022-06-27T07:23:56Z</time>
      </trkpt>
      <trkpt lat="42.4167010" lon="-2.6372800">
        <ele>627.8</ele>
        <time>2022-06-27T07:23:57Z</time>
      </trkpt>
      <trkpt lat="42.4167240" lon="-2.6373390">
        <ele>628.0</ele>
        <time>2022-06-27T07:23:58Z</time>
      </trkpt>
      <trkpt lat="42.4167430" lon="-2.6373900">
        <ele>628.2</ele>
        <time>2022-06-27T07:23:59Z</time>
      </trkpt>
      <trkpt lat="42.4167610" lon="-2.6374360">
        <ele>628.2</ele>
        <time>2022-06-27T07:24:00Z</time>
      </trkpt>
      <trkpt lat="42.4167760" lon="-2.6374750">
        <ele>628.4</ele>
        <time>2022-06-27T07:24:01Z</time>
      </trkpt>
      <trkpt lat="42.4167970" lon="-2.6375220">
        <ele>628.4</ele>
        <time>2022-06-27T07:24:02Z</time>
      </trkpt>
      <trkpt lat="42.4168170" lon="-2.6375700">
        <ele>628.6</ele>
        <time>2022-06-27T07:24:03Z</time>
      </trkpt>
      <trkpt lat="42.4168400" lon="-2.6376270">
        <ele>628.6</ele>
        <time>2022-06-27T07:24:04Z</time>
      </trkpt>
      <trkpt lat="42.4168530" lon="-2.6376650">
        <ele>629.0</ele>
        <time>2022-06-27T07:24:05Z</time>
      </trkpt>
      <trkpt lat="42.4168690" lon="-2.6377130">
        <ele>629.0</ele>
        <time>2022-06-27T07:24:06Z</time>
      </trkpt>
      <trkpt lat="42.4168860" lon="-2.6377600">
        <ele>629.2</ele>
        <time>2022-06-27T07:24:07Z</time>
      </trkpt>
      <trkpt lat="42.4169080" lon="-2.6378140">
        <ele>629.4</ele>
        <time>2022-06-27T07:24:08Z</time>
      </trkpt>
      <trkpt lat="42.4169280" lon="-2.6378610">
        <ele>629.6</ele>
        <time>2022-06-27T07:24:09Z</time>
      </trkpt>
      <trkpt lat="42.4169430" lon="-2.6379000">
        <ele>629.8</ele>
        <time>2022-06-27T07:24:10Z</time>
      </trkpt>
      <trkpt lat="42.4169600" lon="-2.6379490">
        <ele>629.8</ele>
        <time>2022-06-27T07:24:11Z</time>
      </trkpt>
      <trkpt lat="42.4169800" lon="-2.6380060">
        <ele>630.2</ele>
        <time>2022-06-27T07:24:12Z</time>
      </trkpt>
      <trkpt lat="42.4170010" lon="-2.6380540">
        <ele>630.2</ele>
        <time>2022-06-27T07:24:13Z</time>
      </trkpt>
      <trkpt lat="42.4170190" lon="-2.6381030">
        <ele>630.4</ele>
        <time>2022-06-27T07:24:14Z</time>
      </trkpt>
      <trkpt lat="42.4170380" lon="-2.6381510">
        <ele>630.4</ele>
        <time>2022-06-27T07:24:15Z</time>
      </trkpt>
      <trkpt lat="42.4170580" lon="-2.6381990">
        <ele>630.4</ele>
        <time>2022-06-27T07:24:16Z</time>
      </trkpt>
      <trkpt lat="42.4170760" lon="-2.6382480">
        <ele>630.6</ele>
        <time>2022-06-27T07:24:17Z</time>
      </trkpt>
      <trkpt lat="42.4170930" lon="-2.6382960">
        <ele>630.8</ele>
        <time>2022-06-27T07:24:18Z</time>
      </trkpt>
      <trkpt lat="42.4171100" lon="-2.6383430">
        <ele>630.8</ele>
        <time>2022-06-27T07:24:19Z</time>
      </trkpt>
      <trkpt lat="42.4171250" lon="-2.6383860">
        <ele>631.0</ele>
        <time>2022-06-27T07:24:20Z</time>
      </trkpt>
      <trkpt lat="42.4171400" lon="-2.6384310">
        <ele>631.2</ele>
        <time>2022-06-27T07:24:21Z</time>
      </trkpt>
      <trkpt lat="42.4171550" lon="-2.6384760">
        <ele>631.2</ele>
        <time>2022-06-27T07:24:22Z</time>
      </trkpt>
      <trkpt lat="42.4171690" lon="-2.6385240">
        <ele>631.2</ele>
        <time>2022-06-27T07:24:23Z</time>
      </trkpt>
      <trkpt lat="42.4171840" lon="-2.6385720">
        <ele>631.6</ele>
        <time>2022-06-27T07:24:24Z</time>
      </trkpt>
      <trkpt lat="42.4172010" lon="-2.6386200">
        <ele>631.8</ele>
        <time>2022-06-27T07:24:25Z</time>
      </trkpt>
      <trkpt lat="42.4172190" lon="-2.6386680">
        <ele>632.2</ele>
        <time>2022-06-27T07:24:26Z</time>
      </trkpt>
      <trkpt lat="42.4172360" lon="-2.6387150">
        <ele>632.2</ele>
        <time>2022-06-27T07:24:27Z</time>
      </trkpt>
      <trkpt lat="42.4172520" lon="-2.6387620">
        <ele>632.4</ele>
        <time>2022-06-27T07:24:28Z</time>
      </trkpt>
      <trkpt lat="42.4172680" lon="-2.6388070">
        <ele>632.6</ele>
        <time>2022-06-27T07:24:29Z</time>
      </trkpt>
      <trkpt lat="42.4172820" lon="-2.6388400">
        <ele>632.8</ele>
        <time>2022-06-27T07:24:30Z</time>
      </trkpt>
      <trkpt lat="42.4173030" lon="-2.6388950">
        <ele>633.2</ele>
        <time>2022-06-27T07:24:31Z</time>
      </trkpt>
      <trkpt lat="42.4173200" lon="-2.6389410">
        <ele>633.2</ele>
        <time>2022-06-27T07:24:32Z</time>
      </trkpt>
      <trkpt lat="42.4173390" lon="-2.6389860">
        <ele>633.6</ele>
        <time>2022-06-27T07:24:33Z</time>
      </trkpt>
      <trkpt lat="42.4173560" lon="-2.6390320">
        <ele>633.8</ele>
        <time>2022-06-27T07:24:34Z</time>
      </trkpt>
      <trkpt lat="42.4173720" lon="-2.6390770">
        <ele>634.0</ele>
        <time>2022-06-27T07:24:35Z</time>
      </trkpt>
      <trkpt lat="42.4173830" lon="-2.6391190">
        <ele>634.2</ele>
        <time>2022-06-27T07:24:36Z</time>
      </trkpt>
      <trkpt lat="42.4173980" lon="-2.6391600">
        <ele>634.4</ele>
        <time>2022-06-27T07:24:37Z</time>
      </trkpt>
      <trkpt lat="42.4174120" lon="-2.6392060">
        <ele>634.6</ele>
        <time>2022-06-27T07:24:38Z</time>
      </trkpt>
      <trkpt lat="42.4174290" lon="-2.6392550">
        <ele>634.8</ele>
        <time>2022-06-27T07:24:39Z</time>
      </trkpt>
      <trkpt lat="42.4174450" lon="-2.6393030">
        <ele>635.0</ele>
        <time>2022-06-27T07:24:40Z</time>
      </trkpt>
      <trkpt lat="42.4174600" lon="-2.6393500">
        <ele>635.2</ele>
        <time>2022-06-27T07:24:41Z</time>
      </trkpt>
      <trkpt lat="42.4174760" lon="-2.6393930">
        <ele>635.4</ele>
        <time>2022-06-27T07:24:42Z</time>
      </trkpt>
      <trkpt lat="42.4174880" lon="-2.6394340">
        <ele>635.4</ele>
        <time>2022-06-27T07:24:43Z</time>
      </trkpt>
      <trkpt lat="42.4175010" lon="-2.6394760">
        <ele>635.6</ele>
        <time>2022-06-27T07:24:44Z</time>
      </trkpt>
      <trkpt lat="42.4175150" lon="-2.6395190">
        <ele>635.8</ele>
        <time>2022-06-27T07:24:45Z</time>
      </trkpt>
      <trkpt lat="42.4175290" lon="-2.6395680">
        <ele>635.8</ele>
        <time>2022-06-27T07:24:46Z</time>
      </trkpt>
      <trkpt lat="42.4175420" lon="-2.6396170">
        <ele>636.0</ele>
        <time>2022-06-27T07:24:47Z</time>
      </trkpt>
      <trkpt lat="42.4175540" lon="-2.6396630">
        <ele>636.2</ele>
        <time>2022-06-27T07:24:48Z</time>
      </trkpt>
      <trkpt lat="42.4175650" lon="-2.6397090">
        <ele>636.4</ele>
        <time>2022-06-27T07:24:49Z</time>
      </trkpt>
      <trkpt lat="42.4175750" lon="-2.6397540">
        <ele>636.4</ele>
        <time>2022-06-27T07:24:50Z</time>
      </trkpt>
      <trkpt lat="42.4175830" lon="-2.6398030">
        <ele>636.6</ele>
        <time>2022-06-27T07:24:51Z</time>
      </trkpt>
      <trkpt lat="42.4175920" lon="-2.6398550">
        <ele>636.8</ele>
        <time>2022-06-27T07:24:52Z</time>
      </trkpt>
      <trkpt lat="42.4176030" lon="-2.6399060">
        <ele>637.0</ele>
        <time>2022-06-27T07:24:53Z</time>
      </trkpt>
      <trkpt lat="42.4176170" lon="-2.6399580">
        <ele>637.2</ele>
        <time>2022-06-27T07:24:54Z</time>
      </trkpt>
      <trkpt lat="42.4176290" lon="-2.6400070">
        <ele>637.2</ele>
        <time>2022-06-27T07:24:55Z</time>
      </trkpt>
      <trkpt lat="42.4176410" lon="-2.6400590">
        <ele>637.4</ele>
        <time>2022-06-27T07:24:56Z</time>
      </trkpt>
      <trkpt lat="42.4176520" lon="-2.6401090">
        <ele>637.4</ele>
        <time>2022-06-27T07:24:57Z</time>
      </trkpt>
      <trkpt lat="42.4176620" lon="-2.6401580">
        <ele>637.6</ele>
        <time>2022-06-27T07:24:58Z</time>
      </trkpt>
      <trkpt lat="42.4176710" lon="-2.6402060">
        <ele>637.6</ele>
        <time>2022-06-27T07:24:59Z</time>
      </trkpt>
      <trkpt lat="42.4176780" lon="-2.6402560">
        <ele>638.0</ele>
        <time>2022-06-27T07:25:00Z</time>
      </trkpt>
      <trkpt lat="42.4176860" lon="-2.6403060">
        <ele>638.2</ele>
        <time>2022-06-27T07:25:01Z</time>
      </trkpt>
      <trkpt lat="42.4176940" lon="-2.6403570">
        <ele>638.4</ele>
        <time>2022-06-27T07:25:02Z</time>
      </trkpt>
      <trkpt lat="42.4177020" lon="-2.6404080">
        <ele>638.6</ele>
        <time>2022-06-27T07:25:03Z</time>
      </trkpt>
      <trkpt lat="42.4177090" lon="-2.6404580">
        <ele>638.8</ele>
        <time>2022-06-27T07:25:04Z</time>
      </trkpt>
      <trkpt lat="42.4177160" lon="-2.6405070">
        <ele>639.0</ele>
        <time>2022-06-27T07:25:05Z</time>
      </trkpt>
      <trkpt lat="42.4177200" lon="-2.6405560">
        <ele>639.0</ele>
        <time>2022-06-27T07:25:06Z</time>
      </trkpt>
      <trkpt lat="42.4177260" lon="-2.6406070">
        <ele>639.4</ele>
        <time>2022-06-27T07:25:07Z</time>
      </trkpt>
      <trkpt lat="42.4177310" lon="-2.6406590">
        <ele>639.6</ele>
        <time>2022-06-27T07:25:08Z</time>
      </trkpt>
      <trkpt lat="42.4177350" lon="-2.6407130">
        <ele>639.6</ele>
        <time>2022-06-27T07:25:09Z</time>
      </trkpt>
      <trkpt lat="42.4177370" lon="-2.6407680">
        <ele>639.8</ele>
        <time>2022-06-27T07:25:10Z</time>
      </trkpt>
      <trkpt lat="42.4177380" lon="-2.6408230">
        <ele>639.8</ele>
        <time>2022-06-27T07:25:11Z</time>
      </trkpt>
      <trkpt lat="42.4177410" lon="-2.6408770">
        <ele>640.0</ele>
        <time>2022-06-27T07:25:12Z</time>
      </trkpt>
      <trkpt lat="42.4177440" lon="-2.6409270">
        <ele>640.0</ele>
        <time>2022-06-27T07:25:13Z</time>
      </trkpt>
      <trkpt lat="42.4177480" lon="-2.6409800">
        <ele>640.4</ele>
        <time>2022-06-27T07:25:14Z</time>
      </trkpt>
      <trkpt lat="42.4177510" lon="-2.6410340">
        <ele>640.6</ele>
        <time>2022-06-27T07:25:15Z</time>
      </trkpt>
      <trkpt lat="42.4177530" lon="-2.6410890">
        <ele>640.8</ele>
        <time>2022-06-27T07:25:16Z</time>
      </trkpt>
      <trkpt lat="42.4177560" lon="-2.6411440">
        <ele>641.0</ele>
        <time>2022-06-27T07:25:17Z</time>
      </trkpt>
      <trkpt lat="42.4177580" lon="-2.6411980">
        <ele>641.0</ele>
        <time>2022-06-27T07:25:18Z</time>
      </trkpt>
      <trkpt lat="42.4177590" lon="-2.6412540">
        <ele>641.2</ele>
        <time>2022-06-27T07:25:19Z</time>
      </trkpt>
      <trkpt lat="42.4177590" lon="-2.6413120">
        <ele>641.4</ele>
        <time>2022-06-27T07:25:20Z</time>
      </trkpt>
      <trkpt lat="42.4177580" lon="-2.6413650">
        <ele>641.4</ele>
        <time>2022-06-27T07:25:21Z</time>
      </trkpt>
      <trkpt lat="42.4177600" lon="-2.6414190">
        <ele>641.6</ele>
        <time>2022-06-27T07:25:22Z</time>
      </trkpt>
      <trkpt lat="42.4177590" lon="-2.6414720">
        <ele>641.8</ele>
        <time>2022-06-27T07:25:23Z</time>
      </trkpt>
      <trkpt lat="42.4177570" lon="-2.6415260">
        <ele>642.0</ele>
        <time>2022-06-27T07:25:24Z</time>
      </trkpt>
      <trkpt lat="42.4177560" lon="-2.6415790">
        <ele>642.0</ele>
        <time>2022-06-27T07:25:25Z</time>
      </trkpt>
      <trkpt lat="42.4177540" lon="-2.6416330">
        <ele>642.4</ele>
        <time>2022-06-27T07:25:26Z</time>
      </trkpt>
      <trkpt lat="42.4177520" lon="-2.6416870">
        <ele>642.4</ele>
        <time>2022-06-27T07:25:27Z</time>
      </trkpt>
      <trkpt lat="42.4177470" lon="-2.6417420">
        <ele>643.0</ele>
        <time>2022-06-27T07:25:28Z</time>
      </trkpt>
      <trkpt lat="42.4177420" lon="-2.6417970">
        <ele>643.2</ele>
        <time>2022-06-27T07:25:29Z</time>
      </trkpt>
      <trkpt lat="42.4177370" lon="-2.6418530">
        <ele>643.4</ele>
        <time>2022-06-27T07:25:30Z</time>
      </trkpt>
      <trkpt lat="42.4177310" lon="-2.6419080">
        <ele>643.6</ele>
        <time>2022-06-27T07:25:31Z</time>
      </trkpt>
      <trkpt lat="42.4177250" lon="-2.6419610">
        <ele>643.8</ele>
        <time>2022-06-27T07:25:32Z</time>
      </trkpt>
      <trkpt lat="42.4177200" lon="-2.6420160">
        <ele>644.0</ele>
        <time>2022-06-27T07:25:33Z</time>
      </trkpt>
      <trkpt lat="42.4177140" lon="-2.6420720">
        <ele>644.0</ele>
        <time>2022-06-27T07:25:34Z</time>
      </trkpt>
      <trkpt lat="42.4177070" lon="-2.6421280">
        <ele>644.2</ele>
        <time>2022-06-27T07:25:35Z</time>
      </trkpt>
      <trkpt lat="42.4176980" lon="-2.6421830">
        <ele>644.4</ele>
        <time>2022-06-27T07:25:36Z</time>
      </trkpt>
      <trkpt lat="42.4176900" lon="-2.6422400">
        <ele>644.6</ele>
        <time>2022-06-27T07:25:37Z</time>
      </trkpt>
      <trkpt lat="42.4176800" lon="-2.6422990">
        <ele>644.8</ele>
        <time>2022-06-27T07:25:38Z</time>
      </trkpt>
      <trkpt lat="42.4176680" lon="-2.6423580">
        <ele>644.8</ele>
        <time>2022-06-27T07:25:39Z</time>
      </trkpt>
      <trkpt lat="42.4176550" lon="-2.6424150">
        <ele>645.0</ele>
        <time>2022-06-27T07:25:40Z</time>
      </trkpt>
      <trkpt lat="42.4176410" lon="-2.6424750">
        <ele>645.2</ele>
        <time>2022-06-27T07:25:41Z</time>
      </trkpt>
      <trkpt lat="42.4176280" lon="-2.6425360">
        <ele>645.2</ele>
        <time>2022-06-27T07:25:42Z</time>
      </trkpt>
      <trkpt lat="42.4176150" lon="-2.6425960">
        <ele>645.2</ele>
        <time>2022-06-27T07:25:43Z</time>
      </trkpt>
      <trkpt lat="42.4176030" lon="-2.6426540">
        <ele>645.4</ele>
        <time>2022-06-27T07:25:44Z</time>
      </trkpt>
      <trkpt lat="42.4175880" lon="-2.6427130">
        <ele>645.4</ele>
        <time>2022-06-27T07:25:45Z</time>
      </trkpt>
      <trkpt lat="42.4175720" lon="-2.6427760">
        <ele>645.2</ele>
        <time>2022-06-27T07:25:46Z</time>
      </trkpt>
      <trkpt lat="42.4175570" lon="-2.6428390">
        <ele>645.4</ele>
        <time>2022-06-27T07:25:47Z</time>
      </trkpt>
      <trkpt lat="42.4175440" lon="-2.6429030">
        <ele>645.4</ele>
        <time>2022-06-27T07:25:48Z</time>
      </trkpt>
      <trkpt lat="42.4175320" lon="-2.6429690">
        <ele>645.6</ele>
        <time>2022-06-27T07:25:49Z</time>
      </trkpt>
      <trkpt lat="42.4175150" lon="-2.6430360">
        <ele>645.6</ele>
        <time>2022-06-27T07:25:50Z</time>
      </trkpt>
      <trkpt lat="42.4174960" lon="-2.6431030">
        <ele>645.8</ele>
        <time>2022-06-27T07:25:51Z</time>
      </trkpt>
      <trkpt lat="42.4174740" lon="-2.6431690">
        <ele>645.8</ele>
        <time>2022-06-27T07:25:52Z</time>
      </trkpt>
      <trkpt lat="42.4174500" lon="-2.6432360">
        <ele>645.8</ele>
        <time>2022-06-27T07:25:53Z</time>
      </trkpt>
      <trkpt lat="42.4174230" lon="-2.6433020">
        <ele>645.8</ele>
        <time>2022-06-27T07:25:54Z</time>
      </trkpt>
      <trkpt lat="42.4173980" lon="-2.6433680">
        <ele>645.8</ele>
        <time>2022-06-27T07:25:55Z</time>
      </trkpt>
      <trkpt lat="42.4173710" lon="-2.6434340">
        <ele>645.8</ele>
        <time>2022-06-27T07:25:56Z</time>
      </trkpt>
      <trkpt lat="42.4173410" lon="-2.6435000">
        <ele>645.8</ele>
        <time>2022-06-27T07:25:57Z</time>
      </trkpt>
      <trkpt lat="42.4173140" lon="-2.6435670">
        <ele>645.8</ele>
        <time>2022-06-27T07:25:58Z</time>
      </trkpt>
      <trkpt lat="42.4172870" lon="-2.6436360">
        <ele>645.8</ele>
        <time>2022-06-27T07:25:59Z</time>
      </trkpt>
      <trkpt lat="42.4172590" lon="-2.6437060">
        <ele>645.8</ele>
        <time>2022-06-27T07:26:00Z</time>
      </trkpt>
      <trkpt lat="42.4172320" lon="-2.6437760">
        <ele>645.8</ele>
        <time>2022-06-27T07:26:01Z</time>
      </trkpt>
      <trkpt lat="42.4172030" lon="-2.6438450">
        <ele>645.8</ele>
        <time>2022-06-27T07:26:02Z</time>
      </trkpt>
      <trkpt lat="42.4171740" lon="-2.6439160">
        <ele>645.6</ele>
        <time>2022-06-27T07:26:03Z</time>
      </trkpt>
      <trkpt lat="42.4171420" lon="-2.6439880">
        <ele>645.6</ele>
        <time>2022-06-27T07:26:04Z</time>
      </trkpt>
      <trkpt lat="42.4171090" lon="-2.6440630">
        <ele>645.6</ele>
        <time>2022-06-27T07:26:05Z</time>
      </trkpt>
      <trkpt lat="42.4170750" lon="-2.6441380">
        <ele>645.6</ele>
        <time>2022-06-27T07:26:06Z</time>
      </trkpt>
      <trkpt lat="42.4170400" lon="-2.6442140">
        <ele>645.4</ele>
        <time>2022-06-27T07:26:07Z</time>
      </trkpt>
      <trkpt lat="42.4170030" lon="-2.6442930">
        <ele>645.4</ele>
        <time>2022-06-27T07:26:08Z</time>
      </trkpt>
      <trkpt lat="42.4169660" lon="-2.6443760">
        <ele>645.2</ele>
        <time>2022-06-27T07:26:09Z</time>
      </trkpt>
      <trkpt lat="42.4169280" lon="-2.6444630">
        <ele>644.8</ele>
        <time>2022-06-27T07:26:10Z</time>
      </trkpt>
      <trkpt lat="42.4168910" lon="-2.6445490">
        <ele>644.8</ele>
        <time>2022-06-27T07:26:11Z</time>
      </trkpt>
      <trkpt lat="42.4168580" lon="-2.6446180">
        <ele>644.6</ele>
        <time>2022-06-27T07:26:12Z</time>
      </trkpt>
      <trkpt lat="42.4168170" lon="-2.6447080">
        <ele>644.4</ele>
        <time>2022-06-27T07:26:13Z</time>
      </trkpt>
      <trkpt lat="42.4167760" lon="-2.6447970">
        <ele>643.8</ele>
        <time>2022-06-27T07:26:14Z</time>
      </trkpt>
      <trkpt lat="42.4167340" lon="-2.6448870">
        <ele>643.4</ele>
        <time>2022-06-27T07:26:15Z</time>
      </trkpt>
      <trkpt lat="42.4166910" lon="-2.6449810">
        <ele>643.0</ele>
        <time>2022-06-27T07:26:16Z</time>
      </trkpt>
      <trkpt lat="42.4166480" lon="-2.6450760">
        <ele>642.8</ele>
        <time>2022-06-27T07:26:17Z</time>
      </trkpt>
      <trkpt lat="42.4166050" lon="-2.6451720">
        <ele>642.6</ele>
        <time>2022-06-27T07:26:18Z</time>
      </trkpt>
      <trkpt lat="42.4165600" lon="-2.6452680">
        <ele>642.4</ele>
        <time>2022-06-27T07:26:19Z</time>
      </trkpt>
      <trkpt lat="42.4165140" lon="-2.6453650">
        <ele>642.4</ele>
        <time>2022-06-27T07:26:20Z</time>
      </trkpt>
      <trkpt lat="42.4164680" lon="-2.6454650">
        <ele>642.2</ele>
        <time>2022-06-27T07:26:21Z</time>
      </trkpt>
      <trkpt lat="42.4164140" lon="-2.6455860">
        <ele>642.0</ele>
        <time>2022-06-27T07:26:22Z</time>
      </trkpt>
      <trkpt lat="42.4163780" lon="-2.6456670">
        <ele>641.6</ele>
        <time>2022-06-27T07:26:23Z</time>
      </trkpt>
      <trkpt lat="42.4163230" lon="-2.6457900">
        <ele>641.2</ele>
        <time>2022-06-27T07:26:24Z</time>
      </trkpt>
      <trkpt lat="42.4162750" lon="-2.6458940">
        <ele>641.0</ele>
        <time>2022-06-27T07:26:25Z</time>
      </trkpt>
      <trkpt lat="42.4162310" lon="-2.6459980">
        <ele>640.8</ele>
        <time>2022-06-27T07:26:26Z</time>
      </trkpt>
      <trkpt lat="42.4161840" lon="-2.6461010">
        <ele>640.6</ele>
        <time>2022-06-27T07:26:27Z</time>
      </trkpt>
      <trkpt lat="42.4161360" lon="-2.6462050">
        <ele>640.4</ele>
        <time>2022-06-27T07:26:28Z</time>
      </trkpt>
      <trkpt lat="42.4160870" lon="-2.6463090">
        <ele>640.2</ele>
        <time>2022-06-27T07:26:29Z</time>
      </trkpt>
      <trkpt lat="42.4160380" lon="-2.6464100">
        <ele>640.0</ele>
        <time>2022-06-27T07:26:30Z</time>
      </trkpt>
      <trkpt lat="42.4159880" lon="-2.6465150">
        <ele>639.6</ele>
        <time>2022-06-27T07:26:31Z</time>
      </trkpt>
      <trkpt lat="42.4159380" lon="-2.6466190">
        <ele>639.4</ele>
        <time>2022-06-27T07:26:32Z</time>
      </trkpt>
      <trkpt lat="42.4158860" lon="-2.6467240">
        <ele>639.0</ele>
        <time>2022-06-27T07:26:33Z</time>
      </trkpt>
      <trkpt lat="42.4158330" lon="-2.6468280">
        <ele>638.8</ele>
        <time>2022-06-27T07:26:34Z</time>
      </trkpt>
      <trkpt lat="42.4157820" lon="-2.6469340">
        <ele>638.6</ele>
        <time>2022-06-27T07:26:35Z</time>
      </trkpt>
      <trkpt lat="42.4157320" lon="-2.6470400">
        <ele>638.4</ele>
        <time>2022-06-27T07:26:36Z</time>
      </trkpt>
      <trkpt lat="42.4156840" lon="-2.6471450">
        <ele>638.2</ele>
        <time>2022-06-27T07:26:37Z</time>
      </trkpt>
      <trkpt lat="42.4156340" lon="-2.6472530">
        <ele>638.0</ele>
        <time>2022-06-27T07:26:38Z</time>
      </trkpt>
      <trkpt lat="42.4155840" lon="-2.6473590">
        <ele>637.6</ele>
        <time>2022-06-27T07:26:39Z</time>
      </trkpt>
      <trkpt lat="42.4155360" lon="-2.6474640">
        <ele>637.4</ele>
        <time>2022-06-27T07:26:40Z</time>
      </trkpt>
      <trkpt lat="42.4154860" lon="-2.6475700">
        <ele>637.4</ele>
        <time>2022-06-27T07:26:41Z</time>
      </trkpt>
      <trkpt lat="42.4154330" lon="-2.6476740">
        <ele>637.0</ele>
        <time>2022-06-27T07:26:42Z</time>
      </trkpt>
      <trkpt lat="42.4153780" lon="-2.6477780">
        <ele>636.8</ele>
        <time>2022-06-27T07:26:43Z</time>
      </trkpt>
      <trkpt lat="42.4153220" lon="-2.6478800">
        <ele>636.4</ele>
        <time>2022-06-27T07:26:44Z</time>
      </trkpt>
      <trkpt lat="42.4152640" lon="-2.6479810">
        <ele>636.2</ele>
        <time>2022-06-27T07:26:45Z</time>
      </trkpt>
      <trkpt lat="42.4152040" lon="-2.6480800">
        <ele>636.0</ele>
        <time>2022-06-27T07:26:46Z</time>
      </trkpt>
      <trkpt lat="42.4151420" lon="-2.6481760">
        <ele>635.8</ele>
        <time>2022-06-27T07:26:47Z</time>
      </trkpt>
      <trkpt lat="42.4150780" lon="-2.6482710">
        <ele>635.4</ele>
        <time>2022-06-27T07:26:48Z</time>
      </trkpt>
      <trkpt lat="42.4150100" lon="-2.6483630">
        <ele>635.0</ele>
        <time>2022-06-27T07:26:49Z</time>
      </trkpt>
      <trkpt lat="42.4149400" lon="-2.6484540">
        <ele>635.0</ele>
        <time>2022-06-27T07:26:50Z</time>
      </trkpt>
      <trkpt lat="42.4148680" lon="-2.6485420">
        <ele>634.6</ele>
        <time>2022-06-27T07:26:51Z</time>
      </trkpt>
      <trkpt lat="42.4147950" lon="-2.6486290">
        <ele>634.4</ele>
        <time>2022-06-27T07:26:52Z</time>
      </trkpt>
      <trkpt lat="42.4147210" lon="-2.6487120">
        <ele>634.0</ele>
        <time>2022-06-27T07:26:53Z</time>
      </trkpt>
      <trkpt lat="42.4146430" lon="-2.6487940">
        <ele>633.6</ele>
        <time>2022-06-27T07:26:54Z</time>
      </trkpt>
      <trkpt lat="42.4145640" lon="-2.6488730">
        <ele>633.6</ele>
        <time>2022-06-27T07:26:55Z</time>
      </trkpt>
      <trkpt lat="42.4144850" lon="-2.6489500">
        <ele>633.2</ele>
        <time>2022-06-27T07:26:56Z</time>
      </trkpt>
      <trkpt lat="42.4144030" lon="-2.6490230">
        <ele>633.0</ele>
        <time>2022-06-27T07:26:57Z</time>
      </trkpt>
      <trkpt lat="42.4143210" lon="-2.6490940">
        <ele>632.4</ele>
        <time>2022-06-27T07:26:58Z</time>
      </trkpt>
      <trkpt lat="42.4142360" lon="-2.6491630">
        <ele>632.2</ele>
        <time>2022-06-27T07:26:59Z</time>
      </trkpt>
      <trkpt lat="42.4141490" lon="-2.6492280">
        <ele>631.6</ele>
        <time>2022-06-27T07:27:00Z</time>
      </trkpt>
      <trkpt lat="42.4140600" lon="-2.6492890">
        <ele>631.4</ele>
        <time>2022-06-27T07:27:01Z</time>
      </trkpt>
      <trkpt lat="42.4139700" lon="-2.6493470">
        <ele>631.2</ele>
        <time>2022-06-27T07:27:02Z</time>
      </trkpt>
      <trkpt lat="42.4138800" lon="-2.6494020">
        <ele>630.8</ele>
        <time>2022-06-27T07:27:03Z</time>
      </trkpt>
      <trkpt lat="42.4137880" lon="-2.6494560">
        <ele>630.6</ele>
        <time>2022-06-27T07:27:04Z</time>
      </trkpt>
      <trkpt lat="42.4136950" lon="-2.6495050">
        <ele>630.4</ele>
        <time>2022-06-27T07:27:05Z</time>
      </trkpt>
      <trkpt lat="42.4136000" lon="-2.6495500">
        <ele>630.2</ele>
        <time>2022-06-27T07:27:06Z</time>
      </trkpt>
      <trkpt lat="42.4135030" lon="-2.6495920">
        <ele>629.8</ele>
        <time>2022-06-27T07:27:07Z</time>
      </trkpt>
      <trkpt lat="42.4134060" lon="-2.6496310">
        <ele>629.6</ele>
        <time>2022-06-27T07:27:08Z</time>
      </trkpt>
      <trkpt lat="42.4133080" lon="-2.6496690">
        <ele>629.4</ele>
        <time>2022-06-27T07:27:09Z</time>
      </trkpt>
      <trkpt lat="42.4132090" lon="-2.6497040">
        <ele>629.0</ele>
        <time>2022-06-27T07:27:10Z</time>
      </trkpt>
      <trkpt lat="42.4131100" lon="-2.6497330">
        <ele>628.8</ele>
        <time>2022-06-27T07:27:11Z</time>
      </trkpt>
      <trkpt lat="42.4130090" lon="-2.6497610">
        <ele>628.2</ele>
        <time>2022-06-27T07:27:12Z</time>
      </trkpt>
      <trkpt lat="42.4129070" lon="-2.6497880">
        <ele>628.0</ele>
        <time>2022-06-27T07:27:13Z</time>
      </trkpt>
      <trkpt lat="42.4128060" lon="-2.6498130">
        <ele>627.8</ele>
        <time>2022-06-27T07:27:14Z</time>
      </trkpt>
      <trkpt lat="42.4127050" lon="-2.6498380">
        <ele>627.6</ele>
        <time>2022-06-27T07:27:15Z</time>
      </trkpt>
      <trkpt lat="42.4126040" lon="-2.6498630">
        <ele>627.2</ele>
        <time>2022-06-27T07:27:16Z</time>
      </trkpt>
      <trkpt lat="42.4125020" lon="-2.6498900">
        <ele>626.8</ele>
        <time>2022-06-27T07:27:17Z</time>
      </trkpt>
      <trkpt lat="42.4124000" lon="-2.6499160">
        <ele>626.6</ele>
        <time>2022-06-27T07:27:18Z</time>
      </trkpt>
      <trkpt lat="42.4122970" lon="-2.6499390">
        <ele>626.2</ele>
        <time>2022-06-27T07:27:19Z</time>
      </trkpt>
      <trkpt lat="42.4121970" lon="-2.6499650">
        <ele>626.0</ele>
        <time>2022-06-27T07:27:20Z</time>
      </trkpt>
      <trkpt lat="42.4120950" lon="-2.6499970">
        <ele>625.8</ele>
        <time>2022-06-27T07:27:21Z</time>
      </trkpt>
      <trkpt lat="42.4119950" lon="-2.6500350">
        <ele>625.6</ele>
        <time>2022-06-27T07:27:22Z</time>
      </trkpt>
      <trkpt lat="42.4118950" lon="-2.6500810">
        <ele>625.2</ele>
        <time>2022-06-27T07:27:23Z</time>
      </trkpt>
      <trkpt lat="42.4117970" lon="-2.6501340">
        <ele>624.8</ele>
        <time>2022-06-27T07:27:24Z</time>
      </trkpt>
      <trkpt lat="42.4116990" lon="-2.6501950">
        <ele>624.6</ele>
        <time>2022-06-27T07:27:25Z</time>
      </trkpt>
      <trkpt lat="42.4116040" lon="-2.6502630">
        <ele>624.2</ele>
        <time>2022-06-27T07:27:26Z</time>
      </trkpt>
      <trkpt lat="42.4115090" lon="-2.6503370">
        <ele>624.0</ele>
        <time>2022-06-27T07:27:27Z</time>
      </trkpt>
      <trkpt lat="42.4114370" lon="-2.6504030">
        <ele>623.4</ele>
        <time>2022-06-27T07:27:28Z</time>
      </trkpt>
      <trkpt lat="42.4113510" lon="-2.6504900">
        <ele>623.0</ele>
        <time>2022-06-27T07:27:29Z</time>
      </trkpt>
      <trkpt lat="42.4112680" lon="-2.6505840">
        <ele>622.6</ele>
        <time>2022-06-27T07:27:30Z</time>
      </trkpt>
      <trkpt lat="42.4111890" lon="-2.6506820">
        <ele>622.4</ele>
        <time>2022-06-27T07:27:31Z</time>
      </trkpt>
      <trkpt lat="42.4111140" lon="-2.6507860">
        <ele>622.0</ele>
        <time>2022-06-27T07:27:32Z</time>
      </trkpt>
      <trkpt lat="42.4110440" lon="-2.6508980">
        <ele>621.6</ele>
        <time>2022-06-27T07:27:33Z</time>
      </trkpt>
      <trkpt lat="42.4109660" lon="-2.6510400">
        <ele>621.4</ele>
        <time>2022-06-27T07:27:34Z</time>
      </trkpt>
      <trkpt lat="42.4109060" lon="-2.6511650">
        <ele>621.0</ele>
        <time>2022-06-27T07:27:35Z</time>
      </trkpt>
      <trkpt lat="42.4108510" lon="-2.6512940">
        <ele>620.8</ele>
        <time>2022-06-27T07:27:36Z</time>
      </trkpt>
      <trkpt lat="42.4108040" lon="-2.6514270">
        <ele>619.6</ele>
        <time>2022-06-27T07:27:37Z</time>
      </trkpt>
      <trkpt lat="42.4107620" lon="-2.6515600">
        <ele>619.4</ele>
        <time>2022-06-27T07:27:38Z</time>
      </trkpt>
      <trkpt lat="42.4107240" lon="-2.6516960">
        <ele>618.8</ele>
        <time>2022-06-27T07:27:39Z</time>
      </trkpt>
      <trkpt lat="42.4106890" lon="-2.6518340">
        <ele>618.4</ele>
        <time>2022-06-27T07:27:40Z</time>
      </trkpt>
      <trkpt lat="42.4106620" lon="-2.6519700">
        <ele>618.2</ele>
        <time>2022-06-27T07:27:41Z</time>
      </trkpt>
      <trkpt lat="42.4106400" lon="-2.6521070">
        <ele>618.0</ele>
        <time>2022-06-27T07:27:42Z</time>
      </trkpt>
      <trkpt lat="42.4106240" lon="-2.6522440">
        <ele>617.8</ele>
        <time>2022-06-27T07:27:43Z</time>
      </trkpt>
      <trkpt lat="42.4106140" lon="-2.6523840">
        <ele>617.6</ele>
        <time>2022-06-27T07:27:44Z</time>
      </trkpt>
      <trkpt lat="42.4106100" lon="-2.6525240">
        <ele>617.4</ele>
        <time>2022-06-27T07:27:45Z</time>
      </trkpt>
      <trkpt lat="42.4106060" lon="-2.6526630">
        <ele>617.0</ele>
        <time>2022-06-27T07:27:46Z</time>
      </trkpt>
      <trkpt lat="42.4106030" lon="-2.6528030">
        <ele>616.8</ele>
        <time>2022-06-27T07:27:47Z</time>
      </trkpt>
      <trkpt lat="42.4106000" lon="-2.6529430">
        <ele>616.6</ele>
        <time>2022-06-27T07:27:48Z</time>
      </trkpt>
      <trkpt lat="42.4105970" lon="-2.6530830">
        <ele>616.4</ele>
        <time>2022-06-27T07:27:49Z</time>
      </trkpt>
      <trkpt lat="42.4105940" lon="-2.6532220">
        <ele>616.2</ele>
        <time>2022-06-27T07:27:50Z</time>
      </trkpt>
      <trkpt lat="42.4105910" lon="-2.6533620">
        <ele>615.8</ele>
        <time>2022-06-27T07:27:51Z</time>
      </trkpt>
      <trkpt lat="42.4105870" lon="-2.6535020">
        <ele>615.6</ele>
        <time>2022-06-27T07:27:52Z</time>
      </trkpt>
      <trkpt lat="42.4105830" lon="-2.6536410">
        <ele>615.4</ele>
        <time>2022-06-27T07:27:53Z</time>
      </trkpt>
      <trkpt lat="42.4105820" lon="-2.6537790">
        <ele>615.4</ele>
        <time>2022-06-27T07:27:54Z</time>
      </trkpt>
      <trkpt lat="42.4105800" lon="-2.6539190">
        <ele>615.2</ele>
        <time>2022-06-27T07:27:55Z</time>
      </trkpt>
      <trkpt lat="42.4105780" lon="-2.6540580">
        <ele>614.8</ele>
        <time>2022-06-27T07:27:56Z</time>
      </trkpt>
      <trkpt lat="42.4105770" lon="-2.6541980">
        <ele>614.6</ele>
        <time>2022-06-27T07:27:57Z</time>
      </trkpt>
      <trkpt lat="42.4105770" lon="-2.6543370">
        <ele>614.4</ele>
        <time>2022-06-27T07:27:58Z</time>
      </trkpt>
      <trkpt lat="42.4105780" lon="-2.6544740">
        <ele>614.2</ele>
        <time>2022-06-27T07:27:59Z</time>
      </trkpt>
      <trkpt lat="42.4105810" lon="-2.6546120">
        <ele>613.6</ele>
        <time>2022-06-27T07:28:00Z</time>
      </trkpt>
      <trkpt lat="42.4105870" lon="-2.6547480">
        <ele>613.4</ele>
        <time>2022-06-27T07:28:01Z</time>
      </trkpt>
      <trkpt lat="42.4105980" lon="-2.6548800">
        <ele>613.2</ele>
        <time>2022-06-27T07:28:02Z</time>
      </trkpt>
      <trkpt lat="42.4106100" lon="-2.6550120">
        <ele>612.8</ele>
        <time>2022-06-27T07:28:03Z</time>
      </trkpt>
      <trkpt lat="42.4106210" lon="-2.6551450">
        <ele>612.4</ele>
        <time>2022-06-27T07:28:04Z</time>
      </trkpt>
      <trkpt lat="42.4106320" lon="-2.6552770">
        <ele>612.2</ele>
        <time>2022-06-27T07:28:05Z</time>
      </trkpt>
      <trkpt lat="42.4106450" lon="-2.6554090">
        <ele>612.0</ele>
        <time>2022-06-27T07:28:06Z</time>
      </trkpt>
      <trkpt lat="42.4106570" lon="-2.6555420">
        <ele>611.6</ele>
        <time>2022-06-27T07:28:07Z</time>
      </trkpt>
      <trkpt lat="42.4106700" lon="-2.6556740">
        <ele>611.6</ele>
        <time>2022-06-27T07:28:08Z</time>
      </trkpt>
      <trkpt lat="42.4106850" lon="-2.6558040">
        <ele>611.2</ele>
        <time>2022-06-27T07:28:09Z</time>
      </trkpt>
      <trkpt lat="42.4107000" lon="-2.6559340">
        <ele>610.8</ele>
        <time>2022-06-27T07:28:10Z</time>
      </trkpt>
      <trkpt lat="42.4107140" lon="-2.6560620">
        <ele>610.8</ele>
        <time>2022-06-27T07:28:11Z</time>
      </trkpt>
      <trkpt lat="42.4107280" lon="-2.6561900">
        <ele>610.6</ele>
        <time>2022-06-27T07:28:12Z</time>
      </trkpt>
      <trkpt lat="42.4107420" lon="-2.6563180">
        <ele>610.6</ele>
        <time>2022-06-27T07:28:13Z</time>
      </trkpt>
      <trkpt lat="42.4107560" lon="-2.6564450">
        <ele>610.4</ele>
        <time>2022-06-27T07:28:14Z</time>
      </trkpt>
      <trkpt lat="42.4107720" lon="-2.6565710">
        <ele>610.4</ele>
        <time>2022-06-27T07:28:15Z</time>
      </trkpt>
      <trkpt lat="42.4107860" lon="-2.6567000">
        <ele>610.4</ele>
        <time>2022-06-27T07:28:16Z</time>
      </trkpt>
      <trkpt lat="42.4108010" lon="-2.6568260">
        <ele>610.2</ele>
        <time>2022-06-27T07:28:17Z</time>
      </trkpt>
      <trkpt lat="42.4108150" lon="-2.6569540">
        <ele>610.2</ele>
        <time>2022-06-27T07:28:18Z</time>
      </trkpt>
      <trkpt lat="42.4108300" lon="-2.6570800">
        <ele>609.8</ele>
        <time>2022-06-27T07:28:19Z</time>
      </trkpt>
      <trkpt lat="42.4108450" lon="-2.6572040">
        <ele>609.8</ele>
        <time>2022-06-27T07:28:20Z</time>
      </trkpt>
      <trkpt lat="42.4108600" lon="-2.6573300">
        <ele>609.6</ele>
        <time>2022-06-27T07:28:21Z</time>
      </trkpt>
      <trkpt lat="42.4108760" lon="-2.6574540">
        <ele>609.6</ele>
        <time>2022-06-27T07:28:22Z</time>
      </trkpt>
      <trkpt lat="42.4108930" lon="-2.6575780">
        <ele>609.6</ele>
        <time>2022-06-27T07:28:23Z</time>
      </trkpt>
      <trkpt lat="42.4109070" lon="-2.6577060">
        <ele>609.4</ele>
        <time>2022-06-27T07:28:24Z</time>
      </trkpt>
      <trkpt lat="42.4109210" lon="-2.6578330">
        <ele>609.4</ele>
        <time>2022-06-27T07:28:25Z</time>
      </trkpt>
      <trkpt lat="42.4109360" lon="-2.6579570">
        <ele>609.4</ele>
        <time>2022-06-27T07:28:26Z</time>
      </trkpt>
      <trkpt lat="42.4109490" lon="-2.6580830">
        <ele>609.2</ele>
        <time>2022-06-27T07:28:27Z</time>
      </trkpt>
      <trkpt lat="42.4109620" lon="-2.6582100">
        <ele>609.0</ele>
        <time>2022-06-27T07:28:28Z</time>
      </trkpt>
      <trkpt lat="42.4109780" lon="-2.6583360">
        <ele>609.0</ele>
        <time>2022-06-27T07:28:29Z</time>
      </trkpt>
      <trkpt lat="42.4109910" lon="-2.6584630">
        <ele>608.8</ele>
        <time>2022-06-27T07:28:30Z</time>
      </trkpt>
      <trkpt lat="42.4110040" lon="-2.6585920">
        <ele>608.6</ele>
        <time>2022-06-27T07:28:31Z</time>
      </trkpt>
      <trkpt lat="42.4110190" lon="-2.6587190">
        <ele>608.6</ele>
        <time>2022-06-27T07:28:32Z</time>
      </trkpt>
      <trkpt lat="42.4110330" lon="-2.6588450">
        <ele>608.4</ele>
        <time>2022-06-27T07:28:33Z</time>
      </trkpt>
      <trkpt lat="42.4110490" lon="-2.6589700">
        <ele>608.4</ele>
        <time>2022-06-27T07:28:34Z</time>
      </trkpt>
      <trkpt lat="42.4110620" lon="-2.6590970">
        <ele>608.4</ele>
        <time>2022-06-27T07:28:35Z</time>
      </trkpt>
      <trkpt lat="42.4110760" lon="-2.6592250">
        <ele>608.4</ele>
        <time>2022-06-27T07:28:36Z</time>
      </trkpt>
      <trkpt lat="42.4110900" lon="-2.6593500">
        <ele>608.4</ele>
        <time>2022-06-27T07:28:37Z</time>
      </trkpt>
      <trkpt lat="42.4111050" lon="-2.6594730">
        <ele>608.2</ele>
        <time>2022-06-27T07:28:38Z</time>
      </trkpt>
      <trkpt lat="42.4111190" lon="-2.6595970">
        <ele>608.2</ele>
        <time>2022-06-27T07:28:39Z</time>
      </trkpt>
      <trkpt lat="42.4111310" lon="-2.6597230">
        <ele>608.2</ele>
        <time>2022-06-27T07:28:40Z</time>
      </trkpt>
      <trkpt lat="42.4111410" lon="-2.6598490">
        <ele>608.4</ele>
        <time>2022-06-27T07:28:41Z</time>
      </trkpt>
      <trkpt lat="42.4111510" lon="-2.6599770">
        <ele>608.2</ele>
        <time>2022-06-27T07:28:42Z</time>
      </trkpt>
      <trkpt lat="42.4111580" lon="-2.6601040">
        <ele>608.2</ele>
        <time>2022-06-27T07:28:43Z</time>
      </trkpt>
      <trkpt lat="42.4111640" lon="-2.6602310">
        <ele>608.2</ele>
        <time>2022-06-27T07:28:44Z</time>
      </trkpt>
      <trkpt lat="42.4111710" lon="-2.6603600">
        <ele>608.0</ele>
        <time>2022-06-27T07:28:45Z</time>
      </trkpt>
      <trkpt lat="42.4111750" lon="-2.6604890">
        <ele>608.0</ele>
        <time>2022-06-27T07:28:46Z</time>
      </trkpt>
      <trkpt lat="42.4111790" lon="-2.6606190">
        <ele>607.8</ele>
        <time>2022-06-27T07:28:47Z</time>
      </trkpt>
      <trkpt lat="42.4111820" lon="-2.6607480">
        <ele>607.8</ele>
        <time>2022-06-27T07:28:48Z</time>
      </trkpt>
      <trkpt lat="42.4111860" lon="-2.6608790">
        <ele>607.6</ele>
        <time>2022-06-27T07:28:49Z</time>
      </trkpt>
      <trkpt lat="42.4111920" lon="-2.6610060">
        <ele>607.6</ele>
        <time>2022-06-27T07:28:50Z</time>
      </trkpt>
      <trkpt lat="42.4111940" lon="-2.6611370">
        <ele>607.4</ele>
        <time>2022-06-27T07:28:51Z</time>
      </trkpt>
      <trkpt lat="42.4111990" lon="-2.6612670">
        <ele>607.4</ele>
        <time>2022-06-27T07:28:52Z</time>
      </trkpt>
      <trkpt lat="42.4112030" lon="-2.6613940">
        <ele>607.2</ele>
        <time>2022-06-27T07:28:53Z</time>
      </trkpt>
      <trkpt lat="42.4112080" lon="-2.6615190">
        <ele>607.0</ele>
        <time>2022-06-27T07:28:54Z</time>
      </trkpt>
      <trkpt lat="42.4112150" lon="-2.6616460">
        <ele>607.0</ele>
        <time>2022-06-27T07:28:55Z</time>
      </trkpt>
      <trkpt lat="42.4112190" lon="-2.6617740">
        <ele>606.6</ele>
        <time>2022-06-27T07:28:56Z</time>
      </trkpt>
      <trkpt lat="42.4112220" lon="-2.6619020">
        <ele>606.4</ele>
        <time>2022-06-27T07:28:57Z</time>
      </trkpt>
      <trkpt lat="42.4112260" lon="-2.6620300">
        <ele>606.0</ele>
        <time>2022-06-27T07:28:58Z</time>
      </trkpt>
      <trkpt lat="42.4112300" lon="-2.6621560">
        <ele>605.8</ele>
        <time>2022-06-27T07:28:59Z</time>
      </trkpt>
      <trkpt lat="42.4112340" lon="-2.6622810">
        <ele>605.4</ele>
        <time>2022-06-27T07:29:00Z</time>
      </trkpt>
      <trkpt lat="42.4112370" lon="-2.6624090">
        <ele>605.4</ele>
        <time>2022-06-27T07:29:01Z</time>
      </trkpt>
      <trkpt lat="42.4112400" lon="-2.6625390">
        <ele>605.2</ele>
        <time>2022-06-27T07:29:02Z</time>
      </trkpt>
      <trkpt lat="42.4112460" lon="-2.6626710">
        <ele>605.0</ele>
        <time>2022-06-27T07:29:03Z</time>
      </trkpt>
      <trkpt lat="42.4112500" lon="-2.6628040">
        <ele>604.8</ele>
        <time>2022-06-27T07:29:04Z</time>
      </trkpt>
      <trkpt lat="42.4112530" lon="-2.6629410">
        <ele>604.4</ele>
        <time>2022-06-27T07:29:05Z</time>
      </trkpt>
      <trkpt lat="42.4112560" lon="-2.6630800">
        <ele>604.4</ele>
        <time>2022-06-27T07:29:06Z</time>
      </trkpt>
      <trkpt lat="42.4112590" lon="-2.6632210">
        <ele>604.0</ele>
        <time>2022-06-27T07:29:07Z</time>
      </trkpt>
      <trkpt lat="42.4112640" lon="-2.6633620">
        <ele>603.8</ele>
        <time>2022-06-27T07:29:08Z</time>
      </trkpt>
      <trkpt lat="42.4112660" lon="-2.6635060">
        <ele>603.2</ele>
        <time>2022-06-27T07:29:09Z</time>
      </trkpt>
      <trkpt lat="42.4112680" lon="-2.6636520">
        <ele>602.6</ele>
        <time>2022-06-27T07:29:10Z</time>
      </trkpt>
      <trkpt lat="42.4112730" lon="-2.6638000">
        <ele>602.4</ele>
        <time>2022-06-27T07:29:11Z</time>
      </trkpt>
      <trkpt lat="42.4112790" lon="-2.6639480">
        <ele>601.6</ele>
        <time>2022-06-27T07:29:12Z</time>
      </trkpt>
      <trkpt lat="42.4112850" lon="-2.6640950">
        <ele>601.2</ele>
        <time>2022-06-27T07:29:13Z</time>
      </trkpt>
      <trkpt lat="42.4112910" lon="-2.6642420">
        <ele>600.2</ele>
        <time>2022-06-27T07:29:14Z</time>
      </trkpt>
      <trkpt lat="42.4112960" lon="-2.6643890">
        <ele>600.0</ele>
        <time>2022-06-27T07:29:15Z</time>
      </trkpt>
      <trkpt lat="42.4113010" lon="-2.6645350">
        <ele>599.4</ele>
        <time>2022-06-27T07:29:16Z</time>
      </trkpt>
      <trkpt lat="42.4113050" lon="-2.6646830">
        <ele>598.6</ele>
        <time>2022-06-27T07:29:17Z</time>
      </trkpt>
      <trkpt lat="42.4113080" lon="-2.6648320">
        <ele>598.4</ele>
        <time>2022-06-27T07:29:18Z</time>
      </trkpt>
      <trkpt lat="42.4113090" lon="-2.6649860">
        <ele>598.0</ele>
        <time>2022-06-27T07:29:19Z</time>
      </trkpt>
      <trkpt lat="42.4113110" lon="-2.6651450">
        <ele>597.6</ele>
        <time>2022-06-27T07:29:20Z</time>
      </trkpt>
      <trkpt lat="42.4113140" lon="-2.6653090">
        <ele>597.2</ele>
        <time>2022-06-27T07:29:21Z</time>
      </trkpt>
      <trkpt lat="42.4113180" lon="-2.6654730">
        <ele>596.4</ele>
        <time>2022-06-27T07:29:22Z</time>
      </trkpt>
      <trkpt lat="42.4113240" lon="-2.6656400">
        <ele>595.4</ele>
        <time>2022-06-27T07:29:23Z</time>
      </trkpt>
      <trkpt lat="42.4113300" lon="-2.6658070">
        <ele>594.8</ele>
        <time>2022-06-27T07:29:24Z</time>
      </trkpt>
      <trkpt lat="42.4113360" lon="-2.6659760">
        <ele>594.2</ele>
        <time>2022-06-27T07:29:25Z</time>
      </trkpt>
      <trkpt lat="42.4113420" lon="-2.6661480">
        <ele>593.6</ele>
        <time>2022-06-27T07:29:26Z</time>
      </trkpt>
      <trkpt lat="42.4113470" lon="-2.6663200">
        <ele>593.6</ele>
        <time>2022-06-27T07:29:27Z</time>
      </trkpt>
      <trkpt lat="42.4113510" lon="-2.6664920">
        <ele>592.8</ele>
        <time>2022-06-27T07:29:28Z</time>
      </trkpt>
      <trkpt lat="42.4113570" lon="-2.6666630">
        <ele>592.2</ele>
        <time>2022-06-27T07:29:29Z</time>
      </trkpt>
      <trkpt lat="42.4113630" lon="-2.6668340">
        <ele>591.2</ele>
        <time>2022-06-27T07:29:30Z</time>
      </trkpt>
      <trkpt lat="42.4113700" lon="-2.6670040">
        <ele>590.8</ele>
        <time>2022-06-27T07:29:31Z</time>
      </trkpt>
      <trkpt lat="42.4113800" lon="-2.6671740">
        <ele>590.0</ele>
        <time>2022-06-27T07:29:32Z</time>
      </trkpt>
      <trkpt lat="42.4113890" lon="-2.6673430">
        <ele>589.2</ele>
        <time>2022-06-27T07:29:33Z</time>
      </trkpt>
      <trkpt lat="42.4113990" lon="-2.6675100">
        <ele>588.8</ele>
        <time>2022-06-27T07:29:34Z</time>
      </trkpt>
      <trkpt lat="42.4114110" lon="-2.6676760">
        <ele>588.2</ele>
        <time>2022-06-27T07:29:35Z</time>
      </trkpt>
      <trkpt lat="42.4114240" lon="-2.6678420">
        <ele>587.8</ele>
        <time>2022-06-27T07:29:36Z</time>
      </trkpt>
      <trkpt lat="42.4114370" lon="-2.6680080">
        <ele>587.0</ele>
        <time>2022-06-27T07:29:37Z</time>
      </trkpt>
      <trkpt lat="42.4114500" lon="-2.6681720">
        <ele>586.8</ele>
        <time>2022-06-27T07:29:38Z</time>
      </trkpt>
      <trkpt lat="42.4114640" lon="-2.6683360">
        <ele>586.0</ele>
        <time>2022-06-27T07:29:39Z</time>
      </trkpt>
      <trkpt lat="42.4114760" lon="-2.6684980">
        <ele>585.4</ele>
        <time>2022-06-27T07:29:40Z</time>
      </trkpt>
      <trkpt lat="42.4114880" lon="-2.6686570">
        <ele>585.0</ele>
        <time>2022-06-27T07:29:41Z</time>
      </trkpt>
      <trkpt lat="42.4114980" lon="-2.6688170">
        <ele>584.4</ele>
        <time>2022-06-27T07:29:42Z</time>
      </trkpt>
      <trkpt lat="42.4115100" lon="-2.6689780">
        <ele>584.2</ele>
        <time>2022-06-27T07:29:43Z</time>
      </trkpt>
      <trkpt lat="42.4115280" lon="-2.6691360">
        <ele>584.0</ele>
        <time>2022-06-27T07:29:44Z</time>
      </trkpt>
      <trkpt lat="42.4115470" lon="-2.6692950">
        <ele>583.6</ele>
        <time>2022-06-27T07:29:45Z</time>
      </trkpt>
      <trkpt lat="42.4115640" lon="-2.6694550">
        <ele>583.0</ele>
        <time>2022-06-27T07:29:46Z</time>
      </trkpt>
      <trkpt lat="42.4115840" lon="-2.6696140">
        <ele>582.8</ele>
        <time>2022-06-27T07:29:47Z</time>
      </trkpt>
      <trkpt lat="42.4116050" lon="-2.6697740">
        <ele>582.2</ele>
        <time>2022-06-27T07:29:48Z</time>
      </trkpt>
      <trkpt lat="42.4116260" lon="-2.6699320">
        <ele>581.8</ele>
        <time>2022-06-27T07:29:49Z</time>
      </trkpt>
      <trkpt lat="42.4116470" lon="-2.6700910">
        <ele>581.4</ele>
        <time>2022-06-27T07:29:50Z</time>
      </trkpt>
      <trkpt lat="42.4116690" lon="-2.6702500">
        <ele>580.8</ele>
        <time>2022-06-27T07:29:51Z</time>
      </trkpt>
      <trkpt lat="42.4116910" lon="-2.6704060">
        <ele>580.6</ele>
        <time>2022-06-27T07:29:52Z</time>
      </trkpt>
      <trkpt lat="42.4117110" lon="-2.6705630">
        <ele>579.6</ele>
        <time>2022-06-27T07:29:53Z</time>
      </trkpt>
      <trkpt lat="42.4117320" lon="-2.6707180">
        <ele>579.4</ele>
        <time>2022-06-27T07:29:54Z</time>
      </trkpt>
      <trkpt lat="42.4117520" lon="-2.6708710">
        <ele>579.0</ele>
        <time>2022-06-27T07:29:55Z</time>
      </trkpt>
      <trkpt lat="42.4117710" lon="-2.6710220">
        <ele>578.8</ele>
        <time>2022-06-27T07:29:56Z</time>
      </trkpt>
      <trkpt lat="42.4117930" lon="-2.6711720">
        <ele>578.6</ele>
        <time>2022-06-27T07:29:57Z</time>
      </trkpt>
      <trkpt lat="42.4118140" lon="-2.6713240">
        <ele>578.0</ele>
        <time>2022-06-27T07:29:58Z</time>
      </trkpt>
      <trkpt lat="42.4118340" lon="-2.6714770">
        <ele>577.8</ele>
        <time>2022-06-27T07:29:59Z</time>
      </trkpt>
      <trkpt lat="42.4118540" lon="-2.6716300">
        <ele>577.6</ele>
        <time>2022-06-27T07:30:00Z</time>
      </trkpt>
      <trkpt lat="42.4118740" lon="-2.6717830">
        <ele>577.4</ele>
        <time>2022-06-27T07:30:01Z</time>
      </trkpt>
      <trkpt lat="42.4118960" lon="-2.6719340">
        <ele>576.6</ele>
        <time>2022-06-27T07:30:02Z</time>
      </trkpt>
      <trkpt lat="42.4119140" lon="-2.6720850">
        <ele>576.2</ele>
        <time>2022-06-27T07:30:03Z</time>
      </trkpt>
      <trkpt lat="42.4119340" lon="-2.6722370">
        <ele>575.8</ele>
        <time>2022-06-27T07:30:04Z</time>
      </trkpt>
      <trkpt lat="42.4119550" lon="-2.6723880">
        <ele>575.6</ele>
        <time>2022-06-27T07:30:05Z</time>
      </trkpt>
      <trkpt lat="42.4119760" lon="-2.6725380">
        <ele>575.4</ele>
        <time>2022-06-27T07:30:06Z</time>
      </trkpt>
      <trkpt lat="42.4119960" lon="-2.6726880">
        <ele>574.8</ele>
        <time>2022-06-27T07:30:07Z</time>
      </trkpt>
      <trkpt lat="42.4120160" lon="-2.6728380">
        <ele>574.6</ele>
        <time>2022-06-27T07:30:08Z</time>
      </trkpt>
      <trkpt lat="42.4120370" lon="-2.6729880">
        <ele>574.2</ele>
        <time>2022-06-27T07:30:09Z</time>
      </trkpt>
      <trkpt lat="42.4120560" lon="-2.6731370">
        <ele>574.2</ele>
        <time>2022-06-27T07:30:10Z</time>
      </trkpt>
      <trkpt lat="42.4120770" lon="-2.6732890">
        <ele>574.0</ele>
        <time>2022-06-27T07:30:11Z</time>
      </trkpt>
      <trkpt lat="42.4120970" lon="-2.6734410">
        <ele>573.8</ele>
        <time>2022-06-27T07:30:12Z</time>
      </trkpt>
      <trkpt lat="42.4121150" lon="-2.6735960">
        <ele>573.6</ele>
        <time>2022-06-27T07:30:13Z</time>
      </trkpt>
      <trkpt lat="42.4121290" lon="-2.6737510">
        <ele>573.2</ele>
        <time>2022-06-27T07:30:14Z</time>
      </trkpt>
      <trkpt lat="42.4121410" lon="-2.6739050">
        <ele>572.8</ele>
        <time>2022-06-27T07:30:15Z</time>
      </trkpt>
      <trkpt lat="42.4121490" lon="-2.6740610">
        <ele>572.2</ele>
        <time>2022-06-27T07:30:16Z</time>
      </trkpt>
      <trkpt lat="42.4121540" lon="-2.6742190">
        <ele>571.8</ele>
        <time>2022-06-27T07:30:17Z</time>
      </trkpt>
      <trkpt lat="42.4121560" lon="-2.6743790">
        <ele>571.4</ele>
        <time>2022-06-27T07:30:18Z</time>
      </trkpt>
      <trkpt lat="42.4121530" lon="-2.6745400">
        <ele>571.0</ele>
        <time>2022-06-27T07:30:19Z</time>
      </trkpt>
      <trkpt lat="42.4121490" lon="-2.6746990">
        <ele>570.8</ele>
        <time>2022-06-27T07:30:20Z</time>
      </trkpt>
      <trkpt lat="42.4121410" lon="-2.6748610">
        <ele>570.4</ele>
        <time>2022-06-27T07:30:21Z</time>
      </trkpt>
      <trkpt lat="42.4121290" lon="-2.6750230">
        <ele>570.2</ele>
        <time>2022-06-27T07:30:22Z</time>
      </trkpt>
      <trkpt lat="42.4121130" lon="-2.6751860">
        <ele>569.4</ele>
        <time>2022-06-27T07:30:23Z</time>
      </trkpt>
      <trkpt lat="42.4120910" lon="-2.6753510">
        <ele>568.8</ele>
        <time>2022-06-27T07:30:24Z</time>
      </trkpt>
      <trkpt lat="42.4120670" lon="-2.6755150">
        <ele>568.2</ele>
        <time>2022-06-27T07:30:25Z</time>
      </trkpt>
      <trkpt lat="42.4120390" lon="-2.6756820">
        <ele>567.4</ele>
        <time>2022-06-27T07:30:26Z</time>
      </trkpt>
      <trkpt lat="42.4120070" lon="-2.6758490">
        <ele>567.0</ele>
        <time>2022-06-27T07:30:27Z</time>
      </trkpt>
      <trkpt lat="42.4119710" lon="-2.6760170">
        <ele>566.2</ele>
        <time>2022-06-27T07:30:28Z</time>
      </trkpt>
      <trkpt lat="42.4119360" lon="-2.6761840">
        <ele>565.8</ele>
        <time>2022-06-27T07:30:29Z</time>
      </trkpt>
      <trkpt lat="42.4119010" lon="-2.6763510">
        <ele>565.0</ele>
        <time>2022-06-27T07:30:30Z</time>
      </trkpt>
      <trkpt lat="42.4118680" lon="-2.6765190">
        <ele>564.2</ele>
        <time>2022-06-27T07:30:31Z</time>
      </trkpt>
      <trkpt lat="42.4118340" lon="-2.6766890">
        <ele>563.4</ele>
        <time>2022-06-27T07:30:32Z</time>
      </trkpt>
      <trkpt lat="42.4118000" lon="-2.6768580">
        <ele>562.6</ele>
        <time>2022-06-27T07:30:33Z</time>
      </trkpt>
      <trkpt lat="42.4117650" lon="-2.6770260">
        <ele>562.2</ele>
        <time>2022-06-27T07:30:34Z</time>
      </trkpt>
      <trkpt lat="42.4117290" lon="-2.6771940">
        <ele>561.6</ele>
        <time>2022-06-27T07:30:35Z</time>
      </trkpt>
      <trkpt lat="42.4116940" lon="-2.6773600">
        <ele>561.2</ele>
        <time>2022-06-27T07:30:36Z</time>
      </trkpt>
      <trkpt lat="42.4116600" lon="-2.6775270">
        <ele>560.4</ele>
        <time>2022-06-27T07:30:37Z</time>
      </trkpt>
      <trkpt lat="42.4116280" lon="-2.6776950">
        <ele>559.8</ele>
        <time>2022-06-27T07:30:38Z</time>
      </trkpt>
      <trkpt lat="42.4115930" lon="-2.6778620">
        <ele>559.2</ele>
        <time>2022-06-27T07:30:39Z</time>
      </trkpt>
      <trkpt lat="42.4115580" lon="-2.6780280">
        <ele>558.8</ele>
        <time>2022-06-27T07:30:40Z</time>
      </trkpt>
      <trkpt lat="42.4115250" lon="-2.6781960">
        <ele>557.8</ele>
        <time>2022-06-27T07:30:41Z</time>
      </trkpt>
      <trkpt lat="42.4114900" lon="-2.6783630">
        <ele>556.8</ele>
        <time>2022-06-27T07:30:42Z</time>
      </trkpt>
      <trkpt lat="42.4114540" lon="-2.6785270">
        <ele>556.4</ele>
        <time>2022-06-27T07:30:43Z</time>
      </trkpt>
      <trkpt lat="42.4114200" lon="-2.6786890">
        <ele>555.8</ele>
        <time>2022-06-27T07:30:44Z</time>
      </trkpt>
      <trkpt lat="42.4113850" lon="-2.6788500">
        <ele>555.6</ele>
        <time>2022-06-27T07:30:45Z</time>
      </trkpt>
      <trkpt lat="42.4113500" lon="-2.6790110">
        <ele>554.8</ele>
        <time>2022-06-27T07:30:46Z</time>
      </trkpt>
      <trkpt lat="42.4113160" lon="-2.6791690">
        <ele>554.4</ele>
        <time>2022-06-27T07:30:47Z</time>
      </trkpt>
      <trkpt lat="42.4112860" lon="-2.6793220">
        <ele>553.8</ele>
        <time>2022-06-27T07:30:48Z</time>
      </trkpt>
      <trkpt lat="42.4112560" lon="-2.6794710">
        <ele>553.4</ele>
        <time>2022-06-27T07:30:49Z</time>
      </trkpt>
      <trkpt lat="42.4112270" lon="-2.6796190">
        <ele>553.2</ele>
        <time>2022-06-27T07:30:50Z</time>
      </trkpt>
      <trkpt lat="42.4111970" lon="-2.6797660">
        <ele>553.0</ele>
        <time>2022-06-27T07:30:51Z</time>
      </trkpt>
      <trkpt lat="42.4111690" lon="-2.6799120">
        <ele>553.0</ele>
        <time>2022-06-27T07:30:52Z</time>
      </trkpt>
      <trkpt lat="42.4111400" lon="-2.6800560">
        <ele>552.8</ele>
        <time>2022-06-27T07:30:53Z</time>
      </trkpt>
      <trkpt lat="42.4111100" lon="-2.6802000">
        <ele>552.8</ele>
        <time>2022-06-27T07:30:54Z</time>
      </trkpt>
      <trkpt lat="42.4110820" lon="-2.6803410">
        <ele>552.4</ele>
        <time>2022-06-27T07:30:55Z</time>
      </trkpt>
      <trkpt lat="42.4110530" lon="-2.6804820">
        <ele>552.2</ele>
        <time>2022-06-27T07:30:56Z</time>
      </trkpt>
      <trkpt lat="42.4110230" lon="-2.6806210">
        <ele>552.2</ele>
        <time>2022-06-27T07:30:57Z</time>
      </trkpt>
      <trkpt lat="42.4109940" lon="-2.6807590">
        <ele>552.0</ele>
        <time>2022-06-27T07:30:58Z</time>
      </trkpt>
      <trkpt lat="42.4109640" lon="-2.6808950">
        <ele>552.0</ele>
        <time>2022-06-27T07:30:59Z</time>
      </trkpt>
      <trkpt lat="42.4109370" lon="-2.6810280">
        <ele>551.6</ele>
        <time>2022-06-27T07:31:00Z</time>
      </trkpt>
      <trkpt lat="42.4109100" lon="-2.6811630">
        <ele>551.4</ele>
        <time>2022-06-27T07:31:01Z</time>
      </trkpt>
      <trkpt lat="42.4108830" lon="-2.6812990">
        <ele>551.2</ele>
        <time>2022-06-27T07:31:02Z</time>
      </trkpt>
      <trkpt lat="42.4108580" lon="-2.6814350">
        <ele>551.0</ele>
        <time>2022-06-27T07:31:03Z</time>
      </trkpt>
      <trkpt lat="42.4108300" lon="-2.6815690">
        <ele>550.8</ele>
        <time>2022-06-27T07:31:04Z</time>
      </trkpt>
      <trkpt lat="42.4108020" lon="-2.6817010">
        <ele>550.6</ele>
        <time>2022-06-27T07:31:05Z</time>
      </trkpt>
      <trkpt lat="42.4107750" lon="-2.6818320">
        <ele>550.6</ele>
        <time>2022-06-27T07:31:06Z</time>
      </trkpt>
      <trkpt lat="42.4107480" lon="-2.6819630">
        <ele>550.4</ele>
        <time>2022-06-27T07:31:07Z</time>
      </trkpt>
      <trkpt lat="42.4107230" lon="-2.6820940">
        <ele>550.4</ele>
        <time>2022-06-27T07:31:08Z</time>
      </trkpt>
      <trkpt lat="42.4106970" lon="-2.6822250">
        <ele>550.2</ele>
        <time>2022-06-27T07:31:09Z</time>
      </trkpt>
      <trkpt lat="42.4106680" lon="-2.6823570">
        <ele>550.2</ele>
        <time>2022-06-27T07:31:10Z</time>
      </trkpt>
      <trkpt lat="42.4106410" lon="-2.6824870">
        <ele>550.2</ele>
        <time>2022-06-27T07:31:11Z</time>
      </trkpt>
      <trkpt lat="42.4106120" lon="-2.6826210">
        <ele>550.2</ele>
        <time>2022-06-27T07:31:12Z</time>
      </trkpt>
      <trkpt lat="42.4105840" lon="-2.6827560">
        <ele>550.0</ele>
        <time>2022-06-27T07:31:13Z</time>
      </trkpt>
      <trkpt lat="42.4105550" lon="-2.6828910">
        <ele>550.0</ele>
        <time>2022-06-27T07:31:14Z</time>
      </trkpt>
      <trkpt lat="42.4105280" lon="-2.6830220">
        <ele>550.0</ele>
        <time>2022-06-27T07:31:15Z</time>
      </trkpt>
      <trkpt lat="42.4105020" lon="-2.6831520">
        <ele>550.0</ele>
        <time>2022-06-27T07:31:16Z</time>
      </trkpt>
      <trkpt lat="42.4104760" lon="-2.6832810">
        <ele>550.0</ele>
        <time>2022-06-27T07:31:17Z</time>
      </trkpt>
      <trkpt lat="42.4104550" lon="-2.6833810">
        <ele>550.0</ele>
        <time>2022-06-27T07:31:18Z</time>
      </trkpt>
      <trkpt lat="42.4104230" lon="-2.6835300">
        <ele>550.0</ele>
        <time>2022-06-27T07:31:19Z</time>
      </trkpt>
      <trkpt lat="42.4103970" lon="-2.6836510">
        <ele>549.8</ele>
        <time>2022-06-27T07:31:20Z</time>
      </trkpt>
      <trkpt lat="42.4103710" lon="-2.6837730">
        <ele>549.8</ele>
        <time>2022-06-27T07:31:21Z</time>
      </trkpt>
      <trkpt lat="42.4103460" lon="-2.6838940">
        <ele>549.8</ele>
        <time>2022-06-27T07:31:22Z</time>
      </trkpt>
      <trkpt lat="42.4103220" lon="-2.6840150">
        <ele>549.6</ele>
        <time>2022-06-27T07:31:23Z</time>
      </trkpt>
      <trkpt lat="42.4102970" lon="-2.6841360">
        <ele>549.6</ele>
        <time>2022-06-27T07:31:24Z</time>
      </trkpt>
      <trkpt lat="42.4102720" lon="-2.6842600">
        <ele>549.4</ele>
        <time>2022-06-27T07:31:25Z</time>
      </trkpt>
      <trkpt lat="42.4102480" lon="-2.6843820">
        <ele>549.2</ele>
        <time>2022-06-27T07:31:26Z</time>
      </trkpt>
      <trkpt lat="42.4102240" lon="-2.6845050">
        <ele>549.2</ele>
        <time>2022-06-27T07:31:27Z</time>
      </trkpt>
      <trkpt lat="42.4101990" lon="-2.6846280">
        <ele>549.0</ele>
        <time>2022-06-27T07:31:28Z</time>
      </trkpt>
      <trkpt lat="42.4101750" lon="-2.6847460">
        <ele>549.0</ele>
        <time>2022-06-27T07:31:29Z</time>
      </trkpt>
      <trkpt lat="42.4101510" lon="-2.6848650">
        <ele>549.0</ele>
        <time>2022-06-27T07:31:30Z</time>
      </trkpt>
      <trkpt lat="42.4101280" lon="-2.6849840">
        <ele>549.0</ele>
        <time>2022-06-27T07:31:31Z</time>
      </trkpt>
      <trkpt lat="42.4101050" lon="-2.6851030">
        <ele>548.8</ele>
        <time>2022-06-27T07:31:32Z</time>
      </trkpt>
      <trkpt lat="42.4100810" lon="-2.6852210">
        <ele>548.8</ele>
        <time>2022-06-27T07:31:33Z</time>
      </trkpt>
      <trkpt lat="42.4100560" lon="-2.6853380">
        <ele>548.6</ele>
        <time>2022-06-27T07:31:34Z</time>
      </trkpt>
      <trkpt lat="42.4100320" lon="-2.6854560">
        <ele>548.6</ele>
        <time>2022-06-27T07:31:35Z</time>
      </trkpt>
      <trkpt lat="42.4100080" lon="-2.6855750">
        <ele>548.6</ele>
        <time>2022-06-27T07:31:36Z</time>
      </trkpt>
      <trkpt lat="42.4099830" lon="-2.6856940">
        <ele>548.6</ele>
        <time>2022-06-27T07:31:37Z</time>
      </trkpt>
      <trkpt lat="42.4099580" lon="-2.6858120">
        <ele>548.4</ele>
        <time>2022-06-27T07:31:38Z</time>
      </trkpt>
      <trkpt lat="42.4099360" lon="-2.6859280">
        <ele>548.4</ele>
        <time>2022-06-27T07:31:39Z</time>
      </trkpt>
      <trkpt lat="42.4099130" lon="-2.6860430">
        <ele>548.4</ele>
        <time>2022-06-27T07:31:40Z</time>
      </trkpt>
      <trkpt lat="42.4098900" lon="-2.6861590">
        <ele>548.4</ele>
        <time>2022-06-27T07:31:41Z</time>
      </trkpt>
      <trkpt lat="42.4098690" lon="-2.6862730">
        <ele>548.2</ele>
        <time>2022-06-27T07:31:42Z</time>
      </trkpt>
      <trkpt lat="42.4098460" lon="-2.6863850">
        <ele>548.0</ele>
        <time>2022-06-27T07:31:43Z</time>
      </trkpt>
      <trkpt lat="42.4098230" lon="-2.6864990">
        <ele>548.0</ele>
        <time>2022-06-27T07:31:44Z</time>
      </trkpt>
      <trkpt lat="42.4098010" lon="-2.6866120">
        <ele>547.8</ele>
        <time>2022-06-27T07:31:45Z</time>
      </trkpt>
      <trkpt lat="42.4097790" lon="-2.6867240">
        <ele>547.8</ele>
        <time>2022-06-27T07:31:46Z</time>
      </trkpt>
      <trkpt lat="42.4097570" lon="-2.6868340">
        <ele>547.8</ele>
        <time>2022-06-27T07:31:47Z</time>
      </trkpt>
      <trkpt lat="42.4097350" lon="-2.6869430">
        <ele>547.8</ele>
        <time>2022-06-27T07:31:48Z</time>
      </trkpt>
      <trkpt lat="42.4097130" lon="-2.6870540">
        <ele>547.8</ele>
        <time>2022-06-27T07:31:49Z</time>
      </trkpt>
      <trkpt lat="42.4096910" lon="-2.6871620">
        <ele>547.8</ele>
        <time>2022-06-27T07:31:50Z</time>
      </trkpt>
      <trkpt lat="42.4096690" lon="-2.6872710">
        <ele>547.8</ele>
        <time>2022-06-27T07:31:51Z</time>
      </trkpt>
      <trkpt lat="42.4096480" lon="-2.6873800">
        <ele>547.8</ele>
        <time>2022-06-27T07:31:52Z</time>
      </trkpt>
      <trkpt lat="42.4096250" lon="-2.6874900">
        <ele>547.8</ele>
        <time>2022-06-27T07:31:53Z</time>
      </trkpt>
      <trkpt lat="42.4096030" lon="-2.6875970">
        <ele>548.0</ele>
        <time>2022-06-27T07:31:54Z</time>
      </trkpt>
      <trkpt lat="42.4095820" lon="-2.6877040">
        <ele>548.0</ele>
        <time>2022-06-27T07:31:55Z</time>
      </trkpt>
      <trkpt lat="42.4095620" lon="-2.6878090">
        <ele>548.2</ele>
        <time>2022-06-27T07:31:56Z</time>
      </trkpt>
      <trkpt lat="42.4095410" lon="-2.6879150">
        <ele>548.2</ele>
        <time>2022-06-27T07:31:57Z</time>
      </trkpt>
      <trkpt lat="42.4095210" lon="-2.6880170">
        <ele>548.4</ele>
        <time>2022-06-27T07:31:58Z</time>
      </trkpt>
      <trkpt lat="42.4095010" lon="-2.6881210">
        <ele>548.4</ele>
        <time>2022-06-27T07:31:59Z</time>
      </trkpt>
      <trkpt lat="42.4094800" lon="-2.6882260">
        <ele>548.6</ele>
        <time>2022-06-27T07:32:00Z</time>
      </trkpt>
      <trkpt lat="42.4094570" lon="-2.6883300">
        <ele>548.6</ele>
        <time>2022-06-27T07:32:01Z</time>
      </trkpt>
      <trkpt lat="42.4094360" lon="-2.6884340">
        <ele>548.8</ele>
        <time>2022-06-27T07:32:02Z</time>
      </trkpt>
      <trkpt lat="42.4094150" lon="-2.6885380">
        <ele>548.8</ele>
        <time>2022-06-27T07:32:03Z</time>
      </trkpt>
      <trkpt lat="42.4093940" lon="-2.6886410">
        <ele>548.8</ele>
        <time>2022-06-27T07:32:04Z</time>
      </trkpt>
      <trkpt lat="42.4093710" lon="-2.6887430">
        <ele>548.8</ele>
        <time>2022-06-27T07:32:05Z</time>
      </trkpt>
      <trkpt lat="42.4093510" lon="-2.6888430">
        <ele>549.0</ele>
        <time>2022-06-27T07:32:06Z</time>
      </trkpt>
      <trkpt lat="42.4093300" lon="-2.6889420">
        <ele>549.0</ele>
        <time>2022-06-27T07:32:07Z</time>
      </trkpt>
      <trkpt lat="42.4093100" lon="-2.6890410">
        <ele>549.2</ele>
        <time>2022-06-27T07:32:08Z</time>
      </trkpt>
      <trkpt lat="42.4092920" lon="-2.6891380">
        <ele>549.2</ele>
        <time>2022-06-27T07:32:09Z</time>
      </trkpt>
      <trkpt lat="42.4092740" lon="-2.6892370">
        <ele>549.4</ele>
        <time>2022-06-27T07:32:10Z</time>
      </trkpt>
      <trkpt lat="42.4092560" lon="-2.6893360">
        <ele>549.4</ele>
        <time>2022-06-27T07:32:11Z</time>
      </trkpt>
      <trkpt lat="42.4092370" lon="-2.6894350">
        <ele>549.4</ele>
        <time>2022-06-27T07:32:12Z</time>
      </trkpt>
      <trkpt lat="42.4092190" lon="-2.6895340">
        <ele>549.4</ele>
        <time>2022-06-27T07:32:13Z</time>
      </trkpt>
      <trkpt lat="42.4092050" lon="-2.6896310">
        <ele>549.6</ele>
        <time>2022-06-27T07:32:14Z</time>
      </trkpt>
      <trkpt lat="42.4091900" lon="-2.6897290">
        <ele>549.6</ele>
        <time>2022-06-27T07:32:15Z</time>
      </trkpt>
      <trkpt lat="42.4091770" lon="-2.6898250">
        <ele>549.6</ele>
        <time>2022-06-27T07:32:16Z</time>
      </trkpt>
      <trkpt lat="42.4091660" lon="-2.6899200">
        <ele>549.6</ele>
        <time>2022-06-27T07:32:17Z</time>
      </trkpt>
      <trkpt lat="42.4091560" lon="-2.6900150">
        <ele>549.8</ele>
        <time>2022-06-27T07:32:18Z</time>
      </trkpt>
      <trkpt lat="42.4091450" lon="-2.6901100">
        <ele>549.8</ele>
        <time>2022-06-27T07:32:19Z</time>
      </trkpt>
      <trkpt lat="42.4091370" lon="-2.6902050">
        <ele>550.0</ele>
        <time>2022-06-27T07:32:20Z</time>
      </trkpt>
      <trkpt lat="42.4091300" lon="-2.6903020">
        <ele>550.2</ele>
        <time>2022-06-27T07:32:21Z</time>
      </trkpt>
      <trkpt lat="42.4091260" lon="-2.6904010">
        <ele>550.2</ele>
        <time>2022-06-27T07:32:22Z</time>
      </trkpt>
      <trkpt lat="42.4091240" lon="-2.6905020">
        <ele>550.4</ele>
        <time>2022-06-27T07:32:23Z</time>
      </trkpt>
      <trkpt lat="42.4091250" lon="-2.6906010">
        <ele>550.4</ele>
        <time>2022-06-27T07:32:24Z</time>
      </trkpt>
      <trkpt lat="42.4091240" lon="-2.6907010">
        <ele>550.4</ele>
        <time>2022-06-27T07:32:25Z</time>
      </trkpt>
      <trkpt lat="42.4091220" lon="-2.6908020">
        <ele>550.4</ele>
        <time>2022-06-27T07:32:26Z</time>
      </trkpt>
      <trkpt lat="42.4091210" lon="-2.6909020">
        <ele>550.4</ele>
        <time>2022-06-27T07:32:27Z</time>
      </trkpt>
      <trkpt lat="42.4091210" lon="-2.6910020">
        <ele>550.4</ele>
        <time>2022-06-27T07:32:28Z</time>
      </trkpt>
      <trkpt lat="42.4091220" lon="-2.6911040">
        <ele>550.4</ele>
        <time>2022-06-27T07:32:29Z</time>
      </trkpt>
      <trkpt lat="42.4091230" lon="-2.6912040">
        <ele>550.2</ele>
        <time>2022-06-27T07:32:30Z</time>
      </trkpt>
      <trkpt lat="42.4091270" lon="-2.6913040">
        <ele>550.2</ele>
        <time>2022-06-27T07:32:31Z</time>
      </trkpt>
      <trkpt lat="42.4091310" lon="-2.6914060">
        <ele>550.2</ele>
        <time>2022-06-27T07:32:32Z</time>
      </trkpt>
      <trkpt lat="42.4091360" lon="-2.6915090">
        <ele>550.2</ele>
        <time>2022-06-27T07:32:33Z</time>
      </trkpt>
      <trkpt lat="42.4091400" lon="-2.6916130">
        <ele>550.2</ele>
        <time>2022-06-27T07:32:34Z</time>
      </trkpt>
      <trkpt lat="42.4091450" lon="-2.6917180">
        <ele>550.2</ele>
        <time>2022-06-27T07:32:35Z</time>
      </trkpt>
      <trkpt lat="42.4091490" lon="-2.6918220">
        <ele>550.2</ele>
        <time>2022-06-27T07:32:36Z</time>
      </trkpt>
      <trkpt lat="42.4091560" lon="-2.6919250">
        <ele>550.2</ele>
        <time>2022-06-27T07:32:37Z</time>
      </trkpt>
      <trkpt lat="42.4091620" lon="-2.6920280">
        <ele>550.2</ele>
        <time>2022-06-27T07:32:38Z</time>
      </trkpt>
      <trkpt lat="42.4091680" lon="-2.6921310">
        <ele>550.2</ele>
        <time>2022-06-27T07:32:39Z</time>
      </trkpt>
      <trkpt lat="42.4091750" lon="-2.6922330">
        <ele>550.2</ele>
        <time>2022-06-27T07:32:40Z</time>
      </trkpt>
      <trkpt lat="42.4091830" lon="-2.6923360">
        <ele>550.2</ele>
        <time>2022-06-27T07:32:41Z</time>
      </trkpt>
      <trkpt lat="42.4091920" lon="-2.6924360">
        <ele>550.2</ele>
        <time>2022-06-27T07:32:42Z</time>
      </trkpt>
      <trkpt lat="42.4092020" lon="-2.6925360">
        <ele>550.2</ele>
        <time>2022-06-27T07:32:43Z</time>
      </trkpt>
      <trkpt lat="42.4092120" lon="-2.6926340">
        <ele>550.2</ele>
        <time>2022-06-27T07:32:44Z</time>
      </trkpt>
      <trkpt lat="42.4092230" lon="-2.6927310">
        <ele>550.2</ele>
        <time>2022-06-27T07:32:45Z</time>
      </trkpt>
      <trkpt lat="42.4092350" lon="-2.6928280">
        <ele>550.4</ele>
        <time>2022-06-27T07:32:46Z</time>
      </trkpt>
      <trkpt lat="42.4092480" lon="-2.6929260">
        <ele>550.4</ele>
        <time>2022-06-27T07:32:47Z</time>
      </trkpt>
      <trkpt lat="42.4092610" lon="-2.6930230">
        <ele>550.4</ele>
        <time>2022-06-27T07:32:48Z</time>
      </trkpt>
      <trkpt lat="42.4092750" lon="-2.6931210">
        <ele>550.4</ele>
        <time>2022-06-27T07:32:49Z</time>
      </trkpt>
      <trkpt lat="42.4092900" lon="-2.6932170">
        <ele>550.6</ele>
        <time>2022-06-27T07:32:50Z</time>
      </trkpt>
      <trkpt lat="42.4093060" lon="-2.6933110">
        <ele>550.6</ele>
        <time>2022-06-27T07:32:51Z</time>
      </trkpt>
      <trkpt lat="42.4093220" lon="-2.6934070">
        <ele>550.6</ele>
        <time>2022-06-27T07:32:52Z</time>
      </trkpt>
      <trkpt lat="42.4093390" lon="-2.6935010">
        <ele>550.8</ele>
        <time>2022-06-27T07:32:53Z</time>
      </trkpt>
      <trkpt lat="42.4093560" lon="-2.6935960">
        <ele>550.6</ele>
        <time>2022-06-27T07:32:54Z</time>
      </trkpt>
      <trkpt lat="42.4093740" lon="-2.6936890">
        <ele>550.6</ele>
        <time>2022-06-27T07:32:55Z</time>
      </trkpt>
      <trkpt lat="42.4093940" lon="-2.6937830">
        <ele>550.6</ele>
        <time>2022-06-27T07:32:56Z</time>
      </trkpt>
      <trkpt lat="42.4094150" lon="-2.6938770">
        <ele>550.6</ele>
        <time>2022-06-27T07:32:57Z</time>
      </trkpt>
      <trkpt lat="42.4094360" lon="-2.6939710">
        <ele>550.6</ele>
        <time>2022-06-27T07:32:58Z</time>
      </trkpt>
      <trkpt lat="42.4094580" lon="-2.6940640">
        <ele>550.6</ele>
        <time>2022-06-27T07:32:59Z</time>
      </trkpt>
      <trkpt lat="42.4094810" lon="-2.6941580">
        <ele>550.8</ele>
        <time>2022-06-27T07:33:00Z</time>
      </trkpt>
      <trkpt lat="42.4095060" lon="-2.6942520">
        <ele>550.8</ele>
        <time>2022-06-27T07:33:01Z</time>
      </trkpt>
      <trkpt lat="42.4095320" lon="-2.6943440">
        <ele>550.8</ele>
        <time>2022-06-27T07:33:02Z</time>
      </trkpt>
      <trkpt lat="42.4095560" lon="-2.6944350">
        <ele>550.8</ele>
        <time>2022-06-27T07:33:03Z</time>
      </trkpt>
      <trkpt lat="42.4095800" lon="-2.6945250">
        <ele>550.8</ele>
        <time>2022-06-27T07:33:04Z</time>
      </trkpt>
      <trkpt lat="42.4096060" lon="-2.6946170">
        <ele>551.0</ele>
        <time>2022-06-27T07:33:05Z</time>
      </trkpt>
      <trkpt lat="42.4096310" lon="-2.6947100">
        <ele>551.0</ele>
        <time>2022-06-27T07:33:06Z</time>
      </trkpt>
      <trkpt lat="42.4096560" lon="-2.6948010">
        <ele>551.0</ele>
        <time>2022-06-27T07:33:07Z</time>
      </trkpt>
      <trkpt lat="42.4096810" lon="-2.6948930">
        <ele>551.2</ele>
        <time>2022-06-27T07:33:08Z</time>
      </trkpt>
      <trkpt lat="42.4097090" lon="-2.6949820">
        <ele>551.2</ele>
        <time>2022-06-27T07:33:09Z</time>
      </trkpt>
      <trkpt lat="42.4097360" lon="-2.6950730">
        <ele>551.2</ele>
        <time>2022-06-27T07:33:10Z</time>
      </trkpt>
      <trkpt lat="42.4097630" lon="-2.6951630">
        <ele>551.2</ele>
        <time>2022-06-27T07:33:11Z</time>
      </trkpt>
      <trkpt lat="42.4097900" lon="-2.6952510">
        <ele>551.2</ele>
        <time>2022-06-27T07:33:12Z</time>
      </trkpt>
      <trkpt lat="42.4098160" lon="-2.6953410">
        <ele>551.2</ele>
        <time>2022-06-27T07:33:13Z</time>
      </trkpt>
      <trkpt lat="42.4098410" lon="-2.6954330">
        <ele>551.2</ele>
        <time>2022-06-27T07:33:14Z</time>
      </trkpt>
      <trkpt lat="42.4098650" lon="-2.6955230">
        <ele>551.2</ele>
        <time>2022-06-27T07:33:15Z</time>
      </trkpt>
      <trkpt lat="42.4098920" lon="-2.6956120">
        <ele>551.2</ele>
        <time>2022-06-27T07:33:16Z</time>
      </trkpt>
      <trkpt lat="42.4099180" lon="-2.6957020">
        <ele>551.2</ele>
        <time>2022-06-27T07:33:17Z</time>
      </trkpt>
      <trkpt lat="42.4099450" lon="-2.6957930">
        <ele>551.2</ele>
        <time>2022-06-27T07:33:18Z</time>
      </trkpt>
      <trkpt lat="42.4099720" lon="-2.6958840">
        <ele>551.2</ele>
        <time>2022-06-27T07:33:19Z</time>
      </trkpt>
      <trkpt lat="42.4099980" lon="-2.6959800">
        <ele>551.2</ele>
        <time>2022-06-27T07:33:20Z</time>
      </trkpt>
      <trkpt lat="42.4100250" lon="-2.6960780">
        <ele>551.0</ele>
        <time>2022-06-27T07:33:21Z</time>
      </trkpt>
      <trkpt lat="42.4100530" lon="-2.6961760">
        <ele>551.0</ele>
        <time>2022-06-27T07:33:22Z</time>
      </trkpt>
      <trkpt lat="42.4100810" lon="-2.6962770">
        <ele>550.8</ele>
        <time>2022-06-27T07:33:23Z</time>
      </trkpt>
      <trkpt lat="42.4101110" lon="-2.6963800">
        <ele>550.8</ele>
        <time>2022-06-27T07:33:24Z</time>
      </trkpt>
      <trkpt lat="42.4101400" lon="-2.6964830">
        <ele>550.6</ele>
        <time>2022-06-27T07:33:25Z</time>
      </trkpt>
      <trkpt lat="42.4101680" lon="-2.6965870">
        <ele>550.4</ele>
        <time>2022-06-27T07:33:26Z</time>
      </trkpt>
      <trkpt lat="42.4101980" lon="-2.6966910">
        <ele>550.2</ele>
        <time>2022-06-27T07:33:27Z</time>
      </trkpt>
      <trkpt lat="42.4102280" lon="-2.6967970">
        <ele>550.0</ele>
        <time>2022-06-27T07:33:28Z</time>
      </trkpt>
      <trkpt lat="42.4102580" lon="-2.6969050">
        <ele>550.0</ele>
        <time>2022-06-27T07:33:29Z</time>
      </trkpt>
      <trkpt lat="42.4102900" lon="-2.6970130">
        <ele>549.8</ele>
        <time>2022-06-27T07:33:30Z</time>
      </trkpt>
      <trkpt lat="42.4103240" lon="-2.6971230">
        <ele>549.6</ele>
        <time>2022-06-27T07:33:31Z</time>
      </trkpt>
      <trkpt lat="42.4103550" lon="-2.6972330">
        <ele>549.6</ele>
        <time>2022-06-27T07:33:32Z</time>
      </trkpt>
      <trkpt lat="42.4103850" lon="-2.6973440">
        <ele>549.4</ele>
        <time>2022-06-27T07:33:33Z</time>
      </trkpt>
      <trkpt lat="42.4104150" lon="-2.6974550">
        <ele>549.2</ele>
        <time>2022-06-27T07:33:34Z</time>
      </trkpt>
      <trkpt lat="42.4104480" lon="-2.6975650">
        <ele>548.8</ele>
        <time>2022-06-27T07:33:35Z</time>
      </trkpt>
      <trkpt lat="42.4104810" lon="-2.6976750">
        <ele>548.6</ele>
        <time>2022-06-27T07:33:36Z</time>
      </trkpt>
      <trkpt lat="42.4105140" lon="-2.6977850">
        <ele>548.2</ele>
        <time>2022-06-27T07:33:37Z</time>
      </trkpt>
      <trkpt lat="42.4105450" lon="-2.6978950">
        <ele>548.2</ele>
        <time>2022-06-27T07:33:38Z</time>
      </trkpt>
      <trkpt lat="42.4105780" lon="-2.6980060">
        <ele>548.2</ele>
        <time>2022-06-27T07:33:39Z</time>
      </trkpt>
      <trkpt lat="42.4106100" lon="-2.6981180">
        <ele>548.0</ele>
        <time>2022-06-27T07:33:40Z</time>
      </trkpt>
      <trkpt lat="42.4106420" lon="-2.6982300">
        <ele>547.6</ele>
        <time>2022-06-27T07:33:41Z</time>
      </trkpt>
      <trkpt lat="42.4106730" lon="-2.6983430">
        <ele>547.6</ele>
        <time>2022-06-27T07:33:42Z</time>
      </trkpt>
      <trkpt lat="42.4107050" lon="-2.6984560">
        <ele>547.4</ele>
        <time>2022-06-27T07:33:43Z</time>
      </trkpt>
      <trkpt lat="42.4107390" lon="-2.6985700">
        <ele>547.2</ele>
        <time>2022-06-27T07:33:44Z</time>
      </trkpt>
      <trkpt lat="42.4107700" lon="-2.6986860">
        <ele>546.8</ele>
        <time>2022-06-27T07:33:45Z</time>
      </trkpt>
      <trkpt lat="42.4108040" lon="-2.6988020">
        <ele>546.4</ele>
        <time>2022-06-27T07:33:46Z</time>
      </trkpt>
      <trkpt lat="42.4108360" lon="-2.6989170">
        <ele>546.2</ele>
        <time>2022-06-27T07:33:47Z</time>
      </trkpt>
      <trkpt lat="42.4108690" lon="-2.6990340">
        <ele>546.2</ele>
        <time>2022-06-27T07:33:48Z</time>
      </trkpt>
      <trkpt lat="42.4109010" lon="-2.6991480">
        <ele>546.0</ele>
        <time>2022-06-27T07:33:49Z</time>
      </trkpt>
      <trkpt lat="42.4109350" lon="-2.6992610">
        <ele>545.8</ele>
        <time>2022-06-27T07:33:50Z</time>
      </trkpt>
      <trkpt lat="42.4109670" lon="-2.6993780">
        <ele>545.4</ele>
        <time>2022-06-27T07:33:51Z</time>
      </trkpt>
      <trkpt lat="42.4110000" lon="-2.6994960">
        <ele>545.4</ele>
        <time>2022-06-27T07:33:52Z</time>
      </trkpt>
      <trkpt lat="42.4110340" lon="-2.6996130">
        <ele>545.0</ele>
        <time>2022-06-27T07:33:53Z</time>
      </trkpt>
      <trkpt lat="42.4110690" lon="-2.6997300">
        <ele>545.0</ele>
        <time>2022-06-27T07:33:54Z</time>
      </trkpt>
      <trkpt lat="42.4111030" lon="-2.6998510">
        <ele>544.6</ele>
        <time>2022-06-27T07:33:55Z</time>
      </trkpt>
      <trkpt lat="42.4111360" lon="-2.6999700">
        <ele>544.2</ele>
        <time>2022-06-27T07:33:56Z</time>
      </trkpt>
      <trkpt lat="42.4111690" lon="-2.7000900">
        <ele>544.0</ele>
        <time>2022-06-27T07:33:57Z</time>
      </trkpt>
      <trkpt lat="42.4112030" lon="-2.7002090">
        <ele>543.6</ele>
        <time>2022-06-27T07:33:58Z</time>
      </trkpt>
      <trkpt lat="42.4112370" lon="-2.7003270">
        <ele>543.4</ele>
        <time>2022-06-27T07:33:59Z</time>
      </trkpt>
      <trkpt lat="42.4112710" lon="-2.7004450">
        <ele>543.2</ele>
        <time>2022-06-27T07:34:00Z</time>
      </trkpt>
      <trkpt lat="42.4113060" lon="-2.7005630">
        <ele>543.2</ele>
        <time>2022-06-27T07:34:01Z</time>
      </trkpt>
      <trkpt lat="42.4113400" lon="-2.7006830">
        <ele>543.0</ele>
        <time>2022-06-27T07:34:02Z</time>
      </trkpt>
      <trkpt lat="42.4113730" lon="-2.7008040">
        <ele>543.0</ele>
        <time>2022-06-27T07:34:03Z</time>
      </trkpt>
      <trkpt lat="42.4114090" lon="-2.7009260">
        <ele>542.6</ele>
        <time>2022-06-27T07:34:04Z</time>
      </trkpt>
      <trkpt lat="42.4114430" lon="-2.7010460">
        <ele>542.6</ele>
        <time>2022-06-27T07:34:05Z</time>
      </trkpt>
      <trkpt lat="42.4114770" lon="-2.7011670">
        <ele>542.4</ele>
        <time>2022-06-27T07:34:06Z</time>
      </trkpt>
      <trkpt lat="42.4115110" lon="-2.7012890">
        <ele>542.0</ele>
        <time>2022-06-27T07:34:07Z</time>
      </trkpt>
      <trkpt lat="42.4115470" lon="-2.7014090">
        <ele>541.8</ele>
        <time>2022-06-27T07:34:08Z</time>
      </trkpt>
      <trkpt lat="42.4115810" lon="-2.7015290">
        <ele>541.4</ele>
        <time>2022-06-27T07:34:09Z</time>
      </trkpt>
      <trkpt lat="42.4116160" lon="-2.7016520">
        <ele>541.4</ele>
        <time>2022-06-27T07:34:10Z</time>
      </trkpt>
      <trkpt lat="42.4116520" lon="-2.7017760">
        <ele>540.8</ele>
        <time>2022-06-27T07:34:11Z</time>
      </trkpt>
      <trkpt lat="42.4116860" lon="-2.7018990">
        <ele>540.6</ele>
        <time>2022-06-27T07:34:12Z</time>
      </trkpt>
      <trkpt lat="42.4117220" lon="-2.7020240">
        <ele>540.0</ele>
        <time>2022-06-27T07:34:13Z</time>
      </trkpt>
      <trkpt lat="42.4117580" lon="-2.7021470">
        <ele>539.8</ele>
        <time>2022-06-27T07:34:14Z</time>
      </trkpt>
      <trkpt lat="42.4117940" lon="-2.7022710">
        <ele>539.6</ele>
        <time>2022-06-27T07:34:15Z</time>
      </trkpt>
      <trkpt lat="42.4118290" lon="-2.7023970">
        <ele>539.6</ele>
        <time>2022-06-27T07:34:16Z</time>
      </trkpt>
      <trkpt lat="42.4118630" lon="-2.7025240">
        <ele>539.4</ele>
        <time>2022-06-27T07:34:17Z</time>
      </trkpt>
      <trkpt lat="42.4119000" lon="-2.7026480">
        <ele>539.4</ele>
        <time>2022-06-27T07:34:18Z</time>
      </trkpt>
      <trkpt lat="42.4119360" lon="-2.7027720">
        <ele>539.2</ele>
        <time>2022-06-27T07:34:19Z</time>
      </trkpt>
      <trkpt lat="42.4119730" lon="-2.7028930">
        <ele>539.0</ele>
        <time>2022-06-27T07:34:20Z</time>
      </trkpt>
      <trkpt lat="42.4120110" lon="-2.7030140">
        <ele>538.8</ele>
        <time>2022-06-27T07:34:21Z</time>
      </trkpt>
      <trkpt lat="42.4120470" lon="-2.7031360">
        <ele>538.8</ele>
        <time>2022-06-27T07:34:22Z</time>
      </trkpt>
      <trkpt lat="42.4120820" lon="-2.7032550">
        <ele>538.4</ele>
        <time>2022-06-27T07:34:23Z</time>
      </trkpt>
      <trkpt lat="42.4121180" lon="-2.7033750">
        <ele>538.2</ele>
        <time>2022-06-27T07:34:24Z</time>
      </trkpt>
      <trkpt lat="42.4121530" lon="-2.7034960">
        <ele>538.0</ele>
        <time>2022-06-27T07:34:25Z</time>
      </trkpt>
      <trkpt lat="42.4121870" lon="-2.7036150">
        <ele>537.6</ele>
        <time>2022-06-27T07:34:26Z</time>
      </trkpt>
      <trkpt lat="42.4122230" lon="-2.7037310">
        <ele>537.4</ele>
        <time>2022-06-27T07:34:27Z</time>
      </trkpt>
      <trkpt lat="42.4122560" lon="-2.7038480">
        <ele>537.0</ele>
        <time>2022-06-27T07:34:28Z</time>
      </trkpt>
      <trkpt lat="42.4122880" lon="-2.7039640">
        <ele>536.8</ele>
        <time>2022-06-27T07:34:29Z</time>
      </trkpt>
      <trkpt lat="42.4123180" lon="-2.7040820">
        <ele>536.6</ele>
        <time>2022-06-27T07:34:30Z</time>
      </trkpt>
      <trkpt lat="42.4123490" lon="-2.7041940">
        <ele>536.4</ele>
        <time>2022-06-27T07:34:31Z</time>
      </trkpt>
      <trkpt lat="42.4123830" lon="-2.7042910">
        <ele>536.0</ele>
        <time>2022-06-27T07:34:32Z</time>
      </trkpt>
      <trkpt lat="42.4124280" lon="-2.7043700">
        <ele>535.8</ele>
        <time>2022-06-27T07:34:33Z</time>
      </trkpt>
      <trkpt lat="42.4124850" lon="-2.7044320">
        <ele>535.4</ele>
        <time>2022-06-27T07:34:34Z</time>
      </trkpt>
      <trkpt lat="42.4125510" lon="-2.7044730">
        <ele>535.2</ele>
        <time>2022-06-27T07:34:35Z</time>
      </trkpt>
      <trkpt lat="42.4126220" lon="-2.7044980">
        <ele>534.8</ele>
        <time>2022-06-27T07:34:36Z</time>
      </trkpt>
      <trkpt lat="42.4126880" lon="-2.7045250">
        <ele>534.8</ele>
        <time>2022-06-27T07:34:37Z</time>
      </trkpt>
      <trkpt lat="42.4127450" lon="-2.7045630">
        <ele>534.4</ele>
        <time>2022-06-27T07:34:38Z</time>
      </trkpt>
      <trkpt lat="42.4127910" lon="-2.7046140">
        <ele>533.8</ele>
        <time>2022-06-27T07:34:39Z</time>
      </trkpt>
      <trkpt lat="42.4128290" lon="-2.7046810">
        <ele>533.6</ele>
        <time>2022-06-27T07:34:40Z</time>
      </trkpt>
      <trkpt lat="42.4128520" lon="-2.7047630">
        <ele>533.4</ele>
        <time>2022-06-27T07:34:41Z</time>
      </trkpt>
      <trkpt lat="42.4128590" lon="-2.7048530">
        <ele>533.2</ele>
        <time>2022-06-27T07:34:42Z</time>
      </trkpt>
      <trkpt lat="42.4128520" lon="-2.7049440">
        <ele>533.2</ele>
        <time>2022-06-27T07:34:43Z</time>
      </trkpt>
      <trkpt lat="42.4128350" lon="-2.7050350">
        <ele>533.0</ele>
        <time>2022-06-27T07:34:44Z</time>
      </trkpt>
      <trkpt lat="42.4128090" lon="-2.7051250">
        <ele>533.0</ele>
        <time>2022-06-27T07:34:45Z</time>
      </trkpt>
      <trkpt lat="42.4127840" lon="-2.7052180">
        <ele>532.8</ele>
        <time>2022-06-27T07:34:46Z</time>
      </trkpt>
      <trkpt lat="42.4127670" lon="-2.7053150">
        <ele>532.8</ele>
        <time>2022-06-27T07:34:47Z</time>
      </trkpt>
      <trkpt lat="42.4127620" lon="-2.7054170">
        <ele>532.6</ele>
        <time>2022-06-27T07:34:48Z</time>
      </trkpt>
      <trkpt lat="42.4127710" lon="-2.7055190">
        <ele>532.6</ele>
        <time>2022-06-27T07:34:49Z</time>
      </trkpt>
      <trkpt lat="42.4127890" lon="-2.7056200">
        <ele>532.4</ele>
        <time>2022-06-27T07:34:50Z</time>
      </trkpt>
      <trkpt lat="42.4128080" lon="-2.7057220">
        <ele>532.4</ele>
        <time>2022-06-27T07:34:51Z</time>
      </trkpt>
      <trkpt lat="42.4128300" lon="-2.7058230">
        <ele>532.2</ele>
        <time>2022-06-27T07:34:52Z</time>
      </trkpt>
      <trkpt lat="42.4128520" lon="-2.7059260">
        <ele>532.0</ele>
        <time>2022-06-27T07:34:53Z</time>
      </trkpt>
      <trkpt lat="42.4128770" lon="-2.7060240">
        <ele>531.8</ele>
        <time>2022-06-27T07:34:54Z</time>
      </trkpt>
      <trkpt lat="42.4129050" lon="-2.7061270">
        <ele>531.6</ele>
        <time>2022-06-27T07:34:55Z</time>
      </trkpt>
      <trkpt lat="42.4129320" lon="-2.7062300">
        <ele>531.6</ele>
        <time>2022-06-27T07:34:56Z</time>
      </trkpt>
      <trkpt lat="42.4129590" lon="-2.7063340">
        <ele>531.4</ele>
        <time>2022-06-27T07:34:57Z</time>
      </trkpt>
      <trkpt lat="42.4129870" lon="-2.7064370">
        <ele>531.0</ele>
        <time>2022-06-27T07:34:58Z</time>
      </trkpt>
      <trkpt lat="42.4130170" lon="-2.7065400">
        <ele>530.6</ele>
        <time>2022-06-27T07:34:59Z</time>
      </trkpt>
      <trkpt lat="42.4130470" lon="-2.7066450">
        <ele>530.4</ele>
        <time>2022-06-27T07:35:00Z</time>
      </trkpt>
      <trkpt lat="42.4130770" lon="-2.7067500">
        <ele>530.2</ele>
        <time>2022-06-27T07:35:01Z</time>
      </trkpt>
      <trkpt lat="42.4131060" lon="-2.7068570">
        <ele>529.8</ele>
        <time>2022-06-27T07:35:02Z</time>
      </trkpt>
      <trkpt lat="42.4131350" lon="-2.7069650">
        <ele>529.8</ele>
        <time>2022-06-27T07:35:03Z</time>
      </trkpt>
      <trkpt lat="42.4131650" lon="-2.7070750">
        <ele>529.6</ele>
        <time>2022-06-27T07:35:04Z</time>
      </trkpt>
      <trkpt lat="42.4131940" lon="-2.7071860">
        <ele>529.6</ele>
        <time>2022-06-27T07:35:05Z</time>
      </trkpt>
      <trkpt lat="42.4132250" lon="-2.7072970">
        <ele>529.2</ele>
        <time>2022-06-27T07:35:06Z</time>
      </trkpt>
      <trkpt lat="42.4132580" lon="-2.7074070">
        <ele>529.0</ele>
        <time>2022-06-27T07:35:07Z</time>
      </trkpt>
      <trkpt lat="42.4132900" lon="-2.7075180">
        <ele>529.0</ele>
        <time>2022-06-27T07:35:08Z</time>
      </trkpt>
      <trkpt lat="42.4133200" lon="-2.7076290">
        <ele>528.8</ele>
        <time>2022-06-27T07:35:09Z</time>
      </trkpt>
      <trkpt lat="42.4133520" lon="-2.7077420">
        <ele>528.6</ele>
        <time>2022-06-27T07:35:10Z</time>
      </trkpt>
      <trkpt lat="42.4133850" lon="-2.7078560">
        <ele>528.6</ele>
        <time>2022-06-27T07:35:11Z</time>
      </trkpt>
      <trkpt lat="42.4134190" lon="-2.7079690">
        <ele>528.4</ele>
        <time>2022-06-27T07:35:12Z</time>
      </trkpt>
      <trkpt lat="42.4134520" lon="-2.7080820">
        <ele>528.0</ele>
        <time>2022-06-27T07:35:13Z</time>
      </trkpt>
      <trkpt lat="42.4134850" lon="-2.7081980">
        <ele>527.6</ele>
        <time>2022-06-27T07:35:14Z</time>
      </trkpt>
      <trkpt lat="42.4135180" lon="-2.7083140">
        <ele>527.4</ele>
        <time>2022-06-27T07:35:15Z</time>
      </trkpt>
      <trkpt lat="42.4135530" lon="-2.7084310">
        <ele>527.0</ele>
        <time>2022-06-27T07:35:16Z</time>
      </trkpt>
      <trkpt lat="42.4135860" lon="-2.7085470">
        <ele>527.0</ele>
        <time>2022-06-27T07:35:17Z</time>
      </trkpt>
      <trkpt lat="42.4136190" lon="-2.7086640">
        <ele>526.6</ele>
        <time>2022-06-27T07:35:18Z</time>
      </trkpt>
      <trkpt lat="42.4136520" lon="-2.7087820">
        <ele>526.6</ele>
        <time>2022-06-27T07:35:19Z</time>
      </trkpt>
      <trkpt lat="42.4136860" lon="-2.7089000">
        <ele>526.2</ele>
        <time>2022-06-27T07:35:20Z</time>
      </trkpt>
      <trkpt lat="42.4137190" lon="-2.7090180">
        <ele>525.8</ele>
        <time>2022-06-27T07:35:21Z</time>
      </trkpt>
      <trkpt lat="42.4137520" lon="-2.7091360">
        <ele>525.6</ele>
        <time>2022-06-27T07:35:22Z</time>
      </trkpt>
      <trkpt lat="42.4137840" lon="-2.7092530">
        <ele>525.2</ele>
        <time>2022-06-27T07:35:23Z</time>
      </trkpt>
      <trkpt lat="42.4138150" lon="-2.7093710">
        <ele>525.0</ele>
        <time>2022-06-27T07:35:24Z</time>
      </trkpt>
      <trkpt lat="42.4138480" lon="-2.7094900">
        <ele>524.4</ele>
        <time>2022-06-27T07:35:25Z</time>
      </trkpt>
      <trkpt lat="42.4138830" lon="-2.7096090">
        <ele>524.2</ele>
        <time>2022-06-27T07:35:26Z</time>
      </trkpt>
      <trkpt lat="42.4139190" lon="-2.7097300">
        <ele>524.0</ele>
        <time>2022-06-27T07:35:27Z</time>
      </trkpt>
      <trkpt lat="42.4139540" lon="-2.7098510">
        <ele>523.8</ele>
        <time>2022-06-27T07:35:28Z</time>
      </trkpt>
      <trkpt lat="42.4139880" lon="-2.7099720">
        <ele>523.6</ele>
        <time>2022-06-27T07:35:29Z</time>
      </trkpt>
      <trkpt lat="42.4140210" lon="-2.7100930">
        <ele>523.6</ele>
        <time>2022-06-27T07:35:30Z</time>
      </trkpt>
      <trkpt lat="42.4140570" lon="-2.7102130">
        <ele>523.4</ele>
        <time>2022-06-27T07:35:31Z</time>
      </trkpt>
      <trkpt lat="42.4140940" lon="-2.7103330">
        <ele>523.2</ele>
        <time>2022-06-27T07:35:32Z</time>
      </trkpt>
      <trkpt lat="42.4141330" lon="-2.7104490">
        <ele>523.0</ele>
        <time>2022-06-27T07:35:33Z</time>
      </trkpt>
      <trkpt lat="42.4141730" lon="-2.7105640">
        <ele>522.6</ele>
        <time>2022-06-27T07:35:34Z</time>
      </trkpt>
      <trkpt lat="42.4142130" lon="-2.7106810">
        <ele>522.6</ele>
        <time>2022-06-27T07:35:35Z</time>
      </trkpt>
      <trkpt lat="42.4142550" lon="-2.7107970">
        <ele>522.2</ele>
        <time>2022-06-27T07:35:36Z</time>
      </trkpt>
      <trkpt lat="42.4142970" lon="-2.7109110">
        <ele>522.0</ele>
        <time>2022-06-27T07:35:37Z</time>
      </trkpt>
      <trkpt lat="42.4143400" lon="-2.7110250">
        <ele>521.8</ele>
        <time>2022-06-27T07:35:38Z</time>
      </trkpt>
      <trkpt lat="42.4143840" lon="-2.7111410">
        <ele>521.4</ele>
        <time>2022-06-27T07:35:39Z</time>
      </trkpt>
      <trkpt lat="42.4144300" lon="-2.7112560">
        <ele>521.2</ele>
        <time>2022-06-27T07:35:40Z</time>
      </trkpt>
      <trkpt lat="42.4144760" lon="-2.7113690">
        <ele>521.0</ele>
        <time>2022-06-27T07:35:41Z</time>
      </trkpt>
      <trkpt lat="42.4145230" lon="-2.7114810">
        <ele>520.8</ele>
        <time>2022-06-27T07:35:42Z</time>
      </trkpt>
      <trkpt lat="42.4145740" lon="-2.7115900">
        <ele>520.4</ele>
        <time>2022-06-27T07:35:43Z</time>
      </trkpt>
      <trkpt lat="42.4146260" lon="-2.7116980">
        <ele>520.2</ele>
        <time>2022-06-27T07:35:44Z</time>
      </trkpt>
      <trkpt lat="42.4146790" lon="-2.7118050">
        <ele>520.0</ele>
        <time>2022-06-27T07:35:45Z</time>
      </trkpt>
      <trkpt lat="42.4147320" lon="-2.7119120">
        <ele>519.6</ele>
        <time>2022-06-27T07:35:46Z</time>
      </trkpt>
      <trkpt lat="42.4147870" lon="-2.7120180">
        <ele>519.4</ele>
        <time>2022-06-27T07:35:47Z</time>
      </trkpt>
      <trkpt lat="42.4148430" lon="-2.7121240">
        <ele>519.0</ele>
        <time>2022-06-27T07:35:48Z</time>
      </trkpt>
      <trkpt lat="42.4148980" lon="-2.7122270">
        <ele>519.0</ele>
        <time>2022-06-27T07:35:49Z</time>
      </trkpt>
      <trkpt lat="42.4149560" lon="-2.7123300">
        <ele>518.8</ele>
        <time>2022-06-27T07:35:50Z</time>
      </trkpt>
      <trkpt lat="42.4150130" lon="-2.7124300">
        <ele>518.4</ele>
        <time>2022-06-27T07:35:51Z</time>
      </trkpt>
      <trkpt lat="42.4150700" lon="-2.7125280">
        <ele>518.2</ele>
        <time>2022-06-27T07:35:52Z</time>
      </trkpt>
      <trkpt lat="42.4151280" lon="-2.7126260">
        <ele>517.8</ele>
        <time>2022-06-27T07:35:53Z</time>
      </trkpt>
      <trkpt lat="42.4151860" lon="-2.7127240">
        <ele>517.6</ele>
        <time>2022-06-27T07:35:54Z</time>
      </trkpt>
      <trkpt lat="42.4152430" lon="-2.7128190">
        <ele>517.2</ele>
        <time>2022-06-27T07:35:55Z</time>
      </trkpt>
      <trkpt lat="42.4153020" lon="-2.7129120">
        <ele>517.2</ele>
        <time>2022-06-27T07:35:56Z</time>
      </trkpt>
      <trkpt lat="42.4153630" lon="-2.7130040">
        <ele>517.0</ele>
        <time>2022-06-27T07:35:57Z</time>
      </trkpt>
      <trkpt lat="42.4154240" lon="-2.7130950">
        <ele>516.6</ele>
        <time>2022-06-27T07:35:58Z</time>
      </trkpt>
      <trkpt lat="42.4154870" lon="-2.7131850">
        <ele>516.4</ele>
        <time>2022-06-27T07:35:59Z</time>
      </trkpt>
      <trkpt lat="42.4155500" lon="-2.7132720">
        <ele>516.0</ele>
        <time>2022-06-27T07:36:00Z</time>
      </trkpt>
      <trkpt lat="42.4156140" lon="-2.7133580">
        <ele>516.0</ele>
        <time>2022-06-27T07:36:01Z</time>
      </trkpt>
      <trkpt lat="42.4156760" lon="-2.7134430">
        <ele>515.8</ele>
        <time>2022-06-27T07:36:02Z</time>
      </trkpt>
      <trkpt lat="42.4157390" lon="-2.7135280">
        <ele>515.8</ele>
        <time>2022-06-27T07:36:03Z</time>
      </trkpt>
      <trkpt lat="42.4158040" lon="-2.7136100">
        <ele>515.6</ele>
        <time>2022-06-27T07:36:04Z</time>
      </trkpt>
      <trkpt lat="42.4158680" lon="-2.7136910">
        <ele>515.6</ele>
        <time>2022-06-27T07:36:05Z</time>
      </trkpt>
      <trkpt lat="42.4159330" lon="-2.7137720">
        <ele>515.6</ele>
        <time>2022-06-27T07:36:06Z</time>
      </trkpt>
      <trkpt lat="42.4160000" lon="-2.7138500">
        <ele>515.4</ele>
        <time>2022-06-27T07:36:07Z</time>
      </trkpt>
      <trkpt lat="42.4160640" lon="-2.7139280">
        <ele>515.2</ele>
        <time>2022-06-27T07:36:08Z</time>
      </trkpt>
      <trkpt lat="42.4161310" lon="-2.7140040">
        <ele>515.2</ele>
        <time>2022-06-27T07:36:09Z</time>
      </trkpt>
      <trkpt lat="42.4162010" lon="-2.7140760">
        <ele>515.0</ele>
        <time>2022-06-27T07:36:10Z</time>
      </trkpt>
      <trkpt lat="42.4162710" lon="-2.7141470">
        <ele>515.0</ele>
        <time>2022-06-27T07:36:11Z</time>
      </trkpt>
      <trkpt lat="42.4163400" lon="-2.7142190">
        <ele>515.0</ele>
        <time>2022-06-27T07:36:12Z</time>
      </trkpt>
      <trkpt lat="42.4164070" lon="-2.7142880">
        <ele>514.8</ele>
        <time>2022-06-27T07:36:13Z</time>
      </trkpt>
      <trkpt lat="42.4164750" lon="-2.7143580">
        <ele>514.8</ele>
        <time>2022-06-27T07:36:14Z</time>
      </trkpt>
      <trkpt lat="42.4165440" lon="-2.7144270">
        <ele>514.8</ele>
        <time>2022-06-27T07:36:15Z</time>
      </trkpt>
      <trkpt lat="42.4166130" lon="-2.7144930">
        <ele>514.6</ele>
        <time>2022-06-27T07:36:16Z</time>
      </trkpt>
      <trkpt lat="42.4166840" lon="-2.7145590">
        <ele>514.6</ele>
        <time>2022-06-27T07:36:17Z</time>
      </trkpt>
      <trkpt lat="42.4167540" lon="-2.7146250">
        <ele>514.2</ele>
        <time>2022-06-27T07:36:18Z</time>
      </trkpt>
      <trkpt lat="42.4168230" lon="-2.7146900">
        <ele>514.2</ele>
        <time>2022-06-27T07:36:19Z</time>
      </trkpt>
      <trkpt lat="42.4168920" lon="-2.7147560">
        <ele>514.0</ele>
        <time>2022-06-27T07:36:20Z</time>
      </trkpt>
      <trkpt lat="42.4169590" lon="-2.7148230">
        <ele>513.8</ele>
        <time>2022-06-27T07:36:21Z</time>
      </trkpt>
      <trkpt lat="42.4170260" lon="-2.7148890">
        <ele>513.6</ele>
        <time>2022-06-27T07:36:22Z</time>
      </trkpt>
      <trkpt lat="42.4170950" lon="-2.7149550">
        <ele>513.4</ele>
        <time>2022-06-27T07:36:23Z</time>
      </trkpt>
      <trkpt lat="42.4171640" lon="-2.7150200">
        <ele>513.2</ele>
        <time>2022-06-27T07:36:24Z</time>
      </trkpt>
      <trkpt lat="42.4172320" lon="-2.7150840">
        <ele>513.0</ele>
        <time>2022-06-27T07:36:25Z</time>
      </trkpt>
      <trkpt lat="42.4173000" lon="-2.7151490">
        <ele>513.0</ele>
        <time>2022-06-27T07:36:26Z</time>
      </trkpt>
      <trkpt lat="42.4173670" lon="-2.7152150">
        <ele>512.6</ele>
        <time>2022-06-27T07:36:27Z</time>
      </trkpt>
      <trkpt lat="42.4174320" lon="-2.7152820">
        <ele>512.6</ele>
        <time>2022-06-27T07:36:28Z</time>
      </trkpt>
      <trkpt lat="42.4175000" lon="-2.7153460">
        <ele>512.4</ele>
        <time>2022-06-27T07:36:29Z</time>
      </trkpt>
      <trkpt lat="42.4175700" lon="-2.7154110">
        <ele>512.2</ele>
        <time>2022-06-27T07:36:30Z</time>
      </trkpt>
      <trkpt lat="42.4176410" lon="-2.7154750">
        <ele>512.2</ele>
        <time>2022-06-27T07:36:31Z</time>
      </trkpt>
      <trkpt lat="42.4177110" lon="-2.7155380">
        <ele>512.0</ele>
        <time>2022-06-27T07:36:32Z</time>
      </trkpt>
      <trkpt lat="42.4177810" lon="-2.7156030">
        <ele>512.0</ele>
        <time>2022-06-27T07:36:33Z</time>
      </trkpt>
      <trkpt lat="42.4178470" lon="-2.7156690">
        <ele>511.8</ele>
        <time>2022-06-27T07:36:34Z</time>
      </trkpt>
      <trkpt lat="42.4179140" lon="-2.7157350">
        <ele>511.8</ele>
        <time>2022-06-27T07:36:35Z</time>
      </trkpt>
      <trkpt lat="42.4179810" lon="-2.7158000">
        <ele>511.4</ele>
        <time>2022-06-27T07:36:36Z</time>
      </trkpt>
      <trkpt lat="42.4180490" lon="-2.7158650">
        <ele>511.2</ele>
        <time>2022-06-27T07:36:37Z</time>
      </trkpt>
      <trkpt lat="42.4181160" lon="-2.7159290">
        <ele>511.2</ele>
        <time>2022-06-27T07:36:38Z</time>
      </trkpt>
      <trkpt lat="42.4181850" lon="-2.7159930">
        <ele>511.0</ele>
        <time>2022-06-27T07:36:39Z</time>
      </trkpt>
      <trkpt lat="42.4182510" lon="-2.7160570">
        <ele>510.8</ele>
        <time>2022-06-27T07:36:40Z</time>
      </trkpt>
      <trkpt lat="42.4183180" lon="-2.7161220">
        <ele>510.6</ele>
        <time>2022-06-27T07:36:41Z</time>
      </trkpt>
      <trkpt lat="42.4183860" lon="-2.7161870">
        <ele>510.4</ele>
        <time>2022-06-27T07:36:42Z</time>
      </trkpt>
      <trkpt lat="42.4184540" lon="-2.7162510">
        <ele>510.4</ele>
        <time>2022-06-27T07:36:43Z</time>
      </trkpt>
      <trkpt lat="42.4185210" lon="-2.7163140">
        <ele>510.2</ele>
        <time>2022-06-27T07:36:44Z</time>
      </trkpt>
      <trkpt lat="42.4185880" lon="-2.7163760">
        <ele>510.0</ele>
        <time>2022-06-27T07:36:45Z</time>
      </trkpt>
      <trkpt lat="42.4186560" lon="-2.7164410">
        <ele>509.8</ele>
        <time>2022-06-27T07:36:46Z</time>
      </trkpt>
      <trkpt lat="42.4187250" lon="-2.7165060">
        <ele>509.8</ele>
        <time>2022-06-27T07:36:47Z</time>
      </trkpt>
      <trkpt lat="42.4187930" lon="-2.7165710">
        <ele>509.6</ele>
        <time>2022-06-27T07:36:48Z</time>
      </trkpt>
      <trkpt lat="42.4188600" lon="-2.7166380">
        <ele>509.6</ele>
        <time>2022-06-27T07:36:49Z</time>
      </trkpt>
      <trkpt lat="42.4189260" lon="-2.7167060">
        <ele>509.4</ele>
        <time>2022-06-27T07:36:50Z</time>
      </trkpt>
      <trkpt lat="42.4189950" lon="-2.7167720">
        <ele>509.0</ele>
        <time>2022-06-27T07:36:51Z</time>
      </trkpt>
      <trkpt lat="42.4190640" lon="-2.7168360">
        <ele>509.0</ele>
        <time>2022-06-27T07:36:52Z</time>
      </trkpt>
      <trkpt lat="42.4191320" lon="-2.7169030">
        <ele>508.8</ele>
        <time>2022-06-27T07:36:53Z</time>
      </trkpt>
      <trkpt lat="42.4192000" lon="-2.7169690">
        <ele>508.8</ele>
        <time>2022-06-27T07:36:54Z</time>
      </trkpt>
      <trkpt lat="42.4192680" lon="-2.7170360">
        <ele>508.4</ele>
        <time>2022-06-27T07:36:55Z</time>
      </trkpt>
      <trkpt lat="42.4193360" lon="-2.7171010">
        <ele>508.2</ele>
        <time>2022-06-27T07:36:56Z</time>
      </trkpt>
      <trkpt lat="42.4194030" lon="-2.7171680">
        <ele>507.8</ele>
        <time>2022-06-27T07:36:57Z</time>
      </trkpt>
      <trkpt lat="42.4194680" lon="-2.7172360">
        <ele>507.8</ele>
        <time>2022-06-27T07:36:58Z</time>
      </trkpt>
      <trkpt lat="42.4195320" lon="-2.7173030">
        <ele>507.6</ele>
        <time>2022-06-27T07:36:59Z</time>
      </trkpt>
      <trkpt lat="42.4195940" lon="-2.7173710">
        <ele>507.6</ele>
        <time>2022-06-27T07:37:00Z</time>
      </trkpt>
      <trkpt lat="42.4196530" lon="-2.7174410">
        <ele>507.6</ele>
        <time>2022-06-27T07:37:01Z</time>
      </trkpt>
      <trkpt lat="42.4197140" lon="-2.7175090">
        <ele>507.4</ele>
        <time>2022-06-27T07:37:02Z</time>
      </trkpt>
      <trkpt lat="42.4197750" lon="-2.7175770">
        <ele>507.4</ele>
        <time>2022-06-27T07:37:03Z</time>
      </trkpt>
      <trkpt lat="42.4198340" lon="-2.7176440">
        <ele>507.4</ele>
        <time>2022-06-27T07:37:04Z</time>
      </trkpt>
      <trkpt lat="42.4198890" lon="-2.7177110">
        <ele>507.4</ele>
        <time>2022-06-27T07:37:05Z</time>
      </trkpt>
      <trkpt lat="42.4199470" lon="-2.7177770">
        <ele>507.2</ele>
        <time>2022-06-27T07:37:06Z</time>
      </trkpt>
      <trkpt lat="42.4200030" lon="-2.7178440">
        <ele>507.0</ele>
        <time>2022-06-27T07:37:07Z</time>
      </trkpt>
      <trkpt lat="42.4200560" lon="-2.7179080">
        <ele>507.0</ele>
        <time>2022-06-27T07:37:08Z</time>
      </trkpt>
      <trkpt lat="42.4201090" lon="-2.7179720">
        <ele>506.8</ele>
        <time>2022-06-27T07:37:09Z</time>
      </trkpt>
      <trkpt lat="42.4201620" lon="-2.7180410">
        <ele>506.8</ele>
        <time>2022-06-27T07:37:10Z</time>
      </trkpt>
      <trkpt lat="42.4202140" lon="-2.7181110">
        <ele>506.0</ele>
        <time>2022-06-27T07:37:11Z</time>
      </trkpt>
      <trkpt lat="42.4202650" lon="-2.7181810">
        <ele>505.8</ele>
        <time>2022-06-27T07:37:12Z</time>
      </trkpt>
      <trkpt lat="42.4203110" lon="-2.7182480">
        <ele>505.8</ele>
        <time>2022-06-27T07:37:13Z</time>
      </trkpt>
      <trkpt lat="42.4203540" lon="-2.7183090">
        <ele>505.8</ele>
        <time>2022-06-27T07:37:14Z</time>
      </trkpt>
      <trkpt lat="42.4209230" lon="-2.7192010">
        <ele>503.6</ele>
        <time>2022-06-27T07:44:19Z</time>
      </trkpt>
      <trkpt lat="42.4209350" lon="-2.7192210">
        <ele>503.6</ele>
        <time>2022-06-27T07:44:20Z</time>
      </trkpt>
      <trkpt lat="42.4209590" lon="-2.7192640">
        <ele>503.6</ele>
        <time>2022-06-27T07:44:21Z</time>
      </trkpt>
      <trkpt lat="42.4209840" lon="-2.7193060">
        <ele>503.4</ele>
        <time>2022-06-27T07:44:22Z</time>
      </trkpt>
      <trkpt lat="42.4210060" lon="-2.7193490">
        <ele>503.2</ele>
        <time>2022-06-27T07:44:23Z</time>
      </trkpt>
      <trkpt lat="42.4210300" lon="-2.7193950">
        <ele>503.0</ele>
        <time>2022-06-27T07:44:24Z</time>
      </trkpt>
      <trkpt lat="42.4210550" lon="-2.7194440">
        <ele>503.0</ele>
        <time>2022-06-27T07:44:25Z</time>
      </trkpt>
      <trkpt lat="42.4210780" lon="-2.7194960">
        <ele>502.8</ele>
        <time>2022-06-27T07:44:26Z</time>
      </trkpt>
      <trkpt lat="42.4211010" lon="-2.7195490">
        <ele>502.8</ele>
        <time>2022-06-27T07:44:27Z</time>
      </trkpt>
      <trkpt lat="42.4211260" lon="-2.7196020">
        <ele>502.8</ele>
        <time>2022-06-27T07:44:28Z</time>
      </trkpt>
      <trkpt lat="42.4211560" lon="-2.7196510">
        <ele>502.6</ele>
        <time>2022-06-27T07:44:29Z</time>
      </trkpt>
      <trkpt lat="42.4211870" lon="-2.7197010">
        <ele>502.6</ele>
        <time>2022-06-27T07:44:30Z</time>
      </trkpt>
      <trkpt lat="42.4212170" lon="-2.7197570">
        <ele>502.6</ele>
        <time>2022-06-27T07:44:31Z</time>
      </trkpt>
      <trkpt lat="42.4212450" lon="-2.7198150">
        <ele>502.4</ele>
        <time>2022-06-27T07:44:32Z</time>
      </trkpt>
      <trkpt lat="42.4212740" lon="-2.7198720">
        <ele>502.4</ele>
        <time>2022-06-27T07:44:33Z</time>
      </trkpt>
      <trkpt lat="42.4213060" lon="-2.7199310">
        <ele>502.2</ele>
        <time>2022-06-27T07:44:34Z</time>
      </trkpt>
      <trkpt lat="42.4213380" lon="-2.7199910">
        <ele>502.2</ele>
        <time>2022-06-27T07:44:35Z</time>
      </trkpt>
      <trkpt lat="42.4213700" lon="-2.7200540">
        <ele>502.0</ele>
        <time>2022-06-27T07:44:36Z</time>
      </trkpt>
      <trkpt lat="42.4214010" lon="-2.7201200">
        <ele>501.8</ele>
        <time>2022-06-27T07:44:37Z</time>
      </trkpt>
      <trkpt lat="42.4214340" lon="-2.7201900">
        <ele>501.8</ele>
        <time>2022-06-27T07:44:38Z</time>
      </trkpt>
      <trkpt lat="42.4214670" lon="-2.7202630">
        <ele>501.6</ele>
        <time>2022-06-27T07:44:39Z</time>
      </trkpt>
      <trkpt lat="42.4215010" lon="-2.7203380">
        <ele>501.6</ele>
        <time>2022-06-27T07:44:40Z</time>
      </trkpt>
      <trkpt lat="42.4215350" lon="-2.7204160">
        <ele>501.4</ele>
        <time>2022-06-27T07:44:41Z</time>
      </trkpt>
      <trkpt lat="42.4215700" lon="-2.7204960">
        <ele>501.4</ele>
        <time>2022-06-27T07:44:42Z</time>
      </trkpt>
      <trkpt lat="42.4216030" lon="-2.7205770">
        <ele>501.2</ele>
        <time>2022-06-27T07:44:43Z</time>
      </trkpt>
      <trkpt lat="42.4216360" lon="-2.7206610">
        <ele>500.8</ele>
        <time>2022-06-27T07:44:44Z</time>
      </trkpt>
      <trkpt lat="42.4216710" lon="-2.7207440">
        <ele>500.6</ele>
        <time>2022-06-27T07:44:45Z</time>
      </trkpt>
      <trkpt lat="42.4217080" lon="-2.7208270">
        <ele>500.2</ele>
        <time>2022-06-27T07:44:46Z</time>
      </trkpt>
      <trkpt lat="42.4217460" lon="-2.7209130">
        <ele>500.0</ele>
        <time>2022-06-27T07:44:47Z</time>
      </trkpt>
      <trkpt lat="42.4217840" lon="-2.7209990">
        <ele>499.6</ele>
        <time>2022-06-27T07:44:48Z</time>
      </trkpt>
      <trkpt lat="42.4218240" lon="-2.7210870">
        <ele>499.6</ele>
        <time>2022-06-27T07:44:49Z</time>
      </trkpt>
      <trkpt lat="42.4218660" lon="-2.7211780">
        <ele>499.0</ele>
        <time>2022-06-27T07:44:50Z</time>
      </trkpt>
      <trkpt lat="42.4219070" lon="-2.7212720">
        <ele>498.6</ele>
        <time>2022-06-27T07:44:51Z</time>
      </trkpt>
      <trkpt lat="42.4219470" lon="-2.7213720">
        <ele>498.6</ele>
        <time>2022-06-27T07:44:52Z</time>
      </trkpt>
      <trkpt lat="42.4219860" lon="-2.7214770">
        <ele>498.4</ele>
        <time>2022-06-27T07:44:53Z</time>
      </trkpt>
      <trkpt lat="42.4220270" lon="-2.7215830">
        <ele>498.4</ele>
        <time>2022-06-27T07:44:54Z</time>
      </trkpt>
      <trkpt lat="42.4220680" lon="-2.7216920">
        <ele>498.2</ele>
        <time>2022-06-27T07:44:55Z</time>
      </trkpt>
      <trkpt lat="42.4221100" lon="-2.7218050">
        <ele>498.0</ele>
        <time>2022-06-27T07:44:56Z</time>
      </trkpt>
      <trkpt lat="42.4221520" lon="-2.7219190">
        <ele>497.2</ele>
        <time>2022-06-27T07:44:57Z</time>
      </trkpt>
      <trkpt lat="42.4221940" lon="-2.7220360">
        <ele>497.0</ele>
        <time>2022-06-27T07:44:58Z</time>
      </trkpt>
      <trkpt lat="42.4222350" lon="-2.7221510">
        <ele>496.0</ele>
        <time>2022-06-27T07:44:59Z</time>
      </trkpt>
      <trkpt lat="42.4222740" lon="-2.7222710">
        <ele>495.6</ele>
        <time>2022-06-27T07:45:00Z</time>
      </trkpt>
      <trkpt lat="42.4223080" lon="-2.7223910">
        <ele>495.4</ele>
        <time>2022-06-27T07:45:01Z</time>
      </trkpt>
      <trkpt lat="42.4223410" lon="-2.7225240">
        <ele>494.6</ele>
        <time>2022-06-27T07:45:02Z</time>
      </trkpt>
      <trkpt lat="42.4223780" lon="-2.7226580">
        <ele>494.4</ele>
        <time>2022-06-27T07:45:03Z</time>
      </trkpt>
      <trkpt lat="42.4224180" lon="-2.7227770">
        <ele>494.0</ele>
        <time>2022-06-27T07:45:04Z</time>
      </trkpt>
      <trkpt lat="42.4224520" lon="-2.7228990">
        <ele>493.8</ele>
        <time>2022-06-27T07:45:05Z</time>
      </trkpt>
      <trkpt lat="42.4224890" lon="-2.7230190">
        <ele>492.8</ele>
        <time>2022-06-27T07:45:06Z</time>
      </trkpt>
      <trkpt lat="42.4225220" lon="-2.7231410">
        <ele>492.2</ele>
        <time>2022-06-27T07:45:07Z</time>
      </trkpt>
      <trkpt lat="42.4225560" lon="-2.7232600">
        <ele>492.0</ele>
        <time>2022-06-27T07:45:08Z</time>
      </trkpt>
      <trkpt lat="42.4225890" lon="-2.7233780">
        <ele>491.6</ele>
        <time>2022-06-27T07:45:09Z</time>
      </trkpt>
      <trkpt lat="42.4226210" lon="-2.7234980">
        <ele>491.4</ele>
        <time>2022-06-27T07:45:10Z</time>
      </trkpt>
      <trkpt lat="42.4226500" lon="-2.7236170">
        <ele>491.2</ele>
        <time>2022-06-27T07:45:11Z</time>
      </trkpt>
      <trkpt lat="42.4226760" lon="-2.7237390">
        <ele>491.0</ele>
        <time>2022-06-27T07:45:12Z</time>
      </trkpt>
      <trkpt lat="42.4227030" lon="-2.7238560">
        <ele>490.6</ele>
        <time>2022-06-27T07:45:13Z</time>
      </trkpt>
      <trkpt lat="42.4227270" lon="-2.7239730">
        <ele>490.0</ele>
        <time>2022-06-27T07:45:14Z</time>
      </trkpt>
      <trkpt lat="42.4227510" lon="-2.7240890">
        <ele>489.6</ele>
        <time>2022-06-27T07:45:15Z</time>
      </trkpt>
      <trkpt lat="42.4227740" lon="-2.7242050">
        <ele>489.2</ele>
        <time>2022-06-27T07:45:16Z</time>
      </trkpt>
      <trkpt lat="42.4227970" lon="-2.7243190">
        <ele>489.2</ele>
        <time>2022-06-27T07:45:17Z</time>
      </trkpt>
      <trkpt lat="42.4228180" lon="-2.7244330">
        <ele>489.0</ele>
        <time>2022-06-27T07:45:18Z</time>
      </trkpt>
      <trkpt lat="42.4228390" lon="-2.7245480">
        <ele>488.8</ele>
        <time>2022-06-27T07:45:19Z</time>
      </trkpt>
      <trkpt lat="42.4228600" lon="-2.7246620">
        <ele>488.6</ele>
        <time>2022-06-27T07:45:20Z</time>
      </trkpt>
      <trkpt lat="42.4228810" lon="-2.7247760">
        <ele>488.4</ele>
        <time>2022-06-27T07:45:21Z</time>
      </trkpt>
      <trkpt lat="42.4228990" lon="-2.7248910">
        <ele>488.4</ele>
        <time>2022-06-27T07:45:22Z</time>
      </trkpt>
      <trkpt lat="42.4229170" lon="-2.7250040">
        <ele>488.2</ele>
        <time>2022-06-27T07:45:23Z</time>
      </trkpt>
      <trkpt lat="42.4229340" lon="-2.7251180">
        <ele>488.0</ele>
        <time>2022-06-27T07:45:24Z</time>
      </trkpt>
      <trkpt lat="42.4229510" lon="-2.7252340">
        <ele>487.8</ele>
        <time>2022-06-27T07:45:25Z</time>
      </trkpt>
      <trkpt lat="42.4229680" lon="-2.7253480">
        <ele>487.8</ele>
        <time>2022-06-27T07:45:26Z</time>
      </trkpt>
      <trkpt lat="42.4229860" lon="-2.7254640">
        <ele>487.6</ele>
        <time>2022-06-27T07:45:27Z</time>
      </trkpt>
      <trkpt lat="42.4230040" lon="-2.7255800">
        <ele>487.6</ele>
        <time>2022-06-27T07:45:28Z</time>
      </trkpt>
      <trkpt lat="42.4230220" lon="-2.7256980">
        <ele>487.6</ele>
        <time>2022-06-27T07:45:29Z</time>
      </trkpt>
      <trkpt lat="42.4230400" lon="-2.7258400">
        <ele>487.4</ele>
        <time>2022-06-27T07:45:30Z</time>
      </trkpt>
      <trkpt lat="42.4230490" lon="-2.7259370">
        <ele>487.4</ele>
        <time>2022-06-27T07:45:31Z</time>
      </trkpt>
      <trkpt lat="42.4230590" lon="-2.7260600">
        <ele>487.2</ele>
        <time>2022-06-27T07:45:32Z</time>
      </trkpt>
      <trkpt lat="42.4230690" lon="-2.7261850">
        <ele>487.2</ele>
        <time>2022-06-27T07:45:33Z</time>
      </trkpt>
      <trkpt lat="42.4230760" lon="-2.7263090">
        <ele>487.0</ele>
        <time>2022-06-27T07:45:34Z</time>
      </trkpt>
      <trkpt lat="42.4230820" lon="-2.7264340">
        <ele>487.0</ele>
        <time>2022-06-27T07:45:35Z</time>
      </trkpt>
      <trkpt lat="42.4230840" lon="-2.7265600">
        <ele>486.8</ele>
        <time>2022-06-27T07:45:36Z</time>
      </trkpt>
      <trkpt lat="42.4230850" lon="-2.7266860">
        <ele>486.8</ele>
        <time>2022-06-27T07:45:37Z</time>
      </trkpt>
      <trkpt lat="42.4230880" lon="-2.7268130">
        <ele>486.6</ele>
        <time>2022-06-27T07:45:38Z</time>
      </trkpt>
      <trkpt lat="42.4230900" lon="-2.7269430">
        <ele>486.4</ele>
        <time>2022-06-27T07:45:39Z</time>
      </trkpt>
      <trkpt lat="42.4230930" lon="-2.7270750">
        <ele>486.2</ele>
        <time>2022-06-27T07:45:40Z</time>
      </trkpt>
      <trkpt lat="42.4230960" lon="-2.7272070">
        <ele>486.0</ele>
        <time>2022-06-27T07:45:41Z</time>
      </trkpt>
      <trkpt lat="42.4230990" lon="-2.7273410">
        <ele>485.8</ele>
        <time>2022-06-27T07:45:42Z</time>
      </trkpt>
      <trkpt lat="42.4231010" lon="-2.7274770">
        <ele>485.4</ele>
        <time>2022-06-27T07:45:43Z</time>
      </trkpt>
      <trkpt lat="42.4231030" lon="-2.7276100">
        <ele>485.2</ele>
        <time>2022-06-27T07:45:44Z</time>
      </trkpt>
      <trkpt lat="42.4231020" lon="-2.7277470">
        <ele>485.0</ele>
        <time>2022-06-27T07:45:45Z</time>
      </trkpt>
      <trkpt lat="42.4231010" lon="-2.7278840">
        <ele>484.8</ele>
        <time>2022-06-27T07:45:46Z</time>
      </trkpt>
      <trkpt lat="42.4231010" lon="-2.7280220">
        <ele>484.6</ele>
        <time>2022-06-27T07:45:47Z</time>
      </trkpt>
      <trkpt lat="42.4231010" lon="-2.7281570">
        <ele>484.0</ele>
        <time>2022-06-27T07:45:48Z</time>
      </trkpt>
      <trkpt lat="42.4231000" lon="-2.7282930">
        <ele>484.0</ele>
        <time>2022-06-27T07:45:49Z</time>
      </trkpt>
      <trkpt lat="42.4230980" lon="-2.7284290">
        <ele>483.6</ele>
        <time>2022-06-27T07:45:50Z</time>
      </trkpt>
      <trkpt lat="42.4230980" lon="-2.7285640">
        <ele>483.2</ele>
        <time>2022-06-27T07:45:51Z</time>
      </trkpt>
      <trkpt lat="42.4230970" lon="-2.7287000">
        <ele>483.2</ele>
        <time>2022-06-27T07:45:52Z</time>
      </trkpt>
      <trkpt lat="42.4230950" lon="-2.7288340">
        <ele>482.6</ele>
        <time>2022-06-27T07:45:53Z</time>
      </trkpt>
      <trkpt lat="42.4230940" lon="-2.7289670">
        <ele>482.2</ele>
        <time>2022-06-27T07:45:54Z</time>
      </trkpt>
      <trkpt lat="42.4230940" lon="-2.7290990">
        <ele>481.8</ele>
        <time>2022-06-27T07:45:55Z</time>
      </trkpt>
      <trkpt lat="42.4230920" lon="-2.7292290">
        <ele>481.8</ele>
        <time>2022-06-27T07:45:56Z</time>
      </trkpt>
      <trkpt lat="42.4230910" lon="-2.7293580">
        <ele>481.6</ele>
        <time>2022-06-27T07:45:57Z</time>
      </trkpt>
      <trkpt lat="42.4230890" lon="-2.7294840">
        <ele>481.2</ele>
        <time>2022-06-27T07:45:58Z</time>
      </trkpt>
      <trkpt lat="42.4230870" lon="-2.7296120">
        <ele>481.2</ele>
        <time>2022-06-27T07:45:59Z</time>
      </trkpt>
      <trkpt lat="42.4230840" lon="-2.7297400">
        <ele>480.8</ele>
        <time>2022-06-27T07:46:00Z</time>
      </trkpt>
      <trkpt lat="42.4230830" lon="-2.7298680">
        <ele>480.6</ele>
        <time>2022-06-27T07:46:01Z</time>
      </trkpt>
      <trkpt lat="42.4230830" lon="-2.7299960">
        <ele>480.4</ele>
        <time>2022-06-27T07:46:02Z</time>
      </trkpt>
      <trkpt lat="42.4230840" lon="-2.7301230">
        <ele>480.2</ele>
        <time>2022-06-27T07:46:03Z</time>
      </trkpt>
      <trkpt lat="42.4230840" lon="-2.7302520">
        <ele>480.0</ele>
        <time>2022-06-27T07:46:04Z</time>
      </trkpt>
      <trkpt lat="42.4230840" lon="-2.7303830">
        <ele>480.0</ele>
        <time>2022-06-27T07:46:05Z</time>
      </trkpt>
      <trkpt lat="42.4230840" lon="-2.7305140">
        <ele>479.8</ele>
        <time>2022-06-27T07:46:06Z</time>
      </trkpt>
      <trkpt lat="42.4230840" lon="-2.7306430">
        <ele>479.8</ele>
        <time>2022-06-27T07:46:07Z</time>
      </trkpt>
      <trkpt lat="42.4230840" lon="-2.7307710">
        <ele>479.6</ele>
        <time>2022-06-27T07:46:08Z</time>
      </trkpt>
      <trkpt lat="42.4230860" lon="-2.7308980">
        <ele>479.4</ele>
        <time>2022-06-27T07:46:09Z</time>
      </trkpt>
      <trkpt lat="42.4230910" lon="-2.7310240">
        <ele>479.4</ele>
        <time>2022-06-27T07:46:10Z</time>
      </trkpt>
      <trkpt lat="42.4230980" lon="-2.7311510">
        <ele>479.2</ele>
        <time>2022-06-27T07:46:11Z</time>
      </trkpt>
      <trkpt lat="42.4231040" lon="-2.7312780">
        <ele>479.2</ele>
        <time>2022-06-27T07:46:12Z</time>
      </trkpt>
      <trkpt lat="42.4231100" lon="-2.7314030">
        <ele>478.8</ele>
        <time>2022-06-27T07:46:13Z</time>
      </trkpt>
      <trkpt lat="42.4231190" lon="-2.7315260">
        <ele>478.6</ele>
        <time>2022-06-27T07:46:14Z</time>
      </trkpt>
      <trkpt lat="42.4231290" lon="-2.7316520">
        <ele>478.6</ele>
        <time>2022-06-27T07:46:15Z</time>
      </trkpt>
      <trkpt lat="42.4231410" lon="-2.7317750">
        <ele>478.4</ele>
        <time>2022-06-27T07:46:16Z</time>
      </trkpt>
      <trkpt lat="42.4231520" lon="-2.7318970">
        <ele>478.4</ele>
        <time>2022-06-27T07:46:17Z</time>
      </trkpt>
      <trkpt lat="42.4231660" lon="-2.7320170">
        <ele>478.4</ele>
        <time>2022-06-27T07:46:18Z</time>
      </trkpt>
      <trkpt lat="42.4231800" lon="-2.7321370">
        <ele>478.2</ele>
        <time>2022-06-27T07:46:19Z</time>
      </trkpt>
      <trkpt lat="42.4231960" lon="-2.7322570">
        <ele>478.2</ele>
        <time>2022-06-27T07:46:20Z</time>
      </trkpt>
      <trkpt lat="42.4232110" lon="-2.7323730">
        <ele>477.8</ele>
        <time>2022-06-27T07:46:21Z</time>
      </trkpt>
      <trkpt lat="42.4232250" lon="-2.7324890">
        <ele>477.8</ele>
        <time>2022-06-27T07:46:22Z</time>
      </trkpt>
      <trkpt lat="42.4232430" lon="-2.7326030">
        <ele>477.6</ele>
        <time>2022-06-27T07:46:23Z</time>
      </trkpt>
      <trkpt lat="42.4232640" lon="-2.7327130">
        <ele>477.6</ele>
        <time>2022-06-27T07:46:24Z</time>
      </trkpt>
      <trkpt lat="42.4232850" lon="-2.7328220">
        <ele>477.6</ele>
        <time>2022-06-27T07:46:25Z</time>
      </trkpt>
      <trkpt lat="42.4233050" lon="-2.7329290">
        <ele>477.4</ele>
        <time>2022-06-27T07:46:26Z</time>
      </trkpt>
      <trkpt lat="42.4233250" lon="-2.7330350">
        <ele>477.4</ele>
        <time>2022-06-27T07:46:27Z</time>
      </trkpt>
      <trkpt lat="42.4233440" lon="-2.7331400">
        <ele>477.4</ele>
        <time>2022-06-27T07:46:28Z</time>
      </trkpt>
      <trkpt lat="42.4233660" lon="-2.7332460">
        <ele>477.4</ele>
        <time>2022-06-27T07:46:29Z</time>
      </trkpt>
      <trkpt lat="42.4233910" lon="-2.7333500">
        <ele>477.2</ele>
        <time>2022-06-27T07:46:30Z</time>
      </trkpt>
      <trkpt lat="42.4234160" lon="-2.7334560">
        <ele>477.4</ele>
        <time>2022-06-27T07:46:31Z</time>
      </trkpt>
      <trkpt lat="42.4234390" lon="-2.7335590">
        <ele>477.4</ele>
        <time>2022-06-27T07:46:32Z</time>
      </trkpt>
      <trkpt lat="42.4234620" lon="-2.7336590">
        <ele>477.4</ele>
        <time>2022-06-27T07:46:33Z</time>
      </trkpt>
      <trkpt lat="42.4234880" lon="-2.7337580">
        <ele>477.6</ele>
        <time>2022-06-27T07:46:34Z</time>
      </trkpt>
      <trkpt lat="42.4235140" lon="-2.7338570">
        <ele>477.8</ele>
        <time>2022-06-27T07:46:35Z</time>
      </trkpt>
      <trkpt lat="42.4235400" lon="-2.7339600">
        <ele>478.0</ele>
        <time>2022-06-27T07:46:36Z</time>
      </trkpt>
      <trkpt lat="42.4235670" lon="-2.7340570">
        <ele>478.2</ele>
        <time>2022-06-27T07:46:37Z</time>
      </trkpt>
      <trkpt lat="42.4235960" lon="-2.7341580">
        <ele>478.2</ele>
        <time>2022-06-27T07:46:38Z</time>
      </trkpt>
      <trkpt lat="42.4236240" lon="-2.7342520">
        <ele>478.4</ele>
        <time>2022-06-27T07:46:39Z</time>
      </trkpt>
      <trkpt lat="42.4236480" lon="-2.7343430">
        <ele>478.4</ele>
        <time>2022-06-27T07:46:40Z</time>
      </trkpt>
      <trkpt lat="42.4236740" lon="-2.7344350">
        <ele>478.6</ele>
        <time>2022-06-27T07:46:41Z</time>
      </trkpt>
      <trkpt lat="42.4237040" lon="-2.7345240">
        <ele>478.6</ele>
        <time>2022-06-27T07:46:42Z</time>
      </trkpt>
      <trkpt lat="42.4237340" lon="-2.7346110">
        <ele>478.8</ele>
        <time>2022-06-27T07:46:43Z</time>
      </trkpt>
      <trkpt lat="42.4237650" lon="-2.7346970">
        <ele>478.8</ele>
        <time>2022-06-27T07:46:44Z</time>
      </trkpt>
      <trkpt lat="42.4237980" lon="-2.7347820">
        <ele>479.0</ele>
        <time>2022-06-27T07:46:45Z</time>
      </trkpt>
      <trkpt lat="42.4238280" lon="-2.7348690">
        <ele>479.0</ele>
        <time>2022-06-27T07:46:46Z</time>
      </trkpt>
      <trkpt lat="42.4238540" lon="-2.7349530">
        <ele>479.2</ele>
        <time>2022-06-27T07:46:47Z</time>
      </trkpt>
      <trkpt lat="42.4238790" lon="-2.7350340">
        <ele>479.2</ele>
        <time>2022-06-27T07:46:48Z</time>
      </trkpt>
      <trkpt lat="42.4239030" lon="-2.7351120">
        <ele>479.4</ele>
        <time>2022-06-27T07:46:49Z</time>
      </trkpt>
      <trkpt lat="42.4239270" lon="-2.7351900">
        <ele>479.6</ele>
        <time>2022-06-27T07:46:50Z</time>
      </trkpt>
      <trkpt lat="42.4239520" lon="-2.7352670">
        <ele>479.8</ele>
        <time>2022-06-27T07:46:51Z</time>
      </trkpt>
      <trkpt lat="42.4239790" lon="-2.7353440">
        <ele>480.0</ele>
        <time>2022-06-27T07:46:52Z</time>
      </trkpt>
      <trkpt lat="42.4240070" lon="-2.7354220">
        <ele>480.0</ele>
        <time>2022-06-27T07:46:53Z</time>
      </trkpt>
      <trkpt lat="42.4240360" lon="-2.7354990">
        <ele>480.0</ele>
        <time>2022-06-27T07:46:54Z</time>
      </trkpt>
      <trkpt lat="42.4240660" lon="-2.7355750">
        <ele>480.2</ele>
        <time>2022-06-27T07:46:55Z</time>
      </trkpt>
      <trkpt lat="42.4240970" lon="-2.7356510">
        <ele>480.2</ele>
        <time>2022-06-27T07:46:56Z</time>
      </trkpt>
      <trkpt lat="42.4241250" lon="-2.7357270">
        <ele>480.4</ele>
        <time>2022-06-27T07:46:57Z</time>
      </trkpt>
      <trkpt lat="42.4241480" lon="-2.7358010">
        <ele>480.4</ele>
        <time>2022-06-27T07:46:58Z</time>
      </trkpt>
      <trkpt lat="42.4241740" lon="-2.7358710">
        <ele>480.4</ele>
        <time>2022-06-27T07:46:59Z</time>
      </trkpt>
      <trkpt lat="42.4242020" lon="-2.7359430">
        <ele>480.4</ele>
        <time>2022-06-27T07:47:00Z</time>
      </trkpt>
      <trkpt lat="42.4242270" lon="-2.7360160">
        <ele>480.6</ele>
        <time>2022-06-27T07:47:01Z</time>
      </trkpt>
      <trkpt lat="42.4242520" lon="-2.7360860">
        <ele>480.6</ele>
        <time>2022-06-27T07:47:02Z</time>
      </trkpt>
      <trkpt lat="42.4242770" lon="-2.7361600">
        <ele>480.6</ele>
        <time>2022-06-27T07:47:03Z</time>
      </trkpt>
      <trkpt lat="42.4243030" lon="-2.7362370">
        <ele>480.6</ele>
        <time>2022-06-27T07:47:04Z</time>
      </trkpt>
      <trkpt lat="42.4243300" lon="-2.7363110">
        <ele>480.8</ele>
        <time>2022-06-27T07:47:05Z</time>
      </trkpt>
      <trkpt lat="42.4243550" lon="-2.7363860">
        <ele>481.0</ele>
        <time>2022-06-27T07:47:06Z</time>
      </trkpt>
      <trkpt lat="42.4243790" lon="-2.7364590">
        <ele>481.0</ele>
        <time>2022-06-27T07:47:07Z</time>
      </trkpt>
      <trkpt lat="42.4244020" lon="-2.7365330">
        <ele>481.0</ele>
        <time>2022-06-27T07:47:08Z</time>
      </trkpt>
      <trkpt lat="42.4244230" lon="-2.7366060">
        <ele>481.2</ele>
        <time>2022-06-27T07:47:09Z</time>
      </trkpt>
      <trkpt lat="42.4244460" lon="-2.7366780">
        <ele>481.2</ele>
        <time>2022-06-27T07:47:10Z</time>
      </trkpt>
      <trkpt lat="42.4244690" lon="-2.7367470">
        <ele>481.4</ele>
        <time>2022-06-27T07:47:11Z</time>
      </trkpt>
      <trkpt lat="42.4244980" lon="-2.7368290">
        <ele>481.4</ele>
        <time>2022-06-27T07:47:12Z</time>
      </trkpt>
      <trkpt lat="42.4245190" lon="-2.7368820">
        <ele>481.4</ele>
        <time>2022-06-27T07:47:13Z</time>
      </trkpt>
      <trkpt lat="42.4245420" lon="-2.7369470">
        <ele>481.6</ele>
        <time>2022-06-27T07:47:14Z</time>
      </trkpt>
      <trkpt lat="42.4245620" lon="-2.7370120">
        <ele>481.6</ele>
        <time>2022-06-27T07:47:15Z</time>
      </trkpt>
      <trkpt lat="42.4245820" lon="-2.7370770">
        <ele>481.8</ele>
        <time>2022-06-27T07:47:16Z</time>
      </trkpt>
      <trkpt lat="42.4246050" lon="-2.7371410">
        <ele>481.8</ele>
        <time>2022-06-27T07:47:17Z</time>
      </trkpt>
      <trkpt lat="42.4246290" lon="-2.7372070">
        <ele>482.0</ele>
        <time>2022-06-27T07:47:18Z</time>
      </trkpt>
      <trkpt lat="42.4246510" lon="-2.7372770">
        <ele>482.0</ele>
        <time>2022-06-27T07:47:19Z</time>
      </trkpt>
      <trkpt lat="42.4246720" lon="-2.7373450">
        <ele>482.0</ele>
        <time>2022-06-27T07:47:20Z</time>
      </trkpt>
      <trkpt lat="42.4246930" lon="-2.7374150">
        <ele>482.0</ele>
        <time>2022-06-27T07:47:21Z</time>
      </trkpt>
      <trkpt lat="42.4247130" lon="-2.7374820">
        <ele>482.2</ele>
        <time>2022-06-27T07:47:22Z</time>
      </trkpt>
      <trkpt lat="42.4247350" lon="-2.7375500">
        <ele>482.4</ele>
        <time>2022-06-27T07:47:23Z</time>
      </trkpt>
      <trkpt lat="42.4247560" lon="-2.7376160">
        <ele>482.6</ele>
        <time>2022-06-27T07:47:24Z</time>
      </trkpt>
      <trkpt lat="42.4247770" lon="-2.7376810">
        <ele>482.8</ele>
        <time>2022-06-27T07:47:25Z</time>
      </trkpt>
      <trkpt lat="42.4247980" lon="-2.7377450">
        <ele>483.0</ele>
        <time>2022-06-27T07:47:26Z</time>
      </trkpt>
      <trkpt lat="42.4248200" lon="-2.7378080">
        <ele>483.0</ele>
        <time>2022-06-27T07:47:27Z</time>
      </trkpt>
      <trkpt lat="42.4248380" lon="-2.7378700">
        <ele>483.2</ele>
        <time>2022-06-27T07:47:28Z</time>
      </trkpt>
      <trkpt lat="42.4248570" lon="-2.7379300">
        <ele>483.2</ele>
        <time>2022-06-27T07:47:29Z</time>
      </trkpt>
      <trkpt lat="42.4248770" lon="-2.7379890">
        <ele>483.4</ele>
        <time>2022-06-27T07:47:30Z</time>
      </trkpt>
      <trkpt lat="42.4248960" lon="-2.7380510">
        <ele>483.4</ele>
        <time>2022-06-27T07:47:31Z</time>
      </trkpt>
      <trkpt lat="42.4249150" lon="-2.7381090">
        <ele>483.8</ele>
        <time>2022-06-27T07:47:32Z</time>
      </trkpt>
      <trkpt lat="42.4249320" lon="-2.7381690">
        <ele>483.8</ele>
        <time>2022-06-27T07:47:33Z</time>
      </trkpt>
      <trkpt lat="42.4249480" lon="-2.7382290">
        <ele>484.2</ele>
        <time>2022-06-27T07:47:34Z</time>
      </trkpt>
      <trkpt lat="42.4249660" lon="-2.7382880">
        <ele>484.4</ele>
        <time>2022-06-27T07:47:35Z</time>
      </trkpt>
      <trkpt lat="42.4249830" lon="-2.7383470">
        <ele>484.4</ele>
        <time>2022-06-27T07:47:36Z</time>
      </trkpt>
      <trkpt lat="42.4250010" lon="-2.7384040">
        <ele>484.6</ele>
        <time>2022-06-27T07:47:37Z</time>
      </trkpt>
      <trkpt lat="42.4250180" lon="-2.7384610">
        <ele>484.6</ele>
        <time>2022-06-27T07:47:38Z</time>
      </trkpt>
      <trkpt lat="42.4250340" lon="-2.7385180">
        <ele>484.6</ele>
        <time>2022-06-27T07:47:39Z</time>
      </trkpt>
      <trkpt lat="42.4250500" lon="-2.7385740">
        <ele>484.6</ele>
        <time>2022-06-27T07:47:40Z</time>
      </trkpt>
      <trkpt lat="42.4250650" lon="-2.7386310">
        <ele>484.8</ele>
        <time>2022-06-27T07:47:41Z</time>
      </trkpt>
      <trkpt lat="42.4250790" lon="-2.7386870">
        <ele>485.0</ele>
        <time>2022-06-27T07:47:42Z</time>
      </trkpt>
      <trkpt lat="42.4250940" lon="-2.7387430">
        <ele>485.2</ele>
        <time>2022-06-27T07:47:43Z</time>
      </trkpt>
      <trkpt lat="42.4251090" lon="-2.7387980">
        <ele>485.4</ele>
        <time>2022-06-27T07:47:44Z</time>
      </trkpt>
      <trkpt lat="42.4251220" lon="-2.7388530">
        <ele>485.4</ele>
        <time>2022-06-27T07:47:45Z</time>
      </trkpt>
      <trkpt lat="42.4251370" lon="-2.7389050">
        <ele>485.8</ele>
        <time>2022-06-27T07:47:46Z</time>
      </trkpt>
      <trkpt lat="42.4251530" lon="-2.7389560">
        <ele>486.0</ele>
        <time>2022-06-27T07:47:47Z</time>
      </trkpt>
      <trkpt lat="42.4251690" lon="-2.7390010">
        <ele>486.4</ele>
        <time>2022-06-27T07:47:48Z</time>
      </trkpt>
      <trkpt lat="42.4251870" lon="-2.7390500">
        <ele>486.6</ele>
        <time>2022-06-27T07:47:49Z</time>
      </trkpt>
      <trkpt lat="42.4252040" lon="-2.7390970">
        <ele>486.6</ele>
        <time>2022-06-27T07:47:50Z</time>
      </trkpt>
      <trkpt lat="42.4252210" lon="-2.7391430">
        <ele>487.0</ele>
        <time>2022-06-27T07:47:51Z</time>
      </trkpt>
      <trkpt lat="42.4252360" lon="-2.7391900">
        <ele>487.0</ele>
        <time>2022-06-27T07:47:52Z</time>
      </trkpt>
      <trkpt lat="42.4252500" lon="-2.7392360">
        <ele>487.4</ele>
        <time>2022-06-27T07:47:53Z</time>
      </trkpt>
      <trkpt lat="42.4252630" lon="-2.7392830">
        <ele>487.4</ele>
        <time>2022-06-27T07:47:54Z</time>
      </trkpt>
      <trkpt lat="42.4252750" lon="-2.7393280">
        <ele>487.8</ele>
        <time>2022-06-27T07:47:55Z</time>
      </trkpt>
      <trkpt lat="42.4252860" lon="-2.7393720">
        <ele>487.8</ele>
        <time>2022-06-27T07:47:56Z</time>
      </trkpt>
      <trkpt lat="42.4252970" lon="-2.7394120">
        <ele>488.0</ele>
        <time>2022-06-27T07:47:57Z</time>
      </trkpt>
      <trkpt lat="42.4253070" lon="-2.7394480">
        <ele>488.4</ele>
        <time>2022-06-27T07:47:58Z</time>
      </trkpt>
      <trkpt lat="42.4253170" lon="-2.7394880">
        <ele>488.4</ele>
        <time>2022-06-27T07:47:59Z</time>
      </trkpt>
      <trkpt lat="42.4253310" lon="-2.7395300">
        <ele>488.6</ele>
        <time>2022-06-27T07:48:00Z</time>
      </trkpt>
      <trkpt lat="42.4253450" lon="-2.7395730">
        <ele>488.4</ele>
        <time>2022-06-27T07:48:01Z</time>
      </trkpt>
      <trkpt lat="42.4253590" lon="-2.7396170">
        <ele>488.6</ele>
        <time>2022-06-27T07:48:02Z</time>
      </trkpt>
      <trkpt lat="42.4253710" lon="-2.7396610">
        <ele>488.6</ele>
        <time>2022-06-27T07:48:03Z</time>
      </trkpt>
      <trkpt lat="42.4253810" lon="-2.7397030">
        <ele>488.8</ele>
        <time>2022-06-27T07:48:04Z</time>
      </trkpt>
      <trkpt lat="42.4253910" lon="-2.7397450">
        <ele>488.8</ele>
        <time>2022-06-27T07:48:05Z</time>
      </trkpt>
      <trkpt lat="42.4254040" lon="-2.7397850">
        <ele>489.0</ele>
        <time>2022-06-27T07:48:06Z</time>
      </trkpt>
      <trkpt lat="42.4254180" lon="-2.7398270">
        <ele>489.4</ele>
        <time>2022-06-27T07:48:07Z</time>
      </trkpt>
      <trkpt lat="42.4254360" lon="-2.7398690">
        <ele>489.4</ele>
        <time>2022-06-27T07:48:08Z</time>
      </trkpt>
      <trkpt lat="42.4254530" lon="-2.7399130">
        <ele>489.8</ele>
        <time>2022-06-27T07:48:09Z</time>
      </trkpt>
      <trkpt lat="42.4254690" lon="-2.7399590">
        <ele>489.8</ele>
        <time>2022-06-27T07:48:10Z</time>
      </trkpt>
      <trkpt lat="42.4254840" lon="-2.7400050">
        <ele>490.0</ele>
        <time>2022-06-27T07:48:11Z</time>
      </trkpt>
      <trkpt lat="42.4255000" lon="-2.7400530">
        <ele>490.2</ele>
        <time>2022-06-27T07:48:12Z</time>
      </trkpt>
      <trkpt lat="42.4255160" lon="-2.7400960">
        <ele>490.4</ele>
        <time>2022-06-27T07:48:13Z</time>
      </trkpt>
      <trkpt lat="42.4255330" lon="-2.7401410">
        <ele>490.6</ele>
        <time>2022-06-27T07:48:14Z</time>
      </trkpt>
      <trkpt lat="42.4255490" lon="-2.7401880">
        <ele>490.8</ele>
        <time>2022-06-27T07:48:15Z</time>
      </trkpt>
      <trkpt lat="42.4255630" lon="-2.7402360">
        <ele>491.0</ele>
        <time>2022-06-27T07:48:16Z</time>
      </trkpt>
      <trkpt lat="42.4255770" lon="-2.7402860">
        <ele>491.0</ele>
        <time>2022-06-27T07:48:17Z</time>
      </trkpt>
      <trkpt lat="42.4255900" lon="-2.7403360">
        <ele>491.2</ele>
        <time>2022-06-27T07:48:18Z</time>
      </trkpt>
      <trkpt lat="42.4256040" lon="-2.7403880">
        <ele>491.6</ele>
        <time>2022-06-27T07:48:19Z</time>
      </trkpt>
      <trkpt lat="42.4256170" lon="-2.7404420">
        <ele>491.8</ele>
        <time>2022-06-27T07:48:20Z</time>
      </trkpt>
      <trkpt lat="42.4256290" lon="-2.7404930">
        <ele>492.0</ele>
        <time>2022-06-27T07:48:21Z</time>
      </trkpt>
      <trkpt lat="42.4256410" lon="-2.7405420">
        <ele>492.2</ele>
        <time>2022-06-27T07:48:22Z</time>
      </trkpt>
      <trkpt lat="42.4256560" lon="-2.7405910">
        <ele>492.4</ele>
        <time>2022-06-27T07:48:23Z</time>
      </trkpt>
      <trkpt lat="42.4256710" lon="-2.7406430">
        <ele>492.6</ele>
        <time>2022-06-27T07:48:24Z</time>
      </trkpt>
      <trkpt lat="42.4256830" lon="-2.7406920">
        <ele>492.8</ele>
        <time>2022-06-27T07:48:25Z</time>
      </trkpt>
      <trkpt lat="42.4256960" lon="-2.7407440">
        <ele>493.2</ele>
        <time>2022-06-27T07:48:26Z</time>
      </trkpt>
      <trkpt lat="42.4257070" lon="-2.7407930">
        <ele>493.2</ele>
        <time>2022-06-27T07:48:27Z</time>
      </trkpt>
      <trkpt lat="42.4257180" lon="-2.7408420">
        <ele>493.6</ele>
        <time>2022-06-27T07:48:28Z</time>
      </trkpt>
      <trkpt lat="42.4257280" lon="-2.7408910">
        <ele>493.6</ele>
        <time>2022-06-27T07:48:29Z</time>
      </trkpt>
      <trkpt lat="42.4257380" lon="-2.7409430">
        <ele>494.0</ele>
        <time>2022-06-27T07:48:30Z</time>
      </trkpt>
      <trkpt lat="42.4257500" lon="-2.7409940">
        <ele>494.0</ele>
        <time>2022-06-27T07:48:31Z</time>
      </trkpt>
      <trkpt lat="42.4257630" lon="-2.7410440">
        <ele>494.4</ele>
        <time>2022-06-27T07:48:32Z</time>
      </trkpt>
      <trkpt lat="42.4257770" lon="-2.7410960">
        <ele>494.6</ele>
        <time>2022-06-27T07:48:33Z</time>
      </trkpt>
      <trkpt lat="42.4257920" lon="-2.7411490">
        <ele>494.8</ele>
        <time>2022-06-27T07:48:34Z</time>
      </trkpt>
      <trkpt lat="42.4258080" lon="-2.7412010">
        <ele>495.0</ele>
        <time>2022-06-27T07:48:35Z</time>
      </trkpt>
      <trkpt lat="42.4258240" lon="-2.7412530">
        <ele>495.2</ele>
        <time>2022-06-27T07:48:36Z</time>
      </trkpt>
      <trkpt lat="42.4258390" lon="-2.7413040">
        <ele>495.4</ele>
        <time>2022-06-27T07:48:37Z</time>
      </trkpt>
      <trkpt lat="42.4258540" lon="-2.7413550">
        <ele>495.6</ele>
        <time>2022-06-27T07:48:38Z</time>
      </trkpt>
      <trkpt lat="42.4258690" lon="-2.7414060">
        <ele>495.6</ele>
        <time>2022-06-27T07:48:39Z</time>
      </trkpt>
      <trkpt lat="42.4258820" lon="-2.7414560">
        <ele>495.8</ele>
        <time>2022-06-27T07:48:40Z</time>
      </trkpt>
      <trkpt lat="42.4258960" lon="-2.7415050">
        <ele>496.0</ele>
        <time>2022-06-27T07:48:41Z</time>
      </trkpt>
      <trkpt lat="42.4259090" lon="-2.7415520">
        <ele>496.2</ele>
        <time>2022-06-27T07:48:42Z</time>
      </trkpt>
      <trkpt lat="42.4259230" lon="-2.7416010">
        <ele>496.4</ele>
        <time>2022-06-27T07:48:43Z</time>
      </trkpt>
      <trkpt lat="42.4259400" lon="-2.7416490">
        <ele>496.8</ele>
        <time>2022-06-27T07:48:44Z</time>
      </trkpt>
      <trkpt lat="42.4259570" lon="-2.7416980">
        <ele>497.0</ele>
        <time>2022-06-27T07:48:45Z</time>
      </trkpt>
      <trkpt lat="42.4259720" lon="-2.7417450">
        <ele>497.2</ele>
        <time>2022-06-27T07:48:46Z</time>
      </trkpt>
      <trkpt lat="42.4259870" lon="-2.7417900">
        <ele>497.2</ele>
        <time>2022-06-27T07:48:47Z</time>
      </trkpt>
      <trkpt lat="42.4260040" lon="-2.7418350">
        <ele>497.4</ele>
        <time>2022-06-27T07:48:48Z</time>
      </trkpt>
      <trkpt lat="42.4260210" lon="-2.7418840">
        <ele>497.8</ele>
        <time>2022-06-27T07:48:49Z</time>
      </trkpt>
      <trkpt lat="42.4260360" lon="-2.7419320">
        <ele>497.8</ele>
        <time>2022-06-27T07:48:50Z</time>
      </trkpt>
      <trkpt lat="42.4260510" lon="-2.7419820">
        <ele>498.2</ele>
        <time>2022-06-27T07:48:51Z</time>
      </trkpt>
      <trkpt lat="42.4260650" lon="-2.7420300">
        <ele>498.2</ele>
        <time>2022-06-27T07:48:52Z</time>
      </trkpt>
      <trkpt lat="42.4260770" lon="-2.7420770">
        <ele>498.6</ele>
        <time>2022-06-27T07:48:53Z</time>
      </trkpt>
      <trkpt lat="42.4260890" lon="-2.7421250">
        <ele>498.8</ele>
        <time>2022-06-27T07:48:54Z</time>
      </trkpt>
      <trkpt lat="42.4261020" lon="-2.7421740">
        <ele>499.0</ele>
        <time>2022-06-27T07:48:55Z</time>
      </trkpt>
      <trkpt lat="42.4261180" lon="-2.7422240">
        <ele>499.0</ele>
        <time>2022-06-27T07:48:56Z</time>
      </trkpt>
      <trkpt lat="42.4261350" lon="-2.7422720">
        <ele>499.2</ele>
        <time>2022-06-27T07:48:57Z</time>
      </trkpt>
      <trkpt lat="42.4261510" lon="-2.7423190">
        <ele>499.4</ele>
        <time>2022-06-27T07:48:58Z</time>
      </trkpt>
      <trkpt lat="42.4261660" lon="-2.7423650">
        <ele>499.6</ele>
        <time>2022-06-27T07:48:59Z</time>
      </trkpt>
      <trkpt lat="42.4261820" lon="-2.7424090">
        <ele>500.0</ele>
        <time>2022-06-27T07:49:00Z</time>
      </trkpt>
      <trkpt lat="42.4261980" lon="-2.7424530">
        <ele>500.2</ele>
        <time>2022-06-27T07:49:01Z</time>
      </trkpt>
      <trkpt lat="42.4262130" lon="-2.7424970">
        <ele>500.6</ele>
        <time>2022-06-27T07:49:02Z</time>
      </trkpt>
      <trkpt lat="42.4262270" lon="-2.7425470">
        <ele>500.6</ele>
        <time>2022-06-27T07:49:03Z</time>
      </trkpt>
      <trkpt lat="42.4262420" lon="-2.7425970">
        <ele>500.8</ele>
        <time>2022-06-27T07:49:04Z</time>
      </trkpt>
      <trkpt lat="42.4262570" lon="-2.7426450">
        <ele>501.0</ele>
        <time>2022-06-27T07:49:05Z</time>
      </trkpt>
      <trkpt lat="42.4262700" lon="-2.7426910">
        <ele>501.0</ele>
        <time>2022-06-27T07:49:06Z</time>
      </trkpt>
      <trkpt lat="42.4262840" lon="-2.7427380">
        <ele>501.2</ele>
        <time>2022-06-27T07:49:07Z</time>
      </trkpt>
      <trkpt lat="42.4262940" lon="-2.7427870">
        <ele>501.2</ele>
        <time>2022-06-27T07:49:08Z</time>
      </trkpt>
      <trkpt lat="42.4263050" lon="-2.7428370">
        <ele>501.6</ele>
        <time>2022-06-27T07:49:09Z</time>
      </trkpt>
      <trkpt lat="42.4263180" lon="-2.7428880">
        <ele>501.8</ele>
        <time>2022-06-27T07:49:10Z</time>
      </trkpt>
      <trkpt lat="42.4263350" lon="-2.7429490">
        <ele>502.0</ele>
        <time>2022-06-27T07:49:11Z</time>
      </trkpt>
      <trkpt lat="42.4263470" lon="-2.7429880">
        <ele>502.4</ele>
        <time>2022-06-27T07:49:12Z</time>
      </trkpt>
      <trkpt lat="42.4263630" lon="-2.7430380">
        <ele>502.4</ele>
        <time>2022-06-27T07:49:13Z</time>
      </trkpt>
      <trkpt lat="42.4263780" lon="-2.7430870">
        <ele>502.6</ele>
        <time>2022-06-27T07:49:14Z</time>
      </trkpt>
      <trkpt lat="42.4263930" lon="-2.7431340">
        <ele>502.6</ele>
        <time>2022-06-27T07:49:15Z</time>
      </trkpt>
      <trkpt lat="42.4264070" lon="-2.7431810">
        <ele>502.8</ele>
        <time>2022-06-27T07:49:16Z</time>
      </trkpt>
      <trkpt lat="42.4264200" lon="-2.7432280">
        <ele>502.8</ele>
        <time>2022-06-27T07:49:17Z</time>
      </trkpt>
      <trkpt lat="42.4264300" lon="-2.7432770">
        <ele>503.0</ele>
        <time>2022-06-27T07:49:18Z</time>
      </trkpt>
      <trkpt lat="42.4264380" lon="-2.7433270">
        <ele>503.2</ele>
        <time>2022-06-27T07:49:19Z</time>
      </trkpt>
      <trkpt lat="42.4264450" lon="-2.7433790">
        <ele>503.2</ele>
        <time>2022-06-27T07:49:20Z</time>
      </trkpt>
      <trkpt lat="42.4264500" lon="-2.7434310">
        <ele>503.4</ele>
        <time>2022-06-27T07:49:21Z</time>
      </trkpt>
      <trkpt lat="42.4264560" lon="-2.7434810">
        <ele>503.6</ele>
        <time>2022-06-27T07:49:22Z</time>
      </trkpt>
      <trkpt lat="42.4264600" lon="-2.7435330">
        <ele>503.8</ele>
        <time>2022-06-27T07:49:23Z</time>
      </trkpt>
      <trkpt lat="42.4264600" lon="-2.7435840">
        <ele>504.0</ele>
        <time>2022-06-27T07:49:24Z</time>
      </trkpt>
      <trkpt lat="42.4264560" lon="-2.7436350">
        <ele>504.2</ele>
        <time>2022-06-27T07:49:25Z</time>
      </trkpt>
      <trkpt lat="42.4264520" lon="-2.7436850">
        <ele>504.4</ele>
        <time>2022-06-27T07:49:26Z</time>
      </trkpt>
      <trkpt lat="42.4264460" lon="-2.7437380">
        <ele>504.4</ele>
        <time>2022-06-27T07:49:27Z</time>
      </trkpt>
      <trkpt lat="42.4264400" lon="-2.7437920">
        <ele>504.6</ele>
        <time>2022-06-27T07:49:28Z</time>
      </trkpt>
      <trkpt lat="42.4264390" lon="-2.7438450">
        <ele>504.6</ele>
        <time>2022-06-27T07:49:29Z</time>
      </trkpt>
      <trkpt lat="42.4264440" lon="-2.7438960">
        <ele>504.8</ele>
        <time>2022-06-27T07:49:30Z</time>
      </trkpt>
      <trkpt lat="42.4264560" lon="-2.7439490">
        <ele>505.0</ele>
        <time>2022-06-27T07:49:31Z</time>
      </trkpt>
      <trkpt lat="42.4264750" lon="-2.7439990">
        <ele>505.2</ele>
        <time>2022-06-27T07:49:32Z</time>
      </trkpt>
      <trkpt lat="42.4265010" lon="-2.7440450">
        <ele>505.4</ele>
        <time>2022-06-27T07:49:33Z</time>
      </trkpt>
      <trkpt lat="42.4265310" lon="-2.7440880">
        <ele>505.6</ele>
        <time>2022-06-27T07:49:34Z</time>
      </trkpt>
      <trkpt lat="42.4265620" lon="-2.7441310">
        <ele>505.6</ele>
        <time>2022-06-27T07:49:35Z</time>
      </trkpt>
      <trkpt lat="42.4265940" lon="-2.7441760">
        <ele>505.8</ele>
        <time>2022-06-27T07:49:36Z</time>
      </trkpt>
      <trkpt lat="42.4266250" lon="-2.7442220">
        <ele>505.8</ele>
        <time>2022-06-27T07:49:37Z</time>
      </trkpt>
      <trkpt lat="42.4266530" lon="-2.7442720">
        <ele>505.6</ele>
        <time>2022-06-27T07:49:38Z</time>
      </trkpt>
      <trkpt lat="42.4266740" lon="-2.7443260">
        <ele>505.8</ele>
        <time>2022-06-27T07:49:39Z</time>
      </trkpt>
      <trkpt lat="42.4266900" lon="-2.7443850">
        <ele>505.8</ele>
        <time>2022-06-27T07:49:40Z</time>
      </trkpt>
      <trkpt lat="42.4267020" lon="-2.7444460">
        <ele>506.2</ele>
        <time>2022-06-27T07:49:41Z</time>
      </trkpt>
      <trkpt lat="42.4267080" lon="-2.7445090">
        <ele>506.6</ele>
        <time>2022-06-27T07:49:42Z</time>
      </trkpt>
      <trkpt lat="42.4267110" lon="-2.7445760">
        <ele>506.6</ele>
        <time>2022-06-27T07:49:43Z</time>
      </trkpt>
      <trkpt lat="42.4267110" lon="-2.7446410">
        <ele>506.8</ele>
        <time>2022-06-27T07:49:44Z</time>
      </trkpt>
      <trkpt lat="42.4267090" lon="-2.7447050">
        <ele>506.8</ele>
        <time>2022-06-27T07:49:45Z</time>
      </trkpt>
      <trkpt lat="42.4267110" lon="-2.7447710">
        <ele>507.0</ele>
        <time>2022-06-27T07:49:46Z</time>
      </trkpt>
      <trkpt lat="42.4267170" lon="-2.7448400">
        <ele>507.0</ele>
        <time>2022-06-27T07:49:47Z</time>
      </trkpt>
      <trkpt lat="42.4267330" lon="-2.7449070">
        <ele>507.2</ele>
        <time>2022-06-27T07:49:48Z</time>
      </trkpt>
      <trkpt lat="42.4267580" lon="-2.7449680">
        <ele>507.2</ele>
        <time>2022-06-27T07:49:49Z</time>
      </trkpt>
      <trkpt lat="42.4267900" lon="-2.7450220">
        <ele>507.2</ele>
        <time>2022-06-27T07:49:50Z</time>
      </trkpt>
      <trkpt lat="42.4268260" lon="-2.7450730">
        <ele>507.2</ele>
        <time>2022-06-27T07:49:51Z</time>
      </trkpt>
      <trkpt lat="42.4268630" lon="-2.7451220">
        <ele>507.4</ele>
        <time>2022-06-27T07:49:52Z</time>
      </trkpt>
      <trkpt lat="42.4268980" lon="-2.7451730">
        <ele>507.6</ele>
        <time>2022-06-27T07:49:53Z</time>
      </trkpt>
      <trkpt lat="42.4269310" lon="-2.7452280">
        <ele>507.6</ele>
        <time>2022-06-27T07:49:54Z</time>
      </trkpt>
      <trkpt lat="42.4269610" lon="-2.7452860">
        <ele>507.8</ele>
        <time>2022-06-27T07:49:55Z</time>
      </trkpt>
      <trkpt lat="42.4269880" lon="-2.7453470">
        <ele>507.8</ele>
        <time>2022-06-27T07:49:56Z</time>
      </trkpt>
      <trkpt lat="42.4270140" lon="-2.7454100">
        <ele>507.8</ele>
        <time>2022-06-27T07:49:57Z</time>
      </trkpt>
      <trkpt lat="42.4270380" lon="-2.7454750">
        <ele>507.8</ele>
        <time>2022-06-27T07:49:58Z</time>
      </trkpt>
      <trkpt lat="42.4270610" lon="-2.7455410">
        <ele>507.8</ele>
        <time>2022-06-27T07:49:59Z</time>
      </trkpt>
      <trkpt lat="42.4270810" lon="-2.7456100">
        <ele>508.0</ele>
        <time>2022-06-27T07:50:00Z</time>
      </trkpt>
      <trkpt lat="42.4271000" lon="-2.7456750">
        <ele>508.0</ele>
        <time>2022-06-27T07:50:01Z</time>
      </trkpt>
      <trkpt lat="42.4271190" lon="-2.7457430">
        <ele>508.2</ele>
        <time>2022-06-27T07:50:02Z</time>
      </trkpt>
      <trkpt lat="42.4271390" lon="-2.7458110">
        <ele>508.2</ele>
        <time>2022-06-27T07:50:03Z</time>
      </trkpt>
      <trkpt lat="42.4271590" lon="-2.7458800">
        <ele>508.2</ele>
        <time>2022-06-27T07:50:04Z</time>
      </trkpt>
      <trkpt lat="42.4271770" lon="-2.7459480">
        <ele>508.4</ele>
        <time>2022-06-27T07:50:05Z</time>
      </trkpt>
      <trkpt lat="42.4271940" lon="-2.7460160">
        <ele>508.4</ele>
        <time>2022-06-27T07:50:06Z</time>
      </trkpt>
      <trkpt lat="42.4272110" lon="-2.7460850">
        <ele>508.6</ele>
        <time>2022-06-27T07:50:07Z</time>
      </trkpt>
      <trkpt lat="42.4272280" lon="-2.7461540">
        <ele>508.6</ele>
        <time>2022-06-27T07:50:08Z</time>
      </trkpt>
      <trkpt lat="42.4272460" lon="-2.7462240">
        <ele>508.8</ele>
        <time>2022-06-27T07:50:09Z</time>
      </trkpt>
      <trkpt lat="42.4272650" lon="-2.7462900">
        <ele>508.8</ele>
        <time>2022-06-27T07:50:10Z</time>
      </trkpt>
      <trkpt lat="42.4272850" lon="-2.7463580">
        <ele>509.0</ele>
        <time>2022-06-27T07:50:11Z</time>
      </trkpt>
      <trkpt lat="42.4273040" lon="-2.7464280">
        <ele>509.2</ele>
        <time>2022-06-27T07:50:12Z</time>
      </trkpt>
      <trkpt lat="42.4273230" lon="-2.7464990">
        <ele>509.2</ele>
        <time>2022-06-27T07:50:13Z</time>
      </trkpt>
      <trkpt lat="42.4273420" lon="-2.7465700">
        <ele>509.2</ele>
        <time>2022-06-27T07:50:14Z</time>
      </trkpt>
      <trkpt lat="42.4273600" lon="-2.7466410">
        <ele>509.4</ele>
        <time>2022-06-27T07:50:15Z</time>
      </trkpt>
      <trkpt lat="42.4273790" lon="-2.7467120">
        <ele>509.6</ele>
        <time>2022-06-27T07:50:16Z</time>
      </trkpt>
      <trkpt lat="42.4273960" lon="-2.7467810">
        <ele>509.6</ele>
        <time>2022-06-27T07:50:17Z</time>
      </trkpt>
      <trkpt lat="42.4274140" lon="-2.7468510">
        <ele>509.8</ele>
        <time>2022-06-27T07:50:18Z</time>
      </trkpt>
      <trkpt lat="42.4274330" lon="-2.7469200">
        <ele>509.8</ele>
        <time>2022-06-27T07:50:19Z</time>
      </trkpt>
      <trkpt lat="42.4274510" lon="-2.7469920">
        <ele>509.8</ele>
        <time>2022-06-27T07:50:20Z</time>
      </trkpt>
      <trkpt lat="42.4274700" lon="-2.7470640">
        <ele>509.8</ele>
        <time>2022-06-27T07:50:21Z</time>
      </trkpt>
      <trkpt lat="42.4274900" lon="-2.7471360">
        <ele>510.0</ele>
        <time>2022-06-27T07:50:22Z</time>
      </trkpt>
      <trkpt lat="42.4275080" lon="-2.7472070">
        <ele>510.0</ele>
        <time>2022-06-27T07:50:23Z</time>
      </trkpt>
      <trkpt lat="42.4275270" lon="-2.7472780">
        <ele>510.0</ele>
        <time>2022-06-27T07:50:24Z</time>
      </trkpt>
      <trkpt lat="42.4275450" lon="-2.7473490">
        <ele>510.2</ele>
        <time>2022-06-27T07:50:25Z</time>
      </trkpt>
      <trkpt lat="42.4275640" lon="-2.7474210">
        <ele>510.2</ele>
        <time>2022-06-27T07:50:26Z</time>
      </trkpt>
      <trkpt lat="42.4275840" lon="-2.7474920">
        <ele>510.2</ele>
        <time>2022-06-27T07:50:27Z</time>
      </trkpt>
      <trkpt lat="42.4276030" lon="-2.7475650">
        <ele>510.2</ele>
        <time>2022-06-27T07:50:28Z</time>
      </trkpt>
      <trkpt lat="42.4276230" lon="-2.7476380">
        <ele>510.2</ele>
        <time>2022-06-27T07:50:29Z</time>
      </trkpt>
      <trkpt lat="42.4276420" lon="-2.7477110">
        <ele>510.4</ele>
        <time>2022-06-27T07:50:30Z</time>
      </trkpt>
      <trkpt lat="42.4276630" lon="-2.7477850">
        <ele>510.4</ele>
        <time>2022-06-27T07:50:31Z</time>
      </trkpt>
      <trkpt lat="42.4276820" lon="-2.7478600">
        <ele>510.6</ele>
        <time>2022-06-27T07:50:32Z</time>
      </trkpt>
      <trkpt lat="42.4277030" lon="-2.7479350">
        <ele>510.6</ele>
        <time>2022-06-27T07:50:33Z</time>
      </trkpt>
      <trkpt lat="42.4277230" lon="-2.7480090">
        <ele>510.8</ele>
        <time>2022-06-27T07:50:34Z</time>
      </trkpt>
      <trkpt lat="42.4277430" lon="-2.7480820">
        <ele>510.8</ele>
        <time>2022-06-27T07:50:35Z</time>
      </trkpt>
      <trkpt lat="42.4277620" lon="-2.7481550">
        <ele>510.8</ele>
        <time>2022-06-27T07:50:36Z</time>
      </trkpt>
      <trkpt lat="42.4277820" lon="-2.7482280">
        <ele>510.8</ele>
        <time>2022-06-27T07:50:37Z</time>
      </trkpt>
      <trkpt lat="42.4278010" lon="-2.7483010">
        <ele>510.8</ele>
        <time>2022-06-27T07:50:38Z</time>
      </trkpt>
      <trkpt lat="42.4278210" lon="-2.7483730">
        <ele>510.8</ele>
        <time>2022-06-27T07:50:39Z</time>
      </trkpt>
      <trkpt lat="42.4278410" lon="-2.7484440">
        <ele>511.0</ele>
        <time>2022-06-27T07:50:40Z</time>
      </trkpt>
      <trkpt lat="42.4278610" lon="-2.7485140">
        <ele>511.0</ele>
        <time>2022-06-27T07:50:41Z</time>
      </trkpt>
      <trkpt lat="42.4278790" lon="-2.7485870">
        <ele>511.0</ele>
        <time>2022-06-27T07:50:42Z</time>
      </trkpt>
      <trkpt lat="42.4278980" lon="-2.7486590">
        <ele>511.0</ele>
        <time>2022-06-27T07:50:43Z</time>
      </trkpt>
      <trkpt lat="42.4279160" lon="-2.7487340">
        <ele>511.0</ele>
        <time>2022-06-27T07:50:44Z</time>
      </trkpt>
      <trkpt lat="42.4279350" lon="-2.7488080">
        <ele>511.0</ele>
        <time>2022-06-27T07:50:45Z</time>
      </trkpt>
      <trkpt lat="42.4279550" lon="-2.7488800">
        <ele>511.0</ele>
        <time>2022-06-27T07:50:46Z</time>
      </trkpt>
      <trkpt lat="42.4279740" lon="-2.7489540">
        <ele>511.0</ele>
        <time>2022-06-27T07:50:47Z</time>
      </trkpt>
      <trkpt lat="42.4279940" lon="-2.7490280">
        <ele>511.2</ele>
        <time>2022-06-27T07:50:48Z</time>
      </trkpt>
      <trkpt lat="42.4280140" lon="-2.7491020">
        <ele>511.2</ele>
        <time>2022-06-27T07:50:49Z</time>
      </trkpt>
      <trkpt lat="42.4280330" lon="-2.7491740">
        <ele>511.2</ele>
        <time>2022-06-27T07:50:50Z</time>
      </trkpt>
      <trkpt lat="42.4280520" lon="-2.7492460">
        <ele>511.2</ele>
        <time>2022-06-27T07:50:51Z</time>
      </trkpt>
      <trkpt lat="42.4280720" lon="-2.7493210">
        <ele>511.2</ele>
        <time>2022-06-27T07:50:52Z</time>
      </trkpt>
      <trkpt lat="42.4280920" lon="-2.7493950">
        <ele>511.4</ele>
        <time>2022-06-27T07:50:53Z</time>
      </trkpt>
      <trkpt lat="42.4281110" lon="-2.7494700">
        <ele>511.6</ele>
        <time>2022-06-27T07:50:54Z</time>
      </trkpt>
      <trkpt lat="42.4281310" lon="-2.7495450">
        <ele>511.8</ele>
        <time>2022-06-27T07:50:55Z</time>
      </trkpt>
      <trkpt lat="42.4281520" lon="-2.7496190">
        <ele>511.8</ele>
        <time>2022-06-27T07:50:56Z</time>
      </trkpt>
      <trkpt lat="42.4281730" lon="-2.7496920">
        <ele>511.8</ele>
        <time>2022-06-27T07:50:57Z</time>
      </trkpt>
      <trkpt lat="42.4281920" lon="-2.7497650">
        <ele>512.0</ele>
        <time>2022-06-27T07:50:58Z</time>
      </trkpt>
      <trkpt lat="42.4282110" lon="-2.7498390">
        <ele>512.0</ele>
        <time>2022-06-27T07:50:59Z</time>
      </trkpt>
      <trkpt lat="42.4282300" lon="-2.7499120">
        <ele>512.0</ele>
        <time>2022-06-27T07:51:00Z</time>
      </trkpt>
      <trkpt lat="42.4282490" lon="-2.7499870">
        <ele>512.2</ele>
        <time>2022-06-27T07:51:01Z</time>
      </trkpt>
      <trkpt lat="42.4282670" lon="-2.7500610">
        <ele>512.4</ele>
        <time>2022-06-27T07:51:02Z</time>
      </trkpt>
      <trkpt lat="42.4282870" lon="-2.7501350">
        <ele>512.4</ele>
        <time>2022-06-27T07:51:03Z</time>
      </trkpt>
      <trkpt lat="42.4283070" lon="-2.7502110">
        <ele>512.4</ele>
        <time>2022-06-27T07:51:04Z</time>
      </trkpt>
      <trkpt lat="42.4283260" lon="-2.7502860">
        <ele>512.6</ele>
        <time>2022-06-27T07:51:05Z</time>
      </trkpt>
      <trkpt lat="42.4283460" lon="-2.7503610">
        <ele>512.6</ele>
        <time>2022-06-27T07:51:06Z</time>
      </trkpt>
      <trkpt lat="42.4283660" lon="-2.7504350">
        <ele>512.6</ele>
        <time>2022-06-27T07:51:07Z</time>
      </trkpt>
      <trkpt lat="42.4283850" lon="-2.7505090">
        <ele>512.6</ele>
        <time>2022-06-27T07:51:08Z</time>
      </trkpt>
      <trkpt lat="42.4284040" lon="-2.7505830">
        <ele>512.8</ele>
        <time>2022-06-27T07:51:09Z</time>
      </trkpt>
      <trkpt lat="42.4284230" lon="-2.7506570">
        <ele>512.8</ele>
        <time>2022-06-27T07:51:10Z</time>
      </trkpt>
      <trkpt lat="42.4284420" lon="-2.7507320">
        <ele>513.0</ele>
        <time>2022-06-27T07:51:11Z</time>
      </trkpt>
      <trkpt lat="42.4284610" lon="-2.7508050">
        <ele>513.0</ele>
        <time>2022-06-27T07:51:12Z</time>
      </trkpt>
      <trkpt lat="42.4284800" lon="-2.7508770">
        <ele>513.0</ele>
        <time>2022-06-27T07:51:13Z</time>
      </trkpt>
      <trkpt lat="42.4285000" lon="-2.7509470">
        <ele>513.2</ele>
        <time>2022-06-27T07:51:14Z</time>
      </trkpt>
      <trkpt lat="42.4285190" lon="-2.7510170">
        <ele>513.2</ele>
        <time>2022-06-27T07:51:15Z</time>
      </trkpt>
      <trkpt lat="42.4285360" lon="-2.7510870">
        <ele>513.2</ele>
        <time>2022-06-27T07:51:16Z</time>
      </trkpt>
      <trkpt lat="42.4285550" lon="-2.7511570">
        <ele>513.4</ele>
        <time>2022-06-27T07:51:17Z</time>
      </trkpt>
      <trkpt lat="42.4285740" lon="-2.7512270">
        <ele>513.6</ele>
        <time>2022-06-27T07:51:18Z</time>
      </trkpt>
      <trkpt lat="42.4285940" lon="-2.7512960">
        <ele>513.6</ele>
        <time>2022-06-27T07:51:19Z</time>
      </trkpt>
      <trkpt lat="42.4286130" lon="-2.7513670">
        <ele>513.8</ele>
        <time>2022-06-27T07:51:20Z</time>
      </trkpt>
      <trkpt lat="42.4286330" lon="-2.7514370">
        <ele>513.8</ele>
        <time>2022-06-27T07:51:21Z</time>
      </trkpt>
      <trkpt lat="42.4286510" lon="-2.7515070">
        <ele>513.8</ele>
        <time>2022-06-27T07:51:22Z</time>
      </trkpt>
      <trkpt lat="42.4286700" lon="-2.7515790">
        <ele>513.8</ele>
        <time>2022-06-27T07:51:23Z</time>
      </trkpt>
      <trkpt lat="42.4286880" lon="-2.7516500">
        <ele>514.0</ele>
        <time>2022-06-27T07:51:24Z</time>
      </trkpt>
      <trkpt lat="42.4287060" lon="-2.7517220">
        <ele>514.0</ele>
        <time>2022-06-27T07:51:25Z</time>
      </trkpt>
      <trkpt lat="42.4287250" lon="-2.7517930">
        <ele>514.0</ele>
        <time>2022-06-27T07:51:26Z</time>
      </trkpt>
      <trkpt lat="42.4287440" lon="-2.7518660">
        <ele>514.0</ele>
        <time>2022-06-27T07:51:27Z</time>
      </trkpt>
      <trkpt lat="42.4287640" lon="-2.7519390">
        <ele>514.0</ele>
        <time>2022-06-27T07:51:28Z</time>
      </trkpt>
      <trkpt lat="42.4287830" lon="-2.7520100">
        <ele>514.0</ele>
        <time>2022-06-27T07:51:29Z</time>
      </trkpt>
      <trkpt lat="42.4288020" lon="-2.7520820">
        <ele>514.2</ele>
        <time>2022-06-27T07:51:30Z</time>
      </trkpt>
      <trkpt lat="42.4288230" lon="-2.7521560">
        <ele>514.2</ele>
        <time>2022-06-27T07:51:31Z</time>
      </trkpt>
      <trkpt lat="42.4288430" lon="-2.7522300">
        <ele>514.4</ele>
        <time>2022-06-27T07:51:32Z</time>
      </trkpt>
      <trkpt lat="42.4288620" lon="-2.7523010">
        <ele>514.4</ele>
        <time>2022-06-27T07:51:33Z</time>
      </trkpt>
      <trkpt lat="42.4288810" lon="-2.7523720">
        <ele>514.6</ele>
        <time>2022-06-27T07:51:34Z</time>
      </trkpt>
      <trkpt lat="42.4289000" lon="-2.7524440">
        <ele>514.8</ele>
        <time>2022-06-27T07:51:35Z</time>
      </trkpt>
      <trkpt lat="42.4289180" lon="-2.7525150">
        <ele>514.8</ele>
        <time>2022-06-27T07:51:36Z</time>
      </trkpt>
      <trkpt lat="42.4289370" lon="-2.7525870">
        <ele>515.0</ele>
        <time>2022-06-27T07:51:37Z</time>
      </trkpt>
      <trkpt lat="42.4289560" lon="-2.7526570">
        <ele>515.0</ele>
        <time>2022-06-27T07:51:38Z</time>
      </trkpt>
      <trkpt lat="42.4289740" lon="-2.7527290">
        <ele>515.0</ele>
        <time>2022-06-27T07:51:39Z</time>
      </trkpt>
      <trkpt lat="42.4289930" lon="-2.7528000">
        <ele>515.2</ele>
        <time>2022-06-27T07:51:40Z</time>
      </trkpt>
      <trkpt lat="42.4290120" lon="-2.7528700">
        <ele>515.4</ele>
        <time>2022-06-27T07:51:41Z</time>
      </trkpt>
      <trkpt lat="42.4290310" lon="-2.7529410">
        <ele>515.4</ele>
        <time>2022-06-27T07:51:42Z</time>
      </trkpt>
      <trkpt lat="42.4290490" lon="-2.7530130">
        <ele>515.4</ele>
        <time>2022-06-27T07:51:43Z</time>
      </trkpt>
      <trkpt lat="42.4290680" lon="-2.7530860">
        <ele>515.6</ele>
        <time>2022-06-27T07:51:44Z</time>
      </trkpt>
      <trkpt lat="42.4290890" lon="-2.7531610">
        <ele>515.6</ele>
        <time>2022-06-27T07:51:45Z</time>
      </trkpt>
      <trkpt lat="42.4291080" lon="-2.7532340">
        <ele>515.8</ele>
        <time>2022-06-27T07:51:46Z</time>
      </trkpt>
      <trkpt lat="42.4291290" lon="-2.7533090">
        <ele>515.8</ele>
        <time>2022-06-27T07:51:47Z</time>
      </trkpt>
      <trkpt lat="42.4291490" lon="-2.7533810">
        <ele>515.8</ele>
        <time>2022-06-27T07:51:48Z</time>
      </trkpt>
      <trkpt lat="42.4291700" lon="-2.7534560">
        <ele>515.8</ele>
        <time>2022-06-27T07:51:49Z</time>
      </trkpt>
      <trkpt lat="42.4291890" lon="-2.7535320">
        <ele>515.8</ele>
        <time>2022-06-27T07:51:50Z</time>
      </trkpt>
      <trkpt lat="42.4292080" lon="-2.7536080">
        <ele>515.8</ele>
        <time>2022-06-27T07:51:51Z</time>
      </trkpt>
      <trkpt lat="42.4292270" lon="-2.7536840">
        <ele>516.0</ele>
        <time>2022-06-27T07:51:52Z</time>
      </trkpt>
      <trkpt lat="42.4292450" lon="-2.7537620">
        <ele>516.0</ele>
        <time>2022-06-27T07:51:53Z</time>
      </trkpt>
      <trkpt lat="42.4292630" lon="-2.7538430">
        <ele>516.0</ele>
        <time>2022-06-27T07:51:54Z</time>
      </trkpt>
      <trkpt lat="42.4292800" lon="-2.7539250">
        <ele>516.2</ele>
        <time>2022-06-27T07:51:55Z</time>
      </trkpt>
      <trkpt lat="42.4292960" lon="-2.7540080">
        <ele>516.2</ele>
        <time>2022-06-27T07:51:56Z</time>
      </trkpt>
      <trkpt lat="42.4293110" lon="-2.7540900">
        <ele>516.4</ele>
        <time>2022-06-27T07:51:57Z</time>
      </trkpt>
      <trkpt lat="42.4293260" lon="-2.7541740">
        <ele>516.4</ele>
        <time>2022-06-27T07:51:58Z</time>
      </trkpt>
      <trkpt lat="42.4293410" lon="-2.7542580">
        <ele>516.4</ele>
        <time>2022-06-27T07:51:59Z</time>
      </trkpt>
      <trkpt lat="42.4293560" lon="-2.7543420">
        <ele>516.6</ele>
        <time>2022-06-27T07:52:00Z</time>
      </trkpt>
      <trkpt lat="42.4293710" lon="-2.7544260">
        <ele>516.6</ele>
        <time>2022-06-27T07:52:01Z</time>
      </trkpt>
      <trkpt lat="42.4293840" lon="-2.7545090">
        <ele>516.6</ele>
        <time>2022-06-27T07:52:02Z</time>
      </trkpt>
      <trkpt lat="42.4293960" lon="-2.7545950">
        <ele>516.6</ele>
        <time>2022-06-27T07:52:03Z</time>
      </trkpt>
      <trkpt lat="42.4294080" lon="-2.7546830">
        <ele>516.6</ele>
        <time>2022-06-27T07:52:04Z</time>
      </trkpt>
      <trkpt lat="42.4294170" lon="-2.7547720">
        <ele>516.6</ele>
        <time>2022-06-27T07:52:05Z</time>
      </trkpt>
      <trkpt lat="42.4294260" lon="-2.7548610">
        <ele>516.6</ele>
        <time>2022-06-27T07:52:06Z</time>
      </trkpt>
      <trkpt lat="42.4294350" lon="-2.7549490">
        <ele>516.6</ele>
        <time>2022-06-27T07:52:07Z</time>
      </trkpt>
      <trkpt lat="42.4294420" lon="-2.7550360">
        <ele>516.6</ele>
        <time>2022-06-27T07:52:08Z</time>
      </trkpt>
      <trkpt lat="42.4294500" lon="-2.7551210">
        <ele>516.6</ele>
        <time>2022-06-27T07:52:09Z</time>
      </trkpt>
      <trkpt lat="42.4294570" lon="-2.7552060">
        <ele>516.8</ele>
        <time>2022-06-27T07:52:10Z</time>
      </trkpt>
      <trkpt lat="42.4294630" lon="-2.7552890">
        <ele>517.0</ele>
        <time>2022-06-27T07:52:11Z</time>
      </trkpt>
      <trkpt lat="42.4294690" lon="-2.7553730">
        <ele>517.0</ele>
        <time>2022-06-27T07:52:12Z</time>
      </trkpt>
      <trkpt lat="42.4294740" lon="-2.7554550">
        <ele>517.0</ele>
        <time>2022-06-27T07:52:13Z</time>
      </trkpt>
      <trkpt lat="42.4294790" lon="-2.7555370">
        <ele>517.2</ele>
        <time>2022-06-27T07:52:14Z</time>
      </trkpt>
      <trkpt lat="42.4294840" lon="-2.7556190">
        <ele>517.4</ele>
        <time>2022-06-27T07:52:15Z</time>
      </trkpt>
      <trkpt lat="42.4294870" lon="-2.7557000">
        <ele>517.6</ele>
        <time>2022-06-27T07:52:16Z</time>
      </trkpt>
      <trkpt lat="42.4294910" lon="-2.7557780">
        <ele>517.6</ele>
        <time>2022-06-27T07:52:17Z</time>
      </trkpt>
      <trkpt lat="42.4294970" lon="-2.7558570">
        <ele>517.8</ele>
        <time>2022-06-27T07:52:18Z</time>
      </trkpt>
      <trkpt lat="42.4295010" lon="-2.7559380">
        <ele>517.8</ele>
        <time>2022-06-27T07:52:19Z</time>
      </trkpt>
      <trkpt lat="42.4295030" lon="-2.7560200">
        <ele>517.8</ele>
        <time>2022-06-27T07:52:20Z</time>
      </trkpt>
      <trkpt lat="42.4295070" lon="-2.7561030">
        <ele>518.0</ele>
        <time>2022-06-27T07:52:21Z</time>
      </trkpt>
      <trkpt lat="42.4295090" lon="-2.7561860">
        <ele>518.0</ele>
        <time>2022-06-27T07:52:22Z</time>
      </trkpt>
      <trkpt lat="42.4295090" lon="-2.7562690">
        <ele>518.0</ele>
        <time>2022-06-27T07:52:23Z</time>
      </trkpt>
      <trkpt lat="42.4295070" lon="-2.7563490">
        <ele>518.2</ele>
        <time>2022-06-27T07:52:24Z</time>
      </trkpt>
      <trkpt lat="42.4295050" lon="-2.7564280">
        <ele>518.2</ele>
        <time>2022-06-27T07:52:25Z</time>
      </trkpt>
      <trkpt lat="42.4295010" lon="-2.7565100">
        <ele>518.2</ele>
        <time>2022-06-27T07:52:26Z</time>
      </trkpt>
      <trkpt lat="42.4294960" lon="-2.7565930">
        <ele>518.4</ele>
        <time>2022-06-27T07:52:27Z</time>
      </trkpt>
      <trkpt lat="42.4294900" lon="-2.7566780">
        <ele>518.6</ele>
        <time>2022-06-27T07:52:28Z</time>
      </trkpt>
      <trkpt lat="42.4294800" lon="-2.7567650">
        <ele>518.6</ele>
        <time>2022-06-27T07:52:29Z</time>
      </trkpt>
      <trkpt lat="42.4294660" lon="-2.7568540">
        <ele>518.6</ele>
        <time>2022-06-27T07:52:30Z</time>
      </trkpt>
      <trkpt lat="42.4294510" lon="-2.7569480">
        <ele>518.8</ele>
        <time>2022-06-27T07:52:31Z</time>
      </trkpt>
      <trkpt lat="42.4294340" lon="-2.7570450">
        <ele>518.8</ele>
        <time>2022-06-27T07:52:32Z</time>
      </trkpt>
      <trkpt lat="42.4294150" lon="-2.7571450">
        <ele>519.0</ele>
        <time>2022-06-27T07:52:33Z</time>
      </trkpt>
      <trkpt lat="42.4293960" lon="-2.7572460">
        <ele>519.0</ele>
        <time>2022-06-27T07:52:34Z</time>
      </trkpt>
      <trkpt lat="42.4293760" lon="-2.7573470">
        <ele>519.0</ele>
        <time>2022-06-27T07:52:35Z</time>
      </trkpt>
      <trkpt lat="42.4293540" lon="-2.7574490">
        <ele>519.0</ele>
        <time>2022-06-27T07:52:36Z</time>
      </trkpt>
      <trkpt lat="42.4293280" lon="-2.7575480">
        <ele>519.0</ele>
        <time>2022-06-27T07:52:37Z</time>
      </trkpt>
      <trkpt lat="42.4292970" lon="-2.7576470">
        <ele>519.0</ele>
        <time>2022-06-27T07:52:38Z</time>
      </trkpt>
      <trkpt lat="42.4292630" lon="-2.7577440">
        <ele>519.0</ele>
        <time>2022-06-27T07:52:39Z</time>
      </trkpt>
      <trkpt lat="42.4292270" lon="-2.7578400">
        <ele>519.0</ele>
        <time>2022-06-27T07:52:40Z</time>
      </trkpt>
      <trkpt lat="42.4291900" lon="-2.7579340">
        <ele>519.2</ele>
        <time>2022-06-27T07:52:41Z</time>
      </trkpt>
      <trkpt lat="42.4291530" lon="-2.7580250">
        <ele>519.2</ele>
        <time>2022-06-27T07:52:42Z</time>
      </trkpt>
      <trkpt lat="42.4291150" lon="-2.7581140">
        <ele>519.2</ele>
        <time>2022-06-27T07:52:43Z</time>
      </trkpt>
      <trkpt lat="42.4290760" lon="-2.7582010">
        <ele>519.4</ele>
        <time>2022-06-27T07:52:44Z</time>
      </trkpt>
      <trkpt lat="42.4290370" lon="-2.7582860">
        <ele>519.4</ele>
        <time>2022-06-27T07:52:45Z</time>
      </trkpt>
      <trkpt lat="42.4289970" lon="-2.7583680">
        <ele>519.4</ele>
        <time>2022-06-27T07:52:46Z</time>
      </trkpt>
      <trkpt lat="42.4289580" lon="-2.7584490">
        <ele>519.4</ele>
        <time>2022-06-27T07:52:47Z</time>
      </trkpt>
      <trkpt lat="42.4289200" lon="-2.7585270">
        <ele>519.4</ele>
        <time>2022-06-27T07:52:48Z</time>
      </trkpt>
      <trkpt lat="42.4288840" lon="-2.7586080">
        <ele>519.6</ele>
        <time>2022-06-27T07:52:49Z</time>
      </trkpt>
      <trkpt lat="42.4288530" lon="-2.7586960">
        <ele>519.6</ele>
        <time>2022-06-27T07:52:50Z</time>
      </trkpt>
      <trkpt lat="42.4288250" lon="-2.7587900">
        <ele>519.6</ele>
        <time>2022-06-27T07:52:51Z</time>
      </trkpt>
      <trkpt lat="42.4288020" lon="-2.7588880">
        <ele>519.6</ele>
        <time>2022-06-27T07:52:52Z</time>
      </trkpt>
      <trkpt lat="42.4287890" lon="-2.7589900">
        <ele>519.6</ele>
        <time>2022-06-27T07:52:53Z</time>
      </trkpt>
      <trkpt lat="42.4287910" lon="-2.7590940">
        <ele>519.6</ele>
        <time>2022-06-27T07:52:54Z</time>
      </trkpt>
      <trkpt lat="42.4288090" lon="-2.7591950">
        <ele>519.4</ele>
        <time>2022-06-27T07:52:55Z</time>
      </trkpt>
      <trkpt lat="42.4288450" lon="-2.7592840">
        <ele>519.4</ele>
        <time>2022-06-27T07:52:56Z</time>
      </trkpt>
      <trkpt lat="42.4288960" lon="-2.7593560">
        <ele>519.2</ele>
        <time>2022-06-27T07:52:57Z</time>
      </trkpt>
      <trkpt lat="42.4289590" lon="-2.7594100">
        <ele>519.0</ele>
        <time>2022-06-27T07:52:58Z</time>
      </trkpt>
      <trkpt lat="42.4290300" lon="-2.7594450">
        <ele>518.8</ele>
        <time>2022-06-27T07:52:59Z</time>
      </trkpt>
      <trkpt lat="42.4291060" lon="-2.7594550">
        <ele>518.6</ele>
        <time>2022-06-27T07:53:00Z</time>
      </trkpt>
      <trkpt lat="42.4291820" lon="-2.7594470">
        <ele>518.4</ele>
        <time>2022-06-27T07:53:01Z</time>
      </trkpt>
      <trkpt lat="42.4292570" lon="-2.7594430">
        <ele>518.2</ele>
        <time>2022-06-27T07:53:02Z</time>
      </trkpt>
      <trkpt lat="42.4293330" lon="-2.7594530">
        <ele>518.0</ele>
        <time>2022-06-27T07:53:03Z</time>
      </trkpt>
      <trkpt lat="42.4294080" lon="-2.7594780">
        <ele>517.8</ele>
        <time>2022-06-27T07:53:04Z</time>
      </trkpt>
      <trkpt lat="42.4294800" lon="-2.7595240">
        <ele>517.8</ele>
        <time>2022-06-27T07:53:05Z</time>
      </trkpt>
      <trkpt lat="42.4295480" lon="-2.7595800">
        <ele>517.4</ele>
        <time>2022-06-27T07:53:06Z</time>
      </trkpt>
      <trkpt lat="42.4296180" lon="-2.7596330">
        <ele>517.0</ele>
        <time>2022-06-27T07:53:07Z</time>
      </trkpt>
      <trkpt lat="42.4296920" lon="-2.7596680">
        <ele>516.6</ele>
        <time>2022-06-27T07:53:08Z</time>
      </trkpt>
      <trkpt lat="42.4297700" lon="-2.7596820">
        <ele>516.2</ele>
        <time>2022-06-27T07:53:09Z</time>
      </trkpt>
      <trkpt lat="42.4298470" lon="-2.7596810">
        <ele>516.2</ele>
        <time>2022-06-27T07:53:10Z</time>
      </trkpt>
      <trkpt lat="42.4299230" lon="-2.7596660">
        <ele>516.0</ele>
        <time>2022-06-27T07:53:11Z</time>
      </trkpt>
      <trkpt lat="42.4299950" lon="-2.7596500">
        <ele>515.8</ele>
        <time>2022-06-27T07:53:12Z</time>
      </trkpt>
      <trkpt lat="42.4300670" lon="-2.7596330">
        <ele>515.8</ele>
        <time>2022-06-27T07:53:13Z</time>
      </trkpt>
      <trkpt lat="42.4301380" lon="-2.7596150">
        <ele>515.6</ele>
        <time>2022-06-27T07:53:14Z</time>
      </trkpt>
      <trkpt lat="42.4302090" lon="-2.7595970">
        <ele>515.6</ele>
        <time>2022-06-27T07:53:15Z</time>
      </trkpt>
      <trkpt lat="42.4302800" lon="-2.7595820">
        <ele>515.4</ele>
        <time>2022-06-27T07:53:16Z</time>
      </trkpt>
      <trkpt lat="42.4303540" lon="-2.7595670">
        <ele>515.2</ele>
        <time>2022-06-27T07:53:17Z</time>
      </trkpt>
      <trkpt lat="42.4304320" lon="-2.7595530">
        <ele>515.2</ele>
        <time>2022-06-27T07:53:18Z</time>
      </trkpt>
      <trkpt lat="42.4305080" lon="-2.7595400">
        <ele>515.2</ele>
        <time>2022-06-27T07:53:19Z</time>
      </trkpt>
      <trkpt lat="42.4305820" lon="-2.7595270">
        <ele>515.2</ele>
        <time>2022-06-27T07:53:20Z</time>
      </trkpt>
      <trkpt lat="42.4306550" lon="-2.7595130">
        <ele>515.2</ele>
        <time>2022-06-27T07:53:21Z</time>
      </trkpt>
      <trkpt lat="42.4307260" lon="-2.7594940">
        <ele>515.2</ele>
        <time>2022-06-27T07:53:22Z</time>
      </trkpt>
      <trkpt lat="42.4307960" lon="-2.7594640">
        <ele>515.2</ele>
        <time>2022-06-27T07:53:23Z</time>
      </trkpt>
      <trkpt lat="42.4308620" lon="-2.7594190">
        <ele>515.2</ele>
        <time>2022-06-27T07:53:24Z</time>
      </trkpt>
      <trkpt lat="42.4309190" lon="-2.7593590">
        <ele>515.2</ele>
        <time>2022-06-27T07:53:25Z</time>
      </trkpt>
      <trkpt lat="42.4309660" lon="-2.7592890">
        <ele>515.2</ele>
        <time>2022-06-27T07:53:26Z</time>
      </trkpt>
      <trkpt lat="42.4310110" lon="-2.7592160">
        <ele>515.2</ele>
        <time>2022-06-27T07:53:27Z</time>
      </trkpt>
      <trkpt lat="42.4310570" lon="-2.7591500">
        <ele>515.2</ele>
        <time>2022-06-27T07:53:28Z</time>
      </trkpt>
      <trkpt lat="42.4311080" lon="-2.7590980">
        <ele>515.2</ele>
        <time>2022-06-27T07:53:29Z</time>
      </trkpt>
      <trkpt lat="42.4311650" lon="-2.7590590">
        <ele>515.2</ele>
        <time>2022-06-27T07:53:30Z</time>
      </trkpt>
      <trkpt lat="42.4312270" lon="-2.7590400">
        <ele>515.2</ele>
        <time>2022-06-27T07:53:31Z</time>
      </trkpt>
      <trkpt lat="42.4312920" lon="-2.7590420">
        <ele>515.2</ele>
        <time>2022-06-27T07:53:32Z</time>
      </trkpt>
      <trkpt lat="42.4313550" lon="-2.7590600">
        <ele>515.2</ele>
        <time>2022-06-27T07:53:33Z</time>
      </trkpt>
      <trkpt lat="42.4314110" lon="-2.7591000">
        <ele>515.0</ele>
        <time>2022-06-27T07:53:34Z</time>
      </trkpt>
      <trkpt lat="42.4314610" lon="-2.7591610">
        <ele>514.6</ele>
        <time>2022-06-27T07:53:35Z</time>
      </trkpt>
      <trkpt lat="42.4315010" lon="-2.7592350">
        <ele>514.4</ele>
        <time>2022-06-27T07:53:36Z</time>
      </trkpt>
      <trkpt lat="42.4315300" lon="-2.7593190">
        <ele>514.0</ele>
        <time>2022-06-27T07:53:37Z</time>
      </trkpt>
      <trkpt lat="42.4315490" lon="-2.7594080">
        <ele>514.0</ele>
        <time>2022-06-27T07:53:38Z</time>
      </trkpt>
      <trkpt lat="42.4315650" lon="-2.7594980">
        <ele>513.8</ele>
        <time>2022-06-27T07:53:39Z</time>
      </trkpt>
      <trkpt lat="42.4315800" lon="-2.7595890">
        <ele>513.8</ele>
        <time>2022-06-27T07:53:40Z</time>
      </trkpt>
      <trkpt lat="42.4316000" lon="-2.7596790">
        <ele>513.6</ele>
        <time>2022-06-27T07:53:41Z</time>
      </trkpt>
      <trkpt lat="42.4316250" lon="-2.7597690">
        <ele>513.4</ele>
        <time>2022-06-27T07:53:42Z</time>
      </trkpt>
      <trkpt lat="42.4316510" lon="-2.7598620">
        <ele>513.4</ele>
        <time>2022-06-27T07:53:43Z</time>
      </trkpt>
      <trkpt lat="42.4316770" lon="-2.7599600">
        <ele>513.4</ele>
        <time>2022-06-27T07:53:44Z</time>
      </trkpt>
      <trkpt lat="42.4317000" lon="-2.7600620">
        <ele>513.4</ele>
        <time>2022-06-27T07:53:45Z</time>
      </trkpt>
      <trkpt lat="42.4317170" lon="-2.7601710">
        <ele>513.4</ele>
        <time>2022-06-27T07:53:46Z</time>
      </trkpt>
      <trkpt lat="42.4317260" lon="-2.7602850">
        <ele>513.4</ele>
        <time>2022-06-27T07:53:47Z</time>
      </trkpt>
      <trkpt lat="42.4317260" lon="-2.7604010">
        <ele>513.2</ele>
        <time>2022-06-27T07:53:48Z</time>
      </trkpt>
      <trkpt lat="42.4317210" lon="-2.7605080">
        <ele>513.0</ele>
        <time>2022-06-27T07:53:49Z</time>
      </trkpt>
      <trkpt lat="42.4317110" lon="-2.7606060">
        <ele>512.8</ele>
        <time>2022-06-27T07:53:50Z</time>
      </trkpt>
      <trkpt lat="42.4317000" lon="-2.7606990">
        <ele>512.6</ele>
        <time>2022-06-27T07:53:51Z</time>
      </trkpt>
      <trkpt lat="42.4316890" lon="-2.7607930">
        <ele>512.4</ele>
        <time>2022-06-27T07:53:52Z</time>
      </trkpt>
      <trkpt lat="42.4316790" lon="-2.7608900">
        <ele>512.0</ele>
        <time>2022-06-27T07:53:53Z</time>
      </trkpt>
      <trkpt lat="42.4316770" lon="-2.7609870">
        <ele>511.8</ele>
        <time>2022-06-27T07:53:54Z</time>
      </trkpt>
      <trkpt lat="42.4316880" lon="-2.7610850">
        <ele>511.4</ele>
        <time>2022-06-27T07:53:55Z</time>
      </trkpt>
      <trkpt lat="42.4317110" lon="-2.7611770">
        <ele>510.8</ele>
        <time>2022-06-27T07:53:56Z</time>
      </trkpt>
      <trkpt lat="42.4317450" lon="-2.7612580">
        <ele>510.6</ele>
        <time>2022-06-27T07:53:57Z</time>
      </trkpt>
      <trkpt lat="42.4317810" lon="-2.7613240">
        <ele>510.2</ele>
        <time>2022-06-27T07:53:58Z</time>
      </trkpt>
      <trkpt lat="42.4318210" lon="-2.7613890">
        <ele>510.2</ele>
        <time>2022-06-27T07:53:59Z</time>
      </trkpt>
      <trkpt lat="42.4318550" lon="-2.7614600">
        <ele>509.6</ele>
        <time>2022-06-27T07:54:00Z</time>
      </trkpt>
      <trkpt lat="42.4318820" lon="-2.7615380">
        <ele>509.2</ele>
        <time>2022-06-27T07:54:01Z</time>
      </trkpt>
      <trkpt lat="42.4318970" lon="-2.7616210">
        <ele>508.0</ele>
        <time>2022-06-27T07:54:02Z</time>
      </trkpt>
      <trkpt lat="42.4318970" lon="-2.7617070">
        <ele>507.8</ele>
        <time>2022-06-27T07:54:03Z</time>
      </trkpt>
      <trkpt lat="42.4318800" lon="-2.7617910">
        <ele>507.2</ele>
        <time>2022-06-27T07:54:04Z</time>
      </trkpt>
      <trkpt lat="42.4318500" lon="-2.7618680">
        <ele>507.0</ele>
        <time>2022-06-27T07:54:05Z</time>
      </trkpt>
      <trkpt lat="42.4318050" lon="-2.7619320">
        <ele>506.8</ele>
        <time>2022-06-27T07:54:06Z</time>
      </trkpt>
      <trkpt lat="42.4317500" lon="-2.7619780">
        <ele>506.4</ele>
        <time>2022-06-27T07:54:07Z</time>
      </trkpt>
      <trkpt lat="42.4316900" lon="-2.7620020">
        <ele>506.4</ele>
        <time>2022-06-27T07:54:08Z</time>
      </trkpt>
      <trkpt lat="42.4316280" lon="-2.7620050">
        <ele>506.2</ele>
        <time>2022-06-27T07:54:09Z</time>
      </trkpt>
      <trkpt lat="42.4315640" lon="-2.7619960">
        <ele>506.0</ele>
        <time>2022-06-27T07:54:10Z</time>
      </trkpt>
      <trkpt lat="42.4315010" lon="-2.7619840">
        <ele>506.0</ele>
        <time>2022-06-27T07:54:11Z</time>
      </trkpt>
      <trkpt lat="42.4314370" lon="-2.7619830">
        <ele>505.4</ele>
        <time>2022-06-27T07:54:12Z</time>
      </trkpt>
      <trkpt lat="42.4313710" lon="-2.7619870">
        <ele>505.4</ele>
        <time>2022-06-27T07:54:13Z</time>
      </trkpt>
      <trkpt lat="42.4313040" lon="-2.7619950">
        <ele>505.2</ele>
        <time>2022-06-27T07:54:14Z</time>
      </trkpt>
      <trkpt lat="42.4312380" lon="-2.7620130">
        <ele>505.2</ele>
        <time>2022-06-27T07:54:15Z</time>
      </trkpt>
      <trkpt lat="42.4311750" lon="-2.7620450">
        <ele>505.0</ele>
        <time>2022-06-27T07:54:16Z</time>
      </trkpt>
      <trkpt lat="42.4311170" lon="-2.7620920">
        <ele>505.0</ele>
        <time>2022-06-27T07:54:17Z</time>
      </trkpt>
      <trkpt lat="42.4310630" lon="-2.7621480">
        <ele>505.0</ele>
        <time>2022-06-27T07:54:18Z</time>
      </trkpt>
      <trkpt lat="42.4310180" lon="-2.7622150">
        <ele>505.0</ele>
        <time>2022-06-27T07:54:19Z</time>
      </trkpt>
      <trkpt lat="42.4309750" lon="-2.7622870">
        <ele>505.0</ele>
        <time>2022-06-27T07:54:20Z</time>
      </trkpt>
      <trkpt lat="42.4309340" lon="-2.7623630">
        <ele>505.0</ele>
        <time>2022-06-27T07:54:21Z</time>
      </trkpt>
      <trkpt lat="42.4308970" lon="-2.7624410">
        <ele>505.0</ele>
        <time>2022-06-27T07:54:22Z</time>
      </trkpt>
      <trkpt lat="42.4308630" lon="-2.7625240">
        <ele>505.2</ele>
        <time>2022-06-27T07:54:23Z</time>
      </trkpt>
      <trkpt lat="42.4308310" lon="-2.7626090">
        <ele>505.2</ele>
        <time>2022-06-27T07:54:24Z</time>
      </trkpt>
      <trkpt lat="42.4308020" lon="-2.7626980">
        <ele>505.2</ele>
        <time>2022-06-27T07:54:25Z</time>
      </trkpt>
      <trkpt lat="42.4307760" lon="-2.7627860">
        <ele>505.2</ele>
        <time>2022-06-27T07:54:26Z</time>
      </trkpt>
      <trkpt lat="42.4307540" lon="-2.7628780">
        <ele>505.2</ele>
        <time>2022-06-27T07:54:27Z</time>
      </trkpt>
      <trkpt lat="42.4307340" lon="-2.7629710">
        <ele>505.2</ele>
        <time>2022-06-27T07:54:28Z</time>
      </trkpt>
      <trkpt lat="42.4307190" lon="-2.7630650">
        <ele>505.2</ele>
        <time>2022-06-27T07:54:29Z</time>
      </trkpt>
      <trkpt lat="42.4307070" lon="-2.7631640">
        <ele>505.2</ele>
        <time>2022-06-27T07:54:30Z</time>
      </trkpt>
      <trkpt lat="42.4306980" lon="-2.7632640">
        <ele>505.2</ele>
        <time>2022-06-27T07:54:31Z</time>
      </trkpt>
      <trkpt lat="42.4306920" lon="-2.7633670">
        <ele>505.2</ele>
        <time>2022-06-27T07:54:32Z</time>
      </trkpt>
      <trkpt lat="42.4306920" lon="-2.7634680">
        <ele>505.2</ele>
        <time>2022-06-27T07:54:33Z</time>
      </trkpt>
      <trkpt lat="42.4306970" lon="-2.7635690">
        <ele>505.0</ele>
        <time>2022-06-27T07:54:34Z</time>
      </trkpt>
      <trkpt lat="42.4307030" lon="-2.7636730">
        <ele>505.0</ele>
        <time>2022-06-27T07:54:35Z</time>
      </trkpt>
      <trkpt lat="42.4307110" lon="-2.7637770">
        <ele>505.0</ele>
        <time>2022-06-27T07:54:36Z</time>
      </trkpt>
      <trkpt lat="42.4307210" lon="-2.7638800">
        <ele>504.6</ele>
        <time>2022-06-27T07:54:37Z</time>
      </trkpt>
      <trkpt lat="42.4307330" lon="-2.7639830">
        <ele>504.6</ele>
        <time>2022-06-27T07:54:38Z</time>
      </trkpt>
      <trkpt lat="42.4307450" lon="-2.7640860">
        <ele>504.4</ele>
        <time>2022-06-27T07:54:39Z</time>
      </trkpt>
      <trkpt lat="42.4307560" lon="-2.7641920">
        <ele>504.2</ele>
        <time>2022-06-27T07:54:40Z</time>
      </trkpt>
      <trkpt lat="42.4307670" lon="-2.7642990">
        <ele>504.2</ele>
        <time>2022-06-27T07:54:41Z</time>
      </trkpt>
      <trkpt lat="42.4307790" lon="-2.7644080">
        <ele>504.0</ele>
        <time>2022-06-27T07:54:42Z</time>
      </trkpt>
      <trkpt lat="42.4307910" lon="-2.7645160">
        <ele>503.8</ele>
        <time>2022-06-27T07:54:43Z</time>
      </trkpt>
      <trkpt lat="42.4308030" lon="-2.7646250">
        <ele>503.6</ele>
        <time>2022-06-27T07:54:44Z</time>
      </trkpt>
      <trkpt lat="42.4308140" lon="-2.7647340">
        <ele>503.4</ele>
        <time>2022-06-27T07:54:45Z</time>
      </trkpt>
      <trkpt lat="42.4308270" lon="-2.7648430">
        <ele>503.2</ele>
        <time>2022-06-27T07:54:46Z</time>
      </trkpt>
      <trkpt lat="42.4308410" lon="-2.7649540">
        <ele>503.2</ele>
        <time>2022-06-27T07:54:47Z</time>
      </trkpt>
      <trkpt lat="42.4308550" lon="-2.7650670">
        <ele>503.0</ele>
        <time>2022-06-27T07:54:48Z</time>
      </trkpt>
      <trkpt lat="42.4308670" lon="-2.7651790">
        <ele>503.0</ele>
        <time>2022-06-27T07:54:49Z</time>
      </trkpt>
      <trkpt lat="42.4308780" lon="-2.7652930">
        <ele>503.0</ele>
        <time>2022-06-27T07:54:50Z</time>
      </trkpt>
      <trkpt lat="42.4308900" lon="-2.7654080">
        <ele>503.0</ele>
        <time>2022-06-27T07:54:51Z</time>
      </trkpt>
      <trkpt lat="42.4309030" lon="-2.7655220">
        <ele>502.8</ele>
        <time>2022-06-27T07:54:52Z</time>
      </trkpt>
      <trkpt lat="42.4309160" lon="-2.7656370">
        <ele>502.8</ele>
        <time>2022-06-27T07:54:53Z</time>
      </trkpt>
      <trkpt lat="42.4309290" lon="-2.7657530">
        <ele>502.8</ele>
        <time>2022-06-27T07:54:54Z</time>
      </trkpt>
      <trkpt lat="42.4309410" lon="-2.7658700">
        <ele>502.8</ele>
        <time>2022-06-27T07:54:55Z</time>
      </trkpt>
      <trkpt lat="42.4309510" lon="-2.7659880">
        <ele>502.8</ele>
        <time>2022-06-27T07:54:56Z</time>
      </trkpt>
      <trkpt lat="42.4309640" lon="-2.7661040">
        <ele>502.8</ele>
        <time>2022-06-27T07:54:57Z</time>
      </trkpt>
      <trkpt lat="42.4309770" lon="-2.7662200">
        <ele>502.6</ele>
        <time>2022-06-27T07:54:58Z</time>
      </trkpt>
      <trkpt lat="42.4309900" lon="-2.7663340">
        <ele>502.6</ele>
        <time>2022-06-27T07:54:59Z</time>
      </trkpt>
      <trkpt lat="42.4310040" lon="-2.7664470">
        <ele>502.6</ele>
        <time>2022-06-27T07:55:00Z</time>
      </trkpt>
      <trkpt lat="42.4310180" lon="-2.7665610">
        <ele>502.6</ele>
        <time>2022-06-27T07:55:01Z</time>
      </trkpt>
      <trkpt lat="42.4310310" lon="-2.7666770">
        <ele>502.6</ele>
        <time>2022-06-27T07:55:02Z</time>
      </trkpt>
      <trkpt lat="42.4310450" lon="-2.7667930">
        <ele>502.6</ele>
        <time>2022-06-27T07:55:03Z</time>
      </trkpt>
      <trkpt lat="42.4310570" lon="-2.7669080">
        <ele>502.6</ele>
        <time>2022-06-27T07:55:04Z</time>
      </trkpt>
      <trkpt lat="42.4310690" lon="-2.7670220">
        <ele>502.6</ele>
        <time>2022-06-27T07:55:05Z</time>
      </trkpt>
      <trkpt lat="42.4310820" lon="-2.7671350">
        <ele>502.6</ele>
        <time>2022-06-27T07:55:06Z</time>
      </trkpt>
      <trkpt lat="42.4310940" lon="-2.7672460">
        <ele>502.6</ele>
        <time>2022-06-27T07:55:07Z</time>
      </trkpt>
      <trkpt lat="42.4311060" lon="-2.7673560">
        <ele>502.6</ele>
        <time>2022-06-27T07:55:08Z</time>
      </trkpt>
      <trkpt lat="42.4311170" lon="-2.7674700">
        <ele>502.4</ele>
        <time>2022-06-27T07:55:09Z</time>
      </trkpt>
      <trkpt lat="42.4311280" lon="-2.7675850">
        <ele>502.4</ele>
        <time>2022-06-27T07:55:10Z</time>
      </trkpt>
      <trkpt lat="42.4311400" lon="-2.7677010">
        <ele>502.4</ele>
        <time>2022-06-27T07:55:11Z</time>
      </trkpt>
      <trkpt lat="42.4311520" lon="-2.7678150">
        <ele>502.2</ele>
        <time>2022-06-27T07:55:12Z</time>
      </trkpt>
      <trkpt lat="42.4311650" lon="-2.7679280">
        <ele>502.2</ele>
        <time>2022-06-27T07:55:13Z</time>
      </trkpt>
      <trkpt lat="42.4311770" lon="-2.7680420">
        <ele>502.2</ele>
        <time>2022-06-27T07:55:14Z</time>
      </trkpt>
      <trkpt lat="42.4311890" lon="-2.7681550">
        <ele>502.2</ele>
        <time>2022-06-27T07:55:15Z</time>
      </trkpt>
      <trkpt lat="42.4312000" lon="-2.7682680">
        <ele>502.2</ele>
        <time>2022-06-27T07:55:16Z</time>
      </trkpt>
      <trkpt lat="42.4312130" lon="-2.7683820">
        <ele>502.2</ele>
        <time>2022-06-27T07:55:17Z</time>
      </trkpt>
      <trkpt lat="42.4312250" lon="-2.7684930">
        <ele>502.2</ele>
        <time>2022-06-27T07:55:18Z</time>
      </trkpt>
      <trkpt lat="42.4312370" lon="-2.7686050">
        <ele>502.2</ele>
        <time>2022-06-27T07:55:19Z</time>
      </trkpt>
      <trkpt lat="42.4312500" lon="-2.7687160">
        <ele>502.2</ele>
        <time>2022-06-27T07:55:20Z</time>
      </trkpt>
      <trkpt lat="42.4312620" lon="-2.7688260">
        <ele>502.2</ele>
        <time>2022-06-27T07:55:21Z</time>
      </trkpt>
      <trkpt lat="42.4312730" lon="-2.7689360">
        <ele>502.2</ele>
        <time>2022-06-27T07:55:22Z</time>
      </trkpt>
      <trkpt lat="42.4312840" lon="-2.7690480">
        <ele>502.2</ele>
        <time>2022-06-27T07:55:23Z</time>
      </trkpt>
      <trkpt lat="42.4312950" lon="-2.7691570">
        <ele>502.2</ele>
        <time>2022-06-27T07:55:24Z</time>
      </trkpt>
      <trkpt lat="42.4313060" lon="-2.7692670">
        <ele>502.2</ele>
        <time>2022-06-27T07:55:25Z</time>
      </trkpt>
      <trkpt lat="42.4313180" lon="-2.7693760">
        <ele>502.2</ele>
        <time>2022-06-27T07:55:26Z</time>
      </trkpt>
      <trkpt lat="42.4313280" lon="-2.7694840">
        <ele>502.2</ele>
        <time>2022-06-27T07:55:27Z</time>
      </trkpt>
      <trkpt lat="42.4313380" lon="-2.7695940">
        <ele>502.2</ele>
        <time>2022-06-27T07:55:28Z</time>
      </trkpt>
      <trkpt lat="42.4313490" lon="-2.7697040">
        <ele>502.2</ele>
        <time>2022-06-27T07:55:29Z</time>
      </trkpt>
      <trkpt lat="42.4313610" lon="-2.7698150">
        <ele>502.2</ele>
        <time>2022-06-27T07:55:30Z</time>
      </trkpt>
      <trkpt lat="42.4313730" lon="-2.7699240">
        <ele>502.2</ele>
        <time>2022-06-27T07:55:31Z</time>
      </trkpt>
      <trkpt lat="42.4313860" lon="-2.7700310">
        <ele>502.2</ele>
        <time>2022-06-27T07:55:32Z</time>
      </trkpt>
      <trkpt lat="42.4313990" lon="-2.7701400">
        <ele>502.2</ele>
        <time>2022-06-27T07:55:33Z</time>
      </trkpt>
      <trkpt lat="42.4314110" lon="-2.7702490">
        <ele>502.2</ele>
        <time>2022-06-27T07:55:34Z</time>
      </trkpt>
      <trkpt lat="42.4314230" lon="-2.7703600">
        <ele>502.2</ele>
        <time>2022-06-27T07:55:35Z</time>
      </trkpt>
      <trkpt lat="42.4314340" lon="-2.7704710">
        <ele>502.2</ele>
        <time>2022-06-27T07:55:36Z</time>
      </trkpt>
      <trkpt lat="42.4314470" lon="-2.7705830">
        <ele>502.2</ele>
        <time>2022-06-27T07:55:37Z</time>
      </trkpt>
      <trkpt lat="42.4314580" lon="-2.7706940">
        <ele>502.2</ele>
        <time>2022-06-27T07:55:38Z</time>
      </trkpt>
      <trkpt lat="42.4314700" lon="-2.7708040">
        <ele>502.2</ele>
        <time>2022-06-27T07:55:39Z</time>
      </trkpt>
      <trkpt lat="42.4314830" lon="-2.7709140">
        <ele>502.2</ele>
        <time>2022-06-27T07:55:40Z</time>
      </trkpt>
      <trkpt lat="42.4314950" lon="-2.7710220">
        <ele>502.2</ele>
        <time>2022-06-27T07:55:41Z</time>
      </trkpt>
      <trkpt lat="42.4315070" lon="-2.7711320">
        <ele>502.2</ele>
        <time>2022-06-27T07:55:42Z</time>
      </trkpt>
      <trkpt lat="42.4315200" lon="-2.7712430">
        <ele>502.2</ele>
        <time>2022-06-27T07:55:43Z</time>
      </trkpt>
      <trkpt lat="42.4315330" lon="-2.7713550">
        <ele>502.2</ele>
        <time>2022-06-27T07:55:44Z</time>
      </trkpt>
      <trkpt lat="42.4315440" lon="-2.7714660">
        <ele>502.2</ele>
        <time>2022-06-27T07:55:45Z</time>
      </trkpt>
      <trkpt lat="42.4315540" lon="-2.7715760">
        <ele>502.0</ele>
        <time>2022-06-27T07:55:46Z</time>
      </trkpt>
      <trkpt lat="42.4315670" lon="-2.7716860">
        <ele>502.0</ele>
        <time>2022-06-27T07:55:47Z</time>
      </trkpt>
      <trkpt lat="42.4315790" lon="-2.7717960">
        <ele>502.2</ele>
        <time>2022-06-27T07:55:48Z</time>
      </trkpt>
      <trkpt lat="42.4315890" lon="-2.7719060">
        <ele>502.2</ele>
        <time>2022-06-27T07:55:49Z</time>
      </trkpt>
      <trkpt lat="42.4316000" lon="-2.7720150">
        <ele>502.0</ele>
        <time>2022-06-27T07:55:50Z</time>
      </trkpt>
      <trkpt lat="42.4316120" lon="-2.7721270">
        <ele>502.0</ele>
        <time>2022-06-27T07:55:51Z</time>
      </trkpt>
      <trkpt lat="42.4316240" lon="-2.7722390">
        <ele>502.0</ele>
        <time>2022-06-27T07:55:52Z</time>
      </trkpt>
      <trkpt lat="42.4316360" lon="-2.7723500">
        <ele>502.0</ele>
        <time>2022-06-27T07:55:53Z</time>
      </trkpt>
      <trkpt lat="42.4316480" lon="-2.7724610">
        <ele>502.0</ele>
        <time>2022-06-27T07:55:54Z</time>
      </trkpt>
      <trkpt lat="42.4316590" lon="-2.7725700">
        <ele>502.0</ele>
        <time>2022-06-27T07:55:55Z</time>
      </trkpt>
      <trkpt lat="42.4316700" lon="-2.7726790">
        <ele>502.0</ele>
        <time>2022-06-27T07:55:56Z</time>
      </trkpt>
      <trkpt lat="42.4316820" lon="-2.7727880">
        <ele>502.0</ele>
        <time>2022-06-27T07:55:57Z</time>
      </trkpt>
      <trkpt lat="42.4316940" lon="-2.7728970">
        <ele>502.0</ele>
        <time>2022-06-27T07:55:58Z</time>
      </trkpt>
      <trkpt lat="42.4317040" lon="-2.7730060">
        <ele>502.0</ele>
        <time>2022-06-27T07:55:59Z</time>
      </trkpt>
      <trkpt lat="42.4317160" lon="-2.7731130">
        <ele>502.0</ele>
        <time>2022-06-27T07:56:00Z</time>
      </trkpt>
      <trkpt lat="42.4317280" lon="-2.7732220">
        <ele>502.0</ele>
        <time>2022-06-27T07:56:01Z</time>
      </trkpt>
      <trkpt lat="42.4317400" lon="-2.7733310">
        <ele>502.0</ele>
        <time>2022-06-27T07:56:02Z</time>
      </trkpt>
      <trkpt lat="42.4317510" lon="-2.7734370">
        <ele>502.0</ele>
        <time>2022-06-27T07:56:03Z</time>
      </trkpt>
      <trkpt lat="42.4317610" lon="-2.7735450">
        <ele>501.8</ele>
        <time>2022-06-27T07:56:04Z</time>
      </trkpt>
      <trkpt lat="42.4317730" lon="-2.7736510">
        <ele>501.8</ele>
        <time>2022-06-27T07:56:05Z</time>
      </trkpt>
      <trkpt lat="42.4317860" lon="-2.7737560">
        <ele>501.8</ele>
        <time>2022-06-27T07:56:06Z</time>
      </trkpt>
      <trkpt lat="42.4317970" lon="-2.7738620">
        <ele>501.8</ele>
        <time>2022-06-27T07:56:07Z</time>
      </trkpt>
      <trkpt lat="42.4318100" lon="-2.7739660">
        <ele>501.8</ele>
        <time>2022-06-27T07:56:08Z</time>
      </trkpt>
      <trkpt lat="42.4318210" lon="-2.7740690">
        <ele>501.8</ele>
        <time>2022-06-27T07:56:09Z</time>
      </trkpt>
      <trkpt lat="42.4318330" lon="-2.7741720">
        <ele>502.0</ele>
        <time>2022-06-27T07:56:10Z</time>
      </trkpt>
      <trkpt lat="42.4318430" lon="-2.7742750">
        <ele>502.0</ele>
        <time>2022-06-27T07:56:11Z</time>
      </trkpt>
      <trkpt lat="42.4318540" lon="-2.7743780">
        <ele>502.0</ele>
        <time>2022-06-27T07:56:12Z</time>
      </trkpt>
      <trkpt lat="42.4318680" lon="-2.7744790">
        <ele>502.0</ele>
        <time>2022-06-27T07:56:13Z</time>
      </trkpt>
      <trkpt lat="42.4318800" lon="-2.7745810">
        <ele>502.0</ele>
        <time>2022-06-27T07:56:14Z</time>
      </trkpt>
      <trkpt lat="42.4318920" lon="-2.7746850">
        <ele>502.0</ele>
        <time>2022-06-27T07:56:15Z</time>
      </trkpt>
      <trkpt lat="42.4319040" lon="-2.7747870">
        <ele>502.0</ele>
        <time>2022-06-27T07:56:16Z</time>
      </trkpt>
      <trkpt lat="42.4319160" lon="-2.7748890">
        <ele>502.0</ele>
        <time>2022-06-27T07:56:17Z</time>
      </trkpt>
      <trkpt lat="42.4319280" lon="-2.7749940">
        <ele>502.0</ele>
        <time>2022-06-27T07:56:18Z</time>
      </trkpt>
      <trkpt lat="42.4319400" lon="-2.7750980">
        <ele>501.8</ele>
        <time>2022-06-27T07:56:19Z</time>
      </trkpt>
      <trkpt lat="42.4319510" lon="-2.7751990">
        <ele>501.8</ele>
        <time>2022-06-27T07:56:20Z</time>
      </trkpt>
      <trkpt lat="42.4319610" lon="-2.7753020">
        <ele>501.8</ele>
        <time>2022-06-27T07:56:21Z</time>
      </trkpt>
      <trkpt lat="42.4319730" lon="-2.7754040">
        <ele>501.8</ele>
        <time>2022-06-27T07:56:22Z</time>
      </trkpt>
      <trkpt lat="42.4319820" lon="-2.7755050">
        <ele>501.8</ele>
        <time>2022-06-27T07:56:23Z</time>
      </trkpt>
      <trkpt lat="42.4319930" lon="-2.7756060">
        <ele>501.6</ele>
        <time>2022-06-27T07:56:24Z</time>
      </trkpt>
      <trkpt lat="42.4320040" lon="-2.7757070">
        <ele>501.6</ele>
        <time>2022-06-27T07:56:25Z</time>
      </trkpt>
      <trkpt lat="42.4320140" lon="-2.7758080">
        <ele>501.8</ele>
        <time>2022-06-27T07:56:26Z</time>
      </trkpt>
      <trkpt lat="42.4320260" lon="-2.7759080">
        <ele>501.8</ele>
        <time>2022-06-27T07:56:27Z</time>
      </trkpt>
      <trkpt lat="42.4320370" lon="-2.7760080">
        <ele>501.8</ele>
        <time>2022-06-27T07:56:28Z</time>
      </trkpt>
      <trkpt lat="42.4320480" lon="-2.7761090">
        <ele>501.8</ele>
        <time>2022-06-27T07:56:29Z</time>
      </trkpt>
      <trkpt lat="42.4320590" lon="-2.7762100">
        <ele>502.0</ele>
        <time>2022-06-27T07:56:30Z</time>
      </trkpt>
      <trkpt lat="42.4320700" lon="-2.7763120">
        <ele>502.0</ele>
        <time>2022-06-27T07:56:31Z</time>
      </trkpt>
      <trkpt lat="42.4320810" lon="-2.7764110">
        <ele>502.2</ele>
        <time>2022-06-27T07:56:32Z</time>
      </trkpt>
      <trkpt lat="42.4320920" lon="-2.7765110">
        <ele>502.2</ele>
        <time>2022-06-27T07:56:33Z</time>
      </trkpt>
      <trkpt lat="42.4321030" lon="-2.7766120">
        <ele>502.2</ele>
        <time>2022-06-27T07:56:34Z</time>
      </trkpt>
      <trkpt lat="42.4321140" lon="-2.7767130">
        <ele>502.4</ele>
        <time>2022-06-27T07:56:35Z</time>
      </trkpt>
      <trkpt lat="42.4321230" lon="-2.7768120">
        <ele>502.4</ele>
        <time>2022-06-27T07:56:36Z</time>
      </trkpt>
      <trkpt lat="42.4321330" lon="-2.7769090">
        <ele>502.6</ele>
        <time>2022-06-27T07:56:37Z</time>
      </trkpt>
      <trkpt lat="42.4321440" lon="-2.7770050">
        <ele>502.8</ele>
        <time>2022-06-27T07:56:38Z</time>
      </trkpt>
      <trkpt lat="42.4321530" lon="-2.7771020">
        <ele>502.8</ele>
        <time>2022-06-27T07:56:39Z</time>
      </trkpt>
      <trkpt lat="42.4321640" lon="-2.7771990">
        <ele>503.0</ele>
        <time>2022-06-27T07:56:40Z</time>
      </trkpt>
      <trkpt lat="42.4321740" lon="-2.7772940">
        <ele>503.0</ele>
        <time>2022-06-27T07:56:41Z</time>
      </trkpt>
      <trkpt lat="42.4321840" lon="-2.7773890">
        <ele>503.2</ele>
        <time>2022-06-27T07:56:42Z</time>
      </trkpt>
      <trkpt lat="42.4321920" lon="-2.7774830">
        <ele>503.0</ele>
        <time>2022-06-27T07:56:43Z</time>
      </trkpt>
      <trkpt lat="42.4322000" lon="-2.7775750">
        <ele>503.2</ele>
        <time>2022-06-27T07:56:44Z</time>
      </trkpt>
      <trkpt lat="42.4322100" lon="-2.7776650">
        <ele>503.4</ele>
        <time>2022-06-27T07:56:45Z</time>
      </trkpt>
      <trkpt lat="42.4322200" lon="-2.7777550">
        <ele>503.4</ele>
        <time>2022-06-27T07:56:46Z</time>
      </trkpt>
      <trkpt lat="42.4322300" lon="-2.7778420">
        <ele>503.8</ele>
        <time>2022-06-27T07:56:47Z</time>
      </trkpt>
      <trkpt lat="42.4322410" lon="-2.7779280">
        <ele>504.0</ele>
        <time>2022-06-27T07:56:48Z</time>
      </trkpt>
      <trkpt lat="42.4322500" lon="-2.7780140">
        <ele>503.8</ele>
        <time>2022-06-27T07:56:49Z</time>
      </trkpt>
      <trkpt lat="42.4322580" lon="-2.7780990">
        <ele>504.0</ele>
        <time>2022-06-27T07:56:50Z</time>
      </trkpt>
      <trkpt lat="42.4322670" lon="-2.7781810">
        <ele>504.0</ele>
        <time>2022-06-27T07:56:51Z</time>
      </trkpt>
      <trkpt lat="42.4322780" lon="-2.7782620">
        <ele>504.0</ele>
        <time>2022-06-27T07:56:52Z</time>
      </trkpt>
      <trkpt lat="42.4322870" lon="-2.7783410">
        <ele>504.4</ele>
        <time>2022-06-27T07:56:53Z</time>
      </trkpt>
      <trkpt lat="42.4322970" lon="-2.7784180">
        <ele>504.6</ele>
        <time>2022-06-27T07:56:54Z</time>
      </trkpt>
      <trkpt lat="42.4323070" lon="-2.7784970">
        <ele>505.0</ele>
        <time>2022-06-27T07:56:55Z</time>
      </trkpt>
      <trkpt lat="42.4323150" lon="-2.7785750">
        <ele>505.2</ele>
        <time>2022-06-27T07:56:56Z</time>
      </trkpt>
      <trkpt lat="42.4323250" lon="-2.7786540">
        <ele>505.4</ele>
        <time>2022-06-27T07:56:57Z</time>
      </trkpt>
      <trkpt lat="42.4323330" lon="-2.7787330">
        <ele>505.8</ele>
        <time>2022-06-27T07:56:58Z</time>
      </trkpt>
      <trkpt lat="42.4323410" lon="-2.7788110">
        <ele>506.0</ele>
        <time>2022-06-27T07:56:59Z</time>
      </trkpt>
      <trkpt lat="42.4323500" lon="-2.7788900">
        <ele>506.2</ele>
        <time>2022-06-27T07:57:00Z</time>
      </trkpt>
      <trkpt lat="42.4323590" lon="-2.7789710">
        <ele>506.2</ele>
        <time>2022-06-27T07:57:01Z</time>
      </trkpt>
      <trkpt lat="42.4323690" lon="-2.7790530">
        <ele>506.4</ele>
        <time>2022-06-27T07:57:02Z</time>
      </trkpt>
      <trkpt lat="42.4323790" lon="-2.7791360">
        <ele>506.6</ele>
        <time>2022-06-27T07:57:03Z</time>
      </trkpt>
      <trkpt lat="42.4323880" lon="-2.7792220">
        <ele>506.6</ele>
        <time>2022-06-27T07:57:04Z</time>
      </trkpt>
      <trkpt lat="42.4323970" lon="-2.7793100">
        <ele>506.8</ele>
        <time>2022-06-27T07:57:05Z</time>
      </trkpt>
      <trkpt lat="42.4324060" lon="-2.7794000">
        <ele>506.8</ele>
        <time>2022-06-27T07:57:06Z</time>
      </trkpt>
      <trkpt lat="42.4324140" lon="-2.7794910">
        <ele>506.8</ele>
        <time>2022-06-27T07:57:07Z</time>
      </trkpt>
      <trkpt lat="42.4324250" lon="-2.7795840">
        <ele>506.8</ele>
        <time>2022-06-27T07:57:08Z</time>
      </trkpt>
      <trkpt lat="42.4324350" lon="-2.7796760">
        <ele>507.0</ele>
        <time>2022-06-27T07:57:09Z</time>
      </trkpt>
      <trkpt lat="42.4324440" lon="-2.7797710">
        <ele>507.0</ele>
        <time>2022-06-27T07:57:10Z</time>
      </trkpt>
      <trkpt lat="42.4324540" lon="-2.7798670">
        <ele>507.0</ele>
        <time>2022-06-27T07:57:11Z</time>
      </trkpt>
      <trkpt lat="42.4324650" lon="-2.7799650">
        <ele>506.8</ele>
        <time>2022-06-27T07:57:12Z</time>
      </trkpt>
      <trkpt lat="42.4324760" lon="-2.7800610">
        <ele>506.8</ele>
        <time>2022-06-27T07:57:13Z</time>
      </trkpt>
      <trkpt lat="42.4324880" lon="-2.7801590">
        <ele>506.8</ele>
        <time>2022-06-27T07:57:14Z</time>
      </trkpt>
      <trkpt lat="42.4324990" lon="-2.7802560">
        <ele>506.8</ele>
        <time>2022-06-27T07:57:15Z</time>
      </trkpt>
      <trkpt lat="42.4325100" lon="-2.7803530">
        <ele>506.8</ele>
        <time>2022-06-27T07:57:16Z</time>
      </trkpt>
      <trkpt lat="42.4325210" lon="-2.7804500">
        <ele>506.8</ele>
        <time>2022-06-27T07:57:17Z</time>
      </trkpt>
      <trkpt lat="42.4325320" lon="-2.7805490">
        <ele>506.8</ele>
        <time>2022-06-27T07:57:18Z</time>
      </trkpt>
      <trkpt lat="42.4325420" lon="-2.7806490">
        <ele>506.6</ele>
        <time>2022-06-27T07:57:19Z</time>
      </trkpt>
      <trkpt lat="42.4325540" lon="-2.7807510">
        <ele>506.6</ele>
        <time>2022-06-27T07:57:20Z</time>
      </trkpt>
      <trkpt lat="42.4325660" lon="-2.7808540">
        <ele>506.4</ele>
        <time>2022-06-27T07:57:21Z</time>
      </trkpt>
      <trkpt lat="42.4325780" lon="-2.7809590">
        <ele>506.4</ele>
        <time>2022-06-27T07:57:22Z</time>
      </trkpt>
      <trkpt lat="42.4325890" lon="-2.7810630">
        <ele>506.2</ele>
        <time>2022-06-27T07:57:23Z</time>
      </trkpt>
      <trkpt lat="42.4325990" lon="-2.7811680">
        <ele>506.2</ele>
        <time>2022-06-27T07:57:24Z</time>
      </trkpt>
      <trkpt lat="42.4326110" lon="-2.7812700">
        <ele>506.0</ele>
        <time>2022-06-27T07:57:25Z</time>
      </trkpt>
      <trkpt lat="42.4326220" lon="-2.7813740">
        <ele>506.0</ele>
        <time>2022-06-27T07:57:26Z</time>
      </trkpt>
      <trkpt lat="42.4326310" lon="-2.7814790">
        <ele>506.0</ele>
        <time>2022-06-27T07:57:27Z</time>
      </trkpt>
      <trkpt lat="42.4326420" lon="-2.7815840">
        <ele>506.0</ele>
        <time>2022-06-27T07:57:28Z</time>
      </trkpt>
      <trkpt lat="42.4326540" lon="-2.7816860">
        <ele>506.0</ele>
        <time>2022-06-27T07:57:29Z</time>
      </trkpt>
      <trkpt lat="42.4326650" lon="-2.7817890">
        <ele>505.8</ele>
        <time>2022-06-27T07:57:30Z</time>
      </trkpt>
      <trkpt lat="42.4326760" lon="-2.7818930">
        <ele>505.8</ele>
        <time>2022-06-27T07:57:31Z</time>
      </trkpt>
      <trkpt lat="42.4326870" lon="-2.7819980">
        <ele>505.6</ele>
        <time>2022-06-27T07:57:32Z</time>
      </trkpt>
      <trkpt lat="42.4326990" lon="-2.7821020">
        <ele>505.6</ele>
        <time>2022-06-27T07:57:33Z</time>
      </trkpt>
      <trkpt lat="42.4327110" lon="-2.7822060">
        <ele>505.6</ele>
        <time>2022-06-27T07:57:34Z</time>
      </trkpt>
      <trkpt lat="42.4327220" lon="-2.7823100">
        <ele>505.4</ele>
        <time>2022-06-27T07:57:35Z</time>
      </trkpt>
      <trkpt lat="42.4327330" lon="-2.7824110">
        <ele>505.4</ele>
        <time>2022-06-27T07:57:36Z</time>
      </trkpt>
      <trkpt lat="42.4327430" lon="-2.7825130">
        <ele>505.6</ele>
        <time>2022-06-27T07:57:37Z</time>
      </trkpt>
      <trkpt lat="42.4327550" lon="-2.7826140">
        <ele>505.6</ele>
        <time>2022-06-27T07:57:38Z</time>
      </trkpt>
      <trkpt lat="42.4327670" lon="-2.7827160">
        <ele>505.6</ele>
        <time>2022-06-27T07:57:39Z</time>
      </trkpt>
      <trkpt lat="42.4327790" lon="-2.7828190">
        <ele>505.6</ele>
        <time>2022-06-27T07:57:40Z</time>
      </trkpt>
      <trkpt lat="42.4327900" lon="-2.7829210">
        <ele>505.6</ele>
        <time>2022-06-27T07:57:41Z</time>
      </trkpt>
      <trkpt lat="42.4328010" lon="-2.7830220">
        <ele>505.6</ele>
        <time>2022-06-27T07:57:42Z</time>
      </trkpt>
      <trkpt lat="42.4328100" lon="-2.7831250">
        <ele>505.6</ele>
        <time>2022-06-27T07:57:43Z</time>
      </trkpt>
      <trkpt lat="42.4328200" lon="-2.7832270">
        <ele>505.8</ele>
        <time>2022-06-27T07:57:44Z</time>
      </trkpt>
      <trkpt lat="42.4328300" lon="-2.7833280">
        <ele>505.8</ele>
        <time>2022-06-27T07:57:45Z</time>
      </trkpt>
      <trkpt lat="42.4328390" lon="-2.7834280">
        <ele>505.8</ele>
        <time>2022-06-27T07:57:46Z</time>
      </trkpt>
      <trkpt lat="42.4328490" lon="-2.7835260">
        <ele>505.8</ele>
        <time>2022-06-27T07:57:47Z</time>
      </trkpt>
      <trkpt lat="42.4328600" lon="-2.7836230">
        <ele>505.8</ele>
        <time>2022-06-27T07:57:48Z</time>
      </trkpt>
      <trkpt lat="42.4328700" lon="-2.7837200">
        <ele>505.8</ele>
        <time>2022-06-27T07:57:49Z</time>
      </trkpt>
      <trkpt lat="42.4328780" lon="-2.7838170">
        <ele>505.8</ele>
        <time>2022-06-27T07:57:50Z</time>
      </trkpt>
      <trkpt lat="42.4328880" lon="-2.7839150">
        <ele>505.8</ele>
        <time>2022-06-27T07:57:51Z</time>
      </trkpt>
      <trkpt lat="42.4328980" lon="-2.7840140">
        <ele>505.8</ele>
        <time>2022-06-27T07:57:52Z</time>
      </trkpt>
      <trkpt lat="42.4329070" lon="-2.7841120">
        <ele>505.8</ele>
        <time>2022-06-27T07:57:53Z</time>
      </trkpt>
      <trkpt lat="42.4329170" lon="-2.7842070">
        <ele>505.8</ele>
        <time>2022-06-27T07:57:54Z</time>
      </trkpt>
      <trkpt lat="42.4329290" lon="-2.7843020">
        <ele>505.8</ele>
        <time>2022-06-27T07:57:55Z</time>
      </trkpt>
      <trkpt lat="42.4329420" lon="-2.7843950">
        <ele>505.8</ele>
        <time>2022-06-27T07:57:56Z</time>
      </trkpt>
      <trkpt lat="42.4329550" lon="-2.7844840">
        <ele>505.8</ele>
        <time>2022-06-27T07:57:57Z</time>
      </trkpt>
      <trkpt lat="42.4329660" lon="-2.7845720">
        <ele>506.0</ele>
        <time>2022-06-27T07:57:58Z</time>
      </trkpt>
      <trkpt lat="42.4329760" lon="-2.7846580">
        <ele>506.0</ele>
        <time>2022-06-27T07:57:59Z</time>
      </trkpt>
      <trkpt lat="42.4329850" lon="-2.7847430">
        <ele>506.2</ele>
        <time>2022-06-27T07:58:00Z</time>
      </trkpt>
      <trkpt lat="42.4329940" lon="-2.7848260">
        <ele>506.2</ele>
        <time>2022-06-27T07:58:01Z</time>
      </trkpt>
      <trkpt lat="42.4330030" lon="-2.7849090">
        <ele>506.2</ele>
        <time>2022-06-27T07:58:02Z</time>
      </trkpt>
      <trkpt lat="42.4330110" lon="-2.7849910">
        <ele>506.4</ele>
        <time>2022-06-27T07:58:03Z</time>
      </trkpt>
      <trkpt lat="42.4330180" lon="-2.7850700">
        <ele>506.4</ele>
        <time>2022-06-27T07:58:04Z</time>
      </trkpt>
      <trkpt lat="42.4330220" lon="-2.7851470">
        <ele>506.6</ele>
        <time>2022-06-27T07:58:05Z</time>
      </trkpt>
      <trkpt lat="42.4330280" lon="-2.7852250">
        <ele>506.6</ele>
        <time>2022-06-27T07:58:06Z</time>
      </trkpt>
      <trkpt lat="42.4330340" lon="-2.7853020">
        <ele>507.0</ele>
        <time>2022-06-27T07:58:07Z</time>
      </trkpt>
      <trkpt lat="42.4330400" lon="-2.7853750">
        <ele>507.0</ele>
        <time>2022-06-27T07:58:08Z</time>
      </trkpt>
      <trkpt lat="42.4330450" lon="-2.7854500">
        <ele>507.2</ele>
        <time>2022-06-27T07:58:09Z</time>
      </trkpt>
      <trkpt lat="42.4330490" lon="-2.7855250">
        <ele>507.6</ele>
        <time>2022-06-27T07:58:10Z</time>
      </trkpt>
      <trkpt lat="42.4330510" lon="-2.7856020">
        <ele>507.6</ele>
        <time>2022-06-27T07:58:11Z</time>
      </trkpt>
      <trkpt lat="42.4330510" lon="-2.7856780">
        <ele>507.8</ele>
        <time>2022-06-27T07:58:12Z</time>
      </trkpt>
      <trkpt lat="42.4330510" lon="-2.7857560">
        <ele>507.8</ele>
        <time>2022-06-27T07:58:13Z</time>
      </trkpt>
      <trkpt lat="42.4330500" lon="-2.7858330">
        <ele>508.0</ele>
        <time>2022-06-27T07:58:14Z</time>
      </trkpt>
      <trkpt lat="42.4330510" lon="-2.7859100">
        <ele>508.2</ele>
        <time>2022-06-27T07:58:15Z</time>
      </trkpt>
      <trkpt lat="42.4330530" lon="-2.7859860">
        <ele>508.4</ele>
        <time>2022-06-27T07:58:16Z</time>
      </trkpt>
      <trkpt lat="42.4330560" lon="-2.7860620">
        <ele>508.6</ele>
        <time>2022-06-27T07:58:17Z</time>
      </trkpt>
      <trkpt lat="42.4330600" lon="-2.7861380">
        <ele>508.6</ele>
        <time>2022-06-27T07:58:18Z</time>
      </trkpt>
      <trkpt lat="42.4330610" lon="-2.7862130">
        <ele>508.6</ele>
        <time>2022-06-27T07:58:19Z</time>
      </trkpt>
      <trkpt lat="42.4330610" lon="-2.7862900">
        <ele>508.6</ele>
        <time>2022-06-27T07:58:20Z</time>
      </trkpt>
      <trkpt lat="42.4330630" lon="-2.7863670">
        <ele>508.8</ele>
        <time>2022-06-27T07:58:21Z</time>
      </trkpt>
      <trkpt lat="42.4330650" lon="-2.7864410">
        <ele>508.8</ele>
        <time>2022-06-27T07:58:22Z</time>
      </trkpt>
      <trkpt lat="42.4330690" lon="-2.7865140">
        <ele>508.8</ele>
        <time>2022-06-27T07:58:23Z</time>
      </trkpt>
      <trkpt lat="42.4330730" lon="-2.7865880">
        <ele>509.0</ele>
        <time>2022-06-27T07:58:24Z</time>
      </trkpt>
      <trkpt lat="42.4330790" lon="-2.7866610">
        <ele>509.0</ele>
        <time>2022-06-27T07:58:25Z</time>
      </trkpt>
      <trkpt lat="42.4330830" lon="-2.7867340">
        <ele>509.2</ele>
        <time>2022-06-27T07:58:26Z</time>
      </trkpt>
      <trkpt lat="42.4330870" lon="-2.7868060">
        <ele>509.4</ele>
        <time>2022-06-27T07:58:27Z</time>
      </trkpt>
      <trkpt lat="42.4330900" lon="-2.7868770">
        <ele>509.6</ele>
        <time>2022-06-27T07:58:28Z</time>
      </trkpt>
      <trkpt lat="42.4330930" lon="-2.7869490">
        <ele>509.8</ele>
        <time>2022-06-27T07:58:29Z</time>
      </trkpt>
      <trkpt lat="42.4330940" lon="-2.7870210">
        <ele>509.8</ele>
        <time>2022-06-27T07:58:30Z</time>
      </trkpt>
      <trkpt lat="42.4330910" lon="-2.7870920">
        <ele>510.0</ele>
        <time>2022-06-27T07:58:31Z</time>
      </trkpt>
      <trkpt lat="42.4330860" lon="-2.7871640">
        <ele>510.0</ele>
        <time>2022-06-27T07:58:32Z</time>
      </trkpt>
      <trkpt lat="42.4330830" lon="-2.7872330">
        <ele>510.2</ele>
        <time>2022-06-27T07:58:33Z</time>
      </trkpt>
      <trkpt lat="42.4330830" lon="-2.7873040">
        <ele>510.2</ele>
        <time>2022-06-27T07:58:34Z</time>
      </trkpt>
      <trkpt lat="42.4330880" lon="-2.7873740">
        <ele>510.4</ele>
        <time>2022-06-27T07:58:35Z</time>
      </trkpt>
      <trkpt lat="42.4330960" lon="-2.7874430">
        <ele>510.4</ele>
        <time>2022-06-27T07:58:36Z</time>
      </trkpt>
      <trkpt lat="42.4331030" lon="-2.7875120">
        <ele>510.6</ele>
        <time>2022-06-27T07:58:37Z</time>
      </trkpt>
      <trkpt lat="42.4331050" lon="-2.7875760">
        <ele>510.6</ele>
        <time>2022-06-27T07:58:38Z</time>
      </trkpt>
      <trkpt lat="42.4331070" lon="-2.7876440">
        <ele>510.6</ele>
        <time>2022-06-27T07:58:39Z</time>
      </trkpt>
      <trkpt lat="42.4331090" lon="-2.7877120">
        <ele>510.8</ele>
        <time>2022-06-27T07:58:40Z</time>
      </trkpt>
      <trkpt lat="42.4331110" lon="-2.7877820">
        <ele>511.0</ele>
        <time>2022-06-27T07:58:41Z</time>
      </trkpt>
      <trkpt lat="42.4331110" lon="-2.7878540">
        <ele>511.2</ele>
        <time>2022-06-27T07:58:42Z</time>
      </trkpt>
      <trkpt lat="42.4331100" lon="-2.7879270">
        <ele>511.2</ele>
        <time>2022-06-27T07:58:43Z</time>
      </trkpt>
      <trkpt lat="42.4331120" lon="-2.7880060">
        <ele>511.4</ele>
        <time>2022-06-27T07:58:44Z</time>
      </trkpt>
      <trkpt lat="42.4331150" lon="-2.7880860">
        <ele>511.4</ele>
        <time>2022-06-27T07:58:45Z</time>
      </trkpt>
      <trkpt lat="42.4331190" lon="-2.7881650">
        <ele>511.6</ele>
        <time>2022-06-27T07:58:46Z</time>
      </trkpt>
      <trkpt lat="42.4331230" lon="-2.7882410">
        <ele>511.8</ele>
        <time>2022-06-27T07:58:47Z</time>
      </trkpt>
      <trkpt lat="42.4331270" lon="-2.7883170">
        <ele>511.8</ele>
        <time>2022-06-27T07:58:48Z</time>
      </trkpt>
      <trkpt lat="42.4331310" lon="-2.7883920">
        <ele>511.8</ele>
        <time>2022-06-27T07:58:49Z</time>
      </trkpt>
      <trkpt lat="42.4331360" lon="-2.7884700">
        <ele>511.8</ele>
        <time>2022-06-27T07:58:50Z</time>
      </trkpt>
      <trkpt lat="42.4331380" lon="-2.7885460">
        <ele>512.0</ele>
        <time>2022-06-27T07:58:51Z</time>
      </trkpt>
      <trkpt lat="42.4331390" lon="-2.7886170">
        <ele>512.2</ele>
        <time>2022-06-27T07:58:52Z</time>
      </trkpt>
      <trkpt lat="42.4331380" lon="-2.7886880">
        <ele>512.2</ele>
        <time>2022-06-27T07:58:53Z</time>
      </trkpt>
      <trkpt lat="42.4331390" lon="-2.7887600">
        <ele>512.2</ele>
        <time>2022-06-27T07:58:54Z</time>
      </trkpt>
      <trkpt lat="42.4331390" lon="-2.7888360">
        <ele>512.4</ele>
        <time>2022-06-27T07:58:55Z</time>
      </trkpt>
      <trkpt lat="42.4331400" lon="-2.7889140">
        <ele>512.6</ele>
        <time>2022-06-27T07:58:56Z</time>
      </trkpt>
      <trkpt lat="42.4331450" lon="-2.7889840">
        <ele>512.6</ele>
        <time>2022-06-27T07:58:57Z</time>
      </trkpt>
      <trkpt lat="42.4331500" lon="-2.7890600">
        <ele>512.8</ele>
        <time>2022-06-27T07:58:58Z</time>
      </trkpt>
      <trkpt lat="42.4331540" lon="-2.7891370">
        <ele>512.8</ele>
        <time>2022-06-27T07:58:59Z</time>
      </trkpt>
      <trkpt lat="42.4331580" lon="-2.7892100">
        <ele>513.0</ele>
        <time>2022-06-27T07:59:00Z</time>
      </trkpt>
      <trkpt lat="42.4331630" lon="-2.7892840">
        <ele>513.4</ele>
        <time>2022-06-27T07:59:01Z</time>
      </trkpt>
      <trkpt lat="42.4331680" lon="-2.7893590">
        <ele>513.6</ele>
        <time>2022-06-27T07:59:02Z</time>
      </trkpt>
      <trkpt lat="42.4331740" lon="-2.7894350">
        <ele>513.8</ele>
        <time>2022-06-27T07:59:03Z</time>
      </trkpt>
      <trkpt lat="42.4331790" lon="-2.7895100">
        <ele>513.8</ele>
        <time>2022-06-27T07:59:04Z</time>
      </trkpt>
      <trkpt lat="42.4331810" lon="-2.7895850">
        <ele>514.0</ele>
        <time>2022-06-27T07:59:05Z</time>
      </trkpt>
      <trkpt lat="42.4331820" lon="-2.7896610">
        <ele>514.0</ele>
        <time>2022-06-27T07:59:06Z</time>
      </trkpt>
      <trkpt lat="42.4331820" lon="-2.7897360">
        <ele>514.2</ele>
        <time>2022-06-27T07:59:07Z</time>
      </trkpt>
      <trkpt lat="42.4331800" lon="-2.7898110">
        <ele>514.2</ele>
        <time>2022-06-27T07:59:08Z</time>
      </trkpt>
      <trkpt lat="42.4331810" lon="-2.7898860">
        <ele>514.2</ele>
        <time>2022-06-27T07:59:09Z</time>
      </trkpt>
      <trkpt lat="42.4331840" lon="-2.7899660">
        <ele>514.4</ele>
        <time>2022-06-27T07:59:10Z</time>
      </trkpt>
      <trkpt lat="42.4331870" lon="-2.7900460">
        <ele>514.6</ele>
        <time>2022-06-27T07:59:11Z</time>
      </trkpt>
      <trkpt lat="42.4331900" lon="-2.7901270">
        <ele>514.8</ele>
        <time>2022-06-27T07:59:12Z</time>
      </trkpt>
      <trkpt lat="42.4331950" lon="-2.7902060">
        <ele>514.8</ele>
        <time>2022-06-27T07:59:13Z</time>
      </trkpt>
      <trkpt lat="42.4331980" lon="-2.7902830">
        <ele>515.0</ele>
        <time>2022-06-27T07:59:14Z</time>
      </trkpt>
      <trkpt lat="42.4331990" lon="-2.7903610">
        <ele>515.0</ele>
        <time>2022-06-27T07:59:15Z</time>
      </trkpt>
      <trkpt lat="42.4331990" lon="-2.7904360">
        <ele>515.2</ele>
        <time>2022-06-27T07:59:16Z</time>
      </trkpt>
      <trkpt lat="42.4331990" lon="-2.7905120">
        <ele>515.4</ele>
        <time>2022-06-27T07:59:17Z</time>
      </trkpt>
      <trkpt lat="42.4332020" lon="-2.7905850">
        <ele>515.4</ele>
        <time>2022-06-27T07:59:18Z</time>
      </trkpt>
      <trkpt lat="42.4332060" lon="-2.7906600">
        <ele>515.6</ele>
        <time>2022-06-27T07:59:19Z</time>
      </trkpt>
      <trkpt lat="42.4332110" lon="-2.7907390">
        <ele>515.6</ele>
        <time>2022-06-27T07:59:20Z</time>
      </trkpt>
      <trkpt lat="42.4332170" lon="-2.7908170">
        <ele>515.6</ele>
        <time>2022-06-27T07:59:21Z</time>
      </trkpt>
      <trkpt lat="42.4332210" lon="-2.7908950">
        <ele>515.6</ele>
        <time>2022-06-27T07:59:22Z</time>
      </trkpt>
      <trkpt lat="42.4332240" lon="-2.7909750">
        <ele>515.8</ele>
        <time>2022-06-27T07:59:23Z</time>
      </trkpt>
      <trkpt lat="42.4332260" lon="-2.7910540">
        <ele>516.2</ele>
        <time>2022-06-27T07:59:24Z</time>
      </trkpt>
      <trkpt lat="42.4332270" lon="-2.7911310">
        <ele>516.2</ele>
        <time>2022-06-27T07:59:25Z</time>
      </trkpt>
      <trkpt lat="42.4332300" lon="-2.7912050">
        <ele>516.4</ele>
        <time>2022-06-27T07:59:26Z</time>
      </trkpt>
      <trkpt lat="42.4332320" lon="-2.7912800">
        <ele>516.6</ele>
        <time>2022-06-27T07:59:27Z</time>
      </trkpt>
      <trkpt lat="42.4332330" lon="-2.7913550">
        <ele>516.8</ele>
        <time>2022-06-27T07:59:28Z</time>
      </trkpt>
      <trkpt lat="42.4332350" lon="-2.7914320">
        <ele>516.8</ele>
        <time>2022-06-27T07:59:29Z</time>
      </trkpt>
      <trkpt lat="42.4332360" lon="-2.7915090">
        <ele>517.0</ele>
        <time>2022-06-27T07:59:30Z</time>
      </trkpt>
      <trkpt lat="42.4332390" lon="-2.7915850">
        <ele>517.4</ele>
        <time>2022-06-27T07:59:31Z</time>
      </trkpt>
      <trkpt lat="42.4332410" lon="-2.7916610">
        <ele>517.6</ele>
        <time>2022-06-27T07:59:32Z</time>
      </trkpt>
      <trkpt lat="42.4332440" lon="-2.7917380">
        <ele>517.6</ele>
        <time>2022-06-27T07:59:33Z</time>
      </trkpt>
      <trkpt lat="42.4332460" lon="-2.7918130">
        <ele>517.8</ele>
        <time>2022-06-27T07:59:34Z</time>
      </trkpt>
      <trkpt lat="42.4332480" lon="-2.7918880">
        <ele>518.0</ele>
        <time>2022-06-27T07:59:35Z</time>
      </trkpt>
      <trkpt lat="42.4332510" lon="-2.7919640">
        <ele>518.0</ele>
        <time>2022-06-27T07:59:36Z</time>
      </trkpt>
      <trkpt lat="42.4332540" lon="-2.7920400">
        <ele>518.2</ele>
        <time>2022-06-27T07:59:37Z</time>
      </trkpt>
      <trkpt lat="42.4332560" lon="-2.7921180">
        <ele>518.2</ele>
        <time>2022-06-27T07:59:38Z</time>
      </trkpt>
      <trkpt lat="42.4332580" lon="-2.7921950">
        <ele>518.4</ele>
        <time>2022-06-27T07:59:39Z</time>
      </trkpt>
      <trkpt lat="42.4332610" lon="-2.7922700">
        <ele>518.4</ele>
        <time>2022-06-27T07:59:40Z</time>
      </trkpt>
      <trkpt lat="42.4332630" lon="-2.7923460">
        <ele>518.6</ele>
        <time>2022-06-27T07:59:41Z</time>
      </trkpt>
      <trkpt lat="42.4332660" lon="-2.7924230">
        <ele>518.8</ele>
        <time>2022-06-27T07:59:42Z</time>
      </trkpt>
      <trkpt lat="42.4332690" lon="-2.7925000">
        <ele>519.0</ele>
        <time>2022-06-27T07:59:43Z</time>
      </trkpt>
      <trkpt lat="42.4332710" lon="-2.7925780">
        <ele>519.2</ele>
        <time>2022-06-27T07:59:44Z</time>
      </trkpt>
      <trkpt lat="42.4332750" lon="-2.7926560">
        <ele>519.2</ele>
        <time>2022-06-27T07:59:45Z</time>
      </trkpt>
      <trkpt lat="42.4332770" lon="-2.7927340">
        <ele>519.4</ele>
        <time>2022-06-27T07:59:46Z</time>
      </trkpt>
      <trkpt lat="42.4332800" lon="-2.7928130">
        <ele>519.6</ele>
        <time>2022-06-27T07:59:47Z</time>
      </trkpt>
      <trkpt lat="42.4332830" lon="-2.7928900">
        <ele>519.6</ele>
        <time>2022-06-27T07:59:48Z</time>
      </trkpt>
      <trkpt lat="42.4332840" lon="-2.7929640">
        <ele>519.6</ele>
        <time>2022-06-27T07:59:49Z</time>
      </trkpt>
      <trkpt lat="42.4332870" lon="-2.7930420">
        <ele>519.8</ele>
        <time>2022-06-27T07:59:50Z</time>
      </trkpt>
      <trkpt lat="42.4332890" lon="-2.7931200">
        <ele>519.8</ele>
        <time>2022-06-27T07:59:51Z</time>
      </trkpt>
      <trkpt lat="42.4332920" lon="-2.7931970">
        <ele>520.0</ele>
        <time>2022-06-27T07:59:52Z</time>
      </trkpt>
      <trkpt lat="42.4332940" lon="-2.7932750">
        <ele>520.2</ele>
        <time>2022-06-27T07:59:53Z</time>
      </trkpt>
      <trkpt lat="42.4332970" lon="-2.7933550">
        <ele>520.4</ele>
        <time>2022-06-27T07:59:54Z</time>
      </trkpt>
      <trkpt lat="42.4332990" lon="-2.7934340">
        <ele>520.4</ele>
        <time>2022-06-27T07:59:55Z</time>
      </trkpt>
      <trkpt lat="42.4333010" lon="-2.7935130">
        <ele>520.8</ele>
        <time>2022-06-27T07:59:56Z</time>
      </trkpt>
      <trkpt lat="42.4333030" lon="-2.7935930">
        <ele>520.8</ele>
        <time>2022-06-27T07:59:57Z</time>
      </trkpt>
      <trkpt lat="42.4333060" lon="-2.7936720">
        <ele>521.0</ele>
        <time>2022-06-27T07:59:58Z</time>
      </trkpt>
      <trkpt lat="42.4333100" lon="-2.7937520">
        <ele>521.2</ele>
        <time>2022-06-27T07:59:59Z</time>
      </trkpt>
      <trkpt lat="42.4333130" lon="-2.7938310">
        <ele>521.4</ele>
        <time>2022-06-27T08:00:00Z</time>
      </trkpt>
      <trkpt lat="42.4333150" lon="-2.7939100">
        <ele>521.4</ele>
        <time>2022-06-27T08:00:01Z</time>
      </trkpt>
      <trkpt lat="42.4333170" lon="-2.7939900">
        <ele>521.6</ele>
        <time>2022-06-27T08:00:02Z</time>
      </trkpt>
      <trkpt lat="42.4333200" lon="-2.7940690">
        <ele>521.8</ele>
        <time>2022-06-27T08:00:03Z</time>
      </trkpt>
      <trkpt lat="42.4333220" lon="-2.7941470">
        <ele>521.8</ele>
        <time>2022-06-27T08:00:04Z</time>
      </trkpt>
      <trkpt lat="42.4333250" lon="-2.7942220">
        <ele>522.0</ele>
        <time>2022-06-27T08:00:05Z</time>
      </trkpt>
      <trkpt lat="42.4333270" lon="-2.7942990">
        <ele>522.2</ele>
        <time>2022-06-27T08:00:06Z</time>
      </trkpt>
      <trkpt lat="42.4333290" lon="-2.7943760">
        <ele>522.4</ele>
        <time>2022-06-27T08:00:07Z</time>
      </trkpt>
      <trkpt lat="42.4333330" lon="-2.7944550">
        <ele>522.4</ele>
        <time>2022-06-27T08:00:08Z</time>
      </trkpt>
      <trkpt lat="42.4333340" lon="-2.7945330">
        <ele>522.6</ele>
        <time>2022-06-27T08:00:09Z</time>
      </trkpt>
      <trkpt lat="42.4333370" lon="-2.7946100">
        <ele>522.6</ele>
        <time>2022-06-27T08:00:10Z</time>
      </trkpt>
      <trkpt lat="42.4333390" lon="-2.7946870">
        <ele>522.8</ele>
        <time>2022-06-27T08:00:11Z</time>
      </trkpt>
      <trkpt lat="42.4333420" lon="-2.7947630">
        <ele>523.0</ele>
        <time>2022-06-27T08:00:12Z</time>
      </trkpt>
      <trkpt lat="42.4333450" lon="-2.7948420">
        <ele>523.0</ele>
        <time>2022-06-27T08:00:13Z</time>
      </trkpt>
      <trkpt lat="42.4333480" lon="-2.7949200">
        <ele>523.2</ele>
        <time>2022-06-27T08:00:14Z</time>
      </trkpt>
      <trkpt lat="42.4333500" lon="-2.7949980">
        <ele>523.4</ele>
        <time>2022-06-27T08:00:15Z</time>
      </trkpt>
      <trkpt lat="42.4333520" lon="-2.7950760">
        <ele>523.6</ele>
        <time>2022-06-27T08:00:16Z</time>
      </trkpt>
      <trkpt lat="42.4333540" lon="-2.7951540">
        <ele>523.8</ele>
        <time>2022-06-27T08:00:17Z</time>
      </trkpt>
      <trkpt lat="42.4333570" lon="-2.7952320">
        <ele>523.8</ele>
        <time>2022-06-27T08:00:18Z</time>
      </trkpt>
      <trkpt lat="42.4333590" lon="-2.7953090">
        <ele>524.0</ele>
        <time>2022-06-27T08:00:19Z</time>
      </trkpt>
      <trkpt lat="42.4333620" lon="-2.7953850">
        <ele>524.2</ele>
        <time>2022-06-27T08:00:20Z</time>
      </trkpt>
      <trkpt lat="42.4333650" lon="-2.7954620">
        <ele>524.2</ele>
        <time>2022-06-27T08:00:21Z</time>
      </trkpt>
      <trkpt lat="42.4333660" lon="-2.7955380">
        <ele>524.4</ele>
        <time>2022-06-27T08:00:22Z</time>
      </trkpt>
      <trkpt lat="42.4333650" lon="-2.7956170">
        <ele>524.6</ele>
        <time>2022-06-27T08:00:23Z</time>
      </trkpt>
      <trkpt lat="42.4333670" lon="-2.7956950">
        <ele>524.8</ele>
        <time>2022-06-27T08:00:24Z</time>
      </trkpt>
      <trkpt lat="42.4333700" lon="-2.7957760">
        <ele>524.8</ele>
        <time>2022-06-27T08:00:25Z</time>
      </trkpt>
      <trkpt lat="42.4333730" lon="-2.7958560">
        <ele>525.0</ele>
        <time>2022-06-27T08:00:26Z</time>
      </trkpt>
      <trkpt lat="42.4333750" lon="-2.7959380">
        <ele>525.0</ele>
        <time>2022-06-27T08:00:27Z</time>
      </trkpt>
      <trkpt lat="42.4333780" lon="-2.7960190">
        <ele>525.4</ele>
        <time>2022-06-27T08:00:28Z</time>
      </trkpt>
      <trkpt lat="42.4333800" lon="-2.7961000">
        <ele>525.4</ele>
        <time>2022-06-27T08:00:29Z</time>
      </trkpt>
      <trkpt lat="42.4333830" lon="-2.7961820">
        <ele>525.6</ele>
        <time>2022-06-27T08:00:30Z</time>
      </trkpt>
      <trkpt lat="42.4333850" lon="-2.7962640">
        <ele>525.6</ele>
        <time>2022-06-27T08:00:31Z</time>
      </trkpt>
      <trkpt lat="42.4333870" lon="-2.7963470">
        <ele>525.8</ele>
        <time>2022-06-27T08:00:32Z</time>
      </trkpt>
      <trkpt lat="42.4333890" lon="-2.7964290">
        <ele>526.0</ele>
        <time>2022-06-27T08:00:33Z</time>
      </trkpt>
      <trkpt lat="42.4333910" lon="-2.7965100">
        <ele>526.2</ele>
        <time>2022-06-27T08:00:34Z</time>
      </trkpt>
      <trkpt lat="42.4333920" lon="-2.7965920">
        <ele>526.2</ele>
        <time>2022-06-27T08:00:35Z</time>
      </trkpt>
      <trkpt lat="42.4333950" lon="-2.7966740">
        <ele>526.2</ele>
        <time>2022-06-27T08:00:36Z</time>
      </trkpt>
      <trkpt lat="42.4333970" lon="-2.7967560">
        <ele>526.6</ele>
        <time>2022-06-27T08:00:37Z</time>
      </trkpt>
      <trkpt lat="42.4334000" lon="-2.7968370">
        <ele>526.4</ele>
        <time>2022-06-27T08:00:38Z</time>
      </trkpt>
      <trkpt lat="42.4334020" lon="-2.7969190">
        <ele>526.6</ele>
        <time>2022-06-27T08:00:39Z</time>
      </trkpt>
      <trkpt lat="42.4334040" lon="-2.7970020">
        <ele>526.8</ele>
        <time>2022-06-27T08:00:40Z</time>
      </trkpt>
      <trkpt lat="42.4334060" lon="-2.7970840">
        <ele>526.8</ele>
        <time>2022-06-27T08:00:41Z</time>
      </trkpt>
      <trkpt lat="42.4334070" lon="-2.7971660">
        <ele>527.0</ele>
        <time>2022-06-27T08:00:42Z</time>
      </trkpt>
      <trkpt lat="42.4334100" lon="-2.7972470">
        <ele>527.0</ele>
        <time>2022-06-27T08:00:43Z</time>
      </trkpt>
      <trkpt lat="42.4334120" lon="-2.7973270">
        <ele>527.4</ele>
        <time>2022-06-27T08:00:44Z</time>
      </trkpt>
      <trkpt lat="42.4334150" lon="-2.7974090">
        <ele>527.6</ele>
        <time>2022-06-27T08:00:45Z</time>
      </trkpt>
      <trkpt lat="42.4334190" lon="-2.7974900">
        <ele>527.8</ele>
        <time>2022-06-27T08:00:46Z</time>
      </trkpt>
      <trkpt lat="42.4334220" lon="-2.7975730">
        <ele>527.8</ele>
        <time>2022-06-27T08:00:47Z</time>
      </trkpt>
      <trkpt lat="42.4334230" lon="-2.7976570">
        <ele>527.8</ele>
        <time>2022-06-27T08:00:48Z</time>
      </trkpt>
      <trkpt lat="42.4334250" lon="-2.7977410">
        <ele>528.0</ele>
        <time>2022-06-27T08:00:49Z</time>
      </trkpt>
      <trkpt lat="42.4334280" lon="-2.7978230">
        <ele>528.0</ele>
        <time>2022-06-27T08:00:50Z</time>
      </trkpt>
      <trkpt lat="42.4334320" lon="-2.7979060">
        <ele>528.2</ele>
        <time>2022-06-27T08:00:51Z</time>
      </trkpt>
      <trkpt lat="42.4334350" lon="-2.7979880">
        <ele>528.4</ele>
        <time>2022-06-27T08:00:52Z</time>
      </trkpt>
      <trkpt lat="42.4334380" lon="-2.7980710">
        <ele>528.6</ele>
        <time>2022-06-27T08:00:53Z</time>
      </trkpt>
      <trkpt lat="42.4334400" lon="-2.7981560">
        <ele>528.6</ele>
        <time>2022-06-27T08:00:54Z</time>
      </trkpt>
      <trkpt lat="42.4334430" lon="-2.7982420">
        <ele>528.8</ele>
        <time>2022-06-27T08:00:55Z</time>
      </trkpt>
      <trkpt lat="42.4334460" lon="-2.7983270">
        <ele>529.0</ele>
        <time>2022-06-27T08:00:56Z</time>
      </trkpt>
      <trkpt lat="42.4334480" lon="-2.7984130">
        <ele>529.0</ele>
        <time>2022-06-27T08:00:57Z</time>
      </trkpt>
      <trkpt lat="42.4334510" lon="-2.7984990">
        <ele>529.2</ele>
        <time>2022-06-27T08:00:58Z</time>
      </trkpt>
      <trkpt lat="42.4334550" lon="-2.7985820">
        <ele>529.4</ele>
        <time>2022-06-27T08:00:59Z</time>
      </trkpt>
      <trkpt lat="42.4334570" lon="-2.7986680">
        <ele>529.6</ele>
        <time>2022-06-27T08:01:00Z</time>
      </trkpt>
      <trkpt lat="42.4334610" lon="-2.7987550">
        <ele>529.6</ele>
        <time>2022-06-27T08:01:01Z</time>
      </trkpt>
      <trkpt lat="42.4334640" lon="-2.7988420">
        <ele>529.8</ele>
        <time>2022-06-27T08:01:02Z</time>
      </trkpt>
      <trkpt lat="42.4334660" lon="-2.7989310">
        <ele>529.8</ele>
        <time>2022-06-27T08:01:03Z</time>
      </trkpt>
      <trkpt lat="42.4334680" lon="-2.7990190">
        <ele>529.8</ele>
        <time>2022-06-27T08:01:04Z</time>
      </trkpt>
      <trkpt lat="42.4334710" lon="-2.7991070">
        <ele>530.0</ele>
        <time>2022-06-27T08:01:05Z</time>
      </trkpt>
      <trkpt lat="42.4334750" lon="-2.7991950">
        <ele>530.0</ele>
        <time>2022-06-27T08:01:06Z</time>
      </trkpt>
      <trkpt lat="42.4334770" lon="-2.7992850">
        <ele>530.0</ele>
        <time>2022-06-27T08:01:07Z</time>
      </trkpt>
      <trkpt lat="42.4334790" lon="-2.7993740">
        <ele>530.0</ele>
        <time>2022-06-27T08:01:08Z</time>
      </trkpt>
      <trkpt lat="42.4334810" lon="-2.7994650">
        <ele>530.2</ele>
        <time>2022-06-27T08:01:09Z</time>
      </trkpt>
      <trkpt lat="42.4334820" lon="-2.7995550">
        <ele>530.2</ele>
        <time>2022-06-27T08:01:10Z</time>
      </trkpt>
      <trkpt lat="42.4334840" lon="-2.7996460">
        <ele>530.2</ele>
        <time>2022-06-27T08:01:11Z</time>
      </trkpt>
      <trkpt lat="42.4334850" lon="-2.7997370">
        <ele>530.2</ele>
        <time>2022-06-27T08:01:12Z</time>
      </trkpt>
      <trkpt lat="42.4334870" lon="-2.7998280">
        <ele>530.4</ele>
        <time>2022-06-27T08:01:13Z</time>
      </trkpt>
      <trkpt lat="42.4334880" lon="-2.7999170">
        <ele>530.4</ele>
        <time>2022-06-27T08:01:14Z</time>
      </trkpt>
      <trkpt lat="42.4334910" lon="-2.8000080">
        <ele>530.4</ele>
        <time>2022-06-27T08:01:15Z</time>
      </trkpt>
      <trkpt lat="42.4334930" lon="-2.8001010">
        <ele>530.4</ele>
        <time>2022-06-27T08:01:16Z</time>
      </trkpt>
      <trkpt lat="42.4334940" lon="-2.8001930">
        <ele>530.4</ele>
        <time>2022-06-27T08:01:17Z</time>
      </trkpt>
      <trkpt lat="42.4334970" lon="-2.8002850">
        <ele>530.4</ele>
        <time>2022-06-27T08:01:19Z</time>
      </trkpt>
      <trkpt lat="42.4335010" lon="-2.8003770">
        <ele>530.6</ele>
        <time>2022-06-27T08:01:20Z</time>
      </trkpt>
      <trkpt lat="42.4335040" lon="-2.8004700">
        <ele>530.6</ele>
        <time>2022-06-27T08:01:21Z</time>
      </trkpt>
      <trkpt lat="42.4335090" lon="-2.8005620">
        <ele>530.6</ele>
        <time>2022-06-27T08:01:22Z</time>
      </trkpt>
      <trkpt lat="42.4335140" lon="-2.8006540">
        <ele>530.6</ele>
        <time>2022-06-27T08:01:23Z</time>
      </trkpt>
      <trkpt lat="42.4335200" lon="-2.8007460">
        <ele>530.6</ele>
        <time>2022-06-27T08:01:24Z</time>
      </trkpt>
      <trkpt lat="42.4335250" lon="-2.8008380">
        <ele>530.6</ele>
        <time>2022-06-27T08:01:25Z</time>
      </trkpt>
      <trkpt lat="42.4335290" lon="-2.8009290">
        <ele>530.6</ele>
        <time>2022-06-27T08:01:26Z</time>
      </trkpt>
      <trkpt lat="42.4335340" lon="-2.8010230">
        <ele>530.6</ele>
        <time>2022-06-27T08:01:27Z</time>
      </trkpt>
      <trkpt lat="42.4335380" lon="-2.8011160">
        <ele>530.6</ele>
        <time>2022-06-27T08:01:28Z</time>
      </trkpt>
      <trkpt lat="42.4335440" lon="-2.8012090">
        <ele>530.8</ele>
        <time>2022-06-27T08:01:29Z</time>
      </trkpt>
      <trkpt lat="42.4335500" lon="-2.8013030">
        <ele>530.8</ele>
        <time>2022-06-27T08:01:30Z</time>
      </trkpt>
      <trkpt lat="42.4335570" lon="-2.8013970">
        <ele>530.8</ele>
        <time>2022-06-27T08:01:31Z</time>
      </trkpt>
      <trkpt lat="42.4335620" lon="-2.8014910">
        <ele>530.8</ele>
        <time>2022-06-27T08:01:32Z</time>
      </trkpt>
      <trkpt lat="42.4335690" lon="-2.8015870">
        <ele>530.8</ele>
        <time>2022-06-27T08:01:33Z</time>
      </trkpt>
      <trkpt lat="42.4335790" lon="-2.8016810">
        <ele>530.8</ele>
        <time>2022-06-27T08:01:34Z</time>
      </trkpt>
      <trkpt lat="42.4335890" lon="-2.8017790">
        <ele>531.0</ele>
        <time>2022-06-27T08:01:35Z</time>
      </trkpt>
      <trkpt lat="42.4336000" lon="-2.8018790">
        <ele>531.0</ele>
        <time>2022-06-27T08:01:36Z</time>
      </trkpt>
      <trkpt lat="42.4336140" lon="-2.8019800">
        <ele>531.0</ele>
        <time>2022-06-27T08:01:37Z</time>
      </trkpt>
      <trkpt lat="42.4336290" lon="-2.8020840">
        <ele>531.0</ele>
        <time>2022-06-27T08:01:38Z</time>
      </trkpt>
      <trkpt lat="42.4336440" lon="-2.8021890">
        <ele>531.0</ele>
        <time>2022-06-27T08:01:39Z</time>
      </trkpt>
      <trkpt lat="42.4336610" lon="-2.8022960">
        <ele>530.8</ele>
        <time>2022-06-27T08:01:40Z</time>
      </trkpt>
      <trkpt lat="42.4336780" lon="-2.8024020">
        <ele>530.6</ele>
        <time>2022-06-27T08:01:41Z</time>
      </trkpt>
      <trkpt lat="42.4336940" lon="-2.8025100">
        <ele>530.6</ele>
        <time>2022-06-27T08:01:42Z</time>
      </trkpt>
      <trkpt lat="42.4337120" lon="-2.8026170">
        <ele>530.4</ele>
        <time>2022-06-27T08:01:43Z</time>
      </trkpt>
      <trkpt lat="42.4337330" lon="-2.8027260">
        <ele>530.4</ele>
        <time>2022-06-27T08:01:44Z</time>
      </trkpt>
      <trkpt lat="42.4337540" lon="-2.8028340">
        <ele>530.2</ele>
        <time>2022-06-27T08:01:45Z</time>
      </trkpt>
      <trkpt lat="42.4337750" lon="-2.8029430">
        <ele>530.2</ele>
        <time>2022-06-27T08:01:46Z</time>
      </trkpt>
      <trkpt lat="42.4337970" lon="-2.8030500">
        <ele>530.0</ele>
        <time>2022-06-27T08:01:47Z</time>
      </trkpt>
      <trkpt lat="42.4338260" lon="-2.8031550">
        <ele>529.8</ele>
        <time>2022-06-27T08:01:48Z</time>
      </trkpt>
      <trkpt lat="42.4338640" lon="-2.8032510">
        <ele>529.6</ele>
        <time>2022-06-27T08:01:49Z</time>
      </trkpt>
      <trkpt lat="42.4339080" lon="-2.8033420">
        <ele>529.2</ele>
        <time>2022-06-27T08:01:50Z</time>
      </trkpt>
      <trkpt lat="42.4339580" lon="-2.8034290">
        <ele>529.2</ele>
        <time>2022-06-27T08:01:51Z</time>
      </trkpt>
      <trkpt lat="42.4340160" lon="-2.8035080">
        <ele>528.8</ele>
        <time>2022-06-27T08:01:52Z</time>
      </trkpt>
      <trkpt lat="42.4340770" lon="-2.8035830">
        <ele>528.6</ele>
        <time>2022-06-27T08:01:53Z</time>
      </trkpt>
      <trkpt lat="42.4341420" lon="-2.8036530">
        <ele>528.2</ele>
        <time>2022-06-27T08:01:54Z</time>
      </trkpt>
      <trkpt lat="42.4342090" lon="-2.8037190">
        <ele>527.6</ele>
        <time>2022-06-27T08:01:55Z</time>
      </trkpt>
      <trkpt lat="42.4342760" lon="-2.8037830">
        <ele>527.0</ele>
        <time>2022-06-27T08:01:56Z</time>
      </trkpt>
      <trkpt lat="42.4343410" lon="-2.8038520">
        <ele>526.8</ele>
        <time>2022-06-27T08:01:57Z</time>
      </trkpt>
      <trkpt lat="42.4344030" lon="-2.8039280">
        <ele>526.6</ele>
        <time>2022-06-27T08:01:58Z</time>
      </trkpt>
      <trkpt lat="42.4344600" lon="-2.8040080">
        <ele>526.2</ele>
        <time>2022-06-27T08:01:59Z</time>
      </trkpt>
      <trkpt lat="42.4345070" lon="-2.8040850">
        <ele>526.0</ele>
        <time>2022-06-27T08:02:00Z</time>
      </trkpt>
      <trkpt lat="42.4345460" lon="-2.8041480">
        <ele>525.4</ele>
        <time>2022-06-27T08:02:01Z</time>
      </trkpt>
      <trkpt lat="42.4345810" lon="-2.8042010">
        <ele>525.4</ele>
        <time>2022-06-27T08:02:02Z</time>
      </trkpt>
      <trkpt lat="42.4346150" lon="-2.8042440">
        <ele>524.8</ele>
        <time>2022-06-27T08:02:03Z</time>
      </trkpt>
      <trkpt lat="42.4346510" lon="-2.8042810">
        <ele>524.4</ele>
        <time>2022-06-27T08:02:04Z</time>
      </trkpt>
      <trkpt lat="42.4346880" lon="-2.8043210">
        <ele>524.2</ele>
        <time>2022-06-27T08:02:05Z</time>
      </trkpt>
      <trkpt lat="42.4347250" lon="-2.8043620">
        <ele>523.8</ele>
        <time>2022-06-27T08:02:06Z</time>
      </trkpt>
      <trkpt lat="42.4347600" lon="-2.8044100">
        <ele>523.8</ele>
        <time>2022-06-27T08:02:07Z</time>
      </trkpt>
      <trkpt lat="42.4347880" lon="-2.8044650">
        <ele>523.6</ele>
        <time>2022-06-27T08:02:08Z</time>
      </trkpt>
      <trkpt lat="42.4348070" lon="-2.8045330">
        <ele>523.6</ele>
        <time>2022-06-27T08:02:09Z</time>
      </trkpt>
      <trkpt lat="42.4348150" lon="-2.8046070">
        <ele>523.6</ele>
        <time>2022-06-27T08:02:10Z</time>
      </trkpt>
      <trkpt lat="42.4348100" lon="-2.8046840">
        <ele>523.4</ele>
        <time>2022-06-27T08:02:11Z</time>
      </trkpt>
      <trkpt lat="42.4347970" lon="-2.8047630">
        <ele>523.4</ele>
        <time>2022-06-27T08:02:12Z</time>
      </trkpt>
      <trkpt lat="42.4347780" lon="-2.8048400">
        <ele>523.4</ele>
        <time>2022-06-27T08:02:13Z</time>
      </trkpt>
      <trkpt lat="42.4347560" lon="-2.8049170">
        <ele>523.4</ele>
        <time>2022-06-27T08:02:14Z</time>
      </trkpt>
      <trkpt lat="42.4347330" lon="-2.8049960">
        <ele>523.4</ele>
        <time>2022-06-27T08:02:15Z</time>
      </trkpt>
      <trkpt lat="42.4347080" lon="-2.8050760">
        <ele>523.4</ele>
        <time>2022-06-27T08:02:16Z</time>
      </trkpt>
      <trkpt lat="42.4346820" lon="-2.8051560">
        <ele>523.4</ele>
        <time>2022-06-27T08:02:17Z</time>
      </trkpt>
      <trkpt lat="42.4346550" lon="-2.8052370">
        <ele>523.4</ele>
        <time>2022-06-27T08:02:18Z</time>
      </trkpt>
      <trkpt lat="42.4346310" lon="-2.8053180">
        <ele>523.4</ele>
        <time>2022-06-27T08:02:19Z</time>
      </trkpt>
      <trkpt lat="42.4346030" lon="-2.8053980">
        <ele>523.4</ele>
        <time>2022-06-27T08:02:20Z</time>
      </trkpt>
      <trkpt lat="42.4345700" lon="-2.8054760">
        <ele>523.4</ele>
        <time>2022-06-27T08:02:21Z</time>
      </trkpt>
      <trkpt lat="42.4345350" lon="-2.8055540">
        <ele>523.4</ele>
        <time>2022-06-27T08:02:22Z</time>
      </trkpt>
      <trkpt lat="42.4345000" lon="-2.8056270">
        <ele>523.4</ele>
        <time>2022-06-27T08:02:23Z</time>
      </trkpt>
      <trkpt lat="42.4344640" lon="-2.8056990">
        <ele>523.6</ele>
        <time>2022-06-27T08:02:24Z</time>
      </trkpt>
      <trkpt lat="42.4344270" lon="-2.8057690">
        <ele>523.6</ele>
        <time>2022-06-27T08:02:25Z</time>
      </trkpt>
      <trkpt lat="42.4343880" lon="-2.8058390">
        <ele>523.6</ele>
        <time>2022-06-27T08:02:26Z</time>
      </trkpt>
      <trkpt lat="42.4343510" lon="-2.8059050">
        <ele>523.8</ele>
        <time>2022-06-27T08:02:27Z</time>
      </trkpt>
      <trkpt lat="42.4343150" lon="-2.8059690">
        <ele>523.8</ele>
        <time>2022-06-27T08:02:28Z</time>
      </trkpt>
      <trkpt lat="42.4342830" lon="-2.8060330">
        <ele>524.0</ele>
        <time>2022-06-27T08:02:29Z</time>
      </trkpt>
      <trkpt lat="42.4342530" lon="-2.8060960">
        <ele>524.2</ele>
        <time>2022-06-27T08:02:30Z</time>
      </trkpt>
      <trkpt lat="42.4342250" lon="-2.8061640">
        <ele>524.4</ele>
        <time>2022-06-27T08:02:31Z</time>
      </trkpt>
      <trkpt lat="42.4342010" lon="-2.8062340">
        <ele>524.4</ele>
        <time>2022-06-27T08:02:32Z</time>
      </trkpt>
      <trkpt lat="42.4341810" lon="-2.8063080">
        <ele>524.8</ele>
        <time>2022-06-27T08:02:33Z</time>
      </trkpt>
      <trkpt lat="42.4341670" lon="-2.8063670">
        <ele>525.0</ele>
        <time>2022-06-27T08:02:34Z</time>
      </trkpt>
      <trkpt lat="42.4341540" lon="-2.8064400">
        <ele>525.2</ele>
        <time>2022-06-27T08:02:35Z</time>
      </trkpt>
      <trkpt lat="42.4341450" lon="-2.8065300">
        <ele>525.2</ele>
        <time>2022-06-27T08:02:36Z</time>
      </trkpt>
      <trkpt lat="42.4341380" lon="-2.8066060">
        <ele>525.4</ele>
        <time>2022-06-27T08:02:37Z</time>
      </trkpt>
      <trkpt lat="42.4341330" lon="-2.8066870">
        <ele>525.6</ele>
        <time>2022-06-27T08:02:38Z</time>
      </trkpt>
      <trkpt lat="42.4341270" lon="-2.8067650">
        <ele>525.6</ele>
        <time>2022-06-27T08:02:39Z</time>
      </trkpt>
      <trkpt lat="42.4341210" lon="-2.8068430">
        <ele>525.8</ele>
        <time>2022-06-27T08:02:40Z</time>
      </trkpt>
      <trkpt lat="42.4341140" lon="-2.8069210">
        <ele>526.0</ele>
        <time>2022-06-27T08:02:41Z</time>
      </trkpt>
      <trkpt lat="42.4341090" lon="-2.8069990">
        <ele>526.0</ele>
        <time>2022-06-27T08:02:42Z</time>
      </trkpt>
      <trkpt lat="42.4341060" lon="-2.8070790">
        <ele>526.2</ele>
        <time>2022-06-27T08:02:43Z</time>
      </trkpt>
      <trkpt lat="42.4341030" lon="-2.8071590">
        <ele>526.2</ele>
        <time>2022-06-27T08:02:44Z</time>
      </trkpt>
      <trkpt lat="42.4341000" lon="-2.8072410">
        <ele>526.4</ele>
        <time>2022-06-27T08:02:45Z</time>
      </trkpt>
      <trkpt lat="42.4341000" lon="-2.8073220">
        <ele>526.4</ele>
        <time>2022-06-27T08:02:46Z</time>
      </trkpt>
      <trkpt lat="42.4341000" lon="-2.8074040">
        <ele>526.6</ele>
        <time>2022-06-27T08:02:47Z</time>
      </trkpt>
      <trkpt lat="42.4341000" lon="-2.8074900">
        <ele>526.6</ele>
        <time>2022-06-27T08:02:48Z</time>
      </trkpt>
      <trkpt lat="42.4340990" lon="-2.8075710">
        <ele>526.6</ele>
        <time>2022-06-27T08:02:49Z</time>
      </trkpt>
      <trkpt lat="42.4340980" lon="-2.8076560">
        <ele>526.6</ele>
        <time>2022-06-27T08:02:50Z</time>
      </trkpt>
      <trkpt lat="42.4340980" lon="-2.8077430">
        <ele>526.6</ele>
        <time>2022-06-27T08:02:51Z</time>
      </trkpt>
      <trkpt lat="42.4340980" lon="-2.8078310">
        <ele>526.6</ele>
        <time>2022-06-27T08:02:52Z</time>
      </trkpt>
      <trkpt lat="42.4341000" lon="-2.8079180">
        <ele>526.6</ele>
        <time>2022-06-27T08:02:53Z</time>
      </trkpt>
      <trkpt lat="42.4341010" lon="-2.8080040">
        <ele>526.8</ele>
        <time>2022-06-27T08:02:54Z</time>
      </trkpt>
      <trkpt lat="42.4341020" lon="-2.8080910">
        <ele>526.8</ele>
        <time>2022-06-27T08:02:55Z</time>
      </trkpt>
      <trkpt lat="42.4341040" lon="-2.8081780">
        <ele>526.8</ele>
        <time>2022-06-27T08:02:56Z</time>
      </trkpt>
      <trkpt lat="42.4341080" lon="-2.8082670">
        <ele>526.8</ele>
        <time>2022-06-27T08:02:57Z</time>
      </trkpt>
      <trkpt lat="42.4341120" lon="-2.8083560">
        <ele>527.0</ele>
        <time>2022-06-27T08:02:58Z</time>
      </trkpt>
      <trkpt lat="42.4341170" lon="-2.8084440">
        <ele>527.0</ele>
        <time>2022-06-27T08:02:59Z</time>
      </trkpt>
      <trkpt lat="42.4341220" lon="-2.8085290">
        <ele>527.0</ele>
        <time>2022-06-27T08:03:00Z</time>
      </trkpt>
      <trkpt lat="42.4341260" lon="-2.8086170">
        <ele>527.2</ele>
        <time>2022-06-27T08:03:01Z</time>
      </trkpt>
      <trkpt lat="42.4341320" lon="-2.8087050">
        <ele>527.4</ele>
        <time>2022-06-27T08:03:02Z</time>
      </trkpt>
      <trkpt lat="42.4341390" lon="-2.8087920">
        <ele>527.6</ele>
        <time>2022-06-27T08:03:03Z</time>
      </trkpt>
      <trkpt lat="42.4341450" lon="-2.8088790">
        <ele>527.6</ele>
        <time>2022-06-27T08:03:04Z</time>
      </trkpt>
      <trkpt lat="42.4341490" lon="-2.8089480">
        <ele>527.6</ele>
        <time>2022-06-27T08:03:05Z</time>
      </trkpt>
      <trkpt lat="42.4341570" lon="-2.8090320">
        <ele>527.8</ele>
        <time>2022-06-27T08:03:06Z</time>
      </trkpt>
      <trkpt lat="42.4341660" lon="-2.8091350">
        <ele>527.8</ele>
        <time>2022-06-27T08:03:07Z</time>
      </trkpt>
      <trkpt lat="42.4341720" lon="-2.8092060">
        <ele>528.0</ele>
        <time>2022-06-27T08:03:08Z</time>
      </trkpt>
      <trkpt lat="42.4341810" lon="-2.8093100">
        <ele>528.0</ele>
        <time>2022-06-27T08:03:09Z</time>
      </trkpt>
      <trkpt lat="42.4341870" lon="-2.8093800">
        <ele>528.2</ele>
        <time>2022-06-27T08:03:10Z</time>
      </trkpt>
      <trkpt lat="42.4341930" lon="-2.8094690">
        <ele>528.4</ele>
        <time>2022-06-27T08:03:11Z</time>
      </trkpt>
      <trkpt lat="42.4341990" lon="-2.8095560">
        <ele>528.4</ele>
        <time>2022-06-27T08:03:12Z</time>
      </trkpt>
      <trkpt lat="42.4342050" lon="-2.8096390">
        <ele>528.6</ele>
        <time>2022-06-27T08:03:13Z</time>
      </trkpt>
      <trkpt lat="42.4342140" lon="-2.8097440">
        <ele>528.8</ele>
        <time>2022-06-27T08:03:14Z</time>
      </trkpt>
      <trkpt lat="42.4342190" lon="-2.8098130">
        <ele>528.8</ele>
        <time>2022-06-27T08:03:15Z</time>
      </trkpt>
      <trkpt lat="42.4342260" lon="-2.8099010">
        <ele>529.0</ele>
        <time>2022-06-27T08:03:16Z</time>
      </trkpt>
      <trkpt lat="42.4342340" lon="-2.8099870">
        <ele>529.0</ele>
        <time>2022-06-27T08:03:17Z</time>
      </trkpt>
      <trkpt lat="42.4342410" lon="-2.8100730">
        <ele>529.2</ele>
        <time>2022-06-27T08:03:18Z</time>
      </trkpt>
      <trkpt lat="42.4342460" lon="-2.8101770">
        <ele>529.2</ele>
        <time>2022-06-27T08:03:19Z</time>
      </trkpt>
      <trkpt lat="42.4342520" lon="-2.8102460">
        <ele>529.4</ele>
        <time>2022-06-27T08:03:20Z</time>
      </trkpt>
      <trkpt lat="42.4342570" lon="-2.8103320">
        <ele>529.4</ele>
        <time>2022-06-27T08:03:21Z</time>
      </trkpt>
      <trkpt lat="42.4342600" lon="-2.8104180">
        <ele>529.4</ele>
        <time>2022-06-27T08:03:22Z</time>
      </trkpt>
      <trkpt lat="42.4342640" lon="-2.8105060">
        <ele>529.4</ele>
        <time>2022-06-27T08:03:23Z</time>
      </trkpt>
      <trkpt lat="42.4342690" lon="-2.8106110">
        <ele>529.6</ele>
        <time>2022-06-27T08:03:24Z</time>
      </trkpt>
      <trkpt lat="42.4342710" lon="-2.8106970">
        <ele>529.8</ele>
        <time>2022-06-27T08:03:25Z</time>
      </trkpt>
      <trkpt lat="42.4342740" lon="-2.8107850">
        <ele>530.0</ele>
        <time>2022-06-27T08:03:26Z</time>
      </trkpt>
      <trkpt lat="42.4342750" lon="-2.8108740">
        <ele>530.0</ele>
        <time>2022-06-27T08:03:27Z</time>
      </trkpt>
      <trkpt lat="42.4342760" lon="-2.8109640">
        <ele>530.2</ele>
        <time>2022-06-27T08:03:28Z</time>
      </trkpt>
      <trkpt lat="42.4342790" lon="-2.8110540">
        <ele>530.4</ele>
        <time>2022-06-27T08:03:29Z</time>
      </trkpt>
      <trkpt lat="42.4342780" lon="-2.8111450">
        <ele>530.4</ele>
        <time>2022-06-27T08:03:30Z</time>
      </trkpt>
      <trkpt lat="42.4342790" lon="-2.8112380">
        <ele>530.6</ele>
        <time>2022-06-27T08:03:31Z</time>
      </trkpt>
      <trkpt lat="42.4342800" lon="-2.8113300">
        <ele>530.6</ele>
        <time>2022-06-27T08:03:32Z</time>
      </trkpt>
      <trkpt lat="42.4342810" lon="-2.8114200">
        <ele>530.6</ele>
        <time>2022-06-27T08:03:33Z</time>
      </trkpt>
      <trkpt lat="42.4342810" lon="-2.8115130">
        <ele>530.6</ele>
        <time>2022-06-27T08:03:34Z</time>
      </trkpt>
      <trkpt lat="42.4342820" lon="-2.8116060">
        <ele>530.6</ele>
        <time>2022-06-27T08:03:35Z</time>
      </trkpt>
      <trkpt lat="42.4342830" lon="-2.8116990">
        <ele>530.6</ele>
        <time>2022-06-27T08:03:36Z</time>
      </trkpt>
      <trkpt lat="42.4342840" lon="-2.8117920">
        <ele>530.6</ele>
        <time>2022-06-27T08:03:37Z</time>
      </trkpt>
      <trkpt lat="42.4342840" lon="-2.8118860">
        <ele>530.6</ele>
        <time>2022-06-27T08:03:38Z</time>
      </trkpt>
      <trkpt lat="42.4342850" lon="-2.8119810">
        <ele>530.6</ele>
        <time>2022-06-27T08:03:39Z</time>
      </trkpt>
      <trkpt lat="42.4342860" lon="-2.8120750">
        <ele>530.6</ele>
        <time>2022-06-27T08:03:40Z</time>
      </trkpt>
      <trkpt lat="42.4342870" lon="-2.8121700">
        <ele>530.6</ele>
        <time>2022-06-27T08:03:41Z</time>
      </trkpt>
      <trkpt lat="42.4342870" lon="-2.8122650">
        <ele>530.6</ele>
        <time>2022-06-27T08:03:42Z</time>
      </trkpt>
      <trkpt lat="42.4342860" lon="-2.8123620">
        <ele>530.6</ele>
        <time>2022-06-27T08:03:43Z</time>
      </trkpt>
      <trkpt lat="42.4342860" lon="-2.8124580">
        <ele>530.6</ele>
        <time>2022-06-27T08:03:44Z</time>
      </trkpt>
      <trkpt lat="42.4342880" lon="-2.8125530">
        <ele>530.8</ele>
        <time>2022-06-27T08:03:45Z</time>
      </trkpt>
      <trkpt lat="42.4342890" lon="-2.8126490">
        <ele>530.8</ele>
        <time>2022-06-27T08:03:46Z</time>
      </trkpt>
      <trkpt lat="42.4342890" lon="-2.8127470">
        <ele>530.8</ele>
        <time>2022-06-27T08:03:47Z</time>
      </trkpt>
      <trkpt lat="42.4342880" lon="-2.8128430">
        <ele>530.8</ele>
        <time>2022-06-27T08:03:48Z</time>
      </trkpt>
      <trkpt lat="42.4342870" lon="-2.8129390">
        <ele>530.8</ele>
        <time>2022-06-27T08:03:49Z</time>
      </trkpt>
      <trkpt lat="42.4342880" lon="-2.8130350">
        <ele>531.0</ele>
        <time>2022-06-27T08:03:50Z</time>
      </trkpt>
      <trkpt lat="42.4342880" lon="-2.8131310">
        <ele>531.0</ele>
        <time>2022-06-27T08:03:51Z</time>
      </trkpt>
      <trkpt lat="42.4342870" lon="-2.8132270">
        <ele>531.0</ele>
        <time>2022-06-27T08:03:52Z</time>
      </trkpt>
      <trkpt lat="42.4342890" lon="-2.8133230">
        <ele>531.0</ele>
        <time>2022-06-27T08:03:53Z</time>
      </trkpt>
      <trkpt lat="42.4342900" lon="-2.8134160">
        <ele>531.0</ele>
        <time>2022-06-27T08:03:54Z</time>
      </trkpt>
      <trkpt lat="42.4342910" lon="-2.8135100">
        <ele>531.0</ele>
        <time>2022-06-27T08:03:55Z</time>
      </trkpt>
      <trkpt lat="42.4342910" lon="-2.8136040">
        <ele>530.8</ele>
        <time>2022-06-27T08:03:56Z</time>
      </trkpt>
      <trkpt lat="42.4342910" lon="-2.8136960">
        <ele>530.8</ele>
        <time>2022-06-27T08:03:57Z</time>
      </trkpt>
      <trkpt lat="42.4342930" lon="-2.8137890">
        <ele>530.8</ele>
        <time>2022-06-27T08:03:58Z</time>
      </trkpt>
      <trkpt lat="42.4342950" lon="-2.8138780">
        <ele>530.8</ele>
        <time>2022-06-27T08:03:59Z</time>
      </trkpt>
      <trkpt lat="42.4342950" lon="-2.8139670">
        <ele>530.8</ele>
        <time>2022-06-27T08:04:00Z</time>
      </trkpt>
      <trkpt lat="42.4342960" lon="-2.8140590">
        <ele>530.8</ele>
        <time>2022-06-27T08:04:01Z</time>
      </trkpt>
      <trkpt lat="42.4342950" lon="-2.8141520">
        <ele>530.8</ele>
        <time>2022-06-27T08:04:02Z</time>
      </trkpt>
      <trkpt lat="42.4342950" lon="-2.8142450">
        <ele>530.8</ele>
        <time>2022-06-27T08:04:03Z</time>
      </trkpt>
      <trkpt lat="42.4342960" lon="-2.8143370">
        <ele>530.8</ele>
        <time>2022-06-27T08:04:04Z</time>
      </trkpt>
      <trkpt lat="42.4342970" lon="-2.8144300">
        <ele>530.8</ele>
        <time>2022-06-27T08:04:05Z</time>
      </trkpt>
      <trkpt lat="42.4342980" lon="-2.8145230">
        <ele>531.0</ele>
        <time>2022-06-27T08:04:06Z</time>
      </trkpt>
      <trkpt lat="42.4343000" lon="-2.8146160">
        <ele>531.0</ele>
        <time>2022-06-27T08:04:07Z</time>
      </trkpt>
      <trkpt lat="42.4343030" lon="-2.8147100">
        <ele>531.0</ele>
        <time>2022-06-27T08:04:08Z</time>
      </trkpt>
      <trkpt lat="42.4343050" lon="-2.8148010">
        <ele>531.0</ele>
        <time>2022-06-27T08:04:09Z</time>
      </trkpt>
      <trkpt lat="42.4343050" lon="-2.8148930">
        <ele>531.0</ele>
        <time>2022-06-27T08:04:10Z</time>
      </trkpt>
      <trkpt lat="42.4343050" lon="-2.8149870">
        <ele>531.0</ele>
        <time>2022-06-27T08:04:11Z</time>
      </trkpt>
      <trkpt lat="42.4343070" lon="-2.8150800">
        <ele>531.0</ele>
        <time>2022-06-27T08:04:12Z</time>
      </trkpt>
      <trkpt lat="42.4343080" lon="-2.8151740">
        <ele>531.0</ele>
        <time>2022-06-27T08:04:13Z</time>
      </trkpt>
      <trkpt lat="42.4343080" lon="-2.8152680">
        <ele>531.0</ele>
        <time>2022-06-27T08:04:14Z</time>
      </trkpt>
      <trkpt lat="42.4343080" lon="-2.8153610">
        <ele>531.0</ele>
        <time>2022-06-27T08:04:15Z</time>
      </trkpt>
      <trkpt lat="42.4343070" lon="-2.8154560">
        <ele>531.2</ele>
        <time>2022-06-27T08:04:16Z</time>
      </trkpt>
      <trkpt lat="42.4343070" lon="-2.8155480">
        <ele>531.2</ele>
        <time>2022-06-27T08:04:17Z</time>
      </trkpt>
      <trkpt lat="42.4343050" lon="-2.8156430">
        <ele>531.2</ele>
        <time>2022-06-27T08:04:18Z</time>
      </trkpt>
      <trkpt lat="42.4343040" lon="-2.8157380">
        <ele>531.2</ele>
        <time>2022-06-27T08:04:19Z</time>
      </trkpt>
      <trkpt lat="42.4343030" lon="-2.8158340">
        <ele>531.4</ele>
        <time>2022-06-27T08:04:20Z</time>
      </trkpt>
      <trkpt lat="42.4343030" lon="-2.8159290">
        <ele>531.6</ele>
        <time>2022-06-27T08:04:21Z</time>
      </trkpt>
      <trkpt lat="42.4343030" lon="-2.8160240">
        <ele>531.4</ele>
        <time>2022-06-27T08:04:22Z</time>
      </trkpt>
      <trkpt lat="42.4343040" lon="-2.8161180">
        <ele>531.4</ele>
        <time>2022-06-27T08:04:23Z</time>
      </trkpt>
      <trkpt lat="42.4343050" lon="-2.8162120">
        <ele>531.6</ele>
        <time>2022-06-27T08:04:24Z</time>
      </trkpt>
      <trkpt lat="42.4343060" lon="-2.8163060">
        <ele>531.6</ele>
        <time>2022-06-27T08:04:25Z</time>
      </trkpt>
      <trkpt lat="42.4343070" lon="-2.8163990">
        <ele>531.8</ele>
        <time>2022-06-27T08:04:26Z</time>
      </trkpt>
      <trkpt lat="42.4343050" lon="-2.8164930">
        <ele>531.8</ele>
        <time>2022-06-27T08:04:27Z</time>
      </trkpt>
      <trkpt lat="42.4343040" lon="-2.8165850">
        <ele>531.8</ele>
        <time>2022-06-27T08:04:28Z</time>
      </trkpt>
      <trkpt lat="42.4343040" lon="-2.8166740">
        <ele>532.0</ele>
        <time>2022-06-27T08:04:29Z</time>
      </trkpt>
      <trkpt lat="42.4343030" lon="-2.8167640">
        <ele>532.0</ele>
        <time>2022-06-27T08:04:30Z</time>
      </trkpt>
      <trkpt lat="42.4343020" lon="-2.8168540">
        <ele>532.0</ele>
        <time>2022-06-27T08:04:31Z</time>
      </trkpt>
      <trkpt lat="42.4343020" lon="-2.8169440">
        <ele>532.0</ele>
        <time>2022-06-27T08:04:32Z</time>
      </trkpt>
      <trkpt lat="42.4343020" lon="-2.8170360">
        <ele>532.2</ele>
        <time>2022-06-27T08:04:33Z</time>
      </trkpt>
      <trkpt lat="42.4343020" lon="-2.8171270">
        <ele>532.2</ele>
        <time>2022-06-27T08:04:34Z</time>
      </trkpt>
      <trkpt lat="42.4343030" lon="-2.8172150">
        <ele>532.4</ele>
        <time>2022-06-27T08:04:35Z</time>
      </trkpt>
      <trkpt lat="42.4343030" lon="-2.8173040">
        <ele>532.4</ele>
        <time>2022-06-27T08:04:36Z</time>
      </trkpt>
      <trkpt lat="42.4343040" lon="-2.8173930">
        <ele>532.4</ele>
        <time>2022-06-27T08:04:37Z</time>
      </trkpt>
      <trkpt lat="42.4343040" lon="-2.8174850">
        <ele>532.6</ele>
        <time>2022-06-27T08:04:38Z</time>
      </trkpt>
      <trkpt lat="42.4343050" lon="-2.8175760">
        <ele>532.6</ele>
        <time>2022-06-27T08:04:39Z</time>
      </trkpt>
      <trkpt lat="42.4343040" lon="-2.8176660">
        <ele>532.8</ele>
        <time>2022-06-27T08:04:40Z</time>
      </trkpt>
      <trkpt lat="42.4343050" lon="-2.8177560">
        <ele>533.0</ele>
        <time>2022-06-27T08:04:41Z</time>
      </trkpt>
      <trkpt lat="42.4343060" lon="-2.8178480">
        <ele>533.2</ele>
        <time>2022-06-27T08:04:42Z</time>
      </trkpt>
      <trkpt lat="42.4343070" lon="-2.8179390">
        <ele>533.4</ele>
        <time>2022-06-27T08:04:43Z</time>
      </trkpt>
      <trkpt lat="42.4343070" lon="-2.8180300">
        <ele>533.6</ele>
        <time>2022-06-27T08:04:44Z</time>
      </trkpt>
      <trkpt lat="42.4343070" lon="-2.8181200">
        <ele>533.6</ele>
        <time>2022-06-27T08:04:45Z</time>
      </trkpt>
      <trkpt lat="42.4343060" lon="-2.8182120">
        <ele>533.6</ele>
        <time>2022-06-27T08:04:46Z</time>
      </trkpt>
      <trkpt lat="42.4343050" lon="-2.8183060">
        <ele>533.6</ele>
        <time>2022-06-27T08:04:47Z</time>
      </trkpt>
      <trkpt lat="42.4343040" lon="-2.8183980">
        <ele>533.8</ele>
        <time>2022-06-27T08:04:48Z</time>
      </trkpt>
      <trkpt lat="42.4343040" lon="-2.8184900">
        <ele>533.8</ele>
        <time>2022-06-27T08:04:49Z</time>
      </trkpt>
      <trkpt lat="42.4343040" lon="-2.8185810">
        <ele>534.0</ele>
        <time>2022-06-27T08:04:50Z</time>
      </trkpt>
      <trkpt lat="42.4343050" lon="-2.8186720">
        <ele>534.0</ele>
        <time>2022-06-27T08:04:51Z</time>
      </trkpt>
      <trkpt lat="42.4343040" lon="-2.8187610">
        <ele>534.2</ele>
        <time>2022-06-27T08:04:52Z</time>
      </trkpt>
      <trkpt lat="42.4343050" lon="-2.8188500">
        <ele>534.2</ele>
        <time>2022-06-27T08:04:53Z</time>
      </trkpt>
      <trkpt lat="42.4343060" lon="-2.8189380">
        <ele>534.4</ele>
        <time>2022-06-27T08:04:54Z</time>
      </trkpt>
      <trkpt lat="42.4343070" lon="-2.8190250">
        <ele>534.6</ele>
        <time>2022-06-27T08:04:55Z</time>
      </trkpt>
      <trkpt lat="42.4343090" lon="-2.8191130">
        <ele>534.8</ele>
        <time>2022-06-27T08:04:56Z</time>
      </trkpt>
      <trkpt lat="42.4343080" lon="-2.8192020">
        <ele>535.2</ele>
        <time>2022-06-27T08:04:57Z</time>
      </trkpt>
      <trkpt lat="42.4343090" lon="-2.8192720">
        <ele>535.2</ele>
        <time>2022-06-27T08:04:58Z</time>
      </trkpt>
      <trkpt lat="42.4343110" lon="-2.8193590">
        <ele>535.4</ele>
        <time>2022-06-27T08:04:59Z</time>
      </trkpt>
      <trkpt lat="42.4343120" lon="-2.8194650">
        <ele>535.4</ele>
        <time>2022-06-27T08:05:00Z</time>
      </trkpt>
      <trkpt lat="42.4343120" lon="-2.8195520">
        <ele>535.6</ele>
        <time>2022-06-27T08:05:01Z</time>
      </trkpt>
      <trkpt lat="42.4343130" lon="-2.8196390">
        <ele>535.6</ele>
        <time>2022-06-27T08:05:02Z</time>
      </trkpt>
      <trkpt lat="42.4343130" lon="-2.8197080">
        <ele>535.8</ele>
        <time>2022-06-27T08:05:03Z</time>
      </trkpt>
      <trkpt lat="42.4343140" lon="-2.8197940">
        <ele>535.8</ele>
        <time>2022-06-27T08:05:04Z</time>
      </trkpt>
      <trkpt lat="42.4343150" lon="-2.8198960">
        <ele>535.8</ele>
        <time>2022-06-27T08:05:05Z</time>
      </trkpt>
      <trkpt lat="42.4343150" lon="-2.8199790">
        <ele>536.2</ele>
        <time>2022-06-27T08:05:06Z</time>
      </trkpt>
      <trkpt lat="42.4343150" lon="-2.8200620">
        <ele>536.2</ele>
        <time>2022-06-27T08:05:07Z</time>
      </trkpt>
      <trkpt lat="42.4343170" lon="-2.8201460">
        <ele>536.2</ele>
        <time>2022-06-27T08:05:08Z</time>
      </trkpt>
      <trkpt lat="42.4343180" lon="-2.8202300">
        <ele>536.2</ele>
        <time>2022-06-27T08:05:09Z</time>
      </trkpt>
      <trkpt lat="42.4343190" lon="-2.8203140">
        <ele>536.4</ele>
        <time>2022-06-27T08:05:10Z</time>
      </trkpt>
      <trkpt lat="42.4343190" lon="-2.8203980">
        <ele>536.4</ele>
        <time>2022-06-27T08:05:11Z</time>
      </trkpt>
      <trkpt lat="42.4343200" lon="-2.8204810">
        <ele>536.6</ele>
        <time>2022-06-27T08:05:12Z</time>
      </trkpt>
      <trkpt lat="42.4343210" lon="-2.8205650">
        <ele>537.0</ele>
        <time>2022-06-27T08:05:13Z</time>
      </trkpt>
      <trkpt lat="42.4343220" lon="-2.8206490">
        <ele>537.0</ele>
        <time>2022-06-27T08:05:14Z</time>
      </trkpt>
      <trkpt lat="42.4343230" lon="-2.8207350">
        <ele>537.2</ele>
        <time>2022-06-27T08:05:15Z</time>
      </trkpt>
      <trkpt lat="42.4343250" lon="-2.8208180">
        <ele>537.2</ele>
        <time>2022-06-27T08:05:16Z</time>
      </trkpt>
      <trkpt lat="42.4343260" lon="-2.8209020">
        <ele>537.2</ele>
        <time>2022-06-27T08:05:17Z</time>
      </trkpt>
      <trkpt lat="42.4343260" lon="-2.8209860">
        <ele>537.4</ele>
        <time>2022-06-27T08:05:18Z</time>
      </trkpt>
      <trkpt lat="42.4343270" lon="-2.8210660">
        <ele>537.4</ele>
        <time>2022-06-27T08:05:19Z</time>
      </trkpt>
      <trkpt lat="42.4343270" lon="-2.8211490">
        <ele>537.4</ele>
        <time>2022-06-27T08:05:20Z</time>
      </trkpt>
      <trkpt lat="42.4343270" lon="-2.8212310">
        <ele>537.4</ele>
        <time>2022-06-27T08:05:21Z</time>
      </trkpt>
      <trkpt lat="42.4343270" lon="-2.8213140">
        <ele>537.6</ele>
        <time>2022-06-27T08:05:22Z</time>
      </trkpt>
      <trkpt lat="42.4343280" lon="-2.8213960">
        <ele>537.6</ele>
        <time>2022-06-27T08:05:23Z</time>
      </trkpt>
      <trkpt lat="42.4343290" lon="-2.8214790">
        <ele>537.8</ele>
        <time>2022-06-27T08:05:24Z</time>
      </trkpt>
      <trkpt lat="42.4343290" lon="-2.8215620">
        <ele>537.8</ele>
        <time>2022-06-27T08:05:25Z</time>
      </trkpt>
      <trkpt lat="42.4343300" lon="-2.8216460">
        <ele>538.0</ele>
        <time>2022-06-27T08:05:26Z</time>
      </trkpt>
      <trkpt lat="42.4343290" lon="-2.8217310">
        <ele>538.0</ele>
        <time>2022-06-27T08:05:27Z</time>
      </trkpt>
      <trkpt lat="42.4343310" lon="-2.8218140">
        <ele>538.2</ele>
        <time>2022-06-27T08:05:28Z</time>
      </trkpt>
      <trkpt lat="42.4343330" lon="-2.8218970">
        <ele>538.2</ele>
        <time>2022-06-27T08:05:29Z</time>
      </trkpt>
      <trkpt lat="42.4343360" lon="-2.8219800">
        <ele>538.2</ele>
        <time>2022-06-27T08:05:30Z</time>
      </trkpt>
      <trkpt lat="42.4343380" lon="-2.8220650">
        <ele>538.4</ele>
        <time>2022-06-27T08:05:31Z</time>
      </trkpt>
      <trkpt lat="42.4343410" lon="-2.8221490">
        <ele>538.6</ele>
        <time>2022-06-27T08:05:32Z</time>
      </trkpt>
      <trkpt lat="42.4343450" lon="-2.8222320">
        <ele>538.8</ele>
        <time>2022-06-27T08:05:33Z</time>
      </trkpt>
      <trkpt lat="42.4343490" lon="-2.8223120">
        <ele>538.6</ele>
        <time>2022-06-27T08:05:34Z</time>
      </trkpt>
      <trkpt lat="42.4343530" lon="-2.8223960">
        <ele>539.0</ele>
        <time>2022-06-27T08:05:35Z</time>
      </trkpt>
      <trkpt lat="42.4343600" lon="-2.8224790">
        <ele>539.0</ele>
        <time>2022-06-27T08:05:36Z</time>
      </trkpt>
      <trkpt lat="42.4343660" lon="-2.8225630">
        <ele>539.2</ele>
        <time>2022-06-27T08:05:37Z</time>
      </trkpt>
      <trkpt lat="42.4343720" lon="-2.8226470">
        <ele>539.2</ele>
        <time>2022-06-27T08:05:38Z</time>
      </trkpt>
      <trkpt lat="42.4343760" lon="-2.8227320">
        <ele>539.4</ele>
        <time>2022-06-27T08:05:39Z</time>
      </trkpt>
      <trkpt lat="42.4343800" lon="-2.8228170">
        <ele>539.4</ele>
        <time>2022-06-27T08:05:40Z</time>
      </trkpt>
      <trkpt lat="42.4343850" lon="-2.8229030">
        <ele>539.4</ele>
        <time>2022-06-27T08:05:41Z</time>
      </trkpt>
      <trkpt lat="42.4343900" lon="-2.8229910">
        <ele>539.6</ele>
        <time>2022-06-27T08:05:42Z</time>
      </trkpt>
      <trkpt lat="42.4343960" lon="-2.8230800">
        <ele>539.6</ele>
        <time>2022-06-27T08:05:43Z</time>
      </trkpt>
      <trkpt lat="42.4344020" lon="-2.8231690">
        <ele>539.6</ele>
        <time>2022-06-27T08:05:44Z</time>
      </trkpt>
      <trkpt lat="42.4344070" lon="-2.8232590">
        <ele>539.8</ele>
        <time>2022-06-27T08:05:45Z</time>
      </trkpt>
      <trkpt lat="42.4344110" lon="-2.8233320">
        <ele>539.8</ele>
        <time>2022-06-27T08:05:46Z</time>
      </trkpt>
      <trkpt lat="42.4344170" lon="-2.8234230">
        <ele>539.8</ele>
        <time>2022-06-27T08:05:47Z</time>
      </trkpt>
      <trkpt lat="42.4344250" lon="-2.8235310">
        <ele>539.8</ele>
        <time>2022-06-27T08:05:48Z</time>
      </trkpt>
      <trkpt lat="42.4344310" lon="-2.8236220">
        <ele>539.6</ele>
        <time>2022-06-27T08:05:49Z</time>
      </trkpt>
      <trkpt lat="42.4344380" lon="-2.8237120">
        <ele>539.6</ele>
        <time>2022-06-27T08:05:50Z</time>
      </trkpt>
      <trkpt lat="42.4344440" lon="-2.8237860">
        <ele>539.6</ele>
        <time>2022-06-27T08:05:51Z</time>
      </trkpt>
      <trkpt lat="42.4344510" lon="-2.8238750">
        <ele>539.6</ele>
        <time>2022-06-27T08:05:52Z</time>
      </trkpt>
      <trkpt lat="42.4344590" lon="-2.8239820">
        <ele>539.6</ele>
        <time>2022-06-27T08:05:53Z</time>
      </trkpt>
      <trkpt lat="42.4344660" lon="-2.8240690">
        <ele>539.8</ele>
        <time>2022-06-27T08:05:54Z</time>
      </trkpt>
      <trkpt lat="42.4344730" lon="-2.8241560">
        <ele>539.8</ele>
        <time>2022-06-27T08:05:55Z</time>
      </trkpt>
      <trkpt lat="42.4344790" lon="-2.8242260">
        <ele>539.8</ele>
        <time>2022-06-27T08:05:56Z</time>
      </trkpt>
      <trkpt lat="42.4344870" lon="-2.8243160">
        <ele>539.8</ele>
        <time>2022-06-27T08:05:57Z</time>
      </trkpt>
      <trkpt lat="42.4344950" lon="-2.8244010">
        <ele>539.8</ele>
        <time>2022-06-27T08:05:58Z</time>
      </trkpt>
      <trkpt lat="42.4345060" lon="-2.8245060">
        <ele>539.8</ele>
        <time>2022-06-27T08:05:59Z</time>
      </trkpt>
      <trkpt lat="42.4345150" lon="-2.8245920">
        <ele>540.0</ele>
        <time>2022-06-27T08:06:00Z</time>
      </trkpt>
      <trkpt lat="42.4345260" lon="-2.8246780">
        <ele>540.0</ele>
        <time>2022-06-27T08:06:01Z</time>
      </trkpt>
      <trkpt lat="42.4345360" lon="-2.8247640">
        <ele>540.0</ele>
        <time>2022-06-27T08:06:02Z</time>
      </trkpt>
      <trkpt lat="42.4345470" lon="-2.8248490">
        <ele>540.0</ele>
        <time>2022-06-27T08:06:03Z</time>
      </trkpt>
      <trkpt lat="42.4345570" lon="-2.8249340">
        <ele>540.0</ele>
        <time>2022-06-27T08:06:04Z</time>
      </trkpt>
      <trkpt lat="42.4345680" lon="-2.8250190">
        <ele>540.2</ele>
        <time>2022-06-27T08:06:05Z</time>
      </trkpt>
      <trkpt lat="42.4345800" lon="-2.8251040">
        <ele>540.2</ele>
        <time>2022-06-27T08:06:06Z</time>
      </trkpt>
      <trkpt lat="42.4345910" lon="-2.8251880">
        <ele>540.2</ele>
        <time>2022-06-27T08:06:07Z</time>
      </trkpt>
      <trkpt lat="42.4346020" lon="-2.8252710">
        <ele>540.2</ele>
        <time>2022-06-27T08:06:08Z</time>
      </trkpt>
      <trkpt lat="42.4346130" lon="-2.8253520">
        <ele>540.2</ele>
        <time>2022-06-27T08:06:09Z</time>
      </trkpt>
      <trkpt lat="42.4346230" lon="-2.8254340">
        <ele>540.4</ele>
        <time>2022-06-27T08:06:10Z</time>
      </trkpt>
      <trkpt lat="42.4346340" lon="-2.8255180">
        <ele>540.4</ele>
        <time>2022-06-27T08:06:11Z</time>
      </trkpt>
      <trkpt lat="42.4346440" lon="-2.8256000">
        <ele>540.6</ele>
        <time>2022-06-27T08:06:12Z</time>
      </trkpt>
      <trkpt lat="42.4346540" lon="-2.8256820">
        <ele>540.6</ele>
        <time>2022-06-27T08:06:13Z</time>
      </trkpt>
      <trkpt lat="42.4346650" lon="-2.8257640">
        <ele>540.8</ele>
        <time>2022-06-27T08:06:14Z</time>
      </trkpt>
      <trkpt lat="42.4346750" lon="-2.8258470">
        <ele>540.8</ele>
        <time>2022-06-27T08:06:15Z</time>
      </trkpt>
      <trkpt lat="42.4346850" lon="-2.8259290">
        <ele>541.0</ele>
        <time>2022-06-27T08:06:16Z</time>
      </trkpt>
      <trkpt lat="42.4346950" lon="-2.8260140">
        <ele>541.2</ele>
        <time>2022-06-27T08:06:17Z</time>
      </trkpt>
      <trkpt lat="42.4347050" lon="-2.8261000">
        <ele>541.2</ele>
        <time>2022-06-27T08:06:18Z</time>
      </trkpt>
      <trkpt lat="42.4347150" lon="-2.8261860">
        <ele>541.2</ele>
        <time>2022-06-27T08:06:19Z</time>
      </trkpt>
      <trkpt lat="42.4347250" lon="-2.8262730">
        <ele>541.4</ele>
        <time>2022-06-27T08:06:20Z</time>
      </trkpt>
      <trkpt lat="42.4347360" lon="-2.8263580">
        <ele>541.4</ele>
        <time>2022-06-27T08:06:21Z</time>
      </trkpt>
      <trkpt lat="42.4347470" lon="-2.8264440">
        <ele>541.6</ele>
        <time>2022-06-27T08:06:22Z</time>
      </trkpt>
      <trkpt lat="42.4347590" lon="-2.8265280">
        <ele>541.8</ele>
        <time>2022-06-27T08:06:23Z</time>
      </trkpt>
      <trkpt lat="42.4347700" lon="-2.8266110">
        <ele>541.8</ele>
        <time>2022-06-27T08:06:24Z</time>
      </trkpt>
      <trkpt lat="42.4347800" lon="-2.8266960">
        <ele>541.8</ele>
        <time>2022-06-27T08:06:25Z</time>
      </trkpt>
      <trkpt lat="42.4347900" lon="-2.8267800">
        <ele>542.0</ele>
        <time>2022-06-27T08:06:26Z</time>
      </trkpt>
      <trkpt lat="42.4348010" lon="-2.8268630">
        <ele>542.0</ele>
        <time>2022-06-27T08:06:27Z</time>
      </trkpt>
      <trkpt lat="42.4348130" lon="-2.8269450">
        <ele>542.2</ele>
        <time>2022-06-27T08:06:28Z</time>
      </trkpt>
      <trkpt lat="42.4348250" lon="-2.8270290">
        <ele>542.2</ele>
        <time>2022-06-27T08:06:29Z</time>
      </trkpt>
      <trkpt lat="42.4348380" lon="-2.8271120">
        <ele>542.4</ele>
        <time>2022-06-27T08:06:30Z</time>
      </trkpt>
      <trkpt lat="42.4348500" lon="-2.8271950">
        <ele>542.4</ele>
        <time>2022-06-27T08:06:31Z</time>
      </trkpt>
      <trkpt lat="42.4348620" lon="-2.8272780">
        <ele>542.4</ele>
        <time>2022-06-27T08:06:32Z</time>
      </trkpt>
      <trkpt lat="42.4348720" lon="-2.8273610">
        <ele>542.6</ele>
        <time>2022-06-27T08:06:33Z</time>
      </trkpt>
      <trkpt lat="42.4348820" lon="-2.8274430">
        <ele>542.6</ele>
        <time>2022-06-27T08:06:34Z</time>
      </trkpt>
      <trkpt lat="42.4348930" lon="-2.8275260">
        <ele>542.6</ele>
        <time>2022-06-27T08:06:35Z</time>
      </trkpt>
      <trkpt lat="42.4349040" lon="-2.8276090">
        <ele>542.6</ele>
        <time>2022-06-27T08:06:36Z</time>
      </trkpt>
      <trkpt lat="42.4349150" lon="-2.8276930">
        <ele>542.8</ele>
        <time>2022-06-27T08:06:37Z</time>
      </trkpt>
      <trkpt lat="42.4349250" lon="-2.8277760">
        <ele>542.8</ele>
        <time>2022-06-27T08:06:38Z</time>
      </trkpt>
      <trkpt lat="42.4349360" lon="-2.8278590">
        <ele>543.0</ele>
        <time>2022-06-27T08:06:39Z</time>
      </trkpt>
      <trkpt lat="42.4349470" lon="-2.8279420">
        <ele>543.0</ele>
        <time>2022-06-27T08:06:40Z</time>
      </trkpt>
      <trkpt lat="42.4349590" lon="-2.8280250">
        <ele>543.2</ele>
        <time>2022-06-27T08:06:41Z</time>
      </trkpt>
      <trkpt lat="42.4349700" lon="-2.8281080">
        <ele>543.2</ele>
        <time>2022-06-27T08:06:42Z</time>
      </trkpt>
      <trkpt lat="42.4349800" lon="-2.8281900">
        <ele>543.4</ele>
        <time>2022-06-27T08:06:43Z</time>
      </trkpt>
      <trkpt lat="42.4349890" lon="-2.8282730">
        <ele>543.6</ele>
        <time>2022-06-27T08:06:44Z</time>
      </trkpt>
      <trkpt lat="42.4350010" lon="-2.8283540">
        <ele>543.6</ele>
        <time>2022-06-27T08:06:45Z</time>
      </trkpt>
      <trkpt lat="42.4350120" lon="-2.8284330">
        <ele>543.8</ele>
        <time>2022-06-27T08:06:46Z</time>
      </trkpt>
      <trkpt lat="42.4350230" lon="-2.8285130">
        <ele>544.0</ele>
        <time>2022-06-27T08:06:47Z</time>
      </trkpt>
      <trkpt lat="42.4350340" lon="-2.8285910">
        <ele>544.2</ele>
        <time>2022-06-27T08:06:48Z</time>
      </trkpt>
      <trkpt lat="42.4350440" lon="-2.8286700">
        <ele>544.4</ele>
        <time>2022-06-27T08:06:49Z</time>
      </trkpt>
      <trkpt lat="42.4350550" lon="-2.8287500">
        <ele>544.4</ele>
        <time>2022-06-27T08:06:50Z</time>
      </trkpt>
      <trkpt lat="42.4350650" lon="-2.8288310">
        <ele>544.2</ele>
        <time>2022-06-27T08:06:51Z</time>
      </trkpt>
      <trkpt lat="42.4350740" lon="-2.8289110">
        <ele>544.4</ele>
        <time>2022-06-27T08:06:52Z</time>
      </trkpt>
      <trkpt lat="42.4350840" lon="-2.8289910">
        <ele>544.6</ele>
        <time>2022-06-27T08:06:53Z</time>
      </trkpt>
      <trkpt lat="42.4350940" lon="-2.8290710">
        <ele>544.6</ele>
        <time>2022-06-27T08:06:54Z</time>
      </trkpt>
      <trkpt lat="42.4351050" lon="-2.8291520">
        <ele>544.6</ele>
        <time>2022-06-27T08:06:55Z</time>
      </trkpt>
      <trkpt lat="42.4351150" lon="-2.8292330">
        <ele>544.8</ele>
        <time>2022-06-27T08:06:56Z</time>
      </trkpt>
      <trkpt lat="42.4351260" lon="-2.8293140">
        <ele>544.8</ele>
        <time>2022-06-27T08:06:57Z</time>
      </trkpt>
      <trkpt lat="42.4351360" lon="-2.8293940">
        <ele>545.0</ele>
        <time>2022-06-27T08:06:58Z</time>
      </trkpt>
      <trkpt lat="42.4351450" lon="-2.8294720">
        <ele>545.4</ele>
        <time>2022-06-27T08:06:59Z</time>
      </trkpt>
      <trkpt lat="42.4351550" lon="-2.8295510">
        <ele>545.4</ele>
        <time>2022-06-27T08:07:00Z</time>
      </trkpt>
      <trkpt lat="42.4351660" lon="-2.8296310">
        <ele>545.8</ele>
        <time>2022-06-27T08:07:01Z</time>
      </trkpt>
      <trkpt lat="42.4351770" lon="-2.8297100">
        <ele>545.8</ele>
        <time>2022-06-27T08:07:02Z</time>
      </trkpt>
      <trkpt lat="42.4351900" lon="-2.8297890">
        <ele>545.8</ele>
        <time>2022-06-27T08:07:03Z</time>
      </trkpt>
      <trkpt lat="42.4352020" lon="-2.8298670">
        <ele>546.0</ele>
        <time>2022-06-27T08:07:04Z</time>
      </trkpt>
      <trkpt lat="42.4352150" lon="-2.8299450">
        <ele>546.0</ele>
        <time>2022-06-27T08:07:05Z</time>
      </trkpt>
      <trkpt lat="42.4352260" lon="-2.8300230">
        <ele>546.0</ele>
        <time>2022-06-27T08:07:06Z</time>
      </trkpt>
      <trkpt lat="42.4352370" lon="-2.8301000">
        <ele>546.0</ele>
        <time>2022-06-27T08:07:07Z</time>
      </trkpt>
      <trkpt lat="42.4352480" lon="-2.8301760">
        <ele>546.2</ele>
        <time>2022-06-27T08:07:08Z</time>
      </trkpt>
      <trkpt lat="42.4352570" lon="-2.8302530">
        <ele>546.2</ele>
        <time>2022-06-27T08:07:09Z</time>
      </trkpt>
      <trkpt lat="42.4352640" lon="-2.8303280">
        <ele>546.4</ele>
        <time>2022-06-27T08:07:10Z</time>
      </trkpt>
      <trkpt lat="42.4352740" lon="-2.8304030">
        <ele>546.4</ele>
        <time>2022-06-27T08:07:11Z</time>
      </trkpt>
      <trkpt lat="42.4352830" lon="-2.8304770">
        <ele>546.6</ele>
        <time>2022-06-27T08:07:12Z</time>
      </trkpt>
      <trkpt lat="42.4352940" lon="-2.8305500">
        <ele>546.8</ele>
        <time>2022-06-27T08:07:13Z</time>
      </trkpt>
      <trkpt lat="42.4353030" lon="-2.8306210">
        <ele>546.8</ele>
        <time>2022-06-27T08:07:14Z</time>
      </trkpt>
      <trkpt lat="42.4353120" lon="-2.8306950">
        <ele>547.0</ele>
        <time>2022-06-27T08:07:15Z</time>
      </trkpt>
      <trkpt lat="42.4353210" lon="-2.8307680">
        <ele>547.2</ele>
        <time>2022-06-27T08:07:16Z</time>
      </trkpt>
      <trkpt lat="42.4353280" lon="-2.8308420">
        <ele>547.4</ele>
        <time>2022-06-27T08:07:17Z</time>
      </trkpt>
      <trkpt lat="42.4353360" lon="-2.8309170">
        <ele>547.6</ele>
        <time>2022-06-27T08:07:18Z</time>
      </trkpt>
      <trkpt lat="42.4353440" lon="-2.8309900">
        <ele>548.0</ele>
        <time>2022-06-27T08:07:19Z</time>
      </trkpt>
      <trkpt lat="42.4353510" lon="-2.8310630">
        <ele>548.0</ele>
        <time>2022-06-27T08:07:20Z</time>
      </trkpt>
      <trkpt lat="42.4353570" lon="-2.8311360">
        <ele>548.2</ele>
        <time>2022-06-27T08:07:21Z</time>
      </trkpt>
      <trkpt lat="42.4353640" lon="-2.8312080">
        <ele>548.6</ele>
        <time>2022-06-27T08:07:22Z</time>
      </trkpt>
      <trkpt lat="42.4353690" lon="-2.8312780">
        <ele>548.8</ele>
        <time>2022-06-27T08:07:23Z</time>
      </trkpt>
      <trkpt lat="42.4353760" lon="-2.8313500">
        <ele>549.0</ele>
        <time>2022-06-27T08:07:24Z</time>
      </trkpt>
      <trkpt lat="42.4353840" lon="-2.8314200">
        <ele>549.0</ele>
        <time>2022-06-27T08:07:25Z</time>
      </trkpt>
      <trkpt lat="42.4353930" lon="-2.8314890">
        <ele>549.4</ele>
        <time>2022-06-27T08:07:26Z</time>
      </trkpt>
      <trkpt lat="42.4354010" lon="-2.8315630">
        <ele>549.4</ele>
        <time>2022-06-27T08:07:27Z</time>
      </trkpt>
      <trkpt lat="42.4354070" lon="-2.8316360">
        <ele>549.8</ele>
        <time>2022-06-27T08:07:28Z</time>
      </trkpt>
      <trkpt lat="42.4354120" lon="-2.8317120">
        <ele>550.2</ele>
        <time>2022-06-27T08:07:29Z</time>
      </trkpt>
      <trkpt lat="42.4354170" lon="-2.8317870">
        <ele>550.2</ele>
        <time>2022-06-27T08:07:30Z</time>
      </trkpt>
      <trkpt lat="42.4354200" lon="-2.8318610">
        <ele>550.4</ele>
        <time>2022-06-27T08:07:31Z</time>
      </trkpt>
      <trkpt lat="42.4354220" lon="-2.8319350">
        <ele>550.4</ele>
        <time>2022-06-27T08:07:32Z</time>
      </trkpt>
      <trkpt lat="42.4354250" lon="-2.8320050">
        <ele>550.4</ele>
        <time>2022-06-27T08:07:33Z</time>
      </trkpt>
      <trkpt lat="42.4354290" lon="-2.8320780">
        <ele>550.6</ele>
        <time>2022-06-27T08:07:34Z</time>
      </trkpt>
      <trkpt lat="42.4354370" lon="-2.8321520">
        <ele>550.8</ele>
        <time>2022-06-27T08:07:35Z</time>
      </trkpt>
      <trkpt lat="42.4354440" lon="-2.8322290">
        <ele>551.0</ele>
        <time>2022-06-27T08:07:36Z</time>
      </trkpt>
      <trkpt lat="42.4354520" lon="-2.8323050">
        <ele>551.2</ele>
        <time>2022-06-27T08:07:37Z</time>
      </trkpt>
      <trkpt lat="42.4354590" lon="-2.8323790">
        <ele>551.4</ele>
        <time>2022-06-27T08:07:38Z</time>
      </trkpt>
      <trkpt lat="42.4354660" lon="-2.8324520">
        <ele>551.4</ele>
        <time>2022-06-27T08:07:39Z</time>
      </trkpt>
      <trkpt lat="42.4354770" lon="-2.8325250">
        <ele>551.8</ele>
        <time>2022-06-27T08:07:40Z</time>
      </trkpt>
      <trkpt lat="42.4354890" lon="-2.8326020">
        <ele>552.0</ele>
        <time>2022-06-27T08:07:41Z</time>
      </trkpt>
      <trkpt lat="42.4355000" lon="-2.8326810">
        <ele>552.2</ele>
        <time>2022-06-27T08:07:42Z</time>
      </trkpt>
      <trkpt lat="42.4355090" lon="-2.8327610">
        <ele>552.4</ele>
        <time>2022-06-27T08:07:43Z</time>
      </trkpt>
      <trkpt lat="42.4355190" lon="-2.8328380">
        <ele>552.6</ele>
        <time>2022-06-27T08:07:44Z</time>
      </trkpt>
      <trkpt lat="42.4355320" lon="-2.8329140">
        <ele>552.8</ele>
        <time>2022-06-27T08:07:45Z</time>
      </trkpt>
      <trkpt lat="42.4355470" lon="-2.8329880">
        <ele>553.0</ele>
        <time>2022-06-27T08:07:46Z</time>
      </trkpt>
      <trkpt lat="42.4355630" lon="-2.8330600">
        <ele>553.2</ele>
        <time>2022-06-27T08:07:47Z</time>
      </trkpt>
      <trkpt lat="42.4355800" lon="-2.8331310">
        <ele>553.2</ele>
        <time>2022-06-27T08:07:48Z</time>
      </trkpt>
      <trkpt lat="42.4355960" lon="-2.8332030">
        <ele>553.4</ele>
        <time>2022-06-27T08:07:49Z</time>
      </trkpt>
      <trkpt lat="42.4356130" lon="-2.8332720">
        <ele>553.4</ele>
        <time>2022-06-27T08:07:50Z</time>
      </trkpt>
      <trkpt lat="42.4356320" lon="-2.8333450">
        <ele>553.6</ele>
        <time>2022-06-27T08:07:51Z</time>
      </trkpt>
      <trkpt lat="42.4356510" lon="-2.8334170">
        <ele>553.8</ele>
        <time>2022-06-27T08:07:52Z</time>
      </trkpt>
      <trkpt lat="42.4356690" lon="-2.8334870">
        <ele>554.0</ele>
        <time>2022-06-27T08:07:53Z</time>
      </trkpt>
      <trkpt lat="42.4356880" lon="-2.8335570">
        <ele>554.4</ele>
        <time>2022-06-27T08:07:54Z</time>
      </trkpt>
      <trkpt lat="42.4357070" lon="-2.8336300">
        <ele>554.4</ele>
        <time>2022-06-27T08:07:55Z</time>
      </trkpt>
      <trkpt lat="42.4357270" lon="-2.8337020">
        <ele>554.6</ele>
        <time>2022-06-27T08:07:56Z</time>
      </trkpt>
      <trkpt lat="42.4357470" lon="-2.8337710">
        <ele>554.8</ele>
        <time>2022-06-27T08:07:57Z</time>
      </trkpt>
      <trkpt lat="42.4357660" lon="-2.8338390">
        <ele>554.8</ele>
        <time>2022-06-27T08:07:58Z</time>
      </trkpt>
      <trkpt lat="42.4357850" lon="-2.8339080">
        <ele>554.8</ele>
        <time>2022-06-27T08:07:59Z</time>
      </trkpt>
      <trkpt lat="42.4358050" lon="-2.8339770">
        <ele>554.8</ele>
        <time>2022-06-27T08:08:00Z</time>
      </trkpt>
      <trkpt lat="42.4358250" lon="-2.8340450">
        <ele>555.0</ele>
        <time>2022-06-27T08:08:01Z</time>
      </trkpt>
      <trkpt lat="42.4358450" lon="-2.8341110">
        <ele>555.0</ele>
        <time>2022-06-27T08:08:02Z</time>
      </trkpt>
      <trkpt lat="42.4358670" lon="-2.8341790">
        <ele>555.2</ele>
        <time>2022-06-27T08:08:03Z</time>
      </trkpt>
      <trkpt lat="42.4358890" lon="-2.8342500">
        <ele>555.2</ele>
        <time>2022-06-27T08:08:04Z</time>
      </trkpt>
      <trkpt lat="42.4359100" lon="-2.8343220">
        <ele>555.2</ele>
        <time>2022-06-27T08:08:05Z</time>
      </trkpt>
      <trkpt lat="42.4359310" lon="-2.8343920">
        <ele>555.4</ele>
        <time>2022-06-27T08:08:06Z</time>
      </trkpt>
      <trkpt lat="42.4359530" lon="-2.8344620">
        <ele>555.6</ele>
        <time>2022-06-27T08:08:07Z</time>
      </trkpt>
      <trkpt lat="42.4359730" lon="-2.8345300">
        <ele>555.8</ele>
        <time>2022-06-27T08:08:08Z</time>
      </trkpt>
      <trkpt lat="42.4359920" lon="-2.8346000">
        <ele>555.8</ele>
        <time>2022-06-27T08:08:09Z</time>
      </trkpt>
      <trkpt lat="42.4360110" lon="-2.8346700">
        <ele>555.8</ele>
        <time>2022-06-27T08:08:10Z</time>
      </trkpt>
      <trkpt lat="42.4360310" lon="-2.8347390">
        <ele>556.0</ele>
        <time>2022-06-27T08:08:11Z</time>
      </trkpt>
      <trkpt lat="42.4360500" lon="-2.8348040">
        <ele>556.0</ele>
        <time>2022-06-27T08:08:12Z</time>
      </trkpt>
      <trkpt lat="42.4360690" lon="-2.8348690">
        <ele>556.2</ele>
        <time>2022-06-27T08:08:13Z</time>
      </trkpt>
      <trkpt lat="42.4360910" lon="-2.8349310">
        <ele>556.4</ele>
        <time>2022-06-27T08:08:14Z</time>
      </trkpt>
      <trkpt lat="42.4361200" lon="-2.8349880">
        <ele>556.4</ele>
        <time>2022-06-27T08:08:15Z</time>
      </trkpt>
      <trkpt lat="42.4361510" lon="-2.8350390">
        <ele>556.6</ele>
        <time>2022-06-27T08:08:16Z</time>
      </trkpt>
      <trkpt lat="42.4361820" lon="-2.8350900">
        <ele>556.8</ele>
        <time>2022-06-27T08:08:17Z</time>
      </trkpt>
      <trkpt lat="42.4362100" lon="-2.8351420">
        <ele>556.8</ele>
        <time>2022-06-27T08:08:18Z</time>
      </trkpt>
      <trkpt lat="42.4362340" lon="-2.8351950">
        <ele>557.0</ele>
        <time>2022-06-27T08:08:19Z</time>
      </trkpt>
      <trkpt lat="42.4362560" lon="-2.8352520">
        <ele>557.0</ele>
        <time>2022-06-27T08:08:20Z</time>
      </trkpt>
      <trkpt lat="42.4362730" lon="-2.8353120">
        <ele>557.2</ele>
        <time>2022-06-27T08:08:21Z</time>
      </trkpt>
      <trkpt lat="42.4362850" lon="-2.8353720">
        <ele>557.6</ele>
        <time>2022-06-27T08:08:22Z</time>
      </trkpt>
      <trkpt lat="42.4362890" lon="-2.8354360">
        <ele>557.8</ele>
        <time>2022-06-27T08:08:23Z</time>
      </trkpt>
      <trkpt lat="42.4362900" lon="-2.8355010">
        <ele>558.0</ele>
        <time>2022-06-27T08:08:24Z</time>
      </trkpt>
      <trkpt lat="42.4362850" lon="-2.8355680">
        <ele>558.2</ele>
        <time>2022-06-27T08:08:25Z</time>
      </trkpt>
      <trkpt lat="42.4362780" lon="-2.8356370">
        <ele>558.4</ele>
        <time>2022-06-27T08:08:26Z</time>
      </trkpt>
      <trkpt lat="42.4362700" lon="-2.8357050">
        <ele>558.6</ele>
        <time>2022-06-27T08:08:27Z</time>
      </trkpt>
      <trkpt lat="42.4362630" lon="-2.8357770">
        <ele>558.8</ele>
        <time>2022-06-27T08:08:28Z</time>
      </trkpt>
      <trkpt lat="42.4362580" lon="-2.8358500">
        <ele>559.0</ele>
        <time>2022-06-27T08:08:29Z</time>
      </trkpt>
      <trkpt lat="42.4362550" lon="-2.8359240">
        <ele>559.2</ele>
        <time>2022-06-27T08:08:30Z</time>
      </trkpt>
      <trkpt lat="42.4362550" lon="-2.8360010">
        <ele>559.2</ele>
        <time>2022-06-27T08:08:31Z</time>
      </trkpt>
      <trkpt lat="42.4362600" lon="-2.8360770">
        <ele>559.2</ele>
        <time>2022-06-27T08:08:32Z</time>
      </trkpt>
      <trkpt lat="42.4362650" lon="-2.8361540">
        <ele>559.4</ele>
        <time>2022-06-27T08:08:33Z</time>
      </trkpt>
      <trkpt lat="42.4362690" lon="-2.8362300">
        <ele>559.4</ele>
        <time>2022-06-27T08:08:34Z</time>
      </trkpt>
      <trkpt lat="42.4362720" lon="-2.8363040">
        <ele>559.6</ele>
        <time>2022-06-27T08:08:35Z</time>
      </trkpt>
      <trkpt lat="42.4362760" lon="-2.8363760">
        <ele>559.8</ele>
        <time>2022-06-27T08:08:36Z</time>
      </trkpt>
      <trkpt lat="42.4362790" lon="-2.8364470">
        <ele>560.0</ele>
        <time>2022-06-27T08:08:37Z</time>
      </trkpt>
      <trkpt lat="42.4362820" lon="-2.8365200">
        <ele>560.0</ele>
        <time>2022-06-27T08:08:38Z</time>
      </trkpt>
      <trkpt lat="42.4362840" lon="-2.8365940">
        <ele>560.2</ele>
        <time>2022-06-27T08:08:39Z</time>
      </trkpt>
      <trkpt lat="42.4362840" lon="-2.8366670">
        <ele>560.6</ele>
        <time>2022-06-27T08:08:40Z</time>
      </trkpt>
      <trkpt lat="42.4362840" lon="-2.8367370">
        <ele>560.6</ele>
        <time>2022-06-27T08:08:41Z</time>
      </trkpt>
      <trkpt lat="42.4362810" lon="-2.8368060">
        <ele>560.8</ele>
        <time>2022-06-27T08:08:42Z</time>
      </trkpt>
      <trkpt lat="42.4362810" lon="-2.8368740">
        <ele>561.0</ele>
        <time>2022-06-27T08:08:43Z</time>
      </trkpt>
      <trkpt lat="42.4362790" lon="-2.8369400">
        <ele>561.4</ele>
        <time>2022-06-27T08:08:44Z</time>
      </trkpt>
      <trkpt lat="42.4362740" lon="-2.8370040">
        <ele>561.8</ele>
        <time>2022-06-27T08:08:45Z</time>
      </trkpt>
      <trkpt lat="42.4362720" lon="-2.8370670">
        <ele>562.0</ele>
        <time>2022-06-27T08:08:46Z</time>
      </trkpt>
      <trkpt lat="42.4362680" lon="-2.8371290">
        <ele>562.4</ele>
        <time>2022-06-27T08:08:47Z</time>
      </trkpt>
      <trkpt lat="42.4362640" lon="-2.8371930">
        <ele>562.6</ele>
        <time>2022-06-27T08:08:48Z</time>
      </trkpt>
      <trkpt lat="42.4362590" lon="-2.8372600">
        <ele>563.2</ele>
        <time>2022-06-27T08:08:49Z</time>
      </trkpt>
      <trkpt lat="42.4362550" lon="-2.8373250">
        <ele>563.4</ele>
        <time>2022-06-27T08:08:50Z</time>
      </trkpt>
      <trkpt lat="42.4362510" lon="-2.8373890">
        <ele>563.6</ele>
        <time>2022-06-27T08:08:51Z</time>
      </trkpt>
      <trkpt lat="42.4362460" lon="-2.8374550">
        <ele>563.8</ele>
        <time>2022-06-27T08:08:52Z</time>
      </trkpt>
      <trkpt lat="42.4362420" lon="-2.8375200">
        <ele>564.0</ele>
        <time>2022-06-27T08:08:53Z</time>
      </trkpt>
      <trkpt lat="42.4362390" lon="-2.8375850">
        <ele>564.0</ele>
        <time>2022-06-27T08:08:54Z</time>
      </trkpt>
      <trkpt lat="42.4362360" lon="-2.8376490">
        <ele>564.2</ele>
        <time>2022-06-27T08:08:55Z</time>
      </trkpt>
      <trkpt lat="42.4362320" lon="-2.8377140">
        <ele>564.4</ele>
        <time>2022-06-27T08:08:56Z</time>
      </trkpt>
      <trkpt lat="42.4362290" lon="-2.8377780">
        <ele>564.4</ele>
        <time>2022-06-27T08:08:57Z</time>
      </trkpt>
      <trkpt lat="42.4362260" lon="-2.8378430">
        <ele>564.8</ele>
        <time>2022-06-27T08:08:58Z</time>
      </trkpt>
      <trkpt lat="42.4362200" lon="-2.8379070">
        <ele>565.0</ele>
        <time>2022-06-27T08:08:59Z</time>
      </trkpt>
      <trkpt lat="42.4362150" lon="-2.8379700">
        <ele>565.2</ele>
        <time>2022-06-27T08:09:00Z</time>
      </trkpt>
      <trkpt lat="42.4362110" lon="-2.8380330">
        <ele>565.2</ele>
        <time>2022-06-27T08:09:01Z</time>
      </trkpt>
      <trkpt lat="42.4362090" lon="-2.8380990">
        <ele>565.2</ele>
        <time>2022-06-27T08:09:02Z</time>
      </trkpt>
      <trkpt lat="42.4362060" lon="-2.8381640">
        <ele>565.6</ele>
        <time>2022-06-27T08:09:03Z</time>
      </trkpt>
      <trkpt lat="42.4362040" lon="-2.8382290">
        <ele>565.6</ele>
        <time>2022-06-27T08:09:04Z</time>
      </trkpt>
      <trkpt lat="42.4362020" lon="-2.8382920">
        <ele>566.0</ele>
        <time>2022-06-27T08:09:05Z</time>
      </trkpt>
      <trkpt lat="42.4362000" lon="-2.8383530">
        <ele>566.2</ele>
        <time>2022-06-27T08:09:06Z</time>
      </trkpt>
      <trkpt lat="42.4361990" lon="-2.8384200">
        <ele>566.4</ele>
        <time>2022-06-27T08:09:07Z</time>
      </trkpt>
      <trkpt lat="42.4361980" lon="-2.8384860">
        <ele>566.4</ele>
        <time>2022-06-27T08:09:08Z</time>
      </trkpt>
      <trkpt lat="42.4361970" lon="-2.8385510">
        <ele>566.6</ele>
        <time>2022-06-27T08:09:09Z</time>
      </trkpt>
      <trkpt lat="42.4361950" lon="-2.8386150">
        <ele>566.8</ele>
        <time>2022-06-27T08:09:10Z</time>
      </trkpt>
      <trkpt lat="42.4361930" lon="-2.8386760">
        <ele>567.0</ele>
        <time>2022-06-27T08:09:11Z</time>
      </trkpt>
      <trkpt lat="42.4361940" lon="-2.8387370">
        <ele>567.2</ele>
        <time>2022-06-27T08:09:12Z</time>
      </trkpt>
      <trkpt lat="42.4361940" lon="-2.8388010">
        <ele>567.4</ele>
        <time>2022-06-27T08:09:13Z</time>
      </trkpt>
      <trkpt lat="42.4361960" lon="-2.8388650">
        <ele>567.6</ele>
        <time>2022-06-27T08:09:14Z</time>
      </trkpt>
      <trkpt lat="42.4362000" lon="-2.8389250">
        <ele>567.8</ele>
        <time>2022-06-27T08:09:15Z</time>
      </trkpt>
      <trkpt lat="42.4362040" lon="-2.8389870">
        <ele>567.8</ele>
        <time>2022-06-27T08:09:16Z</time>
      </trkpt>
      <trkpt lat="42.4362080" lon="-2.8390510">
        <ele>568.0</ele>
        <time>2022-06-27T08:09:17Z</time>
      </trkpt>
      <trkpt lat="42.4362140" lon="-2.8391140">
        <ele>568.0</ele>
        <time>2022-06-27T08:09:18Z</time>
      </trkpt>
      <trkpt lat="42.4362230" lon="-2.8391770">
        <ele>568.2</ele>
        <time>2022-06-27T08:09:19Z</time>
      </trkpt>
      <trkpt lat="42.4362310" lon="-2.8392370">
        <ele>568.4</ele>
        <time>2022-06-27T08:09:20Z</time>
      </trkpt>
      <trkpt lat="42.4362380" lon="-2.8392970">
        <ele>568.6</ele>
        <time>2022-06-27T08:09:21Z</time>
      </trkpt>
      <trkpt lat="42.4362470" lon="-2.8393580">
        <ele>568.8</ele>
        <time>2022-06-27T08:09:22Z</time>
      </trkpt>
      <trkpt lat="42.4362570" lon="-2.8394210">
        <ele>569.0</ele>
        <time>2022-06-27T08:09:23Z</time>
      </trkpt>
      <trkpt lat="42.4362670" lon="-2.8394800">
        <ele>569.4</ele>
        <time>2022-06-27T08:09:24Z</time>
      </trkpt>
      <trkpt lat="42.4362790" lon="-2.8395370">
        <ele>569.6</ele>
        <time>2022-06-27T08:09:25Z</time>
      </trkpt>
      <trkpt lat="42.4362940" lon="-2.8395920">
        <ele>569.8</ele>
        <time>2022-06-27T08:09:26Z</time>
      </trkpt>
      <trkpt lat="42.4363100" lon="-2.8396470">
        <ele>570.0</ele>
        <time>2022-06-27T08:09:27Z</time>
      </trkpt>
      <trkpt lat="42.4363270" lon="-2.8397030">
        <ele>570.2</ele>
        <time>2022-06-27T08:09:28Z</time>
      </trkpt>
      <trkpt lat="42.4363430" lon="-2.8397610">
        <ele>570.2</ele>
        <time>2022-06-27T08:09:29Z</time>
      </trkpt>
      <trkpt lat="42.4363590" lon="-2.8398180">
        <ele>570.6</ele>
        <time>2022-06-27T08:09:30Z</time>
      </trkpt>
      <trkpt lat="42.4363760" lon="-2.8398710">
        <ele>570.8</ele>
        <time>2022-06-27T08:09:31Z</time>
      </trkpt>
      <trkpt lat="42.4363940" lon="-2.8399230">
        <ele>571.0</ele>
        <time>2022-06-27T08:09:32Z</time>
      </trkpt>
      <trkpt lat="42.4364110" lon="-2.8399770">
        <ele>571.2</ele>
        <time>2022-06-27T08:09:33Z</time>
      </trkpt>
      <trkpt lat="42.4364260" lon="-2.8400320">
        <ele>571.2</ele>
        <time>2022-06-27T08:09:34Z</time>
      </trkpt>
      <trkpt lat="42.4364400" lon="-2.8400840">
        <ele>571.6</ele>
        <time>2022-06-27T08:09:35Z</time>
      </trkpt>
      <trkpt lat="42.4364570" lon="-2.8401390">
        <ele>571.8</ele>
        <time>2022-06-27T08:09:36Z</time>
      </trkpt>
      <trkpt lat="42.4364730" lon="-2.8401970">
        <ele>572.2</ele>
        <time>2022-06-27T08:09:37Z</time>
      </trkpt>
      <trkpt lat="42.4364890" lon="-2.8402550">
        <ele>572.4</ele>
        <time>2022-06-27T08:09:38Z</time>
      </trkpt>
      <trkpt lat="42.4365060" lon="-2.8403110">
        <ele>572.4</ele>
        <time>2022-06-27T08:09:39Z</time>
      </trkpt>
      <trkpt lat="42.4365250" lon="-2.8403650">
        <ele>572.6</ele>
        <time>2022-06-27T08:09:40Z</time>
      </trkpt>
      <trkpt lat="42.4365440" lon="-2.8404210">
        <ele>572.6</ele>
        <time>2022-06-27T08:09:41Z</time>
      </trkpt>
      <trkpt lat="42.4365610" lon="-2.8404770">
        <ele>572.8</ele>
        <time>2022-06-27T08:09:42Z</time>
      </trkpt>
      <trkpt lat="42.4365800" lon="-2.8405340">
        <ele>572.8</ele>
        <time>2022-06-27T08:09:43Z</time>
      </trkpt>
      <trkpt lat="42.4365980" lon="-2.8405890">
        <ele>573.0</ele>
        <time>2022-06-27T08:09:44Z</time>
      </trkpt>
      <trkpt lat="42.4366160" lon="-2.8406440">
        <ele>573.0</ele>
        <time>2022-06-27T08:09:45Z</time>
      </trkpt>
      <trkpt lat="42.4366360" lon="-2.8407010">
        <ele>573.2</ele>
        <time>2022-06-27T08:09:46Z</time>
      </trkpt>
      <trkpt lat="42.4366550" lon="-2.8407560">
        <ele>573.4</ele>
        <time>2022-06-27T08:09:47Z</time>
      </trkpt>
      <trkpt lat="42.4366740" lon="-2.8408110">
        <ele>573.4</ele>
        <time>2022-06-27T08:09:48Z</time>
      </trkpt>
      <trkpt lat="42.4366900" lon="-2.8408660">
        <ele>573.8</ele>
        <time>2022-06-27T08:09:49Z</time>
      </trkpt>
      <trkpt lat="42.4367070" lon="-2.8409210">
        <ele>573.8</ele>
        <time>2022-06-27T08:09:50Z</time>
      </trkpt>
      <trkpt lat="42.4367250" lon="-2.8409740">
        <ele>574.0</ele>
        <time>2022-06-27T08:09:51Z</time>
      </trkpt>
      <trkpt lat="42.4367430" lon="-2.8410270">
        <ele>574.2</ele>
        <time>2022-06-27T08:09:52Z</time>
      </trkpt>
      <trkpt lat="42.4367620" lon="-2.8410820">
        <ele>574.2</ele>
        <time>2022-06-27T08:09:53Z</time>
      </trkpt>
      <trkpt lat="42.4367780" lon="-2.8411390">
        <ele>574.4</ele>
        <time>2022-06-27T08:09:54Z</time>
      </trkpt>
      <trkpt lat="42.4367950" lon="-2.8411980">
        <ele>574.6</ele>
        <time>2022-06-27T08:09:55Z</time>
      </trkpt>
      <trkpt lat="42.4368100" lon="-2.8412560">
        <ele>574.8</ele>
        <time>2022-06-27T08:09:56Z</time>
      </trkpt>
      <trkpt lat="42.4368280" lon="-2.8413140">
        <ele>575.0</ele>
        <time>2022-06-27T08:09:57Z</time>
      </trkpt>
      <trkpt lat="42.4368480" lon="-2.8413700">
        <ele>575.2</ele>
        <time>2022-06-27T08:09:58Z</time>
      </trkpt>
      <trkpt lat="42.4368650" lon="-2.8414270">
        <ele>575.4</ele>
        <time>2022-06-27T08:09:59Z</time>
      </trkpt>
      <trkpt lat="42.4368810" lon="-2.8414840">
        <ele>575.8</ele>
        <time>2022-06-27T08:10:00Z</time>
      </trkpt>
      <trkpt lat="42.4368950" lon="-2.8415390">
        <ele>576.0</ele>
        <time>2022-06-27T08:10:01Z</time>
      </trkpt>
      <trkpt lat="42.4369100" lon="-2.8415950">
        <ele>576.2</ele>
        <time>2022-06-27T08:10:02Z</time>
      </trkpt>
      <trkpt lat="42.4369270" lon="-2.8416520">
        <ele>576.4</ele>
        <time>2022-06-27T08:10:03Z</time>
      </trkpt>
      <trkpt lat="42.4369450" lon="-2.8417070">
        <ele>576.6</ele>
        <time>2022-06-27T08:10:04Z</time>
      </trkpt>
      <trkpt lat="42.4369620" lon="-2.8417630">
        <ele>577.0</ele>
        <time>2022-06-27T08:10:05Z</time>
      </trkpt>
      <trkpt lat="42.4369780" lon="-2.8418200">
        <ele>577.2</ele>
        <time>2022-06-27T08:10:06Z</time>
      </trkpt>
      <trkpt lat="42.4369950" lon="-2.8418780">
        <ele>577.4</ele>
        <time>2022-06-27T08:10:07Z</time>
      </trkpt>
      <trkpt lat="42.4370110" lon="-2.8419370">
        <ele>577.6</ele>
        <time>2022-06-27T08:10:08Z</time>
      </trkpt>
      <trkpt lat="42.4370270" lon="-2.8419940">
        <ele>577.6</ele>
        <time>2022-06-27T08:10:09Z</time>
      </trkpt>
      <trkpt lat="42.4370430" lon="-2.8420530">
        <ele>577.8</ele>
        <time>2022-06-27T08:10:10Z</time>
      </trkpt>
      <trkpt lat="42.4370600" lon="-2.8421110">
        <ele>577.8</ele>
        <time>2022-06-27T08:10:11Z</time>
      </trkpt>
      <trkpt lat="42.4370800" lon="-2.8421690">
        <ele>577.8</ele>
        <time>2022-06-27T08:10:12Z</time>
      </trkpt>
      <trkpt lat="42.4371010" lon="-2.8422270">
        <ele>578.0</ele>
        <time>2022-06-27T08:10:13Z</time>
      </trkpt>
      <trkpt lat="42.4371200" lon="-2.8422850">
        <ele>578.4</ele>
        <time>2022-06-27T08:10:14Z</time>
      </trkpt>
      <trkpt lat="42.4371390" lon="-2.8423430">
        <ele>578.8</ele>
        <time>2022-06-27T08:10:15Z</time>
      </trkpt>
      <trkpt lat="42.4371570" lon="-2.8424010">
        <ele>578.8</ele>
        <time>2022-06-27T08:10:16Z</time>
      </trkpt>
      <trkpt lat="42.4371760" lon="-2.8424570">
        <ele>579.0</ele>
        <time>2022-06-27T08:10:17Z</time>
      </trkpt>
      <trkpt lat="42.4371940" lon="-2.8425130">
        <ele>579.0</ele>
        <time>2022-06-27T08:10:18Z</time>
      </trkpt>
      <trkpt lat="42.4372140" lon="-2.8425700">
        <ele>579.4</ele>
        <time>2022-06-27T08:10:19Z</time>
      </trkpt>
      <trkpt lat="42.4372330" lon="-2.8426270">
        <ele>579.4</ele>
        <time>2022-06-27T08:10:20Z</time>
      </trkpt>
      <trkpt lat="42.4372530" lon="-2.8426840">
        <ele>579.8</ele>
        <time>2022-06-27T08:10:21Z</time>
      </trkpt>
      <trkpt lat="42.4372710" lon="-2.8427420">
        <ele>580.0</ele>
        <time>2022-06-27T08:10:22Z</time>
      </trkpt>
      <trkpt lat="42.4372890" lon="-2.8428010">
        <ele>580.2</ele>
        <time>2022-06-27T08:10:23Z</time>
      </trkpt>
      <trkpt lat="42.4373090" lon="-2.8428600">
        <ele>580.2</ele>
        <time>2022-06-27T08:10:24Z</time>
      </trkpt>
      <trkpt lat="42.4373280" lon="-2.8429180">
        <ele>580.4</ele>
        <time>2022-06-27T08:10:25Z</time>
      </trkpt>
      <trkpt lat="42.4373470" lon="-2.8429760">
        <ele>580.4</ele>
        <time>2022-06-27T08:10:26Z</time>
      </trkpt>
      <trkpt lat="42.4373660" lon="-2.8430330">
        <ele>580.6</ele>
        <time>2022-06-27T08:10:27Z</time>
      </trkpt>
      <trkpt lat="42.4373840" lon="-2.8430910">
        <ele>581.2</ele>
        <time>2022-06-27T08:10:28Z</time>
      </trkpt>
      <trkpt lat="42.4374010" lon="-2.8431470">
        <ele>581.4</ele>
        <time>2022-06-27T08:10:29Z</time>
      </trkpt>
      <trkpt lat="42.4374180" lon="-2.8432020">
        <ele>581.6</ele>
        <time>2022-06-27T08:10:30Z</time>
      </trkpt>
      <trkpt lat="42.4374350" lon="-2.8432600">
        <ele>581.8</ele>
        <time>2022-06-27T08:10:31Z</time>
      </trkpt>
      <trkpt lat="42.4374510" lon="-2.8433160">
        <ele>582.0</ele>
        <time>2022-06-27T08:10:32Z</time>
      </trkpt>
      <trkpt lat="42.4374690" lon="-2.8433720">
        <ele>582.2</ele>
        <time>2022-06-27T08:10:33Z</time>
      </trkpt>
      <trkpt lat="42.4374870" lon="-2.8434290">
        <ele>582.2</ele>
        <time>2022-06-27T08:10:34Z</time>
      </trkpt>
      <trkpt lat="42.4375040" lon="-2.8434850">
        <ele>582.8</ele>
        <time>2022-06-27T08:10:35Z</time>
      </trkpt>
      <trkpt lat="42.4375210" lon="-2.8435410">
        <ele>582.8</ele>
        <time>2022-06-27T08:10:36Z</time>
      </trkpt>
      <trkpt lat="42.4375370" lon="-2.8435980">
        <ele>583.2</ele>
        <time>2022-06-27T08:10:37Z</time>
      </trkpt>
      <trkpt lat="42.4375540" lon="-2.8436540">
        <ele>583.4</ele>
        <time>2022-06-27T08:10:38Z</time>
      </trkpt>
      <trkpt lat="42.4375710" lon="-2.8437090">
        <ele>583.6</ele>
        <time>2022-06-27T08:10:39Z</time>
      </trkpt>
      <trkpt lat="42.4375910" lon="-2.8437650">
        <ele>583.8</ele>
        <time>2022-06-27T08:10:40Z</time>
      </trkpt>
      <trkpt lat="42.4376080" lon="-2.8438200">
        <ele>583.8</ele>
        <time>2022-06-27T08:10:41Z</time>
      </trkpt>
      <trkpt lat="42.4376250" lon="-2.8438750">
        <ele>584.2</ele>
        <time>2022-06-27T08:10:42Z</time>
      </trkpt>
      <trkpt lat="42.4376430" lon="-2.8439300">
        <ele>584.2</ele>
        <time>2022-06-27T08:10:43Z</time>
      </trkpt>
      <trkpt lat="42.4376600" lon="-2.8439860">
        <ele>584.4</ele>
        <time>2022-06-27T08:10:44Z</time>
      </trkpt>
      <trkpt lat="42.4376770" lon="-2.8440420">
        <ele>584.8</ele>
        <time>2022-06-27T08:10:45Z</time>
      </trkpt>
      <trkpt lat="42.4376960" lon="-2.8440970">
        <ele>584.8</ele>
        <time>2022-06-27T08:10:46Z</time>
      </trkpt>
      <trkpt lat="42.4377130" lon="-2.8441530">
        <ele>585.2</ele>
        <time>2022-06-27T08:10:47Z</time>
      </trkpt>
      <trkpt lat="42.4377300" lon="-2.8442080">
        <ele>585.2</ele>
        <time>2022-06-27T08:10:48Z</time>
      </trkpt>
      <trkpt lat="42.4377460" lon="-2.8442640">
        <ele>585.6</ele>
        <time>2022-06-27T08:10:49Z</time>
      </trkpt>
      <trkpt lat="42.4377630" lon="-2.8443200">
        <ele>585.6</ele>
        <time>2022-06-27T08:10:50Z</time>
      </trkpt>
      <trkpt lat="42.4377810" lon="-2.8443750">
        <ele>585.8</ele>
        <time>2022-06-27T08:10:51Z</time>
      </trkpt>
      <trkpt lat="42.4378000" lon="-2.8444300">
        <ele>586.0</ele>
        <time>2022-06-27T08:10:52Z</time>
      </trkpt>
      <trkpt lat="42.4378170" lon="-2.8444840">
        <ele>586.2</ele>
        <time>2022-06-27T08:10:53Z</time>
      </trkpt>
      <trkpt lat="42.4378330" lon="-2.8445390">
        <ele>586.4</ele>
        <time>2022-06-27T08:10:54Z</time>
      </trkpt>
      <trkpt lat="42.4378500" lon="-2.8445940">
        <ele>586.4</ele>
        <time>2022-06-27T08:10:55Z</time>
      </trkpt>
      <trkpt lat="42.4378680" lon="-2.8446480">
        <ele>586.6</ele>
        <time>2022-06-27T08:10:56Z</time>
      </trkpt>
      <trkpt lat="42.4378850" lon="-2.8447020">
        <ele>586.8</ele>
        <time>2022-06-27T08:10:57Z</time>
      </trkpt>
      <trkpt lat="42.4379010" lon="-2.8447580">
        <ele>587.0</ele>
        <time>2022-06-27T08:10:58Z</time>
      </trkpt>
      <trkpt lat="42.4379180" lon="-2.8448150">
        <ele>587.2</ele>
        <time>2022-06-27T08:10:59Z</time>
      </trkpt>
      <trkpt lat="42.4379340" lon="-2.8448690">
        <ele>587.4</ele>
        <time>2022-06-27T08:11:00Z</time>
      </trkpt>
      <trkpt lat="42.4379520" lon="-2.8449230">
        <ele>587.8</ele>
        <time>2022-06-27T08:11:01Z</time>
      </trkpt>
      <trkpt lat="42.4379700" lon="-2.8449760">
        <ele>587.8</ele>
        <time>2022-06-27T08:11:02Z</time>
      </trkpt>
      <trkpt lat="42.4379890" lon="-2.8450310">
        <ele>588.2</ele>
        <time>2022-06-27T08:11:03Z</time>
      </trkpt>
      <trkpt lat="42.4380080" lon="-2.8450880">
        <ele>588.2</ele>
        <time>2022-06-27T08:11:04Z</time>
      </trkpt>
      <trkpt lat="42.4380240" lon="-2.8451460">
        <ele>588.4</ele>
        <time>2022-06-27T08:11:05Z</time>
      </trkpt>
      <trkpt lat="42.4380400" lon="-2.8452020">
        <ele>588.6</ele>
        <time>2022-06-27T08:11:06Z</time>
      </trkpt>
      <trkpt lat="42.4380570" lon="-2.8452580">
        <ele>589.0</ele>
        <time>2022-06-27T08:11:07Z</time>
      </trkpt>
      <trkpt lat="42.4380720" lon="-2.8453120">
        <ele>589.4</ele>
        <time>2022-06-27T08:11:08Z</time>
      </trkpt>
      <trkpt lat="42.4380890" lon="-2.8453660">
        <ele>589.4</ele>
        <time>2022-06-27T08:11:09Z</time>
      </trkpt>
      <trkpt lat="42.4381080" lon="-2.8454220">
        <ele>589.6</ele>
        <time>2022-06-27T08:11:10Z</time>
      </trkpt>
      <trkpt lat="42.4381280" lon="-2.8454770">
        <ele>589.8</ele>
        <time>2022-06-27T08:11:11Z</time>
      </trkpt>
      <trkpt lat="42.4381460" lon="-2.8455310">
        <ele>590.0</ele>
        <time>2022-06-27T08:11:12Z</time>
      </trkpt>
      <trkpt lat="42.4381650" lon="-2.8455860">
        <ele>590.2</ele>
        <time>2022-06-27T08:11:13Z</time>
      </trkpt>
      <trkpt lat="42.4381820" lon="-2.8456400">
        <ele>590.6</ele>
        <time>2022-06-27T08:11:14Z</time>
      </trkpt>
      <trkpt lat="42.4381970" lon="-2.8456960">
        <ele>590.8</ele>
        <time>2022-06-27T08:11:15Z</time>
      </trkpt>
      <trkpt lat="42.4382130" lon="-2.8457530">
        <ele>591.0</ele>
        <time>2022-06-27T08:11:16Z</time>
      </trkpt>
      <trkpt lat="42.4382280" lon="-2.8458100">
        <ele>591.4</ele>
        <time>2022-06-27T08:11:17Z</time>
      </trkpt>
      <trkpt lat="42.4382440" lon="-2.8458650">
        <ele>591.4</ele>
        <time>2022-06-27T08:11:18Z</time>
      </trkpt>
      <trkpt lat="42.4382630" lon="-2.8459190">
        <ele>591.6</ele>
        <time>2022-06-27T08:11:19Z</time>
      </trkpt>
      <trkpt lat="42.4382820" lon="-2.8459730">
        <ele>591.8</ele>
        <time>2022-06-27T08:11:20Z</time>
      </trkpt>
      <trkpt lat="42.4383000" lon="-2.8460250">
        <ele>592.0</ele>
        <time>2022-06-27T08:11:21Z</time>
      </trkpt>
      <trkpt lat="42.4383170" lon="-2.8460790">
        <ele>592.0</ele>
        <time>2022-06-27T08:11:22Z</time>
      </trkpt>
      <trkpt lat="42.4383340" lon="-2.8461340">
        <ele>592.4</ele>
        <time>2022-06-27T08:11:23Z</time>
      </trkpt>
      <trkpt lat="42.4383500" lon="-2.8461890">
        <ele>592.6</ele>
        <time>2022-06-27T08:11:24Z</time>
      </trkpt>
      <trkpt lat="42.4383680" lon="-2.8462450">
        <ele>592.6</ele>
        <time>2022-06-27T08:11:25Z</time>
      </trkpt>
      <trkpt lat="42.4383860" lon="-2.8463010">
        <ele>593.0</ele>
        <time>2022-06-27T08:11:26Z</time>
      </trkpt>
      <trkpt lat="42.4384050" lon="-2.8463560">
        <ele>593.2</ele>
        <time>2022-06-27T08:11:27Z</time>
      </trkpt>
      <trkpt lat="42.4384230" lon="-2.8464120">
        <ele>593.6</ele>
        <time>2022-06-27T08:11:28Z</time>
      </trkpt>
      <trkpt lat="42.4384400" lon="-2.8464680">
        <ele>593.6</ele>
        <time>2022-06-27T08:11:29Z</time>
      </trkpt>
      <trkpt lat="42.4384570" lon="-2.8465240">
        <ele>593.8</ele>
        <time>2022-06-27T08:11:30Z</time>
      </trkpt>
      <trkpt lat="42.4384740" lon="-2.8465810">
        <ele>594.0</ele>
        <time>2022-06-27T08:11:31Z</time>
      </trkpt>
      <trkpt lat="42.4384930" lon="-2.8466370">
        <ele>594.2</ele>
        <time>2022-06-27T08:11:32Z</time>
      </trkpt>
      <trkpt lat="42.4385120" lon="-2.8466930">
        <ele>594.4</ele>
        <time>2022-06-27T08:11:33Z</time>
      </trkpt>
      <trkpt lat="42.4385300" lon="-2.8467510">
        <ele>594.6</ele>
        <time>2022-06-27T08:11:34Z</time>
      </trkpt>
      <trkpt lat="42.4385480" lon="-2.8468070">
        <ele>595.0</ele>
        <time>2022-06-27T08:11:35Z</time>
      </trkpt>
      <trkpt lat="42.4385670" lon="-2.8468650">
        <ele>595.0</ele>
        <time>2022-06-27T08:11:36Z</time>
      </trkpt>
      <trkpt lat="42.4385850" lon="-2.8469250">
        <ele>595.4</ele>
        <time>2022-06-27T08:11:37Z</time>
      </trkpt>
      <trkpt lat="42.4386030" lon="-2.8469830">
        <ele>595.6</ele>
        <time>2022-06-27T08:11:38Z</time>
      </trkpt>
      <trkpt lat="42.4386220" lon="-2.8470400">
        <ele>595.8</ele>
        <time>2022-06-27T08:11:39Z</time>
      </trkpt>
      <trkpt lat="42.4386390" lon="-2.8470970">
        <ele>596.2</ele>
        <time>2022-06-27T08:11:40Z</time>
      </trkpt>
      <trkpt lat="42.4386580" lon="-2.8471550">
        <ele>596.4</ele>
        <time>2022-06-27T08:11:41Z</time>
      </trkpt>
      <trkpt lat="42.4386750" lon="-2.8472140">
        <ele>596.6</ele>
        <time>2022-06-27T08:11:42Z</time>
      </trkpt>
      <trkpt lat="42.4386930" lon="-2.8472740">
        <ele>596.8</ele>
        <time>2022-06-27T08:11:43Z</time>
      </trkpt>
      <trkpt lat="42.4387110" lon="-2.8473330">
        <ele>597.0</ele>
        <time>2022-06-27T08:11:44Z</time>
      </trkpt>
      <trkpt lat="42.4387300" lon="-2.8473930">
        <ele>597.0</ele>
        <time>2022-06-27T08:11:45Z</time>
      </trkpt>
      <trkpt lat="42.4387500" lon="-2.8474530">
        <ele>597.2</ele>
        <time>2022-06-27T08:11:46Z</time>
      </trkpt>
      <trkpt lat="42.4387700" lon="-2.8475110">
        <ele>597.4</ele>
        <time>2022-06-27T08:11:47Z</time>
      </trkpt>
      <trkpt lat="42.4387880" lon="-2.8475680">
        <ele>597.6</ele>
        <time>2022-06-27T08:11:48Z</time>
      </trkpt>
      <trkpt lat="42.4388090" lon="-2.8476260">
        <ele>597.8</ele>
        <time>2022-06-27T08:11:49Z</time>
      </trkpt>
      <trkpt lat="42.4388280" lon="-2.8476840">
        <ele>598.0</ele>
        <time>2022-06-27T08:11:50Z</time>
      </trkpt>
      <trkpt lat="42.4388460" lon="-2.8477420">
        <ele>598.4</ele>
        <time>2022-06-27T08:11:51Z</time>
      </trkpt>
      <trkpt lat="42.4388650" lon="-2.8477970">
        <ele>598.6</ele>
        <time>2022-06-27T08:11:52Z</time>
      </trkpt>
      <trkpt lat="42.4388820" lon="-2.8478550">
        <ele>598.8</ele>
        <time>2022-06-27T08:11:53Z</time>
      </trkpt>
      <trkpt lat="42.4389000" lon="-2.8479120">
        <ele>599.2</ele>
        <time>2022-06-27T08:11:54Z</time>
      </trkpt>
      <trkpt lat="42.4389160" lon="-2.8479690">
        <ele>599.2</ele>
        <time>2022-06-27T08:11:55Z</time>
      </trkpt>
      <trkpt lat="42.4389340" lon="-2.8480270">
        <ele>599.8</ele>
        <time>2022-06-27T08:11:56Z</time>
      </trkpt>
      <trkpt lat="42.4389520" lon="-2.8480850">
        <ele>600.0</ele>
        <time>2022-06-27T08:11:57Z</time>
      </trkpt>
      <trkpt lat="42.4389690" lon="-2.8481400">
        <ele>600.2</ele>
        <time>2022-06-27T08:11:58Z</time>
      </trkpt>
      <trkpt lat="42.4389860" lon="-2.8481970">
        <ele>600.4</ele>
        <time>2022-06-27T08:11:59Z</time>
      </trkpt>
      <trkpt lat="42.4390050" lon="-2.8482550">
        <ele>600.4</ele>
        <time>2022-06-27T08:12:00Z</time>
      </trkpt>
      <trkpt lat="42.4390220" lon="-2.8483130">
        <ele>600.6</ele>
        <time>2022-06-27T08:12:01Z</time>
      </trkpt>
      <trkpt lat="42.4390390" lon="-2.8483710">
        <ele>600.8</ele>
        <time>2022-06-27T08:12:02Z</time>
      </trkpt>
      <trkpt lat="42.4390570" lon="-2.8484280">
        <ele>601.2</ele>
        <time>2022-06-27T08:12:03Z</time>
      </trkpt>
      <trkpt lat="42.4390750" lon="-2.8484850">
        <ele>601.0</ele>
        <time>2022-06-27T08:12:04Z</time>
      </trkpt>
      <trkpt lat="42.4390920" lon="-2.8485420">
        <ele>601.4</ele>
        <time>2022-06-27T08:12:05Z</time>
      </trkpt>
      <trkpt lat="42.4391090" lon="-2.8485970">
        <ele>601.6</ele>
        <time>2022-06-27T08:12:06Z</time>
      </trkpt>
      <trkpt lat="42.4391260" lon="-2.8486530">
        <ele>601.8</ele>
        <time>2022-06-27T08:12:07Z</time>
      </trkpt>
      <trkpt lat="42.4391460" lon="-2.8487100">
        <ele>602.0</ele>
        <time>2022-06-27T08:12:08Z</time>
      </trkpt>
      <trkpt lat="42.4391650" lon="-2.8487660">
        <ele>602.2</ele>
        <time>2022-06-27T08:12:09Z</time>
      </trkpt>
      <trkpt lat="42.4391840" lon="-2.8488220">
        <ele>602.6</ele>
        <time>2022-06-27T08:12:10Z</time>
      </trkpt>
      <trkpt lat="42.4392010" lon="-2.8488760">
        <ele>602.8</ele>
        <time>2022-06-27T08:12:11Z</time>
      </trkpt>
      <trkpt lat="42.4392160" lon="-2.8489310">
        <ele>603.0</ele>
        <time>2022-06-27T08:12:12Z</time>
      </trkpt>
      <trkpt lat="42.4392320" lon="-2.8489860">
        <ele>603.2</ele>
        <time>2022-06-27T08:12:13Z</time>
      </trkpt>
      <trkpt lat="42.4392490" lon="-2.8490420">
        <ele>603.4</ele>
        <time>2022-06-27T08:12:14Z</time>
      </trkpt>
      <trkpt lat="42.4392660" lon="-2.8490980">
        <ele>603.4</ele>
        <time>2022-06-27T08:12:15Z</time>
      </trkpt>
      <trkpt lat="42.4392810" lon="-2.8491540">
        <ele>603.8</ele>
        <time>2022-06-27T08:12:16Z</time>
      </trkpt>
      <trkpt lat="42.4392960" lon="-2.8492070">
        <ele>604.0</ele>
        <time>2022-06-27T08:12:17Z</time>
      </trkpt>
      <trkpt lat="42.4393110" lon="-2.8492610">
        <ele>604.0</ele>
        <time>2022-06-27T08:12:18Z</time>
      </trkpt>
      <trkpt lat="42.4393260" lon="-2.8493150">
        <ele>604.2</ele>
        <time>2022-06-27T08:12:19Z</time>
      </trkpt>
      <trkpt lat="42.4393420" lon="-2.8493710">
        <ele>604.2</ele>
        <time>2022-06-27T08:12:20Z</time>
      </trkpt>
      <trkpt lat="42.4393550" lon="-2.8494240">
        <ele>604.4</ele>
        <time>2022-06-27T08:12:21Z</time>
      </trkpt>
      <trkpt lat="42.4393690" lon="-2.8494770">
        <ele>605.0</ele>
        <time>2022-06-27T08:12:22Z</time>
      </trkpt>
      <trkpt lat="42.4393820" lon="-2.8495280">
        <ele>605.4</ele>
        <time>2022-06-27T08:12:23Z</time>
      </trkpt>
      <trkpt lat="42.4393930" lon="-2.8495820">
        <ele>605.6</ele>
        <time>2022-06-27T08:12:24Z</time>
      </trkpt>
      <trkpt lat="42.4394070" lon="-2.8496360">
        <ele>605.8</ele>
        <time>2022-06-27T08:12:25Z</time>
      </trkpt>
      <trkpt lat="42.4394190" lon="-2.8496940">
        <ele>606.0</ele>
        <time>2022-06-27T08:12:26Z</time>
      </trkpt>
      <trkpt lat="42.4394300" lon="-2.8497540">
        <ele>606.2</ele>
        <time>2022-06-27T08:12:27Z</time>
      </trkpt>
      <trkpt lat="42.4394410" lon="-2.8498120">
        <ele>606.4</ele>
        <time>2022-06-27T08:12:28Z</time>
      </trkpt>
      <trkpt lat="42.4394510" lon="-2.8498700">
        <ele>606.6</ele>
        <time>2022-06-27T08:12:29Z</time>
      </trkpt>
      <trkpt lat="42.4394610" lon="-2.8499310">
        <ele>607.0</ele>
        <time>2022-06-27T08:12:30Z</time>
      </trkpt>
      <trkpt lat="42.4394690" lon="-2.8499930">
        <ele>607.4</ele>
        <time>2022-06-27T08:12:31Z</time>
      </trkpt>
      <trkpt lat="42.4394770" lon="-2.8500570">
        <ele>607.6</ele>
        <time>2022-06-27T08:12:32Z</time>
      </trkpt>
      <trkpt lat="42.4394850" lon="-2.8501210">
        <ele>607.8</ele>
        <time>2022-06-27T08:12:33Z</time>
      </trkpt>
      <trkpt lat="42.4394950" lon="-2.8501830">
        <ele>608.0</ele>
        <time>2022-06-27T08:12:34Z</time>
      </trkpt>
      <trkpt lat="42.4395060" lon="-2.8502430">
        <ele>608.2</ele>
        <time>2022-06-27T08:12:35Z</time>
      </trkpt>
      <trkpt lat="42.4395150" lon="-2.8503040">
        <ele>608.4</ele>
        <time>2022-06-27T08:12:36Z</time>
      </trkpt>
      <trkpt lat="42.4395220" lon="-2.8503670">
        <ele>608.6</ele>
        <time>2022-06-27T08:12:37Z</time>
      </trkpt>
      <trkpt lat="42.4395260" lon="-2.8504310">
        <ele>608.6</ele>
        <time>2022-06-27T08:12:38Z</time>
      </trkpt>
      <trkpt lat="42.4395290" lon="-2.8504930">
        <ele>608.8</ele>
        <time>2022-06-27T08:12:39Z</time>
      </trkpt>
      <trkpt lat="42.4395320" lon="-2.8505550">
        <ele>609.2</ele>
        <time>2022-06-27T08:12:40Z</time>
      </trkpt>
      <trkpt lat="42.4395340" lon="-2.8506180">
        <ele>609.4</ele>
        <time>2022-06-27T08:12:41Z</time>
      </trkpt>
      <trkpt lat="42.4395370" lon="-2.8506790">
        <ele>609.6</ele>
        <time>2022-06-27T08:12:42Z</time>
      </trkpt>
      <trkpt lat="42.4395400" lon="-2.8507390">
        <ele>609.8</ele>
        <time>2022-06-27T08:12:43Z</time>
      </trkpt>
      <trkpt lat="42.4395420" lon="-2.8508010">
        <ele>610.0</ele>
        <time>2022-06-27T08:12:44Z</time>
      </trkpt>
      <trkpt lat="42.4395450" lon="-2.8508610">
        <ele>610.2</ele>
        <time>2022-06-27T08:12:45Z</time>
      </trkpt>
      <trkpt lat="42.4395450" lon="-2.8509210">
        <ele>610.4</ele>
        <time>2022-06-27T08:12:46Z</time>
      </trkpt>
      <trkpt lat="42.4395460" lon="-2.8509800">
        <ele>610.6</ele>
        <time>2022-06-27T08:12:47Z</time>
      </trkpt>
      <trkpt lat="42.4395480" lon="-2.8510400">
        <ele>610.6</ele>
        <time>2022-06-27T08:12:48Z</time>
      </trkpt>
      <trkpt lat="42.4395490" lon="-2.8510990">
        <ele>610.6</ele>
        <time>2022-06-27T08:12:49Z</time>
      </trkpt>
      <trkpt lat="42.4395480" lon="-2.8511580">
        <ele>610.8</ele>
        <time>2022-06-27T08:12:50Z</time>
      </trkpt>
      <trkpt lat="42.4395470" lon="-2.8512160">
        <ele>611.0</ele>
        <time>2022-06-27T08:12:51Z</time>
      </trkpt>
      <trkpt lat="42.4395460" lon="-2.8512740">
        <ele>611.2</ele>
        <time>2022-06-27T08:12:52Z</time>
      </trkpt>
      <trkpt lat="42.4395450" lon="-2.8513320">
        <ele>611.6</ele>
        <time>2022-06-27T08:12:53Z</time>
      </trkpt>
      <trkpt lat="42.4395420" lon="-2.8513900">
        <ele>611.6</ele>
        <time>2022-06-27T08:12:54Z</time>
      </trkpt>
      <trkpt lat="42.4395380" lon="-2.8514500">
        <ele>611.8</ele>
        <time>2022-06-27T08:12:55Z</time>
      </trkpt>
      <trkpt lat="42.4395330" lon="-2.8515120">
        <ele>611.8</ele>
        <time>2022-06-27T08:12:56Z</time>
      </trkpt>
      <trkpt lat="42.4395290" lon="-2.8515730">
        <ele>612.0</ele>
        <time>2022-06-27T08:12:57Z</time>
      </trkpt>
      <trkpt lat="42.4395230" lon="-2.8516340">
        <ele>612.0</ele>
        <time>2022-06-27T08:12:58Z</time>
      </trkpt>
      <trkpt lat="42.4395170" lon="-2.8516930">
        <ele>612.4</ele>
        <time>2022-06-27T08:12:59Z</time>
      </trkpt>
      <trkpt lat="42.4395120" lon="-2.8517520">
        <ele>612.6</ele>
        <time>2022-06-27T08:13:00Z</time>
      </trkpt>
      <trkpt lat="42.4395060" lon="-2.8518110">
        <ele>612.8</ele>
        <time>2022-06-27T08:13:01Z</time>
      </trkpt>
      <trkpt lat="42.4394990" lon="-2.8518720">
        <ele>613.0</ele>
        <time>2022-06-27T08:13:02Z</time>
      </trkpt>
      <trkpt lat="42.4394930" lon="-2.8519330">
        <ele>613.2</ele>
        <time>2022-06-27T08:13:03Z</time>
      </trkpt>
      <trkpt lat="42.4394880" lon="-2.8519960">
        <ele>613.4</ele>
        <time>2022-06-27T08:13:04Z</time>
      </trkpt>
      <trkpt lat="42.4394820" lon="-2.8520600">
        <ele>613.6</ele>
        <time>2022-06-27T08:13:05Z</time>
      </trkpt>
      <trkpt lat="42.4394780" lon="-2.8521260">
        <ele>613.6</ele>
        <time>2022-06-27T08:13:06Z</time>
      </trkpt>
      <trkpt lat="42.4394730" lon="-2.8521910">
        <ele>613.8</ele>
        <time>2022-06-27T08:13:07Z</time>
      </trkpt>
      <trkpt lat="42.4394690" lon="-2.8522580">
        <ele>613.8</ele>
        <time>2022-06-27T08:13:08Z</time>
      </trkpt>
      <trkpt lat="42.4394620" lon="-2.8523280">
        <ele>614.0</ele>
        <time>2022-06-27T08:13:09Z</time>
      </trkpt>
      <trkpt lat="42.4394570" lon="-2.8523980">
        <ele>614.0</ele>
        <time>2022-06-27T08:13:10Z</time>
      </trkpt>
      <trkpt lat="42.4394490" lon="-2.8524690">
        <ele>614.0</ele>
        <time>2022-06-27T08:13:11Z</time>
      </trkpt>
      <trkpt lat="42.4394420" lon="-2.8525390">
        <ele>614.0</ele>
        <time>2022-06-27T08:13:12Z</time>
      </trkpt>
      <trkpt lat="42.4394340" lon="-2.8526110">
        <ele>614.0</ele>
        <time>2022-06-27T08:13:13Z</time>
      </trkpt>
      <trkpt lat="42.4394260" lon="-2.8526840">
        <ele>614.0</ele>
        <time>2022-06-27T08:13:14Z</time>
      </trkpt>
      <trkpt lat="42.4394180" lon="-2.8527590">
        <ele>614.0</ele>
        <time>2022-06-27T08:13:15Z</time>
      </trkpt>
      <trkpt lat="42.4394110" lon="-2.8528350">
        <ele>614.0</ele>
        <time>2022-06-27T08:13:16Z</time>
      </trkpt>
      <trkpt lat="42.4394060" lon="-2.8529120">
        <ele>614.0</ele>
        <time>2022-06-27T08:13:17Z</time>
      </trkpt>
      <trkpt lat="42.4394010" lon="-2.8529880">
        <ele>614.0</ele>
        <time>2022-06-27T08:13:18Z</time>
      </trkpt>
      <trkpt lat="42.4393980" lon="-2.8530650">
        <ele>614.0</ele>
        <time>2022-06-27T08:13:19Z</time>
      </trkpt>
      <trkpt lat="42.4393970" lon="-2.8531260">
        <ele>614.2</ele>
        <time>2022-06-27T08:13:20Z</time>
      </trkpt>
      <trkpt lat="42.4393950" lon="-2.8532190">
        <ele>614.2</ele>
        <time>2022-06-27T08:13:21Z</time>
      </trkpt>
      <trkpt lat="42.4393940" lon="-2.8532960">
        <ele>614.2</ele>
        <time>2022-06-27T08:13:22Z</time>
      </trkpt>
      <trkpt lat="42.4393930" lon="-2.8533720">
        <ele>614.4</ele>
        <time>2022-06-27T08:13:23Z</time>
      </trkpt>
      <trkpt lat="42.4393930" lon="-2.8534480">
        <ele>614.4</ele>
        <time>2022-06-27T08:13:24Z</time>
      </trkpt>
      <trkpt lat="42.4393940" lon="-2.8535240">
        <ele>614.4</ele>
        <time>2022-06-27T08:13:25Z</time>
      </trkpt>
      <trkpt lat="42.4393950" lon="-2.8536000">
        <ele>614.6</ele>
        <time>2022-06-27T08:13:26Z</time>
      </trkpt>
      <trkpt lat="42.4393960" lon="-2.8536790">
        <ele>614.6</ele>
        <time>2022-06-27T08:13:27Z</time>
      </trkpt>
      <trkpt lat="42.4393990" lon="-2.8537560">
        <ele>614.6</ele>
        <time>2022-06-27T08:13:28Z</time>
      </trkpt>
      <trkpt lat="42.4394040" lon="-2.8538330">
        <ele>614.6</ele>
        <time>2022-06-27T08:13:29Z</time>
      </trkpt>
      <trkpt lat="42.4394090" lon="-2.8539080">
        <ele>614.8</ele>
        <time>2022-06-27T08:13:30Z</time>
      </trkpt>
      <trkpt lat="42.4394130" lon="-2.8539820">
        <ele>614.8</ele>
        <time>2022-06-27T08:13:31Z</time>
      </trkpt>
      <trkpt lat="42.4394200" lon="-2.8540570">
        <ele>614.8</ele>
        <time>2022-06-27T08:13:32Z</time>
      </trkpt>
      <trkpt lat="42.4394280" lon="-2.8541330">
        <ele>614.8</ele>
        <time>2022-06-27T08:13:33Z</time>
      </trkpt>
      <trkpt lat="42.4394370" lon="-2.8542080">
        <ele>615.0</ele>
        <time>2022-06-27T08:13:34Z</time>
      </trkpt>
      <trkpt lat="42.4394460" lon="-2.8542810">
        <ele>615.0</ele>
        <time>2022-06-27T08:13:35Z</time>
      </trkpt>
      <trkpt lat="42.4394550" lon="-2.8543540">
        <ele>615.0</ele>
        <time>2022-06-27T08:13:36Z</time>
      </trkpt>
      <trkpt lat="42.4394680" lon="-2.8544290">
        <ele>615.0</ele>
        <time>2022-06-27T08:13:37Z</time>
      </trkpt>
      <trkpt lat="42.4394820" lon="-2.8545050">
        <ele>615.2</ele>
        <time>2022-06-27T08:13:38Z</time>
      </trkpt>
      <trkpt lat="42.4394950" lon="-2.8545810">
        <ele>615.4</ele>
        <time>2022-06-27T08:13:39Z</time>
      </trkpt>
      <trkpt lat="42.4395070" lon="-2.8546540">
        <ele>615.6</ele>
        <time>2022-06-27T08:13:40Z</time>
      </trkpt>
      <trkpt lat="42.4395200" lon="-2.8547270">
        <ele>615.6</ele>
        <time>2022-06-27T08:13:41Z</time>
      </trkpt>
      <trkpt lat="42.4395370" lon="-2.8548000">
        <ele>615.6</ele>
        <time>2022-06-27T08:13:42Z</time>
      </trkpt>
      <trkpt lat="42.4395520" lon="-2.8548710">
        <ele>615.8</ele>
        <time>2022-06-27T08:13:43Z</time>
      </trkpt>
      <trkpt lat="42.4395680" lon="-2.8549420">
        <ele>615.8</ele>
        <time>2022-06-27T08:13:44Z</time>
      </trkpt>
      <trkpt lat="42.4395840" lon="-2.8550140">
        <ele>616.0</ele>
        <time>2022-06-27T08:13:45Z</time>
      </trkpt>
      <trkpt lat="42.4396010" lon="-2.8550850">
        <ele>616.0</ele>
        <time>2022-06-27T08:13:46Z</time>
      </trkpt>
      <trkpt lat="42.4396200" lon="-2.8551560">
        <ele>616.0</ele>
        <time>2022-06-27T08:13:47Z</time>
      </trkpt>
      <trkpt lat="42.4396410" lon="-2.8552290">
        <ele>616.0</ele>
        <time>2022-06-27T08:13:48Z</time>
      </trkpt>
      <trkpt lat="42.4396620" lon="-2.8553020">
        <ele>616.2</ele>
        <time>2022-06-27T08:13:49Z</time>
      </trkpt>
      <trkpt lat="42.4396820" lon="-2.8553750">
        <ele>616.2</ele>
        <time>2022-06-27T08:13:50Z</time>
      </trkpt>
      <trkpt lat="42.4396980" lon="-2.8554470">
        <ele>616.2</ele>
        <time>2022-06-27T08:13:51Z</time>
      </trkpt>
      <trkpt lat="42.4397170" lon="-2.8555180">
        <ele>616.2</ele>
        <time>2022-06-27T08:13:52Z</time>
      </trkpt>
      <trkpt lat="42.4397360" lon="-2.8555880">
        <ele>616.4</ele>
        <time>2022-06-27T08:13:53Z</time>
      </trkpt>
      <trkpt lat="42.4397540" lon="-2.8556580">
        <ele>616.4</ele>
        <time>2022-06-27T08:13:54Z</time>
      </trkpt>
      <trkpt lat="42.4397710" lon="-2.8557260">
        <ele>616.4</ele>
        <time>2022-06-27T08:13:55Z</time>
      </trkpt>
      <trkpt lat="42.4397900" lon="-2.8557950">
        <ele>616.6</ele>
        <time>2022-06-27T08:13:56Z</time>
      </trkpt>
      <trkpt lat="42.4398100" lon="-2.8558620">
        <ele>616.6</ele>
        <time>2022-06-27T08:13:57Z</time>
      </trkpt>
      <trkpt lat="42.4398300" lon="-2.8559290">
        <ele>616.8</ele>
        <time>2022-06-27T08:13:58Z</time>
      </trkpt>
      <trkpt lat="42.4398480" lon="-2.8559960">
        <ele>616.8</ele>
        <time>2022-06-27T08:13:59Z</time>
      </trkpt>
      <trkpt lat="42.4398650" lon="-2.8560600">
        <ele>616.8</ele>
        <time>2022-06-27T08:14:00Z</time>
      </trkpt>
      <trkpt lat="42.4398840" lon="-2.8561270">
        <ele>616.8</ele>
        <time>2022-06-27T08:14:01Z</time>
      </trkpt>
      <trkpt lat="42.4399000" lon="-2.8561940">
        <ele>617.0</ele>
        <time>2022-06-27T08:14:02Z</time>
      </trkpt>
      <trkpt lat="42.4399160" lon="-2.8562620">
        <ele>617.2</ele>
        <time>2022-06-27T08:14:03Z</time>
      </trkpt>
      <trkpt lat="42.4399330" lon="-2.8563280">
        <ele>617.4</ele>
        <time>2022-06-27T08:14:04Z</time>
      </trkpt>
      <trkpt lat="42.4399500" lon="-2.8563940">
        <ele>617.6</ele>
        <time>2022-06-27T08:14:05Z</time>
      </trkpt>
      <trkpt lat="42.4399670" lon="-2.8564600">
        <ele>617.8</ele>
        <time>2022-06-27T08:14:06Z</time>
      </trkpt>
      <trkpt lat="42.4399830" lon="-2.8565240">
        <ele>618.0</ele>
        <time>2022-06-27T08:14:07Z</time>
      </trkpt>
      <trkpt lat="42.4399990" lon="-2.8565870">
        <ele>618.2</ele>
        <time>2022-06-27T08:14:08Z</time>
      </trkpt>
      <trkpt lat="42.4400140" lon="-2.8566510">
        <ele>618.2</ele>
        <time>2022-06-27T08:14:09Z</time>
      </trkpt>
      <trkpt lat="42.4400270" lon="-2.8567150">
        <ele>618.4</ele>
        <time>2022-06-27T08:14:10Z</time>
      </trkpt>
      <trkpt lat="42.4400410" lon="-2.8567790">
        <ele>618.6</ele>
        <time>2022-06-27T08:14:11Z</time>
      </trkpt>
      <trkpt lat="42.4400550" lon="-2.8568470">
        <ele>618.6</ele>
        <time>2022-06-27T08:14:12Z</time>
      </trkpt>
      <trkpt lat="42.4400690" lon="-2.8569130">
        <ele>618.8</ele>
        <time>2022-06-27T08:14:13Z</time>
      </trkpt>
      <trkpt lat="42.4400790" lon="-2.8569820">
        <ele>619.0</ele>
        <time>2022-06-27T08:14:14Z</time>
      </trkpt>
      <trkpt lat="42.4400890" lon="-2.8570510">
        <ele>619.0</ele>
        <time>2022-06-27T08:14:15Z</time>
      </trkpt>
      <trkpt lat="42.4400980" lon="-2.8571190">
        <ele>619.2</ele>
        <time>2022-06-27T08:14:16Z</time>
      </trkpt>
      <trkpt lat="42.4401090" lon="-2.8571870">
        <ele>619.2</ele>
        <time>2022-06-27T08:14:17Z</time>
      </trkpt>
      <trkpt lat="42.4401200" lon="-2.8572560">
        <ele>619.2</ele>
        <time>2022-06-27T08:14:18Z</time>
      </trkpt>
      <trkpt lat="42.4401300" lon="-2.8573260">
        <ele>619.4</ele>
        <time>2022-06-27T08:14:19Z</time>
      </trkpt>
      <trkpt lat="42.4401380" lon="-2.8573930">
        <ele>619.6</ele>
        <time>2022-06-27T08:14:20Z</time>
      </trkpt>
      <trkpt lat="42.4401450" lon="-2.8574600">
        <ele>619.8</ele>
        <time>2022-06-27T08:14:21Z</time>
      </trkpt>
      <trkpt lat="42.4401520" lon="-2.8575270">
        <ele>619.8</ele>
        <time>2022-06-27T08:14:22Z</time>
      </trkpt>
      <trkpt lat="42.4401600" lon="-2.8575940">
        <ele>620.0</ele>
        <time>2022-06-27T08:14:23Z</time>
      </trkpt>
      <trkpt lat="42.4401670" lon="-2.8576600">
        <ele>620.0</ele>
        <time>2022-06-27T08:14:24Z</time>
      </trkpt>
      <trkpt lat="42.4401740" lon="-2.8577280">
        <ele>620.2</ele>
        <time>2022-06-27T08:14:25Z</time>
      </trkpt>
      <trkpt lat="42.4401780" lon="-2.8577960">
        <ele>620.4</ele>
        <time>2022-06-27T08:14:26Z</time>
      </trkpt>
      <trkpt lat="42.4401820" lon="-2.8578640">
        <ele>620.4</ele>
        <time>2022-06-27T08:14:27Z</time>
      </trkpt>
      <trkpt lat="42.4401850" lon="-2.8579300">
        <ele>620.6</ele>
        <time>2022-06-27T08:14:28Z</time>
      </trkpt>
      <trkpt lat="42.4401870" lon="-2.8579990">
        <ele>620.8</ele>
        <time>2022-06-27T08:14:29Z</time>
      </trkpt>
      <trkpt lat="42.4401880" lon="-2.8580670">
        <ele>621.0</ele>
        <time>2022-06-27T08:14:30Z</time>
      </trkpt>
      <trkpt lat="42.4401880" lon="-2.8581350">
        <ele>621.2</ele>
        <time>2022-06-27T08:14:31Z</time>
      </trkpt>
      <trkpt lat="42.4401890" lon="-2.8582000">
        <ele>621.6</ele>
        <time>2022-06-27T08:14:32Z</time>
      </trkpt>
      <trkpt lat="42.4401910" lon="-2.8582670">
        <ele>621.8</ele>
        <time>2022-06-27T08:14:33Z</time>
      </trkpt>
      <trkpt lat="42.4401920" lon="-2.8583330">
        <ele>621.8</ele>
        <time>2022-06-27T08:14:34Z</time>
      </trkpt>
      <trkpt lat="42.4401940" lon="-2.8583990">
        <ele>622.0</ele>
        <time>2022-06-27T08:14:35Z</time>
      </trkpt>
      <trkpt lat="42.4401960" lon="-2.8584650">
        <ele>622.2</ele>
        <time>2022-06-27T08:14:36Z</time>
      </trkpt>
      <trkpt lat="42.4401990" lon="-2.8585320">
        <ele>622.4</ele>
        <time>2022-06-27T08:14:37Z</time>
      </trkpt>
      <trkpt lat="42.4401990" lon="-2.8585980">
        <ele>622.4</ele>
        <time>2022-06-27T08:14:38Z</time>
      </trkpt>
      <trkpt lat="42.4401990" lon="-2.8586650">
        <ele>622.8</ele>
        <time>2022-06-27T08:14:39Z</time>
      </trkpt>
      <trkpt lat="42.4401970" lon="-2.8587300">
        <ele>623.0</ele>
        <time>2022-06-27T08:14:40Z</time>
      </trkpt>
      <trkpt lat="42.4401950" lon="-2.8587960">
        <ele>623.2</ele>
        <time>2022-06-27T08:14:41Z</time>
      </trkpt>
      <trkpt lat="42.4401930" lon="-2.8588630">
        <ele>623.4</ele>
        <time>2022-06-27T08:14:42Z</time>
      </trkpt>
      <trkpt lat="42.4401890" lon="-2.8589290">
        <ele>623.6</ele>
        <time>2022-06-27T08:14:43Z</time>
      </trkpt>
      <trkpt lat="42.4401850" lon="-2.8589960">
        <ele>623.6</ele>
        <time>2022-06-27T08:14:44Z</time>
      </trkpt>
      <trkpt lat="42.4401830" lon="-2.8590620">
        <ele>623.8</ele>
        <time>2022-06-27T08:14:45Z</time>
      </trkpt>
      <trkpt lat="42.4401830" lon="-2.8591290">
        <ele>624.0</ele>
        <time>2022-06-27T08:14:46Z</time>
      </trkpt>
      <trkpt lat="42.4401810" lon="-2.8591930">
        <ele>624.4</ele>
        <time>2022-06-27T08:14:47Z</time>
      </trkpt>
      <trkpt lat="42.4401790" lon="-2.8592580">
        <ele>624.4</ele>
        <time>2022-06-27T08:14:48Z</time>
      </trkpt>
      <trkpt lat="42.4401770" lon="-2.8593240">
        <ele>624.6</ele>
        <time>2022-06-27T08:14:49Z</time>
      </trkpt>
      <trkpt lat="42.4401750" lon="-2.8593890">
        <ele>624.8</ele>
        <time>2022-06-27T08:14:50Z</time>
      </trkpt>
      <trkpt lat="42.4401730" lon="-2.8594540">
        <ele>625.0</ele>
        <time>2022-06-27T08:14:51Z</time>
      </trkpt>
      <trkpt lat="42.4401700" lon="-2.8595180">
        <ele>625.0</ele>
        <time>2022-06-27T08:14:52Z</time>
      </trkpt>
      <trkpt lat="42.4401660" lon="-2.8595820">
        <ele>625.2</ele>
        <time>2022-06-27T08:14:53Z</time>
      </trkpt>
      <trkpt lat="42.4401640" lon="-2.8596450">
        <ele>625.2</ele>
        <time>2022-06-27T08:14:54Z</time>
      </trkpt>
      <trkpt lat="42.4401610" lon="-2.8597080">
        <ele>625.4</ele>
        <time>2022-06-27T08:14:55Z</time>
      </trkpt>
      <trkpt lat="42.4401580" lon="-2.8597690">
        <ele>625.6</ele>
        <time>2022-06-27T08:14:56Z</time>
      </trkpt>
      <trkpt lat="42.4401540" lon="-2.8598300">
        <ele>625.8</ele>
        <time>2022-06-27T08:14:57Z</time>
      </trkpt>
      <trkpt lat="42.4401520" lon="-2.8598900">
        <ele>626.0</ele>
        <time>2022-06-27T08:14:58Z</time>
      </trkpt>
      <trkpt lat="42.4401510" lon="-2.8599510">
        <ele>626.2</ele>
        <time>2022-06-27T08:14:59Z</time>
      </trkpt>
      <trkpt lat="42.4401470" lon="-2.8600120">
        <ele>626.4</ele>
        <time>2022-06-27T08:15:00Z</time>
      </trkpt>
      <trkpt lat="42.4401440" lon="-2.8600720">
        <ele>626.4</ele>
        <time>2022-06-27T08:15:01Z</time>
      </trkpt>
      <trkpt lat="42.4401410" lon="-2.8601320">
        <ele>626.6</ele>
        <time>2022-06-27T08:15:02Z</time>
      </trkpt>
      <trkpt lat="42.4401380" lon="-2.8601930">
        <ele>627.0</ele>
        <time>2022-06-27T08:15:03Z</time>
      </trkpt>
      <trkpt lat="42.4401370" lon="-2.8602540">
        <ele>627.2</ele>
        <time>2022-06-27T08:15:04Z</time>
      </trkpt>
      <trkpt lat="42.4401350" lon="-2.8603160">
        <ele>627.4</ele>
        <time>2022-06-27T08:15:05Z</time>
      </trkpt>
      <trkpt lat="42.4401330" lon="-2.8603790">
        <ele>627.4</ele>
        <time>2022-06-27T08:15:06Z</time>
      </trkpt>
      <trkpt lat="42.4401320" lon="-2.8604430">
        <ele>627.6</ele>
        <time>2022-06-27T08:15:07Z</time>
      </trkpt>
      <trkpt lat="42.4401300" lon="-2.8605080">
        <ele>627.6</ele>
        <time>2022-06-27T08:15:08Z</time>
      </trkpt>
      <trkpt lat="42.4401280" lon="-2.8605740">
        <ele>627.8</ele>
        <time>2022-06-27T08:15:09Z</time>
      </trkpt>
      <trkpt lat="42.4401270" lon="-2.8606420">
        <ele>628.0</ele>
        <time>2022-06-27T08:15:10Z</time>
      </trkpt>
      <trkpt lat="42.4401260" lon="-2.8607080">
        <ele>628.2</ele>
        <time>2022-06-27T08:15:11Z</time>
      </trkpt>
      <trkpt lat="42.4401230" lon="-2.8607730">
        <ele>628.4</ele>
        <time>2022-06-27T08:15:12Z</time>
      </trkpt>
      <trkpt lat="42.4401220" lon="-2.8608380">
        <ele>628.4</ele>
        <time>2022-06-27T08:15:13Z</time>
      </trkpt>
      <trkpt lat="42.4401230" lon="-2.8608990">
        <ele>628.4</ele>
        <time>2022-06-27T08:15:14Z</time>
      </trkpt>
      <trkpt lat="42.4401230" lon="-2.8609630">
        <ele>628.4</ele>
        <time>2022-06-27T08:15:15Z</time>
      </trkpt>
      <trkpt lat="42.4401220" lon="-2.8610260">
        <ele>628.8</ele>
        <time>2022-06-27T08:15:16Z</time>
      </trkpt>
      <trkpt lat="42.4401210" lon="-2.8610880">
        <ele>629.0</ele>
        <time>2022-06-27T08:15:17Z</time>
      </trkpt>
      <trkpt lat="42.4401210" lon="-2.8611490">
        <ele>629.4</ele>
        <time>2022-06-27T08:15:18Z</time>
      </trkpt>
      <trkpt lat="42.4401210" lon="-2.8612080">
        <ele>629.6</ele>
        <time>2022-06-27T08:15:19Z</time>
      </trkpt>
      <trkpt lat="42.4401200" lon="-2.8612660">
        <ele>629.8</ele>
        <time>2022-06-27T08:15:20Z</time>
      </trkpt>
      <trkpt lat="42.4401190" lon="-2.8613230">
        <ele>630.0</ele>
        <time>2022-06-27T08:15:21Z</time>
      </trkpt>
      <trkpt lat="42.4401200" lon="-2.8613800">
        <ele>630.2</ele>
        <time>2022-06-27T08:15:22Z</time>
      </trkpt>
      <trkpt lat="42.4401210" lon="-2.8614380">
        <ele>630.6</ele>
        <time>2022-06-27T08:15:23Z</time>
      </trkpt>
      <trkpt lat="42.4401200" lon="-2.8614970">
        <ele>630.8</ele>
        <time>2022-06-27T08:15:24Z</time>
      </trkpt>
      <trkpt lat="42.4401200" lon="-2.8615550">
        <ele>631.0</ele>
        <time>2022-06-27T08:15:25Z</time>
      </trkpt>
      <trkpt lat="42.4401180" lon="-2.8616140">
        <ele>631.4</ele>
        <time>2022-06-27T08:15:26Z</time>
      </trkpt>
      <trkpt lat="42.4401140" lon="-2.8616700">
        <ele>631.4</ele>
        <time>2022-06-27T08:15:27Z</time>
      </trkpt>
      <trkpt lat="42.4401110" lon="-2.8617260">
        <ele>631.8</ele>
        <time>2022-06-27T08:15:28Z</time>
      </trkpt>
      <trkpt lat="42.4401060" lon="-2.8617810">
        <ele>632.0</ele>
        <time>2022-06-27T08:15:29Z</time>
      </trkpt>
      <trkpt lat="42.4401030" lon="-2.8618360">
        <ele>632.2</ele>
        <time>2022-06-27T08:15:30Z</time>
      </trkpt>
      <trkpt lat="42.4401010" lon="-2.8618930">
        <ele>632.2</ele>
        <time>2022-06-27T08:15:31Z</time>
      </trkpt>
      <trkpt lat="42.4400990" lon="-2.8619490">
        <ele>632.4</ele>
        <time>2022-06-27T08:15:32Z</time>
      </trkpt>
      <trkpt lat="42.4401000" lon="-2.8620030">
        <ele>632.8</ele>
        <time>2022-06-27T08:15:33Z</time>
      </trkpt>
      <trkpt lat="42.4401030" lon="-2.8620560">
        <ele>633.0</ele>
        <time>2022-06-27T08:15:34Z</time>
      </trkpt>
      <trkpt lat="42.4401060" lon="-2.8621090">
        <ele>633.4</ele>
        <time>2022-06-27T08:15:35Z</time>
      </trkpt>
      <trkpt lat="42.4401090" lon="-2.8621650">
        <ele>633.6</ele>
        <time>2022-06-27T08:15:36Z</time>
      </trkpt>
      <trkpt lat="42.4401120" lon="-2.8622210">
        <ele>633.8</ele>
        <time>2022-06-27T08:15:37Z</time>
      </trkpt>
      <trkpt lat="42.4401140" lon="-2.8622760">
        <ele>634.0</ele>
        <time>2022-06-27T08:15:38Z</time>
      </trkpt>
      <trkpt lat="42.4401160" lon="-2.8623300">
        <ele>634.2</ele>
        <time>2022-06-27T08:15:39Z</time>
      </trkpt>
      <trkpt lat="42.4401170" lon="-2.8623830">
        <ele>634.4</ele>
        <time>2022-06-27T08:15:40Z</time>
      </trkpt>
      <trkpt lat="42.4401200" lon="-2.8624380">
        <ele>634.6</ele>
        <time>2022-06-27T08:15:41Z</time>
      </trkpt>
      <trkpt lat="42.4401220" lon="-2.8624910">
        <ele>635.0</ele>
        <time>2022-06-27T08:15:42Z</time>
      </trkpt>
      <trkpt lat="42.4401230" lon="-2.8625420">
        <ele>635.0</ele>
        <time>2022-06-27T08:15:43Z</time>
      </trkpt>
      <trkpt lat="42.4401220" lon="-2.8625960">
        <ele>635.2</ele>
        <time>2022-06-27T08:15:44Z</time>
      </trkpt>
      <trkpt lat="42.4401230" lon="-2.8626460">
        <ele>635.4</ele>
        <time>2022-06-27T08:15:45Z</time>
      </trkpt>
      <trkpt lat="42.4401230" lon="-2.8627010">
        <ele>635.6</ele>
        <time>2022-06-27T08:15:46Z</time>
      </trkpt>
      <trkpt lat="42.4401240" lon="-2.8627560">
        <ele>635.8</ele>
        <time>2022-06-27T08:15:47Z</time>
      </trkpt>
      <trkpt lat="42.4401250" lon="-2.8628080">
        <ele>636.0</ele>
        <time>2022-06-27T08:15:48Z</time>
      </trkpt>
      <trkpt lat="42.4401260" lon="-2.8628610">
        <ele>636.2</ele>
        <time>2022-06-27T08:15:49Z</time>
      </trkpt>
      <trkpt lat="42.4401280" lon="-2.8629160">
        <ele>636.2</ele>
        <time>2022-06-27T08:15:50Z</time>
      </trkpt>
      <trkpt lat="42.4401310" lon="-2.8629700">
        <ele>636.6</ele>
        <time>2022-06-27T08:15:51Z</time>
      </trkpt>
      <trkpt lat="42.4401340" lon="-2.8630240">
        <ele>636.8</ele>
        <time>2022-06-27T08:15:52Z</time>
      </trkpt>
      <trkpt lat="42.4401360" lon="-2.8630790">
        <ele>637.0</ele>
        <time>2022-06-27T08:15:53Z</time>
      </trkpt>
      <trkpt lat="42.4401350" lon="-2.8631280">
        <ele>637.2</ele>
        <time>2022-06-27T08:15:54Z</time>
      </trkpt>
      <trkpt lat="42.4401350" lon="-2.8631810">
        <ele>637.0</ele>
        <time>2022-06-27T08:15:55Z</time>
      </trkpt>
      <trkpt lat="42.4401370" lon="-2.8632350">
        <ele>637.4</ele>
        <time>2022-06-27T08:15:56Z</time>
      </trkpt>
      <trkpt lat="42.4401370" lon="-2.8632920">
        <ele>637.4</ele>
        <time>2022-06-27T08:15:57Z</time>
      </trkpt>
      <trkpt lat="42.4401410" lon="-2.8633450">
        <ele>637.8</ele>
        <time>2022-06-27T08:15:58Z</time>
      </trkpt>
      <trkpt lat="42.4401460" lon="-2.8634000">
        <ele>637.8</ele>
        <time>2022-06-27T08:15:59Z</time>
      </trkpt>
      <trkpt lat="42.4401500" lon="-2.8634560">
        <ele>638.2</ele>
        <time>2022-06-27T08:16:00Z</time>
      </trkpt>
      <trkpt lat="42.4401570" lon="-2.8635140">
        <ele>638.2</ele>
        <time>2022-06-27T08:16:01Z</time>
      </trkpt>
      <trkpt lat="42.4401610" lon="-2.8635660">
        <ele>638.6</ele>
        <time>2022-06-27T08:16:02Z</time>
      </trkpt>
      <trkpt lat="42.4401640" lon="-2.8636170">
        <ele>638.6</ele>
        <time>2022-06-27T08:16:03Z</time>
      </trkpt>
      <trkpt lat="42.4401700" lon="-2.8636690">
        <ele>638.8</ele>
        <time>2022-06-27T08:16:04Z</time>
      </trkpt>
      <trkpt lat="42.4401760" lon="-2.8637230">
        <ele>639.0</ele>
        <time>2022-06-27T08:16:05Z</time>
      </trkpt>
      <trkpt lat="42.4401800" lon="-2.8637760">
        <ele>639.0</ele>
        <time>2022-06-27T08:16:06Z</time>
      </trkpt>
      <trkpt lat="42.4401870" lon="-2.8638290">
        <ele>639.4</ele>
        <time>2022-06-27T08:16:07Z</time>
      </trkpt>
      <trkpt lat="42.4401930" lon="-2.8638820">
        <ele>639.4</ele>
        <time>2022-06-27T08:16:08Z</time>
      </trkpt>
      <trkpt lat="42.4401980" lon="-2.8639340">
        <ele>639.8</ele>
        <time>2022-06-27T08:16:09Z</time>
      </trkpt>
      <trkpt lat="42.4402010" lon="-2.8639850">
        <ele>640.2</ele>
        <time>2022-06-27T08:16:10Z</time>
      </trkpt>
      <trkpt lat="42.4402040" lon="-2.8640360">
        <ele>640.2</ele>
        <time>2022-06-27T08:16:11Z</time>
      </trkpt>
      <trkpt lat="42.4402060" lon="-2.8640880">
        <ele>640.4</ele>
        <time>2022-06-27T08:16:12Z</time>
      </trkpt>
      <trkpt lat="42.4402080" lon="-2.8641380">
        <ele>640.4</ele>
        <time>2022-06-27T08:16:13Z</time>
      </trkpt>
      <trkpt lat="42.4402090" lon="-2.8641890">
        <ele>640.6</ele>
        <time>2022-06-27T08:16:14Z</time>
      </trkpt>
      <trkpt lat="42.4402120" lon="-2.8642400">
        <ele>640.8</ele>
        <time>2022-06-27T08:16:15Z</time>
      </trkpt>
      <trkpt lat="42.4402200" lon="-2.8642920">
        <ele>641.0</ele>
        <time>2022-06-27T08:16:16Z</time>
      </trkpt>
      <trkpt lat="42.4402280" lon="-2.8643430">
        <ele>641.0</ele>
        <time>2022-06-27T08:16:17Z</time>
      </trkpt>
      <trkpt lat="42.4402370" lon="-2.8643910">
        <ele>641.4</ele>
        <time>2022-06-27T08:16:18Z</time>
      </trkpt>
      <trkpt lat="42.4402460" lon="-2.8644400">
        <ele>641.8</ele>
        <time>2022-06-27T08:16:19Z</time>
      </trkpt>
      <trkpt lat="42.4402520" lon="-2.8644890">
        <ele>641.8</ele>
        <time>2022-06-27T08:16:20Z</time>
      </trkpt>
      <trkpt lat="42.4402580" lon="-2.8645420">
        <ele>642.0</ele>
        <time>2022-06-27T08:16:21Z</time>
      </trkpt>
      <trkpt lat="42.4402630" lon="-2.8645950">
        <ele>642.0</ele>
        <time>2022-06-27T08:16:22Z</time>
      </trkpt>
      <trkpt lat="42.4402710" lon="-2.8646460">
        <ele>642.4</ele>
        <time>2022-06-27T08:16:23Z</time>
      </trkpt>
      <trkpt lat="42.4402790" lon="-2.8646950">
        <ele>642.6</ele>
        <time>2022-06-27T08:16:24Z</time>
      </trkpt>
      <trkpt lat="42.4402870" lon="-2.8647450">
        <ele>643.0</ele>
        <time>2022-06-27T08:16:25Z</time>
      </trkpt>
      <trkpt lat="42.4402940" lon="-2.8647990">
        <ele>643.6</ele>
        <time>2022-06-27T08:16:26Z</time>
      </trkpt>
      <trkpt lat="42.4403000" lon="-2.8648510">
        <ele>643.6</ele>
        <time>2022-06-27T08:16:27Z</time>
      </trkpt>
      <trkpt lat="42.4403040" lon="-2.8649020">
        <ele>643.8</ele>
        <time>2022-06-27T08:16:28Z</time>
      </trkpt>
      <trkpt lat="42.4403090" lon="-2.8649520">
        <ele>644.0</ele>
        <time>2022-06-27T08:16:29Z</time>
      </trkpt>
      <trkpt lat="42.4403130" lon="-2.8650010">
        <ele>644.0</ele>
        <time>2022-06-27T08:16:30Z</time>
      </trkpt>
      <trkpt lat="42.4403170" lon="-2.8650490">
        <ele>644.0</ele>
        <time>2022-06-27T08:16:31Z</time>
      </trkpt>
      <trkpt lat="42.4403190" lon="-2.8650970">
        <ele>644.4</ele>
        <time>2022-06-27T08:16:32Z</time>
      </trkpt>
      <trkpt lat="42.4403240" lon="-2.8651460">
        <ele>644.6</ele>
        <time>2022-06-27T08:16:33Z</time>
      </trkpt>
      <trkpt lat="42.4403300" lon="-2.8651970">
        <ele>644.6</ele>
        <time>2022-06-27T08:16:34Z</time>
      </trkpt>
      <trkpt lat="42.4403370" lon="-2.8652500">
        <ele>645.0</ele>
        <time>2022-06-27T08:16:35Z</time>
      </trkpt>
      <trkpt lat="42.4403460" lon="-2.8652990">
        <ele>645.2</ele>
        <time>2022-06-27T08:16:36Z</time>
      </trkpt>
      <trkpt lat="42.4403530" lon="-2.8653460">
        <ele>645.4</ele>
        <time>2022-06-27T08:16:37Z</time>
      </trkpt>
      <trkpt lat="42.4403610" lon="-2.8653950">
        <ele>645.4</ele>
        <time>2022-06-27T08:16:38Z</time>
      </trkpt>
      <trkpt lat="42.4403700" lon="-2.8654430">
        <ele>645.8</ele>
        <time>2022-06-27T08:16:39Z</time>
      </trkpt>
      <trkpt lat="42.4403770" lon="-2.8654920">
        <ele>646.0</ele>
        <time>2022-06-27T08:16:40Z</time>
      </trkpt>
      <trkpt lat="42.4403840" lon="-2.8655410">
        <ele>646.2</ele>
        <time>2022-06-27T08:16:41Z</time>
      </trkpt>
      <trkpt lat="42.4403920" lon="-2.8655920">
        <ele>646.6</ele>
        <time>2022-06-27T08:16:42Z</time>
      </trkpt>
      <trkpt lat="42.4404010" lon="-2.8656450">
        <ele>646.6</ele>
        <time>2022-06-27T08:16:43Z</time>
      </trkpt>
      <trkpt lat="42.4404090" lon="-2.8656950">
        <ele>646.8</ele>
        <time>2022-06-27T08:16:44Z</time>
      </trkpt>
      <trkpt lat="42.4404160" lon="-2.8657480">
        <ele>646.8</ele>
        <time>2022-06-27T08:16:45Z</time>
      </trkpt>
      <trkpt lat="42.4404210" lon="-2.8658030">
        <ele>647.0</ele>
        <time>2022-06-27T08:16:46Z</time>
      </trkpt>
      <trkpt lat="42.4404270" lon="-2.8658530">
        <ele>647.2</ele>
        <time>2022-06-27T08:16:47Z</time>
      </trkpt>
      <trkpt lat="42.4404320" lon="-2.8659020">
        <ele>647.4</ele>
        <time>2022-06-27T08:16:48Z</time>
      </trkpt>
      <trkpt lat="42.4404370" lon="-2.8659520">
        <ele>647.6</ele>
        <time>2022-06-27T08:16:49Z</time>
      </trkpt>
      <trkpt lat="42.4404410" lon="-2.8660000">
        <ele>647.6</ele>
        <time>2022-06-27T08:16:50Z</time>
      </trkpt>
      <trkpt lat="42.4404480" lon="-2.8660470">
        <ele>648.2</ele>
        <time>2022-06-27T08:16:51Z</time>
      </trkpt>
      <trkpt lat="42.4404580" lon="-2.8660950">
        <ele>648.4</ele>
        <time>2022-06-27T08:16:52Z</time>
      </trkpt>
      <trkpt lat="42.4404650" lon="-2.8661460">
        <ele>648.6</ele>
        <time>2022-06-27T08:16:53Z</time>
      </trkpt>
      <trkpt lat="42.4404710" lon="-2.8661970">
        <ele>648.8</ele>
        <time>2022-06-27T08:16:54Z</time>
      </trkpt>
      <trkpt lat="42.4404760" lon="-2.8662460">
        <ele>649.0</ele>
        <time>2022-06-27T08:16:55Z</time>
      </trkpt>
      <trkpt lat="42.4404800" lon="-2.8662980">
        <ele>649.2</ele>
        <time>2022-06-27T08:16:56Z</time>
      </trkpt>
      <trkpt lat="42.4404830" lon="-2.8663500">
        <ele>649.2</ele>
        <time>2022-06-27T08:16:57Z</time>
      </trkpt>
      <trkpt lat="42.4404860" lon="-2.8664010">
        <ele>649.6</ele>
        <time>2022-06-27T08:16:58Z</time>
      </trkpt>
      <trkpt lat="42.4404920" lon="-2.8664510">
        <ele>650.0</ele>
        <time>2022-06-27T08:16:59Z</time>
      </trkpt>
      <trkpt lat="42.4405000" lon="-2.8665010">
        <ele>650.2</ele>
        <time>2022-06-27T08:17:00Z</time>
      </trkpt>
      <trkpt lat="42.4405070" lon="-2.8665500">
        <ele>650.4</ele>
        <time>2022-06-27T08:17:01Z</time>
      </trkpt>
      <trkpt lat="42.4405130" lon="-2.8665970">
        <ele>650.6</ele>
        <time>2022-06-27T08:17:02Z</time>
      </trkpt>
      <trkpt lat="42.4405170" lon="-2.8666430">
        <ele>650.8</ele>
        <time>2022-06-27T08:17:03Z</time>
      </trkpt>
      <trkpt lat="42.4405190" lon="-2.8666900">
        <ele>651.0</ele>
        <time>2022-06-27T08:17:04Z</time>
      </trkpt>
      <trkpt lat="42.4405210" lon="-2.8667380">
        <ele>651.2</ele>
        <time>2022-06-27T08:17:05Z</time>
      </trkpt>
      <trkpt lat="42.4405230" lon="-2.8667860">
        <ele>651.2</ele>
        <time>2022-06-27T08:17:06Z</time>
      </trkpt>
      <trkpt lat="42.4405280" lon="-2.8668350">
        <ele>651.4</ele>
        <time>2022-06-27T08:17:07Z</time>
      </trkpt>
      <trkpt lat="42.4405340" lon="-2.8668840">
        <ele>651.4</ele>
        <time>2022-06-27T08:17:08Z</time>
      </trkpt>
      <trkpt lat="42.4405390" lon="-2.8669330">
        <ele>651.6</ele>
        <time>2022-06-27T08:17:09Z</time>
      </trkpt>
      <trkpt lat="42.4405440" lon="-2.8669820">
        <ele>651.6</ele>
        <time>2022-06-27T08:17:10Z</time>
      </trkpt>
      <trkpt lat="42.4405480" lon="-2.8670310">
        <ele>651.8</ele>
        <time>2022-06-27T08:17:11Z</time>
      </trkpt>
      <trkpt lat="42.4405500" lon="-2.8670810">
        <ele>652.2</ele>
        <time>2022-06-27T08:17:12Z</time>
      </trkpt>
      <trkpt lat="42.4405530" lon="-2.8671330">
        <ele>652.4</ele>
        <time>2022-06-27T08:17:13Z</time>
      </trkpt>
      <trkpt lat="42.4405570" lon="-2.8671850">
        <ele>652.6</ele>
        <time>2022-06-27T08:17:14Z</time>
      </trkpt>
      <trkpt lat="42.4405600" lon="-2.8672360">
        <ele>652.8</ele>
        <time>2022-06-27T08:17:15Z</time>
      </trkpt>
      <trkpt lat="42.4405640" lon="-2.8672850">
        <ele>653.0</ele>
        <time>2022-06-27T08:17:16Z</time>
      </trkpt>
      <trkpt lat="42.4405660" lon="-2.8673360">
        <ele>652.8</ele>
        <time>2022-06-27T08:17:17Z</time>
      </trkpt>
      <trkpt lat="42.4405690" lon="-2.8673870">
        <ele>653.2</ele>
        <time>2022-06-27T08:17:18Z</time>
      </trkpt>
      <trkpt lat="42.4405730" lon="-2.8674390">
        <ele>653.2</ele>
        <time>2022-06-27T08:17:19Z</time>
      </trkpt>
      <trkpt lat="42.4405750" lon="-2.8674910">
        <ele>653.2</ele>
        <time>2022-06-27T08:17:20Z</time>
      </trkpt>
      <trkpt lat="42.4405790" lon="-2.8675410">
        <ele>653.4</ele>
        <time>2022-06-27T08:17:21Z</time>
      </trkpt>
      <trkpt lat="42.4405850" lon="-2.8675920">
        <ele>653.4</ele>
        <time>2022-06-27T08:17:22Z</time>
      </trkpt>
      <trkpt lat="42.4405910" lon="-2.8676410">
        <ele>653.6</ele>
        <time>2022-06-27T08:17:23Z</time>
      </trkpt>
      <trkpt lat="42.4405950" lon="-2.8676910">
        <ele>653.8</ele>
        <time>2022-06-27T08:17:24Z</time>
      </trkpt>
      <trkpt lat="42.4405990" lon="-2.8677410">
        <ele>654.0</ele>
        <time>2022-06-27T08:17:25Z</time>
      </trkpt>
      <trkpt lat="42.4406030" lon="-2.8677880">
        <ele>654.0</ele>
        <time>2022-06-27T08:17:26Z</time>
      </trkpt>
      <trkpt lat="42.4406060" lon="-2.8678390">
        <ele>654.2</ele>
        <time>2022-06-27T08:17:27Z</time>
      </trkpt>
      <trkpt lat="42.4406090" lon="-2.8678900">
        <ele>654.2</ele>
        <time>2022-06-27T08:17:28Z</time>
      </trkpt>
      <trkpt lat="42.4406130" lon="-2.8679430">
        <ele>654.2</ele>
        <time>2022-06-27T08:17:29Z</time>
      </trkpt>
      <trkpt lat="42.4406170" lon="-2.8679950">
        <ele>654.4</ele>
        <time>2022-06-27T08:17:30Z</time>
      </trkpt>
      <trkpt lat="42.4406220" lon="-2.8680440">
        <ele>654.4</ele>
        <time>2022-06-27T08:17:31Z</time>
      </trkpt>
      <trkpt lat="42.4406250" lon="-2.8680930">
        <ele>654.6</ele>
        <time>2022-06-27T08:17:32Z</time>
      </trkpt>
      <trkpt lat="42.4406250" lon="-2.8681370">
        <ele>654.8</ele>
        <time>2022-06-27T08:17:33Z</time>
      </trkpt>
      <trkpt lat="42.4406250" lon="-2.8681780">
        <ele>655.0</ele>
        <time>2022-06-27T08:17:34Z</time>
      </trkpt>
      <trkpt lat="42.4406260" lon="-2.8682190">
        <ele>655.0</ele>
        <time>2022-06-27T08:17:35Z</time>
      </trkpt>
      <trkpt lat="42.4406270" lon="-2.8682620">
        <ele>655.2</ele>
        <time>2022-06-27T08:17:36Z</time>
      </trkpt>
      <trkpt lat="42.4406310" lon="-2.8683100">
        <ele>655.2</ele>
        <time>2022-06-27T08:17:37Z</time>
      </trkpt>
      <trkpt lat="42.4406340" lon="-2.8683610">
        <ele>655.4</ele>
        <time>2022-06-27T08:17:38Z</time>
      </trkpt>
      <trkpt lat="42.4406380" lon="-2.8684160">
        <ele>655.4</ele>
        <time>2022-06-27T08:17:39Z</time>
      </trkpt>
      <trkpt lat="42.4406420" lon="-2.8684700">
        <ele>655.4</ele>
        <time>2022-06-27T08:17:40Z</time>
      </trkpt>
      <trkpt lat="42.4406450" lon="-2.8685290">
        <ele>655.6</ele>
        <time>2022-06-27T08:17:41Z</time>
      </trkpt>
      <trkpt lat="42.4406470" lon="-2.8685940">
        <ele>655.6</ele>
        <time>2022-06-27T08:17:42Z</time>
      </trkpt>
      <trkpt lat="42.4406470" lon="-2.8686570">
        <ele>656.2</ele>
        <time>2022-06-27T08:17:43Z</time>
      </trkpt>
      <trkpt lat="42.4406460" lon="-2.8687220">
        <ele>656.4</ele>
        <time>2022-06-27T08:17:44Z</time>
      </trkpt>
      <trkpt lat="42.4406460" lon="-2.8687850">
        <ele>656.4</ele>
        <time>2022-06-27T08:17:45Z</time>
      </trkpt>
      <trkpt lat="42.4406460" lon="-2.8688470">
        <ele>656.6</ele>
        <time>2022-06-27T08:17:46Z</time>
      </trkpt>
      <trkpt lat="42.4406480" lon="-2.8689080">
        <ele>656.8</ele>
        <time>2022-06-27T08:17:47Z</time>
      </trkpt>
      <trkpt lat="42.4406470" lon="-2.8689690">
        <ele>656.8</ele>
        <time>2022-06-27T08:17:48Z</time>
      </trkpt>
      <trkpt lat="42.4406450" lon="-2.8690320">
        <ele>656.8</ele>
        <time>2022-06-27T08:17:49Z</time>
      </trkpt>
      <trkpt lat="42.4406490" lon="-2.8690950">
        <ele>657.0</ele>
        <time>2022-06-27T08:17:50Z</time>
      </trkpt>
      <trkpt lat="42.4406520" lon="-2.8691570">
        <ele>657.0</ele>
        <time>2022-06-27T08:17:51Z</time>
      </trkpt>
      <trkpt lat="42.4406520" lon="-2.8692180">
        <ele>657.2</ele>
        <time>2022-06-27T08:17:52Z</time>
      </trkpt>
      <trkpt lat="42.4406520" lon="-2.8692820">
        <ele>657.2</ele>
        <time>2022-06-27T08:17:53Z</time>
      </trkpt>
      <trkpt lat="42.4406530" lon="-2.8693460">
        <ele>657.2</ele>
        <time>2022-06-27T08:17:54Z</time>
      </trkpt>
      <trkpt lat="42.4406530" lon="-2.8694070">
        <ele>657.2</ele>
        <time>2022-06-27T08:17:55Z</time>
      </trkpt>
      <trkpt lat="42.4406510" lon="-2.8694700">
        <ele>657.2</ele>
        <time>2022-06-27T08:17:56Z</time>
      </trkpt>
      <trkpt lat="42.4406490" lon="-2.8695310">
        <ele>657.6</ele>
        <time>2022-06-27T08:17:57Z</time>
      </trkpt>
      <trkpt lat="42.4406480" lon="-2.8695920">
        <ele>657.6</ele>
        <time>2022-06-27T08:17:58Z</time>
      </trkpt>
      <trkpt lat="42.4406470" lon="-2.8696550">
        <ele>657.6</ele>
        <time>2022-06-27T08:17:59Z</time>
      </trkpt>
      <trkpt lat="42.4406460" lon="-2.8697150">
        <ele>657.8</ele>
        <time>2022-06-27T08:18:00Z</time>
      </trkpt>
      <trkpt lat="42.4406440" lon="-2.8697790">
        <ele>657.8</ele>
        <time>2022-06-27T08:18:01Z</time>
      </trkpt>
      <trkpt lat="42.4406430" lon="-2.8698440">
        <ele>657.8</ele>
        <time>2022-06-27T08:18:02Z</time>
      </trkpt>
      <trkpt lat="42.4406420" lon="-2.8699080">
        <ele>657.8</ele>
        <time>2022-06-27T08:18:03Z</time>
      </trkpt>
      <trkpt lat="42.4406380" lon="-2.8699700">
        <ele>657.8</ele>
        <time>2022-06-27T08:18:04Z</time>
      </trkpt>
      <trkpt lat="42.4406370" lon="-2.8700320">
        <ele>657.8</ele>
        <time>2022-06-27T08:18:05Z</time>
      </trkpt>
      <trkpt lat="42.4406380" lon="-2.8700930">
        <ele>658.0</ele>
        <time>2022-06-27T08:18:06Z</time>
      </trkpt>
      <trkpt lat="42.4406390" lon="-2.8701560">
        <ele>658.0</ele>
        <time>2022-06-27T08:18:07Z</time>
      </trkpt>
      <trkpt lat="42.4406390" lon="-2.8702200">
        <ele>658.0</ele>
        <time>2022-06-27T08:18:08Z</time>
      </trkpt>
      <trkpt lat="42.4406380" lon="-2.8702820">
        <ele>658.0</ele>
        <time>2022-06-27T08:18:09Z</time>
      </trkpt>
      <trkpt lat="42.4406360" lon="-2.8703450">
        <ele>658.0</ele>
        <time>2022-06-27T08:18:10Z</time>
      </trkpt>
      <trkpt lat="42.4406340" lon="-2.8704080">
        <ele>658.0</ele>
        <time>2022-06-27T08:18:11Z</time>
      </trkpt>
      <trkpt lat="42.4406320" lon="-2.8704710">
        <ele>658.2</ele>
        <time>2022-06-27T08:18:12Z</time>
      </trkpt>
      <trkpt lat="42.4406290" lon="-2.8705340">
        <ele>658.2</ele>
        <time>2022-06-27T08:18:13Z</time>
      </trkpt>
      <trkpt lat="42.4406270" lon="-2.8705950">
        <ele>658.2</ele>
        <time>2022-06-27T08:18:14Z</time>
      </trkpt>
      <trkpt lat="42.4406240" lon="-2.8706570">
        <ele>658.4</ele>
        <time>2022-06-27T08:18:15Z</time>
      </trkpt>
      <trkpt lat="42.4406240" lon="-2.8707210">
        <ele>658.4</ele>
        <time>2022-06-27T08:18:16Z</time>
      </trkpt>
      <trkpt lat="42.4406240" lon="-2.8707850">
        <ele>658.4</ele>
        <time>2022-06-27T08:18:17Z</time>
      </trkpt>
      <trkpt lat="42.4406220" lon="-2.8708480">
        <ele>658.4</ele>
        <time>2022-06-27T08:18:18Z</time>
      </trkpt>
      <trkpt lat="42.4406180" lon="-2.8709110">
        <ele>658.6</ele>
        <time>2022-06-27T08:18:19Z</time>
      </trkpt>
      <trkpt lat="42.4406150" lon="-2.8709740">
        <ele>658.6</ele>
        <time>2022-06-27T08:18:20Z</time>
      </trkpt>
      <trkpt lat="42.4406120" lon="-2.8710350">
        <ele>658.6</ele>
        <time>2022-06-27T08:18:21Z</time>
      </trkpt>
      <trkpt lat="42.4406110" lon="-2.8710980">
        <ele>658.6</ele>
        <time>2022-06-27T08:18:22Z</time>
      </trkpt>
      <trkpt lat="42.4406100" lon="-2.8711560">
        <ele>658.8</ele>
        <time>2022-06-27T08:18:23Z</time>
      </trkpt>
      <trkpt lat="42.4406120" lon="-2.8712120">
        <ele>658.8</ele>
        <time>2022-06-27T08:18:24Z</time>
      </trkpt>
      <trkpt lat="42.4406150" lon="-2.8712660">
        <ele>658.8</ele>
        <time>2022-06-27T08:18:25Z</time>
      </trkpt>
      <trkpt lat="42.4406190" lon="-2.8713170">
        <ele>658.8</ele>
        <time>2022-06-27T08:18:26Z</time>
      </trkpt>
      <trkpt lat="42.4406210" lon="-2.8713670">
        <ele>658.8</ele>
        <time>2022-06-27T08:18:27Z</time>
      </trkpt>
      <trkpt lat="42.4406220" lon="-2.8714150">
        <ele>658.8</ele>
        <time>2022-06-27T08:18:28Z</time>
      </trkpt>
      <trkpt lat="42.4405610" lon="-2.8729200">
        <ele>659.4</ele>
        <time>2022-06-27T08:20:07Z</time>
      </trkpt>
      <trkpt lat="42.4405590" lon="-2.8729660">
        <ele>659.4</ele>
        <time>2022-06-27T08:20:08Z</time>
      </trkpt>
      <trkpt lat="42.4405610" lon="-2.8730110">
        <ele>659.4</ele>
        <time>2022-06-27T08:20:09Z</time>
      </trkpt>
      <trkpt lat="42.4405630" lon="-2.8730570">
        <ele>659.4</ele>
        <time>2022-06-27T08:20:10Z</time>
      </trkpt>
      <trkpt lat="42.4405630" lon="-2.8731050">
        <ele>659.6</ele>
        <time>2022-06-27T08:20:11Z</time>
      </trkpt>
      <trkpt lat="42.4405630" lon="-2.8731570">
        <ele>659.6</ele>
        <time>2022-06-27T08:20:12Z</time>
      </trkpt>
      <trkpt lat="42.4405620" lon="-2.8732110">
        <ele>659.8</ele>
        <time>2022-06-27T08:20:13Z</time>
      </trkpt>
      <trkpt lat="42.4405600" lon="-2.8732660">
        <ele>660.0</ele>
        <time>2022-06-27T08:20:14Z</time>
      </trkpt>
      <trkpt lat="42.4405600" lon="-2.8733210">
        <ele>660.0</ele>
        <time>2022-06-27T08:20:15Z</time>
      </trkpt>
      <trkpt lat="42.4405590" lon="-2.8733780">
        <ele>660.2</ele>
        <time>2022-06-27T08:20:16Z</time>
      </trkpt>
      <trkpt lat="42.4405580" lon="-2.8734340">
        <ele>660.2</ele>
        <time>2022-06-27T08:20:17Z</time>
      </trkpt>
      <trkpt lat="42.4405570" lon="-2.8734920">
        <ele>660.2</ele>
        <time>2022-06-27T08:20:18Z</time>
      </trkpt>
      <trkpt lat="42.4405560" lon="-2.8735520">
        <ele>660.2</ele>
        <time>2022-06-27T08:20:19Z</time>
      </trkpt>
      <trkpt lat="42.4405520" lon="-2.8736110">
        <ele>660.2</ele>
        <time>2022-06-27T08:20:20Z</time>
      </trkpt>
      <trkpt lat="42.4405520" lon="-2.8736650">
        <ele>660.2</ele>
        <time>2022-06-27T08:20:21Z</time>
      </trkpt>
      <trkpt lat="42.4405540" lon="-2.8737210">
        <ele>660.2</ele>
        <time>2022-06-27T08:20:22Z</time>
      </trkpt>
      <trkpt lat="42.4405560" lon="-2.8737790">
        <ele>660.4</ele>
        <time>2022-06-27T08:20:23Z</time>
      </trkpt>
      <trkpt lat="42.4405560" lon="-2.8738380">
        <ele>660.4</ele>
        <time>2022-06-27T08:20:24Z</time>
      </trkpt>
      <trkpt lat="42.4405560" lon="-2.8738970">
        <ele>660.4</ele>
        <time>2022-06-27T08:20:25Z</time>
      </trkpt>
      <trkpt lat="42.4405560" lon="-2.8739570">
        <ele>660.4</ele>
        <time>2022-06-27T08:20:26Z</time>
      </trkpt>
      <trkpt lat="42.4405550" lon="-2.8740150">
        <ele>660.4</ele>
        <time>2022-06-27T08:20:27Z</time>
      </trkpt>
      <trkpt lat="42.4405540" lon="-2.8740750">
        <ele>660.4</ele>
        <time>2022-06-27T08:20:28Z</time>
      </trkpt>
      <trkpt lat="42.4405540" lon="-2.8741350">
        <ele>660.6</ele>
        <time>2022-06-27T08:20:29Z</time>
      </trkpt>
      <trkpt lat="42.4405540" lon="-2.8741940">
        <ele>660.6</ele>
        <time>2022-06-27T08:20:30Z</time>
      </trkpt>
      <trkpt lat="42.4405520" lon="-2.8742660">
        <ele>660.6</ele>
        <time>2022-06-27T08:20:31Z</time>
      </trkpt>
      <trkpt lat="42.4405510" lon="-2.8743160">
        <ele>660.8</ele>
        <time>2022-06-27T08:20:32Z</time>
      </trkpt>
      <trkpt lat="42.4405510" lon="-2.8743750">
        <ele>660.8</ele>
        <time>2022-06-27T08:20:33Z</time>
      </trkpt>
      <trkpt lat="42.4405510" lon="-2.8744320">
        <ele>661.0</ele>
        <time>2022-06-27T08:20:34Z</time>
      </trkpt>
      <trkpt lat="42.4405520" lon="-2.8744940">
        <ele>661.0</ele>
        <time>2022-06-27T08:20:35Z</time>
      </trkpt>
      <trkpt lat="42.4405550" lon="-2.8745530">
        <ele>661.0</ele>
        <time>2022-06-27T08:20:36Z</time>
      </trkpt>
      <trkpt lat="42.4405560" lon="-2.8746120">
        <ele>661.2</ele>
        <time>2022-06-27T08:20:37Z</time>
      </trkpt>
      <trkpt lat="42.4405550" lon="-2.8746760">
        <ele>661.2</ele>
        <time>2022-06-27T08:20:38Z</time>
      </trkpt>
      <trkpt lat="42.4405540" lon="-2.8747400">
        <ele>661.2</ele>
        <time>2022-06-27T08:20:39Z</time>
      </trkpt>
      <trkpt lat="42.4405530" lon="-2.8748040">
        <ele>661.2</ele>
        <time>2022-06-27T08:20:40Z</time>
      </trkpt>
      <trkpt lat="42.4405530" lon="-2.8748690">
        <ele>661.2</ele>
        <time>2022-06-27T08:20:41Z</time>
      </trkpt>
      <trkpt lat="42.4405500" lon="-2.8749340">
        <ele>661.2</ele>
        <time>2022-06-27T08:20:42Z</time>
      </trkpt>
      <trkpt lat="42.4405490" lon="-2.8749980">
        <ele>661.2</ele>
        <time>2022-06-27T08:20:43Z</time>
      </trkpt>
      <trkpt lat="42.4405490" lon="-2.8750630">
        <ele>661.4</ele>
        <time>2022-06-27T08:20:44Z</time>
      </trkpt>
      <trkpt lat="42.4405480" lon="-2.8751290">
        <ele>661.4</ele>
        <time>2022-06-27T08:20:45Z</time>
      </trkpt>
      <trkpt lat="42.4405480" lon="-2.8751940">
        <ele>661.4</ele>
        <time>2022-06-27T08:20:46Z</time>
      </trkpt>
      <trkpt lat="42.4405480" lon="-2.8752590">
        <ele>661.4</ele>
        <time>2022-06-27T08:20:47Z</time>
      </trkpt>
      <trkpt lat="42.4405470" lon="-2.8753240">
        <ele>661.4</ele>
        <time>2022-06-27T08:20:48Z</time>
      </trkpt>
      <trkpt lat="42.4405460" lon="-2.8753900">
        <ele>661.4</ele>
        <time>2022-06-27T08:20:49Z</time>
      </trkpt>
      <trkpt lat="42.4405440" lon="-2.8754570">
        <ele>661.6</ele>
        <time>2022-06-27T08:20:50Z</time>
      </trkpt>
      <trkpt lat="42.4405430" lon="-2.8755250">
        <ele>661.6</ele>
        <time>2022-06-27T08:20:51Z</time>
      </trkpt>
      <trkpt lat="42.4405430" lon="-2.8755930">
        <ele>661.6</ele>
        <time>2022-06-27T08:20:52Z</time>
      </trkpt>
      <trkpt lat="42.4405410" lon="-2.8756620">
        <ele>661.8</ele>
        <time>2022-06-27T08:20:53Z</time>
      </trkpt>
      <trkpt lat="42.4405390" lon="-2.8757310">
        <ele>661.8</ele>
        <time>2022-06-27T08:20:54Z</time>
      </trkpt>
      <trkpt lat="42.4405370" lon="-2.8757980">
        <ele>661.8</ele>
        <time>2022-06-27T08:20:55Z</time>
      </trkpt>
      <trkpt lat="42.4405350" lon="-2.8758660">
        <ele>661.8</ele>
        <time>2022-06-27T08:20:56Z</time>
      </trkpt>
      <trkpt lat="42.4405320" lon="-2.8759340">
        <ele>662.0</ele>
        <time>2022-06-27T08:20:57Z</time>
      </trkpt>
      <trkpt lat="42.4405300" lon="-2.8760020">
        <ele>662.0</ele>
        <time>2022-06-27T08:20:58Z</time>
      </trkpt>
      <trkpt lat="42.4405310" lon="-2.8760710">
        <ele>662.2</ele>
        <time>2022-06-27T08:20:59Z</time>
      </trkpt>
      <trkpt lat="42.4405300" lon="-2.8761410">
        <ele>662.2</ele>
        <time>2022-06-27T08:21:00Z</time>
      </trkpt>
      <trkpt lat="42.4405280" lon="-2.8762100">
        <ele>662.2</ele>
        <time>2022-06-27T08:21:01Z</time>
      </trkpt>
      <trkpt lat="42.4405260" lon="-2.8762760">
        <ele>662.2</ele>
        <time>2022-06-27T08:21:02Z</time>
      </trkpt>
      <trkpt lat="42.4405240" lon="-2.8763420">
        <ele>662.4</ele>
        <time>2022-06-27T08:21:03Z</time>
      </trkpt>
      <trkpt lat="42.4405220" lon="-2.8764080">
        <ele>662.4</ele>
        <time>2022-06-27T08:21:04Z</time>
      </trkpt>
      <trkpt lat="42.4405200" lon="-2.8764750">
        <ele>662.4</ele>
        <time>2022-06-27T08:21:05Z</time>
      </trkpt>
      <trkpt lat="42.4405160" lon="-2.8765440">
        <ele>662.6</ele>
        <time>2022-06-27T08:21:06Z</time>
      </trkpt>
      <trkpt lat="42.4405140" lon="-2.8766120">
        <ele>662.6</ele>
        <time>2022-06-27T08:21:07Z</time>
      </trkpt>
      <trkpt lat="42.4405120" lon="-2.8766800">
        <ele>662.6</ele>
        <time>2022-06-27T08:21:08Z</time>
      </trkpt>
      <trkpt lat="42.4405100" lon="-2.8767480">
        <ele>662.8</ele>
        <time>2022-06-27T08:21:09Z</time>
      </trkpt>
      <trkpt lat="42.4405090" lon="-2.8768170">
        <ele>662.8</ele>
        <time>2022-06-27T08:21:10Z</time>
      </trkpt>
      <trkpt lat="42.4405070" lon="-2.8768840">
        <ele>662.8</ele>
        <time>2022-06-27T08:21:11Z</time>
      </trkpt>
      <trkpt lat="42.4405040" lon="-2.8769520">
        <ele>662.8</ele>
        <time>2022-06-27T08:21:12Z</time>
      </trkpt>
      <trkpt lat="42.4405010" lon="-2.8770200">
        <ele>662.8</ele>
        <time>2022-06-27T08:21:13Z</time>
      </trkpt>
      <trkpt lat="42.4404970" lon="-2.8770880">
        <ele>662.8</ele>
        <time>2022-06-27T08:21:14Z</time>
      </trkpt>
      <trkpt lat="42.4404940" lon="-2.8771540">
        <ele>662.8</ele>
        <time>2022-06-27T08:21:15Z</time>
      </trkpt>
      <trkpt lat="42.4404920" lon="-2.8772200">
        <ele>663.0</ele>
        <time>2022-06-27T08:21:16Z</time>
      </trkpt>
      <trkpt lat="42.4404910" lon="-2.8772830">
        <ele>663.0</ele>
        <time>2022-06-27T08:21:17Z</time>
      </trkpt>
      <trkpt lat="42.4404890" lon="-2.8773500">
        <ele>663.0</ele>
        <time>2022-06-27T08:21:18Z</time>
      </trkpt>
      <trkpt lat="42.4404880" lon="-2.8774190">
        <ele>663.0</ele>
        <time>2022-06-27T08:21:19Z</time>
      </trkpt>
      <trkpt lat="42.4404870" lon="-2.8774870">
        <ele>663.0</ele>
        <time>2022-06-27T08:21:20Z</time>
      </trkpt>
      <trkpt lat="42.4404850" lon="-2.8775540">
        <ele>663.2</ele>
        <time>2022-06-27T08:21:21Z</time>
      </trkpt>
      <trkpt lat="42.4404830" lon="-2.8776210">
        <ele>663.2</ele>
        <time>2022-06-27T08:21:22Z</time>
      </trkpt>
      <trkpt lat="42.4404820" lon="-2.8776860">
        <ele>663.2</ele>
        <time>2022-06-27T08:21:23Z</time>
      </trkpt>
      <trkpt lat="42.4404800" lon="-2.8777530">
        <ele>663.2</ele>
        <time>2022-06-27T08:21:24Z</time>
      </trkpt>
      <trkpt lat="42.4404770" lon="-2.8778190">
        <ele>663.4</ele>
        <time>2022-06-27T08:21:25Z</time>
      </trkpt>
      <trkpt lat="42.4404770" lon="-2.8778830">
        <ele>663.4</ele>
        <time>2022-06-27T08:21:26Z</time>
      </trkpt>
      <trkpt lat="42.4404750" lon="-2.8779500">
        <ele>663.4</ele>
        <time>2022-06-27T08:21:27Z</time>
      </trkpt>
      <trkpt lat="42.4404730" lon="-2.8780200">
        <ele>663.4</ele>
        <time>2022-06-27T08:21:28Z</time>
      </trkpt>
      <trkpt lat="42.4404710" lon="-2.8780910">
        <ele>663.4</ele>
        <time>2022-06-27T08:21:29Z</time>
      </trkpt>
      <trkpt lat="42.4404710" lon="-2.8781640">
        <ele>663.4</ele>
        <time>2022-06-27T08:21:30Z</time>
      </trkpt>
      <trkpt lat="42.4404710" lon="-2.8782390">
        <ele>663.2</ele>
        <time>2022-06-27T08:21:31Z</time>
      </trkpt>
      <trkpt lat="42.4404710" lon="-2.8783150">
        <ele>663.2</ele>
        <time>2022-06-27T08:21:32Z</time>
      </trkpt>
      <trkpt lat="42.4404690" lon="-2.8783930">
        <ele>663.2</ele>
        <time>2022-06-27T08:21:33Z</time>
      </trkpt>
      <trkpt lat="42.4404670" lon="-2.8784730">
        <ele>662.8</ele>
        <time>2022-06-27T08:21:34Z</time>
      </trkpt>
      <trkpt lat="42.4404670" lon="-2.8785560">
        <ele>662.8</ele>
        <time>2022-06-27T08:21:35Z</time>
      </trkpt>
      <trkpt lat="42.4404650" lon="-2.8786400">
        <ele>662.8</ele>
        <time>2022-06-27T08:21:36Z</time>
      </trkpt>
      <trkpt lat="42.4404620" lon="-2.8787260">
        <ele>662.6</ele>
        <time>2022-06-27T08:21:37Z</time>
      </trkpt>
      <trkpt lat="42.4404600" lon="-2.8788140">
        <ele>662.4</ele>
        <time>2022-06-27T08:21:38Z</time>
      </trkpt>
      <trkpt lat="42.4404580" lon="-2.8789040">
        <ele>662.4</ele>
        <time>2022-06-27T08:21:39Z</time>
      </trkpt>
      <trkpt lat="42.4404560" lon="-2.8789950">
        <ele>662.4</ele>
        <time>2022-06-27T08:21:40Z</time>
      </trkpt>
      <trkpt lat="42.4404560" lon="-2.8790890">
        <ele>662.2</ele>
        <time>2022-06-27T08:21:41Z</time>
      </trkpt>
      <trkpt lat="42.4404560" lon="-2.8791820">
        <ele>662.0</ele>
        <time>2022-06-27T08:21:42Z</time>
      </trkpt>
      <trkpt lat="42.4404550" lon="-2.8792770">
        <ele>661.8</ele>
        <time>2022-06-27T08:21:43Z</time>
      </trkpt>
      <trkpt lat="42.4404550" lon="-2.8793730">
        <ele>661.4</ele>
        <time>2022-06-27T08:21:44Z</time>
      </trkpt>
      <trkpt lat="42.4404550" lon="-2.8794680">
        <ele>661.2</ele>
        <time>2022-06-27T08:21:45Z</time>
      </trkpt>
      <trkpt lat="42.4404540" lon="-2.8795660">
        <ele>660.8</ele>
        <time>2022-06-27T08:21:46Z</time>
      </trkpt>
      <trkpt lat="42.4404520" lon="-2.8796640">
        <ele>660.6</ele>
        <time>2022-06-27T08:21:47Z</time>
      </trkpt>
      <trkpt lat="42.4404500" lon="-2.8797620">
        <ele>660.4</ele>
        <time>2022-06-27T08:21:48Z</time>
      </trkpt>
      <trkpt lat="42.4404480" lon="-2.8798590">
        <ele>660.2</ele>
        <time>2022-06-27T08:21:49Z</time>
      </trkpt>
      <trkpt lat="42.4404460" lon="-2.8799590">
        <ele>659.8</ele>
        <time>2022-06-27T08:21:50Z</time>
      </trkpt>
      <trkpt lat="42.4404420" lon="-2.8800610">
        <ele>659.6</ele>
        <time>2022-06-27T08:21:51Z</time>
      </trkpt>
      <trkpt lat="42.4404380" lon="-2.8801640">
        <ele>659.2</ele>
        <time>2022-06-27T08:21:52Z</time>
      </trkpt>
      <trkpt lat="42.4404360" lon="-2.8802670">
        <ele>658.8</ele>
        <time>2022-06-27T08:21:53Z</time>
      </trkpt>
      <trkpt lat="42.4404350" lon="-2.8803730">
        <ele>658.8</ele>
        <time>2022-06-27T08:21:54Z</time>
      </trkpt>
      <trkpt lat="42.4404340" lon="-2.8804790">
        <ele>658.4</ele>
        <time>2022-06-27T08:21:55Z</time>
      </trkpt>
      <trkpt lat="42.4404320" lon="-2.8805860">
        <ele>658.4</ele>
        <time>2022-06-27T08:21:56Z</time>
      </trkpt>
      <trkpt lat="42.4404290" lon="-2.8806910">
        <ele>658.2</ele>
        <time>2022-06-27T08:21:57Z</time>
      </trkpt>
      <trkpt lat="42.4404270" lon="-2.8807980">
        <ele>658.0</ele>
        <time>2022-06-27T08:21:58Z</time>
      </trkpt>
      <trkpt lat="42.4404250" lon="-2.8809050">
        <ele>658.0</ele>
        <time>2022-06-27T08:21:59Z</time>
      </trkpt>
      <trkpt lat="42.4404230" lon="-2.8810120">
        <ele>657.8</ele>
        <time>2022-06-27T08:22:00Z</time>
      </trkpt>
      <trkpt lat="42.4404210" lon="-2.8811180">
        <ele>657.6</ele>
        <time>2022-06-27T08:22:01Z</time>
      </trkpt>
      <trkpt lat="42.4404180" lon="-2.8812250">
        <ele>657.4</ele>
        <time>2022-06-27T08:22:02Z</time>
      </trkpt>
      <trkpt lat="42.4404140" lon="-2.8813320">
        <ele>657.2</ele>
        <time>2022-06-27T08:22:03Z</time>
      </trkpt>
      <trkpt lat="42.4404110" lon="-2.8814390">
        <ele>657.0</ele>
        <time>2022-06-27T08:22:04Z</time>
      </trkpt>
      <trkpt lat="42.4404070" lon="-2.8815480">
        <ele>657.0</ele>
        <time>2022-06-27T08:22:05Z</time>
      </trkpt>
      <trkpt lat="42.4404040" lon="-2.8816570">
        <ele>657.0</ele>
        <time>2022-06-27T08:22:06Z</time>
      </trkpt>
      <trkpt lat="42.4404000" lon="-2.8817610">
        <ele>656.8</ele>
        <time>2022-06-27T08:22:07Z</time>
      </trkpt>
      <trkpt lat="42.4403950" lon="-2.8818660">
        <ele>656.6</ele>
        <time>2022-06-27T08:22:08Z</time>
      </trkpt>
      <trkpt lat="42.4403920" lon="-2.8819720">
        <ele>656.4</ele>
        <time>2022-06-27T08:22:09Z</time>
      </trkpt>
      <trkpt lat="42.4403890" lon="-2.8820760">
        <ele>656.4</ele>
        <time>2022-06-27T08:22:10Z</time>
      </trkpt>
      <trkpt lat="42.4403880" lon="-2.8821810">
        <ele>656.4</ele>
        <time>2022-06-27T08:22:11Z</time>
      </trkpt>
      <trkpt lat="42.4403870" lon="-2.8822870">
        <ele>656.4</ele>
        <time>2022-06-27T08:22:12Z</time>
      </trkpt>
      <trkpt lat="42.4403840" lon="-2.8823920">
        <ele>656.2</ele>
        <time>2022-06-27T08:22:13Z</time>
      </trkpt>
      <trkpt lat="42.4403810" lon="-2.8824980">
        <ele>656.2</ele>
        <time>2022-06-27T08:22:14Z</time>
      </trkpt>
      <trkpt lat="42.4403780" lon="-2.8826020">
        <ele>656.2</ele>
        <time>2022-06-27T08:22:15Z</time>
      </trkpt>
      <trkpt lat="42.4403750" lon="-2.8827070">
        <ele>656.0</ele>
        <time>2022-06-27T08:22:16Z</time>
      </trkpt>
      <trkpt lat="42.4403730" lon="-2.8828120">
        <ele>656.0</ele>
        <time>2022-06-27T08:22:17Z</time>
      </trkpt>
      <trkpt lat="42.4403730" lon="-2.8829200">
        <ele>656.0</ele>
        <time>2022-06-27T08:22:18Z</time>
      </trkpt>
      <trkpt lat="42.4403700" lon="-2.8830280">
        <ele>656.0</ele>
        <time>2022-06-27T08:22:19Z</time>
      </trkpt>
      <trkpt lat="42.4403670" lon="-2.8831350">
        <ele>655.8</ele>
        <time>2022-06-27T08:22:20Z</time>
      </trkpt>
      <trkpt lat="42.4403640" lon="-2.8832390">
        <ele>655.8</ele>
        <time>2022-06-27T08:22:21Z</time>
      </trkpt>
      <trkpt lat="42.4403590" lon="-2.8833430">
        <ele>655.8</ele>
        <time>2022-06-27T08:22:22Z</time>
      </trkpt>
      <trkpt lat="42.4403530" lon="-2.8834470">
        <ele>655.6</ele>
        <time>2022-06-27T08:22:23Z</time>
      </trkpt>
      <trkpt lat="42.4403480" lon="-2.8835500">
        <ele>655.4</ele>
        <time>2022-06-27T08:22:24Z</time>
      </trkpt>
      <trkpt lat="42.4403440" lon="-2.8836480">
        <ele>655.4</ele>
        <time>2022-06-27T08:22:25Z</time>
      </trkpt>
      <trkpt lat="42.4403430" lon="-2.8837460">
        <ele>655.2</ele>
        <time>2022-06-27T08:22:26Z</time>
      </trkpt>
      <trkpt lat="42.4403440" lon="-2.8838470">
        <ele>655.2</ele>
        <time>2022-06-27T08:22:27Z</time>
      </trkpt>
      <trkpt lat="42.4403480" lon="-2.8839470">
        <ele>655.2</ele>
        <time>2022-06-27T08:22:28Z</time>
      </trkpt>
      <trkpt lat="42.4403540" lon="-2.8840460">
        <ele>655.2</ele>
        <time>2022-06-27T08:22:29Z</time>
      </trkpt>
      <trkpt lat="42.4403550" lon="-2.8841470">
        <ele>655.2</ele>
        <time>2022-06-27T08:22:30Z</time>
      </trkpt>
      <trkpt lat="42.4403530" lon="-2.8842500">
        <ele>655.2</ele>
        <time>2022-06-27T08:22:31Z</time>
      </trkpt>
      <trkpt lat="42.4403510" lon="-2.8843530">
        <ele>655.2</ele>
        <time>2022-06-27T08:22:32Z</time>
      </trkpt>
      <trkpt lat="42.4403460" lon="-2.8844570">
        <ele>655.0</ele>
        <time>2022-06-27T08:22:33Z</time>
      </trkpt>
      <trkpt lat="42.4403420" lon="-2.8845610">
        <ele>655.0</ele>
        <time>2022-06-27T08:22:34Z</time>
      </trkpt>
      <trkpt lat="42.4403420" lon="-2.8846660">
        <ele>655.0</ele>
        <time>2022-06-27T08:22:35Z</time>
      </trkpt>
      <trkpt lat="42.4403410" lon="-2.8847700">
        <ele>655.0</ele>
        <time>2022-06-27T08:22:36Z</time>
      </trkpt>
      <trkpt lat="42.4403380" lon="-2.8848730">
        <ele>655.0</ele>
        <time>2022-06-27T08:22:37Z</time>
      </trkpt>
      <trkpt lat="42.4403380" lon="-2.8849780">
        <ele>655.0</ele>
        <time>2022-06-27T08:22:38Z</time>
      </trkpt>
      <trkpt lat="42.4403380" lon="-2.8850800">
        <ele>655.0</ele>
        <time>2022-06-27T08:22:39Z</time>
      </trkpt>
      <trkpt lat="42.4403390" lon="-2.8851790">
        <ele>655.0</ele>
        <time>2022-06-27T08:22:40Z</time>
      </trkpt>
      <trkpt lat="42.4403400" lon="-2.8852780">
        <ele>655.0</ele>
        <time>2022-06-27T08:22:41Z</time>
      </trkpt>
      <trkpt lat="42.4403430" lon="-2.8853750">
        <ele>655.0</ele>
        <time>2022-06-27T08:22:42Z</time>
      </trkpt>
      <trkpt lat="42.4403470" lon="-2.8854700">
        <ele>655.0</ele>
        <time>2022-06-27T08:22:43Z</time>
      </trkpt>
      <trkpt lat="42.4403520" lon="-2.8855640">
        <ele>655.0</ele>
        <time>2022-06-27T08:22:44Z</time>
      </trkpt>
      <trkpt lat="42.4403570" lon="-2.8856560">
        <ele>655.0</ele>
        <time>2022-06-27T08:22:45Z</time>
      </trkpt>
      <trkpt lat="42.4403610" lon="-2.8857470">
        <ele>655.0</ele>
        <time>2022-06-27T08:22:46Z</time>
      </trkpt>
      <trkpt lat="42.4403650" lon="-2.8858380">
        <ele>655.0</ele>
        <time>2022-06-27T08:22:47Z</time>
      </trkpt>
      <trkpt lat="42.4403710" lon="-2.8859290">
        <ele>654.8</ele>
        <time>2022-06-27T08:22:48Z</time>
      </trkpt>
      <trkpt lat="42.4403760" lon="-2.8860200">
        <ele>654.8</ele>
        <time>2022-06-27T08:22:49Z</time>
      </trkpt>
      <trkpt lat="42.4403840" lon="-2.8861120">
        <ele>655.0</ele>
        <time>2022-06-27T08:22:50Z</time>
      </trkpt>
      <trkpt lat="42.4403940" lon="-2.8862030">
        <ele>655.0</ele>
        <time>2022-06-27T08:22:51Z</time>
      </trkpt>
      <trkpt lat="42.4404080" lon="-2.8862910">
        <ele>655.2</ele>
        <time>2022-06-27T08:22:52Z</time>
      </trkpt>
      <trkpt lat="42.4404180" lon="-2.8863790">
        <ele>655.2</ele>
        <time>2022-06-27T08:22:53Z</time>
      </trkpt>
      <trkpt lat="42.4404260" lon="-2.8864700">
        <ele>655.2</ele>
        <time>2022-06-27T08:22:54Z</time>
      </trkpt>
      <trkpt lat="42.4404350" lon="-2.8865600">
        <ele>655.2</ele>
        <time>2022-06-27T08:22:55Z</time>
      </trkpt>
      <trkpt lat="42.4404440" lon="-2.8866480">
        <ele>655.2</ele>
        <time>2022-06-27T08:22:56Z</time>
      </trkpt>
      <trkpt lat="42.4404520" lon="-2.8867370">
        <ele>655.4</ele>
        <time>2022-06-27T08:22:57Z</time>
      </trkpt>
      <trkpt lat="42.4404600" lon="-2.8868250">
        <ele>655.4</ele>
        <time>2022-06-27T08:22:58Z</time>
      </trkpt>
      <trkpt lat="42.4404690" lon="-2.8869120">
        <ele>655.4</ele>
        <time>2022-06-27T08:22:59Z</time>
      </trkpt>
      <trkpt lat="42.4404770" lon="-2.8869990">
        <ele>655.4</ele>
        <time>2022-06-27T08:23:00Z</time>
      </trkpt>
      <trkpt lat="42.4404830" lon="-2.8870870">
        <ele>655.4</ele>
        <time>2022-06-27T08:23:01Z</time>
      </trkpt>
      <trkpt lat="42.4404890" lon="-2.8871750">
        <ele>655.6</ele>
        <time>2022-06-27T08:23:02Z</time>
      </trkpt>
      <trkpt lat="42.4404980" lon="-2.8872600">
        <ele>655.6</ele>
        <time>2022-06-27T08:23:03Z</time>
      </trkpt>
      <trkpt lat="42.4405050" lon="-2.8873490">
        <ele>655.6</ele>
        <time>2022-06-27T08:23:04Z</time>
      </trkpt>
      <trkpt lat="42.4405100" lon="-2.8874410">
        <ele>655.6</ele>
        <time>2022-06-27T08:23:05Z</time>
      </trkpt>
      <trkpt lat="42.4405140" lon="-2.8875330">
        <ele>655.6</ele>
        <time>2022-06-27T08:23:06Z</time>
      </trkpt>
      <trkpt lat="42.4405210" lon="-2.8876270">
        <ele>655.6</ele>
        <time>2022-06-27T08:23:07Z</time>
      </trkpt>
      <trkpt lat="42.4405280" lon="-2.8877230">
        <ele>655.6</ele>
        <time>2022-06-27T08:23:08Z</time>
      </trkpt>
      <trkpt lat="42.4405380" lon="-2.8878190">
        <ele>655.4</ele>
        <time>2022-06-27T08:23:09Z</time>
      </trkpt>
      <trkpt lat="42.4405470" lon="-2.8879180">
        <ele>655.4</ele>
        <time>2022-06-27T08:23:10Z</time>
      </trkpt>
      <trkpt lat="42.4405570" lon="-2.8880200">
        <ele>655.2</ele>
        <time>2022-06-27T08:23:11Z</time>
      </trkpt>
      <trkpt lat="42.4405680" lon="-2.8881240">
        <ele>655.2</ele>
        <time>2022-06-27T08:23:12Z</time>
      </trkpt>
      <trkpt lat="42.4405780" lon="-2.8882310">
        <ele>655.2</ele>
        <time>2022-06-27T08:23:13Z</time>
      </trkpt>
      <trkpt lat="42.4405890" lon="-2.8883390">
        <ele>655.2</ele>
        <time>2022-06-27T08:23:14Z</time>
      </trkpt>
      <trkpt lat="42.4405980" lon="-2.8884490">
        <ele>655.0</ele>
        <time>2022-06-27T08:23:15Z</time>
      </trkpt>
      <trkpt lat="42.4406080" lon="-2.8885610">
        <ele>655.0</ele>
        <time>2022-06-27T08:23:16Z</time>
      </trkpt>
      <trkpt lat="42.4406240" lon="-2.8886990">
        <ele>654.8</ele>
        <time>2022-06-27T08:23:17Z</time>
      </trkpt>
      <trkpt lat="42.4406340" lon="-2.8887930">
        <ele>654.8</ele>
        <time>2022-06-27T08:23:18Z</time>
      </trkpt>
      <trkpt lat="42.4406470" lon="-2.8889100">
        <ele>654.6</ele>
        <time>2022-06-27T08:23:19Z</time>
      </trkpt>
      <trkpt lat="42.4406610" lon="-2.8890300">
        <ele>654.4</ele>
        <time>2022-06-27T08:23:20Z</time>
      </trkpt>
      <trkpt lat="42.4406780" lon="-2.8891510">
        <ele>654.2</ele>
        <time>2022-06-27T08:23:21Z</time>
      </trkpt>
      <trkpt lat="42.4406950" lon="-2.8892750">
        <ele>653.8</ele>
        <time>2022-06-27T08:23:22Z</time>
      </trkpt>
      <trkpt lat="42.4407120" lon="-2.8894020">
        <ele>653.4</ele>
        <time>2022-06-27T08:23:23Z</time>
      </trkpt>
      <trkpt lat="42.4407300" lon="-2.8895340">
        <ele>653.2</ele>
        <time>2022-06-27T08:23:24Z</time>
      </trkpt>
      <trkpt lat="42.4407480" lon="-2.8896690">
        <ele>652.4</ele>
        <time>2022-06-27T08:23:25Z</time>
      </trkpt>
      <trkpt lat="42.4407660" lon="-2.8898060">
        <ele>652.0</ele>
        <time>2022-06-27T08:23:26Z</time>
      </trkpt>
      <trkpt lat="42.4407860" lon="-2.8899470">
        <ele>651.2</ele>
        <time>2022-06-27T08:23:27Z</time>
      </trkpt>
      <trkpt lat="42.4408090" lon="-2.8900930">
        <ele>651.0</ele>
        <time>2022-06-27T08:23:28Z</time>
      </trkpt>
      <trkpt lat="42.4408310" lon="-2.8902440">
        <ele>650.4</ele>
        <time>2022-06-27T08:23:29Z</time>
      </trkpt>
      <trkpt lat="42.4408540" lon="-2.8903980">
        <ele>650.2</ele>
        <time>2022-06-27T08:23:30Z</time>
      </trkpt>
      <trkpt lat="42.4408770" lon="-2.8905560">
        <ele>649.4</ele>
        <time>2022-06-27T08:23:31Z</time>
      </trkpt>
      <trkpt lat="42.4409010" lon="-2.8907180">
        <ele>648.0</ele>
        <time>2022-06-27T08:23:32Z</time>
      </trkpt>
      <trkpt lat="42.4409270" lon="-2.8908840">
        <ele>647.6</ele>
        <time>2022-06-27T08:23:33Z</time>
      </trkpt>
      <trkpt lat="42.4409540" lon="-2.8910520">
        <ele>646.6</ele>
        <time>2022-06-27T08:23:34Z</time>
      </trkpt>
      <trkpt lat="42.4409810" lon="-2.8912230">
        <ele>646.2</ele>
        <time>2022-06-27T08:23:35Z</time>
      </trkpt>
      <trkpt lat="42.4410100" lon="-2.8913950">
        <ele>645.2</ele>
        <time>2022-06-27T08:23:36Z</time>
      </trkpt>
      <trkpt lat="42.4410400" lon="-2.8915660">
        <ele>644.8</ele>
        <time>2022-06-27T08:23:37Z</time>
      </trkpt>
      <trkpt lat="42.4410720" lon="-2.8917360">
        <ele>643.8</ele>
        <time>2022-06-27T08:23:38Z</time>
      </trkpt>
      <trkpt lat="42.4411030" lon="-2.8919040">
        <ele>643.0</ele>
        <time>2022-06-27T08:23:39Z</time>
      </trkpt>
      <trkpt lat="42.4411350" lon="-2.8920700">
        <ele>642.4</ele>
        <time>2022-06-27T08:23:40Z</time>
      </trkpt>
      <trkpt lat="42.4411600" lon="-2.8922310">
        <ele>641.4</ele>
        <time>2022-06-27T08:23:41Z</time>
      </trkpt>
      <trkpt lat="42.4411790" lon="-2.8923890">
        <ele>640.8</ele>
        <time>2022-06-27T08:23:42Z</time>
      </trkpt>
      <trkpt lat="42.4411950" lon="-2.8925400">
        <ele>640.0</ele>
        <time>2022-06-27T08:23:43Z</time>
      </trkpt>
      <trkpt lat="42.4412100" lon="-2.8926860">
        <ele>639.8</ele>
        <time>2022-06-27T08:23:44Z</time>
      </trkpt>
      <trkpt lat="42.4412230" lon="-2.8928250">
        <ele>639.2</ele>
        <time>2022-06-27T08:23:45Z</time>
      </trkpt>
      <trkpt lat="42.4412370" lon="-2.8929580">
        <ele>639.0</ele>
        <time>2022-06-27T08:23:46Z</time>
      </trkpt>
      <trkpt lat="42.4412530" lon="-2.8930850">
        <ele>639.0</ele>
        <time>2022-06-27T08:23:47Z</time>
      </trkpt>
      <trkpt lat="42.4412710" lon="-2.8932110">
        <ele>639.0</ele>
        <time>2022-06-27T08:23:48Z</time>
      </trkpt>
      <trkpt lat="42.4412870" lon="-2.8933370">
        <ele>639.0</ele>
        <time>2022-06-27T08:23:49Z</time>
      </trkpt>
      <trkpt lat="42.4412930" lon="-2.8934650">
        <ele>639.0</ele>
        <time>2022-06-27T08:23:50Z</time>
      </trkpt>
      <trkpt lat="42.4412860" lon="-2.8935930">
        <ele>639.0</ele>
        <time>2022-06-27T08:23:51Z</time>
      </trkpt>
      <trkpt lat="42.4412650" lon="-2.8937170">
        <ele>639.2</ele>
        <time>2022-06-27T08:23:52Z</time>
      </trkpt>
      <trkpt lat="42.4412360" lon="-2.8938390">
        <ele>639.2</ele>
        <time>2022-06-27T08:23:53Z</time>
      </trkpt>
      <trkpt lat="42.4412070" lon="-2.8939610">
        <ele>639.2</ele>
        <time>2022-06-27T08:23:54Z</time>
      </trkpt>
      <trkpt lat="42.4411770" lon="-2.8940810">
        <ele>639.4</ele>
        <time>2022-06-27T08:23:55Z</time>
      </trkpt>
      <trkpt lat="42.4411480" lon="-2.8941980">
        <ele>639.4</ele>
        <time>2022-06-27T08:23:56Z</time>
      </trkpt>
      <trkpt lat="42.4411190" lon="-2.8943140">
        <ele>639.6</ele>
        <time>2022-06-27T08:23:57Z</time>
      </trkpt>
      <trkpt lat="42.4410880" lon="-2.8944280">
        <ele>639.6</ele>
        <time>2022-06-27T08:23:58Z</time>
      </trkpt>
      <trkpt lat="42.4410550" lon="-2.8945380">
        <ele>639.6</ele>
        <time>2022-06-27T08:23:59Z</time>
      </trkpt>
      <trkpt lat="42.4410210" lon="-2.8946450">
        <ele>639.6</ele>
        <time>2022-06-27T08:24:00Z</time>
      </trkpt>
      <trkpt lat="42.4409860" lon="-2.8947480">
        <ele>639.6</ele>
        <time>2022-06-27T08:24:01Z</time>
      </trkpt>
      <trkpt lat="42.4409510" lon="-2.8948480">
        <ele>639.6</ele>
        <time>2022-06-27T08:24:02Z</time>
      </trkpt>
      <trkpt lat="42.4409190" lon="-2.8949460">
        <ele>639.6</ele>
        <time>2022-06-27T08:24:03Z</time>
      </trkpt>
      <trkpt lat="42.4408880" lon="-2.8950440">
        <ele>639.6</ele>
        <time>2022-06-27T08:24:04Z</time>
      </trkpt>
      <trkpt lat="42.4408570" lon="-2.8951440">
        <ele>639.6</ele>
        <time>2022-06-27T08:24:05Z</time>
      </trkpt>
      <trkpt lat="42.4408300" lon="-2.8952460">
        <ele>639.6</ele>
        <time>2022-06-27T08:24:06Z</time>
      </trkpt>
      <trkpt lat="42.4408010" lon="-2.8953450">
        <ele>639.6</ele>
        <time>2022-06-27T08:24:07Z</time>
      </trkpt>
      <trkpt lat="42.4407740" lon="-2.8954410">
        <ele>639.8</ele>
        <time>2022-06-27T08:24:08Z</time>
      </trkpt>
      <trkpt lat="42.4407500" lon="-2.8955380">
        <ele>640.0</ele>
        <time>2022-06-27T08:24:09Z</time>
      </trkpt>
      <trkpt lat="42.4407300" lon="-2.8956360">
        <ele>640.2</ele>
        <time>2022-06-27T08:24:10Z</time>
      </trkpt>
      <trkpt lat="42.4407120" lon="-2.8957350">
        <ele>640.4</ele>
        <time>2022-06-27T08:24:11Z</time>
      </trkpt>
      <trkpt lat="42.4406950" lon="-2.8958310">
        <ele>640.6</ele>
        <time>2022-06-27T08:24:12Z</time>
      </trkpt>
      <trkpt lat="42.4406780" lon="-2.8959250">
        <ele>640.8</ele>
        <time>2022-06-27T08:24:13Z</time>
      </trkpt>
      <trkpt lat="42.4406630" lon="-2.8960180">
        <ele>640.8</ele>
        <time>2022-06-27T08:24:14Z</time>
      </trkpt>
      <trkpt lat="42.4406500" lon="-2.8961110">
        <ele>641.0</ele>
        <time>2022-06-27T08:24:15Z</time>
      </trkpt>
      <trkpt lat="42.4406390" lon="-2.8962040">
        <ele>641.0</ele>
        <time>2022-06-27T08:24:16Z</time>
      </trkpt>
      <trkpt lat="42.4406310" lon="-2.8962960">
        <ele>641.4</ele>
        <time>2022-06-27T08:24:17Z</time>
      </trkpt>
      <trkpt lat="42.4406260" lon="-2.8963880">
        <ele>641.6</ele>
        <time>2022-06-27T08:24:18Z</time>
      </trkpt>
      <trkpt lat="42.4406230" lon="-2.8964820">
        <ele>641.6</ele>
        <time>2022-06-27T08:24:19Z</time>
      </trkpt>
      <trkpt lat="42.4406190" lon="-2.8965770">
        <ele>641.8</ele>
        <time>2022-06-27T08:24:20Z</time>
      </trkpt>
      <trkpt lat="42.4406180" lon="-2.8966710">
        <ele>641.8</ele>
        <time>2022-06-27T08:24:21Z</time>
      </trkpt>
      <trkpt lat="42.4406160" lon="-2.8967650">
        <ele>642.0</ele>
        <time>2022-06-27T08:24:22Z</time>
      </trkpt>
      <trkpt lat="42.4406150" lon="-2.8968560">
        <ele>642.0</ele>
        <time>2022-06-27T08:24:23Z</time>
      </trkpt>
      <trkpt lat="42.4406130" lon="-2.8969490">
        <ele>642.2</ele>
        <time>2022-06-27T08:24:24Z</time>
      </trkpt>
      <trkpt lat="42.4406100" lon="-2.8970420">
        <ele>642.4</ele>
        <time>2022-06-27T08:24:25Z</time>
      </trkpt>
      <trkpt lat="42.4406080" lon="-2.8971360">
        <ele>642.6</ele>
        <time>2022-06-27T08:24:26Z</time>
      </trkpt>
      <trkpt lat="42.4406050" lon="-2.8972270">
        <ele>642.8</ele>
        <time>2022-06-27T08:24:27Z</time>
      </trkpt>
      <trkpt lat="42.4406020" lon="-2.8973200">
        <ele>642.8</ele>
        <time>2022-06-27T08:24:28Z</time>
      </trkpt>
      <trkpt lat="42.4406000" lon="-2.8974110">
        <ele>643.0</ele>
        <time>2022-06-27T08:24:29Z</time>
      </trkpt>
      <trkpt lat="42.4406000" lon="-2.8975040">
        <ele>643.0</ele>
        <time>2022-06-27T08:24:30Z</time>
      </trkpt>
      <trkpt lat="42.4405990" lon="-2.8975960">
        <ele>643.0</ele>
        <time>2022-06-27T08:24:31Z</time>
      </trkpt>
      <trkpt lat="42.4405990" lon="-2.8976880">
        <ele>643.2</ele>
        <time>2022-06-27T08:24:32Z</time>
      </trkpt>
      <trkpt lat="42.4405980" lon="-2.8977810">
        <ele>643.2</ele>
        <time>2022-06-27T08:24:33Z</time>
      </trkpt>
      <trkpt lat="42.4405980" lon="-2.8978720">
        <ele>643.4</ele>
        <time>2022-06-27T08:24:34Z</time>
      </trkpt>
      <trkpt lat="42.4406000" lon="-2.8979650">
        <ele>643.4</ele>
        <time>2022-06-27T08:24:35Z</time>
      </trkpt>
      <trkpt lat="42.4406030" lon="-2.8980590">
        <ele>643.4</ele>
        <time>2022-06-27T08:24:36Z</time>
      </trkpt>
      <trkpt lat="42.4406050" lon="-2.8981550">
        <ele>643.6</ele>
        <time>2022-06-27T08:24:37Z</time>
      </trkpt>
      <trkpt lat="42.4406080" lon="-2.8982530">
        <ele>643.6</ele>
        <time>2022-06-27T08:24:38Z</time>
      </trkpt>
      <trkpt lat="42.4406110" lon="-2.8983510">
        <ele>643.6</ele>
        <time>2022-06-27T08:24:39Z</time>
      </trkpt>
      <trkpt lat="42.4406130" lon="-2.8984520">
        <ele>643.6</ele>
        <time>2022-06-27T08:24:40Z</time>
      </trkpt>
      <trkpt lat="42.4406160" lon="-2.8985530">
        <ele>643.6</ele>
        <time>2022-06-27T08:24:41Z</time>
      </trkpt>
      <trkpt lat="42.4406200" lon="-2.8986550">
        <ele>643.6</ele>
        <time>2022-06-27T08:24:42Z</time>
      </trkpt>
      <trkpt lat="42.4406240" lon="-2.8987600">
        <ele>643.6</ele>
        <time>2022-06-27T08:24:43Z</time>
      </trkpt>
      <trkpt lat="42.4406260" lon="-2.8988680">
        <ele>643.6</ele>
        <time>2022-06-27T08:24:44Z</time>
      </trkpt>
      <trkpt lat="42.4406290" lon="-2.8989780">
        <ele>643.6</ele>
        <time>2022-06-27T08:24:45Z</time>
      </trkpt>
      <trkpt lat="42.4406320" lon="-2.8990900">
        <ele>643.6</ele>
        <time>2022-06-27T08:24:46Z</time>
      </trkpt>
      <trkpt lat="42.4406330" lon="-2.8992030">
        <ele>643.2</ele>
        <time>2022-06-27T08:24:47Z</time>
      </trkpt>
      <trkpt lat="42.4406350" lon="-2.8993180">
        <ele>643.0</ele>
        <time>2022-06-27T08:24:48Z</time>
      </trkpt>
      <trkpt lat="42.4406360" lon="-2.8994330">
        <ele>642.8</ele>
        <time>2022-06-27T08:24:49Z</time>
      </trkpt>
      <trkpt lat="42.4406370" lon="-2.8995490">
        <ele>642.6</ele>
        <time>2022-06-27T08:24:50Z</time>
      </trkpt>
      <trkpt lat="42.4406380" lon="-2.8996640">
        <ele>642.8</ele>
        <time>2022-06-27T08:24:51Z</time>
      </trkpt>
      <trkpt lat="42.4406400" lon="-2.8997800">
        <ele>642.4</ele>
        <time>2022-06-27T08:24:52Z</time>
      </trkpt>
      <trkpt lat="42.4406410" lon="-2.8998960">
        <ele>642.0</ele>
        <time>2022-06-27T08:24:53Z</time>
      </trkpt>
      <trkpt lat="42.4406410" lon="-2.9000130">
        <ele>641.6</ele>
        <time>2022-06-27T08:24:54Z</time>
      </trkpt>
      <trkpt lat="42.4406420" lon="-2.9001290">
        <ele>641.4</ele>
        <time>2022-06-27T08:24:55Z</time>
      </trkpt>
      <trkpt lat="42.4406440" lon="-2.9002450">
        <ele>641.4</ele>
        <time>2022-06-27T08:24:56Z</time>
      </trkpt>
      <trkpt lat="42.4406470" lon="-2.9003610">
        <ele>641.2</ele>
        <time>2022-06-27T08:24:57Z</time>
      </trkpt>
      <trkpt lat="42.4406480" lon="-2.9004760">
        <ele>641.2</ele>
        <time>2022-06-27T08:24:58Z</time>
      </trkpt>
      <trkpt lat="42.4406490" lon="-2.9005920">
        <ele>641.2</ele>
        <time>2022-06-27T08:24:59Z</time>
      </trkpt>
      <trkpt lat="42.4406490" lon="-2.9007090">
        <ele>641.0</ele>
        <time>2022-06-27T08:25:00Z</time>
      </trkpt>
      <trkpt lat="42.4406480" lon="-2.9008240">
        <ele>641.0</ele>
        <time>2022-06-27T08:25:01Z</time>
      </trkpt>
      <trkpt lat="42.4406470" lon="-2.9009410">
        <ele>641.0</ele>
        <time>2022-06-27T08:25:02Z</time>
      </trkpt>
      <trkpt lat="42.4406440" lon="-2.9010570">
        <ele>640.8</ele>
        <time>2022-06-27T08:25:03Z</time>
      </trkpt>
      <trkpt lat="42.4406410" lon="-2.9011740">
        <ele>640.8</ele>
        <time>2022-06-27T08:25:04Z</time>
      </trkpt>
      <trkpt lat="42.4406370" lon="-2.9012890">
        <ele>640.6</ele>
        <time>2022-06-27T08:25:05Z</time>
      </trkpt>
      <trkpt lat="42.4406340" lon="-2.9014040">
        <ele>640.4</ele>
        <time>2022-06-27T08:25:06Z</time>
      </trkpt>
      <trkpt lat="42.4406310" lon="-2.9015180">
        <ele>640.4</ele>
        <time>2022-06-27T08:25:07Z</time>
      </trkpt>
      <trkpt lat="42.4406280" lon="-2.9016330">
        <ele>640.4</ele>
        <time>2022-06-27T08:25:08Z</time>
      </trkpt>
      <trkpt lat="42.4406260" lon="-2.9017490">
        <ele>640.2</ele>
        <time>2022-06-27T08:25:09Z</time>
      </trkpt>
      <trkpt lat="42.4406240" lon="-2.9018650">
        <ele>640.2</ele>
        <time>2022-06-27T08:25:10Z</time>
      </trkpt>
      <trkpt lat="42.4406220" lon="-2.9019810">
        <ele>640.2</ele>
        <time>2022-06-27T08:25:11Z</time>
      </trkpt>
      <trkpt lat="42.4406210" lon="-2.9020960">
        <ele>640.0</ele>
        <time>2022-06-27T08:25:12Z</time>
      </trkpt>
      <trkpt lat="42.4406190" lon="-2.9022140">
        <ele>640.0</ele>
        <time>2022-06-27T08:25:13Z</time>
      </trkpt>
      <trkpt lat="42.4406160" lon="-2.9023310">
        <ele>640.0</ele>
        <time>2022-06-27T08:25:14Z</time>
      </trkpt>
      <trkpt lat="42.4406130" lon="-2.9024470">
        <ele>640.0</ele>
        <time>2022-06-27T08:25:15Z</time>
      </trkpt>
      <trkpt lat="42.4406110" lon="-2.9025660">
        <ele>639.8</ele>
        <time>2022-06-27T08:25:16Z</time>
      </trkpt>
      <trkpt lat="42.4406090" lon="-2.9026820">
        <ele>639.8</ele>
        <time>2022-06-27T08:25:17Z</time>
      </trkpt>
      <trkpt lat="42.4406080" lon="-2.9027990">
        <ele>639.8</ele>
        <time>2022-06-27T08:25:18Z</time>
      </trkpt>
      <trkpt lat="42.4406070" lon="-2.9029130">
        <ele>639.8</ele>
        <time>2022-06-27T08:25:19Z</time>
      </trkpt>
      <trkpt lat="42.4406040" lon="-2.9030270">
        <ele>639.6</ele>
        <time>2022-06-27T08:25:20Z</time>
      </trkpt>
      <trkpt lat="42.4406030" lon="-2.9031420">
        <ele>639.6</ele>
        <time>2022-06-27T08:25:21Z</time>
      </trkpt>
      <trkpt lat="42.4406030" lon="-2.9032570">
        <ele>639.6</ele>
        <time>2022-06-27T08:25:22Z</time>
      </trkpt>
      <trkpt lat="42.4406040" lon="-2.9033730">
        <ele>639.6</ele>
        <time>2022-06-27T08:25:23Z</time>
      </trkpt>
      <trkpt lat="42.4406020" lon="-2.9034880">
        <ele>639.6</ele>
        <time>2022-06-27T08:25:24Z</time>
      </trkpt>
      <trkpt lat="42.4406000" lon="-2.9036010">
        <ele>639.6</ele>
        <time>2022-06-27T08:25:25Z</time>
      </trkpt>
      <trkpt lat="42.4405980" lon="-2.9037130">
        <ele>639.6</ele>
        <time>2022-06-27T08:25:26Z</time>
      </trkpt>
      <trkpt lat="42.4405970" lon="-2.9038260">
        <ele>639.6</ele>
        <time>2022-06-27T08:25:27Z</time>
      </trkpt>
      <trkpt lat="42.4405960" lon="-2.9039390">
        <ele>639.6</ele>
        <time>2022-06-27T08:25:28Z</time>
      </trkpt>
      <trkpt lat="42.4405940" lon="-2.9040530">
        <ele>639.6</ele>
        <time>2022-06-27T08:25:29Z</time>
      </trkpt>
      <trkpt lat="42.4405920" lon="-2.9041650">
        <ele>639.6</ele>
        <time>2022-06-27T08:25:30Z</time>
      </trkpt>
      <trkpt lat="42.4405900" lon="-2.9042750">
        <ele>639.6</ele>
        <time>2022-06-27T08:25:31Z</time>
      </trkpt>
      <trkpt lat="42.4405860" lon="-2.9043870">
        <ele>639.6</ele>
        <time>2022-06-27T08:25:32Z</time>
      </trkpt>
      <trkpt lat="42.4405830" lon="-2.9044980">
        <ele>639.6</ele>
        <time>2022-06-27T08:25:33Z</time>
      </trkpt>
      <trkpt lat="42.4405790" lon="-2.9046100">
        <ele>639.4</ele>
        <time>2022-06-27T08:25:34Z</time>
      </trkpt>
      <trkpt lat="42.4405770" lon="-2.9047210">
        <ele>639.4</ele>
        <time>2022-06-27T08:25:35Z</time>
      </trkpt>
      <trkpt lat="42.4405760" lon="-2.9048310">
        <ele>639.4</ele>
        <time>2022-06-27T08:25:36Z</time>
      </trkpt>
      <trkpt lat="42.4405750" lon="-2.9049420">
        <ele>639.4</ele>
        <time>2022-06-27T08:25:37Z</time>
      </trkpt>
      <trkpt lat="42.4405740" lon="-2.9050530">
        <ele>639.4</ele>
        <time>2022-06-27T08:25:38Z</time>
      </trkpt>
      <trkpt lat="42.4405730" lon="-2.9051660">
        <ele>639.2</ele>
        <time>2022-06-27T08:25:39Z</time>
      </trkpt>
      <trkpt lat="42.4405730" lon="-2.9052790">
        <ele>639.2</ele>
        <time>2022-06-27T08:25:40Z</time>
      </trkpt>
      <trkpt lat="42.4405720" lon="-2.9053940">
        <ele>639.2</ele>
        <time>2022-06-27T08:25:41Z</time>
      </trkpt>
      <trkpt lat="42.4405710" lon="-2.9055080">
        <ele>639.2</ele>
        <time>2022-06-27T08:25:42Z</time>
      </trkpt>
      <trkpt lat="42.4405680" lon="-2.9056230">
        <ele>639.2</ele>
        <time>2022-06-27T08:25:43Z</time>
      </trkpt>
      <trkpt lat="42.4405650" lon="-2.9057380">
        <ele>639.4</ele>
        <time>2022-06-27T08:25:44Z</time>
      </trkpt>
      <trkpt lat="42.4405620" lon="-2.9058530">
        <ele>639.4</ele>
        <time>2022-06-27T08:25:45Z</time>
      </trkpt>
      <trkpt lat="42.4405590" lon="-2.9059680">
        <ele>639.4</ele>
        <time>2022-06-27T08:25:46Z</time>
      </trkpt>
      <trkpt lat="42.4405550" lon="-2.9060820">
        <ele>639.4</ele>
        <time>2022-06-27T08:25:47Z</time>
      </trkpt>
      <trkpt lat="42.4405500" lon="-2.9061980">
        <ele>639.4</ele>
        <time>2022-06-27T08:25:48Z</time>
      </trkpt>
      <trkpt lat="42.4405440" lon="-2.9063140">
        <ele>639.4</ele>
        <time>2022-06-27T08:25:49Z</time>
      </trkpt>
      <trkpt lat="42.4405380" lon="-2.9064310">
        <ele>639.4</ele>
        <time>2022-06-27T08:25:50Z</time>
      </trkpt>
      <trkpt lat="42.4405310" lon="-2.9065440">
        <ele>639.4</ele>
        <time>2022-06-27T08:25:51Z</time>
      </trkpt>
      <trkpt lat="42.4405230" lon="-2.9066590">
        <ele>639.4</ele>
        <time>2022-06-27T08:25:52Z</time>
      </trkpt>
      <trkpt lat="42.4405140" lon="-2.9067730">
        <ele>639.2</ele>
        <time>2022-06-27T08:25:53Z</time>
      </trkpt>
      <trkpt lat="42.4405040" lon="-2.9068860">
        <ele>639.2</ele>
        <time>2022-06-27T08:25:54Z</time>
      </trkpt>
      <trkpt lat="42.4404950" lon="-2.9070000">
        <ele>639.0</ele>
        <time>2022-06-27T08:25:55Z</time>
      </trkpt>
      <trkpt lat="42.4404850" lon="-2.9071140">
        <ele>639.0</ele>
        <time>2022-06-27T08:25:56Z</time>
      </trkpt>
      <trkpt lat="42.4404730" lon="-2.9072260">
        <ele>638.8</ele>
        <time>2022-06-27T08:25:57Z</time>
      </trkpt>
      <trkpt lat="42.4404580" lon="-2.9073390">
        <ele>638.8</ele>
        <time>2022-06-27T08:25:58Z</time>
      </trkpt>
      <trkpt lat="42.4404450" lon="-2.9074510">
        <ele>638.8</ele>
        <time>2022-06-27T08:25:59Z</time>
      </trkpt>
      <trkpt lat="42.4404290" lon="-2.9075640">
        <ele>638.6</ele>
        <time>2022-06-27T08:26:00Z</time>
      </trkpt>
      <trkpt lat="42.4404140" lon="-2.9076780">
        <ele>638.6</ele>
        <time>2022-06-27T08:26:01Z</time>
      </trkpt>
      <trkpt lat="42.4403980" lon="-2.9077900">
        <ele>638.4</ele>
        <time>2022-06-27T08:26:02Z</time>
      </trkpt>
      <trkpt lat="42.4403810" lon="-2.9079000">
        <ele>638.4</ele>
        <time>2022-06-27T08:26:03Z</time>
      </trkpt>
      <trkpt lat="42.4403620" lon="-2.9080130">
        <ele>638.2</ele>
        <time>2022-06-27T08:26:04Z</time>
      </trkpt>
      <trkpt lat="42.4403430" lon="-2.9081240">
        <ele>638.2</ele>
        <time>2022-06-27T08:26:05Z</time>
      </trkpt>
      <trkpt lat="42.4403220" lon="-2.9082360">
        <ele>638.0</ele>
        <time>2022-06-27T08:26:06Z</time>
      </trkpt>
      <trkpt lat="42.4403020" lon="-2.9083490">
        <ele>638.0</ele>
        <time>2022-06-27T08:26:07Z</time>
      </trkpt>
      <trkpt lat="42.4402820" lon="-2.9084630">
        <ele>637.8</ele>
        <time>2022-06-27T08:26:08Z</time>
      </trkpt>
      <trkpt lat="42.4402610" lon="-2.9085780">
        <ele>637.8</ele>
        <time>2022-06-27T08:26:09Z</time>
      </trkpt>
      <trkpt lat="42.4402400" lon="-2.9086910">
        <ele>637.8</ele>
        <time>2022-06-27T08:26:10Z</time>
      </trkpt>
      <trkpt lat="42.4402170" lon="-2.9088050">
        <ele>637.8</ele>
        <time>2022-06-27T08:26:11Z</time>
      </trkpt>
      <trkpt lat="42.4401940" lon="-2.9089200">
        <ele>637.8</ele>
        <time>2022-06-27T08:26:12Z</time>
      </trkpt>
      <trkpt lat="42.4401720" lon="-2.9090360">
        <ele>637.8</ele>
        <time>2022-06-27T08:26:13Z</time>
      </trkpt>
      <trkpt lat="42.4401510" lon="-2.9091500">
        <ele>637.8</ele>
        <time>2022-06-27T08:26:14Z</time>
      </trkpt>
      <trkpt lat="42.4401300" lon="-2.9092620">
        <ele>637.6</ele>
        <time>2022-06-27T08:26:15Z</time>
      </trkpt>
      <trkpt lat="42.4401080" lon="-2.9093780">
        <ele>637.6</ele>
        <time>2022-06-27T08:26:16Z</time>
      </trkpt>
      <trkpt lat="42.4400860" lon="-2.9094950">
        <ele>637.6</ele>
        <time>2022-06-27T08:26:17Z</time>
      </trkpt>
      <trkpt lat="42.4400670" lon="-2.9096110">
        <ele>637.6</ele>
        <time>2022-06-27T08:26:18Z</time>
      </trkpt>
      <trkpt lat="42.4400490" lon="-2.9097270">
        <ele>637.6</ele>
        <time>2022-06-27T08:26:19Z</time>
      </trkpt>
      <trkpt lat="42.4400330" lon="-2.9098430">
        <ele>637.6</ele>
        <time>2022-06-27T08:26:20Z</time>
      </trkpt>
      <trkpt lat="42.4400210" lon="-2.9099580">
        <ele>637.6</ele>
        <time>2022-06-27T08:26:21Z</time>
      </trkpt>
      <trkpt lat="42.4400080" lon="-2.9100740">
        <ele>637.4</ele>
        <time>2022-06-27T08:26:22Z</time>
      </trkpt>
      <trkpt lat="42.4399970" lon="-2.9101920">
        <ele>637.2</ele>
        <time>2022-06-27T08:26:23Z</time>
      </trkpt>
      <trkpt lat="42.4399880" lon="-2.9103110">
        <ele>637.2</ele>
        <time>2022-06-27T08:26:24Z</time>
      </trkpt>
      <trkpt lat="42.4399800" lon="-2.9104300">
        <ele>637.0</ele>
        <time>2022-06-27T08:26:25Z</time>
      </trkpt>
      <trkpt lat="42.4399710" lon="-2.9105480">
        <ele>637.0</ele>
        <time>2022-06-27T08:26:26Z</time>
      </trkpt>
      <trkpt lat="42.4399640" lon="-2.9106660">
        <ele>636.8</ele>
        <time>2022-06-27T08:26:27Z</time>
      </trkpt>
      <trkpt lat="42.4399560" lon="-2.9107840">
        <ele>636.8</ele>
        <time>2022-06-27T08:26:28Z</time>
      </trkpt>
      <trkpt lat="42.4399500" lon="-2.9109030">
        <ele>636.6</ele>
        <time>2022-06-27T08:26:29Z</time>
      </trkpt>
      <trkpt lat="42.4399440" lon="-2.9110240">
        <ele>636.6</ele>
        <time>2022-06-27T08:26:30Z</time>
      </trkpt>
      <trkpt lat="42.4399380" lon="-2.9111440">
        <ele>636.2</ele>
        <time>2022-06-27T08:26:31Z</time>
      </trkpt>
      <trkpt lat="42.4399300" lon="-2.9112630">
        <ele>636.4</ele>
        <time>2022-06-27T08:26:32Z</time>
      </trkpt>
      <trkpt lat="42.4399230" lon="-2.9113830">
        <ele>636.0</ele>
        <time>2022-06-27T08:26:33Z</time>
      </trkpt>
      <trkpt lat="42.4399170" lon="-2.9115040">
        <ele>636.0</ele>
        <time>2022-06-27T08:26:34Z</time>
      </trkpt>
      <trkpt lat="42.4399110" lon="-2.9116270">
        <ele>636.2</ele>
        <time>2022-06-27T08:26:35Z</time>
      </trkpt>
      <trkpt lat="42.4399070" lon="-2.9117500">
        <ele>635.8</ele>
        <time>2022-06-27T08:26:36Z</time>
      </trkpt>
      <trkpt lat="42.4399030" lon="-2.9118720">
        <ele>635.8</ele>
        <time>2022-06-27T08:26:37Z</time>
      </trkpt>
      <trkpt lat="42.4398980" lon="-2.9119940">
        <ele>635.6</ele>
        <time>2022-06-27T08:26:38Z</time>
      </trkpt>
      <trkpt lat="42.4398940" lon="-2.9121180">
        <ele>635.4</ele>
        <time>2022-06-27T08:26:39Z</time>
      </trkpt>
      <trkpt lat="42.4398910" lon="-2.9122430">
        <ele>635.2</ele>
        <time>2022-06-27T08:26:40Z</time>
      </trkpt>
      <trkpt lat="42.4398880" lon="-2.9123670">
        <ele>635.0</ele>
        <time>2022-06-27T08:26:41Z</time>
      </trkpt>
      <trkpt lat="42.4398860" lon="-2.9124930">
        <ele>635.0</ele>
        <time>2022-06-27T08:26:42Z</time>
      </trkpt>
      <trkpt lat="42.4398840" lon="-2.9126200">
        <ele>635.0</ele>
        <time>2022-06-27T08:26:43Z</time>
      </trkpt>
      <trkpt lat="42.4398810" lon="-2.9127470">
        <ele>634.8</ele>
        <time>2022-06-27T08:26:44Z</time>
      </trkpt>
      <trkpt lat="42.4398790" lon="-2.9128750">
        <ele>634.8</ele>
        <time>2022-06-27T08:26:45Z</time>
      </trkpt>
      <trkpt lat="42.4398790" lon="-2.9130030">
        <ele>634.6</ele>
        <time>2022-06-27T08:26:46Z</time>
      </trkpt>
      <trkpt lat="42.4398800" lon="-2.9131320">
        <ele>634.6</ele>
        <time>2022-06-27T08:26:47Z</time>
      </trkpt>
      <trkpt lat="42.4398850" lon="-2.9132600">
        <ele>634.4</ele>
        <time>2022-06-27T08:26:48Z</time>
      </trkpt>
      <trkpt lat="42.4398980" lon="-2.9133880">
        <ele>634.2</ele>
        <time>2022-06-27T08:26:49Z</time>
      </trkpt>
      <trkpt lat="42.4399210" lon="-2.9135140">
        <ele>634.0</ele>
        <time>2022-06-27T08:26:50Z</time>
      </trkpt>
      <trkpt lat="42.4399540" lon="-2.9136350">
        <ele>634.0</ele>
        <time>2022-06-27T08:26:51Z</time>
      </trkpt>
      <trkpt lat="42.4399990" lon="-2.9137520">
        <ele>633.6</ele>
        <time>2022-06-27T08:26:52Z</time>
      </trkpt>
      <trkpt lat="42.4400570" lon="-2.9138600">
        <ele>633.4</ele>
        <time>2022-06-27T08:26:53Z</time>
      </trkpt>
      <trkpt lat="42.4401260" lon="-2.9139550">
        <ele>633.0</ele>
        <time>2022-06-27T08:26:54Z</time>
      </trkpt>
      <trkpt lat="42.4402020" lon="-2.9140370">
        <ele>632.6</ele>
        <time>2022-06-27T08:26:55Z</time>
      </trkpt>
      <trkpt lat="42.4402830" lon="-2.9141090">
        <ele>632.6</ele>
        <time>2022-06-27T08:26:56Z</time>
      </trkpt>
      <trkpt lat="42.4403680" lon="-2.9141750">
        <ele>632.4</ele>
        <time>2022-06-27T08:26:57Z</time>
      </trkpt>
      <trkpt lat="42.4404550" lon="-2.9142390">
        <ele>632.2</ele>
        <time>2022-06-27T08:26:58Z</time>
      </trkpt>
      <trkpt lat="42.4405400" lon="-2.9143020">
        <ele>632.0</ele>
        <time>2022-06-27T08:26:59Z</time>
      </trkpt>
      <trkpt lat="42.4406230" lon="-2.9143680">
        <ele>631.8</ele>
        <time>2022-06-27T08:27:00Z</time>
      </trkpt>
      <trkpt lat="42.4407030" lon="-2.9144380">
        <ele>631.8</ele>
        <time>2022-06-27T08:27:01Z</time>
      </trkpt>
      <trkpt lat="42.4407790" lon="-2.9145150">
        <ele>631.6</ele>
        <time>2022-06-27T08:27:02Z</time>
      </trkpt>
      <trkpt lat="42.4408480" lon="-2.9146030">
        <ele>631.2</ele>
        <time>2022-06-27T08:27:03Z</time>
      </trkpt>
      <trkpt lat="42.4409090" lon="-2.9147030">
        <ele>630.8</ele>
        <time>2022-06-27T08:27:04Z</time>
      </trkpt>
      <trkpt lat="42.4409610" lon="-2.9148130">
        <ele>630.6</ele>
        <time>2022-06-27T08:27:05Z</time>
      </trkpt>
      <trkpt lat="42.4410010" lon="-2.9149330">
        <ele>630.2</ele>
        <time>2022-06-27T08:27:06Z</time>
      </trkpt>
      <trkpt lat="42.4410290" lon="-2.9150610">
        <ele>630.2</ele>
        <time>2022-06-27T08:27:07Z</time>
      </trkpt>
      <trkpt lat="42.4410470" lon="-2.9151940">
        <ele>629.8</ele>
        <time>2022-06-27T08:27:08Z</time>
      </trkpt>
      <trkpt lat="42.4410570" lon="-2.9153280">
        <ele>629.4</ele>
        <time>2022-06-27T08:27:09Z</time>
      </trkpt>
      <trkpt lat="42.4410600" lon="-2.9154640">
        <ele>629.2</ele>
        <time>2022-06-27T08:27:10Z</time>
      </trkpt>
      <trkpt lat="42.4410590" lon="-2.9156000">
        <ele>629.0</ele>
        <time>2022-06-27T08:27:11Z</time>
      </trkpt>
      <trkpt lat="42.4410570" lon="-2.9157350">
        <ele>628.8</ele>
        <time>2022-06-27T08:27:12Z</time>
      </trkpt>
      <trkpt lat="42.4410540" lon="-2.9158680">
        <ele>628.8</ele>
        <time>2022-06-27T08:27:13Z</time>
      </trkpt>
      <trkpt lat="42.4410520" lon="-2.9159990">
        <ele>628.6</ele>
        <time>2022-06-27T08:27:14Z</time>
      </trkpt>
      <trkpt lat="42.4410510" lon="-2.9161240">
        <ele>628.0</ele>
        <time>2022-06-27T08:27:15Z</time>
      </trkpt>
      <trkpt lat="42.4410500" lon="-2.9162450">
        <ele>627.8</ele>
        <time>2022-06-27T08:27:16Z</time>
      </trkpt>
      <trkpt lat="42.4410480" lon="-2.9163600">
        <ele>627.8</ele>
        <time>2022-06-27T08:27:17Z</time>
      </trkpt>
      <trkpt lat="42.4410460" lon="-2.9164690">
        <ele>627.4</ele>
        <time>2022-06-27T08:27:18Z</time>
      </trkpt>
      <trkpt lat="42.4410430" lon="-2.9165780">
        <ele>627.4</ele>
        <time>2022-06-27T08:27:19Z</time>
      </trkpt>
      <trkpt lat="42.4410410" lon="-2.9166830">
        <ele>627.4</ele>
        <time>2022-06-27T08:27:20Z</time>
      </trkpt>
      <trkpt lat="42.4410370" lon="-2.9167860">
        <ele>627.4</ele>
        <time>2022-06-27T08:27:21Z</time>
      </trkpt>
      <trkpt lat="42.4410340" lon="-2.9168860">
        <ele>627.6</ele>
        <time>2022-06-27T08:27:22Z</time>
      </trkpt>
      <trkpt lat="42.4410330" lon="-2.9169840">
        <ele>627.8</ele>
        <time>2022-06-27T08:27:23Z</time>
      </trkpt>
      <trkpt lat="42.4410310" lon="-2.9170780">
        <ele>628.0</ele>
        <time>2022-06-27T08:27:24Z</time>
      </trkpt>
      <trkpt lat="42.4410300" lon="-2.9171700">
        <ele>628.4</ele>
        <time>2022-06-27T08:27:25Z</time>
      </trkpt>
      <trkpt lat="42.4410320" lon="-2.9172600">
        <ele>628.6</ele>
        <time>2022-06-27T08:27:26Z</time>
      </trkpt>
      <trkpt lat="42.4410370" lon="-2.9173460">
        <ele>628.8</ele>
        <time>2022-06-27T08:27:27Z</time>
      </trkpt>
      <trkpt lat="42.4410500" lon="-2.9174310">
        <ele>629.2</ele>
        <time>2022-06-27T08:27:28Z</time>
      </trkpt>
      <trkpt lat="42.4410690" lon="-2.9175080">
        <ele>629.4</ele>
        <time>2022-06-27T08:27:29Z</time>
      </trkpt>
      <trkpt lat="42.4410980" lon="-2.9175800">
        <ele>629.6</ele>
        <time>2022-06-27T08:27:30Z</time>
      </trkpt>
      <trkpt lat="42.4411340" lon="-2.9176480">
        <ele>629.6</ele>
        <time>2022-06-27T08:27:31Z</time>
      </trkpt>
      <trkpt lat="42.4411670" lon="-2.9177190">
        <ele>629.8</ele>
        <time>2022-06-27T08:27:32Z</time>
      </trkpt>
      <trkpt lat="42.4411890" lon="-2.9177980">
        <ele>629.8</ele>
        <time>2022-06-27T08:27:33Z</time>
      </trkpt>
      <trkpt lat="42.4411950" lon="-2.9178800">
        <ele>629.8</ele>
        <time>2022-06-27T08:27:34Z</time>
      </trkpt>
      <trkpt lat="42.4411840" lon="-2.9179610">
        <ele>629.8</ele>
        <time>2022-06-27T08:27:35Z</time>
      </trkpt>
      <trkpt lat="42.4411550" lon="-2.9180360">
        <ele>629.8</ele>
        <time>2022-06-27T08:27:36Z</time>
      </trkpt>
      <trkpt lat="42.4411120" lon="-2.9180960">
        <ele>629.8</ele>
        <time>2022-06-27T08:27:37Z</time>
      </trkpt>
      <trkpt lat="42.4410570" lon="-2.9181380">
        <ele>630.0</ele>
        <time>2022-06-27T08:27:38Z</time>
      </trkpt>
      <trkpt lat="42.4409950" lon="-2.9181630">
        <ele>630.0</ele>
        <time>2022-06-27T08:27:39Z</time>
      </trkpt>
      <trkpt lat="42.4409310" lon="-2.9181790">
        <ele>630.0</ele>
        <time>2022-06-27T08:27:40Z</time>
      </trkpt>
      <trkpt lat="42.4408670" lon="-2.9182040">
        <ele>630.2</ele>
        <time>2022-06-27T08:27:41Z</time>
      </trkpt>
      <trkpt lat="42.4408090" lon="-2.9182490">
        <ele>630.2</ele>
        <time>2022-06-27T08:27:42Z</time>
      </trkpt>
      <trkpt lat="42.4407570" lon="-2.9183090">
        <ele>630.4</ele>
        <time>2022-06-27T08:27:43Z</time>
      </trkpt>
      <trkpt lat="42.4407100" lon="-2.9183790">
        <ele>630.6</ele>
        <time>2022-06-27T08:27:44Z</time>
      </trkpt>
      <trkpt lat="42.4406640" lon="-2.9184520">
        <ele>630.6</ele>
        <time>2022-06-27T08:27:45Z</time>
      </trkpt>
      <trkpt lat="42.4406180" lon="-2.9185260">
        <ele>630.8</ele>
        <time>2022-06-27T08:27:46Z</time>
      </trkpt>
      <trkpt lat="42.4405740" lon="-2.9186010">
        <ele>630.8</ele>
        <time>2022-06-27T08:27:47Z</time>
      </trkpt>
      <trkpt lat="42.4405320" lon="-2.9186780">
        <ele>630.8</ele>
        <time>2022-06-27T08:27:48Z</time>
      </trkpt>
      <trkpt lat="42.4404900" lon="-2.9187540">
        <ele>630.8</ele>
        <time>2022-06-27T08:27:49Z</time>
      </trkpt>
      <trkpt lat="42.4404490" lon="-2.9188300">
        <ele>631.0</ele>
        <time>2022-06-27T08:27:50Z</time>
      </trkpt>
      <trkpt lat="42.4404110" lon="-2.9189140">
        <ele>631.0</ele>
        <time>2022-06-27T08:27:51Z</time>
      </trkpt>
      <trkpt lat="42.4403770" lon="-2.9190020">
        <ele>631.0</ele>
        <time>2022-06-27T08:27:52Z</time>
      </trkpt>
      <trkpt lat="42.4403420" lon="-2.9190920">
        <ele>630.8</ele>
        <time>2022-06-27T08:27:53Z</time>
      </trkpt>
      <trkpt lat="42.4403000" lon="-2.9191820">
        <ele>630.8</ele>
        <time>2022-06-27T08:27:54Z</time>
      </trkpt>
      <trkpt lat="42.4402470" lon="-2.9192680">
        <ele>630.8</ele>
        <time>2022-06-27T08:27:55Z</time>
      </trkpt>
      <trkpt lat="42.4401870" lon="-2.9193420">
        <ele>630.8</ele>
        <time>2022-06-27T08:27:56Z</time>
      </trkpt>
      <trkpt lat="42.4401240" lon="-2.9194180">
        <ele>630.6</ele>
        <time>2022-06-27T08:27:57Z</time>
      </trkpt>
      <trkpt lat="42.4400670" lon="-2.9194940">
        <ele>630.6</ele>
        <time>2022-06-27T08:27:58Z</time>
      </trkpt>
      <trkpt lat="42.4400140" lon="-2.9195860">
        <ele>630.4</ele>
        <time>2022-06-27T08:27:59Z</time>
      </trkpt>
      <trkpt lat="42.4399690" lon="-2.9196890">
        <ele>630.0</ele>
        <time>2022-06-27T08:28:00Z</time>
      </trkpt>
      <trkpt lat="42.4399280" lon="-2.9198020">
        <ele>629.8</ele>
        <time>2022-06-27T08:28:01Z</time>
      </trkpt>
      <trkpt lat="42.4398900" lon="-2.9199220">
        <ele>629.2</ele>
        <time>2022-06-27T08:28:02Z</time>
      </trkpt>
      <trkpt lat="42.4398560" lon="-2.9200450">
        <ele>629.2</ele>
        <time>2022-06-27T08:28:03Z</time>
      </trkpt>
      <trkpt lat="42.4398260" lon="-2.9201730">
        <ele>628.4</ele>
        <time>2022-06-27T08:28:04Z</time>
      </trkpt>
      <trkpt lat="42.4398000" lon="-2.9203050">
        <ele>628.0</ele>
        <time>2022-06-27T08:28:05Z</time>
      </trkpt>
      <trkpt lat="42.4397790" lon="-2.9204420">
        <ele>627.6</ele>
        <time>2022-06-27T08:28:06Z</time>
      </trkpt>
      <trkpt lat="42.4397610" lon="-2.9205810">
        <ele>627.4</ele>
        <time>2022-06-27T08:28:07Z</time>
      </trkpt>
      <trkpt lat="42.4397480" lon="-2.9207220">
        <ele>627.0</ele>
        <time>2022-06-27T08:28:08Z</time>
      </trkpt>
      <trkpt lat="42.4397400" lon="-2.9208650">
        <ele>626.6</ele>
        <time>2022-06-27T08:28:09Z</time>
      </trkpt>
      <trkpt lat="42.4397360" lon="-2.9210080">
        <ele>626.4</ele>
        <time>2022-06-27T08:28:10Z</time>
      </trkpt>
      <trkpt lat="42.4397330" lon="-2.9211510">
        <ele>625.6</ele>
        <time>2022-06-27T08:28:11Z</time>
      </trkpt>
      <trkpt lat="42.4397290" lon="-2.9212950">
        <ele>625.2</ele>
        <time>2022-06-27T08:28:12Z</time>
      </trkpt>
      <trkpt lat="42.4397230" lon="-2.9214400">
        <ele>624.8</ele>
        <time>2022-06-27T08:28:13Z</time>
      </trkpt>
      <trkpt lat="42.4397200" lon="-2.9215810">
        <ele>624.6</ele>
        <time>2022-06-27T08:28:14Z</time>
      </trkpt>
      <trkpt lat="42.4397170" lon="-2.9217200">
        <ele>624.0</ele>
        <time>2022-06-27T08:28:15Z</time>
      </trkpt>
      <trkpt lat="42.4397130" lon="-2.9218590">
        <ele>623.4</ele>
        <time>2022-06-27T08:28:16Z</time>
      </trkpt>
      <trkpt lat="42.4397110" lon="-2.9219950">
        <ele>623.2</ele>
        <time>2022-06-27T08:28:17Z</time>
      </trkpt>
      <trkpt lat="42.4397090" lon="-2.9221320">
        <ele>623.0</ele>
        <time>2022-06-27T08:28:18Z</time>
      </trkpt>
      <trkpt lat="42.4397080" lon="-2.9222670">
        <ele>622.8</ele>
        <time>2022-06-27T08:28:19Z</time>
      </trkpt>
      <trkpt lat="42.4397050" lon="-2.9224020">
        <ele>622.8</ele>
        <time>2022-06-27T08:28:20Z</time>
      </trkpt>
      <trkpt lat="42.4397040" lon="-2.9225360">
        <ele>622.6</ele>
        <time>2022-06-27T08:28:21Z</time>
      </trkpt>
      <trkpt lat="42.4397010" lon="-2.9226690">
        <ele>622.6</ele>
        <time>2022-06-27T08:28:22Z</time>
      </trkpt>
      <trkpt lat="42.4397000" lon="-2.9228000">
        <ele>622.4</ele>
        <time>2022-06-27T08:28:23Z</time>
      </trkpt>
      <trkpt lat="42.4397000" lon="-2.9229320">
        <ele>622.4</ele>
        <time>2022-06-27T08:28:24Z</time>
      </trkpt>
      <trkpt lat="42.4396990" lon="-2.9230650">
        <ele>622.2</ele>
        <time>2022-06-27T08:28:25Z</time>
      </trkpt>
      <trkpt lat="42.4396980" lon="-2.9231960">
        <ele>622.2</ele>
        <time>2022-06-27T08:28:26Z</time>
      </trkpt>
      <trkpt lat="42.4396990" lon="-2.9233290">
        <ele>622.2</ele>
        <time>2022-06-27T08:28:27Z</time>
      </trkpt>
      <trkpt lat="42.4396960" lon="-2.9234630">
        <ele>622.2</ele>
        <time>2022-06-27T08:28:28Z</time>
      </trkpt>
      <trkpt lat="42.4396930" lon="-2.9235970">
        <ele>622.0</ele>
        <time>2022-06-27T08:28:29Z</time>
      </trkpt>
      <trkpt lat="42.4396910" lon="-2.9237320">
        <ele>621.6</ele>
        <time>2022-06-27T08:28:30Z</time>
      </trkpt>
      <trkpt lat="42.4396890" lon="-2.9238630">
        <ele>621.6</ele>
        <time>2022-06-27T08:28:31Z</time>
      </trkpt>
      <trkpt lat="42.4396870" lon="-2.9239980">
        <ele>621.2</ele>
        <time>2022-06-27T08:28:32Z</time>
      </trkpt>
      <trkpt lat="42.4396870" lon="-2.9241310">
        <ele>621.0</ele>
        <time>2022-06-27T08:28:33Z</time>
      </trkpt>
      <trkpt lat="42.4396850" lon="-2.9242650">
        <ele>620.8</ele>
        <time>2022-06-27T08:28:34Z</time>
      </trkpt>
      <trkpt lat="42.4396840" lon="-2.9243980">
        <ele>620.8</ele>
        <time>2022-06-27T08:28:35Z</time>
      </trkpt>
      <trkpt lat="42.4396810" lon="-2.9245320">
        <ele>620.8</ele>
        <time>2022-06-27T08:28:36Z</time>
      </trkpt>
      <trkpt lat="42.4396780" lon="-2.9246670">
        <ele>620.4</ele>
        <time>2022-06-27T08:28:37Z</time>
      </trkpt>
      <trkpt lat="42.4396760" lon="-2.9248000">
        <ele>620.0</ele>
        <time>2022-06-27T08:28:38Z</time>
      </trkpt>
      <trkpt lat="42.4396730" lon="-2.9249330">
        <ele>619.6</ele>
        <time>2022-06-27T08:28:39Z</time>
      </trkpt>
      <trkpt lat="42.4396720" lon="-2.9250640">
        <ele>619.4</ele>
        <time>2022-06-27T08:28:40Z</time>
      </trkpt>
      <trkpt lat="42.4396690" lon="-2.9251930">
        <ele>619.2</ele>
        <time>2022-06-27T08:28:41Z</time>
      </trkpt>
      <trkpt lat="42.4396660" lon="-2.9253250">
        <ele>619.2</ele>
        <time>2022-06-27T08:28:42Z</time>
      </trkpt>
      <trkpt lat="42.4396640" lon="-2.9254580">
        <ele>619.0</ele>
        <time>2022-06-27T08:28:43Z</time>
      </trkpt>
      <trkpt lat="42.4396600" lon="-2.9255890">
        <ele>618.8</ele>
        <time>2022-06-27T08:28:44Z</time>
      </trkpt>
      <trkpt lat="42.4396580" lon="-2.9257180">
        <ele>618.8</ele>
        <time>2022-06-27T08:28:45Z</time>
      </trkpt>
      <trkpt lat="42.4396550" lon="-2.9258490">
        <ele>618.6</ele>
        <time>2022-06-27T08:28:46Z</time>
      </trkpt>
      <trkpt lat="42.4396520" lon="-2.9259800">
        <ele>618.4</ele>
        <time>2022-06-27T08:28:47Z</time>
      </trkpt>
      <trkpt lat="42.4396470" lon="-2.9261140">
        <ele>618.0</ele>
        <time>2022-06-27T08:28:48Z</time>
      </trkpt>
      <trkpt lat="42.4396410" lon="-2.9262460">
        <ele>618.0</ele>
        <time>2022-06-27T08:28:49Z</time>
      </trkpt>
      <trkpt lat="42.4396370" lon="-2.9263790">
        <ele>617.6</ele>
        <time>2022-06-27T08:28:50Z</time>
      </trkpt>
      <trkpt lat="42.4396340" lon="-2.9265110">
        <ele>617.4</ele>
        <time>2022-06-27T08:28:51Z</time>
      </trkpt>
      <trkpt lat="42.4396310" lon="-2.9266470">
        <ele>617.4</ele>
        <time>2022-06-27T08:28:52Z</time>
      </trkpt>
      <trkpt lat="42.4396290" lon="-2.9267860">
        <ele>617.0</ele>
        <time>2022-06-27T08:28:53Z</time>
      </trkpt>
      <trkpt lat="42.4396240" lon="-2.9269250">
        <ele>616.8</ele>
        <time>2022-06-27T08:28:54Z</time>
      </trkpt>
      <trkpt lat="42.4396200" lon="-2.9270620">
        <ele>616.4</ele>
        <time>2022-06-27T08:28:55Z</time>
      </trkpt>
      <trkpt lat="42.4396190" lon="-2.9271990">
        <ele>616.2</ele>
        <time>2022-06-27T08:28:56Z</time>
      </trkpt>
      <trkpt lat="42.4396180" lon="-2.9273370">
        <ele>616.0</ele>
        <time>2022-06-27T08:28:57Z</time>
      </trkpt>
      <trkpt lat="42.4396160" lon="-2.9274730">
        <ele>616.0</ele>
        <time>2022-06-27T08:28:58Z</time>
      </trkpt>
      <trkpt lat="42.4396130" lon="-2.9276030">
        <ele>615.0</ele>
        <time>2022-06-27T08:28:59Z</time>
      </trkpt>
      <trkpt lat="42.4396100" lon="-2.9277350">
        <ele>614.6</ele>
        <time>2022-06-27T08:29:00Z</time>
      </trkpt>
      <trkpt lat="42.4396080" lon="-2.9278650">
        <ele>614.6</ele>
        <time>2022-06-27T08:29:01Z</time>
      </trkpt>
      <trkpt lat="42.4396060" lon="-2.9279940">
        <ele>614.4</ele>
        <time>2022-06-27T08:29:02Z</time>
      </trkpt>
      <trkpt lat="42.4396050" lon="-2.9281240">
        <ele>614.4</ele>
        <time>2022-06-27T08:29:03Z</time>
      </trkpt>
      <trkpt lat="42.4396030" lon="-2.9282530">
        <ele>614.4</ele>
        <time>2022-06-27T08:29:04Z</time>
      </trkpt>
      <trkpt lat="42.4396010" lon="-2.9283790">
        <ele>614.4</ele>
        <time>2022-06-27T08:29:05Z</time>
      </trkpt>
      <trkpt lat="42.4395990" lon="-2.9285040">
        <ele>614.4</ele>
        <time>2022-06-27T08:29:06Z</time>
      </trkpt>
      <trkpt lat="42.4395970" lon="-2.9286270">
        <ele>614.4</ele>
        <time>2022-06-27T08:29:07Z</time>
      </trkpt>
      <trkpt lat="42.4395920" lon="-2.9287460">
        <ele>614.4</ele>
        <time>2022-06-27T08:29:08Z</time>
      </trkpt>
      <trkpt lat="42.4395870" lon="-2.9288650">
        <ele>614.4</ele>
        <time>2022-06-27T08:29:09Z</time>
      </trkpt>
      <trkpt lat="42.4395860" lon="-2.9289850">
        <ele>614.2</ele>
        <time>2022-06-27T08:29:10Z</time>
      </trkpt>
      <trkpt lat="42.4395870" lon="-2.9291030">
        <ele>614.2</ele>
        <time>2022-06-27T08:29:11Z</time>
      </trkpt>
      <trkpt lat="42.4395870" lon="-2.9292200">
        <ele>614.2</ele>
        <time>2022-06-27T08:29:12Z</time>
      </trkpt>
      <trkpt lat="42.4395860" lon="-2.9293360">
        <ele>614.0</ele>
        <time>2022-06-27T08:29:13Z</time>
      </trkpt>
      <trkpt lat="42.4395840" lon="-2.9294520">
        <ele>614.0</ele>
        <time>2022-06-27T08:29:14Z</time>
      </trkpt>
      <trkpt lat="42.4395810" lon="-2.9295650">
        <ele>614.0</ele>
        <time>2022-06-27T08:29:15Z</time>
      </trkpt>
      <trkpt lat="42.4395790" lon="-2.9296760">
        <ele>613.8</ele>
        <time>2022-06-27T08:29:16Z</time>
      </trkpt>
      <trkpt lat="42.4395780" lon="-2.9297860">
        <ele>613.8</ele>
        <time>2022-06-27T08:29:17Z</time>
      </trkpt>
      <trkpt lat="42.4395770" lon="-2.9298950">
        <ele>613.8</ele>
        <time>2022-06-27T08:29:18Z</time>
      </trkpt>
      <trkpt lat="42.4395770" lon="-2.9300040">
        <ele>613.8</ele>
        <time>2022-06-27T08:29:19Z</time>
      </trkpt>
      <trkpt lat="42.4395760" lon="-2.9301120">
        <ele>614.0</ele>
        <time>2022-06-27T08:29:20Z</time>
      </trkpt>
      <trkpt lat="42.4395750" lon="-2.9302200">
        <ele>614.2</ele>
        <time>2022-06-27T08:29:21Z</time>
      </trkpt>
      <trkpt lat="42.4395730" lon="-2.9303280">
        <ele>614.2</ele>
        <time>2022-06-27T08:29:22Z</time>
      </trkpt>
      <trkpt lat="42.4395700" lon="-2.9304330">
        <ele>614.4</ele>
        <time>2022-06-27T08:29:23Z</time>
      </trkpt>
      <trkpt lat="42.4395670" lon="-2.9305400">
        <ele>614.4</ele>
        <time>2022-06-27T08:29:24Z</time>
      </trkpt>
      <trkpt lat="42.4395660" lon="-2.9306470">
        <ele>614.4</ele>
        <time>2022-06-27T08:29:25Z</time>
      </trkpt>
      <trkpt lat="42.4395630" lon="-2.9307530">
        <ele>614.4</ele>
        <time>2022-06-27T08:29:26Z</time>
      </trkpt>
      <trkpt lat="42.4395620" lon="-2.9308580">
        <ele>614.4</ele>
        <time>2022-06-27T08:29:27Z</time>
      </trkpt>
      <trkpt lat="42.4395600" lon="-2.9309660">
        <ele>614.4</ele>
        <time>2022-06-27T08:29:28Z</time>
      </trkpt>
      <trkpt lat="42.4395590" lon="-2.9310720">
        <ele>614.4</ele>
        <time>2022-06-27T08:29:29Z</time>
      </trkpt>
      <trkpt lat="42.4395580" lon="-2.9311770">
        <ele>614.6</ele>
        <time>2022-06-27T08:29:30Z</time>
      </trkpt>
      <trkpt lat="42.4395570" lon="-2.9312790">
        <ele>614.6</ele>
        <time>2022-06-27T08:29:31Z</time>
      </trkpt>
      <trkpt lat="42.4395530" lon="-2.9313830">
        <ele>614.6</ele>
        <time>2022-06-27T08:29:32Z</time>
      </trkpt>
      <trkpt lat="42.4395510" lon="-2.9314860">
        <ele>614.6</ele>
        <time>2022-06-27T08:29:33Z</time>
      </trkpt>
      <trkpt lat="42.4395470" lon="-2.9315860">
        <ele>614.8</ele>
        <time>2022-06-27T08:29:34Z</time>
      </trkpt>
      <trkpt lat="42.4395460" lon="-2.9316890">
        <ele>614.8</ele>
        <time>2022-06-27T08:29:35Z</time>
      </trkpt>
      <trkpt lat="42.4395440" lon="-2.9317910">
        <ele>614.8</ele>
        <time>2022-06-27T08:29:36Z</time>
      </trkpt>
      <trkpt lat="42.4395420" lon="-2.9318920">
        <ele>615.0</ele>
        <time>2022-06-27T08:29:37Z</time>
      </trkpt>
      <trkpt lat="42.4395410" lon="-2.9319950">
        <ele>615.2</ele>
        <time>2022-06-27T08:29:38Z</time>
      </trkpt>
      <trkpt lat="42.4395400" lon="-2.9320960">
        <ele>615.2</ele>
        <time>2022-06-27T08:29:39Z</time>
      </trkpt>
      <trkpt lat="42.4395380" lon="-2.9321960">
        <ele>615.2</ele>
        <time>2022-06-27T08:29:40Z</time>
      </trkpt>
      <trkpt lat="42.4395370" lon="-2.9322960">
        <ele>615.2</ele>
        <time>2022-06-27T08:29:41Z</time>
      </trkpt>
      <trkpt lat="42.4395340" lon="-2.9323940">
        <ele>615.4</ele>
        <time>2022-06-27T08:29:42Z</time>
      </trkpt>
      <trkpt lat="42.4395320" lon="-2.9324920">
        <ele>615.4</ele>
        <time>2022-06-27T08:29:43Z</time>
      </trkpt>
      <trkpt lat="42.4395300" lon="-2.9325910">
        <ele>615.6</ele>
        <time>2022-06-27T08:29:44Z</time>
      </trkpt>
      <trkpt lat="42.4395290" lon="-2.9326910">
        <ele>615.6</ele>
        <time>2022-06-27T08:29:45Z</time>
      </trkpt>
      <trkpt lat="42.4395270" lon="-2.9327890">
        <ele>615.6</ele>
        <time>2022-06-27T08:29:46Z</time>
      </trkpt>
      <trkpt lat="42.4395260" lon="-2.9328890">
        <ele>615.6</ele>
        <time>2022-06-27T08:29:47Z</time>
      </trkpt>
      <trkpt lat="42.4395240" lon="-2.9329870">
        <ele>615.8</ele>
        <time>2022-06-27T08:29:48Z</time>
      </trkpt>
      <trkpt lat="42.4395230" lon="-2.9330860">
        <ele>615.8</ele>
        <time>2022-06-27T08:29:49Z</time>
      </trkpt>
      <trkpt lat="42.4395240" lon="-2.9331860">
        <ele>615.8</ele>
        <time>2022-06-27T08:29:50Z</time>
      </trkpt>
      <trkpt lat="42.4395240" lon="-2.9332830">
        <ele>616.0</ele>
        <time>2022-06-27T08:29:51Z</time>
      </trkpt>
      <trkpt lat="42.4395230" lon="-2.9333820">
        <ele>616.2</ele>
        <time>2022-06-27T08:29:52Z</time>
      </trkpt>
      <trkpt lat="42.4395200" lon="-2.9334820">
        <ele>616.2</ele>
        <time>2022-06-27T08:29:53Z</time>
      </trkpt>
      <trkpt lat="42.4395180" lon="-2.9335830">
        <ele>616.2</ele>
        <time>2022-06-27T08:29:54Z</time>
      </trkpt>
      <trkpt lat="42.4395160" lon="-2.9336820">
        <ele>616.4</ele>
        <time>2022-06-27T08:29:55Z</time>
      </trkpt>
      <trkpt lat="42.4395140" lon="-2.9337820">
        <ele>616.4</ele>
        <time>2022-06-27T08:29:56Z</time>
      </trkpt>
      <trkpt lat="42.4395130" lon="-2.9338810">
        <ele>616.4</ele>
        <time>2022-06-27T08:29:57Z</time>
      </trkpt>
      <trkpt lat="42.4395120" lon="-2.9339820">
        <ele>616.4</ele>
        <time>2022-06-27T08:29:58Z</time>
      </trkpt>
      <trkpt lat="42.4395100" lon="-2.9340790">
        <ele>616.6</ele>
        <time>2022-06-27T08:29:59Z</time>
      </trkpt>
      <trkpt lat="42.4395090" lon="-2.9341770">
        <ele>616.6</ele>
        <time>2022-06-27T08:30:00Z</time>
      </trkpt>
      <trkpt lat="42.4395070" lon="-2.9342770">
        <ele>616.8</ele>
        <time>2022-06-27T08:30:01Z</time>
      </trkpt>
      <trkpt lat="42.4395060" lon="-2.9343780">
        <ele>616.8</ele>
        <time>2022-06-27T08:30:02Z</time>
      </trkpt>
      <trkpt lat="42.4395020" lon="-2.9344780">
        <ele>616.8</ele>
        <time>2022-06-27T08:30:03Z</time>
      </trkpt>
      <trkpt lat="42.4395000" lon="-2.9345760">
        <ele>616.8</ele>
        <time>2022-06-27T08:30:04Z</time>
      </trkpt>
      <trkpt lat="42.4394970" lon="-2.9346740">
        <ele>617.0</ele>
        <time>2022-06-27T08:30:05Z</time>
      </trkpt>
      <trkpt lat="42.4394960" lon="-2.9347720">
        <ele>617.0</ele>
        <time>2022-06-27T08:30:06Z</time>
      </trkpt>
      <trkpt lat="42.4394950" lon="-2.9348690">
        <ele>616.8</ele>
        <time>2022-06-27T08:30:07Z</time>
      </trkpt>
      <trkpt lat="42.4394920" lon="-2.9349650">
        <ele>616.8</ele>
        <time>2022-06-27T08:30:08Z</time>
      </trkpt>
      <trkpt lat="42.4394920" lon="-2.9350610">
        <ele>617.0</ele>
        <time>2022-06-27T08:30:09Z</time>
      </trkpt>
      <trkpt lat="42.4394920" lon="-2.9351570">
        <ele>617.0</ele>
        <time>2022-06-27T08:30:10Z</time>
      </trkpt>
      <trkpt lat="42.4394930" lon="-2.9352540">
        <ele>617.2</ele>
        <time>2022-06-27T08:30:11Z</time>
      </trkpt>
      <trkpt lat="42.4394910" lon="-2.9353500">
        <ele>617.0</ele>
        <time>2022-06-27T08:30:12Z</time>
      </trkpt>
      <trkpt lat="42.4394900" lon="-2.9354460">
        <ele>617.0</ele>
        <time>2022-06-27T08:30:13Z</time>
      </trkpt>
      <trkpt lat="42.4394870" lon="-2.9355400">
        <ele>617.2</ele>
        <time>2022-06-27T08:30:14Z</time>
      </trkpt>
      <trkpt lat="42.4394850" lon="-2.9356360">
        <ele>617.2</ele>
        <time>2022-06-27T08:30:15Z</time>
      </trkpt>
      <trkpt lat="42.4394830" lon="-2.9357340">
        <ele>617.2</ele>
        <time>2022-06-27T08:30:16Z</time>
      </trkpt>
      <trkpt lat="42.4394820" lon="-2.9358280">
        <ele>617.4</ele>
        <time>2022-06-27T08:30:17Z</time>
      </trkpt>
      <trkpt lat="42.4394810" lon="-2.9359250">
        <ele>617.4</ele>
        <time>2022-06-27T08:30:18Z</time>
      </trkpt>
      <trkpt lat="42.4394790" lon="-2.9360210">
        <ele>617.4</ele>
        <time>2022-06-27T08:30:19Z</time>
      </trkpt>
      <trkpt lat="42.4394780" lon="-2.9361160">
        <ele>617.6</ele>
        <time>2022-06-27T08:30:20Z</time>
      </trkpt>
      <trkpt lat="42.4394760" lon="-2.9362110">
        <ele>617.6</ele>
        <time>2022-06-27T08:30:21Z</time>
      </trkpt>
      <trkpt lat="42.4394720" lon="-2.9363050">
        <ele>617.8</ele>
        <time>2022-06-27T08:30:22Z</time>
      </trkpt>
      <trkpt lat="42.4394690" lon="-2.9363960">
        <ele>618.0</ele>
        <time>2022-06-27T08:30:23Z</time>
      </trkpt>
      <trkpt lat="42.4394670" lon="-2.9364890">
        <ele>618.0</ele>
        <time>2022-06-27T08:30:24Z</time>
      </trkpt>
      <trkpt lat="42.4394670" lon="-2.9365810">
        <ele>618.0</ele>
        <time>2022-06-27T08:30:25Z</time>
      </trkpt>
      <trkpt lat="42.4394650" lon="-2.9366730">
        <ele>618.0</ele>
        <time>2022-06-27T08:30:26Z</time>
      </trkpt>
      <trkpt lat="42.4394660" lon="-2.9367660">
        <ele>618.0</ele>
        <time>2022-06-27T08:30:27Z</time>
      </trkpt>
      <trkpt lat="42.4394660" lon="-2.9368640">
        <ele>618.0</ele>
        <time>2022-06-27T08:30:28Z</time>
      </trkpt>
      <trkpt lat="42.4394640" lon="-2.9369620">
        <ele>618.0</ele>
        <time>2022-06-27T08:30:29Z</time>
      </trkpt>
      <trkpt lat="42.4394610" lon="-2.9370590">
        <ele>618.2</ele>
        <time>2022-06-27T08:30:30Z</time>
      </trkpt>
      <trkpt lat="42.4394610" lon="-2.9371540">
        <ele>618.0</ele>
        <time>2022-06-27T08:30:31Z</time>
      </trkpt>
      <trkpt lat="42.4394610" lon="-2.9372480">
        <ele>618.2</ele>
        <time>2022-06-27T08:30:32Z</time>
      </trkpt>
      <trkpt lat="42.4394580" lon="-2.9373420">
        <ele>618.2</ele>
        <time>2022-06-27T08:30:33Z</time>
      </trkpt>
      <trkpt lat="42.4394540" lon="-2.9374370">
        <ele>618.4</ele>
        <time>2022-06-27T08:30:34Z</time>
      </trkpt>
      <trkpt lat="42.4394490" lon="-2.9375320">
        <ele>618.6</ele>
        <time>2022-06-27T08:30:35Z</time>
      </trkpt>
      <trkpt lat="42.4394460" lon="-2.9376270">
        <ele>618.6</ele>
        <time>2022-06-27T08:30:36Z</time>
      </trkpt>
      <trkpt lat="42.4394440" lon="-2.9377210">
        <ele>618.8</ele>
        <time>2022-06-27T08:30:37Z</time>
      </trkpt>
      <trkpt lat="42.4394410" lon="-2.9378150">
        <ele>618.8</ele>
        <time>2022-06-27T08:30:38Z</time>
      </trkpt>
      <trkpt lat="42.4394390" lon="-2.9379090">
        <ele>618.8</ele>
        <time>2022-06-27T08:30:39Z</time>
      </trkpt>
      <trkpt lat="42.4394350" lon="-2.9380020">
        <ele>618.8</ele>
        <time>2022-06-27T08:30:40Z</time>
      </trkpt>
      <trkpt lat="42.4394320" lon="-2.9380990">
        <ele>619.0</ele>
        <time>2022-06-27T08:30:41Z</time>
      </trkpt>
      <trkpt lat="42.4394300" lon="-2.9381970">
        <ele>619.0</ele>
        <time>2022-06-27T08:30:42Z</time>
      </trkpt>
      <trkpt lat="42.4394290" lon="-2.9382970">
        <ele>619.2</ele>
        <time>2022-06-27T08:30:43Z</time>
      </trkpt>
      <trkpt lat="42.4394290" lon="-2.9383980">
        <ele>619.2</ele>
        <time>2022-06-27T08:30:44Z</time>
      </trkpt>
      <trkpt lat="42.4394270" lon="-2.9384990">
        <ele>619.2</ele>
        <time>2022-06-27T08:30:45Z</time>
      </trkpt>
      <trkpt lat="42.4394260" lon="-2.9385980">
        <ele>619.2</ele>
        <time>2022-06-27T08:30:46Z</time>
      </trkpt>
      <trkpt lat="42.4394250" lon="-2.9386960">
        <ele>619.2</ele>
        <time>2022-06-27T08:30:47Z</time>
      </trkpt>
      <trkpt lat="42.4394240" lon="-2.9387960">
        <ele>619.2</ele>
        <time>2022-06-27T08:30:48Z</time>
      </trkpt>
      <trkpt lat="42.4394210" lon="-2.9388960">
        <ele>619.2</ele>
        <time>2022-06-27T08:30:49Z</time>
      </trkpt>
      <trkpt lat="42.4394190" lon="-2.9389940">
        <ele>619.2</ele>
        <time>2022-06-27T08:30:50Z</time>
      </trkpt>
      <trkpt lat="42.4394160" lon="-2.9390920">
        <ele>619.4</ele>
        <time>2022-06-27T08:30:51Z</time>
      </trkpt>
      <trkpt lat="42.4394130" lon="-2.9391870">
        <ele>619.4</ele>
        <time>2022-06-27T08:30:52Z</time>
      </trkpt>
      <trkpt lat="42.4394110" lon="-2.9392820">
        <ele>619.4</ele>
        <time>2022-06-27T08:30:53Z</time>
      </trkpt>
      <trkpt lat="42.4394110" lon="-2.9393790">
        <ele>619.6</ele>
        <time>2022-06-27T08:30:54Z</time>
      </trkpt>
      <trkpt lat="42.4394100" lon="-2.9394760">
        <ele>619.8</ele>
        <time>2022-06-27T08:30:55Z</time>
      </trkpt>
      <trkpt lat="42.4394070" lon="-2.9395740">
        <ele>619.8</ele>
        <time>2022-06-27T08:30:56Z</time>
      </trkpt>
      <trkpt lat="42.4394040" lon="-2.9396710">
        <ele>619.8</ele>
        <time>2022-06-27T08:30:57Z</time>
      </trkpt>
      <trkpt lat="42.4394020" lon="-2.9397670">
        <ele>619.8</ele>
        <time>2022-06-27T08:30:58Z</time>
      </trkpt>
      <trkpt lat="42.4394000" lon="-2.9398610">
        <ele>619.8</ele>
        <time>2022-06-27T08:30:59Z</time>
      </trkpt>
      <trkpt lat="42.4393980" lon="-2.9399570">
        <ele>620.0</ele>
        <time>2022-06-27T08:31:00Z</time>
      </trkpt>
      <trkpt lat="42.4393960" lon="-2.9400530">
        <ele>620.0</ele>
        <time>2022-06-27T08:31:01Z</time>
      </trkpt>
      <trkpt lat="42.4393930" lon="-2.9401480">
        <ele>620.2</ele>
        <time>2022-06-27T08:31:02Z</time>
      </trkpt>
      <trkpt lat="42.4393920" lon="-2.9402410">
        <ele>620.2</ele>
        <time>2022-06-27T08:31:03Z</time>
      </trkpt>
      <trkpt lat="42.4393910" lon="-2.9403370">
        <ele>620.4</ele>
        <time>2022-06-27T08:31:04Z</time>
      </trkpt>
      <trkpt lat="42.4393900" lon="-2.9404330">
        <ele>620.6</ele>
        <time>2022-06-27T08:31:05Z</time>
      </trkpt>
      <trkpt lat="42.4393900" lon="-2.9405300">
        <ele>620.6</ele>
        <time>2022-06-27T08:31:06Z</time>
      </trkpt>
      <trkpt lat="42.4393880" lon="-2.9406280">
        <ele>620.8</ele>
        <time>2022-06-27T08:31:07Z</time>
      </trkpt>
      <trkpt lat="42.4393850" lon="-2.9407250">
        <ele>620.8</ele>
        <time>2022-06-27T08:31:08Z</time>
      </trkpt>
      <trkpt lat="42.4393820" lon="-2.9408220">
        <ele>621.0</ele>
        <time>2022-06-27T08:31:09Z</time>
      </trkpt>
      <trkpt lat="42.4393790" lon="-2.9409140">
        <ele>620.6</ele>
        <time>2022-06-27T08:31:10Z</time>
      </trkpt>
      <trkpt lat="42.4393780" lon="-2.9410090">
        <ele>620.6</ele>
        <time>2022-06-27T08:31:11Z</time>
      </trkpt>
      <trkpt lat="42.4393740" lon="-2.9411060">
        <ele>620.6</ele>
        <time>2022-06-27T08:31:12Z</time>
      </trkpt>
      <trkpt lat="42.4393740" lon="-2.9412030">
        <ele>620.6</ele>
        <time>2022-06-27T08:31:13Z</time>
      </trkpt>
      <trkpt lat="42.4393730" lon="-2.9413000">
        <ele>620.6</ele>
        <time>2022-06-27T08:31:14Z</time>
      </trkpt>
      <trkpt lat="42.4393710" lon="-2.9413970">
        <ele>620.6</ele>
        <time>2022-06-27T08:31:15Z</time>
      </trkpt>
      <trkpt lat="42.4393690" lon="-2.9414930">
        <ele>620.6</ele>
        <time>2022-06-27T08:31:16Z</time>
      </trkpt>
      <trkpt lat="42.4393650" lon="-2.9415900">
        <ele>620.4</ele>
        <time>2022-06-27T08:31:17Z</time>
      </trkpt>
      <trkpt lat="42.4393620" lon="-2.9416880">
        <ele>620.4</ele>
        <time>2022-06-27T08:31:18Z</time>
      </trkpt>
      <trkpt lat="42.4393600" lon="-2.9417830">
        <ele>620.6</ele>
        <time>2022-06-27T08:31:19Z</time>
      </trkpt>
      <trkpt lat="42.4393590" lon="-2.9418790">
        <ele>620.4</ele>
        <time>2022-06-27T08:31:20Z</time>
      </trkpt>
      <trkpt lat="42.4393580" lon="-2.9419730">
        <ele>620.4</ele>
        <time>2022-06-27T08:31:21Z</time>
      </trkpt>
      <trkpt lat="42.4393580" lon="-2.9420690">
        <ele>620.6</ele>
        <time>2022-06-27T08:31:22Z</time>
      </trkpt>
      <trkpt lat="42.4393570" lon="-2.9421660">
        <ele>620.6</ele>
        <time>2022-06-27T08:31:23Z</time>
      </trkpt>
      <trkpt lat="42.4393560" lon="-2.9422620">
        <ele>620.4</ele>
        <time>2022-06-27T08:31:24Z</time>
      </trkpt>
      <trkpt lat="42.4393510" lon="-2.9423590">
        <ele>620.6</ele>
        <time>2022-06-27T08:31:25Z</time>
      </trkpt>
      <trkpt lat="42.4393490" lon="-2.9424550">
        <ele>620.6</ele>
        <time>2022-06-27T08:31:26Z</time>
      </trkpt>
      <trkpt lat="42.4393470" lon="-2.9425520">
        <ele>620.8</ele>
        <time>2022-06-27T08:31:27Z</time>
      </trkpt>
      <trkpt lat="42.4393460" lon="-2.9426470">
        <ele>621.0</ele>
        <time>2022-06-27T08:31:28Z</time>
      </trkpt>
      <trkpt lat="42.4393450" lon="-2.9427400">
        <ele>621.0</ele>
        <time>2022-06-27T08:31:29Z</time>
      </trkpt>
      <trkpt lat="42.4393420" lon="-2.9428340">
        <ele>621.2</ele>
        <time>2022-06-27T08:31:30Z</time>
      </trkpt>
      <trkpt lat="42.4393370" lon="-2.9429300">
        <ele>621.2</ele>
        <time>2022-06-27T08:31:31Z</time>
      </trkpt>
      <trkpt lat="42.4393350" lon="-2.9430260">
        <ele>621.4</ele>
        <time>2022-06-27T08:31:32Z</time>
      </trkpt>
      <trkpt lat="42.4393340" lon="-2.9431210">
        <ele>621.4</ele>
        <time>2022-06-27T08:31:33Z</time>
      </trkpt>
      <trkpt lat="42.4393340" lon="-2.9432150">
        <ele>621.4</ele>
        <time>2022-06-27T08:31:34Z</time>
      </trkpt>
      <trkpt lat="42.4393360" lon="-2.9433080">
        <ele>621.6</ele>
        <time>2022-06-27T08:31:35Z</time>
      </trkpt>
      <trkpt lat="42.4393400" lon="-2.9433990">
        <ele>621.6</ele>
        <time>2022-06-27T08:31:36Z</time>
      </trkpt>
      <trkpt lat="42.4393430" lon="-2.9434900">
        <ele>621.6</ele>
        <time>2022-06-27T08:31:37Z</time>
      </trkpt>
      <trkpt lat="42.4393460" lon="-2.9435800">
        <ele>621.6</ele>
        <time>2022-06-27T08:31:38Z</time>
      </trkpt>
      <trkpt lat="42.4393480" lon="-2.9436690">
        <ele>621.8</ele>
        <time>2022-06-27T08:31:39Z</time>
      </trkpt>
      <trkpt lat="42.4393440" lon="-2.9437620">
        <ele>621.8</ele>
        <time>2022-06-27T08:31:40Z</time>
      </trkpt>
      <trkpt lat="42.4393390" lon="-2.9438540">
        <ele>622.0</ele>
        <time>2022-06-27T08:31:41Z</time>
      </trkpt>
      <trkpt lat="42.4393320" lon="-2.9439480">
        <ele>622.2</ele>
        <time>2022-06-27T08:31:42Z</time>
      </trkpt>
      <trkpt lat="42.4393250" lon="-2.9440410">
        <ele>622.0</ele>
        <time>2022-06-27T08:31:43Z</time>
      </trkpt>
      <trkpt lat="42.4393190" lon="-2.9441340">
        <ele>622.0</ele>
        <time>2022-06-27T08:31:44Z</time>
      </trkpt>
      <trkpt lat="42.4393140" lon="-2.9442270">
        <ele>622.2</ele>
        <time>2022-06-27T08:31:45Z</time>
      </trkpt>
      <trkpt lat="42.4393090" lon="-2.9443220">
        <ele>622.2</ele>
        <time>2022-06-27T08:31:46Z</time>
      </trkpt>
      <trkpt lat="42.4393060" lon="-2.9444150">
        <ele>622.2</ele>
        <time>2022-06-27T08:31:47Z</time>
      </trkpt>
      <trkpt lat="42.4393050" lon="-2.9445050">
        <ele>622.2</ele>
        <time>2022-06-27T08:31:48Z</time>
      </trkpt>
      <trkpt lat="42.4393050" lon="-2.9445960">
        <ele>622.2</ele>
        <time>2022-06-27T08:31:49Z</time>
      </trkpt>
      <trkpt lat="42.4393100" lon="-2.9446870">
        <ele>622.2</ele>
        <time>2022-06-27T08:31:50Z</time>
      </trkpt>
      <trkpt lat="42.4393190" lon="-2.9447770">
        <ele>622.2</ele>
        <time>2022-06-27T08:31:51Z</time>
      </trkpt>
      <trkpt lat="42.4393340" lon="-2.9448660">
        <ele>622.2</ele>
        <time>2022-06-27T08:31:52Z</time>
      </trkpt>
      <trkpt lat="42.4393540" lon="-2.9449530">
        <ele>622.2</ele>
        <time>2022-06-27T08:31:53Z</time>
      </trkpt>
      <trkpt lat="42.4393750" lon="-2.9450440">
        <ele>622.2</ele>
        <time>2022-06-27T08:31:54Z</time>
      </trkpt>
      <trkpt lat="42.4393970" lon="-2.9451350">
        <ele>622.2</ele>
        <time>2022-06-27T08:31:55Z</time>
      </trkpt>
      <trkpt lat="42.4394190" lon="-2.9452250">
        <ele>622.2</ele>
        <time>2022-06-27T08:31:56Z</time>
      </trkpt>
      <trkpt lat="42.4394420" lon="-2.9453170">
        <ele>622.2</ele>
        <time>2022-06-27T08:31:57Z</time>
      </trkpt>
      <trkpt lat="42.4394640" lon="-2.9454110">
        <ele>622.2</ele>
        <time>2022-06-27T08:31:58Z</time>
      </trkpt>
      <trkpt lat="42.4394850" lon="-2.9455030">
        <ele>622.2</ele>
        <time>2022-06-27T08:31:59Z</time>
      </trkpt>
      <trkpt lat="42.4395060" lon="-2.9455950">
        <ele>622.4</ele>
        <time>2022-06-27T08:32:00Z</time>
      </trkpt>
      <trkpt lat="42.4395270" lon="-2.9456850">
        <ele>622.4</ele>
        <time>2022-06-27T08:32:01Z</time>
      </trkpt>
      <trkpt lat="42.4395470" lon="-2.9457750">
        <ele>622.4</ele>
        <time>2022-06-27T08:32:02Z</time>
      </trkpt>
      <trkpt lat="42.4395650" lon="-2.9458660">
        <ele>622.4</ele>
        <time>2022-06-27T08:32:03Z</time>
      </trkpt>
      <trkpt lat="42.4395850" lon="-2.9459580">
        <ele>622.6</ele>
        <time>2022-06-27T08:32:04Z</time>
      </trkpt>
      <trkpt lat="42.4396050" lon="-2.9460480">
        <ele>622.6</ele>
        <time>2022-06-27T08:32:05Z</time>
      </trkpt>
      <trkpt lat="42.4396240" lon="-2.9461390">
        <ele>622.6</ele>
        <time>2022-06-27T08:32:06Z</time>
      </trkpt>
      <trkpt lat="42.4396450" lon="-2.9462280">
        <ele>622.6</ele>
        <time>2022-06-27T08:32:07Z</time>
      </trkpt>
      <trkpt lat="42.4396660" lon="-2.9463180">
        <ele>622.6</ele>
        <time>2022-06-27T08:32:08Z</time>
      </trkpt>
      <trkpt lat="42.4396880" lon="-2.9464080">
        <ele>622.8</ele>
        <time>2022-06-27T08:32:09Z</time>
      </trkpt>
      <trkpt lat="42.4397110" lon="-2.9465000">
        <ele>622.8</ele>
        <time>2022-06-27T08:32:10Z</time>
      </trkpt>
      <trkpt lat="42.4397320" lon="-2.9465910">
        <ele>622.8</ele>
        <time>2022-06-27T08:32:11Z</time>
      </trkpt>
      <trkpt lat="42.4397460" lon="-2.9466840">
        <ele>622.8</ele>
        <time>2022-06-27T08:32:12Z</time>
      </trkpt>
      <trkpt lat="42.4397620" lon="-2.9467780">
        <ele>623.0</ele>
        <time>2022-06-27T08:32:13Z</time>
      </trkpt>
      <trkpt lat="42.4397840" lon="-2.9468650">
        <ele>623.0</ele>
        <time>2022-06-27T08:32:14Z</time>
      </trkpt>
      <trkpt lat="42.4398060" lon="-2.9469510">
        <ele>623.2</ele>
        <time>2022-06-27T08:32:15Z</time>
      </trkpt>
      <trkpt lat="42.4398280" lon="-2.9470400">
        <ele>623.2</ele>
        <time>2022-06-27T08:32:16Z</time>
      </trkpt>
      <trkpt lat="42.4398490" lon="-2.9471320">
        <ele>623.2</ele>
        <time>2022-06-27T08:32:17Z</time>
      </trkpt>
      <trkpt lat="42.4398690" lon="-2.9472210">
        <ele>623.2</ele>
        <time>2022-06-27T08:32:18Z</time>
      </trkpt>
      <trkpt lat="42.4398890" lon="-2.9473100">
        <ele>623.0</ele>
        <time>2022-06-27T08:32:19Z</time>
      </trkpt>
      <trkpt lat="42.4399090" lon="-2.9473970">
        <ele>623.0</ele>
        <time>2022-06-27T08:32:20Z</time>
      </trkpt>
      <trkpt lat="42.4399260" lon="-2.9474850">
        <ele>623.2</ele>
        <time>2022-06-27T08:32:21Z</time>
      </trkpt>
      <trkpt lat="42.4399420" lon="-2.9475760">
        <ele>623.2</ele>
        <time>2022-06-27T08:32:22Z</time>
      </trkpt>
      <trkpt lat="42.4399620" lon="-2.9476650">
        <ele>623.4</ele>
        <time>2022-06-27T08:32:23Z</time>
      </trkpt>
      <trkpt lat="42.4399780" lon="-2.9477530">
        <ele>623.4</ele>
        <time>2022-06-27T08:32:24Z</time>
      </trkpt>
      <trkpt lat="42.4399960" lon="-2.9478460">
        <ele>623.4</ele>
        <time>2022-06-27T08:32:25Z</time>
      </trkpt>
      <trkpt lat="42.4400170" lon="-2.9479350">
        <ele>623.6</ele>
        <time>2022-06-27T08:32:26Z</time>
      </trkpt>
      <trkpt lat="42.4400390" lon="-2.9480220">
        <ele>623.6</ele>
        <time>2022-06-27T08:32:27Z</time>
      </trkpt>
      <trkpt lat="42.4400600" lon="-2.9481010">
        <ele>623.8</ele>
        <time>2022-06-27T08:32:28Z</time>
      </trkpt>
      <trkpt lat="42.4400820" lon="-2.9481770">
        <ele>623.8</ele>
        <time>2022-06-27T08:32:29Z</time>
      </trkpt>
      <trkpt lat="42.4401000" lon="-2.9482660">
        <ele>623.8</ele>
        <time>2022-06-27T08:32:30Z</time>
      </trkpt>
      <trkpt lat="42.4401160" lon="-2.9483500">
        <ele>623.8</ele>
        <time>2022-06-27T08:32:31Z</time>
      </trkpt>
      <trkpt lat="42.4401340" lon="-2.9484340">
        <ele>623.8</ele>
        <time>2022-06-27T08:32:32Z</time>
      </trkpt>
      <trkpt lat="42.4401510" lon="-2.9485180">
        <ele>623.8</ele>
        <time>2022-06-27T08:32:33Z</time>
      </trkpt>
      <trkpt lat="42.4401690" lon="-2.9485950">
        <ele>624.0</ele>
        <time>2022-06-27T08:32:34Z</time>
      </trkpt>
      <trkpt lat="42.4401890" lon="-2.9486700">
        <ele>624.0</ele>
        <time>2022-06-27T08:32:35Z</time>
      </trkpt>
      <trkpt lat="42.4402060" lon="-2.9487400">
        <ele>624.0</ele>
        <time>2022-06-27T08:32:36Z</time>
      </trkpt>
      <trkpt lat="42.4402200" lon="-2.9488060">
        <ele>624.2</ele>
        <time>2022-06-27T08:32:37Z</time>
      </trkpt>
      <trkpt lat="42.4402360" lon="-2.9488710">
        <ele>624.2</ele>
        <time>2022-06-27T08:32:38Z</time>
      </trkpt>
      <trkpt lat="42.4402520" lon="-2.9489330">
        <ele>624.4</ele>
        <time>2022-06-27T08:32:39Z</time>
      </trkpt>
      <trkpt lat="42.4402650" lon="-2.9489960">
        <ele>624.4</ele>
        <time>2022-06-27T08:32:40Z</time>
      </trkpt>
      <trkpt lat="42.4402800" lon="-2.9490450">
        <ele>624.4</ele>
        <time>2022-06-27T08:32:41Z</time>
      </trkpt>
      <trkpt lat="42.4402940" lon="-2.9490780">
        <ele>624.6</ele>
        <time>2022-06-27T08:32:42Z</time>
      </trkpt>
      <trkpt lat="42.4403000" lon="-2.9491080">
        <ele>624.6</ele>
        <time>2022-06-27T08:32:43Z</time>
      </trkpt>
      <trkpt lat="42.4403020" lon="-2.9491370">
        <ele>624.6</ele>
        <time>2022-06-27T08:32:44Z</time>
      </trkpt>
      <trkpt lat="42.4403000" lon="-2.9491600">
        <ele>624.6</ele>
        <time>2022-06-27T08:32:45Z</time>
      </trkpt>
      <trkpt lat="42.4402820" lon="-2.9491800">
        <ele>624.6</ele>
        <time>2022-06-27T08:32:46Z</time>
      </trkpt>
      <trkpt lat="42.4402520" lon="-2.9492030">
        <ele>624.6</ele>
        <time>2022-06-27T08:32:47Z</time>
      </trkpt>
      <trkpt lat="42.4402120" lon="-2.9492290">
        <ele>624.4</ele>
        <time>2022-06-27T08:32:48Z</time>
      </trkpt>
      <trkpt lat="42.4401650" lon="-2.9492620">
        <ele>624.4</ele>
        <time>2022-06-27T08:32:49Z</time>
      </trkpt>
      <trkpt lat="42.4401200" lon="-2.9492910">
        <ele>624.4</ele>
        <time>2022-06-27T08:32:50Z</time>
      </trkpt>
      <trkpt lat="42.4400750" lon="-2.9493280">
        <ele>624.4</ele>
        <time>2022-06-27T08:32:51Z</time>
      </trkpt>
      <trkpt lat="42.4400360" lon="-2.9493800">
        <ele>624.4</ele>
        <time>2022-06-27T08:32:52Z</time>
      </trkpt>
      <trkpt lat="42.4400030" lon="-2.9494450">
        <ele>624.4</ele>
        <time>2022-06-27T08:32:53Z</time>
      </trkpt>
      <trkpt lat="42.4399770" lon="-2.9495190">
        <ele>624.4</ele>
        <time>2022-06-27T08:32:54Z</time>
      </trkpt>
      <trkpt lat="42.4399560" lon="-2.9495940">
        <ele>624.4</ele>
        <time>2022-06-27T08:32:55Z</time>
      </trkpt>
      <trkpt lat="42.4399420" lon="-2.9496720">
        <ele>624.4</ele>
        <time>2022-06-27T08:32:56Z</time>
      </trkpt>
      <trkpt lat="42.4399310" lon="-2.9497570">
        <ele>624.4</ele>
        <time>2022-06-27T08:32:57Z</time>
      </trkpt>
      <trkpt lat="42.4399270" lon="-2.9498440">
        <ele>624.4</ele>
        <time>2022-06-27T08:32:58Z</time>
      </trkpt>
      <trkpt lat="42.4399250" lon="-2.9499350">
        <ele>624.4</ele>
        <time>2022-06-27T08:32:59Z</time>
      </trkpt>
      <trkpt lat="42.4399260" lon="-2.9500220">
        <ele>624.4</ele>
        <time>2022-06-27T08:33:00Z</time>
      </trkpt>
      <trkpt lat="42.4399240" lon="-2.9501130">
        <ele>624.4</ele>
        <time>2022-06-27T08:33:01Z</time>
      </trkpt>
      <trkpt lat="42.4399210" lon="-2.9502020">
        <ele>624.4</ele>
        <time>2022-06-27T08:33:02Z</time>
      </trkpt>
      <trkpt lat="42.4399210" lon="-2.9502900">
        <ele>624.6</ele>
        <time>2022-06-27T08:33:03Z</time>
      </trkpt>
      <trkpt lat="42.4399220" lon="-2.9503770">
        <ele>624.6</ele>
        <time>2022-06-27T08:33:04Z</time>
      </trkpt>
      <trkpt lat="42.4399190" lon="-2.9504640">
        <ele>624.4</ele>
        <time>2022-06-27T08:33:05Z</time>
      </trkpt>
      <trkpt lat="42.4399130" lon="-2.9505490">
        <ele>624.4</ele>
        <time>2022-06-27T08:33:06Z</time>
      </trkpt>
      <trkpt lat="42.4399010" lon="-2.9506250">
        <ele>624.6</ele>
        <time>2022-06-27T08:33:07Z</time>
      </trkpt>
      <trkpt lat="42.4398820" lon="-2.9506980">
        <ele>624.6</ele>
        <time>2022-06-27T08:33:08Z</time>
      </trkpt>
      <trkpt lat="42.4398550" lon="-2.9507650">
        <ele>624.6</ele>
        <time>2022-06-27T08:33:09Z</time>
      </trkpt>
      <trkpt lat="42.4398020" lon="-2.9508240">
        <ele>624.8</ele>
        <time>2022-06-27T08:33:10Z</time>
      </trkpt>
      <trkpt lat="42.4397450" lon="-2.9508700">
        <ele>625.0</ele>
        <time>2022-06-27T08:33:11Z</time>
      </trkpt>
      <trkpt lat="42.4396870" lon="-2.9509080">
        <ele>625.0</ele>
        <time>2022-06-27T08:33:12Z</time>
      </trkpt>
      <trkpt lat="42.4396270" lon="-2.9509470">
        <ele>625.2</ele>
        <time>2022-06-27T08:33:13Z</time>
      </trkpt>
      <trkpt lat="42.4395670" lon="-2.9509870">
        <ele>625.2</ele>
        <time>2022-06-27T08:33:14Z</time>
      </trkpt>
      <trkpt lat="42.4395080" lon="-2.9510270">
        <ele>625.2</ele>
        <time>2022-06-27T08:33:15Z</time>
      </trkpt>
      <trkpt lat="42.4394490" lon="-2.9510640">
        <ele>625.4</ele>
        <time>2022-06-27T08:33:16Z</time>
      </trkpt>
      <trkpt lat="42.4393960" lon="-2.9511070">
        <ele>625.4</ele>
        <time>2022-06-27T08:33:17Z</time>
      </trkpt>
      <trkpt lat="42.4393480" lon="-2.9511590">
        <ele>625.6</ele>
        <time>2022-06-27T08:33:18Z</time>
      </trkpt>
      <trkpt lat="42.4393110" lon="-2.9512130">
        <ele>625.6</ele>
        <time>2022-06-27T08:33:19Z</time>
      </trkpt>
      <trkpt lat="42.4392810" lon="-2.9512740">
        <ele>625.6</ele>
        <time>2022-06-27T08:33:20Z</time>
      </trkpt>
      <trkpt lat="42.4392570" lon="-2.9513410">
        <ele>625.8</ele>
        <time>2022-06-27T08:33:21Z</time>
      </trkpt>
      <trkpt lat="42.4392410" lon="-2.9514110">
        <ele>625.8</ele>
        <time>2022-06-27T08:33:22Z</time>
      </trkpt>
      <trkpt lat="42.4392370" lon="-2.9514860">
        <ele>625.8</ele>
        <time>2022-06-27T08:33:23Z</time>
      </trkpt>
      <trkpt lat="42.4392420" lon="-2.9515630">
        <ele>625.8</ele>
        <time>2022-06-27T08:33:24Z</time>
      </trkpt>
      <trkpt lat="42.4392510" lon="-2.9516390">
        <ele>626.0</ele>
        <time>2022-06-27T08:33:25Z</time>
      </trkpt>
      <trkpt lat="42.4392600" lon="-2.9517180">
        <ele>626.2</ele>
        <time>2022-06-27T08:33:26Z</time>
      </trkpt>
      <trkpt lat="42.4392670" lon="-2.9517940">
        <ele>626.4</ele>
        <time>2022-06-27T08:33:27Z</time>
      </trkpt>
      <trkpt lat="42.4392760" lon="-2.9518770">
        <ele>626.4</ele>
        <time>2022-06-27T08:33:28Z</time>
      </trkpt>
      <trkpt lat="42.4392870" lon="-2.9519580">
        <ele>626.4</ele>
        <time>2022-06-27T08:33:29Z</time>
      </trkpt>
      <trkpt lat="42.4392980" lon="-2.9520350">
        <ele>626.6</ele>
        <time>2022-06-27T08:33:30Z</time>
      </trkpt>
      <trkpt lat="42.4393070" lon="-2.9521140">
        <ele>626.6</ele>
        <time>2022-06-27T08:33:31Z</time>
      </trkpt>
      <trkpt lat="42.4393160" lon="-2.9521930">
        <ele>626.6</ele>
        <time>2022-06-27T08:33:32Z</time>
      </trkpt>
      <trkpt lat="42.4393240" lon="-2.9522680">
        <ele>626.6</ele>
        <time>2022-06-27T08:33:33Z</time>
      </trkpt>
      <trkpt lat="42.4393320" lon="-2.9523400">
        <ele>626.8</ele>
        <time>2022-06-27T08:33:34Z</time>
      </trkpt>
      <trkpt lat="42.4393410" lon="-2.9524100">
        <ele>627.0</ele>
        <time>2022-06-27T08:33:35Z</time>
      </trkpt>
      <trkpt lat="42.4393460" lon="-2.9524810">
        <ele>627.0</ele>
        <time>2022-06-27T08:33:36Z</time>
      </trkpt>
      <trkpt lat="42.4393500" lon="-2.9525450">
        <ele>627.2</ele>
        <time>2022-06-27T08:33:37Z</time>
      </trkpt>
      <trkpt lat="42.4393560" lon="-2.9526040">
        <ele>627.2</ele>
        <time>2022-06-27T08:33:38Z</time>
      </trkpt>
      <trkpt lat="42.4393620" lon="-2.9526610">
        <ele>627.2</ele>
        <time>2022-06-27T08:33:39Z</time>
      </trkpt>
      <trkpt lat="42.4393680" lon="-2.9527170">
        <ele>627.2</ele>
        <time>2022-06-27T08:33:40Z</time>
      </trkpt>
      <trkpt lat="42.4393730" lon="-2.9527720">
        <ele>627.4</ele>
        <time>2022-06-27T08:33:41Z</time>
      </trkpt>
      <trkpt lat="42.4393790" lon="-2.9528250">
        <ele>627.4</ele>
        <time>2022-06-27T08:33:42Z</time>
      </trkpt>
      <trkpt lat="42.4393860" lon="-2.9528780">
        <ele>627.4</ele>
        <time>2022-06-27T08:33:43Z</time>
      </trkpt>
      <trkpt lat="42.4393920" lon="-2.9529360">
        <ele>627.4</ele>
        <time>2022-06-27T08:33:44Z</time>
      </trkpt>
      <trkpt lat="42.4393970" lon="-2.9530000">
        <ele>627.4</ele>
        <time>2022-06-27T08:33:45Z</time>
      </trkpt>
      <trkpt lat="42.4394020" lon="-2.9530620">
        <ele>627.6</ele>
        <time>2022-06-27T08:33:46Z</time>
      </trkpt>
      <trkpt lat="42.4394110" lon="-2.9531260">
        <ele>627.6</ele>
        <time>2022-06-27T08:33:47Z</time>
      </trkpt>
      <trkpt lat="42.4394210" lon="-2.9531970">
        <ele>627.6</ele>
        <time>2022-06-27T08:33:48Z</time>
      </trkpt>
      <trkpt lat="42.4394310" lon="-2.9532720">
        <ele>627.6</ele>
        <time>2022-06-27T08:33:49Z</time>
      </trkpt>
      <trkpt lat="42.4394390" lon="-2.9533440">
        <ele>627.6</ele>
        <time>2022-06-27T08:33:50Z</time>
      </trkpt>
      <trkpt lat="42.4394430" lon="-2.9534130">
        <ele>627.6</ele>
        <time>2022-06-27T08:33:51Z</time>
      </trkpt>
      <trkpt lat="42.4394510" lon="-2.9534870">
        <ele>627.4</ele>
        <time>2022-06-27T08:33:52Z</time>
      </trkpt>
      <trkpt lat="42.4394600" lon="-2.9535610">
        <ele>627.4</ele>
        <time>2022-06-27T08:33:53Z</time>
      </trkpt>
      <trkpt lat="42.4394690" lon="-2.9536410">
        <ele>627.4</ele>
        <time>2022-06-27T08:33:54Z</time>
      </trkpt>
      <trkpt lat="42.4394790" lon="-2.9537220">
        <ele>627.4</ele>
        <time>2022-06-27T08:33:55Z</time>
      </trkpt>
      <trkpt lat="42.4394900" lon="-2.9538030">
        <ele>627.4</ele>
        <time>2022-06-27T08:33:56Z</time>
      </trkpt>
      <trkpt lat="42.4395030" lon="-2.9538860">
        <ele>627.4</ele>
        <time>2022-06-27T08:33:57Z</time>
      </trkpt>
      <trkpt lat="42.4395140" lon="-2.9539680">
        <ele>627.4</ele>
        <time>2022-06-27T08:33:58Z</time>
      </trkpt>
      <trkpt lat="42.4395230" lon="-2.9540520">
        <ele>627.6</ele>
        <time>2022-06-27T08:33:59Z</time>
      </trkpt>
      <trkpt lat="42.4395260" lon="-2.9541350">
        <ele>627.6</ele>
        <time>2022-06-27T08:34:00Z</time>
      </trkpt>
      <trkpt lat="42.4395280" lon="-2.9542180">
        <ele>627.8</ele>
        <time>2022-06-27T08:34:01Z</time>
      </trkpt>
      <trkpt lat="42.4395340" lon="-2.9542970">
        <ele>627.8</ele>
        <time>2022-06-27T08:34:02Z</time>
      </trkpt>
      <trkpt lat="42.4395440" lon="-2.9543770">
        <ele>627.8</ele>
        <time>2022-06-27T08:34:03Z</time>
      </trkpt>
      <trkpt lat="42.4395560" lon="-2.9544560">
        <ele>627.8</ele>
        <time>2022-06-27T08:34:04Z</time>
      </trkpt>
      <trkpt lat="42.4395650" lon="-2.9545330">
        <ele>627.8</ele>
        <time>2022-06-27T08:34:05Z</time>
      </trkpt>
      <trkpt lat="42.4395760" lon="-2.9546110">
        <ele>627.8</ele>
        <time>2022-06-27T08:34:06Z</time>
      </trkpt>
      <trkpt lat="42.4395870" lon="-2.9546900">
        <ele>627.8</ele>
        <time>2022-06-27T08:34:07Z</time>
      </trkpt>
      <trkpt lat="42.4395990" lon="-2.9547720">
        <ele>627.8</ele>
        <time>2022-06-27T08:34:08Z</time>
      </trkpt>
      <trkpt lat="42.4396120" lon="-2.9548570">
        <ele>627.8</ele>
        <time>2022-06-27T08:34:09Z</time>
      </trkpt>
      <trkpt lat="42.4396230" lon="-2.9549420">
        <ele>627.8</ele>
        <time>2022-06-27T08:34:10Z</time>
      </trkpt>
      <trkpt lat="42.4396310" lon="-2.9550250">
        <ele>627.6</ele>
        <time>2022-06-27T08:34:11Z</time>
      </trkpt>
      <trkpt lat="42.4396410" lon="-2.9551150">
        <ele>627.6</ele>
        <time>2022-06-27T08:34:12Z</time>
      </trkpt>
      <trkpt lat="42.4396510" lon="-2.9552060">
        <ele>627.6</ele>
        <time>2022-06-27T08:34:13Z</time>
      </trkpt>
      <trkpt lat="42.4396610" lon="-2.9552990">
        <ele>627.6</ele>
        <time>2022-06-27T08:34:14Z</time>
      </trkpt>
      <trkpt lat="42.4396700" lon="-2.9553880">
        <ele>627.4</ele>
        <time>2022-06-27T08:34:15Z</time>
      </trkpt>
      <trkpt lat="42.4396790" lon="-2.9554760">
        <ele>627.4</ele>
        <time>2022-06-27T08:34:16Z</time>
      </trkpt>
      <trkpt lat="42.4396870" lon="-2.9555670">
        <ele>627.4</ele>
        <time>2022-06-27T08:34:17Z</time>
      </trkpt>
      <trkpt lat="42.4396950" lon="-2.9556590">
        <ele>627.2</ele>
        <time>2022-06-27T08:34:18Z</time>
      </trkpt>
      <trkpt lat="42.4397030" lon="-2.9557300">
        <ele>627.4</ele>
        <time>2022-06-27T08:34:19Z</time>
      </trkpt>
      <trkpt lat="42.4397200" lon="-2.9558310">
        <ele>627.4</ele>
        <time>2022-06-27T08:34:20Z</time>
      </trkpt>
      <trkpt lat="42.4397310" lon="-2.9559220">
        <ele>627.2</ele>
        <time>2022-06-27T08:34:21Z</time>
      </trkpt>
      <trkpt lat="42.4397390" lon="-2.9560120">
        <ele>627.2</ele>
        <time>2022-06-27T08:34:22Z</time>
      </trkpt>
      <trkpt lat="42.4397470" lon="-2.9561040">
        <ele>627.2</ele>
        <time>2022-06-27T08:34:23Z</time>
      </trkpt>
      <trkpt lat="42.4397540" lon="-2.9561950">
        <ele>627.2</ele>
        <time>2022-06-27T08:34:24Z</time>
      </trkpt>
      <trkpt lat="42.4397630" lon="-2.9562880">
        <ele>627.2</ele>
        <time>2022-06-27T08:34:25Z</time>
      </trkpt>
      <trkpt lat="42.4397730" lon="-2.9563780">
        <ele>627.2</ele>
        <time>2022-06-27T08:34:26Z</time>
      </trkpt>
      <trkpt lat="42.4397870" lon="-2.9564670">
        <ele>627.2</ele>
        <time>2022-06-27T08:34:27Z</time>
      </trkpt>
      <trkpt lat="42.4398020" lon="-2.9565510">
        <ele>627.0</ele>
        <time>2022-06-27T08:34:28Z</time>
      </trkpt>
      <trkpt lat="42.4398190" lon="-2.9566350">
        <ele>627.0</ele>
        <time>2022-06-27T08:34:29Z</time>
      </trkpt>
      <trkpt lat="42.4398360" lon="-2.9567220">
        <ele>627.0</ele>
        <time>2022-06-27T08:34:30Z</time>
      </trkpt>
      <trkpt lat="42.4398540" lon="-2.9568060">
        <ele>627.0</ele>
        <time>2022-06-27T08:34:31Z</time>
      </trkpt>
      <trkpt lat="42.4398750" lon="-2.9568870">
        <ele>627.0</ele>
        <time>2022-06-27T08:34:32Z</time>
      </trkpt>
      <trkpt lat="42.4398960" lon="-2.9569660">
        <ele>627.0</ele>
        <time>2022-06-27T08:34:33Z</time>
      </trkpt>
      <trkpt lat="42.4399150" lon="-2.9570470">
        <ele>627.0</ele>
        <time>2022-06-27T08:34:34Z</time>
      </trkpt>
      <trkpt lat="42.4399360" lon="-2.9571220">
        <ele>627.0</ele>
        <time>2022-06-27T08:34:35Z</time>
      </trkpt>
      <trkpt lat="42.4399620" lon="-2.9571940">
        <ele>627.0</ele>
        <time>2022-06-27T08:34:36Z</time>
      </trkpt>
      <trkpt lat="42.4399890" lon="-2.9572630">
        <ele>627.0</ele>
        <time>2022-06-27T08:34:37Z</time>
      </trkpt>
      <trkpt lat="42.4400200" lon="-2.9573220">
        <ele>627.0</ele>
        <time>2022-06-27T08:34:38Z</time>
      </trkpt>
      <trkpt lat="42.4400610" lon="-2.9573680">
        <ele>627.0</ele>
        <time>2022-06-27T08:34:39Z</time>
      </trkpt>
      <trkpt lat="42.4401090" lon="-2.9573980">
        <ele>627.0</ele>
        <time>2022-06-27T08:34:40Z</time>
      </trkpt>
      <trkpt lat="42.4401580" lon="-2.9574170">
        <ele>627.0</ele>
        <time>2022-06-27T08:34:41Z</time>
      </trkpt>
      <trkpt lat="42.4402050" lon="-2.9574400">
        <ele>627.0</ele>
        <time>2022-06-27T08:34:42Z</time>
      </trkpt>
      <trkpt lat="42.4402450" lon="-2.9574760">
        <ele>627.0</ele>
        <time>2022-06-27T08:34:43Z</time>
      </trkpt>
      <trkpt lat="42.4402770" lon="-2.9575250">
        <ele>627.0</ele>
        <time>2022-06-27T08:34:44Z</time>
      </trkpt>
      <trkpt lat="42.4403000" lon="-2.9575870">
        <ele>626.8</ele>
        <time>2022-06-27T08:34:45Z</time>
      </trkpt>
      <trkpt lat="42.4403150" lon="-2.9576490">
        <ele>626.8</ele>
        <time>2022-06-27T08:34:46Z</time>
      </trkpt>
      <trkpt lat="42.4403330" lon="-2.9576970">
        <ele>626.6</ele>
        <time>2022-06-27T08:34:47Z</time>
      </trkpt>
      <trkpt lat="42.4403590" lon="-2.9577400">
        <ele>626.6</ele>
        <time>2022-06-27T08:34:48Z</time>
      </trkpt>
      <trkpt lat="42.4403940" lon="-2.9577800">
        <ele>626.6</ele>
        <time>2022-06-27T08:34:49Z</time>
      </trkpt>
      <trkpt lat="42.4404360" lon="-2.9578260">
        <ele>626.6</ele>
        <time>2022-06-27T08:34:50Z</time>
      </trkpt>
      <trkpt lat="42.4404820" lon="-2.9578710">
        <ele>626.4</ele>
        <time>2022-06-27T08:34:51Z</time>
      </trkpt>
      <trkpt lat="42.4405290" lon="-2.9579180">
        <ele>626.4</ele>
        <time>2022-06-27T08:34:52Z</time>
      </trkpt>
      <trkpt lat="42.4405720" lon="-2.9579660">
        <ele>626.4</ele>
        <time>2022-06-27T08:34:53Z</time>
      </trkpt>
      <trkpt lat="42.4406150" lon="-2.9580140">
        <ele>626.4</ele>
        <time>2022-06-27T08:34:54Z</time>
      </trkpt>
      <trkpt lat="42.4406570" lon="-2.9580540">
        <ele>626.4</ele>
        <time>2022-06-27T08:34:55Z</time>
      </trkpt>
      <trkpt lat="42.4406990" lon="-2.9580920">
        <ele>626.2</ele>
        <time>2022-06-27T08:34:56Z</time>
      </trkpt>
      <trkpt lat="42.4407450" lon="-2.9581300">
        <ele>626.2</ele>
        <time>2022-06-27T08:34:57Z</time>
      </trkpt>
      <trkpt lat="42.4407960" lon="-2.9581720">
        <ele>626.2</ele>
        <time>2022-06-27T08:34:58Z</time>
      </trkpt>
      <trkpt lat="42.4408500" lon="-2.9582220">
        <ele>626.2</ele>
        <time>2022-06-27T08:34:59Z</time>
      </trkpt>
      <trkpt lat="42.4409000" lon="-2.9582800">
        <ele>626.2</ele>
        <time>2022-06-27T08:35:00Z</time>
      </trkpt>
      <trkpt lat="42.4409500" lon="-2.9583320">
        <ele>626.2</ele>
        <time>2022-06-27T08:35:01Z</time>
      </trkpt>
      <trkpt lat="42.4409960" lon="-2.9583890">
        <ele>626.2</ele>
        <time>2022-06-27T08:35:02Z</time>
      </trkpt>
      <trkpt lat="42.4410420" lon="-2.9584460">
        <ele>626.4</ele>
        <time>2022-06-27T08:35:03Z</time>
      </trkpt>
      <trkpt lat="42.4410880" lon="-2.9585020">
        <ele>626.4</ele>
        <time>2022-06-27T08:35:04Z</time>
      </trkpt>
      <trkpt lat="42.4411310" lon="-2.9585620">
        <ele>626.6</ele>
        <time>2022-06-27T08:35:05Z</time>
      </trkpt>
      <trkpt lat="42.4411760" lon="-2.9586240">
        <ele>626.6</ele>
        <time>2022-06-27T08:35:06Z</time>
      </trkpt>
      <trkpt lat="42.4412200" lon="-2.9586940">
        <ele>626.4</ele>
        <time>2022-06-27T08:35:07Z</time>
      </trkpt>
      <trkpt lat="42.4412590" lon="-2.9587630">
        <ele>626.4</ele>
        <time>2022-06-27T08:35:08Z</time>
      </trkpt>
      <trkpt lat="42.4412940" lon="-2.9588330">
        <ele>626.4</ele>
        <time>2022-06-27T08:35:09Z</time>
      </trkpt>
      <trkpt lat="42.4413290" lon="-2.9589050">
        <ele>626.4</ele>
        <time>2022-06-27T08:35:10Z</time>
      </trkpt>
      <trkpt lat="42.4413590" lon="-2.9589810">
        <ele>626.4</ele>
        <time>2022-06-27T08:35:11Z</time>
      </trkpt>
      <trkpt lat="42.4413880" lon="-2.9590570">
        <ele>626.4</ele>
        <time>2022-06-27T08:35:12Z</time>
      </trkpt>
      <trkpt lat="42.4414160" lon="-2.9591340">
        <ele>626.4</ele>
        <time>2022-06-27T08:35:13Z</time>
      </trkpt>
      <trkpt lat="42.4414470" lon="-2.9592110">
        <ele>626.4</ele>
        <time>2022-06-27T08:35:14Z</time>
      </trkpt>
      <trkpt lat="42.4414740" lon="-2.9592860">
        <ele>626.4</ele>
        <time>2022-06-27T08:35:15Z</time>
      </trkpt>
      <trkpt lat="42.4415020" lon="-2.9593590">
        <ele>626.4</ele>
        <time>2022-06-27T08:35:16Z</time>
      </trkpt>
      <trkpt lat="42.4415290" lon="-2.9594310">
        <ele>626.2</ele>
        <time>2022-06-27T08:35:17Z</time>
      </trkpt>
      <trkpt lat="42.4415590" lon="-2.9595010">
        <ele>626.2</ele>
        <time>2022-06-27T08:35:18Z</time>
      </trkpt>
      <trkpt lat="42.4415860" lon="-2.9595740">
        <ele>626.2</ele>
        <time>2022-06-27T08:35:19Z</time>
      </trkpt>
      <trkpt lat="42.4416120" lon="-2.9596460">
        <ele>626.2</ele>
        <time>2022-06-27T08:35:20Z</time>
      </trkpt>
      <trkpt lat="42.4416360" lon="-2.9597190">
        <ele>626.2</ele>
        <time>2022-06-27T08:35:21Z</time>
      </trkpt>
      <trkpt lat="42.4416610" lon="-2.9597920">
        <ele>626.0</ele>
        <time>2022-06-27T08:35:22Z</time>
      </trkpt>
      <trkpt lat="42.4416840" lon="-2.9598650">
        <ele>626.2</ele>
        <time>2022-06-27T08:35:23Z</time>
      </trkpt>
      <trkpt lat="42.4417050" lon="-2.9599370">
        <ele>626.2</ele>
        <time>2022-06-27T08:35:24Z</time>
      </trkpt>
      <trkpt lat="42.4417250" lon="-2.9600100">
        <ele>626.4</ele>
        <time>2022-06-27T08:35:25Z</time>
      </trkpt>
      <trkpt lat="42.4417460" lon="-2.9600850">
        <ele>626.4</ele>
        <time>2022-06-27T08:35:26Z</time>
      </trkpt>
      <trkpt lat="42.4417660" lon="-2.9601580">
        <ele>626.4</ele>
        <time>2022-06-27T08:35:27Z</time>
      </trkpt>
      <trkpt lat="42.4417880" lon="-2.9602270">
        <ele>626.6</ele>
        <time>2022-06-27T08:35:28Z</time>
      </trkpt>
      <trkpt lat="42.4418110" lon="-2.9602990">
        <ele>626.8</ele>
        <time>2022-06-27T08:35:29Z</time>
      </trkpt>
      <trkpt lat="42.4418340" lon="-2.9603710">
        <ele>626.8</ele>
        <time>2022-06-27T08:35:30Z</time>
      </trkpt>
      <trkpt lat="42.4418550" lon="-2.9604370">
        <ele>626.8</ele>
        <time>2022-06-27T08:35:31Z</time>
      </trkpt>
      <trkpt lat="42.4418710" lon="-2.9604940">
        <ele>626.8</ele>
        <time>2022-06-27T08:35:32Z</time>
      </trkpt>
      <trkpt lat="42.4418980" lon="-2.9605770">
        <ele>627.0</ele>
        <time>2022-06-27T08:35:33Z</time>
      </trkpt>
      <trkpt lat="42.4419210" lon="-2.9606460">
        <ele>627.2</ele>
        <time>2022-06-27T08:35:34Z</time>
      </trkpt>
      <trkpt lat="42.4419450" lon="-2.9607190">
        <ele>627.2</ele>
        <time>2022-06-27T08:35:35Z</time>
      </trkpt>
      <trkpt lat="42.4419680" lon="-2.9607920">
        <ele>627.2</ele>
        <time>2022-06-27T08:35:36Z</time>
      </trkpt>
      <trkpt lat="42.4419900" lon="-2.9608680">
        <ele>627.2</ele>
        <time>2022-06-27T08:35:37Z</time>
      </trkpt>
      <trkpt lat="42.4420120" lon="-2.9609450">
        <ele>627.4</ele>
        <time>2022-06-27T08:35:38Z</time>
      </trkpt>
      <trkpt lat="42.4420370" lon="-2.9610220">
        <ele>627.4</ele>
        <time>2022-06-27T08:35:39Z</time>
      </trkpt>
      <trkpt lat="42.4420610" lon="-2.9611000">
        <ele>627.6</ele>
        <time>2022-06-27T08:35:40Z</time>
      </trkpt>
      <trkpt lat="42.4420840" lon="-2.9611780">
        <ele>627.6</ele>
        <time>2022-06-27T08:35:41Z</time>
      </trkpt>
      <trkpt lat="42.4421070" lon="-2.9612570">
        <ele>627.6</ele>
        <time>2022-06-27T08:35:42Z</time>
      </trkpt>
      <trkpt lat="42.4421300" lon="-2.9613370">
        <ele>627.6</ele>
        <time>2022-06-27T08:35:43Z</time>
      </trkpt>
      <trkpt lat="42.4421530" lon="-2.9614150">
        <ele>627.6</ele>
        <time>2022-06-27T08:35:44Z</time>
      </trkpt>
      <trkpt lat="42.4421770" lon="-2.9614910">
        <ele>627.6</ele>
        <time>2022-06-27T08:35:45Z</time>
      </trkpt>
      <trkpt lat="42.4422000" lon="-2.9615680">
        <ele>627.6</ele>
        <time>2022-06-27T08:35:46Z</time>
      </trkpt>
      <trkpt lat="42.4422200" lon="-2.9616470">
        <ele>627.6</ele>
        <time>2022-06-27T08:35:47Z</time>
      </trkpt>
      <trkpt lat="42.4422410" lon="-2.9617260">
        <ele>627.6</ele>
        <time>2022-06-27T08:35:48Z</time>
      </trkpt>
      <trkpt lat="42.4422650" lon="-2.9618060">
        <ele>627.6</ele>
        <time>2022-06-27T08:35:49Z</time>
      </trkpt>
      <trkpt lat="42.4422880" lon="-2.9618840">
        <ele>627.6</ele>
        <time>2022-06-27T08:35:50Z</time>
      </trkpt>
      <trkpt lat="42.4423120" lon="-2.9619630">
        <ele>627.6</ele>
        <time>2022-06-27T08:35:51Z</time>
      </trkpt>
      <trkpt lat="42.4423370" lon="-2.9620400">
        <ele>627.6</ele>
        <time>2022-06-27T08:35:52Z</time>
      </trkpt>
      <trkpt lat="42.4423610" lon="-2.9621170">
        <ele>627.4</ele>
        <time>2022-06-27T08:35:53Z</time>
      </trkpt>
      <trkpt lat="42.4423850" lon="-2.9621930">
        <ele>627.4</ele>
        <time>2022-06-27T08:35:54Z</time>
      </trkpt>
      <trkpt lat="42.4424090" lon="-2.9622710">
        <ele>627.4</ele>
        <time>2022-06-27T08:35:55Z</time>
      </trkpt>
      <trkpt lat="42.4424320" lon="-2.9623480">
        <ele>627.4</ele>
        <time>2022-06-27T08:35:56Z</time>
      </trkpt>
      <trkpt lat="42.4424560" lon="-2.9624260">
        <ele>627.4</ele>
        <time>2022-06-27T08:35:57Z</time>
      </trkpt>
      <trkpt lat="42.4424790" lon="-2.9625030">
        <ele>627.4</ele>
        <time>2022-06-27T08:35:58Z</time>
      </trkpt>
      <trkpt lat="42.4425020" lon="-2.9625790">
        <ele>627.4</ele>
        <time>2022-06-27T08:35:59Z</time>
      </trkpt>
      <trkpt lat="42.4425270" lon="-2.9626550">
        <ele>627.2</ele>
        <time>2022-06-27T08:36:00Z</time>
      </trkpt>
      <trkpt lat="42.4425510" lon="-2.9627310">
        <ele>627.2</ele>
        <time>2022-06-27T08:36:01Z</time>
      </trkpt>
      <trkpt lat="42.4425760" lon="-2.9628090">
        <ele>627.2</ele>
        <time>2022-06-27T08:36:02Z</time>
      </trkpt>
      <trkpt lat="42.4426000" lon="-2.9628880">
        <ele>627.2</ele>
        <time>2022-06-27T08:36:03Z</time>
      </trkpt>
      <trkpt lat="42.4426250" lon="-2.9629680">
        <ele>627.2</ele>
        <time>2022-06-27T08:36:04Z</time>
      </trkpt>
      <trkpt lat="42.4426490" lon="-2.9630480">
        <ele>627.2</ele>
        <time>2022-06-27T08:36:05Z</time>
      </trkpt>
      <trkpt lat="42.4426720" lon="-2.9631290">
        <ele>627.0</ele>
        <time>2022-06-27T08:36:06Z</time>
      </trkpt>
      <trkpt lat="42.4426960" lon="-2.9632070">
        <ele>627.0</ele>
        <time>2022-06-27T08:36:07Z</time>
      </trkpt>
      <trkpt lat="42.4427270" lon="-2.9633030">
        <ele>627.0</ele>
        <time>2022-06-27T08:36:08Z</time>
      </trkpt>
      <trkpt lat="42.4427460" lon="-2.9633700">
        <ele>627.0</ele>
        <time>2022-06-27T08:36:09Z</time>
      </trkpt>
      <trkpt lat="42.4427700" lon="-2.9634530">
        <ele>627.2</ele>
        <time>2022-06-27T08:36:10Z</time>
      </trkpt>
      <trkpt lat="42.4427930" lon="-2.9635320">
        <ele>627.2</ele>
        <time>2022-06-27T08:36:11Z</time>
      </trkpt>
      <trkpt lat="42.4428160" lon="-2.9636100">
        <ele>627.2</ele>
        <time>2022-06-27T08:36:12Z</time>
      </trkpt>
      <trkpt lat="42.4428400" lon="-2.9636890">
        <ele>627.2</ele>
        <time>2022-06-27T08:36:13Z</time>
      </trkpt>
      <trkpt lat="42.4428650" lon="-2.9637660">
        <ele>627.0</ele>
        <time>2022-06-27T08:36:14Z</time>
      </trkpt>
      <trkpt lat="42.4428890" lon="-2.9638440">
        <ele>627.0</ele>
        <time>2022-06-27T08:36:15Z</time>
      </trkpt>
      <trkpt lat="42.4429130" lon="-2.9639230">
        <ele>627.0</ele>
        <time>2022-06-27T08:36:16Z</time>
      </trkpt>
      <trkpt lat="42.4429360" lon="-2.9640030">
        <ele>627.0</ele>
        <time>2022-06-27T08:36:17Z</time>
      </trkpt>
      <trkpt lat="42.4429600" lon="-2.9640800">
        <ele>627.0</ele>
        <time>2022-06-27T08:36:18Z</time>
      </trkpt>
      <trkpt lat="42.4429850" lon="-2.9641610">
        <ele>627.0</ele>
        <time>2022-06-27T08:36:19Z</time>
      </trkpt>
      <trkpt lat="42.4430100" lon="-2.9642400">
        <ele>627.0</ele>
        <time>2022-06-27T08:36:20Z</time>
      </trkpt>
      <trkpt lat="42.4430340" lon="-2.9643210">
        <ele>626.8</ele>
        <time>2022-06-27T08:36:21Z</time>
      </trkpt>
      <trkpt lat="42.4430610" lon="-2.9644010">
        <ele>626.8</ele>
        <time>2022-06-27T08:36:22Z</time>
      </trkpt>
      <trkpt lat="42.4430860" lon="-2.9644820">
        <ele>626.8</ele>
        <time>2022-06-27T08:36:23Z</time>
      </trkpt>
      <trkpt lat="42.4431110" lon="-2.9645650">
        <ele>626.8</ele>
        <time>2022-06-27T08:36:24Z</time>
      </trkpt>
      <trkpt lat="42.4431370" lon="-2.9646480">
        <ele>626.6</ele>
        <time>2022-06-27T08:36:25Z</time>
      </trkpt>
      <trkpt lat="42.4431640" lon="-2.9647290">
        <ele>626.6</ele>
        <time>2022-06-27T08:36:26Z</time>
      </trkpt>
      <trkpt lat="42.4431890" lon="-2.9648110">
        <ele>626.6</ele>
        <time>2022-06-27T08:36:27Z</time>
      </trkpt>
      <trkpt lat="42.4432140" lon="-2.9648940">
        <ele>626.4</ele>
        <time>2022-06-27T08:36:28Z</time>
      </trkpt>
      <trkpt lat="42.4432360" lon="-2.9649760">
        <ele>626.4</ele>
        <time>2022-06-27T08:36:29Z</time>
      </trkpt>
      <trkpt lat="42.4432610" lon="-2.9650600">
        <ele>626.4</ele>
        <time>2022-06-27T08:36:30Z</time>
      </trkpt>
      <trkpt lat="42.4432810" lon="-2.9651430">
        <ele>626.6</ele>
        <time>2022-06-27T08:36:31Z</time>
      </trkpt>
      <trkpt lat="42.4433060" lon="-2.9652250">
        <ele>626.6</ele>
        <time>2022-06-27T08:36:32Z</time>
      </trkpt>
      <trkpt lat="42.4433340" lon="-2.9653090">
        <ele>626.6</ele>
        <time>2022-06-27T08:36:33Z</time>
      </trkpt>
      <trkpt lat="42.4433630" lon="-2.9653930">
        <ele>626.4</ele>
        <time>2022-06-27T08:36:34Z</time>
      </trkpt>
      <trkpt lat="42.4433920" lon="-2.9654780">
        <ele>626.6</ele>
        <time>2022-06-27T08:36:35Z</time>
      </trkpt>
      <trkpt lat="42.4434190" lon="-2.9655640">
        <ele>626.6</ele>
        <time>2022-06-27T08:36:36Z</time>
      </trkpt>
      <trkpt lat="42.4434450" lon="-2.9656510">
        <ele>626.6</ele>
        <time>2022-06-27T08:36:37Z</time>
      </trkpt>
      <trkpt lat="42.4434710" lon="-2.9657350">
        <ele>626.6</ele>
        <time>2022-06-27T08:36:38Z</time>
      </trkpt>
      <trkpt lat="42.4434970" lon="-2.9658220">
        <ele>626.6</ele>
        <time>2022-06-27T08:36:39Z</time>
      </trkpt>
      <trkpt lat="42.4435230" lon="-2.9659070">
        <ele>626.6</ele>
        <time>2022-06-27T08:36:40Z</time>
      </trkpt>
      <trkpt lat="42.4435490" lon="-2.9659940">
        <ele>626.6</ele>
        <time>2022-06-27T08:36:41Z</time>
      </trkpt>
      <trkpt lat="42.4435760" lon="-2.9660780">
        <ele>626.6</ele>
        <time>2022-06-27T08:36:42Z</time>
      </trkpt>
      <trkpt lat="42.4436030" lon="-2.9661620">
        <ele>626.6</ele>
        <time>2022-06-27T08:36:43Z</time>
      </trkpt>
      <trkpt lat="42.4436300" lon="-2.9662470">
        <ele>626.6</ele>
        <time>2022-06-27T08:36:44Z</time>
      </trkpt>
      <trkpt lat="42.4436570" lon="-2.9663330">
        <ele>626.6</ele>
        <time>2022-06-27T08:36:45Z</time>
      </trkpt>
      <trkpt lat="42.4436840" lon="-2.9664200">
        <ele>626.6</ele>
        <time>2022-06-27T08:36:46Z</time>
      </trkpt>
      <trkpt lat="42.4437110" lon="-2.9665060">
        <ele>626.6</ele>
        <time>2022-06-27T08:36:47Z</time>
      </trkpt>
      <trkpt lat="42.4437390" lon="-2.9665950">
        <ele>626.6</ele>
        <time>2022-06-27T08:36:48Z</time>
      </trkpt>
      <trkpt lat="42.4437690" lon="-2.9666860">
        <ele>626.6</ele>
        <time>2022-06-27T08:36:49Z</time>
      </trkpt>
      <trkpt lat="42.4437980" lon="-2.9667740">
        <ele>626.6</ele>
        <time>2022-06-27T08:36:50Z</time>
      </trkpt>
      <trkpt lat="42.4438250" lon="-2.9668650">
        <ele>626.6</ele>
        <time>2022-06-27T08:36:51Z</time>
      </trkpt>
      <trkpt lat="42.4438530" lon="-2.9669570">
        <ele>626.4</ele>
        <time>2022-06-27T08:36:52Z</time>
      </trkpt>
      <trkpt lat="42.4438830" lon="-2.9670500">
        <ele>626.4</ele>
        <time>2022-06-27T08:36:53Z</time>
      </trkpt>
      <trkpt lat="42.4439130" lon="-2.9671450">
        <ele>626.2</ele>
        <time>2022-06-27T08:36:54Z</time>
      </trkpt>
      <trkpt lat="42.4439450" lon="-2.9672390">
        <ele>626.2</ele>
        <time>2022-06-27T08:36:55Z</time>
      </trkpt>
      <trkpt lat="42.4439750" lon="-2.9673370">
        <ele>626.2</ele>
        <time>2022-06-27T08:36:56Z</time>
      </trkpt>
      <trkpt lat="42.4440050" lon="-2.9674350">
        <ele>626.2</ele>
        <time>2022-06-27T08:36:57Z</time>
      </trkpt>
      <trkpt lat="42.4440350" lon="-2.9675350">
        <ele>625.8</ele>
        <time>2022-06-27T08:36:58Z</time>
      </trkpt>
      <trkpt lat="42.4440670" lon="-2.9676380">
        <ele>625.8</ele>
        <time>2022-06-27T08:36:59Z</time>
      </trkpt>
      <trkpt lat="42.4441010" lon="-2.9677420">
        <ele>625.2</ele>
        <time>2022-06-27T08:37:00Z</time>
      </trkpt>
      <trkpt lat="42.4441360" lon="-2.9678490">
        <ele>625.2</ele>
        <time>2022-06-27T08:37:01Z</time>
      </trkpt>
      <trkpt lat="42.4441690" lon="-2.9679570">
        <ele>624.6</ele>
        <time>2022-06-27T08:37:02Z</time>
      </trkpt>
      <trkpt lat="42.4442030" lon="-2.9680670">
        <ele>624.4</ele>
        <time>2022-06-27T08:37:03Z</time>
      </trkpt>
      <trkpt lat="42.4442380" lon="-2.9681780">
        <ele>624.4</ele>
        <time>2022-06-27T08:37:04Z</time>
      </trkpt>
      <trkpt lat="42.4442720" lon="-2.9682930">
        <ele>624.2</ele>
        <time>2022-06-27T08:37:05Z</time>
      </trkpt>
      <trkpt lat="42.4443090" lon="-2.9684070">
        <ele>624.2</ele>
        <time>2022-06-27T08:37:06Z</time>
      </trkpt>
      <trkpt lat="42.4443460" lon="-2.9685220">
        <ele>623.8</ele>
        <time>2022-06-27T08:37:07Z</time>
      </trkpt>
      <trkpt lat="42.4443820" lon="-2.9686390">
        <ele>623.8</ele>
        <time>2022-06-27T08:37:08Z</time>
      </trkpt>
      <trkpt lat="42.4444190" lon="-2.9687590">
        <ele>623.6</ele>
        <time>2022-06-27T08:37:09Z</time>
      </trkpt>
      <trkpt lat="42.4444560" lon="-2.9688790">
        <ele>623.4</ele>
        <time>2022-06-27T08:37:10Z</time>
      </trkpt>
      <trkpt lat="42.4444940" lon="-2.9690010">
        <ele>623.0</ele>
        <time>2022-06-27T08:37:11Z</time>
      </trkpt>
      <trkpt lat="42.4445330" lon="-2.9691230">
        <ele>622.6</ele>
        <time>2022-06-27T08:37:12Z</time>
      </trkpt>
      <trkpt lat="42.4445720" lon="-2.9692490">
        <ele>622.6</ele>
        <time>2022-06-27T08:37:13Z</time>
      </trkpt>
      <trkpt lat="42.4446100" lon="-2.9693760">
        <ele>622.4</ele>
        <time>2022-06-27T08:37:14Z</time>
      </trkpt>
      <trkpt lat="42.4446490" lon="-2.9695020">
        <ele>622.0</ele>
        <time>2022-06-27T08:37:15Z</time>
      </trkpt>
      <trkpt lat="42.4446890" lon="-2.9696290">
        <ele>621.6</ele>
        <time>2022-06-27T08:37:16Z</time>
      </trkpt>
      <trkpt lat="42.4447290" lon="-2.9697540">
        <ele>621.4</ele>
        <time>2022-06-27T08:37:17Z</time>
      </trkpt>
      <trkpt lat="42.4447700" lon="-2.9698820">
        <ele>621.2</ele>
        <time>2022-06-27T08:37:18Z</time>
      </trkpt>
      <trkpt lat="42.4448090" lon="-2.9700100">
        <ele>620.8</ele>
        <time>2022-06-27T08:37:19Z</time>
      </trkpt>
      <trkpt lat="42.4448480" lon="-2.9701390">
        <ele>620.6</ele>
        <time>2022-06-27T08:37:20Z</time>
      </trkpt>
      <trkpt lat="42.4448870" lon="-2.9702670">
        <ele>620.4</ele>
        <time>2022-06-27T08:37:21Z</time>
      </trkpt>
      <trkpt lat="42.4449260" lon="-2.9703960">
        <ele>620.0</ele>
        <time>2022-06-27T08:37:22Z</time>
      </trkpt>
      <trkpt lat="42.4449650" lon="-2.9705250">
        <ele>619.8</ele>
        <time>2022-06-27T08:37:23Z</time>
      </trkpt>
      <trkpt lat="42.4450030" lon="-2.9706520">
        <ele>619.6</ele>
        <time>2022-06-27T08:37:24Z</time>
      </trkpt>
      <trkpt lat="42.4450430" lon="-2.9707790">
        <ele>619.2</ele>
        <time>2022-06-27T08:37:25Z</time>
      </trkpt>
      <trkpt lat="42.4450820" lon="-2.9709070">
        <ele>618.8</ele>
        <time>2022-06-27T08:37:26Z</time>
      </trkpt>
      <trkpt lat="42.4451220" lon="-2.9710330">
        <ele>618.8</ele>
        <time>2022-06-27T08:37:27Z</time>
      </trkpt>
      <trkpt lat="42.4451600" lon="-2.9711590">
        <ele>618.6</ele>
        <time>2022-06-27T08:37:28Z</time>
      </trkpt>
      <trkpt lat="42.4452000" lon="-2.9712860">
        <ele>618.6</ele>
        <time>2022-06-27T08:37:29Z</time>
      </trkpt>
      <trkpt lat="42.4452400" lon="-2.9714110">
        <ele>618.4</ele>
        <time>2022-06-27T08:37:30Z</time>
      </trkpt>
      <trkpt lat="42.4452800" lon="-2.9715380">
        <ele>618.4</ele>
        <time>2022-06-27T08:37:31Z</time>
      </trkpt>
      <trkpt lat="42.4453180" lon="-2.9716650">
        <ele>618.4</ele>
        <time>2022-06-27T08:37:32Z</time>
      </trkpt>
      <trkpt lat="42.4453560" lon="-2.9717920">
        <ele>618.2</ele>
        <time>2022-06-27T08:37:33Z</time>
      </trkpt>
      <trkpt lat="42.4453950" lon="-2.9719180">
        <ele>618.2</ele>
        <time>2022-06-27T08:37:34Z</time>
      </trkpt>
      <trkpt lat="42.4454340" lon="-2.9720420">
        <ele>618.2</ele>
        <time>2022-06-27T08:37:35Z</time>
      </trkpt>
      <trkpt lat="42.4454720" lon="-2.9721650">
        <ele>618.0</ele>
        <time>2022-06-27T08:37:36Z</time>
      </trkpt>
      <trkpt lat="42.4455120" lon="-2.9722870">
        <ele>618.0</ele>
        <time>2022-06-27T08:37:37Z</time>
      </trkpt>
      <trkpt lat="42.4455510" lon="-2.9724100">
        <ele>617.8</ele>
        <time>2022-06-27T08:37:38Z</time>
      </trkpt>
      <trkpt lat="42.4455880" lon="-2.9725320">
        <ele>617.8</ele>
        <time>2022-06-27T08:37:39Z</time>
      </trkpt>
      <trkpt lat="42.4456260" lon="-2.9726530">
        <ele>617.6</ele>
        <time>2022-06-27T08:37:40Z</time>
      </trkpt>
      <trkpt lat="42.4456630" lon="-2.9727740">
        <ele>617.4</ele>
        <time>2022-06-27T08:37:41Z</time>
      </trkpt>
      <trkpt lat="42.4457010" lon="-2.9728950">
        <ele>617.2</ele>
        <time>2022-06-27T08:37:42Z</time>
      </trkpt>
      <trkpt lat="42.4457360" lon="-2.9730150">
        <ele>617.2</ele>
        <time>2022-06-27T08:37:43Z</time>
      </trkpt>
      <trkpt lat="42.4457740" lon="-2.9731360">
        <ele>617.0</ele>
        <time>2022-06-27T08:37:44Z</time>
      </trkpt>
      <trkpt lat="42.4458110" lon="-2.9732540">
        <ele>617.0</ele>
        <time>2022-06-27T08:37:45Z</time>
      </trkpt>
      <trkpt lat="42.4458460" lon="-2.9733720">
        <ele>616.8</ele>
        <time>2022-06-27T08:37:46Z</time>
      </trkpt>
      <trkpt lat="42.4458800" lon="-2.9734880">
        <ele>617.0</ele>
        <time>2022-06-27T08:37:47Z</time>
      </trkpt>
      <trkpt lat="42.4459160" lon="-2.9736020">
        <ele>617.0</ele>
        <time>2022-06-27T08:37:48Z</time>
      </trkpt>
      <trkpt lat="42.4459520" lon="-2.9737160">
        <ele>617.2</ele>
        <time>2022-06-27T08:37:49Z</time>
      </trkpt>
      <trkpt lat="42.4459850" lon="-2.9738280">
        <ele>617.2</ele>
        <time>2022-06-27T08:37:50Z</time>
      </trkpt>
      <trkpt lat="42.4460210" lon="-2.9739410">
        <ele>617.2</ele>
        <time>2022-06-27T08:37:51Z</time>
      </trkpt>
      <trkpt lat="42.4460550" lon="-2.9740570">
        <ele>617.0</ele>
        <time>2022-06-27T08:37:52Z</time>
      </trkpt>
      <trkpt lat="42.4460890" lon="-2.9741700">
        <ele>617.0</ele>
        <time>2022-06-27T08:37:53Z</time>
      </trkpt>
      <trkpt lat="42.4461220" lon="-2.9742830">
        <ele>617.0</ele>
        <time>2022-06-27T08:37:54Z</time>
      </trkpt>
      <trkpt lat="42.4461570" lon="-2.9743950">
        <ele>616.8</ele>
        <time>2022-06-27T08:37:55Z</time>
      </trkpt>
      <trkpt lat="42.4461920" lon="-2.9745070">
        <ele>616.8</ele>
        <time>2022-06-27T08:37:56Z</time>
      </trkpt>
      <trkpt lat="42.4462260" lon="-2.9746170">
        <ele>616.8</ele>
        <time>2022-06-27T08:37:57Z</time>
      </trkpt>
      <trkpt lat="42.4462610" lon="-2.9747240">
        <ele>616.6</ele>
        <time>2022-06-27T08:37:58Z</time>
      </trkpt>
      <trkpt lat="42.4462940" lon="-2.9748300">
        <ele>616.6</ele>
        <time>2022-06-27T08:37:59Z</time>
      </trkpt>
      <trkpt lat="42.4463280" lon="-2.9749350">
        <ele>616.4</ele>
        <time>2022-06-27T08:38:00Z</time>
      </trkpt>
      <trkpt lat="42.4463600" lon="-2.9750400">
        <ele>616.4</ele>
        <time>2022-06-27T08:38:01Z</time>
      </trkpt>
      <trkpt lat="42.4463930" lon="-2.9751460">
        <ele>616.4</ele>
        <time>2022-06-27T08:38:02Z</time>
      </trkpt>
      <trkpt lat="42.4464250" lon="-2.9752490">
        <ele>616.4</ele>
        <time>2022-06-27T08:38:03Z</time>
      </trkpt>
      <trkpt lat="42.4464580" lon="-2.9753510">
        <ele>616.4</ele>
        <time>2022-06-27T08:38:04Z</time>
      </trkpt>
      <trkpt lat="42.4464900" lon="-2.9754550">
        <ele>616.4</ele>
        <time>2022-06-27T08:38:05Z</time>
      </trkpt>
      <trkpt lat="42.4465220" lon="-2.9755580">
        <ele>616.4</ele>
        <time>2022-06-27T08:38:06Z</time>
      </trkpt>
      <trkpt lat="42.4465530" lon="-2.9756590">
        <ele>616.4</ele>
        <time>2022-06-27T08:38:07Z</time>
      </trkpt>
      <trkpt lat="42.4465830" lon="-2.9757610">
        <ele>616.4</ele>
        <time>2022-06-27T08:38:08Z</time>
      </trkpt>
      <trkpt lat="42.4466140" lon="-2.9758620">
        <ele>616.6</ele>
        <time>2022-06-27T08:38:09Z</time>
      </trkpt>
      <trkpt lat="42.4466460" lon="-2.9759610">
        <ele>616.6</ele>
        <time>2022-06-27T08:38:10Z</time>
      </trkpt>
      <trkpt lat="42.4466780" lon="-2.9760590">
        <ele>616.8</ele>
        <time>2022-06-27T08:38:11Z</time>
      </trkpt>
      <trkpt lat="42.4467100" lon="-2.9761580">
        <ele>617.0</ele>
        <time>2022-06-27T08:38:12Z</time>
      </trkpt>
      <trkpt lat="42.4467400" lon="-2.9762550">
        <ele>617.0</ele>
        <time>2022-06-27T08:38:13Z</time>
      </trkpt>
      <trkpt lat="42.4467690" lon="-2.9763520">
        <ele>617.2</ele>
        <time>2022-06-27T08:38:14Z</time>
      </trkpt>
      <trkpt lat="42.4467990" lon="-2.9764500">
        <ele>617.2</ele>
        <time>2022-06-27T08:38:15Z</time>
      </trkpt>
      <trkpt lat="42.4468310" lon="-2.9765450">
        <ele>617.2</ele>
        <time>2022-06-27T08:38:16Z</time>
      </trkpt>
      <trkpt lat="42.4468630" lon="-2.9766400">
        <ele>617.2</ele>
        <time>2022-06-27T08:38:17Z</time>
      </trkpt>
      <trkpt lat="42.4468910" lon="-2.9767360">
        <ele>617.2</ele>
        <time>2022-06-27T08:38:18Z</time>
      </trkpt>
      <trkpt lat="42.4469210" lon="-2.9768310">
        <ele>617.2</ele>
        <time>2022-06-27T08:38:19Z</time>
      </trkpt>
      <trkpt lat="42.4469490" lon="-2.9769240">
        <ele>617.4</ele>
        <time>2022-06-27T08:38:20Z</time>
      </trkpt>
      <trkpt lat="42.4469780" lon="-2.9770170">
        <ele>617.4</ele>
        <time>2022-06-27T08:38:21Z</time>
      </trkpt>
      <trkpt lat="42.4470080" lon="-2.9771110">
        <ele>617.6</ele>
        <time>2022-06-27T08:38:22Z</time>
      </trkpt>
      <trkpt lat="42.4470360" lon="-2.9772060">
        <ele>617.8</ele>
        <time>2022-06-27T08:38:23Z</time>
      </trkpt>
      <trkpt lat="42.4470660" lon="-2.9773010">
        <ele>618.0</ele>
        <time>2022-06-27T08:38:24Z</time>
      </trkpt>
      <trkpt lat="42.4470960" lon="-2.9773960">
        <ele>618.0</ele>
        <time>2022-06-27T08:38:25Z</time>
      </trkpt>
      <trkpt lat="42.4471240" lon="-2.9774900">
        <ele>618.2</ele>
        <time>2022-06-27T08:38:26Z</time>
      </trkpt>
      <trkpt lat="42.4471530" lon="-2.9775850">
        <ele>618.2</ele>
        <time>2022-06-27T08:38:27Z</time>
      </trkpt>
      <trkpt lat="42.4471820" lon="-2.9776790">
        <ele>618.2</ele>
        <time>2022-06-27T08:38:28Z</time>
      </trkpt>
      <trkpt lat="42.4472120" lon="-2.9777730">
        <ele>618.4</ele>
        <time>2022-06-27T08:38:29Z</time>
      </trkpt>
      <trkpt lat="42.4472420" lon="-2.9778660">
        <ele>618.4</ele>
        <time>2022-06-27T08:38:30Z</time>
      </trkpt>
      <trkpt lat="42.4472710" lon="-2.9779590">
        <ele>618.4</ele>
        <time>2022-06-27T08:38:31Z</time>
      </trkpt>
      <trkpt lat="42.4473000" lon="-2.9780500">
        <ele>618.4</ele>
        <time>2022-06-27T08:38:32Z</time>
      </trkpt>
      <trkpt lat="42.4473290" lon="-2.9781440">
        <ele>618.6</ele>
        <time>2022-06-27T08:38:33Z</time>
      </trkpt>
      <trkpt lat="42.4473580" lon="-2.9782380">
        <ele>618.6</ele>
        <time>2022-06-27T08:38:34Z</time>
      </trkpt>
      <trkpt lat="42.4473870" lon="-2.9783300">
        <ele>618.6</ele>
        <time>2022-06-27T08:38:35Z</time>
      </trkpt>
      <trkpt lat="42.4474150" lon="-2.9784240">
        <ele>618.6</ele>
        <time>2022-06-27T08:38:36Z</time>
      </trkpt>
      <trkpt lat="42.4474430" lon="-2.9785190">
        <ele>618.6</ele>
        <time>2022-06-27T08:38:37Z</time>
      </trkpt>
      <trkpt lat="42.4474720" lon="-2.9786150">
        <ele>618.8</ele>
        <time>2022-06-27T08:38:38Z</time>
      </trkpt>
      <trkpt lat="42.4475000" lon="-2.9787090">
        <ele>618.8</ele>
        <time>2022-06-27T08:38:39Z</time>
      </trkpt>
      <trkpt lat="42.4475290" lon="-2.9788040">
        <ele>619.0</ele>
        <time>2022-06-27T08:38:40Z</time>
      </trkpt>
      <trkpt lat="42.4475590" lon="-2.9788980">
        <ele>619.0</ele>
        <time>2022-06-27T08:38:41Z</time>
      </trkpt>
      <trkpt lat="42.4475880" lon="-2.9789910">
        <ele>619.2</ele>
        <time>2022-06-27T08:38:42Z</time>
      </trkpt>
      <trkpt lat="42.4476170" lon="-2.9790840">
        <ele>619.4</ele>
        <time>2022-06-27T08:38:43Z</time>
      </trkpt>
      <trkpt lat="42.4476450" lon="-2.9791770">
        <ele>619.2</ele>
        <time>2022-06-27T08:38:44Z</time>
      </trkpt>
      <trkpt lat="42.4476790" lon="-2.9792870">
        <ele>619.4</ele>
        <time>2022-06-27T08:38:45Z</time>
      </trkpt>
      <trkpt lat="42.4477020" lon="-2.9793610">
        <ele>619.4</ele>
        <time>2022-06-27T08:38:46Z</time>
      </trkpt>
      <trkpt lat="42.4477320" lon="-2.9794520">
        <ele>619.6</ele>
        <time>2022-06-27T08:38:47Z</time>
      </trkpt>
      <trkpt lat="42.4477610" lon="-2.9795440">
        <ele>619.6</ele>
        <time>2022-06-27T08:38:48Z</time>
      </trkpt>
      <trkpt lat="42.4477890" lon="-2.9796350">
        <ele>619.8</ele>
        <time>2022-06-27T08:38:49Z</time>
      </trkpt>
      <trkpt lat="42.4478160" lon="-2.9797250">
        <ele>619.8</ele>
        <time>2022-06-27T08:38:50Z</time>
      </trkpt>
      <trkpt lat="42.4478450" lon="-2.9798150">
        <ele>619.8</ele>
        <time>2022-06-27T08:38:51Z</time>
      </trkpt>
      <trkpt lat="42.4478760" lon="-2.9799040">
        <ele>619.8</ele>
        <time>2022-06-27T08:38:52Z</time>
      </trkpt>
      <trkpt lat="42.4479070" lon="-2.9799950">
        <ele>620.2</ele>
        <time>2022-06-27T08:38:53Z</time>
      </trkpt>
      <trkpt lat="42.4479380" lon="-2.9800840">
        <ele>620.2</ele>
        <time>2022-06-27T08:38:54Z</time>
      </trkpt>
      <trkpt lat="42.4479710" lon="-2.9801710">
        <ele>620.4</ele>
        <time>2022-06-27T08:38:55Z</time>
      </trkpt>
      <trkpt lat="42.4480080" lon="-2.9802560">
        <ele>620.4</ele>
        <time>2022-06-27T08:38:56Z</time>
      </trkpt>
      <trkpt lat="42.4480500" lon="-2.9803360">
        <ele>620.4</ele>
        <time>2022-06-27T08:38:57Z</time>
      </trkpt>
      <trkpt lat="42.4480970" lon="-2.9804120">
        <ele>620.6</ele>
        <time>2022-06-27T08:38:58Z</time>
      </trkpt>
      <trkpt lat="42.4481490" lon="-2.9804810">
        <ele>620.8</ele>
        <time>2022-06-27T08:38:59Z</time>
      </trkpt>
      <trkpt lat="42.4482070" lon="-2.9805380">
        <ele>620.8</ele>
        <time>2022-06-27T08:39:00Z</time>
      </trkpt>
      <trkpt lat="42.4482690" lon="-2.9805830">
        <ele>620.8</ele>
        <time>2022-06-27T08:39:01Z</time>
      </trkpt>
      <trkpt lat="42.4483340" lon="-2.9806190">
        <ele>621.0</ele>
        <time>2022-06-27T08:39:02Z</time>
      </trkpt>
      <trkpt lat="42.4483990" lon="-2.9806480">
        <ele>621.0</ele>
        <time>2022-06-27T08:39:03Z</time>
      </trkpt>
      <trkpt lat="42.4484630" lon="-2.9806780">
        <ele>621.2</ele>
        <time>2022-06-27T08:39:04Z</time>
      </trkpt>
      <trkpt lat="42.4485270" lon="-2.9807050">
        <ele>621.2</ele>
        <time>2022-06-27T08:39:05Z</time>
      </trkpt>
      <trkpt lat="42.4485870" lon="-2.9807300">
        <ele>621.4</ele>
        <time>2022-06-27T08:39:06Z</time>
      </trkpt>
      <trkpt lat="42.4486470" lon="-2.9807530">
        <ele>621.6</ele>
        <time>2022-06-27T08:39:07Z</time>
      </trkpt>
      <trkpt lat="42.4487050" lon="-2.9807770">
        <ele>621.8</ele>
        <time>2022-06-27T08:39:08Z</time>
      </trkpt>
      <trkpt lat="42.4487630" lon="-2.9808000">
        <ele>622.0</ele>
        <time>2022-06-27T08:39:09Z</time>
      </trkpt>
      <trkpt lat="42.4488210" lon="-2.9808210">
        <ele>622.4</ele>
        <time>2022-06-27T08:39:10Z</time>
      </trkpt>
      <trkpt lat="42.4488770" lon="-2.9808430">
        <ele>622.4</ele>
        <time>2022-06-27T08:39:11Z</time>
      </trkpt>
      <trkpt lat="42.4489320" lon="-2.9808630">
        <ele>622.8</ele>
        <time>2022-06-27T08:39:12Z</time>
      </trkpt>
      <trkpt lat="42.4489860" lon="-2.9808840">
        <ele>623.2</ele>
        <time>2022-06-27T08:39:13Z</time>
      </trkpt>
      <trkpt lat="42.4490410" lon="-2.9809080">
        <ele>623.6</ele>
        <time>2022-06-27T08:39:14Z</time>
      </trkpt>
      <trkpt lat="42.4490960" lon="-2.9809260">
        <ele>623.8</ele>
        <time>2022-06-27T08:39:15Z</time>
      </trkpt>
      <trkpt lat="42.4491500" lon="-2.9809470">
        <ele>624.0</ele>
        <time>2022-06-27T08:39:16Z</time>
      </trkpt>
      <trkpt lat="42.4492050" lon="-2.9809670">
        <ele>624.0</ele>
        <time>2022-06-27T08:39:17Z</time>
      </trkpt>
      <trkpt lat="42.4492600" lon="-2.9809850">
        <ele>624.2</ele>
        <time>2022-06-27T08:39:18Z</time>
      </trkpt>
      <trkpt lat="42.4493130" lon="-2.9810050">
        <ele>624.4</ele>
        <time>2022-06-27T08:39:19Z</time>
      </trkpt>
      <trkpt lat="42.4493660" lon="-2.9810230">
        <ele>624.6</ele>
        <time>2022-06-27T08:39:20Z</time>
      </trkpt>
      <trkpt lat="42.4494180" lon="-2.9810420">
        <ele>625.0</ele>
        <time>2022-06-27T08:39:21Z</time>
      </trkpt>
      <trkpt lat="42.4494710" lon="-2.9810630">
        <ele>625.2</ele>
        <time>2022-06-27T08:39:22Z</time>
      </trkpt>
      <trkpt lat="42.4495230" lon="-2.9810840">
        <ele>625.6</ele>
        <time>2022-06-27T08:39:23Z</time>
      </trkpt>
      <trkpt lat="42.4495760" lon="-2.9811040">
        <ele>625.6</ele>
        <time>2022-06-27T08:39:24Z</time>
      </trkpt>
      <trkpt lat="42.4496280" lon="-2.9811260">
        <ele>626.0</ele>
        <time>2022-06-27T08:39:25Z</time>
      </trkpt>
      <trkpt lat="42.4496810" lon="-2.9811450">
        <ele>626.0</ele>
        <time>2022-06-27T08:39:26Z</time>
      </trkpt>
      <trkpt lat="42.4497330" lon="-2.9811660">
        <ele>626.4</ele>
        <time>2022-06-27T08:39:27Z</time>
      </trkpt>
      <trkpt lat="42.4497840" lon="-2.9811880">
        <ele>626.6</ele>
        <time>2022-06-27T08:39:28Z</time>
      </trkpt>
      <trkpt lat="42.4498340" lon="-2.9812110">
        <ele>626.8</ele>
        <time>2022-06-27T08:39:29Z</time>
      </trkpt>
      <trkpt lat="42.4498860" lon="-2.9812360">
        <ele>627.0</ele>
        <time>2022-06-27T08:39:30Z</time>
      </trkpt>
      <trkpt lat="42.4499400" lon="-2.9812600">
        <ele>627.0</ele>
        <time>2022-06-27T08:39:31Z</time>
      </trkpt>
      <trkpt lat="42.4499970" lon="-2.9812820">
        <ele>627.2</ele>
        <time>2022-06-27T08:39:32Z</time>
      </trkpt>
      <trkpt lat="42.4500540" lon="-2.9813040">
        <ele>627.4</ele>
        <time>2022-06-27T08:39:33Z</time>
      </trkpt>
      <trkpt lat="42.4501110" lon="-2.9813240">
        <ele>627.6</ele>
        <time>2022-06-27T08:39:34Z</time>
      </trkpt>
      <trkpt lat="42.4501700" lon="-2.9813450">
        <ele>627.8</ele>
        <time>2022-06-27T08:39:35Z</time>
      </trkpt>
      <trkpt lat="42.4502310" lon="-2.9813710">
        <ele>627.8</ele>
        <time>2022-06-27T08:39:36Z</time>
      </trkpt>
      <trkpt lat="42.4502900" lon="-2.9813940">
        <ele>628.2</ele>
        <time>2022-06-27T08:39:37Z</time>
      </trkpt>
      <trkpt lat="42.4503550" lon="-2.9814200">
        <ele>628.2</ele>
        <time>2022-06-27T08:39:38Z</time>
      </trkpt>
      <trkpt lat="42.4504220" lon="-2.9814460">
        <ele>628.4</ele>
        <time>2022-06-27T08:39:39Z</time>
      </trkpt>
      <trkpt lat="42.4504920" lon="-2.9814740">
        <ele>628.6</ele>
        <time>2022-06-27T08:39:40Z</time>
      </trkpt>
      <trkpt lat="42.4505600" lon="-2.9815040">
        <ele>628.6</ele>
        <time>2022-06-27T08:39:41Z</time>
      </trkpt>
      <trkpt lat="42.4506300" lon="-2.9815350">
        <ele>628.6</ele>
        <time>2022-06-27T08:39:42Z</time>
      </trkpt>
      <trkpt lat="42.4507010" lon="-2.9815650">
        <ele>628.8</ele>
        <time>2022-06-27T08:39:43Z</time>
      </trkpt>
      <trkpt lat="42.4507720" lon="-2.9815980">
        <ele>628.6</ele>
        <time>2022-06-27T08:39:44Z</time>
      </trkpt>
      <trkpt lat="42.4508550" lon="-2.9816480">
        <ele>628.6</ele>
        <time>2022-06-27T08:39:45Z</time>
      </trkpt>
      <trkpt lat="42.4509080" lon="-2.9816920">
        <ele>628.6</ele>
        <time>2022-06-27T08:39:46Z</time>
      </trkpt>
      <trkpt lat="42.4509700" lon="-2.9817530">
        <ele>628.6</ele>
        <time>2022-06-27T08:39:47Z</time>
      </trkpt>
      <trkpt lat="42.4510300" lon="-2.9818210">
        <ele>628.6</ele>
        <time>2022-06-27T08:39:48Z</time>
      </trkpt>
      <trkpt lat="42.4510850" lon="-2.9818960">
        <ele>628.6</ele>
        <time>2022-06-27T08:39:49Z</time>
      </trkpt>
      <trkpt lat="42.4511310" lon="-2.9819840">
        <ele>628.6</ele>
        <time>2022-06-27T08:39:50Z</time>
      </trkpt>
      <trkpt lat="42.4511690" lon="-2.9820840">
        <ele>628.4</ele>
        <time>2022-06-27T08:39:51Z</time>
      </trkpt>
      <trkpt lat="42.4511940" lon="-2.9821940">
        <ele>628.4</ele>
        <time>2022-06-27T08:39:52Z</time>
      </trkpt>
      <trkpt lat="42.4512060" lon="-2.9823140">
        <ele>628.4</ele>
        <time>2022-06-27T08:39:53Z</time>
      </trkpt>
      <trkpt lat="42.4512050" lon="-2.9824610">
        <ele>628.2</ele>
        <time>2022-06-27T08:39:54Z</time>
      </trkpt>
      <trkpt lat="42.4511930" lon="-2.9825570">
        <ele>628.0</ele>
        <time>2022-06-27T08:39:55Z</time>
      </trkpt>
      <trkpt lat="42.4511670" lon="-2.9826740">
        <ele>627.4</ele>
        <time>2022-06-27T08:39:56Z</time>
      </trkpt>
      <trkpt lat="42.4511280" lon="-2.9827860">
        <ele>627.2</ele>
        <time>2022-06-27T08:39:57Z</time>
      </trkpt>
      <trkpt lat="42.4510780" lon="-2.9828900">
        <ele>626.8</ele>
        <time>2022-06-27T08:39:58Z</time>
      </trkpt>
      <trkpt lat="42.4510210" lon="-2.9829860">
        <ele>626.8</ele>
        <time>2022-06-27T08:39:59Z</time>
      </trkpt>
      <trkpt lat="42.4509610" lon="-2.9830780">
        <ele>626.4</ele>
        <time>2022-06-27T08:40:00Z</time>
      </trkpt>
      <trkpt lat="42.4508980" lon="-2.9831680">
        <ele>626.2</ele>
        <time>2022-06-27T08:40:01Z</time>
      </trkpt>
      <trkpt lat="42.4508340" lon="-2.9832560">
        <ele>626.0</ele>
        <time>2022-06-27T08:40:02Z</time>
      </trkpt>
      <trkpt lat="42.4507710" lon="-2.9833420">
        <ele>625.8</ele>
        <time>2022-06-27T08:40:03Z</time>
      </trkpt>
      <trkpt lat="42.4507090" lon="-2.9834240">
        <ele>625.6</ele>
        <time>2022-06-27T08:40:04Z</time>
      </trkpt>
      <trkpt lat="42.4506510" lon="-2.9835080">
        <ele>625.4</ele>
        <time>2022-06-27T08:40:05Z</time>
      </trkpt>
      <trkpt lat="42.4505950" lon="-2.9835910">
        <ele>625.4</ele>
        <time>2022-06-27T08:40:06Z</time>
      </trkpt>
      <trkpt lat="42.4505420" lon="-2.9836730">
        <ele>625.2</ele>
        <time>2022-06-27T08:40:07Z</time>
      </trkpt>
      <trkpt lat="42.4504810" lon="-2.9837720">
        <ele>625.2</ele>
        <time>2022-06-27T08:40:08Z</time>
      </trkpt>
      <trkpt lat="42.4504420" lon="-2.9838390">
        <ele>625.2</ele>
        <time>2022-06-27T08:40:09Z</time>
      </trkpt>
      <trkpt lat="42.4503950" lon="-2.9839220">
        <ele>625.2</ele>
        <time>2022-06-27T08:40:10Z</time>
      </trkpt>
      <trkpt lat="42.4503510" lon="-2.9840070">
        <ele>625.2</ele>
        <time>2022-06-27T08:40:11Z</time>
      </trkpt>
      <trkpt lat="42.4503110" lon="-2.9840920">
        <ele>625.2</ele>
        <time>2022-06-27T08:40:12Z</time>
      </trkpt>
      <trkpt lat="42.4502750" lon="-2.9841770">
        <ele>625.4</ele>
        <time>2022-06-27T08:40:13Z</time>
      </trkpt>
      <trkpt lat="42.4502410" lon="-2.9842630">
        <ele>625.6</ele>
        <time>2022-06-27T08:40:14Z</time>
      </trkpt>
      <trkpt lat="42.4502100" lon="-2.9843520">
        <ele>625.8</ele>
        <time>2022-06-27T08:40:15Z</time>
      </trkpt>
      <trkpt lat="42.4501830" lon="-2.9844410">
        <ele>626.0</ele>
        <time>2022-06-27T08:40:16Z</time>
      </trkpt>
      <trkpt lat="42.4501590" lon="-2.9845290">
        <ele>626.2</ele>
        <time>2022-06-27T08:40:17Z</time>
      </trkpt>
      <trkpt lat="42.4501390" lon="-2.9846180">
        <ele>626.4</ele>
        <time>2022-06-27T08:40:18Z</time>
      </trkpt>
      <trkpt lat="42.4501200" lon="-2.9847050">
        <ele>626.8</ele>
        <time>2022-06-27T08:40:19Z</time>
      </trkpt>
      <trkpt lat="42.4501040" lon="-2.9847930">
        <ele>627.0</ele>
        <time>2022-06-27T08:40:20Z</time>
      </trkpt>
      <trkpt lat="42.4500910" lon="-2.9848790">
        <ele>627.2</ele>
        <time>2022-06-27T08:40:21Z</time>
      </trkpt>
      <trkpt lat="42.4500810" lon="-2.9849660">
        <ele>627.4</ele>
        <time>2022-06-27T08:40:22Z</time>
      </trkpt>
      <trkpt lat="42.4500730" lon="-2.9850530">
        <ele>627.6</ele>
        <time>2022-06-27T08:40:23Z</time>
      </trkpt>
      <trkpt lat="42.4500680" lon="-2.9851390">
        <ele>627.8</ele>
        <time>2022-06-27T08:40:24Z</time>
      </trkpt>
      <trkpt lat="42.4500650" lon="-2.9852240">
        <ele>628.2</ele>
        <time>2022-06-27T08:40:25Z</time>
      </trkpt>
      <trkpt lat="42.4500640" lon="-2.9853090">
        <ele>628.6</ele>
        <time>2022-06-27T08:40:26Z</time>
      </trkpt>
      <trkpt lat="42.4500650" lon="-2.9853920">
        <ele>628.6</ele>
        <time>2022-06-27T08:40:27Z</time>
      </trkpt>
      <trkpt lat="42.4500680" lon="-2.9854740">
        <ele>629.0</ele>
        <time>2022-06-27T08:40:28Z</time>
      </trkpt>
      <trkpt lat="42.4500740" lon="-2.9855540">
        <ele>629.0</ele>
        <time>2022-06-27T08:40:29Z</time>
      </trkpt>
      <trkpt lat="42.4500790" lon="-2.9856360">
        <ele>629.4</ele>
        <time>2022-06-27T08:40:30Z</time>
      </trkpt>
      <trkpt lat="42.4500840" lon="-2.9857200">
        <ele>629.4</ele>
        <time>2022-06-27T08:40:31Z</time>
      </trkpt>
      <trkpt lat="42.4500890" lon="-2.9858020">
        <ele>629.6</ele>
        <time>2022-06-27T08:40:32Z</time>
      </trkpt>
      <trkpt lat="42.4500940" lon="-2.9858850">
        <ele>629.8</ele>
        <time>2022-06-27T08:40:33Z</time>
      </trkpt>
      <trkpt lat="42.4501010" lon="-2.9859660">
        <ele>630.0</ele>
        <time>2022-06-27T08:40:34Z</time>
      </trkpt>
      <trkpt lat="42.4501080" lon="-2.9860440">
        <ele>630.2</ele>
        <time>2022-06-27T08:40:35Z</time>
      </trkpt>
      <trkpt lat="42.4501180" lon="-2.9861220">
        <ele>630.4</ele>
        <time>2022-06-27T08:40:36Z</time>
      </trkpt>
      <trkpt lat="42.4501270" lon="-2.9862010">
        <ele>630.6</ele>
        <time>2022-06-27T08:40:37Z</time>
      </trkpt>
      <trkpt lat="42.4501360" lon="-2.9862770">
        <ele>631.0</ele>
        <time>2022-06-27T08:40:38Z</time>
      </trkpt>
      <trkpt lat="42.4501470" lon="-2.9863570">
        <ele>631.4</ele>
        <time>2022-06-27T08:40:39Z</time>
      </trkpt>
      <trkpt lat="42.4501590" lon="-2.9864370">
        <ele>631.6</ele>
        <time>2022-06-27T08:40:40Z</time>
      </trkpt>
      <trkpt lat="42.4501730" lon="-2.9865150">
        <ele>631.6</ele>
        <time>2022-06-27T08:40:41Z</time>
      </trkpt>
      <trkpt lat="42.4501870" lon="-2.9865930">
        <ele>631.8</ele>
        <time>2022-06-27T08:40:42Z</time>
      </trkpt>
      <trkpt lat="42.4501970" lon="-2.9866710">
        <ele>632.0</ele>
        <time>2022-06-27T08:40:43Z</time>
      </trkpt>
      <trkpt lat="42.4502060" lon="-2.9867460">
        <ele>632.2</ele>
        <time>2022-06-27T08:40:44Z</time>
      </trkpt>
      <trkpt lat="42.4502160" lon="-2.9868220">
        <ele>632.2</ele>
        <time>2022-06-27T08:40:45Z</time>
      </trkpt>
      <trkpt lat="42.4502260" lon="-2.9868990">
        <ele>632.6</ele>
        <time>2022-06-27T08:40:46Z</time>
      </trkpt>
      <trkpt lat="42.4502350" lon="-2.9869760">
        <ele>632.8</ele>
        <time>2022-06-27T08:40:47Z</time>
      </trkpt>
      <trkpt lat="42.4502440" lon="-2.9870520">
        <ele>632.6</ele>
        <time>2022-06-27T08:40:48Z</time>
      </trkpt>
      <trkpt lat="42.4502530" lon="-2.9871280">
        <ele>633.0</ele>
        <time>2022-06-27T08:40:49Z</time>
      </trkpt>
      <trkpt lat="42.4502630" lon="-2.9872070">
        <ele>633.2</ele>
        <time>2022-06-27T08:40:50Z</time>
      </trkpt>
      <trkpt lat="42.4502740" lon="-2.9872840">
        <ele>633.4</ele>
        <time>2022-06-27T08:40:51Z</time>
      </trkpt>
      <trkpt lat="42.4502850" lon="-2.9873610">
        <ele>633.6</ele>
        <time>2022-06-27T08:40:52Z</time>
      </trkpt>
      <trkpt lat="42.4502960" lon="-2.9874390">
        <ele>634.0</ele>
        <time>2022-06-27T08:40:53Z</time>
      </trkpt>
      <trkpt lat="42.4503050" lon="-2.9875150">
        <ele>634.2</ele>
        <time>2022-06-27T08:40:54Z</time>
      </trkpt>
      <trkpt lat="42.4503150" lon="-2.9875940">
        <ele>634.4</ele>
        <time>2022-06-27T08:40:55Z</time>
      </trkpt>
      <trkpt lat="42.4503250" lon="-2.9876720">
        <ele>634.6</ele>
        <time>2022-06-27T08:40:56Z</time>
      </trkpt>
      <trkpt lat="42.4503380" lon="-2.9877490">
        <ele>634.8</ele>
        <time>2022-06-27T08:40:57Z</time>
      </trkpt>
      <trkpt lat="42.4503490" lon="-2.9878270">
        <ele>635.0</ele>
        <time>2022-06-27T08:40:58Z</time>
      </trkpt>
      <trkpt lat="42.4503610" lon="-2.9879050">
        <ele>635.0</ele>
        <time>2022-06-27T08:40:59Z</time>
      </trkpt>
      <trkpt lat="42.4503740" lon="-2.9879840">
        <ele>635.2</ele>
        <time>2022-06-27T08:41:00Z</time>
      </trkpt>
      <trkpt lat="42.4503870" lon="-2.9880620">
        <ele>635.2</ele>
        <time>2022-06-27T08:41:01Z</time>
      </trkpt>
      <trkpt lat="42.4503990" lon="-2.9881420">
        <ele>635.4</ele>
        <time>2022-06-27T08:41:02Z</time>
      </trkpt>
      <trkpt lat="42.4504100" lon="-2.9882210">
        <ele>635.6</ele>
        <time>2022-06-27T08:41:03Z</time>
      </trkpt>
      <trkpt lat="42.4504220" lon="-2.9883010">
        <ele>635.6</ele>
        <time>2022-06-27T08:41:04Z</time>
      </trkpt>
      <trkpt lat="42.4504350" lon="-2.9883790">
        <ele>635.8</ele>
        <time>2022-06-27T08:41:05Z</time>
      </trkpt>
      <trkpt lat="42.4504460" lon="-2.9884580">
        <ele>636.0</ele>
        <time>2022-06-27T08:41:06Z</time>
      </trkpt>
      <trkpt lat="42.4504580" lon="-2.9885370">
        <ele>636.2</ele>
        <time>2022-06-27T08:41:07Z</time>
      </trkpt>
      <trkpt lat="42.4504710" lon="-2.9886150">
        <ele>636.4</ele>
        <time>2022-06-27T08:41:08Z</time>
      </trkpt>
      <trkpt lat="42.4504810" lon="-2.9886930">
        <ele>636.8</ele>
        <time>2022-06-27T08:41:09Z</time>
      </trkpt>
      <trkpt lat="42.4504930" lon="-2.9887720">
        <ele>637.0</ele>
        <time>2022-06-27T08:41:10Z</time>
      </trkpt>
      <trkpt lat="42.4505050" lon="-2.9888510">
        <ele>637.2</ele>
        <time>2022-06-27T08:41:11Z</time>
      </trkpt>
      <trkpt lat="42.4505180" lon="-2.9889340">
        <ele>637.4</ele>
        <time>2022-06-27T08:41:12Z</time>
      </trkpt>
      <trkpt lat="42.4505310" lon="-2.9890160">
        <ele>637.4</ele>
        <time>2022-06-27T08:41:13Z</time>
      </trkpt>
      <trkpt lat="42.4505450" lon="-2.9890990">
        <ele>637.6</ele>
        <time>2022-06-27T08:41:14Z</time>
      </trkpt>
      <trkpt lat="42.4505590" lon="-2.9891810">
        <ele>637.8</ele>
        <time>2022-06-27T08:41:15Z</time>
      </trkpt>
      <trkpt lat="42.4505710" lon="-2.9892620">
        <ele>637.8</ele>
        <time>2022-06-27T08:41:16Z</time>
      </trkpt>
      <trkpt lat="42.4505820" lon="-2.9893430">
        <ele>638.0</ele>
        <time>2022-06-27T08:41:17Z</time>
      </trkpt>
      <trkpt lat="42.4505950" lon="-2.9894220">
        <ele>638.0</ele>
        <time>2022-06-27T08:41:18Z</time>
      </trkpt>
      <trkpt lat="42.4506060" lon="-2.9895000">
        <ele>638.0</ele>
        <time>2022-06-27T08:41:19Z</time>
      </trkpt>
      <trkpt lat="42.4506170" lon="-2.9895790">
        <ele>638.2</ele>
        <time>2022-06-27T08:41:20Z</time>
      </trkpt>
      <trkpt lat="42.4506280" lon="-2.9896600">
        <ele>638.4</ele>
        <time>2022-06-27T08:41:21Z</time>
      </trkpt>
      <trkpt lat="42.4506380" lon="-2.9897400">
        <ele>638.4</ele>
        <time>2022-06-27T08:41:22Z</time>
      </trkpt>
      <trkpt lat="42.4506490" lon="-2.9898180">
        <ele>638.6</ele>
        <time>2022-06-27T08:41:23Z</time>
      </trkpt>
      <trkpt lat="42.4506590" lon="-2.9898970">
        <ele>638.8</ele>
        <time>2022-06-27T08:41:24Z</time>
      </trkpt>
      <trkpt lat="42.4506710" lon="-2.9899780">
        <ele>638.8</ele>
        <time>2022-06-27T08:41:25Z</time>
      </trkpt>
      <trkpt lat="42.4506830" lon="-2.9900590">
        <ele>639.0</ele>
        <time>2022-06-27T08:41:26Z</time>
      </trkpt>
      <trkpt lat="42.4506940" lon="-2.9901390">
        <ele>639.2</ele>
        <time>2022-06-27T08:41:27Z</time>
      </trkpt>
      <trkpt lat="42.4507050" lon="-2.9902170">
        <ele>639.4</ele>
        <time>2022-06-27T08:41:28Z</time>
      </trkpt>
      <trkpt lat="42.4507170" lon="-2.9902970">
        <ele>639.6</ele>
        <time>2022-06-27T08:41:29Z</time>
      </trkpt>
      <trkpt lat="42.4507300" lon="-2.9903750">
        <ele>639.8</ele>
        <time>2022-06-27T08:41:30Z</time>
      </trkpt>
      <trkpt lat="42.4507420" lon="-2.9904530">
        <ele>639.8</ele>
        <time>2022-06-27T08:41:31Z</time>
      </trkpt>
      <trkpt lat="42.4507540" lon="-2.9905330">
        <ele>640.0</ele>
        <time>2022-06-27T08:41:32Z</time>
      </trkpt>
      <trkpt lat="42.4507640" lon="-2.9906120">
        <ele>640.2</ele>
        <time>2022-06-27T08:41:33Z</time>
      </trkpt>
      <trkpt lat="42.4507740" lon="-2.9906920">
        <ele>640.2</ele>
        <time>2022-06-27T08:41:34Z</time>
      </trkpt>
      <trkpt lat="42.4507860" lon="-2.9907690">
        <ele>640.4</ele>
        <time>2022-06-27T08:41:35Z</time>
      </trkpt>
      <trkpt lat="42.4507970" lon="-2.9908490">
        <ele>640.6</ele>
        <time>2022-06-27T08:41:36Z</time>
      </trkpt>
      <trkpt lat="42.4508090" lon="-2.9909300">
        <ele>640.8</ele>
        <time>2022-06-27T08:41:37Z</time>
      </trkpt>
      <trkpt lat="42.4508200" lon="-2.9910120">
        <ele>641.0</ele>
        <time>2022-06-27T08:41:38Z</time>
      </trkpt>
      <trkpt lat="42.4508290" lon="-2.9910930">
        <ele>641.2</ele>
        <time>2022-06-27T08:41:39Z</time>
      </trkpt>
      <trkpt lat="42.4508410" lon="-2.9911730">
        <ele>641.2</ele>
        <time>2022-06-27T08:41:40Z</time>
      </trkpt>
      <trkpt lat="42.4508530" lon="-2.9912550">
        <ele>641.2</ele>
        <time>2022-06-27T08:41:41Z</time>
      </trkpt>
      <trkpt lat="42.4508660" lon="-2.9913370">
        <ele>641.4</ele>
        <time>2022-06-27T08:41:42Z</time>
      </trkpt>
      <trkpt lat="42.4508790" lon="-2.9914220">
        <ele>641.4</ele>
        <time>2022-06-27T08:41:43Z</time>
      </trkpt>
      <trkpt lat="42.4508920" lon="-2.9915060">
        <ele>641.4</ele>
        <time>2022-06-27T08:41:44Z</time>
      </trkpt>
      <trkpt lat="42.4509050" lon="-2.9915930">
        <ele>641.6</ele>
        <time>2022-06-27T08:41:45Z</time>
      </trkpt>
      <trkpt lat="42.4509170" lon="-2.9916800">
        <ele>641.8</ele>
        <time>2022-06-27T08:41:46Z</time>
      </trkpt>
      <trkpt lat="42.4509290" lon="-2.9917680">
        <ele>642.0</ele>
        <time>2022-06-27T08:41:47Z</time>
      </trkpt>
      <trkpt lat="42.4509420" lon="-2.9918570">
        <ele>642.2</ele>
        <time>2022-06-27T08:41:48Z</time>
      </trkpt>
      <trkpt lat="42.4509550" lon="-2.9919460">
        <ele>642.2</ele>
        <time>2022-06-27T08:41:49Z</time>
      </trkpt>
      <trkpt lat="42.4509660" lon="-2.9920350">
        <ele>642.4</ele>
        <time>2022-06-27T08:41:50Z</time>
      </trkpt>
      <trkpt lat="42.4509790" lon="-2.9921230">
        <ele>642.6</ele>
        <time>2022-06-27T08:41:51Z</time>
      </trkpt>
      <trkpt lat="42.4509920" lon="-2.9922090">
        <ele>642.6</ele>
        <time>2022-06-27T08:41:52Z</time>
      </trkpt>
      <trkpt lat="42.4510030" lon="-2.9922950">
        <ele>642.8</ele>
        <time>2022-06-27T08:41:53Z</time>
      </trkpt>
      <trkpt lat="42.4510150" lon="-2.9923810">
        <ele>642.8</ele>
        <time>2022-06-27T08:41:54Z</time>
      </trkpt>
      <trkpt lat="42.4510270" lon="-2.9924670">
        <ele>642.8</ele>
        <time>2022-06-27T08:41:55Z</time>
      </trkpt>
      <trkpt lat="42.4510400" lon="-2.9925510">
        <ele>643.0</ele>
        <time>2022-06-27T08:41:56Z</time>
      </trkpt>
      <trkpt lat="42.4510530" lon="-2.9926350">
        <ele>643.0</ele>
        <time>2022-06-27T08:41:57Z</time>
      </trkpt>
      <trkpt lat="42.4510650" lon="-2.9927190">
        <ele>643.2</ele>
        <time>2022-06-27T08:41:58Z</time>
      </trkpt>
      <trkpt lat="42.4510780" lon="-2.9928030">
        <ele>643.4</ele>
        <time>2022-06-27T08:41:59Z</time>
      </trkpt>
      <trkpt lat="42.4510870" lon="-2.9928870">
        <ele>643.4</ele>
        <time>2022-06-27T08:42:00Z</time>
      </trkpt>
      <trkpt lat="42.4510990" lon="-2.9929700">
        <ele>643.6</ele>
        <time>2022-06-27T08:42:01Z</time>
      </trkpt>
      <trkpt lat="42.4511120" lon="-2.9930530">
        <ele>643.6</ele>
        <time>2022-06-27T08:42:02Z</time>
      </trkpt>
      <trkpt lat="42.4511270" lon="-2.9931380">
        <ele>643.8</ele>
        <time>2022-06-27T08:42:03Z</time>
      </trkpt>
      <trkpt lat="42.4511400" lon="-2.9932250">
        <ele>643.8</ele>
        <time>2022-06-27T08:42:04Z</time>
      </trkpt>
      <trkpt lat="42.4511520" lon="-2.9933130">
        <ele>644.0</ele>
        <time>2022-06-27T08:42:05Z</time>
      </trkpt>
      <trkpt lat="42.4511640" lon="-2.9933980">
        <ele>644.0</ele>
        <time>2022-06-27T08:42:06Z</time>
      </trkpt>
      <trkpt lat="42.4511750" lon="-2.9934860">
        <ele>643.8</ele>
        <time>2022-06-27T08:42:07Z</time>
      </trkpt>
      <trkpt lat="42.4511880" lon="-2.9935750">
        <ele>643.8</ele>
        <time>2022-06-27T08:42:08Z</time>
      </trkpt>
      <trkpt lat="42.4512020" lon="-2.9936650">
        <ele>644.0</ele>
        <time>2022-06-27T08:42:09Z</time>
      </trkpt>
      <trkpt lat="42.4512160" lon="-2.9937540">
        <ele>644.2</ele>
        <time>2022-06-27T08:42:10Z</time>
      </trkpt>
      <trkpt lat="42.4512300" lon="-2.9938440">
        <ele>644.2</ele>
        <time>2022-06-27T08:42:11Z</time>
      </trkpt>
      <trkpt lat="42.4512440" lon="-2.9939360">
        <ele>644.2</ele>
        <time>2022-06-27T08:42:12Z</time>
      </trkpt>
      <trkpt lat="42.4512550" lon="-2.9940270">
        <ele>644.2</ele>
        <time>2022-06-27T08:42:13Z</time>
      </trkpt>
      <trkpt lat="42.4512690" lon="-2.9941190">
        <ele>644.4</ele>
        <time>2022-06-27T08:42:14Z</time>
      </trkpt>
      <trkpt lat="42.4512820" lon="-2.9942100">
        <ele>644.4</ele>
        <time>2022-06-27T08:42:15Z</time>
      </trkpt>
      <trkpt lat="42.4512940" lon="-2.9943010">
        <ele>644.4</ele>
        <time>2022-06-27T08:42:16Z</time>
      </trkpt>
      <trkpt lat="42.4513070" lon="-2.9943930">
        <ele>644.4</ele>
        <time>2022-06-27T08:42:17Z</time>
      </trkpt>
      <trkpt lat="42.4513220" lon="-2.9944830">
        <ele>644.6</ele>
        <time>2022-06-27T08:42:18Z</time>
      </trkpt>
      <trkpt lat="42.4513360" lon="-2.9945730">
        <ele>644.8</ele>
        <time>2022-06-27T08:42:19Z</time>
      </trkpt>
      <trkpt lat="42.4513510" lon="-2.9946650">
        <ele>644.8</ele>
        <time>2022-06-27T08:42:20Z</time>
      </trkpt>
      <trkpt lat="42.4513620" lon="-2.9947580">
        <ele>644.8</ele>
        <time>2022-06-27T08:42:21Z</time>
      </trkpt>
      <trkpt lat="42.4513760" lon="-2.9948500">
        <ele>645.0</ele>
        <time>2022-06-27T08:42:22Z</time>
      </trkpt>
      <trkpt lat="42.4513890" lon="-2.9949450">
        <ele>645.0</ele>
        <time>2022-06-27T08:42:23Z</time>
      </trkpt>
      <trkpt lat="42.4514030" lon="-2.9950400">
        <ele>645.0</ele>
        <time>2022-06-27T08:42:24Z</time>
      </trkpt>
      <trkpt lat="42.4514160" lon="-2.9951360">
        <ele>644.8</ele>
        <time>2022-06-27T08:42:25Z</time>
      </trkpt>
      <trkpt lat="42.4514290" lon="-2.9952320">
        <ele>645.0</ele>
        <time>2022-06-27T08:42:26Z</time>
      </trkpt>
      <trkpt lat="42.4514420" lon="-2.9953250">
        <ele>645.0</ele>
        <time>2022-06-27T08:42:27Z</time>
      </trkpt>
      <trkpt lat="42.4514550" lon="-2.9954180">
        <ele>645.0</ele>
        <time>2022-06-27T08:42:28Z</time>
      </trkpt>
      <trkpt lat="42.4514710" lon="-2.9955130">
        <ele>645.0</ele>
        <time>2022-06-27T08:42:29Z</time>
      </trkpt>
      <trkpt lat="42.4514850" lon="-2.9956080">
        <ele>645.0</ele>
        <time>2022-06-27T08:42:30Z</time>
      </trkpt>
      <trkpt lat="42.4514980" lon="-2.9957020">
        <ele>645.2</ele>
        <time>2022-06-27T08:42:31Z</time>
      </trkpt>
      <trkpt lat="42.4515090" lon="-2.9957980">
        <ele>645.2</ele>
        <time>2022-06-27T08:42:32Z</time>
      </trkpt>
      <trkpt lat="42.4515220" lon="-2.9958930">
        <ele>645.4</ele>
        <time>2022-06-27T08:42:33Z</time>
      </trkpt>
      <trkpt lat="42.4515330" lon="-2.9959870">
        <ele>645.4</ele>
        <time>2022-06-27T08:42:34Z</time>
      </trkpt>
      <trkpt lat="42.4515440" lon="-2.9960790">
        <ele>645.4</ele>
        <time>2022-06-27T08:42:35Z</time>
      </trkpt>
      <trkpt lat="42.4515560" lon="-2.9961730">
        <ele>645.4</ele>
        <time>2022-06-27T08:42:36Z</time>
      </trkpt>
      <trkpt lat="42.4515680" lon="-2.9962680">
        <ele>645.4</ele>
        <time>2022-06-27T08:42:37Z</time>
      </trkpt>
      <trkpt lat="42.4515810" lon="-2.9963630">
        <ele>645.4</ele>
        <time>2022-06-27T08:42:38Z</time>
      </trkpt>
      <trkpt lat="42.4515950" lon="-2.9964540">
        <ele>645.6</ele>
        <time>2022-06-27T08:42:39Z</time>
      </trkpt>
      <trkpt lat="42.4516080" lon="-2.9965500">
        <ele>645.6</ele>
        <time>2022-06-27T08:42:40Z</time>
      </trkpt>
      <trkpt lat="42.4516180" lon="-2.9966460">
        <ele>645.6</ele>
        <time>2022-06-27T08:42:41Z</time>
      </trkpt>
      <trkpt lat="42.4516300" lon="-2.9967440">
        <ele>645.6</ele>
        <time>2022-06-27T08:42:42Z</time>
      </trkpt>
      <trkpt lat="42.4516420" lon="-2.9968410">
        <ele>645.6</ele>
        <time>2022-06-27T08:42:43Z</time>
      </trkpt>
      <trkpt lat="42.4516540" lon="-2.9969370">
        <ele>645.6</ele>
        <time>2022-06-27T08:42:44Z</time>
      </trkpt>
      <trkpt lat="42.4516660" lon="-2.9970330">
        <ele>645.6</ele>
        <time>2022-06-27T08:42:45Z</time>
      </trkpt>
      <trkpt lat="42.4516750" lon="-2.9971290">
        <ele>645.8</ele>
        <time>2022-06-27T08:42:46Z</time>
      </trkpt>
      <trkpt lat="42.4516850" lon="-2.9972230">
        <ele>645.8</ele>
        <time>2022-06-27T08:42:47Z</time>
      </trkpt>
      <trkpt lat="42.4516970" lon="-2.9973170">
        <ele>646.0</ele>
        <time>2022-06-27T08:42:48Z</time>
      </trkpt>
      <trkpt lat="42.4517080" lon="-2.9974120">
        <ele>646.2</ele>
        <time>2022-06-27T08:42:49Z</time>
      </trkpt>
      <trkpt lat="42.4517200" lon="-2.9975060">
        <ele>646.2</ele>
        <time>2022-06-27T08:42:50Z</time>
      </trkpt>
      <trkpt lat="42.4517320" lon="-2.9975990">
        <ele>646.4</ele>
        <time>2022-06-27T08:42:51Z</time>
      </trkpt>
      <trkpt lat="42.4517410" lon="-2.9976920">
        <ele>646.4</ele>
        <time>2022-06-27T08:42:52Z</time>
      </trkpt>
      <trkpt lat="42.4517520" lon="-2.9977860">
        <ele>646.6</ele>
        <time>2022-06-27T08:42:53Z</time>
      </trkpt>
      <trkpt lat="42.4517620" lon="-2.9978790">
        <ele>646.6</ele>
        <time>2022-06-27T08:42:54Z</time>
      </trkpt>
      <trkpt lat="42.4517730" lon="-2.9979720">
        <ele>646.8</ele>
        <time>2022-06-27T08:42:55Z</time>
      </trkpt>
      <trkpt lat="42.4517830" lon="-2.9980650">
        <ele>646.8</ele>
        <time>2022-06-27T08:42:56Z</time>
      </trkpt>
      <trkpt lat="42.4517930" lon="-2.9981580">
        <ele>646.8</ele>
        <time>2022-06-27T08:42:57Z</time>
      </trkpt>
      <trkpt lat="42.4518040" lon="-2.9982530">
        <ele>647.0</ele>
        <time>2022-06-27T08:42:58Z</time>
      </trkpt>
      <trkpt lat="42.4518140" lon="-2.9983460">
        <ele>647.0</ele>
        <time>2022-06-27T08:42:59Z</time>
      </trkpt>
      <trkpt lat="42.4518220" lon="-2.9984380">
        <ele>647.0</ele>
        <time>2022-06-27T08:43:00Z</time>
      </trkpt>
      <trkpt lat="42.4518310" lon="-2.9985260">
        <ele>647.0</ele>
        <time>2022-06-27T08:43:01Z</time>
      </trkpt>
      <trkpt lat="42.4518420" lon="-2.9986180">
        <ele>647.2</ele>
        <time>2022-06-27T08:43:02Z</time>
      </trkpt>
      <trkpt lat="42.4518520" lon="-2.9987110">
        <ele>647.2</ele>
        <time>2022-06-27T08:43:03Z</time>
      </trkpt>
      <trkpt lat="42.4518620" lon="-2.9988030">
        <ele>647.2</ele>
        <time>2022-06-27T08:43:04Z</time>
      </trkpt>
      <trkpt lat="42.4518710" lon="-2.9988960">
        <ele>647.4</ele>
        <time>2022-06-27T08:43:05Z</time>
      </trkpt>
      <trkpt lat="42.4518800" lon="-2.9989890">
        <ele>647.4</ele>
        <time>2022-06-27T08:43:06Z</time>
      </trkpt>
      <trkpt lat="42.4518890" lon="-2.9990820">
        <ele>647.6</ele>
        <time>2022-06-27T08:43:07Z</time>
      </trkpt>
      <trkpt lat="42.4518960" lon="-2.9991730">
        <ele>647.6</ele>
        <time>2022-06-27T08:43:08Z</time>
      </trkpt>
      <trkpt lat="42.4519030" lon="-2.9992660">
        <ele>647.6</ele>
        <time>2022-06-27T08:43:09Z</time>
      </trkpt>
      <trkpt lat="42.4519110" lon="-2.9993580">
        <ele>647.8</ele>
        <time>2022-06-27T08:43:10Z</time>
      </trkpt>
      <trkpt lat="42.4519220" lon="-2.9994490">
        <ele>647.8</ele>
        <time>2022-06-27T08:43:11Z</time>
      </trkpt>
      <trkpt lat="42.4519320" lon="-2.9995400">
        <ele>647.8</ele>
        <time>2022-06-27T08:43:12Z</time>
      </trkpt>
      <trkpt lat="42.4519400" lon="-2.9996310">
        <ele>647.8</ele>
        <time>2022-06-27T08:43:13Z</time>
      </trkpt>
      <trkpt lat="42.4519490" lon="-2.9997220">
        <ele>648.0</ele>
        <time>2022-06-27T08:43:14Z</time>
      </trkpt>
      <trkpt lat="42.4519570" lon="-2.9998140">
        <ele>648.0</ele>
        <time>2022-06-27T08:43:15Z</time>
      </trkpt>
      <trkpt lat="42.4519650" lon="-2.9999040">
        <ele>648.2</ele>
        <time>2022-06-27T08:43:16Z</time>
      </trkpt>
      <trkpt lat="42.4519720" lon="-2.9999960">
        <ele>648.2</ele>
        <time>2022-06-27T08:43:17Z</time>
      </trkpt>
      <trkpt lat="42.4519800" lon="-3.0000890">
        <ele>648.4</ele>
        <time>2022-06-27T08:43:18Z</time>
      </trkpt>
      <trkpt lat="42.4519850" lon="-3.0001830">
        <ele>648.4</ele>
        <time>2022-06-27T08:43:19Z</time>
      </trkpt>
      <trkpt lat="42.4519920" lon="-3.0002760">
        <ele>648.4</ele>
        <time>2022-06-27T08:43:20Z</time>
      </trkpt>
      <trkpt lat="42.4519990" lon="-3.0003690">
        <ele>648.6</ele>
        <time>2022-06-27T08:43:21Z</time>
      </trkpt>
      <trkpt lat="42.4520070" lon="-3.0004620">
        <ele>648.6</ele>
        <time>2022-06-27T08:43:22Z</time>
      </trkpt>
      <trkpt lat="42.4520160" lon="-3.0005570">
        <ele>648.6</ele>
        <time>2022-06-27T08:43:23Z</time>
      </trkpt>
      <trkpt lat="42.4520240" lon="-3.0006510">
        <ele>648.8</ele>
        <time>2022-06-27T08:43:24Z</time>
      </trkpt>
      <trkpt lat="42.4520300" lon="-3.0007450">
        <ele>649.0</ele>
        <time>2022-06-27T08:43:25Z</time>
      </trkpt>
      <trkpt lat="42.4520380" lon="-3.0008380">
        <ele>649.0</ele>
        <time>2022-06-27T08:43:26Z</time>
      </trkpt>
      <trkpt lat="42.4520470" lon="-3.0009330">
        <ele>649.0</ele>
        <time>2022-06-27T08:43:27Z</time>
      </trkpt>
      <trkpt lat="42.4520570" lon="-3.0010290">
        <ele>649.2</ele>
        <time>2022-06-27T08:43:28Z</time>
      </trkpt>
      <trkpt lat="42.4520660" lon="-3.0011240">
        <ele>649.2</ele>
        <time>2022-06-27T08:43:29Z</time>
      </trkpt>
      <trkpt lat="42.4520730" lon="-3.0012190">
        <ele>649.2</ele>
        <time>2022-06-27T08:43:30Z</time>
      </trkpt>
      <trkpt lat="42.4520800" lon="-3.0013130">
        <ele>649.2</ele>
        <time>2022-06-27T08:43:31Z</time>
      </trkpt>
      <trkpt lat="42.4520890" lon="-3.0014080">
        <ele>649.4</ele>
        <time>2022-06-27T08:43:32Z</time>
      </trkpt>
      <trkpt lat="42.4520970" lon="-3.0015040">
        <ele>649.6</ele>
        <time>2022-06-27T08:43:33Z</time>
      </trkpt>
      <trkpt lat="42.4521050" lon="-3.0015980">
        <ele>649.6</ele>
        <time>2022-06-27T08:43:34Z</time>
      </trkpt>
      <trkpt lat="42.4521130" lon="-3.0016910">
        <ele>649.6</ele>
        <time>2022-06-27T08:43:35Z</time>
      </trkpt>
      <trkpt lat="42.4521220" lon="-3.0017840">
        <ele>649.6</ele>
        <time>2022-06-27T08:43:36Z</time>
      </trkpt>
      <trkpt lat="42.4521300" lon="-3.0018770">
        <ele>649.8</ele>
        <time>2022-06-27T08:43:37Z</time>
      </trkpt>
      <trkpt lat="42.4521370" lon="-3.0019680">
        <ele>650.0</ele>
        <time>2022-06-27T08:43:38Z</time>
      </trkpt>
      <trkpt lat="42.4521450" lon="-3.0020610">
        <ele>650.2</ele>
        <time>2022-06-27T08:43:39Z</time>
      </trkpt>
      <trkpt lat="42.4521530" lon="-3.0021540">
        <ele>650.4</ele>
        <time>2022-06-27T08:43:40Z</time>
      </trkpt>
      <trkpt lat="42.4521610" lon="-3.0022470">
        <ele>650.4</ele>
        <time>2022-06-27T08:43:41Z</time>
      </trkpt>
      <trkpt lat="42.4521680" lon="-3.0023400">
        <ele>650.6</ele>
        <time>2022-06-27T08:43:42Z</time>
      </trkpt>
      <trkpt lat="42.4521770" lon="-3.0024340">
        <ele>650.6</ele>
        <time>2022-06-27T08:43:43Z</time>
      </trkpt>
      <trkpt lat="42.4521870" lon="-3.0025280">
        <ele>650.8</ele>
        <time>2022-06-27T08:43:44Z</time>
      </trkpt>
      <trkpt lat="42.4521940" lon="-3.0026230">
        <ele>650.8</ele>
        <time>2022-06-27T08:43:45Z</time>
      </trkpt>
      <trkpt lat="42.4522020" lon="-3.0027180">
        <ele>650.8</ele>
        <time>2022-06-27T08:43:46Z</time>
      </trkpt>
      <trkpt lat="42.4522090" lon="-3.0028120">
        <ele>650.8</ele>
        <time>2022-06-27T08:43:47Z</time>
      </trkpt>
      <trkpt lat="42.4522160" lon="-3.0029050">
        <ele>651.0</ele>
        <time>2022-06-27T08:43:48Z</time>
      </trkpt>
      <trkpt lat="42.4522240" lon="-3.0029990">
        <ele>651.0</ele>
        <time>2022-06-27T08:43:49Z</time>
      </trkpt>
      <trkpt lat="42.4522310" lon="-3.0030930">
        <ele>651.0</ele>
        <time>2022-06-27T08:43:50Z</time>
      </trkpt>
      <trkpt lat="42.4522370" lon="-3.0031880">
        <ele>651.2</ele>
        <time>2022-06-27T08:43:51Z</time>
      </trkpt>
      <trkpt lat="42.4522440" lon="-3.0032830">
        <ele>651.4</ele>
        <time>2022-06-27T08:43:52Z</time>
      </trkpt>
      <trkpt lat="42.4522530" lon="-3.0033780">
        <ele>651.4</ele>
        <time>2022-06-27T08:43:53Z</time>
      </trkpt>
      <trkpt lat="42.4522610" lon="-3.0034730">
        <ele>651.4</ele>
        <time>2022-06-27T08:43:54Z</time>
      </trkpt>
      <trkpt lat="42.4522680" lon="-3.0035700">
        <ele>651.4</ele>
        <time>2022-06-27T08:43:55Z</time>
      </trkpt>
      <trkpt lat="42.4522740" lon="-3.0036650">
        <ele>651.6</ele>
        <time>2022-06-27T08:43:56Z</time>
      </trkpt>
      <trkpt lat="42.4522820" lon="-3.0037610">
        <ele>651.6</ele>
        <time>2022-06-27T08:43:57Z</time>
      </trkpt>
      <trkpt lat="42.4522900" lon="-3.0038550">
        <ele>651.8</ele>
        <time>2022-06-27T08:43:58Z</time>
      </trkpt>
      <trkpt lat="42.4522980" lon="-3.0039490">
        <ele>651.8</ele>
        <time>2022-06-27T08:43:59Z</time>
      </trkpt>
      <trkpt lat="42.4523060" lon="-3.0040440">
        <ele>651.8</ele>
        <time>2022-06-27T08:44:00Z</time>
      </trkpt>
      <trkpt lat="42.4523130" lon="-3.0041390">
        <ele>651.8</ele>
        <time>2022-06-27T08:44:01Z</time>
      </trkpt>
      <trkpt lat="42.4523200" lon="-3.0042340">
        <ele>652.0</ele>
        <time>2022-06-27T08:44:02Z</time>
      </trkpt>
      <trkpt lat="42.4523270" lon="-3.0043290">
        <ele>652.0</ele>
        <time>2022-06-27T08:44:03Z</time>
      </trkpt>
      <trkpt lat="42.4523350" lon="-3.0044240">
        <ele>652.2</ele>
        <time>2022-06-27T08:44:04Z</time>
      </trkpt>
      <trkpt lat="42.4523430" lon="-3.0045180">
        <ele>652.4</ele>
        <time>2022-06-27T08:44:05Z</time>
      </trkpt>
      <trkpt lat="42.4523500" lon="-3.0046110">
        <ele>652.6</ele>
        <time>2022-06-27T08:44:06Z</time>
      </trkpt>
      <trkpt lat="42.4523580" lon="-3.0047060">
        <ele>652.8</ele>
        <time>2022-06-27T08:44:07Z</time>
      </trkpt>
      <trkpt lat="42.4523640" lon="-3.0048000">
        <ele>652.8</ele>
        <time>2022-06-27T08:44:08Z</time>
      </trkpt>
      <trkpt lat="42.4523720" lon="-3.0048940">
        <ele>653.0</ele>
        <time>2022-06-27T08:44:09Z</time>
      </trkpt>
      <trkpt lat="42.4523810" lon="-3.0049890">
        <ele>653.0</ele>
        <time>2022-06-27T08:44:10Z</time>
      </trkpt>
      <trkpt lat="42.4523890" lon="-3.0050830">
        <ele>653.2</ele>
        <time>2022-06-27T08:44:11Z</time>
      </trkpt>
      <trkpt lat="42.4523960" lon="-3.0051580">
        <ele>653.2</ele>
        <time>2022-06-27T08:44:12Z</time>
      </trkpt>
      <trkpt lat="42.4524040" lon="-3.0052520">
        <ele>653.2</ele>
        <time>2022-06-27T08:44:13Z</time>
      </trkpt>
      <trkpt lat="42.4524140" lon="-3.0053650">
        <ele>653.6</ele>
        <time>2022-06-27T08:44:14Z</time>
      </trkpt>
      <trkpt lat="42.4524230" lon="-3.0054600">
        <ele>653.8</ele>
        <time>2022-06-27T08:44:15Z</time>
      </trkpt>
      <trkpt lat="42.4524300" lon="-3.0055580">
        <ele>654.0</ele>
        <time>2022-06-27T08:44:16Z</time>
      </trkpt>
      <trkpt lat="42.4524380" lon="-3.0056530">
        <ele>654.0</ele>
        <time>2022-06-27T08:44:17Z</time>
      </trkpt>
      <trkpt lat="42.4524460" lon="-3.0057500">
        <ele>654.2</ele>
        <time>2022-06-27T08:44:18Z</time>
      </trkpt>
      <trkpt lat="42.4524540" lon="-3.0058460">
        <ele>654.4</ele>
        <time>2022-06-27T08:44:19Z</time>
      </trkpt>
      <trkpt lat="42.4524630" lon="-3.0059420">
        <ele>654.4</ele>
        <time>2022-06-27T08:44:20Z</time>
      </trkpt>
      <trkpt lat="42.4524690" lon="-3.0060190">
        <ele>654.4</ele>
        <time>2022-06-27T08:44:21Z</time>
      </trkpt>
      <trkpt lat="42.4524770" lon="-3.0061140">
        <ele>654.6</ele>
        <time>2022-06-27T08:44:22Z</time>
      </trkpt>
      <trkpt lat="42.4524870" lon="-3.0062310">
        <ele>655.0</ele>
        <time>2022-06-27T08:44:23Z</time>
      </trkpt>
      <trkpt lat="42.4524950" lon="-3.0063280">
        <ele>655.2</ele>
        <time>2022-06-27T08:44:24Z</time>
      </trkpt>
      <trkpt lat="42.4525010" lon="-3.0064250">
        <ele>655.4</ele>
        <time>2022-06-27T08:44:25Z</time>
      </trkpt>
      <trkpt lat="42.4525070" lon="-3.0065200">
        <ele>655.4</ele>
        <time>2022-06-27T08:44:26Z</time>
      </trkpt>
      <trkpt lat="42.4525120" lon="-3.0065950">
        <ele>655.6</ele>
        <time>2022-06-27T08:44:27Z</time>
      </trkpt>
      <trkpt lat="42.4525200" lon="-3.0067070">
        <ele>655.6</ele>
        <time>2022-06-27T08:44:28Z</time>
      </trkpt>
      <trkpt lat="42.4525280" lon="-3.0068020">
        <ele>655.6</ele>
        <time>2022-06-27T08:44:29Z</time>
      </trkpt>
      <trkpt lat="42.4525370" lon="-3.0068970">
        <ele>655.8</ele>
        <time>2022-06-27T08:44:30Z</time>
      </trkpt>
      <trkpt lat="42.4525450" lon="-3.0069900">
        <ele>655.8</ele>
        <time>2022-06-27T08:44:31Z</time>
      </trkpt>
      <trkpt lat="42.4525530" lon="-3.0070830">
        <ele>655.8</ele>
        <time>2022-06-27T08:44:32Z</time>
      </trkpt>
      <trkpt lat="42.4525610" lon="-3.0071760">
        <ele>656.0</ele>
        <time>2022-06-27T08:44:33Z</time>
      </trkpt>
      <trkpt lat="42.4525700" lon="-3.0072680">
        <ele>656.0</ele>
        <time>2022-06-27T08:44:34Z</time>
      </trkpt>
      <trkpt lat="42.4525780" lon="-3.0073580">
        <ele>656.4</ele>
        <time>2022-06-27T08:44:35Z</time>
      </trkpt>
      <trkpt lat="42.4525860" lon="-3.0074480">
        <ele>656.4</ele>
        <time>2022-06-27T08:44:36Z</time>
      </trkpt>
      <trkpt lat="42.4525930" lon="-3.0075380">
        <ele>656.8</ele>
        <time>2022-06-27T08:44:37Z</time>
      </trkpt>
      <trkpt lat="42.4525980" lon="-3.0076300">
        <ele>656.8</ele>
        <time>2022-06-27T08:44:38Z</time>
      </trkpt>
      <trkpt lat="42.4526050" lon="-3.0077220">
        <ele>657.0</ele>
        <time>2022-06-27T08:44:39Z</time>
      </trkpt>
      <trkpt lat="42.4526120" lon="-3.0077950">
        <ele>657.2</ele>
        <time>2022-06-27T08:44:40Z</time>
      </trkpt>
      <trkpt lat="42.4526200" lon="-3.0078870">
        <ele>657.2</ele>
        <time>2022-06-27T08:44:41Z</time>
      </trkpt>
      <trkpt lat="42.4526300" lon="-3.0079980">
        <ele>657.4</ele>
        <time>2022-06-27T08:44:42Z</time>
      </trkpt>
      <trkpt lat="42.4526380" lon="-3.0080900">
        <ele>657.6</ele>
        <time>2022-06-27T08:44:43Z</time>
      </trkpt>
      <trkpt lat="42.4526450" lon="-3.0081820">
        <ele>657.6</ele>
        <time>2022-06-27T08:44:44Z</time>
      </trkpt>
      <trkpt lat="42.4526530" lon="-3.0082740">
        <ele>657.8</ele>
        <time>2022-06-27T08:44:45Z</time>
      </trkpt>
      <trkpt lat="42.4526580" lon="-3.0083470">
        <ele>658.0</ele>
        <time>2022-06-27T08:44:46Z</time>
      </trkpt>
      <trkpt lat="42.4526660" lon="-3.0084570">
        <ele>658.0</ele>
        <time>2022-06-27T08:44:47Z</time>
      </trkpt>
      <trkpt lat="42.4526750" lon="-3.0085490">
        <ele>658.0</ele>
        <time>2022-06-27T08:44:48Z</time>
      </trkpt>
      <trkpt lat="42.4526820" lon="-3.0086430">
        <ele>658.2</ele>
        <time>2022-06-27T08:44:49Z</time>
      </trkpt>
      <trkpt lat="42.4526900" lon="-3.0087160">
        <ele>658.4</ele>
        <time>2022-06-27T08:44:50Z</time>
      </trkpt>
      <trkpt lat="42.4526990" lon="-3.0088270">
        <ele>658.4</ele>
        <time>2022-06-27T08:44:51Z</time>
      </trkpt>
      <trkpt lat="42.4527050" lon="-3.0089190">
        <ele>658.6</ele>
        <time>2022-06-27T08:44:52Z</time>
      </trkpt>
      <trkpt lat="42.4527110" lon="-3.0090100">
        <ele>658.6</ele>
        <time>2022-06-27T08:44:53Z</time>
      </trkpt>
      <trkpt lat="42.4527170" lon="-3.0091020">
        <ele>658.8</ele>
        <time>2022-06-27T08:44:54Z</time>
      </trkpt>
      <trkpt lat="42.4527250" lon="-3.0091920">
        <ele>659.0</ele>
        <time>2022-06-27T08:44:55Z</time>
      </trkpt>
      <trkpt lat="42.4527320" lon="-3.0092840">
        <ele>659.2</ele>
        <time>2022-06-27T08:44:56Z</time>
      </trkpt>
      <trkpt lat="42.4527420" lon="-3.0093750">
        <ele>659.4</ele>
        <time>2022-06-27T08:44:57Z</time>
      </trkpt>
      <trkpt lat="42.4527520" lon="-3.0094670">
        <ele>659.6</ele>
        <time>2022-06-27T08:44:58Z</time>
      </trkpt>
      <trkpt lat="42.4527590" lon="-3.0095580">
        <ele>659.8</ele>
        <time>2022-06-27T08:44:59Z</time>
      </trkpt>
      <trkpt lat="42.4527670" lon="-3.0096470">
        <ele>660.0</ele>
        <time>2022-06-27T08:45:00Z</time>
      </trkpt>
      <trkpt lat="42.4527740" lon="-3.0097360">
        <ele>660.0</ele>
        <time>2022-06-27T08:45:01Z</time>
      </trkpt>
      <trkpt lat="42.4527820" lon="-3.0098250">
        <ele>660.2</ele>
        <time>2022-06-27T08:45:02Z</time>
      </trkpt>
      <trkpt lat="42.4527900" lon="-3.0099150">
        <ele>660.4</ele>
        <time>2022-06-27T08:45:03Z</time>
      </trkpt>
      <trkpt lat="42.4527970" lon="-3.0100070">
        <ele>660.4</ele>
        <time>2022-06-27T08:45:04Z</time>
      </trkpt>
      <trkpt lat="42.4528050" lon="-3.0100990">
        <ele>660.6</ele>
        <time>2022-06-27T08:45:05Z</time>
      </trkpt>
      <trkpt lat="42.4528130" lon="-3.0101890">
        <ele>660.6</ele>
        <time>2022-06-27T08:45:06Z</time>
      </trkpt>
      <trkpt lat="42.4528190" lon="-3.0102800">
        <ele>660.8</ele>
        <time>2022-06-27T08:45:07Z</time>
      </trkpt>
      <trkpt lat="42.4528270" lon="-3.0103700">
        <ele>660.8</ele>
        <time>2022-06-27T08:45:08Z</time>
      </trkpt>
      <trkpt lat="42.4528340" lon="-3.0104600">
        <ele>661.0</ele>
        <time>2022-06-27T08:45:09Z</time>
      </trkpt>
      <trkpt lat="42.4528400" lon="-3.0105330">
        <ele>661.0</ele>
        <time>2022-06-27T08:45:10Z</time>
      </trkpt>
      <trkpt lat="42.4528480" lon="-3.0106430">
        <ele>661.4</ele>
        <time>2022-06-27T08:45:11Z</time>
      </trkpt>
      <trkpt lat="42.4528550" lon="-3.0107360">
        <ele>661.4</ele>
        <time>2022-06-27T08:45:12Z</time>
      </trkpt>
      <trkpt lat="42.4528620" lon="-3.0108270">
        <ele>661.6</ele>
        <time>2022-06-27T08:45:13Z</time>
      </trkpt>
      <trkpt lat="42.4528690" lon="-3.0109180">
        <ele>661.8</ele>
        <time>2022-06-27T08:45:14Z</time>
      </trkpt>
      <trkpt lat="42.4528760" lon="-3.0110110">
        <ele>661.8</ele>
        <time>2022-06-27T08:45:15Z</time>
      </trkpt>
      <trkpt lat="42.4528840" lon="-3.0111030">
        <ele>662.0</ele>
        <time>2022-06-27T08:45:16Z</time>
      </trkpt>
      <trkpt lat="42.4528920" lon="-3.0111930">
        <ele>662.2</ele>
        <time>2022-06-27T08:45:17Z</time>
      </trkpt>
      <trkpt lat="42.4529010" lon="-3.0112840">
        <ele>662.4</ele>
        <time>2022-06-27T08:45:18Z</time>
      </trkpt>
      <trkpt lat="42.4529090" lon="-3.0113760">
        <ele>662.6</ele>
        <time>2022-06-27T08:45:19Z</time>
      </trkpt>
      <trkpt lat="42.4529170" lon="-3.0114690">
        <ele>662.6</ele>
        <time>2022-06-27T08:45:20Z</time>
      </trkpt>
      <trkpt lat="42.4529230" lon="-3.0115610">
        <ele>662.6</ele>
        <time>2022-06-27T08:45:21Z</time>
      </trkpt>
      <trkpt lat="42.4529280" lon="-3.0116540">
        <ele>662.8</ele>
        <time>2022-06-27T08:45:22Z</time>
      </trkpt>
      <trkpt lat="42.4529330" lon="-3.0117480">
        <ele>663.2</ele>
        <time>2022-06-27T08:45:23Z</time>
      </trkpt>
      <trkpt lat="42.4529370" lon="-3.0118230">
        <ele>663.2</ele>
        <time>2022-06-27T08:45:24Z</time>
      </trkpt>
      <trkpt lat="42.4529420" lon="-3.0119360">
        <ele>663.4</ele>
        <time>2022-06-27T08:45:25Z</time>
      </trkpt>
      <trkpt lat="42.4529460" lon="-3.0120290">
        <ele>663.4</ele>
        <time>2022-06-27T08:45:26Z</time>
      </trkpt>
      <trkpt lat="42.4529490" lon="-3.0121240">
        <ele>663.4</ele>
        <time>2022-06-27T08:45:27Z</time>
      </trkpt>
      <trkpt lat="42.4529530" lon="-3.0122200">
        <ele>663.6</ele>
        <time>2022-06-27T08:45:28Z</time>
      </trkpt>
      <trkpt lat="42.4529580" lon="-3.0123140">
        <ele>663.8</ele>
        <time>2022-06-27T08:45:29Z</time>
      </trkpt>
      <trkpt lat="42.4529640" lon="-3.0124070">
        <ele>664.0</ele>
        <time>2022-06-27T08:45:30Z</time>
      </trkpt>
      <trkpt lat="42.4529690" lon="-3.0125020">
        <ele>664.2</ele>
        <time>2022-06-27T08:45:31Z</time>
      </trkpt>
      <trkpt lat="42.4529740" lon="-3.0125960">
        <ele>664.4</ele>
        <time>2022-06-27T08:45:32Z</time>
      </trkpt>
      <trkpt lat="42.4529820" lon="-3.0126890">
        <ele>664.4</ele>
        <time>2022-06-27T08:45:33Z</time>
      </trkpt>
      <trkpt lat="42.4529890" lon="-3.0127820">
        <ele>664.4</ele>
        <time>2022-06-27T08:45:34Z</time>
      </trkpt>
      <trkpt lat="42.4529990" lon="-3.0128730">
        <ele>664.6</ele>
        <time>2022-06-27T08:45:35Z</time>
      </trkpt>
      <trkpt lat="42.4530080" lon="-3.0129660">
        <ele>664.8</ele>
        <time>2022-06-27T08:45:36Z</time>
      </trkpt>
      <trkpt lat="42.4530160" lon="-3.0130580">
        <ele>665.0</ele>
        <time>2022-06-27T08:45:37Z</time>
      </trkpt>
      <trkpt lat="42.4530230" lon="-3.0131490">
        <ele>665.0</ele>
        <time>2022-06-27T08:45:38Z</time>
      </trkpt>
      <trkpt lat="42.4530290" lon="-3.0132400">
        <ele>665.2</ele>
        <time>2022-06-27T08:45:39Z</time>
      </trkpt>
      <trkpt lat="42.4530350" lon="-3.0133320">
        <ele>665.4</ele>
        <time>2022-06-27T08:45:40Z</time>
      </trkpt>
      <trkpt lat="42.4530430" lon="-3.0134230">
        <ele>665.6</ele>
        <time>2022-06-27T08:45:41Z</time>
      </trkpt>
      <trkpt lat="42.4530490" lon="-3.0135150">
        <ele>665.8</ele>
        <time>2022-06-27T08:45:42Z</time>
      </trkpt>
      <trkpt lat="42.4530590" lon="-3.0136060">
        <ele>666.0</ele>
        <time>2022-06-27T08:45:43Z</time>
      </trkpt>
      <trkpt lat="42.4530700" lon="-3.0136950">
        <ele>666.2</ele>
        <time>2022-06-27T08:45:44Z</time>
      </trkpt>
      <trkpt lat="42.4530790" lon="-3.0137830">
        <ele>666.2</ele>
        <time>2022-06-27T08:45:45Z</time>
      </trkpt>
      <trkpt lat="42.4530880" lon="-3.0138700">
        <ele>666.4</ele>
        <time>2022-06-27T08:45:46Z</time>
      </trkpt>
      <trkpt lat="42.4530970" lon="-3.0139570">
        <ele>666.4</ele>
        <time>2022-06-27T08:45:47Z</time>
      </trkpt>
      <trkpt lat="42.4531020" lon="-3.0140430">
        <ele>666.6</ele>
        <time>2022-06-27T08:45:48Z</time>
      </trkpt>
      <trkpt lat="42.4531100" lon="-3.0141280">
        <ele>666.8</ele>
        <time>2022-06-27T08:45:49Z</time>
      </trkpt>
      <trkpt lat="42.4531190" lon="-3.0142130">
        <ele>666.8</ele>
        <time>2022-06-27T08:45:50Z</time>
      </trkpt>
      <trkpt lat="42.4531260" lon="-3.0142990">
        <ele>667.0</ele>
        <time>2022-06-27T08:45:51Z</time>
      </trkpt>
      <trkpt lat="42.4531340" lon="-3.0143840">
        <ele>667.2</ele>
        <time>2022-06-27T08:45:52Z</time>
      </trkpt>
      <trkpt lat="42.4531400" lon="-3.0144710">
        <ele>667.4</ele>
        <time>2022-06-27T08:45:53Z</time>
      </trkpt>
      <trkpt lat="42.4531480" lon="-3.0145550">
        <ele>667.4</ele>
        <time>2022-06-27T08:45:54Z</time>
      </trkpt>
      <trkpt lat="42.4531540" lon="-3.0146410">
        <ele>667.6</ele>
        <time>2022-06-27T08:45:55Z</time>
      </trkpt>
      <trkpt lat="42.4531610" lon="-3.0147260">
        <ele>667.8</ele>
        <time>2022-06-27T08:45:56Z</time>
      </trkpt>
      <trkpt lat="42.4531670" lon="-3.0148110">
        <ele>668.0</ele>
        <time>2022-06-27T08:45:57Z</time>
      </trkpt>
      <trkpt lat="42.4531730" lon="-3.0148950">
        <ele>668.2</ele>
        <time>2022-06-27T08:45:58Z</time>
      </trkpt>
      <trkpt lat="42.4531790" lon="-3.0149810">
        <ele>668.4</ele>
        <time>2022-06-27T08:45:59Z</time>
      </trkpt>
      <trkpt lat="42.4531850" lon="-3.0150670">
        <ele>668.6</ele>
        <time>2022-06-27T08:46:00Z</time>
      </trkpt>
      <trkpt lat="42.4531930" lon="-3.0151520">
        <ele>668.8</ele>
        <time>2022-06-27T08:46:01Z</time>
      </trkpt>
      <trkpt lat="42.4532020" lon="-3.0152400">
        <ele>669.0</ele>
        <time>2022-06-27T08:46:02Z</time>
      </trkpt>
      <trkpt lat="42.4532100" lon="-3.0153280">
        <ele>669.0</ele>
        <time>2022-06-27T08:46:03Z</time>
      </trkpt>
      <trkpt lat="42.4532170" lon="-3.0154170">
        <ele>669.2</ele>
        <time>2022-06-27T08:46:04Z</time>
      </trkpt>
      <trkpt lat="42.4532260" lon="-3.0155060">
        <ele>669.2</ele>
        <time>2022-06-27T08:46:05Z</time>
      </trkpt>
      <trkpt lat="42.4532340" lon="-3.0155950">
        <ele>669.2</ele>
        <time>2022-06-27T08:46:06Z</time>
      </trkpt>
      <trkpt lat="42.4532410" lon="-3.0156830">
        <ele>669.6</ele>
        <time>2022-06-27T08:46:07Z</time>
      </trkpt>
      <trkpt lat="42.4532490" lon="-3.0157710">
        <ele>669.6</ele>
        <time>2022-06-27T08:46:08Z</time>
      </trkpt>
      <trkpt lat="42.4532580" lon="-3.0158580">
        <ele>670.0</ele>
        <time>2022-06-27T08:46:09Z</time>
      </trkpt>
      <trkpt lat="42.4532650" lon="-3.0159440">
        <ele>670.0</ele>
        <time>2022-06-27T08:46:10Z</time>
      </trkpt>
      <trkpt lat="42.4532740" lon="-3.0160330">
        <ele>670.0</ele>
        <time>2022-06-27T08:46:11Z</time>
      </trkpt>
      <trkpt lat="42.4532800" lon="-3.0161250">
        <ele>670.0</ele>
        <time>2022-06-27T08:46:12Z</time>
      </trkpt>
      <trkpt lat="42.4532870" lon="-3.0162150">
        <ele>670.0</ele>
        <time>2022-06-27T08:46:13Z</time>
      </trkpt>
      <trkpt lat="42.4532940" lon="-3.0163050">
        <ele>670.4</ele>
        <time>2022-06-27T08:46:14Z</time>
      </trkpt>
      <trkpt lat="42.4533000" lon="-3.0163950">
        <ele>670.4</ele>
        <time>2022-06-27T08:46:15Z</time>
      </trkpt>
      <trkpt lat="42.4533060" lon="-3.0164840">
        <ele>670.6</ele>
        <time>2022-06-27T08:46:16Z</time>
      </trkpt>
      <trkpt lat="42.4533130" lon="-3.0165710">
        <ele>670.8</ele>
        <time>2022-06-27T08:46:17Z</time>
      </trkpt>
      <trkpt lat="42.4533190" lon="-3.0166570">
        <ele>670.8</ele>
        <time>2022-06-27T08:46:18Z</time>
      </trkpt>
      <trkpt lat="42.4533260" lon="-3.0167420">
        <ele>671.2</ele>
        <time>2022-06-27T08:46:19Z</time>
      </trkpt>
      <trkpt lat="42.4533340" lon="-3.0168270">
        <ele>671.4</ele>
        <time>2022-06-27T08:46:20Z</time>
      </trkpt>
      <trkpt lat="42.4533410" lon="-3.0169120">
        <ele>671.6</ele>
        <time>2022-06-27T08:46:21Z</time>
      </trkpt>
      <trkpt lat="42.4533480" lon="-3.0169980">
        <ele>671.6</ele>
        <time>2022-06-27T08:46:22Z</time>
      </trkpt>
      <trkpt lat="42.4533570" lon="-3.0170840">
        <ele>671.8</ele>
        <time>2022-06-27T08:46:23Z</time>
      </trkpt>
      <trkpt lat="42.4533660" lon="-3.0171690">
        <ele>671.8</ele>
        <time>2022-06-27T08:46:24Z</time>
      </trkpt>
      <trkpt lat="42.4533740" lon="-3.0172540">
        <ele>672.0</ele>
        <time>2022-06-27T08:46:25Z</time>
      </trkpt>
      <trkpt lat="42.4533810" lon="-3.0173400">
        <ele>672.2</ele>
        <time>2022-06-27T08:46:26Z</time>
      </trkpt>
      <trkpt lat="42.4533880" lon="-3.0174250">
        <ele>672.4</ele>
        <time>2022-06-27T08:46:27Z</time>
      </trkpt>
      <trkpt lat="42.4533960" lon="-3.0175110">
        <ele>672.6</ele>
        <time>2022-06-27T08:46:28Z</time>
      </trkpt>
      <trkpt lat="42.4534020" lon="-3.0175970">
        <ele>672.8</ele>
        <time>2022-06-27T08:46:29Z</time>
      </trkpt>
      <trkpt lat="42.4534100" lon="-3.0176840">
        <ele>673.0</ele>
        <time>2022-06-27T08:46:30Z</time>
      </trkpt>
      <trkpt lat="42.4534180" lon="-3.0177710">
        <ele>673.0</ele>
        <time>2022-06-27T08:46:31Z</time>
      </trkpt>
      <trkpt lat="42.4534260" lon="-3.0178590">
        <ele>673.2</ele>
        <time>2022-06-27T08:46:32Z</time>
      </trkpt>
      <trkpt lat="42.4534340" lon="-3.0179470">
        <ele>673.2</ele>
        <time>2022-06-27T08:46:33Z</time>
      </trkpt>
      <trkpt lat="42.4534420" lon="-3.0180330">
        <ele>673.4</ele>
        <time>2022-06-27T08:46:34Z</time>
      </trkpt>
      <trkpt lat="42.4534480" lon="-3.0181190">
        <ele>673.6</ele>
        <time>2022-06-27T08:46:35Z</time>
      </trkpt>
      <trkpt lat="42.4534540" lon="-3.0182060">
        <ele>673.6</ele>
        <time>2022-06-27T08:46:36Z</time>
      </trkpt>
      <trkpt lat="42.4534610" lon="-3.0182930">
        <ele>673.8</ele>
        <time>2022-06-27T08:46:37Z</time>
      </trkpt>
      <trkpt lat="42.4534680" lon="-3.0183830">
        <ele>674.0</ele>
        <time>2022-06-27T08:46:38Z</time>
      </trkpt>
      <trkpt lat="42.4534740" lon="-3.0184710">
        <ele>674.2</ele>
        <time>2022-06-27T08:46:39Z</time>
      </trkpt>
      <trkpt lat="42.4534810" lon="-3.0185580">
        <ele>674.2</ele>
        <time>2022-06-27T08:46:40Z</time>
      </trkpt>
      <trkpt lat="42.4534880" lon="-3.0186440">
        <ele>674.4</ele>
        <time>2022-06-27T08:46:41Z</time>
      </trkpt>
      <trkpt lat="42.4534970" lon="-3.0187300">
        <ele>674.4</ele>
        <time>2022-06-27T08:46:42Z</time>
      </trkpt>
      <trkpt lat="42.4535070" lon="-3.0188160">
        <ele>674.6</ele>
        <time>2022-06-27T08:46:43Z</time>
      </trkpt>
      <trkpt lat="42.4535150" lon="-3.0189020">
        <ele>674.6</ele>
        <time>2022-06-27T08:46:44Z</time>
      </trkpt>
      <trkpt lat="42.4535210" lon="-3.0189890">
        <ele>674.8</ele>
        <time>2022-06-27T08:46:45Z</time>
      </trkpt>
      <trkpt lat="42.4535290" lon="-3.0190750">
        <ele>675.0</ele>
        <time>2022-06-27T08:46:46Z</time>
      </trkpt>
      <trkpt lat="42.4535350" lon="-3.0191610">
        <ele>675.0</ele>
        <time>2022-06-27T08:46:47Z</time>
      </trkpt>
      <trkpt lat="42.4535440" lon="-3.0192460">
        <ele>675.2</ele>
        <time>2022-06-27T08:46:48Z</time>
      </trkpt>
      <trkpt lat="42.4535540" lon="-3.0193340">
        <ele>675.2</ele>
        <time>2022-06-27T08:46:49Z</time>
      </trkpt>
      <trkpt lat="42.4535610" lon="-3.0194240">
        <ele>675.4</ele>
        <time>2022-06-27T08:46:50Z</time>
      </trkpt>
      <trkpt lat="42.4535690" lon="-3.0195130">
        <ele>675.6</ele>
        <time>2022-06-27T08:46:51Z</time>
      </trkpt>
      <trkpt lat="42.4535790" lon="-3.0196010">
        <ele>675.6</ele>
        <time>2022-06-27T08:46:52Z</time>
      </trkpt>
      <trkpt lat="42.4535900" lon="-3.0196900">
        <ele>675.8</ele>
        <time>2022-06-27T08:46:53Z</time>
      </trkpt>
      <trkpt lat="42.4536020" lon="-3.0197790">
        <ele>676.0</ele>
        <time>2022-06-27T08:46:54Z</time>
      </trkpt>
      <trkpt lat="42.4536150" lon="-3.0198670">
        <ele>676.0</ele>
        <time>2022-06-27T08:46:55Z</time>
      </trkpt>
      <trkpt lat="42.4536290" lon="-3.0199540">
        <ele>676.0</ele>
        <time>2022-06-27T08:46:56Z</time>
      </trkpt>
      <trkpt lat="42.4536440" lon="-3.0200420">
        <ele>676.2</ele>
        <time>2022-06-27T08:46:57Z</time>
      </trkpt>
      <trkpt lat="42.4536610" lon="-3.0201270">
        <ele>676.2</ele>
        <time>2022-06-27T08:46:58Z</time>
      </trkpt>
      <trkpt lat="42.4536780" lon="-3.0202110">
        <ele>676.4</ele>
        <time>2022-06-27T08:46:59Z</time>
      </trkpt>
      <trkpt lat="42.4536970" lon="-3.0202950">
        <ele>676.4</ele>
        <time>2022-06-27T08:47:00Z</time>
      </trkpt>
      <trkpt lat="42.4537160" lon="-3.0203810">
        <ele>676.6</ele>
        <time>2022-06-27T08:47:01Z</time>
      </trkpt>
      <trkpt lat="42.4537370" lon="-3.0204650">
        <ele>677.0</ele>
        <time>2022-06-27T08:47:02Z</time>
      </trkpt>
      <trkpt lat="42.4537590" lon="-3.0205490">
        <ele>677.0</ele>
        <time>2022-06-27T08:47:03Z</time>
      </trkpt>
      <trkpt lat="42.4537850" lon="-3.0206290">
        <ele>677.2</ele>
        <time>2022-06-27T08:47:04Z</time>
      </trkpt>
      <trkpt lat="42.4538100" lon="-3.0207140">
        <ele>677.4</ele>
        <time>2022-06-27T08:47:05Z</time>
      </trkpt>
      <trkpt lat="42.4538370" lon="-3.0207990">
        <ele>677.6</ele>
        <time>2022-06-27T08:47:06Z</time>
      </trkpt>
      <trkpt lat="42.4538660" lon="-3.0208820">
        <ele>677.6</ele>
        <time>2022-06-27T08:47:07Z</time>
      </trkpt>
      <trkpt lat="42.4538960" lon="-3.0209640">
        <ele>677.8</ele>
        <time>2022-06-27T08:47:08Z</time>
      </trkpt>
      <trkpt lat="42.4539300" lon="-3.0210440">
        <ele>677.8</ele>
        <time>2022-06-27T08:47:09Z</time>
      </trkpt>
      <trkpt lat="42.4539660" lon="-3.0211230">
        <ele>678.0</ele>
        <time>2022-06-27T08:47:10Z</time>
      </trkpt>
      <trkpt lat="42.4540030" lon="-3.0212020">
        <ele>678.0</ele>
        <time>2022-06-27T08:47:11Z</time>
      </trkpt>
      <trkpt lat="42.4540380" lon="-3.0212820">
        <ele>678.0</ele>
        <time>2022-06-27T08:47:12Z</time>
      </trkpt>
      <trkpt lat="42.4540770" lon="-3.0213640">
        <ele>678.2</ele>
        <time>2022-06-27T08:47:13Z</time>
      </trkpt>
      <trkpt lat="42.4541150" lon="-3.0214480">
        <ele>678.2</ele>
        <time>2022-06-27T08:47:14Z</time>
      </trkpt>
      <trkpt lat="42.4541540" lon="-3.0215330">
        <ele>678.2</ele>
        <time>2022-06-27T08:47:15Z</time>
      </trkpt>
      <trkpt lat="42.4541930" lon="-3.0216140">
        <ele>678.2</ele>
        <time>2022-06-27T08:47:16Z</time>
      </trkpt>
      <trkpt lat="42.4542330" lon="-3.0216910">
        <ele>678.2</ele>
        <time>2022-06-27T08:47:17Z</time>
      </trkpt>
      <trkpt lat="42.4542730" lon="-3.0217680">
        <ele>678.2</ele>
        <time>2022-06-27T08:47:18Z</time>
      </trkpt>
      <trkpt lat="42.4543120" lon="-3.0218450">
        <ele>678.4</ele>
        <time>2022-06-27T08:47:19Z</time>
      </trkpt>
      <trkpt lat="42.4543550" lon="-3.0219200">
        <ele>678.4</ele>
        <time>2022-06-27T08:47:20Z</time>
      </trkpt>
      <trkpt lat="42.4543990" lon="-3.0219940">
        <ele>678.6</ele>
        <time>2022-06-27T08:47:21Z</time>
      </trkpt>
      <trkpt lat="42.4544430" lon="-3.0220700">
        <ele>678.6</ele>
        <time>2022-06-27T08:47:22Z</time>
      </trkpt>
      <trkpt lat="42.4544890" lon="-3.0221470">
        <ele>678.8</ele>
        <time>2022-06-27T08:47:23Z</time>
      </trkpt>
      <trkpt lat="42.4545340" lon="-3.0222250">
        <ele>678.8</ele>
        <time>2022-06-27T08:47:24Z</time>
      </trkpt>
      <trkpt lat="42.4545820" lon="-3.0223000">
        <ele>679.0</ele>
        <time>2022-06-27T08:47:25Z</time>
      </trkpt>
      <trkpt lat="42.4546330" lon="-3.0223730">
        <ele>679.0</ele>
        <time>2022-06-27T08:47:26Z</time>
      </trkpt>
      <trkpt lat="42.4546830" lon="-3.0224470">
        <ele>679.0</ele>
        <time>2022-06-27T08:47:27Z</time>
      </trkpt>
      <trkpt lat="42.4547310" lon="-3.0225210">
        <ele>679.0</ele>
        <time>2022-06-27T08:47:28Z</time>
      </trkpt>
      <trkpt lat="42.4547790" lon="-3.0225940">
        <ele>679.2</ele>
        <time>2022-06-27T08:47:29Z</time>
      </trkpt>
      <trkpt lat="42.4548270" lon="-3.0226660">
        <ele>679.2</ele>
        <time>2022-06-27T08:47:30Z</time>
      </trkpt>
      <trkpt lat="42.4548740" lon="-3.0227370">
        <ele>679.2</ele>
        <time>2022-06-27T08:47:31Z</time>
      </trkpt>
      <trkpt lat="42.4549210" lon="-3.0228120">
        <ele>679.4</ele>
        <time>2022-06-27T08:47:32Z</time>
      </trkpt>
      <trkpt lat="42.4549680" lon="-3.0228850">
        <ele>679.4</ele>
        <time>2022-06-27T08:47:33Z</time>
      </trkpt>
      <trkpt lat="42.4550140" lon="-3.0229560">
        <ele>679.4</ele>
        <time>2022-06-27T08:47:34Z</time>
      </trkpt>
      <trkpt lat="42.4550590" lon="-3.0230270">
        <ele>679.4</ele>
        <time>2022-06-27T08:47:35Z</time>
      </trkpt>
      <trkpt lat="42.4551080" lon="-3.0230960">
        <ele>679.4</ele>
        <time>2022-06-27T08:47:36Z</time>
      </trkpt>
      <trkpt lat="42.4551560" lon="-3.0231680">
        <ele>679.4</ele>
        <time>2022-06-27T08:47:37Z</time>
      </trkpt>
      <trkpt lat="42.4552040" lon="-3.0232390">
        <ele>679.4</ele>
        <time>2022-06-27T08:47:38Z</time>
      </trkpt>
      <trkpt lat="42.4552510" lon="-3.0233110">
        <ele>679.4</ele>
        <time>2022-06-27T08:47:39Z</time>
      </trkpt>
      <trkpt lat="42.4552980" lon="-3.0233830">
        <ele>679.4</ele>
        <time>2022-06-27T08:47:40Z</time>
      </trkpt>
      <trkpt lat="42.4553430" lon="-3.0234560">
        <ele>679.4</ele>
        <time>2022-06-27T08:47:41Z</time>
      </trkpt>
      <trkpt lat="42.4553890" lon="-3.0235280">
        <ele>679.4</ele>
        <time>2022-06-27T08:47:42Z</time>
      </trkpt>
      <trkpt lat="42.4554370" lon="-3.0236020">
        <ele>679.4</ele>
        <time>2022-06-27T08:47:43Z</time>
      </trkpt>
      <trkpt lat="42.4554850" lon="-3.0236720">
        <ele>679.4</ele>
        <time>2022-06-27T08:47:44Z</time>
      </trkpt>
      <trkpt lat="42.4555340" lon="-3.0237430">
        <ele>679.4</ele>
        <time>2022-06-27T08:47:45Z</time>
      </trkpt>
      <trkpt lat="42.4555820" lon="-3.0238160">
        <ele>679.4</ele>
        <time>2022-06-27T08:47:46Z</time>
      </trkpt>
      <trkpt lat="42.4556280" lon="-3.0238900">
        <ele>679.4</ele>
        <time>2022-06-27T08:47:47Z</time>
      </trkpt>
      <trkpt lat="42.4556750" lon="-3.0239630">
        <ele>679.4</ele>
        <time>2022-06-27T08:47:48Z</time>
      </trkpt>
      <trkpt lat="42.4557230" lon="-3.0240340">
        <ele>679.2</ele>
        <time>2022-06-27T08:47:49Z</time>
      </trkpt>
      <trkpt lat="42.4557720" lon="-3.0241080">
        <ele>679.2</ele>
        <time>2022-06-27T08:47:50Z</time>
      </trkpt>
      <trkpt lat="42.4558230" lon="-3.0241840">
        <ele>679.2</ele>
        <time>2022-06-27T08:47:51Z</time>
      </trkpt>
      <trkpt lat="42.4558740" lon="-3.0242620">
        <ele>678.8</ele>
        <time>2022-06-27T08:47:52Z</time>
      </trkpt>
      <trkpt lat="42.4559260" lon="-3.0243390">
        <ele>678.6</ele>
        <time>2022-06-27T08:47:53Z</time>
      </trkpt>
      <trkpt lat="42.4559780" lon="-3.0244170">
        <ele>678.8</ele>
        <time>2022-06-27T08:47:54Z</time>
      </trkpt>
      <trkpt lat="42.4560300" lon="-3.0244970">
        <ele>678.4</ele>
        <time>2022-06-27T08:47:55Z</time>
      </trkpt>
      <trkpt lat="42.4560840" lon="-3.0245780">
        <ele>678.6</ele>
        <time>2022-06-27T08:47:56Z</time>
      </trkpt>
      <trkpt lat="42.4561360" lon="-3.0246600">
        <ele>678.6</ele>
        <time>2022-06-27T08:47:57Z</time>
      </trkpt>
      <trkpt lat="42.4561870" lon="-3.0247420">
        <ele>678.4</ele>
        <time>2022-06-27T08:47:58Z</time>
      </trkpt>
      <trkpt lat="42.4562410" lon="-3.0248250">
        <ele>678.2</ele>
        <time>2022-06-27T08:47:59Z</time>
      </trkpt>
      <trkpt lat="42.4562970" lon="-3.0249100">
        <ele>678.0</ele>
        <time>2022-06-27T08:48:00Z</time>
      </trkpt>
      <trkpt lat="42.4563520" lon="-3.0249970">
        <ele>677.8</ele>
        <time>2022-06-27T08:48:01Z</time>
      </trkpt>
      <trkpt lat="42.4564070" lon="-3.0250870">
        <ele>677.8</ele>
        <time>2022-06-27T08:48:02Z</time>
      </trkpt>
      <trkpt lat="42.4564630" lon="-3.0251790">
        <ele>677.8</ele>
        <time>2022-06-27T08:48:03Z</time>
      </trkpt>
      <trkpt lat="42.4565170" lon="-3.0252770">
        <ele>677.6</ele>
        <time>2022-06-27T08:48:04Z</time>
      </trkpt>
      <trkpt lat="42.4565710" lon="-3.0253790">
        <ele>677.4</ele>
        <time>2022-06-27T08:48:05Z</time>
      </trkpt>
      <trkpt lat="42.4566240" lon="-3.0254850">
        <ele>677.4</ele>
        <time>2022-06-27T08:48:06Z</time>
      </trkpt>
      <trkpt lat="42.4566780" lon="-3.0255930">
        <ele>677.2</ele>
        <time>2022-06-27T08:48:07Z</time>
      </trkpt>
      <trkpt lat="42.4567300" lon="-3.0257060">
        <ele>676.6</ele>
        <time>2022-06-27T08:48:08Z</time>
      </trkpt>
      <trkpt lat="42.4567790" lon="-3.0258240">
        <ele>676.4</ele>
        <time>2022-06-27T08:48:09Z</time>
      </trkpt>
      <trkpt lat="42.4568270" lon="-3.0259460">
        <ele>676.2</ele>
        <time>2022-06-27T08:48:10Z</time>
      </trkpt>
      <trkpt lat="42.4568730" lon="-3.0260710">
        <ele>675.8</ele>
        <time>2022-06-27T08:48:11Z</time>
      </trkpt>
      <trkpt lat="42.4569160" lon="-3.0262010">
        <ele>675.6</ele>
        <time>2022-06-27T08:48:12Z</time>
      </trkpt>
      <trkpt lat="42.4569560" lon="-3.0263350">
        <ele>675.0</ele>
        <time>2022-06-27T08:48:13Z</time>
      </trkpt>
      <trkpt lat="42.4569950" lon="-3.0264700">
        <ele>674.8</ele>
        <time>2022-06-27T08:48:14Z</time>
      </trkpt>
      <trkpt lat="42.4570320" lon="-3.0266110">
        <ele>674.2</ele>
        <time>2022-06-27T08:48:15Z</time>
      </trkpt>
      <trkpt lat="42.4570650" lon="-3.0267560">
        <ele>674.0</ele>
        <time>2022-06-27T08:48:16Z</time>
      </trkpt>
      <trkpt lat="42.4570960" lon="-3.0269050">
        <ele>673.8</ele>
        <time>2022-06-27T08:48:17Z</time>
      </trkpt>
      <trkpt lat="42.4571240" lon="-3.0270560">
        <ele>673.2</ele>
        <time>2022-06-27T08:48:18Z</time>
      </trkpt>
      <trkpt lat="42.4571500" lon="-3.0272110">
        <ele>672.6</ele>
        <time>2022-06-27T08:48:19Z</time>
      </trkpt>
      <trkpt lat="42.4571730" lon="-3.0273680">
        <ele>671.8</ele>
        <time>2022-06-27T08:48:20Z</time>
      </trkpt>
      <trkpt lat="42.4571920" lon="-3.0275270">
        <ele>671.6</ele>
        <time>2022-06-27T08:48:21Z</time>
      </trkpt>
      <trkpt lat="42.4572060" lon="-3.0276890">
        <ele>670.6</ele>
        <time>2022-06-27T08:48:22Z</time>
      </trkpt>
      <trkpt lat="42.4572180" lon="-3.0278550">
        <ele>670.2</ele>
        <time>2022-06-27T08:48:23Z</time>
      </trkpt>
      <trkpt lat="42.4572240" lon="-3.0280240">
        <ele>669.6</ele>
        <time>2022-06-27T08:48:24Z</time>
      </trkpt>
      <trkpt lat="42.4572280" lon="-3.0281920">
        <ele>669.4</ele>
        <time>2022-06-27T08:48:25Z</time>
      </trkpt>
      <trkpt lat="42.4572280" lon="-3.0283590">
        <ele>669.0</ele>
        <time>2022-06-27T08:48:26Z</time>
      </trkpt>
      <trkpt lat="42.4572220" lon="-3.0285270">
        <ele>668.0</ele>
        <time>2022-06-27T08:48:27Z</time>
      </trkpt>
      <trkpt lat="42.4572100" lon="-3.0286940">
        <ele>667.6</ele>
        <time>2022-06-27T08:48:28Z</time>
      </trkpt>
      <trkpt lat="42.4571950" lon="-3.0288610">
        <ele>666.4</ele>
        <time>2022-06-27T08:48:29Z</time>
      </trkpt>
      <trkpt lat="42.4571770" lon="-3.0290270">
        <ele>665.8</ele>
        <time>2022-06-27T08:48:30Z</time>
      </trkpt>
      <trkpt lat="42.4571540" lon="-3.0291930">
        <ele>665.0</ele>
        <time>2022-06-27T08:48:31Z</time>
      </trkpt>
      <trkpt lat="42.4571250" lon="-3.0293610">
        <ele>664.6</ele>
        <time>2022-06-27T08:48:32Z</time>
      </trkpt>
      <trkpt lat="42.4570930" lon="-3.0295290">
        <ele>663.8</ele>
        <time>2022-06-27T08:48:33Z</time>
      </trkpt>
      <trkpt lat="42.4570560" lon="-3.0296950">
        <ele>662.2</ele>
        <time>2022-06-27T08:48:34Z</time>
      </trkpt>
      <trkpt lat="42.4570160" lon="-3.0298590">
        <ele>661.8</ele>
        <time>2022-06-27T08:48:35Z</time>
      </trkpt>
      <trkpt lat="42.4569800" lon="-3.0300180">
        <ele>661.0</ele>
        <time>2022-06-27T08:48:36Z</time>
      </trkpt>
      <trkpt lat="42.4569430" lon="-3.0301810">
        <ele>660.8</ele>
        <time>2022-06-27T08:48:37Z</time>
      </trkpt>
      <trkpt lat="42.4569040" lon="-3.0303440">
        <ele>660.0</ele>
        <time>2022-06-27T08:48:38Z</time>
      </trkpt>
      <trkpt lat="42.4568650" lon="-3.0305040">
        <ele>659.8</ele>
        <time>2022-06-27T08:48:39Z</time>
      </trkpt>
      <trkpt lat="42.4568250" lon="-3.0306630">
        <ele>659.6</ele>
        <time>2022-06-27T08:48:40Z</time>
      </trkpt>
      <trkpt lat="42.4567860" lon="-3.0308210">
        <ele>659.2</ele>
        <time>2022-06-27T08:48:41Z</time>
      </trkpt>
      <trkpt lat="42.4567490" lon="-3.0309780">
        <ele>658.8</ele>
        <time>2022-06-27T08:48:42Z</time>
      </trkpt>
      <trkpt lat="42.4567100" lon="-3.0311370">
        <ele>658.0</ele>
        <time>2022-06-27T08:48:43Z</time>
      </trkpt>
      <trkpt lat="42.4566730" lon="-3.0312910">
        <ele>657.8</ele>
        <time>2022-06-27T08:48:44Z</time>
      </trkpt>
      <trkpt lat="42.4566340" lon="-3.0314460">
        <ele>657.4</ele>
        <time>2022-06-27T08:48:45Z</time>
      </trkpt>
      <trkpt lat="42.4566040" lon="-3.0315670">
        <ele>657.2</ele>
        <time>2022-06-27T08:48:46Z</time>
      </trkpt>
      <trkpt lat="42.4565690" lon="-3.0317170">
        <ele>656.8</ele>
        <time>2022-06-27T08:48:47Z</time>
      </trkpt>
      <trkpt lat="42.4565280" lon="-3.0318930">
        <ele>656.6</ele>
        <time>2022-06-27T08:48:48Z</time>
      </trkpt>
      <trkpt lat="42.4564940" lon="-3.0320360">
        <ele>656.4</ele>
        <time>2022-06-27T08:48:49Z</time>
      </trkpt>
      <trkpt lat="42.4564680" lon="-3.0321500">
        <ele>656.0</ele>
        <time>2022-06-27T08:48:50Z</time>
      </trkpt>
      <trkpt lat="42.4564350" lon="-3.0322890">
        <ele>655.8</ele>
        <time>2022-06-27T08:48:51Z</time>
      </trkpt>
      <trkpt lat="42.4564020" lon="-3.0324240">
        <ele>655.8</ele>
        <time>2022-06-27T08:48:52Z</time>
      </trkpt>
      <trkpt lat="42.4563620" lon="-3.0325800">
        <ele>655.8</ele>
        <time>2022-06-27T08:48:53Z</time>
      </trkpt>
      <trkpt lat="42.4563340" lon="-3.0326800">
        <ele>655.6</ele>
        <time>2022-06-27T08:48:54Z</time>
      </trkpt>
      <trkpt lat="42.4562980" lon="-3.0328020">
        <ele>655.6</ele>
        <time>2022-06-27T08:48:55Z</time>
      </trkpt>
      <trkpt lat="42.4562610" lon="-3.0329170">
        <ele>655.6</ele>
        <time>2022-06-27T08:48:56Z</time>
      </trkpt>
      <trkpt lat="42.4562260" lon="-3.0330290">
        <ele>655.6</ele>
        <time>2022-06-27T08:48:57Z</time>
      </trkpt>
      <trkpt lat="42.4561830" lon="-3.0331600">
        <ele>655.6</ele>
        <time>2022-06-27T08:48:58Z</time>
      </trkpt>
      <trkpt lat="42.4561480" lon="-3.0332680">
        <ele>656.0</ele>
        <time>2022-06-27T08:48:59Z</time>
      </trkpt>
      <trkpt lat="42.4561110" lon="-3.0333740">
        <ele>656.0</ele>
        <time>2022-06-27T08:49:00Z</time>
      </trkpt>
      <trkpt lat="42.4560820" lon="-3.0334580">
        <ele>656.2</ele>
        <time>2022-06-27T08:49:01Z</time>
      </trkpt>
      <trkpt lat="42.4560450" lon="-3.0335610">
        <ele>656.4</ele>
        <time>2022-06-27T08:49:02Z</time>
      </trkpt>
      <trkpt lat="42.4560010" lon="-3.0336810">
        <ele>656.4</ele>
        <time>2022-06-27T08:49:03Z</time>
      </trkpt>
      <trkpt lat="42.4559660" lon="-3.0337780">
        <ele>656.6</ele>
        <time>2022-06-27T08:49:04Z</time>
      </trkpt>
      <trkpt lat="42.4559330" lon="-3.0338720">
        <ele>656.6</ele>
        <time>2022-06-27T08:49:05Z</time>
      </trkpt>
      <trkpt lat="42.4558970" lon="-3.0339650">
        <ele>656.8</ele>
        <time>2022-06-27T08:49:06Z</time>
      </trkpt>
      <trkpt lat="42.4558620" lon="-3.0340560">
        <ele>656.8</ele>
        <time>2022-06-27T08:49:07Z</time>
      </trkpt>
      <trkpt lat="42.4558290" lon="-3.0341470">
        <ele>657.0</ele>
        <time>2022-06-27T08:49:08Z</time>
      </trkpt>
      <trkpt lat="42.4557970" lon="-3.0342380">
        <ele>657.2</ele>
        <time>2022-06-27T08:49:09Z</time>
      </trkpt>
      <trkpt lat="42.4557650" lon="-3.0343260">
        <ele>657.6</ele>
        <time>2022-06-27T08:49:10Z</time>
      </trkpt>
      <trkpt lat="42.4557330" lon="-3.0344120">
        <ele>657.8</ele>
        <time>2022-06-27T08:49:11Z</time>
      </trkpt>
      <trkpt lat="42.4557000" lon="-3.0344970">
        <ele>658.2</ele>
        <time>2022-06-27T08:49:12Z</time>
      </trkpt>
      <trkpt lat="42.4556680" lon="-3.0345800">
        <ele>658.4</ele>
        <time>2022-06-27T08:49:13Z</time>
      </trkpt>
      <trkpt lat="42.4556370" lon="-3.0346640">
        <ele>658.4</ele>
        <time>2022-06-27T08:49:14Z</time>
      </trkpt>
      <trkpt lat="42.4556080" lon="-3.0347480">
        <ele>658.8</ele>
        <time>2022-06-27T08:49:15Z</time>
      </trkpt>
      <trkpt lat="42.4555790" lon="-3.0348300">
        <ele>658.8</ele>
        <time>2022-06-27T08:49:16Z</time>
      </trkpt>
      <trkpt lat="42.4555490" lon="-3.0349130">
        <ele>659.0</ele>
        <time>2022-06-27T08:49:17Z</time>
      </trkpt>
      <trkpt lat="42.4555190" lon="-3.0349910">
        <ele>659.2</ele>
        <time>2022-06-27T08:49:18Z</time>
      </trkpt>
      <trkpt lat="42.4554900" lon="-3.0350680">
        <ele>659.4</ele>
        <time>2022-06-27T08:49:19Z</time>
      </trkpt>
      <trkpt lat="42.4554600" lon="-3.0351430">
        <ele>659.8</ele>
        <time>2022-06-27T08:49:20Z</time>
      </trkpt>
      <trkpt lat="42.4554320" lon="-3.0352160">
        <ele>660.0</ele>
        <time>2022-06-27T08:49:21Z</time>
      </trkpt>
      <trkpt lat="42.4554030" lon="-3.0352900">
        <ele>660.4</ele>
        <time>2022-06-27T08:49:22Z</time>
      </trkpt>
      <trkpt lat="42.4553730" lon="-3.0353630">
        <ele>660.4</ele>
        <time>2022-06-27T08:49:23Z</time>
      </trkpt>
      <trkpt lat="42.4553420" lon="-3.0354360">
        <ele>660.8</ele>
        <time>2022-06-27T08:49:24Z</time>
      </trkpt>
      <trkpt lat="42.4553100" lon="-3.0355090">
        <ele>661.0</ele>
        <time>2022-06-27T08:49:25Z</time>
      </trkpt>
      <trkpt lat="42.4552770" lon="-3.0355830">
        <ele>661.2</ele>
        <time>2022-06-27T08:49:26Z</time>
      </trkpt>
      <trkpt lat="42.4552430" lon="-3.0356560">
        <ele>661.4</ele>
        <time>2022-06-27T08:49:27Z</time>
      </trkpt>
      <trkpt lat="42.4552070" lon="-3.0357290">
        <ele>661.4</ele>
        <time>2022-06-27T08:49:28Z</time>
      </trkpt>
      <trkpt lat="42.4551700" lon="-3.0357990">
        <ele>661.6</ele>
        <time>2022-06-27T08:49:29Z</time>
      </trkpt>
      <trkpt lat="42.4551330" lon="-3.0358690">
        <ele>661.6</ele>
        <time>2022-06-27T08:49:30Z</time>
      </trkpt>
      <trkpt lat="42.4550960" lon="-3.0359350">
        <ele>661.8</ele>
        <time>2022-06-27T08:49:31Z</time>
      </trkpt>
      <trkpt lat="42.4550570" lon="-3.0360020">
        <ele>661.8</ele>
        <time>2022-06-27T08:49:32Z</time>
      </trkpt>
      <trkpt lat="42.4550190" lon="-3.0360670">
        <ele>661.8</ele>
        <time>2022-06-27T08:49:33Z</time>
      </trkpt>
      <trkpt lat="42.4549810" lon="-3.0361310">
        <ele>661.8</ele>
        <time>2022-06-27T08:49:34Z</time>
      </trkpt>
      <trkpt lat="42.4549430" lon="-3.0361960">
        <ele>662.2</ele>
        <time>2022-06-27T08:49:35Z</time>
      </trkpt>
      <trkpt lat="42.4549040" lon="-3.0362630">
        <ele>662.4</ele>
        <time>2022-06-27T08:49:36Z</time>
      </trkpt>
      <trkpt lat="42.4548660" lon="-3.0363300">
        <ele>662.4</ele>
        <time>2022-06-27T08:49:37Z</time>
      </trkpt>
      <trkpt lat="42.4548260" lon="-3.0364010">
        <ele>662.6</ele>
        <time>2022-06-27T08:49:38Z</time>
      </trkpt>
      <trkpt lat="42.4547870" lon="-3.0364690">
        <ele>662.8</ele>
        <time>2022-06-27T08:49:39Z</time>
      </trkpt>
      <trkpt lat="42.4547500" lon="-3.0365380">
        <ele>663.0</ele>
        <time>2022-06-27T08:49:40Z</time>
      </trkpt>
      <trkpt lat="42.4547110" lon="-3.0366070">
        <ele>663.2</ele>
        <time>2022-06-27T08:49:41Z</time>
      </trkpt>
      <trkpt lat="42.4546730" lon="-3.0366760">
        <ele>663.4</ele>
        <time>2022-06-27T08:49:42Z</time>
      </trkpt>
      <trkpt lat="42.4546440" lon="-3.0367300">
        <ele>663.6</ele>
        <time>2022-06-27T08:49:43Z</time>
      </trkpt>
      <trkpt lat="42.4546060" lon="-3.0367960">
        <ele>663.6</ele>
        <time>2022-06-27T08:49:44Z</time>
      </trkpt>
      <trkpt lat="42.4545590" lon="-3.0368800">
        <ele>663.6</ele>
        <time>2022-06-27T08:49:45Z</time>
      </trkpt>
      <trkpt lat="42.4545180" lon="-3.0369510">
        <ele>663.6</ele>
        <time>2022-06-27T08:49:46Z</time>
      </trkpt>
      <trkpt lat="42.4544760" lon="-3.0370190">
        <ele>663.6</ele>
        <time>2022-06-27T08:49:47Z</time>
      </trkpt>
      <trkpt lat="42.4544430" lon="-3.0370740">
        <ele>663.8</ele>
        <time>2022-06-27T08:49:48Z</time>
      </trkpt>
      <trkpt lat="42.4544000" lon="-3.0371440">
        <ele>663.8</ele>
        <time>2022-06-27T08:49:49Z</time>
      </trkpt>
      <trkpt lat="42.4543480" lon="-3.0372300">
        <ele>664.0</ele>
        <time>2022-06-27T08:49:50Z</time>
      </trkpt>
      <trkpt lat="42.4543070" lon="-3.0373000">
        <ele>664.2</ele>
        <time>2022-06-27T08:49:51Z</time>
      </trkpt>
      <trkpt lat="42.4542660" lon="-3.0373710">
        <ele>664.2</ele>
        <time>2022-06-27T08:49:52Z</time>
      </trkpt>
      <trkpt lat="42.4542260" lon="-3.0374420">
        <ele>664.2</ele>
        <time>2022-06-27T08:49:53Z</time>
      </trkpt>
      <trkpt lat="42.4541870" lon="-3.0375140">
        <ele>664.4</ele>
        <time>2022-06-27T08:49:54Z</time>
      </trkpt>
      <trkpt lat="42.4541450" lon="-3.0375860">
        <ele>664.6</ele>
        <time>2022-06-27T08:49:55Z</time>
      </trkpt>
      <trkpt lat="42.4541060" lon="-3.0376580">
        <ele>665.0</ele>
        <time>2022-06-27T08:49:56Z</time>
      </trkpt>
      <trkpt lat="42.4540660" lon="-3.0377300">
        <ele>665.2</ele>
        <time>2022-06-27T08:49:57Z</time>
      </trkpt>
      <trkpt lat="42.4540260" lon="-3.0378020">
        <ele>665.2</ele>
        <time>2022-06-27T08:49:58Z</time>
      </trkpt>
      <trkpt lat="42.4539860" lon="-3.0378740">
        <ele>665.4</ele>
        <time>2022-06-27T08:49:59Z</time>
      </trkpt>
      <trkpt lat="42.4539450" lon="-3.0379440">
        <ele>665.4</ele>
        <time>2022-06-27T08:50:00Z</time>
      </trkpt>
      <trkpt lat="42.4539030" lon="-3.0380150">
        <ele>665.6</ele>
        <time>2022-06-27T08:50:01Z</time>
      </trkpt>
      <trkpt lat="42.4538640" lon="-3.0380860">
        <ele>665.6</ele>
        <time>2022-06-27T08:50:02Z</time>
      </trkpt>
      <trkpt lat="42.4538220" lon="-3.0381560">
        <ele>665.8</ele>
        <time>2022-06-27T08:50:03Z</time>
      </trkpt>
      <trkpt lat="42.4537830" lon="-3.0382240">
        <ele>665.8</ele>
        <time>2022-06-27T08:50:04Z</time>
      </trkpt>
      <trkpt lat="42.4537450" lon="-3.0382920">
        <ele>666.0</ele>
        <time>2022-06-27T08:50:05Z</time>
      </trkpt>
      <trkpt lat="42.4537040" lon="-3.0383610">
        <ele>666.2</ele>
        <time>2022-06-27T08:50:06Z</time>
      </trkpt>
      <trkpt lat="42.4536640" lon="-3.0384310">
        <ele>666.2</ele>
        <time>2022-06-27T08:50:07Z</time>
      </trkpt>
      <trkpt lat="42.4536250" lon="-3.0385010">
        <ele>666.4</ele>
        <time>2022-06-27T08:50:08Z</time>
      </trkpt>
      <trkpt lat="42.4535850" lon="-3.0385710">
        <ele>666.4</ele>
        <time>2022-06-27T08:50:09Z</time>
      </trkpt>
      <trkpt lat="42.4535440" lon="-3.0386400">
        <ele>666.6</ele>
        <time>2022-06-27T08:50:10Z</time>
      </trkpt>
      <trkpt lat="42.4535110" lon="-3.0386970">
        <ele>666.6</ele>
        <time>2022-06-27T08:50:11Z</time>
      </trkpt>
      <trkpt lat="42.4534690" lon="-3.0387670">
        <ele>666.8</ele>
        <time>2022-06-27T08:50:12Z</time>
      </trkpt>
      <trkpt lat="42.4534280" lon="-3.0388380">
        <ele>667.0</ele>
        <time>2022-06-27T08:50:13Z</time>
      </trkpt>
      <trkpt lat="42.4533800" lon="-3.0389230">
        <ele>667.2</ele>
        <time>2022-06-27T08:50:14Z</time>
      </trkpt>
      <trkpt lat="42.4533410" lon="-3.0389930">
        <ele>667.4</ele>
        <time>2022-06-27T08:50:15Z</time>
      </trkpt>
      <trkpt lat="42.4533090" lon="-3.0390480">
        <ele>667.4</ele>
        <time>2022-06-27T08:50:16Z</time>
      </trkpt>
      <trkpt lat="42.4532700" lon="-3.0391190">
        <ele>667.6</ele>
        <time>2022-06-27T08:50:17Z</time>
      </trkpt>
      <trkpt lat="42.4532300" lon="-3.0391890">
        <ele>667.8</ele>
        <time>2022-06-27T08:50:18Z</time>
      </trkpt>
      <trkpt lat="42.4531830" lon="-3.0392730">
        <ele>667.8</ele>
        <time>2022-06-27T08:50:19Z</time>
      </trkpt>
      <trkpt lat="42.4531440" lon="-3.0393430">
        <ele>667.8</ele>
        <time>2022-06-27T08:50:20Z</time>
      </trkpt>
      <trkpt lat="42.4531110" lon="-3.0393980">
        <ele>668.0</ele>
        <time>2022-06-27T08:50:21Z</time>
      </trkpt>
      <trkpt lat="42.4530710" lon="-3.0394680">
        <ele>668.4</ele>
        <time>2022-06-27T08:50:22Z</time>
      </trkpt>
      <trkpt lat="42.4530220" lon="-3.0395510">
        <ele>668.4</ele>
        <time>2022-06-27T08:50:23Z</time>
      </trkpt>
      <trkpt lat="42.4529830" lon="-3.0396200">
        <ele>668.6</ele>
        <time>2022-06-27T08:50:24Z</time>
      </trkpt>
      <trkpt lat="42.4529450" lon="-3.0396890">
        <ele>668.6</ele>
        <time>2022-06-27T08:50:25Z</time>
      </trkpt>
      <trkpt lat="42.4529060" lon="-3.0397560">
        <ele>668.8</ele>
        <time>2022-06-27T08:50:26Z</time>
      </trkpt>
      <trkpt lat="42.4528680" lon="-3.0398230">
        <ele>669.0</ele>
        <time>2022-06-27T08:50:27Z</time>
      </trkpt>
      <trkpt lat="42.4528280" lon="-3.0398910">
        <ele>669.0</ele>
        <time>2022-06-27T08:50:28Z</time>
      </trkpt>
      <trkpt lat="42.4527890" lon="-3.0399590">
        <ele>669.2</ele>
        <time>2022-06-27T08:50:29Z</time>
      </trkpt>
      <trkpt lat="42.4527510" lon="-3.0400240">
        <ele>669.2</ele>
        <time>2022-06-27T08:50:30Z</time>
      </trkpt>
      <trkpt lat="42.4527130" lon="-3.0400910">
        <ele>669.4</ele>
        <time>2022-06-27T08:50:31Z</time>
      </trkpt>
      <trkpt lat="42.4526760" lon="-3.0401570">
        <ele>669.6</ele>
        <time>2022-06-27T08:50:32Z</time>
      </trkpt>
      <trkpt lat="42.4526380" lon="-3.0402240">
        <ele>669.8</ele>
        <time>2022-06-27T08:50:33Z</time>
      </trkpt>
      <trkpt lat="42.4525990" lon="-3.0402900">
        <ele>669.8</ele>
        <time>2022-06-27T08:50:34Z</time>
      </trkpt>
      <trkpt lat="42.4525620" lon="-3.0403540">
        <ele>670.0</ele>
        <time>2022-06-27T08:50:35Z</time>
      </trkpt>
      <trkpt lat="42.4525240" lon="-3.0404200">
        <ele>670.0</ele>
        <time>2022-06-27T08:50:36Z</time>
      </trkpt>
      <trkpt lat="42.4524880" lon="-3.0404860">
        <ele>670.2</ele>
        <time>2022-06-27T08:50:37Z</time>
      </trkpt>
      <trkpt lat="42.4524500" lon="-3.0405500">
        <ele>670.4</ele>
        <time>2022-06-27T08:50:38Z</time>
      </trkpt>
      <trkpt lat="42.4524140" lon="-3.0406140">
        <ele>670.4</ele>
        <time>2022-06-27T08:50:39Z</time>
      </trkpt>
      <trkpt lat="42.4523760" lon="-3.0406780">
        <ele>670.6</ele>
        <time>2022-06-27T08:50:40Z</time>
      </trkpt>
      <trkpt lat="42.4523380" lon="-3.0407440">
        <ele>670.6</ele>
        <time>2022-06-27T08:50:41Z</time>
      </trkpt>
      <trkpt lat="42.4523010" lon="-3.0408080">
        <ele>670.8</ele>
        <time>2022-06-27T08:50:42Z</time>
      </trkpt>
      <trkpt lat="42.4522640" lon="-3.0408720">
        <ele>671.0</ele>
        <time>2022-06-27T08:50:43Z</time>
      </trkpt>
      <trkpt lat="42.4522260" lon="-3.0409380">
        <ele>671.2</ele>
        <time>2022-06-27T08:50:44Z</time>
      </trkpt>
      <trkpt lat="42.4521900" lon="-3.0410020">
        <ele>671.4</ele>
        <time>2022-06-27T08:50:45Z</time>
      </trkpt>
      <trkpt lat="42.4521530" lon="-3.0410670">
        <ele>671.4</ele>
        <time>2022-06-27T08:50:46Z</time>
      </trkpt>
      <trkpt lat="42.4521160" lon="-3.0411310">
        <ele>671.4</ele>
        <time>2022-06-27T08:50:47Z</time>
      </trkpt>
      <trkpt lat="42.4520800" lon="-3.0411930">
        <ele>671.6</ele>
        <time>2022-06-27T08:50:48Z</time>
      </trkpt>
      <trkpt lat="42.4520430" lon="-3.0412560">
        <ele>671.8</ele>
        <time>2022-06-27T08:50:49Z</time>
      </trkpt>
      <trkpt lat="42.4520070" lon="-3.0413200">
        <ele>672.0</ele>
        <time>2022-06-27T08:50:50Z</time>
      </trkpt>
      <trkpt lat="42.4519700" lon="-3.0413840">
        <ele>672.2</ele>
        <time>2022-06-27T08:50:51Z</time>
      </trkpt>
      <trkpt lat="42.4519340" lon="-3.0414480">
        <ele>672.2</ele>
        <time>2022-06-27T08:50:52Z</time>
      </trkpt>
      <trkpt lat="42.4518970" lon="-3.0415140">
        <ele>672.4</ele>
        <time>2022-06-27T08:50:53Z</time>
      </trkpt>
      <trkpt lat="42.4518580" lon="-3.0415800">
        <ele>672.4</ele>
        <time>2022-06-27T08:50:54Z</time>
      </trkpt>
      <trkpt lat="42.4518200" lon="-3.0416450">
        <ele>672.6</ele>
        <time>2022-06-27T08:50:55Z</time>
      </trkpt>
      <trkpt lat="42.4517820" lon="-3.0417100">
        <ele>672.6</ele>
        <time>2022-06-27T08:50:56Z</time>
      </trkpt>
      <trkpt lat="42.4517440" lon="-3.0417760">
        <ele>672.8</ele>
        <time>2022-06-27T08:50:57Z</time>
      </trkpt>
      <trkpt lat="42.4517060" lon="-3.0418430">
        <ele>673.0</ele>
        <time>2022-06-27T08:50:58Z</time>
      </trkpt>
      <trkpt lat="42.4516690" lon="-3.0419090">
        <ele>673.0</ele>
        <time>2022-06-27T08:50:59Z</time>
      </trkpt>
      <trkpt lat="42.4516310" lon="-3.0419760">
        <ele>673.0</ele>
        <time>2022-06-27T08:51:00Z</time>
      </trkpt>
      <trkpt lat="42.4515930" lon="-3.0420430">
        <ele>673.2</ele>
        <time>2022-06-27T08:51:01Z</time>
      </trkpt>
      <trkpt lat="42.4515560" lon="-3.0421080">
        <ele>673.4</ele>
        <time>2022-06-27T08:51:02Z</time>
      </trkpt>
      <trkpt lat="42.4515180" lon="-3.0421740">
        <ele>673.6</ele>
        <time>2022-06-27T08:51:03Z</time>
      </trkpt>
      <trkpt lat="42.4514780" lon="-3.0422410">
        <ele>673.6</ele>
        <time>2022-06-27T08:51:04Z</time>
      </trkpt>
      <trkpt lat="42.4514400" lon="-3.0423090">
        <ele>674.0</ele>
        <time>2022-06-27T08:51:05Z</time>
      </trkpt>
      <trkpt lat="42.4514010" lon="-3.0423770">
        <ele>674.0</ele>
        <time>2022-06-27T08:51:06Z</time>
      </trkpt>
      <trkpt lat="42.4513600" lon="-3.0424450">
        <ele>674.2</ele>
        <time>2022-06-27T08:51:07Z</time>
      </trkpt>
      <trkpt lat="42.4513210" lon="-3.0425140">
        <ele>674.4</ele>
        <time>2022-06-27T08:51:08Z</time>
      </trkpt>
      <trkpt lat="42.4512840" lon="-3.0425830">
        <ele>674.6</ele>
        <time>2022-06-27T08:51:09Z</time>
      </trkpt>
      <trkpt lat="42.4512430" lon="-3.0426510">
        <ele>674.6</ele>
        <time>2022-06-27T08:51:10Z</time>
      </trkpt>
      <trkpt lat="42.4512020" lon="-3.0427210">
        <ele>674.6</ele>
        <time>2022-06-27T08:51:11Z</time>
      </trkpt>
      <trkpt lat="42.4511610" lon="-3.0427890">
        <ele>674.8</ele>
        <time>2022-06-27T08:51:12Z</time>
      </trkpt>
      <trkpt lat="42.4511210" lon="-3.0428580">
        <ele>674.8</ele>
        <time>2022-06-27T08:51:13Z</time>
      </trkpt>
      <trkpt lat="42.4510810" lon="-3.0429270">
        <ele>675.0</ele>
        <time>2022-06-27T08:51:14Z</time>
      </trkpt>
      <trkpt lat="42.4510420" lon="-3.0429960">
        <ele>675.0</ele>
        <time>2022-06-27T08:51:15Z</time>
      </trkpt>
      <trkpt lat="42.4510030" lon="-3.0430650">
        <ele>675.2</ele>
        <time>2022-06-27T08:51:16Z</time>
      </trkpt>
      <trkpt lat="42.4509650" lon="-3.0431320">
        <ele>675.2</ele>
        <time>2022-06-27T08:51:17Z</time>
      </trkpt>
      <trkpt lat="42.4509270" lon="-3.0431990">
        <ele>675.4</ele>
        <time>2022-06-27T08:51:18Z</time>
      </trkpt>
      <trkpt lat="42.4508870" lon="-3.0432680">
        <ele>675.8</ele>
        <time>2022-06-27T08:51:19Z</time>
      </trkpt>
      <trkpt lat="42.4508480" lon="-3.0433370">
        <ele>675.8</ele>
        <time>2022-06-27T08:51:20Z</time>
      </trkpt>
      <trkpt lat="42.4508090" lon="-3.0434070">
        <ele>676.0</ele>
        <time>2022-06-27T08:51:21Z</time>
      </trkpt>
      <trkpt lat="42.4507690" lon="-3.0434760">
        <ele>676.0</ele>
        <time>2022-06-27T08:51:22Z</time>
      </trkpt>
      <trkpt lat="42.4507280" lon="-3.0435450">
        <ele>676.2</ele>
        <time>2022-06-27T08:51:23Z</time>
      </trkpt>
      <trkpt lat="42.4506880" lon="-3.0436130">
        <ele>676.2</ele>
        <time>2022-06-27T08:51:24Z</time>
      </trkpt>
      <trkpt lat="42.4506480" lon="-3.0436820">
        <ele>676.4</ele>
        <time>2022-06-27T08:51:25Z</time>
      </trkpt>
      <trkpt lat="42.4506100" lon="-3.0437490">
        <ele>676.8</ele>
        <time>2022-06-27T08:51:26Z</time>
      </trkpt>
      <trkpt lat="42.4505700" lon="-3.0438170">
        <ele>676.8</ele>
        <time>2022-06-27T08:51:27Z</time>
      </trkpt>
      <trkpt lat="42.4505280" lon="-3.0438880">
        <ele>677.0</ele>
        <time>2022-06-27T08:51:28Z</time>
      </trkpt>
      <trkpt lat="42.4504880" lon="-3.0439590">
        <ele>677.0</ele>
        <time>2022-06-27T08:51:29Z</time>
      </trkpt>
      <trkpt lat="42.4504480" lon="-3.0440300">
        <ele>677.2</ele>
        <time>2022-06-27T08:51:30Z</time>
      </trkpt>
      <trkpt lat="42.4504080" lon="-3.0441020">
        <ele>677.2</ele>
        <time>2022-06-27T08:51:31Z</time>
      </trkpt>
      <trkpt lat="42.4503680" lon="-3.0441730">
        <ele>677.4</ele>
        <time>2022-06-27T08:51:32Z</time>
      </trkpt>
      <trkpt lat="42.4503290" lon="-3.0442420">
        <ele>677.6</ele>
        <time>2022-06-27T08:51:33Z</time>
      </trkpt>
      <trkpt lat="42.4502870" lon="-3.0443140">
        <ele>677.6</ele>
        <time>2022-06-27T08:51:34Z</time>
      </trkpt>
      <trkpt lat="42.4502450" lon="-3.0443860">
        <ele>677.8</ele>
        <time>2022-06-27T08:51:35Z</time>
      </trkpt>
      <trkpt lat="42.4502060" lon="-3.0444570">
        <ele>678.0</ele>
        <time>2022-06-27T08:51:36Z</time>
      </trkpt>
      <trkpt lat="42.4501670" lon="-3.0445270">
        <ele>678.2</ele>
        <time>2022-06-27T08:51:37Z</time>
      </trkpt>
      <trkpt lat="42.4501270" lon="-3.0445970">
        <ele>678.4</ele>
        <time>2022-06-27T08:51:38Z</time>
      </trkpt>
      <trkpt lat="42.4500850" lon="-3.0446690">
        <ele>678.4</ele>
        <time>2022-06-27T08:51:39Z</time>
      </trkpt>
      <trkpt lat="42.4500440" lon="-3.0447410">
        <ele>678.6</ele>
        <time>2022-06-27T08:51:40Z</time>
      </trkpt>
      <trkpt lat="42.4500010" lon="-3.0448130">
        <ele>678.8</ele>
        <time>2022-06-27T08:51:41Z</time>
      </trkpt>
      <trkpt lat="42.4499610" lon="-3.0448840">
        <ele>678.8</ele>
        <time>2022-06-27T08:51:42Z</time>
      </trkpt>
      <trkpt lat="42.4499200" lon="-3.0449550">
        <ele>679.0</ele>
        <time>2022-06-27T08:51:43Z</time>
      </trkpt>
      <trkpt lat="42.4498790" lon="-3.0450250">
        <ele>679.2</ele>
        <time>2022-06-27T08:51:44Z</time>
      </trkpt>
      <trkpt lat="42.4498390" lon="-3.0450930">
        <ele>679.4</ele>
        <time>2022-06-27T08:51:45Z</time>
      </trkpt>
      <trkpt lat="42.4497970" lon="-3.0451650">
        <ele>679.6</ele>
        <time>2022-06-27T08:51:46Z</time>
      </trkpt>
      <trkpt lat="42.4497550" lon="-3.0452370">
        <ele>679.8</ele>
        <time>2022-06-27T08:51:47Z</time>
      </trkpt>
      <trkpt lat="42.4497140" lon="-3.0453080">
        <ele>679.8</ele>
        <time>2022-06-27T08:51:48Z</time>
      </trkpt>
      <trkpt lat="42.4496740" lon="-3.0453770">
        <ele>680.0</ele>
        <time>2022-06-27T08:51:49Z</time>
      </trkpt>
      <trkpt lat="42.4496330" lon="-3.0454480">
        <ele>680.2</ele>
        <time>2022-06-27T08:51:50Z</time>
      </trkpt>
      <trkpt lat="42.4495930" lon="-3.0455150">
        <ele>680.4</ele>
        <time>2022-06-27T08:51:51Z</time>
      </trkpt>
      <trkpt lat="42.4495520" lon="-3.0455840">
        <ele>680.4</ele>
        <time>2022-06-27T08:51:52Z</time>
      </trkpt>
      <trkpt lat="42.4495130" lon="-3.0456540">
        <ele>680.6</ele>
        <time>2022-06-27T08:51:53Z</time>
      </trkpt>
      <trkpt lat="42.4494730" lon="-3.0457240">
        <ele>680.6</ele>
        <time>2022-06-27T08:51:54Z</time>
      </trkpt>
      <trkpt lat="42.4494330" lon="-3.0457950">
        <ele>680.8</ele>
        <time>2022-06-27T08:51:55Z</time>
      </trkpt>
      <trkpt lat="42.4493910" lon="-3.0458650">
        <ele>681.0</ele>
        <time>2022-06-27T08:51:56Z</time>
      </trkpt>
      <trkpt lat="42.4493490" lon="-3.0459360">
        <ele>681.2</ele>
        <time>2022-06-27T08:51:57Z</time>
      </trkpt>
      <trkpt lat="42.4493080" lon="-3.0460070">
        <ele>681.4</ele>
        <time>2022-06-27T08:51:58Z</time>
      </trkpt>
      <trkpt lat="42.4492670" lon="-3.0460750">
        <ele>681.4</ele>
        <time>2022-06-27T08:51:59Z</time>
      </trkpt>
      <trkpt lat="42.4492260" lon="-3.0461430">
        <ele>681.6</ele>
        <time>2022-06-27T08:52:00Z</time>
      </trkpt>
      <trkpt lat="42.4491850" lon="-3.0462120">
        <ele>681.6</ele>
        <time>2022-06-27T08:52:01Z</time>
      </trkpt>
      <trkpt lat="42.4491440" lon="-3.0462820">
        <ele>681.8</ele>
        <time>2022-06-27T08:52:02Z</time>
      </trkpt>
      <trkpt lat="42.4491040" lon="-3.0463540">
        <ele>682.0</ele>
        <time>2022-06-27T08:52:03Z</time>
      </trkpt>
      <trkpt lat="42.4490640" lon="-3.0464260">
        <ele>682.2</ele>
        <time>2022-06-27T08:52:04Z</time>
      </trkpt>
      <trkpt lat="42.4490230" lon="-3.0464970">
        <ele>682.4</ele>
        <time>2022-06-27T08:52:05Z</time>
      </trkpt>
      <trkpt lat="42.4489820" lon="-3.0465670">
        <ele>682.6</ele>
        <time>2022-06-27T08:52:06Z</time>
      </trkpt>
      <trkpt lat="42.4489400" lon="-3.0466390">
        <ele>682.8</ele>
        <time>2022-06-27T08:52:07Z</time>
      </trkpt>
      <trkpt lat="42.4488970" lon="-3.0467120">
        <ele>682.8</ele>
        <time>2022-06-27T08:52:08Z</time>
      </trkpt>
      <trkpt lat="42.4488550" lon="-3.0467860">
        <ele>683.0</ele>
        <time>2022-06-27T08:52:09Z</time>
      </trkpt>
      <trkpt lat="42.4488140" lon="-3.0468570">
        <ele>683.2</ele>
        <time>2022-06-27T08:52:10Z</time>
      </trkpt>
      <trkpt lat="42.4487730" lon="-3.0469300">
        <ele>683.2</ele>
        <time>2022-06-27T08:52:11Z</time>
      </trkpt>
      <trkpt lat="42.4487320" lon="-3.0470010">
        <ele>683.4</ele>
        <time>2022-06-27T08:52:12Z</time>
      </trkpt>
      <trkpt lat="42.4486900" lon="-3.0470730">
        <ele>683.4</ele>
        <time>2022-06-27T08:52:13Z</time>
      </trkpt>
      <trkpt lat="42.4486500" lon="-3.0471420">
        <ele>683.4</ele>
        <time>2022-06-27T08:52:14Z</time>
      </trkpt>
      <trkpt lat="42.4486110" lon="-3.0472110">
        <ele>683.6</ele>
        <time>2022-06-27T08:52:15Z</time>
      </trkpt>
      <trkpt lat="42.4485710" lon="-3.0472810">
        <ele>683.8</ele>
        <time>2022-06-27T08:52:16Z</time>
      </trkpt>
      <trkpt lat="42.4485320" lon="-3.0473480">
        <ele>683.8</ele>
        <time>2022-06-27T08:52:17Z</time>
      </trkpt>
      <trkpt lat="42.4484920" lon="-3.0474160">
        <ele>684.0</ele>
        <time>2022-06-27T08:52:18Z</time>
      </trkpt>
      <trkpt lat="42.4484540" lon="-3.0474830">
        <ele>684.2</ele>
        <time>2022-06-27T08:52:19Z</time>
      </trkpt>
      <trkpt lat="42.4484160" lon="-3.0475490">
        <ele>684.2</ele>
        <time>2022-06-27T08:52:20Z</time>
      </trkpt>
      <trkpt lat="42.4483770" lon="-3.0476160">
        <ele>684.4</ele>
        <time>2022-06-27T08:52:21Z</time>
      </trkpt>
      <trkpt lat="42.4483380" lon="-3.0476830">
        <ele>684.4</ele>
        <time>2022-06-27T08:52:22Z</time>
      </trkpt>
      <trkpt lat="42.4483010" lon="-3.0477500">
        <ele>684.6</ele>
        <time>2022-06-27T08:52:23Z</time>
      </trkpt>
      <trkpt lat="42.4482630" lon="-3.0478170">
        <ele>684.8</ele>
        <time>2022-06-27T08:52:24Z</time>
      </trkpt>
      <trkpt lat="42.4482240" lon="-3.0478840">
        <ele>685.2</ele>
        <time>2022-06-27T08:52:25Z</time>
      </trkpt>
      <trkpt lat="42.4481830" lon="-3.0479510">
        <ele>685.2</ele>
        <time>2022-06-27T08:52:26Z</time>
      </trkpt>
      <trkpt lat="42.4481440" lon="-3.0480180">
        <ele>685.6</ele>
        <time>2022-06-27T08:52:27Z</time>
      </trkpt>
      <trkpt lat="42.4481050" lon="-3.0480850">
        <ele>685.6</ele>
        <time>2022-06-27T08:52:28Z</time>
      </trkpt>
      <trkpt lat="42.4480650" lon="-3.0481500">
        <ele>685.6</ele>
        <time>2022-06-27T08:52:29Z</time>
      </trkpt>
      <trkpt lat="42.4480240" lon="-3.0482140">
        <ele>685.8</ele>
        <time>2022-06-27T08:52:30Z</time>
      </trkpt>
      <trkpt lat="42.4479820" lon="-3.0482760">
        <ele>685.8</ele>
        <time>2022-06-27T08:52:31Z</time>
      </trkpt>
      <trkpt lat="42.4479400" lon="-3.0483390">
        <ele>686.0</ele>
        <time>2022-06-27T08:52:32Z</time>
      </trkpt>
      <trkpt lat="42.4478980" lon="-3.0484000">
        <ele>686.2</ele>
        <time>2022-06-27T08:52:33Z</time>
      </trkpt>
      <trkpt lat="42.4478550" lon="-3.0484600">
        <ele>686.4</ele>
        <time>2022-06-27T08:52:34Z</time>
      </trkpt>
      <trkpt lat="42.4478100" lon="-3.0485210">
        <ele>687.0</ele>
        <time>2022-06-27T08:52:35Z</time>
      </trkpt>
      <trkpt lat="42.4477630" lon="-3.0485800">
        <ele>687.0</ele>
        <time>2022-06-27T08:52:36Z</time>
      </trkpt>
      <trkpt lat="42.4477170" lon="-3.0486400">
        <ele>687.4</ele>
        <time>2022-06-27T08:52:37Z</time>
      </trkpt>
      <trkpt lat="42.4476730" lon="-3.0486990">
        <ele>687.4</ele>
        <time>2022-06-27T08:52:38Z</time>
      </trkpt>
      <trkpt lat="42.4476290" lon="-3.0487600">
        <ele>687.6</ele>
        <time>2022-06-27T08:52:39Z</time>
      </trkpt>
      <trkpt lat="42.4475840" lon="-3.0488200">
        <ele>687.6</ele>
        <time>2022-06-27T08:52:40Z</time>
      </trkpt>
      <trkpt lat="42.4475390" lon="-3.0488810">
        <ele>687.8</ele>
        <time>2022-06-27T08:52:41Z</time>
      </trkpt>
      <trkpt lat="42.4474930" lon="-3.0489430">
        <ele>687.8</ele>
        <time>2022-06-27T08:52:42Z</time>
      </trkpt>
      <trkpt lat="42.4474570" lon="-3.0489920">
        <ele>687.8</ele>
        <time>2022-06-27T08:52:43Z</time>
      </trkpt>
      <trkpt lat="42.4474030" lon="-3.0490640">
        <ele>688.0</ele>
        <time>2022-06-27T08:52:44Z</time>
      </trkpt>
      <trkpt lat="42.4473570" lon="-3.0491240">
        <ele>688.0</ele>
        <time>2022-06-27T08:52:45Z</time>
      </trkpt>
      <trkpt lat="42.4473120" lon="-3.0491850">
        <ele>688.2</ele>
        <time>2022-06-27T08:52:46Z</time>
      </trkpt>
      <trkpt lat="42.4472750" lon="-3.0492340">
        <ele>688.4</ele>
        <time>2022-06-27T08:52:47Z</time>
      </trkpt>
      <trkpt lat="42.4472300" lon="-3.0492940">
        <ele>688.6</ele>
        <time>2022-06-27T08:52:48Z</time>
      </trkpt>
      <trkpt lat="42.4471790" lon="-3.0493640">
        <ele>688.6</ele>
        <time>2022-06-27T08:52:49Z</time>
      </trkpt>
      <trkpt lat="42.4471360" lon="-3.0494220">
        <ele>688.8</ele>
        <time>2022-06-27T08:52:50Z</time>
      </trkpt>
      <trkpt lat="42.4470890" lon="-3.0494810">
        <ele>688.8</ele>
        <time>2022-06-27T08:52:51Z</time>
      </trkpt>
      <trkpt lat="42.4470520" lon="-3.0495270">
        <ele>688.8</ele>
        <time>2022-06-27T08:52:52Z</time>
      </trkpt>
      <trkpt lat="42.4470070" lon="-3.0495860">
        <ele>689.0</ele>
        <time>2022-06-27T08:52:53Z</time>
      </trkpt>
      <trkpt lat="42.4469630" lon="-3.0496460">
        <ele>689.0</ele>
        <time>2022-06-27T08:52:54Z</time>
      </trkpt>
      <trkpt lat="42.4469110" lon="-3.0497160">
        <ele>689.2</ele>
        <time>2022-06-27T08:52:55Z</time>
      </trkpt>
      <trkpt lat="42.4468680" lon="-3.0497760">
        <ele>689.4</ele>
        <time>2022-06-27T08:52:56Z</time>
      </trkpt>
      <trkpt lat="42.4468250" lon="-3.0498360">
        <ele>689.6</ele>
        <time>2022-06-27T08:52:57Z</time>
      </trkpt>
      <trkpt lat="42.4467900" lon="-3.0498830">
        <ele>689.8</ele>
        <time>2022-06-27T08:52:58Z</time>
      </trkpt>
      <trkpt lat="42.4467450" lon="-3.0499410">
        <ele>690.0</ele>
        <time>2022-06-27T08:52:59Z</time>
      </trkpt>
      <trkpt lat="42.4466910" lon="-3.0500120">
        <ele>690.2</ele>
        <time>2022-06-27T08:53:00Z</time>
      </trkpt>
      <trkpt lat="42.4466460" lon="-3.0500690">
        <ele>690.2</ele>
        <time>2022-06-27T08:53:01Z</time>
      </trkpt>
      <trkpt lat="42.4466030" lon="-3.0501270">
        <ele>690.4</ele>
        <time>2022-06-27T08:53:02Z</time>
      </trkpt>
      <trkpt lat="42.4465700" lon="-3.0501730">
        <ele>690.6</ele>
        <time>2022-06-27T08:53:03Z</time>
      </trkpt>
      <trkpt lat="42.4465270" lon="-3.0502340">
        <ele>690.6</ele>
        <time>2022-06-27T08:53:04Z</time>
      </trkpt>
      <trkpt lat="42.4464710" lon="-3.0503070">
        <ele>690.8</ele>
        <time>2022-06-27T08:53:05Z</time>
      </trkpt>
      <trkpt lat="42.4464240" lon="-3.0503700">
        <ele>690.8</ele>
        <time>2022-06-27T08:53:06Z</time>
      </trkpt>
      <trkpt lat="42.4463770" lon="-3.0504330">
        <ele>691.0</ele>
        <time>2022-06-27T08:53:07Z</time>
      </trkpt>
      <trkpt lat="42.4463390" lon="-3.0504830">
        <ele>691.2</ele>
        <time>2022-06-27T08:53:08Z</time>
      </trkpt>
      <trkpt lat="42.4462930" lon="-3.0505420">
        <ele>691.2</ele>
        <time>2022-06-27T08:53:09Z</time>
      </trkpt>
      <trkpt lat="42.4462470" lon="-3.0506040">
        <ele>691.4</ele>
        <time>2022-06-27T08:53:10Z</time>
      </trkpt>
      <trkpt lat="42.4461930" lon="-3.0506770">
        <ele>691.8</ele>
        <time>2022-06-27T08:53:11Z</time>
      </trkpt>
      <trkpt lat="42.4461480" lon="-3.0507350">
        <ele>691.8</ele>
        <time>2022-06-27T08:53:12Z</time>
      </trkpt>
      <trkpt lat="42.4461030" lon="-3.0507950">
        <ele>692.0</ele>
        <time>2022-06-27T08:53:13Z</time>
      </trkpt>
      <trkpt lat="42.4460670" lon="-3.0508420">
        <ele>692.2</ele>
        <time>2022-06-27T08:53:14Z</time>
      </trkpt>
      <trkpt lat="42.4460220" lon="-3.0509000">
        <ele>692.4</ele>
        <time>2022-06-27T08:53:15Z</time>
      </trkpt>
      <trkpt lat="42.4459710" lon="-3.0509700">
        <ele>692.6</ele>
        <time>2022-06-27T08:53:16Z</time>
      </trkpt>
      <trkpt lat="42.4459280" lon="-3.0510280">
        <ele>692.6</ele>
        <time>2022-06-27T08:53:17Z</time>
      </trkpt>
      <trkpt lat="42.4458860" lon="-3.0510840">
        <ele>693.0</ele>
        <time>2022-06-27T08:53:18Z</time>
      </trkpt>
      <trkpt lat="42.4458540" lon="-3.0511290">
        <ele>693.2</ele>
        <time>2022-06-27T08:53:19Z</time>
      </trkpt>
      <trkpt lat="42.4458130" lon="-3.0511870">
        <ele>693.4</ele>
        <time>2022-06-27T08:53:20Z</time>
      </trkpt>
      <trkpt lat="42.4457720" lon="-3.0512440">
        <ele>693.6</ele>
        <time>2022-06-27T08:53:21Z</time>
      </trkpt>
      <trkpt lat="42.4457220" lon="-3.0513120">
        <ele>693.6</ele>
        <time>2022-06-27T08:53:22Z</time>
      </trkpt>
      <trkpt lat="42.4456790" lon="-3.0513690">
        <ele>694.0</ele>
        <time>2022-06-27T08:53:23Z</time>
      </trkpt>
      <trkpt lat="42.4456440" lon="-3.0514150">
        <ele>693.8</ele>
        <time>2022-06-27T08:53:24Z</time>
      </trkpt>
      <trkpt lat="42.4456000" lon="-3.0514730">
        <ele>694.0</ele>
        <time>2022-06-27T08:53:25Z</time>
      </trkpt>
      <trkpt lat="42.4455480" lon="-3.0515420">
        <ele>694.2</ele>
        <time>2022-06-27T08:53:26Z</time>
      </trkpt>
      <trkpt lat="42.4455060" lon="-3.0515990">
        <ele>694.2</ele>
        <time>2022-06-27T08:53:27Z</time>
      </trkpt>
      <trkpt lat="42.4454640" lon="-3.0516590">
        <ele>694.4</ele>
        <time>2022-06-27T08:53:28Z</time>
      </trkpt>
      <trkpt lat="42.4454300" lon="-3.0517060">
        <ele>694.6</ele>
        <time>2022-06-27T08:53:29Z</time>
      </trkpt>
      <trkpt lat="42.4453880" lon="-3.0517640">
        <ele>694.8</ele>
        <time>2022-06-27T08:53:30Z</time>
      </trkpt>
      <trkpt lat="42.4453380" lon="-3.0518320">
        <ele>694.8</ele>
        <time>2022-06-27T08:53:31Z</time>
      </trkpt>
      <trkpt lat="42.4453020" lon="-3.0518800">
        <ele>694.8</ele>
        <time>2022-06-27T08:53:32Z</time>
      </trkpt>
      <trkpt lat="42.4452510" lon="-3.0519460">
        <ele>694.8</ele>
        <time>2022-06-27T08:53:33Z</time>
      </trkpt>
      <trkpt lat="42.4452150" lon="-3.0519910">
        <ele>694.8</ele>
        <time>2022-06-27T08:53:34Z</time>
      </trkpt>
      <trkpt lat="42.4451720" lon="-3.0520490">
        <ele>695.0</ele>
        <time>2022-06-27T08:53:35Z</time>
      </trkpt>
      <trkpt lat="42.4451200" lon="-3.0521190">
        <ele>695.2</ele>
        <time>2022-06-27T08:53:36Z</time>
      </trkpt>
      <trkpt lat="42.4450790" lon="-3.0521760">
        <ele>695.2</ele>
        <time>2022-06-27T08:53:37Z</time>
      </trkpt>
      <trkpt lat="42.4450390" lon="-3.0522350">
        <ele>695.4</ele>
        <time>2022-06-27T08:53:38Z</time>
      </trkpt>
      <trkpt lat="42.4450060" lon="-3.0522800">
        <ele>695.6</ele>
        <time>2022-06-27T08:53:39Z</time>
      </trkpt>
      <trkpt lat="42.4449650" lon="-3.0523360">
        <ele>695.8</ele>
        <time>2022-06-27T08:53:40Z</time>
      </trkpt>
      <trkpt lat="42.4449160" lon="-3.0524000">
        <ele>696.0</ele>
        <time>2022-06-27T08:53:41Z</time>
      </trkpt>
      <trkpt lat="42.4448750" lon="-3.0524540">
        <ele>696.2</ele>
        <time>2022-06-27T08:53:42Z</time>
      </trkpt>
      <trkpt lat="42.4448320" lon="-3.0525090">
        <ele>696.4</ele>
        <time>2022-06-27T08:53:43Z</time>
      </trkpt>
      <trkpt lat="42.4447980" lon="-3.0525520">
        <ele>696.8</ele>
        <time>2022-06-27T08:53:44Z</time>
      </trkpt>
      <trkpt lat="42.4447540" lon="-3.0526100">
        <ele>696.8</ele>
        <time>2022-06-27T08:53:45Z</time>
      </trkpt>
      <trkpt lat="42.4447020" lon="-3.0526770">
        <ele>697.0</ele>
        <time>2022-06-27T08:53:46Z</time>
      </trkpt>
      <trkpt lat="42.4446610" lon="-3.0527350">
        <ele>697.2</ele>
        <time>2022-06-27T08:53:47Z</time>
      </trkpt>
      <trkpt lat="42.4446180" lon="-3.0527920">
        <ele>697.2</ele>
        <time>2022-06-27T08:53:48Z</time>
      </trkpt>
      <trkpt lat="42.4445850" lon="-3.0528340">
        <ele>697.4</ele>
        <time>2022-06-27T08:53:49Z</time>
      </trkpt>
      <trkpt lat="42.4445410" lon="-3.0528900">
        <ele>697.6</ele>
        <time>2022-06-27T08:53:50Z</time>
      </trkpt>
      <trkpt lat="42.4444900" lon="-3.0529590">
        <ele>697.6</ele>
        <time>2022-06-27T08:53:51Z</time>
      </trkpt>
      <trkpt lat="42.4444480" lon="-3.0530180">
        <ele>697.8</ele>
        <time>2022-06-27T08:53:52Z</time>
      </trkpt>
      <trkpt lat="42.4444140" lon="-3.0530640">
        <ele>698.0</ele>
        <time>2022-06-27T08:53:53Z</time>
      </trkpt>
      <trkpt lat="42.4443710" lon="-3.0531220">
        <ele>698.2</ele>
        <time>2022-06-27T08:53:54Z</time>
      </trkpt>
      <trkpt lat="42.4443280" lon="-3.0531800">
        <ele>698.4</ele>
        <time>2022-06-27T08:53:55Z</time>
      </trkpt>
      <trkpt lat="42.4442850" lon="-3.0532390">
        <ele>698.6</ele>
        <time>2022-06-27T08:53:56Z</time>
      </trkpt>
      <trkpt lat="42.4442330" lon="-3.0533090">
        <ele>698.8</ele>
        <time>2022-06-27T08:53:57Z</time>
      </trkpt>
      <trkpt lat="42.4441970" lon="-3.0533550">
        <ele>699.0</ele>
        <time>2022-06-27T08:53:58Z</time>
      </trkpt>
      <trkpt lat="42.4441540" lon="-3.0534130">
        <ele>699.0</ele>
        <time>2022-06-27T08:53:59Z</time>
      </trkpt>
      <trkpt lat="42.4441110" lon="-3.0534700">
        <ele>699.2</ele>
        <time>2022-06-27T08:54:00Z</time>
      </trkpt>
      <trkpt lat="42.4440680" lon="-3.0535260">
        <ele>699.2</ele>
        <time>2022-06-27T08:54:01Z</time>
      </trkpt>
      <trkpt lat="42.4440250" lon="-3.0535830">
        <ele>699.4</ele>
        <time>2022-06-27T08:54:02Z</time>
      </trkpt>
      <trkpt lat="42.4439820" lon="-3.0536400">
        <ele>699.4</ele>
        <time>2022-06-27T08:54:03Z</time>
      </trkpt>
      <trkpt lat="42.4439400" lon="-3.0536960">
        <ele>699.8</ele>
        <time>2022-06-27T08:54:04Z</time>
      </trkpt>
      <trkpt lat="42.4438980" lon="-3.0537530">
        <ele>699.8</ele>
        <time>2022-06-27T08:54:05Z</time>
      </trkpt>
      <trkpt lat="42.4438580" lon="-3.0538110">
        <ele>700.0</ele>
        <time>2022-06-27T08:54:06Z</time>
      </trkpt>
      <trkpt lat="42.4438060" lon="-3.0538810">
        <ele>700.2</ele>
        <time>2022-06-27T08:54:07Z</time>
      </trkpt>
      <trkpt lat="42.4437690" lon="-3.0539250">
        <ele>700.2</ele>
        <time>2022-06-27T08:54:08Z</time>
      </trkpt>
      <trkpt lat="42.4437250" lon="-3.0539800">
        <ele>700.4</ele>
        <time>2022-06-27T08:54:09Z</time>
      </trkpt>
      <trkpt lat="42.4436750" lon="-3.0540490">
        <ele>700.4</ele>
        <time>2022-06-27T08:54:10Z</time>
      </trkpt>
      <trkpt lat="42.4436330" lon="-3.0541050">
        <ele>700.6</ele>
        <time>2022-06-27T08:54:11Z</time>
      </trkpt>
      <trkpt lat="42.4435890" lon="-3.0541630">
        <ele>700.8</ele>
        <time>2022-06-27T08:54:12Z</time>
      </trkpt>
      <trkpt lat="42.4435540" lon="-3.0542110">
        <ele>700.8</ele>
        <time>2022-06-27T08:54:13Z</time>
      </trkpt>
      <trkpt lat="42.4435090" lon="-3.0542730">
        <ele>701.2</ele>
        <time>2022-06-27T08:54:14Z</time>
      </trkpt>
      <trkpt lat="42.4434560" lon="-3.0543450">
        <ele>701.2</ele>
        <time>2022-06-27T08:54:15Z</time>
      </trkpt>
      <trkpt lat="42.4434110" lon="-3.0544050">
        <ele>701.4</ele>
        <time>2022-06-27T08:54:16Z</time>
      </trkpt>
      <trkpt lat="42.4433660" lon="-3.0544630">
        <ele>701.4</ele>
        <time>2022-06-27T08:54:17Z</time>
      </trkpt>
      <trkpt lat="42.4433310" lon="-3.0545100">
        <ele>701.6</ele>
        <time>2022-06-27T08:54:18Z</time>
      </trkpt>
      <trkpt lat="42.4432860" lon="-3.0545700">
        <ele>701.6</ele>
        <time>2022-06-27T08:54:19Z</time>
      </trkpt>
      <trkpt lat="42.4432430" lon="-3.0546290">
        <ele>701.6</ele>
        <time>2022-06-27T08:54:20Z</time>
      </trkpt>
      <trkpt lat="42.4431910" lon="-3.0547000">
        <ele>701.8</ele>
        <time>2022-06-27T08:54:21Z</time>
      </trkpt>
      <trkpt lat="42.4431570" lon="-3.0547470">
        <ele>701.8</ele>
        <time>2022-06-27T08:54:22Z</time>
      </trkpt>
      <trkpt lat="42.4431140" lon="-3.0548050">
        <ele>702.2</ele>
        <time>2022-06-27T08:54:23Z</time>
      </trkpt>
      <trkpt lat="42.4430700" lon="-3.0548630">
        <ele>702.4</ele>
        <time>2022-06-27T08:54:24Z</time>
      </trkpt>
      <trkpt lat="42.4430180" lon="-3.0549320">
        <ele>702.8</ele>
        <time>2022-06-27T08:54:25Z</time>
      </trkpt>
      <trkpt lat="42.4429740" lon="-3.0549900">
        <ele>703.0</ele>
        <time>2022-06-27T08:54:26Z</time>
      </trkpt>
      <trkpt lat="42.4429380" lon="-3.0550370">
        <ele>703.2</ele>
        <time>2022-06-27T08:54:27Z</time>
      </trkpt>
      <trkpt lat="42.4428930" lon="-3.0550990">
        <ele>703.4</ele>
        <time>2022-06-27T08:54:28Z</time>
      </trkpt>
      <trkpt lat="42.4428480" lon="-3.0551590">
        <ele>703.6</ele>
        <time>2022-06-27T08:54:29Z</time>
      </trkpt>
      <trkpt lat="42.4428040" lon="-3.0552210">
        <ele>703.8</ele>
        <time>2022-06-27T08:54:30Z</time>
      </trkpt>
      <trkpt lat="42.4427520" lon="-3.0552920">
        <ele>704.0</ele>
        <time>2022-06-27T08:54:31Z</time>
      </trkpt>
      <trkpt lat="42.4427170" lon="-3.0553400">
        <ele>704.2</ele>
        <time>2022-06-27T08:54:32Z</time>
      </trkpt>
      <trkpt lat="42.4426710" lon="-3.0554010">
        <ele>704.2</ele>
        <time>2022-06-27T08:54:33Z</time>
      </trkpt>
      <trkpt lat="42.4426170" lon="-3.0554740">
        <ele>704.6</ele>
        <time>2022-06-27T08:54:34Z</time>
      </trkpt>
      <trkpt lat="42.4425700" lon="-3.0555340">
        <ele>704.6</ele>
        <time>2022-06-27T08:54:35Z</time>
      </trkpt>
      <trkpt lat="42.4425230" lon="-3.0555960">
        <ele>704.8</ele>
        <time>2022-06-27T08:54:36Z</time>
      </trkpt>
      <trkpt lat="42.4424780" lon="-3.0556600">
        <ele>705.0</ele>
        <time>2022-06-27T08:54:37Z</time>
      </trkpt>
      <trkpt lat="42.4424330" lon="-3.0557230">
        <ele>705.2</ele>
        <time>2022-06-27T08:54:38Z</time>
      </trkpt>
      <trkpt lat="42.4423880" lon="-3.0557850">
        <ele>705.4</ele>
        <time>2022-06-27T08:54:39Z</time>
      </trkpt>
      <trkpt lat="42.4423420" lon="-3.0558460">
        <ele>705.6</ele>
        <time>2022-06-27T08:54:40Z</time>
      </trkpt>
      <trkpt lat="42.4422980" lon="-3.0559050">
        <ele>705.8</ele>
        <time>2022-06-27T08:54:41Z</time>
      </trkpt>
      <trkpt lat="42.4422530" lon="-3.0559640">
        <ele>706.0</ele>
        <time>2022-06-27T08:54:42Z</time>
      </trkpt>
      <trkpt lat="42.4422090" lon="-3.0560230">
        <ele>706.2</ele>
        <time>2022-06-27T08:54:43Z</time>
      </trkpt>
      <trkpt lat="42.4421650" lon="-3.0560820">
        <ele>706.4</ele>
        <time>2022-06-27T08:54:44Z</time>
      </trkpt>
      <trkpt lat="42.4421200" lon="-3.0561420">
        <ele>706.4</ele>
        <time>2022-06-27T08:54:45Z</time>
      </trkpt>
      <trkpt lat="42.4420760" lon="-3.0562030">
        <ele>706.6</ele>
        <time>2022-06-27T08:54:46Z</time>
      </trkpt>
      <trkpt lat="42.4420310" lon="-3.0562630">
        <ele>706.6</ele>
        <time>2022-06-27T08:54:47Z</time>
      </trkpt>
      <trkpt lat="42.4419850" lon="-3.0563230">
        <ele>707.0</ele>
        <time>2022-06-27T08:54:48Z</time>
      </trkpt>
      <trkpt lat="42.4419400" lon="-3.0563840">
        <ele>707.0</ele>
        <time>2022-06-27T08:54:49Z</time>
      </trkpt>
      <trkpt lat="42.4418940" lon="-3.0564460">
        <ele>707.2</ele>
        <time>2022-06-27T08:54:50Z</time>
      </trkpt>
      <trkpt lat="42.4418500" lon="-3.0565080">
        <ele>707.2</ele>
        <time>2022-06-27T08:54:51Z</time>
      </trkpt>
      <trkpt lat="42.4418040" lon="-3.0565690">
        <ele>707.6</ele>
        <time>2022-06-27T08:54:52Z</time>
      </trkpt>
      <trkpt lat="42.4417590" lon="-3.0566310">
        <ele>707.6</ele>
        <time>2022-06-27T08:54:53Z</time>
      </trkpt>
      <trkpt lat="42.4417140" lon="-3.0566940">
        <ele>707.8</ele>
        <time>2022-06-27T08:54:54Z</time>
      </trkpt>
      <trkpt lat="42.4416680" lon="-3.0567560">
        <ele>708.2</ele>
        <time>2022-06-27T08:54:55Z</time>
      </trkpt>
      <trkpt lat="42.4416230" lon="-3.0568170">
        <ele>708.2</ele>
        <time>2022-06-27T08:54:56Z</time>
      </trkpt>
      <trkpt lat="42.4415780" lon="-3.0568780">
        <ele>708.6</ele>
        <time>2022-06-27T08:54:57Z</time>
      </trkpt>
      <trkpt lat="42.4415350" lon="-3.0569390">
        <ele>708.6</ele>
        <time>2022-06-27T08:54:58Z</time>
      </trkpt>
      <trkpt lat="42.4414900" lon="-3.0570040">
        <ele>708.8</ele>
        <time>2022-06-27T08:54:59Z</time>
      </trkpt>
      <trkpt lat="42.4414460" lon="-3.0570680">
        <ele>709.0</ele>
        <time>2022-06-27T08:55:00Z</time>
      </trkpt>
      <trkpt lat="42.4414020" lon="-3.0571340">
        <ele>709.0</ele>
        <time>2022-06-27T08:55:01Z</time>
      </trkpt>
      <trkpt lat="42.4413590" lon="-3.0572010">
        <ele>709.2</ele>
        <time>2022-06-27T08:55:02Z</time>
      </trkpt>
      <trkpt lat="42.4413160" lon="-3.0572670">
        <ele>709.2</ele>
        <time>2022-06-27T08:55:03Z</time>
      </trkpt>
      <trkpt lat="42.4412750" lon="-3.0573320">
        <ele>709.4</ele>
        <time>2022-06-27T08:55:04Z</time>
      </trkpt>
      <trkpt lat="42.4412350" lon="-3.0573960">
        <ele>709.4</ele>
        <time>2022-06-27T08:55:05Z</time>
      </trkpt>
      <trkpt lat="42.4411940" lon="-3.0574610">
        <ele>709.6</ele>
        <time>2022-06-27T08:55:06Z</time>
      </trkpt>
      <trkpt lat="42.4411540" lon="-3.0575270">
        <ele>709.6</ele>
        <time>2022-06-27T08:55:07Z</time>
      </trkpt>
      <trkpt lat="42.4411150" lon="-3.0575960">
        <ele>709.6</ele>
        <time>2022-06-27T08:55:08Z</time>
      </trkpt>
      <trkpt lat="42.4410760" lon="-3.0576650">
        <ele>709.8</ele>
        <time>2022-06-27T08:55:09Z</time>
      </trkpt>
      <trkpt lat="42.4410380" lon="-3.0577340">
        <ele>710.0</ele>
        <time>2022-06-27T08:55:10Z</time>
      </trkpt>
      <trkpt lat="42.4410000" lon="-3.0578030">
        <ele>710.0</ele>
        <time>2022-06-27T08:55:11Z</time>
      </trkpt>
      <trkpt lat="42.4409620" lon="-3.0578720">
        <ele>710.2</ele>
        <time>2022-06-27T08:55:12Z</time>
      </trkpt>
      <trkpt lat="42.4409250" lon="-3.0579410">
        <ele>710.2</ele>
        <time>2022-06-27T08:55:13Z</time>
      </trkpt>
      <trkpt lat="42.4408880" lon="-3.0580110">
        <ele>710.2</ele>
        <time>2022-06-27T08:55:14Z</time>
      </trkpt>
      <trkpt lat="42.4408520" lon="-3.0580790">
        <ele>710.4</ele>
        <time>2022-06-27T08:55:15Z</time>
      </trkpt>
      <trkpt lat="42.4408160" lon="-3.0581500">
        <ele>710.6</ele>
        <time>2022-06-27T08:55:16Z</time>
      </trkpt>
      <trkpt lat="42.4407790" lon="-3.0582220">
        <ele>710.6</ele>
        <time>2022-06-27T08:55:17Z</time>
      </trkpt>
      <trkpt lat="42.4407430" lon="-3.0582930">
        <ele>711.0</ele>
        <time>2022-06-27T08:55:18Z</time>
      </trkpt>
      <trkpt lat="42.4407080" lon="-3.0583640">
        <ele>711.0</ele>
        <time>2022-06-27T08:55:19Z</time>
      </trkpt>
      <trkpt lat="42.4406760" lon="-3.0584350">
        <ele>711.0</ele>
        <time>2022-06-27T08:55:20Z</time>
      </trkpt>
      <trkpt lat="42.4406440" lon="-3.0585070">
        <ele>711.2</ele>
        <time>2022-06-27T08:55:21Z</time>
      </trkpt>
      <trkpt lat="42.4406110" lon="-3.0585790">
        <ele>711.4</ele>
        <time>2022-06-27T08:55:22Z</time>
      </trkpt>
      <trkpt lat="42.4405790" lon="-3.0586500">
        <ele>711.8</ele>
        <time>2022-06-27T08:55:23Z</time>
      </trkpt>
      <trkpt lat="42.4405450" lon="-3.0587230">
        <ele>711.8</ele>
        <time>2022-06-27T08:55:24Z</time>
      </trkpt>
      <trkpt lat="42.4405120" lon="-3.0587970">
        <ele>712.0</ele>
        <time>2022-06-27T08:55:25Z</time>
      </trkpt>
      <trkpt lat="42.4404790" lon="-3.0588690">
        <ele>712.0</ele>
        <time>2022-06-27T08:55:26Z</time>
      </trkpt>
      <trkpt lat="42.4404470" lon="-3.0589400">
        <ele>712.2</ele>
        <time>2022-06-27T08:55:27Z</time>
      </trkpt>
      <trkpt lat="42.4404140" lon="-3.0590130">
        <ele>712.4</ele>
        <time>2022-06-27T08:55:28Z</time>
      </trkpt>
      <trkpt lat="42.4403820" lon="-3.0590860">
        <ele>712.6</ele>
        <time>2022-06-27T08:55:29Z</time>
      </trkpt>
      <trkpt lat="42.4403510" lon="-3.0591600">
        <ele>712.8</ele>
        <time>2022-06-27T08:55:30Z</time>
      </trkpt>
      <trkpt lat="42.4403200" lon="-3.0592340">
        <ele>713.0</ele>
        <time>2022-06-27T08:55:31Z</time>
      </trkpt>
      <trkpt lat="42.4402870" lon="-3.0593100">
        <ele>713.4</ele>
        <time>2022-06-27T08:55:32Z</time>
      </trkpt>
      <trkpt lat="42.4402550" lon="-3.0593830">
        <ele>713.4</ele>
        <time>2022-06-27T08:55:33Z</time>
      </trkpt>
      <trkpt lat="42.4402240" lon="-3.0594570">
        <ele>713.6</ele>
        <time>2022-06-27T08:55:34Z</time>
      </trkpt>
      <trkpt lat="42.4401920" lon="-3.0595320">
        <ele>713.6</ele>
        <time>2022-06-27T08:55:35Z</time>
      </trkpt>
      <trkpt lat="42.4401610" lon="-3.0596060">
        <ele>713.6</ele>
        <time>2022-06-27T08:55:36Z</time>
      </trkpt>
      <trkpt lat="42.4401280" lon="-3.0596800">
        <ele>713.6</ele>
        <time>2022-06-27T08:55:37Z</time>
      </trkpt>
      <trkpt lat="42.4400960" lon="-3.0597540">
        <ele>713.8</ele>
        <time>2022-06-27T08:55:38Z</time>
      </trkpt>
      <trkpt lat="42.4400630" lon="-3.0598270">
        <ele>713.8</ele>
        <time>2022-06-27T08:55:39Z</time>
      </trkpt>
      <trkpt lat="42.4400310" lon="-3.0599010">
        <ele>714.0</ele>
        <time>2022-06-27T08:55:40Z</time>
      </trkpt>
      <trkpt lat="42.4399970" lon="-3.0599750">
        <ele>714.2</ele>
        <time>2022-06-27T08:55:41Z</time>
      </trkpt>
      <trkpt lat="42.4399660" lon="-3.0600480">
        <ele>714.2</ele>
        <time>2022-06-27T08:55:42Z</time>
      </trkpt>
      <trkpt lat="42.4399350" lon="-3.0601220">
        <ele>714.6</ele>
        <time>2022-06-27T08:55:43Z</time>
      </trkpt>
      <trkpt lat="42.4399020" lon="-3.0601950">
        <ele>714.6</ele>
        <time>2022-06-27T08:55:44Z</time>
      </trkpt>
      <trkpt lat="42.4398710" lon="-3.0602560">
        <ele>714.8</ele>
        <time>2022-06-27T08:55:45Z</time>
      </trkpt>
      <trkpt lat="42.4398390" lon="-3.0603310">
        <ele>715.0</ele>
        <time>2022-06-27T08:55:46Z</time>
      </trkpt>
      <trkpt lat="42.4398000" lon="-3.0604210">
        <ele>715.2</ele>
        <time>2022-06-27T08:55:47Z</time>
      </trkpt>
      <trkpt lat="42.4397750" lon="-3.0604800">
        <ele>715.4</ele>
        <time>2022-06-27T08:55:48Z</time>
      </trkpt>
      <trkpt lat="42.4397440" lon="-3.0605530">
        <ele>715.6</ele>
        <time>2022-06-27T08:55:49Z</time>
      </trkpt>
      <trkpt lat="42.4397140" lon="-3.0606250">
        <ele>715.8</ele>
        <time>2022-06-27T08:55:50Z</time>
      </trkpt>
      <trkpt lat="42.4396840" lon="-3.0606950">
        <ele>716.0</ele>
        <time>2022-06-27T08:55:51Z</time>
      </trkpt>
      <trkpt lat="42.4396540" lon="-3.0607670">
        <ele>716.2</ele>
        <time>2022-06-27T08:55:52Z</time>
      </trkpt>
      <trkpt lat="42.4396230" lon="-3.0608380">
        <ele>716.2</ele>
        <time>2022-06-27T08:55:53Z</time>
      </trkpt>
      <trkpt lat="42.4395940" lon="-3.0609080">
        <ele>716.4</ele>
        <time>2022-06-27T08:55:54Z</time>
      </trkpt>
      <trkpt lat="42.4395580" lon="-3.0609920">
        <ele>716.4</ele>
        <time>2022-06-27T08:55:55Z</time>
      </trkpt>
      <trkpt lat="42.4395270" lon="-3.0610630">
        <ele>716.4</ele>
        <time>2022-06-27T08:55:56Z</time>
      </trkpt>
      <trkpt lat="42.4394960" lon="-3.0611340">
        <ele>716.6</ele>
        <time>2022-06-27T08:55:57Z</time>
      </trkpt>
      <trkpt lat="42.4394720" lon="-3.0611900">
        <ele>716.6</ele>
        <time>2022-06-27T08:55:58Z</time>
      </trkpt>
      <trkpt lat="42.4394420" lon="-3.0612590">
        <ele>716.8</ele>
        <time>2022-06-27T08:55:59Z</time>
      </trkpt>
      <trkpt lat="42.4394060" lon="-3.0613460">
        <ele>716.8</ele>
        <time>2022-06-27T08:56:00Z</time>
      </trkpt>
      <trkpt lat="42.4393760" lon="-3.0614190">
        <ele>716.8</ele>
        <time>2022-06-27T08:56:01Z</time>
      </trkpt>
      <trkpt lat="42.4393450" lon="-3.0614900">
        <ele>717.0</ele>
        <time>2022-06-27T08:56:02Z</time>
      </trkpt>
      <trkpt lat="42.4393210" lon="-3.0615460">
        <ele>717.2</ele>
        <time>2022-06-27T08:56:03Z</time>
      </trkpt>
      <trkpt lat="42.4392910" lon="-3.0616170">
        <ele>717.2</ele>
        <time>2022-06-27T08:56:04Z</time>
      </trkpt>
      <trkpt lat="42.4392540" lon="-3.0617040">
        <ele>717.2</ele>
        <time>2022-06-27T08:56:05Z</time>
      </trkpt>
      <trkpt lat="42.4392240" lon="-3.0617750">
        <ele>717.4</ele>
        <time>2022-06-27T08:56:06Z</time>
      </trkpt>
      <trkpt lat="42.4391950" lon="-3.0618420">
        <ele>717.4</ele>
        <time>2022-06-27T08:56:07Z</time>
      </trkpt>
      <trkpt lat="42.4391710" lon="-3.0618960">
        <ele>717.6</ele>
        <time>2022-06-27T08:56:08Z</time>
      </trkpt>
      <trkpt lat="42.4391410" lon="-3.0619650">
        <ele>717.6</ele>
        <time>2022-06-27T08:56:09Z</time>
      </trkpt>
      <trkpt lat="42.4391050" lon="-3.0620450">
        <ele>717.6</ele>
        <time>2022-06-27T08:56:10Z</time>
      </trkpt>
      <trkpt lat="42.4390750" lon="-3.0621120">
        <ele>717.8</ele>
        <time>2022-06-27T08:56:11Z</time>
      </trkpt>
      <trkpt lat="42.4390460" lon="-3.0621800">
        <ele>718.0</ele>
        <time>2022-06-27T08:56:12Z</time>
      </trkpt>
      <trkpt lat="42.4390230" lon="-3.0622350">
        <ele>718.6</ele>
        <time>2022-06-27T08:56:13Z</time>
      </trkpt>
      <trkpt lat="42.4389950" lon="-3.0623010">
        <ele>719.0</ele>
        <time>2022-06-27T08:56:14Z</time>
      </trkpt>
      <trkpt lat="42.4389600" lon="-3.0623800">
        <ele>719.2</ele>
        <time>2022-06-27T08:56:15Z</time>
      </trkpt>
      <trkpt lat="42.4389280" lon="-3.0624500">
        <ele>719.2</ele>
        <time>2022-06-27T08:56:16Z</time>
      </trkpt>
      <trkpt lat="42.4389030" lon="-3.0625040">
        <ele>719.2</ele>
        <time>2022-06-27T08:56:17Z</time>
      </trkpt>
      <trkpt lat="42.4388730" lon="-3.0625700">
        <ele>719.4</ele>
        <time>2022-06-27T08:56:18Z</time>
      </trkpt>
      <trkpt lat="42.4388410" lon="-3.0626330">
        <ele>719.4</ele>
        <time>2022-06-27T08:56:19Z</time>
      </trkpt>
      <trkpt lat="42.4388070" lon="-3.0627070">
        <ele>719.4</ele>
        <time>2022-06-27T08:56:20Z</time>
      </trkpt>
      <trkpt lat="42.4387800" lon="-3.0627700">
        <ele>719.4</ele>
        <time>2022-06-27T08:56:21Z</time>
      </trkpt>
      <trkpt lat="42.4387590" lon="-3.0628210">
        <ele>719.6</ele>
        <time>2022-06-27T08:56:22Z</time>
      </trkpt>
      <trkpt lat="42.4387340" lon="-3.0628840">
        <ele>719.6</ele>
        <time>2022-06-27T08:56:23Z</time>
      </trkpt>
      <trkpt lat="42.4387070" lon="-3.0629520">
        <ele>719.8</ele>
        <time>2022-06-27T08:56:24Z</time>
      </trkpt>
      <trkpt lat="42.4386740" lon="-3.0630330">
        <ele>720.0</ele>
        <time>2022-06-27T08:56:25Z</time>
      </trkpt>
      <trkpt lat="42.4386440" lon="-3.0631000">
        <ele>720.0</ele>
        <time>2022-06-27T08:56:26Z</time>
      </trkpt>
      <trkpt lat="42.4386210" lon="-3.0631550">
        <ele>720.0</ele>
        <time>2022-06-27T08:56:27Z</time>
      </trkpt>
      <trkpt lat="42.4385910" lon="-3.0632210">
        <ele>720.2</ele>
        <time>2022-06-27T08:56:28Z</time>
      </trkpt>
      <trkpt lat="42.4385550" lon="-3.0633000">
        <ele>720.2</ele>
        <time>2022-06-27T08:56:29Z</time>
      </trkpt>
      <trkpt lat="42.4385260" lon="-3.0633660">
        <ele>720.2</ele>
        <time>2022-06-27T08:56:30Z</time>
      </trkpt>
      <trkpt lat="42.4384980" lon="-3.0634320">
        <ele>720.4</ele>
        <time>2022-06-27T08:56:31Z</time>
      </trkpt>
      <trkpt lat="42.4384740" lon="-3.0634860">
        <ele>720.6</ele>
        <time>2022-06-27T08:56:32Z</time>
      </trkpt>
      <trkpt lat="42.4384450" lon="-3.0635530">
        <ele>720.6</ele>
        <time>2022-06-27T08:56:33Z</time>
      </trkpt>
      <trkpt lat="42.4384090" lon="-3.0636310">
        <ele>720.8</ele>
        <time>2022-06-27T08:56:34Z</time>
      </trkpt>
      <trkpt lat="42.4383780" lon="-3.0636940">
        <ele>721.0</ele>
        <time>2022-06-27T08:56:35Z</time>
      </trkpt>
      <trkpt lat="42.4383460" lon="-3.0637580">
        <ele>721.2</ele>
        <time>2022-06-27T08:56:36Z</time>
      </trkpt>
      <trkpt lat="42.4383210" lon="-3.0638110">
        <ele>721.2</ele>
        <time>2022-06-27T08:56:37Z</time>
      </trkpt>
      <trkpt lat="42.4382900" lon="-3.0638740">
        <ele>721.2</ele>
        <time>2022-06-27T08:56:38Z</time>
      </trkpt>
      <trkpt lat="42.4382530" lon="-3.0639490">
        <ele>721.4</ele>
        <time>2022-06-27T08:56:39Z</time>
      </trkpt>
      <trkpt lat="42.4382250" lon="-3.0640080">
        <ele>721.6</ele>
        <time>2022-06-27T08:56:40Z</time>
      </trkpt>
      <trkpt lat="42.4381980" lon="-3.0640700">
        <ele>721.6</ele>
        <time>2022-06-27T08:56:41Z</time>
      </trkpt>
      <trkpt lat="42.4381760" lon="-3.0641190">
        <ele>721.8</ele>
        <time>2022-06-27T08:56:42Z</time>
      </trkpt>
      <trkpt lat="42.4381480" lon="-3.0641780">
        <ele>722.0</ele>
        <time>2022-06-27T08:56:43Z</time>
      </trkpt>
      <trkpt lat="42.4381170" lon="-3.0642480">
        <ele>722.0</ele>
        <time>2022-06-27T08:56:44Z</time>
      </trkpt>
      <trkpt lat="42.4380920" lon="-3.0643070">
        <ele>722.2</ele>
        <time>2022-06-27T08:56:45Z</time>
      </trkpt>
      <trkpt lat="42.4380730" lon="-3.0643530">
        <ele>722.4</ele>
        <time>2022-06-27T08:56:46Z</time>
      </trkpt>
      <trkpt lat="42.4380480" lon="-3.0644090">
        <ele>722.4</ele>
        <time>2022-06-27T08:56:47Z</time>
      </trkpt>
      <trkpt lat="42.4380230" lon="-3.0644620">
        <ele>722.6</ele>
        <time>2022-06-27T08:56:48Z</time>
      </trkpt>
      <trkpt lat="42.4379920" lon="-3.0645290">
        <ele>722.6</ele>
        <time>2022-06-27T08:56:49Z</time>
      </trkpt>
      <trkpt lat="42.4379700" lon="-3.0645770">
        <ele>723.0</ele>
        <time>2022-06-27T08:56:50Z</time>
      </trkpt>
      <trkpt lat="42.4379380" lon="-3.0646500">
        <ele>723.0</ele>
        <time>2022-06-27T08:56:51Z</time>
      </trkpt>
      <trkpt lat="42.4379190" lon="-3.0646950">
        <ele>723.2</ele>
        <time>2022-06-27T08:56:52Z</time>
      </trkpt>
      <trkpt lat="42.4378940" lon="-3.0647470">
        <ele>723.2</ele>
        <time>2022-06-27T08:56:53Z</time>
      </trkpt>
      <trkpt lat="42.4378680" lon="-3.0648010">
        <ele>723.2</ele>
        <time>2022-06-27T08:56:54Z</time>
      </trkpt>
      <trkpt lat="42.4378360" lon="-3.0648700">
        <ele>723.4</ele>
        <time>2022-06-27T08:56:55Z</time>
      </trkpt>
      <trkpt lat="42.4378080" lon="-3.0649270">
        <ele>723.4</ele>
        <time>2022-06-27T08:56:56Z</time>
      </trkpt>
      <trkpt lat="42.4377850" lon="-3.0649720">
        <ele>723.6</ele>
        <time>2022-06-27T08:56:57Z</time>
      </trkpt>
      <trkpt lat="42.4377590" lon="-3.0650280">
        <ele>723.8</ele>
        <time>2022-06-27T08:56:58Z</time>
      </trkpt>
      <trkpt lat="42.4377270" lon="-3.0650970">
        <ele>724.0</ele>
        <time>2022-06-27T08:56:59Z</time>
      </trkpt>
      <trkpt lat="42.4377010" lon="-3.0651560">
        <ele>724.2</ele>
        <time>2022-06-27T08:57:00Z</time>
      </trkpt>
      <trkpt lat="42.4376780" lon="-3.0652160">
        <ele>724.4</ele>
        <time>2022-06-27T08:57:01Z</time>
      </trkpt>
      <trkpt lat="42.4376580" lon="-3.0652610">
        <ele>724.4</ele>
        <time>2022-06-27T08:57:02Z</time>
      </trkpt>
      <trkpt lat="42.4376320" lon="-3.0653190">
        <ele>724.6</ele>
        <time>2022-06-27T08:57:03Z</time>
      </trkpt>
      <trkpt lat="42.4376010" lon="-3.0653900">
        <ele>724.8</ele>
        <time>2022-06-27T08:57:04Z</time>
      </trkpt>
      <trkpt lat="42.4375760" lon="-3.0654480">
        <ele>725.0</ele>
        <time>2022-06-27T08:57:05Z</time>
      </trkpt>
      <trkpt lat="42.4375520" lon="-3.0655070">
        <ele>725.2</ele>
        <time>2022-06-27T08:57:06Z</time>
      </trkpt>
      <trkpt lat="42.4375340" lon="-3.0655550">
        <ele>725.4</ele>
        <time>2022-06-27T08:57:07Z</time>
      </trkpt>
      <trkpt lat="42.4375090" lon="-3.0656160">
        <ele>725.6</ele>
        <time>2022-06-27T08:57:08Z</time>
      </trkpt>
      <trkpt lat="42.4374800" lon="-3.0656880">
        <ele>725.8</ele>
        <time>2022-06-27T08:57:09Z</time>
      </trkpt>
      <trkpt lat="42.4374620" lon="-3.0657370">
        <ele>726.0</ele>
        <time>2022-06-27T08:57:10Z</time>
      </trkpt>
      <trkpt lat="42.4374350" lon="-3.0658060">
        <ele>726.2</ele>
        <time>2022-06-27T08:57:11Z</time>
      </trkpt>
      <trkpt lat="42.4374200" lon="-3.0658560">
        <ele>726.2</ele>
        <time>2022-06-27T08:57:12Z</time>
      </trkpt>
      <trkpt lat="42.4373990" lon="-3.0659190">
        <ele>726.2</ele>
        <time>2022-06-27T08:57:13Z</time>
      </trkpt>
      <trkpt lat="42.4373770" lon="-3.0659980">
        <ele>726.4</ele>
        <time>2022-06-27T08:57:14Z</time>
      </trkpt>
      <trkpt lat="42.4373610" lon="-3.0660660">
        <ele>726.6</ele>
        <time>2022-06-27T08:57:15Z</time>
      </trkpt>
      <trkpt lat="42.4373470" lon="-3.0661360">
        <ele>726.8</ele>
        <time>2022-06-27T08:57:16Z</time>
      </trkpt>
      <trkpt lat="42.4373370" lon="-3.0661930">
        <ele>726.8</ele>
        <time>2022-06-27T08:57:17Z</time>
      </trkpt>
      <trkpt lat="42.4373260" lon="-3.0662650">
        <ele>727.0</ele>
        <time>2022-06-27T08:57:18Z</time>
      </trkpt>
      <trkpt lat="42.4373170" lon="-3.0663510">
        <ele>727.0</ele>
        <time>2022-06-27T08:57:19Z</time>
      </trkpt>
      <trkpt lat="42.4373120" lon="-3.0664210">
        <ele>727.2</ele>
        <time>2022-06-27T08:57:20Z</time>
      </trkpt>
      <trkpt lat="42.4373100" lon="-3.0664790">
        <ele>727.2</ele>
        <time>2022-06-27T08:57:21Z</time>
      </trkpt>
      <trkpt lat="42.4373080" lon="-3.0665500">
        <ele>727.4</ele>
        <time>2022-06-27T08:57:22Z</time>
      </trkpt>
      <trkpt lat="42.4373060" lon="-3.0666220">
        <ele>727.6</ele>
        <time>2022-06-27T08:57:23Z</time>
      </trkpt>
      <trkpt lat="42.4373050" lon="-3.0667120">
        <ele>727.8</ele>
        <time>2022-06-27T08:57:24Z</time>
      </trkpt>
      <trkpt lat="42.4373030" lon="-3.0667900">
        <ele>727.8</ele>
        <time>2022-06-27T08:57:25Z</time>
      </trkpt>
      <trkpt lat="42.4373010" lon="-3.0668530">
        <ele>727.8</ele>
        <time>2022-06-27T08:57:26Z</time>
      </trkpt>
      <trkpt lat="42.4372990" lon="-3.0669320">
        <ele>727.8</ele>
        <time>2022-06-27T08:57:27Z</time>
      </trkpt>
      <trkpt lat="42.4372970" lon="-3.0670130">
        <ele>728.0</ele>
        <time>2022-06-27T08:57:28Z</time>
      </trkpt>
      <trkpt lat="42.4372960" lon="-3.0671120">
        <ele>728.0</ele>
        <time>2022-06-27T08:57:29Z</time>
      </trkpt>
      <trkpt lat="42.4372950" lon="-3.0671960">
        <ele>728.0</ele>
        <time>2022-06-27T08:57:30Z</time>
      </trkpt>
      <trkpt lat="42.4372940" lon="-3.0672640">
        <ele>728.2</ele>
        <time>2022-06-27T08:57:31Z</time>
      </trkpt>
      <trkpt lat="42.4372920" lon="-3.0673510">
        <ele>728.2</ele>
        <time>2022-06-27T08:57:32Z</time>
      </trkpt>
      <trkpt lat="42.4372910" lon="-3.0674360">
        <ele>728.2</ele>
        <time>2022-06-27T08:57:33Z</time>
      </trkpt>
      <trkpt lat="42.4372920" lon="-3.0675380">
        <ele>728.4</ele>
        <time>2022-06-27T08:57:34Z</time>
      </trkpt>
      <trkpt lat="42.4372910" lon="-3.0676250">
        <ele>728.6</ele>
        <time>2022-06-27T08:57:35Z</time>
      </trkpt>
      <trkpt lat="42.4372900" lon="-3.0676960">
        <ele>728.8</ele>
        <time>2022-06-27T08:57:36Z</time>
      </trkpt>
      <trkpt lat="42.4372900" lon="-3.0677830">
        <ele>728.8</ele>
        <time>2022-06-27T08:57:37Z</time>
      </trkpt>
      <trkpt lat="42.4372890" lon="-3.0678700">
        <ele>728.8</ele>
        <time>2022-06-27T08:57:38Z</time>
      </trkpt>
      <trkpt lat="42.4372860" lon="-3.0679740">
        <ele>729.0</ele>
        <time>2022-06-27T08:57:39Z</time>
      </trkpt>
      <trkpt lat="42.4372850" lon="-3.0680610">
        <ele>729.0</ele>
        <time>2022-06-27T08:57:40Z</time>
      </trkpt>
      <trkpt lat="42.4372860" lon="-3.0681300">
        <ele>729.0</ele>
        <time>2022-06-27T08:57:41Z</time>
      </trkpt>
      <trkpt lat="42.4372860" lon="-3.0682190">
        <ele>729.2</ele>
        <time>2022-06-27T08:57:42Z</time>
      </trkpt>
      <trkpt lat="42.4372840" lon="-3.0683280">
        <ele>729.2</ele>
        <time>2022-06-27T08:57:43Z</time>
      </trkpt>
      <trkpt lat="42.4372850" lon="-3.0684180">
        <ele>729.2</ele>
        <time>2022-06-27T08:57:44Z</time>
      </trkpt>
      <trkpt lat="42.4372830" lon="-3.0685090">
        <ele>729.2</ele>
        <time>2022-06-27T08:57:45Z</time>
      </trkpt>
      <trkpt lat="42.4372820" lon="-3.0685820">
        <ele>729.2</ele>
        <time>2022-06-27T08:57:46Z</time>
      </trkpt>
      <trkpt lat="42.4372820" lon="-3.0686720">
        <ele>729.2</ele>
        <time>2022-06-27T08:57:47Z</time>
      </trkpt>
      <trkpt lat="42.4372800" lon="-3.0687800">
        <ele>729.4</ele>
        <time>2022-06-27T08:57:48Z</time>
      </trkpt>
      <trkpt lat="42.4372780" lon="-3.0688700">
        <ele>729.4</ele>
        <time>2022-06-27T08:57:49Z</time>
      </trkpt>
      <trkpt lat="42.4372770" lon="-3.0689600">
        <ele>729.4</ele>
        <time>2022-06-27T08:57:50Z</time>
      </trkpt>
      <trkpt lat="42.4372790" lon="-3.0690310">
        <ele>729.6</ele>
        <time>2022-06-27T08:57:51Z</time>
      </trkpt>
      <trkpt lat="42.4372810" lon="-3.0691200">
        <ele>729.6</ele>
        <time>2022-06-27T08:57:52Z</time>
      </trkpt>
      <trkpt lat="42.4372810" lon="-3.0692110">
        <ele>729.8</ele>
        <time>2022-06-27T08:57:53Z</time>
      </trkpt>
      <trkpt lat="42.4372810" lon="-3.0693190">
        <ele>729.8</ele>
        <time>2022-06-27T08:57:54Z</time>
      </trkpt>
      <trkpt lat="42.4372810" lon="-3.0694090">
        <ele>729.8</ele>
        <time>2022-06-27T08:57:55Z</time>
      </trkpt>
      <trkpt lat="42.4372810" lon="-3.0694800">
        <ele>730.0</ele>
        <time>2022-06-27T08:57:56Z</time>
      </trkpt>
      <trkpt lat="42.4372810" lon="-3.0695690">
        <ele>730.0</ele>
        <time>2022-06-27T08:57:57Z</time>
      </trkpt>
      <trkpt lat="42.4372810" lon="-3.0696580">
        <ele>730.0</ele>
        <time>2022-06-27T08:57:58Z</time>
      </trkpt>
      <trkpt lat="42.4372800" lon="-3.0697630">
        <ele>730.2</ele>
        <time>2022-06-27T08:57:59Z</time>
      </trkpt>
      <trkpt lat="42.4372780" lon="-3.0698330">
        <ele>730.4</ele>
        <time>2022-06-27T08:58:00Z</time>
      </trkpt>
      <trkpt lat="42.4372770" lon="-3.0699180">
        <ele>730.6</ele>
        <time>2022-06-27T08:58:01Z</time>
      </trkpt>
      <trkpt lat="42.4372740" lon="-3.0700010">
        <ele>731.0</ele>
        <time>2022-06-27T08:58:02Z</time>
      </trkpt>
      <trkpt lat="42.4372720" lon="-3.0700830">
        <ele>731.0</ele>
        <time>2022-06-27T08:58:03Z</time>
      </trkpt>
      <trkpt lat="42.4372700" lon="-3.0701800">
        <ele>731.2</ele>
        <time>2022-06-27T08:58:04Z</time>
      </trkpt>
      <trkpt lat="42.4372700" lon="-3.0702610">
        <ele>731.2</ele>
        <time>2022-06-27T08:58:05Z</time>
      </trkpt>
      <trkpt lat="42.4372690" lon="-3.0703420">
        <ele>731.4</ele>
        <time>2022-06-27T08:58:06Z</time>
      </trkpt>
      <trkpt lat="42.4372710" lon="-3.0704180">
        <ele>731.4</ele>
        <time>2022-06-27T08:58:07Z</time>
      </trkpt>
      <trkpt lat="42.4372720" lon="-3.0704950">
        <ele>731.8</ele>
        <time>2022-06-27T08:58:08Z</time>
      </trkpt>
      <trkpt lat="42.4372720" lon="-3.0705720">
        <ele>731.8</ele>
        <time>2022-06-27T08:58:09Z</time>
      </trkpt>
      <trkpt lat="42.4372730" lon="-3.0706470">
        <ele>732.0</ele>
        <time>2022-06-27T08:58:10Z</time>
      </trkpt>
      <trkpt lat="42.4372740" lon="-3.0707190">
        <ele>732.2</ele>
        <time>2022-06-27T08:58:11Z</time>
      </trkpt>
      <trkpt lat="42.4372730" lon="-3.0707920">
        <ele>732.4</ele>
        <time>2022-06-27T08:58:12Z</time>
      </trkpt>
      <trkpt lat="42.4372730" lon="-3.0708640">
        <ele>733.0</ele>
        <time>2022-06-27T08:58:13Z</time>
      </trkpt>
      <trkpt lat="42.4372740" lon="-3.0709360">
        <ele>733.0</ele>
        <time>2022-06-27T08:58:14Z</time>
      </trkpt>
      <trkpt lat="42.4372750" lon="-3.0710110">
        <ele>733.2</ele>
        <time>2022-06-27T08:58:15Z</time>
      </trkpt>
      <trkpt lat="42.4372760" lon="-3.0710850">
        <ele>733.4</ele>
        <time>2022-06-27T08:58:16Z</time>
      </trkpt>
      <trkpt lat="42.4372760" lon="-3.0711580">
        <ele>733.8</ele>
        <time>2022-06-27T08:58:17Z</time>
      </trkpt>
      <trkpt lat="42.4372760" lon="-3.0712310">
        <ele>734.2</ele>
        <time>2022-06-27T08:58:18Z</time>
      </trkpt>
      <trkpt lat="42.4372760" lon="-3.0713000">
        <ele>734.2</ele>
        <time>2022-06-27T08:58:19Z</time>
      </trkpt>
      <trkpt lat="42.4372760" lon="-3.0713710">
        <ele>734.4</ele>
        <time>2022-06-27T08:58:20Z</time>
      </trkpt>
      <trkpt lat="42.4372770" lon="-3.0714390">
        <ele>734.6</ele>
        <time>2022-06-27T08:58:21Z</time>
      </trkpt>
      <trkpt lat="42.4372800" lon="-3.0715070">
        <ele>734.8</ele>
        <time>2022-06-27T08:58:22Z</time>
      </trkpt>
      <trkpt lat="42.4372820" lon="-3.0715760">
        <ele>735.0</ele>
        <time>2022-06-27T08:58:23Z</time>
      </trkpt>
      <trkpt lat="42.4372830" lon="-3.0716460">
        <ele>735.0</ele>
        <time>2022-06-27T08:58:24Z</time>
      </trkpt>
      <trkpt lat="42.4372870" lon="-3.0717150">
        <ele>735.4</ele>
        <time>2022-06-27T08:58:25Z</time>
      </trkpt>
      <trkpt lat="42.4372910" lon="-3.0717860">
        <ele>735.4</ele>
        <time>2022-06-27T08:58:26Z</time>
      </trkpt>
      <trkpt lat="42.4372950" lon="-3.0718580">
        <ele>735.8</ele>
        <time>2022-06-27T08:58:27Z</time>
      </trkpt>
      <trkpt lat="42.4372970" lon="-3.0719300">
        <ele>735.8</ele>
        <time>2022-06-27T08:58:28Z</time>
      </trkpt>
      <trkpt lat="42.4373010" lon="-3.0720010">
        <ele>736.0</ele>
        <time>2022-06-27T08:58:29Z</time>
      </trkpt>
      <trkpt lat="42.4373070" lon="-3.0720720">
        <ele>736.2</ele>
        <time>2022-06-27T08:58:30Z</time>
      </trkpt>
      <trkpt lat="42.4373120" lon="-3.0721440">
        <ele>736.4</ele>
        <time>2022-06-27T08:58:31Z</time>
      </trkpt>
      <trkpt lat="42.4373160" lon="-3.0722150">
        <ele>736.8</ele>
        <time>2022-06-27T08:58:32Z</time>
      </trkpt>
      <trkpt lat="42.4373210" lon="-3.0722870">
        <ele>737.0</ele>
        <time>2022-06-27T08:58:33Z</time>
      </trkpt>
      <trkpt lat="42.4373250" lon="-3.0723600">
        <ele>736.8</ele>
        <time>2022-06-27T08:58:34Z</time>
      </trkpt>
      <trkpt lat="42.4373280" lon="-3.0724330">
        <ele>737.2</ele>
        <time>2022-06-27T08:58:35Z</time>
      </trkpt>
      <trkpt lat="42.4373320" lon="-3.0725040">
        <ele>737.4</ele>
        <time>2022-06-27T08:58:36Z</time>
      </trkpt>
      <trkpt lat="42.4373370" lon="-3.0725750">
        <ele>737.6</ele>
        <time>2022-06-27T08:58:37Z</time>
      </trkpt>
      <trkpt lat="42.4373440" lon="-3.0726450">
        <ele>737.8</ele>
        <time>2022-06-27T08:58:38Z</time>
      </trkpt>
      <trkpt lat="42.4373480" lon="-3.0727160">
        <ele>738.0</ele>
        <time>2022-06-27T08:58:39Z</time>
      </trkpt>
      <trkpt lat="42.4373530" lon="-3.0727860">
        <ele>738.2</ele>
        <time>2022-06-27T08:58:40Z</time>
      </trkpt>
      <trkpt lat="42.4373590" lon="-3.0728570">
        <ele>738.4</ele>
        <time>2022-06-27T08:58:41Z</time>
      </trkpt>
      <trkpt lat="42.4373640" lon="-3.0729300">
        <ele>738.6</ele>
        <time>2022-06-27T08:58:42Z</time>
      </trkpt>
      <trkpt lat="42.4373680" lon="-3.0730030">
        <ele>738.6</ele>
        <time>2022-06-27T08:58:43Z</time>
      </trkpt>
      <trkpt lat="42.4373710" lon="-3.0730770">
        <ele>738.8</ele>
        <time>2022-06-27T08:58:44Z</time>
      </trkpt>
      <trkpt lat="42.4373760" lon="-3.0731500">
        <ele>739.2</ele>
        <time>2022-06-27T08:58:45Z</time>
      </trkpt>
      <trkpt lat="42.4373780" lon="-3.0732270">
        <ele>739.4</ele>
        <time>2022-06-27T08:58:46Z</time>
      </trkpt>
      <trkpt lat="42.4373810" lon="-3.0732880">
        <ele>739.6</ele>
        <time>2022-06-27T08:58:47Z</time>
      </trkpt>
      <trkpt lat="42.4373870" lon="-3.0733620">
        <ele>740.0</ele>
        <time>2022-06-27T08:58:48Z</time>
      </trkpt>
      <trkpt lat="42.4373910" lon="-3.0734380">
        <ele>740.0</ele>
        <time>2022-06-27T08:58:49Z</time>
      </trkpt>
      <trkpt lat="42.4373950" lon="-3.0735290">
        <ele>740.2</ele>
        <time>2022-06-27T08:58:50Z</time>
      </trkpt>
      <trkpt lat="42.4373990" lon="-3.0736050">
        <ele>740.2</ele>
        <time>2022-06-27T08:58:51Z</time>
      </trkpt>
      <trkpt lat="42.4374040" lon="-3.0736680">
        <ele>740.4</ele>
        <time>2022-06-27T08:58:52Z</time>
      </trkpt>
      <trkpt lat="42.4374100" lon="-3.0737440">
        <ele>740.4</ele>
        <time>2022-06-27T08:58:53Z</time>
      </trkpt>
      <trkpt lat="42.4374170" lon="-3.0738400">
        <ele>740.6</ele>
        <time>2022-06-27T08:58:54Z</time>
      </trkpt>
      <trkpt lat="42.4374210" lon="-3.0739230">
        <ele>741.0</ele>
        <time>2022-06-27T08:58:55Z</time>
      </trkpt>
      <trkpt lat="42.4374250" lon="-3.0740060">
        <ele>741.0</ele>
        <time>2022-06-27T08:58:56Z</time>
      </trkpt>
      <trkpt lat="42.4374280" lon="-3.0740900">
        <ele>741.2</ele>
        <time>2022-06-27T08:58:57Z</time>
      </trkpt>
      <trkpt lat="42.4374310" lon="-3.0741730">
        <ele>741.4</ele>
        <time>2022-06-27T08:58:58Z</time>
      </trkpt>
      <trkpt lat="42.4374340" lon="-3.0742570">
        <ele>741.8</ele>
        <time>2022-06-27T08:58:59Z</time>
      </trkpt>
      <trkpt lat="42.4374390" lon="-3.0743410">
        <ele>742.0</ele>
        <time>2022-06-27T08:59:00Z</time>
      </trkpt>
      <trkpt lat="42.4374430" lon="-3.0744270">
        <ele>742.2</ele>
        <time>2022-06-27T08:59:01Z</time>
      </trkpt>
      <trkpt lat="42.4374460" lon="-3.0745150">
        <ele>742.2</ele>
        <time>2022-06-27T08:59:02Z</time>
      </trkpt>
      <trkpt lat="42.4374520" lon="-3.0746050">
        <ele>742.2</ele>
        <time>2022-06-27T08:59:03Z</time>
      </trkpt>
      <trkpt lat="42.4374570" lon="-3.0746980">
        <ele>742.2</ele>
        <time>2022-06-27T08:59:04Z</time>
      </trkpt>
      <trkpt lat="42.4374650" lon="-3.0747920">
        <ele>742.2</ele>
        <time>2022-06-27T08:59:05Z</time>
      </trkpt>
      <trkpt lat="42.4374710" lon="-3.0748880">
        <ele>742.2</ele>
        <time>2022-06-27T08:59:06Z</time>
      </trkpt>
      <trkpt lat="42.4374750" lon="-3.0749880">
        <ele>742.2</ele>
        <time>2022-06-27T08:59:07Z</time>
      </trkpt>
      <trkpt lat="42.4374800" lon="-3.0750880">
        <ele>742.2</ele>
        <time>2022-06-27T08:59:08Z</time>
      </trkpt>
      <trkpt lat="42.4374870" lon="-3.0751880">
        <ele>742.0</ele>
        <time>2022-06-27T08:59:09Z</time>
      </trkpt>
      <trkpt lat="42.4374940" lon="-3.0752910">
        <ele>742.0</ele>
        <time>2022-06-27T08:59:10Z</time>
      </trkpt>
      <trkpt lat="42.4375010" lon="-3.0753950">
        <ele>742.0</ele>
        <time>2022-06-27T08:59:11Z</time>
      </trkpt>
      <trkpt lat="42.4375070" lon="-3.0755000">
        <ele>741.8</ele>
        <time>2022-06-27T08:59:12Z</time>
      </trkpt>
      <trkpt lat="42.4375110" lon="-3.0756060">
        <ele>741.8</ele>
        <time>2022-06-27T08:59:13Z</time>
      </trkpt>
      <trkpt lat="42.4375170" lon="-3.0757130">
        <ele>741.6</ele>
        <time>2022-06-27T08:59:14Z</time>
      </trkpt>
      <trkpt lat="42.4375220" lon="-3.0758220">
        <ele>741.6</ele>
        <time>2022-06-27T08:59:15Z</time>
      </trkpt>
      <trkpt lat="42.4375290" lon="-3.0759320">
        <ele>741.4</ele>
        <time>2022-06-27T08:59:16Z</time>
      </trkpt>
      <trkpt lat="42.4375360" lon="-3.0760420">
        <ele>741.2</ele>
        <time>2022-06-27T08:59:17Z</time>
      </trkpt>
      <trkpt lat="42.4375410" lon="-3.0761550">
        <ele>741.0</ele>
        <time>2022-06-27T08:59:18Z</time>
      </trkpt>
      <trkpt lat="42.4375470" lon="-3.0762680">
        <ele>741.0</ele>
        <time>2022-06-27T08:59:19Z</time>
      </trkpt>
      <trkpt lat="42.4375550" lon="-3.0763820">
        <ele>741.0</ele>
        <time>2022-06-27T08:59:20Z</time>
      </trkpt>
      <trkpt lat="42.4375610" lon="-3.0764970">
        <ele>740.8</ele>
        <time>2022-06-27T08:59:21Z</time>
      </trkpt>
      <trkpt lat="42.4375670" lon="-3.0766130">
        <ele>740.6</ele>
        <time>2022-06-27T08:59:22Z</time>
      </trkpt>
      <trkpt lat="42.4375750" lon="-3.0767280">
        <ele>740.6</ele>
        <time>2022-06-27T08:59:23Z</time>
      </trkpt>
      <trkpt lat="42.4375830" lon="-3.0768440">
        <ele>740.6</ele>
        <time>2022-06-27T08:59:24Z</time>
      </trkpt>
      <trkpt lat="42.4375900" lon="-3.0769610">
        <ele>740.4</ele>
        <time>2022-06-27T08:59:25Z</time>
      </trkpt>
      <trkpt lat="42.4375970" lon="-3.0770770">
        <ele>740.4</ele>
        <time>2022-06-27T08:59:26Z</time>
      </trkpt>
      <trkpt lat="42.4376030" lon="-3.0771940">
        <ele>740.4</ele>
        <time>2022-06-27T08:59:27Z</time>
      </trkpt>
      <trkpt lat="42.4376100" lon="-3.0773120">
        <ele>740.2</ele>
        <time>2022-06-27T08:59:28Z</time>
      </trkpt>
      <trkpt lat="42.4376180" lon="-3.0774310">
        <ele>740.2</ele>
        <time>2022-06-27T08:59:29Z</time>
      </trkpt>
      <trkpt lat="42.4376260" lon="-3.0775510">
        <ele>740.2</ele>
        <time>2022-06-27T08:59:30Z</time>
      </trkpt>
      <trkpt lat="42.4376340" lon="-3.0776700">
        <ele>740.2</ele>
        <time>2022-06-27T08:59:31Z</time>
      </trkpt>
      <trkpt lat="42.4376420" lon="-3.0777890">
        <ele>740.0</ele>
        <time>2022-06-27T08:59:32Z</time>
      </trkpt>
      <trkpt lat="42.4376500" lon="-3.0779090">
        <ele>740.0</ele>
        <time>2022-06-27T08:59:33Z</time>
      </trkpt>
      <trkpt lat="42.4376570" lon="-3.0780280">
        <ele>739.8</ele>
        <time>2022-06-27T08:59:34Z</time>
      </trkpt>
      <trkpt lat="42.4376650" lon="-3.0781460">
        <ele>739.8</ele>
        <time>2022-06-27T08:59:35Z</time>
      </trkpt>
      <trkpt lat="42.4376720" lon="-3.0782640">
        <ele>739.8</ele>
        <time>2022-06-27T08:59:36Z</time>
      </trkpt>
      <trkpt lat="42.4376790" lon="-3.0783820">
        <ele>739.8</ele>
        <time>2022-06-27T08:59:37Z</time>
      </trkpt>
      <trkpt lat="42.4376870" lon="-3.0784970">
        <ele>739.8</ele>
        <time>2022-06-27T08:59:38Z</time>
      </trkpt>
      <trkpt lat="42.4376930" lon="-3.0785880">
        <ele>739.8</ele>
        <time>2022-06-27T08:59:39Z</time>
      </trkpt>
      <trkpt lat="42.4376990" lon="-3.0787010">
        <ele>739.8</ele>
        <time>2022-06-27T08:59:40Z</time>
      </trkpt>
      <trkpt lat="42.4377070" lon="-3.0788350">
        <ele>739.8</ele>
        <time>2022-06-27T08:59:41Z</time>
      </trkpt>
      <trkpt lat="42.4377130" lon="-3.0789450">
        <ele>739.8</ele>
        <time>2022-06-27T08:59:42Z</time>
      </trkpt>
      <trkpt lat="42.4377200" lon="-3.0790520">
        <ele>740.0</ele>
        <time>2022-06-27T08:59:43Z</time>
      </trkpt>
      <trkpt lat="42.4377260" lon="-3.0791390">
        <ele>740.2</ele>
        <time>2022-06-27T08:59:44Z</time>
      </trkpt>
      <trkpt lat="42.4377300" lon="-3.0792450">
        <ele>740.4</ele>
        <time>2022-06-27T08:59:45Z</time>
      </trkpt>
      <trkpt lat="42.4377380" lon="-3.0793690">
        <ele>740.6</ele>
        <time>2022-06-27T08:59:46Z</time>
      </trkpt>
      <trkpt lat="42.4377450" lon="-3.0794700">
        <ele>741.0</ele>
        <time>2022-06-27T08:59:47Z</time>
      </trkpt>
      <trkpt lat="42.4377520" lon="-3.0795680">
        <ele>741.4</ele>
        <time>2022-06-27T08:59:48Z</time>
      </trkpt>
      <trkpt lat="42.4377580" lon="-3.0796410">
        <ele>741.6</ele>
        <time>2022-06-27T08:59:49Z</time>
      </trkpt>
      <trkpt lat="42.4377640" lon="-3.0797340">
        <ele>741.8</ele>
        <time>2022-06-27T08:59:50Z</time>
      </trkpt>
      <trkpt lat="42.4377720" lon="-3.0798420">
        <ele>742.0</ele>
        <time>2022-06-27T08:59:51Z</time>
      </trkpt>
      <trkpt lat="42.4377780" lon="-3.0799290">
        <ele>742.2</ele>
        <time>2022-06-27T08:59:52Z</time>
      </trkpt>
      <trkpt lat="42.4377830" lon="-3.0800140">
        <ele>742.4</ele>
        <time>2022-06-27T08:59:53Z</time>
      </trkpt>
      <trkpt lat="42.4377880" lon="-3.0800950">
        <ele>742.8</ele>
        <time>2022-06-27T08:59:54Z</time>
      </trkpt>
      <trkpt lat="42.4377910" lon="-3.0801730">
        <ele>743.0</ele>
        <time>2022-06-27T08:59:55Z</time>
      </trkpt>
      <trkpt lat="42.4377960" lon="-3.0802490">
        <ele>743.2</ele>
        <time>2022-06-27T08:59:56Z</time>
      </trkpt>
      <trkpt lat="42.4378010" lon="-3.0803240">
        <ele>743.6</ele>
        <time>2022-06-27T08:59:57Z</time>
      </trkpt>
      <trkpt lat="42.4378070" lon="-3.0803940">
        <ele>744.0</ele>
        <time>2022-06-27T08:59:58Z</time>
      </trkpt>
      <trkpt lat="42.4378100" lon="-3.0804660">
        <ele>744.4</ele>
        <time>2022-06-27T08:59:59Z</time>
      </trkpt>
      <trkpt lat="42.4378140" lon="-3.0805340">
        <ele>744.6</ele>
        <time>2022-06-27T09:00:00Z</time>
      </trkpt>
      <trkpt lat="42.4378160" lon="-3.0806030">
        <ele>745.0</ele>
        <time>2022-06-27T09:00:01Z</time>
      </trkpt>
      <trkpt lat="42.4378190" lon="-3.0806710">
        <ele>745.6</ele>
        <time>2022-06-27T09:00:02Z</time>
      </trkpt>
      <trkpt lat="42.4378220" lon="-3.0807390">
        <ele>745.8</ele>
        <time>2022-06-27T09:00:03Z</time>
      </trkpt>
      <trkpt lat="42.4378260" lon="-3.0808070">
        <ele>746.4</ele>
        <time>2022-06-27T09:00:04Z</time>
      </trkpt>
      <trkpt lat="42.4378310" lon="-3.0808750">
        <ele>746.6</ele>
        <time>2022-06-27T09:00:05Z</time>
      </trkpt>
      <trkpt lat="42.4378380" lon="-3.0809440">
        <ele>747.0</ele>
        <time>2022-06-27T09:00:06Z</time>
      </trkpt>
      <trkpt lat="42.4378440" lon="-3.0810130">
        <ele>747.2</ele>
        <time>2022-06-27T09:00:07Z</time>
      </trkpt>
      <trkpt lat="42.4378480" lon="-3.0810820">
        <ele>747.4</ele>
        <time>2022-06-27T09:00:08Z</time>
      </trkpt>
      <trkpt lat="42.4378520" lon="-3.0811530">
        <ele>747.8</ele>
        <time>2022-06-27T09:00:09Z</time>
      </trkpt>
      <trkpt lat="42.4378560" lon="-3.0812220">
        <ele>748.0</ele>
        <time>2022-06-27T09:00:10Z</time>
      </trkpt>
      <trkpt lat="42.4378640" lon="-3.0812900">
        <ele>748.4</ele>
        <time>2022-06-27T09:00:11Z</time>
      </trkpt>
      <trkpt lat="42.4378680" lon="-3.0813620">
        <ele>748.6</ele>
        <time>2022-06-27T09:00:12Z</time>
      </trkpt>
      <trkpt lat="42.4378730" lon="-3.0814320">
        <ele>748.8</ele>
        <time>2022-06-27T09:00:13Z</time>
      </trkpt>
      <trkpt lat="42.4378790" lon="-3.0815040">
        <ele>748.8</ele>
        <time>2022-06-27T09:00:14Z</time>
      </trkpt>
      <trkpt lat="42.4378850" lon="-3.0815770">
        <ele>749.2</ele>
        <time>2022-06-27T09:00:15Z</time>
      </trkpt>
      <trkpt lat="42.4378900" lon="-3.0816480">
        <ele>749.4</ele>
        <time>2022-06-27T09:00:16Z</time>
      </trkpt>
      <trkpt lat="42.4378940" lon="-3.0817230">
        <ele>749.4</ele>
        <time>2022-06-27T09:00:17Z</time>
      </trkpt>
      <trkpt lat="42.4378980" lon="-3.0818000">
        <ele>749.8</ele>
        <time>2022-06-27T09:00:18Z</time>
      </trkpt>
      <trkpt lat="42.4379030" lon="-3.0818740">
        <ele>749.8</ele>
        <time>2022-06-27T09:00:19Z</time>
      </trkpt>
      <trkpt lat="42.4379080" lon="-3.0819510">
        <ele>750.0</ele>
        <time>2022-06-27T09:00:20Z</time>
      </trkpt>
      <trkpt lat="42.4379120" lon="-3.0820290">
        <ele>750.0</ele>
        <time>2022-06-27T09:00:21Z</time>
      </trkpt>
      <trkpt lat="42.4379160" lon="-3.0821080">
        <ele>750.2</ele>
        <time>2022-06-27T09:00:22Z</time>
      </trkpt>
      <trkpt lat="42.4379210" lon="-3.0821880">
        <ele>750.2</ele>
        <time>2022-06-27T09:00:23Z</time>
      </trkpt>
      <trkpt lat="42.4379260" lon="-3.0822700">
        <ele>750.6</ele>
        <time>2022-06-27T09:00:24Z</time>
      </trkpt>
      <trkpt lat="42.4379330" lon="-3.0823520">
        <ele>750.8</ele>
        <time>2022-06-27T09:00:25Z</time>
      </trkpt>
      <trkpt lat="42.4379390" lon="-3.0824370">
        <ele>750.8</ele>
        <time>2022-06-27T09:00:26Z</time>
      </trkpt>
      <trkpt lat="42.4379460" lon="-3.0825230">
        <ele>750.8</ele>
        <time>2022-06-27T09:00:27Z</time>
      </trkpt>
      <trkpt lat="42.4379540" lon="-3.0826100">
        <ele>750.8</ele>
        <time>2022-06-27T09:00:28Z</time>
      </trkpt>
      <trkpt lat="42.4379620" lon="-3.0826980">
        <ele>750.8</ele>
        <time>2022-06-27T09:00:29Z</time>
      </trkpt>
      <trkpt lat="42.4379680" lon="-3.0827870">
        <ele>750.8</ele>
        <time>2022-06-27T09:00:30Z</time>
      </trkpt>
      <trkpt lat="42.4379750" lon="-3.0828760">
        <ele>750.8</ele>
        <time>2022-06-27T09:00:31Z</time>
      </trkpt>
      <trkpt lat="42.4379830" lon="-3.0829660">
        <ele>750.8</ele>
        <time>2022-06-27T09:00:32Z</time>
      </trkpt>
      <trkpt lat="42.4379890" lon="-3.0830580">
        <ele>750.8</ele>
        <time>2022-06-27T09:00:33Z</time>
      </trkpt>
      <trkpt lat="42.4379940" lon="-3.0831500">
        <ele>750.8</ele>
        <time>2022-06-27T09:00:34Z</time>
      </trkpt>
      <trkpt lat="42.4380010" lon="-3.0832440">
        <ele>750.6</ele>
        <time>2022-06-27T09:00:35Z</time>
      </trkpt>
      <trkpt lat="42.4380070" lon="-3.0833380">
        <ele>750.6</ele>
        <time>2022-06-27T09:00:36Z</time>
      </trkpt>
      <trkpt lat="42.4380130" lon="-3.0834320">
        <ele>750.6</ele>
        <time>2022-06-27T09:00:37Z</time>
      </trkpt>
      <trkpt lat="42.4380200" lon="-3.0835260">
        <ele>750.6</ele>
        <time>2022-06-27T09:00:38Z</time>
      </trkpt>
      <trkpt lat="42.4380250" lon="-3.0836220">
        <ele>750.8</ele>
        <time>2022-06-27T09:00:39Z</time>
      </trkpt>
      <trkpt lat="42.4380300" lon="-3.0837180">
        <ele>750.8</ele>
        <time>2022-06-27T09:00:40Z</time>
      </trkpt>
      <trkpt lat="42.4380340" lon="-3.0838150">
        <ele>750.8</ele>
        <time>2022-06-27T09:00:41Z</time>
      </trkpt>
      <trkpt lat="42.4380350" lon="-3.0839120">
        <ele>750.8</ele>
        <time>2022-06-27T09:00:42Z</time>
      </trkpt>
      <trkpt lat="42.4380360" lon="-3.0840090">
        <ele>750.8</ele>
        <time>2022-06-27T09:00:43Z</time>
      </trkpt>
      <trkpt lat="42.4380350" lon="-3.0841000">
        <ele>750.8</ele>
        <time>2022-06-27T09:00:44Z</time>
      </trkpt>
      <trkpt lat="42.4380340" lon="-3.0841890">
        <ele>750.8</ele>
        <time>2022-06-27T09:00:45Z</time>
      </trkpt>
      <trkpt lat="42.4380330" lon="-3.0842720">
        <ele>750.8</ele>
        <time>2022-06-27T09:00:46Z</time>
      </trkpt>
      <trkpt lat="42.4380350" lon="-3.0843430">
        <ele>750.8</ele>
        <time>2022-06-27T09:00:47Z</time>
      </trkpt>
      <trkpt lat="42.4379140" lon="-3.0848630">
        <ele>770.0</ele>
        <time>2022-06-27T09:25:13Z</time>
      </trkpt>
      <trkpt lat="42.4378950" lon="-3.0849190">
        <ele>767.4</ele>
        <time>2022-06-27T09:25:14Z</time>
      </trkpt>
      <trkpt lat="42.4378790" lon="-3.0849670">
        <ele>767.6</ele>
        <time>2022-06-27T09:25:15Z</time>
      </trkpt>
      <trkpt lat="42.4378580" lon="-3.0850290">
        <ele>768.0</ele>
        <time>2022-06-27T09:25:16Z</time>
      </trkpt>
      <trkpt lat="42.4378350" lon="-3.0850920">
        <ele>768.0</ele>
        <time>2022-06-27T09:25:17Z</time>
      </trkpt>
      <trkpt lat="42.4378090" lon="-3.0851570">
        <ele>767.6</ele>
        <time>2022-06-27T09:25:18Z</time>
      </trkpt>
      <trkpt lat="42.4377800" lon="-3.0852370">
        <ele>767.2</ele>
        <time>2022-06-27T09:25:19Z</time>
      </trkpt>
      <trkpt lat="42.4377590" lon="-3.0852950">
        <ele>767.4</ele>
        <time>2022-06-27T09:25:20Z</time>
      </trkpt>
      <trkpt lat="42.4377330" lon="-3.0853680">
        <ele>767.4</ele>
        <time>2022-06-27T09:25:21Z</time>
      </trkpt>
      <trkpt lat="42.4377070" lon="-3.0854380">
        <ele>767.0</ele>
        <time>2022-06-27T09:25:22Z</time>
      </trkpt>
      <trkpt lat="42.4376810" lon="-3.0855070">
        <ele>767.0</ele>
        <time>2022-06-27T09:25:23Z</time>
      </trkpt>
      <trkpt lat="42.4376530" lon="-3.0855790">
        <ele>767.4</ele>
        <time>2022-06-27T09:25:24Z</time>
      </trkpt>
      <trkpt lat="42.4376240" lon="-3.0856530">
        <ele>767.4</ele>
        <time>2022-06-27T09:25:25Z</time>
      </trkpt>
      <trkpt lat="42.4375940" lon="-3.0857300">
        <ele>767.4</ele>
        <time>2022-06-27T09:25:26Z</time>
      </trkpt>
      <trkpt lat="42.4375650" lon="-3.0858070">
        <ele>767.4</ele>
        <time>2022-06-27T09:25:27Z</time>
      </trkpt>
      <trkpt lat="42.4375340" lon="-3.0858880">
        <ele>767.2</ele>
        <time>2022-06-27T09:25:28Z</time>
      </trkpt>
      <trkpt lat="42.4374940" lon="-3.0859870">
        <ele>767.2</ele>
        <time>2022-06-27T09:25:29Z</time>
      </trkpt>
      <trkpt lat="42.4374580" lon="-3.0860730">
        <ele>767.2</ele>
        <time>2022-06-27T09:25:30Z</time>
      </trkpt>
      <trkpt lat="42.4374270" lon="-3.0861430">
        <ele>767.0</ele>
        <time>2022-06-27T09:25:31Z</time>
      </trkpt>
      <trkpt lat="42.4373840" lon="-3.0862330">
        <ele>767.0</ele>
        <time>2022-06-27T09:25:32Z</time>
      </trkpt>
      <trkpt lat="42.4373340" lon="-3.0863240">
        <ele>766.8</ele>
        <time>2022-06-27T09:25:33Z</time>
      </trkpt>
      <trkpt lat="42.4372740" lon="-3.0864130">
        <ele>766.8</ele>
        <time>2022-06-27T09:25:34Z</time>
      </trkpt>
      <trkpt lat="42.4372070" lon="-3.0864930">
        <ele>766.6</ele>
        <time>2022-06-27T09:25:35Z</time>
      </trkpt>
      <trkpt lat="42.4371320" lon="-3.0865660">
        <ele>766.6</ele>
        <time>2022-06-27T09:25:36Z</time>
      </trkpt>
      <trkpt lat="42.4370500" lon="-3.0866390">
        <ele>766.2</ele>
        <time>2022-06-27T09:25:37Z</time>
      </trkpt>
      <trkpt lat="42.4369630" lon="-3.0867090">
        <ele>765.6</ele>
        <time>2022-06-27T09:25:38Z</time>
      </trkpt>
      <trkpt lat="42.4368560" lon="-3.0867910">
        <ele>765.2</ele>
        <time>2022-06-27T09:25:39Z</time>
      </trkpt>
      <trkpt lat="42.4367650" lon="-3.0868580">
        <ele>764.6</ele>
        <time>2022-06-27T09:25:40Z</time>
      </trkpt>
      <trkpt lat="42.4366730" lon="-3.0869280">
        <ele>764.2</ele>
        <time>2022-06-27T09:25:41Z</time>
      </trkpt>
      <trkpt lat="42.4365990" lon="-3.0869810">
        <ele>763.8</ele>
        <time>2022-06-27T09:25:42Z</time>
      </trkpt>
      <trkpt lat="42.4365080" lon="-3.0870530">
        <ele>763.6</ele>
        <time>2022-06-27T09:25:43Z</time>
      </trkpt>
      <trkpt lat="42.4364200" lon="-3.0871290">
        <ele>763.0</ele>
        <time>2022-06-27T09:25:44Z</time>
      </trkpt>
      <trkpt lat="42.4363340" lon="-3.0872100">
        <ele>762.6</ele>
        <time>2022-06-27T09:25:45Z</time>
      </trkpt>
      <trkpt lat="42.4362510" lon="-3.0872940">
        <ele>761.6</ele>
        <time>2022-06-27T09:25:46Z</time>
      </trkpt>
      <trkpt lat="42.4361530" lon="-3.0874010">
        <ele>761.0</ele>
        <time>2022-06-27T09:25:47Z</time>
      </trkpt>
      <trkpt lat="42.4360930" lon="-3.0874750">
        <ele>760.8</ele>
        <time>2022-06-27T09:25:48Z</time>
      </trkpt>
      <trkpt lat="42.4360220" lon="-3.0875680">
        <ele>760.2</ele>
        <time>2022-06-27T09:25:49Z</time>
      </trkpt>
      <trkpt lat="42.4359540" lon="-3.0876630">
        <ele>760.0</ele>
        <time>2022-06-27T09:25:50Z</time>
      </trkpt>
      <trkpt lat="42.4358870" lon="-3.0877610">
        <ele>759.6</ele>
        <time>2022-06-27T09:25:51Z</time>
      </trkpt>
      <trkpt lat="42.4358230" lon="-3.0878620">
        <ele>759.4</ele>
        <time>2022-06-27T09:25:52Z</time>
      </trkpt>
      <trkpt lat="42.4357610" lon="-3.0879660">
        <ele>759.2</ele>
        <time>2022-06-27T09:25:53Z</time>
      </trkpt>
      <trkpt lat="42.4357040" lon="-3.0880700">
        <ele>759.0</ele>
        <time>2022-06-27T09:25:54Z</time>
      </trkpt>
      <trkpt lat="42.4356370" lon="-3.0881970">
        <ele>758.8</ele>
        <time>2022-06-27T09:25:55Z</time>
      </trkpt>
      <trkpt lat="42.4355850" lon="-3.0883000">
        <ele>758.6</ele>
        <time>2022-06-27T09:25:56Z</time>
      </trkpt>
      <trkpt lat="42.4355370" lon="-3.0884070">
        <ele>758.6</ele>
        <time>2022-06-27T09:25:57Z</time>
      </trkpt>
      <trkpt lat="42.4355000" lon="-3.0884940">
        <ele>758.4</ele>
        <time>2022-06-27T09:25:58Z</time>
      </trkpt>
      <trkpt lat="42.4354550" lon="-3.0886030">
        <ele>758.4</ele>
        <time>2022-06-27T09:25:59Z</time>
      </trkpt>
      <trkpt lat="42.4354150" lon="-3.0887100">
        <ele>758.2</ele>
        <time>2022-06-27T09:26:00Z</time>
      </trkpt>
      <trkpt lat="42.4353760" lon="-3.0888170">
        <ele>758.0</ele>
        <time>2022-06-27T09:26:01Z</time>
      </trkpt>
      <trkpt lat="42.4353380" lon="-3.0889220">
        <ele>758.0</ele>
        <time>2022-06-27T09:26:02Z</time>
      </trkpt>
      <trkpt lat="42.4352930" lon="-3.0890500">
        <ele>758.0</ele>
        <time>2022-06-27T09:26:03Z</time>
      </trkpt>
      <trkpt lat="42.4352650" lon="-3.0891350">
        <ele>758.0</ele>
        <time>2022-06-27T09:26:04Z</time>
      </trkpt>
      <trkpt lat="42.4352290" lon="-3.0892400">
        <ele>758.0</ele>
        <time>2022-06-27T09:26:05Z</time>
      </trkpt>
      <trkpt lat="42.4351880" lon="-3.0893650">
        <ele>757.8</ele>
        <time>2022-06-27T09:26:06Z</time>
      </trkpt>
      <trkpt lat="42.4351610" lon="-3.0894620">
        <ele>757.8</ele>
        <time>2022-06-27T09:26:07Z</time>
      </trkpt>
      <trkpt lat="42.4351390" lon="-3.0895410">
        <ele>757.6</ele>
        <time>2022-06-27T09:26:08Z</time>
      </trkpt>
      <trkpt lat="42.4351120" lon="-3.0896420">
        <ele>757.6</ele>
        <time>2022-06-27T09:26:09Z</time>
      </trkpt>
      <trkpt lat="42.4350870" lon="-3.0897420">
        <ele>757.6</ele>
        <time>2022-06-27T09:26:10Z</time>
      </trkpt>
      <trkpt lat="42.4350530" lon="-3.0898630">
        <ele>757.6</ele>
        <time>2022-06-27T09:26:11Z</time>
      </trkpt>
      <trkpt lat="42.4350310" lon="-3.0899410">
        <ele>757.4</ele>
        <time>2022-06-27T09:26:12Z</time>
      </trkpt>
      <trkpt lat="42.4350060" lon="-3.0900380">
        <ele>757.4</ele>
        <time>2022-06-27T09:26:13Z</time>
      </trkpt>
      <trkpt lat="42.4349810" lon="-3.0901330">
        <ele>757.4</ele>
        <time>2022-06-27T09:26:14Z</time>
      </trkpt>
      <trkpt lat="42.4349580" lon="-3.0902250">
        <ele>757.4</ele>
        <time>2022-06-27T09:26:15Z</time>
      </trkpt>
      <trkpt lat="42.4349340" lon="-3.0903160">
        <ele>757.4</ele>
        <time>2022-06-27T09:26:16Z</time>
      </trkpt>
      <trkpt lat="42.4349060" lon="-3.0904240">
        <ele>757.6</ele>
        <time>2022-06-27T09:26:17Z</time>
      </trkpt>
      <trkpt lat="42.4348830" lon="-3.0905110">
        <ele>757.6</ele>
        <time>2022-06-27T09:26:18Z</time>
      </trkpt>
      <trkpt lat="42.4348600" lon="-3.0905960">
        <ele>757.6</ele>
        <time>2022-06-27T09:26:19Z</time>
      </trkpt>
      <trkpt lat="42.4348440" lon="-3.0906610">
        <ele>757.8</ele>
        <time>2022-06-27T09:26:20Z</time>
      </trkpt>
      <trkpt lat="42.4348210" lon="-3.0907420">
        <ele>758.0</ele>
        <time>2022-06-27T09:26:21Z</time>
      </trkpt>
      <trkpt lat="42.4348000" lon="-3.0908230">
        <ele>758.0</ele>
        <time>2022-06-27T09:26:22Z</time>
      </trkpt>
      <trkpt lat="42.4347740" lon="-3.0909180">
        <ele>758.2</ele>
        <time>2022-06-27T09:26:23Z</time>
      </trkpt>
      <trkpt lat="42.4347540" lon="-3.0909950">
        <ele>758.6</ele>
        <time>2022-06-27T09:26:24Z</time>
      </trkpt>
      <trkpt lat="42.4347370" lon="-3.0910580">
        <ele>758.8</ele>
        <time>2022-06-27T09:26:25Z</time>
      </trkpt>
      <trkpt lat="42.4347170" lon="-3.0911360">
        <ele>759.2</ele>
        <time>2022-06-27T09:26:26Z</time>
      </trkpt>
      <trkpt lat="42.4346970" lon="-3.0912130">
        <ele>759.2</ele>
        <time>2022-06-27T09:26:27Z</time>
      </trkpt>
      <trkpt lat="42.4346760" lon="-3.0912900">
        <ele>759.4</ele>
        <time>2022-06-27T09:26:28Z</time>
      </trkpt>
      <trkpt lat="42.4346530" lon="-3.0913800">
        <ele>759.6</ele>
        <time>2022-06-27T09:26:29Z</time>
      </trkpt>
      <trkpt lat="42.4346350" lon="-3.0914530">
        <ele>759.8</ele>
        <time>2022-06-27T09:26:30Z</time>
      </trkpt>
      <trkpt lat="42.4346210" lon="-3.0915090">
        <ele>759.8</ele>
        <time>2022-06-27T09:26:31Z</time>
      </trkpt>
      <trkpt lat="42.4346000" lon="-3.0915800">
        <ele>760.0</ele>
        <time>2022-06-27T09:26:32Z</time>
      </trkpt>
      <trkpt lat="42.4345780" lon="-3.0916600">
        <ele>760.2</ele>
        <time>2022-06-27T09:26:33Z</time>
      </trkpt>
      <trkpt lat="42.4345600" lon="-3.0917320">
        <ele>760.4</ele>
        <time>2022-06-27T09:26:34Z</time>
      </trkpt>
      <trkpt lat="42.4345470" lon="-3.0917870">
        <ele>760.6</ele>
        <time>2022-06-27T09:26:35Z</time>
      </trkpt>
      <trkpt lat="42.4345260" lon="-3.0918580">
        <ele>760.8</ele>
        <time>2022-06-27T09:26:36Z</time>
      </trkpt>
      <trkpt lat="42.4345110" lon="-3.0919280">
        <ele>761.0</ele>
        <time>2022-06-27T09:26:37Z</time>
      </trkpt>
      <trkpt lat="42.4345010" lon="-3.0919920">
        <ele>761.2</ele>
        <time>2022-06-27T09:26:38Z</time>
      </trkpt>
      <trkpt lat="42.4344840" lon="-3.0920580">
        <ele>761.4</ele>
        <time>2022-06-27T09:26:39Z</time>
      </trkpt>
      <trkpt lat="42.4344640" lon="-3.0921350">
        <ele>761.6</ele>
        <time>2022-06-27T09:26:40Z</time>
      </trkpt>
      <trkpt lat="42.4344500" lon="-3.0921850">
        <ele>761.6</ele>
        <time>2022-06-27T09:26:41Z</time>
      </trkpt>
      <trkpt lat="42.4344320" lon="-3.0922470">
        <ele>761.8</ele>
        <time>2022-06-27T09:26:42Z</time>
      </trkpt>
      <trkpt lat="42.4344150" lon="-3.0923090">
        <ele>761.8</ele>
        <time>2022-06-27T09:26:43Z</time>
      </trkpt>
      <trkpt lat="42.4343950" lon="-3.0923810">
        <ele>762.0</ele>
        <time>2022-06-27T09:26:44Z</time>
      </trkpt>
      <trkpt lat="42.4343820" lon="-3.0924280">
        <ele>762.2</ele>
        <time>2022-06-27T09:26:45Z</time>
      </trkpt>
      <trkpt lat="42.4343660" lon="-3.0924880">
        <ele>762.2</ele>
        <time>2022-06-27T09:26:46Z</time>
      </trkpt>
      <trkpt lat="42.4343530" lon="-3.0925450">
        <ele>762.4</ele>
        <time>2022-06-27T09:26:47Z</time>
      </trkpt>
      <trkpt lat="42.4343390" lon="-3.0926020">
        <ele>762.6</ele>
        <time>2022-06-27T09:26:48Z</time>
      </trkpt>
      <trkpt lat="42.4343230" lon="-3.0926700">
        <ele>763.0</ele>
        <time>2022-06-27T09:26:49Z</time>
      </trkpt>
      <trkpt lat="42.4343130" lon="-3.0927230">
        <ele>763.2</ele>
        <time>2022-06-27T09:26:50Z</time>
      </trkpt>
      <trkpt lat="42.4343060" lon="-3.0927730">
        <ele>763.8</ele>
        <time>2022-06-27T09:26:51Z</time>
      </trkpt>
      <trkpt lat="42.4342940" lon="-3.0928250">
        <ele>764.2</ele>
        <time>2022-06-27T09:26:52Z</time>
      </trkpt>
      <trkpt lat="42.4342840" lon="-3.0928680">
        <ele>764.4</ele>
        <time>2022-06-27T09:26:53Z</time>
      </trkpt>
      <trkpt lat="42.4342680" lon="-3.0929320">
        <ele>764.6</ele>
        <time>2022-06-27T09:26:54Z</time>
      </trkpt>
      <trkpt lat="42.4342540" lon="-3.0929860">
        <ele>764.8</ele>
        <time>2022-06-27T09:26:55Z</time>
      </trkpt>
      <trkpt lat="42.4342400" lon="-3.0930370">
        <ele>764.8</ele>
        <time>2022-06-27T09:26:56Z</time>
      </trkpt>
      <trkpt lat="42.4342240" lon="-3.0930870">
        <ele>765.0</ele>
        <time>2022-06-27T09:26:57Z</time>
      </trkpt>
      <trkpt lat="42.4342130" lon="-3.0931270">
        <ele>765.4</ele>
        <time>2022-06-27T09:26:58Z</time>
      </trkpt>
      <trkpt lat="42.4342000" lon="-3.0931770">
        <ele>765.6</ele>
        <time>2022-06-27T09:26:59Z</time>
      </trkpt>
      <trkpt lat="42.4341850" lon="-3.0932400">
        <ele>766.0</ele>
        <time>2022-06-27T09:27:00Z</time>
      </trkpt>
      <trkpt lat="42.4341750" lon="-3.0932810">
        <ele>766.2</ele>
        <time>2022-06-27T09:27:01Z</time>
      </trkpt>
      <trkpt lat="42.4341600" lon="-3.0933310">
        <ele>766.4</ele>
        <time>2022-06-27T09:27:02Z</time>
      </trkpt>
      <trkpt lat="42.4341470" lon="-3.0933820">
        <ele>766.6</ele>
        <time>2022-06-27T09:27:03Z</time>
      </trkpt>
      <trkpt lat="42.4341390" lon="-3.0934290">
        <ele>766.8</ele>
        <time>2022-06-27T09:27:04Z</time>
      </trkpt>
      <trkpt lat="42.4341270" lon="-3.0934850">
        <ele>767.2</ele>
        <time>2022-06-27T09:27:05Z</time>
      </trkpt>
      <trkpt lat="42.4341170" lon="-3.0935240">
        <ele>767.4</ele>
        <time>2022-06-27T09:27:06Z</time>
      </trkpt>
      <trkpt lat="42.4341030" lon="-3.0935820">
        <ele>767.6</ele>
        <time>2022-06-27T09:27:07Z</time>
      </trkpt>
      <trkpt lat="42.4340940" lon="-3.0936230">
        <ele>768.0</ele>
        <time>2022-06-27T09:27:08Z</time>
      </trkpt>
      <trkpt lat="42.4340830" lon="-3.0936760">
        <ele>768.0</ele>
        <time>2022-06-27T09:27:09Z</time>
      </trkpt>
      <trkpt lat="42.4340720" lon="-3.0937280">
        <ele>768.4</ele>
        <time>2022-06-27T09:27:10Z</time>
      </trkpt>
      <trkpt lat="42.4340560" lon="-3.0937920">
        <ele>768.6</ele>
        <time>2022-06-27T09:27:11Z</time>
      </trkpt>
      <trkpt lat="42.4340450" lon="-3.0938340">
        <ele>769.0</ele>
        <time>2022-06-27T09:27:12Z</time>
      </trkpt>
      <trkpt lat="42.4340330" lon="-3.0938860">
        <ele>769.2</ele>
        <time>2022-06-27T09:27:13Z</time>
      </trkpt>
      <trkpt lat="42.4340170" lon="-3.0939380">
        <ele>769.4</ele>
        <time>2022-06-27T09:27:14Z</time>
      </trkpt>
      <trkpt lat="42.4339980" lon="-3.0939990">
        <ele>769.6</ele>
        <time>2022-06-27T09:27:15Z</time>
      </trkpt>
      <trkpt lat="42.4339860" lon="-3.0940440">
        <ele>769.8</ele>
        <time>2022-06-27T09:27:16Z</time>
      </trkpt>
      <trkpt lat="42.4339670" lon="-3.0941130">
        <ele>770.0</ele>
        <time>2022-06-27T09:27:17Z</time>
      </trkpt>
      <trkpt lat="42.4339540" lon="-3.0941600">
        <ele>770.2</ele>
        <time>2022-06-27T09:27:18Z</time>
      </trkpt>
      <trkpt lat="42.4339400" lon="-3.0942220">
        <ele>770.4</ele>
        <time>2022-06-27T09:27:19Z</time>
      </trkpt>
      <trkpt lat="42.4339280" lon="-3.0942860">
        <ele>770.6</ele>
        <time>2022-06-27T09:27:20Z</time>
      </trkpt>
      <trkpt lat="42.4339130" lon="-3.0943530">
        <ele>770.6</ele>
        <time>2022-06-27T09:27:21Z</time>
      </trkpt>
      <trkpt lat="42.4338970" lon="-3.0944230">
        <ele>770.8</ele>
        <time>2022-06-27T09:27:22Z</time>
      </trkpt>
      <trkpt lat="42.4338790" lon="-3.0944970">
        <ele>770.8</ele>
        <time>2022-06-27T09:27:23Z</time>
      </trkpt>
      <trkpt lat="42.4338600" lon="-3.0945780">
        <ele>771.0</ele>
        <time>2022-06-27T09:27:24Z</time>
      </trkpt>
      <trkpt lat="42.4338420" lon="-3.0946630">
        <ele>771.0</ele>
        <time>2022-06-27T09:27:25Z</time>
      </trkpt>
      <trkpt lat="42.4338200" lon="-3.0947540">
        <ele>771.0</ele>
        <time>2022-06-27T09:27:26Z</time>
      </trkpt>
      <trkpt lat="42.4337990" lon="-3.0948480">
        <ele>770.8</ele>
        <time>2022-06-27T09:27:27Z</time>
      </trkpt>
      <trkpt lat="42.4337760" lon="-3.0949460">
        <ele>770.8</ele>
        <time>2022-06-27T09:27:28Z</time>
      </trkpt>
      <trkpt lat="42.4337500" lon="-3.0950480">
        <ele>770.8</ele>
        <time>2022-06-27T09:27:29Z</time>
      </trkpt>
      <trkpt lat="42.4337250" lon="-3.0951550">
        <ele>770.8</ele>
        <time>2022-06-27T09:27:30Z</time>
      </trkpt>
      <trkpt lat="42.4337040" lon="-3.0952470">
        <ele>770.8</ele>
        <time>2022-06-27T09:27:31Z</time>
      </trkpt>
      <trkpt lat="42.4336820" lon="-3.0953400">
        <ele>770.6</ele>
        <time>2022-06-27T09:27:32Z</time>
      </trkpt>
      <trkpt lat="42.4336400" lon="-3.0955250">
        <ele>770.6</ele>
        <time>2022-06-27T09:27:33Z</time>
      </trkpt>
      <trkpt lat="42.4336160" lon="-3.0956240">
        <ele>770.4</ele>
        <time>2022-06-27T09:27:34Z</time>
      </trkpt>
      <trkpt lat="42.4335870" lon="-3.0957490">
        <ele>770.2</ele>
        <time>2022-06-27T09:27:35Z</time>
      </trkpt>
      <trkpt lat="42.4335570" lon="-3.0958740">
        <ele>770.0</ele>
        <time>2022-06-27T09:27:36Z</time>
      </trkpt>
      <trkpt lat="42.4335290" lon="-3.0960010">
        <ele>769.6</ele>
        <time>2022-06-27T09:27:37Z</time>
      </trkpt>
      <trkpt lat="42.4334980" lon="-3.0961300">
        <ele>769.2</ele>
        <time>2022-06-27T09:27:38Z</time>
      </trkpt>
      <trkpt lat="42.4334660" lon="-3.0962610">
        <ele>769.0</ele>
        <time>2022-06-27T09:27:39Z</time>
      </trkpt>
      <trkpt lat="42.4334350" lon="-3.0963920">
        <ele>768.6</ele>
        <time>2022-06-27T09:27:40Z</time>
      </trkpt>
      <trkpt lat="42.4334060" lon="-3.0965260">
        <ele>768.4</ele>
        <time>2022-06-27T09:27:41Z</time>
      </trkpt>
      <trkpt lat="42.4333760" lon="-3.0966620">
        <ele>768.0</ele>
        <time>2022-06-27T09:27:42Z</time>
      </trkpt>
      <trkpt lat="42.4333440" lon="-3.0967990">
        <ele>768.0</ele>
        <time>2022-06-27T09:27:43Z</time>
      </trkpt>
      <trkpt lat="42.4333120" lon="-3.0969400">
        <ele>767.4</ele>
        <time>2022-06-27T09:27:44Z</time>
      </trkpt>
      <trkpt lat="42.4332790" lon="-3.0970830">
        <ele>767.0</ele>
        <time>2022-06-27T09:27:45Z</time>
      </trkpt>
      <trkpt lat="42.4332450" lon="-3.0972260">
        <ele>766.8</ele>
        <time>2022-06-27T09:27:46Z</time>
      </trkpt>
      <trkpt lat="42.4332050" lon="-3.0973990">
        <ele>766.2</ele>
        <time>2022-06-27T09:27:47Z</time>
      </trkpt>
      <trkpt lat="42.4331800" lon="-3.0975150">
        <ele>766.0</ele>
        <time>2022-06-27T09:27:48Z</time>
      </trkpt>
      <trkpt lat="42.4331410" lon="-3.0976860">
        <ele>765.4</ele>
        <time>2022-06-27T09:27:49Z</time>
      </trkpt>
      <trkpt lat="42.4331140" lon="-3.0978000">
        <ele>765.2</ele>
        <time>2022-06-27T09:27:50Z</time>
      </trkpt>
      <trkpt lat="42.4330810" lon="-3.0979400">
        <ele>764.8</ele>
        <time>2022-06-27T09:27:51Z</time>
      </trkpt>
      <trkpt lat="42.4330480" lon="-3.0980820">
        <ele>764.0</ele>
        <time>2022-06-27T09:27:52Z</time>
      </trkpt>
      <trkpt lat="42.4330080" lon="-3.0982520">
        <ele>763.8</ele>
        <time>2022-06-27T09:27:53Z</time>
      </trkpt>
      <trkpt lat="42.4329780" lon="-3.0983660">
        <ele>763.4</ele>
        <time>2022-06-27T09:27:54Z</time>
      </trkpt>
      <trkpt lat="42.4329360" lon="-3.0985350">
        <ele>763.4</ele>
        <time>2022-06-27T09:27:55Z</time>
      </trkpt>
      <trkpt lat="42.4329090" lon="-3.0986460">
        <ele>762.8</ele>
        <time>2022-06-27T09:27:56Z</time>
      </trkpt>
      <trkpt lat="42.4328760" lon="-3.0987870">
        <ele>762.4</ele>
        <time>2022-06-27T09:27:57Z</time>
      </trkpt>
      <trkpt lat="42.4328400" lon="-3.0989310">
        <ele>761.8</ele>
        <time>2022-06-27T09:27:58Z</time>
      </trkpt>
      <trkpt lat="42.4328050" lon="-3.0990730">
        <ele>761.6</ele>
        <time>2022-06-27T09:27:59Z</time>
      </trkpt>
      <trkpt lat="42.4327630" lon="-3.0992420">
        <ele>761.2</ele>
        <time>2022-06-27T09:28:00Z</time>
      </trkpt>
      <trkpt lat="42.4327320" lon="-3.0993570">
        <ele>760.8</ele>
        <time>2022-06-27T09:28:01Z</time>
      </trkpt>
      <trkpt lat="42.4326970" lon="-3.0995010">
        <ele>760.6</ele>
        <time>2022-06-27T09:28:02Z</time>
      </trkpt>
      <trkpt lat="42.4326630" lon="-3.0996450">
        <ele>759.6</ele>
        <time>2022-06-27T09:28:03Z</time>
      </trkpt>
      <trkpt lat="42.4326290" lon="-3.0997900">
        <ele>759.4</ele>
        <time>2022-06-27T09:28:04Z</time>
      </trkpt>
      <trkpt lat="42.4325920" lon="-3.0999660">
        <ele>758.8</ele>
        <time>2022-06-27T09:28:05Z</time>
      </trkpt>
      <trkpt lat="42.4325610" lon="-3.1001150">
        <ele>758.8</ele>
        <time>2022-06-27T09:28:06Z</time>
      </trkpt>
      <trkpt lat="42.4325360" lon="-3.1002330">
        <ele>758.4</ele>
        <time>2022-06-27T09:28:07Z</time>
      </trkpt>
      <trkpt lat="42.4325060" lon="-3.1003820">
        <ele>758.0</ele>
        <time>2022-06-27T09:28:08Z</time>
      </trkpt>
      <trkpt lat="42.4324720" lon="-3.1005610">
        <ele>757.8</ele>
        <time>2022-06-27T09:28:09Z</time>
      </trkpt>
      <trkpt lat="42.4324460" lon="-3.1007120">
        <ele>757.0</ele>
        <time>2022-06-27T09:28:10Z</time>
      </trkpt>
      <trkpt lat="42.4324230" lon="-3.1008650">
        <ele>756.8</ele>
        <time>2022-06-27T09:28:11Z</time>
      </trkpt>
      <trkpt lat="42.4324060" lon="-3.1009880">
        <ele>756.2</ele>
        <time>2022-06-27T09:28:12Z</time>
      </trkpt>
      <trkpt lat="42.4323870" lon="-3.1011440">
        <ele>756.0</ele>
        <time>2022-06-27T09:28:13Z</time>
      </trkpt>
      <trkpt lat="42.4323690" lon="-3.1013020">
        <ele>755.8</ele>
        <time>2022-06-27T09:28:14Z</time>
      </trkpt>
      <trkpt lat="42.4323550" lon="-3.1014590">
        <ele>755.4</ele>
        <time>2022-06-27T09:28:15Z</time>
      </trkpt>
      <trkpt lat="42.4323410" lon="-3.1016180">
        <ele>755.2</ele>
        <time>2022-06-27T09:28:16Z</time>
      </trkpt>
      <trkpt lat="42.4323270" lon="-3.1017790">
        <ele>754.6</ele>
        <time>2022-06-27T09:28:17Z</time>
      </trkpt>
      <trkpt lat="42.4323140" lon="-3.1019350">
        <ele>754.2</ele>
        <time>2022-06-27T09:28:18Z</time>
      </trkpt>
      <trkpt lat="42.4323000" lon="-3.1020930">
        <ele>753.4</ele>
        <time>2022-06-27T09:28:19Z</time>
      </trkpt>
      <trkpt lat="42.4322860" lon="-3.1022500">
        <ele>753.0</ele>
        <time>2022-06-27T09:28:20Z</time>
      </trkpt>
      <trkpt lat="42.4322680" lon="-3.1024380">
        <ele>752.2</ele>
        <time>2022-06-27T09:28:21Z</time>
      </trkpt>
      <trkpt lat="42.4322570" lon="-3.1025610">
        <ele>751.6</ele>
        <time>2022-06-27T09:28:22Z</time>
      </trkpt>
      <trkpt lat="42.4322430" lon="-3.1027140">
        <ele>751.4</ele>
        <time>2022-06-27T09:28:23Z</time>
      </trkpt>
      <trkpt lat="42.4322290" lon="-3.1028640">
        <ele>751.0</ele>
        <time>2022-06-27T09:28:24Z</time>
      </trkpt>
      <trkpt lat="42.4322100" lon="-3.1030450">
        <ele>750.8</ele>
        <time>2022-06-27T09:28:25Z</time>
      </trkpt>
      <trkpt lat="42.4321990" lon="-3.1031630">
        <ele>750.4</ele>
        <time>2022-06-27T09:28:26Z</time>
      </trkpt>
      <trkpt lat="42.4321840" lon="-3.1033380">
        <ele>750.2</ele>
        <time>2022-06-27T09:28:27Z</time>
      </trkpt>
      <trkpt lat="42.4321750" lon="-3.1034520">
        <ele>750.0</ele>
        <time>2022-06-27T09:28:28Z</time>
      </trkpt>
      <trkpt lat="42.4321630" lon="-3.1035920">
        <ele>749.8</ele>
        <time>2022-06-27T09:28:29Z</time>
      </trkpt>
      <trkpt lat="42.4321510" lon="-3.1037330">
        <ele>749.4</ele>
        <time>2022-06-27T09:28:30Z</time>
      </trkpt>
      <trkpt lat="42.4321390" lon="-3.1039040">
        <ele>749.0</ele>
        <time>2022-06-27T09:28:31Z</time>
      </trkpt>
      <trkpt lat="42.4321300" lon="-3.1040180">
        <ele>748.8</ele>
        <time>2022-06-27T09:28:32Z</time>
      </trkpt>
      <trkpt lat="42.4321150" lon="-3.1041870">
        <ele>748.4</ele>
        <time>2022-06-27T09:28:33Z</time>
      </trkpt>
      <trkpt lat="42.4321050" lon="-3.1043000">
        <ele>748.4</ele>
        <time>2022-06-27T09:28:34Z</time>
      </trkpt>
      <trkpt lat="42.4320930" lon="-3.1044430">
        <ele>748.2</ele>
        <time>2022-06-27T09:28:35Z</time>
      </trkpt>
      <trkpt lat="42.4320820" lon="-3.1045810">
        <ele>748.2</ele>
        <time>2022-06-27T09:28:36Z</time>
      </trkpt>
      <trkpt lat="42.4320710" lon="-3.1047190">
        <ele>748.0</ele>
        <time>2022-06-27T09:28:37Z</time>
      </trkpt>
      <trkpt lat="42.4320600" lon="-3.1048570">
        <ele>747.8</ele>
        <time>2022-06-27T09:28:38Z</time>
      </trkpt>
      <trkpt lat="42.4320490" lon="-3.1049950">
        <ele>747.8</ele>
        <time>2022-06-27T09:28:39Z</time>
      </trkpt>
      <trkpt lat="42.4320370" lon="-3.1051330">
        <ele>747.6</ele>
        <time>2022-06-27T09:28:40Z</time>
      </trkpt>
      <trkpt lat="42.4320250" lon="-3.1052720">
        <ele>747.4</ele>
        <time>2022-06-27T09:28:41Z</time>
      </trkpt>
      <trkpt lat="42.4320130" lon="-3.1054120">
        <ele>747.2</ele>
        <time>2022-06-27T09:28:42Z</time>
      </trkpt>
      <trkpt lat="42.4320010" lon="-3.1055520">
        <ele>747.2</ele>
        <time>2022-06-27T09:28:43Z</time>
      </trkpt>
      <trkpt lat="42.4319910" lon="-3.1056860">
        <ele>747.0</ele>
        <time>2022-06-27T09:28:44Z</time>
      </trkpt>
      <trkpt lat="42.4319770" lon="-3.1058240">
        <ele>747.0</ele>
        <time>2022-06-27T09:28:45Z</time>
      </trkpt>
      <trkpt lat="42.4319650" lon="-3.1059570">
        <ele>747.0</ele>
        <time>2022-06-27T09:28:46Z</time>
      </trkpt>
      <trkpt lat="42.4319550" lon="-3.1060870">
        <ele>747.0</ele>
        <time>2022-06-27T09:28:47Z</time>
      </trkpt>
      <trkpt lat="42.4319430" lon="-3.1062200">
        <ele>747.0</ele>
        <time>2022-06-27T09:28:48Z</time>
      </trkpt>
      <trkpt lat="42.4319280" lon="-3.1063540">
        <ele>747.2</ele>
        <time>2022-06-27T09:28:49Z</time>
      </trkpt>
      <trkpt lat="42.4319150" lon="-3.1064840">
        <ele>747.2</ele>
        <time>2022-06-27T09:28:50Z</time>
      </trkpt>
      <trkpt lat="42.4319060" lon="-3.1066100">
        <ele>747.2</ele>
        <time>2022-06-27T09:28:51Z</time>
      </trkpt>
      <trkpt lat="42.4318980" lon="-3.1067340">
        <ele>747.2</ele>
        <time>2022-06-27T09:28:52Z</time>
      </trkpt>
      <trkpt lat="42.4318860" lon="-3.1068620">
        <ele>747.2</ele>
        <time>2022-06-27T09:28:53Z</time>
      </trkpt>
      <trkpt lat="42.4318750" lon="-3.1069870">
        <ele>747.4</ele>
        <time>2022-06-27T09:28:54Z</time>
      </trkpt>
      <trkpt lat="42.4318680" lon="-3.1071060">
        <ele>747.4</ele>
        <time>2022-06-27T09:28:55Z</time>
      </trkpt>
      <trkpt lat="42.4318580" lon="-3.1072270">
        <ele>747.4</ele>
        <time>2022-06-27T09:28:56Z</time>
      </trkpt>
      <trkpt lat="42.4318470" lon="-3.1073490">
        <ele>747.4</ele>
        <time>2022-06-27T09:28:57Z</time>
      </trkpt>
      <trkpt lat="42.4318370" lon="-3.1074730">
        <ele>747.6</ele>
        <time>2022-06-27T09:28:58Z</time>
      </trkpt>
      <trkpt lat="42.4318270" lon="-3.1075950">
        <ele>747.6</ele>
        <time>2022-06-27T09:28:59Z</time>
      </trkpt>
      <trkpt lat="42.4318150" lon="-3.1077210">
        <ele>747.6</ele>
        <time>2022-06-27T09:29:00Z</time>
      </trkpt>
      <trkpt lat="42.4318030" lon="-3.1078480">
        <ele>747.8</ele>
        <time>2022-06-27T09:29:01Z</time>
      </trkpt>
      <trkpt lat="42.4317900" lon="-3.1079740">
        <ele>747.8</ele>
        <time>2022-06-27T09:29:02Z</time>
      </trkpt>
      <trkpt lat="42.4317770" lon="-3.1081220">
        <ele>747.8</ele>
        <time>2022-06-27T09:29:03Z</time>
      </trkpt>
      <trkpt lat="42.4317690" lon="-3.1082190">
        <ele>747.8</ele>
        <time>2022-06-27T09:29:04Z</time>
      </trkpt>
      <trkpt lat="42.4317590" lon="-3.1083620">
        <ele>748.0</ele>
        <time>2022-06-27T09:29:05Z</time>
      </trkpt>
      <trkpt lat="42.4317500" lon="-3.1084820">
        <ele>748.2</ele>
        <time>2022-06-27T09:29:06Z</time>
      </trkpt>
      <trkpt lat="42.4317420" lon="-3.1086000">
        <ele>748.0</ele>
        <time>2022-06-27T09:29:07Z</time>
      </trkpt>
      <trkpt lat="42.4317320" lon="-3.1087180">
        <ele>748.0</ele>
        <time>2022-06-27T09:29:08Z</time>
      </trkpt>
      <trkpt lat="42.4317220" lon="-3.1088340">
        <ele>748.0</ele>
        <time>2022-06-27T09:29:09Z</time>
      </trkpt>
      <trkpt lat="42.4317100" lon="-3.1089500">
        <ele>748.2</ele>
        <time>2022-06-27T09:29:10Z</time>
      </trkpt>
      <trkpt lat="42.4317000" lon="-3.1090620">
        <ele>748.2</ele>
        <time>2022-06-27T09:29:11Z</time>
      </trkpt>
      <trkpt lat="42.4316900" lon="-3.1091720">
        <ele>748.2</ele>
        <time>2022-06-27T09:29:12Z</time>
      </trkpt>
      <trkpt lat="42.4316800" lon="-3.1092830">
        <ele>748.4</ele>
        <time>2022-06-27T09:29:13Z</time>
      </trkpt>
      <trkpt lat="42.4316720" lon="-3.1093890">
        <ele>748.6</ele>
        <time>2022-06-27T09:29:14Z</time>
      </trkpt>
      <trkpt lat="42.4316660" lon="-3.1094910">
        <ele>749.0</ele>
        <time>2022-06-27T09:29:15Z</time>
      </trkpt>
      <trkpt lat="42.4316560" lon="-3.1095910">
        <ele>749.0</ele>
        <time>2022-06-27T09:29:16Z</time>
      </trkpt>
      <trkpt lat="42.4316480" lon="-3.1096900">
        <ele>749.2</ele>
        <time>2022-06-27T09:29:17Z</time>
      </trkpt>
      <trkpt lat="42.4316400" lon="-3.1097880">
        <ele>749.4</ele>
        <time>2022-06-27T09:29:18Z</time>
      </trkpt>
      <trkpt lat="42.4316320" lon="-3.1098830">
        <ele>749.8</ele>
        <time>2022-06-27T09:29:19Z</time>
      </trkpt>
      <trkpt lat="42.4316240" lon="-3.1099730">
        <ele>750.0</ele>
        <time>2022-06-27T09:29:20Z</time>
      </trkpt>
      <trkpt lat="42.4316190" lon="-3.1100600">
        <ele>750.4</ele>
        <time>2022-06-27T09:29:21Z</time>
      </trkpt>
      <trkpt lat="42.4316120" lon="-3.1101480">
        <ele>750.8</ele>
        <time>2022-06-27T09:29:22Z</time>
      </trkpt>
      <trkpt lat="42.4316040" lon="-3.1102380">
        <ele>751.0</ele>
        <time>2022-06-27T09:29:23Z</time>
      </trkpt>
      <trkpt lat="42.4315950" lon="-3.1103270">
        <ele>751.2</ele>
        <time>2022-06-27T09:29:24Z</time>
      </trkpt>
      <trkpt lat="42.4315870" lon="-3.1104140">
        <ele>751.4</ele>
        <time>2022-06-27T09:29:25Z</time>
      </trkpt>
      <trkpt lat="42.4315800" lon="-3.1104990">
        <ele>751.6</ele>
        <time>2022-06-27T09:29:26Z</time>
      </trkpt>
      <trkpt lat="42.4315750" lon="-3.1105810">
        <ele>751.8</ele>
        <time>2022-06-27T09:29:27Z</time>
      </trkpt>
      <trkpt lat="42.4315690" lon="-3.1106630">
        <ele>752.0</ele>
        <time>2022-06-27T09:29:28Z</time>
      </trkpt>
      <trkpt lat="42.4315620" lon="-3.1107480">
        <ele>752.2</ele>
        <time>2022-06-27T09:29:29Z</time>
      </trkpt>
      <trkpt lat="42.4315550" lon="-3.1108300">
        <ele>752.6</ele>
        <time>2022-06-27T09:29:30Z</time>
      </trkpt>
      <trkpt lat="42.4315480" lon="-3.1109090">
        <ele>752.8</ele>
        <time>2022-06-27T09:29:31Z</time>
      </trkpt>
      <trkpt lat="42.4315390" lon="-3.1109880">
        <ele>753.0</ele>
        <time>2022-06-27T09:29:32Z</time>
      </trkpt>
      <trkpt lat="42.4315300" lon="-3.1110630">
        <ele>753.6</ele>
        <time>2022-06-27T09:29:33Z</time>
      </trkpt>
      <trkpt lat="42.4315230" lon="-3.1111350">
        <ele>753.8</ele>
        <time>2022-06-27T09:29:34Z</time>
      </trkpt>
      <trkpt lat="42.4315200" lon="-3.1112060">
        <ele>754.0</ele>
        <time>2022-06-27T09:29:35Z</time>
      </trkpt>
      <trkpt lat="42.4315160" lon="-3.1112770">
        <ele>754.0</ele>
        <time>2022-06-27T09:29:36Z</time>
      </trkpt>
      <trkpt lat="42.4315090" lon="-3.1113480">
        <ele>754.4</ele>
        <time>2022-06-27T09:29:37Z</time>
      </trkpt>
      <trkpt lat="42.4315020" lon="-3.1114180">
        <ele>754.6</ele>
        <time>2022-06-27T09:29:38Z</time>
      </trkpt>
      <trkpt lat="42.4314960" lon="-3.1114870">
        <ele>754.8</ele>
        <time>2022-06-27T09:29:39Z</time>
      </trkpt>
      <trkpt lat="42.4314890" lon="-3.1115530">
        <ele>755.0</ele>
        <time>2022-06-27T09:29:40Z</time>
      </trkpt>
      <trkpt lat="42.4314800" lon="-3.1116210">
        <ele>755.2</ele>
        <time>2022-06-27T09:29:41Z</time>
      </trkpt>
      <trkpt lat="42.4314710" lon="-3.1116900">
        <ele>755.4</ele>
        <time>2022-06-27T09:29:42Z</time>
      </trkpt>
      <trkpt lat="42.4314660" lon="-3.1117570">
        <ele>755.6</ele>
        <time>2022-06-27T09:29:43Z</time>
      </trkpt>
      <trkpt lat="42.4314630" lon="-3.1118230">
        <ele>755.8</ele>
        <time>2022-06-27T09:29:44Z</time>
      </trkpt>
      <trkpt lat="42.4314600" lon="-3.1118870">
        <ele>756.0</ele>
        <time>2022-06-27T09:29:45Z</time>
      </trkpt>
      <trkpt lat="42.4314570" lon="-3.1119510">
        <ele>756.4</ele>
        <time>2022-06-27T09:29:46Z</time>
      </trkpt>
      <trkpt lat="42.4314540" lon="-3.1120120">
        <ele>757.0</ele>
        <time>2022-06-27T09:29:47Z</time>
      </trkpt>
      <trkpt lat="42.4314490" lon="-3.1120710">
        <ele>757.0</ele>
        <time>2022-06-27T09:29:48Z</time>
      </trkpt>
      <trkpt lat="42.4314450" lon="-3.1121320">
        <ele>757.4</ele>
        <time>2022-06-27T09:29:49Z</time>
      </trkpt>
      <trkpt lat="42.4314420" lon="-3.1121960">
        <ele>757.6</ele>
        <time>2022-06-27T09:29:50Z</time>
      </trkpt>
      <trkpt lat="42.4314360" lon="-3.1122600">
        <ele>758.0</ele>
        <time>2022-06-27T09:29:51Z</time>
      </trkpt>
      <trkpt lat="42.4314310" lon="-3.1123220">
        <ele>758.2</ele>
        <time>2022-06-27T09:29:52Z</time>
      </trkpt>
      <trkpt lat="42.4314250" lon="-3.1123830">
        <ele>758.2</ele>
        <time>2022-06-27T09:29:53Z</time>
      </trkpt>
      <trkpt lat="42.4314200" lon="-3.1124440">
        <ele>758.4</ele>
        <time>2022-06-27T09:29:54Z</time>
      </trkpt>
      <trkpt lat="42.4314150" lon="-3.1125080">
        <ele>758.6</ele>
        <time>2022-06-27T09:29:55Z</time>
      </trkpt>
      <trkpt lat="42.4314090" lon="-3.1125720">
        <ele>759.0</ele>
        <time>2022-06-27T09:29:56Z</time>
      </trkpt>
      <trkpt lat="42.4314040" lon="-3.1126360">
        <ele>759.2</ele>
        <time>2022-06-27T09:29:57Z</time>
      </trkpt>
      <trkpt lat="42.4314010" lon="-3.1126990">
        <ele>759.4</ele>
        <time>2022-06-27T09:29:58Z</time>
      </trkpt>
      <trkpt lat="42.4313980" lon="-3.1127590">
        <ele>759.8</ele>
        <time>2022-06-27T09:29:59Z</time>
      </trkpt>
      <trkpt lat="42.4313950" lon="-3.1128200">
        <ele>760.0</ele>
        <time>2022-06-27T09:30:00Z</time>
      </trkpt>
      <trkpt lat="42.4313900" lon="-3.1128820">
        <ele>760.4</ele>
        <time>2022-06-27T09:30:01Z</time>
      </trkpt>
      <trkpt lat="42.4313850" lon="-3.1129440">
        <ele>760.6</ele>
        <time>2022-06-27T09:30:02Z</time>
      </trkpt>
      <trkpt lat="42.4313780" lon="-3.1130040">
        <ele>760.8</ele>
        <time>2022-06-27T09:30:03Z</time>
      </trkpt>
      <trkpt lat="42.4313710" lon="-3.1130630">
        <ele>760.8</ele>
        <time>2022-06-27T09:30:04Z</time>
      </trkpt>
      <trkpt lat="42.4313650" lon="-3.1131260">
        <ele>761.2</ele>
        <time>2022-06-27T09:30:05Z</time>
      </trkpt>
      <trkpt lat="42.4313610" lon="-3.1131890">
        <ele>761.2</ele>
        <time>2022-06-27T09:30:06Z</time>
      </trkpt>
      <trkpt lat="42.4313570" lon="-3.1132510">
        <ele>761.6</ele>
        <time>2022-06-27T09:30:07Z</time>
      </trkpt>
      <trkpt lat="42.4313550" lon="-3.1133120">
        <ele>761.8</ele>
        <time>2022-06-27T09:30:08Z</time>
      </trkpt>
      <trkpt lat="42.4313500" lon="-3.1133740">
        <ele>762.0</ele>
        <time>2022-06-27T09:30:09Z</time>
      </trkpt>
      <trkpt lat="42.4313450" lon="-3.1134370">
        <ele>762.4</ele>
        <time>2022-06-27T09:30:10Z</time>
      </trkpt>
      <trkpt lat="42.4313380" lon="-3.1135010">
        <ele>762.4</ele>
        <time>2022-06-27T09:30:11Z</time>
      </trkpt>
      <trkpt lat="42.4313300" lon="-3.1135640">
        <ele>762.6</ele>
        <time>2022-06-27T09:30:12Z</time>
      </trkpt>
      <trkpt lat="42.4313230" lon="-3.1136250">
        <ele>762.6</ele>
        <time>2022-06-27T09:30:13Z</time>
      </trkpt>
      <trkpt lat="42.4313160" lon="-3.1136860">
        <ele>762.8</ele>
        <time>2022-06-27T09:30:14Z</time>
      </trkpt>
      <trkpt lat="42.4313090" lon="-3.1137460">
        <ele>763.2</ele>
        <time>2022-06-27T09:30:15Z</time>
      </trkpt>
      <trkpt lat="42.4313040" lon="-3.1138080">
        <ele>763.4</ele>
        <time>2022-06-27T09:30:16Z</time>
      </trkpt>
      <trkpt lat="42.4312990" lon="-3.1138730">
        <ele>763.6</ele>
        <time>2022-06-27T09:30:17Z</time>
      </trkpt>
      <trkpt lat="42.4312930" lon="-3.1139370">
        <ele>763.8</ele>
        <time>2022-06-27T09:30:18Z</time>
      </trkpt>
      <trkpt lat="42.4312890" lon="-3.1139990">
        <ele>764.2</ele>
        <time>2022-06-27T09:30:19Z</time>
      </trkpt>
      <trkpt lat="42.4312860" lon="-3.1140620">
        <ele>764.4</ele>
        <time>2022-06-27T09:30:20Z</time>
      </trkpt>
      <trkpt lat="42.4312820" lon="-3.1141270">
        <ele>764.6</ele>
        <time>2022-06-27T09:30:21Z</time>
      </trkpt>
      <trkpt lat="42.4312770" lon="-3.1141930">
        <ele>764.8</ele>
        <time>2022-06-27T09:30:22Z</time>
      </trkpt>
      <trkpt lat="42.4312710" lon="-3.1142600">
        <ele>765.0</ele>
        <time>2022-06-27T09:30:23Z</time>
      </trkpt>
      <trkpt lat="42.4312640" lon="-3.1143250">
        <ele>765.2</ele>
        <time>2022-06-27T09:30:24Z</time>
      </trkpt>
      <trkpt lat="42.4312590" lon="-3.1143880">
        <ele>765.4</ele>
        <time>2022-06-27T09:30:25Z</time>
      </trkpt>
      <trkpt lat="42.4312550" lon="-3.1144510">
        <ele>765.8</ele>
        <time>2022-06-27T09:30:26Z</time>
      </trkpt>
      <trkpt lat="42.4312460" lon="-3.1145150">
        <ele>765.8</ele>
        <time>2022-06-27T09:30:27Z</time>
      </trkpt>
      <trkpt lat="42.4312380" lon="-3.1145760">
        <ele>766.2</ele>
        <time>2022-06-27T09:30:28Z</time>
      </trkpt>
      <trkpt lat="42.4312320" lon="-3.1146400">
        <ele>766.4</ele>
        <time>2022-06-27T09:30:29Z</time>
      </trkpt>
      <trkpt lat="42.4312270" lon="-3.1147060">
        <ele>766.4</ele>
        <time>2022-06-27T09:30:30Z</time>
      </trkpt>
      <trkpt lat="42.4312230" lon="-3.1147720">
        <ele>766.6</ele>
        <time>2022-06-27T09:30:31Z</time>
      </trkpt>
      <trkpt lat="42.4312190" lon="-3.1148370">
        <ele>766.8</ele>
        <time>2022-06-27T09:30:32Z</time>
      </trkpt>
      <trkpt lat="42.4312160" lon="-3.1149000">
        <ele>767.2</ele>
        <time>2022-06-27T09:30:33Z</time>
      </trkpt>
      <trkpt lat="42.4312120" lon="-3.1149640">
        <ele>767.4</ele>
        <time>2022-06-27T09:30:34Z</time>
      </trkpt>
      <trkpt lat="42.4312070" lon="-3.1150290">
        <ele>767.6</ele>
        <time>2022-06-27T09:30:35Z</time>
      </trkpt>
      <trkpt lat="42.4312030" lon="-3.1150960">
        <ele>767.8</ele>
        <time>2022-06-27T09:30:36Z</time>
      </trkpt>
      <trkpt lat="42.4311970" lon="-3.1151660">
        <ele>767.8</ele>
        <time>2022-06-27T09:30:37Z</time>
      </trkpt>
      <trkpt lat="42.4311890" lon="-3.1152330">
        <ele>768.2</ele>
        <time>2022-06-27T09:30:38Z</time>
      </trkpt>
      <trkpt lat="42.4311820" lon="-3.1153030">
        <ele>768.4</ele>
        <time>2022-06-27T09:30:39Z</time>
      </trkpt>
      <trkpt lat="42.4311760" lon="-3.1153730">
        <ele>768.6</ele>
        <time>2022-06-27T09:30:40Z</time>
      </trkpt>
      <trkpt lat="42.4311700" lon="-3.1154410">
        <ele>768.8</ele>
        <time>2022-06-27T09:30:41Z</time>
      </trkpt>
      <trkpt lat="42.4311620" lon="-3.1155080">
        <ele>769.0</ele>
        <time>2022-06-27T09:30:42Z</time>
      </trkpt>
      <trkpt lat="42.4311550" lon="-3.1155770">
        <ele>769.2</ele>
        <time>2022-06-27T09:30:43Z</time>
      </trkpt>
      <trkpt lat="42.4311470" lon="-3.1156460">
        <ele>769.4</ele>
        <time>2022-06-27T09:30:44Z</time>
      </trkpt>
      <trkpt lat="42.4311410" lon="-3.1157160">
        <ele>769.6</ele>
        <time>2022-06-27T09:30:45Z</time>
      </trkpt>
      <trkpt lat="42.4311340" lon="-3.1157870">
        <ele>769.6</ele>
        <time>2022-06-27T09:30:46Z</time>
      </trkpt>
      <trkpt lat="42.4311270" lon="-3.1158600">
        <ele>769.8</ele>
        <time>2022-06-27T09:30:47Z</time>
      </trkpt>
      <trkpt lat="42.4311200" lon="-3.1159330">
        <ele>770.0</ele>
        <time>2022-06-27T09:30:48Z</time>
      </trkpt>
      <trkpt lat="42.4311140" lon="-3.1160040">
        <ele>770.2</ele>
        <time>2022-06-27T09:30:49Z</time>
      </trkpt>
      <trkpt lat="42.4311100" lon="-3.1160720">
        <ele>770.2</ele>
        <time>2022-06-27T09:30:50Z</time>
      </trkpt>
      <trkpt lat="42.4311050" lon="-3.1161420">
        <ele>770.6</ele>
        <time>2022-06-27T09:30:51Z</time>
      </trkpt>
      <trkpt lat="42.4310990" lon="-3.1162120">
        <ele>770.8</ele>
        <time>2022-06-27T09:30:52Z</time>
      </trkpt>
      <trkpt lat="42.4310920" lon="-3.1162820">
        <ele>771.0</ele>
        <time>2022-06-27T09:30:53Z</time>
      </trkpt>
      <trkpt lat="42.4310830" lon="-3.1163510">
        <ele>771.2</ele>
        <time>2022-06-27T09:30:54Z</time>
      </trkpt>
      <trkpt lat="42.4310760" lon="-3.1164190">
        <ele>771.2</ele>
        <time>2022-06-27T09:30:55Z</time>
      </trkpt>
      <trkpt lat="42.4310730" lon="-3.1164870">
        <ele>771.4</ele>
        <time>2022-06-27T09:30:56Z</time>
      </trkpt>
      <trkpt lat="42.4310670" lon="-3.1165570">
        <ele>771.6</ele>
        <time>2022-06-27T09:30:57Z</time>
      </trkpt>
      <trkpt lat="42.4310610" lon="-3.1166250">
        <ele>771.8</ele>
        <time>2022-06-27T09:30:58Z</time>
      </trkpt>
      <trkpt lat="42.4310550" lon="-3.1166920">
        <ele>772.2</ele>
        <time>2022-06-27T09:30:59Z</time>
      </trkpt>
      <trkpt lat="42.4310470" lon="-3.1167580">
        <ele>772.4</ele>
        <time>2022-06-27T09:31:00Z</time>
      </trkpt>
      <trkpt lat="42.4310400" lon="-3.1168240">
        <ele>772.6</ele>
        <time>2022-06-27T09:31:01Z</time>
      </trkpt>
      <trkpt lat="42.4310340" lon="-3.1168920">
        <ele>772.6</ele>
        <time>2022-06-27T09:31:02Z</time>
      </trkpt>
      <trkpt lat="42.4310250" lon="-3.1169580">
        <ele>772.8</ele>
        <time>2022-06-27T09:31:03Z</time>
      </trkpt>
      <trkpt lat="42.4310170" lon="-3.1170230">
        <ele>772.8</ele>
        <time>2022-06-27T09:31:04Z</time>
      </trkpt>
      <trkpt lat="42.4310090" lon="-3.1170900">
        <ele>773.0</ele>
        <time>2022-06-27T09:31:05Z</time>
      </trkpt>
      <trkpt lat="42.4310050" lon="-3.1171560">
        <ele>773.2</ele>
        <time>2022-06-27T09:31:06Z</time>
      </trkpt>
      <trkpt lat="42.4309960" lon="-3.1172260">
        <ele>773.4</ele>
        <time>2022-06-27T09:31:07Z</time>
      </trkpt>
      <trkpt lat="42.4309870" lon="-3.1172950">
        <ele>773.6</ele>
        <time>2022-06-27T09:31:08Z</time>
      </trkpt>
      <trkpt lat="42.4309790" lon="-3.1173640">
        <ele>773.8</ele>
        <time>2022-06-27T09:31:09Z</time>
      </trkpt>
      <trkpt lat="42.4309730" lon="-3.1174350">
        <ele>774.0</ele>
        <time>2022-06-27T09:31:10Z</time>
      </trkpt>
      <trkpt lat="42.4309660" lon="-3.1175070">
        <ele>774.2</ele>
        <time>2022-06-27T09:31:11Z</time>
      </trkpt>
      <trkpt lat="42.4309620" lon="-3.1175780">
        <ele>774.4</ele>
        <time>2022-06-27T09:31:12Z</time>
      </trkpt>
      <trkpt lat="42.4309570" lon="-3.1176490">
        <ele>774.6</ele>
        <time>2022-06-27T09:31:13Z</time>
      </trkpt>
      <trkpt lat="42.4309540" lon="-3.1177180">
        <ele>774.6</ele>
        <time>2022-06-27T09:31:14Z</time>
      </trkpt>
      <trkpt lat="42.4309470" lon="-3.1177880">
        <ele>774.6</ele>
        <time>2022-06-27T09:31:15Z</time>
      </trkpt>
      <trkpt lat="42.4309400" lon="-3.1178580">
        <ele>774.8</ele>
        <time>2022-06-27T09:31:16Z</time>
      </trkpt>
      <trkpt lat="42.4309340" lon="-3.1179270">
        <ele>775.2</ele>
        <time>2022-06-27T09:31:17Z</time>
      </trkpt>
      <trkpt lat="42.4309280" lon="-3.1179950">
        <ele>775.4</ele>
        <time>2022-06-27T09:31:18Z</time>
      </trkpt>
      <trkpt lat="42.4309220" lon="-3.1180630">
        <ele>776.0</ele>
        <time>2022-06-27T09:31:19Z</time>
      </trkpt>
      <trkpt lat="42.4309160" lon="-3.1181290">
        <ele>776.2</ele>
        <time>2022-06-27T09:31:20Z</time>
      </trkpt>
      <trkpt lat="42.4309100" lon="-3.1181970">
        <ele>776.4</ele>
        <time>2022-06-27T09:31:21Z</time>
      </trkpt>
      <trkpt lat="42.4309040" lon="-3.1182650">
        <ele>776.6</ele>
        <time>2022-06-27T09:31:22Z</time>
      </trkpt>
      <trkpt lat="42.4308970" lon="-3.1183340">
        <ele>776.8</ele>
        <time>2022-06-27T09:31:23Z</time>
      </trkpt>
      <trkpt lat="42.4308910" lon="-3.1184000">
        <ele>777.0</ele>
        <time>2022-06-27T09:31:24Z</time>
      </trkpt>
      <trkpt lat="42.4308890" lon="-3.1184650">
        <ele>777.0</ele>
        <time>2022-06-27T09:31:25Z</time>
      </trkpt>
      <trkpt lat="42.4308850" lon="-3.1185310">
        <ele>777.2</ele>
        <time>2022-06-27T09:31:26Z</time>
      </trkpt>
      <trkpt lat="42.4308800" lon="-3.1185980">
        <ele>777.4</ele>
        <time>2022-06-27T09:31:27Z</time>
      </trkpt>
      <trkpt lat="42.4308750" lon="-3.1186640">
        <ele>777.8</ele>
        <time>2022-06-27T09:31:28Z</time>
      </trkpt>
      <trkpt lat="42.4308680" lon="-3.1187300">
        <ele>778.0</ele>
        <time>2022-06-27T09:31:29Z</time>
      </trkpt>
      <trkpt lat="42.4308620" lon="-3.1187960">
        <ele>778.2</ele>
        <time>2022-06-27T09:31:30Z</time>
      </trkpt>
      <trkpt lat="42.4308560" lon="-3.1188610">
        <ele>778.4</ele>
        <time>2022-06-27T09:31:31Z</time>
      </trkpt>
      <trkpt lat="42.4308600" lon="-3.1189190">
        <ele>778.4</ele>
        <time>2022-06-27T09:31:32Z</time>
      </trkpt>
      <trkpt lat="42.4308540" lon="-3.1189850">
        <ele>778.8</ele>
        <time>2022-06-27T09:31:33Z</time>
      </trkpt>
      <trkpt lat="42.4308480" lon="-3.1190490">
        <ele>779.0</ele>
        <time>2022-06-27T09:31:34Z</time>
      </trkpt>
      <trkpt lat="42.4308420" lon="-3.1191150">
        <ele>779.6</ele>
        <time>2022-06-27T09:31:35Z</time>
      </trkpt>
      <trkpt lat="42.4308360" lon="-3.1191840">
        <ele>779.8</ele>
        <time>2022-06-27T09:31:36Z</time>
      </trkpt>
      <trkpt lat="42.4308310" lon="-3.1192520">
        <ele>780.0</ele>
        <time>2022-06-27T09:31:37Z</time>
      </trkpt>
      <trkpt lat="42.4308250" lon="-3.1193190">
        <ele>780.4</ele>
        <time>2022-06-27T09:31:38Z</time>
      </trkpt>
      <trkpt lat="42.4308190" lon="-3.1193850">
        <ele>780.6</ele>
        <time>2022-06-27T09:31:39Z</time>
      </trkpt>
      <trkpt lat="42.4308130" lon="-3.1194510">
        <ele>780.8</ele>
        <time>2022-06-27T09:31:40Z</time>
      </trkpt>
      <trkpt lat="42.4308070" lon="-3.1195170">
        <ele>781.0</ele>
        <time>2022-06-27T09:31:41Z</time>
      </trkpt>
      <trkpt lat="42.4308000" lon="-3.1195830">
        <ele>781.0</ele>
        <time>2022-06-27T09:31:42Z</time>
      </trkpt>
      <trkpt lat="42.4307930" lon="-3.1196500">
        <ele>781.4</ele>
        <time>2022-06-27T09:31:43Z</time>
      </trkpt>
      <trkpt lat="42.4307860" lon="-3.1197160">
        <ele>781.6</ele>
        <time>2022-06-27T09:31:44Z</time>
      </trkpt>
      <trkpt lat="42.4307800" lon="-3.1197820">
        <ele>781.8</ele>
        <time>2022-06-27T09:31:45Z</time>
      </trkpt>
      <trkpt lat="42.4307740" lon="-3.1198490">
        <ele>781.8</ele>
        <time>2022-06-27T09:31:46Z</time>
      </trkpt>
      <trkpt lat="42.4307680" lon="-3.1199160">
        <ele>782.0</ele>
        <time>2022-06-27T09:31:47Z</time>
      </trkpt>
      <trkpt lat="42.4307630" lon="-3.1199800">
        <ele>782.0</ele>
        <time>2022-06-27T09:31:48Z</time>
      </trkpt>
      <trkpt lat="42.4307630" lon="-3.1200400">
        <ele>782.2</ele>
        <time>2022-06-27T09:31:49Z</time>
      </trkpt>
      <trkpt lat="42.4307570" lon="-3.1201060">
        <ele>782.2</ele>
        <time>2022-06-27T09:31:50Z</time>
      </trkpt>
      <trkpt lat="42.4307490" lon="-3.1201730">
        <ele>782.6</ele>
        <time>2022-06-27T09:31:51Z</time>
      </trkpt>
      <trkpt lat="42.4307430" lon="-3.1202410">
        <ele>783.2</ele>
        <time>2022-06-27T09:31:52Z</time>
      </trkpt>
      <trkpt lat="42.4307370" lon="-3.1203110">
        <ele>783.6</ele>
        <time>2022-06-27T09:31:53Z</time>
      </trkpt>
      <trkpt lat="42.4307310" lon="-3.1203780">
        <ele>784.0</ele>
        <time>2022-06-27T09:31:54Z</time>
      </trkpt>
      <trkpt lat="42.4307250" lon="-3.1204430">
        <ele>784.0</ele>
        <time>2022-06-27T09:31:55Z</time>
      </trkpt>
      <trkpt lat="42.4307190" lon="-3.1205110">
        <ele>784.2</ele>
        <time>2022-06-27T09:31:56Z</time>
      </trkpt>
      <trkpt lat="42.4307150" lon="-3.1205730">
        <ele>784.4</ele>
        <time>2022-06-27T09:31:57Z</time>
      </trkpt>
      <trkpt lat="42.4307100" lon="-3.1206240">
        <ele>784.4</ele>
        <time>2022-06-27T09:31:58Z</time>
      </trkpt>
      <trkpt lat="42.4307040" lon="-3.1207040">
        <ele>784.8</ele>
        <time>2022-06-27T09:31:59Z</time>
      </trkpt>
      <trkpt lat="42.4306980" lon="-3.1207690">
        <ele>784.8</ele>
        <time>2022-06-27T09:32:00Z</time>
      </trkpt>
      <trkpt lat="42.4306910" lon="-3.1208360">
        <ele>785.2</ele>
        <time>2022-06-27T09:32:01Z</time>
      </trkpt>
      <trkpt lat="42.4306870" lon="-3.1209020">
        <ele>785.2</ele>
        <time>2022-06-27T09:32:02Z</time>
      </trkpt>
      <trkpt lat="42.4306820" lon="-3.1209680">
        <ele>785.6</ele>
        <time>2022-06-27T09:32:03Z</time>
      </trkpt>
      <trkpt lat="42.4306780" lon="-3.1210230">
        <ele>785.6</ele>
        <time>2022-06-27T09:32:04Z</time>
      </trkpt>
      <trkpt lat="42.4306710" lon="-3.1211070">
        <ele>786.0</ele>
        <time>2022-06-27T09:32:05Z</time>
      </trkpt>
      <trkpt lat="42.4306640" lon="-3.1211790">
        <ele>786.4</ele>
        <time>2022-06-27T09:32:06Z</time>
      </trkpt>
      <trkpt lat="42.4306550" lon="-3.1212550">
        <ele>786.4</ele>
        <time>2022-06-27T09:32:07Z</time>
      </trkpt>
      <trkpt lat="42.4306460" lon="-3.1213320">
        <ele>786.4</ele>
        <time>2022-06-27T09:32:08Z</time>
      </trkpt>
      <trkpt lat="42.4306390" lon="-3.1214090">
        <ele>786.6</ele>
        <time>2022-06-27T09:32:09Z</time>
      </trkpt>
      <trkpt lat="42.4306300" lon="-3.1214880">
        <ele>786.6</ele>
        <time>2022-06-27T09:32:10Z</time>
      </trkpt>
      <trkpt lat="42.4306230" lon="-3.1215690">
        <ele>786.6</ele>
        <time>2022-06-27T09:32:11Z</time>
      </trkpt>
      <trkpt lat="42.4306170" lon="-3.1216530">
        <ele>786.6</ele>
        <time>2022-06-27T09:32:12Z</time>
      </trkpt>
      <trkpt lat="42.4306090" lon="-3.1217370">
        <ele>786.6</ele>
        <time>2022-06-27T09:32:13Z</time>
      </trkpt>
      <trkpt lat="42.4306030" lon="-3.1218200">
        <ele>786.8</ele>
        <time>2022-06-27T09:32:14Z</time>
      </trkpt>
      <trkpt lat="42.4305970" lon="-3.1219060">
        <ele>786.8</ele>
        <time>2022-06-27T09:32:15Z</time>
      </trkpt>
      <trkpt lat="42.4305890" lon="-3.1219960">
        <ele>786.8</ele>
        <time>2022-06-27T09:32:16Z</time>
      </trkpt>
      <trkpt lat="42.4305820" lon="-3.1220880">
        <ele>786.8</ele>
        <time>2022-06-27T09:32:17Z</time>
      </trkpt>
      <trkpt lat="42.4305740" lon="-3.1221810">
        <ele>786.8</ele>
        <time>2022-06-27T09:32:18Z</time>
      </trkpt>
      <trkpt lat="42.4305670" lon="-3.1222730">
        <ele>787.0</ele>
        <time>2022-06-27T09:32:19Z</time>
      </trkpt>
      <trkpt lat="42.4305610" lon="-3.1223680">
        <ele>787.0</ele>
        <time>2022-06-27T09:32:20Z</time>
      </trkpt>
      <trkpt lat="42.4305550" lon="-3.1224640">
        <ele>787.0</ele>
        <time>2022-06-27T09:32:21Z</time>
      </trkpt>
      <trkpt lat="42.4305520" lon="-3.1225600">
        <ele>787.2</ele>
        <time>2022-06-27T09:32:22Z</time>
      </trkpt>
      <trkpt lat="42.4305500" lon="-3.1226560">
        <ele>787.2</ele>
        <time>2022-06-27T09:32:23Z</time>
      </trkpt>
      <trkpt lat="42.4305510" lon="-3.1227540">
        <ele>787.2</ele>
        <time>2022-06-27T09:32:24Z</time>
      </trkpt>
      <trkpt lat="42.4305520" lon="-3.1228540">
        <ele>787.2</ele>
        <time>2022-06-27T09:32:25Z</time>
      </trkpt>
      <trkpt lat="42.4305550" lon="-3.1229540">
        <ele>787.2</ele>
        <time>2022-06-27T09:32:26Z</time>
      </trkpt>
      <trkpt lat="42.4305630" lon="-3.1230520">
        <ele>787.4</ele>
        <time>2022-06-27T09:32:27Z</time>
      </trkpt>
      <trkpt lat="42.4305740" lon="-3.1231510">
        <ele>787.4</ele>
        <time>2022-06-27T09:32:28Z</time>
      </trkpt>
      <trkpt lat="42.4305870" lon="-3.1232510">
        <ele>787.4</ele>
        <time>2022-06-27T09:32:29Z</time>
      </trkpt>
      <trkpt lat="42.4305990" lon="-3.1233550">
        <ele>787.4</ele>
        <time>2022-06-27T09:32:30Z</time>
      </trkpt>
      <trkpt lat="42.4306130" lon="-3.1234590">
        <ele>787.2</ele>
        <time>2022-06-27T09:32:31Z</time>
      </trkpt>
      <trkpt lat="42.4306270" lon="-3.1235660">
        <ele>787.2</ele>
        <time>2022-06-27T09:32:32Z</time>
      </trkpt>
      <trkpt lat="42.4306420" lon="-3.1236770">
        <ele>787.2</ele>
        <time>2022-06-27T09:32:33Z</time>
      </trkpt>
      <trkpt lat="42.4306590" lon="-3.1237920">
        <ele>787.2</ele>
        <time>2022-06-27T09:32:34Z</time>
      </trkpt>
      <trkpt lat="42.4306760" lon="-3.1239120">
        <ele>787.2</ele>
        <time>2022-06-27T09:32:35Z</time>
      </trkpt>
      <trkpt lat="42.4306930" lon="-3.1240370">
        <ele>787.0</ele>
        <time>2022-06-27T09:32:36Z</time>
      </trkpt>
      <trkpt lat="42.4307100" lon="-3.1241650">
        <ele>786.8</ele>
        <time>2022-06-27T09:32:37Z</time>
      </trkpt>
      <trkpt lat="42.4307270" lon="-3.1242990">
        <ele>786.6</ele>
        <time>2022-06-27T09:32:38Z</time>
      </trkpt>
      <trkpt lat="42.4307450" lon="-3.1244350">
        <ele>786.4</ele>
        <time>2022-06-27T09:32:39Z</time>
      </trkpt>
      <trkpt lat="42.4307640" lon="-3.1245750">
        <ele>786.0</ele>
        <time>2022-06-27T09:32:40Z</time>
      </trkpt>
      <trkpt lat="42.4307830" lon="-3.1247170">
        <ele>785.8</ele>
        <time>2022-06-27T09:32:41Z</time>
      </trkpt>
      <trkpt lat="42.4308000" lon="-3.1248600">
        <ele>785.2</ele>
        <time>2022-06-27T09:32:42Z</time>
      </trkpt>
      <trkpt lat="42.4308180" lon="-3.1250010">
        <ele>785.0</ele>
        <time>2022-06-27T09:32:43Z</time>
      </trkpt>
      <trkpt lat="42.4308370" lon="-3.1251430">
        <ele>784.4</ele>
        <time>2022-06-27T09:32:44Z</time>
      </trkpt>
      <trkpt lat="42.4308570" lon="-3.1252830">
        <ele>783.4</ele>
        <time>2022-06-27T09:32:45Z</time>
      </trkpt>
      <trkpt lat="42.4308780" lon="-3.1254220">
        <ele>783.0</ele>
        <time>2022-06-27T09:32:46Z</time>
      </trkpt>
      <trkpt lat="42.4308970" lon="-3.1255610">
        <ele>782.6</ele>
        <time>2022-06-27T09:32:47Z</time>
      </trkpt>
      <trkpt lat="42.4309170" lon="-3.1256990">
        <ele>782.4</ele>
        <time>2022-06-27T09:32:48Z</time>
      </trkpt>
      <trkpt lat="42.4309360" lon="-3.1258340">
        <ele>782.0</ele>
        <time>2022-06-27T09:32:49Z</time>
      </trkpt>
      <trkpt lat="42.4309550" lon="-3.1259670">
        <ele>781.8</ele>
        <time>2022-06-27T09:32:50Z</time>
      </trkpt>
      <trkpt lat="42.4309710" lon="-3.1260710">
        <ele>781.6</ele>
        <time>2022-06-27T09:32:51Z</time>
      </trkpt>
      <trkpt lat="42.4309900" lon="-3.1262030">
        <ele>781.0</ele>
        <time>2022-06-27T09:32:52Z</time>
      </trkpt>
      <trkpt lat="42.4310130" lon="-3.1263570">
        <ele>781.0</ele>
        <time>2022-06-27T09:32:53Z</time>
      </trkpt>
      <trkpt lat="42.4310320" lon="-3.1264850">
        <ele>780.8</ele>
        <time>2022-06-27T09:32:54Z</time>
      </trkpt>
      <trkpt lat="42.4310500" lon="-3.1266100">
        <ele>780.8</ele>
        <time>2022-06-27T09:32:55Z</time>
      </trkpt>
      <trkpt lat="42.4310670" lon="-3.1267340">
        <ele>780.6</ele>
        <time>2022-06-27T09:32:56Z</time>
      </trkpt>
      <trkpt lat="42.4310830" lon="-3.1268560">
        <ele>780.6</ele>
        <time>2022-06-27T09:32:57Z</time>
      </trkpt>
      <trkpt lat="42.4310980" lon="-3.1269760">
        <ele>780.6</ele>
        <time>2022-06-27T09:32:58Z</time>
      </trkpt>
      <trkpt lat="42.4311120" lon="-3.1270910">
        <ele>780.6</ele>
        <time>2022-06-27T09:32:59Z</time>
      </trkpt>
      <trkpt lat="42.4311270" lon="-3.1272000">
        <ele>780.6</ele>
        <time>2022-06-27T09:33:00Z</time>
      </trkpt>
      <trkpt lat="42.4311440" lon="-3.1273020">
        <ele>781.0</ele>
        <time>2022-06-27T09:33:01Z</time>
      </trkpt>
      <trkpt lat="42.4311600" lon="-3.1274010">
        <ele>781.2</ele>
        <time>2022-06-27T09:33:02Z</time>
      </trkpt>
      <trkpt lat="42.4311740" lon="-3.1274970">
        <ele>781.4</ele>
        <time>2022-06-27T09:33:03Z</time>
      </trkpt>
      <trkpt lat="42.4311890" lon="-3.1275880">
        <ele>781.6</ele>
        <time>2022-06-27T09:33:04Z</time>
      </trkpt>
      <trkpt lat="42.4311990" lon="-3.1276780">
        <ele>782.0</ele>
        <time>2022-06-27T09:33:05Z</time>
      </trkpt>
      <trkpt lat="42.4312080" lon="-3.1277660">
        <ele>782.0</ele>
        <time>2022-06-27T09:33:06Z</time>
      </trkpt>
      <trkpt lat="42.4312190" lon="-3.1278460">
        <ele>782.4</ele>
        <time>2022-06-27T09:33:07Z</time>
      </trkpt>
      <trkpt lat="42.4312280" lon="-3.1279260">
        <ele>782.8</ele>
        <time>2022-06-27T09:33:08Z</time>
      </trkpt>
      <trkpt lat="42.4312380" lon="-3.1280000">
        <ele>783.0</ele>
        <time>2022-06-27T09:33:09Z</time>
      </trkpt>
      <trkpt lat="42.4312490" lon="-3.1280700">
        <ele>783.6</ele>
        <time>2022-06-27T09:33:10Z</time>
      </trkpt>
      <trkpt lat="42.4312580" lon="-3.1281390">
        <ele>783.8</ele>
        <time>2022-06-27T09:33:11Z</time>
      </trkpt>
      <trkpt lat="42.4312660" lon="-3.1282060">
        <ele>784.2</ele>
        <time>2022-06-27T09:33:12Z</time>
      </trkpt>
      <trkpt lat="42.4312730" lon="-3.1282710">
        <ele>784.8</ele>
        <time>2022-06-27T09:33:13Z</time>
      </trkpt>
      <trkpt lat="42.4312770" lon="-3.1283340">
        <ele>785.4</ele>
        <time>2022-06-27T09:33:14Z</time>
      </trkpt>
      <trkpt lat="42.4312790" lon="-3.1283980">
        <ele>785.8</ele>
        <time>2022-06-27T09:33:15Z</time>
      </trkpt>
      <trkpt lat="42.4312800" lon="-3.1284590">
        <ele>786.2</ele>
        <time>2022-06-27T09:33:16Z</time>
      </trkpt>
      <trkpt lat="42.4312820" lon="-3.1285200">
        <ele>786.6</ele>
        <time>2022-06-27T09:33:17Z</time>
      </trkpt>
      <trkpt lat="42.4312830" lon="-3.1285800">
        <ele>787.2</ele>
        <time>2022-06-27T09:33:18Z</time>
      </trkpt>
      <trkpt lat="42.4312830" lon="-3.1286390">
        <ele>787.8</ele>
        <time>2022-06-27T09:33:19Z</time>
      </trkpt>
      <trkpt lat="42.4312820" lon="-3.1286960">
        <ele>788.0</ele>
        <time>2022-06-27T09:33:20Z</time>
      </trkpt>
      <trkpt lat="42.4312810" lon="-3.1287540">
        <ele>788.4</ele>
        <time>2022-06-27T09:33:21Z</time>
      </trkpt>
      <trkpt lat="42.4312790" lon="-3.1288110">
        <ele>788.6</ele>
        <time>2022-06-27T09:33:22Z</time>
      </trkpt>
      <trkpt lat="42.4312750" lon="-3.1288700">
        <ele>789.0</ele>
        <time>2022-06-27T09:33:23Z</time>
      </trkpt>
      <trkpt lat="42.4312710" lon="-3.1289310">
        <ele>789.4</ele>
        <time>2022-06-27T09:33:24Z</time>
      </trkpt>
      <trkpt lat="42.4312650" lon="-3.1289930">
        <ele>789.6</ele>
        <time>2022-06-27T09:33:25Z</time>
      </trkpt>
      <trkpt lat="42.4312590" lon="-3.1290560">
        <ele>789.8</ele>
        <time>2022-06-27T09:33:26Z</time>
      </trkpt>
      <trkpt lat="42.4312510" lon="-3.1291200">
        <ele>790.0</ele>
        <time>2022-06-27T09:33:27Z</time>
      </trkpt>
      <trkpt lat="42.4312440" lon="-3.1291840">
        <ele>790.2</ele>
        <time>2022-06-27T09:33:28Z</time>
      </trkpt>
      <trkpt lat="42.4312370" lon="-3.1292470">
        <ele>790.4</ele>
        <time>2022-06-27T09:33:29Z</time>
      </trkpt>
      <trkpt lat="42.4312270" lon="-3.1293110">
        <ele>790.6</ele>
        <time>2022-06-27T09:33:30Z</time>
      </trkpt>
      <trkpt lat="42.4312170" lon="-3.1293720">
        <ele>790.8</ele>
        <time>2022-06-27T09:33:31Z</time>
      </trkpt>
      <trkpt lat="42.4312070" lon="-3.1294310">
        <ele>790.8</ele>
        <time>2022-06-27T09:33:32Z</time>
      </trkpt>
      <trkpt lat="42.4311940" lon="-3.1294920">
        <ele>791.0</ele>
        <time>2022-06-27T09:33:33Z</time>
      </trkpt>
      <trkpt lat="42.4311810" lon="-3.1295550">
        <ele>791.2</ele>
        <time>2022-06-27T09:33:34Z</time>
      </trkpt>
      <trkpt lat="42.4311690" lon="-3.1296180">
        <ele>791.4</ele>
        <time>2022-06-27T09:33:35Z</time>
      </trkpt>
      <trkpt lat="42.4311530" lon="-3.1296830">
        <ele>791.6</ele>
        <time>2022-06-27T09:33:36Z</time>
      </trkpt>
      <trkpt lat="42.4311360" lon="-3.1297480">
        <ele>791.6</ele>
        <time>2022-06-27T09:33:37Z</time>
      </trkpt>
      <trkpt lat="42.4311160" lon="-3.1298150">
        <ele>792.0</ele>
        <time>2022-06-27T09:33:38Z</time>
      </trkpt>
      <trkpt lat="42.4310970" lon="-3.1298800">
        <ele>792.0</ele>
        <time>2022-06-27T09:33:39Z</time>
      </trkpt>
      <trkpt lat="42.4310730" lon="-3.1299500">
        <ele>792.2</ele>
        <time>2022-06-27T09:33:40Z</time>
      </trkpt>
      <trkpt lat="42.4310490" lon="-3.1300180">
        <ele>792.2</ele>
        <time>2022-06-27T09:33:41Z</time>
      </trkpt>
      <trkpt lat="42.4310230" lon="-3.1300880">
        <ele>792.2</ele>
        <time>2022-06-27T09:33:42Z</time>
      </trkpt>
      <trkpt lat="42.4309950" lon="-3.1301590">
        <ele>792.4</ele>
        <time>2022-06-27T09:33:43Z</time>
      </trkpt>
      <trkpt lat="42.4309660" lon="-3.1302340">
        <ele>792.4</ele>
        <time>2022-06-27T09:33:44Z</time>
      </trkpt>
      <trkpt lat="42.4309380" lon="-3.1303080">
        <ele>792.4</ele>
        <time>2022-06-27T09:33:45Z</time>
      </trkpt>
      <trkpt lat="42.4309100" lon="-3.1303850">
        <ele>792.4</ele>
        <time>2022-06-27T09:33:46Z</time>
      </trkpt>
      <trkpt lat="42.4308770" lon="-3.1304660">
        <ele>792.4</ele>
        <time>2022-06-27T09:33:47Z</time>
      </trkpt>
      <trkpt lat="42.4308420" lon="-3.1305510">
        <ele>792.4</ele>
        <time>2022-06-27T09:33:48Z</time>
      </trkpt>
      <trkpt lat="42.4308080" lon="-3.1306330">
        <ele>792.4</ele>
        <time>2022-06-27T09:33:49Z</time>
      </trkpt>
      <trkpt lat="42.4307730" lon="-3.1307100">
        <ele>792.4</ele>
        <time>2022-06-27T09:33:50Z</time>
      </trkpt>
      <trkpt lat="42.4307420" lon="-3.1307850">
        <ele>792.4</ele>
        <time>2022-06-27T09:33:51Z</time>
      </trkpt>
      <trkpt lat="42.4307140" lon="-3.1308580">
        <ele>792.4</ele>
        <time>2022-06-27T09:33:52Z</time>
      </trkpt>
      <trkpt lat="42.4306850" lon="-3.1309260">
        <ele>792.4</ele>
        <time>2022-06-27T09:33:53Z</time>
      </trkpt>
      <trkpt lat="42.4306540" lon="-3.1309950">
        <ele>792.4</ele>
        <time>2022-06-27T09:33:54Z</time>
      </trkpt>
      <trkpt lat="42.4306230" lon="-3.1310650">
        <ele>792.4</ele>
        <time>2022-06-27T09:33:55Z</time>
      </trkpt>
      <trkpt lat="42.4305870" lon="-3.1311360">
        <ele>792.6</ele>
        <time>2022-06-27T09:33:56Z</time>
      </trkpt>
      <trkpt lat="42.4305500" lon="-3.1312040">
        <ele>792.6</ele>
        <time>2022-06-27T09:33:57Z</time>
      </trkpt>
      <trkpt lat="42.4305120" lon="-3.1312720">
        <ele>792.6</ele>
        <time>2022-06-27T09:33:58Z</time>
      </trkpt>
      <trkpt lat="42.4304740" lon="-3.1313380">
        <ele>792.8</ele>
        <time>2022-06-27T09:33:59Z</time>
      </trkpt>
      <trkpt lat="42.4304330" lon="-3.1314050">
        <ele>792.8</ele>
        <time>2022-06-27T09:34:00Z</time>
      </trkpt>
      <trkpt lat="42.4303910" lon="-3.1314740">
        <ele>793.0</ele>
        <time>2022-06-27T09:34:01Z</time>
      </trkpt>
      <trkpt lat="42.4303430" lon="-3.1315390">
        <ele>793.0</ele>
        <time>2022-06-27T09:34:02Z</time>
      </trkpt>
      <trkpt lat="42.4302930" lon="-3.1316050">
        <ele>793.0</ele>
        <time>2022-06-27T09:34:03Z</time>
      </trkpt>
      <trkpt lat="42.4302400" lon="-3.1316710">
        <ele>793.0</ele>
        <time>2022-06-27T09:34:04Z</time>
      </trkpt>
      <trkpt lat="42.4301860" lon="-3.1317380">
        <ele>793.0</ele>
        <time>2022-06-27T09:34:05Z</time>
      </trkpt>
      <trkpt lat="42.4301310" lon="-3.1318050">
        <ele>793.0</ele>
        <time>2022-06-27T09:34:06Z</time>
      </trkpt>
      <trkpt lat="42.4300750" lon="-3.1318710">
        <ele>793.0</ele>
        <time>2022-06-27T09:34:07Z</time>
      </trkpt>
      <trkpt lat="42.4300150" lon="-3.1319420">
        <ele>793.0</ele>
        <time>2022-06-27T09:34:08Z</time>
      </trkpt>
      <trkpt lat="42.4299520" lon="-3.1320140">
        <ele>793.0</ele>
        <time>2022-06-27T09:34:09Z</time>
      </trkpt>
      <trkpt lat="42.4298880" lon="-3.1320900">
        <ele>792.8</ele>
        <time>2022-06-27T09:34:10Z</time>
      </trkpt>
      <trkpt lat="42.4298230" lon="-3.1321670">
        <ele>792.8</ele>
        <time>2022-06-27T09:34:11Z</time>
      </trkpt>
      <trkpt lat="42.4297560" lon="-3.1322470">
        <ele>792.6</ele>
        <time>2022-06-27T09:34:12Z</time>
      </trkpt>
      <trkpt lat="42.4296880" lon="-3.1323330">
        <ele>792.2</ele>
        <time>2022-06-27T09:34:13Z</time>
      </trkpt>
      <trkpt lat="42.4296180" lon="-3.1324230">
        <ele>791.6</ele>
        <time>2022-06-27T09:34:14Z</time>
      </trkpt>
      <trkpt lat="42.4295500" lon="-3.1325180">
        <ele>791.2</ele>
        <time>2022-06-27T09:34:15Z</time>
      </trkpt>
      <trkpt lat="42.4294810" lon="-3.1326190">
        <ele>790.8</ele>
        <time>2022-06-27T09:34:16Z</time>
      </trkpt>
      <trkpt lat="42.4294140" lon="-3.1327190">
        <ele>790.4</ele>
        <time>2022-06-27T09:34:17Z</time>
      </trkpt>
      <trkpt lat="42.4293490" lon="-3.1328240">
        <ele>790.0</ele>
        <time>2022-06-27T09:34:18Z</time>
      </trkpt>
      <trkpt lat="42.4292880" lon="-3.1329340">
        <ele>789.2</ele>
        <time>2022-06-27T09:34:19Z</time>
      </trkpt>
      <trkpt lat="42.4292290" lon="-3.1330470">
        <ele>788.8</ele>
        <time>2022-06-27T09:34:20Z</time>
      </trkpt>
      <trkpt lat="42.4291700" lon="-3.1331640">
        <ele>787.8</ele>
        <time>2022-06-27T09:34:21Z</time>
      </trkpt>
      <trkpt lat="42.4291120" lon="-3.1332860">
        <ele>787.4</ele>
        <time>2022-06-27T09:34:22Z</time>
      </trkpt>
      <trkpt lat="42.4290570" lon="-3.1334080">
        <ele>786.6</ele>
        <time>2022-06-27T09:34:23Z</time>
      </trkpt>
      <trkpt lat="42.4290060" lon="-3.1335300">
        <ele>785.8</ele>
        <time>2022-06-27T09:34:24Z</time>
      </trkpt>
      <trkpt lat="42.4289580" lon="-3.1336520">
        <ele>785.6</ele>
        <time>2022-06-27T09:34:25Z</time>
      </trkpt>
      <trkpt lat="42.4289120" lon="-3.1337730">
        <ele>785.0</ele>
        <time>2022-06-27T09:34:26Z</time>
      </trkpt>
      <trkpt lat="42.4288650" lon="-3.1338970">
        <ele>785.0</ele>
        <time>2022-06-27T09:34:27Z</time>
      </trkpt>
      <trkpt lat="42.4288210" lon="-3.1340200">
        <ele>784.6</ele>
        <time>2022-06-27T09:34:28Z</time>
      </trkpt>
      <trkpt lat="42.4287780" lon="-3.1341450">
        <ele>784.4</ele>
        <time>2022-06-27T09:34:29Z</time>
      </trkpt>
      <trkpt lat="42.4287360" lon="-3.1342710">
        <ele>784.0</ele>
        <time>2022-06-27T09:34:30Z</time>
      </trkpt>
      <trkpt lat="42.4286950" lon="-3.1343940">
        <ele>783.6</ele>
        <time>2022-06-27T09:34:31Z</time>
      </trkpt>
      <trkpt lat="42.4286550" lon="-3.1345150">
        <ele>783.6</ele>
        <time>2022-06-27T09:34:32Z</time>
      </trkpt>
      <trkpt lat="42.4286150" lon="-3.1346370">
        <ele>783.4</ele>
        <time>2022-06-27T09:34:33Z</time>
      </trkpt>
      <trkpt lat="42.4285760" lon="-3.1347570">
        <ele>783.4</ele>
        <time>2022-06-27T09:34:34Z</time>
      </trkpt>
      <trkpt lat="42.4285350" lon="-3.1348760">
        <ele>783.2</ele>
        <time>2022-06-27T09:34:35Z</time>
      </trkpt>
      <trkpt lat="42.4284960" lon="-3.1349940">
        <ele>783.2</ele>
        <time>2022-06-27T09:34:36Z</time>
      </trkpt>
      <trkpt lat="42.4284570" lon="-3.1351100">
        <ele>783.2</ele>
        <time>2022-06-27T09:34:37Z</time>
      </trkpt>
      <trkpt lat="42.4284190" lon="-3.1352250">
        <ele>783.0</ele>
        <time>2022-06-27T09:34:38Z</time>
      </trkpt>
      <trkpt lat="42.4283820" lon="-3.1353370">
        <ele>783.0</ele>
        <time>2022-06-27T09:34:39Z</time>
      </trkpt>
      <trkpt lat="42.4283460" lon="-3.1354460">
        <ele>783.0</ele>
        <time>2022-06-27T09:34:40Z</time>
      </trkpt>
      <trkpt lat="42.4283110" lon="-3.1355540">
        <ele>783.0</ele>
        <time>2022-06-27T09:34:41Z</time>
      </trkpt>
      <trkpt lat="42.4282760" lon="-3.1356590">
        <ele>783.0</ele>
        <time>2022-06-27T09:34:42Z</time>
      </trkpt>
      <trkpt lat="42.4282430" lon="-3.1357630">
        <ele>783.0</ele>
        <time>2022-06-27T09:34:43Z</time>
      </trkpt>
      <trkpt lat="42.4282110" lon="-3.1358660">
        <ele>783.2</ele>
        <time>2022-06-27T09:34:44Z</time>
      </trkpt>
      <trkpt lat="42.4281800" lon="-3.1359660">
        <ele>783.4</ele>
        <time>2022-06-27T09:34:45Z</time>
      </trkpt>
      <trkpt lat="42.4281480" lon="-3.1360640">
        <ele>783.6</ele>
        <time>2022-06-27T09:34:46Z</time>
      </trkpt>
      <trkpt lat="42.4281200" lon="-3.1361580">
        <ele>783.8</ele>
        <time>2022-06-27T09:34:47Z</time>
      </trkpt>
      <trkpt lat="42.4280900" lon="-3.1362510">
        <ele>784.0</ele>
        <time>2022-06-27T09:34:48Z</time>
      </trkpt>
      <trkpt lat="42.4280600" lon="-3.1363410">
        <ele>784.2</ele>
        <time>2022-06-27T09:34:49Z</time>
      </trkpt>
      <trkpt lat="42.4280300" lon="-3.1364310">
        <ele>784.2</ele>
        <time>2022-06-27T09:34:50Z</time>
      </trkpt>
      <trkpt lat="42.4280000" lon="-3.1365200">
        <ele>784.4</ele>
        <time>2022-06-27T09:34:51Z</time>
      </trkpt>
      <trkpt lat="42.4279700" lon="-3.1366070">
        <ele>784.6</ele>
        <time>2022-06-27T09:34:52Z</time>
      </trkpt>
      <trkpt lat="42.4279410" lon="-3.1366930">
        <ele>785.2</ele>
        <time>2022-06-27T09:34:53Z</time>
      </trkpt>
      <trkpt lat="42.4279150" lon="-3.1367760">
        <ele>785.8</ele>
        <time>2022-06-27T09:34:54Z</time>
      </trkpt>
      <trkpt lat="42.4278880" lon="-3.1368620">
        <ele>786.2</ele>
        <time>2022-06-27T09:34:55Z</time>
      </trkpt>
      <trkpt lat="42.4278620" lon="-3.1369460">
        <ele>786.4</ele>
        <time>2022-06-27T09:34:56Z</time>
      </trkpt>
      <trkpt lat="42.4278360" lon="-3.1370310">
        <ele>786.6</ele>
        <time>2022-06-27T09:34:57Z</time>
      </trkpt>
      <trkpt lat="42.4278120" lon="-3.1371130">
        <ele>786.6</ele>
        <time>2022-06-27T09:34:58Z</time>
      </trkpt>
      <trkpt lat="42.4277870" lon="-3.1371950">
        <ele>786.8</ele>
        <time>2022-06-27T09:34:59Z</time>
      </trkpt>
      <trkpt lat="42.4277620" lon="-3.1372760">
        <ele>786.8</ele>
        <time>2022-06-27T09:35:00Z</time>
      </trkpt>
      <trkpt lat="42.4277350" lon="-3.1373580">
        <ele>787.0</ele>
        <time>2022-06-27T09:35:01Z</time>
      </trkpt>
      <trkpt lat="42.4277090" lon="-3.1374390">
        <ele>787.2</ele>
        <time>2022-06-27T09:35:02Z</time>
      </trkpt>
      <trkpt lat="42.4276840" lon="-3.1375180">
        <ele>787.4</ele>
        <time>2022-06-27T09:35:03Z</time>
      </trkpt>
      <trkpt lat="42.4276570" lon="-3.1375980">
        <ele>787.4</ele>
        <time>2022-06-27T09:35:04Z</time>
      </trkpt>
      <trkpt lat="42.4276340" lon="-3.1376740">
        <ele>787.6</ele>
        <time>2022-06-27T09:35:05Z</time>
      </trkpt>
      <trkpt lat="42.4276070" lon="-3.1377550">
        <ele>787.6</ele>
        <time>2022-06-27T09:35:06Z</time>
      </trkpt>
      <trkpt lat="42.4275850" lon="-3.1378190">
        <ele>787.8</ele>
        <time>2022-06-27T09:35:07Z</time>
      </trkpt>
      <trkpt lat="42.4275570" lon="-3.1379140">
        <ele>788.2</ele>
        <time>2022-06-27T09:35:08Z</time>
      </trkpt>
      <trkpt lat="42.4275310" lon="-3.1379950">
        <ele>788.6</ele>
        <time>2022-06-27T09:35:09Z</time>
      </trkpt>
      <trkpt lat="42.4275050" lon="-3.1380780">
        <ele>788.6</ele>
        <time>2022-06-27T09:35:10Z</time>
      </trkpt>
      <trkpt lat="42.4274770" lon="-3.1381580">
        <ele>788.8</ele>
        <time>2022-06-27T09:35:11Z</time>
      </trkpt>
      <trkpt lat="42.4274500" lon="-3.1382370">
        <ele>789.0</ele>
        <time>2022-06-27T09:35:12Z</time>
      </trkpt>
      <trkpt lat="42.4274220" lon="-3.1383160">
        <ele>789.0</ele>
        <time>2022-06-27T09:35:13Z</time>
      </trkpt>
      <trkpt lat="42.4273930" lon="-3.1383970">
        <ele>789.0</ele>
        <time>2022-06-27T09:35:14Z</time>
      </trkpt>
      <trkpt lat="42.4273660" lon="-3.1384770">
        <ele>789.2</ele>
        <time>2022-06-27T09:35:15Z</time>
      </trkpt>
      <trkpt lat="42.4273370" lon="-3.1385580">
        <ele>789.4</ele>
        <time>2022-06-27T09:35:16Z</time>
      </trkpt>
      <trkpt lat="42.4273090" lon="-3.1386380">
        <ele>789.6</ele>
        <time>2022-06-27T09:35:17Z</time>
      </trkpt>
      <trkpt lat="42.4272820" lon="-3.1387190">
        <ele>789.8</ele>
        <time>2022-06-27T09:35:18Z</time>
      </trkpt>
      <trkpt lat="42.4272550" lon="-3.1388020">
        <ele>790.0</ele>
        <time>2022-06-27T09:35:19Z</time>
      </trkpt>
      <trkpt lat="42.4272280" lon="-3.1388860">
        <ele>790.2</ele>
        <time>2022-06-27T09:35:20Z</time>
      </trkpt>
      <trkpt lat="42.4272000" lon="-3.1389680">
        <ele>790.2</ele>
        <time>2022-06-27T09:35:21Z</time>
      </trkpt>
      <trkpt lat="42.4271720" lon="-3.1390500">
        <ele>790.4</ele>
        <time>2022-06-27T09:35:22Z</time>
      </trkpt>
      <trkpt lat="42.4271420" lon="-3.1391340">
        <ele>790.4</ele>
        <time>2022-06-27T09:35:23Z</time>
      </trkpt>
      <trkpt lat="42.4271150" lon="-3.1392180">
        <ele>790.4</ele>
        <time>2022-06-27T09:35:24Z</time>
      </trkpt>
      <trkpt lat="42.4270850" lon="-3.1393040">
        <ele>790.4</ele>
        <time>2022-06-27T09:35:25Z</time>
      </trkpt>
      <trkpt lat="42.4270540" lon="-3.1393890">
        <ele>790.6</ele>
        <time>2022-06-27T09:35:26Z</time>
      </trkpt>
      <trkpt lat="42.4270270" lon="-3.1394740">
        <ele>790.6</ele>
        <time>2022-06-27T09:35:27Z</time>
      </trkpt>
      <trkpt lat="42.4270050" lon="-3.1395440">
        <ele>790.6</ele>
        <time>2022-06-27T09:35:28Z</time>
      </trkpt>
      <trkpt lat="42.4269720" lon="-3.1396480">
        <ele>790.8</ele>
        <time>2022-06-27T09:35:29Z</time>
      </trkpt>
      <trkpt lat="42.4269440" lon="-3.1397320">
        <ele>790.8</ele>
        <time>2022-06-27T09:35:30Z</time>
      </trkpt>
      <trkpt lat="42.4269160" lon="-3.1398180">
        <ele>790.8</ele>
        <time>2022-06-27T09:35:31Z</time>
      </trkpt>
      <trkpt lat="42.4268870" lon="-3.1399030">
        <ele>791.0</ele>
        <time>2022-06-27T09:35:32Z</time>
      </trkpt>
      <trkpt lat="42.4268590" lon="-3.1399850">
        <ele>791.0</ele>
        <time>2022-06-27T09:35:33Z</time>
      </trkpt>
      <trkpt lat="42.4268280" lon="-3.1400700">
        <ele>791.0</ele>
        <time>2022-06-27T09:35:34Z</time>
      </trkpt>
      <trkpt lat="42.4267970" lon="-3.1401570">
        <ele>791.2</ele>
        <time>2022-06-27T09:35:35Z</time>
      </trkpt>
      <trkpt lat="42.4267700" lon="-3.1402430">
        <ele>791.2</ele>
        <time>2022-06-27T09:35:36Z</time>
      </trkpt>
      <trkpt lat="42.4267430" lon="-3.1403270">
        <ele>791.2</ele>
        <time>2022-06-27T09:35:37Z</time>
      </trkpt>
      <trkpt lat="42.4267170" lon="-3.1404100">
        <ele>791.2</ele>
        <time>2022-06-27T09:35:38Z</time>
      </trkpt>
      <trkpt lat="42.4266900" lon="-3.1404930">
        <ele>791.4</ele>
        <time>2022-06-27T09:35:39Z</time>
      </trkpt>
      <trkpt lat="42.4266650" lon="-3.1405760">
        <ele>791.4</ele>
        <time>2022-06-27T09:35:40Z</time>
      </trkpt>
      <trkpt lat="42.4266380" lon="-3.1406600">
        <ele>791.4</ele>
        <time>2022-06-27T09:35:41Z</time>
      </trkpt>
      <trkpt lat="42.4266090" lon="-3.1407460">
        <ele>791.4</ele>
        <time>2022-06-27T09:35:42Z</time>
      </trkpt>
      <trkpt lat="42.4265820" lon="-3.1408330">
        <ele>791.4</ele>
        <time>2022-06-27T09:35:43Z</time>
      </trkpt>
      <trkpt lat="42.4265590" lon="-3.1409160">
        <ele>791.4</ele>
        <time>2022-06-27T09:35:44Z</time>
      </trkpt>
      <trkpt lat="42.4265310" lon="-3.1410010">
        <ele>791.4</ele>
        <time>2022-06-27T09:35:45Z</time>
      </trkpt>
      <trkpt lat="42.4265030" lon="-3.1410870">
        <ele>791.4</ele>
        <time>2022-06-27T09:35:46Z</time>
      </trkpt>
      <trkpt lat="42.4264760" lon="-3.1411710">
        <ele>791.4</ele>
        <time>2022-06-27T09:35:47Z</time>
      </trkpt>
      <trkpt lat="42.4264490" lon="-3.1412570">
        <ele>791.4</ele>
        <time>2022-06-27T09:35:48Z</time>
      </trkpt>
      <trkpt lat="42.4264200" lon="-3.1413440">
        <ele>791.6</ele>
        <time>2022-06-27T09:35:49Z</time>
      </trkpt>
      <trkpt lat="42.4263930" lon="-3.1414300">
        <ele>791.6</ele>
        <time>2022-06-27T09:35:50Z</time>
      </trkpt>
      <trkpt lat="42.4263670" lon="-3.1415140">
        <ele>791.6</ele>
        <time>2022-06-27T09:35:51Z</time>
      </trkpt>
      <trkpt lat="42.4263420" lon="-3.1415960">
        <ele>791.6</ele>
        <time>2022-06-27T09:35:52Z</time>
      </trkpt>
      <trkpt lat="42.4263150" lon="-3.1416790">
        <ele>791.8</ele>
        <time>2022-06-27T09:35:53Z</time>
      </trkpt>
      <trkpt lat="42.4262880" lon="-3.1417600">
        <ele>792.0</ele>
        <time>2022-06-27T09:35:54Z</time>
      </trkpt>
      <trkpt lat="42.4262660" lon="-3.1418240">
        <ele>792.4</ele>
        <time>2022-06-27T09:35:55Z</time>
      </trkpt>
      <trkpt lat="42.4262350" lon="-3.1419180">
        <ele>792.6</ele>
        <time>2022-06-27T09:35:56Z</time>
      </trkpt>
      <trkpt lat="42.4262080" lon="-3.1419980">
        <ele>792.6</ele>
        <time>2022-06-27T09:35:57Z</time>
      </trkpt>
      <trkpt lat="42.4261820" lon="-3.1420770">
        <ele>792.8</ele>
        <time>2022-06-27T09:35:58Z</time>
      </trkpt>
      <trkpt lat="42.4261550" lon="-3.1421550">
        <ele>792.8</ele>
        <time>2022-06-27T09:35:59Z</time>
      </trkpt>
      <trkpt lat="42.4261280" lon="-3.1422330">
        <ele>793.0</ele>
        <time>2022-06-27T09:36:00Z</time>
      </trkpt>
      <trkpt lat="42.4261030" lon="-3.1423090">
        <ele>793.0</ele>
        <time>2022-06-27T09:36:01Z</time>
      </trkpt>
      <trkpt lat="42.4260810" lon="-3.1423840">
        <ele>793.0</ele>
        <time>2022-06-27T09:36:02Z</time>
      </trkpt>
      <trkpt lat="42.4260580" lon="-3.1424610">
        <ele>793.4</ele>
        <time>2022-06-27T09:36:03Z</time>
      </trkpt>
      <trkpt lat="42.4260320" lon="-3.1425380">
        <ele>793.4</ele>
        <time>2022-06-27T09:36:04Z</time>
      </trkpt>
      <trkpt lat="42.4260060" lon="-3.1426140">
        <ele>793.6</ele>
        <time>2022-06-27T09:36:05Z</time>
      </trkpt>
      <trkpt lat="42.4259800" lon="-3.1426920">
        <ele>793.6</ele>
        <time>2022-06-27T09:36:06Z</time>
      </trkpt>
      <trkpt lat="42.4259530" lon="-3.1427680">
        <ele>793.8</ele>
        <time>2022-06-27T09:36:07Z</time>
      </trkpt>
      <trkpt lat="42.4259270" lon="-3.1428430">
        <ele>794.0</ele>
        <time>2022-06-27T09:36:08Z</time>
      </trkpt>
      <trkpt lat="42.4259040" lon="-3.1429160">
        <ele>794.2</ele>
        <time>2022-06-27T09:36:09Z</time>
      </trkpt>
      <trkpt lat="42.4258810" lon="-3.1429910">
        <ele>794.6</ele>
        <time>2022-06-27T09:36:10Z</time>
      </trkpt>
      <trkpt lat="42.4258570" lon="-3.1430670">
        <ele>794.6</ele>
        <time>2022-06-27T09:36:11Z</time>
      </trkpt>
      <trkpt lat="42.4258330" lon="-3.1431430">
        <ele>794.8</ele>
        <time>2022-06-27T09:36:12Z</time>
      </trkpt>
      <trkpt lat="42.4258080" lon="-3.1432180">
        <ele>795.0</ele>
        <time>2022-06-27T09:36:13Z</time>
      </trkpt>
      <trkpt lat="42.4257830" lon="-3.1432910">
        <ele>795.2</ele>
        <time>2022-06-27T09:36:14Z</time>
      </trkpt>
      <trkpt lat="42.4257610" lon="-3.1433610">
        <ele>795.2</ele>
        <time>2022-06-27T09:36:15Z</time>
      </trkpt>
      <trkpt lat="42.4257430" lon="-3.1434180">
        <ele>795.6</ele>
        <time>2022-06-27T09:36:16Z</time>
      </trkpt>
      <trkpt lat="42.4257130" lon="-3.1435060">
        <ele>795.8</ele>
        <time>2022-06-27T09:36:17Z</time>
      </trkpt>
      <trkpt lat="42.4256880" lon="-3.1435780">
        <ele>795.8</ele>
        <time>2022-06-27T09:36:18Z</time>
      </trkpt>
      <trkpt lat="42.4256650" lon="-3.1436480">
        <ele>796.0</ele>
        <time>2022-06-27T09:36:19Z</time>
      </trkpt>
      <trkpt lat="42.4256440" lon="-3.1437180">
        <ele>796.0</ele>
        <time>2022-06-27T09:36:20Z</time>
      </trkpt>
      <trkpt lat="42.4256210" lon="-3.1437890">
        <ele>796.4</ele>
        <time>2022-06-27T09:36:21Z</time>
      </trkpt>
      <trkpt lat="42.4256030" lon="-3.1438460">
        <ele>796.4</ele>
        <time>2022-06-27T09:36:22Z</time>
      </trkpt>
      <trkpt lat="42.4255740" lon="-3.1439320">
        <ele>796.6</ele>
        <time>2022-06-27T09:36:23Z</time>
      </trkpt>
      <trkpt lat="42.4255500" lon="-3.1440060">
        <ele>796.8</ele>
        <time>2022-06-27T09:36:24Z</time>
      </trkpt>
      <trkpt lat="42.4255260" lon="-3.1440790">
        <ele>797.0</ele>
        <time>2022-06-27T09:36:25Z</time>
      </trkpt>
      <trkpt lat="42.4255030" lon="-3.1441520">
        <ele>797.2</ele>
        <time>2022-06-27T09:36:26Z</time>
      </trkpt>
      <trkpt lat="42.4254790" lon="-3.1442200">
        <ele>797.2</ele>
        <time>2022-06-27T09:36:27Z</time>
      </trkpt>
      <trkpt lat="42.4254560" lon="-3.1442920">
        <ele>797.4</ele>
        <time>2022-06-27T09:36:28Z</time>
      </trkpt>
      <trkpt lat="42.4254330" lon="-3.1443640">
        <ele>797.4</ele>
        <time>2022-06-27T09:36:29Z</time>
      </trkpt>
      <trkpt lat="42.4254110" lon="-3.1444380">
        <ele>797.6</ele>
        <time>2022-06-27T09:36:30Z</time>
      </trkpt>
      <trkpt lat="42.4253880" lon="-3.1445090">
        <ele>797.8</ele>
        <time>2022-06-27T09:36:31Z</time>
      </trkpt>
      <trkpt lat="42.4253650" lon="-3.1445790">
        <ele>798.0</ele>
        <time>2022-06-27T09:36:32Z</time>
      </trkpt>
      <trkpt lat="42.4253420" lon="-3.1446490">
        <ele>798.2</ele>
        <time>2022-06-27T09:36:33Z</time>
      </trkpt>
      <trkpt lat="42.4253190" lon="-3.1447190">
        <ele>798.2</ele>
        <time>2022-06-27T09:36:34Z</time>
      </trkpt>
      <trkpt lat="42.4252980" lon="-3.1447910">
        <ele>798.4</ele>
        <time>2022-06-27T09:36:35Z</time>
      </trkpt>
      <trkpt lat="42.4252750" lon="-3.1448630">
        <ele>798.6</ele>
        <time>2022-06-27T09:36:36Z</time>
      </trkpt>
      <trkpt lat="42.4252520" lon="-3.1449360">
        <ele>798.8</ele>
        <time>2022-06-27T09:36:37Z</time>
      </trkpt>
      <trkpt lat="42.4252310" lon="-3.1450040">
        <ele>798.8</ele>
        <time>2022-06-27T09:36:38Z</time>
      </trkpt>
      <trkpt lat="42.4252100" lon="-3.1450750">
        <ele>799.0</ele>
        <time>2022-06-27T09:36:39Z</time>
      </trkpt>
      <trkpt lat="42.4251870" lon="-3.1451460">
        <ele>799.0</ele>
        <time>2022-06-27T09:36:40Z</time>
      </trkpt>
      <trkpt lat="42.4251620" lon="-3.1452200">
        <ele>799.0</ele>
        <time>2022-06-27T09:36:41Z</time>
      </trkpt>
      <trkpt lat="42.4251390" lon="-3.1452970">
        <ele>799.4</ele>
        <time>2022-06-27T09:36:42Z</time>
      </trkpt>
      <trkpt lat="42.4251150" lon="-3.1453740">
        <ele>799.6</ele>
        <time>2022-06-27T09:36:43Z</time>
      </trkpt>
      <trkpt lat="42.4250900" lon="-3.1454500">
        <ele>799.8</ele>
        <time>2022-06-27T09:36:44Z</time>
      </trkpt>
      <trkpt lat="42.4250640" lon="-3.1455240">
        <ele>800.0</ele>
        <time>2022-06-27T09:36:45Z</time>
      </trkpt>
      <trkpt lat="42.4250390" lon="-3.1455960">
        <ele>800.2</ele>
        <time>2022-06-27T09:36:46Z</time>
      </trkpt>
      <trkpt lat="42.4250120" lon="-3.1456740">
        <ele>800.4</ele>
        <time>2022-06-27T09:36:47Z</time>
      </trkpt>
      <trkpt lat="42.4249870" lon="-3.1457500">
        <ele>800.6</ele>
        <time>2022-06-27T09:36:48Z</time>
      </trkpt>
      <trkpt lat="42.4249620" lon="-3.1458250">
        <ele>800.8</ele>
        <time>2022-06-27T09:36:49Z</time>
      </trkpt>
      <trkpt lat="42.4249370" lon="-3.1458980">
        <ele>800.8</ele>
        <time>2022-06-27T09:36:50Z</time>
      </trkpt>
      <trkpt lat="42.4249110" lon="-3.1459700">
        <ele>801.0</ele>
        <time>2022-06-27T09:36:51Z</time>
      </trkpt>
      <trkpt lat="42.4248880" lon="-3.1460400">
        <ele>801.0</ele>
        <time>2022-06-27T09:36:52Z</time>
      </trkpt>
      <trkpt lat="42.4248640" lon="-3.1461110">
        <ele>801.2</ele>
        <time>2022-06-27T09:36:53Z</time>
      </trkpt>
      <trkpt lat="42.4248380" lon="-3.1461840">
        <ele>801.2</ele>
        <time>2022-06-27T09:36:54Z</time>
      </trkpt>
      <trkpt lat="42.4248150" lon="-3.1462550">
        <ele>801.4</ele>
        <time>2022-06-27T09:36:55Z</time>
      </trkpt>
      <trkpt lat="42.4247900" lon="-3.1463280">
        <ele>801.6</ele>
        <time>2022-06-27T09:36:56Z</time>
      </trkpt>
      <trkpt lat="42.4247640" lon="-3.1464030">
        <ele>801.8</ele>
        <time>2022-06-27T09:36:57Z</time>
      </trkpt>
      <trkpt lat="42.4247390" lon="-3.1464770">
        <ele>802.2</ele>
        <time>2022-06-27T09:36:58Z</time>
      </trkpt>
      <trkpt lat="42.4247160" lon="-3.1465490">
        <ele>802.4</ele>
        <time>2022-06-27T09:36:59Z</time>
      </trkpt>
      <trkpt lat="42.4246910" lon="-3.1466220">
        <ele>802.6</ele>
        <time>2022-06-27T09:37:00Z</time>
      </trkpt>
      <trkpt lat="42.4246670" lon="-3.1466910">
        <ele>802.6</ele>
        <time>2022-06-27T09:37:01Z</time>
      </trkpt>
      <trkpt lat="42.4246430" lon="-3.1467630">
        <ele>802.8</ele>
        <time>2022-06-27T09:37:02Z</time>
      </trkpt>
      <trkpt lat="42.4246210" lon="-3.1468350">
        <ele>803.0</ele>
        <time>2022-06-27T09:37:03Z</time>
      </trkpt>
      <trkpt lat="42.4245970" lon="-3.1469080">
        <ele>803.0</ele>
        <time>2022-06-27T09:37:04Z</time>
      </trkpt>
      <trkpt lat="42.4245740" lon="-3.1469820">
        <ele>803.2</ele>
        <time>2022-06-27T09:37:05Z</time>
      </trkpt>
      <trkpt lat="42.4245490" lon="-3.1470530">
        <ele>803.4</ele>
        <time>2022-06-27T09:37:06Z</time>
      </trkpt>
      <trkpt lat="42.4245240" lon="-3.1471260">
        <ele>803.6</ele>
        <time>2022-06-27T09:37:07Z</time>
      </trkpt>
      <trkpt lat="42.4245000" lon="-3.1471960">
        <ele>803.8</ele>
        <time>2022-06-27T09:37:08Z</time>
      </trkpt>
      <trkpt lat="42.4244780" lon="-3.1472670">
        <ele>803.8</ele>
        <time>2022-06-27T09:37:09Z</time>
      </trkpt>
      <trkpt lat="42.4244550" lon="-3.1473380">
        <ele>804.2</ele>
        <time>2022-06-27T09:37:10Z</time>
      </trkpt>
      <trkpt lat="42.4244360" lon="-3.1474060">
        <ele>804.4</ele>
        <time>2022-06-27T09:37:11Z</time>
      </trkpt>
      <trkpt lat="42.4244130" lon="-3.1474780">
        <ele>804.6</ele>
        <time>2022-06-27T09:37:12Z</time>
      </trkpt>
      <trkpt lat="42.4243890" lon="-3.1475500">
        <ele>804.6</ele>
        <time>2022-06-27T09:37:13Z</time>
      </trkpt>
      <trkpt lat="42.4243650" lon="-3.1476240">
        <ele>804.8</ele>
        <time>2022-06-27T09:37:14Z</time>
      </trkpt>
      <trkpt lat="42.4243410" lon="-3.1476970">
        <ele>804.8</ele>
        <time>2022-06-27T09:37:15Z</time>
      </trkpt>
      <trkpt lat="42.4243200" lon="-3.1477540">
        <ele>805.2</ele>
        <time>2022-06-27T09:37:16Z</time>
      </trkpt>
      <trkpt lat="42.4242900" lon="-3.1478420">
        <ele>805.2</ele>
        <time>2022-06-27T09:37:17Z</time>
      </trkpt>
      <trkpt lat="42.4242670" lon="-3.1479150">
        <ele>805.4</ele>
        <time>2022-06-27T09:37:18Z</time>
      </trkpt>
      <trkpt lat="42.4242430" lon="-3.1479880">
        <ele>805.6</ele>
        <time>2022-06-27T09:37:19Z</time>
      </trkpt>
      <trkpt lat="42.4242180" lon="-3.1480600">
        <ele>805.6</ele>
        <time>2022-06-27T09:37:20Z</time>
      </trkpt>
      <trkpt lat="42.4241950" lon="-3.1481310">
        <ele>805.8</ele>
        <time>2022-06-27T09:37:21Z</time>
      </trkpt>
      <trkpt lat="42.4241720" lon="-3.1482040">
        <ele>805.8</ele>
        <time>2022-06-27T09:37:22Z</time>
      </trkpt>
      <trkpt lat="42.4241480" lon="-3.1482770">
        <ele>806.2</ele>
        <time>2022-06-27T09:37:23Z</time>
      </trkpt>
      <trkpt lat="42.4241240" lon="-3.1483490">
        <ele>806.4</ele>
        <time>2022-06-27T09:37:24Z</time>
      </trkpt>
      <trkpt lat="42.4241000" lon="-3.1484210">
        <ele>806.4</ele>
        <time>2022-06-27T09:37:25Z</time>
      </trkpt>
      <trkpt lat="42.4240770" lon="-3.1484910">
        <ele>806.6</ele>
        <time>2022-06-27T09:37:26Z</time>
      </trkpt>
      <trkpt lat="42.4240540" lon="-3.1485610">
        <ele>806.8</ele>
        <time>2022-06-27T09:37:27Z</time>
      </trkpt>
      <trkpt lat="42.4240270" lon="-3.1486340">
        <ele>807.0</ele>
        <time>2022-06-27T09:37:28Z</time>
      </trkpt>
      <trkpt lat="42.4240030" lon="-3.1487070">
        <ele>807.0</ele>
        <time>2022-06-27T09:37:29Z</time>
      </trkpt>
      <trkpt lat="42.4239770" lon="-3.1487810">
        <ele>807.0</ele>
        <time>2022-06-27T09:37:30Z</time>
      </trkpt>
      <trkpt lat="42.4239530" lon="-3.1488550">
        <ele>807.2</ele>
        <time>2022-06-27T09:37:31Z</time>
      </trkpt>
      <trkpt lat="42.4239300" lon="-3.1489270">
        <ele>807.6</ele>
        <time>2022-06-27T09:37:32Z</time>
      </trkpt>
      <trkpt lat="42.4239070" lon="-3.1490020">
        <ele>807.8</ele>
        <time>2022-06-27T09:37:33Z</time>
      </trkpt>
      <trkpt lat="42.4238820" lon="-3.1490780">
        <ele>807.8</ele>
        <time>2022-06-27T09:37:34Z</time>
      </trkpt>
      <trkpt lat="42.4238560" lon="-3.1491530">
        <ele>808.0</ele>
        <time>2022-06-27T09:37:35Z</time>
      </trkpt>
      <trkpt lat="42.4238300" lon="-3.1492280">
        <ele>808.0</ele>
        <time>2022-06-27T09:37:36Z</time>
      </trkpt>
      <trkpt lat="42.4238070" lon="-3.1493000">
        <ele>808.0</ele>
        <time>2022-06-27T09:37:37Z</time>
      </trkpt>
      <trkpt lat="42.4237820" lon="-3.1493740">
        <ele>808.0</ele>
        <time>2022-06-27T09:37:38Z</time>
      </trkpt>
      <trkpt lat="42.4237580" lon="-3.1494460">
        <ele>808.0</ele>
        <time>2022-06-27T09:37:39Z</time>
      </trkpt>
      <trkpt lat="42.4237350" lon="-3.1495190">
        <ele>808.2</ele>
        <time>2022-06-27T09:37:40Z</time>
      </trkpt>
      <trkpt lat="42.4237120" lon="-3.1495920">
        <ele>808.2</ele>
        <time>2022-06-27T09:37:41Z</time>
      </trkpt>
      <trkpt lat="42.4236880" lon="-3.1496640">
        <ele>808.4</ele>
        <time>2022-06-27T09:37:42Z</time>
      </trkpt>
      <trkpt lat="42.4236630" lon="-3.1497370">
        <ele>808.4</ele>
        <time>2022-06-27T09:37:43Z</time>
      </trkpt>
      <trkpt lat="42.4236400" lon="-3.1498080">
        <ele>808.6</ele>
        <time>2022-06-27T09:37:44Z</time>
      </trkpt>
      <trkpt lat="42.4236150" lon="-3.1498810">
        <ele>808.6</ele>
        <time>2022-06-27T09:37:45Z</time>
      </trkpt>
      <trkpt lat="42.4235900" lon="-3.1499550">
        <ele>808.8</ele>
        <time>2022-06-27T09:37:46Z</time>
      </trkpt>
      <trkpt lat="42.4235660" lon="-3.1500290">
        <ele>808.8</ele>
        <time>2022-06-27T09:37:47Z</time>
      </trkpt>
      <trkpt lat="42.4235450" lon="-3.1501010">
        <ele>809.2</ele>
        <time>2022-06-27T09:37:48Z</time>
      </trkpt>
      <trkpt lat="42.4235210" lon="-3.1501750">
        <ele>809.4</ele>
        <time>2022-06-27T09:37:49Z</time>
      </trkpt>
      <trkpt lat="42.4234970" lon="-3.1502450">
        <ele>809.6</ele>
        <time>2022-06-27T09:37:50Z</time>
      </trkpt>
      <trkpt lat="42.4234750" lon="-3.1503150">
        <ele>809.6</ele>
        <time>2022-06-27T09:37:51Z</time>
      </trkpt>
      <trkpt lat="42.4234530" lon="-3.1503850">
        <ele>809.6</ele>
        <time>2022-06-27T09:37:52Z</time>
      </trkpt>
      <trkpt lat="42.4234300" lon="-3.1504580">
        <ele>809.8</ele>
        <time>2022-06-27T09:37:53Z</time>
      </trkpt>
      <trkpt lat="42.4234050" lon="-3.1505320">
        <ele>809.8</ele>
        <time>2022-06-27T09:37:54Z</time>
      </trkpt>
      <trkpt lat="42.4233810" lon="-3.1506050">
        <ele>810.0</ele>
        <time>2022-06-27T09:37:55Z</time>
      </trkpt>
      <trkpt lat="42.4233570" lon="-3.1506800">
        <ele>810.2</ele>
        <time>2022-06-27T09:37:56Z</time>
      </trkpt>
      <trkpt lat="42.4233320" lon="-3.1507550">
        <ele>810.2</ele>
        <time>2022-06-27T09:37:57Z</time>
      </trkpt>
      <trkpt lat="42.4233070" lon="-3.1508300">
        <ele>810.4</ele>
        <time>2022-06-27T09:37:58Z</time>
      </trkpt>
      <trkpt lat="42.4232880" lon="-3.1508900">
        <ele>810.6</ele>
        <time>2022-06-27T09:37:59Z</time>
      </trkpt>
      <trkpt lat="42.4232590" lon="-3.1509800">
        <ele>811.0</ele>
        <time>2022-06-27T09:38:00Z</time>
      </trkpt>
      <trkpt lat="42.4232350" lon="-3.1510550">
        <ele>811.0</ele>
        <time>2022-06-27T09:38:01Z</time>
      </trkpt>
      <trkpt lat="42.4232090" lon="-3.1511310">
        <ele>811.2</ele>
        <time>2022-06-27T09:38:02Z</time>
      </trkpt>
      <trkpt lat="42.4231880" lon="-3.1511910">
        <ele>811.4</ele>
        <time>2022-06-27T09:38:03Z</time>
      </trkpt>
      <trkpt lat="42.4231630" lon="-3.1512650">
        <ele>811.6</ele>
        <time>2022-06-27T09:38:04Z</time>
      </trkpt>
      <trkpt lat="42.4231350" lon="-3.1513550">
        <ele>811.6</ele>
        <time>2022-06-27T09:38:05Z</time>
      </trkpt>
      <trkpt lat="42.4231110" lon="-3.1514270">
        <ele>811.6</ele>
        <time>2022-06-27T09:38:06Z</time>
      </trkpt>
      <trkpt lat="42.4230870" lon="-3.1514990">
        <ele>811.8</ele>
        <time>2022-06-27T09:38:07Z</time>
      </trkpt>
      <trkpt lat="42.4230670" lon="-3.1515590">
        <ele>811.8</ele>
        <time>2022-06-27T09:38:08Z</time>
      </trkpt>
      <trkpt lat="42.4230380" lon="-3.1516470">
        <ele>812.0</ele>
        <time>2022-06-27T09:38:09Z</time>
      </trkpt>
      <trkpt lat="42.4230130" lon="-3.1517210">
        <ele>812.0</ele>
        <time>2022-06-27T09:38:10Z</time>
      </trkpt>
      <trkpt lat="42.4229910" lon="-3.1517960">
        <ele>812.2</ele>
        <time>2022-06-27T09:38:11Z</time>
      </trkpt>
      <trkpt lat="42.4229660" lon="-3.1518710">
        <ele>812.4</ele>
        <time>2022-06-27T09:38:12Z</time>
      </trkpt>
      <trkpt lat="42.4229420" lon="-3.1519420">
        <ele>812.6</ele>
        <time>2022-06-27T09:38:13Z</time>
      </trkpt>
      <trkpt lat="42.4229170" lon="-3.1520160">
        <ele>813.0</ele>
        <time>2022-06-27T09:38:14Z</time>
      </trkpt>
      <trkpt lat="42.4228940" lon="-3.1520890">
        <ele>813.2</ele>
        <time>2022-06-27T09:38:15Z</time>
      </trkpt>
      <trkpt lat="42.4228710" lon="-3.1521630">
        <ele>813.4</ele>
        <time>2022-06-27T09:38:16Z</time>
      </trkpt>
      <trkpt lat="42.4228470" lon="-3.1522370">
        <ele>813.4</ele>
        <time>2022-06-27T09:38:17Z</time>
      </trkpt>
      <trkpt lat="42.4228230" lon="-3.1523110">
        <ele>813.6</ele>
        <time>2022-06-27T09:38:18Z</time>
      </trkpt>
      <trkpt lat="42.4227990" lon="-3.1523860">
        <ele>813.8</ele>
        <time>2022-06-27T09:38:19Z</time>
      </trkpt>
      <trkpt lat="42.4227740" lon="-3.1524600">
        <ele>813.8</ele>
        <time>2022-06-27T09:38:20Z</time>
      </trkpt>
      <trkpt lat="42.4227510" lon="-3.1525330">
        <ele>814.0</ele>
        <time>2022-06-27T09:38:21Z</time>
      </trkpt>
      <trkpt lat="42.4227280" lon="-3.1526070">
        <ele>814.0</ele>
        <time>2022-06-27T09:38:22Z</time>
      </trkpt>
      <trkpt lat="42.4227040" lon="-3.1526810">
        <ele>814.2</ele>
        <time>2022-06-27T09:38:23Z</time>
      </trkpt>
      <trkpt lat="42.4226800" lon="-3.1527540">
        <ele>814.2</ele>
        <time>2022-06-27T09:38:24Z</time>
      </trkpt>
      <trkpt lat="42.4226560" lon="-3.1528280">
        <ele>814.4</ele>
        <time>2022-06-27T09:38:25Z</time>
      </trkpt>
      <trkpt lat="42.4226340" lon="-3.1529010">
        <ele>814.4</ele>
        <time>2022-06-27T09:38:26Z</time>
      </trkpt>
      <trkpt lat="42.4226120" lon="-3.1529710">
        <ele>814.6</ele>
        <time>2022-06-27T09:38:27Z</time>
      </trkpt>
      <trkpt lat="42.4225890" lon="-3.1530420">
        <ele>814.8</ele>
        <time>2022-06-27T09:38:28Z</time>
      </trkpt>
      <trkpt lat="42.4225670" lon="-3.1531100">
        <ele>814.8</ele>
        <time>2022-06-27T09:38:29Z</time>
      </trkpt>
      <trkpt lat="42.4225500" lon="-3.1531640">
        <ele>815.0</ele>
        <time>2022-06-27T09:38:30Z</time>
      </trkpt>
      <trkpt lat="42.4225210" lon="-3.1532520">
        <ele>815.0</ele>
        <time>2022-06-27T09:38:31Z</time>
      </trkpt>
      <trkpt lat="42.4224970" lon="-3.1533250">
        <ele>815.2</ele>
        <time>2022-06-27T09:38:32Z</time>
      </trkpt>
      <trkpt lat="42.4224710" lon="-3.1533980">
        <ele>815.2</ele>
        <time>2022-06-27T09:38:33Z</time>
      </trkpt>
      <trkpt lat="42.4224460" lon="-3.1534710">
        <ele>815.4</ele>
        <time>2022-06-27T09:38:34Z</time>
      </trkpt>
      <trkpt lat="42.4224210" lon="-3.1535450">
        <ele>815.6</ele>
        <time>2022-06-27T09:38:35Z</time>
      </trkpt>
      <trkpt lat="42.4223960" lon="-3.1536180">
        <ele>815.8</ele>
        <time>2022-06-27T09:38:36Z</time>
      </trkpt>
      <trkpt lat="42.4223730" lon="-3.1536890">
        <ele>816.0</ele>
        <time>2022-06-27T09:38:37Z</time>
      </trkpt>
      <trkpt lat="42.4223510" lon="-3.1537600">
        <ele>816.0</ele>
        <time>2022-06-27T09:38:38Z</time>
      </trkpt>
      <trkpt lat="42.4223290" lon="-3.1538300">
        <ele>816.2</ele>
        <time>2022-06-27T09:38:39Z</time>
      </trkpt>
      <trkpt lat="42.4223030" lon="-3.1539030">
        <ele>816.4</ele>
        <time>2022-06-27T09:38:40Z</time>
      </trkpt>
      <trkpt lat="42.4222790" lon="-3.1539760">
        <ele>816.6</ele>
        <time>2022-06-27T09:38:41Z</time>
      </trkpt>
      <trkpt lat="42.4222550" lon="-3.1540490">
        <ele>816.6</ele>
        <time>2022-06-27T09:38:42Z</time>
      </trkpt>
      <trkpt lat="42.4222320" lon="-3.1541190">
        <ele>816.8</ele>
        <time>2022-06-27T09:38:43Z</time>
      </trkpt>
      <trkpt lat="42.4222090" lon="-3.1541910">
        <ele>817.0</ele>
        <time>2022-06-27T09:38:44Z</time>
      </trkpt>
      <trkpt lat="42.4221850" lon="-3.1542650">
        <ele>817.0</ele>
        <time>2022-06-27T09:38:45Z</time>
      </trkpt>
      <trkpt lat="42.4221600" lon="-3.1543390">
        <ele>817.2</ele>
        <time>2022-06-27T09:38:46Z</time>
      </trkpt>
      <trkpt lat="42.4221350" lon="-3.1544140">
        <ele>817.2</ele>
        <time>2022-06-27T09:38:47Z</time>
      </trkpt>
      <trkpt lat="42.4221100" lon="-3.1544890">
        <ele>817.4</ele>
        <time>2022-06-27T09:38:48Z</time>
      </trkpt>
      <trkpt lat="42.4220840" lon="-3.1545640">
        <ele>817.6</ele>
        <time>2022-06-27T09:38:49Z</time>
      </trkpt>
      <trkpt lat="42.4220590" lon="-3.1546390">
        <ele>817.6</ele>
        <time>2022-06-27T09:38:50Z</time>
      </trkpt>
      <trkpt lat="42.4220350" lon="-3.1547130">
        <ele>817.8</ele>
        <time>2022-06-27T09:38:51Z</time>
      </trkpt>
      <trkpt lat="42.4220100" lon="-3.1547880">
        <ele>818.0</ele>
        <time>2022-06-27T09:38:52Z</time>
      </trkpt>
      <trkpt lat="42.4219850" lon="-3.1548610">
        <ele>818.2</ele>
        <time>2022-06-27T09:38:53Z</time>
      </trkpt>
      <trkpt lat="42.4219610" lon="-3.1549340">
        <ele>818.4</ele>
        <time>2022-06-27T09:38:54Z</time>
      </trkpt>
      <trkpt lat="42.4219370" lon="-3.1550070">
        <ele>818.6</ele>
        <time>2022-06-27T09:38:55Z</time>
      </trkpt>
      <trkpt lat="42.4219140" lon="-3.1550800">
        <ele>818.8</ele>
        <time>2022-06-27T09:38:56Z</time>
      </trkpt>
      <trkpt lat="42.4218950" lon="-3.1551390">
        <ele>819.0</ele>
        <time>2022-06-27T09:38:57Z</time>
      </trkpt>
      <trkpt lat="42.4218660" lon="-3.1552290">
        <ele>819.0</ele>
        <time>2022-06-27T09:38:58Z</time>
      </trkpt>
      <trkpt lat="42.4218410" lon="-3.1553040">
        <ele>819.2</ele>
        <time>2022-06-27T09:38:59Z</time>
      </trkpt>
      <trkpt lat="42.4218180" lon="-3.1553730">
        <ele>819.0</ele>
        <time>2022-06-27T09:39:00Z</time>
      </trkpt>
      <trkpt lat="42.4217940" lon="-3.1554470">
        <ele>819.4</ele>
        <time>2022-06-27T09:39:01Z</time>
      </trkpt>
      <trkpt lat="42.4217690" lon="-3.1555230">
        <ele>819.4</ele>
        <time>2022-06-27T09:39:02Z</time>
      </trkpt>
      <trkpt lat="42.4217440" lon="-3.1555980">
        <ele>819.4</ele>
        <time>2022-06-27T09:39:03Z</time>
      </trkpt>
      <trkpt lat="42.4217180" lon="-3.1556720">
        <ele>819.6</ele>
        <time>2022-06-27T09:39:04Z</time>
      </trkpt>
      <trkpt lat="42.4216940" lon="-3.1557470">
        <ele>819.8</ele>
        <time>2022-06-27T09:39:05Z</time>
      </trkpt>
      <trkpt lat="42.4216680" lon="-3.1558240">
        <ele>820.0</ele>
        <time>2022-06-27T09:39:06Z</time>
      </trkpt>
      <trkpt lat="42.4216420" lon="-3.1559020">
        <ele>820.2</ele>
        <time>2022-06-27T09:39:07Z</time>
      </trkpt>
      <trkpt lat="42.4216150" lon="-3.1559790">
        <ele>820.0</ele>
        <time>2022-06-27T09:39:08Z</time>
      </trkpt>
      <trkpt lat="42.4215870" lon="-3.1560590">
        <ele>820.2</ele>
        <time>2022-06-27T09:39:09Z</time>
      </trkpt>
      <trkpt lat="42.4215610" lon="-3.1561370">
        <ele>820.4</ele>
        <time>2022-06-27T09:39:10Z</time>
      </trkpt>
      <trkpt lat="42.4215360" lon="-3.1562160">
        <ele>820.4</ele>
        <time>2022-06-27T09:39:11Z</time>
      </trkpt>
      <trkpt lat="42.4215110" lon="-3.1562960">
        <ele>820.6</ele>
        <time>2022-06-27T09:39:12Z</time>
      </trkpt>
      <trkpt lat="42.4214870" lon="-3.1563740">
        <ele>820.6</ele>
        <time>2022-06-27T09:39:13Z</time>
      </trkpt>
      <trkpt lat="42.4214610" lon="-3.1564520">
        <ele>820.8</ele>
        <time>2022-06-27T09:39:14Z</time>
      </trkpt>
      <trkpt lat="42.4214330" lon="-3.1565320">
        <ele>820.8</ele>
        <time>2022-06-27T09:39:15Z</time>
      </trkpt>
      <trkpt lat="42.4214050" lon="-3.1566100">
        <ele>821.0</ele>
        <time>2022-06-27T09:39:16Z</time>
      </trkpt>
      <trkpt lat="42.4213830" lon="-3.1566840">
        <ele>821.2</ele>
        <time>2022-06-27T09:39:17Z</time>
      </trkpt>
      <trkpt lat="42.4213560" lon="-3.1567640">
        <ele>821.2</ele>
        <time>2022-06-27T09:39:18Z</time>
      </trkpt>
      <trkpt lat="42.4213300" lon="-3.1568480">
        <ele>821.2</ele>
        <time>2022-06-27T09:39:19Z</time>
      </trkpt>
      <trkpt lat="42.4213040" lon="-3.1569290">
        <ele>821.2</ele>
        <time>2022-06-27T09:39:20Z</time>
      </trkpt>
      <trkpt lat="42.4212790" lon="-3.1570100">
        <ele>821.4</ele>
        <time>2022-06-27T09:39:21Z</time>
      </trkpt>
      <trkpt lat="42.4212530" lon="-3.1570910">
        <ele>821.4</ele>
        <time>2022-06-27T09:39:22Z</time>
      </trkpt>
      <trkpt lat="42.4212260" lon="-3.1571720">
        <ele>821.4</ele>
        <time>2022-06-27T09:39:23Z</time>
      </trkpt>
      <trkpt lat="42.4211980" lon="-3.1572550">
        <ele>821.4</ele>
        <time>2022-06-27T09:39:24Z</time>
      </trkpt>
      <trkpt lat="42.4211710" lon="-3.1573370">
        <ele>821.4</ele>
        <time>2022-06-27T09:39:25Z</time>
      </trkpt>
      <trkpt lat="42.4211460" lon="-3.1574160">
        <ele>821.6</ele>
        <time>2022-06-27T09:39:26Z</time>
      </trkpt>
      <trkpt lat="42.4211170" lon="-3.1575000">
        <ele>821.6</ele>
        <time>2022-06-27T09:39:27Z</time>
      </trkpt>
      <trkpt lat="42.4210900" lon="-3.1575820">
        <ele>821.8</ele>
        <time>2022-06-27T09:39:28Z</time>
      </trkpt>
      <trkpt lat="42.4210610" lon="-3.1576660">
        <ele>821.8</ele>
        <time>2022-06-27T09:39:29Z</time>
      </trkpt>
      <trkpt lat="42.4210330" lon="-3.1577500">
        <ele>822.0</ele>
        <time>2022-06-27T09:39:30Z</time>
      </trkpt>
      <trkpt lat="42.4210060" lon="-3.1578330">
        <ele>822.0</ele>
        <time>2022-06-27T09:39:31Z</time>
      </trkpt>
      <trkpt lat="42.4209790" lon="-3.1579170">
        <ele>822.0</ele>
        <time>2022-06-27T09:39:32Z</time>
      </trkpt>
      <trkpt lat="42.4209520" lon="-3.1580020">
        <ele>822.0</ele>
        <time>2022-06-27T09:39:33Z</time>
      </trkpt>
      <trkpt lat="42.4209220" lon="-3.1580890">
        <ele>822.2</ele>
        <time>2022-06-27T09:39:34Z</time>
      </trkpt>
      <trkpt lat="42.4208940" lon="-3.1581750">
        <ele>822.2</ele>
        <time>2022-06-27T09:39:35Z</time>
      </trkpt>
      <trkpt lat="42.4208670" lon="-3.1582590">
        <ele>822.2</ele>
        <time>2022-06-27T09:39:36Z</time>
      </trkpt>
      <trkpt lat="42.4208410" lon="-3.1583430">
        <ele>822.2</ele>
        <time>2022-06-27T09:39:37Z</time>
      </trkpt>
      <trkpt lat="42.4208130" lon="-3.1584290">
        <ele>822.4</ele>
        <time>2022-06-27T09:39:38Z</time>
      </trkpt>
      <trkpt lat="42.4207860" lon="-3.1585160">
        <ele>822.4</ele>
        <time>2022-06-27T09:39:39Z</time>
      </trkpt>
      <trkpt lat="42.4207570" lon="-3.1586020">
        <ele>822.4</ele>
        <time>2022-06-27T09:39:40Z</time>
      </trkpt>
      <trkpt lat="42.4207290" lon="-3.1586880">
        <ele>822.6</ele>
        <time>2022-06-27T09:39:41Z</time>
      </trkpt>
      <trkpt lat="42.4207030" lon="-3.1587750">
        <ele>822.6</ele>
        <time>2022-06-27T09:39:42Z</time>
      </trkpt>
      <trkpt lat="42.4206750" lon="-3.1588640">
        <ele>822.6</ele>
        <time>2022-06-27T09:39:43Z</time>
      </trkpt>
      <trkpt lat="42.4206490" lon="-3.1589530">
        <ele>822.6</ele>
        <time>2022-06-27T09:39:44Z</time>
      </trkpt>
      <trkpt lat="42.4206220" lon="-3.1590420">
        <ele>822.6</ele>
        <time>2022-06-27T09:39:45Z</time>
      </trkpt>
      <trkpt lat="42.4205970" lon="-3.1591320">
        <ele>822.8</ele>
        <time>2022-06-27T09:39:46Z</time>
      </trkpt>
      <trkpt lat="42.4205720" lon="-3.1592220">
        <ele>822.8</ele>
        <time>2022-06-27T09:39:47Z</time>
      </trkpt>
      <trkpt lat="42.4205490" lon="-3.1593100">
        <ele>822.8</ele>
        <time>2022-06-27T09:39:48Z</time>
      </trkpt>
      <trkpt lat="42.4205270" lon="-3.1593970">
        <ele>822.8</ele>
        <time>2022-06-27T09:39:49Z</time>
      </trkpt>
      <trkpt lat="42.4205020" lon="-3.1594880">
        <ele>823.0</ele>
        <time>2022-06-27T09:39:50Z</time>
      </trkpt>
      <trkpt lat="42.4204770" lon="-3.1595800">
        <ele>823.0</ele>
        <time>2022-06-27T09:39:51Z</time>
      </trkpt>
      <trkpt lat="42.4204530" lon="-3.1596710">
        <ele>823.0</ele>
        <time>2022-06-27T09:39:52Z</time>
      </trkpt>
      <trkpt lat="42.4204310" lon="-3.1597610">
        <ele>823.0</ele>
        <time>2022-06-27T09:39:53Z</time>
      </trkpt>
      <trkpt lat="42.4204060" lon="-3.1598560">
        <ele>823.0</ele>
        <time>2022-06-27T09:39:54Z</time>
      </trkpt>
      <trkpt lat="42.4203840" lon="-3.1599470">
        <ele>823.2</ele>
        <time>2022-06-27T09:39:55Z</time>
      </trkpt>
      <trkpt lat="42.4203630" lon="-3.1600380">
        <ele>823.2</ele>
        <time>2022-06-27T09:39:56Z</time>
      </trkpt>
      <trkpt lat="42.4203420" lon="-3.1601280">
        <ele>823.2</ele>
        <time>2022-06-27T09:39:57Z</time>
      </trkpt>
      <trkpt lat="42.4203210" lon="-3.1602190">
        <ele>823.4</ele>
        <time>2022-06-27T09:39:58Z</time>
      </trkpt>
      <trkpt lat="42.4202980" lon="-3.1603110">
        <ele>823.4</ele>
        <time>2022-06-27T09:39:59Z</time>
      </trkpt>
      <trkpt lat="42.4202760" lon="-3.1604020">
        <ele>823.8</ele>
        <time>2022-06-27T09:40:00Z</time>
      </trkpt>
      <trkpt lat="42.4202530" lon="-3.1604930">
        <ele>823.8</ele>
        <time>2022-06-27T09:40:01Z</time>
      </trkpt>
      <trkpt lat="42.4202290" lon="-3.1605850">
        <ele>824.0</ele>
        <time>2022-06-27T09:40:02Z</time>
      </trkpt>
      <trkpt lat="42.4202060" lon="-3.1606780">
        <ele>824.2</ele>
        <time>2022-06-27T09:40:03Z</time>
      </trkpt>
      <trkpt lat="42.4201830" lon="-3.1607700">
        <ele>824.2</ele>
        <time>2022-06-27T09:40:04Z</time>
      </trkpt>
      <trkpt lat="42.4201580" lon="-3.1608640">
        <ele>824.4</ele>
        <time>2022-06-27T09:40:05Z</time>
      </trkpt>
      <trkpt lat="42.4201350" lon="-3.1609570">
        <ele>824.4</ele>
        <time>2022-06-27T09:40:06Z</time>
      </trkpt>
      <trkpt lat="42.4201110" lon="-3.1610490">
        <ele>824.4</ele>
        <time>2022-06-27T09:40:07Z</time>
      </trkpt>
      <trkpt lat="42.4200940" lon="-3.1611210">
        <ele>824.4</ele>
        <time>2022-06-27T09:40:08Z</time>
      </trkpt>
      <trkpt lat="42.4200670" lon="-3.1612290">
        <ele>824.6</ele>
        <time>2022-06-27T09:40:09Z</time>
      </trkpt>
      <trkpt lat="42.4200440" lon="-3.1613200">
        <ele>824.6</ele>
        <time>2022-06-27T09:40:10Z</time>
      </trkpt>
      <trkpt lat="42.4200200" lon="-3.1614120">
        <ele>825.0</ele>
        <time>2022-06-27T09:40:11Z</time>
      </trkpt>
      <trkpt lat="42.4199970" lon="-3.1615040">
        <ele>825.0</ele>
        <time>2022-06-27T09:40:12Z</time>
      </trkpt>
      <trkpt lat="42.4199800" lon="-3.1615770">
        <ele>825.2</ele>
        <time>2022-06-27T09:40:13Z</time>
      </trkpt>
      <trkpt lat="42.4199520" lon="-3.1616860">
        <ele>825.2</ele>
        <time>2022-06-27T09:40:14Z</time>
      </trkpt>
      <trkpt lat="42.4199290" lon="-3.1617780">
        <ele>825.2</ele>
        <time>2022-06-27T09:40:15Z</time>
      </trkpt>
      <trkpt lat="42.4199050" lon="-3.1618700">
        <ele>825.4</ele>
        <time>2022-06-27T09:40:16Z</time>
      </trkpt>
      <trkpt lat="42.4198810" lon="-3.1619620">
        <ele>825.4</ele>
        <time>2022-06-27T09:40:17Z</time>
      </trkpt>
      <trkpt lat="42.4198630" lon="-3.1620350">
        <ele>825.4</ele>
        <time>2022-06-27T09:40:18Z</time>
      </trkpt>
      <trkpt lat="42.4198440" lon="-3.1621220">
        <ele>825.6</ele>
        <time>2022-06-27T09:40:19Z</time>
      </trkpt>
      <trkpt lat="42.4198160" lon="-3.1622320">
        <ele>825.6</ele>
        <time>2022-06-27T09:40:20Z</time>
      </trkpt>
      <trkpt lat="42.4197940" lon="-3.1623240">
        <ele>825.8</ele>
        <time>2022-06-27T09:40:21Z</time>
      </trkpt>
      <trkpt lat="42.4197700" lon="-3.1624170">
        <ele>825.8</ele>
        <time>2022-06-27T09:40:22Z</time>
      </trkpt>
      <trkpt lat="42.4197460" lon="-3.1625090">
        <ele>825.8</ele>
        <time>2022-06-27T09:40:23Z</time>
      </trkpt>
      <trkpt lat="42.4197290" lon="-3.1625810">
        <ele>826.0</ele>
        <time>2022-06-27T09:40:24Z</time>
      </trkpt>
      <trkpt lat="42.4197020" lon="-3.1626930">
        <ele>826.0</ele>
        <time>2022-06-27T09:40:25Z</time>
      </trkpt>
      <trkpt lat="42.4196790" lon="-3.1627870">
        <ele>826.0</ele>
        <time>2022-06-27T09:40:26Z</time>
      </trkpt>
      <trkpt lat="42.4196550" lon="-3.1628790">
        <ele>826.2</ele>
        <time>2022-06-27T09:40:27Z</time>
      </trkpt>
      <trkpt lat="42.4196300" lon="-3.1629750">
        <ele>826.4</ele>
        <time>2022-06-27T09:40:28Z</time>
      </trkpt>
      <trkpt lat="42.4196090" lon="-3.1630530">
        <ele>826.4</ele>
        <time>2022-06-27T09:40:29Z</time>
      </trkpt>
      <trkpt lat="42.4195800" lon="-3.1631690">
        <ele>826.6</ele>
        <time>2022-06-27T09:40:30Z</time>
      </trkpt>
      <trkpt lat="42.4195540" lon="-3.1632660">
        <ele>826.6</ele>
        <time>2022-06-27T09:40:31Z</time>
      </trkpt>
      <trkpt lat="42.4195290" lon="-3.1633620">
        <ele>826.6</ele>
        <time>2022-06-27T09:40:32Z</time>
      </trkpt>
      <trkpt lat="42.4195090" lon="-3.1634510">
        <ele>826.8</ele>
        <time>2022-06-27T09:40:33Z</time>
      </trkpt>
      <trkpt lat="42.4194860" lon="-3.1635480">
        <ele>826.8</ele>
        <time>2022-06-27T09:40:34Z</time>
      </trkpt>
      <trkpt lat="42.4194600" lon="-3.1636490">
        <ele>826.6</ele>
        <time>2022-06-27T09:40:35Z</time>
      </trkpt>
      <trkpt lat="42.4194340" lon="-3.1637490">
        <ele>826.6</ele>
        <time>2022-06-27T09:40:36Z</time>
      </trkpt>
      <trkpt lat="42.4194090" lon="-3.1638470">
        <ele>826.6</ele>
        <time>2022-06-27T09:40:37Z</time>
      </trkpt>
      <trkpt lat="42.4193820" lon="-3.1639490">
        <ele>826.6</ele>
        <time>2022-06-27T09:40:38Z</time>
      </trkpt>
      <trkpt lat="42.4193620" lon="-3.1640300">
        <ele>826.6</ele>
        <time>2022-06-27T09:40:39Z</time>
      </trkpt>
      <trkpt lat="42.4193320" lon="-3.1641530">
        <ele>826.6</ele>
        <time>2022-06-27T09:40:40Z</time>
      </trkpt>
      <trkpt lat="42.4193060" lon="-3.1642570">
        <ele>826.6</ele>
        <time>2022-06-27T09:40:41Z</time>
      </trkpt>
      <trkpt lat="42.4192790" lon="-3.1643640">
        <ele>826.4</ele>
        <time>2022-06-27T09:40:42Z</time>
      </trkpt>
      <trkpt lat="42.4192520" lon="-3.1644720">
        <ele>826.4</ele>
        <time>2022-06-27T09:40:43Z</time>
      </trkpt>
      <trkpt lat="42.4192250" lon="-3.1645800">
        <ele>826.4</ele>
        <time>2022-06-27T09:40:44Z</time>
      </trkpt>
      <trkpt lat="42.4191980" lon="-3.1646900">
        <ele>826.2</ele>
        <time>2022-06-27T09:40:45Z</time>
      </trkpt>
      <trkpt lat="42.4191760" lon="-3.1647770">
        <ele>826.0</ele>
        <time>2022-06-27T09:40:46Z</time>
      </trkpt>
      <trkpt lat="42.4191450" lon="-3.1649040">
        <ele>826.0</ele>
        <time>2022-06-27T09:40:47Z</time>
      </trkpt>
      <trkpt lat="42.4191160" lon="-3.1650140">
        <ele>826.0</ele>
        <time>2022-06-27T09:40:48Z</time>
      </trkpt>
      <trkpt lat="42.4190890" lon="-3.1651230">
        <ele>826.0</ele>
        <time>2022-06-27T09:40:49Z</time>
      </trkpt>
      <trkpt lat="42.4190600" lon="-3.1652360">
        <ele>826.0</ele>
        <time>2022-06-27T09:40:50Z</time>
      </trkpt>
      <trkpt lat="42.4190300" lon="-3.1653510">
        <ele>826.0</ele>
        <time>2022-06-27T09:40:51Z</time>
      </trkpt>
      <trkpt lat="42.4190020" lon="-3.1654650">
        <ele>826.0</ele>
        <time>2022-06-27T09:40:52Z</time>
      </trkpt>
      <trkpt lat="42.4189710" lon="-3.1655830">
        <ele>825.8</ele>
        <time>2022-06-27T09:40:53Z</time>
      </trkpt>
      <trkpt lat="42.4189410" lon="-3.1657000">
        <ele>825.6</ele>
        <time>2022-06-27T09:40:54Z</time>
      </trkpt>
      <trkpt lat="42.4189180" lon="-3.1657940">
        <ele>825.4</ele>
        <time>2022-06-27T09:40:55Z</time>
      </trkpt>
      <trkpt lat="42.4188870" lon="-3.1659150">
        <ele>825.2</ele>
        <time>2022-06-27T09:40:56Z</time>
      </trkpt>
      <trkpt lat="42.4188510" lon="-3.1660600">
        <ele>825.0</ele>
        <time>2022-06-27T09:40:57Z</time>
      </trkpt>
      <trkpt lat="42.4188270" lon="-3.1661550">
        <ele>824.8</ele>
        <time>2022-06-27T09:40:58Z</time>
      </trkpt>
      <trkpt lat="42.4187900" lon="-3.1663010">
        <ele>824.6</ele>
        <time>2022-06-27T09:40:59Z</time>
      </trkpt>
      <trkpt lat="42.4187570" lon="-3.1664260">
        <ele>824.4</ele>
        <time>2022-06-27T09:41:00Z</time>
      </trkpt>
      <trkpt lat="42.4187250" lon="-3.1665500">
        <ele>824.4</ele>
        <time>2022-06-27T09:41:01Z</time>
      </trkpt>
      <trkpt lat="42.4186940" lon="-3.1666770">
        <ele>824.2</ele>
        <time>2022-06-27T09:41:02Z</time>
      </trkpt>
      <trkpt lat="42.4186620" lon="-3.1668030">
        <ele>824.0</ele>
        <time>2022-06-27T09:41:03Z</time>
      </trkpt>
      <trkpt lat="42.4186280" lon="-3.1669300">
        <ele>823.8</ele>
        <time>2022-06-27T09:41:04Z</time>
      </trkpt>
      <trkpt lat="42.4185950" lon="-3.1670580">
        <ele>823.6</ele>
        <time>2022-06-27T09:41:05Z</time>
      </trkpt>
      <trkpt lat="42.4185620" lon="-3.1671860">
        <ele>823.4</ele>
        <time>2022-06-27T09:41:06Z</time>
      </trkpt>
      <trkpt lat="42.4185360" lon="-3.1672890">
        <ele>823.2</ele>
        <time>2022-06-27T09:41:07Z</time>
      </trkpt>
      <trkpt lat="42.4184990" lon="-3.1674410">
        <ele>823.2</ele>
        <time>2022-06-27T09:41:08Z</time>
      </trkpt>
      <trkpt lat="42.4184670" lon="-3.1675710">
        <ele>822.8</ele>
        <time>2022-06-27T09:41:09Z</time>
      </trkpt>
      <trkpt lat="42.4184350" lon="-3.1677000">
        <ele>822.8</ele>
        <time>2022-06-27T09:41:10Z</time>
      </trkpt>
      <trkpt lat="42.4184030" lon="-3.1678280">
        <ele>822.6</ele>
        <time>2022-06-27T09:41:11Z</time>
      </trkpt>
      <trkpt lat="42.4183790" lon="-3.1679310">
        <ele>822.4</ele>
        <time>2022-06-27T09:41:12Z</time>
      </trkpt>
      <trkpt lat="42.4183480" lon="-3.1680590">
        <ele>822.2</ele>
        <time>2022-06-27T09:41:13Z</time>
      </trkpt>
      <trkpt lat="42.4183090" lon="-3.1682170">
        <ele>822.0</ele>
        <time>2022-06-27T09:41:14Z</time>
      </trkpt>
      <trkpt lat="42.4182770" lon="-3.1683460">
        <ele>822.0</ele>
        <time>2022-06-27T09:41:15Z</time>
      </trkpt>
      <trkpt lat="42.4182440" lon="-3.1684770">
        <ele>821.8</ele>
        <time>2022-06-27T09:41:16Z</time>
      </trkpt>
      <trkpt lat="42.4182100" lon="-3.1686130">
        <ele>821.6</ele>
        <time>2022-06-27T09:41:17Z</time>
      </trkpt>
      <trkpt lat="42.4181740" lon="-3.1687500">
        <ele>821.2</ele>
        <time>2022-06-27T09:41:18Z</time>
      </trkpt>
      <trkpt lat="42.4181390" lon="-3.1688870">
        <ele>821.0</ele>
        <time>2022-06-27T09:41:19Z</time>
      </trkpt>
      <trkpt lat="42.4181030" lon="-3.1690270">
        <ele>820.6</ele>
        <time>2022-06-27T09:41:20Z</time>
      </trkpt>
      <trkpt lat="42.4180660" lon="-3.1691670">
        <ele>820.4</ele>
        <time>2022-06-27T09:41:21Z</time>
      </trkpt>
      <trkpt lat="42.4180370" lon="-3.1692790">
        <ele>820.4</ele>
        <time>2022-06-27T09:41:22Z</time>
      </trkpt>
      <trkpt lat="42.4180020" lon="-3.1694170">
        <ele>820.4</ele>
        <time>2022-06-27T09:41:23Z</time>
      </trkpt>
      <trkpt lat="42.4179590" lon="-3.1695850">
        <ele>820.2</ele>
        <time>2022-06-27T09:41:24Z</time>
      </trkpt>
      <trkpt lat="42.4179250" lon="-3.1697270">
        <ele>820.2</ele>
        <time>2022-06-27T09:41:25Z</time>
      </trkpt>
      <trkpt lat="42.4178900" lon="-3.1698690">
        <ele>820.0</ele>
        <time>2022-06-27T09:41:26Z</time>
      </trkpt>
      <trkpt lat="42.4178520" lon="-3.1700120">
        <ele>819.6</ele>
        <time>2022-06-27T09:41:27Z</time>
      </trkpt>
      <trkpt lat="42.4178210" lon="-3.1701260">
        <ele>819.2</ele>
        <time>2022-06-27T09:41:28Z</time>
      </trkpt>
      <trkpt lat="42.4177780" lon="-3.1702940">
        <ele>819.0</ele>
        <time>2022-06-27T09:41:29Z</time>
      </trkpt>
      <trkpt lat="42.4177410" lon="-3.1704350">
        <ele>819.0</ele>
        <time>2022-06-27T09:41:30Z</time>
      </trkpt>
      <trkpt lat="42.4177040" lon="-3.1705770">
        <ele>818.8</ele>
        <time>2022-06-27T09:41:31Z</time>
      </trkpt>
      <trkpt lat="42.4176680" lon="-3.1707200">
        <ele>818.6</ele>
        <time>2022-06-27T09:41:32Z</time>
      </trkpt>
      <trkpt lat="42.4176330" lon="-3.1708620">
        <ele>818.4</ele>
        <time>2022-06-27T09:41:33Z</time>
      </trkpt>
      <trkpt lat="42.4176050" lon="-3.1709760">
        <ele>818.0</ele>
        <time>2022-06-27T09:41:34Z</time>
      </trkpt>
      <trkpt lat="42.4175610" lon="-3.1711480">
        <ele>817.6</ele>
        <time>2022-06-27T09:41:35Z</time>
      </trkpt>
      <trkpt lat="42.4175240" lon="-3.1712920">
        <ele>817.2</ele>
        <time>2022-06-27T09:41:36Z</time>
      </trkpt>
      <trkpt lat="42.4174870" lon="-3.1714370">
        <ele>816.8</ele>
        <time>2022-06-27T09:41:37Z</time>
      </trkpt>
      <trkpt lat="42.4174570" lon="-3.1715530">
        <ele>816.6</ele>
        <time>2022-06-27T09:41:38Z</time>
      </trkpt>
      <trkpt lat="42.4174110" lon="-3.1717260">
        <ele>816.4</ele>
        <time>2022-06-27T09:41:39Z</time>
      </trkpt>
      <trkpt lat="42.4173740" lon="-3.1718700">
        <ele>816.4</ele>
        <time>2022-06-27T09:41:40Z</time>
      </trkpt>
      <trkpt lat="42.4173370" lon="-3.1720140">
        <ele>816.0</ele>
        <time>2022-06-27T09:41:41Z</time>
      </trkpt>
      <trkpt lat="42.4173000" lon="-3.1721590">
        <ele>816.0</ele>
        <time>2022-06-27T09:41:42Z</time>
      </trkpt>
      <trkpt lat="42.4172620" lon="-3.1723040">
        <ele>815.6</ele>
        <time>2022-06-27T09:41:43Z</time>
      </trkpt>
      <trkpt lat="42.4172310" lon="-3.1724200">
        <ele>815.4</ele>
        <time>2022-06-27T09:41:44Z</time>
      </trkpt>
      <trkpt lat="42.4171870" lon="-3.1725930">
        <ele>815.4</ele>
        <time>2022-06-27T09:41:45Z</time>
      </trkpt>
      <trkpt lat="42.4171510" lon="-3.1727350">
        <ele>815.2</ele>
        <time>2022-06-27T09:41:46Z</time>
      </trkpt>
      <trkpt lat="42.4171120" lon="-3.1728810">
        <ele>815.0</ele>
        <time>2022-06-27T09:41:47Z</time>
      </trkpt>
      <trkpt lat="42.4170740" lon="-3.1730280">
        <ele>814.8</ele>
        <time>2022-06-27T09:41:48Z</time>
      </trkpt>
      <trkpt lat="42.4170440" lon="-3.1731460">
        <ele>814.6</ele>
        <time>2022-06-27T09:41:49Z</time>
      </trkpt>
      <trkpt lat="42.4170060" lon="-3.1732940">
        <ele>814.4</ele>
        <time>2022-06-27T09:41:50Z</time>
      </trkpt>
      <trkpt lat="42.4169610" lon="-3.1734710">
        <ele>814.2</ele>
        <time>2022-06-27T09:41:51Z</time>
      </trkpt>
      <trkpt lat="42.4169230" lon="-3.1736230">
        <ele>814.0</ele>
        <time>2022-06-27T09:41:52Z</time>
      </trkpt>
      <trkpt lat="42.4168820" lon="-3.1737760">
        <ele>814.0</ele>
        <time>2022-06-27T09:41:53Z</time>
      </trkpt>
      <trkpt lat="42.4168410" lon="-3.1739290">
        <ele>813.8</ele>
        <time>2022-06-27T09:41:54Z</time>
      </trkpt>
      <trkpt lat="42.4168040" lon="-3.1740800">
        <ele>813.4</ele>
        <time>2022-06-27T09:41:55Z</time>
      </trkpt>
      <trkpt lat="42.4167730" lon="-3.1742000">
        <ele>813.2</ele>
        <time>2022-06-27T09:41:56Z</time>
      </trkpt>
      <trkpt lat="42.4167290" lon="-3.1743780">
        <ele>812.2</ele>
        <time>2022-06-27T09:41:57Z</time>
      </trkpt>
      <trkpt lat="42.4166910" lon="-3.1745290">
        <ele>812.0</ele>
        <time>2022-06-27T09:41:58Z</time>
      </trkpt>
      <trkpt lat="42.4166510" lon="-3.1746800">
        <ele>811.4</ele>
        <time>2022-06-27T09:41:59Z</time>
      </trkpt>
      <trkpt lat="42.4166110" lon="-3.1748320">
        <ele>811.2</ele>
        <time>2022-06-27T09:42:00Z</time>
      </trkpt>
      <trkpt lat="42.4165710" lon="-3.1749840">
        <ele>811.2</ele>
        <time>2022-06-27T09:42:01Z</time>
      </trkpt>
      <trkpt lat="42.4165300" lon="-3.1751390">
        <ele>810.8</ele>
        <time>2022-06-27T09:42:02Z</time>
      </trkpt>
      <trkpt lat="42.4164890" lon="-3.1752930">
        <ele>810.6</ele>
        <time>2022-06-27T09:42:03Z</time>
      </trkpt>
      <trkpt lat="42.4164490" lon="-3.1754480">
        <ele>810.2</ele>
        <time>2022-06-27T09:42:04Z</time>
      </trkpt>
      <trkpt lat="42.4164160" lon="-3.1755730">
        <ele>810.0</ele>
        <time>2022-06-27T09:42:05Z</time>
      </trkpt>
      <trkpt lat="42.4163750" lon="-3.1757280">
        <ele>809.8</ele>
        <time>2022-06-27T09:42:06Z</time>
      </trkpt>
      <trkpt lat="42.4163250" lon="-3.1759130">
        <ele>809.8</ele>
        <time>2022-06-27T09:42:07Z</time>
      </trkpt>
      <trkpt lat="42.4162860" lon="-3.1760640">
        <ele>809.6</ele>
        <time>2022-06-27T09:42:08Z</time>
      </trkpt>
      <trkpt lat="42.4162460" lon="-3.1762170">
        <ele>809.0</ele>
        <time>2022-06-27T09:42:09Z</time>
      </trkpt>
      <trkpt lat="42.4162060" lon="-3.1763680">
        <ele>808.8</ele>
        <time>2022-06-27T09:42:10Z</time>
      </trkpt>
      <trkpt lat="42.4161670" lon="-3.1765200">
        <ele>808.2</ele>
        <time>2022-06-27T09:42:11Z</time>
      </trkpt>
      <trkpt lat="42.4161350" lon="-3.1766440">
        <ele>808.0</ele>
        <time>2022-06-27T09:42:12Z</time>
      </trkpt>
      <trkpt lat="42.4160910" lon="-3.1768320">
        <ele>807.6</ele>
        <time>2022-06-27T09:42:13Z</time>
      </trkpt>
      <trkpt lat="42.4160580" lon="-3.1769920">
        <ele>807.2</ele>
        <time>2022-06-27T09:42:14Z</time>
      </trkpt>
      <trkpt lat="42.4160310" lon="-3.1771490">
        <ele>807.0</ele>
        <time>2022-06-27T09:42:15Z</time>
      </trkpt>
      <trkpt lat="42.4160120" lon="-3.1772770">
        <ele>806.6</ele>
        <time>2022-06-27T09:42:16Z</time>
      </trkpt>
      <trkpt lat="42.4159870" lon="-3.1774410">
        <ele>806.2</ele>
        <time>2022-06-27T09:42:17Z</time>
      </trkpt>
      <trkpt lat="42.4159620" lon="-3.1776390">
        <ele>805.8</ele>
        <time>2022-06-27T09:42:18Z</time>
      </trkpt>
      <trkpt lat="42.4159440" lon="-3.1778070">
        <ele>805.6</ele>
        <time>2022-06-27T09:42:19Z</time>
      </trkpt>
      <trkpt lat="42.4159290" lon="-3.1779750">
        <ele>805.2</ele>
        <time>2022-06-27T09:42:20Z</time>
      </trkpt>
      <trkpt lat="42.4159220" lon="-3.1781410">
        <ele>804.6</ele>
        <time>2022-06-27T09:42:21Z</time>
      </trkpt>
      <trkpt lat="42.4159180" lon="-3.1783070">
        <ele>804.4</ele>
        <time>2022-06-27T09:42:22Z</time>
      </trkpt>
      <trkpt lat="42.4159160" lon="-3.1784760">
        <ele>804.0</ele>
        <time>2022-06-27T09:42:23Z</time>
      </trkpt>
      <trkpt lat="42.4159190" lon="-3.1786430">
        <ele>804.0</ele>
        <time>2022-06-27T09:42:24Z</time>
      </trkpt>
      <trkpt lat="42.4159260" lon="-3.1788120">
        <ele>803.2</ele>
        <time>2022-06-27T09:42:25Z</time>
      </trkpt>
      <trkpt lat="42.4159360" lon="-3.1789800">
        <ele>802.8</ele>
        <time>2022-06-27T09:42:26Z</time>
      </trkpt>
      <trkpt lat="42.4159510" lon="-3.1791460">
        <ele>802.4</ele>
        <time>2022-06-27T09:42:27Z</time>
      </trkpt>
      <trkpt lat="42.4159690" lon="-3.1793090">
        <ele>802.2</ele>
        <time>2022-06-27T09:42:28Z</time>
      </trkpt>
      <trkpt lat="42.4159900" lon="-3.1794740">
        <ele>801.8</ele>
        <time>2022-06-27T09:42:29Z</time>
      </trkpt>
      <trkpt lat="42.4160090" lon="-3.1796060">
        <ele>801.2</ele>
        <time>2022-06-27T09:42:30Z</time>
      </trkpt>
      <trkpt lat="42.4160370" lon="-3.1797690">
        <ele>800.8</ele>
        <time>2022-06-27T09:42:31Z</time>
      </trkpt>
      <trkpt lat="42.4160710" lon="-3.1799680">
        <ele>800.4</ele>
        <time>2022-06-27T09:42:32Z</time>
      </trkpt>
      <trkpt lat="42.4161020" lon="-3.1801340">
        <ele>800.2</ele>
        <time>2022-06-27T09:42:33Z</time>
      </trkpt>
      <trkpt lat="42.4161290" lon="-3.1802670">
        <ele>799.8</ele>
        <time>2022-06-27T09:42:34Z</time>
      </trkpt>
      <trkpt lat="42.4161720" lon="-3.1804630">
        <ele>799.6</ele>
        <time>2022-06-27T09:42:35Z</time>
      </trkpt>
      <trkpt lat="42.4162100" lon="-3.1806240">
        <ele>799.4</ele>
        <time>2022-06-27T09:42:36Z</time>
      </trkpt>
      <trkpt lat="42.4162510" lon="-3.1807840">
        <ele>799.2</ele>
        <time>2022-06-27T09:42:37Z</time>
      </trkpt>
      <trkpt lat="42.4162820" lon="-3.1809150">
        <ele>799.2</ele>
        <time>2022-06-27T09:42:38Z</time>
      </trkpt>
      <trkpt lat="42.4163330" lon="-3.1811080">
        <ele>798.6</ele>
        <time>2022-06-27T09:42:39Z</time>
      </trkpt>
      <trkpt lat="42.4163770" lon="-3.1812660">
        <ele>798.2</ele>
        <time>2022-06-27T09:42:40Z</time>
      </trkpt>
      <trkpt lat="42.4164220" lon="-3.1814220">
        <ele>797.6</ele>
        <time>2022-06-27T09:42:41Z</time>
      </trkpt>
      <trkpt lat="42.4164570" lon="-3.1815480">
        <ele>797.2</ele>
        <time>2022-06-27T09:42:42Z</time>
      </trkpt>
      <trkpt lat="42.4165010" lon="-3.1817030">
        <ele>797.0</ele>
        <time>2022-06-27T09:42:43Z</time>
      </trkpt>
      <trkpt lat="42.4165440" lon="-3.1818610">
        <ele>796.6</ele>
        <time>2022-06-27T09:42:44Z</time>
      </trkpt>
      <trkpt lat="42.4165900" lon="-3.1820170">
        <ele>796.4</ele>
        <time>2022-06-27T09:42:45Z</time>
      </trkpt>
      <trkpt lat="42.4166380" lon="-3.1821710">
        <ele>796.0</ele>
        <time>2022-06-27T09:42:46Z</time>
      </trkpt>
      <trkpt lat="42.4166830" lon="-3.1823260">
        <ele>795.8</ele>
        <time>2022-06-27T09:42:47Z</time>
      </trkpt>
      <trkpt lat="42.4167280" lon="-3.1824800">
        <ele>795.2</ele>
        <time>2022-06-27T09:42:48Z</time>
      </trkpt>
      <trkpt lat="42.4167720" lon="-3.1826340">
        <ele>794.6</ele>
        <time>2022-06-27T09:42:49Z</time>
      </trkpt>
      <trkpt lat="42.4168160" lon="-3.1827870">
        <ele>794.0</ele>
        <time>2022-06-27T09:42:50Z</time>
      </trkpt>
      <trkpt lat="42.4168610" lon="-3.1829410">
        <ele>793.8</ele>
        <time>2022-06-27T09:42:51Z</time>
      </trkpt>
      <trkpt lat="42.4169130" lon="-3.1831260">
        <ele>793.6</ele>
        <time>2022-06-27T09:42:52Z</time>
      </trkpt>
      <trkpt lat="42.4169570" lon="-3.1832810">
        <ele>793.4</ele>
        <time>2022-06-27T09:42:53Z</time>
      </trkpt>
      <trkpt lat="42.4169930" lon="-3.1834040">
        <ele>793.4</ele>
        <time>2022-06-27T09:42:54Z</time>
      </trkpt>
      <trkpt lat="42.4170440" lon="-3.1835900">
        <ele>792.8</ele>
        <time>2022-06-27T09:42:55Z</time>
      </trkpt>
      <trkpt lat="42.4170870" lon="-3.1837440">
        <ele>792.4</ele>
        <time>2022-06-27T09:42:56Z</time>
      </trkpt>
      <trkpt lat="42.4171300" lon="-3.1838970">
        <ele>792.0</ele>
        <time>2022-06-27T09:42:57Z</time>
      </trkpt>
      <trkpt lat="42.4171630" lon="-3.1840200">
        <ele>791.8</ele>
        <time>2022-06-27T09:42:58Z</time>
      </trkpt>
      <trkpt lat="42.4172080" lon="-3.1841720">
        <ele>791.4</ele>
        <time>2022-06-27T09:42:59Z</time>
      </trkpt>
      <trkpt lat="42.4172520" lon="-3.1843250">
        <ele>790.8</ele>
        <time>2022-06-27T09:43:00Z</time>
      </trkpt>
      <trkpt lat="42.4173050" lon="-3.1845100">
        <ele>790.6</ele>
        <time>2022-06-27T09:43:01Z</time>
      </trkpt>
      <trkpt lat="42.4173490" lon="-3.1846640">
        <ele>789.8</ele>
        <time>2022-06-27T09:43:02Z</time>
      </trkpt>
      <trkpt lat="42.4173930" lon="-3.1848180">
        <ele>789.6</ele>
        <time>2022-06-27T09:43:03Z</time>
      </trkpt>
      <trkpt lat="42.4174360" lon="-3.1849710">
        <ele>789.4</ele>
        <time>2022-06-27T09:43:04Z</time>
      </trkpt>
      <trkpt lat="42.4174690" lon="-3.1850950">
        <ele>789.2</ele>
        <time>2022-06-27T09:43:05Z</time>
      </trkpt>
      <trkpt lat="42.4175120" lon="-3.1852470">
        <ele>789.0</ele>
        <time>2022-06-27T09:43:06Z</time>
      </trkpt>
      <trkpt lat="42.4175540" lon="-3.1853990">
        <ele>788.2</ele>
        <time>2022-06-27T09:43:07Z</time>
      </trkpt>
      <trkpt lat="42.4176040" lon="-3.1855820">
        <ele>788.0</ele>
        <time>2022-06-27T09:43:08Z</time>
      </trkpt>
      <trkpt lat="42.4176400" lon="-3.1857020">
        <ele>787.8</ele>
        <time>2022-06-27T09:43:09Z</time>
      </trkpt>
      <trkpt lat="42.4176820" lon="-3.1858530">
        <ele>787.4</ele>
        <time>2022-06-27T09:43:10Z</time>
      </trkpt>
      <trkpt lat="42.4177240" lon="-3.1860020">
        <ele>787.0</ele>
        <time>2022-06-27T09:43:11Z</time>
      </trkpt>
      <trkpt lat="42.4177660" lon="-3.1861520">
        <ele>786.8</ele>
        <time>2022-06-27T09:43:12Z</time>
      </trkpt>
      <trkpt lat="42.4178070" lon="-3.1863020">
        <ele>786.2</ele>
        <time>2022-06-27T09:43:13Z</time>
      </trkpt>
      <trkpt lat="42.4178470" lon="-3.1864500">
        <ele>785.8</ele>
        <time>2022-06-27T09:43:14Z</time>
      </trkpt>
      <trkpt lat="42.4178850" lon="-3.1865990">
        <ele>785.6</ele>
        <time>2022-06-27T09:43:15Z</time>
      </trkpt>
      <trkpt lat="42.4179250" lon="-3.1867460">
        <ele>785.4</ele>
        <time>2022-06-27T09:43:16Z</time>
      </trkpt>
      <trkpt lat="42.4179640" lon="-3.1868920">
        <ele>785.4</ele>
        <time>2022-06-27T09:43:17Z</time>
      </trkpt>
      <trkpt lat="42.4180030" lon="-3.1870370">
        <ele>785.0</ele>
        <time>2022-06-27T09:43:18Z</time>
      </trkpt>
      <trkpt lat="42.4180430" lon="-3.1871820">
        <ele>784.8</ele>
        <time>2022-06-27T09:43:19Z</time>
      </trkpt>
      <trkpt lat="42.4180820" lon="-3.1873270">
        <ele>784.4</ele>
        <time>2022-06-27T09:43:20Z</time>
      </trkpt>
      <trkpt lat="42.4181220" lon="-3.1874700">
        <ele>784.0</ele>
        <time>2022-06-27T09:43:21Z</time>
      </trkpt>
      <trkpt lat="42.4181610" lon="-3.1876120">
        <ele>783.6</ele>
        <time>2022-06-27T09:43:22Z</time>
      </trkpt>
      <trkpt lat="42.4182030" lon="-3.1877500">
        <ele>783.2</ele>
        <time>2022-06-27T09:43:23Z</time>
      </trkpt>
      <trkpt lat="42.4182500" lon="-3.1878850">
        <ele>783.0</ele>
        <time>2022-06-27T09:43:24Z</time>
      </trkpt>
      <trkpt lat="42.4183030" lon="-3.1880160">
        <ele>782.6</ele>
        <time>2022-06-27T09:43:25Z</time>
      </trkpt>
      <trkpt lat="42.4183620" lon="-3.1881440">
        <ele>782.2</ele>
        <time>2022-06-27T09:43:26Z</time>
      </trkpt>
      <trkpt lat="42.4184250" lon="-3.1882680">
        <ele>781.6</ele>
        <time>2022-06-27T09:43:27Z</time>
      </trkpt>
      <trkpt lat="42.4184890" lon="-3.1883930">
        <ele>781.4</ele>
        <time>2022-06-27T09:43:28Z</time>
      </trkpt>
      <trkpt lat="42.4185520" lon="-3.1885190">
        <ele>781.0</ele>
        <time>2022-06-27T09:43:29Z</time>
      </trkpt>
      <trkpt lat="42.4186150" lon="-3.1886480">
        <ele>780.6</ele>
        <time>2022-06-27T09:43:30Z</time>
      </trkpt>
      <trkpt lat="42.4186790" lon="-3.1887770">
        <ele>780.4</ele>
        <time>2022-06-27T09:43:31Z</time>
      </trkpt>
      <trkpt lat="42.4187430" lon="-3.1889060">
        <ele>779.8</ele>
        <time>2022-06-27T09:43:32Z</time>
      </trkpt>
      <trkpt lat="42.4188080" lon="-3.1890380">
        <ele>779.6</ele>
        <time>2022-06-27T09:43:33Z</time>
      </trkpt>
      <trkpt lat="42.4188730" lon="-3.1891720">
        <ele>779.4</ele>
        <time>2022-06-27T09:43:34Z</time>
      </trkpt>
      <trkpt lat="42.4189380" lon="-3.1893060">
        <ele>778.8</ele>
        <time>2022-06-27T09:43:35Z</time>
      </trkpt>
      <trkpt lat="42.4190060" lon="-3.1894390">
        <ele>778.2</ele>
        <time>2022-06-27T09:43:36Z</time>
      </trkpt>
      <trkpt lat="42.4190690" lon="-3.1895740">
        <ele>777.2</ele>
        <time>2022-06-27T09:43:37Z</time>
      </trkpt>
      <trkpt lat="42.4191230" lon="-3.1897000">
        <ele>776.8</ele>
        <time>2022-06-27T09:43:38Z</time>
      </trkpt>
      <trkpt lat="42.4191700" lon="-3.1898150">
        <ele>776.2</ele>
        <time>2022-06-27T09:43:39Z</time>
      </trkpt>
      <trkpt lat="42.4192030" lon="-3.1899230">
        <ele>776.0</ele>
        <time>2022-06-27T09:43:40Z</time>
      </trkpt>
      <trkpt lat="42.4192270" lon="-3.1900190">
        <ele>775.4</ele>
        <time>2022-06-27T09:43:41Z</time>
      </trkpt>
      <trkpt lat="42.4192400" lon="-3.1901060">
        <ele>775.2</ele>
        <time>2022-06-27T09:43:42Z</time>
      </trkpt>
      <trkpt lat="42.4192440" lon="-3.1901860">
        <ele>774.8</ele>
        <time>2022-06-27T09:43:43Z</time>
      </trkpt>
      <trkpt lat="42.4192440" lon="-3.1902640">
        <ele>774.6</ele>
        <time>2022-06-27T09:43:44Z</time>
      </trkpt>
      <trkpt lat="42.4192390" lon="-3.1903440">
        <ele>774.2</ele>
        <time>2022-06-27T09:43:45Z</time>
      </trkpt>
      <trkpt lat="42.4192320" lon="-3.1904250">
        <ele>773.8</ele>
        <time>2022-06-27T09:43:46Z</time>
      </trkpt>
      <trkpt lat="42.4192230" lon="-3.1905040">
        <ele>773.6</ele>
        <time>2022-06-27T09:43:47Z</time>
      </trkpt>
      <trkpt lat="42.4192150" lon="-3.1905790">
        <ele>773.4</ele>
        <time>2022-06-27T09:43:48Z</time>
      </trkpt>
      <trkpt lat="42.4192050" lon="-3.1906530">
        <ele>773.2</ele>
        <time>2022-06-27T09:43:49Z</time>
      </trkpt>
      <trkpt lat="42.4191970" lon="-3.1907200">
        <ele>772.6</ele>
        <time>2022-06-27T09:43:50Z</time>
      </trkpt>
      <trkpt lat="42.4191870" lon="-3.1907850">
        <ele>772.4</ele>
        <time>2022-06-27T09:43:51Z</time>
      </trkpt>
      <trkpt lat="42.4191760" lon="-3.1908550">
        <ele>772.0</ele>
        <time>2022-06-27T09:43:52Z</time>
      </trkpt>
      <trkpt lat="42.4191590" lon="-3.1909330">
        <ele>771.8</ele>
        <time>2022-06-27T09:43:53Z</time>
      </trkpt>
      <trkpt lat="42.4191400" lon="-3.1910150">
        <ele>771.6</ele>
        <time>2022-06-27T09:43:54Z</time>
      </trkpt>
      <trkpt lat="42.4191240" lon="-3.1910980">
        <ele>771.4</ele>
        <time>2022-06-27T09:43:55Z</time>
      </trkpt>
      <trkpt lat="42.4191070" lon="-3.1911860">
        <ele>771.2</ele>
        <time>2022-06-27T09:43:56Z</time>
      </trkpt>
      <trkpt lat="42.4190870" lon="-3.1912790">
        <ele>771.2</ele>
        <time>2022-06-27T09:43:57Z</time>
      </trkpt>
      <trkpt lat="42.4190640" lon="-3.1913730">
        <ele>771.0</ele>
        <time>2022-06-27T09:43:58Z</time>
      </trkpt>
      <trkpt lat="42.4190420" lon="-3.1914640">
        <ele>770.8</ele>
        <time>2022-06-27T09:43:59Z</time>
      </trkpt>
      <trkpt lat="42.4190220" lon="-3.1915550">
        <ele>770.6</ele>
        <time>2022-06-27T09:44:00Z</time>
      </trkpt>
      <trkpt lat="42.4189990" lon="-3.1916520">
        <ele>770.4</ele>
        <time>2022-06-27T09:44:01Z</time>
      </trkpt>
      <trkpt lat="42.4189720" lon="-3.1917570">
        <ele>770.4</ele>
        <time>2022-06-27T09:44:02Z</time>
      </trkpt>
      <trkpt lat="42.4189450" lon="-3.1918650">
        <ele>770.2</ele>
        <time>2022-06-27T09:44:03Z</time>
      </trkpt>
      <trkpt lat="42.4189230" lon="-3.1919710">
        <ele>770.0</ele>
        <time>2022-06-27T09:44:04Z</time>
      </trkpt>
      <trkpt lat="42.4189000" lon="-3.1920820">
        <ele>769.8</ele>
        <time>2022-06-27T09:44:05Z</time>
      </trkpt>
      <trkpt lat="42.4188750" lon="-3.1921950">
        <ele>769.8</ele>
        <time>2022-06-27T09:44:06Z</time>
      </trkpt>
      <trkpt lat="42.4188510" lon="-3.1923080">
        <ele>769.6</ele>
        <time>2022-06-27T09:44:07Z</time>
      </trkpt>
      <trkpt lat="42.4188330" lon="-3.1924230">
        <ele>769.6</ele>
        <time>2022-06-27T09:44:08Z</time>
      </trkpt>
      <trkpt lat="42.4188160" lon="-3.1925360">
        <ele>769.6</ele>
        <time>2022-06-27T09:44:09Z</time>
      </trkpt>
      <trkpt lat="42.4187960" lon="-3.1926530">
        <ele>769.4</ele>
        <time>2022-06-27T09:44:10Z</time>
      </trkpt>
      <trkpt lat="42.4187780" lon="-3.1927650">
        <ele>769.2</ele>
        <time>2022-06-27T09:44:11Z</time>
      </trkpt>
      <trkpt lat="42.4187610" lon="-3.1928760">
        <ele>769.2</ele>
        <time>2022-06-27T09:44:12Z</time>
      </trkpt>
      <trkpt lat="42.4187430" lon="-3.1929870">
        <ele>769.0</ele>
        <time>2022-06-27T09:44:13Z</time>
      </trkpt>
      <trkpt lat="42.4187290" lon="-3.1930960">
        <ele>768.8</ele>
        <time>2022-06-27T09:44:14Z</time>
      </trkpt>
      <trkpt lat="42.4187120" lon="-3.1932010">
        <ele>768.8</ele>
        <time>2022-06-27T09:44:15Z</time>
      </trkpt>
      <trkpt lat="42.4186950" lon="-3.1933040">
        <ele>768.8</ele>
        <time>2022-06-27T09:44:16Z</time>
      </trkpt>
      <trkpt lat="42.4186770" lon="-3.1934070">
        <ele>768.8</ele>
        <time>2022-06-27T09:44:17Z</time>
      </trkpt>
      <trkpt lat="42.4186560" lon="-3.1935130">
        <ele>768.8</ele>
        <time>2022-06-27T09:44:18Z</time>
      </trkpt>
      <trkpt lat="42.4186330" lon="-3.1936230">
        <ele>768.8</ele>
        <time>2022-06-27T09:44:19Z</time>
      </trkpt>
      <trkpt lat="42.4186100" lon="-3.1937350">
        <ele>768.8</ele>
        <time>2022-06-27T09:44:20Z</time>
      </trkpt>
      <trkpt lat="42.4185890" lon="-3.1938500">
        <ele>768.8</ele>
        <time>2022-06-27T09:44:21Z</time>
      </trkpt>
      <trkpt lat="42.4185680" lon="-3.1939670">
        <ele>768.8</ele>
        <time>2022-06-27T09:44:22Z</time>
      </trkpt>
      <trkpt lat="42.4185470" lon="-3.1940840">
        <ele>768.6</ele>
        <time>2022-06-27T09:44:23Z</time>
      </trkpt>
      <trkpt lat="42.4185250" lon="-3.1942020">
        <ele>768.6</ele>
        <time>2022-06-27T09:44:24Z</time>
      </trkpt>
      <trkpt lat="42.4184970" lon="-3.1943270">
        <ele>768.6</ele>
        <time>2022-06-27T09:44:25Z</time>
      </trkpt>
      <trkpt lat="42.4184680" lon="-3.1944530">
        <ele>768.6</ele>
        <time>2022-06-27T09:44:26Z</time>
      </trkpt>
      <trkpt lat="42.4184400" lon="-3.1945820">
        <ele>768.6</ele>
        <time>2022-06-27T09:44:27Z</time>
      </trkpt>
      <trkpt lat="42.4184100" lon="-3.1947140">
        <ele>768.6</ele>
        <time>2022-06-27T09:44:28Z</time>
      </trkpt>
      <trkpt lat="42.4183830" lon="-3.1948430">
        <ele>768.6</ele>
        <time>2022-06-27T09:44:29Z</time>
      </trkpt>
      <trkpt lat="42.4183570" lon="-3.1949720">
        <ele>768.6</ele>
        <time>2022-06-27T09:44:30Z</time>
      </trkpt>
      <trkpt lat="42.4183310" lon="-3.1950980">
        <ele>768.6</ele>
        <time>2022-06-27T09:44:31Z</time>
      </trkpt>
      <trkpt lat="42.4183080" lon="-3.1952190">
        <ele>768.6</ele>
        <time>2022-06-27T09:44:32Z</time>
      </trkpt>
      <trkpt lat="42.4182890" lon="-3.1953330">
        <ele>768.6</ele>
        <time>2022-06-27T09:44:33Z</time>
      </trkpt>
      <trkpt lat="42.4182710" lon="-3.1954470">
        <ele>768.6</ele>
        <time>2022-06-27T09:44:34Z</time>
      </trkpt>
      <trkpt lat="42.4182540" lon="-3.1955590">
        <ele>768.6</ele>
        <time>2022-06-27T09:44:35Z</time>
      </trkpt>
      <trkpt lat="42.4182370" lon="-3.1956720">
        <ele>768.6</ele>
        <time>2022-06-27T09:44:36Z</time>
      </trkpt>
      <trkpt lat="42.4182170" lon="-3.1957900">
        <ele>768.6</ele>
        <time>2022-06-27T09:44:37Z</time>
      </trkpt>
      <trkpt lat="42.4181900" lon="-3.1959170">
        <ele>768.6</ele>
        <time>2022-06-27T09:44:38Z</time>
      </trkpt>
      <trkpt lat="42.4181690" lon="-3.1960360">
        <ele>768.6</ele>
        <time>2022-06-27T09:44:39Z</time>
      </trkpt>
      <trkpt lat="42.4181500" lon="-3.1961530">
        <ele>768.6</ele>
        <time>2022-06-27T09:44:40Z</time>
      </trkpt>
      <trkpt lat="42.4181300" lon="-3.1962700">
        <ele>768.6</ele>
        <time>2022-06-27T09:44:41Z</time>
      </trkpt>
      <trkpt lat="42.4181090" lon="-3.1963890">
        <ele>768.6</ele>
        <time>2022-06-27T09:44:42Z</time>
      </trkpt>
      <trkpt lat="42.4180870" lon="-3.1965060">
        <ele>768.6</ele>
        <time>2022-06-27T09:44:43Z</time>
      </trkpt>
      <trkpt lat="42.4180640" lon="-3.1966190">
        <ele>768.6</ele>
        <time>2022-06-27T09:44:44Z</time>
      </trkpt>
      <trkpt lat="42.4180440" lon="-3.1967320">
        <ele>768.6</ele>
        <time>2022-06-27T09:44:45Z</time>
      </trkpt>
      <trkpt lat="42.4180250" lon="-3.1968480">
        <ele>768.4</ele>
        <time>2022-06-27T09:44:46Z</time>
      </trkpt>
      <trkpt lat="42.4180020" lon="-3.1969630">
        <ele>768.4</ele>
        <time>2022-06-27T09:44:47Z</time>
      </trkpt>
      <trkpt lat="42.4179790" lon="-3.1970770">
        <ele>768.4</ele>
        <time>2022-06-27T09:44:48Z</time>
      </trkpt>
      <trkpt lat="42.4179570" lon="-3.1971840">
        <ele>768.6</ele>
        <time>2022-06-27T09:44:49Z</time>
      </trkpt>
      <trkpt lat="42.4179340" lon="-3.1972950">
        <ele>768.6</ele>
        <time>2022-06-27T09:44:50Z</time>
      </trkpt>
      <trkpt lat="42.4179150" lon="-3.1974080">
        <ele>768.6</ele>
        <time>2022-06-27T09:44:51Z</time>
      </trkpt>
      <trkpt lat="42.4179000" lon="-3.1975230">
        <ele>768.6</ele>
        <time>2022-06-27T09:44:52Z</time>
      </trkpt>
      <trkpt lat="42.4178850" lon="-3.1976390">
        <ele>768.6</ele>
        <time>2022-06-27T09:44:53Z</time>
      </trkpt>
      <trkpt lat="42.4178690" lon="-3.1977530">
        <ele>768.6</ele>
        <time>2022-06-27T09:44:54Z</time>
      </trkpt>
      <trkpt lat="42.4178540" lon="-3.1978610">
        <ele>768.6</ele>
        <time>2022-06-27T09:44:55Z</time>
      </trkpt>
      <trkpt lat="42.4178350" lon="-3.1979760">
        <ele>768.6</ele>
        <time>2022-06-27T09:44:56Z</time>
      </trkpt>
      <trkpt lat="42.4178180" lon="-3.1980890">
        <ele>768.8</ele>
        <time>2022-06-27T09:44:57Z</time>
      </trkpt>
      <trkpt lat="42.4178000" lon="-3.1982050">
        <ele>768.8</ele>
        <time>2022-06-27T09:44:58Z</time>
      </trkpt>
      <trkpt lat="42.4177800" lon="-3.1983220">
        <ele>768.8</ele>
        <time>2022-06-27T09:44:59Z</time>
      </trkpt>
      <trkpt lat="42.4177610" lon="-3.1984410">
        <ele>768.8</ele>
        <time>2022-06-27T09:45:00Z</time>
      </trkpt>
      <trkpt lat="42.4177390" lon="-3.1985610">
        <ele>768.8</ele>
        <time>2022-06-27T09:45:01Z</time>
      </trkpt>
      <trkpt lat="42.4177180" lon="-3.1986800">
        <ele>768.8</ele>
        <time>2022-06-27T09:45:02Z</time>
      </trkpt>
      <trkpt lat="42.4176980" lon="-3.1987970">
        <ele>768.8</ele>
        <time>2022-06-27T09:45:03Z</time>
      </trkpt>
      <trkpt lat="42.4176810" lon="-3.1989110">
        <ele>768.8</ele>
        <time>2022-06-27T09:45:04Z</time>
      </trkpt>
      <trkpt lat="42.4176600" lon="-3.1990280">
        <ele>768.6</ele>
        <time>2022-06-27T09:45:05Z</time>
      </trkpt>
      <trkpt lat="42.4176390" lon="-3.1991460">
        <ele>768.6</ele>
        <time>2022-06-27T09:45:06Z</time>
      </trkpt>
      <trkpt lat="42.4176180" lon="-3.1992640">
        <ele>768.6</ele>
        <time>2022-06-27T09:45:07Z</time>
      </trkpt>
      <trkpt lat="42.4175970" lon="-3.1993840">
        <ele>768.6</ele>
        <time>2022-06-27T09:45:08Z</time>
      </trkpt>
      <trkpt lat="42.4175760" lon="-3.1995020">
        <ele>768.6</ele>
        <time>2022-06-27T09:45:09Z</time>
      </trkpt>
      <trkpt lat="42.4175560" lon="-3.1996190">
        <ele>768.6</ele>
        <time>2022-06-27T09:45:10Z</time>
      </trkpt>
      <trkpt lat="42.4175370" lon="-3.1997340">
        <ele>768.4</ele>
        <time>2022-06-27T09:45:11Z</time>
      </trkpt>
      <trkpt lat="42.4175190" lon="-3.1998480">
        <ele>768.4</ele>
        <time>2022-06-27T09:45:12Z</time>
      </trkpt>
      <trkpt lat="42.4175010" lon="-3.1999640">
        <ele>768.4</ele>
        <time>2022-06-27T09:45:13Z</time>
      </trkpt>
      <trkpt lat="42.4174840" lon="-3.2000820">
        <ele>768.4</ele>
        <time>2022-06-27T09:45:14Z</time>
      </trkpt>
      <trkpt lat="42.4174690" lon="-3.2002010">
        <ele>768.4</ele>
        <time>2022-06-27T09:45:15Z</time>
      </trkpt>
      <trkpt lat="42.4174580" lon="-3.2003200">
        <ele>768.4</ele>
        <time>2022-06-27T09:45:16Z</time>
      </trkpt>
      <trkpt lat="42.4174550" lon="-3.2004390">
        <ele>768.4</ele>
        <time>2022-06-27T09:45:17Z</time>
      </trkpt>
      <trkpt lat="42.4174620" lon="-3.2005560">
        <ele>768.4</ele>
        <time>2022-06-27T09:45:18Z</time>
      </trkpt>
      <trkpt lat="42.4174760" lon="-3.2006730">
        <ele>768.2</ele>
        <time>2022-06-27T09:45:19Z</time>
      </trkpt>
      <trkpt lat="42.4174990" lon="-3.2007870">
        <ele>768.2</ele>
        <time>2022-06-27T09:45:20Z</time>
      </trkpt>
      <trkpt lat="42.4175280" lon="-3.2009000">
        <ele>768.2</ele>
        <time>2022-06-27T09:45:21Z</time>
      </trkpt>
      <trkpt lat="42.4175640" lon="-3.2010100">
        <ele>768.0</ele>
        <time>2022-06-27T09:45:22Z</time>
      </trkpt>
      <trkpt lat="42.4176040" lon="-3.2011170">
        <ele>768.0</ele>
        <time>2022-06-27T09:45:23Z</time>
      </trkpt>
      <trkpt lat="42.4176450" lon="-3.2012210">
        <ele>768.0</ele>
        <time>2022-06-27T09:45:24Z</time>
      </trkpt>
      <trkpt lat="42.4176860" lon="-3.2013280">
        <ele>768.0</ele>
        <time>2022-06-27T09:45:25Z</time>
      </trkpt>
      <trkpt lat="42.4177320" lon="-3.2014330">
        <ele>768.0</ele>
        <time>2022-06-27T09:45:26Z</time>
      </trkpt>
      <trkpt lat="42.4177790" lon="-3.2015340">
        <ele>768.0</ele>
        <time>2022-06-27T09:45:27Z</time>
      </trkpt>
      <trkpt lat="42.4178260" lon="-3.2016360">
        <ele>768.0</ele>
        <time>2022-06-27T09:45:28Z</time>
      </trkpt>
      <trkpt lat="42.4178720" lon="-3.2017430">
        <ele>768.0</ele>
        <time>2022-06-27T09:45:29Z</time>
      </trkpt>
      <trkpt lat="42.4179180" lon="-3.2018500">
        <ele>768.0</ele>
        <time>2022-06-27T09:45:30Z</time>
      </trkpt>
      <trkpt lat="42.4179660" lon="-3.2019530">
        <ele>768.0</ele>
        <time>2022-06-27T09:45:31Z</time>
      </trkpt>
      <trkpt lat="42.4180160" lon="-3.2020560">
        <ele>768.2</ele>
        <time>2022-06-27T09:45:32Z</time>
      </trkpt>
      <trkpt lat="42.4180650" lon="-3.2021620">
        <ele>768.2</ele>
        <time>2022-06-27T09:45:33Z</time>
      </trkpt>
      <trkpt lat="42.4181140" lon="-3.2022660">
        <ele>768.2</ele>
        <time>2022-06-27T09:45:34Z</time>
      </trkpt>
      <trkpt lat="42.4181620" lon="-3.2023690">
        <ele>768.2</ele>
        <time>2022-06-27T09:45:35Z</time>
      </trkpt>
      <trkpt lat="42.4182100" lon="-3.2024720">
        <ele>768.2</ele>
        <time>2022-06-27T09:45:36Z</time>
      </trkpt>
      <trkpt lat="42.4182590" lon="-3.2025730">
        <ele>768.2</ele>
        <time>2022-06-27T09:45:37Z</time>
      </trkpt>
      <trkpt lat="42.4183110" lon="-3.2026720">
        <ele>768.2</ele>
        <time>2022-06-27T09:45:38Z</time>
      </trkpt>
      <trkpt lat="42.4183630" lon="-3.2027710">
        <ele>768.2</ele>
        <time>2022-06-27T09:45:39Z</time>
      </trkpt>
      <trkpt lat="42.4184170" lon="-3.2028650">
        <ele>768.2</ele>
        <time>2022-06-27T09:45:40Z</time>
      </trkpt>
      <trkpt lat="42.4184680" lon="-3.2029640">
        <ele>768.2</ele>
        <time>2022-06-27T09:45:41Z</time>
      </trkpt>
      <trkpt lat="42.4185170" lon="-3.2030670">
        <ele>768.2</ele>
        <time>2022-06-27T09:45:42Z</time>
      </trkpt>
      <trkpt lat="42.4185570" lon="-3.2031760">
        <ele>768.2</ele>
        <time>2022-06-27T09:45:43Z</time>
      </trkpt>
      <trkpt lat="42.4185980" lon="-3.2032840">
        <ele>768.2</ele>
        <time>2022-06-27T09:45:44Z</time>
      </trkpt>
      <trkpt lat="42.4186410" lon="-3.2033840">
        <ele>768.2</ele>
        <time>2022-06-27T09:45:45Z</time>
      </trkpt>
      <trkpt lat="42.4186750" lon="-3.2034930">
        <ele>768.2</ele>
        <time>2022-06-27T09:45:46Z</time>
      </trkpt>
      <trkpt lat="42.4186980" lon="-3.2036100">
        <ele>768.2</ele>
        <time>2022-06-27T09:45:47Z</time>
      </trkpt>
      <trkpt lat="42.4187140" lon="-3.2037270">
        <ele>768.2</ele>
        <time>2022-06-27T09:45:48Z</time>
      </trkpt>
      <trkpt lat="42.4187220" lon="-3.2038460">
        <ele>768.2</ele>
        <time>2022-06-27T09:45:49Z</time>
      </trkpt>
      <trkpt lat="42.4187240" lon="-3.2039630">
        <ele>768.2</ele>
        <time>2022-06-27T09:45:50Z</time>
      </trkpt>
      <trkpt lat="42.4187160" lon="-3.2040790">
        <ele>768.2</ele>
        <time>2022-06-27T09:45:51Z</time>
      </trkpt>
      <trkpt lat="42.4186990" lon="-3.2041930">
        <ele>768.2</ele>
        <time>2022-06-27T09:45:52Z</time>
      </trkpt>
      <trkpt lat="42.4186740" lon="-3.2043020">
        <ele>768.2</ele>
        <time>2022-06-27T09:45:53Z</time>
      </trkpt>
      <trkpt lat="42.4186420" lon="-3.2044080">
        <ele>768.2</ele>
        <time>2022-06-27T09:45:54Z</time>
      </trkpt>
      <trkpt lat="42.4186060" lon="-3.2045090">
        <ele>768.2</ele>
        <time>2022-06-27T09:45:55Z</time>
      </trkpt>
      <trkpt lat="42.4185630" lon="-3.2046120">
        <ele>768.4</ele>
        <time>2022-06-27T09:45:56Z</time>
      </trkpt>
      <trkpt lat="42.4185230" lon="-3.2047060">
        <ele>768.4</ele>
        <time>2022-06-27T09:45:57Z</time>
      </trkpt>
      <trkpt lat="42.4184840" lon="-3.2047950">
        <ele>768.6</ele>
        <time>2022-06-27T09:45:58Z</time>
      </trkpt>
      <trkpt lat="42.4184430" lon="-3.2048840">
        <ele>768.8</ele>
        <time>2022-06-27T09:45:59Z</time>
      </trkpt>
      <trkpt lat="42.4184030" lon="-3.2049710">
        <ele>769.0</ele>
        <time>2022-06-27T09:46:00Z</time>
      </trkpt>
      <trkpt lat="42.4183650" lon="-3.2050530">
        <ele>769.0</ele>
        <time>2022-06-27T09:46:01Z</time>
      </trkpt>
      <trkpt lat="42.4183280" lon="-3.2051360">
        <ele>769.4</ele>
        <time>2022-06-27T09:46:02Z</time>
      </trkpt>
      <trkpt lat="42.4182880" lon="-3.2052210">
        <ele>769.4</ele>
        <time>2022-06-27T09:46:03Z</time>
      </trkpt>
      <trkpt lat="42.4182470" lon="-3.2053060">
        <ele>769.8</ele>
        <time>2022-06-27T09:46:04Z</time>
      </trkpt>
      <trkpt lat="42.4182090" lon="-3.2053890">
        <ele>769.8</ele>
        <time>2022-06-27T09:46:05Z</time>
      </trkpt>
      <trkpt lat="42.4181720" lon="-3.2054690">
        <ele>770.0</ele>
        <time>2022-06-27T09:46:06Z</time>
      </trkpt>
      <trkpt lat="42.4181330" lon="-3.2055500">
        <ele>770.0</ele>
        <time>2022-06-27T09:46:07Z</time>
      </trkpt>
      <trkpt lat="42.4180950" lon="-3.2056310">
        <ele>770.2</ele>
        <time>2022-06-27T09:46:08Z</time>
      </trkpt>
      <trkpt lat="42.4180570" lon="-3.2057110">
        <ele>770.4</ele>
        <time>2022-06-27T09:46:09Z</time>
      </trkpt>
      <trkpt lat="42.4180200" lon="-3.2057880">
        <ele>770.6</ele>
        <time>2022-06-27T09:46:10Z</time>
      </trkpt>
      <trkpt lat="42.4179840" lon="-3.2058660">
        <ele>771.0</ele>
        <time>2022-06-27T09:46:11Z</time>
      </trkpt>
      <trkpt lat="42.4179470" lon="-3.2059430">
        <ele>771.0</ele>
        <time>2022-06-27T09:46:12Z</time>
      </trkpt>
      <trkpt lat="42.4179130" lon="-3.2060180">
        <ele>771.2</ele>
        <time>2022-06-27T09:46:13Z</time>
      </trkpt>
      <trkpt lat="42.4178770" lon="-3.2060960">
        <ele>771.4</ele>
        <time>2022-06-27T09:46:14Z</time>
      </trkpt>
      <trkpt lat="42.4178400" lon="-3.2061740">
        <ele>771.6</ele>
        <time>2022-06-27T09:46:15Z</time>
      </trkpt>
      <trkpt lat="42.4178030" lon="-3.2062510">
        <ele>771.8</ele>
        <time>2022-06-27T09:46:16Z</time>
      </trkpt>
      <trkpt lat="42.4177670" lon="-3.2063270">
        <ele>772.0</ele>
        <time>2022-06-27T09:46:17Z</time>
      </trkpt>
      <trkpt lat="42.4177320" lon="-3.2063990">
        <ele>772.2</ele>
        <time>2022-06-27T09:46:18Z</time>
      </trkpt>
      <trkpt lat="42.4176960" lon="-3.2064750">
        <ele>772.2</ele>
        <time>2022-06-27T09:46:19Z</time>
      </trkpt>
      <trkpt lat="42.4176600" lon="-3.2065520">
        <ele>772.2</ele>
        <time>2022-06-27T09:46:20Z</time>
      </trkpt>
      <trkpt lat="42.4176250" lon="-3.2066280">
        <ele>772.4</ele>
        <time>2022-06-27T09:46:21Z</time>
      </trkpt>
      <trkpt lat="42.4175920" lon="-3.2067020">
        <ele>772.4</ele>
        <time>2022-06-27T09:46:22Z</time>
      </trkpt>
      <trkpt lat="42.4175570" lon="-3.2067770">
        <ele>772.6</ele>
        <time>2022-06-27T09:46:23Z</time>
      </trkpt>
      <trkpt lat="42.4175220" lon="-3.2068520">
        <ele>772.6</ele>
        <time>2022-06-27T09:46:24Z</time>
      </trkpt>
      <trkpt lat="42.4174900" lon="-3.2069210">
        <ele>772.8</ele>
        <time>2022-06-27T09:46:25Z</time>
      </trkpt>
      <trkpt lat="42.4174560" lon="-3.2069950">
        <ele>773.0</ele>
        <time>2022-06-27T09:46:26Z</time>
      </trkpt>
      <trkpt lat="42.4174210" lon="-3.2070680">
        <ele>773.4</ele>
        <time>2022-06-27T09:46:27Z</time>
      </trkpt>
      <trkpt lat="42.4173870" lon="-3.2071410">
        <ele>773.6</ele>
        <time>2022-06-27T09:46:28Z</time>
      </trkpt>
      <trkpt lat="42.4173530" lon="-3.2072140">
        <ele>774.0</ele>
        <time>2022-06-27T09:46:29Z</time>
      </trkpt>
      <trkpt lat="42.4173180" lon="-3.2072860">
        <ele>774.2</ele>
        <time>2022-06-27T09:46:30Z</time>
      </trkpt>
      <trkpt lat="42.4172850" lon="-3.2073550">
        <ele>774.2</ele>
        <time>2022-06-27T09:46:31Z</time>
      </trkpt>
      <trkpt lat="42.4172520" lon="-3.2074260">
        <ele>774.2</ele>
        <time>2022-06-27T09:46:32Z</time>
      </trkpt>
      <trkpt lat="42.4172190" lon="-3.2074970">
        <ele>774.2</ele>
        <time>2022-06-27T09:46:33Z</time>
      </trkpt>
      <trkpt lat="42.4171860" lon="-3.2075680">
        <ele>774.6</ele>
        <time>2022-06-27T09:46:34Z</time>
      </trkpt>
      <trkpt lat="42.4171480" lon="-3.2076520">
        <ele>774.8</ele>
        <time>2022-06-27T09:46:35Z</time>
      </trkpt>
      <trkpt lat="42.4171220" lon="-3.2077090">
        <ele>775.2</ele>
        <time>2022-06-27T09:46:36Z</time>
      </trkpt>
      <trkpt lat="42.4170900" lon="-3.2077790">
        <ele>775.4</ele>
        <time>2022-06-27T09:46:37Z</time>
      </trkpt>
      <trkpt lat="42.4170570" lon="-3.2078510">
        <ele>775.4</ele>
        <time>2022-06-27T09:46:38Z</time>
      </trkpt>
      <trkpt lat="42.4170180" lon="-3.2079330">
        <ele>775.6</ele>
        <time>2022-06-27T09:46:39Z</time>
      </trkpt>
      <trkpt lat="42.4169860" lon="-3.2080010">
        <ele>775.8</ele>
        <time>2022-06-27T09:46:40Z</time>
      </trkpt>
      <trkpt lat="42.4169540" lon="-3.2080690">
        <ele>776.4</ele>
        <time>2022-06-27T09:46:41Z</time>
      </trkpt>
      <trkpt lat="42.4169290" lon="-3.2081210">
        <ele>776.6</ele>
        <time>2022-06-27T09:46:42Z</time>
      </trkpt>
      <trkpt lat="42.4168970" lon="-3.2081880">
        <ele>776.8</ele>
        <time>2022-06-27T09:46:43Z</time>
      </trkpt>
      <trkpt lat="42.4168590" lon="-3.2082710">
        <ele>777.0</ele>
        <time>2022-06-27T09:46:44Z</time>
      </trkpt>
      <trkpt lat="42.4168300" lon="-3.2083390">
        <ele>777.4</ele>
        <time>2022-06-27T09:46:45Z</time>
      </trkpt>
      <trkpt lat="42.4168080" lon="-3.2084080">
        <ele>777.6</ele>
        <time>2022-06-27T09:46:46Z</time>
      </trkpt>
      <trkpt lat="42.4167960" lon="-3.2084640">
        <ele>777.6</ele>
        <time>2022-06-27T09:46:47Z</time>
      </trkpt>
      <trkpt lat="42.4167910" lon="-3.2085370">
        <ele>777.6</ele>
        <time>2022-06-27T09:46:48Z</time>
      </trkpt>
      <trkpt lat="42.4168020" lon="-3.2086160">
        <ele>777.8</ele>
        <time>2022-06-27T09:46:49Z</time>
      </trkpt>
      <trkpt lat="42.4168180" lon="-3.2086810">
        <ele>777.8</ele>
        <time>2022-06-27T09:46:50Z</time>
      </trkpt>
      <trkpt lat="42.4168330" lon="-3.2087460">
        <ele>777.8</ele>
        <time>2022-06-27T09:46:51Z</time>
      </trkpt>
      <trkpt lat="42.4168420" lon="-3.2087970">
        <ele>777.8</ele>
        <time>2022-06-27T09:46:52Z</time>
      </trkpt>
      <trkpt lat="42.4168490" lon="-3.2088610">
        <ele>777.8</ele>
        <time>2022-06-27T09:46:53Z</time>
      </trkpt>
      <trkpt lat="42.4168530" lon="-3.2089260">
        <ele>777.8</ele>
        <time>2022-06-27T09:46:54Z</time>
      </trkpt>
      <trkpt lat="42.4168490" lon="-3.2090010">
        <ele>777.6</ele>
        <time>2022-06-27T09:46:55Z</time>
      </trkpt>
      <trkpt lat="42.4168380" lon="-3.2090550">
        <ele>777.6</ele>
        <time>2022-06-27T09:46:56Z</time>
      </trkpt>
      <trkpt lat="42.4165950" lon="-3.2093350">
        <ele>778.0</ele>
        <time>2022-06-27T09:49:03Z</time>
      </trkpt>
      <trkpt lat="42.4165820" lon="-3.2093550">
        <ele>778.0</ele>
        <time>2022-06-27T09:49:04Z</time>
      </trkpt>
      <trkpt lat="42.4165620" lon="-3.2094070">
        <ele>778.0</ele>
        <time>2022-06-27T09:49:05Z</time>
      </trkpt>
      <trkpt lat="42.4165420" lon="-3.2094750">
        <ele>778.2</ele>
        <time>2022-06-27T09:49:06Z</time>
      </trkpt>
      <trkpt lat="42.4165230" lon="-3.2095490">
        <ele>778.2</ele>
        <time>2022-06-27T09:49:07Z</time>
      </trkpt>
      <trkpt lat="42.4165040" lon="-3.2096250">
        <ele>778.4</ele>
        <time>2022-06-27T09:49:08Z</time>
      </trkpt>
      <trkpt lat="42.4164890" lon="-3.2097000">
        <ele>778.4</ele>
        <time>2022-06-27T09:49:09Z</time>
      </trkpt>
      <trkpt lat="42.4164730" lon="-3.2097700">
        <ele>778.4</ele>
        <time>2022-06-27T09:49:10Z</time>
      </trkpt>
      <trkpt lat="42.4164590" lon="-3.2098400">
        <ele>778.4</ele>
        <time>2022-06-27T09:49:11Z</time>
      </trkpt>
      <trkpt lat="42.4164480" lon="-3.2099100">
        <ele>778.4</ele>
        <time>2022-06-27T09:49:12Z</time>
      </trkpt>
      <trkpt lat="42.4164390" lon="-3.2099800">
        <ele>778.6</ele>
        <time>2022-06-27T09:49:13Z</time>
      </trkpt>
      <trkpt lat="42.4164280" lon="-3.2100540">
        <ele>778.6</ele>
        <time>2022-06-27T09:49:14Z</time>
      </trkpt>
      <trkpt lat="42.4164140" lon="-3.2101340">
        <ele>778.6</ele>
        <time>2022-06-27T09:49:15Z</time>
      </trkpt>
      <trkpt lat="42.4164000" lon="-3.2102160">
        <ele>778.6</ele>
        <time>2022-06-27T09:49:16Z</time>
      </trkpt>
      <trkpt lat="42.4163850" lon="-3.2103000">
        <ele>778.6</ele>
        <time>2022-06-27T09:49:17Z</time>
      </trkpt>
      <trkpt lat="42.4163680" lon="-3.2103870">
        <ele>778.6</ele>
        <time>2022-06-27T09:49:18Z</time>
      </trkpt>
      <trkpt lat="42.4163510" lon="-3.2104740">
        <ele>778.6</ele>
        <time>2022-06-27T09:49:19Z</time>
      </trkpt>
      <trkpt lat="42.4163350" lon="-3.2105620">
        <ele>778.6</ele>
        <time>2022-06-27T09:49:20Z</time>
      </trkpt>
      <trkpt lat="42.4163190" lon="-3.2106500">
        <ele>778.6</ele>
        <time>2022-06-27T09:49:21Z</time>
      </trkpt>
      <trkpt lat="42.4163010" lon="-3.2107420">
        <ele>778.8</ele>
        <time>2022-06-27T09:49:22Z</time>
      </trkpt>
      <trkpt lat="42.4162830" lon="-3.2108360">
        <ele>779.0</ele>
        <time>2022-06-27T09:49:23Z</time>
      </trkpt>
      <trkpt lat="42.4162650" lon="-3.2109310">
        <ele>779.0</ele>
        <time>2022-06-27T09:49:24Z</time>
      </trkpt>
      <trkpt lat="42.4162460" lon="-3.2110260">
        <ele>779.0</ele>
        <time>2022-06-27T09:49:25Z</time>
      </trkpt>
      <trkpt lat="42.4162260" lon="-3.2111240">
        <ele>779.0</ele>
        <time>2022-06-27T09:49:26Z</time>
      </trkpt>
      <trkpt lat="42.4162070" lon="-3.2112240">
        <ele>779.0</ele>
        <time>2022-06-27T09:49:27Z</time>
      </trkpt>
      <trkpt lat="42.4161870" lon="-3.2113220">
        <ele>779.0</ele>
        <time>2022-06-27T09:49:28Z</time>
      </trkpt>
      <trkpt lat="42.4161700" lon="-3.2114170">
        <ele>779.2</ele>
        <time>2022-06-27T09:49:29Z</time>
      </trkpt>
      <trkpt lat="42.4161500" lon="-3.2115160">
        <ele>779.4</ele>
        <time>2022-06-27T09:49:30Z</time>
      </trkpt>
      <trkpt lat="42.4161320" lon="-3.2116120">
        <ele>779.4</ele>
        <time>2022-06-27T09:49:31Z</time>
      </trkpt>
      <trkpt lat="42.4161130" lon="-3.2117080">
        <ele>779.4</ele>
        <time>2022-06-27T09:49:32Z</time>
      </trkpt>
      <trkpt lat="42.4160960" lon="-3.2118050">
        <ele>779.4</ele>
        <time>2022-06-27T09:49:33Z</time>
      </trkpt>
      <trkpt lat="42.4160800" lon="-3.2118830">
        <ele>779.6</ele>
        <time>2022-06-27T09:49:34Z</time>
      </trkpt>
      <trkpt lat="42.4160550" lon="-3.2120050">
        <ele>779.6</ele>
        <time>2022-06-27T09:49:35Z</time>
      </trkpt>
      <trkpt lat="42.4160320" lon="-3.2121090">
        <ele>779.6</ele>
        <time>2022-06-27T09:49:36Z</time>
      </trkpt>
      <trkpt lat="42.4160120" lon="-3.2122100">
        <ele>779.6</ele>
        <time>2022-06-27T09:49:37Z</time>
      </trkpt>
      <trkpt lat="42.4159920" lon="-3.2123100">
        <ele>780.0</ele>
        <time>2022-06-27T09:49:38Z</time>
      </trkpt>
      <trkpt lat="42.4159710" lon="-3.2124100">
        <ele>780.2</ele>
        <time>2022-06-27T09:49:39Z</time>
      </trkpt>
      <trkpt lat="42.4159550" lon="-3.2124900">
        <ele>780.2</ele>
        <time>2022-06-27T09:49:40Z</time>
      </trkpt>
      <trkpt lat="42.4159330" lon="-3.2126120">
        <ele>780.4</ele>
        <time>2022-06-27T09:49:41Z</time>
      </trkpt>
      <trkpt lat="42.4159140" lon="-3.2127150">
        <ele>780.4</ele>
        <time>2022-06-27T09:49:42Z</time>
      </trkpt>
      <trkpt lat="42.4158960" lon="-3.2128160">
        <ele>780.4</ele>
        <time>2022-06-27T09:49:43Z</time>
      </trkpt>
      <trkpt lat="42.4158740" lon="-3.2129200">
        <ele>780.4</ele>
        <time>2022-06-27T09:49:44Z</time>
      </trkpt>
      <trkpt lat="42.4158530" lon="-3.2130240">
        <ele>780.4</ele>
        <time>2022-06-27T09:49:45Z</time>
      </trkpt>
      <trkpt lat="42.4158340" lon="-3.2131280">
        <ele>780.4</ele>
        <time>2022-06-27T09:49:46Z</time>
      </trkpt>
      <trkpt lat="42.4158150" lon="-3.2132320">
        <ele>780.4</ele>
        <time>2022-06-27T09:49:47Z</time>
      </trkpt>
      <trkpt lat="42.4157950" lon="-3.2133370">
        <ele>780.6</ele>
        <time>2022-06-27T09:49:48Z</time>
      </trkpt>
      <trkpt lat="42.4157740" lon="-3.2134410">
        <ele>780.6</ele>
        <time>2022-06-27T09:49:49Z</time>
      </trkpt>
      <trkpt lat="42.4157540" lon="-3.2135450">
        <ele>780.6</ele>
        <time>2022-06-27T09:49:50Z</time>
      </trkpt>
      <trkpt lat="42.4157330" lon="-3.2136510">
        <ele>780.6</ele>
        <time>2022-06-27T09:49:51Z</time>
      </trkpt>
      <trkpt lat="42.4157130" lon="-3.2137550">
        <ele>780.6</ele>
        <time>2022-06-27T09:49:52Z</time>
      </trkpt>
      <trkpt lat="42.4156930" lon="-3.2138590">
        <ele>780.6</ele>
        <time>2022-06-27T09:49:53Z</time>
      </trkpt>
      <trkpt lat="42.4156770" lon="-3.2139570">
        <ele>780.6</ele>
        <time>2022-06-27T09:49:54Z</time>
      </trkpt>
      <trkpt lat="42.4156580" lon="-3.2140560">
        <ele>780.8</ele>
        <time>2022-06-27T09:49:55Z</time>
      </trkpt>
      <trkpt lat="42.4156390" lon="-3.2141570">
        <ele>780.8</ele>
        <time>2022-06-27T09:49:56Z</time>
      </trkpt>
      <trkpt lat="42.4156190" lon="-3.2142580">
        <ele>780.8</ele>
        <time>2022-06-27T09:49:57Z</time>
      </trkpt>
      <trkpt lat="42.4155980" lon="-3.2143610">
        <ele>781.0</ele>
        <time>2022-06-27T09:49:58Z</time>
      </trkpt>
      <trkpt lat="42.4155790" lon="-3.2144600">
        <ele>781.0</ele>
        <time>2022-06-27T09:49:59Z</time>
      </trkpt>
      <trkpt lat="42.4155610" lon="-3.2145580">
        <ele>781.0</ele>
        <time>2022-06-27T09:50:00Z</time>
      </trkpt>
      <trkpt lat="42.4155420" lon="-3.2146560">
        <ele>781.4</ele>
        <time>2022-06-27T09:50:01Z</time>
      </trkpt>
      <trkpt lat="42.4155250" lon="-3.2147520">
        <ele>781.4</ele>
        <time>2022-06-27T09:50:02Z</time>
      </trkpt>
      <trkpt lat="42.4155060" lon="-3.2148500">
        <ele>781.4</ele>
        <time>2022-06-27T09:50:03Z</time>
      </trkpt>
      <trkpt lat="42.4154890" lon="-3.2149460">
        <ele>781.6</ele>
        <time>2022-06-27T09:50:04Z</time>
      </trkpt>
      <trkpt lat="42.4154710" lon="-3.2150440">
        <ele>781.6</ele>
        <time>2022-06-27T09:50:05Z</time>
      </trkpt>
      <trkpt lat="42.4154540" lon="-3.2151220">
        <ele>781.8</ele>
        <time>2022-06-27T09:50:06Z</time>
      </trkpt>
      <trkpt lat="42.4154320" lon="-3.2152390">
        <ele>781.8</ele>
        <time>2022-06-27T09:50:07Z</time>
      </trkpt>
      <trkpt lat="42.4154160" lon="-3.2153360">
        <ele>781.8</ele>
        <time>2022-06-27T09:50:08Z</time>
      </trkpt>
      <trkpt lat="42.4153970" lon="-3.2154320">
        <ele>781.8</ele>
        <time>2022-06-27T09:50:09Z</time>
      </trkpt>
      <trkpt lat="42.4153780" lon="-3.2155310">
        <ele>782.0</ele>
        <time>2022-06-27T09:50:10Z</time>
      </trkpt>
      <trkpt lat="42.4153640" lon="-3.2156080">
        <ele>782.2</ele>
        <time>2022-06-27T09:50:11Z</time>
      </trkpt>
      <trkpt lat="42.4153410" lon="-3.2157270">
        <ele>782.4</ele>
        <time>2022-06-27T09:50:12Z</time>
      </trkpt>
      <trkpt lat="42.4153220" lon="-3.2158250">
        <ele>782.6</ele>
        <time>2022-06-27T09:50:13Z</time>
      </trkpt>
      <trkpt lat="42.4153030" lon="-3.2159230">
        <ele>782.6</ele>
        <time>2022-06-27T09:50:14Z</time>
      </trkpt>
      <trkpt lat="42.4152840" lon="-3.2160190">
        <ele>782.8</ele>
        <time>2022-06-27T09:50:15Z</time>
      </trkpt>
      <trkpt lat="42.4152640" lon="-3.2161160">
        <ele>782.8</ele>
        <time>2022-06-27T09:50:16Z</time>
      </trkpt>
      <trkpt lat="42.4152460" lon="-3.2162110">
        <ele>783.0</ele>
        <time>2022-06-27T09:50:17Z</time>
      </trkpt>
      <trkpt lat="42.4152280" lon="-3.2163060">
        <ele>783.0</ele>
        <time>2022-06-27T09:50:18Z</time>
      </trkpt>
      <trkpt lat="42.4152120" lon="-3.2164010">
        <ele>783.0</ele>
        <time>2022-06-27T09:50:19Z</time>
      </trkpt>
      <trkpt lat="42.4151920" lon="-3.2164960">
        <ele>783.2</ele>
        <time>2022-06-27T09:50:20Z</time>
      </trkpt>
      <trkpt lat="42.4151710" lon="-3.2165930">
        <ele>783.4</ele>
        <time>2022-06-27T09:50:21Z</time>
      </trkpt>
      <trkpt lat="42.4151520" lon="-3.2166880">
        <ele>783.6</ele>
        <time>2022-06-27T09:50:22Z</time>
      </trkpt>
      <trkpt lat="42.4151360" lon="-3.2167630">
        <ele>783.6</ele>
        <time>2022-06-27T09:50:23Z</time>
      </trkpt>
      <trkpt lat="42.4151140" lon="-3.2168740">
        <ele>783.8</ele>
        <time>2022-06-27T09:50:24Z</time>
      </trkpt>
      <trkpt lat="42.4150960" lon="-3.2169680">
        <ele>784.0</ele>
        <time>2022-06-27T09:50:25Z</time>
      </trkpt>
      <trkpt lat="42.4150760" lon="-3.2170640">
        <ele>784.0</ele>
        <time>2022-06-27T09:50:26Z</time>
      </trkpt>
      <trkpt lat="42.4150570" lon="-3.2171590">
        <ele>784.0</ele>
        <time>2022-06-27T09:50:27Z</time>
      </trkpt>
      <trkpt lat="42.4150440" lon="-3.2172340">
        <ele>784.2</ele>
        <time>2022-06-27T09:50:28Z</time>
      </trkpt>
      <trkpt lat="42.4150220" lon="-3.2173490">
        <ele>784.4</ele>
        <time>2022-06-27T09:50:29Z</time>
      </trkpt>
      <trkpt lat="42.4150040" lon="-3.2174440">
        <ele>784.6</ele>
        <time>2022-06-27T09:50:30Z</time>
      </trkpt>
      <trkpt lat="42.4149870" lon="-3.2175360">
        <ele>784.8</ele>
        <time>2022-06-27T09:50:31Z</time>
      </trkpt>
      <trkpt lat="42.4149700" lon="-3.2176290">
        <ele>785.0</ele>
        <time>2022-06-27T09:50:32Z</time>
      </trkpt>
      <trkpt lat="42.4149510" lon="-3.2177230">
        <ele>785.2</ele>
        <time>2022-06-27T09:50:33Z</time>
      </trkpt>
      <trkpt lat="42.4149370" lon="-3.2177970">
        <ele>785.2</ele>
        <time>2022-06-27T09:50:34Z</time>
      </trkpt>
      <trkpt lat="42.4149160" lon="-3.2179080">
        <ele>785.2</ele>
        <time>2022-06-27T09:50:35Z</time>
      </trkpt>
      <trkpt lat="42.4148990" lon="-3.2180010">
        <ele>785.4</ele>
        <time>2022-06-27T09:50:36Z</time>
      </trkpt>
      <trkpt lat="42.4148810" lon="-3.2180960">
        <ele>785.4</ele>
        <time>2022-06-27T09:50:37Z</time>
      </trkpt>
      <trkpt lat="42.4148620" lon="-3.2181910">
        <ele>785.6</ele>
        <time>2022-06-27T09:50:38Z</time>
      </trkpt>
      <trkpt lat="42.4148440" lon="-3.2182880">
        <ele>785.8</ele>
        <time>2022-06-27T09:50:39Z</time>
      </trkpt>
      <trkpt lat="42.4148260" lon="-3.2183830">
        <ele>786.0</ele>
        <time>2022-06-27T09:50:40Z</time>
      </trkpt>
      <trkpt lat="42.4148060" lon="-3.2184800">
        <ele>786.2</ele>
        <time>2022-06-27T09:50:41Z</time>
      </trkpt>
      <trkpt lat="42.4147860" lon="-3.2185760">
        <ele>786.2</ele>
        <time>2022-06-27T09:50:42Z</time>
      </trkpt>
      <trkpt lat="42.4147680" lon="-3.2186710">
        <ele>786.4</ele>
        <time>2022-06-27T09:50:43Z</time>
      </trkpt>
      <trkpt lat="42.4147490" lon="-3.2187670">
        <ele>786.4</ele>
        <time>2022-06-27T09:50:44Z</time>
      </trkpt>
      <trkpt lat="42.4147300" lon="-3.2188640">
        <ele>786.6</ele>
        <time>2022-06-27T09:50:45Z</time>
      </trkpt>
      <trkpt lat="42.4147110" lon="-3.2189600">
        <ele>786.6</ele>
        <time>2022-06-27T09:50:46Z</time>
      </trkpt>
      <trkpt lat="42.4146930" lon="-3.2190530">
        <ele>786.6</ele>
        <time>2022-06-27T09:50:47Z</time>
      </trkpt>
      <trkpt lat="42.4146740" lon="-3.2191490">
        <ele>786.8</ele>
        <time>2022-06-27T09:50:48Z</time>
      </trkpt>
      <trkpt lat="42.4146540" lon="-3.2192470">
        <ele>786.8</ele>
        <time>2022-06-27T09:50:49Z</time>
      </trkpt>
      <trkpt lat="42.4146340" lon="-3.2193430">
        <ele>786.8</ele>
        <time>2022-06-27T09:50:50Z</time>
      </trkpt>
      <trkpt lat="42.4146160" lon="-3.2194390">
        <ele>786.8</ele>
        <time>2022-06-27T09:50:51Z</time>
      </trkpt>
      <trkpt lat="42.4145970" lon="-3.2195360">
        <ele>787.0</ele>
        <time>2022-06-27T09:50:52Z</time>
      </trkpt>
      <trkpt lat="42.4145790" lon="-3.2196330">
        <ele>787.0</ele>
        <time>2022-06-27T09:50:53Z</time>
      </trkpt>
      <trkpt lat="42.4145610" lon="-3.2197290">
        <ele>787.0</ele>
        <time>2022-06-27T09:50:54Z</time>
      </trkpt>
      <trkpt lat="42.4145440" lon="-3.2198230">
        <ele>787.0</ele>
        <time>2022-06-27T09:50:55Z</time>
      </trkpt>
      <trkpt lat="42.4145260" lon="-3.2199190">
        <ele>787.2</ele>
        <time>2022-06-27T09:50:56Z</time>
      </trkpt>
      <trkpt lat="42.4145070" lon="-3.2200150">
        <ele>787.2</ele>
        <time>2022-06-27T09:50:57Z</time>
      </trkpt>
      <trkpt lat="42.4144880" lon="-3.2201100">
        <ele>787.4</ele>
        <time>2022-06-27T09:50:58Z</time>
      </trkpt>
      <trkpt lat="42.4144750" lon="-3.2201850">
        <ele>787.8</ele>
        <time>2022-06-27T09:50:59Z</time>
      </trkpt>
      <trkpt lat="42.4144560" lon="-3.2202810">
        <ele>788.0</ele>
        <time>2022-06-27T09:51:00Z</time>
      </trkpt>
      <trkpt lat="42.4144340" lon="-3.2203960">
        <ele>788.2</ele>
        <time>2022-06-27T09:51:01Z</time>
      </trkpt>
      <trkpt lat="42.4144180" lon="-3.2204910">
        <ele>788.4</ele>
        <time>2022-06-27T09:51:02Z</time>
      </trkpt>
      <trkpt lat="42.4144010" lon="-3.2205850">
        <ele>788.6</ele>
        <time>2022-06-27T09:51:03Z</time>
      </trkpt>
      <trkpt lat="42.4143840" lon="-3.2206810">
        <ele>788.6</ele>
        <time>2022-06-27T09:51:04Z</time>
      </trkpt>
      <trkpt lat="42.4143690" lon="-3.2207570">
        <ele>788.8</ele>
        <time>2022-06-27T09:51:05Z</time>
      </trkpt>
      <trkpt lat="42.4143460" lon="-3.2208710">
        <ele>789.0</ele>
        <time>2022-06-27T09:51:06Z</time>
      </trkpt>
      <trkpt lat="42.4143270" lon="-3.2209670">
        <ele>789.0</ele>
        <time>2022-06-27T09:51:07Z</time>
      </trkpt>
      <trkpt lat="42.4143070" lon="-3.2210650">
        <ele>789.0</ele>
        <time>2022-06-27T09:51:08Z</time>
      </trkpt>
      <trkpt lat="42.4142880" lon="-3.2211640">
        <ele>789.2</ele>
        <time>2022-06-27T09:51:09Z</time>
      </trkpt>
      <trkpt lat="42.4142720" lon="-3.2212580">
        <ele>789.2</ele>
        <time>2022-06-27T09:51:10Z</time>
      </trkpt>
      <trkpt lat="42.4142550" lon="-3.2213540">
        <ele>789.4</ele>
        <time>2022-06-27T09:51:11Z</time>
      </trkpt>
      <trkpt lat="42.4142360" lon="-3.2214510">
        <ele>789.6</ele>
        <time>2022-06-27T09:51:12Z</time>
      </trkpt>
      <trkpt lat="42.4142170" lon="-3.2215480">
        <ele>789.8</ele>
        <time>2022-06-27T09:51:13Z</time>
      </trkpt>
      <trkpt lat="42.4141970" lon="-3.2216440">
        <ele>790.0</ele>
        <time>2022-06-27T09:51:14Z</time>
      </trkpt>
      <trkpt lat="42.4141780" lon="-3.2217380">
        <ele>790.2</ele>
        <time>2022-06-27T09:51:15Z</time>
      </trkpt>
      <trkpt lat="42.4141600" lon="-3.2218330">
        <ele>790.2</ele>
        <time>2022-06-27T09:51:16Z</time>
      </trkpt>
      <trkpt lat="42.4141410" lon="-3.2219280">
        <ele>790.2</ele>
        <time>2022-06-27T09:51:17Z</time>
      </trkpt>
      <trkpt lat="42.4141230" lon="-3.2220230">
        <ele>790.4</ele>
        <time>2022-06-27T09:51:18Z</time>
      </trkpt>
      <trkpt lat="42.4141030" lon="-3.2221190">
        <ele>790.4</ele>
        <time>2022-06-27T09:51:19Z</time>
      </trkpt>
      <trkpt lat="42.4140840" lon="-3.2222150">
        <ele>790.4</ele>
        <time>2022-06-27T09:51:20Z</time>
      </trkpt>
      <trkpt lat="42.4140670" lon="-3.2223100">
        <ele>790.6</ele>
        <time>2022-06-27T09:51:21Z</time>
      </trkpt>
      <trkpt lat="42.4140470" lon="-3.2224070">
        <ele>791.0</ele>
        <time>2022-06-27T09:51:22Z</time>
      </trkpt>
      <trkpt lat="42.4140290" lon="-3.2225020">
        <ele>791.0</ele>
        <time>2022-06-27T09:51:23Z</time>
      </trkpt>
      <trkpt lat="42.4140100" lon="-3.2225970">
        <ele>791.2</ele>
        <time>2022-06-27T09:51:24Z</time>
      </trkpt>
      <trkpt lat="42.4139910" lon="-3.2226920">
        <ele>791.4</ele>
        <time>2022-06-27T09:51:25Z</time>
      </trkpt>
      <trkpt lat="42.4139710" lon="-3.2227890">
        <ele>791.4</ele>
        <time>2022-06-27T09:51:26Z</time>
      </trkpt>
      <trkpt lat="42.4139520" lon="-3.2228830">
        <ele>791.6</ele>
        <time>2022-06-27T09:51:27Z</time>
      </trkpt>
      <trkpt lat="42.4139340" lon="-3.2229800">
        <ele>791.6</ele>
        <time>2022-06-27T09:51:28Z</time>
      </trkpt>
      <trkpt lat="42.4139170" lon="-3.2230750">
        <ele>791.6</ele>
        <time>2022-06-27T09:51:29Z</time>
      </trkpt>
      <trkpt lat="42.4138990" lon="-3.2231690">
        <ele>791.8</ele>
        <time>2022-06-27T09:51:30Z</time>
      </trkpt>
      <trkpt lat="42.4138790" lon="-3.2232670">
        <ele>792.0</ele>
        <time>2022-06-27T09:51:31Z</time>
      </trkpt>
      <trkpt lat="42.4138590" lon="-3.2233660">
        <ele>792.2</ele>
        <time>2022-06-27T09:51:32Z</time>
      </trkpt>
      <trkpt lat="42.4138400" lon="-3.2234650">
        <ele>792.4</ele>
        <time>2022-06-27T09:51:33Z</time>
      </trkpt>
      <trkpt lat="42.4138200" lon="-3.2235640">
        <ele>792.4</ele>
        <time>2022-06-27T09:51:34Z</time>
      </trkpt>
      <trkpt lat="42.4138020" lon="-3.2236630">
        <ele>792.6</ele>
        <time>2022-06-27T09:51:35Z</time>
      </trkpt>
      <trkpt lat="42.4137820" lon="-3.2237620">
        <ele>792.8</ele>
        <time>2022-06-27T09:51:36Z</time>
      </trkpt>
      <trkpt lat="42.4137640" lon="-3.2238570">
        <ele>793.0</ele>
        <time>2022-06-27T09:51:37Z</time>
      </trkpt>
      <trkpt lat="42.4137460" lon="-3.2239540">
        <ele>793.0</ele>
        <time>2022-06-27T09:51:38Z</time>
      </trkpt>
      <trkpt lat="42.4137270" lon="-3.2240510">
        <ele>793.0</ele>
        <time>2022-06-27T09:51:39Z</time>
      </trkpt>
      <trkpt lat="42.4137080" lon="-3.2241490">
        <ele>793.2</ele>
        <time>2022-06-27T09:51:40Z</time>
      </trkpt>
      <trkpt lat="42.4136870" lon="-3.2242490">
        <ele>793.2</ele>
        <time>2022-06-27T09:51:41Z</time>
      </trkpt>
      <trkpt lat="42.4136670" lon="-3.2243510">
        <ele>793.2</ele>
        <time>2022-06-27T09:51:42Z</time>
      </trkpt>
      <trkpt lat="42.4136480" lon="-3.2244530">
        <ele>793.2</ele>
        <time>2022-06-27T09:51:43Z</time>
      </trkpt>
      <trkpt lat="42.4136280" lon="-3.2245540">
        <ele>793.2</ele>
        <time>2022-06-27T09:51:44Z</time>
      </trkpt>
      <trkpt lat="42.4136100" lon="-3.2246530">
        <ele>793.6</ele>
        <time>2022-06-27T09:51:45Z</time>
      </trkpt>
      <trkpt lat="42.4135910" lon="-3.2247510">
        <ele>793.6</ele>
        <time>2022-06-27T09:51:46Z</time>
      </trkpt>
      <trkpt lat="42.4135710" lon="-3.2248490">
        <ele>793.8</ele>
        <time>2022-06-27T09:51:47Z</time>
      </trkpt>
      <trkpt lat="42.4135520" lon="-3.2249460">
        <ele>794.0</ele>
        <time>2022-06-27T09:51:48Z</time>
      </trkpt>
      <trkpt lat="42.4135330" lon="-3.2250420">
        <ele>794.0</ele>
        <time>2022-06-27T09:51:49Z</time>
      </trkpt>
      <trkpt lat="42.4135130" lon="-3.2251360">
        <ele>794.2</ele>
        <time>2022-06-27T09:51:50Z</time>
      </trkpt>
      <trkpt lat="42.4134930" lon="-3.2252300">
        <ele>794.2</ele>
        <time>2022-06-27T09:51:51Z</time>
      </trkpt>
      <trkpt lat="42.4134740" lon="-3.2253230">
        <ele>794.4</ele>
        <time>2022-06-27T09:51:52Z</time>
      </trkpt>
      <trkpt lat="42.4134550" lon="-3.2254190">
        <ele>794.4</ele>
        <time>2022-06-27T09:51:53Z</time>
      </trkpt>
      <trkpt lat="42.4134350" lon="-3.2255170">
        <ele>794.4</ele>
        <time>2022-06-27T09:51:54Z</time>
      </trkpt>
      <trkpt lat="42.4134150" lon="-3.2256150">
        <ele>794.4</ele>
        <time>2022-06-27T09:51:55Z</time>
      </trkpt>
      <trkpt lat="42.4133950" lon="-3.2257130">
        <ele>794.6</ele>
        <time>2022-06-27T09:51:56Z</time>
      </trkpt>
      <trkpt lat="42.4133760" lon="-3.2258110">
        <ele>794.8</ele>
        <time>2022-06-27T09:51:57Z</time>
      </trkpt>
      <trkpt lat="42.4133580" lon="-3.2259070">
        <ele>794.8</ele>
        <time>2022-06-27T09:51:58Z</time>
      </trkpt>
      <trkpt lat="42.4133380" lon="-3.2260010">
        <ele>795.0</ele>
        <time>2022-06-27T09:51:59Z</time>
      </trkpt>
      <trkpt lat="42.4133230" lon="-3.2260770">
        <ele>795.0</ele>
        <time>2022-06-27T09:52:00Z</time>
      </trkpt>
      <trkpt lat="42.4132990" lon="-3.2261920">
        <ele>795.0</ele>
        <time>2022-06-27T09:52:01Z</time>
      </trkpt>
      <trkpt lat="42.4132810" lon="-3.2262860">
        <ele>795.2</ele>
        <time>2022-06-27T09:52:02Z</time>
      </trkpt>
      <trkpt lat="42.4132630" lon="-3.2263810">
        <ele>795.4</ele>
        <time>2022-06-27T09:52:03Z</time>
      </trkpt>
      <trkpt lat="42.4132430" lon="-3.2264760">
        <ele>795.6</ele>
        <time>2022-06-27T09:52:04Z</time>
      </trkpt>
      <trkpt lat="42.4132250" lon="-3.2265700">
        <ele>795.6</ele>
        <time>2022-06-27T09:52:05Z</time>
      </trkpt>
      <trkpt lat="42.4132070" lon="-3.2266640">
        <ele>795.8</ele>
        <time>2022-06-27T09:52:06Z</time>
      </trkpt>
      <trkpt lat="42.4131890" lon="-3.2267580">
        <ele>795.8</ele>
        <time>2022-06-27T09:52:07Z</time>
      </trkpt>
      <trkpt lat="42.4131720" lon="-3.2268510">
        <ele>796.0</ele>
        <time>2022-06-27T09:52:08Z</time>
      </trkpt>
      <trkpt lat="42.4131560" lon="-3.2269420">
        <ele>796.0</ele>
        <time>2022-06-27T09:52:09Z</time>
      </trkpt>
      <trkpt lat="42.4131380" lon="-3.2270360">
        <ele>796.2</ele>
        <time>2022-06-27T09:52:10Z</time>
      </trkpt>
      <trkpt lat="42.4131190" lon="-3.2271300">
        <ele>796.2</ele>
        <time>2022-06-27T09:52:11Z</time>
      </trkpt>
      <trkpt lat="42.4131020" lon="-3.2272230">
        <ele>796.4</ele>
        <time>2022-06-27T09:52:12Z</time>
      </trkpt>
      <trkpt lat="42.4130860" lon="-3.2273150">
        <ele>796.6</ele>
        <time>2022-06-27T09:52:13Z</time>
      </trkpt>
      <trkpt lat="42.4130680" lon="-3.2274090">
        <ele>796.6</ele>
        <time>2022-06-27T09:52:14Z</time>
      </trkpt>
      <trkpt lat="42.4130520" lon="-3.2275020">
        <ele>796.6</ele>
        <time>2022-06-27T09:52:15Z</time>
      </trkpt>
      <trkpt lat="42.4130370" lon="-3.2275960">
        <ele>796.8</ele>
        <time>2022-06-27T09:52:16Z</time>
      </trkpt>
      <trkpt lat="42.4130240" lon="-3.2276900">
        <ele>796.8</ele>
        <time>2022-06-27T09:52:17Z</time>
      </trkpt>
      <trkpt lat="42.4130150" lon="-3.2277680">
        <ele>797.0</ele>
        <time>2022-06-27T09:52:18Z</time>
      </trkpt>
      <trkpt lat="42.4130030" lon="-3.2278650">
        <ele>797.0</ele>
        <time>2022-06-27T09:52:19Z</time>
      </trkpt>
      <trkpt lat="42.4129910" lon="-3.2279620">
        <ele>797.0</ele>
        <time>2022-06-27T09:52:20Z</time>
      </trkpt>
      <trkpt lat="42.4129810" lon="-3.2280580">
        <ele>797.2</ele>
        <time>2022-06-27T09:52:21Z</time>
      </trkpt>
      <trkpt lat="42.4129730" lon="-3.2281540">
        <ele>797.2</ele>
        <time>2022-06-27T09:52:22Z</time>
      </trkpt>
      <trkpt lat="42.4129690" lon="-3.2282490">
        <ele>797.4</ele>
        <time>2022-06-27T09:52:23Z</time>
      </trkpt>
      <trkpt lat="42.4129640" lon="-3.2283430">
        <ele>797.6</ele>
        <time>2022-06-27T09:52:24Z</time>
      </trkpt>
      <trkpt lat="42.4129590" lon="-3.2284380">
        <ele>797.8</ele>
        <time>2022-06-27T09:52:25Z</time>
      </trkpt>
      <trkpt lat="42.4129570" lon="-3.2285290">
        <ele>798.2</ele>
        <time>2022-06-27T09:52:26Z</time>
      </trkpt>
      <trkpt lat="42.4129580" lon="-3.2286210">
        <ele>798.4</ele>
        <time>2022-06-27T09:52:27Z</time>
      </trkpt>
      <trkpt lat="42.4129600" lon="-3.2287120">
        <ele>798.4</ele>
        <time>2022-06-27T09:52:28Z</time>
      </trkpt>
      <trkpt lat="42.4129630" lon="-3.2288010">
        <ele>798.6</ele>
        <time>2022-06-27T09:52:29Z</time>
      </trkpt>
      <trkpt lat="42.4129680" lon="-3.2288890">
        <ele>798.8</ele>
        <time>2022-06-27T09:52:30Z</time>
      </trkpt>
      <trkpt lat="42.4129750" lon="-3.2289760">
        <ele>798.8</ele>
        <time>2022-06-27T09:52:31Z</time>
      </trkpt>
      <trkpt lat="42.4129820" lon="-3.2290630">
        <ele>798.8</ele>
        <time>2022-06-27T09:52:32Z</time>
      </trkpt>
      <trkpt lat="42.4129890" lon="-3.2291490">
        <ele>799.0</ele>
        <time>2022-06-27T09:52:33Z</time>
      </trkpt>
      <trkpt lat="42.4129960" lon="-3.2292330">
        <ele>799.4</ele>
        <time>2022-06-27T09:52:34Z</time>
      </trkpt>
      <trkpt lat="42.4130030" lon="-3.2293190">
        <ele>799.6</ele>
        <time>2022-06-27T09:52:35Z</time>
      </trkpt>
      <trkpt lat="42.4130110" lon="-3.2294050">
        <ele>799.8</ele>
        <time>2022-06-27T09:52:36Z</time>
      </trkpt>
      <trkpt lat="42.4130200" lon="-3.2294910">
        <ele>799.8</ele>
        <time>2022-06-27T09:52:37Z</time>
      </trkpt>
      <trkpt lat="42.4130300" lon="-3.2295750">
        <ele>800.0</ele>
        <time>2022-06-27T09:52:38Z</time>
      </trkpt>
      <trkpt lat="42.4130370" lon="-3.2296590">
        <ele>800.0</ele>
        <time>2022-06-27T09:52:39Z</time>
      </trkpt>
      <trkpt lat="42.4130450" lon="-3.2297620">
        <ele>800.4</ele>
        <time>2022-06-27T09:52:40Z</time>
      </trkpt>
      <trkpt lat="42.4130510" lon="-3.2298310">
        <ele>800.6</ele>
        <time>2022-06-27T09:52:41Z</time>
      </trkpt>
      <trkpt lat="42.4130580" lon="-3.2299170">
        <ele>800.4</ele>
        <time>2022-06-27T09:52:42Z</time>
      </trkpt>
      <trkpt lat="42.4130650" lon="-3.2300030">
        <ele>800.6</ele>
        <time>2022-06-27T09:52:43Z</time>
      </trkpt>
      <trkpt lat="42.4130730" lon="-3.2301060">
        <ele>800.8</ele>
        <time>2022-06-27T09:52:44Z</time>
      </trkpt>
      <trkpt lat="42.4130790" lon="-3.2301750">
        <ele>801.0</ele>
        <time>2022-06-27T09:52:45Z</time>
      </trkpt>
      <trkpt lat="42.4130860" lon="-3.2302640">
        <ele>801.2</ele>
        <time>2022-06-27T09:52:46Z</time>
      </trkpt>
      <trkpt lat="42.4130960" lon="-3.2303510">
        <ele>801.2</ele>
        <time>2022-06-27T09:52:47Z</time>
      </trkpt>
      <trkpt lat="42.4131050" lon="-3.2304380">
        <ele>801.4</ele>
        <time>2022-06-27T09:52:48Z</time>
      </trkpt>
      <trkpt lat="42.4131130" lon="-3.2305260">
        <ele>801.6</ele>
        <time>2022-06-27T09:52:49Z</time>
      </trkpt>
      <trkpt lat="42.4131210" lon="-3.2306150">
        <ele>802.0</ele>
        <time>2022-06-27T09:52:50Z</time>
      </trkpt>
      <trkpt lat="42.4131320" lon="-3.2307180">
        <ele>802.0</ele>
        <time>2022-06-27T09:52:51Z</time>
      </trkpt>
      <trkpt lat="42.4131380" lon="-3.2307870">
        <ele>802.4</ele>
        <time>2022-06-27T09:52:52Z</time>
      </trkpt>
      <trkpt lat="42.4131460" lon="-3.2308740">
        <ele>802.4</ele>
        <time>2022-06-27T09:52:53Z</time>
      </trkpt>
      <trkpt lat="42.4131550" lon="-3.2309590">
        <ele>802.6</ele>
        <time>2022-06-27T09:52:54Z</time>
      </trkpt>
      <trkpt lat="42.4131640" lon="-3.2310630">
        <ele>802.6</ele>
        <time>2022-06-27T09:52:55Z</time>
      </trkpt>
      <trkpt lat="42.4131710" lon="-3.2311490">
        <ele>802.8</ele>
        <time>2022-06-27T09:52:56Z</time>
      </trkpt>
      <trkpt lat="42.4131790" lon="-3.2312180">
        <ele>803.0</ele>
        <time>2022-06-27T09:52:57Z</time>
      </trkpt>
      <trkpt lat="42.4131890" lon="-3.2313040">
        <ele>803.2</ele>
        <time>2022-06-27T09:52:58Z</time>
      </trkpt>
      <trkpt lat="42.4131990" lon="-3.2313890">
        <ele>803.4</ele>
        <time>2022-06-27T09:52:59Z</time>
      </trkpt>
      <trkpt lat="42.4132090" lon="-3.2314750">
        <ele>803.6</ele>
        <time>2022-06-27T09:53:00Z</time>
      </trkpt>
      <trkpt lat="42.4132190" lon="-3.2315780">
        <ele>803.8</ele>
        <time>2022-06-27T09:53:01Z</time>
      </trkpt>
      <trkpt lat="42.4132260" lon="-3.2316470">
        <ele>804.0</ele>
        <time>2022-06-27T09:53:02Z</time>
      </trkpt>
      <trkpt lat="42.4132340" lon="-3.2317330">
        <ele>804.0</ele>
        <time>2022-06-27T09:53:03Z</time>
      </trkpt>
      <trkpt lat="42.4132450" lon="-3.2318190">
        <ele>804.0</ele>
        <time>2022-06-27T09:53:04Z</time>
      </trkpt>
      <trkpt lat="42.4132550" lon="-3.2319030">
        <ele>804.2</ele>
        <time>2022-06-27T09:53:05Z</time>
      </trkpt>
      <trkpt lat="42.4132650" lon="-3.2319880">
        <ele>804.4</ele>
        <time>2022-06-27T09:53:06Z</time>
      </trkpt>
      <trkpt lat="42.4132750" lon="-3.2320730">
        <ele>804.4</ele>
        <time>2022-06-27T09:53:07Z</time>
      </trkpt>
      <trkpt lat="42.4132850" lon="-3.2321600">
        <ele>804.6</ele>
        <time>2022-06-27T09:53:08Z</time>
      </trkpt>
      <trkpt lat="42.4132940" lon="-3.2322500">
        <ele>804.8</ele>
        <time>2022-06-27T09:53:09Z</time>
      </trkpt>
      <trkpt lat="42.4133030" lon="-3.2323570">
        <ele>805.0</ele>
        <time>2022-06-27T09:53:10Z</time>
      </trkpt>
      <trkpt lat="42.4133090" lon="-3.2324290">
        <ele>805.2</ele>
        <time>2022-06-27T09:53:11Z</time>
      </trkpt>
      <trkpt lat="42.4133170" lon="-3.2325190">
        <ele>805.4</ele>
        <time>2022-06-27T09:53:12Z</time>
      </trkpt>
      <trkpt lat="42.4133250" lon="-3.2326100">
        <ele>805.4</ele>
        <time>2022-06-27T09:53:13Z</time>
      </trkpt>
      <trkpt lat="42.4133340" lon="-3.2327030">
        <ele>805.6</ele>
        <time>2022-06-27T09:53:14Z</time>
      </trkpt>
      <trkpt lat="42.4133450" lon="-3.2328130">
        <ele>805.8</ele>
        <time>2022-06-27T09:53:15Z</time>
      </trkpt>
      <trkpt lat="42.4133520" lon="-3.2328870">
        <ele>805.8</ele>
        <time>2022-06-27T09:53:16Z</time>
      </trkpt>
      <trkpt lat="42.4133630" lon="-3.2329980">
        <ele>806.0</ele>
        <time>2022-06-27T09:53:17Z</time>
      </trkpt>
      <trkpt lat="42.4133700" lon="-3.2330710">
        <ele>806.0</ele>
        <time>2022-06-27T09:53:18Z</time>
      </trkpt>
      <trkpt lat="42.4133780" lon="-3.2331650">
        <ele>806.2</ele>
        <time>2022-06-27T09:53:19Z</time>
      </trkpt>
      <trkpt lat="42.4133860" lon="-3.2332570">
        <ele>806.2</ele>
        <time>2022-06-27T09:53:20Z</time>
      </trkpt>
      <trkpt lat="42.4133970" lon="-3.2333660">
        <ele>806.2</ele>
        <time>2022-06-27T09:53:21Z</time>
      </trkpt>
      <trkpt lat="42.4134040" lon="-3.2334390">
        <ele>806.2</ele>
        <time>2022-06-27T09:53:22Z</time>
      </trkpt>
      <trkpt lat="42.4134150" lon="-3.2335300">
        <ele>806.2</ele>
        <time>2022-06-27T09:53:23Z</time>
      </trkpt>
      <trkpt lat="42.4134250" lon="-3.2336240">
        <ele>806.4</ele>
        <time>2022-06-27T09:53:24Z</time>
      </trkpt>
      <trkpt lat="42.4134350" lon="-3.2337180">
        <ele>806.4</ele>
        <time>2022-06-27T09:53:25Z</time>
      </trkpt>
      <trkpt lat="42.4134440" lon="-3.2338130">
        <ele>806.4</ele>
        <time>2022-06-27T09:53:26Z</time>
      </trkpt>
      <trkpt lat="42.4134540" lon="-3.2339250">
        <ele>806.4</ele>
        <time>2022-06-27T09:53:27Z</time>
      </trkpt>
      <trkpt lat="42.4134620" lon="-3.2340000">
        <ele>806.6</ele>
        <time>2022-06-27T09:53:28Z</time>
      </trkpt>
      <trkpt lat="42.4134710" lon="-3.2340920">
        <ele>806.6</ele>
        <time>2022-06-27T09:53:29Z</time>
      </trkpt>
      <trkpt lat="42.4134800" lon="-3.2341840">
        <ele>806.6</ele>
        <time>2022-06-27T09:53:30Z</time>
      </trkpt>
      <trkpt lat="42.4134880" lon="-3.2342770">
        <ele>806.8</ele>
        <time>2022-06-27T09:53:31Z</time>
      </trkpt>
      <trkpt lat="42.4134970" lon="-3.2343720">
        <ele>807.0</ele>
        <time>2022-06-27T09:53:32Z</time>
      </trkpt>
      <trkpt lat="42.4135050" lon="-3.2344670">
        <ele>807.0</ele>
        <time>2022-06-27T09:53:33Z</time>
      </trkpt>
      <trkpt lat="42.4135140" lon="-3.2345600">
        <ele>807.2</ele>
        <time>2022-06-27T09:53:34Z</time>
      </trkpt>
      <trkpt lat="42.4135230" lon="-3.2346540">
        <ele>807.2</ele>
        <time>2022-06-27T09:53:35Z</time>
      </trkpt>
      <trkpt lat="42.4135330" lon="-3.2347470">
        <ele>807.4</ele>
        <time>2022-06-27T09:53:36Z</time>
      </trkpt>
      <trkpt lat="42.4135420" lon="-3.2348410">
        <ele>807.4</ele>
        <time>2022-06-27T09:53:37Z</time>
      </trkpt>
      <trkpt lat="42.4135500" lon="-3.2349340">
        <ele>807.4</ele>
        <time>2022-06-27T09:53:38Z</time>
      </trkpt>
      <trkpt lat="42.4135600" lon="-3.2350290">
        <ele>807.6</ele>
        <time>2022-06-27T09:53:39Z</time>
      </trkpt>
      <trkpt lat="42.4135700" lon="-3.2351240">
        <ele>807.6</ele>
        <time>2022-06-27T09:53:40Z</time>
      </trkpt>
      <trkpt lat="42.4135790" lon="-3.2352200">
        <ele>807.8</ele>
        <time>2022-06-27T09:53:41Z</time>
      </trkpt>
      <trkpt lat="42.4135880" lon="-3.2353160">
        <ele>807.8</ele>
        <time>2022-06-27T09:53:42Z</time>
      </trkpt>
      <trkpt lat="42.4135970" lon="-3.2354140">
        <ele>808.0</ele>
        <time>2022-06-27T09:53:43Z</time>
      </trkpt>
      <trkpt lat="42.4136070" lon="-3.2355110">
        <ele>808.0</ele>
        <time>2022-06-27T09:53:44Z</time>
      </trkpt>
      <trkpt lat="42.4136160" lon="-3.2356080">
        <ele>808.0</ele>
        <time>2022-06-27T09:53:45Z</time>
      </trkpt>
      <trkpt lat="42.4136260" lon="-3.2357050">
        <ele>808.0</ele>
        <time>2022-06-27T09:53:46Z</time>
      </trkpt>
      <trkpt lat="42.4136350" lon="-3.2358030">
        <ele>808.0</ele>
        <time>2022-06-27T09:53:47Z</time>
      </trkpt>
      <trkpt lat="42.4136440" lon="-3.2358990">
        <ele>808.0</ele>
        <time>2022-06-27T09:53:48Z</time>
      </trkpt>
      <trkpt lat="42.4136540" lon="-3.2360140">
        <ele>808.0</ele>
        <time>2022-06-27T09:53:49Z</time>
      </trkpt>
      <trkpt lat="42.4136630" lon="-3.2360910">
        <ele>808.0</ele>
        <time>2022-06-27T09:53:50Z</time>
      </trkpt>
      <trkpt lat="42.4136730" lon="-3.2361870">
        <ele>808.0</ele>
        <time>2022-06-27T09:53:51Z</time>
      </trkpt>
      <trkpt lat="42.4136820" lon="-3.2362840">
        <ele>808.0</ele>
        <time>2022-06-27T09:53:52Z</time>
      </trkpt>
      <trkpt lat="42.4136910" lon="-3.2363800">
        <ele>808.0</ele>
        <time>2022-06-27T09:53:53Z</time>
      </trkpt>
      <trkpt lat="42.4137000" lon="-3.2364780">
        <ele>808.2</ele>
        <time>2022-06-27T09:53:54Z</time>
      </trkpt>
      <trkpt lat="42.4137090" lon="-3.2365740">
        <ele>808.2</ele>
        <time>2022-06-27T09:53:55Z</time>
      </trkpt>
      <trkpt lat="42.4137170" lon="-3.2366710">
        <ele>808.4</ele>
        <time>2022-06-27T09:53:56Z</time>
      </trkpt>
      <trkpt lat="42.4137270" lon="-3.2367660">
        <ele>808.4</ele>
        <time>2022-06-27T09:53:57Z</time>
      </trkpt>
      <trkpt lat="42.4137350" lon="-3.2368640">
        <ele>808.6</ele>
        <time>2022-06-27T09:53:58Z</time>
      </trkpt>
      <trkpt lat="42.4137430" lon="-3.2369610">
        <ele>808.8</ele>
        <time>2022-06-27T09:53:59Z</time>
      </trkpt>
      <trkpt lat="42.4137520" lon="-3.2370580">
        <ele>809.0</ele>
        <time>2022-06-27T09:54:00Z</time>
      </trkpt>
      <trkpt lat="42.4137610" lon="-3.2371540">
        <ele>809.0</ele>
        <time>2022-06-27T09:54:01Z</time>
      </trkpt>
      <trkpt lat="42.4137710" lon="-3.2372490">
        <ele>809.2</ele>
        <time>2022-06-27T09:54:02Z</time>
      </trkpt>
      <trkpt lat="42.4137810" lon="-3.2373660">
        <ele>809.2</ele>
        <time>2022-06-27T09:54:03Z</time>
      </trkpt>
      <trkpt lat="42.4137880" lon="-3.2374420">
        <ele>809.4</ele>
        <time>2022-06-27T09:54:04Z</time>
      </trkpt>
      <trkpt lat="42.4137990" lon="-3.2375550">
        <ele>809.4</ele>
        <time>2022-06-27T09:54:05Z</time>
      </trkpt>
      <trkpt lat="42.4138060" lon="-3.2376300">
        <ele>809.4</ele>
        <time>2022-06-27T09:54:06Z</time>
      </trkpt>
      <trkpt lat="42.4138160" lon="-3.2377240">
        <ele>809.6</ele>
        <time>2022-06-27T09:54:07Z</time>
      </trkpt>
      <trkpt lat="42.4138240" lon="-3.2378200">
        <ele>809.6</ele>
        <time>2022-06-27T09:54:08Z</time>
      </trkpt>
      <trkpt lat="42.4138330" lon="-3.2379170">
        <ele>809.8</ele>
        <time>2022-06-27T09:54:09Z</time>
      </trkpt>
      <trkpt lat="42.4138420" lon="-3.2380120">
        <ele>809.8</ele>
        <time>2022-06-27T09:54:10Z</time>
      </trkpt>
      <trkpt lat="42.4138510" lon="-3.2381080">
        <ele>810.0</ele>
        <time>2022-06-27T09:54:11Z</time>
      </trkpt>
      <trkpt lat="42.4138600" lon="-3.2382040">
        <ele>810.0</ele>
        <time>2022-06-27T09:54:12Z</time>
      </trkpt>
      <trkpt lat="42.4138690" lon="-3.2382970">
        <ele>810.0</ele>
        <time>2022-06-27T09:54:13Z</time>
      </trkpt>
      <trkpt lat="42.4138760" lon="-3.2383890">
        <ele>810.2</ele>
        <time>2022-06-27T09:54:14Z</time>
      </trkpt>
      <trkpt lat="42.4138840" lon="-3.2384790">
        <ele>810.2</ele>
        <time>2022-06-27T09:54:15Z</time>
      </trkpt>
      <trkpt lat="42.4138930" lon="-3.2385680">
        <ele>810.2</ele>
        <time>2022-06-27T09:54:16Z</time>
      </trkpt>
      <trkpt lat="42.4139030" lon="-3.2386570">
        <ele>810.4</ele>
        <time>2022-06-27T09:54:17Z</time>
      </trkpt>
      <trkpt lat="42.4139120" lon="-3.2387450">
        <ele>810.6</ele>
        <time>2022-06-27T09:54:18Z</time>
      </trkpt>
      <trkpt lat="42.4139210" lon="-3.2388310">
        <ele>810.6</ele>
        <time>2022-06-27T09:54:19Z</time>
      </trkpt>
      <trkpt lat="42.4139290" lon="-3.2389170">
        <ele>810.8</ele>
        <time>2022-06-27T09:54:20Z</time>
      </trkpt>
      <trkpt lat="42.4139390" lon="-3.2390200">
        <ele>811.0</ele>
        <time>2022-06-27T09:54:21Z</time>
      </trkpt>
      <trkpt lat="42.4139470" lon="-3.2390880">
        <ele>811.2</ele>
        <time>2022-06-27T09:54:22Z</time>
      </trkpt>
      <trkpt lat="42.4139540" lon="-3.2391730">
        <ele>811.2</ele>
        <time>2022-06-27T09:54:23Z</time>
      </trkpt>
      <trkpt lat="42.4139620" lon="-3.2392560">
        <ele>811.2</ele>
        <time>2022-06-27T09:54:24Z</time>
      </trkpt>
      <trkpt lat="42.4139690" lon="-3.2393370">
        <ele>811.4</ele>
        <time>2022-06-27T09:54:25Z</time>
      </trkpt>
      <trkpt lat="42.4139760" lon="-3.2394180">
        <ele>811.6</ele>
        <time>2022-06-27T09:54:26Z</time>
      </trkpt>
      <trkpt lat="42.4139860" lon="-3.2395170">
        <ele>812.0</ele>
        <time>2022-06-27T09:54:27Z</time>
      </trkpt>
      <trkpt lat="42.4139930" lon="-3.2395810">
        <ele>812.0</ele>
        <time>2022-06-27T09:54:28Z</time>
      </trkpt>
      <trkpt lat="42.4140010" lon="-3.2396610">
        <ele>812.2</ele>
        <time>2022-06-27T09:54:29Z</time>
      </trkpt>
      <trkpt lat="42.4140090" lon="-3.2397420">
        <ele>812.4</ele>
        <time>2022-06-27T09:54:30Z</time>
      </trkpt>
      <trkpt lat="42.4140170" lon="-3.2398200">
        <ele>812.4</ele>
        <time>2022-06-27T09:54:31Z</time>
      </trkpt>
      <trkpt lat="42.4140240" lon="-3.2398990">
        <ele>812.6</ele>
        <time>2022-06-27T09:54:32Z</time>
      </trkpt>
      <trkpt lat="42.4140310" lon="-3.2399780">
        <ele>812.8</ele>
        <time>2022-06-27T09:54:33Z</time>
      </trkpt>
      <trkpt lat="42.4140360" lon="-3.2400590">
        <ele>813.0</ele>
        <time>2022-06-27T09:54:34Z</time>
      </trkpt>
      <trkpt lat="42.4140430" lon="-3.2401530">
        <ele>813.0</ele>
        <time>2022-06-27T09:54:35Z</time>
      </trkpt>
      <trkpt lat="42.4140480" lon="-3.2402140">
        <ele>813.2</ele>
        <time>2022-06-27T09:54:36Z</time>
      </trkpt>
      <trkpt lat="42.4140560" lon="-3.2402900">
        <ele>813.4</ele>
        <time>2022-06-27T09:54:37Z</time>
      </trkpt>
      <trkpt lat="42.4140630" lon="-3.2403660">
        <ele>813.6</ele>
        <time>2022-06-27T09:54:38Z</time>
      </trkpt>
      <trkpt lat="42.4140710" lon="-3.2404430">
        <ele>813.8</ele>
        <time>2022-06-27T09:54:39Z</time>
      </trkpt>
      <trkpt lat="42.4140790" lon="-3.2405200">
        <ele>814.2</ele>
        <time>2022-06-27T09:54:40Z</time>
      </trkpt>
      <trkpt lat="42.4140860" lon="-3.2405960">
        <ele>814.4</ele>
        <time>2022-06-27T09:54:41Z</time>
      </trkpt>
      <trkpt lat="42.4140940" lon="-3.2406720">
        <ele>814.6</ele>
        <time>2022-06-27T09:54:42Z</time>
      </trkpt>
      <trkpt lat="42.4141020" lon="-3.2407480">
        <ele>815.0</ele>
        <time>2022-06-27T09:54:43Z</time>
      </trkpt>
      <trkpt lat="42.4141080" lon="-3.2408250">
        <ele>815.0</ele>
        <time>2022-06-27T09:54:44Z</time>
      </trkpt>
      <trkpt lat="42.4141150" lon="-3.2409020">
        <ele>815.2</ele>
        <time>2022-06-27T09:54:45Z</time>
      </trkpt>
      <trkpt lat="42.4141210" lon="-3.2409780">
        <ele>815.2</ele>
        <time>2022-06-27T09:54:46Z</time>
      </trkpt>
      <trkpt lat="42.4141260" lon="-3.2410550">
        <ele>815.4</ele>
        <time>2022-06-27T09:54:47Z</time>
      </trkpt>
      <trkpt lat="42.4141340" lon="-3.2411470">
        <ele>815.4</ele>
        <time>2022-06-27T09:54:48Z</time>
      </trkpt>
      <trkpt lat="42.4141380" lon="-3.2412060">
        <ele>815.6</ele>
        <time>2022-06-27T09:54:49Z</time>
      </trkpt>
      <trkpt lat="42.4141430" lon="-3.2412800">
        <ele>815.8</ele>
        <time>2022-06-27T09:54:50Z</time>
      </trkpt>
      <trkpt lat="42.4141460" lon="-3.2413550">
        <ele>816.0</ele>
        <time>2022-06-27T09:54:51Z</time>
      </trkpt>
      <trkpt lat="42.4141490" lon="-3.2414290">
        <ele>816.2</ele>
        <time>2022-06-27T09:54:52Z</time>
      </trkpt>
      <trkpt lat="42.4141500" lon="-3.2415030">
        <ele>816.4</ele>
        <time>2022-06-27T09:54:53Z</time>
      </trkpt>
      <trkpt lat="42.4141480" lon="-3.2415770">
        <ele>816.6</ele>
        <time>2022-06-27T09:54:54Z</time>
      </trkpt>
      <trkpt lat="42.4141430" lon="-3.2416510">
        <ele>816.8</ele>
        <time>2022-06-27T09:54:55Z</time>
      </trkpt>
      <trkpt lat="42.4141360" lon="-3.2417270">
        <ele>817.0</ele>
        <time>2022-06-27T09:54:56Z</time>
      </trkpt>
      <trkpt lat="42.4141260" lon="-3.2418180">
        <ele>817.2</ele>
        <time>2022-06-27T09:54:57Z</time>
      </trkpt>
      <trkpt lat="42.4141170" lon="-3.2418800">
        <ele>817.2</ele>
        <time>2022-06-27T09:54:58Z</time>
      </trkpt>
      <trkpt lat="42.4141070" lon="-3.2419560">
        <ele>817.4</ele>
        <time>2022-06-27T09:54:59Z</time>
      </trkpt>
      <trkpt lat="42.4140980" lon="-3.2420330">
        <ele>817.4</ele>
        <time>2022-06-27T09:55:00Z</time>
      </trkpt>
      <trkpt lat="42.4140880" lon="-3.2421100">
        <ele>817.6</ele>
        <time>2022-06-27T09:55:01Z</time>
      </trkpt>
      <trkpt lat="42.4140740" lon="-3.2421860">
        <ele>817.8</ele>
        <time>2022-06-27T09:55:02Z</time>
      </trkpt>
      <trkpt lat="42.4140550" lon="-3.2422780">
        <ele>818.2</ele>
        <time>2022-06-27T09:55:03Z</time>
      </trkpt>
      <trkpt lat="42.4140440" lon="-3.2423400">
        <ele>818.4</ele>
        <time>2022-06-27T09:55:04Z</time>
      </trkpt>
      <trkpt lat="42.4140300" lon="-3.2424160">
        <ele>818.6</ele>
        <time>2022-06-27T09:55:05Z</time>
      </trkpt>
      <trkpt lat="42.4140180" lon="-3.2424920">
        <ele>818.8</ele>
        <time>2022-06-27T09:55:06Z</time>
      </trkpt>
      <trkpt lat="42.4140040" lon="-3.2425690">
        <ele>818.8</ele>
        <time>2022-06-27T09:55:07Z</time>
      </trkpt>
      <trkpt lat="42.4139910" lon="-3.2426440">
        <ele>818.8</ele>
        <time>2022-06-27T09:55:08Z</time>
      </trkpt>
      <trkpt lat="42.4139770" lon="-3.2427220">
        <ele>819.0</ele>
        <time>2022-06-27T09:55:09Z</time>
      </trkpt>
      <trkpt lat="42.4139610" lon="-3.2428010">
        <ele>819.0</ele>
        <time>2022-06-27T09:55:10Z</time>
      </trkpt>
      <trkpt lat="42.4139430" lon="-3.2428790">
        <ele>819.0</ele>
        <time>2022-06-27T09:55:11Z</time>
      </trkpt>
      <trkpt lat="42.4139250" lon="-3.2429570">
        <ele>819.0</ele>
        <time>2022-06-27T09:55:12Z</time>
      </trkpt>
      <trkpt lat="42.4139080" lon="-3.2430360">
        <ele>819.2</ele>
        <time>2022-06-27T09:55:13Z</time>
      </trkpt>
      <trkpt lat="42.4138880" lon="-3.2431300">
        <ele>819.4</ele>
        <time>2022-06-27T09:55:14Z</time>
      </trkpt>
      <trkpt lat="42.4138740" lon="-3.2431930">
        <ele>819.6</ele>
        <time>2022-06-27T09:55:15Z</time>
      </trkpt>
      <trkpt lat="42.4138570" lon="-3.2432700">
        <ele>819.6</ele>
        <time>2022-06-27T09:55:16Z</time>
      </trkpt>
      <trkpt lat="42.4138420" lon="-3.2433470">
        <ele>819.8</ele>
        <time>2022-06-27T09:55:17Z</time>
      </trkpt>
      <trkpt lat="42.4138250" lon="-3.2434260">
        <ele>819.8</ele>
        <time>2022-06-27T09:55:18Z</time>
      </trkpt>
      <trkpt lat="42.4138060" lon="-3.2435070">
        <ele>819.8</ele>
        <time>2022-06-27T09:55:19Z</time>
      </trkpt>
      <trkpt lat="42.4137870" lon="-3.2435900">
        <ele>820.0</ele>
        <time>2022-06-27T09:55:20Z</time>
      </trkpt>
      <trkpt lat="42.4137690" lon="-3.2436720">
        <ele>820.2</ele>
        <time>2022-06-27T09:55:21Z</time>
      </trkpt>
      <trkpt lat="42.4137500" lon="-3.2437520">
        <ele>820.2</ele>
        <time>2022-06-27T09:55:22Z</time>
      </trkpt>
      <trkpt lat="42.4137310" lon="-3.2438320">
        <ele>820.4</ele>
        <time>2022-06-27T09:55:23Z</time>
      </trkpt>
      <trkpt lat="42.4137140" lon="-3.2439120">
        <ele>820.4</ele>
        <time>2022-06-27T09:55:24Z</time>
      </trkpt>
      <trkpt lat="42.4136960" lon="-3.2439930">
        <ele>820.6</ele>
        <time>2022-06-27T09:55:25Z</time>
      </trkpt>
      <trkpt lat="42.4136800" lon="-3.2440710">
        <ele>820.6</ele>
        <time>2022-06-27T09:55:26Z</time>
      </trkpt>
      <trkpt lat="42.4136630" lon="-3.2441500">
        <ele>821.0</ele>
        <time>2022-06-27T09:55:27Z</time>
      </trkpt>
      <trkpt lat="42.4136440" lon="-3.2442300">
        <ele>821.0</ele>
        <time>2022-06-27T09:55:28Z</time>
      </trkpt>
      <trkpt lat="42.4136230" lon="-3.2443250">
        <ele>821.2</ele>
        <time>2022-06-27T09:55:29Z</time>
      </trkpt>
      <trkpt lat="42.4136090" lon="-3.2443850">
        <ele>821.2</ele>
        <time>2022-06-27T09:55:30Z</time>
      </trkpt>
      <trkpt lat="42.4135910" lon="-3.2444620">
        <ele>821.4</ele>
        <time>2022-06-27T09:55:31Z</time>
      </trkpt>
      <trkpt lat="42.4135720" lon="-3.2445380">
        <ele>821.6</ele>
        <time>2022-06-27T09:55:32Z</time>
      </trkpt>
      <trkpt lat="42.4135500" lon="-3.2446190">
        <ele>821.8</ele>
        <time>2022-06-27T09:55:33Z</time>
      </trkpt>
      <trkpt lat="42.4135300" lon="-3.2446970">
        <ele>821.8</ele>
        <time>2022-06-27T09:55:34Z</time>
      </trkpt>
      <trkpt lat="42.4135090" lon="-3.2447760">
        <ele>822.0</ele>
        <time>2022-06-27T09:55:35Z</time>
      </trkpt>
      <trkpt lat="42.4134830" lon="-3.2448700">
        <ele>822.0</ele>
        <time>2022-06-27T09:55:36Z</time>
      </trkpt>
      <trkpt lat="42.4134640" lon="-3.2449320">
        <ele>822.0</ele>
        <time>2022-06-27T09:55:37Z</time>
      </trkpt>
      <trkpt lat="42.4134420" lon="-3.2450080">
        <ele>822.0</ele>
        <time>2022-06-27T09:55:38Z</time>
      </trkpt>
      <trkpt lat="42.4134140" lon="-3.2451000">
        <ele>822.0</ele>
        <time>2022-06-27T09:55:39Z</time>
      </trkpt>
      <trkpt lat="42.4133950" lon="-3.2451620">
        <ele>822.0</ele>
        <time>2022-06-27T09:55:40Z</time>
      </trkpt>
      <trkpt lat="42.4133720" lon="-3.2452400">
        <ele>822.0</ele>
        <time>2022-06-27T09:55:41Z</time>
      </trkpt>
      <trkpt lat="42.4133470" lon="-3.2453190">
        <ele>822.0</ele>
        <time>2022-06-27T09:55:42Z</time>
      </trkpt>
      <trkpt lat="42.4133230" lon="-3.2453950">
        <ele>822.2</ele>
        <time>2022-06-27T09:55:43Z</time>
      </trkpt>
      <trkpt lat="42.4132980" lon="-3.2454740">
        <ele>822.4</ele>
        <time>2022-06-27T09:55:44Z</time>
      </trkpt>
      <trkpt lat="42.4132730" lon="-3.2455530">
        <ele>822.6</ele>
        <time>2022-06-27T09:55:45Z</time>
      </trkpt>
      <trkpt lat="42.4132470" lon="-3.2456300">
        <ele>822.6</ele>
        <time>2022-06-27T09:55:46Z</time>
      </trkpt>
      <trkpt lat="42.4132230" lon="-3.2457090">
        <ele>822.8</ele>
        <time>2022-06-27T09:55:47Z</time>
      </trkpt>
      <trkpt lat="42.4131980" lon="-3.2457880">
        <ele>822.8</ele>
        <time>2022-06-27T09:55:48Z</time>
      </trkpt>
      <trkpt lat="42.4131740" lon="-3.2458670">
        <ele>823.0</ele>
        <time>2022-06-27T09:55:49Z</time>
      </trkpt>
      <trkpt lat="42.4131500" lon="-3.2459420">
        <ele>823.0</ele>
        <time>2022-06-27T09:55:50Z</time>
      </trkpt>
      <trkpt lat="42.4131280" lon="-3.2460180">
        <ele>823.0</ele>
        <time>2022-06-27T09:55:51Z</time>
      </trkpt>
      <trkpt lat="42.4131040" lon="-3.2460960">
        <ele>823.0</ele>
        <time>2022-06-27T09:55:52Z</time>
      </trkpt>
      <trkpt lat="42.4130810" lon="-3.2461720">
        <ele>823.2</ele>
        <time>2022-06-27T09:55:53Z</time>
      </trkpt>
      <trkpt lat="42.4130590" lon="-3.2462480">
        <ele>823.2</ele>
        <time>2022-06-27T09:55:54Z</time>
      </trkpt>
      <trkpt lat="42.4130340" lon="-3.2463280">
        <ele>823.2</ele>
        <time>2022-06-27T09:55:55Z</time>
      </trkpt>
      <trkpt lat="42.4130090" lon="-3.2464100">
        <ele>823.2</ele>
        <time>2022-06-27T09:55:56Z</time>
      </trkpt>
      <trkpt lat="42.4129830" lon="-3.2464900">
        <ele>823.4</ele>
        <time>2022-06-27T09:55:57Z</time>
      </trkpt>
      <trkpt lat="42.4129590" lon="-3.2465690">
        <ele>823.6</ele>
        <time>2022-06-27T09:55:58Z</time>
      </trkpt>
      <trkpt lat="42.4129360" lon="-3.2466490">
        <ele>823.6</ele>
        <time>2022-06-27T09:55:59Z</time>
      </trkpt>
      <trkpt lat="42.4129110" lon="-3.2467310">
        <ele>823.8</ele>
        <time>2022-06-27T09:56:00Z</time>
      </trkpt>
      <trkpt lat="42.4128840" lon="-3.2468120">
        <ele>823.8</ele>
        <time>2022-06-27T09:56:01Z</time>
      </trkpt>
      <trkpt lat="42.4128580" lon="-3.2468920">
        <ele>823.8</ele>
        <time>2022-06-27T09:56:02Z</time>
      </trkpt>
      <trkpt lat="42.4128330" lon="-3.2469720">
        <ele>824.0</ele>
        <time>2022-06-27T09:56:03Z</time>
      </trkpt>
      <trkpt lat="42.4128110" lon="-3.2470500">
        <ele>824.0</ele>
        <time>2022-06-27T09:56:04Z</time>
      </trkpt>
      <trkpt lat="42.4127880" lon="-3.2471290">
        <ele>824.2</ele>
        <time>2022-06-27T09:56:05Z</time>
      </trkpt>
      <trkpt lat="42.4127630" lon="-3.2472100">
        <ele>824.2</ele>
        <time>2022-06-27T09:56:06Z</time>
      </trkpt>
      <trkpt lat="42.4127380" lon="-3.2472920">
        <ele>824.2</ele>
        <time>2022-06-27T09:56:07Z</time>
      </trkpt>
      <trkpt lat="42.4127140" lon="-3.2473730">
        <ele>824.2</ele>
        <time>2022-06-27T09:56:08Z</time>
      </trkpt>
      <trkpt lat="42.4126900" lon="-3.2474540">
        <ele>824.2</ele>
        <time>2022-06-27T09:56:09Z</time>
      </trkpt>
      <trkpt lat="42.4126630" lon="-3.2475360">
        <ele>824.4</ele>
        <time>2022-06-27T09:56:10Z</time>
      </trkpt>
      <trkpt lat="42.4126380" lon="-3.2476170">
        <ele>824.4</ele>
        <time>2022-06-27T09:56:11Z</time>
      </trkpt>
      <trkpt lat="42.4126120" lon="-3.2477000">
        <ele>824.6</ele>
        <time>2022-06-27T09:56:12Z</time>
      </trkpt>
      <trkpt lat="42.4125860" lon="-3.2477810">
        <ele>824.8</ele>
        <time>2022-06-27T09:56:13Z</time>
      </trkpt>
      <trkpt lat="42.4125610" lon="-3.2478610">
        <ele>824.8</ele>
        <time>2022-06-27T09:56:14Z</time>
      </trkpt>
      <trkpt lat="42.4125370" lon="-3.2479420">
        <ele>825.0</ele>
        <time>2022-06-27T09:56:15Z</time>
      </trkpt>
      <trkpt lat="42.4125120" lon="-3.2480230">
        <ele>825.0</ele>
        <time>2022-06-27T09:56:16Z</time>
      </trkpt>
      <trkpt lat="42.4124830" lon="-3.2481170">
        <ele>825.4</ele>
        <time>2022-06-27T09:56:17Z</time>
      </trkpt>
      <trkpt lat="42.4124570" lon="-3.2481980">
        <ele>825.4</ele>
        <time>2022-06-27T09:56:18Z</time>
      </trkpt>
      <trkpt lat="42.4124330" lon="-3.2482790">
        <ele>825.4</ele>
        <time>2022-06-27T09:56:19Z</time>
      </trkpt>
      <trkpt lat="42.4124140" lon="-3.2483440">
        <ele>825.6</ele>
        <time>2022-06-27T09:56:20Z</time>
      </trkpt>
      <trkpt lat="42.4123880" lon="-3.2484250">
        <ele>825.6</ele>
        <time>2022-06-27T09:56:21Z</time>
      </trkpt>
      <trkpt lat="42.4123580" lon="-3.2485210">
        <ele>825.6</ele>
        <time>2022-06-27T09:56:22Z</time>
      </trkpt>
      <trkpt lat="42.4123330" lon="-3.2486020">
        <ele>825.6</ele>
        <time>2022-06-27T09:56:23Z</time>
      </trkpt>
      <trkpt lat="42.4123080" lon="-3.2486820">
        <ele>825.8</ele>
        <time>2022-06-27T09:56:24Z</time>
      </trkpt>
      <trkpt lat="42.4122870" lon="-3.2487470">
        <ele>825.8</ele>
        <time>2022-06-27T09:56:25Z</time>
      </trkpt>
      <trkpt lat="42.4122620" lon="-3.2488270">
        <ele>826.2</ele>
        <time>2022-06-27T09:56:26Z</time>
      </trkpt>
      <trkpt lat="42.4122310" lon="-3.2489270">
        <ele>826.2</ele>
        <time>2022-06-27T09:56:27Z</time>
      </trkpt>
      <trkpt lat="42.4122050" lon="-3.2490110">
        <ele>826.2</ele>
        <time>2022-06-27T09:56:28Z</time>
      </trkpt>
      <trkpt lat="42.4121800" lon="-3.2490940">
        <ele>826.2</ele>
        <time>2022-06-27T09:56:29Z</time>
      </trkpt>
      <trkpt lat="42.4121590" lon="-3.2491630">
        <ele>826.2</ele>
        <time>2022-06-27T09:56:30Z</time>
      </trkpt>
      <trkpt lat="42.4121350" lon="-3.2492450">
        <ele>826.4</ele>
        <time>2022-06-27T09:56:31Z</time>
      </trkpt>
      <trkpt lat="42.4121110" lon="-3.2493240">
        <ele>826.4</ele>
        <time>2022-06-27T09:56:32Z</time>
      </trkpt>
      <trkpt lat="42.4120790" lon="-3.2494240">
        <ele>826.6</ele>
        <time>2022-06-27T09:56:33Z</time>
      </trkpt>
      <trkpt lat="42.4120510" lon="-3.2495060">
        <ele>826.6</ele>
        <time>2022-06-27T09:56:34Z</time>
      </trkpt>
      <trkpt lat="42.4120250" lon="-3.2495890">
        <ele>826.8</ele>
        <time>2022-06-27T09:56:35Z</time>
      </trkpt>
      <trkpt lat="42.4120040" lon="-3.2496540">
        <ele>826.8</ele>
        <time>2022-06-27T09:56:36Z</time>
      </trkpt>
      <trkpt lat="42.4119770" lon="-3.2497360">
        <ele>826.8</ele>
        <time>2022-06-27T09:56:37Z</time>
      </trkpt>
      <trkpt lat="42.4119470" lon="-3.2498350">
        <ele>826.8</ele>
        <time>2022-06-27T09:56:38Z</time>
      </trkpt>
      <trkpt lat="42.4119220" lon="-3.2499170">
        <ele>827.0</ele>
        <time>2022-06-27T09:56:39Z</time>
      </trkpt>
      <trkpt lat="42.4118960" lon="-3.2500010">
        <ele>827.2</ele>
        <time>2022-06-27T09:56:40Z</time>
      </trkpt>
      <trkpt lat="42.4118750" lon="-3.2500690">
        <ele>827.2</ele>
        <time>2022-06-27T09:56:41Z</time>
      </trkpt>
      <trkpt lat="42.4118480" lon="-3.2501530">
        <ele>827.4</ele>
        <time>2022-06-27T09:56:42Z</time>
      </trkpt>
      <trkpt lat="42.4118170" lon="-3.2502540">
        <ele>827.6</ele>
        <time>2022-06-27T09:56:43Z</time>
      </trkpt>
      <trkpt lat="42.4117920" lon="-3.2503380">
        <ele>827.6</ele>
        <time>2022-06-27T09:56:44Z</time>
      </trkpt>
      <trkpt lat="42.4117670" lon="-3.2504220">
        <ele>827.8</ele>
        <time>2022-06-27T09:56:45Z</time>
      </trkpt>
      <trkpt lat="42.4117450" lon="-3.2504890">
        <ele>827.8</ele>
        <time>2022-06-27T09:56:46Z</time>
      </trkpt>
      <trkpt lat="42.4117200" lon="-3.2505720">
        <ele>827.8</ele>
        <time>2022-06-27T09:56:47Z</time>
      </trkpt>
      <trkpt lat="42.4116870" lon="-3.2506730">
        <ele>827.6</ele>
        <time>2022-06-27T09:56:48Z</time>
      </trkpt>
      <trkpt lat="42.4116600" lon="-3.2507580">
        <ele>827.8</ele>
        <time>2022-06-27T09:56:49Z</time>
      </trkpt>
      <trkpt lat="42.4116340" lon="-3.2508430">
        <ele>828.0</ele>
        <time>2022-06-27T09:56:50Z</time>
      </trkpt>
      <trkpt lat="42.4116130" lon="-3.2509100">
        <ele>828.0</ele>
        <time>2022-06-27T09:56:51Z</time>
      </trkpt>
      <trkpt lat="42.4115860" lon="-3.2509940">
        <ele>828.2</ele>
        <time>2022-06-27T09:56:52Z</time>
      </trkpt>
      <trkpt lat="42.4115560" lon="-3.2510920">
        <ele>828.2</ele>
        <time>2022-06-27T09:56:53Z</time>
      </trkpt>
      <trkpt lat="42.4115300" lon="-3.2511740">
        <ele>828.4</ele>
        <time>2022-06-27T09:56:54Z</time>
      </trkpt>
      <trkpt lat="42.4115030" lon="-3.2512560">
        <ele>828.6</ele>
        <time>2022-06-27T09:56:55Z</time>
      </trkpt>
      <trkpt lat="42.4114820" lon="-3.2513240">
        <ele>828.6</ele>
        <time>2022-06-27T09:56:56Z</time>
      </trkpt>
      <trkpt lat="42.4114550" lon="-3.2514070">
        <ele>828.6</ele>
        <time>2022-06-27T09:56:57Z</time>
      </trkpt>
      <trkpt lat="42.4114290" lon="-3.2514890">
        <ele>828.6</ele>
        <time>2022-06-27T09:56:58Z</time>
      </trkpt>
      <trkpt lat="42.4113970" lon="-3.2515900">
        <ele>828.6</ele>
        <time>2022-06-27T09:56:59Z</time>
      </trkpt>
      <trkpt lat="42.4113710" lon="-3.2516750">
        <ele>828.6</ele>
        <time>2022-06-27T09:57:00Z</time>
      </trkpt>
      <trkpt lat="42.4113460" lon="-3.2517580">
        <ele>828.8</ele>
        <time>2022-06-27T09:57:01Z</time>
      </trkpt>
      <trkpt lat="42.4113250" lon="-3.2518240">
        <ele>828.8</ele>
        <time>2022-06-27T09:57:02Z</time>
      </trkpt>
      <trkpt lat="42.4112980" lon="-3.2519090">
        <ele>829.0</ele>
        <time>2022-06-27T09:57:03Z</time>
      </trkpt>
      <trkpt lat="42.4112670" lon="-3.2520100">
        <ele>829.2</ele>
        <time>2022-06-27T09:57:04Z</time>
      </trkpt>
      <trkpt lat="42.4112410" lon="-3.2520930">
        <ele>829.2</ele>
        <time>2022-06-27T09:57:05Z</time>
      </trkpt>
      <trkpt lat="42.4112150" lon="-3.2521770">
        <ele>829.4</ele>
        <time>2022-06-27T09:57:06Z</time>
      </trkpt>
      <trkpt lat="42.4111960" lon="-3.2522440">
        <ele>829.4</ele>
        <time>2022-06-27T09:57:07Z</time>
      </trkpt>
      <trkpt lat="42.4111700" lon="-3.2523280">
        <ele>829.8</ele>
        <time>2022-06-27T09:57:08Z</time>
      </trkpt>
      <trkpt lat="42.4111390" lon="-3.2524320">
        <ele>829.6</ele>
        <time>2022-06-27T09:57:09Z</time>
      </trkpt>
      <trkpt lat="42.4111140" lon="-3.2525160">
        <ele>829.8</ele>
        <time>2022-06-27T09:57:10Z</time>
      </trkpt>
      <trkpt lat="42.4110950" lon="-3.2525810">
        <ele>829.8</ele>
        <time>2022-06-27T09:57:11Z</time>
      </trkpt>
      <trkpt lat="42.4110690" lon="-3.2526650">
        <ele>829.8</ele>
        <time>2022-06-27T09:57:12Z</time>
      </trkpt>
      <trkpt lat="42.4110430" lon="-3.2527490">
        <ele>830.0</ele>
        <time>2022-06-27T09:57:13Z</time>
      </trkpt>
      <trkpt lat="42.4110170" lon="-3.2528340">
        <ele>830.2</ele>
        <time>2022-06-27T09:57:14Z</time>
      </trkpt>
      <trkpt lat="42.4109850" lon="-3.2529380">
        <ele>830.4</ele>
        <time>2022-06-27T09:57:15Z</time>
      </trkpt>
      <trkpt lat="42.4109620" lon="-3.2530220">
        <ele>830.4</ele>
        <time>2022-06-27T09:57:16Z</time>
      </trkpt>
      <trkpt lat="42.4109380" lon="-3.2531040">
        <ele>830.6</ele>
        <time>2022-06-27T09:57:17Z</time>
      </trkpt>
      <trkpt lat="42.4109170" lon="-3.2531710">
        <ele>830.6</ele>
        <time>2022-06-27T09:57:18Z</time>
      </trkpt>
      <trkpt lat="42.4108910" lon="-3.2532540">
        <ele>830.8</ele>
        <time>2022-06-27T09:57:19Z</time>
      </trkpt>
      <trkpt lat="42.4108600" lon="-3.2533550">
        <ele>830.8</ele>
        <time>2022-06-27T09:57:20Z</time>
      </trkpt>
      <trkpt lat="42.4108340" lon="-3.2534410">
        <ele>831.0</ele>
        <time>2022-06-27T09:57:21Z</time>
      </trkpt>
      <trkpt lat="42.4108080" lon="-3.2535270">
        <ele>831.0</ele>
        <time>2022-06-27T09:57:22Z</time>
      </trkpt>
      <trkpt lat="42.4107900" lon="-3.2535900">
        <ele>831.2</ele>
        <time>2022-06-27T09:57:23Z</time>
      </trkpt>
      <trkpt lat="42.4107660" lon="-3.2536700">
        <ele>831.2</ele>
        <time>2022-06-27T09:57:24Z</time>
      </trkpt>
      <trkpt lat="42.4107400" lon="-3.2537520">
        <ele>831.4</ele>
        <time>2022-06-27T09:57:25Z</time>
      </trkpt>
      <trkpt lat="42.4107090" lon="-3.2538540">
        <ele>831.6</ele>
        <time>2022-06-27T09:57:26Z</time>
      </trkpt>
      <trkpt lat="42.4106830" lon="-3.2539390">
        <ele>831.6</ele>
        <time>2022-06-27T09:57:27Z</time>
      </trkpt>
      <trkpt lat="42.4106560" lon="-3.2540240">
        <ele>831.8</ele>
        <time>2022-06-27T09:57:28Z</time>
      </trkpt>
      <trkpt lat="42.4106360" lon="-3.2540920">
        <ele>832.0</ele>
        <time>2022-06-27T09:57:29Z</time>
      </trkpt>
      <trkpt lat="42.4106100" lon="-3.2541790">
        <ele>832.0</ele>
        <time>2022-06-27T09:57:30Z</time>
      </trkpt>
      <trkpt lat="42.4105770" lon="-3.2542810">
        <ele>832.2</ele>
        <time>2022-06-27T09:57:31Z</time>
      </trkpt>
      <trkpt lat="42.4105470" lon="-3.2543650">
        <ele>832.2</ele>
        <time>2022-06-27T09:57:32Z</time>
      </trkpt>
      <trkpt lat="42.4105220" lon="-3.2544380">
        <ele>832.2</ele>
        <time>2022-06-27T09:57:33Z</time>
      </trkpt>
      <trkpt lat="42.4105010" lon="-3.2545090">
        <ele>832.4</ele>
        <time>2022-06-27T09:57:34Z</time>
      </trkpt>
      <trkpt lat="42.4104740" lon="-3.2545960">
        <ele>832.4</ele>
        <time>2022-06-27T09:57:35Z</time>
      </trkpt>
      <trkpt lat="42.4104410" lon="-3.2547000">
        <ele>832.6</ele>
        <time>2022-06-27T09:57:36Z</time>
      </trkpt>
      <trkpt lat="42.4104130" lon="-3.2547860">
        <ele>832.6</ele>
        <time>2022-06-27T09:57:37Z</time>
      </trkpt>
      <trkpt lat="42.4103890" lon="-3.2548710">
        <ele>832.8</ele>
        <time>2022-06-27T09:57:38Z</time>
      </trkpt>
      <trkpt lat="42.4103660" lon="-3.2549410">
        <ele>832.8</ele>
        <time>2022-06-27T09:57:39Z</time>
      </trkpt>
      <trkpt lat="42.4103390" lon="-3.2550280">
        <ele>832.8</ele>
        <time>2022-06-27T09:57:40Z</time>
      </trkpt>
      <trkpt lat="42.4103140" lon="-3.2551140">
        <ele>833.0</ele>
        <time>2022-06-27T09:57:41Z</time>
      </trkpt>
      <trkpt lat="42.4102840" lon="-3.2552180">
        <ele>833.0</ele>
        <time>2022-06-27T09:57:42Z</time>
      </trkpt>
      <trkpt lat="42.4102580" lon="-3.2553040">
        <ele>833.0</ele>
        <time>2022-06-27T09:57:43Z</time>
      </trkpt>
      <trkpt lat="42.4102330" lon="-3.2553890">
        <ele>833.2</ele>
        <time>2022-06-27T09:57:44Z</time>
      </trkpt>
      <trkpt lat="42.4102120" lon="-3.2554570">
        <ele>833.4</ele>
        <time>2022-06-27T09:57:45Z</time>
      </trkpt>
      <trkpt lat="42.4101870" lon="-3.2555420">
        <ele>833.4</ele>
        <time>2022-06-27T09:57:46Z</time>
      </trkpt>
      <trkpt lat="42.4101630" lon="-3.2556260">
        <ele>833.6</ele>
        <time>2022-06-27T09:57:47Z</time>
      </trkpt>
      <trkpt lat="42.4101320" lon="-3.2557310">
        <ele>833.6</ele>
        <time>2022-06-27T09:57:48Z</time>
      </trkpt>
      <trkpt lat="42.4101040" lon="-3.2558190">
        <ele>833.8</ele>
        <time>2022-06-27T09:57:49Z</time>
      </trkpt>
      <trkpt lat="42.4100820" lon="-3.2558860">
        <ele>834.0</ele>
        <time>2022-06-27T09:57:50Z</time>
      </trkpt>
      <trkpt lat="42.4100540" lon="-3.2559720">
        <ele>834.2</ele>
        <time>2022-06-27T09:57:51Z</time>
      </trkpt>
      <trkpt lat="42.4100270" lon="-3.2560570">
        <ele>834.2</ele>
        <time>2022-06-27T09:57:52Z</time>
      </trkpt>
      <trkpt lat="42.4099970" lon="-3.2561590">
        <ele>834.2</ele>
        <time>2022-06-27T09:57:53Z</time>
      </trkpt>
      <trkpt lat="42.4099720" lon="-3.2562440">
        <ele>834.4</ele>
        <time>2022-06-27T09:57:54Z</time>
      </trkpt>
      <trkpt lat="42.4099530" lon="-3.2563100">
        <ele>834.4</ele>
        <time>2022-06-27T09:57:55Z</time>
      </trkpt>
      <trkpt lat="42.4099270" lon="-3.2563930">
        <ele>834.6</ele>
        <time>2022-06-27T09:57:56Z</time>
      </trkpt>
      <trkpt lat="42.4099020" lon="-3.2564760">
        <ele>834.6</ele>
        <time>2022-06-27T09:57:57Z</time>
      </trkpt>
      <trkpt lat="42.4098770" lon="-3.2565600">
        <ele>834.8</ele>
        <time>2022-06-27T09:57:58Z</time>
      </trkpt>
      <trkpt lat="42.4098470" lon="-3.2566610">
        <ele>835.0</ele>
        <time>2022-06-27T09:57:59Z</time>
      </trkpt>
      <trkpt lat="42.4098220" lon="-3.2567450">
        <ele>835.0</ele>
        <time>2022-06-27T09:58:00Z</time>
      </trkpt>
      <trkpt lat="42.4098020" lon="-3.2568110">
        <ele>835.2</ele>
        <time>2022-06-27T09:58:01Z</time>
      </trkpt>
      <trkpt lat="42.4097800" lon="-3.2568930">
        <ele>835.2</ele>
        <time>2022-06-27T09:58:02Z</time>
      </trkpt>
      <trkpt lat="42.4097500" lon="-3.2569920">
        <ele>835.4</ele>
        <time>2022-06-27T09:58:03Z</time>
      </trkpt>
      <trkpt lat="42.4097310" lon="-3.2570580">
        <ele>835.4</ele>
        <time>2022-06-27T09:58:04Z</time>
      </trkpt>
      <trkpt lat="42.4097010" lon="-3.2571560">
        <ele>835.4</ele>
        <time>2022-06-27T09:58:05Z</time>
      </trkpt>
      <trkpt lat="42.4096840" lon="-3.2572200">
        <ele>835.4</ele>
        <time>2022-06-27T09:58:06Z</time>
      </trkpt>
      <trkpt lat="42.4096590" lon="-3.2573010">
        <ele>835.6</ele>
        <time>2022-06-27T09:58:07Z</time>
      </trkpt>
      <trkpt lat="42.4096340" lon="-3.2573830">
        <ele>836.0</ele>
        <time>2022-06-27T09:58:08Z</time>
      </trkpt>
      <trkpt lat="42.4096050" lon="-3.2574800">
        <ele>836.0</ele>
        <time>2022-06-27T09:58:09Z</time>
      </trkpt>
      <trkpt lat="42.4095850" lon="-3.2575440">
        <ele>836.2</ele>
        <time>2022-06-27T09:58:10Z</time>
      </trkpt>
      <trkpt lat="42.4095620" lon="-3.2576240">
        <ele>836.2</ele>
        <time>2022-06-27T09:58:11Z</time>
      </trkpt>
      <trkpt lat="42.4095380" lon="-3.2577040">
        <ele>836.4</ele>
        <time>2022-06-27T09:58:12Z</time>
      </trkpt>
      <trkpt lat="42.4095150" lon="-3.2577840">
        <ele>836.6</ele>
        <time>2022-06-27T09:58:13Z</time>
      </trkpt>
      <trkpt lat="42.4094860" lon="-3.2578800">
        <ele>836.6</ele>
        <time>2022-06-27T09:58:14Z</time>
      </trkpt>
      <trkpt lat="42.4094620" lon="-3.2579600">
        <ele>836.8</ele>
        <time>2022-06-27T09:58:15Z</time>
      </trkpt>
      <trkpt lat="42.4094440" lon="-3.2580240">
        <ele>837.0</ele>
        <time>2022-06-27T09:58:16Z</time>
      </trkpt>
      <trkpt lat="42.4094200" lon="-3.2581040">
        <ele>837.0</ele>
        <time>2022-06-27T09:58:17Z</time>
      </trkpt>
      <trkpt lat="42.4093950" lon="-3.2581850">
        <ele>837.2</ele>
        <time>2022-06-27T09:58:18Z</time>
      </trkpt>
      <trkpt lat="42.4093660" lon="-3.2582820">
        <ele>837.4</ele>
        <time>2022-06-27T09:58:19Z</time>
      </trkpt>
      <trkpt lat="42.4093430" lon="-3.2583650">
        <ele>837.4</ele>
        <time>2022-06-27T09:58:20Z</time>
      </trkpt>
      <trkpt lat="42.4093190" lon="-3.2584470">
        <ele>837.6</ele>
        <time>2022-06-27T09:58:21Z</time>
      </trkpt>
      <trkpt lat="42.4092980" lon="-3.2585120">
        <ele>838.0</ele>
        <time>2022-06-27T09:58:22Z</time>
      </trkpt>
      <trkpt lat="42.4092730" lon="-3.2585940">
        <ele>838.0</ele>
        <time>2022-06-27T09:58:23Z</time>
      </trkpt>
      <trkpt lat="42.4092490" lon="-3.2586750">
        <ele>838.4</ele>
        <time>2022-06-27T09:58:24Z</time>
      </trkpt>
      <trkpt lat="42.4092240" lon="-3.2587540">
        <ele>838.6</ele>
        <time>2022-06-27T09:58:25Z</time>
      </trkpt>
      <trkpt lat="42.4091970" lon="-3.2588470">
        <ele>838.8</ele>
        <time>2022-06-27T09:58:26Z</time>
      </trkpt>
      <trkpt lat="42.4091750" lon="-3.2589240">
        <ele>838.8</ele>
        <time>2022-06-27T09:58:27Z</time>
      </trkpt>
      <trkpt lat="42.4091550" lon="-3.2589870">
        <ele>838.8</ele>
        <time>2022-06-27T09:58:28Z</time>
      </trkpt>
      <trkpt lat="42.4091320" lon="-3.2590660">
        <ele>838.8</ele>
        <time>2022-06-27T09:58:29Z</time>
      </trkpt>
      <trkpt lat="42.4091050" lon="-3.2591610">
        <ele>839.0</ele>
        <time>2022-06-27T09:58:30Z</time>
      </trkpt>
      <trkpt lat="42.4090800" lon="-3.2592420">
        <ele>839.2</ele>
        <time>2022-06-27T09:58:31Z</time>
      </trkpt>
      <trkpt lat="42.4090580" lon="-3.2593210">
        <ele>839.2</ele>
        <time>2022-06-27T09:58:32Z</time>
      </trkpt>
      <trkpt lat="42.4090380" lon="-3.2593840">
        <ele>839.4</ele>
        <time>2022-06-27T09:58:33Z</time>
      </trkpt>
      <trkpt lat="42.4090140" lon="-3.2594630">
        <ele>839.6</ele>
        <time>2022-06-27T09:58:34Z</time>
      </trkpt>
      <trkpt lat="42.4089900" lon="-3.2595410">
        <ele>839.8</ele>
        <time>2022-06-27T09:58:35Z</time>
      </trkpt>
      <trkpt lat="42.4089630" lon="-3.2596330">
        <ele>839.8</ele>
        <time>2022-06-27T09:58:36Z</time>
      </trkpt>
      <trkpt lat="42.4089390" lon="-3.2597110">
        <ele>840.2</ele>
        <time>2022-06-27T09:58:37Z</time>
      </trkpt>
      <trkpt lat="42.4089150" lon="-3.2597900">
        <ele>840.4</ele>
        <time>2022-06-27T09:58:38Z</time>
      </trkpt>
      <trkpt lat="42.4088970" lon="-3.2598530">
        <ele>840.6</ele>
        <time>2022-06-27T09:58:39Z</time>
      </trkpt>
      <trkpt lat="42.4088740" lon="-3.2599320">
        <ele>840.6</ele>
        <time>2022-06-27T09:58:40Z</time>
      </trkpt>
      <trkpt lat="42.4088470" lon="-3.2600280">
        <ele>840.8</ele>
        <time>2022-06-27T09:58:41Z</time>
      </trkpt>
      <trkpt lat="42.4088290" lon="-3.2600910">
        <ele>840.8</ele>
        <time>2022-06-27T09:58:42Z</time>
      </trkpt>
      <trkpt lat="42.4088080" lon="-3.2601700">
        <ele>841.0</ele>
        <time>2022-06-27T09:58:43Z</time>
      </trkpt>
      <trkpt lat="42.4087870" lon="-3.2602490">
        <ele>841.2</ele>
        <time>2022-06-27T09:58:44Z</time>
      </trkpt>
      <trkpt lat="42.4087670" lon="-3.2603310">
        <ele>841.4</ele>
        <time>2022-06-27T09:58:45Z</time>
      </trkpt>
      <trkpt lat="42.4087460" lon="-3.2604270">
        <ele>841.4</ele>
        <time>2022-06-27T09:58:46Z</time>
      </trkpt>
      <trkpt lat="42.4087280" lon="-3.2605090">
        <ele>841.6</ele>
        <time>2022-06-27T09:58:47Z</time>
      </trkpt>
      <trkpt lat="42.4087110" lon="-3.2605900">
        <ele>841.6</ele>
        <time>2022-06-27T09:58:48Z</time>
      </trkpt>
      <trkpt lat="42.4087000" lon="-3.2606530">
        <ele>841.8</ele>
        <time>2022-06-27T09:58:49Z</time>
      </trkpt>
      <trkpt lat="42.4086870" lon="-3.2607350">
        <ele>841.8</ele>
        <time>2022-06-27T09:58:50Z</time>
      </trkpt>
      <trkpt lat="42.4086740" lon="-3.2608180">
        <ele>842.0</ele>
        <time>2022-06-27T09:58:51Z</time>
      </trkpt>
      <trkpt lat="42.4086610" lon="-3.2609000">
        <ele>842.2</ele>
        <time>2022-06-27T09:58:52Z</time>
      </trkpt>
      <trkpt lat="42.4086490" lon="-3.2609800">
        <ele>842.2</ele>
        <time>2022-06-27T09:58:53Z</time>
      </trkpt>
      <trkpt lat="42.4086360" lon="-3.2610620">
        <ele>842.4</ele>
        <time>2022-06-27T09:58:54Z</time>
      </trkpt>
      <trkpt lat="42.4086220" lon="-3.2611440">
        <ele>842.6</ele>
        <time>2022-06-27T09:58:55Z</time>
      </trkpt>
      <trkpt lat="42.4086090" lon="-3.2612240">
        <ele>842.8</ele>
        <time>2022-06-27T09:58:56Z</time>
      </trkpt>
      <trkpt lat="42.4085970" lon="-3.2613210">
        <ele>842.8</ele>
        <time>2022-06-27T09:58:57Z</time>
      </trkpt>
      <trkpt lat="42.4085850" lon="-3.2614020">
        <ele>843.0</ele>
        <time>2022-06-27T09:58:58Z</time>
      </trkpt>
      <trkpt lat="42.4085740" lon="-3.2614830">
        <ele>843.0</ele>
        <time>2022-06-27T09:58:59Z</time>
      </trkpt>
      <trkpt lat="42.4085640" lon="-3.2615510">
        <ele>843.2</ele>
        <time>2022-06-27T09:59:00Z</time>
      </trkpt>
      <trkpt lat="42.4085520" lon="-3.2616340">
        <ele>843.2</ele>
        <time>2022-06-27T09:59:01Z</time>
      </trkpt>
      <trkpt lat="42.4085380" lon="-3.2617320">
        <ele>843.4</ele>
        <time>2022-06-27T09:59:02Z</time>
      </trkpt>
      <trkpt lat="42.4085260" lon="-3.2618140">
        <ele>843.4</ele>
        <time>2022-06-27T09:59:03Z</time>
      </trkpt>
      <trkpt lat="42.4085150" lon="-3.2618970">
        <ele>843.6</ele>
        <time>2022-06-27T09:59:04Z</time>
      </trkpt>
      <trkpt lat="42.4085040" lon="-3.2619790">
        <ele>843.8</ele>
        <time>2022-06-27T09:59:05Z</time>
      </trkpt>
      <trkpt lat="42.4084940" lon="-3.2620460">
        <ele>843.8</ele>
        <time>2022-06-27T09:59:06Z</time>
      </trkpt>
      <trkpt lat="42.4084820" lon="-3.2621290">
        <ele>844.0</ele>
        <time>2022-06-27T09:59:07Z</time>
      </trkpt>
      <trkpt lat="42.4084670" lon="-3.2622270">
        <ele>844.0</ele>
        <time>2022-06-27T09:59:08Z</time>
      </trkpt>
      <trkpt lat="42.4084550" lon="-3.2623110">
        <ele>844.0</ele>
        <time>2022-06-27T09:59:09Z</time>
      </trkpt>
      <trkpt lat="42.4084470" lon="-3.2623780">
        <ele>844.2</ele>
        <time>2022-06-27T09:59:10Z</time>
      </trkpt>
      <trkpt lat="42.4084340" lon="-3.2624620">
        <ele>844.4</ele>
        <time>2022-06-27T09:59:11Z</time>
      </trkpt>
      <trkpt lat="42.4084210" lon="-3.2625450">
        <ele>844.6</ele>
        <time>2022-06-27T09:59:12Z</time>
      </trkpt>
      <trkpt lat="42.4084070" lon="-3.2626430">
        <ele>844.6</ele>
        <time>2022-06-27T09:59:13Z</time>
      </trkpt>
      <trkpt lat="42.4083960" lon="-3.2627230">
        <ele>844.6</ele>
        <time>2022-06-27T09:59:14Z</time>
      </trkpt>
      <trkpt lat="42.4083840" lon="-3.2628020">
        <ele>844.8</ele>
        <time>2022-06-27T09:59:15Z</time>
      </trkpt>
      <trkpt lat="42.4083750" lon="-3.2628650">
        <ele>844.8</ele>
        <time>2022-06-27T09:59:16Z</time>
      </trkpt>
      <trkpt lat="42.4083640" lon="-3.2629460">
        <ele>845.0</ele>
        <time>2022-06-27T09:59:17Z</time>
      </trkpt>
      <trkpt lat="42.4083520" lon="-3.2630250">
        <ele>845.2</ele>
        <time>2022-06-27T09:59:18Z</time>
      </trkpt>
      <trkpt lat="42.4083360" lon="-3.2631230">
        <ele>845.4</ele>
        <time>2022-06-27T09:59:19Z</time>
      </trkpt>
      <trkpt lat="42.4083240" lon="-3.2632030">
        <ele>845.4</ele>
        <time>2022-06-27T09:59:20Z</time>
      </trkpt>
      <trkpt lat="42.4083120" lon="-3.2632840">
        <ele>845.6</ele>
        <time>2022-06-27T09:59:21Z</time>
      </trkpt>
      <trkpt lat="42.4083020" lon="-3.2633480">
        <ele>845.8</ele>
        <time>2022-06-27T09:59:22Z</time>
      </trkpt>
      <trkpt lat="42.4082910" lon="-3.2634280">
        <ele>845.8</ele>
        <time>2022-06-27T09:59:23Z</time>
      </trkpt>
      <trkpt lat="42.4082780" lon="-3.2635250">
        <ele>845.8</ele>
        <time>2022-06-27T09:59:24Z</time>
      </trkpt>
      <trkpt lat="42.4082650" lon="-3.2636060">
        <ele>846.0</ele>
        <time>2022-06-27T09:59:25Z</time>
      </trkpt>
      <trkpt lat="42.4082540" lon="-3.2636870">
        <ele>846.2</ele>
        <time>2022-06-27T09:59:26Z</time>
      </trkpt>
      <trkpt lat="42.4082450" lon="-3.2637500">
        <ele>846.2</ele>
        <time>2022-06-27T09:59:27Z</time>
      </trkpt>
      <trkpt lat="42.4082310" lon="-3.2638290">
        <ele>846.6</ele>
        <time>2022-06-27T09:59:28Z</time>
      </trkpt>
      <trkpt lat="42.4082180" lon="-3.2639240">
        <ele>846.6</ele>
        <time>2022-06-27T09:59:29Z</time>
      </trkpt>
      <trkpt lat="42.4082090" lon="-3.2640000">
        <ele>846.6</ele>
        <time>2022-06-27T09:59:30Z</time>
      </trkpt>
      <trkpt lat="42.4081980" lon="-3.2640730">
        <ele>846.8</ele>
        <time>2022-06-27T09:59:31Z</time>
      </trkpt>
      <trkpt lat="42.4081850" lon="-3.2641470">
        <ele>846.8</ele>
        <time>2022-06-27T09:59:32Z</time>
      </trkpt>
      <trkpt lat="42.4081750" lon="-3.2642070">
        <ele>847.0</ele>
        <time>2022-06-27T09:59:33Z</time>
      </trkpt>
      <trkpt lat="42.4081640" lon="-3.2642810">
        <ele>847.0</ele>
        <time>2022-06-27T09:59:34Z</time>
      </trkpt>
      <trkpt lat="42.4081520" lon="-3.2643700">
        <ele>847.2</ele>
        <time>2022-06-27T09:59:35Z</time>
      </trkpt>
      <trkpt lat="42.4081430" lon="-3.2644430">
        <ele>847.4</ele>
        <time>2022-06-27T09:59:36Z</time>
      </trkpt>
      <trkpt lat="42.4081370" lon="-3.2644990">
        <ele>847.8</ele>
        <time>2022-06-27T09:59:37Z</time>
      </trkpt>
      <trkpt lat="42.4081280" lon="-3.2645700">
        <ele>848.2</ele>
        <time>2022-06-27T09:59:38Z</time>
      </trkpt>
      <trkpt lat="42.4081190" lon="-3.2646400">
        <ele>848.4</ele>
        <time>2022-06-27T09:59:39Z</time>
      </trkpt>
      <trkpt lat="42.4081090" lon="-3.2647250">
        <ele>848.8</ele>
        <time>2022-06-27T09:59:40Z</time>
      </trkpt>
      <trkpt lat="42.4081000" lon="-3.2647960">
        <ele>849.0</ele>
        <time>2022-06-27T09:59:41Z</time>
      </trkpt>
      <trkpt lat="42.4080890" lon="-3.2648670">
        <ele>849.4</ele>
        <time>2022-06-27T09:59:42Z</time>
      </trkpt>
      <trkpt lat="42.4080800" lon="-3.2649240">
        <ele>849.4</ele>
        <time>2022-06-27T09:59:43Z</time>
      </trkpt>
      <trkpt lat="42.4080690" lon="-3.2649960">
        <ele>849.8</ele>
        <time>2022-06-27T09:59:44Z</time>
      </trkpt>
      <trkpt lat="42.4080540" lon="-3.2650830">
        <ele>850.0</ele>
        <time>2022-06-27T09:59:45Z</time>
      </trkpt>
      <trkpt lat="42.4080410" lon="-3.2651550">
        <ele>850.4</ele>
        <time>2022-06-27T09:59:46Z</time>
      </trkpt>
      <trkpt lat="42.4080290" lon="-3.2652290">
        <ele>850.6</ele>
        <time>2022-06-27T09:59:47Z</time>
      </trkpt>
      <trkpt lat="42.4080200" lon="-3.2652880">
        <ele>850.6</ele>
        <time>2022-06-27T09:59:48Z</time>
      </trkpt>
      <trkpt lat="42.4080100" lon="-3.2653620">
        <ele>850.8</ele>
        <time>2022-06-27T09:59:49Z</time>
      </trkpt>
      <trkpt lat="42.4079970" lon="-3.2654500">
        <ele>851.0</ele>
        <time>2022-06-27T09:59:50Z</time>
      </trkpt>
      <trkpt lat="42.4079850" lon="-3.2655230">
        <ele>851.2</ele>
        <time>2022-06-27T09:59:51Z</time>
      </trkpt>
      <trkpt lat="42.4079760" lon="-3.2655940">
        <ele>851.6</ele>
        <time>2022-06-27T09:59:52Z</time>
      </trkpt>
      <trkpt lat="42.4079690" lon="-3.2656510">
        <ele>852.0</ele>
        <time>2022-06-27T09:59:53Z</time>
      </trkpt>
      <trkpt lat="42.4079590" lon="-3.2657230">
        <ele>852.2</ele>
        <time>2022-06-27T09:59:54Z</time>
      </trkpt>
      <trkpt lat="42.4079490" lon="-3.2657920">
        <ele>852.4</ele>
        <time>2022-06-27T09:59:55Z</time>
      </trkpt>
      <trkpt lat="42.4079380" lon="-3.2658760">
        <ele>852.8</ele>
        <time>2022-06-27T09:59:56Z</time>
      </trkpt>
      <trkpt lat="42.4079290" lon="-3.2659460">
        <ele>853.0</ele>
        <time>2022-06-27T09:59:57Z</time>
      </trkpt>
      <trkpt lat="42.4079190" lon="-3.2660150">
        <ele>853.2</ele>
        <time>2022-06-27T09:59:58Z</time>
      </trkpt>
      <trkpt lat="42.4079090" lon="-3.2660720">
        <ele>853.4</ele>
        <time>2022-06-27T09:59:59Z</time>
      </trkpt>
      <trkpt lat="42.4078960" lon="-3.2661440">
        <ele>853.6</ele>
        <time>2022-06-27T10:00:00Z</time>
      </trkpt>
      <trkpt lat="42.4078830" lon="-3.2662280">
        <ele>853.8</ele>
        <time>2022-06-27T10:00:01Z</time>
      </trkpt>
      <trkpt lat="42.4078750" lon="-3.2662970">
        <ele>853.8</ele>
        <time>2022-06-27T10:00:02Z</time>
      </trkpt>
      <trkpt lat="42.4078660" lon="-3.2663660">
        <ele>854.2</ele>
        <time>2022-06-27T10:00:03Z</time>
      </trkpt>
      <trkpt lat="42.4078600" lon="-3.2664190">
        <ele>854.4</ele>
        <time>2022-06-27T10:00:04Z</time>
      </trkpt>
      <trkpt lat="42.4078520" lon="-3.2664890">
        <ele>854.8</ele>
        <time>2022-06-27T10:00:05Z</time>
      </trkpt>
      <trkpt lat="42.4078420" lon="-3.2665700">
        <ele>854.8</ele>
        <time>2022-06-27T10:00:06Z</time>
      </trkpt>
      <trkpt lat="42.4078310" lon="-3.2666380">
        <ele>855.0</ele>
        <time>2022-06-27T10:00:07Z</time>
      </trkpt>
      <trkpt lat="42.4078190" lon="-3.2667050">
        <ele>855.2</ele>
        <time>2022-06-27T10:00:08Z</time>
      </trkpt>
      <trkpt lat="42.4078100" lon="-3.2667710">
        <ele>855.2</ele>
        <time>2022-06-27T10:00:09Z</time>
      </trkpt>
      <trkpt lat="42.4078030" lon="-3.2668230">
        <ele>855.4</ele>
        <time>2022-06-27T10:00:10Z</time>
      </trkpt>
      <trkpt lat="42.4077940" lon="-3.2668890">
        <ele>855.6</ele>
        <time>2022-06-27T10:00:11Z</time>
      </trkpt>
      <trkpt lat="42.4077850" lon="-3.2669550">
        <ele>856.0</ele>
        <time>2022-06-27T10:00:12Z</time>
      </trkpt>
      <trkpt lat="42.4077740" lon="-3.2670230">
        <ele>856.2</ele>
        <time>2022-06-27T10:00:13Z</time>
      </trkpt>
      <trkpt lat="42.4077630" lon="-3.2671040">
        <ele>856.4</ele>
        <time>2022-06-27T10:00:14Z</time>
      </trkpt>
      <trkpt lat="42.4077550" lon="-3.2671580">
        <ele>856.6</ele>
        <time>2022-06-27T10:00:15Z</time>
      </trkpt>
      <trkpt lat="42.4077450" lon="-3.2672230">
        <ele>857.0</ele>
        <time>2022-06-27T10:00:16Z</time>
      </trkpt>
      <trkpt lat="42.4077350" lon="-3.2672900">
        <ele>857.2</ele>
        <time>2022-06-27T10:00:17Z</time>
      </trkpt>
      <trkpt lat="42.4077260" lon="-3.2673700">
        <ele>857.4</ele>
        <time>2022-06-27T10:00:18Z</time>
      </trkpt>
      <trkpt lat="42.4077170" lon="-3.2674360">
        <ele>857.6</ele>
        <time>2022-06-27T10:00:19Z</time>
      </trkpt>
      <trkpt lat="42.4077090" lon="-3.2674890">
        <ele>857.6</ele>
        <time>2022-06-27T10:00:20Z</time>
      </trkpt>
      <trkpt lat="42.4076980" lon="-3.2675560">
        <ele>857.8</ele>
        <time>2022-06-27T10:00:21Z</time>
      </trkpt>
      <trkpt lat="42.4076880" lon="-3.2676220">
        <ele>858.0</ele>
        <time>2022-06-27T10:00:22Z</time>
      </trkpt>
      <trkpt lat="42.4076770" lon="-3.2676870">
        <ele>858.2</ele>
        <time>2022-06-27T10:00:23Z</time>
      </trkpt>
      <trkpt lat="42.4076660" lon="-3.2677520">
        <ele>858.6</ele>
        <time>2022-06-27T10:00:24Z</time>
      </trkpt>
      <trkpt lat="42.4076570" lon="-3.2678160">
        <ele>858.8</ele>
        <time>2022-06-27T10:00:25Z</time>
      </trkpt>
      <trkpt lat="42.4076470" lon="-3.2678830">
        <ele>859.2</ele>
        <time>2022-06-27T10:00:26Z</time>
      </trkpt>
      <trkpt lat="42.4076350" lon="-3.2679500">
        <ele>859.4</ele>
        <time>2022-06-27T10:00:27Z</time>
      </trkpt>
      <trkpt lat="42.4076240" lon="-3.2680160">
        <ele>859.6</ele>
        <time>2022-06-27T10:00:28Z</time>
      </trkpt>
      <trkpt lat="42.4076150" lon="-3.2680810">
        <ele>859.8</ele>
        <time>2022-06-27T10:00:29Z</time>
      </trkpt>
      <trkpt lat="42.4076070" lon="-3.2681450">
        <ele>859.8</ele>
        <time>2022-06-27T10:00:30Z</time>
      </trkpt>
      <trkpt lat="42.4075960" lon="-3.2682090">
        <ele>860.0</ele>
        <time>2022-06-27T10:00:31Z</time>
      </trkpt>
      <trkpt lat="42.4075880" lon="-3.2682740">
        <ele>860.0</ele>
        <time>2022-06-27T10:00:32Z</time>
      </trkpt>
      <trkpt lat="42.4075790" lon="-3.2683390">
        <ele>860.2</ele>
        <time>2022-06-27T10:00:33Z</time>
      </trkpt>
      <trkpt lat="42.4075710" lon="-3.2684030">
        <ele>860.2</ele>
        <time>2022-06-27T10:00:34Z</time>
      </trkpt>
      <trkpt lat="42.4075620" lon="-3.2684780">
        <ele>860.4</ele>
        <time>2022-06-27T10:00:35Z</time>
      </trkpt>
      <trkpt lat="42.4075550" lon="-3.2685300">
        <ele>860.6</ele>
        <time>2022-06-27T10:00:36Z</time>
      </trkpt>
      <trkpt lat="42.4075460" lon="-3.2685940">
        <ele>861.2</ele>
        <time>2022-06-27T10:00:37Z</time>
      </trkpt>
      <trkpt lat="42.4075350" lon="-3.2686580">
        <ele>861.4</ele>
        <time>2022-06-27T10:00:38Z</time>
      </trkpt>
      <trkpt lat="42.4075230" lon="-3.2687340">
        <ele>861.6</ele>
        <time>2022-06-27T10:00:39Z</time>
      </trkpt>
      <trkpt lat="42.4075120" lon="-3.2687980">
        <ele>862.0</ele>
        <time>2022-06-27T10:00:40Z</time>
      </trkpt>
      <trkpt lat="42.4075030" lon="-3.2688620">
        <ele>862.0</ele>
        <time>2022-06-27T10:00:41Z</time>
      </trkpt>
      <trkpt lat="42.4074950" lon="-3.2689130">
        <ele>862.2</ele>
        <time>2022-06-27T10:00:42Z</time>
      </trkpt>
      <trkpt lat="42.4074830" lon="-3.2689780">
        <ele>862.4</ele>
        <time>2022-06-27T10:00:43Z</time>
      </trkpt>
      <trkpt lat="42.4074720" lon="-3.2690530">
        <ele>862.8</ele>
        <time>2022-06-27T10:00:44Z</time>
      </trkpt>
      <trkpt lat="42.4074660" lon="-3.2691020">
        <ele>863.0</ele>
        <time>2022-06-27T10:00:45Z</time>
      </trkpt>
      <trkpt lat="42.4074570" lon="-3.2691640">
        <ele>863.2</ele>
        <time>2022-06-27T10:00:46Z</time>
      </trkpt>
      <trkpt lat="42.4074490" lon="-3.2692250">
        <ele>863.4</ele>
        <time>2022-06-27T10:00:47Z</time>
      </trkpt>
      <trkpt lat="42.4074410" lon="-3.2692880">
        <ele>863.6</ele>
        <time>2022-06-27T10:00:48Z</time>
      </trkpt>
      <trkpt lat="42.4074340" lon="-3.2693490">
        <ele>863.8</ele>
        <time>2022-06-27T10:00:49Z</time>
      </trkpt>
      <trkpt lat="42.4074250" lon="-3.2694100">
        <ele>863.8</ele>
        <time>2022-06-27T10:00:50Z</time>
      </trkpt>
      <trkpt lat="42.4074110" lon="-3.2694840">
        <ele>864.2</ele>
        <time>2022-06-27T10:00:51Z</time>
      </trkpt>
      <trkpt lat="42.4074010" lon="-3.2695450">
        <ele>864.4</ele>
        <time>2022-06-27T10:00:52Z</time>
      </trkpt>
      <trkpt lat="42.4073940" lon="-3.2695940">
        <ele>864.8</ele>
        <time>2022-06-27T10:00:53Z</time>
      </trkpt>
      <trkpt lat="42.4073850" lon="-3.2696560">
        <ele>865.0</ele>
        <time>2022-06-27T10:00:54Z</time>
      </trkpt>
      <trkpt lat="42.4073750" lon="-3.2697270">
        <ele>865.4</ele>
        <time>2022-06-27T10:00:55Z</time>
      </trkpt>
      <trkpt lat="42.4073700" lon="-3.2697720">
        <ele>865.6</ele>
        <time>2022-06-27T10:00:56Z</time>
      </trkpt>
      <trkpt lat="42.4073610" lon="-3.2698420">
        <ele>866.0</ele>
        <time>2022-06-27T10:00:57Z</time>
      </trkpt>
      <trkpt lat="42.4073530" lon="-3.2698880">
        <ele>866.4</ele>
        <time>2022-06-27T10:00:58Z</time>
      </trkpt>
      <trkpt lat="42.4073420" lon="-3.2699480">
        <ele>866.4</ele>
        <time>2022-06-27T10:00:59Z</time>
      </trkpt>
      <trkpt lat="42.4073300" lon="-3.2700190">
        <ele>866.6</ele>
        <time>2022-06-27T10:01:00Z</time>
      </trkpt>
      <trkpt lat="42.4073200" lon="-3.2700800">
        <ele>866.8</ele>
        <time>2022-06-27T10:01:01Z</time>
      </trkpt>
      <trkpt lat="42.4073120" lon="-3.2701370">
        <ele>867.0</ele>
        <time>2022-06-27T10:01:02Z</time>
      </trkpt>
      <trkpt lat="42.4073040" lon="-3.2701860">
        <ele>867.4</ele>
        <time>2022-06-27T10:01:03Z</time>
      </trkpt>
      <trkpt lat="42.4072940" lon="-3.2702450">
        <ele>867.4</ele>
        <time>2022-06-27T10:01:04Z</time>
      </trkpt>
      <trkpt lat="42.4072830" lon="-3.2703060">
        <ele>867.8</ele>
        <time>2022-06-27T10:01:05Z</time>
      </trkpt>
      <trkpt lat="42.4072680" lon="-3.2703780">
        <ele>867.8</ele>
        <time>2022-06-27T10:01:06Z</time>
      </trkpt>
      <trkpt lat="42.4072540" lon="-3.2704370">
        <ele>868.0</ele>
        <time>2022-06-27T10:01:07Z</time>
      </trkpt>
      <trkpt lat="42.4072400" lon="-3.2704980">
        <ele>868.2</ele>
        <time>2022-06-27T10:01:08Z</time>
      </trkpt>
      <trkpt lat="42.4072290" lon="-3.2705440">
        <ele>868.2</ele>
        <time>2022-06-27T10:01:09Z</time>
      </trkpt>
      <trkpt lat="42.4072180" lon="-3.2705990">
        <ele>868.4</ele>
        <time>2022-06-27T10:01:10Z</time>
      </trkpt>
      <trkpt lat="42.4072000" lon="-3.2706680">
        <ele>868.6</ele>
        <time>2022-06-27T10:01:11Z</time>
      </trkpt>
      <trkpt lat="42.4071860" lon="-3.2707140">
        <ele>868.8</ele>
        <time>2022-06-27T10:01:12Z</time>
      </trkpt>
      <trkpt lat="42.4071660" lon="-3.2707830">
        <ele>869.0</ele>
        <time>2022-06-27T10:01:13Z</time>
      </trkpt>
      <trkpt lat="42.4071520" lon="-3.2708290">
        <ele>869.2</ele>
        <time>2022-06-27T10:01:14Z</time>
      </trkpt>
      <trkpt lat="42.4071320" lon="-3.2708860">
        <ele>869.2</ele>
        <time>2022-06-27T10:01:15Z</time>
      </trkpt>
      <trkpt lat="42.4071060" lon="-3.2709520">
        <ele>869.8</ele>
        <time>2022-06-27T10:01:16Z</time>
      </trkpt>
      <trkpt lat="42.4070820" lon="-3.2710070">
        <ele>870.2</ele>
        <time>2022-06-27T10:01:17Z</time>
      </trkpt>
      <trkpt lat="42.4070570" lon="-3.2710630">
        <ele>870.4</ele>
        <time>2022-06-27T10:01:18Z</time>
      </trkpt>
      <trkpt lat="42.4070360" lon="-3.2711090">
        <ele>870.4</ele>
        <time>2022-06-27T10:01:19Z</time>
      </trkpt>
      <trkpt lat="42.4070080" lon="-3.2711660">
        <ele>870.6</ele>
        <time>2022-06-27T10:01:20Z</time>
      </trkpt>
      <trkpt lat="42.4069790" lon="-3.2712250">
        <ele>870.6</ele>
        <time>2022-06-27T10:01:21Z</time>
      </trkpt>
      <trkpt lat="42.4069500" lon="-3.2712840">
        <ele>870.6</ele>
        <time>2022-06-27T10:01:22Z</time>
      </trkpt>
      <trkpt lat="42.4069220" lon="-3.2713430">
        <ele>870.8</ele>
        <time>2022-06-27T10:01:23Z</time>
      </trkpt>
      <trkpt lat="42.4068840" lon="-3.2714150">
        <ele>871.0</ele>
        <time>2022-06-27T10:01:24Z</time>
      </trkpt>
      <trkpt lat="42.4068570" lon="-3.2714610">
        <ele>871.2</ele>
        <time>2022-06-27T10:01:25Z</time>
      </trkpt>
      <trkpt lat="42.4068150" lon="-3.2715300">
        <ele>871.4</ele>
        <time>2022-06-27T10:01:26Z</time>
      </trkpt>
      <trkpt lat="42.4067800" lon="-3.2715920">
        <ele>871.4</ele>
        <time>2022-06-27T10:01:27Z</time>
      </trkpt>
      <trkpt lat="42.4067530" lon="-3.2716400">
        <ele>871.4</ele>
        <time>2022-06-27T10:01:28Z</time>
      </trkpt>
      <trkpt lat="42.4067180" lon="-3.2717010">
        <ele>871.6</ele>
        <time>2022-06-27T10:01:29Z</time>
      </trkpt>
      <trkpt lat="42.4066840" lon="-3.2717620">
        <ele>871.6</ele>
        <time>2022-06-27T10:01:30Z</time>
      </trkpt>
      <trkpt lat="42.4066500" lon="-3.2718230">
        <ele>871.8</ele>
        <time>2022-06-27T10:01:31Z</time>
      </trkpt>
      <trkpt lat="42.4066060" lon="-3.2719010">
        <ele>871.8</ele>
        <time>2022-06-27T10:01:32Z</time>
      </trkpt>
      <trkpt lat="42.4065710" lon="-3.2719650">
        <ele>872.0</ele>
        <time>2022-06-27T10:01:33Z</time>
      </trkpt>
      <trkpt lat="42.4065340" lon="-3.2720280">
        <ele>872.0</ele>
        <time>2022-06-27T10:01:34Z</time>
      </trkpt>
      <trkpt lat="42.4065040" lon="-3.2720780">
        <ele>872.2</ele>
        <time>2022-06-27T10:01:35Z</time>
      </trkpt>
      <trkpt lat="42.4064650" lon="-3.2721440">
        <ele>872.2</ele>
        <time>2022-06-27T10:01:36Z</time>
      </trkpt>
      <trkpt lat="42.4064170" lon="-3.2722240">
        <ele>872.2</ele>
        <time>2022-06-27T10:01:37Z</time>
      </trkpt>
      <trkpt lat="42.4063860" lon="-3.2722780">
        <ele>872.2</ele>
        <time>2022-06-27T10:01:38Z</time>
      </trkpt>
      <trkpt lat="42.4063470" lon="-3.2723470">
        <ele>872.4</ele>
        <time>2022-06-27T10:01:39Z</time>
      </trkpt>
      <trkpt lat="42.4063010" lon="-3.2724340">
        <ele>872.6</ele>
        <time>2022-06-27T10:01:40Z</time>
      </trkpt>
      <trkpt lat="42.4062720" lon="-3.2724960">
        <ele>872.6</ele>
        <time>2022-06-27T10:01:41Z</time>
      </trkpt>
      <trkpt lat="42.4062350" lon="-3.2725750">
        <ele>872.6</ele>
        <time>2022-06-27T10:01:42Z</time>
      </trkpt>
      <trkpt lat="42.4062000" lon="-3.2726560">
        <ele>872.8</ele>
        <time>2022-06-27T10:01:43Z</time>
      </trkpt>
      <trkpt lat="42.4061590" lon="-3.2727540">
        <ele>872.8</ele>
        <time>2022-06-27T10:01:44Z</time>
      </trkpt>
      <trkpt lat="42.4061270" lon="-3.2728390">
        <ele>872.8</ele>
        <time>2022-06-27T10:01:45Z</time>
      </trkpt>
      <trkpt lat="42.4061040" lon="-3.2729070">
        <ele>873.0</ele>
        <time>2022-06-27T10:01:46Z</time>
      </trkpt>
      <trkpt lat="42.4060750" lon="-3.2729920">
        <ele>872.8</ele>
        <time>2022-06-27T10:01:47Z</time>
      </trkpt>
      <trkpt lat="42.4060450" lon="-3.2730940">
        <ele>872.8</ele>
        <time>2022-06-27T10:01:48Z</time>
      </trkpt>
      <trkpt lat="42.4060260" lon="-3.2731610">
        <ele>873.0</ele>
        <time>2022-06-27T10:01:49Z</time>
      </trkpt>
      <trkpt lat="42.4060000" lon="-3.2732620">
        <ele>873.0</ele>
        <time>2022-06-27T10:01:50Z</time>
      </trkpt>
      <trkpt lat="42.4059840" lon="-3.2733280">
        <ele>873.0</ele>
        <time>2022-06-27T10:01:51Z</time>
      </trkpt>
      <trkpt lat="42.4059650" lon="-3.2734110">
        <ele>873.0</ele>
        <time>2022-06-27T10:01:52Z</time>
      </trkpt>
      <trkpt lat="42.4059450" lon="-3.2734940">
        <ele>873.2</ele>
        <time>2022-06-27T10:01:53Z</time>
      </trkpt>
      <trkpt lat="42.4059280" lon="-3.2735740">
        <ele>873.2</ele>
        <time>2022-06-27T10:01:54Z</time>
      </trkpt>
      <trkpt lat="42.4059090" lon="-3.2736700">
        <ele>873.4</ele>
        <time>2022-06-27T10:01:55Z</time>
      </trkpt>
      <trkpt lat="42.4058930" lon="-3.2737480">
        <ele>873.6</ele>
        <time>2022-06-27T10:01:56Z</time>
      </trkpt>
      <trkpt lat="42.4058800" lon="-3.2738080">
        <ele>873.8</ele>
        <time>2022-06-27T10:01:57Z</time>
      </trkpt>
      <trkpt lat="42.4058640" lon="-3.2738800">
        <ele>874.0</ele>
        <time>2022-06-27T10:01:58Z</time>
      </trkpt>
      <trkpt lat="42.4058460" lon="-3.2739640">
        <ele>874.2</ele>
        <time>2022-06-27T10:01:59Z</time>
      </trkpt>
      <trkpt lat="42.4058340" lon="-3.2740200">
        <ele>874.4</ele>
        <time>2022-06-27T10:02:00Z</time>
      </trkpt>
      <trkpt lat="42.4058200" lon="-3.2740880">
        <ele>874.6</ele>
        <time>2022-06-27T10:02:01Z</time>
      </trkpt>
      <trkpt lat="42.4058050" lon="-3.2741540">
        <ele>875.0</ele>
        <time>2022-06-27T10:02:02Z</time>
      </trkpt>
      <trkpt lat="42.4057900" lon="-3.2742220">
        <ele>875.4</ele>
        <time>2022-06-27T10:02:03Z</time>
      </trkpt>
      <trkpt lat="42.4057750" lon="-3.2742880">
        <ele>875.6</ele>
        <time>2022-06-27T10:02:04Z</time>
      </trkpt>
      <trkpt lat="42.4057590" lon="-3.2743660">
        <ele>875.8</ele>
        <time>2022-06-27T10:02:05Z</time>
      </trkpt>
      <trkpt lat="42.4057450" lon="-3.2744290">
        <ele>876.0</ele>
        <time>2022-06-27T10:02:06Z</time>
      </trkpt>
      <trkpt lat="42.4057350" lon="-3.2744780">
        <ele>876.2</ele>
        <time>2022-06-27T10:02:07Z</time>
      </trkpt>
      <trkpt lat="42.4057220" lon="-3.2745390">
        <ele>876.4</ele>
        <time>2022-06-27T10:02:08Z</time>
      </trkpt>
      <trkpt lat="42.4057080" lon="-3.2746020">
        <ele>876.8</ele>
        <time>2022-06-27T10:02:09Z</time>
      </trkpt>
      <trkpt lat="42.4056920" lon="-3.2746790">
        <ele>877.0</ele>
        <time>2022-06-27T10:02:10Z</time>
      </trkpt>
      <trkpt lat="42.4056820" lon="-3.2747290">
        <ele>877.0</ele>
        <time>2022-06-27T10:02:11Z</time>
      </trkpt>
      <trkpt lat="42.4056700" lon="-3.2747920">
        <ele>877.4</ele>
        <time>2022-06-27T10:02:12Z</time>
      </trkpt>
      <trkpt lat="42.4056570" lon="-3.2748550">
        <ele>877.4</ele>
        <time>2022-06-27T10:02:13Z</time>
      </trkpt>
      <trkpt lat="42.4056440" lon="-3.2749160">
        <ele>877.8</ele>
        <time>2022-06-27T10:02:14Z</time>
      </trkpt>
      <trkpt lat="42.4056290" lon="-3.2749870">
        <ele>878.0</ele>
        <time>2022-06-27T10:02:15Z</time>
      </trkpt>
      <trkpt lat="42.4056150" lon="-3.2750460">
        <ele>878.4</ele>
        <time>2022-06-27T10:02:16Z</time>
      </trkpt>
      <trkpt lat="42.4056020" lon="-3.2751040">
        <ele>878.6</ele>
        <time>2022-06-27T10:02:17Z</time>
      </trkpt>
      <trkpt lat="42.4055910" lon="-3.2751510">
        <ele>879.0</ele>
        <time>2022-06-27T10:02:18Z</time>
      </trkpt>
      <trkpt lat="42.4055780" lon="-3.2752090">
        <ele>879.2</ele>
        <time>2022-06-27T10:02:19Z</time>
      </trkpt>
      <trkpt lat="42.4055660" lon="-3.2752680">
        <ele>879.4</ele>
        <time>2022-06-27T10:02:20Z</time>
      </trkpt>
      <trkpt lat="42.4055520" lon="-3.2753380">
        <ele>879.6</ele>
        <time>2022-06-27T10:02:21Z</time>
      </trkpt>
      <trkpt lat="42.4055420" lon="-3.2753850">
        <ele>879.8</ele>
        <time>2022-06-27T10:02:22Z</time>
      </trkpt>
      <trkpt lat="42.4055250" lon="-3.2754550">
        <ele>880.2</ele>
        <time>2022-06-27T10:02:23Z</time>
      </trkpt>
      <trkpt lat="42.4055160" lon="-3.2754960">
        <ele>880.4</ele>
        <time>2022-06-27T10:02:24Z</time>
      </trkpt>
      <trkpt lat="42.4055030" lon="-3.2755540">
        <ele>880.8</ele>
        <time>2022-06-27T10:02:25Z</time>
      </trkpt>
      <trkpt lat="42.4054890" lon="-3.2756240">
        <ele>881.0</ele>
        <time>2022-06-27T10:02:26Z</time>
      </trkpt>
      <trkpt lat="42.4054750" lon="-3.2756830">
        <ele>881.2</ele>
        <time>2022-06-27T10:02:27Z</time>
      </trkpt>
      <trkpt lat="42.4054620" lon="-3.2757410">
        <ele>881.4</ele>
        <time>2022-06-27T10:02:28Z</time>
      </trkpt>
      <trkpt lat="42.4054520" lon="-3.2757870">
        <ele>881.6</ele>
        <time>2022-06-27T10:02:29Z</time>
      </trkpt>
      <trkpt lat="42.4054410" lon="-3.2758430">
        <ele>881.8</ele>
        <time>2022-06-27T10:02:30Z</time>
      </trkpt>
      <trkpt lat="42.4054270" lon="-3.2759010">
        <ele>882.0</ele>
        <time>2022-06-27T10:02:31Z</time>
      </trkpt>
      <trkpt lat="42.4054140" lon="-3.2759590">
        <ele>882.2</ele>
        <time>2022-06-27T10:02:32Z</time>
      </trkpt>
      <trkpt lat="42.4053980" lon="-3.2760290">
        <ele>882.4</ele>
        <time>2022-06-27T10:02:33Z</time>
      </trkpt>
      <trkpt lat="42.4053870" lon="-3.2760740">
        <ele>882.6</ele>
        <time>2022-06-27T10:02:34Z</time>
      </trkpt>
      <trkpt lat="42.4053720" lon="-3.2761310">
        <ele>882.8</ele>
        <time>2022-06-27T10:02:35Z</time>
      </trkpt>
      <trkpt lat="42.4053590" lon="-3.2761860">
        <ele>883.0</ele>
        <time>2022-06-27T10:02:36Z</time>
      </trkpt>
      <trkpt lat="42.4053450" lon="-3.2762530">
        <ele>883.2</ele>
        <time>2022-06-27T10:02:37Z</time>
      </trkpt>
      <trkpt lat="42.4053380" lon="-3.2762960">
        <ele>883.4</ele>
        <time>2022-06-27T10:02:38Z</time>
      </trkpt>
      <trkpt lat="42.4053260" lon="-3.2763530">
        <ele>884.0</ele>
        <time>2022-06-27T10:02:39Z</time>
      </trkpt>
      <trkpt lat="42.4053110" lon="-3.2764100">
        <ele>884.4</ele>
        <time>2022-06-27T10:02:40Z</time>
      </trkpt>
      <trkpt lat="42.4052990" lon="-3.2764660">
        <ele>884.8</ele>
        <time>2022-06-27T10:02:41Z</time>
      </trkpt>
      <trkpt lat="42.4052840" lon="-3.2765340">
        <ele>885.2</ele>
        <time>2022-06-27T10:02:42Z</time>
      </trkpt>
      <trkpt lat="42.4052710" lon="-3.2765910">
        <ele>885.2</ele>
        <time>2022-06-27T10:02:43Z</time>
      </trkpt>
      <trkpt lat="42.4052570" lon="-3.2766470">
        <ele>885.4</ele>
        <time>2022-06-27T10:02:44Z</time>
      </trkpt>
      <trkpt lat="42.4052460" lon="-3.2766930">
        <ele>885.4</ele>
        <time>2022-06-27T10:02:45Z</time>
      </trkpt>
      <trkpt lat="42.4052330" lon="-3.2767490">
        <ele>886.2</ele>
        <time>2022-06-27T10:02:46Z</time>
      </trkpt>
      <trkpt lat="42.4052160" lon="-3.2768190">
        <ele>886.6</ele>
        <time>2022-06-27T10:02:47Z</time>
      </trkpt>
      <trkpt lat="42.4052030" lon="-3.2768750">
        <ele>887.0</ele>
        <time>2022-06-27T10:02:48Z</time>
      </trkpt>
      <trkpt lat="42.4051860" lon="-3.2769320">
        <ele>887.2</ele>
        <time>2022-06-27T10:02:49Z</time>
      </trkpt>
      <trkpt lat="42.4051730" lon="-3.2769780">
        <ele>887.2</ele>
        <time>2022-06-27T10:02:50Z</time>
      </trkpt>
      <trkpt lat="42.4051570" lon="-3.2770350">
        <ele>887.4</ele>
        <time>2022-06-27T10:02:51Z</time>
      </trkpt>
      <trkpt lat="42.4051410" lon="-3.2770920">
        <ele>887.4</ele>
        <time>2022-06-27T10:02:52Z</time>
      </trkpt>
      <trkpt lat="42.4051250" lon="-3.2771610">
        <ele>888.0</ele>
        <time>2022-06-27T10:02:53Z</time>
      </trkpt>
      <trkpt lat="42.4051160" lon="-3.2772210">
        <ele>888.2</ele>
        <time>2022-06-27T10:02:54Z</time>
      </trkpt>
      <trkpt lat="42.4051040" lon="-3.2772810">
        <ele>888.6</ele>
        <time>2022-06-27T10:02:55Z</time>
      </trkpt>
      <trkpt lat="42.4050950" lon="-3.2773310">
        <ele>888.8</ele>
        <time>2022-06-27T10:02:56Z</time>
      </trkpt>
      <trkpt lat="42.4050830" lon="-3.2773920">
        <ele>889.0</ele>
        <time>2022-06-27T10:02:57Z</time>
      </trkpt>
      <trkpt lat="42.4050700" lon="-3.2774670">
        <ele>889.4</ele>
        <time>2022-06-27T10:02:58Z</time>
      </trkpt>
      <trkpt lat="42.4050560" lon="-3.2775310">
        <ele>889.6</ele>
        <time>2022-06-27T10:02:59Z</time>
      </trkpt>
      <trkpt lat="42.4050420" lon="-3.2775950">
        <ele>890.0</ele>
        <time>2022-06-27T10:03:00Z</time>
      </trkpt>
      <trkpt lat="42.4050330" lon="-3.2776470">
        <ele>890.0</ele>
        <time>2022-06-27T10:03:01Z</time>
      </trkpt>
      <trkpt lat="42.4050200" lon="-3.2777110">
        <ele>890.2</ele>
        <time>2022-06-27T10:03:02Z</time>
      </trkpt>
      <trkpt lat="42.4050080" lon="-3.2777730">
        <ele>890.6</ele>
        <time>2022-06-27T10:03:03Z</time>
      </trkpt>
      <trkpt lat="42.4049900" lon="-3.2778510">
        <ele>890.8</ele>
        <time>2022-06-27T10:03:04Z</time>
      </trkpt>
      <trkpt lat="42.4049730" lon="-3.2779190">
        <ele>891.2</ele>
        <time>2022-06-27T10:03:05Z</time>
      </trkpt>
      <trkpt lat="42.4049570" lon="-3.2779880">
        <ele>891.2</ele>
        <time>2022-06-27T10:03:06Z</time>
      </trkpt>
      <trkpt lat="42.4049430" lon="-3.2780450">
        <ele>891.4</ele>
        <time>2022-06-27T10:03:07Z</time>
      </trkpt>
      <trkpt lat="42.4049260" lon="-3.2781170">
        <ele>891.4</ele>
        <time>2022-06-27T10:03:08Z</time>
      </trkpt>
      <trkpt lat="42.4049080" lon="-3.2782000">
        <ele>891.6</ele>
        <time>2022-06-27T10:03:09Z</time>
      </trkpt>
      <trkpt lat="42.4048920" lon="-3.2782690">
        <ele>891.6</ele>
        <time>2022-06-27T10:03:10Z</time>
      </trkpt>
      <trkpt lat="42.4048770" lon="-3.2783380">
        <ele>891.6</ele>
        <time>2022-06-27T10:03:11Z</time>
      </trkpt>
      <trkpt lat="42.4048640" lon="-3.2783930">
        <ele>891.6</ele>
        <time>2022-06-27T10:03:12Z</time>
      </trkpt>
      <trkpt lat="42.4048480" lon="-3.2784630">
        <ele>891.8</ele>
        <time>2022-06-27T10:03:13Z</time>
      </trkpt>
      <trkpt lat="42.4048290" lon="-3.2785470">
        <ele>891.8</ele>
        <time>2022-06-27T10:03:14Z</time>
      </trkpt>
      <trkpt lat="42.4048150" lon="-3.2786150">
        <ele>891.8</ele>
        <time>2022-06-27T10:03:15Z</time>
      </trkpt>
      <trkpt lat="42.4047990" lon="-3.2786820">
        <ele>892.0</ele>
        <time>2022-06-27T10:03:16Z</time>
      </trkpt>
      <trkpt lat="42.4047880" lon="-3.2787350">
        <ele>892.2</ele>
        <time>2022-06-27T10:03:17Z</time>
      </trkpt>
      <trkpt lat="42.4047740" lon="-3.2788000">
        <ele>892.6</ele>
        <time>2022-06-27T10:03:18Z</time>
      </trkpt>
      <trkpt lat="42.4047590" lon="-3.2788620">
        <ele>892.8</ele>
        <time>2022-06-27T10:03:19Z</time>
      </trkpt>
      <trkpt lat="42.4047430" lon="-3.2789380">
        <ele>893.0</ele>
        <time>2022-06-27T10:03:20Z</time>
      </trkpt>
      <trkpt lat="42.4047290" lon="-3.2790010">
        <ele>893.2</ele>
        <time>2022-06-27T10:03:21Z</time>
      </trkpt>
      <trkpt lat="42.4047130" lon="-3.2790630">
        <ele>893.2</ele>
        <time>2022-06-27T10:03:22Z</time>
      </trkpt>
      <trkpt lat="42.4047030" lon="-3.2791100">
        <ele>893.6</ele>
        <time>2022-06-27T10:03:23Z</time>
      </trkpt>
      <trkpt lat="42.4046910" lon="-3.2791670">
        <ele>893.8</ele>
        <time>2022-06-27T10:03:24Z</time>
      </trkpt>
      <trkpt lat="42.4046750" lon="-3.2792390">
        <ele>894.0</ele>
        <time>2022-06-27T10:03:25Z</time>
      </trkpt>
      <trkpt lat="42.4046620" lon="-3.2792980">
        <ele>894.2</ele>
        <time>2022-06-27T10:03:26Z</time>
      </trkpt>
      <trkpt lat="42.4046490" lon="-3.2793550">
        <ele>894.6</ele>
        <time>2022-06-27T10:03:27Z</time>
      </trkpt>
      <trkpt lat="42.4046410" lon="-3.2793990">
        <ele>894.8</ele>
        <time>2022-06-27T10:03:28Z</time>
      </trkpt>
      <trkpt lat="42.4046290" lon="-3.2794580">
        <ele>895.0</ele>
        <time>2022-06-27T10:03:29Z</time>
      </trkpt>
      <trkpt lat="42.4046140" lon="-3.2795270">
        <ele>895.2</ele>
        <time>2022-06-27T10:03:30Z</time>
      </trkpt>
      <trkpt lat="42.4046010" lon="-3.2795830">
        <ele>895.2</ele>
        <time>2022-06-27T10:03:31Z</time>
      </trkpt>
      <trkpt lat="42.4045890" lon="-3.2796390">
        <ele>895.4</ele>
        <time>2022-06-27T10:03:32Z</time>
      </trkpt>
      <trkpt lat="42.4045760" lon="-3.2796960">
        <ele>896.0</ele>
        <time>2022-06-27T10:03:33Z</time>
      </trkpt>
      <trkpt lat="42.4045670" lon="-3.2797430">
        <ele>896.2</ele>
        <time>2022-06-27T10:03:34Z</time>
      </trkpt>
      <trkpt lat="42.4045520" lon="-3.2798020">
        <ele>896.4</ele>
        <time>2022-06-27T10:03:35Z</time>
      </trkpt>
      <trkpt lat="42.4045350" lon="-3.2798730">
        <ele>896.6</ele>
        <time>2022-06-27T10:03:36Z</time>
      </trkpt>
      <trkpt lat="42.4045230" lon="-3.2799330">
        <ele>896.8</ele>
        <time>2022-06-27T10:03:37Z</time>
      </trkpt>
      <trkpt lat="42.4045100" lon="-3.2799920">
        <ele>896.8</ele>
        <time>2022-06-27T10:03:38Z</time>
      </trkpt>
      <trkpt lat="42.4044990" lon="-3.2800390">
        <ele>897.2</ele>
        <time>2022-06-27T10:03:39Z</time>
      </trkpt>
      <trkpt lat="42.4044870" lon="-3.2800970">
        <ele>897.6</ele>
        <time>2022-06-27T10:03:40Z</time>
      </trkpt>
      <trkpt lat="42.4044720" lon="-3.2801690">
        <ele>898.0</ele>
        <time>2022-06-27T10:03:41Z</time>
      </trkpt>
      <trkpt lat="42.4044610" lon="-3.2802260">
        <ele>898.6</ele>
        <time>2022-06-27T10:03:42Z</time>
      </trkpt>
      <trkpt lat="42.4044480" lon="-3.2802840">
        <ele>898.8</ele>
        <time>2022-06-27T10:03:43Z</time>
      </trkpt>
      <trkpt lat="42.4044380" lon="-3.2803280">
        <ele>899.2</ele>
        <time>2022-06-27T10:03:44Z</time>
      </trkpt>
      <trkpt lat="42.4044250" lon="-3.2803850">
        <ele>899.4</ele>
        <time>2022-06-27T10:03:45Z</time>
      </trkpt>
      <trkpt lat="42.4044120" lon="-3.2804420">
        <ele>899.6</ele>
        <time>2022-06-27T10:03:46Z</time>
      </trkpt>
      <trkpt lat="42.4043960" lon="-3.2805090">
        <ele>899.8</ele>
        <time>2022-06-27T10:03:47Z</time>
      </trkpt>
      <trkpt lat="42.4043840" lon="-3.2805640">
        <ele>900.0</ele>
        <time>2022-06-27T10:03:48Z</time>
      </trkpt>
      <trkpt lat="42.4043710" lon="-3.2806200">
        <ele>900.2</ele>
        <time>2022-06-27T10:03:49Z</time>
      </trkpt>
      <trkpt lat="42.4043610" lon="-3.2806620">
        <ele>900.2</ele>
        <time>2022-06-27T10:03:50Z</time>
      </trkpt>
      <trkpt lat="42.4043480" lon="-3.2807170">
        <ele>900.8</ele>
        <time>2022-06-27T10:03:51Z</time>
      </trkpt>
      <trkpt lat="42.4043370" lon="-3.2807720">
        <ele>901.2</ele>
        <time>2022-06-27T10:03:52Z</time>
      </trkpt>
      <trkpt lat="42.4043240" lon="-3.2808370">
        <ele>901.6</ele>
        <time>2022-06-27T10:03:53Z</time>
      </trkpt>
      <trkpt lat="42.4043140" lon="-3.2808930">
        <ele>901.8</ele>
        <time>2022-06-27T10:03:54Z</time>
      </trkpt>
      <trkpt lat="42.4043060" lon="-3.2809370">
        <ele>902.4</ele>
        <time>2022-06-27T10:03:55Z</time>
      </trkpt>
      <trkpt lat="42.4042950" lon="-3.2809930">
        <ele>902.8</ele>
        <time>2022-06-27T10:03:56Z</time>
      </trkpt>
      <trkpt lat="42.4042800" lon="-3.2810580">
        <ele>902.8</ele>
        <time>2022-06-27T10:03:57Z</time>
      </trkpt>
      <trkpt lat="42.4042680" lon="-3.2811120">
        <ele>903.0</ele>
        <time>2022-06-27T10:03:58Z</time>
      </trkpt>
      <trkpt lat="42.4042550" lon="-3.2811660">
        <ele>903.2</ele>
        <time>2022-06-27T10:03:59Z</time>
      </trkpt>
      <trkpt lat="42.4042450" lon="-3.2812110">
        <ele>903.2</ele>
        <time>2022-06-27T10:04:00Z</time>
      </trkpt>
      <trkpt lat="42.4042330" lon="-3.2812680">
        <ele>903.4</ele>
        <time>2022-06-27T10:04:01Z</time>
      </trkpt>
      <trkpt lat="42.4042210" lon="-3.2813240">
        <ele>903.6</ele>
        <time>2022-06-27T10:04:02Z</time>
      </trkpt>
      <trkpt lat="42.4042050" lon="-3.2813970">
        <ele>903.8</ele>
        <time>2022-06-27T10:04:03Z</time>
      </trkpt>
      <trkpt lat="42.4041920" lon="-3.2814580">
        <ele>904.0</ele>
        <time>2022-06-27T10:04:04Z</time>
      </trkpt>
      <trkpt lat="42.4041790" lon="-3.2815190">
        <ele>904.4</ele>
        <time>2022-06-27T10:04:05Z</time>
      </trkpt>
      <trkpt lat="42.4041690" lon="-3.2815660">
        <ele>904.6</ele>
        <time>2022-06-27T10:04:06Z</time>
      </trkpt>
      <trkpt lat="42.4041580" lon="-3.2816240">
        <ele>904.8</ele>
        <time>2022-06-27T10:04:07Z</time>
      </trkpt>
      <trkpt lat="42.4041420" lon="-3.2816940">
        <ele>905.0</ele>
        <time>2022-06-27T10:04:08Z</time>
      </trkpt>
      <trkpt lat="42.4041290" lon="-3.2817530">
        <ele>905.2</ele>
        <time>2022-06-27T10:04:09Z</time>
      </trkpt>
      <trkpt lat="42.4041150" lon="-3.2818150">
        <ele>905.2</ele>
        <time>2022-06-27T10:04:10Z</time>
      </trkpt>
      <trkpt lat="42.4041030" lon="-3.2818660">
        <ele>905.4</ele>
        <time>2022-06-27T10:04:11Z</time>
      </trkpt>
      <trkpt lat="42.4040880" lon="-3.2819290">
        <ele>905.8</ele>
        <time>2022-06-27T10:04:12Z</time>
      </trkpt>
      <trkpt lat="42.4040700" lon="-3.2820050">
        <ele>906.0</ele>
        <time>2022-06-27T10:04:13Z</time>
      </trkpt>
      <trkpt lat="42.4040560" lon="-3.2820550">
        <ele>906.4</ele>
        <time>2022-06-27T10:04:14Z</time>
      </trkpt>
      <trkpt lat="42.4040370" lon="-3.2821210">
        <ele>906.6</ele>
        <time>2022-06-27T10:04:15Z</time>
      </trkpt>
      <trkpt lat="42.4040180" lon="-3.2821850">
        <ele>906.8</ele>
        <time>2022-06-27T10:04:16Z</time>
      </trkpt>
      <trkpt lat="42.4039980" lon="-3.2822520">
        <ele>907.0</ele>
        <time>2022-06-27T10:04:17Z</time>
      </trkpt>
      <trkpt lat="42.4039780" lon="-3.2823210">
        <ele>907.2</ele>
        <time>2022-06-27T10:04:18Z</time>
      </trkpt>
      <trkpt lat="42.4039520" lon="-3.2824070">
        <ele>907.6</ele>
        <time>2022-06-27T10:04:19Z</time>
      </trkpt>
      <trkpt lat="42.4039270" lon="-3.2824790">
        <ele>907.8</ele>
        <time>2022-06-27T10:04:20Z</time>
      </trkpt>
      <trkpt lat="42.4039020" lon="-3.2825520">
        <ele>908.0</ele>
        <time>2022-06-27T10:04:21Z</time>
      </trkpt>
      <trkpt lat="42.4038810" lon="-3.2826090">
        <ele>908.0</ele>
        <time>2022-06-27T10:04:22Z</time>
      </trkpt>
      <trkpt lat="42.4038530" lon="-3.2826800">
        <ele>908.4</ele>
        <time>2022-06-27T10:04:23Z</time>
      </trkpt>
      <trkpt lat="42.4038170" lon="-3.2827660">
        <ele>908.6</ele>
        <time>2022-06-27T10:04:24Z</time>
      </trkpt>
      <trkpt lat="42.4037860" lon="-3.2828400">
        <ele>908.8</ele>
        <time>2022-06-27T10:04:25Z</time>
      </trkpt>
      <trkpt lat="42.4037520" lon="-3.2829150">
        <ele>908.8</ele>
        <time>2022-06-27T10:04:26Z</time>
      </trkpt>
      <trkpt lat="42.4037250" lon="-3.2829740">
        <ele>908.8</ele>
        <time>2022-06-27T10:04:27Z</time>
      </trkpt>
      <trkpt lat="42.4036880" lon="-3.2830510">
        <ele>909.0</ele>
        <time>2022-06-27T10:04:28Z</time>
      </trkpt>
      <trkpt lat="42.4036410" lon="-3.2831430">
        <ele>909.0</ele>
        <time>2022-06-27T10:04:29Z</time>
      </trkpt>
      <trkpt lat="42.4035970" lon="-3.2832190">
        <ele>909.0</ele>
        <time>2022-06-27T10:04:30Z</time>
      </trkpt>
      <trkpt lat="42.4035590" lon="-3.2832810">
        <ele>909.0</ele>
        <time>2022-06-27T10:04:31Z</time>
      </trkpt>
      <trkpt lat="42.4035100" lon="-3.2833590">
        <ele>909.0</ele>
        <time>2022-06-27T10:04:32Z</time>
      </trkpt>
      <trkpt lat="42.4034570" lon="-3.2834360">
        <ele>909.0</ele>
        <time>2022-06-27T10:04:33Z</time>
      </trkpt>
      <trkpt lat="42.4034010" lon="-3.2835110">
        <ele>909.0</ele>
        <time>2022-06-27T10:04:34Z</time>
      </trkpt>
      <trkpt lat="42.4033320" lon="-3.2836020">
        <ele>908.8</ele>
        <time>2022-06-27T10:04:35Z</time>
      </trkpt>
      <trkpt lat="42.4032710" lon="-3.2836770">
        <ele>908.8</ele>
        <time>2022-06-27T10:04:36Z</time>
      </trkpt>
      <trkpt lat="42.4032080" lon="-3.2837530">
        <ele>908.8</ele>
        <time>2022-06-27T10:04:37Z</time>
      </trkpt>
      <trkpt lat="42.4031570" lon="-3.2838140">
        <ele>908.8</ele>
        <time>2022-06-27T10:04:38Z</time>
      </trkpt>
      <trkpt lat="42.4030910" lon="-3.2838930">
        <ele>908.6</ele>
        <time>2022-06-27T10:04:39Z</time>
      </trkpt>
      <trkpt lat="42.4030090" lon="-3.2839920">
        <ele>908.6</ele>
        <time>2022-06-27T10:04:40Z</time>
      </trkpt>
      <trkpt lat="42.4029380" lon="-3.2840760">
        <ele>908.4</ele>
        <time>2022-06-27T10:04:41Z</time>
      </trkpt>
      <trkpt lat="42.4028680" lon="-3.2841630">
        <ele>908.2</ele>
        <time>2022-06-27T10:04:42Z</time>
      </trkpt>
      <trkpt lat="42.4028130" lon="-3.2842350">
        <ele>908.0</ele>
        <time>2022-06-27T10:04:43Z</time>
      </trkpt>
      <trkpt lat="42.4027440" lon="-3.2843300">
        <ele>907.2</ele>
        <time>2022-06-27T10:04:44Z</time>
      </trkpt>
      <trkpt lat="42.4026770" lon="-3.2844290">
        <ele>907.0</ele>
        <time>2022-06-27T10:04:45Z</time>
      </trkpt>
      <trkpt lat="42.4025970" lon="-3.2845490">
        <ele>906.4</ele>
        <time>2022-06-27T10:04:46Z</time>
      </trkpt>
      <trkpt lat="42.4025470" lon="-3.2846320">
        <ele>906.2</ele>
        <time>2022-06-27T10:04:47Z</time>
      </trkpt>
      <trkpt lat="42.4024760" lon="-3.2847580">
        <ele>905.6</ele>
        <time>2022-06-27T10:04:48Z</time>
      </trkpt>
      <trkpt lat="42.4024320" lon="-3.2848440">
        <ele>905.4</ele>
        <time>2022-06-27T10:04:49Z</time>
      </trkpt>
      <trkpt lat="42.4023850" lon="-3.2849500">
        <ele>905.2</ele>
        <time>2022-06-27T10:04:50Z</time>
      </trkpt>
      <trkpt lat="42.4023350" lon="-3.2850820">
        <ele>905.2</ele>
        <time>2022-06-27T10:04:51Z</time>
      </trkpt>
      <trkpt lat="42.4023060" lon="-3.2851700">
        <ele>905.0</ele>
        <time>2022-06-27T10:04:52Z</time>
      </trkpt>
      <trkpt lat="42.4022640" lon="-3.2853040">
        <ele>904.8</ele>
        <time>2022-06-27T10:04:53Z</time>
      </trkpt>
      <trkpt lat="42.4022390" lon="-3.2853920">
        <ele>904.8</ele>
        <time>2022-06-27T10:04:54Z</time>
      </trkpt>
      <trkpt lat="42.4022100" lon="-3.2854990">
        <ele>904.8</ele>
        <time>2022-06-27T10:04:55Z</time>
      </trkpt>
      <trkpt lat="42.4021790" lon="-3.2856260">
        <ele>905.0</ele>
        <time>2022-06-27T10:04:56Z</time>
      </trkpt>
      <trkpt lat="42.4021590" lon="-3.2857290">
        <ele>905.0</ele>
        <time>2022-06-27T10:04:57Z</time>
      </trkpt>
      <trkpt lat="42.4021430" lon="-3.2858320">
        <ele>905.4</ele>
        <time>2022-06-27T10:04:58Z</time>
      </trkpt>
      <trkpt lat="42.4021320" lon="-3.2859140">
        <ele>905.4</ele>
        <time>2022-06-27T10:04:59Z</time>
      </trkpt>
      <trkpt lat="42.4021210" lon="-3.2860170">
        <ele>905.6</ele>
        <time>2022-06-27T10:05:00Z</time>
      </trkpt>
      <trkpt lat="42.4021110" lon="-3.2861200">
        <ele>905.6</ele>
        <time>2022-06-27T10:05:01Z</time>
      </trkpt>
      <trkpt lat="42.4020990" lon="-3.2862420">
        <ele>905.8</ele>
        <time>2022-06-27T10:05:02Z</time>
      </trkpt>
      <trkpt lat="42.4020910" lon="-3.2863440">
        <ele>905.8</ele>
        <time>2022-06-27T10:05:03Z</time>
      </trkpt>
      <trkpt lat="42.4020850" lon="-3.2864240">
        <ele>906.0</ele>
        <time>2022-06-27T10:05:04Z</time>
      </trkpt>
      <trkpt lat="42.4020770" lon="-3.2865230">
        <ele>906.4</ele>
        <time>2022-06-27T10:05:05Z</time>
      </trkpt>
      <trkpt lat="42.4020700" lon="-3.2866200">
        <ele>906.6</ele>
        <time>2022-06-27T10:05:06Z</time>
      </trkpt>
      <trkpt lat="42.4020640" lon="-3.2867320">
        <ele>907.0</ele>
        <time>2022-06-27T10:05:07Z</time>
      </trkpt>
      <trkpt lat="42.4020580" lon="-3.2868230">
        <ele>907.2</ele>
        <time>2022-06-27T10:05:08Z</time>
      </trkpt>
      <trkpt lat="42.4020520" lon="-3.2869100">
        <ele>907.4</ele>
        <time>2022-06-27T10:05:09Z</time>
      </trkpt>
      <trkpt lat="42.4020480" lon="-3.2869770">
        <ele>907.4</ele>
        <time>2022-06-27T10:05:10Z</time>
      </trkpt>
      <trkpt lat="42.4020420" lon="-3.2870580">
        <ele>907.6</ele>
        <time>2022-06-27T10:05:11Z</time>
      </trkpt>
      <trkpt lat="42.4020350" lon="-3.2871390">
        <ele>908.0</ele>
        <time>2022-06-27T10:05:12Z</time>
      </trkpt>
      <trkpt lat="42.4020300" lon="-3.2872180">
        <ele>908.2</ele>
        <time>2022-06-27T10:05:13Z</time>
      </trkpt>
      <trkpt lat="42.4020270" lon="-3.2872940">
        <ele>908.6</ele>
        <time>2022-06-27T10:05:14Z</time>
      </trkpt>
      <trkpt lat="42.4020230" lon="-3.2873670">
        <ele>908.8</ele>
        <time>2022-06-27T10:05:15Z</time>
      </trkpt>
      <trkpt lat="42.4020160" lon="-3.2874420">
        <ele>909.2</ele>
        <time>2022-06-27T10:05:16Z</time>
      </trkpt>
      <trkpt lat="42.4020100" lon="-3.2875150">
        <ele>909.4</ele>
        <time>2022-06-27T10:05:17Z</time>
      </trkpt>
      <trkpt lat="42.4020050" lon="-3.2875860">
        <ele>910.0</ele>
        <time>2022-06-27T10:05:18Z</time>
      </trkpt>
      <trkpt lat="42.4020010" lon="-3.2876550">
        <ele>910.4</ele>
        <time>2022-06-27T10:05:19Z</time>
      </trkpt>
      <trkpt lat="42.4019960" lon="-3.2877240">
        <ele>910.6</ele>
        <time>2022-06-27T10:05:20Z</time>
      </trkpt>
      <trkpt lat="42.4019920" lon="-3.2877910">
        <ele>911.2</ele>
        <time>2022-06-27T10:05:21Z</time>
      </trkpt>
      <trkpt lat="42.4019890" lon="-3.2878560">
        <ele>911.4</ele>
        <time>2022-06-27T10:05:22Z</time>
      </trkpt>
      <trkpt lat="42.4019850" lon="-3.2879220">
        <ele>912.0</ele>
        <time>2022-06-27T10:05:23Z</time>
      </trkpt>
      <trkpt lat="42.4019800" lon="-3.2879880">
        <ele>912.2</ele>
        <time>2022-06-27T10:05:24Z</time>
      </trkpt>
      <trkpt lat="42.4019760" lon="-3.2880510">
        <ele>912.4</ele>
        <time>2022-06-27T10:05:25Z</time>
      </trkpt>
      <trkpt lat="42.4019710" lon="-3.2881130">
        <ele>912.6</ele>
        <time>2022-06-27T10:05:26Z</time>
      </trkpt>
      <trkpt lat="42.4019680" lon="-3.2881750">
        <ele>912.6</ele>
        <time>2022-06-27T10:05:27Z</time>
      </trkpt>
      <trkpt lat="42.4019640" lon="-3.2882380">
        <ele>912.8</ele>
        <time>2022-06-27T10:05:28Z</time>
      </trkpt>
      <trkpt lat="42.4019600" lon="-3.2882990">
        <ele>913.0</ele>
        <time>2022-06-27T10:05:29Z</time>
      </trkpt>
      <trkpt lat="42.4019550" lon="-3.2883610">
        <ele>913.2</ele>
        <time>2022-06-27T10:05:30Z</time>
      </trkpt>
      <trkpt lat="42.4019510" lon="-3.2884230">
        <ele>913.4</ele>
        <time>2022-06-27T10:05:31Z</time>
      </trkpt>
      <trkpt lat="42.4019470" lon="-3.2884850">
        <ele>913.8</ele>
        <time>2022-06-27T10:05:32Z</time>
      </trkpt>
      <trkpt lat="42.4019450" lon="-3.2885470">
        <ele>914.2</ele>
        <time>2022-06-27T10:05:33Z</time>
      </trkpt>
      <trkpt lat="42.4019410" lon="-3.2886080">
        <ele>914.2</ele>
        <time>2022-06-27T10:05:34Z</time>
      </trkpt>
      <trkpt lat="42.4019360" lon="-3.2886700">
        <ele>914.6</ele>
        <time>2022-06-27T10:05:35Z</time>
      </trkpt>
      <trkpt lat="42.4019320" lon="-3.2887300">
        <ele>914.8</ele>
        <time>2022-06-27T10:05:36Z</time>
      </trkpt>
      <trkpt lat="42.4019280" lon="-3.2887910">
        <ele>915.0</ele>
        <time>2022-06-27T10:05:37Z</time>
      </trkpt>
      <trkpt lat="42.4019250" lon="-3.2888490">
        <ele>915.2</ele>
        <time>2022-06-27T10:05:38Z</time>
      </trkpt>
      <trkpt lat="42.4019180" lon="-3.2889100">
        <ele>915.4</ele>
        <time>2022-06-27T10:05:39Z</time>
      </trkpt>
      <trkpt lat="42.4019090" lon="-3.2889730">
        <ele>915.6</ele>
        <time>2022-06-27T10:05:40Z</time>
      </trkpt>
      <trkpt lat="42.4019020" lon="-3.2890360">
        <ele>916.0</ele>
        <time>2022-06-27T10:05:41Z</time>
      </trkpt>
      <trkpt lat="42.4018970" lon="-3.2890980">
        <ele>916.2</ele>
        <time>2022-06-27T10:05:42Z</time>
      </trkpt>
      <trkpt lat="42.4018900" lon="-3.2891610">
        <ele>916.4</ele>
        <time>2022-06-27T10:05:43Z</time>
      </trkpt>
      <trkpt lat="42.4018830" lon="-3.2892250">
        <ele>916.8</ele>
        <time>2022-06-27T10:05:44Z</time>
      </trkpt>
      <trkpt lat="42.4018770" lon="-3.2892870">
        <ele>917.0</ele>
        <time>2022-06-27T10:05:45Z</time>
      </trkpt>
      <trkpt lat="42.4018710" lon="-3.2893500">
        <ele>917.0</ele>
        <time>2022-06-27T10:05:46Z</time>
      </trkpt>
      <trkpt lat="42.4018640" lon="-3.2894150">
        <ele>917.2</ele>
        <time>2022-06-27T10:05:47Z</time>
      </trkpt>
      <trkpt lat="42.4018580" lon="-3.2894810">
        <ele>917.6</ele>
        <time>2022-06-27T10:05:48Z</time>
      </trkpt>
      <trkpt lat="42.4018530" lon="-3.2895450">
        <ele>918.0</ele>
        <time>2022-06-27T10:05:49Z</time>
      </trkpt>
      <trkpt lat="42.4018490" lon="-3.2896070">
        <ele>918.2</ele>
        <time>2022-06-27T10:05:50Z</time>
      </trkpt>
      <trkpt lat="42.4018460" lon="-3.2896700">
        <ele>918.6</ele>
        <time>2022-06-27T10:05:51Z</time>
      </trkpt>
      <trkpt lat="42.4018400" lon="-3.2897440">
        <ele>918.8</ele>
        <time>2022-06-27T10:05:52Z</time>
      </trkpt>
      <trkpt lat="42.4018360" lon="-3.2897930">
        <ele>919.2</ele>
        <time>2022-06-27T10:05:53Z</time>
      </trkpt>
      <trkpt lat="42.4018300" lon="-3.2898550">
        <ele>919.4</ele>
        <time>2022-06-27T10:05:54Z</time>
      </trkpt>
      <trkpt lat="42.4018250" lon="-3.2899180">
        <ele>919.8</ele>
        <time>2022-06-27T10:05:55Z</time>
      </trkpt>
      <trkpt lat="42.4018200" lon="-3.2899920">
        <ele>920.2</ele>
        <time>2022-06-27T10:05:56Z</time>
      </trkpt>
      <trkpt lat="42.4018140" lon="-3.2900500">
        <ele>920.4</ele>
        <time>2022-06-27T10:05:57Z</time>
      </trkpt>
      <trkpt lat="42.4018100" lon="-3.2900970">
        <ele>920.8</ele>
        <time>2022-06-27T10:05:58Z</time>
      </trkpt>
      <trkpt lat="42.4018040" lon="-3.2901580">
        <ele>921.0</ele>
        <time>2022-06-27T10:05:59Z</time>
      </trkpt>
      <trkpt lat="42.4017990" lon="-3.2902180">
        <ele>921.2</ele>
        <time>2022-06-27T10:06:00Z</time>
      </trkpt>
      <trkpt lat="42.4017930" lon="-3.2902750">
        <ele>921.4</ele>
        <time>2022-06-27T10:06:01Z</time>
      </trkpt>
      <trkpt lat="42.4017870" lon="-3.2903360">
        <ele>921.6</ele>
        <time>2022-06-27T10:06:02Z</time>
      </trkpt>
      <trkpt lat="42.4017820" lon="-3.2904110">
        <ele>921.8</ele>
        <time>2022-06-27T10:06:03Z</time>
      </trkpt>
      <trkpt lat="42.4017760" lon="-3.2904600">
        <ele>922.2</ele>
        <time>2022-06-27T10:06:04Z</time>
      </trkpt>
      <trkpt lat="42.4017700" lon="-3.2905230">
        <ele>922.4</ele>
        <time>2022-06-27T10:06:05Z</time>
      </trkpt>
      <trkpt lat="42.4017640" lon="-3.2905820">
        <ele>922.6</ele>
        <time>2022-06-27T10:06:06Z</time>
      </trkpt>
      <trkpt lat="42.4017560" lon="-3.2906430">
        <ele>922.8</ele>
        <time>2022-06-27T10:06:07Z</time>
      </trkpt>
      <trkpt lat="42.4017480" lon="-3.2907030">
        <ele>922.8</ele>
        <time>2022-06-27T10:06:08Z</time>
      </trkpt>
      <trkpt lat="42.4017400" lon="-3.2907650">
        <ele>923.2</ele>
        <time>2022-06-27T10:06:09Z</time>
      </trkpt>
      <trkpt lat="42.4017330" lon="-3.2908280">
        <ele>923.6</ele>
        <time>2022-06-27T10:06:10Z</time>
      </trkpt>
      <trkpt lat="42.4017260" lon="-3.2908910">
        <ele>923.8</ele>
        <time>2022-06-27T10:06:11Z</time>
      </trkpt>
      <trkpt lat="42.4017200" lon="-3.2909540">
        <ele>924.0</ele>
        <time>2022-06-27T10:06:12Z</time>
      </trkpt>
      <trkpt lat="42.4017130" lon="-3.2910170">
        <ele>924.2</ele>
        <time>2022-06-27T10:06:13Z</time>
      </trkpt>
      <trkpt lat="42.4017100" lon="-3.2910760">
        <ele>924.6</ele>
        <time>2022-06-27T10:06:14Z</time>
      </trkpt>
      <trkpt lat="42.4017030" lon="-3.2911360">
        <ele>924.6</ele>
        <time>2022-06-27T10:06:15Z</time>
      </trkpt>
      <trkpt lat="42.4016940" lon="-3.2911930">
        <ele>924.8</ele>
        <time>2022-06-27T10:06:16Z</time>
      </trkpt>
      <trkpt lat="42.4016890" lon="-3.2912470">
        <ele>924.8</ele>
        <time>2022-06-27T10:06:17Z</time>
      </trkpt>
      <trkpt lat="42.4016820" lon="-3.2913160">
        <ele>925.2</ele>
        <time>2022-06-27T10:06:18Z</time>
      </trkpt>
      <trkpt lat="42.4016770" lon="-3.2913650">
        <ele>925.8</ele>
        <time>2022-06-27T10:06:19Z</time>
      </trkpt>
      <trkpt lat="42.4016690" lon="-3.2914260">
        <ele>926.0</ele>
        <time>2022-06-27T10:06:20Z</time>
      </trkpt>
      <trkpt lat="42.4016600" lon="-3.2914850">
        <ele>926.4</ele>
        <time>2022-06-27T10:06:21Z</time>
      </trkpt>
      <trkpt lat="42.4016520" lon="-3.2915460">
        <ele>926.4</ele>
        <time>2022-06-27T10:06:22Z</time>
      </trkpt>
      <trkpt lat="42.4016450" lon="-3.2916060">
        <ele>926.8</ele>
        <time>2022-06-27T10:06:23Z</time>
      </trkpt>
      <trkpt lat="42.4016350" lon="-3.2916780">
        <ele>927.0</ele>
        <time>2022-06-27T10:06:24Z</time>
      </trkpt>
      <trkpt lat="42.4016310" lon="-3.2917250">
        <ele>927.2</ele>
        <time>2022-06-27T10:06:25Z</time>
      </trkpt>
      <trkpt lat="42.4016260" lon="-3.2917820">
        <ele>927.4</ele>
        <time>2022-06-27T10:06:26Z</time>
      </trkpt>
      <trkpt lat="42.4016190" lon="-3.2918400">
        <ele>927.4</ele>
        <time>2022-06-27T10:06:27Z</time>
      </trkpt>
      <trkpt lat="42.4016120" lon="-3.2918980">
        <ele>927.6</ele>
        <time>2022-06-27T10:06:28Z</time>
      </trkpt>
      <trkpt lat="42.4016050" lon="-3.2919540">
        <ele>927.8</ele>
        <time>2022-06-27T10:06:29Z</time>
      </trkpt>
      <trkpt lat="42.4015970" lon="-3.2920130">
        <ele>928.2</ele>
        <time>2022-06-27T10:06:30Z</time>
      </trkpt>
      <trkpt lat="42.4015880" lon="-3.2920720">
        <ele>928.4</ele>
        <time>2022-06-27T10:06:31Z</time>
      </trkpt>
      <trkpt lat="42.4015780" lon="-3.2921330">
        <ele>928.8</ele>
        <time>2022-06-27T10:06:32Z</time>
      </trkpt>
      <trkpt lat="42.4015630" lon="-3.2922060">
        <ele>929.0</ele>
        <time>2022-06-27T10:06:33Z</time>
      </trkpt>
      <trkpt lat="42.4015540" lon="-3.2922530">
        <ele>929.2</ele>
        <time>2022-06-27T10:06:34Z</time>
      </trkpt>
      <trkpt lat="42.4015420" lon="-3.2923130">
        <ele>929.4</ele>
        <time>2022-06-27T10:06:35Z</time>
      </trkpt>
      <trkpt lat="42.4015320" lon="-3.2923750">
        <ele>929.4</ele>
        <time>2022-06-27T10:06:36Z</time>
      </trkpt>
      <trkpt lat="42.4015200" lon="-3.2924400">
        <ele>929.6</ele>
        <time>2022-06-27T10:06:37Z</time>
      </trkpt>
      <trkpt lat="42.4015070" lon="-3.2925080">
        <ele>929.8</ele>
        <time>2022-06-27T10:06:38Z</time>
      </trkpt>
      <trkpt lat="42.4014960" lon="-3.2925760">
        <ele>930.0</ele>
        <time>2022-06-27T10:06:39Z</time>
      </trkpt>
      <trkpt lat="42.4014840" lon="-3.2926440">
        <ele>930.2</ele>
        <time>2022-06-27T10:06:40Z</time>
      </trkpt>
      <trkpt lat="42.4014690" lon="-3.2927160">
        <ele>930.4</ele>
        <time>2022-06-27T10:06:41Z</time>
      </trkpt>
      <trkpt lat="42.4014520" lon="-3.2927900">
        <ele>930.6</ele>
        <time>2022-06-27T10:06:42Z</time>
      </trkpt>
      <trkpt lat="42.4014340" lon="-3.2928670">
        <ele>930.8</ele>
        <time>2022-06-27T10:06:43Z</time>
      </trkpt>
      <trkpt lat="42.4014150" lon="-3.2929570">
        <ele>930.8</ele>
        <time>2022-06-27T10:06:44Z</time>
      </trkpt>
      <trkpt lat="42.4014010" lon="-3.2930170">
        <ele>930.8</ele>
        <time>2022-06-27T10:06:45Z</time>
      </trkpt>
      <trkpt lat="42.4013860" lon="-3.2930890">
        <ele>931.0</ele>
        <time>2022-06-27T10:06:46Z</time>
      </trkpt>
      <trkpt lat="42.4013700" lon="-3.2931630">
        <ele>931.2</ele>
        <time>2022-06-27T10:06:47Z</time>
      </trkpt>
      <trkpt lat="42.4013530" lon="-3.2932360">
        <ele>931.2</ele>
        <time>2022-06-27T10:06:48Z</time>
      </trkpt>
      <trkpt lat="42.4013360" lon="-3.2933080">
        <ele>931.4</ele>
        <time>2022-06-27T10:06:49Z</time>
      </trkpt>
      <trkpt lat="42.4013180" lon="-3.2933810">
        <ele>931.6</ele>
        <time>2022-06-27T10:06:50Z</time>
      </trkpt>
      <trkpt lat="42.4012990" lon="-3.2934720">
        <ele>931.6</ele>
        <time>2022-06-27T10:06:51Z</time>
      </trkpt>
      <trkpt lat="42.4012850" lon="-3.2935350">
        <ele>931.6</ele>
        <time>2022-06-27T10:06:52Z</time>
      </trkpt>
      <trkpt lat="42.4012680" lon="-3.2936130">
        <ele>931.8</ele>
        <time>2022-06-27T10:06:53Z</time>
      </trkpt>
      <trkpt lat="42.4012520" lon="-3.2936880">
        <ele>932.0</ele>
        <time>2022-06-27T10:06:54Z</time>
      </trkpt>
      <trkpt lat="42.4012370" lon="-3.2937640">
        <ele>932.0</ele>
        <time>2022-06-27T10:06:55Z</time>
      </trkpt>
      <trkpt lat="42.4012200" lon="-3.2938420">
        <ele>932.2</ele>
        <time>2022-06-27T10:06:56Z</time>
      </trkpt>
      <trkpt lat="42.4012010" lon="-3.2939330">
        <ele>932.4</ele>
        <time>2022-06-27T10:06:57Z</time>
      </trkpt>
      <trkpt lat="42.4011890" lon="-3.2939950">
        <ele>932.4</ele>
        <time>2022-06-27T10:06:58Z</time>
      </trkpt>
      <trkpt lat="42.4011730" lon="-3.2940730">
        <ele>932.4</ele>
        <time>2022-06-27T10:06:59Z</time>
      </trkpt>
      <trkpt lat="42.4011570" lon="-3.2941490">
        <ele>932.6</ele>
        <time>2022-06-27T10:07:00Z</time>
      </trkpt>
      <trkpt lat="42.4011400" lon="-3.2942260">
        <ele>932.6</ele>
        <time>2022-06-27T10:07:01Z</time>
      </trkpt>
      <trkpt lat="42.4011220" lon="-3.2943180">
        <ele>932.6</ele>
        <time>2022-06-27T10:07:02Z</time>
      </trkpt>
      <trkpt lat="42.4011090" lon="-3.2943800">
        <ele>932.6</ele>
        <time>2022-06-27T10:07:03Z</time>
      </trkpt>
      <trkpt lat="42.4010920" lon="-3.2944590">
        <ele>932.8</ele>
        <time>2022-06-27T10:07:04Z</time>
      </trkpt>
      <trkpt lat="42.4010760" lon="-3.2945360">
        <ele>933.0</ele>
        <time>2022-06-27T10:07:05Z</time>
      </trkpt>
      <trkpt lat="42.4010610" lon="-3.2946150">
        <ele>933.2</ele>
        <time>2022-06-27T10:07:06Z</time>
      </trkpt>
      <trkpt lat="42.4010450" lon="-3.2946950">
        <ele>933.2</ele>
        <time>2022-06-27T10:07:07Z</time>
      </trkpt>
      <trkpt lat="42.4010290" lon="-3.2947740">
        <ele>933.4</ele>
        <time>2022-06-27T10:07:08Z</time>
      </trkpt>
      <trkpt lat="42.4010120" lon="-3.2948510">
        <ele>933.6</ele>
        <time>2022-06-27T10:07:09Z</time>
      </trkpt>
      <trkpt lat="42.4009960" lon="-3.2949280">
        <ele>933.6</ele>
        <time>2022-06-27T10:07:10Z</time>
      </trkpt>
      <trkpt lat="42.4009810" lon="-3.2950010">
        <ele>933.8</ele>
        <time>2022-06-27T10:07:11Z</time>
      </trkpt>
      <trkpt lat="42.4009660" lon="-3.2950730">
        <ele>934.0</ele>
        <time>2022-06-27T10:07:12Z</time>
      </trkpt>
      <trkpt lat="42.4009510" lon="-3.2951440">
        <ele>934.0</ele>
        <time>2022-06-27T10:07:13Z</time>
      </trkpt>
      <trkpt lat="42.4009380" lon="-3.2952120">
        <ele>934.2</ele>
        <time>2022-06-27T10:07:14Z</time>
      </trkpt>
      <trkpt lat="42.4009250" lon="-3.2952800">
        <ele>934.2</ele>
        <time>2022-06-27T10:07:15Z</time>
      </trkpt>
      <trkpt lat="42.4009120" lon="-3.2953430">
        <ele>934.4</ele>
        <time>2022-06-27T10:07:16Z</time>
      </trkpt>
      <trkpt lat="42.4008990" lon="-3.2954060">
        <ele>934.4</ele>
        <time>2022-06-27T10:07:17Z</time>
      </trkpt>
      <trkpt lat="42.4008870" lon="-3.2954690">
        <ele>934.8</ele>
        <time>2022-06-27T10:07:18Z</time>
      </trkpt>
      <trkpt lat="42.4008740" lon="-3.2955290">
        <ele>935.2</ele>
        <time>2022-06-27T10:07:19Z</time>
      </trkpt>
      <trkpt lat="42.4008610" lon="-3.2955900">
        <ele>935.4</ele>
        <time>2022-06-27T10:07:20Z</time>
      </trkpt>
      <trkpt lat="42.4008480" lon="-3.2956510">
        <ele>935.8</ele>
        <time>2022-06-27T10:07:21Z</time>
      </trkpt>
      <trkpt lat="42.4008320" lon="-3.2957250">
        <ele>936.0</ele>
        <time>2022-06-27T10:07:22Z</time>
      </trkpt>
      <trkpt lat="42.4008210" lon="-3.2957840">
        <ele>936.6</ele>
        <time>2022-06-27T10:07:23Z</time>
      </trkpt>
      <trkpt lat="42.4008130" lon="-3.2958290">
        <ele>936.8</ele>
        <time>2022-06-27T10:07:24Z</time>
      </trkpt>
      <trkpt lat="42.4008020" lon="-3.2958870">
        <ele>937.2</ele>
        <time>2022-06-27T10:07:25Z</time>
      </trkpt>
      <trkpt lat="42.4007860" lon="-3.2959550">
        <ele>937.6</ele>
        <time>2022-06-27T10:07:26Z</time>
      </trkpt>
      <trkpt lat="42.4007750" lon="-3.2960020">
        <ele>938.0</ele>
        <time>2022-06-27T10:07:27Z</time>
      </trkpt>
      <trkpt lat="42.4007630" lon="-3.2960610">
        <ele>938.2</ele>
        <time>2022-06-27T10:07:28Z</time>
      </trkpt>
      <trkpt lat="42.4007490" lon="-3.2961230">
        <ele>938.4</ele>
        <time>2022-06-27T10:07:29Z</time>
      </trkpt>
      <trkpt lat="42.4007360" lon="-3.2961840">
        <ele>939.0</ele>
        <time>2022-06-27T10:07:30Z</time>
      </trkpt>
      <trkpt lat="42.4007220" lon="-3.2962560">
        <ele>939.2</ele>
        <time>2022-06-27T10:07:31Z</time>
      </trkpt>
      <trkpt lat="42.4007120" lon="-3.2963030">
        <ele>939.4</ele>
        <time>2022-06-27T10:07:32Z</time>
      </trkpt>
      <trkpt lat="42.4007000" lon="-3.2963600">
        <ele>939.6</ele>
        <time>2022-06-27T10:07:33Z</time>
      </trkpt>
      <trkpt lat="42.4006890" lon="-3.2964170">
        <ele>940.0</ele>
        <time>2022-06-27T10:07:34Z</time>
      </trkpt>
      <trkpt lat="42.4006760" lon="-3.2964750">
        <ele>940.2</ele>
        <time>2022-06-27T10:07:35Z</time>
      </trkpt>
      <trkpt lat="42.4006640" lon="-3.2965350">
        <ele>940.2</ele>
        <time>2022-06-27T10:07:36Z</time>
      </trkpt>
      <trkpt lat="42.4006510" lon="-3.2966050">
        <ele>940.6</ele>
        <time>2022-06-27T10:07:37Z</time>
      </trkpt>
      <trkpt lat="42.4006410" lon="-3.2966520">
        <ele>940.6</ele>
        <time>2022-06-27T10:07:38Z</time>
      </trkpt>
      <trkpt lat="42.4006270" lon="-3.2967120">
        <ele>941.0</ele>
        <time>2022-06-27T10:07:39Z</time>
      </trkpt>
      <trkpt lat="42.4006130" lon="-3.2967700">
        <ele>941.2</ele>
        <time>2022-06-27T10:07:40Z</time>
      </trkpt>
      <trkpt lat="42.4005980" lon="-3.2968300">
        <ele>941.6</ele>
        <time>2022-06-27T10:07:41Z</time>
      </trkpt>
      <trkpt lat="42.4005840" lon="-3.2968910">
        <ele>942.0</ele>
        <time>2022-06-27T10:07:42Z</time>
      </trkpt>
      <trkpt lat="42.4005710" lon="-3.2969510">
        <ele>942.0</ele>
        <time>2022-06-27T10:07:43Z</time>
      </trkpt>
      <trkpt lat="42.4005540" lon="-3.2970260">
        <ele>942.4</ele>
        <time>2022-06-27T10:07:44Z</time>
      </trkpt>
      <trkpt lat="42.4005440" lon="-3.2970760">
        <ele>942.6</ele>
        <time>2022-06-27T10:07:45Z</time>
      </trkpt>
      <trkpt lat="42.4005310" lon="-3.2971390">
        <ele>942.8</ele>
        <time>2022-06-27T10:07:46Z</time>
      </trkpt>
      <trkpt lat="42.4005170" lon="-3.2972010">
        <ele>943.0</ele>
        <time>2022-06-27T10:07:47Z</time>
      </trkpt>
      <trkpt lat="42.4005030" lon="-3.2972630">
        <ele>943.4</ele>
        <time>2022-06-27T10:07:48Z</time>
      </trkpt>
      <trkpt lat="42.4004880" lon="-3.2973240">
        <ele>943.8</ele>
        <time>2022-06-27T10:07:49Z</time>
      </trkpt>
      <trkpt lat="42.4004720" lon="-3.2973880">
        <ele>944.0</ele>
        <time>2022-06-27T10:07:50Z</time>
      </trkpt>
      <trkpt lat="42.4004550" lon="-3.2974520">
        <ele>944.2</ele>
        <time>2022-06-27T10:07:51Z</time>
      </trkpt>
      <trkpt lat="42.4004380" lon="-3.2975170">
        <ele>944.2</ele>
        <time>2022-06-27T10:07:52Z</time>
      </trkpt>
      <trkpt lat="42.4004200" lon="-3.2975830">
        <ele>944.4</ele>
        <time>2022-06-27T10:07:53Z</time>
      </trkpt>
      <trkpt lat="42.4004010" lon="-3.2976480">
        <ele>944.6</ele>
        <time>2022-06-27T10:07:54Z</time>
      </trkpt>
      <trkpt lat="42.4003800" lon="-3.2977130">
        <ele>945.0</ele>
        <time>2022-06-27T10:07:55Z</time>
      </trkpt>
      <trkpt lat="42.4003560" lon="-3.2977810">
        <ele>945.0</ele>
        <time>2022-06-27T10:07:56Z</time>
      </trkpt>
      <trkpt lat="42.4003330" lon="-3.2978490">
        <ele>945.2</ele>
        <time>2022-06-27T10:07:57Z</time>
      </trkpt>
      <trkpt lat="42.4003090" lon="-3.2979170">
        <ele>945.4</ele>
        <time>2022-06-27T10:07:58Z</time>
      </trkpt>
      <trkpt lat="42.4002830" lon="-3.2979850">
        <ele>945.4</ele>
        <time>2022-06-27T10:07:59Z</time>
      </trkpt>
      <trkpt lat="42.4002530" lon="-3.2980540">
        <ele>945.4</ele>
        <time>2022-06-27T10:08:00Z</time>
      </trkpt>
      <trkpt lat="42.4002210" lon="-3.2981250">
        <ele>945.6</ele>
        <time>2022-06-27T10:08:01Z</time>
      </trkpt>
      <trkpt lat="42.4001880" lon="-3.2981960">
        <ele>945.6</ele>
        <time>2022-06-27T10:08:02Z</time>
      </trkpt>
      <trkpt lat="42.4001510" lon="-3.2982660">
        <ele>945.6</ele>
        <time>2022-06-27T10:08:03Z</time>
      </trkpt>
      <trkpt lat="42.4001130" lon="-3.2983370">
        <ele>945.6</ele>
        <time>2022-06-27T10:08:04Z</time>
      </trkpt>
      <trkpt lat="42.4000740" lon="-3.2984080">
        <ele>945.8</ele>
        <time>2022-06-27T10:08:05Z</time>
      </trkpt>
      <trkpt lat="42.4000300" lon="-3.2984830">
        <ele>945.8</ele>
        <time>2022-06-27T10:08:06Z</time>
      </trkpt>
      <trkpt lat="42.3999850" lon="-3.2985570">
        <ele>945.8</ele>
        <time>2022-06-27T10:08:07Z</time>
      </trkpt>
      <trkpt lat="42.3999370" lon="-3.2986310">
        <ele>945.8</ele>
        <time>2022-06-27T10:08:08Z</time>
      </trkpt>
      <trkpt lat="42.3998830" lon="-3.2987060">
        <ele>945.8</ele>
        <time>2022-06-27T10:08:09Z</time>
      </trkpt>
      <trkpt lat="42.3998240" lon="-3.2987830">
        <ele>945.8</ele>
        <time>2022-06-27T10:08:10Z</time>
      </trkpt>
      <trkpt lat="42.3997620" lon="-3.2988600">
        <ele>945.8</ele>
        <time>2022-06-27T10:08:11Z</time>
      </trkpt>
      <trkpt lat="42.3996970" lon="-3.2989350">
        <ele>945.8</ele>
        <time>2022-06-27T10:08:12Z</time>
      </trkpt>
      <trkpt lat="42.3996280" lon="-3.2990040">
        <ele>945.8</ele>
        <time>2022-06-27T10:08:13Z</time>
      </trkpt>
      <trkpt lat="42.3995540" lon="-3.2990710">
        <ele>945.4</ele>
        <time>2022-06-27T10:08:14Z</time>
      </trkpt>
      <trkpt lat="42.3994780" lon="-3.2991390">
        <ele>945.2</ele>
        <time>2022-06-27T10:08:15Z</time>
      </trkpt>
      <trkpt lat="42.3994010" lon="-3.2992050">
        <ele>944.8</ele>
        <time>2022-06-27T10:08:16Z</time>
      </trkpt>
      <trkpt lat="42.3993200" lon="-3.2992710">
        <ele>944.6</ele>
        <time>2022-06-27T10:08:17Z</time>
      </trkpt>
      <trkpt lat="42.3992380" lon="-3.2993380">
        <ele>944.2</ele>
        <time>2022-06-27T10:08:18Z</time>
      </trkpt>
      <trkpt lat="42.3991520" lon="-3.2994100">
        <ele>944.0</ele>
        <time>2022-06-27T10:08:19Z</time>
      </trkpt>
      <trkpt lat="42.3990650" lon="-3.2994820">
        <ele>943.8</ele>
        <time>2022-06-27T10:08:20Z</time>
      </trkpt>
      <trkpt lat="42.3989740" lon="-3.2995570">
        <ele>943.2</ele>
        <time>2022-06-27T10:08:21Z</time>
      </trkpt>
      <trkpt lat="42.3988820" lon="-3.2996340">
        <ele>943.0</ele>
        <time>2022-06-27T10:08:22Z</time>
      </trkpt>
      <trkpt lat="42.3987890" lon="-3.2997120">
        <ele>942.6</ele>
        <time>2022-06-27T10:08:23Z</time>
      </trkpt>
      <trkpt lat="42.3986950" lon="-3.2997910">
        <ele>942.2</ele>
        <time>2022-06-27T10:08:24Z</time>
      </trkpt>
      <trkpt lat="42.3986010" lon="-3.2998690">
        <ele>941.4</ele>
        <time>2022-06-27T10:08:25Z</time>
      </trkpt>
      <trkpt lat="42.3985050" lon="-3.2999500">
        <ele>941.0</ele>
        <time>2022-06-27T10:08:26Z</time>
      </trkpt>
      <trkpt lat="42.3983890" lon="-3.3000500">
        <ele>940.4</ele>
        <time>2022-06-27T10:08:27Z</time>
      </trkpt>
      <trkpt lat="42.3983100" lon="-3.3001140">
        <ele>939.8</ele>
        <time>2022-06-27T10:08:28Z</time>
      </trkpt>
      <trkpt lat="42.3982110" lon="-3.3002000">
        <ele>939.6</ele>
        <time>2022-06-27T10:08:29Z</time>
      </trkpt>
      <trkpt lat="42.3981110" lon="-3.3002820">
        <ele>939.2</ele>
        <time>2022-06-27T10:08:30Z</time>
      </trkpt>
      <trkpt lat="42.3980110" lon="-3.3003630">
        <ele>938.6</ele>
        <time>2022-06-27T10:08:31Z</time>
      </trkpt>
      <trkpt lat="42.3979130" lon="-3.3004450">
        <ele>938.0</ele>
        <time>2022-06-27T10:08:32Z</time>
      </trkpt>
      <trkpt lat="42.3978150" lon="-3.3005290">
        <ele>937.8</ele>
        <time>2022-06-27T10:08:33Z</time>
      </trkpt>
      <trkpt lat="42.3977180" lon="-3.3006100">
        <ele>937.4</ele>
        <time>2022-06-27T10:08:34Z</time>
      </trkpt>
      <trkpt lat="42.3976220" lon="-3.3006910">
        <ele>936.8</ele>
        <time>2022-06-27T10:08:35Z</time>
      </trkpt>
      <trkpt lat="42.3975290" lon="-3.3007710">
        <ele>936.6</ele>
        <time>2022-06-27T10:08:36Z</time>
      </trkpt>
      <trkpt lat="42.3974380" lon="-3.3008470">
        <ele>936.2</ele>
        <time>2022-06-27T10:08:37Z</time>
      </trkpt>
      <trkpt lat="42.3973300" lon="-3.3009380">
        <ele>935.8</ele>
        <time>2022-06-27T10:08:38Z</time>
      </trkpt>
      <trkpt lat="42.3972590" lon="-3.3009970">
        <ele>935.4</ele>
        <time>2022-06-27T10:08:39Z</time>
      </trkpt>
      <trkpt lat="42.3971710" lon="-3.3010700">
        <ele>935.2</ele>
        <time>2022-06-27T10:08:40Z</time>
      </trkpt>
      <trkpt lat="42.3970840" lon="-3.3011450">
        <ele>935.2</ele>
        <time>2022-06-27T10:08:41Z</time>
      </trkpt>
      <trkpt lat="42.3969980" lon="-3.3012190">
        <ele>935.0</ele>
        <time>2022-06-27T10:08:42Z</time>
      </trkpt>
      <trkpt lat="42.3969140" lon="-3.3012920">
        <ele>935.0</ele>
        <time>2022-06-27T10:08:43Z</time>
      </trkpt>
      <trkpt lat="42.3968310" lon="-3.3013620">
        <ele>935.0</ele>
        <time>2022-06-27T10:08:44Z</time>
      </trkpt>
      <trkpt lat="42.3967500" lon="-3.3014300">
        <ele>935.0</ele>
        <time>2022-06-27T10:08:45Z</time>
      </trkpt>
      <trkpt lat="42.3966670" lon="-3.3015000">
        <ele>935.0</ele>
        <time>2022-06-27T10:08:46Z</time>
      </trkpt>
      <trkpt lat="42.3965850" lon="-3.3015680">
        <ele>935.0</ele>
        <time>2022-06-27T10:08:47Z</time>
      </trkpt>
      <trkpt lat="42.3964880" lon="-3.3016490">
        <ele>935.2</ele>
        <time>2022-06-27T10:08:48Z</time>
      </trkpt>
      <trkpt lat="42.3964240" lon="-3.3017030">
        <ele>935.2</ele>
        <time>2022-06-27T10:08:49Z</time>
      </trkpt>
      <trkpt lat="42.3963460" lon="-3.3017690">
        <ele>935.2</ele>
        <time>2022-06-27T10:08:50Z</time>
      </trkpt>
      <trkpt lat="42.3962680" lon="-3.3018350">
        <ele>935.4</ele>
        <time>2022-06-27T10:08:51Z</time>
      </trkpt>
      <trkpt lat="42.3961770" lon="-3.3019130">
        <ele>935.4</ele>
        <time>2022-06-27T10:08:52Z</time>
      </trkpt>
      <trkpt lat="42.3961170" lon="-3.3019620">
        <ele>935.4</ele>
        <time>2022-06-27T10:08:53Z</time>
      </trkpt>
      <trkpt lat="42.3960430" lon="-3.3020230">
        <ele>935.4</ele>
        <time>2022-06-27T10:08:54Z</time>
      </trkpt>
      <trkpt lat="42.3959720" lon="-3.3020810">
        <ele>935.4</ele>
        <time>2022-06-27T10:08:55Z</time>
      </trkpt>
      <trkpt lat="42.3958860" lon="-3.3021510">
        <ele>935.4</ele>
        <time>2022-06-27T10:08:56Z</time>
      </trkpt>
      <trkpt lat="42.3958270" lon="-3.3021980">
        <ele>935.4</ele>
        <time>2022-06-27T10:08:57Z</time>
      </trkpt>
      <trkpt lat="42.3957560" lon="-3.3022570">
        <ele>935.4</ele>
        <time>2022-06-27T10:08:58Z</time>
      </trkpt>
      <trkpt lat="42.3956860" lon="-3.3023160">
        <ele>935.4</ele>
        <time>2022-06-27T10:08:59Z</time>
      </trkpt>
      <trkpt lat="42.3956000" lon="-3.3023870">
        <ele>935.6</ele>
        <time>2022-06-27T10:09:00Z</time>
      </trkpt>
      <trkpt lat="42.3955430" lon="-3.3024330">
        <ele>935.6</ele>
        <time>2022-06-27T10:09:01Z</time>
      </trkpt>
      <trkpt lat="42.3954730" lon="-3.3024900">
        <ele>935.6</ele>
        <time>2022-06-27T10:09:02Z</time>
      </trkpt>
      <trkpt lat="42.3954010" lon="-3.3025490">
        <ele>935.6</ele>
        <time>2022-06-27T10:09:03Z</time>
      </trkpt>
      <trkpt lat="42.3953290" lon="-3.3026090">
        <ele>935.8</ele>
        <time>2022-06-27T10:09:04Z</time>
      </trkpt>
      <trkpt lat="42.3952580" lon="-3.3026680">
        <ele>935.8</ele>
        <time>2022-06-27T10:09:05Z</time>
      </trkpt>
      <trkpt lat="42.3951880" lon="-3.3027270">
        <ele>936.0</ele>
        <time>2022-06-27T10:09:06Z</time>
      </trkpt>
      <trkpt lat="42.3951190" lon="-3.3027850">
        <ele>936.0</ele>
        <time>2022-06-27T10:09:07Z</time>
      </trkpt>
      <trkpt lat="42.3950490" lon="-3.3028410">
        <ele>936.0</ele>
        <time>2022-06-27T10:09:08Z</time>
      </trkpt>
      <trkpt lat="42.3949790" lon="-3.3028970">
        <ele>936.2</ele>
        <time>2022-06-27T10:09:09Z</time>
      </trkpt>
      <trkpt lat="42.3949100" lon="-3.3029530">
        <ele>936.2</ele>
        <time>2022-06-27T10:09:10Z</time>
      </trkpt>
      <trkpt lat="42.3948420" lon="-3.3030110">
        <ele>936.2</ele>
        <time>2022-06-27T10:09:11Z</time>
      </trkpt>
      <trkpt lat="42.3947750" lon="-3.3030690">
        <ele>936.2</ele>
        <time>2022-06-27T10:09:12Z</time>
      </trkpt>
      <trkpt lat="42.3947080" lon="-3.3031240">
        <ele>936.2</ele>
        <time>2022-06-27T10:09:13Z</time>
      </trkpt>
      <trkpt lat="42.3946410" lon="-3.3031800">
        <ele>936.2</ele>
        <time>2022-06-27T10:09:14Z</time>
      </trkpt>
      <trkpt lat="42.3945730" lon="-3.3032360">
        <ele>936.2</ele>
        <time>2022-06-27T10:09:15Z</time>
      </trkpt>
      <trkpt lat="42.3944920" lon="-3.3033030">
        <ele>936.2</ele>
        <time>2022-06-27T10:09:16Z</time>
      </trkpt>
      <trkpt lat="42.3944380" lon="-3.3033470">
        <ele>936.2</ele>
        <time>2022-06-27T10:09:17Z</time>
      </trkpt>
      <trkpt lat="42.3943730" lon="-3.3034000">
        <ele>936.4</ele>
        <time>2022-06-27T10:09:18Z</time>
      </trkpt>
      <trkpt lat="42.3942930" lon="-3.3034670">
        <ele>936.4</ele>
        <time>2022-06-27T10:09:19Z</time>
      </trkpt>
      <trkpt lat="42.3942400" lon="-3.3035110">
        <ele>936.4</ele>
        <time>2022-06-27T10:09:20Z</time>
      </trkpt>
      <trkpt lat="42.3941610" lon="-3.3035770">
        <ele>936.4</ele>
        <time>2022-06-27T10:09:21Z</time>
      </trkpt>
      <trkpt lat="42.3941070" lon="-3.3036200">
        <ele>936.4</ele>
        <time>2022-06-27T10:09:22Z</time>
      </trkpt>
      <trkpt lat="42.3940410" lon="-3.3036740">
        <ele>936.6</ele>
        <time>2022-06-27T10:09:23Z</time>
      </trkpt>
      <trkpt lat="42.3939740" lon="-3.3037310">
        <ele>936.6</ele>
        <time>2022-06-27T10:09:24Z</time>
      </trkpt>
      <trkpt lat="42.3939070" lon="-3.3037850">
        <ele>936.6</ele>
        <time>2022-06-27T10:09:25Z</time>
      </trkpt>
      <trkpt lat="42.3938290" lon="-3.3038500">
        <ele>936.6</ele>
        <time>2022-06-27T10:09:26Z</time>
      </trkpt>
      <trkpt lat="42.3937780" lon="-3.3038950">
        <ele>936.6</ele>
        <time>2022-06-27T10:09:27Z</time>
      </trkpt>
      <trkpt lat="42.3937120" lon="-3.3039510">
        <ele>936.6</ele>
        <time>2022-06-27T10:09:28Z</time>
      </trkpt>
      <trkpt lat="42.3936350" lon="-3.3040170">
        <ele>936.6</ele>
        <time>2022-06-27T10:09:29Z</time>
      </trkpt>
      <trkpt lat="42.3935690" lon="-3.3040700">
        <ele>936.8</ele>
        <time>2022-06-27T10:09:30Z</time>
      </trkpt>
      <trkpt lat="42.3935160" lon="-3.3041120">
        <ele>936.8</ele>
        <time>2022-06-27T10:09:31Z</time>
      </trkpt>
      <trkpt lat="42.3934500" lon="-3.3041660">
        <ele>937.2</ele>
        <time>2022-06-27T10:09:32Z</time>
      </trkpt>
      <trkpt lat="42.3933840" lon="-3.3042200">
        <ele>937.4</ele>
        <time>2022-06-27T10:09:33Z</time>
      </trkpt>
      <trkpt lat="42.3933200" lon="-3.3042740">
        <ele>937.6</ele>
        <time>2022-06-27T10:09:34Z</time>
      </trkpt>
      <trkpt lat="42.3932420" lon="-3.3043410">
        <ele>937.6</ele>
        <time>2022-06-27T10:09:35Z</time>
      </trkpt>
      <trkpt lat="42.3931890" lon="-3.3043850">
        <ele>937.6</ele>
        <time>2022-06-27T10:09:36Z</time>
      </trkpt>
      <trkpt lat="42.3931260" lon="-3.3044390">
        <ele>937.6</ele>
        <time>2022-06-27T10:09:37Z</time>
      </trkpt>
      <trkpt lat="42.3930630" lon="-3.3044920">
        <ele>937.6</ele>
        <time>2022-06-27T10:09:38Z</time>
      </trkpt>
      <trkpt lat="42.3929970" lon="-3.3045460">
        <ele>937.6</ele>
        <time>2022-06-27T10:09:39Z</time>
      </trkpt>
      <trkpt lat="42.3929180" lon="-3.3046100">
        <ele>937.6</ele>
        <time>2022-06-27T10:09:40Z</time>
      </trkpt>
      <trkpt lat="42.3928650" lon="-3.3046550">
        <ele>937.8</ele>
        <time>2022-06-27T10:09:41Z</time>
      </trkpt>
      <trkpt lat="42.3928010" lon="-3.3047070">
        <ele>937.8</ele>
        <time>2022-06-27T10:09:42Z</time>
      </trkpt>
      <trkpt lat="42.3927380" lon="-3.3047580">
        <ele>937.8</ele>
        <time>2022-06-27T10:09:43Z</time>
      </trkpt>
      <trkpt lat="42.3926740" lon="-3.3048120">
        <ele>937.8</ele>
        <time>2022-06-27T10:09:44Z</time>
      </trkpt>
      <trkpt lat="42.3926090" lon="-3.3048670">
        <ele>937.8</ele>
        <time>2022-06-27T10:09:45Z</time>
      </trkpt>
      <trkpt lat="42.3925440" lon="-3.3049220">
        <ele>937.6</ele>
        <time>2022-06-27T10:09:46Z</time>
      </trkpt>
      <trkpt lat="42.3924800" lon="-3.3049750">
        <ele>937.6</ele>
        <time>2022-06-27T10:09:47Z</time>
      </trkpt>
      <trkpt lat="42.3924050" lon="-3.3050380">
        <ele>937.8</ele>
        <time>2022-06-27T10:09:48Z</time>
      </trkpt>
      <trkpt lat="42.3923550" lon="-3.3050790">
        <ele>938.0</ele>
        <time>2022-06-27T10:09:49Z</time>
      </trkpt>
      <trkpt lat="42.3922770" lon="-3.3051430">
        <ele>938.0</ele>
        <time>2022-06-27T10:09:50Z</time>
      </trkpt>
      <trkpt lat="42.3922250" lon="-3.3051850">
        <ele>938.2</ele>
        <time>2022-06-27T10:09:51Z</time>
      </trkpt>
      <trkpt lat="42.3921580" lon="-3.3052390">
        <ele>938.2</ele>
        <time>2022-06-27T10:09:52Z</time>
      </trkpt>
      <trkpt lat="42.3920920" lon="-3.3052930">
        <ele>938.0</ele>
        <time>2022-06-27T10:09:53Z</time>
      </trkpt>
      <trkpt lat="42.3920120" lon="-3.3053570">
        <ele>938.0</ele>
        <time>2022-06-27T10:09:54Z</time>
      </trkpt>
      <trkpt lat="42.3919600" lon="-3.3054000">
        <ele>938.0</ele>
        <time>2022-06-27T10:09:55Z</time>
      </trkpt>
      <trkpt lat="42.3918930" lon="-3.3054550">
        <ele>938.0</ele>
        <time>2022-06-27T10:09:56Z</time>
      </trkpt>
      <trkpt lat="42.3918270" lon="-3.3055100">
        <ele>938.2</ele>
        <time>2022-06-27T10:09:57Z</time>
      </trkpt>
      <trkpt lat="42.3917610" lon="-3.3055660">
        <ele>938.0</ele>
        <time>2022-06-27T10:09:58Z</time>
      </trkpt>
      <trkpt lat="42.3916930" lon="-3.3056240">
        <ele>938.0</ele>
        <time>2022-06-27T10:09:59Z</time>
      </trkpt>
      <trkpt lat="42.3916410" lon="-3.3056720">
        <ele>937.8</ele>
        <time>2022-06-27T10:10:00Z</time>
      </trkpt>
      <trkpt lat="42.3915900" lon="-3.3057200">
        <ele>937.8</ele>
        <time>2022-06-27T10:10:01Z</time>
      </trkpt>
      <trkpt lat="42.3914860" lon="-3.3058170">
        <ele>937.8</ele>
        <time>2022-06-27T10:10:02Z</time>
      </trkpt>
      <trkpt lat="42.3914190" lon="-3.3058950">
        <ele>937.6</ele>
        <time>2022-06-27T10:10:03Z</time>
      </trkpt>
      <trkpt lat="42.3913520" lon="-3.3059780">
        <ele>937.6</ele>
        <time>2022-06-27T10:10:04Z</time>
      </trkpt>
      <trkpt lat="42.3912890" lon="-3.3060670">
        <ele>937.4</ele>
        <time>2022-06-27T10:10:05Z</time>
      </trkpt>
      <trkpt lat="42.3912280" lon="-3.3061600">
        <ele>937.4</ele>
        <time>2022-06-27T10:10:06Z</time>
      </trkpt>
      <trkpt lat="42.3911690" lon="-3.3062560">
        <ele>937.2</ele>
        <time>2022-06-27T10:10:07Z</time>
      </trkpt>
      <trkpt lat="42.3911130" lon="-3.3063540">
        <ele>937.0</ele>
        <time>2022-06-27T10:10:08Z</time>
      </trkpt>
      <trkpt lat="42.3910580" lon="-3.3064560">
        <ele>936.6</ele>
        <time>2022-06-27T10:10:09Z</time>
      </trkpt>
      <trkpt lat="42.3910070" lon="-3.3065560">
        <ele>936.6</ele>
        <time>2022-06-27T10:10:10Z</time>
      </trkpt>
      <trkpt lat="42.3909570" lon="-3.3066560">
        <ele>936.4</ele>
        <time>2022-06-27T10:10:11Z</time>
      </trkpt>
      <trkpt lat="42.3908990" lon="-3.3067720">
        <ele>936.2</ele>
        <time>2022-06-27T10:10:12Z</time>
      </trkpt>
      <trkpt lat="42.3908500" lon="-3.3068660">
        <ele>936.2</ele>
        <time>2022-06-27T10:10:13Z</time>
      </trkpt>
      <trkpt lat="42.3908000" lon="-3.3069610">
        <ele>936.0</ele>
        <time>2022-06-27T10:10:14Z</time>
      </trkpt>
      <trkpt lat="42.3907610" lon="-3.3070350">
        <ele>936.0</ele>
        <time>2022-06-27T10:10:15Z</time>
      </trkpt>
      <trkpt lat="42.3907110" lon="-3.3071260">
        <ele>936.0</ele>
        <time>2022-06-27T10:10:16Z</time>
      </trkpt>
      <trkpt lat="42.3906610" lon="-3.3072210">
        <ele>936.0</ele>
        <time>2022-06-27T10:10:17Z</time>
      </trkpt>
      <trkpt lat="42.3906110" lon="-3.3073130">
        <ele>936.0</ele>
        <time>2022-06-27T10:10:18Z</time>
      </trkpt>
      <trkpt lat="42.3905530" lon="-3.3074210">
        <ele>935.8</ele>
        <time>2022-06-27T10:10:19Z</time>
      </trkpt>
      <trkpt lat="42.3905150" lon="-3.3074920">
        <ele>935.8</ele>
        <time>2022-06-27T10:10:20Z</time>
      </trkpt>
      <trkpt lat="42.3904670" lon="-3.3075810">
        <ele>935.8</ele>
        <time>2022-06-27T10:10:21Z</time>
      </trkpt>
      <trkpt lat="42.3904220" lon="-3.3076650">
        <ele>935.8</ele>
        <time>2022-06-27T10:10:22Z</time>
      </trkpt>
      <trkpt lat="42.3903730" lon="-3.3077510">
        <ele>935.8</ele>
        <time>2022-06-27T10:10:23Z</time>
      </trkpt>
      <trkpt lat="42.3903260" lon="-3.3078330">
        <ele>935.8</ele>
        <time>2022-06-27T10:10:24Z</time>
      </trkpt>
      <trkpt lat="42.3902780" lon="-3.3079070">
        <ele>935.8</ele>
        <time>2022-06-27T10:10:25Z</time>
      </trkpt>
      <trkpt lat="42.3902260" lon="-3.3079680">
        <ele>936.0</ele>
        <time>2022-06-27T10:10:26Z</time>
      </trkpt>
      <trkpt lat="42.3901570" lon="-3.3080310">
        <ele>936.0</ele>
        <time>2022-06-27T10:10:27Z</time>
      </trkpt>
      <trkpt lat="42.3901100" lon="-3.3080660">
        <ele>936.2</ele>
        <time>2022-06-27T10:10:28Z</time>
      </trkpt>
      <trkpt lat="42.3900510" lon="-3.3081090">
        <ele>936.4</ele>
        <time>2022-06-27T10:10:29Z</time>
      </trkpt>
      <trkpt lat="42.3899930" lon="-3.3081530">
        <ele>936.8</ele>
        <time>2022-06-27T10:10:30Z</time>
      </trkpt>
      <trkpt lat="42.3899360" lon="-3.3081960">
        <ele>936.8</ele>
        <time>2022-06-27T10:10:31Z</time>
      </trkpt>
      <trkpt lat="42.3898710" lon="-3.3082450">
        <ele>937.0</ele>
        <time>2022-06-27T10:10:32Z</time>
      </trkpt>
      <trkpt lat="42.3898210" lon="-3.3082820">
        <ele>937.2</ele>
        <time>2022-06-27T10:10:33Z</time>
      </trkpt>
      <trkpt lat="42.3897760" lon="-3.3083150">
        <ele>937.4</ele>
        <time>2022-06-27T10:10:34Z</time>
      </trkpt>
      <trkpt lat="42.3897430" lon="-3.3083420">
        <ele>937.6</ele>
        <time>2022-06-27T10:10:35Z</time>
      </trkpt>
      <trkpt lat="42.3897020" lon="-3.3083720">
        <ele>937.8</ele>
        <time>2022-06-27T10:10:36Z</time>
      </trkpt>
      <trkpt lat="42.3896550" lon="-3.3084030">
        <ele>938.0</ele>
        <time>2022-06-27T10:10:37Z</time>
      </trkpt>
      <trkpt lat="42.3896000" lon="-3.3084460">
        <ele>938.2</ele>
        <time>2022-06-27T10:10:38Z</time>
      </trkpt>
      <trkpt lat="42.3895640" lon="-3.3084730">
        <ele>938.4</ele>
        <time>2022-06-27T10:10:39Z</time>
      </trkpt>
      <trkpt lat="42.3895190" lon="-3.3085060">
        <ele>938.4</ele>
        <time>2022-06-27T10:10:40Z</time>
      </trkpt>
      <trkpt lat="42.3894760" lon="-3.3085370">
        <ele>938.8</ele>
        <time>2022-06-27T10:10:41Z</time>
      </trkpt>
      <trkpt lat="42.3894350" lon="-3.3085650">
        <ele>939.2</ele>
        <time>2022-06-27T10:10:42Z</time>
      </trkpt>
      <trkpt lat="42.3893860" lon="-3.3085980">
        <ele>939.4</ele>
        <time>2022-06-27T10:10:43Z</time>
      </trkpt>
      <trkpt lat="42.3893500" lon="-3.3086200">
        <ele>939.8</ele>
        <time>2022-06-27T10:10:44Z</time>
      </trkpt>
      <trkpt lat="42.3893050" lon="-3.3086400">
        <ele>940.0</ele>
        <time>2022-06-27T10:10:45Z</time>
      </trkpt>
      <trkpt lat="42.3892490" lon="-3.3086600">
        <ele>940.4</ele>
        <time>2022-06-27T10:10:46Z</time>
      </trkpt>
      <trkpt lat="42.3892100" lon="-3.3086710">
        <ele>940.6</ele>
        <time>2022-06-27T10:10:47Z</time>
      </trkpt>
      <trkpt lat="42.3891550" lon="-3.3086920">
        <ele>941.0</ele>
        <time>2022-06-27T10:10:48Z</time>
      </trkpt>
      <trkpt lat="42.3891180" lon="-3.3087020">
        <ele>941.6</ele>
        <time>2022-06-27T10:10:49Z</time>
      </trkpt>
      <trkpt lat="42.3890700" lon="-3.3087150">
        <ele>941.8</ele>
        <time>2022-06-27T10:10:50Z</time>
      </trkpt>
      <trkpt lat="42.3890140" lon="-3.3087320">
        <ele>942.0</ele>
        <time>2022-06-27T10:10:51Z</time>
      </trkpt>
      <trkpt lat="42.3889760" lon="-3.3087370">
        <ele>942.2</ele>
        <time>2022-06-27T10:10:52Z</time>
      </trkpt>
      <trkpt lat="42.3889170" lon="-3.3087470">
        <ele>942.4</ele>
        <time>2022-06-27T10:10:53Z</time>
      </trkpt>
      <trkpt lat="42.3888760" lon="-3.3087520">
        <ele>942.4</ele>
        <time>2022-06-27T10:10:54Z</time>
      </trkpt>
      <trkpt lat="42.3888260" lon="-3.3087550">
        <ele>942.6</ele>
        <time>2022-06-27T10:10:55Z</time>
      </trkpt>
      <trkpt lat="42.3887660" lon="-3.3087610">
        <ele>942.6</ele>
        <time>2022-06-27T10:10:56Z</time>
      </trkpt>
      <trkpt lat="42.3887240" lon="-3.3087620">
        <ele>942.6</ele>
        <time>2022-06-27T10:10:57Z</time>
      </trkpt>
      <trkpt lat="42.3886630" lon="-3.3087670">
        <ele>942.8</ele>
        <time>2022-06-27T10:10:58Z</time>
      </trkpt>
      <trkpt lat="42.3886220" lon="-3.3087720">
        <ele>942.8</ele>
        <time>2022-06-27T10:10:59Z</time>
      </trkpt>
      <trkpt lat="42.3885700" lon="-3.3087810">
        <ele>943.0</ele>
        <time>2022-06-27T10:11:00Z</time>
      </trkpt>
      <trkpt lat="42.3885090" lon="-3.3087880">
        <ele>943.0</ele>
        <time>2022-06-27T10:11:01Z</time>
      </trkpt>
      <trkpt lat="42.3884680" lon="-3.3087910">
        <ele>943.2</ele>
        <time>2022-06-27T10:11:02Z</time>
      </trkpt>
      <trkpt lat="42.3884130" lon="-3.3087990">
        <ele>943.2</ele>
        <time>2022-06-27T10:11:03Z</time>
      </trkpt>
      <trkpt lat="42.3883580" lon="-3.3088070">
        <ele>943.2</ele>
        <time>2022-06-27T10:11:04Z</time>
      </trkpt>
      <trkpt lat="42.3883030" lon="-3.3088160">
        <ele>943.2</ele>
        <time>2022-06-27T10:11:05Z</time>
      </trkpt>
      <trkpt lat="42.3882490" lon="-3.3088240">
        <ele>943.4</ele>
        <time>2022-06-27T10:11:06Z</time>
      </trkpt>
      <trkpt lat="42.3881940" lon="-3.3088320">
        <ele>943.6</ele>
        <time>2022-06-27T10:11:07Z</time>
      </trkpt>
      <trkpt lat="42.3881400" lon="-3.3088370">
        <ele>943.8</ele>
        <time>2022-06-27T10:11:08Z</time>
      </trkpt>
      <trkpt lat="42.3880850" lon="-3.3088400">
        <ele>944.2</ele>
        <time>2022-06-27T10:11:09Z</time>
      </trkpt>
      <trkpt lat="42.3880250" lon="-3.3088490">
        <ele>944.2</ele>
        <time>2022-06-27T10:11:10Z</time>
      </trkpt>
      <trkpt lat="42.3879640" lon="-3.3088610">
        <ele>944.4</ele>
        <time>2022-06-27T10:11:11Z</time>
      </trkpt>
      <trkpt lat="42.3879070" lon="-3.3088710">
        <ele>944.6</ele>
        <time>2022-06-27T10:11:12Z</time>
      </trkpt>
      <trkpt lat="42.3878490" lon="-3.3088810">
        <ele>944.8</ele>
        <time>2022-06-27T10:11:13Z</time>
      </trkpt>
      <trkpt lat="42.3877910" lon="-3.3088910">
        <ele>945.0</ele>
        <time>2022-06-27T10:11:14Z</time>
      </trkpt>
      <trkpt lat="42.3877330" lon="-3.3089010">
        <ele>945.0</ele>
        <time>2022-06-27T10:11:15Z</time>
      </trkpt>
      <trkpt lat="42.3876750" lon="-3.3089080">
        <ele>945.2</ele>
        <time>2022-06-27T10:11:16Z</time>
      </trkpt>
      <trkpt lat="42.3876180" lon="-3.3089180">
        <ele>945.0</ele>
        <time>2022-06-27T10:11:17Z</time>
      </trkpt>
      <trkpt lat="42.3875590" lon="-3.3089270">
        <ele>945.2</ele>
        <time>2022-06-27T10:11:18Z</time>
      </trkpt>
      <trkpt lat="42.3875030" lon="-3.3089370">
        <ele>945.2</ele>
        <time>2022-06-27T10:11:19Z</time>
      </trkpt>
      <trkpt lat="42.3874460" lon="-3.3089430">
        <ele>945.4</ele>
        <time>2022-06-27T10:11:20Z</time>
      </trkpt>
      <trkpt lat="42.3873880" lon="-3.3089510">
        <ele>945.4</ele>
        <time>2022-06-27T10:11:21Z</time>
      </trkpt>
      <trkpt lat="42.3873310" lon="-3.3089570">
        <ele>945.4</ele>
        <time>2022-06-27T10:11:22Z</time>
      </trkpt>
      <trkpt lat="42.3872760" lon="-3.3089630">
        <ele>945.4</ele>
        <time>2022-06-27T10:11:23Z</time>
      </trkpt>
      <trkpt lat="42.3872220" lon="-3.3089700">
        <ele>945.4</ele>
        <time>2022-06-27T10:11:24Z</time>
      </trkpt>
      <trkpt lat="42.3871680" lon="-3.3089790">
        <ele>945.4</ele>
        <time>2022-06-27T10:11:25Z</time>
      </trkpt>
      <trkpt lat="42.3871140" lon="-3.3089890">
        <ele>945.8</ele>
        <time>2022-06-27T10:11:26Z</time>
      </trkpt>
      <trkpt lat="42.3870600" lon="-3.3089970">
        <ele>946.0</ele>
        <time>2022-06-27T10:11:27Z</time>
      </trkpt>
      <trkpt lat="42.3870080" lon="-3.3090040">
        <ele>946.0</ele>
        <time>2022-06-27T10:11:28Z</time>
      </trkpt>
      <trkpt lat="42.3869570" lon="-3.3090110">
        <ele>946.0</ele>
        <time>2022-06-27T10:11:29Z</time>
      </trkpt>
      <trkpt lat="42.3869070" lon="-3.3090180">
        <ele>946.2</ele>
        <time>2022-06-27T10:11:30Z</time>
      </trkpt>
      <trkpt lat="42.3868540" lon="-3.3090250">
        <ele>946.2</ele>
        <time>2022-06-27T10:11:31Z</time>
      </trkpt>
      <trkpt lat="42.3868030" lon="-3.3090310">
        <ele>946.4</ele>
        <time>2022-06-27T10:11:32Z</time>
      </trkpt>
      <trkpt lat="42.3867500" lon="-3.3090390">
        <ele>946.4</ele>
        <time>2022-06-27T10:11:33Z</time>
      </trkpt>
      <trkpt lat="42.3866960" lon="-3.3090450">
        <ele>946.8</ele>
        <time>2022-06-27T10:11:34Z</time>
      </trkpt>
      <trkpt lat="42.3866420" lon="-3.3090500">
        <ele>947.2</ele>
        <time>2022-06-27T10:11:35Z</time>
      </trkpt>
      <trkpt lat="42.3865890" lon="-3.3090510">
        <ele>947.4</ele>
        <time>2022-06-27T10:11:36Z</time>
      </trkpt>
      <trkpt lat="42.3865340" lon="-3.3090550">
        <ele>947.8</ele>
        <time>2022-06-27T10:11:37Z</time>
      </trkpt>
      <trkpt lat="42.3864800" lon="-3.3090580">
        <ele>947.8</ele>
        <time>2022-06-27T10:11:38Z</time>
      </trkpt>
      <trkpt lat="42.3864260" lon="-3.3090610">
        <ele>948.2</ele>
        <time>2022-06-27T10:11:39Z</time>
      </trkpt>
      <trkpt lat="42.3863730" lon="-3.3090640">
        <ele>948.6</ele>
        <time>2022-06-27T10:11:40Z</time>
      </trkpt>
      <trkpt lat="42.3863190" lon="-3.3090630">
        <ele>948.8</ele>
        <time>2022-06-27T10:11:41Z</time>
      </trkpt>
      <trkpt lat="42.3862640" lon="-3.3090590">
        <ele>949.0</ele>
        <time>2022-06-27T10:11:42Z</time>
      </trkpt>
      <trkpt lat="42.3862100" lon="-3.3090570">
        <ele>949.0</ele>
        <time>2022-06-27T10:11:43Z</time>
      </trkpt>
      <trkpt lat="42.3861570" lon="-3.3090510">
        <ele>949.2</ele>
        <time>2022-06-27T10:11:44Z</time>
      </trkpt>
      <trkpt lat="42.3861020" lon="-3.3090470">
        <ele>949.4</ele>
        <time>2022-06-27T10:11:45Z</time>
      </trkpt>
      <trkpt lat="42.3860480" lon="-3.3090430">
        <ele>949.6</ele>
        <time>2022-06-27T10:11:46Z</time>
      </trkpt>
      <trkpt lat="42.3859930" lon="-3.3090390">
        <ele>949.6</ele>
        <time>2022-06-27T10:11:47Z</time>
      </trkpt>
      <trkpt lat="42.3859380" lon="-3.3090330">
        <ele>949.6</ele>
        <time>2022-06-27T10:11:48Z</time>
      </trkpt>
      <trkpt lat="42.3858830" lon="-3.3090270">
        <ele>949.6</ele>
        <time>2022-06-27T10:11:49Z</time>
      </trkpt>
      <trkpt lat="42.3858250" lon="-3.3090210">
        <ele>949.6</ele>
        <time>2022-06-27T10:11:50Z</time>
      </trkpt>
      <trkpt lat="42.3857640" lon="-3.3090180">
        <ele>949.6</ele>
        <time>2022-06-27T10:11:51Z</time>
      </trkpt>
      <trkpt lat="42.3857010" lon="-3.3090150">
        <ele>949.6</ele>
        <time>2022-06-27T10:11:52Z</time>
      </trkpt>
      <trkpt lat="42.3856380" lon="-3.3090100">
        <ele>949.6</ele>
        <time>2022-06-27T10:11:53Z</time>
      </trkpt>
      <trkpt lat="42.3855710" lon="-3.3090060">
        <ele>949.6</ele>
        <time>2022-06-27T10:11:54Z</time>
      </trkpt>
      <trkpt lat="42.3855030" lon="-3.3090040">
        <ele>949.8</ele>
        <time>2022-06-27T10:11:55Z</time>
      </trkpt>
      <trkpt lat="42.3854320" lon="-3.3090020">
        <ele>949.8</ele>
        <time>2022-06-27T10:11:56Z</time>
      </trkpt>
      <trkpt lat="42.3853610" lon="-3.3089990">
        <ele>949.8</ele>
        <time>2022-06-27T10:11:57Z</time>
      </trkpt>
      <trkpt lat="42.3852910" lon="-3.3089940">
        <ele>949.8</ele>
        <time>2022-06-27T10:11:58Z</time>
      </trkpt>
      <trkpt lat="42.3852200" lon="-3.3089900">
        <ele>949.8</ele>
        <time>2022-06-27T10:11:59Z</time>
      </trkpt>
      <trkpt lat="42.3851490" lon="-3.3089850">
        <ele>949.8</ele>
        <time>2022-06-27T10:12:00Z</time>
      </trkpt>
      <trkpt lat="42.3850780" lon="-3.3089820">
        <ele>949.8</ele>
        <time>2022-06-27T10:12:01Z</time>
      </trkpt>
      <trkpt lat="42.3850100" lon="-3.3089850">
        <ele>949.8</ele>
        <time>2022-06-27T10:12:02Z</time>
      </trkpt>
      <trkpt lat="42.3849560" lon="-3.3090000">
        <ele>949.8</ele>
        <time>2022-06-27T10:12:03Z</time>
      </trkpt>
      <trkpt lat="42.3849010" lon="-3.3090150">
        <ele>949.8</ele>
        <time>2022-06-27T10:12:04Z</time>
      </trkpt>
      <trkpt lat="42.3847930" lon="-3.3090450">
        <ele>949.8</ele>
        <time>2022-06-27T10:12:05Z</time>
      </trkpt>
      <trkpt lat="42.3847170" lon="-3.3090760">
        <ele>949.8</ele>
        <time>2022-06-27T10:12:06Z</time>
      </trkpt>
      <trkpt lat="42.3846410" lon="-3.3091070">
        <ele>949.6</ele>
        <time>2022-06-27T10:12:07Z</time>
      </trkpt>
      <trkpt lat="42.3845690" lon="-3.3091380">
        <ele>949.6</ele>
        <time>2022-06-27T10:12:08Z</time>
      </trkpt>
      <trkpt lat="42.3844970" lon="-3.3091650">
        <ele>949.8</ele>
        <time>2022-06-27T10:12:09Z</time>
      </trkpt>
      <trkpt lat="42.3844230" lon="-3.3091770">
        <ele>949.8</ele>
        <time>2022-06-27T10:12:10Z</time>
      </trkpt>
      <trkpt lat="42.3843530" lon="-3.3091730">
        <ele>949.8</ele>
        <time>2022-06-27T10:12:11Z</time>
      </trkpt>
      <trkpt lat="42.3842880" lon="-3.3091560">
        <ele>949.8</ele>
        <time>2022-06-27T10:12:12Z</time>
      </trkpt>
      <trkpt lat="42.3842270" lon="-3.3091330">
        <ele>949.8</ele>
        <time>2022-06-27T10:12:13Z</time>
      </trkpt>
      <trkpt lat="42.3841700" lon="-3.3091050">
        <ele>949.8</ele>
        <time>2022-06-27T10:12:14Z</time>
      </trkpt>
      <trkpt lat="42.3841150" lon="-3.3090770">
        <ele>950.0</ele>
        <time>2022-06-27T10:12:15Z</time>
      </trkpt>
      <trkpt lat="42.3840620" lon="-3.3090500">
        <ele>950.0</ele>
        <time>2022-06-27T10:12:16Z</time>
      </trkpt>
      <trkpt lat="42.3840100" lon="-3.3090270">
        <ele>950.0</ele>
        <time>2022-06-27T10:12:17Z</time>
      </trkpt>
      <trkpt lat="42.3839580" lon="-3.3090100">
        <ele>950.0</ele>
        <time>2022-06-27T10:12:18Z</time>
      </trkpt>
      <trkpt lat="42.3839080" lon="-3.3089960">
        <ele>950.4</ele>
        <time>2022-06-27T10:12:19Z</time>
      </trkpt>
      <trkpt lat="42.3838590" lon="-3.3089880">
        <ele>950.4</ele>
        <time>2022-06-27T10:12:20Z</time>
      </trkpt>
      <trkpt lat="42.3838110" lon="-3.3089850">
        <ele>950.8</ele>
        <time>2022-06-27T10:12:21Z</time>
      </trkpt>
      <trkpt lat="42.3837630" lon="-3.3089860">
        <ele>951.2</ele>
        <time>2022-06-27T10:12:22Z</time>
      </trkpt>
      <trkpt lat="42.3837150" lon="-3.3089870">
        <ele>951.6</ele>
        <time>2022-06-27T10:12:23Z</time>
      </trkpt>
      <trkpt lat="42.3836670" lon="-3.3089890">
        <ele>951.8</ele>
        <time>2022-06-27T10:12:24Z</time>
      </trkpt>
      <trkpt lat="42.3836200" lon="-3.3089910">
        <ele>952.2</ele>
        <time>2022-06-27T10:12:25Z</time>
      </trkpt>
      <trkpt lat="42.3835710" lon="-3.3089950">
        <ele>952.4</ele>
        <time>2022-06-27T10:12:26Z</time>
      </trkpt>
      <trkpt lat="42.3835230" lon="-3.3089990">
        <ele>952.6</ele>
        <time>2022-06-27T10:12:27Z</time>
      </trkpt>
      <trkpt lat="42.3834740" lon="-3.3090030">
        <ele>953.0</ele>
        <time>2022-06-27T10:12:28Z</time>
      </trkpt>
      <trkpt lat="42.3834260" lon="-3.3090050">
        <ele>953.0</ele>
        <time>2022-06-27T10:12:29Z</time>
      </trkpt>
      <trkpt lat="42.3833770" lon="-3.3090090">
        <ele>953.2</ele>
        <time>2022-06-27T10:12:30Z</time>
      </trkpt>
      <trkpt lat="42.3833280" lon="-3.3090170">
        <ele>953.4</ele>
        <time>2022-06-27T10:12:31Z</time>
      </trkpt>
      <trkpt lat="42.3832790" lon="-3.3090250">
        <ele>954.0</ele>
        <time>2022-06-27T10:12:32Z</time>
      </trkpt>
      <trkpt lat="42.3832300" lon="-3.3090320">
        <ele>954.0</ele>
        <time>2022-06-27T10:12:33Z</time>
      </trkpt>
      <trkpt lat="42.3831790" lon="-3.3090380">
        <ele>954.2</ele>
        <time>2022-06-27T10:12:34Z</time>
      </trkpt>
      <trkpt lat="42.3831290" lon="-3.3090450">
        <ele>954.4</ele>
        <time>2022-06-27T10:12:35Z</time>
      </trkpt>
      <trkpt lat="42.3830780" lon="-3.3090500">
        <ele>954.6</ele>
        <time>2022-06-27T10:12:36Z</time>
      </trkpt>
      <trkpt lat="42.3830280" lon="-3.3090550">
        <ele>954.8</ele>
        <time>2022-06-27T10:12:37Z</time>
      </trkpt>
      <trkpt lat="42.3829790" lon="-3.3090650">
        <ele>954.8</ele>
        <time>2022-06-27T10:12:38Z</time>
      </trkpt>
      <trkpt lat="42.3829300" lon="-3.3090730">
        <ele>955.0</ele>
        <time>2022-06-27T10:12:39Z</time>
      </trkpt>
      <trkpt lat="42.3829060" lon="-3.3090780">
        <ele>955.2</ele>
        <time>2022-06-27T10:12:40Z</time>
      </trkpt>
      <trkpt lat="42.3828810" lon="-3.3090820">
        <ele>955.4</ele>
        <time>2022-06-27T10:12:41Z</time>
      </trkpt>
      <trkpt lat="42.3827920" lon="-3.3091010">
        <ele>955.6</ele>
        <time>2022-06-27T10:12:42Z</time>
      </trkpt>
      <trkpt lat="42.3827530" lon="-3.3091100">
        <ele>955.6</ele>
        <time>2022-06-27T10:12:43Z</time>
      </trkpt>
      <trkpt lat="42.3826750" lon="-3.3091290">
        <ele>955.8</ele>
        <time>2022-06-27T10:12:44Z</time>
      </trkpt>
      <trkpt lat="42.3826230" lon="-3.3091410">
        <ele>955.8</ele>
        <time>2022-06-27T10:12:45Z</time>
      </trkpt>
      <trkpt lat="42.3825720" lon="-3.3091480">
        <ele>956.2</ele>
        <time>2022-06-27T10:12:46Z</time>
      </trkpt>
      <trkpt lat="42.3825200" lon="-3.3091570">
        <ele>956.2</ele>
        <time>2022-06-27T10:12:47Z</time>
      </trkpt>
      <trkpt lat="42.3824710" lon="-3.3091670">
        <ele>956.4</ele>
        <time>2022-06-27T10:12:48Z</time>
      </trkpt>
      <trkpt lat="42.3824220" lon="-3.3091770">
        <ele>956.4</ele>
        <time>2022-06-27T10:12:49Z</time>
      </trkpt>
      <trkpt lat="42.3823740" lon="-3.3091870">
        <ele>956.6</ele>
        <time>2022-06-27T10:12:50Z</time>
      </trkpt>
      <trkpt lat="42.3823280" lon="-3.3092000">
        <ele>956.6</ele>
        <time>2022-06-27T10:12:51Z</time>
      </trkpt>
      <trkpt lat="42.3822830" lon="-3.3092140">
        <ele>956.6</ele>
        <time>2022-06-27T10:12:52Z</time>
      </trkpt>
      <trkpt lat="42.3822390" lon="-3.3092220">
        <ele>956.8</ele>
        <time>2022-06-27T10:12:53Z</time>
      </trkpt>
      <trkpt lat="42.3821940" lon="-3.3092260">
        <ele>957.0</ele>
        <time>2022-06-27T10:12:54Z</time>
      </trkpt>
      <trkpt lat="42.3821520" lon="-3.3092330">
        <ele>957.4</ele>
        <time>2022-06-27T10:12:55Z</time>
      </trkpt>
      <trkpt lat="42.3821090" lon="-3.3092380">
        <ele>957.8</ele>
        <time>2022-06-27T10:12:56Z</time>
      </trkpt>
      <trkpt lat="42.3820660" lon="-3.3092450">
        <ele>958.0</ele>
        <time>2022-06-27T10:12:57Z</time>
      </trkpt>
      <trkpt lat="42.3820260" lon="-3.3092520">
        <ele>958.2</ele>
        <time>2022-06-27T10:12:58Z</time>
      </trkpt>
      <trkpt lat="42.3819830" lon="-3.3092600">
        <ele>958.4</ele>
        <time>2022-06-27T10:12:59Z</time>
      </trkpt>
      <trkpt lat="42.3819430" lon="-3.3092710">
        <ele>958.6</ele>
        <time>2022-06-27T10:13:00Z</time>
      </trkpt>
      <trkpt lat="42.3819040" lon="-3.3092810">
        <ele>958.8</ele>
        <time>2022-06-27T10:13:01Z</time>
      </trkpt>
      <trkpt lat="42.3818650" lon="-3.3092900">
        <ele>959.0</ele>
        <time>2022-06-27T10:13:02Z</time>
      </trkpt>
      <trkpt lat="42.3818270" lon="-3.3093010">
        <ele>959.0</ele>
        <time>2022-06-27T10:13:03Z</time>
      </trkpt>
      <trkpt lat="42.3817890" lon="-3.3093140">
        <ele>959.4</ele>
        <time>2022-06-27T10:13:04Z</time>
      </trkpt>
      <trkpt lat="42.3817500" lon="-3.3093220">
        <ele>959.8</ele>
        <time>2022-06-27T10:13:05Z</time>
      </trkpt>
      <trkpt lat="42.3817100" lon="-3.3093300">
        <ele>960.0</ele>
        <time>2022-06-27T10:13:06Z</time>
      </trkpt>
      <trkpt lat="42.3816700" lon="-3.3093350">
        <ele>960.2</ele>
        <time>2022-06-27T10:13:07Z</time>
      </trkpt>
      <trkpt lat="42.3816320" lon="-3.3093410">
        <ele>960.2</ele>
        <time>2022-06-27T10:13:08Z</time>
      </trkpt>
      <trkpt lat="42.3815950" lon="-3.3093510">
        <ele>960.6</ele>
        <time>2022-06-27T10:13:09Z</time>
      </trkpt>
      <trkpt lat="42.3815600" lon="-3.3093640">
        <ele>960.8</ele>
        <time>2022-06-27T10:13:10Z</time>
      </trkpt>
      <trkpt lat="42.3815250" lon="-3.3093800">
        <ele>961.2</ele>
        <time>2022-06-27T10:13:11Z</time>
      </trkpt>
      <trkpt lat="42.3814890" lon="-3.3093950">
        <ele>961.6</ele>
        <time>2022-06-27T10:13:12Z</time>
      </trkpt>
      <trkpt lat="42.3814520" lon="-3.3094050">
        <ele>961.8</ele>
        <time>2022-06-27T10:13:13Z</time>
      </trkpt>
      <trkpt lat="42.3814160" lon="-3.3094120">
        <ele>962.0</ele>
        <time>2022-06-27T10:13:14Z</time>
      </trkpt>
      <trkpt lat="42.3813790" lon="-3.3094180">
        <ele>962.0</ele>
        <time>2022-06-27T10:13:15Z</time>
      </trkpt>
      <trkpt lat="42.3813430" lon="-3.3094260">
        <ele>962.2</ele>
        <time>2022-06-27T10:13:16Z</time>
      </trkpt>
      <trkpt lat="42.3813080" lon="-3.3094340">
        <ele>962.4</ele>
        <time>2022-06-27T10:13:17Z</time>
      </trkpt>
      <trkpt lat="42.3812730" lon="-3.3094420">
        <ele>962.8</ele>
        <time>2022-06-27T10:13:18Z</time>
      </trkpt>
      <trkpt lat="42.3812360" lon="-3.3094500">
        <ele>963.2</ele>
        <time>2022-06-27T10:13:19Z</time>
      </trkpt>
      <trkpt lat="42.3812000" lon="-3.3094590">
        <ele>963.4</ele>
        <time>2022-06-27T10:13:20Z</time>
      </trkpt>
      <trkpt lat="42.3811630" lon="-3.3094660">
        <ele>963.6</ele>
        <time>2022-06-27T10:13:21Z</time>
      </trkpt>
      <trkpt lat="42.3811440" lon="-3.3094710">
        <ele>963.6</ele>
        <time>2022-06-27T10:13:22Z</time>
      </trkpt>
      <trkpt lat="42.3811250" lon="-3.3094760">
        <ele>963.8</ele>
        <time>2022-06-27T10:13:23Z</time>
      </trkpt>
      <trkpt lat="42.3810520" lon="-3.3095080">
        <ele>964.0</ele>
        <time>2022-06-27T10:13:24Z</time>
      </trkpt>
      <trkpt lat="42.3810160" lon="-3.3095240">
        <ele>964.4</ele>
        <time>2022-06-27T10:13:25Z</time>
      </trkpt>
      <trkpt lat="42.3809810" lon="-3.3095350">
        <ele>964.4</ele>
        <time>2022-06-27T10:13:26Z</time>
      </trkpt>
      <trkpt lat="42.3809480" lon="-3.3095440">
        <ele>964.6</ele>
        <time>2022-06-27T10:13:27Z</time>
      </trkpt>
      <trkpt lat="42.3809140" lon="-3.3095530">
        <ele>964.8</ele>
        <time>2022-06-27T10:13:28Z</time>
      </trkpt>
      <trkpt lat="42.3808810" lon="-3.3095640">
        <ele>965.0</ele>
        <time>2022-06-27T10:13:29Z</time>
      </trkpt>
      <trkpt lat="42.3808480" lon="-3.3095830">
        <ele>965.2</ele>
        <time>2022-06-27T10:13:30Z</time>
      </trkpt>
      <trkpt lat="42.3808160" lon="-3.3096030">
        <ele>965.2</ele>
        <time>2022-06-27T10:13:31Z</time>
      </trkpt>
      <trkpt lat="42.3807810" lon="-3.3096120">
        <ele>965.8</ele>
        <time>2022-06-27T10:13:32Z</time>
      </trkpt>
      <trkpt lat="42.3807460" lon="-3.3096230">
        <ele>966.0</ele>
        <time>2022-06-27T10:13:33Z</time>
      </trkpt>
      <trkpt lat="42.3807100" lon="-3.3096350">
        <ele>966.4</ele>
        <time>2022-06-27T10:13:34Z</time>
      </trkpt>
      <trkpt lat="42.3806740" lon="-3.3096480">
        <ele>966.6</ele>
        <time>2022-06-27T10:13:35Z</time>
      </trkpt>
      <trkpt lat="42.3806370" lon="-3.3096640">
        <ele>966.8</ele>
        <time>2022-06-27T10:13:36Z</time>
      </trkpt>
      <trkpt lat="42.3806030" lon="-3.3096830">
        <ele>967.0</ele>
        <time>2022-06-27T10:13:37Z</time>
      </trkpt>
      <trkpt lat="42.3805710" lon="-3.3097010">
        <ele>967.2</ele>
        <time>2022-06-27T10:13:38Z</time>
      </trkpt>
      <trkpt lat="42.3805710" lon="-3.3097010">
        <ele>967.4</ele>
        <time>2022-06-27T10:13:39Z</time>
      </trkpt>
      <trkpt lat="42.3805370" lon="-3.3097150">
        <ele>967.4</ele>
        <time>2022-06-27T10:13:40Z</time>
      </trkpt>
      <trkpt lat="42.3804680" lon="-3.3097370">
        <ele>967.6</ele>
        <time>2022-06-27T10:13:41Z</time>
      </trkpt>
      <trkpt lat="42.3804340" lon="-3.3097530">
        <ele>967.8</ele>
        <time>2022-06-27T10:13:42Z</time>
      </trkpt>
      <trkpt lat="42.3804020" lon="-3.3097660">
        <ele>968.0</ele>
        <time>2022-06-27T10:13:43Z</time>
      </trkpt>
      <trkpt lat="42.3803690" lon="-3.3097810">
        <ele>968.4</ele>
        <time>2022-06-27T10:13:44Z</time>
      </trkpt>
      <trkpt lat="42.3803380" lon="-3.3097940">
        <ele>968.4</ele>
        <time>2022-06-27T10:13:45Z</time>
      </trkpt>
      <trkpt lat="42.3803080" lon="-3.3098050">
        <ele>969.0</ele>
        <time>2022-06-27T10:13:46Z</time>
      </trkpt>
      <trkpt lat="42.3802750" lon="-3.3098160">
        <ele>969.2</ele>
        <time>2022-06-27T10:13:47Z</time>
      </trkpt>
      <trkpt lat="42.3802420" lon="-3.3098340">
        <ele>969.4</ele>
        <time>2022-06-27T10:13:48Z</time>
      </trkpt>
      <trkpt lat="42.3802070" lon="-3.3098490">
        <ele>970.0</ele>
        <time>2022-06-27T10:13:49Z</time>
      </trkpt>
      <trkpt lat="42.3801730" lon="-3.3098570">
        <ele>970.2</ele>
        <time>2022-06-27T10:13:50Z</time>
      </trkpt>
      <trkpt lat="42.3801410" lon="-3.3098630">
        <ele>970.6</ele>
        <time>2022-06-27T10:13:51Z</time>
      </trkpt>
      <trkpt lat="42.3801090" lon="-3.3098700">
        <ele>970.6</ele>
        <time>2022-06-27T10:13:52Z</time>
      </trkpt>
      <trkpt lat="42.3800770" lon="-3.3098790">
        <ele>970.8</ele>
        <time>2022-06-27T10:13:53Z</time>
      </trkpt>
      <trkpt lat="42.3800440" lon="-3.3098900">
        <ele>970.8</ele>
        <time>2022-06-27T10:13:54Z</time>
      </trkpt>
      <trkpt lat="42.3800080" lon="-3.3099010">
        <ele>971.2</ele>
        <time>2022-06-27T10:13:55Z</time>
      </trkpt>
      <trkpt lat="42.3799730" lon="-3.3099110">
        <ele>971.6</ele>
        <time>2022-06-27T10:13:56Z</time>
      </trkpt>
      <trkpt lat="42.3799370" lon="-3.3099220">
        <ele>971.8</ele>
        <time>2022-06-27T10:13:57Z</time>
      </trkpt>
      <trkpt lat="42.3799020" lon="-3.3099320">
        <ele>972.2</ele>
        <time>2022-06-27T10:13:58Z</time>
      </trkpt>
      <trkpt lat="42.3798660" lon="-3.3099410">
        <ele>972.4</ele>
        <time>2022-06-27T10:13:59Z</time>
      </trkpt>
      <trkpt lat="42.3798280" lon="-3.3099480">
        <ele>972.8</ele>
        <time>2022-06-27T10:14:00Z</time>
      </trkpt>
      <trkpt lat="42.3797900" lon="-3.3099550">
        <ele>972.8</ele>
        <time>2022-06-27T10:14:01Z</time>
      </trkpt>
      <trkpt lat="42.3797520" lon="-3.3099660">
        <ele>973.0</ele>
        <time>2022-06-27T10:14:02Z</time>
      </trkpt>
      <trkpt lat="42.3797150" lon="-3.3099750">
        <ele>973.2</ele>
        <time>2022-06-27T10:14:03Z</time>
      </trkpt>
      <trkpt lat="42.3796790" lon="-3.3099790">
        <ele>973.2</ele>
        <time>2022-06-27T10:14:04Z</time>
      </trkpt>
      <trkpt lat="42.3796430" lon="-3.3099810">
        <ele>973.4</ele>
        <time>2022-06-27T10:14:05Z</time>
      </trkpt>
      <trkpt lat="42.3796060" lon="-3.3099850">
        <ele>973.6</ele>
        <time>2022-06-27T10:14:06Z</time>
      </trkpt>
      <trkpt lat="42.3795680" lon="-3.3099890">
        <ele>974.0</ele>
        <time>2022-06-27T10:14:07Z</time>
      </trkpt>
      <trkpt lat="42.3795320" lon="-3.3099930">
        <ele>974.2</ele>
        <time>2022-06-27T10:14:08Z</time>
      </trkpt>
      <trkpt lat="42.3794960" lon="-3.3099970">
        <ele>974.6</ele>
        <time>2022-06-27T10:14:09Z</time>
      </trkpt>
      <trkpt lat="42.3794600" lon="-3.3100000">
        <ele>974.8</ele>
        <time>2022-06-27T10:14:10Z</time>
      </trkpt>
      <trkpt lat="42.3794240" lon="-3.3100030">
        <ele>975.2</ele>
        <time>2022-06-27T10:14:11Z</time>
      </trkpt>
      <trkpt lat="42.3793880" lon="-3.3100070">
        <ele>975.4</ele>
        <time>2022-06-27T10:14:12Z</time>
      </trkpt>
      <trkpt lat="42.3793520" lon="-3.3100090">
        <ele>975.6</ele>
        <time>2022-06-27T10:14:13Z</time>
      </trkpt>
      <trkpt lat="42.3793180" lon="-3.3100100">
        <ele>975.6</ele>
        <time>2022-06-27T10:14:14Z</time>
      </trkpt>
      <trkpt lat="42.3792820" lon="-3.3100110">
        <ele>976.0</ele>
        <time>2022-06-27T10:14:15Z</time>
      </trkpt>
      <trkpt lat="42.3792460" lon="-3.3100130">
        <ele>976.4</ele>
        <time>2022-06-27T10:14:16Z</time>
      </trkpt>
      <trkpt lat="42.3792110" lon="-3.3100140">
        <ele>976.6</ele>
        <time>2022-06-27T10:14:17Z</time>
      </trkpt>
      <trkpt lat="42.3791760" lon="-3.3100170">
        <ele>976.8</ele>
        <time>2022-06-27T10:14:18Z</time>
      </trkpt>
      <trkpt lat="42.3791410" lon="-3.3100180">
        <ele>977.2</ele>
        <time>2022-06-27T10:14:19Z</time>
      </trkpt>
      <trkpt lat="42.3791070" lon="-3.3100180">
        <ele>977.4</ele>
        <time>2022-06-27T10:14:20Z</time>
      </trkpt>
      <trkpt lat="42.3790710" lon="-3.3100180">
        <ele>977.6</ele>
        <time>2022-06-27T10:14:21Z</time>
      </trkpt>
      <trkpt lat="42.3790370" lon="-3.3100200">
        <ele>977.8</ele>
        <time>2022-06-27T10:14:22Z</time>
      </trkpt>
      <trkpt lat="42.3790030" lon="-3.3100250">
        <ele>978.0</ele>
        <time>2022-06-27T10:14:23Z</time>
      </trkpt>
      <trkpt lat="42.3789700" lon="-3.3100310">
        <ele>978.2</ele>
        <time>2022-06-27T10:14:24Z</time>
      </trkpt>
      <trkpt lat="42.3789380" lon="-3.3100470">
        <ele>978.4</ele>
        <time>2022-06-27T10:14:25Z</time>
      </trkpt>
      <trkpt lat="42.3789050" lon="-3.3100730">
        <ele>978.8</ele>
        <time>2022-06-27T10:14:26Z</time>
      </trkpt>
      <trkpt lat="42.3788790" lon="-3.3101040">
        <ele>979.0</ele>
        <time>2022-06-27T10:14:27Z</time>
      </trkpt>
      <trkpt lat="42.3788540" lon="-3.3101340">
        <ele>979.4</ele>
        <time>2022-06-27T10:14:28Z</time>
      </trkpt>
      <trkpt lat="42.3788350" lon="-3.3101710">
        <ele>979.6</ele>
        <time>2022-06-27T10:14:29Z</time>
      </trkpt>
      <trkpt lat="42.3788230" lon="-3.3102080">
        <ele>979.8</ele>
        <time>2022-06-27T10:14:30Z</time>
      </trkpt>
      <trkpt lat="42.3788160" lon="-3.3102470">
        <ele>980.0</ele>
        <time>2022-06-27T10:14:31Z</time>
      </trkpt>
      <trkpt lat="42.3788150" lon="-3.3102860">
        <ele>980.4</ele>
        <time>2022-06-27T10:14:32Z</time>
      </trkpt>
      <trkpt lat="42.3788170" lon="-3.3103250">
        <ele>980.6</ele>
        <time>2022-06-27T10:14:33Z</time>
      </trkpt>
      <trkpt lat="42.3788230" lon="-3.3103630">
        <ele>981.0</ele>
        <time>2022-06-27T10:14:34Z</time>
      </trkpt>
      <trkpt lat="42.3788310" lon="-3.3103990">
        <ele>981.2</ele>
        <time>2022-06-27T10:14:35Z</time>
      </trkpt>
      <trkpt lat="42.3788400" lon="-3.3104350">
        <ele>981.4</ele>
        <time>2022-06-27T10:14:36Z</time>
      </trkpt>
      <trkpt lat="42.3788510" lon="-3.3104720">
        <ele>981.6</ele>
        <time>2022-06-27T10:14:37Z</time>
      </trkpt>
      <trkpt lat="42.3788620" lon="-3.3105060">
        <ele>981.8</ele>
        <time>2022-06-27T10:14:38Z</time>
      </trkpt>
      <trkpt lat="42.3788720" lon="-3.3105430">
        <ele>982.0</ele>
        <time>2022-06-27T10:14:39Z</time>
      </trkpt>
      <trkpt lat="42.3788820" lon="-3.3105810">
        <ele>982.2</ele>
        <time>2022-06-27T10:14:40Z</time>
      </trkpt>
      <trkpt lat="42.3788920" lon="-3.3106190">
        <ele>982.4</ele>
        <time>2022-06-27T10:14:41Z</time>
      </trkpt>
      <trkpt lat="42.3789050" lon="-3.3106530">
        <ele>982.6</ele>
        <time>2022-06-27T10:14:42Z</time>
      </trkpt>
      <trkpt lat="42.3789200" lon="-3.3106870">
        <ele>982.8</ele>
        <time>2022-06-27T10:14:43Z</time>
      </trkpt>
      <trkpt lat="42.3789350" lon="-3.3107230">
        <ele>983.2</ele>
        <time>2022-06-27T10:14:44Z</time>
      </trkpt>
      <trkpt lat="42.3789510" lon="-3.3107540">
        <ele>983.2</ele>
        <time>2022-06-27T10:14:45Z</time>
      </trkpt>
      <trkpt lat="42.3789690" lon="-3.3107860">
        <ele>983.6</ele>
        <time>2022-06-27T10:14:46Z</time>
      </trkpt>
      <trkpt lat="42.3789860" lon="-3.3108190">
        <ele>983.8</ele>
        <time>2022-06-27T10:14:47Z</time>
      </trkpt>
      <trkpt lat="42.3790030" lon="-3.3108520">
        <ele>984.6</ele>
        <time>2022-06-27T10:14:48Z</time>
      </trkpt>
      <trkpt lat="42.3790210" lon="-3.3108860">
        <ele>985.0</ele>
        <time>2022-06-27T10:14:49Z</time>
      </trkpt>
      <trkpt lat="42.3790410" lon="-3.3109190">
        <ele>985.2</ele>
        <time>2022-06-27T10:14:50Z</time>
      </trkpt>
      <trkpt lat="42.3790580" lon="-3.3109530">
        <ele>985.4</ele>
        <time>2022-06-27T10:14:51Z</time>
      </trkpt>
      <trkpt lat="42.3790740" lon="-3.3109870">
        <ele>985.6</ele>
        <time>2022-06-27T10:14:52Z</time>
      </trkpt>
      <trkpt lat="42.3790910" lon="-3.3110250">
        <ele>986.0</ele>
        <time>2022-06-27T10:14:53Z</time>
      </trkpt>
      <trkpt lat="42.3791080" lon="-3.3110620">
        <ele>986.2</ele>
        <time>2022-06-27T10:14:54Z</time>
      </trkpt>
      <trkpt lat="42.3791260" lon="-3.3110990">
        <ele>986.6</ele>
        <time>2022-06-27T10:14:55Z</time>
      </trkpt>
      <trkpt lat="42.3791440" lon="-3.3111360">
        <ele>987.0</ele>
        <time>2022-06-27T10:14:56Z</time>
      </trkpt>
      <trkpt lat="42.3791630" lon="-3.3111720">
        <ele>987.4</ele>
        <time>2022-06-27T10:14:57Z</time>
      </trkpt>
      <trkpt lat="42.3791810" lon="-3.3112080">
        <ele>987.6</ele>
        <time>2022-06-27T10:14:58Z</time>
      </trkpt>
      <trkpt lat="42.3791980" lon="-3.3112470">
        <ele>987.8</ele>
        <time>2022-06-27T10:14:59Z</time>
      </trkpt>
      <trkpt lat="42.3792150" lon="-3.3112840">
        <ele>988.0</ele>
        <time>2022-06-27T10:15:00Z</time>
      </trkpt>
      <trkpt lat="42.3792330" lon="-3.3113200">
        <ele>988.4</ele>
        <time>2022-06-27T10:15:01Z</time>
      </trkpt>
      <trkpt lat="42.3792500" lon="-3.3113630">
        <ele>988.8</ele>
        <time>2022-06-27T10:15:02Z</time>
      </trkpt>
      <trkpt lat="42.3792700" lon="-3.3114130">
        <ele>989.0</ele>
        <time>2022-06-27T10:15:03Z</time>
      </trkpt>
      <trkpt lat="42.3792860" lon="-3.3114550">
        <ele>989.2</ele>
        <time>2022-06-27T10:15:04Z</time>
      </trkpt>
      <trkpt lat="42.3793010" lon="-3.3114990">
        <ele>989.4</ele>
        <time>2022-06-27T10:15:05Z</time>
      </trkpt>
      <trkpt lat="42.3793170" lon="-3.3115420">
        <ele>989.4</ele>
        <time>2022-06-27T10:15:06Z</time>
      </trkpt>
      <trkpt lat="42.3793330" lon="-3.3115850">
        <ele>989.6</ele>
        <time>2022-06-27T10:15:07Z</time>
      </trkpt>
      <trkpt lat="42.3793480" lon="-3.3116280">
        <ele>989.8</ele>
        <time>2022-06-27T10:15:08Z</time>
      </trkpt>
      <trkpt lat="42.3793620" lon="-3.3116710">
        <ele>990.2</ele>
        <time>2022-06-27T10:15:09Z</time>
      </trkpt>
      <trkpt lat="42.3793750" lon="-3.3117160">
        <ele>990.2</ele>
        <time>2022-06-27T10:15:10Z</time>
      </trkpt>
      <trkpt lat="42.3793870" lon="-3.3117620">
        <ele>990.4</ele>
        <time>2022-06-27T10:15:11Z</time>
      </trkpt>
      <trkpt lat="42.3793950" lon="-3.3117980">
        <ele>990.8</ele>
        <time>2022-06-27T10:15:12Z</time>
      </trkpt>
      <trkpt lat="42.3794090" lon="-3.3118530">
        <ele>991.0</ele>
        <time>2022-06-27T10:15:13Z</time>
      </trkpt>
      <trkpt lat="42.3794200" lon="-3.3118980">
        <ele>991.2</ele>
        <time>2022-06-27T10:15:14Z</time>
      </trkpt>
      <trkpt lat="42.3794290" lon="-3.3119450">
        <ele>991.2</ele>
        <time>2022-06-27T10:15:15Z</time>
      </trkpt>
      <trkpt lat="42.3794390" lon="-3.3119910">
        <ele>991.6</ele>
        <time>2022-06-27T10:15:16Z</time>
      </trkpt>
      <trkpt lat="42.3794490" lon="-3.3120370">
        <ele>991.6</ele>
        <time>2022-06-27T10:15:17Z</time>
      </trkpt>
      <trkpt lat="42.3794560" lon="-3.3120830">
        <ele>991.8</ele>
        <time>2022-06-27T10:15:18Z</time>
      </trkpt>
      <trkpt lat="42.3794630" lon="-3.3121300">
        <ele>992.0</ele>
        <time>2022-06-27T10:15:19Z</time>
      </trkpt>
      <trkpt lat="42.3794700" lon="-3.3121770">
        <ele>992.0</ele>
        <time>2022-06-27T10:15:20Z</time>
      </trkpt>
      <trkpt lat="42.3794780" lon="-3.3122250">
        <ele>992.4</ele>
        <time>2022-06-27T10:15:21Z</time>
      </trkpt>
      <trkpt lat="42.3794880" lon="-3.3122720">
        <ele>992.6</ele>
        <time>2022-06-27T10:15:22Z</time>
      </trkpt>
      <trkpt lat="42.3794980" lon="-3.3123170">
        <ele>993.0</ele>
        <time>2022-06-27T10:15:23Z</time>
      </trkpt>
      <trkpt lat="42.3795040" lon="-3.3123650">
        <ele>993.2</ele>
        <time>2022-06-27T10:15:24Z</time>
      </trkpt>
      <trkpt lat="42.3795110" lon="-3.3124130">
        <ele>993.6</ele>
        <time>2022-06-27T10:15:25Z</time>
      </trkpt>
      <trkpt lat="42.3795200" lon="-3.3124620">
        <ele>993.8</ele>
        <time>2022-06-27T10:15:26Z</time>
      </trkpt>
      <trkpt lat="42.3795270" lon="-3.3125110">
        <ele>994.0</ele>
        <time>2022-06-27T10:15:27Z</time>
      </trkpt>
      <trkpt lat="42.3795310" lon="-3.3125490">
        <ele>994.4</ele>
        <time>2022-06-27T10:15:28Z</time>
      </trkpt>
      <trkpt lat="42.3795400" lon="-3.3126050">
        <ele>994.4</ele>
        <time>2022-06-27T10:15:29Z</time>
      </trkpt>
      <trkpt lat="42.3795490" lon="-3.3126530">
        <ele>994.8</ele>
        <time>2022-06-27T10:15:30Z</time>
      </trkpt>
      <trkpt lat="42.3795550" lon="-3.3126990">
        <ele>994.8</ele>
        <time>2022-06-27T10:15:31Z</time>
      </trkpt>
      <trkpt lat="42.3795620" lon="-3.3127450">
        <ele>995.2</ele>
        <time>2022-06-27T10:15:32Z</time>
      </trkpt>
      <trkpt lat="42.3795660" lon="-3.3127840">
        <ele>995.4</ele>
        <time>2022-06-27T10:15:33Z</time>
      </trkpt>
      <trkpt lat="42.3795710" lon="-3.3128300">
        <ele>995.6</ele>
        <time>2022-06-27T10:15:34Z</time>
      </trkpt>
      <trkpt lat="42.3795740" lon="-3.3128780">
        <ele>996.0</ele>
        <time>2022-06-27T10:15:35Z</time>
      </trkpt>
      <trkpt lat="42.3795790" lon="-3.3129360">
        <ele>996.2</ele>
        <time>2022-06-27T10:15:36Z</time>
      </trkpt>
      <trkpt lat="42.3795840" lon="-3.3129820">
        <ele>996.4</ele>
        <time>2022-06-27T10:15:37Z</time>
      </trkpt>
      <trkpt lat="42.3795880" lon="-3.3130200">
        <ele>996.6</ele>
        <time>2022-06-27T10:15:38Z</time>
      </trkpt>
      <trkpt lat="42.3795930" lon="-3.3130670">
        <ele>996.8</ele>
        <time>2022-06-27T10:15:39Z</time>
      </trkpt>
      <trkpt lat="42.3795980" lon="-3.3131230">
        <ele>997.0</ele>
        <time>2022-06-27T10:15:40Z</time>
      </trkpt>
      <trkpt lat="42.3796010" lon="-3.3131600">
        <ele>997.2</ele>
        <time>2022-06-27T10:15:41Z</time>
      </trkpt>
      <trkpt lat="42.3796040" lon="-3.3132160">
        <ele>997.4</ele>
        <time>2022-06-27T10:15:42Z</time>
      </trkpt>
      <trkpt lat="42.3796040" lon="-3.3132560">
        <ele>997.6</ele>
        <time>2022-06-27T10:15:43Z</time>
      </trkpt>
      <trkpt lat="42.3796050" lon="-3.3133040">
        <ele>998.0</ele>
        <time>2022-06-27T10:15:44Z</time>
      </trkpt>
      <trkpt lat="42.3796060" lon="-3.3133610">
        <ele>998.2</ele>
        <time>2022-06-27T10:15:45Z</time>
      </trkpt>
      <trkpt lat="42.3796070" lon="-3.3134080">
        <ele>998.4</ele>
        <time>2022-06-27T10:15:46Z</time>
      </trkpt>
      <trkpt lat="42.3796080" lon="-3.3134450">
        <ele>998.6</ele>
        <time>2022-06-27T10:15:47Z</time>
      </trkpt>
      <trkpt lat="42.3796090" lon="-3.3134920">
        <ele>998.8</ele>
        <time>2022-06-27T10:15:48Z</time>
      </trkpt>
      <trkpt lat="42.3796090" lon="-3.3135410">
        <ele>999.0</ele>
        <time>2022-06-27T10:15:49Z</time>
      </trkpt>
      <trkpt lat="42.3796090" lon="-3.3135990">
        <ele>999.6</ele>
        <time>2022-06-27T10:15:50Z</time>
      </trkpt>
      <trkpt lat="42.3796060" lon="-3.3136470">
        <ele>1000.0</ele>
        <time>2022-06-27T10:15:51Z</time>
      </trkpt>
      <trkpt lat="42.3796030" lon="-3.3136850">
        <ele>1000.0</ele>
        <time>2022-06-27T10:15:52Z</time>
      </trkpt>
      <trkpt lat="42.3796030" lon="-3.3137320">
        <ele>1000.2</ele>
        <time>2022-06-27T10:15:53Z</time>
      </trkpt>
      <trkpt lat="42.3796020" lon="-3.3137810">
        <ele>1000.4</ele>
        <time>2022-06-27T10:15:54Z</time>
      </trkpt>
      <trkpt lat="42.3796000" lon="-3.3138300">
        <ele>1000.6</ele>
        <time>2022-06-27T10:15:55Z</time>
      </trkpt>
      <trkpt lat="42.3795970" lon="-3.3138780">
        <ele>1000.8</ele>
        <time>2022-06-27T10:15:56Z</time>
      </trkpt>
      <trkpt lat="42.3795910" lon="-3.3139360">
        <ele>1001.2</ele>
        <time>2022-06-27T10:15:57Z</time>
      </trkpt>
      <trkpt lat="42.3795870" lon="-3.3139850">
        <ele>1001.6</ele>
        <time>2022-06-27T10:15:58Z</time>
      </trkpt>
      <trkpt lat="42.3795850" lon="-3.3140330">
        <ele>1001.8</ele>
        <time>2022-06-27T10:15:59Z</time>
      </trkpt>
      <trkpt lat="42.3795820" lon="-3.3140720">
        <ele>1002.0</ele>
        <time>2022-06-27T10:16:00Z</time>
      </trkpt>
      <trkpt lat="42.3795790" lon="-3.3141200">
        <ele>1002.2</ele>
        <time>2022-06-27T10:16:01Z</time>
      </trkpt>
      <trkpt lat="42.3795740" lon="-3.3141790">
        <ele>1002.4</ele>
        <time>2022-06-27T10:16:02Z</time>
      </trkpt>
      <trkpt lat="42.3795700" lon="-3.3142290">
        <ele>1002.4</ele>
        <time>2022-06-27T10:16:03Z</time>
      </trkpt>
      <trkpt lat="42.3795680" lon="-3.3142770">
        <ele>1002.6</ele>
        <time>2022-06-27T10:16:04Z</time>
      </trkpt>
      <trkpt lat="42.3795640" lon="-3.3143240">
        <ele>1002.8</ele>
        <time>2022-06-27T10:16:05Z</time>
      </trkpt>
      <trkpt lat="42.3795610" lon="-3.3143630">
        <ele>1002.8</ele>
        <time>2022-06-27T10:16:06Z</time>
      </trkpt>
      <trkpt lat="42.3795570" lon="-3.3144200">
        <ele>1003.2</ele>
        <time>2022-06-27T10:16:07Z</time>
      </trkpt>
      <trkpt lat="42.3795540" lon="-3.3144690">
        <ele>1003.2</ele>
        <time>2022-06-27T10:16:08Z</time>
      </trkpt>
      <trkpt lat="42.3795490" lon="-3.3145190">
        <ele>1003.6</ele>
        <time>2022-06-27T10:16:09Z</time>
      </trkpt>
      <trkpt lat="42.3795450" lon="-3.3145670">
        <ele>1003.6</ele>
        <time>2022-06-27T10:16:10Z</time>
      </trkpt>
      <trkpt lat="42.3795440" lon="-3.3146040">
        <ele>1004.0</ele>
        <time>2022-06-27T10:16:11Z</time>
      </trkpt>
      <trkpt lat="42.3795430" lon="-3.3146510">
        <ele>1004.6</ele>
        <time>2022-06-27T10:16:12Z</time>
      </trkpt>
      <trkpt lat="42.3795380" lon="-3.3147090">
        <ele>1004.8</ele>
        <time>2022-06-27T10:16:13Z</time>
      </trkpt>
      <trkpt lat="42.3795340" lon="-3.3147560">
        <ele>1005.0</ele>
        <time>2022-06-27T10:16:14Z</time>
      </trkpt>
      <trkpt lat="42.3795320" lon="-3.3148020">
        <ele>1005.2</ele>
        <time>2022-06-27T10:16:15Z</time>
      </trkpt>
      <trkpt lat="42.3795300" lon="-3.3148380">
        <ele>1005.6</ele>
        <time>2022-06-27T10:16:16Z</time>
      </trkpt>
      <trkpt lat="42.3795270" lon="-3.3148940">
        <ele>1005.8</ele>
        <time>2022-06-27T10:16:17Z</time>
      </trkpt>
      <trkpt lat="42.3795230" lon="-3.3149400">
        <ele>1006.2</ele>
        <time>2022-06-27T10:16:18Z</time>
      </trkpt>
      <trkpt lat="42.3795200" lon="-3.3149870">
        <ele>1006.2</ele>
        <time>2022-06-27T10:16:19Z</time>
      </trkpt>
      <trkpt lat="42.3795150" lon="-3.3150340">
        <ele>1006.4</ele>
        <time>2022-06-27T10:16:20Z</time>
      </trkpt>
      <trkpt lat="42.3795130" lon="-3.3150720">
        <ele>1006.6</ele>
        <time>2022-06-27T10:16:21Z</time>
      </trkpt>
      <trkpt lat="42.3795100" lon="-3.3151260">
        <ele>1006.8</ele>
        <time>2022-06-27T10:16:22Z</time>
      </trkpt>
      <trkpt lat="42.3795050" lon="-3.3151720">
        <ele>1007.0</ele>
        <time>2022-06-27T10:16:23Z</time>
      </trkpt>
      <trkpt lat="42.3795010" lon="-3.3152190">
        <ele>1007.2</ele>
        <time>2022-06-27T10:16:24Z</time>
      </trkpt>
      <trkpt lat="42.3794970" lon="-3.3152660">
        <ele>1007.4</ele>
        <time>2022-06-27T10:16:25Z</time>
      </trkpt>
      <trkpt lat="42.3794930" lon="-3.3153150">
        <ele>1007.6</ele>
        <time>2022-06-27T10:16:26Z</time>
      </trkpt>
      <trkpt lat="42.3794900" lon="-3.3153640">
        <ele>1007.8</ele>
        <time>2022-06-27T10:16:27Z</time>
      </trkpt>
      <trkpt lat="42.3794870" lon="-3.3154010">
        <ele>1008.0</ele>
        <time>2022-06-27T10:16:28Z</time>
      </trkpt>
      <trkpt lat="42.3794820" lon="-3.3154590">
        <ele>1008.2</ele>
        <time>2022-06-27T10:16:29Z</time>
      </trkpt>
      <trkpt lat="42.3794810" lon="-3.3155050">
        <ele>1008.6</ele>
        <time>2022-06-27T10:16:30Z</time>
      </trkpt>
      <trkpt lat="42.3794780" lon="-3.3155520">
        <ele>1008.8</ele>
        <time>2022-06-27T10:16:31Z</time>
      </trkpt>
      <trkpt lat="42.3794750" lon="-3.3155900">
        <ele>1009.2</ele>
        <time>2022-06-27T10:16:32Z</time>
      </trkpt>
      <trkpt lat="42.3794710" lon="-3.3156470">
        <ele>1009.4</ele>
        <time>2022-06-27T10:16:33Z</time>
      </trkpt>
      <trkpt lat="42.3794670" lon="-3.3156940">
        <ele>1009.6</ele>
        <time>2022-06-27T10:16:34Z</time>
      </trkpt>
      <trkpt lat="42.3794630" lon="-3.3157400">
        <ele>1009.8</ele>
        <time>2022-06-27T10:16:35Z</time>
      </trkpt>
      <trkpt lat="42.3794600" lon="-3.3157860">
        <ele>1010.0</ele>
        <time>2022-06-27T10:16:36Z</time>
      </trkpt>
      <trkpt lat="42.3794570" lon="-3.3158320">
        <ele>1010.2</ele>
        <time>2022-06-27T10:16:37Z</time>
      </trkpt>
      <trkpt lat="42.3794540" lon="-3.3158780">
        <ele>1010.4</ele>
        <time>2022-06-27T10:16:38Z</time>
      </trkpt>
      <trkpt lat="42.3794500" lon="-3.3159250">
        <ele>1011.0</ele>
        <time>2022-06-27T10:16:39Z</time>
      </trkpt>
      <trkpt lat="42.3794460" lon="-3.3159720">
        <ele>1011.2</ele>
        <time>2022-06-27T10:16:40Z</time>
      </trkpt>
      <trkpt lat="42.3794420" lon="-3.3160180">
        <ele>1011.4</ele>
        <time>2022-06-27T10:16:41Z</time>
      </trkpt>
      <trkpt lat="42.3794360" lon="-3.3160630">
        <ele>1011.8</ele>
        <time>2022-06-27T10:16:42Z</time>
      </trkpt>
      <trkpt lat="42.3794310" lon="-3.3161080">
        <ele>1012.0</ele>
        <time>2022-06-27T10:16:43Z</time>
      </trkpt>
      <trkpt lat="42.3794260" lon="-3.3161570">
        <ele>1012.2</ele>
        <time>2022-06-27T10:16:44Z</time>
      </trkpt>
      <trkpt lat="42.3794210" lon="-3.3162030">
        <ele>1012.4</ele>
        <time>2022-06-27T10:16:45Z</time>
      </trkpt>
      <trkpt lat="42.3794160" lon="-3.3162500">
        <ele>1013.0</ele>
        <time>2022-06-27T10:16:46Z</time>
      </trkpt>
      <trkpt lat="42.3794120" lon="-3.3162950">
        <ele>1013.0</ele>
        <time>2022-06-27T10:16:47Z</time>
      </trkpt>
      <trkpt lat="42.3794090" lon="-3.3163400">
        <ele>1013.2</ele>
        <time>2022-06-27T10:16:48Z</time>
      </trkpt>
      <trkpt lat="42.3794050" lon="-3.3163850">
        <ele>1013.2</ele>
        <time>2022-06-27T10:16:49Z</time>
      </trkpt>
      <trkpt lat="42.3794020" lon="-3.3164320">
        <ele>1013.4</ele>
        <time>2022-06-27T10:16:50Z</time>
      </trkpt>
      <trkpt lat="42.3793970" lon="-3.3164790">
        <ele>1013.8</ele>
        <time>2022-06-27T10:16:51Z</time>
      </trkpt>
      <trkpt lat="42.3793910" lon="-3.3165280">
        <ele>1013.8</ele>
        <time>2022-06-27T10:16:52Z</time>
      </trkpt>
      <trkpt lat="42.3793860" lon="-3.3165750">
        <ele>1014.0</ele>
        <time>2022-06-27T10:16:53Z</time>
      </trkpt>
      <trkpt lat="42.3793810" lon="-3.3166230">
        <ele>1014.2</ele>
        <time>2022-06-27T10:16:54Z</time>
      </trkpt>
      <trkpt lat="42.3793750" lon="-3.3166700">
        <ele>1014.4</ele>
        <time>2022-06-27T10:16:55Z</time>
      </trkpt>
      <trkpt lat="42.3793700" lon="-3.3167180">
        <ele>1014.8</ele>
        <time>2022-06-27T10:16:56Z</time>
      </trkpt>
      <trkpt lat="42.3793660" lon="-3.3167630">
        <ele>1015.0</ele>
        <time>2022-06-27T10:16:57Z</time>
      </trkpt>
      <trkpt lat="42.3793620" lon="-3.3168080">
        <ele>1015.4</ele>
        <time>2022-06-27T10:16:58Z</time>
      </trkpt>
      <trkpt lat="42.3793550" lon="-3.3168550">
        <ele>1015.4</ele>
        <time>2022-06-27T10:16:59Z</time>
      </trkpt>
      <trkpt lat="42.3793500" lon="-3.3169010">
        <ele>1015.6</ele>
        <time>2022-06-27T10:17:00Z</time>
      </trkpt>
      <trkpt lat="42.3793470" lon="-3.3169480">
        <ele>1015.8</ele>
        <time>2022-06-27T10:17:01Z</time>
      </trkpt>
      <trkpt lat="42.3793440" lon="-3.3169930">
        <ele>1016.0</ele>
        <time>2022-06-27T10:17:02Z</time>
      </trkpt>
      <trkpt lat="42.3793400" lon="-3.3170410">
        <ele>1016.2</ele>
        <time>2022-06-27T10:17:03Z</time>
      </trkpt>
      <trkpt lat="42.3793370" lon="-3.3170870">
        <ele>1016.4</ele>
        <time>2022-06-27T10:17:04Z</time>
      </trkpt>
      <trkpt lat="42.3793340" lon="-3.3171330">
        <ele>1016.6</ele>
        <time>2022-06-27T10:17:05Z</time>
      </trkpt>
      <trkpt lat="42.3793320" lon="-3.3171780">
        <ele>1016.6</ele>
        <time>2022-06-27T10:17:06Z</time>
      </trkpt>
      <trkpt lat="42.3793280" lon="-3.3172240">
        <ele>1017.0</ele>
        <time>2022-06-27T10:17:07Z</time>
      </trkpt>
      <trkpt lat="42.3793250" lon="-3.3172680">
        <ele>1017.2</ele>
        <time>2022-06-27T10:17:08Z</time>
      </trkpt>
      <trkpt lat="42.3793220" lon="-3.3173140">
        <ele>1017.4</ele>
        <time>2022-06-27T10:17:09Z</time>
      </trkpt>
      <trkpt lat="42.3793210" lon="-3.3173560">
        <ele>1017.8</ele>
        <time>2022-06-27T10:17:10Z</time>
      </trkpt>
      <trkpt lat="42.3793190" lon="-3.3174010">
        <ele>1018.2</ele>
        <time>2022-06-27T10:17:11Z</time>
      </trkpt>
      <trkpt lat="42.3793170" lon="-3.3174460">
        <ele>1018.4</ele>
        <time>2022-06-27T10:17:12Z</time>
      </trkpt>
      <trkpt lat="42.3793150" lon="-3.3174900">
        <ele>1018.8</ele>
        <time>2022-06-27T10:17:13Z</time>
      </trkpt>
      <trkpt lat="42.3793130" lon="-3.3175330">
        <ele>1019.0</ele>
        <time>2022-06-27T10:17:14Z</time>
      </trkpt>
      <trkpt lat="42.3793100" lon="-3.3175800">
        <ele>1019.2</ele>
        <time>2022-06-27T10:17:15Z</time>
      </trkpt>
      <trkpt lat="42.3793080" lon="-3.3176260">
        <ele>1019.4</ele>
        <time>2022-06-27T10:17:16Z</time>
      </trkpt>
      <trkpt lat="42.3793080" lon="-3.3176700">
        <ele>1019.4</ele>
        <time>2022-06-27T10:17:17Z</time>
      </trkpt>
      <trkpt lat="42.3793070" lon="-3.3177160">
        <ele>1019.6</ele>
        <time>2022-06-27T10:17:18Z</time>
      </trkpt>
      <trkpt lat="42.3793050" lon="-3.3177630">
        <ele>1019.8</ele>
        <time>2022-06-27T10:17:19Z</time>
      </trkpt>
      <trkpt lat="42.3793040" lon="-3.3178100">
        <ele>1020.2</ele>
        <time>2022-06-27T10:17:20Z</time>
      </trkpt>
      <trkpt lat="42.3793050" lon="-3.3178560">
        <ele>1020.4</ele>
        <time>2022-06-27T10:17:21Z</time>
      </trkpt>
      <trkpt lat="42.3793060" lon="-3.3179000">
        <ele>1020.6</ele>
        <time>2022-06-27T10:17:22Z</time>
      </trkpt>
      <trkpt lat="42.3793060" lon="-3.3179440">
        <ele>1020.8</ele>
        <time>2022-06-27T10:17:23Z</time>
      </trkpt>
      <trkpt lat="42.3793050" lon="-3.3179870">
        <ele>1021.0</ele>
        <time>2022-06-27T10:17:24Z</time>
      </trkpt>
      <trkpt lat="42.3793030" lon="-3.3180320">
        <ele>1021.2</ele>
        <time>2022-06-27T10:17:25Z</time>
      </trkpt>
      <trkpt lat="42.3793010" lon="-3.3180780">
        <ele>1021.4</ele>
        <time>2022-06-27T10:17:26Z</time>
      </trkpt>
      <trkpt lat="42.3792990" lon="-3.3181250">
        <ele>1021.6</ele>
        <time>2022-06-27T10:17:27Z</time>
      </trkpt>
      <trkpt lat="42.3792980" lon="-3.3181720">
        <ele>1021.8</ele>
        <time>2022-06-27T10:17:28Z</time>
      </trkpt>
      <trkpt lat="42.3792970" lon="-3.3182160">
        <ele>1022.0</ele>
        <time>2022-06-27T10:17:29Z</time>
      </trkpt>
      <trkpt lat="42.3792950" lon="-3.3182610">
        <ele>1022.2</ele>
        <time>2022-06-27T10:17:30Z</time>
      </trkpt>
      <trkpt lat="42.3792910" lon="-3.3183070">
        <ele>1022.6</ele>
        <time>2022-06-27T10:17:31Z</time>
      </trkpt>
      <trkpt lat="42.3792860" lon="-3.3183510">
        <ele>1023.0</ele>
        <time>2022-06-27T10:17:32Z</time>
      </trkpt>
      <trkpt lat="42.3792780" lon="-3.3183950">
        <ele>1023.2</ele>
        <time>2022-06-27T10:17:33Z</time>
      </trkpt>
      <trkpt lat="42.3792710" lon="-3.3184410">
        <ele>1023.4</ele>
        <time>2022-06-27T10:17:34Z</time>
      </trkpt>
      <trkpt lat="42.3792650" lon="-3.3184860">
        <ele>1023.6</ele>
        <time>2022-06-27T10:17:35Z</time>
      </trkpt>
      <trkpt lat="42.3792570" lon="-3.3185300">
        <ele>1024.0</ele>
        <time>2022-06-27T10:17:36Z</time>
      </trkpt>
      <trkpt lat="42.3792440" lon="-3.3185750">
        <ele>1024.2</ele>
        <time>2022-06-27T10:17:37Z</time>
      </trkpt>
      <trkpt lat="42.3792310" lon="-3.3186200">
        <ele>1024.4</ele>
        <time>2022-06-27T10:17:38Z</time>
      </trkpt>
      <trkpt lat="42.3792190" lon="-3.3186640">
        <ele>1024.6</ele>
        <time>2022-06-27T10:17:39Z</time>
      </trkpt>
      <trkpt lat="42.3792070" lon="-3.3187090">
        <ele>1024.8</ele>
        <time>2022-06-27T10:17:40Z</time>
      </trkpt>
      <trkpt lat="42.3791970" lon="-3.3187510">
        <ele>1025.2</ele>
        <time>2022-06-27T10:17:41Z</time>
      </trkpt>
      <trkpt lat="42.3791870" lon="-3.3187950">
        <ele>1025.4</ele>
        <time>2022-06-27T10:17:42Z</time>
      </trkpt>
      <trkpt lat="42.3791770" lon="-3.3188380">
        <ele>1025.8</ele>
        <time>2022-06-27T10:17:43Z</time>
      </trkpt>
      <trkpt lat="42.3791660" lon="-3.3188840">
        <ele>1026.0</ele>
        <time>2022-06-27T10:17:44Z</time>
      </trkpt>
      <trkpt lat="42.3791550" lon="-3.3189260">
        <ele>1026.2</ele>
        <time>2022-06-27T10:17:45Z</time>
      </trkpt>
      <trkpt lat="42.3791430" lon="-3.3189690">
        <ele>1026.4</ele>
        <time>2022-06-27T10:17:46Z</time>
      </trkpt>
      <trkpt lat="42.3791310" lon="-3.3190140">
        <ele>1026.6</ele>
        <time>2022-06-27T10:17:47Z</time>
      </trkpt>
      <trkpt lat="42.3791150" lon="-3.3190600">
        <ele>1026.8</ele>
        <time>2022-06-27T10:17:48Z</time>
      </trkpt>
      <trkpt lat="42.3791020" lon="-3.3191060">
        <ele>1027.2</ele>
        <time>2022-06-27T10:17:49Z</time>
      </trkpt>
      <trkpt lat="42.3790890" lon="-3.3191510">
        <ele>1027.4</ele>
        <time>2022-06-27T10:17:50Z</time>
      </trkpt>
      <trkpt lat="42.3790770" lon="-3.3191960">
        <ele>1027.8</ele>
        <time>2022-06-27T10:17:51Z</time>
      </trkpt>
      <trkpt lat="42.3790650" lon="-3.3192430">
        <ele>1027.8</ele>
        <time>2022-06-27T10:17:52Z</time>
      </trkpt>
      <trkpt lat="42.3790540" lon="-3.3192870">
        <ele>1028.2</ele>
        <time>2022-06-27T10:17:53Z</time>
      </trkpt>
      <trkpt lat="42.3790420" lon="-3.3193310">
        <ele>1028.2</ele>
        <time>2022-06-27T10:17:54Z</time>
      </trkpt>
      <trkpt lat="42.3790320" lon="-3.3193740">
        <ele>1028.4</ele>
        <time>2022-06-27T10:17:55Z</time>
      </trkpt>
      <trkpt lat="42.3790170" lon="-3.3194190">
        <ele>1028.4</ele>
        <time>2022-06-27T10:17:56Z</time>
      </trkpt>
      <trkpt lat="42.3790050" lon="-3.3194620">
        <ele>1028.6</ele>
        <time>2022-06-27T10:17:57Z</time>
      </trkpt>
      <trkpt lat="42.3789930" lon="-3.3195050">
        <ele>1029.2</ele>
        <time>2022-06-27T10:17:58Z</time>
      </trkpt>
      <trkpt lat="42.3789800" lon="-3.3195500">
        <ele>1029.4</ele>
        <time>2022-06-27T10:17:59Z</time>
      </trkpt>
      <trkpt lat="42.3789670" lon="-3.3195950">
        <ele>1029.6</ele>
        <time>2022-06-27T10:18:00Z</time>
      </trkpt>
      <trkpt lat="42.3789520" lon="-3.3196410">
        <ele>1029.8</ele>
        <time>2022-06-27T10:18:01Z</time>
      </trkpt>
      <trkpt lat="42.3789390" lon="-3.3196840">
        <ele>1029.8</ele>
        <time>2022-06-27T10:18:02Z</time>
      </trkpt>
      <trkpt lat="42.3789240" lon="-3.3197250">
        <ele>1030.0</ele>
        <time>2022-06-27T10:18:03Z</time>
      </trkpt>
      <trkpt lat="42.3789090" lon="-3.3197680">
        <ele>1030.4</ele>
        <time>2022-06-27T10:18:04Z</time>
      </trkpt>
      <trkpt lat="42.3788950" lon="-3.3198130">
        <ele>1030.8</ele>
        <time>2022-06-27T10:18:05Z</time>
      </trkpt>
      <trkpt lat="42.3788810" lon="-3.3198560">
        <ele>1030.8</ele>
        <time>2022-06-27T10:18:06Z</time>
      </trkpt>
      <trkpt lat="42.3788670" lon="-3.3198970">
        <ele>1031.2</ele>
        <time>2022-06-27T10:18:07Z</time>
      </trkpt>
      <trkpt lat="42.3788510" lon="-3.3199410">
        <ele>1031.2</ele>
        <time>2022-06-27T10:18:08Z</time>
      </trkpt>
      <trkpt lat="42.3788360" lon="-3.3199840">
        <ele>1031.4</ele>
        <time>2022-06-27T10:18:09Z</time>
      </trkpt>
      <trkpt lat="42.3788210" lon="-3.3200250">
        <ele>1031.6</ele>
        <time>2022-06-27T10:18:10Z</time>
      </trkpt>
      <trkpt lat="42.3788050" lon="-3.3200650">
        <ele>1031.8</ele>
        <time>2022-06-27T10:18:11Z</time>
      </trkpt>
      <trkpt lat="42.3787870" lon="-3.3201050">
        <ele>1032.0</ele>
        <time>2022-06-27T10:18:12Z</time>
      </trkpt>
      <trkpt lat="42.3787700" lon="-3.3201460">
        <ele>1032.2</ele>
        <time>2022-06-27T10:18:13Z</time>
      </trkpt>
      <trkpt lat="42.3787530" lon="-3.3201850">
        <ele>1032.4</ele>
        <time>2022-06-27T10:18:14Z</time>
      </trkpt>
      <trkpt lat="42.3787370" lon="-3.3202210">
        <ele>1032.8</ele>
        <time>2022-06-27T10:18:15Z</time>
      </trkpt>
      <trkpt lat="42.3787190" lon="-3.3202630">
        <ele>1033.2</ele>
        <time>2022-06-27T10:18:16Z</time>
      </trkpt>
      <trkpt lat="42.3787020" lon="-3.3203030">
        <ele>1033.2</ele>
        <time>2022-06-27T10:18:17Z</time>
      </trkpt>
      <trkpt lat="42.3786870" lon="-3.3203410">
        <ele>1033.4</ele>
        <time>2022-06-27T10:18:18Z</time>
      </trkpt>
      <trkpt lat="42.3786700" lon="-3.3203790">
        <ele>1033.6</ele>
        <time>2022-06-27T10:18:19Z</time>
      </trkpt>
      <trkpt lat="42.3786550" lon="-3.3204170">
        <ele>1033.8</ele>
        <time>2022-06-27T10:18:20Z</time>
      </trkpt>
      <trkpt lat="42.3786380" lon="-3.3204540">
        <ele>1034.0</ele>
        <time>2022-06-27T10:18:21Z</time>
      </trkpt>
      <trkpt lat="42.3786190" lon="-3.3204930">
        <ele>1034.2</ele>
        <time>2022-06-27T10:18:22Z</time>
      </trkpt>
      <trkpt lat="42.3786010" lon="-3.3205320">
        <ele>1034.6</ele>
        <time>2022-06-27T10:18:23Z</time>
      </trkpt>
      <trkpt lat="42.3785850" lon="-3.3205700">
        <ele>1034.6</ele>
        <time>2022-06-27T10:18:24Z</time>
      </trkpt>
      <trkpt lat="42.3785680" lon="-3.3206110">
        <ele>1035.0</ele>
        <time>2022-06-27T10:18:25Z</time>
      </trkpt>
      <trkpt lat="42.3785510" lon="-3.3206520">
        <ele>1035.0</ele>
        <time>2022-06-27T10:18:26Z</time>
      </trkpt>
      <trkpt lat="42.3785350" lon="-3.3206920">
        <ele>1035.4</ele>
        <time>2022-06-27T10:18:27Z</time>
      </trkpt>
      <trkpt lat="42.3785200" lon="-3.3207320">
        <ele>1035.8</ele>
        <time>2022-06-27T10:18:28Z</time>
      </trkpt>
      <trkpt lat="42.3785040" lon="-3.3207710">
        <ele>1036.0</ele>
        <time>2022-06-27T10:18:29Z</time>
      </trkpt>
      <trkpt lat="42.3784870" lon="-3.3208130">
        <ele>1036.2</ele>
        <time>2022-06-27T10:18:30Z</time>
      </trkpt>
      <trkpt lat="42.3784710" lon="-3.3208510">
        <ele>1036.2</ele>
        <time>2022-06-27T10:18:31Z</time>
      </trkpt>
      <trkpt lat="42.3784540" lon="-3.3208920">
        <ele>1036.4</ele>
        <time>2022-06-27T10:18:32Z</time>
      </trkpt>
      <trkpt lat="42.3784380" lon="-3.3209310">
        <ele>1036.6</ele>
        <time>2022-06-27T10:18:33Z</time>
      </trkpt>
      <trkpt lat="42.3784210" lon="-3.3209690">
        <ele>1037.2</ele>
        <time>2022-06-27T10:18:34Z</time>
      </trkpt>
      <trkpt lat="42.3784040" lon="-3.3210080">
        <ele>1037.6</ele>
        <time>2022-06-27T10:18:35Z</time>
      </trkpt>
      <trkpt lat="42.3783860" lon="-3.3210450">
        <ele>1037.6</ele>
        <time>2022-06-27T10:18:36Z</time>
      </trkpt>
      <trkpt lat="42.3783710" lon="-3.3210830">
        <ele>1038.0</ele>
        <time>2022-06-27T10:18:37Z</time>
      </trkpt>
      <trkpt lat="42.3783550" lon="-3.3211230">
        <ele>1038.2</ele>
        <time>2022-06-27T10:18:38Z</time>
      </trkpt>
      <trkpt lat="42.3783390" lon="-3.3211610">
        <ele>1038.4</ele>
        <time>2022-06-27T10:18:39Z</time>
      </trkpt>
      <trkpt lat="42.3783230" lon="-3.3212000">
        <ele>1038.6</ele>
        <time>2022-06-27T10:18:40Z</time>
      </trkpt>
      <trkpt lat="42.3783070" lon="-3.3212390">
        <ele>1038.8</ele>
        <time>2022-06-27T10:18:41Z</time>
      </trkpt>
      <trkpt lat="42.3782910" lon="-3.3212750">
        <ele>1039.0</ele>
        <time>2022-06-27T10:18:42Z</time>
      </trkpt>
      <trkpt lat="42.3782750" lon="-3.3213160">
        <ele>1039.4</ele>
        <time>2022-06-27T10:18:43Z</time>
      </trkpt>
      <trkpt lat="42.3782620" lon="-3.3213560">
        <ele>1039.6</ele>
        <time>2022-06-27T10:18:44Z</time>
      </trkpt>
      <trkpt lat="42.3782470" lon="-3.3213970">
        <ele>1039.8</ele>
        <time>2022-06-27T10:18:45Z</time>
      </trkpt>
      <trkpt lat="42.3782310" lon="-3.3214350">
        <ele>1040.2</ele>
        <time>2022-06-27T10:18:46Z</time>
      </trkpt>
      <trkpt lat="42.3782150" lon="-3.3214750">
        <ele>1040.4</ele>
        <time>2022-06-27T10:18:47Z</time>
      </trkpt>
      <trkpt lat="42.3781980" lon="-3.3215160">
        <ele>1040.6</ele>
        <time>2022-06-27T10:18:48Z</time>
      </trkpt>
      <trkpt lat="42.3781830" lon="-3.3215560">
        <ele>1040.8</ele>
        <time>2022-06-27T10:18:49Z</time>
      </trkpt>
      <trkpt lat="42.3781650" lon="-3.3215960">
        <ele>1041.2</ele>
        <time>2022-06-27T10:18:50Z</time>
      </trkpt>
      <trkpt lat="42.3781450" lon="-3.3216380">
        <ele>1041.2</ele>
        <time>2022-06-27T10:18:51Z</time>
      </trkpt>
      <trkpt lat="42.3781280" lon="-3.3216770">
        <ele>1041.4</ele>
        <time>2022-06-27T10:18:52Z</time>
      </trkpt>
      <trkpt lat="42.3781090" lon="-3.3217190">
        <ele>1041.4</ele>
        <time>2022-06-27T10:18:53Z</time>
      </trkpt>
      <trkpt lat="42.3780900" lon="-3.3217580">
        <ele>1041.6</ele>
        <time>2022-06-27T10:18:54Z</time>
      </trkpt>
      <trkpt lat="42.3780730" lon="-3.3217970">
        <ele>1042.0</ele>
        <time>2022-06-27T10:18:55Z</time>
      </trkpt>
      <trkpt lat="42.3780570" lon="-3.3218350">
        <ele>1042.2</ele>
        <time>2022-06-27T10:18:56Z</time>
      </trkpt>
      <trkpt lat="42.3780400" lon="-3.3218730">
        <ele>1042.6</ele>
        <time>2022-06-27T10:18:57Z</time>
      </trkpt>
      <trkpt lat="42.3780220" lon="-3.3219140">
        <ele>1042.8</ele>
        <time>2022-06-27T10:18:58Z</time>
      </trkpt>
      <trkpt lat="42.3780050" lon="-3.3219540">
        <ele>1042.8</ele>
        <time>2022-06-27T10:18:59Z</time>
      </trkpt>
      <trkpt lat="42.3779870" lon="-3.3219950">
        <ele>1042.8</ele>
        <time>2022-06-27T10:19:00Z</time>
      </trkpt>
      <trkpt lat="42.3779710" lon="-3.3220310">
        <ele>1043.0</ele>
        <time>2022-06-27T10:19:01Z</time>
      </trkpt>
      <trkpt lat="42.3779580" lon="-3.3220720">
        <ele>1043.4</ele>
        <time>2022-06-27T10:19:02Z</time>
      </trkpt>
      <trkpt lat="42.3779420" lon="-3.3221090">
        <ele>1043.6</ele>
        <time>2022-06-27T10:19:03Z</time>
      </trkpt>
      <trkpt lat="42.3779270" lon="-3.3221460">
        <ele>1044.0</ele>
        <time>2022-06-27T10:19:04Z</time>
      </trkpt>
      <trkpt lat="42.3779110" lon="-3.3221810">
        <ele>1044.2</ele>
        <time>2022-06-27T10:19:05Z</time>
      </trkpt>
      <trkpt lat="42.3778950" lon="-3.3222170">
        <ele>1044.2</ele>
        <time>2022-06-27T10:19:06Z</time>
      </trkpt>
      <trkpt lat="42.3778780" lon="-3.3222530">
        <ele>1044.6</ele>
        <time>2022-06-27T10:19:07Z</time>
      </trkpt>
      <trkpt lat="42.3778630" lon="-3.3222880">
        <ele>1044.8</ele>
        <time>2022-06-27T10:19:08Z</time>
      </trkpt>
      <trkpt lat="42.3778490" lon="-3.3223230">
        <ele>1045.2</ele>
        <time>2022-06-27T10:19:09Z</time>
      </trkpt>
      <trkpt lat="42.3778350" lon="-3.3223520">
        <ele>1045.4</ele>
        <time>2022-06-27T10:19:10Z</time>
      </trkpt>
      <trkpt lat="42.3778210" lon="-3.3223820">
        <ele>1045.8</ele>
        <time>2022-06-27T10:19:11Z</time>
      </trkpt>
      <trkpt lat="42.3778090" lon="-3.3224160">
        <ele>1046.0</ele>
        <time>2022-06-27T10:19:12Z</time>
      </trkpt>
      <trkpt lat="42.3777970" lon="-3.3224540">
        <ele>1046.2</ele>
        <time>2022-06-27T10:19:13Z</time>
      </trkpt>
      <trkpt lat="42.3777870" lon="-3.3224910">
        <ele>1046.4</ele>
        <time>2022-06-27T10:19:14Z</time>
      </trkpt>
      <trkpt lat="42.3777750" lon="-3.3225330">
        <ele>1046.6</ele>
        <time>2022-06-27T10:19:15Z</time>
      </trkpt>
      <trkpt lat="42.3777610" lon="-3.3225740">
        <ele>1047.0</ele>
        <time>2022-06-27T10:19:16Z</time>
      </trkpt>
      <trkpt lat="42.3777500" lon="-3.3226160">
        <ele>1047.2</ele>
        <time>2022-06-27T10:19:17Z</time>
      </trkpt>
      <trkpt lat="42.3777370" lon="-3.3226570">
        <ele>1047.6</ele>
        <time>2022-06-27T10:19:18Z</time>
      </trkpt>
      <trkpt lat="42.3777250" lon="-3.3226950">
        <ele>1047.8</ele>
        <time>2022-06-27T10:19:19Z</time>
      </trkpt>
      <trkpt lat="42.3777140" lon="-3.3227320">
        <ele>1048.0</ele>
        <time>2022-06-27T10:19:20Z</time>
      </trkpt>
      <trkpt lat="42.3777010" lon="-3.3227680">
        <ele>1048.2</ele>
        <time>2022-06-27T10:19:21Z</time>
      </trkpt>
      <trkpt lat="42.3776890" lon="-3.3228040">
        <ele>1048.2</ele>
        <time>2022-06-27T10:19:22Z</time>
      </trkpt>
      <trkpt lat="42.3776780" lon="-3.3228430">
        <ele>1048.4</ele>
        <time>2022-06-27T10:19:23Z</time>
      </trkpt>
      <trkpt lat="42.3776670" lon="-3.3228810">
        <ele>1048.6</ele>
        <time>2022-06-27T10:19:24Z</time>
      </trkpt>
      <trkpt lat="42.3776550" lon="-3.3229230">
        <ele>1048.8</ele>
        <time>2022-06-27T10:19:25Z</time>
      </trkpt>
      <trkpt lat="42.3776430" lon="-3.3229560">
        <ele>1049.0</ele>
        <time>2022-06-27T10:19:26Z</time>
      </trkpt>
      <trkpt lat="42.3776270" lon="-3.3230030">
        <ele>1049.4</ele>
        <time>2022-06-27T10:19:27Z</time>
      </trkpt>
      <trkpt lat="42.3776130" lon="-3.3230420">
        <ele>1049.6</ele>
        <time>2022-06-27T10:19:28Z</time>
      </trkpt>
      <trkpt lat="42.3775990" lon="-3.3230820">
        <ele>1049.8</ele>
        <time>2022-06-27T10:19:29Z</time>
      </trkpt>
      <trkpt lat="42.3775850" lon="-3.3231210">
        <ele>1050.0</ele>
        <time>2022-06-27T10:19:30Z</time>
      </trkpt>
      <trkpt lat="42.3775740" lon="-3.3231560">
        <ele>1050.0</ele>
        <time>2022-06-27T10:19:31Z</time>
      </trkpt>
      <trkpt lat="42.3775620" lon="-3.3231930">
        <ele>1050.4</ele>
        <time>2022-06-27T10:19:32Z</time>
      </trkpt>
      <trkpt lat="42.3775510" lon="-3.3232290">
        <ele>1050.6</ele>
        <time>2022-06-27T10:19:33Z</time>
      </trkpt>
      <trkpt lat="42.3775420" lon="-3.3232650">
        <ele>1050.8</ele>
        <time>2022-06-27T10:19:34Z</time>
      </trkpt>
      <trkpt lat="42.3775310" lon="-3.3233040">
        <ele>1051.0</ele>
        <time>2022-06-27T10:19:35Z</time>
      </trkpt>
      <trkpt lat="42.3775200" lon="-3.3233440">
        <ele>1051.2</ele>
        <time>2022-06-27T10:19:36Z</time>
      </trkpt>
      <trkpt lat="42.3775090" lon="-3.3233860">
        <ele>1051.6</ele>
        <time>2022-06-27T10:19:37Z</time>
      </trkpt>
      <trkpt lat="42.3774990" lon="-3.3234280">
        <ele>1051.8</ele>
        <time>2022-06-27T10:19:38Z</time>
      </trkpt>
      <trkpt lat="42.3774880" lon="-3.3234690">
        <ele>1052.0</ele>
        <time>2022-06-27T10:19:39Z</time>
      </trkpt>
      <trkpt lat="42.3774790" lon="-3.3235120">
        <ele>1052.0</ele>
        <time>2022-06-27T10:19:40Z</time>
      </trkpt>
      <trkpt lat="42.3774700" lon="-3.3235570">
        <ele>1052.4</ele>
        <time>2022-06-27T10:19:41Z</time>
      </trkpt>
      <trkpt lat="42.3774620" lon="-3.3236000">
        <ele>1052.6</ele>
        <time>2022-06-27T10:19:42Z</time>
      </trkpt>
      <trkpt lat="42.3774560" lon="-3.3236420">
        <ele>1052.8</ele>
        <time>2022-06-27T10:19:43Z</time>
      </trkpt>
      <trkpt lat="42.3774500" lon="-3.3236860">
        <ele>1053.2</ele>
        <time>2022-06-27T10:19:44Z</time>
      </trkpt>
      <trkpt lat="42.3774440" lon="-3.3237280">
        <ele>1053.2</ele>
        <time>2022-06-27T10:19:45Z</time>
      </trkpt>
      <trkpt lat="42.3774400" lon="-3.3237660">
        <ele>1053.8</ele>
        <time>2022-06-27T10:19:46Z</time>
      </trkpt>
      <trkpt lat="42.3774360" lon="-3.3238050">
        <ele>1054.0</ele>
        <time>2022-06-27T10:19:47Z</time>
      </trkpt>
      <trkpt lat="42.3774330" lon="-3.3238450">
        <ele>1054.2</ele>
        <time>2022-06-27T10:19:48Z</time>
      </trkpt>
      <trkpt lat="42.3774300" lon="-3.3238860">
        <ele>1054.2</ele>
        <time>2022-06-27T10:19:49Z</time>
      </trkpt>
      <trkpt lat="42.3774250" lon="-3.3239280">
        <ele>1054.6</ele>
        <time>2022-06-27T10:19:50Z</time>
      </trkpt>
      <trkpt lat="42.3774210" lon="-3.3239680">
        <ele>1054.8</ele>
        <time>2022-06-27T10:19:51Z</time>
      </trkpt>
      <trkpt lat="42.3774180" lon="-3.3240080">
        <ele>1055.0</ele>
        <time>2022-06-27T10:19:52Z</time>
      </trkpt>
      <trkpt lat="42.3774170" lon="-3.3240470">
        <ele>1055.0</ele>
        <time>2022-06-27T10:19:53Z</time>
      </trkpt>
      <trkpt lat="42.3774150" lon="-3.3240880">
        <ele>1055.2</ele>
        <time>2022-06-27T10:19:54Z</time>
      </trkpt>
      <trkpt lat="42.3774140" lon="-3.3241300">
        <ele>1055.4</ele>
        <time>2022-06-27T10:19:55Z</time>
      </trkpt>
      <trkpt lat="42.3774100" lon="-3.3241740">
        <ele>1055.6</ele>
        <time>2022-06-27T10:19:56Z</time>
      </trkpt>
      <trkpt lat="42.3774060" lon="-3.3242190">
        <ele>1055.8</ele>
        <time>2022-06-27T10:19:57Z</time>
      </trkpt>
      <trkpt lat="42.3774020" lon="-3.3242670">
        <ele>1056.0</ele>
        <time>2022-06-27T10:19:58Z</time>
      </trkpt>
      <trkpt lat="42.3773980" lon="-3.3243130">
        <ele>1056.2</ele>
        <time>2022-06-27T10:19:59Z</time>
      </trkpt>
      <trkpt lat="42.3773940" lon="-3.3243560">
        <ele>1056.6</ele>
        <time>2022-06-27T10:20:00Z</time>
      </trkpt>
      <trkpt lat="42.3773880" lon="-3.3243970">
        <ele>1056.6</ele>
        <time>2022-06-27T10:20:01Z</time>
      </trkpt>
      <trkpt lat="42.3773840" lon="-3.3244370">
        <ele>1057.0</ele>
        <time>2022-06-27T10:20:02Z</time>
      </trkpt>
      <trkpt lat="42.3773820" lon="-3.3244750">
        <ele>1057.2</ele>
        <time>2022-06-27T10:20:03Z</time>
      </trkpt>
      <trkpt lat="42.3773800" lon="-3.3245150">
        <ele>1057.4</ele>
        <time>2022-06-27T10:20:04Z</time>
      </trkpt>
      <trkpt lat="42.3773780" lon="-3.3245580">
        <ele>1057.6</ele>
        <time>2022-06-27T10:20:05Z</time>
      </trkpt>
      <trkpt lat="42.3773740" lon="-3.3246040">
        <ele>1057.8</ele>
        <time>2022-06-27T10:20:06Z</time>
      </trkpt>
      <trkpt lat="42.3773680" lon="-3.3246490">
        <ele>1058.0</ele>
        <time>2022-06-27T10:20:07Z</time>
      </trkpt>
      <trkpt lat="42.3773660" lon="-3.3246950">
        <ele>1058.2</ele>
        <time>2022-06-27T10:20:08Z</time>
      </trkpt>
      <trkpt lat="42.3773610" lon="-3.3247420">
        <ele>1058.6</ele>
        <time>2022-06-27T10:20:09Z</time>
      </trkpt>
      <trkpt lat="42.3773560" lon="-3.3247900">
        <ele>1058.4</ele>
        <time>2022-06-27T10:20:10Z</time>
      </trkpt>
      <trkpt lat="42.3773520" lon="-3.3248350">
        <ele>1058.8</ele>
        <time>2022-06-27T10:20:11Z</time>
      </trkpt>
      <trkpt lat="42.3773440" lon="-3.3248820">
        <ele>1058.8</ele>
        <time>2022-06-27T10:20:12Z</time>
      </trkpt>
      <trkpt lat="42.3773360" lon="-3.3249270">
        <ele>1059.0</ele>
        <time>2022-06-27T10:20:13Z</time>
      </trkpt>
      <trkpt lat="42.3773260" lon="-3.3249750">
        <ele>1059.2</ele>
        <time>2022-06-27T10:20:14Z</time>
      </trkpt>
      <trkpt lat="42.3773190" lon="-3.3250230">
        <ele>1059.4</ele>
        <time>2022-06-27T10:20:15Z</time>
      </trkpt>
      <trkpt lat="42.3773080" lon="-3.3250700">
        <ele>1059.8</ele>
        <time>2022-06-27T10:20:16Z</time>
      </trkpt>
      <trkpt lat="42.3773010" lon="-3.3251150">
        <ele>1059.8</ele>
        <time>2022-06-27T10:20:17Z</time>
      </trkpt>
      <trkpt lat="42.3772930" lon="-3.3251620">
        <ele>1060.2</ele>
        <time>2022-06-27T10:20:18Z</time>
      </trkpt>
      <trkpt lat="42.3772860" lon="-3.3252050">
        <ele>1060.2</ele>
        <time>2022-06-27T10:20:19Z</time>
      </trkpt>
      <trkpt lat="42.3772780" lon="-3.3252470">
        <ele>1060.6</ele>
        <time>2022-06-27T10:20:20Z</time>
      </trkpt>
      <trkpt lat="42.3772680" lon="-3.3252880">
        <ele>1061.0</ele>
        <time>2022-06-27T10:20:21Z</time>
      </trkpt>
      <trkpt lat="42.3772590" lon="-3.3253320">
        <ele>1061.2</ele>
        <time>2022-06-27T10:20:22Z</time>
      </trkpt>
      <trkpt lat="42.3772490" lon="-3.3253750">
        <ele>1061.6</ele>
        <time>2022-06-27T10:20:23Z</time>
      </trkpt>
      <trkpt lat="42.3772420" lon="-3.3254130">
        <ele>1061.8</ele>
        <time>2022-06-27T10:20:24Z</time>
      </trkpt>
      <trkpt lat="42.3772340" lon="-3.3254520">
        <ele>1062.2</ele>
        <time>2022-06-27T10:20:25Z</time>
      </trkpt>
      <trkpt lat="42.3772260" lon="-3.3254930">
        <ele>1062.4</ele>
        <time>2022-06-27T10:20:26Z</time>
      </trkpt>
      <trkpt lat="42.3772180" lon="-3.3255350">
        <ele>1062.6</ele>
        <time>2022-06-27T10:20:27Z</time>
      </trkpt>
      <trkpt lat="42.3772080" lon="-3.3255760">
        <ele>1062.8</ele>
        <time>2022-06-27T10:20:28Z</time>
      </trkpt>
      <trkpt lat="42.3771970" lon="-3.3256200">
        <ele>1063.2</ele>
        <time>2022-06-27T10:20:29Z</time>
      </trkpt>
      <trkpt lat="42.3771870" lon="-3.3256660">
        <ele>1063.6</ele>
        <time>2022-06-27T10:20:30Z</time>
      </trkpt>
      <trkpt lat="42.3771770" lon="-3.3257160">
        <ele>1063.8</ele>
        <time>2022-06-27T10:20:31Z</time>
      </trkpt>
      <trkpt lat="42.3771690" lon="-3.3257620">
        <ele>1064.0</ele>
        <time>2022-06-27T10:20:32Z</time>
      </trkpt>
      <trkpt lat="42.3771650" lon="-3.3258060">
        <ele>1064.2</ele>
        <time>2022-06-27T10:20:33Z</time>
      </trkpt>
      <trkpt lat="42.3771620" lon="-3.3258520">
        <ele>1064.4</ele>
        <time>2022-06-27T10:20:34Z</time>
      </trkpt>
      <trkpt lat="42.3771590" lon="-3.3258950">
        <ele>1064.6</ele>
        <time>2022-06-27T10:20:35Z</time>
      </trkpt>
      <trkpt lat="42.3771550" lon="-3.3259380">
        <ele>1064.8</ele>
        <time>2022-06-27T10:20:36Z</time>
      </trkpt>
      <trkpt lat="42.3771500" lon="-3.3259820">
        <ele>1065.2</ele>
        <time>2022-06-27T10:20:37Z</time>
      </trkpt>
      <trkpt lat="42.3771430" lon="-3.3260290">
        <ele>1065.4</ele>
        <time>2022-06-27T10:20:38Z</time>
      </trkpt>
      <trkpt lat="42.3771340" lon="-3.3260720">
        <ele>1065.8</ele>
        <time>2022-06-27T10:20:39Z</time>
      </trkpt>
      <trkpt lat="42.3771260" lon="-3.3261160">
        <ele>1066.0</ele>
        <time>2022-06-27T10:20:40Z</time>
      </trkpt>
      <trkpt lat="42.3771180" lon="-3.3261610">
        <ele>1066.2</ele>
        <time>2022-06-27T10:20:41Z</time>
      </trkpt>
      <trkpt lat="42.3771100" lon="-3.3262060">
        <ele>1066.4</ele>
        <time>2022-06-27T10:20:42Z</time>
      </trkpt>
      <trkpt lat="42.3771030" lon="-3.3262510">
        <ele>1066.8</ele>
        <time>2022-06-27T10:20:43Z</time>
      </trkpt>
      <trkpt lat="42.3770930" lon="-3.3262960">
        <ele>1067.0</ele>
        <time>2022-06-27T10:20:44Z</time>
      </trkpt>
      <trkpt lat="42.3770840" lon="-3.3263410">
        <ele>1067.2</ele>
        <time>2022-06-27T10:20:45Z</time>
      </trkpt>
      <trkpt lat="42.3770750" lon="-3.3263860">
        <ele>1067.6</ele>
        <time>2022-06-27T10:20:46Z</time>
      </trkpt>
      <trkpt lat="42.3770670" lon="-3.3264290">
        <ele>1067.8</ele>
        <time>2022-06-27T10:20:47Z</time>
      </trkpt>
      <trkpt lat="42.3770600" lon="-3.3264730">
        <ele>1068.2</ele>
        <time>2022-06-27T10:20:48Z</time>
      </trkpt>
      <trkpt lat="42.3770560" lon="-3.3265170">
        <ele>1068.4</ele>
        <time>2022-06-27T10:20:49Z</time>
      </trkpt>
      <trkpt lat="42.3770500" lon="-3.3265620">
        <ele>1068.6</ele>
        <time>2022-06-27T10:20:50Z</time>
      </trkpt>
      <trkpt lat="42.3770420" lon="-3.3266060">
        <ele>1068.8</ele>
        <time>2022-06-27T10:20:51Z</time>
      </trkpt>
      <trkpt lat="42.3770330" lon="-3.3266510">
        <ele>1068.8</ele>
        <time>2022-06-27T10:20:52Z</time>
      </trkpt>
      <trkpt lat="42.3770260" lon="-3.3266950">
        <ele>1069.2</ele>
        <time>2022-06-27T10:20:53Z</time>
      </trkpt>
      <trkpt lat="42.3770220" lon="-3.3267380">
        <ele>1069.4</ele>
        <time>2022-06-27T10:20:54Z</time>
      </trkpt>
      <trkpt lat="42.3770170" lon="-3.3267800">
        <ele>1069.8</ele>
        <time>2022-06-27T10:20:55Z</time>
      </trkpt>
      <trkpt lat="42.3770110" lon="-3.3268250">
        <ele>1069.8</ele>
        <time>2022-06-27T10:20:56Z</time>
      </trkpt>
      <trkpt lat="42.3770040" lon="-3.3268670">
        <ele>1070.2</ele>
        <time>2022-06-27T10:20:57Z</time>
      </trkpt>
      <trkpt lat="42.3769960" lon="-3.3269090">
        <ele>1070.4</ele>
        <time>2022-06-27T10:20:58Z</time>
      </trkpt>
      <trkpt lat="42.3769910" lon="-3.3269520">
        <ele>1070.6</ele>
        <time>2022-06-27T10:20:59Z</time>
      </trkpt>
      <trkpt lat="42.3769850" lon="-3.3269940">
        <ele>1070.8</ele>
        <time>2022-06-27T10:21:00Z</time>
      </trkpt>
      <trkpt lat="42.3769790" lon="-3.3270350">
        <ele>1071.0</ele>
        <time>2022-06-27T10:21:01Z</time>
      </trkpt>
      <trkpt lat="42.3769710" lon="-3.3270780">
        <ele>1071.4</ele>
        <time>2022-06-27T10:21:02Z</time>
      </trkpt>
      <trkpt lat="42.3769610" lon="-3.3271190">
        <ele>1071.6</ele>
        <time>2022-06-27T10:21:03Z</time>
      </trkpt>
      <trkpt lat="42.3769540" lon="-3.3271620">
        <ele>1071.8</ele>
        <time>2022-06-27T10:21:04Z</time>
      </trkpt>
      <trkpt lat="42.3769480" lon="-3.3272050">
        <ele>1071.8</ele>
        <time>2022-06-27T10:21:05Z</time>
      </trkpt>
      <trkpt lat="42.3769410" lon="-3.3272480">
        <ele>1072.2</ele>
        <time>2022-06-27T10:21:06Z</time>
      </trkpt>
      <trkpt lat="42.3769350" lon="-3.3272910">
        <ele>1072.6</ele>
        <time>2022-06-27T10:21:07Z</time>
      </trkpt>
      <trkpt lat="42.3769310" lon="-3.3273340">
        <ele>1072.8</ele>
        <time>2022-06-27T10:21:08Z</time>
      </trkpt>
      <trkpt lat="42.3769240" lon="-3.3273800">
        <ele>1073.0</ele>
        <time>2022-06-27T10:21:09Z</time>
      </trkpt>
      <trkpt lat="42.3769190" lon="-3.3274260">
        <ele>1073.2</ele>
        <time>2022-06-27T10:21:10Z</time>
      </trkpt>
      <trkpt lat="42.3769130" lon="-3.3274750">
        <ele>1073.4</ele>
        <time>2022-06-27T10:21:11Z</time>
      </trkpt>
      <trkpt lat="42.3769080" lon="-3.3275240">
        <ele>1073.6</ele>
        <time>2022-06-27T10:21:12Z</time>
      </trkpt>
      <trkpt lat="42.3768990" lon="-3.3275740">
        <ele>1073.8</ele>
        <time>2022-06-27T10:21:13Z</time>
      </trkpt>
      <trkpt lat="42.3768900" lon="-3.3276270">
        <ele>1074.2</ele>
        <time>2022-06-27T10:21:14Z</time>
      </trkpt>
      <trkpt lat="42.3768840" lon="-3.3276800">
        <ele>1074.2</ele>
        <time>2022-06-27T10:21:15Z</time>
      </trkpt>
      <trkpt lat="42.3768800" lon="-3.3277330">
        <ele>1074.4</ele>
        <time>2022-06-27T10:21:16Z</time>
      </trkpt>
      <trkpt lat="42.3768770" lon="-3.3277820">
        <ele>1074.6</ele>
        <time>2022-06-27T10:21:17Z</time>
      </trkpt>
      <trkpt lat="42.3768720" lon="-3.3278280">
        <ele>1075.0</ele>
        <time>2022-06-27T10:21:18Z</time>
      </trkpt>
      <trkpt lat="42.3768660" lon="-3.3278760">
        <ele>1075.2</ele>
        <time>2022-06-27T10:21:19Z</time>
      </trkpt>
      <trkpt lat="42.3768590" lon="-3.3279250">
        <ele>1075.4</ele>
        <time>2022-06-27T10:21:20Z</time>
      </trkpt>
      <trkpt lat="42.3768530" lon="-3.3279740">
        <ele>1075.4</ele>
        <time>2022-06-27T10:21:21Z</time>
      </trkpt>
      <trkpt lat="42.3768450" lon="-3.3280240">
        <ele>1075.6</ele>
        <time>2022-06-27T10:21:22Z</time>
      </trkpt>
      <trkpt lat="42.3768350" lon="-3.3280760">
        <ele>1076.0</ele>
        <time>2022-06-27T10:21:23Z</time>
      </trkpt>
      <trkpt lat="42.3768240" lon="-3.3281280">
        <ele>1076.0</ele>
        <time>2022-06-27T10:21:24Z</time>
      </trkpt>
      <trkpt lat="42.3768110" lon="-3.3281790">
        <ele>1076.4</ele>
        <time>2022-06-27T10:21:25Z</time>
      </trkpt>
      <trkpt lat="42.3767990" lon="-3.3282280">
        <ele>1076.4</ele>
        <time>2022-06-27T10:21:26Z</time>
      </trkpt>
      <trkpt lat="42.3767880" lon="-3.3282740">
        <ele>1076.6</ele>
        <time>2022-06-27T10:21:27Z</time>
      </trkpt>
      <trkpt lat="42.3767760" lon="-3.3283210">
        <ele>1076.8</ele>
        <time>2022-06-27T10:21:28Z</time>
      </trkpt>
      <trkpt lat="42.3767640" lon="-3.3283680">
        <ele>1077.0</ele>
        <time>2022-06-27T10:21:29Z</time>
      </trkpt>
      <trkpt lat="42.3767520" lon="-3.3284070">
        <ele>1077.2</ele>
        <time>2022-06-27T10:21:30Z</time>
      </trkpt>
      <trkpt lat="42.3767360" lon="-3.3284570">
        <ele>1077.4</ele>
        <time>2022-06-27T10:21:31Z</time>
      </trkpt>
      <trkpt lat="42.3767180" lon="-3.3285180">
        <ele>1077.4</ele>
        <time>2022-06-27T10:21:32Z</time>
      </trkpt>
      <trkpt lat="42.3767020" lon="-3.3285650">
        <ele>1077.6</ele>
        <time>2022-06-27T10:21:33Z</time>
      </trkpt>
      <trkpt lat="42.3766840" lon="-3.3286120">
        <ele>1077.8</ele>
        <time>2022-06-27T10:21:34Z</time>
      </trkpt>
      <trkpt lat="42.3766690" lon="-3.3286470">
        <ele>1078.0</ele>
        <time>2022-06-27T10:21:35Z</time>
      </trkpt>
      <trkpt lat="42.3766490" lon="-3.3286920">
        <ele>1078.4</ele>
        <time>2022-06-27T10:21:36Z</time>
      </trkpt>
      <trkpt lat="42.3766250" lon="-3.3287440">
        <ele>1078.6</ele>
        <time>2022-06-27T10:21:37Z</time>
      </trkpt>
      <trkpt lat="42.3766040" lon="-3.3287900">
        <ele>1078.8</ele>
        <time>2022-06-27T10:21:38Z</time>
      </trkpt>
      <trkpt lat="42.3765830" lon="-3.3288320">
        <ele>1079.0</ele>
        <time>2022-06-27T10:21:39Z</time>
      </trkpt>
      <trkpt lat="42.3765610" lon="-3.3288730">
        <ele>1079.0</ele>
        <time>2022-06-27T10:21:40Z</time>
      </trkpt>
      <trkpt lat="42.3765400" lon="-3.3289130">
        <ele>1079.2</ele>
        <time>2022-06-27T10:21:41Z</time>
      </trkpt>
      <trkpt lat="42.3765190" lon="-3.3289530">
        <ele>1079.2</ele>
        <time>2022-06-27T10:21:42Z</time>
      </trkpt>
      <trkpt lat="42.3764970" lon="-3.3289910">
        <ele>1079.6</ele>
        <time>2022-06-27T10:21:43Z</time>
      </trkpt>
      <trkpt lat="42.3764750" lon="-3.3290270">
        <ele>1079.8</ele>
        <time>2022-06-27T10:21:44Z</time>
      </trkpt>
      <trkpt lat="42.3764520" lon="-3.3290650">
        <ele>1080.0</ele>
        <time>2022-06-27T10:21:45Z</time>
      </trkpt>
      <trkpt lat="42.3764290" lon="-3.3291010">
        <ele>1080.2</ele>
        <time>2022-06-27T10:21:46Z</time>
      </trkpt>
      <trkpt lat="42.3764050" lon="-3.3291370">
        <ele>1080.4</ele>
        <time>2022-06-27T10:21:47Z</time>
      </trkpt>
      <trkpt lat="42.3763810" lon="-3.3291710">
        <ele>1080.8</ele>
        <time>2022-06-27T10:21:48Z</time>
      </trkpt>
      <trkpt lat="42.3763570" lon="-3.3292060">
        <ele>1081.0</ele>
        <time>2022-06-27T10:21:49Z</time>
      </trkpt>
      <trkpt lat="42.3763340" lon="-3.3292380">
        <ele>1081.2</ele>
        <time>2022-06-27T10:21:50Z</time>
      </trkpt>
      <trkpt lat="42.3763100" lon="-3.3292700">
        <ele>1081.4</ele>
        <time>2022-06-27T10:21:51Z</time>
      </trkpt>
      <trkpt lat="42.3762850" lon="-3.3293010">
        <ele>1081.6</ele>
        <time>2022-06-27T10:21:52Z</time>
      </trkpt>
      <trkpt lat="42.3762590" lon="-3.3293320">
        <ele>1082.0</ele>
        <time>2022-06-27T10:21:53Z</time>
      </trkpt>
      <trkpt lat="42.3762330" lon="-3.3293620">
        <ele>1082.0</ele>
        <time>2022-06-27T10:21:54Z</time>
      </trkpt>
      <trkpt lat="42.3762080" lon="-3.3293970">
        <ele>1082.4</ele>
        <time>2022-06-27T10:21:55Z</time>
      </trkpt>
      <trkpt lat="42.3761850" lon="-3.3294300">
        <ele>1082.6</ele>
        <time>2022-06-27T10:21:56Z</time>
      </trkpt>
      <trkpt lat="42.3761590" lon="-3.3294620">
        <ele>1083.0</ele>
        <time>2022-06-27T10:21:57Z</time>
      </trkpt>
      <trkpt lat="42.3761330" lon="-3.3294940">
        <ele>1083.2</ele>
        <time>2022-06-27T10:21:58Z</time>
      </trkpt>
      <trkpt lat="42.3761080" lon="-3.3295280">
        <ele>1083.4</ele>
        <time>2022-06-27T10:21:59Z</time>
      </trkpt>
      <trkpt lat="42.3760840" lon="-3.3295590">
        <ele>1083.6</ele>
        <time>2022-06-27T10:22:00Z</time>
      </trkpt>
      <trkpt lat="42.3760600" lon="-3.3295900">
        <ele>1083.6</ele>
        <time>2022-06-27T10:22:01Z</time>
      </trkpt>
      <trkpt lat="42.3760380" lon="-3.3296240">
        <ele>1083.8</ele>
        <time>2022-06-27T10:22:02Z</time>
      </trkpt>
      <trkpt lat="42.3760130" lon="-3.3296570">
        <ele>1084.0</ele>
        <time>2022-06-27T10:22:03Z</time>
      </trkpt>
      <trkpt lat="42.3759850" lon="-3.3296910">
        <ele>1084.2</ele>
        <time>2022-06-27T10:22:04Z</time>
      </trkpt>
      <trkpt lat="42.3759590" lon="-3.3297250">
        <ele>1084.2</ele>
        <time>2022-06-27T10:22:05Z</time>
      </trkpt>
      <trkpt lat="42.3759340" lon="-3.3297590">
        <ele>1084.4</ele>
        <time>2022-06-27T10:22:06Z</time>
      </trkpt>
      <trkpt lat="42.3759080" lon="-3.3297930">
        <ele>1084.6</ele>
        <time>2022-06-27T10:22:07Z</time>
      </trkpt>
      <trkpt lat="42.3758830" lon="-3.3298280">
        <ele>1085.0</ele>
        <time>2022-06-27T10:22:08Z</time>
      </trkpt>
      <trkpt lat="42.3758590" lon="-3.3298630">
        <ele>1085.2</ele>
        <time>2022-06-27T10:22:09Z</time>
      </trkpt>
      <trkpt lat="42.3758340" lon="-3.3298970">
        <ele>1085.4</ele>
        <time>2022-06-27T10:22:10Z</time>
      </trkpt>
      <trkpt lat="42.3758100" lon="-3.3299330">
        <ele>1085.6</ele>
        <time>2022-06-27T10:22:11Z</time>
      </trkpt>
      <trkpt lat="42.3757850" lon="-3.3299660">
        <ele>1085.6</ele>
        <time>2022-06-27T10:22:12Z</time>
      </trkpt>
      <trkpt lat="42.3757580" lon="-3.3300000">
        <ele>1085.8</ele>
        <time>2022-06-27T10:22:13Z</time>
      </trkpt>
      <trkpt lat="42.3757330" lon="-3.3300350">
        <ele>1085.8</ele>
        <time>2022-06-27T10:22:14Z</time>
      </trkpt>
      <trkpt lat="42.3757110" lon="-3.3300730">
        <ele>1086.2</ele>
        <time>2022-06-27T10:22:15Z</time>
      </trkpt>
      <trkpt lat="42.3756890" lon="-3.3301120">
        <ele>1086.4</ele>
        <time>2022-06-27T10:22:16Z</time>
      </trkpt>
      <trkpt lat="42.3756690" lon="-3.3301500">
        <ele>1086.6</ele>
        <time>2022-06-27T10:22:17Z</time>
      </trkpt>
      <trkpt lat="42.3756480" lon="-3.3301910">
        <ele>1086.8</ele>
        <time>2022-06-27T10:22:18Z</time>
      </trkpt>
      <trkpt lat="42.3756280" lon="-3.3302330">
        <ele>1087.0</ele>
        <time>2022-06-27T10:22:19Z</time>
      </trkpt>
      <trkpt lat="42.3756090" lon="-3.3302780">
        <ele>1087.6</ele>
        <time>2022-06-27T10:22:20Z</time>
      </trkpt>
      <trkpt lat="42.3755930" lon="-3.3303210">
        <ele>1087.8</ele>
        <time>2022-06-27T10:22:21Z</time>
      </trkpt>
      <trkpt lat="42.3755770" lon="-3.3303670">
        <ele>1088.0</ele>
        <time>2022-06-27T10:22:22Z</time>
      </trkpt>
      <trkpt lat="42.3755640" lon="-3.3304140">
        <ele>1088.2</ele>
        <time>2022-06-27T10:22:23Z</time>
      </trkpt>
      <trkpt lat="42.3755510" lon="-3.3304600">
        <ele>1088.4</ele>
        <time>2022-06-27T10:22:24Z</time>
      </trkpt>
      <trkpt lat="42.3755380" lon="-3.3305060">
        <ele>1088.8</ele>
        <time>2022-06-27T10:22:25Z</time>
      </trkpt>
      <trkpt lat="42.3755280" lon="-3.3305510">
        <ele>1088.8</ele>
        <time>2022-06-27T10:22:26Z</time>
      </trkpt>
      <trkpt lat="42.3755190" lon="-3.3305960">
        <ele>1089.0</ele>
        <time>2022-06-27T10:22:27Z</time>
      </trkpt>
      <trkpt lat="42.3755090" lon="-3.3306450">
        <ele>1089.2</ele>
        <time>2022-06-27T10:22:28Z</time>
      </trkpt>
      <trkpt lat="42.3755000" lon="-3.3306940">
        <ele>1089.6</ele>
        <time>2022-06-27T10:22:29Z</time>
      </trkpt>
      <trkpt lat="42.3754910" lon="-3.3307430">
        <ele>1089.8</ele>
        <time>2022-06-27T10:22:30Z</time>
      </trkpt>
      <trkpt lat="42.3754800" lon="-3.3307910">
        <ele>1090.0</ele>
        <time>2022-06-27T10:22:31Z</time>
      </trkpt>
      <trkpt lat="42.3754690" lon="-3.3308380">
        <ele>1090.6</ele>
        <time>2022-06-27T10:22:32Z</time>
      </trkpt>
      <trkpt lat="42.3754580" lon="-3.3308840">
        <ele>1090.8</ele>
        <time>2022-06-27T10:22:33Z</time>
      </trkpt>
      <trkpt lat="42.3754480" lon="-3.3309280">
        <ele>1091.0</ele>
        <time>2022-06-27T10:22:34Z</time>
      </trkpt>
      <trkpt lat="42.3754370" lon="-3.3309720">
        <ele>1091.0</ele>
        <time>2022-06-27T10:22:35Z</time>
      </trkpt>
      <trkpt lat="42.3754270" lon="-3.3310160">
        <ele>1091.2</ele>
        <time>2022-06-27T10:22:36Z</time>
      </trkpt>
      <trkpt lat="42.3754160" lon="-3.3310600">
        <ele>1091.2</ele>
        <time>2022-06-27T10:22:37Z</time>
      </trkpt>
      <trkpt lat="42.3754070" lon="-3.3311070">
        <ele>1091.6</ele>
        <time>2022-06-27T10:22:38Z</time>
      </trkpt>
      <trkpt lat="42.3754000" lon="-3.3311560">
        <ele>1092.2</ele>
        <time>2022-06-27T10:22:39Z</time>
      </trkpt>
      <trkpt lat="42.3753920" lon="-3.3312070">
        <ele>1092.4</ele>
        <time>2022-06-27T10:22:40Z</time>
      </trkpt>
      <trkpt lat="42.3753840" lon="-3.3312590">
        <ele>1092.6</ele>
        <time>2022-06-27T10:22:41Z</time>
      </trkpt>
      <trkpt lat="42.3753750" lon="-3.3313080">
        <ele>1092.8</ele>
        <time>2022-06-27T10:22:42Z</time>
      </trkpt>
      <trkpt lat="42.3753680" lon="-3.3313560">
        <ele>1093.0</ele>
        <time>2022-06-27T10:22:43Z</time>
      </trkpt>
      <trkpt lat="42.3753610" lon="-3.3314030">
        <ele>1093.2</ele>
        <time>2022-06-27T10:22:44Z</time>
      </trkpt>
      <trkpt lat="42.3753540" lon="-3.3314490">
        <ele>1093.4</ele>
        <time>2022-06-27T10:22:45Z</time>
      </trkpt>
      <trkpt lat="42.3753470" lon="-3.3314950">
        <ele>1093.6</ele>
        <time>2022-06-27T10:22:46Z</time>
      </trkpt>
      <trkpt lat="42.3753390" lon="-3.3315410">
        <ele>1093.6</ele>
        <time>2022-06-27T10:22:47Z</time>
      </trkpt>
      <trkpt lat="42.3753280" lon="-3.3315860">
        <ele>1094.2</ele>
        <time>2022-06-27T10:22:48Z</time>
      </trkpt>
      <trkpt lat="42.3753170" lon="-3.3316300">
        <ele>1094.4</ele>
        <time>2022-06-27T10:22:49Z</time>
      </trkpt>
      <trkpt lat="42.3753070" lon="-3.3316710">
        <ele>1094.8</ele>
        <time>2022-06-27T10:22:50Z</time>
      </trkpt>
      <trkpt lat="42.3752980" lon="-3.3317120">
        <ele>1095.0</ele>
        <time>2022-06-27T10:22:51Z</time>
      </trkpt>
      <trkpt lat="42.3752900" lon="-3.3317540">
        <ele>1095.4</ele>
        <time>2022-06-27T10:22:52Z</time>
      </trkpt>
      <trkpt lat="42.3752820" lon="-3.3317950">
        <ele>1095.8</ele>
        <time>2022-06-27T10:22:53Z</time>
      </trkpt>
      <trkpt lat="42.3752740" lon="-3.3318380">
        <ele>1095.8</ele>
        <time>2022-06-27T10:22:54Z</time>
      </trkpt>
      <trkpt lat="42.3752660" lon="-3.3318780">
        <ele>1096.0</ele>
        <time>2022-06-27T10:22:55Z</time>
      </trkpt>
      <trkpt lat="42.3752570" lon="-3.3319170">
        <ele>1096.2</ele>
        <time>2022-06-27T10:22:56Z</time>
      </trkpt>
      <trkpt lat="42.3752480" lon="-3.3319530">
        <ele>1096.6</ele>
        <time>2022-06-27T10:22:57Z</time>
      </trkpt>
      <trkpt lat="42.3752410" lon="-3.3319890">
        <ele>1096.6</ele>
        <time>2022-06-27T10:22:58Z</time>
      </trkpt>
      <trkpt lat="42.3752320" lon="-3.3320230">
        <ele>1097.2</ele>
        <time>2022-06-27T10:22:59Z</time>
      </trkpt>
      <trkpt lat="42.3752230" lon="-3.3320590">
        <ele>1097.6</ele>
        <time>2022-06-27T10:23:00Z</time>
      </trkpt>
      <trkpt lat="42.3752140" lon="-3.3320960">
        <ele>1097.6</ele>
        <time>2022-06-27T10:23:01Z</time>
      </trkpt>
      <trkpt lat="42.3752050" lon="-3.3321340">
        <ele>1098.0</ele>
        <time>2022-06-27T10:23:02Z</time>
      </trkpt>
      <trkpt lat="42.3751930" lon="-3.3321710">
        <ele>1098.2</ele>
        <time>2022-06-27T10:23:03Z</time>
      </trkpt>
      <trkpt lat="42.3751820" lon="-3.3322030">
        <ele>1098.6</ele>
        <time>2022-06-27T10:23:04Z</time>
      </trkpt>
      <trkpt lat="42.3751700" lon="-3.3322370">
        <ele>1098.8</ele>
        <time>2022-06-27T10:23:05Z</time>
      </trkpt>
      <trkpt lat="42.3751550" lon="-3.3322730">
        <ele>1099.0</ele>
        <time>2022-06-27T10:23:06Z</time>
      </trkpt>
      <trkpt lat="42.3751400" lon="-3.3323050">
        <ele>1099.2</ele>
        <time>2022-06-27T10:23:07Z</time>
      </trkpt>
      <trkpt lat="42.3751260" lon="-3.3323410">
        <ele>1099.6</ele>
        <time>2022-06-27T10:23:08Z</time>
      </trkpt>
      <trkpt lat="42.3751100" lon="-3.3323780">
        <ele>1100.0</ele>
        <time>2022-06-27T10:23:09Z</time>
      </trkpt>
      <trkpt lat="42.3750960" lon="-3.3324190">
        <ele>1100.0</ele>
        <time>2022-06-27T10:23:10Z</time>
      </trkpt>
      <trkpt lat="42.3750850" lon="-3.3324570">
        <ele>1100.2</ele>
        <time>2022-06-27T10:23:11Z</time>
      </trkpt>
      <trkpt lat="42.3750760" lon="-3.3324960">
        <ele>1100.4</ele>
        <time>2022-06-27T10:23:12Z</time>
      </trkpt>
      <trkpt lat="42.3750660" lon="-3.3325330">
        <ele>1100.8</ele>
        <time>2022-06-27T10:23:13Z</time>
      </trkpt>
      <trkpt lat="42.3750510" lon="-3.3325690">
        <ele>1101.0</ele>
        <time>2022-06-27T10:23:14Z</time>
      </trkpt>
      <trkpt lat="42.3750380" lon="-3.3326020">
        <ele>1101.2</ele>
        <time>2022-06-27T10:23:15Z</time>
      </trkpt>
      <trkpt lat="42.3750270" lon="-3.3326350">
        <ele>1101.4</ele>
        <time>2022-06-27T10:23:16Z</time>
      </trkpt>
      <trkpt lat="42.3750120" lon="-3.3326710">
        <ele>1101.6</ele>
        <time>2022-06-27T10:23:17Z</time>
      </trkpt>
      <trkpt lat="42.3749960" lon="-3.3327070">
        <ele>1102.0</ele>
        <time>2022-06-27T10:23:18Z</time>
      </trkpt>
      <trkpt lat="42.3749800" lon="-3.3327440">
        <ele>1102.2</ele>
        <time>2022-06-27T10:23:19Z</time>
      </trkpt>
      <trkpt lat="42.3749630" lon="-3.3327800">
        <ele>1102.2</ele>
        <time>2022-06-27T10:23:20Z</time>
      </trkpt>
      <trkpt lat="42.3749440" lon="-3.3328130">
        <ele>1102.4</ele>
        <time>2022-06-27T10:23:21Z</time>
      </trkpt>
      <trkpt lat="42.3749270" lon="-3.3328430">
        <ele>1102.8</ele>
        <time>2022-06-27T10:23:22Z</time>
      </trkpt>
      <trkpt lat="42.3749100" lon="-3.3328750">
        <ele>1103.2</ele>
        <time>2022-06-27T10:23:23Z</time>
      </trkpt>
      <trkpt lat="42.3748910" lon="-3.3329050">
        <ele>1103.4</ele>
        <time>2022-06-27T10:23:24Z</time>
      </trkpt>
      <trkpt lat="42.3748710" lon="-3.3329340">
        <ele>1103.6</ele>
        <time>2022-06-27T10:23:25Z</time>
      </trkpt>
      <trkpt lat="42.3748530" lon="-3.3329620">
        <ele>1103.8</ele>
        <time>2022-06-27T10:23:26Z</time>
      </trkpt>
      <trkpt lat="42.3748340" lon="-3.3329970">
        <ele>1104.2</ele>
        <time>2022-06-27T10:23:27Z</time>
      </trkpt>
      <trkpt lat="42.3748140" lon="-3.3330310">
        <ele>1104.4</ele>
        <time>2022-06-27T10:23:28Z</time>
      </trkpt>
      <trkpt lat="42.3747930" lon="-3.3330630">
        <ele>1104.6</ele>
        <time>2022-06-27T10:23:29Z</time>
      </trkpt>
      <trkpt lat="42.3747720" lon="-3.3330920">
        <ele>1104.8</ele>
        <time>2022-06-27T10:23:30Z</time>
      </trkpt>
      <trkpt lat="42.3747510" lon="-3.3331180">
        <ele>1105.0</ele>
        <time>2022-06-27T10:23:31Z</time>
      </trkpt>
      <trkpt lat="42.3747290" lon="-3.3331460">
        <ele>1105.2</ele>
        <time>2022-06-27T10:23:32Z</time>
      </trkpt>
      <trkpt lat="42.3747100" lon="-3.3331710">
        <ele>1105.4</ele>
        <time>2022-06-27T10:23:33Z</time>
      </trkpt>
      <trkpt lat="42.3746870" lon="-3.3332020">
        <ele>1105.6</ele>
        <time>2022-06-27T10:23:34Z</time>
      </trkpt>
      <trkpt lat="42.3746660" lon="-3.3332330">
        <ele>1105.8</ele>
        <time>2022-06-27T10:23:35Z</time>
      </trkpt>
      <trkpt lat="42.3746430" lon="-3.3332650">
        <ele>1106.4</ele>
        <time>2022-06-27T10:23:36Z</time>
      </trkpt>
      <trkpt lat="42.3746220" lon="-3.3332980">
        <ele>1106.6</ele>
        <time>2022-06-27T10:23:37Z</time>
      </trkpt>
      <trkpt lat="42.3746030" lon="-3.3333270">
        <ele>1107.0</ele>
        <time>2022-06-27T10:23:38Z</time>
      </trkpt>
      <trkpt lat="42.3745830" lon="-3.3333560">
        <ele>1107.2</ele>
        <time>2022-06-27T10:23:39Z</time>
      </trkpt>
      <trkpt lat="42.3745610" lon="-3.3333880">
        <ele>1107.2</ele>
        <time>2022-06-27T10:23:40Z</time>
      </trkpt>
      <trkpt lat="42.3745380" lon="-3.3334200">
        <ele>1107.4</ele>
        <time>2022-06-27T10:23:41Z</time>
      </trkpt>
      <trkpt lat="42.3745140" lon="-3.3334500">
        <ele>1107.6</ele>
        <time>2022-06-27T10:23:42Z</time>
      </trkpt>
      <trkpt lat="42.3744910" lon="-3.3334750">
        <ele>1108.0</ele>
        <time>2022-06-27T10:23:43Z</time>
      </trkpt>
      <trkpt lat="42.3744700" lon="-3.3334970">
        <ele>1108.0</ele>
        <time>2022-06-27T10:23:44Z</time>
      </trkpt>
      <trkpt lat="42.3744470" lon="-3.3335310">
        <ele>1108.4</ele>
        <time>2022-06-27T10:23:45Z</time>
      </trkpt>
      <trkpt lat="42.3744280" lon="-3.3335620">
        <ele>1108.8</ele>
        <time>2022-06-27T10:23:46Z</time>
      </trkpt>
      <trkpt lat="42.3744080" lon="-3.3335970">
        <ele>1109.0</ele>
        <time>2022-06-27T10:23:47Z</time>
      </trkpt>
      <trkpt lat="42.3743850" lon="-3.3336380">
        <ele>1109.2</ele>
        <time>2022-06-27T10:23:48Z</time>
      </trkpt>
      <trkpt lat="42.3743610" lon="-3.3336770">
        <ele>1109.2</ele>
        <time>2022-06-27T10:23:49Z</time>
      </trkpt>
      <trkpt lat="42.3743350" lon="-3.3337160">
        <ele>1109.4</ele>
        <time>2022-06-27T10:23:50Z</time>
      </trkpt>
      <trkpt lat="42.3743110" lon="-3.3337540">
        <ele>1109.6</ele>
        <time>2022-06-27T10:23:51Z</time>
      </trkpt>
      <trkpt lat="42.3742880" lon="-3.3337900">
        <ele>1110.0</ele>
        <time>2022-06-27T10:23:52Z</time>
      </trkpt>
      <trkpt lat="42.3742660" lon="-3.3338240">
        <ele>1110.2</ele>
        <time>2022-06-27T10:23:53Z</time>
      </trkpt>
      <trkpt lat="42.3742440" lon="-3.3338580">
        <ele>1110.4</ele>
        <time>2022-06-27T10:23:54Z</time>
      </trkpt>
      <trkpt lat="42.3742210" lon="-3.3338920">
        <ele>1110.6</ele>
        <time>2022-06-27T10:23:55Z</time>
      </trkpt>
      <trkpt lat="42.3741980" lon="-3.3339280">
        <ele>1110.8</ele>
        <time>2022-06-27T10:23:56Z</time>
      </trkpt>
      <trkpt lat="42.3741770" lon="-3.3339630">
        <ele>1111.0</ele>
        <time>2022-06-27T10:23:57Z</time>
      </trkpt>
      <trkpt lat="42.3741560" lon="-3.3339970">
        <ele>1111.0</ele>
        <time>2022-06-27T10:23:58Z</time>
      </trkpt>
      <trkpt lat="42.3741360" lon="-3.3340320">
        <ele>1111.4</ele>
        <time>2022-06-27T10:23:59Z</time>
      </trkpt>
      <trkpt lat="42.3741160" lon="-3.3340670">
        <ele>1111.4</ele>
        <time>2022-06-27T10:24:00Z</time>
      </trkpt>
      <trkpt lat="42.3740960" lon="-3.3341050">
        <ele>1111.8</ele>
        <time>2022-06-27T10:24:01Z</time>
      </trkpt>
      <trkpt lat="42.3740760" lon="-3.3341420">
        <ele>1112.0</ele>
        <time>2022-06-27T10:24:02Z</time>
      </trkpt>
      <trkpt lat="42.3740570" lon="-3.3341800">
        <ele>1112.2</ele>
        <time>2022-06-27T10:24:03Z</time>
      </trkpt>
      <trkpt lat="42.3740370" lon="-3.3342190">
        <ele>1112.8</ele>
        <time>2022-06-27T10:24:04Z</time>
      </trkpt>
      <trkpt lat="42.3740170" lon="-3.3342610">
        <ele>1113.0</ele>
        <time>2022-06-27T10:24:05Z</time>
      </trkpt>
      <trkpt lat="42.3740000" lon="-3.3343040">
        <ele>1113.4</ele>
        <time>2022-06-27T10:24:06Z</time>
      </trkpt>
      <trkpt lat="42.3739810" lon="-3.3343460">
        <ele>1113.4</ele>
        <time>2022-06-27T10:24:07Z</time>
      </trkpt>
      <trkpt lat="42.3739620" lon="-3.3343900">
        <ele>1113.8</ele>
        <time>2022-06-27T10:24:08Z</time>
      </trkpt>
      <trkpt lat="42.3739470" lon="-3.3344350">
        <ele>1114.0</ele>
        <time>2022-06-27T10:24:09Z</time>
      </trkpt>
      <trkpt lat="42.3739310" lon="-3.3344810">
        <ele>1114.2</ele>
        <time>2022-06-27T10:24:10Z</time>
      </trkpt>
      <trkpt lat="42.3739160" lon="-3.3345270">
        <ele>1114.4</ele>
        <time>2022-06-27T10:24:11Z</time>
      </trkpt>
      <trkpt lat="42.3739050" lon="-3.3345720">
        <ele>1114.6</ele>
        <time>2022-06-27T10:24:12Z</time>
      </trkpt>
      <trkpt lat="42.3738910" lon="-3.3346170">
        <ele>1114.8</ele>
        <time>2022-06-27T10:24:13Z</time>
      </trkpt>
      <trkpt lat="42.3738780" lon="-3.3346590">
        <ele>1115.0</ele>
        <time>2022-06-27T10:24:14Z</time>
      </trkpt>
      <trkpt lat="42.3738650" lon="-3.3347000">
        <ele>1115.2</ele>
        <time>2022-06-27T10:24:15Z</time>
      </trkpt>
      <trkpt lat="42.3738540" lon="-3.3347410">
        <ele>1115.4</ele>
        <time>2022-06-27T10:24:16Z</time>
      </trkpt>
      <trkpt lat="42.3738430" lon="-3.3347820">
        <ele>1115.6</ele>
        <time>2022-06-27T10:24:17Z</time>
      </trkpt>
      <trkpt lat="42.3738350" lon="-3.3348230">
        <ele>1115.8</ele>
        <time>2022-06-27T10:24:18Z</time>
      </trkpt>
      <trkpt lat="42.3738250" lon="-3.3348660">
        <ele>1116.2</ele>
        <time>2022-06-27T10:24:19Z</time>
      </trkpt>
      <trkpt lat="42.3738170" lon="-3.3349110">
        <ele>1116.8</ele>
        <time>2022-06-27T10:24:20Z</time>
      </trkpt>
      <trkpt lat="42.3738090" lon="-3.3349580">
        <ele>1116.8</ele>
        <time>2022-06-27T10:24:21Z</time>
      </trkpt>
      <trkpt lat="42.3738010" lon="-3.3350060">
        <ele>1117.0</ele>
        <time>2022-06-27T10:24:22Z</time>
      </trkpt>
      <trkpt lat="42.3737920" lon="-3.3350540">
        <ele>1117.4</ele>
        <time>2022-06-27T10:24:23Z</time>
      </trkpt>
      <trkpt lat="42.3737820" lon="-3.3351030">
        <ele>1117.4</ele>
        <time>2022-06-27T10:24:24Z</time>
      </trkpt>
      <trkpt lat="42.3737790" lon="-3.3351510">
        <ele>1117.8</ele>
        <time>2022-06-27T10:24:25Z</time>
      </trkpt>
      <trkpt lat="42.3737820" lon="-3.3351980">
        <ele>1117.8</ele>
        <time>2022-06-27T10:24:26Z</time>
      </trkpt>
      <trkpt lat="42.3737890" lon="-3.3352420">
        <ele>1118.2</ele>
        <time>2022-06-27T10:24:27Z</time>
      </trkpt>
      <trkpt lat="42.3737980" lon="-3.3352840">
        <ele>1118.4</ele>
        <time>2022-06-27T10:24:28Z</time>
      </trkpt>
      <trkpt lat="42.3738070" lon="-3.3353250">
        <ele>1118.6</ele>
        <time>2022-06-27T10:24:29Z</time>
      </trkpt>
      <trkpt lat="42.3738160" lon="-3.3353640">
        <ele>1118.8</ele>
        <time>2022-06-27T10:24:30Z</time>
      </trkpt>
      <trkpt lat="42.3738230" lon="-3.3354030">
        <ele>1119.2</ele>
        <time>2022-06-27T10:24:31Z</time>
      </trkpt>
      <trkpt lat="42.3738300" lon="-3.3354410">
        <ele>1119.4</ele>
        <time>2022-06-27T10:24:32Z</time>
      </trkpt>
      <trkpt lat="42.3738360" lon="-3.3354790">
        <ele>1119.4</ele>
        <time>2022-06-27T10:24:33Z</time>
      </trkpt>
      <trkpt lat="42.3738410" lon="-3.3355100">
        <ele>1119.6</ele>
        <time>2022-06-27T10:24:34Z</time>
      </trkpt>
      <trkpt lat="42.3738460" lon="-3.3355380">
        <ele>1119.8</ele>
        <time>2022-06-27T10:24:35Z</time>
      </trkpt>
      <trkpt lat="42.3738480" lon="-3.3355640">
        <ele>1120.0</ele>
        <time>2022-06-27T10:24:36Z</time>
      </trkpt>
      <trkpt lat="42.3738470" lon="-3.3355910">
        <ele>1120.6</ele>
        <time>2022-06-27T10:24:37Z</time>
      </trkpt>
      <trkpt lat="42.3738500" lon="-3.3356190">
        <ele>1121.0</ele>
        <time>2022-06-27T10:24:38Z</time>
      </trkpt>
      <trkpt lat="42.3738560" lon="-3.3356430">
        <ele>1121.4</ele>
        <time>2022-06-27T10:24:39Z</time>
      </trkpt>
      <trkpt lat="42.3738610" lon="-3.3356650">
        <ele>1121.4</ele>
        <time>2022-06-27T10:24:40Z</time>
      </trkpt>
      <trkpt lat="42.3738660" lon="-3.3356880">
        <ele>1122.0</ele>
        <time>2022-06-27T10:24:41Z</time>
      </trkpt>
      <trkpt lat="42.3738670" lon="-3.3357140">
        <ele>1122.2</ele>
        <time>2022-06-27T10:24:42Z</time>
      </trkpt>
      <trkpt lat="42.3738690" lon="-3.3357440">
        <ele>1122.8</ele>
        <time>2022-06-27T10:24:43Z</time>
      </trkpt>
      <trkpt lat="42.3738730" lon="-3.3357700">
        <ele>1122.8</ele>
        <time>2022-06-27T10:24:44Z</time>
      </trkpt>
      <trkpt lat="42.3738760" lon="-3.3357960">
        <ele>1123.4</ele>
        <time>2022-06-27T10:24:45Z</time>
      </trkpt>
      <trkpt lat="42.3738770" lon="-3.3358220">
        <ele>1123.8</ele>
        <time>2022-06-27T10:24:46Z</time>
      </trkpt>
      <trkpt lat="42.3738800" lon="-3.3358450">
        <ele>1124.0</ele>
        <time>2022-06-27T10:24:47Z</time>
      </trkpt>
      <trkpt lat="42.3738850" lon="-3.3358660">
        <ele>1124.4</ele>
        <time>2022-06-27T10:24:48Z</time>
      </trkpt>
      <trkpt lat="42.3738890" lon="-3.3358840">
        <ele>1124.6</ele>
        <time>2022-06-27T10:24:49Z</time>
      </trkpt>
      <trkpt lat="42.3738930" lon="-3.3359050">
        <ele>1125.2</ele>
        <time>2022-06-27T10:24:50Z</time>
      </trkpt>
      <trkpt lat="42.3738940" lon="-3.3359250">
        <ele>1125.4</ele>
        <time>2022-06-27T10:24:51Z</time>
      </trkpt>
      <trkpt lat="42.3738920" lon="-3.3359480">
        <ele>1126.0</ele>
        <time>2022-06-27T10:24:52Z</time>
      </trkpt>
      <trkpt lat="42.3738920" lon="-3.3359720">
        <ele>1126.2</ele>
        <time>2022-06-27T10:24:53Z</time>
      </trkpt>
      <trkpt lat="42.3738930" lon="-3.3359970">
        <ele>1126.4</ele>
        <time>2022-06-27T10:24:54Z</time>
      </trkpt>
      <trkpt lat="42.3738950" lon="-3.3360230">
        <ele>1126.8</ele>
        <time>2022-06-27T10:24:55Z</time>
      </trkpt>
      <trkpt lat="42.3738980" lon="-3.3360470">
        <ele>1127.0</ele>
        <time>2022-06-27T10:24:56Z</time>
      </trkpt>
      <trkpt lat="42.3738980" lon="-3.3360710">
        <ele>1127.2</ele>
        <time>2022-06-27T10:24:57Z</time>
      </trkpt>
      <trkpt lat="42.3738970" lon="-3.3360940">
        <ele>1127.4</ele>
        <time>2022-06-27T10:24:58Z</time>
      </trkpt>
      <trkpt lat="42.3738980" lon="-3.3361180">
        <ele>1127.8</ele>
        <time>2022-06-27T10:24:59Z</time>
      </trkpt>
      <trkpt lat="42.3738990" lon="-3.3361410">
        <ele>1127.8</ele>
        <time>2022-06-27T10:25:00Z</time>
      </trkpt>
      <trkpt lat="42.3739020" lon="-3.3361630">
        <ele>1128.0</ele>
        <time>2022-06-27T10:25:01Z</time>
      </trkpt>
      <trkpt lat="42.3739050" lon="-3.3361840">
        <ele>1128.2</ele>
        <time>2022-06-27T10:25:02Z</time>
      </trkpt>
      <trkpt lat="42.3739080" lon="-3.3362060">
        <ele>1128.6</ele>
        <time>2022-06-27T10:25:03Z</time>
      </trkpt>
      <trkpt lat="42.3739100" lon="-3.3362260">
        <ele>1128.8</ele>
        <time>2022-06-27T10:25:04Z</time>
      </trkpt>
      <trkpt lat="42.3739110" lon="-3.3362470">
        <ele>1129.0</ele>
        <time>2022-06-27T10:25:05Z</time>
      </trkpt>
      <trkpt lat="42.3739120" lon="-3.3362730">
        <ele>1129.4</ele>
        <time>2022-06-27T10:25:06Z</time>
      </trkpt>
      <trkpt lat="42.3739120" lon="-3.3362990">
        <ele>1129.6</ele>
        <time>2022-06-27T10:25:07Z</time>
      </trkpt>
      <trkpt lat="42.3739130" lon="-3.3363250">
        <ele>1130.2</ele>
        <time>2022-06-27T10:25:08Z</time>
      </trkpt>
      <trkpt lat="42.3739160" lon="-3.3363480">
        <ele>1130.6</ele>
        <time>2022-06-27T10:25:09Z</time>
      </trkpt>
      <trkpt lat="42.3739210" lon="-3.3363690">
        <ele>1130.6</ele>
        <time>2022-06-27T10:25:10Z</time>
      </trkpt>
      <trkpt lat="42.3739210" lon="-3.3363850">
        <ele>1130.8</ele>
        <time>2022-06-27T10:25:11Z</time>
      </trkpt>
      <trkpt lat="42.3739210" lon="-3.3364070">
        <ele>1131.0</ele>
        <time>2022-06-27T10:25:12Z</time>
      </trkpt>
      <trkpt lat="42.3739220" lon="-3.3364300">
        <ele>1131.4</ele>
        <time>2022-06-27T10:25:13Z</time>
      </trkpt>
      <trkpt lat="42.3739270" lon="-3.3364520">
        <ele>1131.6</ele>
        <time>2022-06-27T10:25:14Z</time>
      </trkpt>
      <trkpt lat="42.3739290" lon="-3.3364740">
        <ele>1132.0</ele>
        <time>2022-06-27T10:25:15Z</time>
      </trkpt>
      <trkpt lat="42.3739280" lon="-3.3364970">
        <ele>1132.2</ele>
        <time>2022-06-27T10:25:16Z</time>
      </trkpt>
      <trkpt lat="42.3739300" lon="-3.3365270">
        <ele>1132.4</ele>
        <time>2022-06-27T10:25:17Z</time>
      </trkpt>
      <trkpt lat="42.3739320" lon="-3.3365490">
        <ele>1132.8</ele>
        <time>2022-06-27T10:25:18Z</time>
      </trkpt>
      <trkpt lat="42.3739310" lon="-3.3365720">
        <ele>1133.0</ele>
        <time>2022-06-27T10:25:19Z</time>
      </trkpt>
      <trkpt lat="42.3739300" lon="-3.3365950">
        <ele>1133.2</ele>
        <time>2022-06-27T10:25:20Z</time>
      </trkpt>
      <trkpt lat="42.3739300" lon="-3.3366210">
        <ele>1133.2</ele>
        <time>2022-06-27T10:25:21Z</time>
      </trkpt>
      <trkpt lat="42.3739280" lon="-3.3366450">
        <ele>1133.8</ele>
        <time>2022-06-27T10:25:22Z</time>
      </trkpt>
      <trkpt lat="42.3739240" lon="-3.3366760">
        <ele>1134.0</ele>
        <time>2022-06-27T10:25:23Z</time>
      </trkpt>
      <trkpt lat="42.3739320" lon="-3.3367080">
        <ele>1134.4</ele>
        <time>2022-06-27T10:25:24Z</time>
      </trkpt>
      <trkpt lat="42.3739290" lon="-3.3367360">
        <ele>1134.6</ele>
        <time>2022-06-27T10:25:25Z</time>
      </trkpt>
      <trkpt lat="42.3739280" lon="-3.3367680">
        <ele>1134.8</ele>
        <time>2022-06-27T10:25:26Z</time>
      </trkpt>
      <trkpt lat="42.3739290" lon="-3.3367940">
        <ele>1135.2</ele>
        <time>2022-06-27T10:25:27Z</time>
      </trkpt>
      <trkpt lat="42.3739270" lon="-3.3368250">
        <ele>1135.4</ele>
        <time>2022-06-27T10:25:28Z</time>
      </trkpt>
      <trkpt lat="42.3739310" lon="-3.3368560">
        <ele>1135.8</ele>
        <time>2022-06-27T10:25:29Z</time>
      </trkpt>
      <trkpt lat="42.3739350" lon="-3.3368810">
        <ele>1136.0</ele>
        <time>2022-06-27T10:25:30Z</time>
      </trkpt>
      <trkpt lat="42.3739330" lon="-3.3369070">
        <ele>1136.0</ele>
        <time>2022-06-27T10:25:31Z</time>
      </trkpt>
      <trkpt lat="42.3739310" lon="-3.3369340">
        <ele>1136.2</ele>
        <time>2022-06-27T10:25:32Z</time>
      </trkpt>
      <trkpt lat="42.3739250" lon="-3.3369660">
        <ele>1136.4</ele>
        <time>2022-06-27T10:25:33Z</time>
      </trkpt>
      <trkpt lat="42.3739250" lon="-3.3369950">
        <ele>1136.8</ele>
        <time>2022-06-27T10:25:34Z</time>
      </trkpt>
      <trkpt lat="42.3739250" lon="-3.3370260">
        <ele>1137.0</ele>
        <time>2022-06-27T10:25:35Z</time>
      </trkpt>
      <trkpt lat="42.3739210" lon="-3.3370550">
        <ele>1137.2</ele>
        <time>2022-06-27T10:25:36Z</time>
      </trkpt>
      <trkpt lat="42.3739110" lon="-3.3370850">
        <ele>1137.4</ele>
        <time>2022-06-27T10:25:37Z</time>
      </trkpt>
      <trkpt lat="42.3739060" lon="-3.3371070">
        <ele>1137.6</ele>
        <time>2022-06-27T10:25:38Z</time>
      </trkpt>
      <trkpt lat="42.3739030" lon="-3.3371390">
        <ele>1137.8</ele>
        <time>2022-06-27T10:25:39Z</time>
      </trkpt>
      <trkpt lat="42.3739020" lon="-3.3371720">
        <ele>1138.0</ele>
        <time>2022-06-27T10:25:40Z</time>
      </trkpt>
      <trkpt lat="42.3738950" lon="-3.3372100">
        <ele>1138.2</ele>
        <time>2022-06-27T10:25:41Z</time>
      </trkpt>
      <trkpt lat="42.3738830" lon="-3.3372570">
        <ele>1138.2</ele>
        <time>2022-06-27T10:25:42Z</time>
      </trkpt>
      <trkpt lat="42.3738740" lon="-3.3372950">
        <ele>1138.2</ele>
        <time>2022-06-27T10:25:43Z</time>
      </trkpt>
      <trkpt lat="42.3738790" lon="-3.3373260">
        <ele>1138.4</ele>
        <time>2022-06-27T10:25:44Z</time>
      </trkpt>
      <trkpt lat="42.3738810" lon="-3.3373520">
        <ele>1138.4</ele>
        <time>2022-06-27T10:25:45Z</time>
      </trkpt>
      <trkpt lat="42.3738820" lon="-3.3373850">
        <ele>1138.6</ele>
        <time>2022-06-27T10:25:46Z</time>
      </trkpt>
      <trkpt lat="42.3738930" lon="-3.3374060">
        <ele>1138.8</ele>
        <time>2022-06-27T10:25:47Z</time>
      </trkpt>
      <trkpt lat="42.3739080" lon="-3.3374220">
        <ele>1139.4</ele>
        <time>2022-06-27T10:25:48Z</time>
      </trkpt>
      <trkpt lat="42.3739050" lon="-3.3374480">
        <ele>1139.4</ele>
        <time>2022-06-27T10:25:49Z</time>
      </trkpt>
      <trkpt lat="42.3739020" lon="-3.3374740">
        <ele>1140.0</ele>
        <time>2022-06-27T10:25:50Z</time>
      </trkpt>
      <trkpt lat="42.3739000" lon="-3.3375010">
        <ele>1140.4</ele>
        <time>2022-06-27T10:25:51Z</time>
      </trkpt>
      <trkpt lat="42.3739010" lon="-3.3375300">
        <ele>1141.0</ele>
        <time>2022-06-27T10:25:52Z</time>
      </trkpt>
      <trkpt lat="42.3739000" lon="-3.3375590">
        <ele>1141.4</ele>
        <time>2022-06-27T10:25:53Z</time>
      </trkpt>
      <trkpt lat="42.3739010" lon="-3.3375860">
        <ele>1141.4</ele>
        <time>2022-06-27T10:25:54Z</time>
      </trkpt>
      <trkpt lat="42.3739010" lon="-3.3376140">
        <ele>1141.6</ele>
        <time>2022-06-27T10:25:55Z</time>
      </trkpt>
      <trkpt lat="42.3739030" lon="-3.3376420">
        <ele>1141.6</ele>
        <time>2022-06-27T10:25:56Z</time>
      </trkpt>
      <trkpt lat="42.3739030" lon="-3.3376700">
        <ele>1141.8</ele>
        <time>2022-06-27T10:25:57Z</time>
      </trkpt>
      <trkpt lat="42.3739000" lon="-3.3377010">
        <ele>1141.8</ele>
        <time>2022-06-27T10:25:58Z</time>
      </trkpt>
      <trkpt lat="42.3738960" lon="-3.3377290">
        <ele>1142.4</ele>
        <time>2022-06-27T10:25:59Z</time>
      </trkpt>
      <trkpt lat="42.3738940" lon="-3.3377520">
        <ele>1142.8</ele>
        <time>2022-06-27T10:26:00Z</time>
      </trkpt>
      <trkpt lat="42.3738900" lon="-3.3377750">
        <ele>1142.8</ele>
        <time>2022-06-27T10:26:01Z</time>
      </trkpt>
      <trkpt lat="42.3738890" lon="-3.3377930">
        <ele>1143.0</ele>
        <time>2022-06-27T10:26:02Z</time>
      </trkpt>
      <trkpt lat="42.3738880" lon="-3.3378230">
        <ele>1143.2</ele>
        <time>2022-06-27T10:26:03Z</time>
      </trkpt>
      <trkpt lat="42.3738880" lon="-3.3378490">
        <ele>1143.4</ele>
        <time>2022-06-27T10:26:04Z</time>
      </trkpt>
      <trkpt lat="42.3738890" lon="-3.3378750">
        <ele>1143.4</ele>
        <time>2022-06-27T10:26:05Z</time>
      </trkpt>
      <trkpt lat="42.3738890" lon="-3.3378970">
        <ele>1143.8</ele>
        <time>2022-06-27T10:26:06Z</time>
      </trkpt>
      <trkpt lat="42.3738850" lon="-3.3379240">
        <ele>1143.8</ele>
        <time>2022-06-27T10:26:07Z</time>
      </trkpt>
      <trkpt lat="42.3738800" lon="-3.3379560">
        <ele>1144.0</ele>
        <time>2022-06-27T10:26:08Z</time>
      </trkpt>
      <trkpt lat="42.3738760" lon="-3.3379840">
        <ele>1144.0</ele>
        <time>2022-06-27T10:26:09Z</time>
      </trkpt>
      <trkpt lat="42.3738730" lon="-3.3380060">
        <ele>1144.0</ele>
        <time>2022-06-27T10:26:10Z</time>
      </trkpt>
      <trkpt lat="42.3738710" lon="-3.3380340">
        <ele>1144.2</ele>
        <time>2022-06-27T10:26:11Z</time>
      </trkpt>
      <trkpt lat="42.3738690" lon="-3.3380660">
        <ele>1144.6</ele>
        <time>2022-06-27T10:26:12Z</time>
      </trkpt>
      <trkpt lat="42.3738660" lon="-3.3381010">
        <ele>1145.0</ele>
        <time>2022-06-27T10:26:13Z</time>
      </trkpt>
      <trkpt lat="42.3738660" lon="-3.3381320">
        <ele>1145.0</ele>
        <time>2022-06-27T10:26:14Z</time>
      </trkpt>
      <trkpt lat="42.3738680" lon="-3.3381540">
        <ele>1145.4</ele>
        <time>2022-06-27T10:26:15Z</time>
      </trkpt>
      <trkpt lat="42.3738740" lon="-3.3381800">
        <ele>1145.8</ele>
        <time>2022-06-27T10:26:16Z</time>
      </trkpt>
      <trkpt lat="42.3738790" lon="-3.3382110">
        <ele>1146.0</ele>
        <time>2022-06-27T10:26:17Z</time>
      </trkpt>
      <trkpt lat="42.3738810" lon="-3.3382360">
        <ele>1146.2</ele>
        <time>2022-06-27T10:26:18Z</time>
      </trkpt>
      <trkpt lat="42.3738790" lon="-3.3382630">
        <ele>1146.2</ele>
        <time>2022-06-27T10:26:19Z</time>
      </trkpt>
      <trkpt lat="42.3738770" lon="-3.3382850">
        <ele>1146.2</ele>
        <time>2022-06-27T10:26:20Z</time>
      </trkpt>
      <trkpt lat="42.3738730" lon="-3.3383140">
        <ele>1146.4</ele>
        <time>2022-06-27T10:26:21Z</time>
      </trkpt>
      <trkpt lat="42.3738690" lon="-3.3383500">
        <ele>1146.6</ele>
        <time>2022-06-27T10:26:22Z</time>
      </trkpt>
      <trkpt lat="42.3738680" lon="-3.3383800">
        <ele>1146.8</ele>
        <time>2022-06-27T10:26:23Z</time>
      </trkpt>
      <trkpt lat="42.3738650" lon="-3.3384130">
        <ele>1147.2</ele>
        <time>2022-06-27T10:26:24Z</time>
      </trkpt>
      <trkpt lat="42.3738630" lon="-3.3384410">
        <ele>1147.4</ele>
        <time>2022-06-27T10:26:25Z</time>
      </trkpt>
      <trkpt lat="42.3738600" lon="-3.3384740">
        <ele>1147.6</ele>
        <time>2022-06-27T10:26:26Z</time>
      </trkpt>
      <trkpt lat="42.3738570" lon="-3.3385110">
        <ele>1148.0</ele>
        <time>2022-06-27T10:26:27Z</time>
      </trkpt>
      <trkpt lat="42.3738540" lon="-3.3385410">
        <ele>1148.2</ele>
        <time>2022-06-27T10:26:28Z</time>
      </trkpt>
      <trkpt lat="42.3738490" lon="-3.3385630">
        <ele>1148.4</ele>
        <time>2022-06-27T10:26:29Z</time>
      </trkpt>
      <trkpt lat="42.3738430" lon="-3.3385940">
        <ele>1148.6</ele>
        <time>2022-06-27T10:26:30Z</time>
      </trkpt>
      <trkpt lat="42.3738380" lon="-3.3386240">
        <ele>1148.6</ele>
        <time>2022-06-27T10:26:31Z</time>
      </trkpt>
      <trkpt lat="42.3738340" lon="-3.3386600">
        <ele>1148.6</ele>
        <time>2022-06-27T10:26:32Z</time>
      </trkpt>
      <trkpt lat="42.3738290" lon="-3.3386870">
        <ele>1148.8</ele>
        <time>2022-06-27T10:26:33Z</time>
      </trkpt>
      <trkpt lat="42.3738250" lon="-3.3387140">
        <ele>1149.4</ele>
        <time>2022-06-27T10:26:34Z</time>
      </trkpt>
      <trkpt lat="42.3738200" lon="-3.3387400">
        <ele>1149.4</ele>
        <time>2022-06-27T10:26:35Z</time>
      </trkpt>
      <trkpt lat="42.3738130" lon="-3.3387660">
        <ele>1149.8</ele>
        <time>2022-06-27T10:26:36Z</time>
      </trkpt>
      <trkpt lat="42.3738070" lon="-3.3387910">
        <ele>1149.8</ele>
        <time>2022-06-27T10:26:37Z</time>
      </trkpt>
      <trkpt lat="42.3738010" lon="-3.3388200">
        <ele>1150.2</ele>
        <time>2022-06-27T10:26:38Z</time>
      </trkpt>
      <trkpt lat="42.3737950" lon="-3.3388400">
        <ele>1150.4</ele>
        <time>2022-06-27T10:26:39Z</time>
      </trkpt>
      <trkpt lat="42.3737900" lon="-3.3388620">
        <ele>1150.4</ele>
        <time>2022-06-27T10:26:40Z</time>
      </trkpt>
      <trkpt lat="42.3737860" lon="-3.3388840">
        <ele>1150.4</ele>
        <time>2022-06-27T10:26:41Z</time>
      </trkpt>
      <trkpt lat="42.3737840" lon="-3.3389060">
        <ele>1150.4</ele>
        <time>2022-06-27T10:26:42Z</time>
      </trkpt>
      <trkpt lat="42.3737800" lon="-3.3389340">
        <ele>1150.4</ele>
        <time>2022-06-27T10:26:43Z</time>
      </trkpt>
      <trkpt lat="42.3737740" lon="-3.3389560">
        <ele>1150.6</ele>
        <time>2022-06-27T10:26:44Z</time>
      </trkpt>
      <trkpt lat="42.3737660" lon="-3.3389860">
        <ele>1150.6</ele>
        <time>2022-06-27T10:26:45Z</time>
      </trkpt>
      <trkpt lat="42.3737590" lon="-3.3390230">
        <ele>1150.4</ele>
        <time>2022-06-27T10:26:46Z</time>
      </trkpt>
      <trkpt lat="42.3737550" lon="-3.3390550">
        <ele>1150.4</ele>
        <time>2022-06-27T10:26:47Z</time>
      </trkpt>
      <trkpt lat="42.3737470" lon="-3.3390870">
        <ele>1150.4</ele>
        <time>2022-06-27T10:26:48Z</time>
      </trkpt>
      <trkpt lat="42.3737400" lon="-3.3391190">
        <ele>1150.4</ele>
        <time>2022-06-27T10:26:49Z</time>
      </trkpt>
      <trkpt lat="42.3737330" lon="-3.3391600">
        <ele>1150.4</ele>
        <time>2022-06-27T10:26:50Z</time>
      </trkpt>
      <trkpt lat="42.3737280" lon="-3.3392110">
        <ele>1150.4</ele>
        <time>2022-06-27T10:26:51Z</time>
      </trkpt>
      <trkpt lat="42.3737220" lon="-3.3392530">
        <ele>1150.6</ele>
        <time>2022-06-27T10:26:52Z</time>
      </trkpt>
      <trkpt lat="42.3737160" lon="-3.3392860">
        <ele>1150.6</ele>
        <time>2022-06-27T10:26:53Z</time>
      </trkpt>
      <trkpt lat="42.3737080" lon="-3.3393340">
        <ele>1150.8</ele>
        <time>2022-06-27T10:26:54Z</time>
      </trkpt>
      <trkpt lat="42.3737030" lon="-3.3393870">
        <ele>1150.8</ele>
        <time>2022-06-27T10:26:55Z</time>
      </trkpt>
      <trkpt lat="42.3737010" lon="-3.3394310">
        <ele>1150.8</ele>
        <time>2022-06-27T10:26:56Z</time>
      </trkpt>
      <trkpt lat="42.3736960" lon="-3.3394690">
        <ele>1150.8</ele>
        <time>2022-06-27T10:26:57Z</time>
      </trkpt>
      <trkpt lat="42.3736880" lon="-3.3395060">
        <ele>1150.8</ele>
        <time>2022-06-27T10:26:58Z</time>
      </trkpt>
      <trkpt lat="42.3736810" lon="-3.3395320">
        <ele>1151.0</ele>
        <time>2022-06-27T10:26:59Z</time>
      </trkpt>
      <trkpt lat="42.3736730" lon="-3.3395750">
        <ele>1151.2</ele>
        <time>2022-06-27T10:27:00Z</time>
      </trkpt>
      <trkpt lat="42.3736670" lon="-3.3396090">
        <ele>1151.2</ele>
        <time>2022-06-27T10:27:01Z</time>
      </trkpt>
      <trkpt lat="42.3736570" lon="-3.3396480">
        <ele>1151.2</ele>
        <time>2022-06-27T10:27:02Z</time>
      </trkpt>
      <trkpt lat="42.3736470" lon="-3.3396790">
        <ele>1151.4</ele>
        <time>2022-06-27T10:27:03Z</time>
      </trkpt>
      <trkpt lat="42.3736360" lon="-3.3397210">
        <ele>1151.4</ele>
        <time>2022-06-27T10:27:04Z</time>
      </trkpt>
      <trkpt lat="42.3736210" lon="-3.3397730">
        <ele>1151.4</ele>
        <time>2022-06-27T10:27:05Z</time>
      </trkpt>
      <trkpt lat="42.3736080" lon="-3.3398170">
        <ele>1151.4</ele>
        <time>2022-06-27T10:27:06Z</time>
      </trkpt>
      <trkpt lat="42.3735940" lon="-3.3398630">
        <ele>1151.4</ele>
        <time>2022-06-27T10:27:07Z</time>
      </trkpt>
      <trkpt lat="42.3735810" lon="-3.3399020">
        <ele>1151.4</ele>
        <time>2022-06-27T10:27:08Z</time>
      </trkpt>
      <trkpt lat="42.3735640" lon="-3.3399500">
        <ele>1151.4</ele>
        <time>2022-06-27T10:27:09Z</time>
      </trkpt>
      <trkpt lat="42.3735440" lon="-3.3400120">
        <ele>1151.4</ele>
        <time>2022-06-27T10:27:10Z</time>
      </trkpt>
      <trkpt lat="42.3735280" lon="-3.3400660">
        <ele>1151.4</ele>
        <time>2022-06-27T10:27:11Z</time>
      </trkpt>
      <trkpt lat="42.3735170" lon="-3.3401060">
        <ele>1151.4</ele>
        <time>2022-06-27T10:27:12Z</time>
      </trkpt>
      <trkpt lat="42.3734990" lon="-3.3401590">
        <ele>1151.4</ele>
        <time>2022-06-27T10:27:13Z</time>
      </trkpt>
      <trkpt lat="42.3734830" lon="-3.3402100">
        <ele>1151.4</ele>
        <time>2022-06-27T10:27:14Z</time>
      </trkpt>
      <trkpt lat="42.3734610" lon="-3.3402720">
        <ele>1151.8</ele>
        <time>2022-06-27T10:27:15Z</time>
      </trkpt>
      <trkpt lat="42.3734440" lon="-3.3403240">
        <ele>1151.4</ele>
        <time>2022-06-27T10:27:16Z</time>
      </trkpt>
      <trkpt lat="42.3734280" lon="-3.3403780">
        <ele>1151.4</ele>
        <time>2022-06-27T10:27:17Z</time>
      </trkpt>
      <trkpt lat="42.3734130" lon="-3.3404340">
        <ele>1151.2</ele>
        <time>2022-06-27T10:27:18Z</time>
      </trkpt>
      <trkpt lat="42.3733990" lon="-3.3404930">
        <ele>1151.4</ele>
        <time>2022-06-27T10:27:19Z</time>
      </trkpt>
      <trkpt lat="42.3733840" lon="-3.3405490">
        <ele>1151.4</ele>
        <time>2022-06-27T10:27:20Z</time>
      </trkpt>
      <trkpt lat="42.3733650" lon="-3.3406070">
        <ele>1151.4</ele>
        <time>2022-06-27T10:27:21Z</time>
      </trkpt>
      <trkpt lat="42.3733500" lon="-3.3406530">
        <ele>1151.0</ele>
        <time>2022-06-27T10:27:22Z</time>
      </trkpt>
      <trkpt lat="42.3733310" lon="-3.3407110">
        <ele>1151.0</ele>
        <time>2022-06-27T10:27:23Z</time>
      </trkpt>
      <trkpt lat="42.3733110" lon="-3.3407770">
        <ele>1150.8</ele>
        <time>2022-06-27T10:27:24Z</time>
      </trkpt>
      <trkpt lat="42.3732950" lon="-3.3408300">
        <ele>1150.8</ele>
        <time>2022-06-27T10:27:25Z</time>
      </trkpt>
      <trkpt lat="42.3732810" lon="-3.3408850">
        <ele>1150.8</ele>
        <time>2022-06-27T10:27:26Z</time>
      </trkpt>
      <trkpt lat="42.3732640" lon="-3.3409390">
        <ele>1150.8</ele>
        <time>2022-06-27T10:27:27Z</time>
      </trkpt>
      <trkpt lat="42.3732490" lon="-3.3409810">
        <ele>1150.8</ele>
        <time>2022-06-27T10:27:28Z</time>
      </trkpt>
      <trkpt lat="42.3732290" lon="-3.3410450">
        <ele>1151.0</ele>
        <time>2022-06-27T10:27:29Z</time>
      </trkpt>
      <trkpt lat="42.3732120" lon="-3.3410970">
        <ele>1151.4</ele>
        <time>2022-06-27T10:27:30Z</time>
      </trkpt>
      <trkpt lat="42.3732000" lon="-3.3411370">
        <ele>1151.4</ele>
        <time>2022-06-27T10:27:31Z</time>
      </trkpt>
      <trkpt lat="42.3731850" lon="-3.3411880">
        <ele>1151.6</ele>
        <time>2022-06-27T10:27:32Z</time>
      </trkpt>
      <trkpt lat="42.3731700" lon="-3.3412390">
        <ele>1151.6</ele>
        <time>2022-06-27T10:27:33Z</time>
      </trkpt>
      <trkpt lat="42.3731500" lon="-3.3413010">
        <ele>1151.6</ele>
        <time>2022-06-27T10:27:34Z</time>
      </trkpt>
      <trkpt lat="42.3731330" lon="-3.3413480">
        <ele>1151.6</ele>
        <time>2022-06-27T10:27:35Z</time>
      </trkpt>
      <trkpt lat="42.3731190" lon="-3.3413850">
        <ele>1151.6</ele>
        <time>2022-06-27T10:27:36Z</time>
      </trkpt>
      <trkpt lat="42.3731010" lon="-3.3414310">
        <ele>1151.6</ele>
        <time>2022-06-27T10:27:37Z</time>
      </trkpt>
      <trkpt lat="42.3730760" lon="-3.3414860">
        <ele>1151.8</ele>
        <time>2022-06-27T10:27:38Z</time>
      </trkpt>
      <trkpt lat="42.3730550" lon="-3.3415290">
        <ele>1151.8</ele>
        <time>2022-06-27T10:27:39Z</time>
      </trkpt>
      <trkpt lat="42.3730410" lon="-3.3415700">
        <ele>1151.8</ele>
        <time>2022-06-27T10:27:40Z</time>
      </trkpt>
      <trkpt lat="42.3730300" lon="-3.3416010">
        <ele>1151.8</ele>
        <time>2022-06-27T10:27:41Z</time>
      </trkpt>
      <trkpt lat="42.3730130" lon="-3.3416400">
        <ele>1152.2</ele>
        <time>2022-06-27T10:27:42Z</time>
      </trkpt>
      <trkpt lat="42.3729900" lon="-3.3416810">
        <ele>1152.6</ele>
        <time>2022-06-27T10:27:43Z</time>
      </trkpt>
      <trkpt lat="42.3729740" lon="-3.3417160">
        <ele>1152.6</ele>
        <time>2022-06-27T10:27:44Z</time>
      </trkpt>
      <trkpt lat="42.3729580" lon="-3.3417500">
        <ele>1152.6</ele>
        <time>2022-06-27T10:27:45Z</time>
      </trkpt>
      <trkpt lat="42.3729420" lon="-3.3417860">
        <ele>1152.4</ele>
        <time>2022-06-27T10:27:46Z</time>
      </trkpt>
      <trkpt lat="42.3729300" lon="-3.3418110">
        <ele>1152.4</ele>
        <time>2022-06-27T10:27:47Z</time>
      </trkpt>
      <trkpt lat="42.3729110" lon="-3.3418500">
        <ele>1152.4</ele>
        <time>2022-06-27T10:27:48Z</time>
      </trkpt>
      <trkpt lat="42.3728960" lon="-3.3418820">
        <ele>1152.4</ele>
        <time>2022-06-27T10:27:49Z</time>
      </trkpt>
      <trkpt lat="42.3728830" lon="-3.3419120">
        <ele>1152.2</ele>
        <time>2022-06-27T10:27:50Z</time>
      </trkpt>
      <trkpt lat="42.3729980" lon="-3.3416490">
        <ele>1150.8</ele>
        <time>2022-06-27T10:35:25Z</time>
      </trkpt>
      <trkpt lat="42.3730120" lon="-3.3416210">
        <ele>1150.8</ele>
        <time>2022-06-27T10:35:26Z</time>
      </trkpt>
      <trkpt lat="42.3730260" lon="-3.3415910">
        <ele>1151.2</ele>
        <time>2022-06-27T10:35:27Z</time>
      </trkpt>
      <trkpt lat="42.3730440" lon="-3.3415620">
        <ele>1151.2</ele>
        <time>2022-06-27T10:35:28Z</time>
      </trkpt>
      <trkpt lat="42.3730610" lon="-3.3415350">
        <ele>1151.4</ele>
        <time>2022-06-27T10:35:29Z</time>
      </trkpt>
      <trkpt lat="42.3730750" lon="-3.3415040">
        <ele>1151.6</ele>
        <time>2022-06-27T10:35:30Z</time>
      </trkpt>
      <trkpt lat="42.3730900" lon="-3.3414680">
        <ele>1151.6</ele>
        <time>2022-06-27T10:35:31Z</time>
      </trkpt>
      <trkpt lat="42.3731070" lon="-3.3414280">
        <ele>1151.8</ele>
        <time>2022-06-27T10:35:32Z</time>
      </trkpt>
      <trkpt lat="42.3731250" lon="-3.3413840">
        <ele>1151.8</ele>
        <time>2022-06-27T10:35:33Z</time>
      </trkpt>
      <trkpt lat="42.3731430" lon="-3.3413360">
        <ele>1151.8</ele>
        <time>2022-06-27T10:35:34Z</time>
      </trkpt>
      <trkpt lat="42.3731600" lon="-3.3412860">
        <ele>1151.8</ele>
        <time>2022-06-27T10:35:35Z</time>
      </trkpt>
      <trkpt lat="42.3731780" lon="-3.3412340">
        <ele>1151.8</ele>
        <time>2022-06-27T10:35:36Z</time>
      </trkpt>
      <trkpt lat="42.3731970" lon="-3.3411840">
        <ele>1151.8</ele>
        <time>2022-06-27T10:35:37Z</time>
      </trkpt>
      <trkpt lat="42.3732180" lon="-3.3411350">
        <ele>1151.8</ele>
        <time>2022-06-27T10:35:38Z</time>
      </trkpt>
      <trkpt lat="42.3732350" lon="-3.3410870">
        <ele>1151.8</ele>
        <time>2022-06-27T10:35:39Z</time>
      </trkpt>
      <trkpt lat="42.3732480" lon="-3.3410390">
        <ele>1151.8</ele>
        <time>2022-06-27T10:35:40Z</time>
      </trkpt>
      <trkpt lat="42.3732590" lon="-3.3409900">
        <ele>1151.8</ele>
        <time>2022-06-27T10:35:41Z</time>
      </trkpt>
      <trkpt lat="42.3732710" lon="-3.3409420">
        <ele>1151.8</ele>
        <time>2022-06-27T10:35:42Z</time>
      </trkpt>
      <trkpt lat="42.3732830" lon="-3.3408930">
        <ele>1151.6</ele>
        <time>2022-06-27T10:35:43Z</time>
      </trkpt>
      <trkpt lat="42.3732980" lon="-3.3408420">
        <ele>1151.6</ele>
        <time>2022-06-27T10:35:44Z</time>
      </trkpt>
      <trkpt lat="42.3733140" lon="-3.3407890">
        <ele>1151.4</ele>
        <time>2022-06-27T10:35:45Z</time>
      </trkpt>
      <trkpt lat="42.3733310" lon="-3.3407380">
        <ele>1151.4</ele>
        <time>2022-06-27T10:35:46Z</time>
      </trkpt>
      <trkpt lat="42.3733470" lon="-3.3406860">
        <ele>1151.4</ele>
        <time>2022-06-27T10:35:47Z</time>
      </trkpt>
      <trkpt lat="42.3733620" lon="-3.3406350">
        <ele>1151.4</ele>
        <time>2022-06-27T10:35:48Z</time>
      </trkpt>
      <trkpt lat="42.3733790" lon="-3.3405850">
        <ele>1151.4</ele>
        <time>2022-06-27T10:35:49Z</time>
      </trkpt>
      <trkpt lat="42.3733960" lon="-3.3405360">
        <ele>1151.4</ele>
        <time>2022-06-27T10:35:50Z</time>
      </trkpt>
      <trkpt lat="42.3734160" lon="-3.3404850">
        <ele>1151.4</ele>
        <time>2022-06-27T10:35:51Z</time>
      </trkpt>
      <trkpt lat="42.3734340" lon="-3.3404340">
        <ele>1151.4</ele>
        <time>2022-06-27T10:35:52Z</time>
      </trkpt>
      <trkpt lat="42.3734500" lon="-3.3403820">
        <ele>1151.2</ele>
        <time>2022-06-27T10:35:53Z</time>
      </trkpt>
      <trkpt lat="42.3734630" lon="-3.3403290">
        <ele>1151.2</ele>
        <time>2022-06-27T10:35:54Z</time>
      </trkpt>
      <trkpt lat="42.3734800" lon="-3.3402770">
        <ele>1151.2</ele>
        <time>2022-06-27T10:35:55Z</time>
      </trkpt>
      <trkpt lat="42.3734980" lon="-3.3402250">
        <ele>1151.2</ele>
        <time>2022-06-27T10:35:56Z</time>
      </trkpt>
      <trkpt lat="42.3735160" lon="-3.3401760">
        <ele>1151.2</ele>
        <time>2022-06-27T10:35:57Z</time>
      </trkpt>
      <trkpt lat="42.3735340" lon="-3.3401300">
        <ele>1151.0</ele>
        <time>2022-06-27T10:35:58Z</time>
      </trkpt>
      <trkpt lat="42.3735500" lon="-3.3400850">
        <ele>1151.0</ele>
        <time>2022-06-27T10:35:59Z</time>
      </trkpt>
      <trkpt lat="42.3735620" lon="-3.3400420">
        <ele>1151.0</ele>
        <time>2022-06-27T10:36:00Z</time>
      </trkpt>
      <trkpt lat="42.3735740" lon="-3.3399960">
        <ele>1151.0</ele>
        <time>2022-06-27T10:36:01Z</time>
      </trkpt>
      <trkpt lat="42.3735850" lon="-3.3399500">
        <ele>1151.0</ele>
        <time>2022-06-27T10:36:02Z</time>
      </trkpt>
      <trkpt lat="42.3735980" lon="-3.3399040">
        <ele>1151.0</ele>
        <time>2022-06-27T10:36:03Z</time>
      </trkpt>
      <trkpt lat="42.3736130" lon="-3.3398610">
        <ele>1150.8</ele>
        <time>2022-06-27T10:36:04Z</time>
      </trkpt>
      <trkpt lat="42.3736290" lon="-3.3398170">
        <ele>1151.0</ele>
        <time>2022-06-27T10:36:05Z</time>
      </trkpt>
      <trkpt lat="42.3736420" lon="-3.3397730">
        <ele>1151.0</ele>
        <time>2022-06-27T10:36:06Z</time>
      </trkpt>
      <trkpt lat="42.3736530" lon="-3.3397300">
        <ele>1151.0</ele>
        <time>2022-06-27T10:36:07Z</time>
      </trkpt>
      <trkpt lat="42.3736630" lon="-3.3396830">
        <ele>1151.2</ele>
        <time>2022-06-27T10:36:08Z</time>
      </trkpt>
      <trkpt lat="42.3736720" lon="-3.3396350">
        <ele>1151.2</ele>
        <time>2022-06-27T10:36:09Z</time>
      </trkpt>
      <trkpt lat="42.3736820" lon="-3.3395850">
        <ele>1151.2</ele>
        <time>2022-06-27T10:36:10Z</time>
      </trkpt>
      <trkpt lat="42.3736900" lon="-3.3395370">
        <ele>1151.4</ele>
        <time>2022-06-27T10:36:11Z</time>
      </trkpt>
      <trkpt lat="42.3736960" lon="-3.3394880">
        <ele>1151.4</ele>
        <time>2022-06-27T10:36:12Z</time>
      </trkpt>
      <trkpt lat="42.3737020" lon="-3.3394450">
        <ele>1151.4</ele>
        <time>2022-06-27T10:36:13Z</time>
      </trkpt>
      <trkpt lat="42.3737090" lon="-3.3394030">
        <ele>1151.4</ele>
        <time>2022-06-27T10:36:14Z</time>
      </trkpt>
      <trkpt lat="42.3737180" lon="-3.3393560">
        <ele>1151.4</ele>
        <time>2022-06-27T10:36:15Z</time>
      </trkpt>
      <trkpt lat="42.3737280" lon="-3.3393060">
        <ele>1151.4</ele>
        <time>2022-06-27T10:36:16Z</time>
      </trkpt>
      <trkpt lat="42.3737380" lon="-3.3392570">
        <ele>1151.4</ele>
        <time>2022-06-27T10:36:17Z</time>
      </trkpt>
      <trkpt lat="42.3737490" lon="-3.3392100">
        <ele>1151.4</ele>
        <time>2022-06-27T10:36:18Z</time>
      </trkpt>
      <trkpt lat="42.3737630" lon="-3.3391670">
        <ele>1151.6</ele>
        <time>2022-06-27T10:36:19Z</time>
      </trkpt>
      <trkpt lat="42.3737790" lon="-3.3391210">
        <ele>1151.6</ele>
        <time>2022-06-27T10:36:20Z</time>
      </trkpt>
      <trkpt lat="42.3737910" lon="-3.3390760">
        <ele>1151.6</ele>
        <time>2022-06-27T10:36:21Z</time>
      </trkpt>
      <trkpt lat="42.3738030" lon="-3.3390270">
        <ele>1151.6</ele>
        <time>2022-06-27T10:36:22Z</time>
      </trkpt>
      <trkpt lat="42.3738130" lon="-3.3389770">
        <ele>1151.2</ele>
        <time>2022-06-27T10:36:23Z</time>
      </trkpt>
      <trkpt lat="42.3738200" lon="-3.3389340">
        <ele>1151.2</ele>
        <time>2022-06-27T10:36:24Z</time>
      </trkpt>
      <trkpt lat="42.3738270" lon="-3.3388920">
        <ele>1151.2</ele>
        <time>2022-06-27T10:36:25Z</time>
      </trkpt>
      <trkpt lat="42.3738360" lon="-3.3388460">
        <ele>1151.2</ele>
        <time>2022-06-27T10:36:26Z</time>
      </trkpt>
      <trkpt lat="42.3738450" lon="-3.3388000">
        <ele>1151.2</ele>
        <time>2022-06-27T10:36:27Z</time>
      </trkpt>
      <trkpt lat="42.3738530" lon="-3.3387530">
        <ele>1151.2</ele>
        <time>2022-06-27T10:36:28Z</time>
      </trkpt>
      <trkpt lat="42.3738650" lon="-3.3387020">
        <ele>1151.2</ele>
        <time>2022-06-27T10:36:29Z</time>
      </trkpt>
      <trkpt lat="42.3738780" lon="-3.3386450">
        <ele>1151.2</ele>
        <time>2022-06-27T10:36:30Z</time>
      </trkpt>
      <trkpt lat="42.3738910" lon="-3.3385880">
        <ele>1151.2</ele>
        <time>2022-06-27T10:36:31Z</time>
      </trkpt>
      <trkpt lat="42.3739010" lon="-3.3385270">
        <ele>1151.2</ele>
        <time>2022-06-27T10:36:32Z</time>
      </trkpt>
      <trkpt lat="42.3739070" lon="-3.3384680">
        <ele>1151.2</ele>
        <time>2022-06-27T10:36:33Z</time>
      </trkpt>
      <trkpt lat="42.3739110" lon="-3.3384100">
        <ele>1151.2</ele>
        <time>2022-06-27T10:36:34Z</time>
      </trkpt>
      <trkpt lat="42.3739130" lon="-3.3383560">
        <ele>1151.2</ele>
        <time>2022-06-27T10:36:35Z</time>
      </trkpt>
      <trkpt lat="42.3739160" lon="-3.3383020">
        <ele>1151.2</ele>
        <time>2022-06-27T10:36:36Z</time>
      </trkpt>
      <trkpt lat="42.3739190" lon="-3.3382460">
        <ele>1151.2</ele>
        <time>2022-06-27T10:36:37Z</time>
      </trkpt>
      <trkpt lat="42.3739210" lon="-3.3381890">
        <ele>1151.2</ele>
        <time>2022-06-27T10:36:38Z</time>
      </trkpt>
      <trkpt lat="42.3739250" lon="-3.3381340">
        <ele>1151.2</ele>
        <time>2022-06-27T10:36:39Z</time>
      </trkpt>
      <trkpt lat="42.3739240" lon="-3.3380830">
        <ele>1151.0</ele>
        <time>2022-06-27T10:36:40Z</time>
      </trkpt>
      <trkpt lat="42.3739250" lon="-3.3380340">
        <ele>1150.8</ele>
        <time>2022-06-27T10:36:41Z</time>
      </trkpt>
      <trkpt lat="42.3739260" lon="-3.3379860">
        <ele>1150.4</ele>
        <time>2022-06-27T10:36:42Z</time>
      </trkpt>
      <trkpt lat="42.3739260" lon="-3.3379390">
        <ele>1150.2</ele>
        <time>2022-06-27T10:36:43Z</time>
      </trkpt>
      <trkpt lat="42.3739310" lon="-3.3378930">
        <ele>1149.8</ele>
        <time>2022-06-27T10:36:44Z</time>
      </trkpt>
      <trkpt lat="42.3739350" lon="-3.3378480">
        <ele>1150.0</ele>
        <time>2022-06-27T10:36:45Z</time>
      </trkpt>
      <trkpt lat="42.3739370" lon="-3.3378060">
        <ele>1149.8</ele>
        <time>2022-06-27T10:36:46Z</time>
      </trkpt>
      <trkpt lat="42.3739400" lon="-3.3377640">
        <ele>1150.0</ele>
        <time>2022-06-27T10:36:47Z</time>
      </trkpt>
      <trkpt lat="42.3739430" lon="-3.3377210">
        <ele>1149.8</ele>
        <time>2022-06-27T10:36:48Z</time>
      </trkpt>
      <trkpt lat="42.3739470" lon="-3.3376770">
        <ele>1149.6</ele>
        <time>2022-06-27T10:36:49Z</time>
      </trkpt>
      <trkpt lat="42.3739540" lon="-3.3376330">
        <ele>1149.4</ele>
        <time>2022-06-27T10:36:50Z</time>
      </trkpt>
      <trkpt lat="42.3739610" lon="-3.3375850">
        <ele>1149.0</ele>
        <time>2022-06-27T10:36:51Z</time>
      </trkpt>
      <trkpt lat="42.3739680" lon="-3.3375340">
        <ele>1148.4</ele>
        <time>2022-06-27T10:36:52Z</time>
      </trkpt>
      <trkpt lat="42.3739720" lon="-3.3374790">
        <ele>1147.6</ele>
        <time>2022-06-27T10:36:53Z</time>
      </trkpt>
      <trkpt lat="42.3739710" lon="-3.3374190">
        <ele>1147.2</ele>
        <time>2022-06-27T10:36:54Z</time>
      </trkpt>
      <trkpt lat="42.3739760" lon="-3.3373530">
        <ele>1146.8</ele>
        <time>2022-06-27T10:36:55Z</time>
      </trkpt>
      <trkpt lat="42.3739760" lon="-3.3372860">
        <ele>1146.8</ele>
        <time>2022-06-27T10:36:56Z</time>
      </trkpt>
      <trkpt lat="42.3739780" lon="-3.3372160">
        <ele>1146.6</ele>
        <time>2022-06-27T10:36:57Z</time>
      </trkpt>
      <trkpt lat="42.3739790" lon="-3.3371480">
        <ele>1146.2</ele>
        <time>2022-06-27T10:36:58Z</time>
      </trkpt>
      <trkpt lat="42.3739820" lon="-3.3370850">
        <ele>1146.0</ele>
        <time>2022-06-27T10:36:59Z</time>
      </trkpt>
      <trkpt lat="42.3739860" lon="-3.3370260">
        <ele>1144.4</ele>
        <time>2022-06-27T10:37:00Z</time>
      </trkpt>
      <trkpt lat="42.3739910" lon="-3.3369720">
        <ele>1144.0</ele>
        <time>2022-06-27T10:37:01Z</time>
      </trkpt>
      <trkpt lat="42.3739940" lon="-3.3369140">
        <ele>1143.4</ele>
        <time>2022-06-27T10:37:02Z</time>
      </trkpt>
      <trkpt lat="42.3739930" lon="-3.3368530">
        <ele>1143.0</ele>
        <time>2022-06-27T10:37:03Z</time>
      </trkpt>
      <trkpt lat="42.3739910" lon="-3.3367900">
        <ele>1142.0</ele>
        <time>2022-06-27T10:37:04Z</time>
      </trkpt>
      <trkpt lat="42.3739880" lon="-3.3367220">
        <ele>1141.2</ele>
        <time>2022-06-27T10:37:05Z</time>
      </trkpt>
      <trkpt lat="42.3739850" lon="-3.3366490">
        <ele>1140.8</ele>
        <time>2022-06-27T10:37:06Z</time>
      </trkpt>
      <trkpt lat="42.3739810" lon="-3.3365660">
        <ele>1140.2</ele>
        <time>2022-06-27T10:37:07Z</time>
      </trkpt>
      <trkpt lat="42.3739760" lon="-3.3364730">
        <ele>1139.6</ele>
        <time>2022-06-27T10:37:08Z</time>
      </trkpt>
      <trkpt lat="42.3739720" lon="-3.3363720">
        <ele>1138.6</ele>
        <time>2022-06-27T10:37:09Z</time>
      </trkpt>
      <trkpt lat="42.3739680" lon="-3.3362700">
        <ele>1138.4</ele>
        <time>2022-06-27T10:37:10Z</time>
      </trkpt>
      <trkpt lat="42.3739660" lon="-3.3361910">
        <ele>1138.0</ele>
        <time>2022-06-27T10:37:11Z</time>
      </trkpt>
      <trkpt lat="42.3739650" lon="-3.3360940">
        <ele>1137.0</ele>
        <time>2022-06-27T10:37:12Z</time>
      </trkpt>
      <trkpt lat="42.3739600" lon="-3.3359950">
        <ele>1136.4</ele>
        <time>2022-06-27T10:37:13Z</time>
      </trkpt>
      <trkpt lat="42.3739510" lon="-3.3359020">
        <ele>1135.2</ele>
        <time>2022-06-27T10:37:14Z</time>
      </trkpt>
      <trkpt lat="42.3739390" lon="-3.3357990">
        <ele>1134.4</ele>
        <time>2022-06-27T10:37:15Z</time>
      </trkpt>
      <trkpt lat="42.3739290" lon="-3.3357110">
        <ele>1133.6</ele>
        <time>2022-06-27T10:37:16Z</time>
      </trkpt>
      <trkpt lat="42.3739210" lon="-3.3356440">
        <ele>1133.2</ele>
        <time>2022-06-27T10:37:17Z</time>
      </trkpt>
      <trkpt lat="42.3739110" lon="-3.3355610">
        <ele>1132.2</ele>
        <time>2022-06-27T10:37:18Z</time>
      </trkpt>
      <trkpt lat="42.3739030" lon="-3.3354860">
        <ele>1131.2</ele>
        <time>2022-06-27T10:37:19Z</time>
      </trkpt>
      <trkpt lat="42.3738930" lon="-3.3354090">
        <ele>1130.4</ele>
        <time>2022-06-27T10:37:20Z</time>
      </trkpt>
      <trkpt lat="42.3738860" lon="-3.3353510">
        <ele>1129.2</ele>
        <time>2022-06-27T10:37:21Z</time>
      </trkpt>
      <trkpt lat="42.3738780" lon="-3.3352970">
        <ele>1128.2</ele>
        <time>2022-06-27T10:37:22Z</time>
      </trkpt>
      <trkpt lat="42.3738650" lon="-3.3352550">
        <ele>1127.0</ele>
        <time>2022-06-27T10:37:23Z</time>
      </trkpt>
      <trkpt lat="42.3738480" lon="-3.3352290">
        <ele>1126.6</ele>
        <time>2022-06-27T10:37:24Z</time>
      </trkpt>
      <trkpt lat="42.3738270" lon="-3.3352180">
        <ele>1125.2</ele>
        <time>2022-06-27T10:37:25Z</time>
      </trkpt>
      <trkpt lat="42.3738050" lon="-3.3352200">
        <ele>1124.4</ele>
        <time>2022-06-27T10:37:26Z</time>
      </trkpt>
      <trkpt lat="42.3737850" lon="-3.3352410">
        <ele>1123.4</ele>
        <time>2022-06-27T10:37:27Z</time>
      </trkpt>
      <trkpt lat="42.3737720" lon="-3.3352760">
        <ele>1122.8</ele>
        <time>2022-06-27T10:37:28Z</time>
      </trkpt>
      <trkpt lat="42.3737630" lon="-3.3353180">
        <ele>1122.4</ele>
        <time>2022-06-27T10:37:29Z</time>
      </trkpt>
      <trkpt lat="42.3737590" lon="-3.3353640">
        <ele>1122.2</ele>
        <time>2022-06-27T10:37:30Z</time>
      </trkpt>
      <trkpt lat="42.3737580" lon="-3.3354100">
        <ele>1122.0</ele>
        <time>2022-06-27T10:37:31Z</time>
      </trkpt>
      <trkpt lat="42.3737560" lon="-3.3354530">
        <ele>1121.8</ele>
        <time>2022-06-27T10:37:32Z</time>
      </trkpt>
      <trkpt lat="42.3737500" lon="-3.3354910">
        <ele>1121.8</ele>
        <time>2022-06-27T10:37:33Z</time>
      </trkpt>
      <trkpt lat="42.3737440" lon="-3.3355300">
        <ele>1121.6</ele>
        <time>2022-06-27T10:37:34Z</time>
      </trkpt>
      <trkpt lat="42.3737370" lon="-3.3355650">
        <ele>1121.6</ele>
        <time>2022-06-27T10:37:35Z</time>
      </trkpt>
      <trkpt lat="42.3737310" lon="-3.3356020">
        <ele>1121.4</ele>
        <time>2022-06-27T10:37:36Z</time>
      </trkpt>
      <trkpt lat="42.3737240" lon="-3.3356420">
        <ele>1121.4</ele>
        <time>2022-06-27T10:37:37Z</time>
      </trkpt>
      <trkpt lat="42.3737200" lon="-3.3356870">
        <ele>1121.4</ele>
        <time>2022-06-27T10:37:38Z</time>
      </trkpt>
      <trkpt lat="42.3737190" lon="-3.3357310">
        <ele>1121.4</ele>
        <time>2022-06-27T10:37:39Z</time>
      </trkpt>
      <trkpt lat="42.3737150" lon="-3.3357740">
        <ele>1121.6</ele>
        <time>2022-06-27T10:37:40Z</time>
      </trkpt>
      <trkpt lat="42.3737080" lon="-3.3358180">
        <ele>1121.8</ele>
        <time>2022-06-27T10:37:41Z</time>
      </trkpt>
      <trkpt lat="42.3736990" lon="-3.3358640">
        <ele>1121.8</ele>
        <time>2022-06-27T10:37:42Z</time>
      </trkpt>
      <trkpt lat="42.3736920" lon="-3.3359120">
        <ele>1121.8</ele>
        <time>2022-06-27T10:37:43Z</time>
      </trkpt>
      <trkpt lat="42.3736870" lon="-3.3359590">
        <ele>1122.0</ele>
        <time>2022-06-27T10:37:44Z</time>
      </trkpt>
      <trkpt lat="42.3736800" lon="-3.3360060">
        <ele>1122.2</ele>
        <time>2022-06-27T10:37:45Z</time>
      </trkpt>
      <trkpt lat="42.3736710" lon="-3.3360520">
        <ele>1122.6</ele>
        <time>2022-06-27T10:37:46Z</time>
      </trkpt>
      <trkpt lat="42.3736640" lon="-3.3360990">
        <ele>1122.8</ele>
        <time>2022-06-27T10:37:47Z</time>
      </trkpt>
      <trkpt lat="42.3736530" lon="-3.3361480">
        <ele>1123.4</ele>
        <time>2022-06-27T10:37:48Z</time>
      </trkpt>
      <trkpt lat="42.3736460" lon="-3.3361940">
        <ele>1123.4</ele>
        <time>2022-06-27T10:37:49Z</time>
      </trkpt>
      <trkpt lat="42.3736400" lon="-3.3362360">
        <ele>1123.6</ele>
        <time>2022-06-27T10:37:50Z</time>
      </trkpt>
      <trkpt lat="42.3736350" lon="-3.3362780">
        <ele>1123.6</ele>
        <time>2022-06-27T10:37:51Z</time>
      </trkpt>
      <trkpt lat="42.3736310" lon="-3.3363190">
        <ele>1123.8</ele>
        <time>2022-06-27T10:37:52Z</time>
      </trkpt>
      <trkpt lat="42.3736250" lon="-3.3363620">
        <ele>1124.0</ele>
        <time>2022-06-27T10:37:53Z</time>
      </trkpt>
      <trkpt lat="42.3736170" lon="-3.3364060">
        <ele>1124.0</ele>
        <time>2022-06-27T10:37:54Z</time>
      </trkpt>
      <trkpt lat="42.3736090" lon="-3.3364500">
        <ele>1124.4</ele>
        <time>2022-06-27T10:37:55Z</time>
      </trkpt>
      <trkpt lat="42.3736020" lon="-3.3364950">
        <ele>1124.4</ele>
        <time>2022-06-27T10:37:56Z</time>
      </trkpt>
      <trkpt lat="42.3735990" lon="-3.3365420">
        <ele>1124.6</ele>
        <time>2022-06-27T10:37:57Z</time>
      </trkpt>
      <trkpt lat="42.3735960" lon="-3.3365900">
        <ele>1124.8</ele>
        <time>2022-06-27T10:37:58Z</time>
      </trkpt>
      <trkpt lat="42.3735920" lon="-3.3366290">
        <ele>1124.8</ele>
        <time>2022-06-27T10:37:59Z</time>
      </trkpt>
      <trkpt lat="42.3735890" lon="-3.3366760">
        <ele>1125.2</ele>
        <time>2022-06-27T10:38:00Z</time>
      </trkpt>
      <trkpt lat="42.3735860" lon="-3.3367250">
        <ele>1125.4</ele>
        <time>2022-06-27T10:38:01Z</time>
      </trkpt>
      <trkpt lat="42.3735840" lon="-3.3367820">
        <ele>1125.6</ele>
        <time>2022-06-27T10:38:02Z</time>
      </trkpt>
      <trkpt lat="42.3735800" lon="-3.3368280">
        <ele>1125.4</ele>
        <time>2022-06-27T10:38:03Z</time>
      </trkpt>
      <trkpt lat="42.3735750" lon="-3.3368710">
        <ele>1125.6</ele>
        <time>2022-06-27T10:38:04Z</time>
      </trkpt>
      <trkpt lat="42.3735720" lon="-3.3369150">
        <ele>1125.8</ele>
        <time>2022-06-27T10:38:05Z</time>
      </trkpt>
      <trkpt lat="42.3735680" lon="-3.3369590">
        <ele>1126.0</ele>
        <time>2022-06-27T10:38:06Z</time>
      </trkpt>
      <trkpt lat="42.3735640" lon="-3.3370050">
        <ele>1126.4</ele>
        <time>2022-06-27T10:38:07Z</time>
      </trkpt>
      <trkpt lat="42.3735570" lon="-3.3370540">
        <ele>1126.6</ele>
        <time>2022-06-27T10:38:08Z</time>
      </trkpt>
      <trkpt lat="42.3735540" lon="-3.3371020">
        <ele>1127.0</ele>
        <time>2022-06-27T10:38:09Z</time>
      </trkpt>
      <trkpt lat="42.3735490" lon="-3.3371520">
        <ele>1127.2</ele>
        <time>2022-06-27T10:38:10Z</time>
      </trkpt>
      <trkpt lat="42.3735450" lon="-3.3372050">
        <ele>1127.6</ele>
        <time>2022-06-27T10:38:11Z</time>
      </trkpt>
      <trkpt lat="42.3735390" lon="-3.3372560">
        <ele>1128.2</ele>
        <time>2022-06-27T10:38:12Z</time>
      </trkpt>
      <trkpt lat="42.3735320" lon="-3.3373020">
        <ele>1128.2</ele>
        <time>2022-06-27T10:38:13Z</time>
      </trkpt>
      <trkpt lat="42.3735250" lon="-3.3373460">
        <ele>1128.6</ele>
        <time>2022-06-27T10:38:14Z</time>
      </trkpt>
      <trkpt lat="42.3735170" lon="-3.3373940">
        <ele>1128.6</ele>
        <time>2022-06-27T10:38:15Z</time>
      </trkpt>
      <trkpt lat="42.3735100" lon="-3.3374460">
        <ele>1129.0</ele>
        <time>2022-06-27T10:38:16Z</time>
      </trkpt>
      <trkpt lat="42.3735030" lon="-3.3375010">
        <ele>1129.0</ele>
        <time>2022-06-27T10:38:17Z</time>
      </trkpt>
      <trkpt lat="42.3734960" lon="-3.3375550">
        <ele>1129.4</ele>
        <time>2022-06-27T10:38:18Z</time>
      </trkpt>
      <trkpt lat="42.3734890" lon="-3.3376130">
        <ele>1129.6</ele>
        <time>2022-06-27T10:38:19Z</time>
      </trkpt>
      <trkpt lat="42.3734830" lon="-3.3376700">
        <ele>1129.8</ele>
        <time>2022-06-27T10:38:20Z</time>
      </trkpt>
      <trkpt lat="42.3734770" lon="-3.3377250">
        <ele>1129.8</ele>
        <time>2022-06-27T10:38:21Z</time>
      </trkpt>
      <trkpt lat="42.3734710" lon="-3.3377830">
        <ele>1130.0</ele>
        <time>2022-06-27T10:38:22Z</time>
      </trkpt>
      <trkpt lat="42.3734640" lon="-3.3378410">
        <ele>1130.2</ele>
        <time>2022-06-27T10:38:23Z</time>
      </trkpt>
      <trkpt lat="42.3734570" lon="-3.3378980">
        <ele>1130.2</ele>
        <time>2022-06-27T10:38:24Z</time>
      </trkpt>
      <trkpt lat="42.3734490" lon="-3.3379550">
        <ele>1130.4</ele>
        <time>2022-06-27T10:38:25Z</time>
      </trkpt>
      <trkpt lat="42.3734420" lon="-3.3380120">
        <ele>1130.6</ele>
        <time>2022-06-27T10:38:26Z</time>
      </trkpt>
      <trkpt lat="42.3734350" lon="-3.3380750">
        <ele>1130.8</ele>
        <time>2022-06-27T10:38:27Z</time>
      </trkpt>
      <trkpt lat="42.3734310" lon="-3.3381310">
        <ele>1131.2</ele>
        <time>2022-06-27T10:38:28Z</time>
      </trkpt>
      <trkpt lat="42.3734250" lon="-3.3381780">
        <ele>1131.4</ele>
        <time>2022-06-27T10:38:29Z</time>
      </trkpt>
      <trkpt lat="42.3734170" lon="-3.3382530">
        <ele>1131.8</ele>
        <time>2022-06-27T10:38:30Z</time>
      </trkpt>
      <trkpt lat="42.3734090" lon="-3.3383160">
        <ele>1131.8</ele>
        <time>2022-06-27T10:38:31Z</time>
      </trkpt>
      <trkpt lat="42.3734000" lon="-3.3383760">
        <ele>1132.0</ele>
        <time>2022-06-27T10:38:32Z</time>
      </trkpt>
      <trkpt lat="42.3733930" lon="-3.3384310">
        <ele>1132.2</ele>
        <time>2022-06-27T10:38:33Z</time>
      </trkpt>
      <trkpt lat="42.3733870" lon="-3.3384840">
        <ele>1132.6</ele>
        <time>2022-06-27T10:38:34Z</time>
      </trkpt>
      <trkpt lat="42.3733820" lon="-3.3385390">
        <ele>1133.0</ele>
        <time>2022-06-27T10:38:35Z</time>
      </trkpt>
      <trkpt lat="42.3733750" lon="-3.3385930">
        <ele>1133.2</ele>
        <time>2022-06-27T10:38:36Z</time>
      </trkpt>
      <trkpt lat="42.3733690" lon="-3.3386450">
        <ele>1133.8</ele>
        <time>2022-06-27T10:38:37Z</time>
      </trkpt>
      <trkpt lat="42.3733650" lon="-3.3386900">
        <ele>1134.2</ele>
        <time>2022-06-27T10:38:38Z</time>
      </trkpt>
      <trkpt lat="42.3733580" lon="-3.3387350">
        <ele>1134.4</ele>
        <time>2022-06-27T10:38:39Z</time>
      </trkpt>
      <trkpt lat="42.3733500" lon="-3.3387810">
        <ele>1134.4</ele>
        <time>2022-06-27T10:38:40Z</time>
      </trkpt>
      <trkpt lat="42.3733430" lon="-3.3388340">
        <ele>1134.8</ele>
        <time>2022-06-27T10:38:41Z</time>
      </trkpt>
      <trkpt lat="42.3733340" lon="-3.3388880">
        <ele>1135.0</ele>
        <time>2022-06-27T10:38:42Z</time>
      </trkpt>
      <trkpt lat="42.3733280" lon="-3.3389470">
        <ele>1135.0</ele>
        <time>2022-06-27T10:38:43Z</time>
      </trkpt>
      <trkpt lat="42.3733250" lon="-3.3390080">
        <ele>1135.2</ele>
        <time>2022-06-27T10:38:44Z</time>
      </trkpt>
      <trkpt lat="42.3733230" lon="-3.3390730">
        <ele>1135.4</ele>
        <time>2022-06-27T10:38:45Z</time>
      </trkpt>
      <trkpt lat="42.3733190" lon="-3.3391410">
        <ele>1135.8</ele>
        <time>2022-06-27T10:38:46Z</time>
      </trkpt>
      <trkpt lat="42.3733140" lon="-3.3392080">
        <ele>1136.0</ele>
        <time>2022-06-27T10:38:47Z</time>
      </trkpt>
      <trkpt lat="42.3733060" lon="-3.3392730">
        <ele>1136.4</ele>
        <time>2022-06-27T10:38:48Z</time>
      </trkpt>
      <trkpt lat="42.3733010" lon="-3.3393380">
        <ele>1136.8</ele>
        <time>2022-06-27T10:38:49Z</time>
      </trkpt>
      <trkpt lat="42.3732980" lon="-3.3394030">
        <ele>1136.8</ele>
        <time>2022-06-27T10:38:50Z</time>
      </trkpt>
      <trkpt lat="42.3732910" lon="-3.3394700">
        <ele>1137.2</ele>
        <time>2022-06-27T10:38:51Z</time>
      </trkpt>
      <trkpt lat="42.3732810" lon="-3.3395390">
        <ele>1137.4</ele>
        <time>2022-06-27T10:38:52Z</time>
      </trkpt>
      <trkpt lat="42.3732720" lon="-3.3396080">
        <ele>1137.8</ele>
        <time>2022-06-27T10:38:53Z</time>
      </trkpt>
      <trkpt lat="42.3732660" lon="-3.3396760">
        <ele>1138.0</ele>
        <time>2022-06-27T10:38:54Z</time>
      </trkpt>
      <trkpt lat="42.3732600" lon="-3.3397370">
        <ele>1138.2</ele>
        <time>2022-06-27T10:38:55Z</time>
      </trkpt>
      <trkpt lat="42.3732550" lon="-3.3397850">
        <ele>1138.4</ele>
        <time>2022-06-27T10:38:56Z</time>
      </trkpt>
      <trkpt lat="42.3732530" lon="-3.3398090">
        <ele>1138.6</ele>
        <time>2022-06-27T10:38:57Z</time>
      </trkpt>
      <trkpt lat="42.3732530" lon="-3.3398120">
        <ele>1139.0</ele>
        <time>2022-06-27T10:38:58Z</time>
      </trkpt>
      <trkpt lat="42.3732530" lon="-3.3398120">
        <ele>1139.2</ele>
        <time>2022-06-27T10:38:59Z</time>
      </trkpt>
      <trkpt lat="42.3732440" lon="-3.3398280">
        <ele>1140.0</ele>
        <time>2022-06-27T10:39:08Z</time>
      </trkpt>
      <trkpt lat="42.3732380" lon="-3.3398420">
        <ele>1140.0</ele>
        <time>2022-06-27T10:39:09Z</time>
      </trkpt>
      <trkpt lat="42.3732340" lon="-3.3398580">
        <ele>1139.8</ele>
        <time>2022-06-27T10:39:10Z</time>
      </trkpt>
      <trkpt lat="42.3732310" lon="-3.3398780">
        <ele>1139.8</ele>
        <time>2022-06-27T10:39:11Z</time>
      </trkpt>
      <trkpt lat="42.3732270" lon="-3.3399030">
        <ele>1139.8</ele>
        <time>2022-06-27T10:39:12Z</time>
      </trkpt>
      <trkpt lat="42.3732210" lon="-3.3399340">
        <ele>1139.8</ele>
        <time>2022-06-27T10:39:13Z</time>
      </trkpt>
      <trkpt lat="42.3732170" lon="-3.3399640">
        <ele>1139.6</ele>
        <time>2022-06-27T10:39:14Z</time>
      </trkpt>
      <trkpt lat="42.3732140" lon="-3.3399930">
        <ele>1139.6</ele>
        <time>2022-06-27T10:39:15Z</time>
      </trkpt>
      <trkpt lat="42.3732100" lon="-3.3400170">
        <ele>1139.8</ele>
        <time>2022-06-27T10:39:16Z</time>
      </trkpt>
      <trkpt lat="42.3732050" lon="-3.3400540">
        <ele>1139.8</ele>
        <time>2022-06-27T10:39:17Z</time>
      </trkpt>
      <trkpt lat="42.3731980" lon="-3.3401040">
        <ele>1139.8</ele>
        <time>2022-06-27T10:39:18Z</time>
      </trkpt>
      <trkpt lat="42.3731920" lon="-3.3401400">
        <ele>1140.0</ele>
        <time>2022-06-27T10:39:19Z</time>
      </trkpt>
      <trkpt lat="42.3731850" lon="-3.3401870">
        <ele>1140.2</ele>
        <time>2022-06-27T10:39:20Z</time>
      </trkpt>
      <trkpt lat="42.3731770" lon="-3.3402330">
        <ele>1140.2</ele>
        <time>2022-06-27T10:39:21Z</time>
      </trkpt>
      <trkpt lat="42.3731670" lon="-3.3402820">
        <ele>1140.2</ele>
        <time>2022-06-27T10:39:22Z</time>
      </trkpt>
      <trkpt lat="42.3731570" lon="-3.3403340">
        <ele>1140.2</ele>
        <time>2022-06-27T10:39:23Z</time>
      </trkpt>
      <trkpt lat="42.3731440" lon="-3.3403970">
        <ele>1140.2</ele>
        <time>2022-06-27T10:39:24Z</time>
      </trkpt>
      <trkpt lat="42.3731340" lon="-3.3404390">
        <ele>1140.2</ele>
        <time>2022-06-27T10:39:25Z</time>
      </trkpt>
      <trkpt lat="42.3731230" lon="-3.3404930">
        <ele>1140.2</ele>
        <time>2022-06-27T10:39:26Z</time>
      </trkpt>
      <trkpt lat="42.3731090" lon="-3.3405460">
        <ele>1140.2</ele>
        <time>2022-06-27T10:39:27Z</time>
      </trkpt>
      <trkpt lat="42.3730950" lon="-3.3406010">
        <ele>1140.4</ele>
        <time>2022-06-27T10:39:28Z</time>
      </trkpt>
      <trkpt lat="42.3730820" lon="-3.3406590">
        <ele>1140.6</ele>
        <time>2022-06-27T10:39:29Z</time>
      </trkpt>
      <trkpt lat="42.3730680" lon="-3.3407160">
        <ele>1142.2</ele>
        <time>2022-06-27T10:39:30Z</time>
      </trkpt>
      <trkpt lat="42.3730520" lon="-3.3407760">
        <ele>1142.6</ele>
        <time>2022-06-27T10:39:31Z</time>
      </trkpt>
      <trkpt lat="42.3730350" lon="-3.3408370">
        <ele>1143.2</ele>
        <time>2022-06-27T10:39:32Z</time>
      </trkpt>
      <trkpt lat="42.3730150" lon="-3.3409000">
        <ele>1143.2</ele>
        <time>2022-06-27T10:39:33Z</time>
      </trkpt>
      <trkpt lat="42.3729940" lon="-3.3409660">
        <ele>1143.4</ele>
        <time>2022-06-27T10:39:34Z</time>
      </trkpt>
      <trkpt lat="42.3729710" lon="-3.3410320">
        <ele>1143.4</ele>
        <time>2022-06-27T10:39:35Z</time>
      </trkpt>
      <trkpt lat="42.3729470" lon="-3.3410980">
        <ele>1143.2</ele>
        <time>2022-06-27T10:39:36Z</time>
      </trkpt>
      <trkpt lat="42.3729220" lon="-3.3411650">
        <ele>1142.6</ele>
        <time>2022-06-27T10:39:37Z</time>
      </trkpt>
      <trkpt lat="42.3728970" lon="-3.3412310">
        <ele>1142.2</ele>
        <time>2022-06-27T10:39:38Z</time>
      </trkpt>
      <trkpt lat="42.3728700" lon="-3.3412970">
        <ele>1141.8</ele>
        <time>2022-06-27T10:39:39Z</time>
      </trkpt>
      <trkpt lat="42.3728420" lon="-3.3413640">
        <ele>1141.8</ele>
        <time>2022-06-27T10:39:40Z</time>
      </trkpt>
      <trkpt lat="42.3728130" lon="-3.3414300">
        <ele>1141.6</ele>
        <time>2022-06-27T10:39:41Z</time>
      </trkpt>
      <trkpt lat="42.3727840" lon="-3.3414970">
        <ele>1141.6</ele>
        <time>2022-06-27T10:39:42Z</time>
      </trkpt>
      <trkpt lat="42.3727520" lon="-3.3415650">
        <ele>1141.4</ele>
        <time>2022-06-27T10:39:43Z</time>
      </trkpt>
      <trkpt lat="42.3727200" lon="-3.3416330">
        <ele>1141.4</ele>
        <time>2022-06-27T10:39:44Z</time>
      </trkpt>
      <trkpt lat="42.3726870" lon="-3.3417020">
        <ele>1141.4</ele>
        <time>2022-06-27T10:39:45Z</time>
      </trkpt>
      <trkpt lat="42.3726520" lon="-3.3417740">
        <ele>1141.4</ele>
        <time>2022-06-27T10:39:46Z</time>
      </trkpt>
      <trkpt lat="42.3726130" lon="-3.3418470">
        <ele>1141.2</ele>
        <time>2022-06-27T10:39:47Z</time>
      </trkpt>
      <trkpt lat="42.3725740" lon="-3.3419240">
        <ele>1141.0</ele>
        <time>2022-06-27T10:39:48Z</time>
      </trkpt>
      <trkpt lat="42.3725320" lon="-3.3420030">
        <ele>1141.0</ele>
        <time>2022-06-27T10:39:49Z</time>
      </trkpt>
      <trkpt lat="42.3724900" lon="-3.3420840">
        <ele>1141.0</ele>
        <time>2022-06-27T10:39:50Z</time>
      </trkpt>
      <trkpt lat="42.3724460" lon="-3.3421670">
        <ele>1140.8</ele>
        <time>2022-06-27T10:39:51Z</time>
      </trkpt>
      <trkpt lat="42.3724020" lon="-3.3422500">
        <ele>1140.8</ele>
        <time>2022-06-27T10:39:52Z</time>
      </trkpt>
      <trkpt lat="42.3723570" lon="-3.3423350">
        <ele>1140.6</ele>
        <time>2022-06-27T10:39:53Z</time>
      </trkpt>
      <trkpt lat="42.3723000" lon="-3.3424400">
        <ele>1140.6</ele>
        <time>2022-06-27T10:39:54Z</time>
      </trkpt>
      <trkpt lat="42.3722600" lon="-3.3425130">
        <ele>1140.4</ele>
        <time>2022-06-27T10:39:55Z</time>
      </trkpt>
      <trkpt lat="42.3722070" lon="-3.3426080">
        <ele>1140.2</ele>
        <time>2022-06-27T10:39:56Z</time>
      </trkpt>
      <trkpt lat="42.3721530" lon="-3.3427060">
        <ele>1139.8</ele>
        <time>2022-06-27T10:39:57Z</time>
      </trkpt>
      <trkpt lat="42.3720980" lon="-3.3428080">
        <ele>1139.6</ele>
        <time>2022-06-27T10:39:58Z</time>
      </trkpt>
      <trkpt lat="42.3720290" lon="-3.3429380">
        <ele>1139.4</ele>
        <time>2022-06-27T10:39:59Z</time>
      </trkpt>
      <trkpt lat="42.3719820" lon="-3.3430270">
        <ele>1139.0</ele>
        <time>2022-06-27T10:40:00Z</time>
      </trkpt>
      <trkpt lat="42.3719220" lon="-3.3431420">
        <ele>1138.8</ele>
        <time>2022-06-27T10:40:01Z</time>
      </trkpt>
      <trkpt lat="42.3718610" lon="-3.3432590">
        <ele>1138.4</ele>
        <time>2022-06-27T10:40:02Z</time>
      </trkpt>
      <trkpt lat="42.3717980" lon="-3.3433800">
        <ele>1138.0</ele>
        <time>2022-06-27T10:40:03Z</time>
      </trkpt>
      <trkpt lat="42.3717340" lon="-3.3435030">
        <ele>1137.0</ele>
        <time>2022-06-27T10:40:04Z</time>
      </trkpt>
      <trkpt lat="42.3716680" lon="-3.3436270">
        <ele>1136.4</ele>
        <time>2022-06-27T10:40:05Z</time>
      </trkpt>
      <trkpt lat="42.3716030" lon="-3.3437510">
        <ele>1135.8</ele>
        <time>2022-06-27T10:40:06Z</time>
      </trkpt>
      <trkpt lat="42.3715380" lon="-3.3438760">
        <ele>1135.2</ele>
        <time>2022-06-27T10:40:07Z</time>
      </trkpt>
      <trkpt lat="42.3714730" lon="-3.3440010">
        <ele>1135.0</ele>
        <time>2022-06-27T10:40:08Z</time>
      </trkpt>
      <trkpt lat="42.3714070" lon="-3.3441300">
        <ele>1134.6</ele>
        <time>2022-06-27T10:40:09Z</time>
      </trkpt>
      <trkpt lat="42.3713390" lon="-3.3442580">
        <ele>1134.0</ele>
        <time>2022-06-27T10:40:10Z</time>
      </trkpt>
      <trkpt lat="42.3712710" lon="-3.3443860">
        <ele>1133.2</ele>
        <time>2022-06-27T10:40:11Z</time>
      </trkpt>
      <trkpt lat="42.3712030" lon="-3.3445150">
        <ele>1132.2</ele>
        <time>2022-06-27T10:40:12Z</time>
      </trkpt>
      <trkpt lat="42.3711360" lon="-3.3446430">
        <ele>1131.8</ele>
        <time>2022-06-27T10:40:13Z</time>
      </trkpt>
      <trkpt lat="42.3710680" lon="-3.3447690">
        <ele>1131.2</ele>
        <time>2022-06-27T10:40:14Z</time>
      </trkpt>
      <trkpt lat="42.3710010" lon="-3.3448950">
        <ele>1131.0</ele>
        <time>2022-06-27T10:40:15Z</time>
      </trkpt>
      <trkpt lat="42.3709340" lon="-3.3450220">
        <ele>1130.4</ele>
        <time>2022-06-27T10:40:16Z</time>
      </trkpt>
      <trkpt lat="42.3708670" lon="-3.3451470">
        <ele>1130.2</ele>
        <time>2022-06-27T10:40:17Z</time>
      </trkpt>
      <trkpt lat="42.3708010" lon="-3.3452680">
        <ele>1129.2</ele>
        <time>2022-06-27T10:40:18Z</time>
      </trkpt>
      <trkpt lat="42.3707370" lon="-3.3453880">
        <ele>1128.4</ele>
        <time>2022-06-27T10:40:19Z</time>
      </trkpt>
      <trkpt lat="42.3706730" lon="-3.3455040">
        <ele>1128.2</ele>
        <time>2022-06-27T10:40:20Z</time>
      </trkpt>
      <trkpt lat="42.3706120" lon="-3.3456170">
        <ele>1127.4</ele>
        <time>2022-06-27T10:40:21Z</time>
      </trkpt>
      <trkpt lat="42.3705530" lon="-3.3457260">
        <ele>1127.2</ele>
        <time>2022-06-27T10:40:22Z</time>
      </trkpt>
      <trkpt lat="42.3704990" lon="-3.3458320">
        <ele>1126.6</ele>
        <time>2022-06-27T10:40:23Z</time>
      </trkpt>
      <trkpt lat="42.3704460" lon="-3.3459340">
        <ele>1126.4</ele>
        <time>2022-06-27T10:40:24Z</time>
      </trkpt>
      <trkpt lat="42.3703960" lon="-3.3460310">
        <ele>1126.2</ele>
        <time>2022-06-27T10:40:25Z</time>
      </trkpt>
      <trkpt lat="42.3703480" lon="-3.3461220">
        <ele>1126.0</ele>
        <time>2022-06-27T10:40:26Z</time>
      </trkpt>
      <trkpt lat="42.3703030" lon="-3.3462070">
        <ele>1126.0</ele>
        <time>2022-06-27T10:40:27Z</time>
      </trkpt>
      <trkpt lat="42.3702570" lon="-3.3462940">
        <ele>1126.0</ele>
        <time>2022-06-27T10:40:28Z</time>
      </trkpt>
      <trkpt lat="42.3702130" lon="-3.3463790">
        <ele>1126.0</ele>
        <time>2022-06-27T10:40:29Z</time>
      </trkpt>
      <trkpt lat="42.3701680" lon="-3.3464610">
        <ele>1126.0</ele>
        <time>2022-06-27T10:40:30Z</time>
      </trkpt>
      <trkpt lat="42.3701240" lon="-3.3465400">
        <ele>1126.2</ele>
        <time>2022-06-27T10:40:31Z</time>
      </trkpt>
      <trkpt lat="42.3700840" lon="-3.3466170">
        <ele>1126.2</ele>
        <time>2022-06-27T10:40:32Z</time>
      </trkpt>
      <trkpt lat="42.3700450" lon="-3.3466930">
        <ele>1126.4</ele>
        <time>2022-06-27T10:40:33Z</time>
      </trkpt>
      <trkpt lat="42.3700080" lon="-3.3467630">
        <ele>1126.4</ele>
        <time>2022-06-27T10:40:34Z</time>
      </trkpt>
      <trkpt lat="42.3699710" lon="-3.3468310">
        <ele>1126.6</ele>
        <time>2022-06-27T10:40:35Z</time>
      </trkpt>
      <trkpt lat="42.3699350" lon="-3.3468960">
        <ele>1127.0</ele>
        <time>2022-06-27T10:40:36Z</time>
      </trkpt>
      <trkpt lat="42.3699000" lon="-3.3469580">
        <ele>1127.4</ele>
        <time>2022-06-27T10:40:37Z</time>
      </trkpt>
      <trkpt lat="42.3698680" lon="-3.3470150">
        <ele>1127.6</ele>
        <time>2022-06-27T10:40:38Z</time>
      </trkpt>
      <trkpt lat="42.3698350" lon="-3.3470680">
        <ele>1127.8</ele>
        <time>2022-06-27T10:40:39Z</time>
      </trkpt>
      <trkpt lat="42.3698040" lon="-3.3471170">
        <ele>1128.2</ele>
        <time>2022-06-27T10:40:40Z</time>
      </trkpt>
      <trkpt lat="42.3697760" lon="-3.3471660">
        <ele>1128.8</ele>
        <time>2022-06-27T10:40:41Z</time>
      </trkpt>
      <trkpt lat="42.3697490" lon="-3.3472180">
        <ele>1129.4</ele>
        <time>2022-06-27T10:40:42Z</time>
      </trkpt>
      <trkpt lat="42.3697250" lon="-3.3472640">
        <ele>1129.6</ele>
        <time>2022-06-27T10:40:43Z</time>
      </trkpt>
      <trkpt lat="42.3696960" lon="-3.3473140">
        <ele>1129.6</ele>
        <time>2022-06-27T10:40:44Z</time>
      </trkpt>
      <trkpt lat="42.3696640" lon="-3.3473660">
        <ele>1130.2</ele>
        <time>2022-06-27T10:40:45Z</time>
      </trkpt>
      <trkpt lat="42.3696330" lon="-3.3474130">
        <ele>1130.6</ele>
        <time>2022-06-27T10:40:46Z</time>
      </trkpt>
      <trkpt lat="42.3695980" lon="-3.3474600">
        <ele>1130.6</ele>
        <time>2022-06-27T10:40:47Z</time>
      </trkpt>
      <trkpt lat="42.3695660" lon="-3.3475020">
        <ele>1130.6</ele>
        <time>2022-06-27T10:40:48Z</time>
      </trkpt>
      <trkpt lat="42.3695370" lon="-3.3475400">
        <ele>1130.8</ele>
        <time>2022-06-27T10:40:49Z</time>
      </trkpt>
      <trkpt lat="42.3695050" lon="-3.3475800">
        <ele>1131.2</ele>
        <time>2022-06-27T10:40:50Z</time>
      </trkpt>
      <trkpt lat="42.3694710" lon="-3.3476210">
        <ele>1131.6</ele>
        <time>2022-06-27T10:40:51Z</time>
      </trkpt>
      <trkpt lat="42.3694360" lon="-3.3476590">
        <ele>1131.8</ele>
        <time>2022-06-27T10:40:52Z</time>
      </trkpt>
      <trkpt lat="42.3693960" lon="-3.3477010">
        <ele>1132.0</ele>
        <time>2022-06-27T10:40:53Z</time>
      </trkpt>
      <trkpt lat="42.3693690" lon="-3.3477280">
        <ele>1132.0</ele>
        <time>2022-06-27T10:40:54Z</time>
      </trkpt>
      <trkpt lat="42.3693360" lon="-3.3477600">
        <ele>1132.4</ele>
        <time>2022-06-27T10:40:55Z</time>
      </trkpt>
      <trkpt lat="42.3693010" lon="-3.3477920">
        <ele>1132.6</ele>
        <time>2022-06-27T10:40:56Z</time>
      </trkpt>
      <trkpt lat="42.3692660" lon="-3.3478260">
        <ele>1132.8</ele>
        <time>2022-06-27T10:40:57Z</time>
      </trkpt>
      <trkpt lat="42.3692250" lon="-3.3478660">
        <ele>1133.0</ele>
        <time>2022-06-27T10:40:58Z</time>
      </trkpt>
      <trkpt lat="42.3691940" lon="-3.3478960">
        <ele>1133.2</ele>
        <time>2022-06-27T10:40:59Z</time>
      </trkpt>
      <trkpt lat="42.3691570" lon="-3.3479270">
        <ele>1133.6</ele>
        <time>2022-06-27T10:41:00Z</time>
      </trkpt>
      <trkpt lat="42.3691200" lon="-3.3479560">
        <ele>1133.8</ele>
        <time>2022-06-27T10:41:01Z</time>
      </trkpt>
      <trkpt lat="42.3690830" lon="-3.3479820">
        <ele>1134.0</ele>
        <time>2022-06-27T10:41:02Z</time>
      </trkpt>
      <trkpt lat="42.3690450" lon="-3.3480090">
        <ele>1134.0</ele>
        <time>2022-06-27T10:41:03Z</time>
      </trkpt>
      <trkpt lat="42.3690090" lon="-3.3480350">
        <ele>1134.4</ele>
        <time>2022-06-27T10:41:04Z</time>
      </trkpt>
      <trkpt lat="42.3689720" lon="-3.3480650">
        <ele>1134.6</ele>
        <time>2022-06-27T10:41:05Z</time>
      </trkpt>
      <trkpt lat="42.3689430" lon="-3.3480890">
        <ele>1134.8</ele>
        <time>2022-06-27T10:41:06Z</time>
      </trkpt>
      <trkpt lat="42.3689030" lon="-3.3481220">
        <ele>1135.0</ele>
        <time>2022-06-27T10:41:07Z</time>
      </trkpt>
      <trkpt lat="42.3688680" lon="-3.3481480">
        <ele>1135.0</ele>
        <time>2022-06-27T10:41:08Z</time>
      </trkpt>
      <trkpt lat="42.3688300" lon="-3.3481740">
        <ele>1135.0</ele>
        <time>2022-06-27T10:41:09Z</time>
      </trkpt>
      <trkpt lat="42.3687940" lon="-3.3481980">
        <ele>1135.2</ele>
        <time>2022-06-27T10:41:10Z</time>
      </trkpt>
      <trkpt lat="42.3687590" lon="-3.3482210">
        <ele>1135.4</ele>
        <time>2022-06-27T10:41:11Z</time>
      </trkpt>
      <trkpt lat="42.3687250" lon="-3.3482380">
        <ele>1135.6</ele>
        <time>2022-06-27T10:41:12Z</time>
      </trkpt>
      <trkpt lat="42.3686890" lon="-3.3482620">
        <ele>1135.6</ele>
        <time>2022-06-27T10:41:13Z</time>
      </trkpt>
      <trkpt lat="42.3686550" lon="-3.3482860">
        <ele>1136.0</ele>
        <time>2022-06-27T10:41:14Z</time>
      </trkpt>
      <trkpt lat="42.3686200" lon="-3.3483120">
        <ele>1136.0</ele>
        <time>2022-06-27T10:41:15Z</time>
      </trkpt>
      <trkpt lat="42.3685850" lon="-3.3483370">
        <ele>1136.2</ele>
        <time>2022-06-27T10:41:16Z</time>
      </trkpt>
      <trkpt lat="42.3685490" lon="-3.3483600">
        <ele>1136.2</ele>
        <time>2022-06-27T10:41:17Z</time>
      </trkpt>
      <trkpt lat="42.3685110" lon="-3.3483810">
        <ele>1136.4</ele>
        <time>2022-06-27T10:41:18Z</time>
      </trkpt>
      <trkpt lat="42.3684730" lon="-3.3484050">
        <ele>1136.4</ele>
        <time>2022-06-27T10:41:19Z</time>
      </trkpt>
      <trkpt lat="42.3684390" lon="-3.3484290">
        <ele>1136.6</ele>
        <time>2022-06-27T10:41:20Z</time>
      </trkpt>
      <trkpt lat="42.3684040" lon="-3.3484510">
        <ele>1137.0</ele>
        <time>2022-06-27T10:41:21Z</time>
      </trkpt>
      <trkpt lat="42.3683680" lon="-3.3484750">
        <ele>1137.0</ele>
        <time>2022-06-27T10:41:22Z</time>
      </trkpt>
      <trkpt lat="42.3683310" lon="-3.3484990">
        <ele>1137.6</ele>
        <time>2022-06-27T10:41:23Z</time>
      </trkpt>
      <trkpt lat="42.3682940" lon="-3.3485220">
        <ele>1137.8</ele>
        <time>2022-06-27T10:41:24Z</time>
      </trkpt>
      <trkpt lat="42.3682660" lon="-3.3485400">
        <ele>1138.2</ele>
        <time>2022-06-27T10:41:25Z</time>
      </trkpt>
      <trkpt lat="42.3682240" lon="-3.3485670">
        <ele>1138.4</ele>
        <time>2022-06-27T10:41:26Z</time>
      </trkpt>
      <trkpt lat="42.3681910" lon="-3.3485910">
        <ele>1138.6</ele>
        <time>2022-06-27T10:41:27Z</time>
      </trkpt>
      <trkpt lat="42.3681590" lon="-3.3486160">
        <ele>1139.0</ele>
        <time>2022-06-27T10:41:28Z</time>
      </trkpt>
      <trkpt lat="42.3681220" lon="-3.3486440">
        <ele>1139.2</ele>
        <time>2022-06-27T10:41:29Z</time>
      </trkpt>
      <trkpt lat="42.3680860" lon="-3.3486690">
        <ele>1139.4</ele>
        <time>2022-06-27T10:41:30Z</time>
      </trkpt>
      <trkpt lat="42.3680580" lon="-3.3486890">
        <ele>1139.6</ele>
        <time>2022-06-27T10:41:31Z</time>
      </trkpt>
      <trkpt lat="42.3680160" lon="-3.3487180">
        <ele>1139.8</ele>
        <time>2022-06-27T10:41:32Z</time>
      </trkpt>
      <trkpt lat="42.3679820" lon="-3.3487420">
        <ele>1139.8</ele>
        <time>2022-06-27T10:41:33Z</time>
      </trkpt>
      <trkpt lat="42.3679480" lon="-3.3487660">
        <ele>1140.0</ele>
        <time>2022-06-27T10:41:34Z</time>
      </trkpt>
      <trkpt lat="42.3679200" lon="-3.3487850">
        <ele>1140.2</ele>
        <time>2022-06-27T10:41:35Z</time>
      </trkpt>
      <trkpt lat="42.3678850" lon="-3.3488090">
        <ele>1140.2</ele>
        <time>2022-06-27T10:41:36Z</time>
      </trkpt>
      <trkpt lat="42.3678410" lon="-3.3488350">
        <ele>1140.4</ele>
        <time>2022-06-27T10:41:37Z</time>
      </trkpt>
      <trkpt lat="42.3678070" lon="-3.3488540">
        <ele>1140.6</ele>
        <time>2022-06-27T10:41:38Z</time>
      </trkpt>
      <trkpt lat="42.3677730" lon="-3.3488770">
        <ele>1140.8</ele>
        <time>2022-06-27T10:41:39Z</time>
      </trkpt>
      <trkpt lat="42.3677380" lon="-3.3489020">
        <ele>1140.8</ele>
        <time>2022-06-27T10:41:40Z</time>
      </trkpt>
      <trkpt lat="42.3677030" lon="-3.3489290">
        <ele>1140.8</ele>
        <time>2022-06-27T10:41:41Z</time>
      </trkpt>
      <trkpt lat="42.3676660" lon="-3.3489540">
        <ele>1141.0</ele>
        <time>2022-06-27T10:41:42Z</time>
      </trkpt>
      <trkpt lat="42.3676300" lon="-3.3489800">
        <ele>1141.0</ele>
        <time>2022-06-27T10:41:43Z</time>
      </trkpt>
      <trkpt lat="42.3675950" lon="-3.3490080">
        <ele>1141.0</ele>
        <time>2022-06-27T10:41:44Z</time>
      </trkpt>
      <trkpt lat="42.3675610" lon="-3.3490350">
        <ele>1141.0</ele>
        <time>2022-06-27T10:41:45Z</time>
      </trkpt>
      <trkpt lat="42.3675340" lon="-3.3490540">
        <ele>1141.2</ele>
        <time>2022-06-27T10:41:46Z</time>
      </trkpt>
      <trkpt lat="42.3674930" lon="-3.3490820">
        <ele>1141.4</ele>
        <time>2022-06-27T10:41:47Z</time>
      </trkpt>
      <trkpt lat="42.3674600" lon="-3.3491050">
        <ele>1141.8</ele>
        <time>2022-06-27T10:41:48Z</time>
      </trkpt>
      <trkpt lat="42.3674260" lon="-3.3491300">
        <ele>1142.0</ele>
        <time>2022-06-27T10:41:49Z</time>
      </trkpt>
      <trkpt lat="42.3673980" lon="-3.3491500">
        <ele>1142.2</ele>
        <time>2022-06-27T10:41:50Z</time>
      </trkpt>
      <trkpt lat="42.3673570" lon="-3.3491800">
        <ele>1142.2</ele>
        <time>2022-06-27T10:41:51Z</time>
      </trkpt>
      <trkpt lat="42.3673220" lon="-3.3492050">
        <ele>1142.2</ele>
        <time>2022-06-27T10:41:52Z</time>
      </trkpt>
      <trkpt lat="42.3672860" lon="-3.3492320">
        <ele>1142.4</ele>
        <time>2022-06-27T10:41:53Z</time>
      </trkpt>
      <trkpt lat="42.3672510" lon="-3.3492580">
        <ele>1142.4</ele>
        <time>2022-06-27T10:41:54Z</time>
      </trkpt>
      <trkpt lat="42.3672240" lon="-3.3492790">
        <ele>1143.0</ele>
        <time>2022-06-27T10:41:55Z</time>
      </trkpt>
      <trkpt lat="42.3671890" lon="-3.3493030">
        <ele>1143.4</ele>
        <time>2022-06-27T10:41:56Z</time>
      </trkpt>
      <trkpt lat="42.3671540" lon="-3.3493290">
        <ele>1143.4</ele>
        <time>2022-06-27T10:41:57Z</time>
      </trkpt>
      <trkpt lat="42.3671180" lon="-3.3493560">
        <ele>1143.8</ele>
        <time>2022-06-27T10:41:58Z</time>
      </trkpt>
      <trkpt lat="42.3670840" lon="-3.3493820">
        <ele>1143.8</ele>
        <time>2022-06-27T10:41:59Z</time>
      </trkpt>
      <trkpt lat="42.3670500" lon="-3.3494100">
        <ele>1144.0</ele>
        <time>2022-06-27T10:42:00Z</time>
      </trkpt>
      <trkpt lat="42.3670160" lon="-3.3494360">
        <ele>1144.2</ele>
        <time>2022-06-27T10:42:01Z</time>
      </trkpt>
      <trkpt lat="42.3669830" lon="-3.3494670">
        <ele>1144.2</ele>
        <time>2022-06-27T10:42:02Z</time>
      </trkpt>
      <trkpt lat="42.3669430" lon="-3.3495060">
        <ele>1144.4</ele>
        <time>2022-06-27T10:42:03Z</time>
      </trkpt>
      <trkpt lat="42.3669170" lon="-3.3495300">
        <ele>1145.0</ele>
        <time>2022-06-27T10:42:04Z</time>
      </trkpt>
      <trkpt lat="42.3668840" lon="-3.3495580">
        <ele>1145.4</ele>
        <time>2022-06-27T10:42:05Z</time>
      </trkpt>
      <trkpt lat="42.3668500" lon="-3.3495890">
        <ele>1145.8</ele>
        <time>2022-06-27T10:42:06Z</time>
      </trkpt>
      <trkpt lat="42.3668190" lon="-3.3496200">
        <ele>1146.0</ele>
        <time>2022-06-27T10:42:07Z</time>
      </trkpt>
      <trkpt lat="42.3667890" lon="-3.3496520">
        <ele>1146.0</ele>
        <time>2022-06-27T10:42:08Z</time>
      </trkpt>
      <trkpt lat="42.3667590" lon="-3.3496840">
        <ele>1146.2</ele>
        <time>2022-06-27T10:42:09Z</time>
      </trkpt>
      <trkpt lat="42.3667300" lon="-3.3497150">
        <ele>1146.4</ele>
        <time>2022-06-27T10:42:10Z</time>
      </trkpt>
      <trkpt lat="42.3666990" lon="-3.3497460">
        <ele>1146.6</ele>
        <time>2022-06-27T10:42:11Z</time>
      </trkpt>
      <trkpt lat="42.3666700" lon="-3.3497790">
        <ele>1146.8</ele>
        <time>2022-06-27T10:42:12Z</time>
      </trkpt>
      <trkpt lat="42.3666340" lon="-3.3498180">
        <ele>1146.8</ele>
        <time>2022-06-27T10:42:13Z</time>
      </trkpt>
      <trkpt lat="42.3666120" lon="-3.3498450">
        <ele>1147.0</ele>
        <time>2022-06-27T10:42:14Z</time>
      </trkpt>
      <trkpt lat="42.3665830" lon="-3.3498800">
        <ele>1147.2</ele>
        <time>2022-06-27T10:42:15Z</time>
      </trkpt>
      <trkpt lat="42.3665540" lon="-3.3499150">
        <ele>1147.6</ele>
        <time>2022-06-27T10:42:16Z</time>
      </trkpt>
      <trkpt lat="42.3665250" lon="-3.3499520">
        <ele>1147.8</ele>
        <time>2022-06-27T10:42:17Z</time>
      </trkpt>
      <trkpt lat="42.3664990" lon="-3.3499880">
        <ele>1148.0</ele>
        <time>2022-06-27T10:42:18Z</time>
      </trkpt>
      <trkpt lat="42.3664720" lon="-3.3500240">
        <ele>1148.4</ele>
        <time>2022-06-27T10:42:19Z</time>
      </trkpt>
      <trkpt lat="42.3664390" lon="-3.3500670">
        <ele>1148.6</ele>
        <time>2022-06-27T10:42:20Z</time>
      </trkpt>
      <trkpt lat="42.3664180" lon="-3.3500990">
        <ele>1148.8</ele>
        <time>2022-06-27T10:42:21Z</time>
      </trkpt>
      <trkpt lat="42.3663910" lon="-3.3501390">
        <ele>1149.0</ele>
        <time>2022-06-27T10:42:22Z</time>
      </trkpt>
      <trkpt lat="42.3663640" lon="-3.3501800">
        <ele>1149.4</ele>
        <time>2022-06-27T10:42:23Z</time>
      </trkpt>
      <trkpt lat="42.3663390" lon="-3.3502190">
        <ele>1149.6</ele>
        <time>2022-06-27T10:42:24Z</time>
      </trkpt>
      <trkpt lat="42.3663120" lon="-3.3502680">
        <ele>1150.0</ele>
        <time>2022-06-27T10:42:25Z</time>
      </trkpt>
      <trkpt lat="42.3662880" lon="-3.3503080">
        <ele>1150.2</ele>
        <time>2022-06-27T10:42:26Z</time>
      </trkpt>
      <trkpt lat="42.3662690" lon="-3.3503420">
        <ele>1150.2</ele>
        <time>2022-06-27T10:42:27Z</time>
      </trkpt>
      <trkpt lat="42.3662460" lon="-3.3503820">
        <ele>1150.2</ele>
        <time>2022-06-27T10:42:28Z</time>
      </trkpt>
      <trkpt lat="42.3662170" lon="-3.3504320">
        <ele>1150.4</ele>
        <time>2022-06-27T10:42:29Z</time>
      </trkpt>
      <trkpt lat="42.3661960" lon="-3.3504740">
        <ele>1150.6</ele>
        <time>2022-06-27T10:42:30Z</time>
      </trkpt>
      <trkpt lat="42.3661730" lon="-3.3505180">
        <ele>1150.8</ele>
        <time>2022-06-27T10:42:31Z</time>
      </trkpt>
      <trkpt lat="42.3661510" lon="-3.3505610">
        <ele>1150.8</ele>
        <time>2022-06-27T10:42:32Z</time>
      </trkpt>
      <trkpt lat="42.3661310" lon="-3.3506040">
        <ele>1151.0</ele>
        <time>2022-06-27T10:42:33Z</time>
      </trkpt>
      <trkpt lat="42.3661110" lon="-3.3506470">
        <ele>1151.2</ele>
        <time>2022-06-27T10:42:34Z</time>
      </trkpt>
      <trkpt lat="42.3660940" lon="-3.3506810">
        <ele>1151.4</ele>
        <time>2022-06-27T10:42:35Z</time>
      </trkpt>
      <trkpt lat="42.3660740" lon="-3.3507250">
        <ele>1151.8</ele>
        <time>2022-06-27T10:42:36Z</time>
      </trkpt>
      <trkpt lat="42.3660560" lon="-3.3507690">
        <ele>1152.2</ele>
        <time>2022-06-27T10:42:37Z</time>
      </trkpt>
      <trkpt lat="42.3660370" lon="-3.3508150">
        <ele>1152.2</ele>
        <time>2022-06-27T10:42:38Z</time>
      </trkpt>
      <trkpt lat="42.3660180" lon="-3.3508600">
        <ele>1152.6</ele>
        <time>2022-06-27T10:42:39Z</time>
      </trkpt>
      <trkpt lat="42.3660020" lon="-3.3509070">
        <ele>1152.6</ele>
        <time>2022-06-27T10:42:40Z</time>
      </trkpt>
      <trkpt lat="42.3659860" lon="-3.3509560">
        <ele>1152.8</ele>
        <time>2022-06-27T10:42:41Z</time>
      </trkpt>
      <trkpt lat="42.3659690" lon="-3.3510030">
        <ele>1153.0</ele>
        <time>2022-06-27T10:42:42Z</time>
      </trkpt>
      <trkpt lat="42.3659520" lon="-3.3510490">
        <ele>1153.2</ele>
        <time>2022-06-27T10:42:43Z</time>
      </trkpt>
      <trkpt lat="42.3659360" lon="-3.3510960">
        <ele>1153.4</ele>
        <time>2022-06-27T10:42:44Z</time>
      </trkpt>
      <trkpt lat="42.3659220" lon="-3.3511440">
        <ele>1153.4</ele>
        <time>2022-06-27T10:42:45Z</time>
      </trkpt>
      <trkpt lat="42.3659070" lon="-3.3511930">
        <ele>1153.6</ele>
        <time>2022-06-27T10:42:46Z</time>
      </trkpt>
      <trkpt lat="42.3658910" lon="-3.3512430">
        <ele>1153.8</ele>
        <time>2022-06-27T10:42:47Z</time>
      </trkpt>
      <trkpt lat="42.3658740" lon="-3.3512940">
        <ele>1153.8</ele>
        <time>2022-06-27T10:42:48Z</time>
      </trkpt>
      <trkpt lat="42.3658610" lon="-3.3513470">
        <ele>1154.0</ele>
        <time>2022-06-27T10:42:49Z</time>
      </trkpt>
      <trkpt lat="42.3658500" lon="-3.3514010">
        <ele>1154.0</ele>
        <time>2022-06-27T10:42:50Z</time>
      </trkpt>
      <trkpt lat="42.3658360" lon="-3.3514510">
        <ele>1154.2</ele>
        <time>2022-06-27T10:42:51Z</time>
      </trkpt>
      <trkpt lat="42.3658230" lon="-3.3515040">
        <ele>1154.4</ele>
        <time>2022-06-27T10:42:52Z</time>
      </trkpt>
      <trkpt lat="42.3658090" lon="-3.3515570">
        <ele>1154.8</ele>
        <time>2022-06-27T10:42:53Z</time>
      </trkpt>
      <trkpt lat="42.3657960" lon="-3.3516110">
        <ele>1155.0</ele>
        <time>2022-06-27T10:42:54Z</time>
      </trkpt>
      <trkpt lat="42.3657850" lon="-3.3516650">
        <ele>1155.4</ele>
        <time>2022-06-27T10:42:55Z</time>
      </trkpt>
      <trkpt lat="42.3657750" lon="-3.3517200">
        <ele>1155.4</ele>
        <time>2022-06-27T10:42:56Z</time>
      </trkpt>
      <trkpt lat="42.3657650" lon="-3.3517760">
        <ele>1155.6</ele>
        <time>2022-06-27T10:42:57Z</time>
      </trkpt>
      <trkpt lat="42.3657520" lon="-3.3518320">
        <ele>1155.8</ele>
        <time>2022-06-27T10:42:58Z</time>
      </trkpt>
      <trkpt lat="42.3657380" lon="-3.3518910">
        <ele>1155.8</ele>
        <time>2022-06-27T10:42:59Z</time>
      </trkpt>
      <trkpt lat="42.3657250" lon="-3.3519510">
        <ele>1156.0</ele>
        <time>2022-06-27T10:43:00Z</time>
      </trkpt>
      <trkpt lat="42.3657120" lon="-3.3520110">
        <ele>1156.0</ele>
        <time>2022-06-27T10:43:01Z</time>
      </trkpt>
      <trkpt lat="42.3656980" lon="-3.3520710">
        <ele>1156.2</ele>
        <time>2022-06-27T10:43:02Z</time>
      </trkpt>
      <trkpt lat="42.3656830" lon="-3.3521330">
        <ele>1156.2</ele>
        <time>2022-06-27T10:43:03Z</time>
      </trkpt>
      <trkpt lat="42.3656700" lon="-3.3521960">
        <ele>1156.4</ele>
        <time>2022-06-27T10:43:04Z</time>
      </trkpt>
      <trkpt lat="42.3656570" lon="-3.3522600">
        <ele>1156.6</ele>
        <time>2022-06-27T10:43:05Z</time>
      </trkpt>
      <trkpt lat="42.3656430" lon="-3.3523240">
        <ele>1156.6</ele>
        <time>2022-06-27T10:43:06Z</time>
      </trkpt>
      <trkpt lat="42.3656300" lon="-3.3523890">
        <ele>1156.8</ele>
        <time>2022-06-27T10:43:07Z</time>
      </trkpt>
      <trkpt lat="42.3656160" lon="-3.3524550">
        <ele>1156.8</ele>
        <time>2022-06-27T10:43:08Z</time>
      </trkpt>
      <trkpt lat="42.3656010" lon="-3.3525250">
        <ele>1157.0</ele>
        <time>2022-06-27T10:43:09Z</time>
      </trkpt>
      <trkpt lat="42.3655850" lon="-3.3525970">
        <ele>1157.0</ele>
        <time>2022-06-27T10:43:10Z</time>
      </trkpt>
      <trkpt lat="42.3655710" lon="-3.3526700">
        <ele>1157.0</ele>
        <time>2022-06-27T10:43:11Z</time>
      </trkpt>
      <trkpt lat="42.3655540" lon="-3.3527460">
        <ele>1157.0</ele>
        <time>2022-06-27T10:43:12Z</time>
      </trkpt>
      <trkpt lat="42.3655390" lon="-3.3528230">
        <ele>1157.0</ele>
        <time>2022-06-27T10:43:13Z</time>
      </trkpt>
      <trkpt lat="42.3655230" lon="-3.3529040">
        <ele>1157.2</ele>
        <time>2022-06-27T10:43:14Z</time>
      </trkpt>
      <trkpt lat="42.3655070" lon="-3.3529860">
        <ele>1157.2</ele>
        <time>2022-06-27T10:43:15Z</time>
      </trkpt>
      <trkpt lat="42.3654900" lon="-3.3530690">
        <ele>1157.2</ele>
        <time>2022-06-27T10:43:16Z</time>
      </trkpt>
      <trkpt lat="42.3654690" lon="-3.3531670">
        <ele>1157.2</ele>
        <time>2022-06-27T10:43:17Z</time>
      </trkpt>
      <trkpt lat="42.3654550" lon="-3.3532340">
        <ele>1157.0</ele>
        <time>2022-06-27T10:43:18Z</time>
      </trkpt>
      <trkpt lat="42.3654380" lon="-3.3533150">
        <ele>1157.0</ele>
        <time>2022-06-27T10:43:19Z</time>
      </trkpt>
      <trkpt lat="42.3654200" lon="-3.3533970">
        <ele>1157.0</ele>
        <time>2022-06-27T10:43:20Z</time>
      </trkpt>
      <trkpt lat="42.3654030" lon="-3.3534800">
        <ele>1157.0</ele>
        <time>2022-06-27T10:43:21Z</time>
      </trkpt>
      <trkpt lat="42.3653860" lon="-3.3535640">
        <ele>1157.0</ele>
        <time>2022-06-27T10:43:22Z</time>
      </trkpt>
      <trkpt lat="42.3653680" lon="-3.3536520">
        <ele>1157.0</ele>
        <time>2022-06-27T10:43:23Z</time>
      </trkpt>
      <trkpt lat="42.3653510" lon="-3.3537390">
        <ele>1157.0</ele>
        <time>2022-06-27T10:43:24Z</time>
      </trkpt>
      <trkpt lat="42.3653320" lon="-3.3538300">
        <ele>1157.0</ele>
        <time>2022-06-27T10:43:25Z</time>
      </trkpt>
      <trkpt lat="42.3653130" lon="-3.3539230">
        <ele>1157.0</ele>
        <time>2022-06-27T10:43:26Z</time>
      </trkpt>
      <trkpt lat="42.3652900" lon="-3.3540340">
        <ele>1157.0</ele>
        <time>2022-06-27T10:43:27Z</time>
      </trkpt>
      <trkpt lat="42.3652750" lon="-3.3541050">
        <ele>1157.0</ele>
        <time>2022-06-27T10:43:28Z</time>
      </trkpt>
      <trkpt lat="42.3652570" lon="-3.3541900">
        <ele>1157.0</ele>
        <time>2022-06-27T10:43:29Z</time>
      </trkpt>
      <trkpt lat="42.3652400" lon="-3.3542740">
        <ele>1157.0</ele>
        <time>2022-06-27T10:43:30Z</time>
      </trkpt>
      <trkpt lat="42.3652210" lon="-3.3543580">
        <ele>1157.0</ele>
        <time>2022-06-27T10:43:31Z</time>
      </trkpt>
      <trkpt lat="42.3651990" lon="-3.3544610">
        <ele>1157.0</ele>
        <time>2022-06-27T10:43:32Z</time>
      </trkpt>
      <trkpt lat="42.3651850" lon="-3.3545280">
        <ele>1157.0</ele>
        <time>2022-06-27T10:43:33Z</time>
      </trkpt>
      <trkpt lat="42.3651660" lon="-3.3546120">
        <ele>1157.0</ele>
        <time>2022-06-27T10:43:34Z</time>
      </trkpt>
      <trkpt lat="42.3651480" lon="-3.3546970">
        <ele>1157.0</ele>
        <time>2022-06-27T10:43:35Z</time>
      </trkpt>
      <trkpt lat="42.3651280" lon="-3.3547810">
        <ele>1157.0</ele>
        <time>2022-06-27T10:43:36Z</time>
      </trkpt>
      <trkpt lat="42.3651090" lon="-3.3548660">
        <ele>1157.0</ele>
        <time>2022-06-27T10:43:37Z</time>
      </trkpt>
      <trkpt lat="42.3650920" lon="-3.3549500">
        <ele>1157.0</ele>
        <time>2022-06-27T10:43:38Z</time>
      </trkpt>
      <trkpt lat="42.3650750" lon="-3.3550340">
        <ele>1157.0</ele>
        <time>2022-06-27T10:43:39Z</time>
      </trkpt>
      <trkpt lat="42.3650580" lon="-3.3551180">
        <ele>1157.0</ele>
        <time>2022-06-27T10:43:40Z</time>
      </trkpt>
      <trkpt lat="42.3650410" lon="-3.3552000">
        <ele>1157.0</ele>
        <time>2022-06-27T10:43:41Z</time>
      </trkpt>
      <trkpt lat="42.3650220" lon="-3.3552850">
        <ele>1157.0</ele>
        <time>2022-06-27T10:43:42Z</time>
      </trkpt>
      <trkpt lat="42.3650040" lon="-3.3553670">
        <ele>1157.0</ele>
        <time>2022-06-27T10:43:43Z</time>
      </trkpt>
      <trkpt lat="42.3649860" lon="-3.3554510">
        <ele>1157.0</ele>
        <time>2022-06-27T10:43:44Z</time>
      </trkpt>
      <trkpt lat="42.3649700" lon="-3.3555300">
        <ele>1157.0</ele>
        <time>2022-06-27T10:43:45Z</time>
      </trkpt>
      <trkpt lat="42.3649530" lon="-3.3556110">
        <ele>1157.2</ele>
        <time>2022-06-27T10:43:46Z</time>
      </trkpt>
      <trkpt lat="42.3649360" lon="-3.3556940">
        <ele>1157.4</ele>
        <time>2022-06-27T10:43:47Z</time>
      </trkpt>
      <trkpt lat="42.3649180" lon="-3.3557760">
        <ele>1157.6</ele>
        <time>2022-06-27T10:43:48Z</time>
      </trkpt>
      <trkpt lat="42.3649020" lon="-3.3558560">
        <ele>1158.0</ele>
        <time>2022-06-27T10:43:49Z</time>
      </trkpt>
      <trkpt lat="42.3648860" lon="-3.3559370">
        <ele>1158.0</ele>
        <time>2022-06-27T10:43:50Z</time>
      </trkpt>
      <trkpt lat="42.3648680" lon="-3.3560190">
        <ele>1158.2</ele>
        <time>2022-06-27T10:43:51Z</time>
      </trkpt>
      <trkpt lat="42.3648510" lon="-3.3561000">
        <ele>1158.2</ele>
        <time>2022-06-27T10:43:52Z</time>
      </trkpt>
      <trkpt lat="42.3648340" lon="-3.3561800">
        <ele>1158.2</ele>
        <time>2022-06-27T10:43:53Z</time>
      </trkpt>
      <trkpt lat="42.3648160" lon="-3.3562610">
        <ele>1158.2</ele>
        <time>2022-06-27T10:43:54Z</time>
      </trkpt>
      <trkpt lat="42.3647980" lon="-3.3563430">
        <ele>1158.4</ele>
        <time>2022-06-27T10:43:55Z</time>
      </trkpt>
      <trkpt lat="42.3647810" lon="-3.3564220">
        <ele>1158.4</ele>
        <time>2022-06-27T10:43:56Z</time>
      </trkpt>
      <trkpt lat="42.3647640" lon="-3.3565010">
        <ele>1158.4</ele>
        <time>2022-06-27T10:43:57Z</time>
      </trkpt>
      <trkpt lat="42.3647460" lon="-3.3565790">
        <ele>1158.6</ele>
        <time>2022-06-27T10:43:58Z</time>
      </trkpt>
      <trkpt lat="42.3647300" lon="-3.3566560">
        <ele>1158.6</ele>
        <time>2022-06-27T10:43:59Z</time>
      </trkpt>
      <trkpt lat="42.3647120" lon="-3.3567350">
        <ele>1158.6</ele>
        <time>2022-06-27T10:44:00Z</time>
      </trkpt>
      <trkpt lat="42.3646950" lon="-3.3568140">
        <ele>1158.6</ele>
        <time>2022-06-27T10:44:01Z</time>
      </trkpt>
      <trkpt lat="42.3646790" lon="-3.3568920">
        <ele>1158.6</ele>
        <time>2022-06-27T10:44:02Z</time>
      </trkpt>
      <trkpt lat="42.3646630" lon="-3.3569700">
        <ele>1158.4</ele>
        <time>2022-06-27T10:44:03Z</time>
      </trkpt>
      <trkpt lat="42.3646430" lon="-3.3570490">
        <ele>1158.4</ele>
        <time>2022-06-27T10:44:04Z</time>
      </trkpt>
      <trkpt lat="42.3646260" lon="-3.3571290">
        <ele>1158.4</ele>
        <time>2022-06-27T10:44:05Z</time>
      </trkpt>
      <trkpt lat="42.3646100" lon="-3.3572040">
        <ele>1158.4</ele>
        <time>2022-06-27T10:44:06Z</time>
      </trkpt>
      <trkpt lat="42.3645930" lon="-3.3572750">
        <ele>1158.4</ele>
        <time>2022-06-27T10:44:07Z</time>
      </trkpt>
      <trkpt lat="42.3645760" lon="-3.3573440">
        <ele>1158.2</ele>
        <time>2022-06-27T10:44:08Z</time>
      </trkpt>
      <trkpt lat="42.3645610" lon="-3.3574100">
        <ele>1158.2</ele>
        <time>2022-06-27T10:44:09Z</time>
      </trkpt>
      <trkpt lat="42.3645480" lon="-3.3574740">
        <ele>1158.2</ele>
        <time>2022-06-27T10:44:10Z</time>
      </trkpt>
      <trkpt lat="42.3645390" lon="-3.3575350">
        <ele>1158.0</ele>
        <time>2022-06-27T10:44:11Z</time>
      </trkpt>
      <trkpt lat="42.3645270" lon="-3.3575970">
        <ele>1157.8</ele>
        <time>2022-06-27T10:44:12Z</time>
      </trkpt>
      <trkpt lat="42.3645220" lon="-3.3576290">
        <ele>1157.6</ele>
        <time>2022-06-27T10:44:13Z</time>
      </trkpt>
      <trkpt lat="42.3645120" lon="-3.3576720">
        <ele>1157.4</ele>
        <time>2022-06-27T10:44:14Z</time>
      </trkpt>
      <trkpt lat="42.3645030" lon="-3.3577130">
        <ele>1157.4</ele>
        <time>2022-06-27T10:44:15Z</time>
      </trkpt>
      <trkpt lat="42.3644950" lon="-3.3577520">
        <ele>1157.4</ele>
        <time>2022-06-27T10:44:16Z</time>
      </trkpt>
      <trkpt lat="42.3644890" lon="-3.3577890">
        <ele>1157.2</ele>
        <time>2022-06-27T10:44:17Z</time>
      </trkpt>
      <trkpt lat="42.3644820" lon="-3.3578260">
        <ele>1157.0</ele>
        <time>2022-06-27T10:44:18Z</time>
      </trkpt>
      <trkpt lat="42.3644710" lon="-3.3578650">
        <ele>1157.0</ele>
        <time>2022-06-27T10:44:19Z</time>
      </trkpt>
      <trkpt lat="42.3644560" lon="-3.3579160">
        <ele>1156.8</ele>
        <time>2022-06-27T10:44:20Z</time>
      </trkpt>
      <trkpt lat="42.3644460" lon="-3.3579540">
        <ele>1156.8</ele>
        <time>2022-06-27T10:44:21Z</time>
      </trkpt>
      <trkpt lat="42.3644320" lon="-3.3580150">
        <ele>1156.6</ele>
        <time>2022-06-27T10:44:22Z</time>
      </trkpt>
      <trkpt lat="42.3644230" lon="-3.3580600">
        <ele>1156.6</ele>
        <time>2022-06-27T10:44:23Z</time>
      </trkpt>
      <trkpt lat="42.3644120" lon="-3.3581260">
        <ele>1156.4</ele>
        <time>2022-06-27T10:44:24Z</time>
      </trkpt>
      <trkpt lat="42.3644010" lon="-3.3581850">
        <ele>1156.2</ele>
        <time>2022-06-27T10:44:25Z</time>
      </trkpt>
      <trkpt lat="42.3643920" lon="-3.3582380">
        <ele>1156.2</ele>
        <time>2022-06-27T10:44:26Z</time>
      </trkpt>
      <trkpt lat="42.3643750" lon="-3.3583230">
        <ele>1156.0</ele>
        <time>2022-06-27T10:44:27Z</time>
      </trkpt>
      <trkpt lat="42.3643620" lon="-3.3583830">
        <ele>1155.8</ele>
        <time>2022-06-27T10:44:28Z</time>
      </trkpt>
      <trkpt lat="42.3643420" lon="-3.3584650">
        <ele>1155.6</ele>
        <time>2022-06-27T10:44:29Z</time>
      </trkpt>
      <trkpt lat="42.3643240" lon="-3.3585480">
        <ele>1155.6</ele>
        <time>2022-06-27T10:44:30Z</time>
      </trkpt>
      <trkpt lat="42.3643060" lon="-3.3586380">
        <ele>1155.4</ele>
        <time>2022-06-27T10:44:31Z</time>
      </trkpt>
      <trkpt lat="42.3642840" lon="-3.3587310">
        <ele>1155.2</ele>
        <time>2022-06-27T10:44:32Z</time>
      </trkpt>
      <trkpt lat="42.3642650" lon="-3.3588260">
        <ele>1155.2</ele>
        <time>2022-06-27T10:44:33Z</time>
      </trkpt>
      <trkpt lat="42.3642450" lon="-3.3589260">
        <ele>1154.8</ele>
        <time>2022-06-27T10:44:34Z</time>
      </trkpt>
      <trkpt lat="42.3642230" lon="-3.3590310">
        <ele>1154.4</ele>
        <time>2022-06-27T10:44:35Z</time>
      </trkpt>
      <trkpt lat="42.3642010" lon="-3.3591390">
        <ele>1154.2</ele>
        <time>2022-06-27T10:44:36Z</time>
      </trkpt>
      <trkpt lat="42.3641780" lon="-3.3592560">
        <ele>1153.4</ele>
        <time>2022-06-27T10:44:37Z</time>
      </trkpt>
      <trkpt lat="42.3641530" lon="-3.3593730">
        <ele>1153.2</ele>
        <time>2022-06-27T10:44:38Z</time>
      </trkpt>
      <trkpt lat="42.3641260" lon="-3.3594920">
        <ele>1152.8</ele>
        <time>2022-06-27T10:44:39Z</time>
      </trkpt>
      <trkpt lat="42.3641000" lon="-3.3596160">
        <ele>1152.6</ele>
        <time>2022-06-27T10:44:40Z</time>
      </trkpt>
      <trkpt lat="42.3640740" lon="-3.3597440">
        <ele>1152.2</ele>
        <time>2022-06-27T10:44:41Z</time>
      </trkpt>
      <trkpt lat="42.3640480" lon="-3.3598730">
        <ele>1151.8</ele>
        <time>2022-06-27T10:44:42Z</time>
      </trkpt>
      <trkpt lat="42.3640230" lon="-3.3600060">
        <ele>1151.6</ele>
        <time>2022-06-27T10:44:43Z</time>
      </trkpt>
      <trkpt lat="42.3639970" lon="-3.3601430">
        <ele>1151.0</ele>
        <time>2022-06-27T10:44:44Z</time>
      </trkpt>
      <trkpt lat="42.3639700" lon="-3.3602820">
        <ele>1150.8</ele>
        <time>2022-06-27T10:44:45Z</time>
      </trkpt>
      <trkpt lat="42.3639450" lon="-3.3604230">
        <ele>1150.0</ele>
        <time>2022-06-27T10:44:46Z</time>
      </trkpt>
      <trkpt lat="42.3639200" lon="-3.3605650">
        <ele>1149.6</ele>
        <time>2022-06-27T10:44:47Z</time>
      </trkpt>
      <trkpt lat="42.3638950" lon="-3.3607120">
        <ele>1148.8</ele>
        <time>2022-06-27T10:44:48Z</time>
      </trkpt>
      <trkpt lat="42.3638720" lon="-3.3608640">
        <ele>1148.2</ele>
        <time>2022-06-27T10:44:49Z</time>
      </trkpt>
      <trkpt lat="42.3638480" lon="-3.3610230">
        <ele>1147.2</ele>
        <time>2022-06-27T10:44:50Z</time>
      </trkpt>
      <trkpt lat="42.3638250" lon="-3.3611840">
        <ele>1146.6</ele>
        <time>2022-06-27T10:44:51Z</time>
      </trkpt>
      <trkpt lat="42.3638040" lon="-3.3613470">
        <ele>1146.4</ele>
        <time>2022-06-27T10:44:52Z</time>
      </trkpt>
      <trkpt lat="42.3637840" lon="-3.3615130">
        <ele>1145.4</ele>
        <time>2022-06-27T10:44:53Z</time>
      </trkpt>
      <trkpt lat="42.3637660" lon="-3.3616810">
        <ele>1145.2</ele>
        <time>2022-06-27T10:44:54Z</time>
      </trkpt>
      <trkpt lat="42.3637510" lon="-3.3618550">
        <ele>1144.8</ele>
        <time>2022-06-27T10:44:55Z</time>
      </trkpt>
      <trkpt lat="42.3637360" lon="-3.3620680">
        <ele>1144.6</ele>
        <time>2022-06-27T10:44:56Z</time>
      </trkpt>
      <trkpt lat="42.3637250" lon="-3.3622120">
        <ele>1143.6</ele>
        <time>2022-06-27T10:44:57Z</time>
      </trkpt>
      <trkpt lat="42.3637130" lon="-3.3623920">
        <ele>1142.2</ele>
        <time>2022-06-27T10:44:58Z</time>
      </trkpt>
      <trkpt lat="42.3637040" lon="-3.3625780">
        <ele>1141.4</ele>
        <time>2022-06-27T10:44:59Z</time>
      </trkpt>
      <trkpt lat="42.3636950" lon="-3.3627650">
        <ele>1140.2</ele>
        <time>2022-06-27T10:45:00Z</time>
      </trkpt>
      <trkpt lat="42.3636840" lon="-3.3629900">
        <ele>1139.8</ele>
        <time>2022-06-27T10:45:01Z</time>
      </trkpt>
      <trkpt lat="42.3636770" lon="-3.3631410">
        <ele>1139.2</ele>
        <time>2022-06-27T10:45:02Z</time>
      </trkpt>
      <trkpt lat="42.3636710" lon="-3.3633300">
        <ele>1139.0</ele>
        <time>2022-06-27T10:45:03Z</time>
      </trkpt>
      <trkpt lat="42.3636660" lon="-3.3635200">
        <ele>1138.0</ele>
        <time>2022-06-27T10:45:04Z</time>
      </trkpt>
      <trkpt lat="42.3636640" lon="-3.3637110">
        <ele>1136.8</ele>
        <time>2022-06-27T10:45:05Z</time>
      </trkpt>
      <trkpt lat="42.3636680" lon="-3.3639410">
        <ele>1136.4</ele>
        <time>2022-06-27T10:45:06Z</time>
      </trkpt>
      <trkpt lat="42.3636730" lon="-3.3640990">
        <ele>1135.0</ele>
        <time>2022-06-27T10:45:07Z</time>
      </trkpt>
      <trkpt lat="42.3636850" lon="-3.3642960">
        <ele>1134.2</ele>
        <time>2022-06-27T10:45:08Z</time>
      </trkpt>
      <trkpt lat="42.3637020" lon="-3.3644940">
        <ele>1133.0</ele>
        <time>2022-06-27T10:45:09Z</time>
      </trkpt>
      <trkpt lat="42.3637270" lon="-3.3646960">
        <ele>1132.4</ele>
        <time>2022-06-27T10:45:10Z</time>
      </trkpt>
      <trkpt lat="42.3637640" lon="-3.3649420">
        <ele>1131.4</ele>
        <time>2022-06-27T10:45:11Z</time>
      </trkpt>
      <trkpt lat="42.3637920" lon="-3.3651060">
        <ele>1131.0</ele>
        <time>2022-06-27T10:45:12Z</time>
      </trkpt>
      <trkpt lat="42.3638380" lon="-3.3653510">
        <ele>1130.2</ele>
        <time>2022-06-27T10:45:13Z</time>
      </trkpt>
      <trkpt lat="42.3638690" lon="-3.3655140">
        <ele>1129.8</ele>
        <time>2022-06-27T10:45:14Z</time>
      </trkpt>
      <trkpt lat="42.3639090" lon="-3.3657170">
        <ele>1129.4</ele>
        <time>2022-06-27T10:45:15Z</time>
      </trkpt>
      <trkpt lat="42.3639510" lon="-3.3659210">
        <ele>1128.2</ele>
        <time>2022-06-27T10:45:16Z</time>
      </trkpt>
      <trkpt lat="42.3639980" lon="-3.3661220">
        <ele>1127.2</ele>
        <time>2022-06-27T10:45:17Z</time>
      </trkpt>
      <trkpt lat="42.3640450" lon="-3.3663240">
        <ele>1125.8</ele>
        <time>2022-06-27T10:45:18Z</time>
      </trkpt>
      <trkpt lat="42.3640920" lon="-3.3665270">
        <ele>1125.0</ele>
        <time>2022-06-27T10:45:19Z</time>
      </trkpt>
      <trkpt lat="42.3641470" lon="-3.3667690">
        <ele>1123.6</ele>
        <time>2022-06-27T10:45:20Z</time>
      </trkpt>
      <trkpt lat="42.3641860" lon="-3.3669720">
        <ele>1122.2</ele>
        <time>2022-06-27T10:45:21Z</time>
      </trkpt>
      <trkpt lat="42.3642190" lon="-3.3671750">
        <ele>1121.6</ele>
        <time>2022-06-27T10:45:22Z</time>
      </trkpt>
      <trkpt lat="42.3642380" lon="-3.3673390">
        <ele>1120.6</ele>
        <time>2022-06-27T10:45:23Z</time>
      </trkpt>
      <trkpt lat="42.3642600" lon="-3.3675840">
        <ele>1120.0</ele>
        <time>2022-06-27T10:45:24Z</time>
      </trkpt>
      <trkpt lat="42.3642680" lon="-3.3677480">
        <ele>1119.0</ele>
        <time>2022-06-27T10:45:25Z</time>
      </trkpt>
      <trkpt lat="42.3642740" lon="-3.3679550">
        <ele>1118.6</ele>
        <time>2022-06-27T10:45:26Z</time>
      </trkpt>
      <trkpt lat="42.3642710" lon="-3.3681610">
        <ele>1117.4</ele>
        <time>2022-06-27T10:45:27Z</time>
      </trkpt>
      <trkpt lat="42.3642590" lon="-3.3683670">
        <ele>1116.6</ele>
        <time>2022-06-27T10:45:28Z</time>
      </trkpt>
      <trkpt lat="42.3642350" lon="-3.3686090">
        <ele>1116.0</ele>
        <time>2022-06-27T10:45:29Z</time>
      </trkpt>
      <trkpt lat="42.3642080" lon="-3.3688080">
        <ele>1114.6</ele>
        <time>2022-06-27T10:45:30Z</time>
      </trkpt>
      <trkpt lat="42.3641770" lon="-3.3690070">
        <ele>1114.0</ele>
        <time>2022-06-27T10:45:31Z</time>
      </trkpt>
      <trkpt lat="42.3641430" lon="-3.3692080">
        <ele>1113.2</ele>
        <time>2022-06-27T10:45:32Z</time>
      </trkpt>
      <trkpt lat="42.3641150" lon="-3.3693670">
        <ele>1112.8</ele>
        <time>2022-06-27T10:45:33Z</time>
      </trkpt>
      <trkpt lat="42.3640770" lon="-3.3695620">
        <ele>1111.8</ele>
        <time>2022-06-27T10:45:34Z</time>
      </trkpt>
      <trkpt lat="42.3640310" lon="-3.3697900">
        <ele>1110.6</ele>
        <time>2022-06-27T10:45:35Z</time>
      </trkpt>
      <trkpt lat="42.3639910" lon="-3.3699750">
        <ele>1110.0</ele>
        <time>2022-06-27T10:45:36Z</time>
      </trkpt>
      <trkpt lat="42.3639530" lon="-3.3701520">
        <ele>1108.6</ele>
        <time>2022-06-27T10:45:37Z</time>
      </trkpt>
      <trkpt lat="42.3639160" lon="-3.3703240">
        <ele>1108.0</ele>
        <time>2022-06-27T10:45:38Z</time>
      </trkpt>
      <trkpt lat="42.3638820" lon="-3.3704930">
        <ele>1107.0</ele>
        <time>2022-06-27T10:45:39Z</time>
      </trkpt>
      <trkpt lat="42.3638480" lon="-3.3706590">
        <ele>1106.8</ele>
        <time>2022-06-27T10:45:40Z</time>
      </trkpt>
      <trkpt lat="42.3638160" lon="-3.3708210">
        <ele>1106.6</ele>
        <time>2022-06-27T10:45:41Z</time>
      </trkpt>
      <trkpt lat="42.3637850" lon="-3.3709780">
        <ele>1106.6</ele>
        <time>2022-06-27T10:45:42Z</time>
      </trkpt>
      <trkpt lat="42.3637580" lon="-3.3711310">
        <ele>1106.4</ele>
        <time>2022-06-27T10:45:43Z</time>
      </trkpt>
      <trkpt lat="42.3637390" lon="-3.3712480">
        <ele>1106.4</ele>
        <time>2022-06-27T10:45:44Z</time>
      </trkpt>
      <trkpt lat="42.3637140" lon="-3.3713890">
        <ele>1106.4</ele>
        <time>2022-06-27T10:45:45Z</time>
      </trkpt>
      <trkpt lat="42.3636890" lon="-3.3715280">
        <ele>1106.4</ele>
        <time>2022-06-27T10:45:46Z</time>
      </trkpt>
      <trkpt lat="42.3636650" lon="-3.3716650">
        <ele>1106.4</ele>
        <time>2022-06-27T10:45:47Z</time>
      </trkpt>
      <trkpt lat="42.3636430" lon="-3.3717970">
        <ele>1106.8</ele>
        <time>2022-06-27T10:45:48Z</time>
      </trkpt>
      <trkpt lat="42.3636190" lon="-3.3719250">
        <ele>1107.0</ele>
        <time>2022-06-27T10:45:49Z</time>
      </trkpt>
      <trkpt lat="42.3635910" lon="-3.3720780">
        <ele>1107.4</ele>
        <time>2022-06-27T10:45:50Z</time>
      </trkpt>
      <trkpt lat="42.3635670" lon="-3.3722030">
        <ele>1107.6</ele>
        <time>2022-06-27T10:45:51Z</time>
      </trkpt>
      <trkpt lat="42.3635460" lon="-3.3723240">
        <ele>1107.6</ele>
        <time>2022-06-27T10:45:52Z</time>
      </trkpt>
      <trkpt lat="42.3635310" lon="-3.3724200">
        <ele>1107.8</ele>
        <time>2022-06-27T10:45:53Z</time>
      </trkpt>
      <trkpt lat="42.3635140" lon="-3.3725370">
        <ele>1108.0</ele>
        <time>2022-06-27T10:45:54Z</time>
      </trkpt>
      <trkpt lat="42.3634920" lon="-3.3726750">
        <ele>1108.4</ele>
        <time>2022-06-27T10:45:55Z</time>
      </trkpt>
      <trkpt lat="42.3634770" lon="-3.3727640">
        <ele>1108.6</ele>
        <time>2022-06-27T10:45:56Z</time>
      </trkpt>
      <trkpt lat="42.3634540" lon="-3.3728950">
        <ele>1109.2</ele>
        <time>2022-06-27T10:45:57Z</time>
      </trkpt>
      <trkpt lat="42.3634380" lon="-3.3729820">
        <ele>1109.6</ele>
        <time>2022-06-27T10:45:58Z</time>
      </trkpt>
      <trkpt lat="42.3634200" lon="-3.3730900">
        <ele>1109.6</ele>
        <time>2022-06-27T10:45:59Z</time>
      </trkpt>
      <trkpt lat="42.3634010" lon="-3.3731970">
        <ele>1110.0</ele>
        <time>2022-06-27T10:46:00Z</time>
      </trkpt>
      <trkpt lat="42.3633810" lon="-3.3733050">
        <ele>1110.0</ele>
        <time>2022-06-27T10:46:01Z</time>
      </trkpt>
      <trkpt lat="42.3633620" lon="-3.3734090">
        <ele>1110.0</ele>
        <time>2022-06-27T10:46:02Z</time>
      </trkpt>
      <trkpt lat="42.3633430" lon="-3.3735140">
        <ele>1110.2</ele>
        <time>2022-06-27T10:46:03Z</time>
      </trkpt>
      <trkpt lat="42.3633240" lon="-3.3736180">
        <ele>1110.6</ele>
        <time>2022-06-27T10:46:04Z</time>
      </trkpt>
      <trkpt lat="42.3633050" lon="-3.3737220">
        <ele>1110.8</ele>
        <time>2022-06-27T10:46:05Z</time>
      </trkpt>
      <trkpt lat="42.3632850" lon="-3.3738250">
        <ele>1111.0</ele>
        <time>2022-06-27T10:46:06Z</time>
      </trkpt>
      <trkpt lat="42.3632650" lon="-3.3739290">
        <ele>1111.2</ele>
        <time>2022-06-27T10:46:07Z</time>
      </trkpt>
      <trkpt lat="42.3632470" lon="-3.3740320">
        <ele>1111.4</ele>
        <time>2022-06-27T10:46:08Z</time>
      </trkpt>
      <trkpt lat="42.3632310" lon="-3.3741340">
        <ele>1111.6</ele>
        <time>2022-06-27T10:46:09Z</time>
      </trkpt>
      <trkpt lat="42.3632120" lon="-3.3742370">
        <ele>1111.6</ele>
        <time>2022-06-27T10:46:10Z</time>
      </trkpt>
      <trkpt lat="42.3631930" lon="-3.3743400">
        <ele>1111.8</ele>
        <time>2022-06-27T10:46:11Z</time>
      </trkpt>
      <trkpt lat="42.3631720" lon="-3.3744630">
        <ele>1112.0</ele>
        <time>2022-06-27T10:46:12Z</time>
      </trkpt>
      <trkpt lat="42.3631580" lon="-3.3745440">
        <ele>1112.2</ele>
        <time>2022-06-27T10:46:13Z</time>
      </trkpt>
      <trkpt lat="42.3631420" lon="-3.3746450">
        <ele>1112.4</ele>
        <time>2022-06-27T10:46:14Z</time>
      </trkpt>
      <trkpt lat="42.3631240" lon="-3.3747450">
        <ele>1112.4</ele>
        <time>2022-06-27T10:46:15Z</time>
      </trkpt>
      <trkpt lat="42.3631050" lon="-3.3748410">
        <ele>1112.6</ele>
        <time>2022-06-27T10:46:16Z</time>
      </trkpt>
      <trkpt lat="42.3630850" lon="-3.3749560">
        <ele>1112.6</ele>
        <time>2022-06-27T10:46:17Z</time>
      </trkpt>
      <trkpt lat="42.3630730" lon="-3.3750320">
        <ele>1112.8</ele>
        <time>2022-06-27T10:46:18Z</time>
      </trkpt>
      <trkpt lat="42.3630560" lon="-3.3751260">
        <ele>1112.8</ele>
        <time>2022-06-27T10:46:19Z</time>
      </trkpt>
      <trkpt lat="42.3630380" lon="-3.3752210">
        <ele>1112.8</ele>
        <time>2022-06-27T10:46:20Z</time>
      </trkpt>
      <trkpt lat="42.3630210" lon="-3.3753150">
        <ele>1113.0</ele>
        <time>2022-06-27T10:46:21Z</time>
      </trkpt>
      <trkpt lat="42.3630010" lon="-3.3754230">
        <ele>1113.0</ele>
        <time>2022-06-27T10:46:22Z</time>
      </trkpt>
      <trkpt lat="42.3629880" lon="-3.3754920">
        <ele>1113.2</ele>
        <time>2022-06-27T10:46:23Z</time>
      </trkpt>
      <trkpt lat="42.3629720" lon="-3.3755790">
        <ele>1113.2</ele>
        <time>2022-06-27T10:46:24Z</time>
      </trkpt>
      <trkpt lat="42.3629570" lon="-3.3756650">
        <ele>1113.8</ele>
        <time>2022-06-27T10:46:25Z</time>
      </trkpt>
      <trkpt lat="42.3629430" lon="-3.3757510">
        <ele>1114.0</ele>
        <time>2022-06-27T10:46:26Z</time>
      </trkpt>
      <trkpt lat="42.3629250" lon="-3.3758520">
        <ele>1114.2</ele>
        <time>2022-06-27T10:46:27Z</time>
      </trkpt>
      <trkpt lat="42.3629120" lon="-3.3759180">
        <ele>1114.4</ele>
        <time>2022-06-27T10:46:28Z</time>
      </trkpt>
      <trkpt lat="42.3628960" lon="-3.3760020">
        <ele>1114.4</ele>
        <time>2022-06-27T10:46:29Z</time>
      </trkpt>
      <trkpt lat="42.3628790" lon="-3.3761000">
        <ele>1114.6</ele>
        <time>2022-06-27T10:46:30Z</time>
      </trkpt>
      <trkpt lat="42.3628680" lon="-3.3761650">
        <ele>1114.6</ele>
        <time>2022-06-27T10:46:31Z</time>
      </trkpt>
      <trkpt lat="42.3628540" lon="-3.3762480">
        <ele>1114.6</ele>
        <time>2022-06-27T10:46:32Z</time>
      </trkpt>
      <trkpt lat="42.3628390" lon="-3.3763300">
        <ele>1114.8</ele>
        <time>2022-06-27T10:46:33Z</time>
      </trkpt>
      <trkpt lat="42.3628240" lon="-3.3764130">
        <ele>1115.0</ele>
        <time>2022-06-27T10:46:34Z</time>
      </trkpt>
      <trkpt lat="42.3628090" lon="-3.3764940">
        <ele>1115.4</ele>
        <time>2022-06-27T10:46:35Z</time>
      </trkpt>
      <trkpt lat="42.3627940" lon="-3.3765750">
        <ele>1115.8</ele>
        <time>2022-06-27T10:46:36Z</time>
      </trkpt>
      <trkpt lat="42.3627790" lon="-3.3766570">
        <ele>1116.0</ele>
        <time>2022-06-27T10:46:37Z</time>
      </trkpt>
      <trkpt lat="42.3627620" lon="-3.3767400">
        <ele>1116.2</ele>
        <time>2022-06-27T10:46:38Z</time>
      </trkpt>
      <trkpt lat="42.3627440" lon="-3.3768220">
        <ele>1116.4</ele>
        <time>2022-06-27T10:46:39Z</time>
      </trkpt>
      <trkpt lat="42.3627290" lon="-3.3769030">
        <ele>1116.4</ele>
        <time>2022-06-27T10:46:40Z</time>
      </trkpt>
      <trkpt lat="42.3627140" lon="-3.3769860">
        <ele>1116.8</ele>
        <time>2022-06-27T10:46:41Z</time>
      </trkpt>
      <trkpt lat="42.3627000" lon="-3.3770690">
        <ele>1116.8</ele>
        <time>2022-06-27T10:46:42Z</time>
      </trkpt>
      <trkpt lat="42.3626870" lon="-3.3771500">
        <ele>1117.2</ele>
        <time>2022-06-27T10:46:43Z</time>
      </trkpt>
      <trkpt lat="42.3626740" lon="-3.3772330">
        <ele>1117.4</ele>
        <time>2022-06-27T10:46:44Z</time>
      </trkpt>
      <trkpt lat="42.3626610" lon="-3.3773150">
        <ele>1117.6</ele>
        <time>2022-06-27T10:46:45Z</time>
      </trkpt>
      <trkpt lat="42.3626470" lon="-3.3773970">
        <ele>1117.8</ele>
        <time>2022-06-27T10:46:46Z</time>
      </trkpt>
      <trkpt lat="42.3626340" lon="-3.3774810">
        <ele>1118.0</ele>
        <time>2022-06-27T10:46:47Z</time>
      </trkpt>
      <trkpt lat="42.3626170" lon="-3.3775800">
        <ele>1118.2</ele>
        <time>2022-06-27T10:46:48Z</time>
      </trkpt>
      <trkpt lat="42.3626060" lon="-3.3776450">
        <ele>1118.4</ele>
        <time>2022-06-27T10:46:49Z</time>
      </trkpt>
      <trkpt lat="42.3625930" lon="-3.3777260">
        <ele>1118.6</ele>
        <time>2022-06-27T10:46:50Z</time>
      </trkpt>
      <trkpt lat="42.3625780" lon="-3.3778070">
        <ele>1118.6</ele>
        <time>2022-06-27T10:46:51Z</time>
      </trkpt>
      <trkpt lat="42.3625630" lon="-3.3778900">
        <ele>1118.8</ele>
        <time>2022-06-27T10:46:52Z</time>
      </trkpt>
      <trkpt lat="42.3625470" lon="-3.3779730">
        <ele>1119.0</ele>
        <time>2022-06-27T10:46:53Z</time>
      </trkpt>
      <trkpt lat="42.3625310" lon="-3.3780530">
        <ele>1119.0</ele>
        <time>2022-06-27T10:46:54Z</time>
      </trkpt>
      <trkpt lat="42.3625170" lon="-3.3781340">
        <ele>1119.2</ele>
        <time>2022-06-27T10:46:55Z</time>
      </trkpt>
      <trkpt lat="42.3625030" lon="-3.3782160">
        <ele>1119.4</ele>
        <time>2022-06-27T10:46:56Z</time>
      </trkpt>
      <trkpt lat="42.3624880" lon="-3.3782970">
        <ele>1119.6</ele>
        <time>2022-06-27T10:46:57Z</time>
      </trkpt>
      <trkpt lat="42.3624760" lon="-3.3783790">
        <ele>1119.8</ele>
        <time>2022-06-27T10:46:58Z</time>
      </trkpt>
      <trkpt lat="42.3624610" lon="-3.3784610">
        <ele>1119.8</ele>
        <time>2022-06-27T10:46:59Z</time>
      </trkpt>
      <trkpt lat="42.3624470" lon="-3.3785410">
        <ele>1120.0</ele>
        <time>2022-06-27T10:47:00Z</time>
      </trkpt>
      <trkpt lat="42.3624340" lon="-3.3786190">
        <ele>1120.4</ele>
        <time>2022-06-27T10:47:01Z</time>
      </trkpt>
      <trkpt lat="42.3624190" lon="-3.3787010">
        <ele>1120.6</ele>
        <time>2022-06-27T10:47:02Z</time>
      </trkpt>
      <trkpt lat="42.3624040" lon="-3.3787810">
        <ele>1120.8</ele>
        <time>2022-06-27T10:47:03Z</time>
      </trkpt>
      <trkpt lat="42.3623880" lon="-3.3788610">
        <ele>1121.0</ele>
        <time>2022-06-27T10:47:04Z</time>
      </trkpt>
      <trkpt lat="42.3623740" lon="-3.3789430">
        <ele>1121.0</ele>
        <time>2022-06-27T10:47:05Z</time>
      </trkpt>
      <trkpt lat="42.3623590" lon="-3.3790240">
        <ele>1121.2</ele>
        <time>2022-06-27T10:47:06Z</time>
      </trkpt>
      <trkpt lat="42.3623440" lon="-3.3791050">
        <ele>1121.4</ele>
        <time>2022-06-27T10:47:07Z</time>
      </trkpt>
      <trkpt lat="42.3623280" lon="-3.3791870">
        <ele>1121.4</ele>
        <time>2022-06-27T10:47:08Z</time>
      </trkpt>
      <trkpt lat="42.3623100" lon="-3.3792700">
        <ele>1121.6</ele>
        <time>2022-06-27T10:47:09Z</time>
      </trkpt>
      <trkpt lat="42.3622900" lon="-3.3793510">
        <ele>1121.8</ele>
        <time>2022-06-27T10:47:10Z</time>
      </trkpt>
      <trkpt lat="42.3622690" lon="-3.3794320">
        <ele>1122.0</ele>
        <time>2022-06-27T10:47:11Z</time>
      </trkpt>
      <trkpt lat="42.3622480" lon="-3.3795090">
        <ele>1122.2</ele>
        <time>2022-06-27T10:47:12Z</time>
      </trkpt>
      <trkpt lat="42.3622190" lon="-3.3796050">
        <ele>1122.2</ele>
        <time>2022-06-27T10:47:13Z</time>
      </trkpt>
      <trkpt lat="42.3621980" lon="-3.3796680">
        <ele>1122.4</ele>
        <time>2022-06-27T10:47:14Z</time>
      </trkpt>
      <trkpt lat="42.3621710" lon="-3.3797460">
        <ele>1122.4</ele>
        <time>2022-06-27T10:47:15Z</time>
      </trkpt>
      <trkpt lat="42.3621430" lon="-3.3798250">
        <ele>1122.6</ele>
        <time>2022-06-27T10:47:16Z</time>
      </trkpt>
      <trkpt lat="42.3621130" lon="-3.3799020">
        <ele>1122.8</ele>
        <time>2022-06-27T10:47:17Z</time>
      </trkpt>
      <trkpt lat="42.3620810" lon="-3.3799790">
        <ele>1122.6</ele>
        <time>2022-06-27T10:47:18Z</time>
      </trkpt>
      <trkpt lat="42.3620410" lon="-3.3800720">
        <ele>1122.6</ele>
        <time>2022-06-27T10:47:19Z</time>
      </trkpt>
      <trkpt lat="42.3620040" lon="-3.3801480">
        <ele>1122.6</ele>
        <time>2022-06-27T10:47:20Z</time>
      </trkpt>
      <trkpt lat="42.3619730" lon="-3.3802120">
        <ele>1122.4</ele>
        <time>2022-06-27T10:47:21Z</time>
      </trkpt>
      <trkpt lat="42.3619320" lon="-3.3802930">
        <ele>1122.4</ele>
        <time>2022-06-27T10:47:22Z</time>
      </trkpt>
      <trkpt lat="42.3618880" lon="-3.3803760">
        <ele>1122.4</ele>
        <time>2022-06-27T10:47:23Z</time>
      </trkpt>
      <trkpt lat="42.3618390" lon="-3.3804600">
        <ele>1122.4</ele>
        <time>2022-06-27T10:47:24Z</time>
      </trkpt>
      <trkpt lat="42.3617860" lon="-3.3805440">
        <ele>1122.2</ele>
        <time>2022-06-27T10:47:25Z</time>
      </trkpt>
      <trkpt lat="42.3617310" lon="-3.3806310">
        <ele>1122.2</ele>
        <time>2022-06-27T10:47:26Z</time>
      </trkpt>
      <trkpt lat="42.3616720" lon="-3.3807220">
        <ele>1122.0</ele>
        <time>2022-06-27T10:47:27Z</time>
      </trkpt>
      <trkpt lat="42.3616120" lon="-3.3808160">
        <ele>1121.8</ele>
        <time>2022-06-27T10:47:28Z</time>
      </trkpt>
      <trkpt lat="42.3615500" lon="-3.3809160">
        <ele>1121.6</ele>
        <time>2022-06-27T10:47:29Z</time>
      </trkpt>
      <trkpt lat="42.3614880" lon="-3.3810180">
        <ele>1121.4</ele>
        <time>2022-06-27T10:47:30Z</time>
      </trkpt>
      <trkpt lat="42.3614230" lon="-3.3811270">
        <ele>1121.0</ele>
        <time>2022-06-27T10:47:31Z</time>
      </trkpt>
      <trkpt lat="42.3613560" lon="-3.3812360">
        <ele>1120.6</ele>
        <time>2022-06-27T10:47:32Z</time>
      </trkpt>
      <trkpt lat="42.3612890" lon="-3.3813480">
        <ele>1120.6</ele>
        <time>2022-06-27T10:47:33Z</time>
      </trkpt>
      <trkpt lat="42.3612240" lon="-3.3814640">
        <ele>1120.2</ele>
        <time>2022-06-27T10:47:34Z</time>
      </trkpt>
      <trkpt lat="42.3611620" lon="-3.3815830">
        <ele>1120.0</ele>
        <time>2022-06-27T10:47:35Z</time>
      </trkpt>
      <trkpt lat="42.3611020" lon="-3.3817050">
        <ele>1119.6</ele>
        <time>2022-06-27T10:47:36Z</time>
      </trkpt>
      <trkpt lat="42.3610460" lon="-3.3818330">
        <ele>1119.0</ele>
        <time>2022-06-27T10:47:37Z</time>
      </trkpt>
      <trkpt lat="42.3609940" lon="-3.3819640">
        <ele>1118.8</ele>
        <time>2022-06-27T10:47:38Z</time>
      </trkpt>
      <trkpt lat="42.3609470" lon="-3.3820930">
        <ele>1118.4</ele>
        <time>2022-06-27T10:47:39Z</time>
      </trkpt>
      <trkpt lat="42.3609030" lon="-3.3822230">
        <ele>1118.2</ele>
        <time>2022-06-27T10:47:40Z</time>
      </trkpt>
      <trkpt lat="42.3608620" lon="-3.3823540">
        <ele>1117.8</ele>
        <time>2022-06-27T10:47:41Z</time>
      </trkpt>
      <trkpt lat="42.3608240" lon="-3.3824860">
        <ele>1117.8</ele>
        <time>2022-06-27T10:47:42Z</time>
      </trkpt>
      <trkpt lat="42.3607880" lon="-3.3826190">
        <ele>1117.8</ele>
        <time>2022-06-27T10:47:43Z</time>
      </trkpt>
      <trkpt lat="42.3607520" lon="-3.3827500">
        <ele>1117.8</ele>
        <time>2022-06-27T10:47:44Z</time>
      </trkpt>
      <trkpt lat="42.3607180" lon="-3.3828780">
        <ele>1117.8</ele>
        <time>2022-06-27T10:47:45Z</time>
      </trkpt>
      <trkpt lat="42.3606800" lon="-3.3830320">
        <ele>1117.8</ele>
        <time>2022-06-27T10:47:46Z</time>
      </trkpt>
      <trkpt lat="42.3606550" lon="-3.3831330">
        <ele>1117.8</ele>
        <time>2022-06-27T10:47:47Z</time>
      </trkpt>
      <trkpt lat="42.3606230" lon="-3.3832610">
        <ele>1118.2</ele>
        <time>2022-06-27T10:47:48Z</time>
      </trkpt>
      <trkpt lat="42.3605890" lon="-3.3833930">
        <ele>1118.4</ele>
        <time>2022-06-27T10:47:49Z</time>
      </trkpt>
      <trkpt lat="42.3605570" lon="-3.3835240">
        <ele>1118.8</ele>
        <time>2022-06-27T10:47:50Z</time>
      </trkpt>
      <trkpt lat="42.3605250" lon="-3.3836550">
        <ele>1119.0</ele>
        <time>2022-06-27T10:47:51Z</time>
      </trkpt>
      <trkpt lat="42.3604920" lon="-3.3837870">
        <ele>1119.4</ele>
        <time>2022-06-27T10:47:52Z</time>
      </trkpt>
      <trkpt lat="42.3604590" lon="-3.3839160">
        <ele>1119.6</ele>
        <time>2022-06-27T10:47:53Z</time>
      </trkpt>
      <trkpt lat="42.3604250" lon="-3.3840450">
        <ele>1119.6</ele>
        <time>2022-06-27T10:47:54Z</time>
      </trkpt>
      <trkpt lat="42.3603850" lon="-3.3841980">
        <ele>1119.8</ele>
        <time>2022-06-27T10:47:55Z</time>
      </trkpt>
      <trkpt lat="42.3603590" lon="-3.3842990">
        <ele>1119.6</ele>
        <time>2022-06-27T10:47:56Z</time>
      </trkpt>
      <trkpt lat="42.3603150" lon="-3.3844500">
        <ele>1119.4</ele>
        <time>2022-06-27T10:47:57Z</time>
      </trkpt>
      <trkpt lat="42.3602830" lon="-3.3845470">
        <ele>1119.4</ele>
        <time>2022-06-27T10:47:58Z</time>
      </trkpt>
      <trkpt lat="42.3602420" lon="-3.3846700">
        <ele>1119.4</ele>
        <time>2022-06-27T10:47:59Z</time>
      </trkpt>
      <trkpt lat="42.3601900" lon="-3.3848130">
        <ele>1119.4</ele>
        <time>2022-06-27T10:48:00Z</time>
      </trkpt>
      <trkpt lat="42.3601520" lon="-3.3849060">
        <ele>1119.4</ele>
        <time>2022-06-27T10:48:01Z</time>
      </trkpt>
      <trkpt lat="42.3601020" lon="-3.3850200">
        <ele>1119.4</ele>
        <time>2022-06-27T10:48:02Z</time>
      </trkpt>
      <trkpt lat="42.3600480" lon="-3.3851300">
        <ele>1119.4</ele>
        <time>2022-06-27T10:48:03Z</time>
      </trkpt>
      <trkpt lat="42.3599900" lon="-3.3852380">
        <ele>1119.4</ele>
        <time>2022-06-27T10:48:04Z</time>
      </trkpt>
      <trkpt lat="42.3599310" lon="-3.3853430">
        <ele>1119.2</ele>
        <time>2022-06-27T10:48:05Z</time>
      </trkpt>
      <trkpt lat="42.3598670" lon="-3.3854470">
        <ele>1119.2</ele>
        <time>2022-06-27T10:48:06Z</time>
      </trkpt>
      <trkpt lat="42.3597870" lon="-3.3855680">
        <ele>1119.2</ele>
        <time>2022-06-27T10:48:07Z</time>
      </trkpt>
      <trkpt lat="42.3597320" lon="-3.3856460">
        <ele>1119.2</ele>
        <time>2022-06-27T10:48:08Z</time>
      </trkpt>
      <trkpt lat="42.3596610" lon="-3.3857450">
        <ele>1119.2</ele>
        <time>2022-06-27T10:48:09Z</time>
      </trkpt>
      <trkpt lat="42.3595860" lon="-3.3858390">
        <ele>1119.2</ele>
        <time>2022-06-27T10:48:10Z</time>
      </trkpt>
      <trkpt lat="42.3595070" lon="-3.3859310">
        <ele>1119.0</ele>
        <time>2022-06-27T10:48:11Z</time>
      </trkpt>
      <trkpt lat="42.3594240" lon="-3.3860180">
        <ele>1119.0</ele>
        <time>2022-06-27T10:48:12Z</time>
      </trkpt>
      <trkpt lat="42.3593410" lon="-3.3861070">
        <ele>1118.8</ele>
        <time>2022-06-27T10:48:13Z</time>
      </trkpt>
      <trkpt lat="42.3592570" lon="-3.3861980">
        <ele>1118.6</ele>
        <time>2022-06-27T10:48:14Z</time>
      </trkpt>
      <trkpt lat="42.3591730" lon="-3.3862930">
        <ele>1118.6</ele>
        <time>2022-06-27T10:48:15Z</time>
      </trkpt>
      <trkpt lat="42.3590910" lon="-3.3863930">
        <ele>1118.6</ele>
        <time>2022-06-27T10:48:16Z</time>
      </trkpt>
      <trkpt lat="42.3590090" lon="-3.3864990">
        <ele>1118.4</ele>
        <time>2022-06-27T10:48:17Z</time>
      </trkpt>
      <trkpt lat="42.3589300" lon="-3.3866090">
        <ele>1117.8</ele>
        <time>2022-06-27T10:48:18Z</time>
      </trkpt>
      <trkpt lat="42.3588530" lon="-3.3867260">
        <ele>1117.4</ele>
        <time>2022-06-27T10:48:19Z</time>
      </trkpt>
      <trkpt lat="42.3587790" lon="-3.3868510">
        <ele>1116.8</ele>
        <time>2022-06-27T10:48:20Z</time>
      </trkpt>
      <trkpt lat="42.3587080" lon="-3.3869830">
        <ele>1116.6</ele>
        <time>2022-06-27T10:48:21Z</time>
      </trkpt>
      <trkpt lat="42.3586420" lon="-3.3871220">
        <ele>1115.8</ele>
        <time>2022-06-27T10:48:22Z</time>
      </trkpt>
      <trkpt lat="42.3585790" lon="-3.3872680">
        <ele>1115.0</ele>
        <time>2022-06-27T10:48:23Z</time>
      </trkpt>
      <trkpt lat="42.3585190" lon="-3.3874190">
        <ele>1114.6</ele>
        <time>2022-06-27T10:48:24Z</time>
      </trkpt>
      <trkpt lat="42.3584650" lon="-3.3875740">
        <ele>1114.2</ele>
        <time>2022-06-27T10:48:25Z</time>
      </trkpt>
      <trkpt lat="42.3584120" lon="-3.3877280">
        <ele>1114.0</ele>
        <time>2022-06-27T10:48:26Z</time>
      </trkpt>
      <trkpt lat="42.3583630" lon="-3.3878830">
        <ele>1113.6</ele>
        <time>2022-06-27T10:48:27Z</time>
      </trkpt>
      <trkpt lat="42.3583140" lon="-3.3880350">
        <ele>1113.4</ele>
        <time>2022-06-27T10:48:28Z</time>
      </trkpt>
      <trkpt lat="42.3582660" lon="-3.3881860">
        <ele>1112.8</ele>
        <time>2022-06-27T10:48:29Z</time>
      </trkpt>
      <trkpt lat="42.3582190" lon="-3.3883340">
        <ele>1112.4</ele>
        <time>2022-06-27T10:48:30Z</time>
      </trkpt>
      <trkpt lat="42.3581750" lon="-3.3884760">
        <ele>1112.2</ele>
        <time>2022-06-27T10:48:31Z</time>
      </trkpt>
      <trkpt lat="42.3581320" lon="-3.3886130">
        <ele>1111.8</ele>
        <time>2022-06-27T10:48:32Z</time>
      </trkpt>
      <trkpt lat="42.3580910" lon="-3.3887450">
        <ele>1111.6</ele>
        <time>2022-06-27T10:48:33Z</time>
      </trkpt>
      <trkpt lat="42.3580500" lon="-3.3888730">
        <ele>1111.4</ele>
        <time>2022-06-27T10:48:34Z</time>
      </trkpt>
      <trkpt lat="42.3580110" lon="-3.3889970">
        <ele>1111.4</ele>
        <time>2022-06-27T10:48:35Z</time>
      </trkpt>
      <trkpt lat="42.3579740" lon="-3.3891160">
        <ele>1111.4</ele>
        <time>2022-06-27T10:48:36Z</time>
      </trkpt>
      <trkpt lat="42.3579360" lon="-3.3892340">
        <ele>1111.6</ele>
        <time>2022-06-27T10:48:37Z</time>
      </trkpt>
      <trkpt lat="42.3579000" lon="-3.3893460">
        <ele>1111.8</ele>
        <time>2022-06-27T10:48:38Z</time>
      </trkpt>
      <trkpt lat="42.3578640" lon="-3.3894590">
        <ele>1112.0</ele>
        <time>2022-06-27T10:48:39Z</time>
      </trkpt>
      <trkpt lat="42.3578280" lon="-3.3895700">
        <ele>1112.2</ele>
        <time>2022-06-27T10:48:40Z</time>
      </trkpt>
      <trkpt lat="42.3577940" lon="-3.3896770">
        <ele>1112.6</ele>
        <time>2022-06-27T10:48:41Z</time>
      </trkpt>
      <trkpt lat="42.3577610" lon="-3.3897810">
        <ele>1112.6</ele>
        <time>2022-06-27T10:48:42Z</time>
      </trkpt>
      <trkpt lat="42.3577260" lon="-3.3898840">
        <ele>1112.8</ele>
        <time>2022-06-27T10:48:43Z</time>
      </trkpt>
      <trkpt lat="42.3576930" lon="-3.3899860">
        <ele>1113.0</ele>
        <time>2022-06-27T10:48:44Z</time>
      </trkpt>
      <trkpt lat="42.3576610" lon="-3.3900860">
        <ele>1113.4</ele>
        <time>2022-06-27T10:48:45Z</time>
      </trkpt>
      <trkpt lat="42.3576300" lon="-3.3901850">
        <ele>1113.8</ele>
        <time>2022-06-27T10:48:46Z</time>
      </trkpt>
      <trkpt lat="42.3575970" lon="-3.3902830">
        <ele>1114.0</ele>
        <time>2022-06-27T10:48:47Z</time>
      </trkpt>
      <trkpt lat="42.3575660" lon="-3.3903800">
        <ele>1114.6</ele>
        <time>2022-06-27T10:48:48Z</time>
      </trkpt>
      <trkpt lat="42.3575340" lon="-3.3904750">
        <ele>1115.0</ele>
        <time>2022-06-27T10:48:49Z</time>
      </trkpt>
      <trkpt lat="42.3575030" lon="-3.3905680">
        <ele>1115.8</ele>
        <time>2022-06-27T10:48:50Z</time>
      </trkpt>
      <trkpt lat="42.3574720" lon="-3.3906610">
        <ele>1116.2</ele>
        <time>2022-06-27T10:48:51Z</time>
      </trkpt>
      <trkpt lat="42.3574410" lon="-3.3907550">
        <ele>1116.8</ele>
        <time>2022-06-27T10:48:52Z</time>
      </trkpt>
      <trkpt lat="42.3574100" lon="-3.3908470">
        <ele>1117.2</ele>
        <time>2022-06-27T10:48:53Z</time>
      </trkpt>
      <trkpt lat="42.3573820" lon="-3.3909390">
        <ele>1117.4</ele>
        <time>2022-06-27T10:48:54Z</time>
      </trkpt>
      <trkpt lat="42.3573560" lon="-3.3910290">
        <ele>1117.8</ele>
        <time>2022-06-27T10:48:55Z</time>
      </trkpt>
      <trkpt lat="42.3573270" lon="-3.3911190">
        <ele>1118.2</ele>
        <time>2022-06-27T10:48:56Z</time>
      </trkpt>
      <trkpt lat="42.3572970" lon="-3.3912080">
        <ele>1118.8</ele>
        <time>2022-06-27T10:48:57Z</time>
      </trkpt>
      <trkpt lat="42.3572660" lon="-3.3912990">
        <ele>1119.0</ele>
        <time>2022-06-27T10:48:58Z</time>
      </trkpt>
      <trkpt lat="42.3572360" lon="-3.3913890">
        <ele>1119.4</ele>
        <time>2022-06-27T10:48:59Z</time>
      </trkpt>
      <trkpt lat="42.3572060" lon="-3.3914790">
        <ele>1119.8</ele>
        <time>2022-06-27T10:49:00Z</time>
      </trkpt>
      <trkpt lat="42.3571760" lon="-3.3915710">
        <ele>1120.0</ele>
        <time>2022-06-27T10:49:01Z</time>
      </trkpt>
      <trkpt lat="42.3571460" lon="-3.3916620">
        <ele>1120.4</ele>
        <time>2022-06-27T10:49:02Z</time>
      </trkpt>
      <trkpt lat="42.3571170" lon="-3.3917520">
        <ele>1120.6</ele>
        <time>2022-06-27T10:49:03Z</time>
      </trkpt>
      <trkpt lat="42.3570880" lon="-3.3918430">
        <ele>1120.8</ele>
        <time>2022-06-27T10:49:04Z</time>
      </trkpt>
      <trkpt lat="42.3570560" lon="-3.3919350">
        <ele>1120.8</ele>
        <time>2022-06-27T10:49:05Z</time>
      </trkpt>
      <trkpt lat="42.3570230" lon="-3.3920280">
        <ele>1121.0</ele>
        <time>2022-06-27T10:49:06Z</time>
      </trkpt>
      <trkpt lat="42.3569910" lon="-3.3921170">
        <ele>1121.0</ele>
        <time>2022-06-27T10:49:07Z</time>
      </trkpt>
      <trkpt lat="42.3569590" lon="-3.3922060">
        <ele>1121.0</ele>
        <time>2022-06-27T10:49:08Z</time>
      </trkpt>
      <trkpt lat="42.3569300" lon="-3.3922970">
        <ele>1121.4</ele>
        <time>2022-06-27T10:49:09Z</time>
      </trkpt>
      <trkpt lat="42.3569010" lon="-3.3923890">
        <ele>1121.4</ele>
        <time>2022-06-27T10:49:10Z</time>
      </trkpt>
      <trkpt lat="42.3568730" lon="-3.3924870">
        <ele>1121.6</ele>
        <time>2022-06-27T10:49:11Z</time>
      </trkpt>
      <trkpt lat="42.3568420" lon="-3.3925860">
        <ele>1121.6</ele>
        <time>2022-06-27T10:49:12Z</time>
      </trkpt>
      <trkpt lat="42.3568070" lon="-3.3926880">
        <ele>1122.0</ele>
        <time>2022-06-27T10:49:13Z</time>
      </trkpt>
      <trkpt lat="42.3567730" lon="-3.3927970">
        <ele>1122.2</ele>
        <time>2022-06-27T10:49:14Z</time>
      </trkpt>
      <trkpt lat="42.3567360" lon="-3.3929130">
        <ele>1122.2</ele>
        <time>2022-06-27T10:49:15Z</time>
      </trkpt>
      <trkpt lat="42.3566990" lon="-3.3930370">
        <ele>1122.4</ele>
        <time>2022-06-27T10:49:16Z</time>
      </trkpt>
      <trkpt lat="42.3566580" lon="-3.3931660">
        <ele>1122.4</ele>
        <time>2022-06-27T10:49:17Z</time>
      </trkpt>
      <trkpt lat="42.3566150" lon="-3.3932990">
        <ele>1122.4</ele>
        <time>2022-06-27T10:49:18Z</time>
      </trkpt>
      <trkpt lat="42.3565700" lon="-3.3934390">
        <ele>1122.2</ele>
        <time>2022-06-27T10:49:19Z</time>
      </trkpt>
      <trkpt lat="42.3565240" lon="-3.3935830">
        <ele>1121.2</ele>
        <time>2022-06-27T10:49:20Z</time>
      </trkpt>
      <trkpt lat="42.3564780" lon="-3.3937300">
        <ele>1121.0</ele>
        <time>2022-06-27T10:49:21Z</time>
      </trkpt>
      <trkpt lat="42.3564300" lon="-3.3938800">
        <ele>1120.4</ele>
        <time>2022-06-27T10:49:22Z</time>
      </trkpt>
      <trkpt lat="42.3563690" lon="-3.3940660">
        <ele>1119.4</ele>
        <time>2022-06-27T10:49:23Z</time>
      </trkpt>
      <trkpt lat="42.3563160" lon="-3.3942240">
        <ele>1119.0</ele>
        <time>2022-06-27T10:49:24Z</time>
      </trkpt>
      <trkpt lat="42.3562750" lon="-3.3943520">
        <ele>1118.2</ele>
        <time>2022-06-27T10:49:25Z</time>
      </trkpt>
      <trkpt lat="42.3562230" lon="-3.3945120">
        <ele>1117.8</ele>
        <time>2022-06-27T10:49:26Z</time>
      </trkpt>
      <trkpt lat="42.3561730" lon="-3.3946710">
        <ele>1117.0</ele>
        <time>2022-06-27T10:49:27Z</time>
      </trkpt>
      <trkpt lat="42.3561230" lon="-3.3948310">
        <ele>1116.8</ele>
        <time>2022-06-27T10:49:28Z</time>
      </trkpt>
      <trkpt lat="42.3560620" lon="-3.3950180">
        <ele>1116.6</ele>
        <time>2022-06-27T10:49:29Z</time>
      </trkpt>
      <trkpt lat="42.3560220" lon="-3.3951380">
        <ele>1116.0</ele>
        <time>2022-06-27T10:49:30Z</time>
      </trkpt>
      <trkpt lat="42.3559740" lon="-3.3952900">
        <ele>1115.8</ele>
        <time>2022-06-27T10:49:31Z</time>
      </trkpt>
      <trkpt lat="42.3559250" lon="-3.3954390">
        <ele>1115.4</ele>
        <time>2022-06-27T10:49:32Z</time>
      </trkpt>
      <trkpt lat="42.3558780" lon="-3.3955840">
        <ele>1115.2</ele>
        <time>2022-06-27T10:49:33Z</time>
      </trkpt>
      <trkpt lat="42.3558320" lon="-3.3957230">
        <ele>1115.0</ele>
        <time>2022-06-27T10:49:34Z</time>
      </trkpt>
      <trkpt lat="42.3557780" lon="-3.3958910">
        <ele>1114.8</ele>
        <time>2022-06-27T10:49:35Z</time>
      </trkpt>
      <trkpt lat="42.3557330" lon="-3.3960270">
        <ele>1114.6</ele>
        <time>2022-06-27T10:49:36Z</time>
      </trkpt>
      <trkpt lat="42.3556890" lon="-3.3961630">
        <ele>1114.2</ele>
        <time>2022-06-27T10:49:37Z</time>
      </trkpt>
      <trkpt lat="42.3556470" lon="-3.3962960">
        <ele>1114.0</ele>
        <time>2022-06-27T10:49:38Z</time>
      </trkpt>
      <trkpt lat="42.3556060" lon="-3.3964270">
        <ele>1113.8</ele>
        <time>2022-06-27T10:49:39Z</time>
      </trkpt>
      <trkpt lat="42.3555650" lon="-3.3965580">
        <ele>1113.8</ele>
        <time>2022-06-27T10:49:40Z</time>
      </trkpt>
      <trkpt lat="42.3555230" lon="-3.3966890">
        <ele>1113.6</ele>
        <time>2022-06-27T10:49:41Z</time>
      </trkpt>
      <trkpt lat="42.3554790" lon="-3.3968210">
        <ele>1113.6</ele>
        <time>2022-06-27T10:49:42Z</time>
      </trkpt>
      <trkpt lat="42.3554340" lon="-3.3969550">
        <ele>1113.6</ele>
        <time>2022-06-27T10:49:43Z</time>
      </trkpt>
      <trkpt lat="42.3553890" lon="-3.3970850">
        <ele>1113.6</ele>
        <time>2022-06-27T10:49:44Z</time>
      </trkpt>
      <trkpt lat="42.3553450" lon="-3.3972170">
        <ele>1113.6</ele>
        <time>2022-06-27T10:49:45Z</time>
      </trkpt>
      <trkpt lat="42.3553010" lon="-3.3973480">
        <ele>1113.6</ele>
        <time>2022-06-27T10:49:46Z</time>
      </trkpt>
      <trkpt lat="42.3552600" lon="-3.3974750">
        <ele>1113.6</ele>
        <time>2022-06-27T10:49:47Z</time>
      </trkpt>
      <trkpt lat="42.3552180" lon="-3.3976050">
        <ele>1113.4</ele>
        <time>2022-06-27T10:49:48Z</time>
      </trkpt>
      <trkpt lat="42.3551770" lon="-3.3977350">
        <ele>1113.4</ele>
        <time>2022-06-27T10:49:49Z</time>
      </trkpt>
      <trkpt lat="42.3551360" lon="-3.3978660">
        <ele>1113.6</ele>
        <time>2022-06-27T10:49:50Z</time>
      </trkpt>
      <trkpt lat="42.3550920" lon="-3.3979960">
        <ele>1113.6</ele>
        <time>2022-06-27T10:49:51Z</time>
      </trkpt>
      <trkpt lat="42.3550500" lon="-3.3981290">
        <ele>1113.6</ele>
        <time>2022-06-27T10:49:52Z</time>
      </trkpt>
      <trkpt lat="42.3550070" lon="-3.3982620">
        <ele>1113.6</ele>
        <time>2022-06-27T10:49:53Z</time>
      </trkpt>
      <trkpt lat="42.3549640" lon="-3.3983920">
        <ele>1113.6</ele>
        <time>2022-06-27T10:49:54Z</time>
      </trkpt>
      <trkpt lat="42.3549240" lon="-3.3985240">
        <ele>1113.4</ele>
        <time>2022-06-27T10:49:55Z</time>
      </trkpt>
      <trkpt lat="42.3548800" lon="-3.3986600">
        <ele>1113.2</ele>
        <time>2022-06-27T10:49:56Z</time>
      </trkpt>
      <trkpt lat="42.3548360" lon="-3.3987900">
        <ele>1113.2</ele>
        <time>2022-06-27T10:49:57Z</time>
      </trkpt>
      <trkpt lat="42.3547910" lon="-3.3989260">
        <ele>1113.0</ele>
        <time>2022-06-27T10:49:58Z</time>
      </trkpt>
      <trkpt lat="42.3547480" lon="-3.3990650">
        <ele>1113.0</ele>
        <time>2022-06-27T10:49:59Z</time>
      </trkpt>
      <trkpt lat="42.3547030" lon="-3.3992040">
        <ele>1112.8</ele>
        <time>2022-06-27T10:50:00Z</time>
      </trkpt>
      <trkpt lat="42.3546570" lon="-3.3993430">
        <ele>1112.8</ele>
        <time>2022-06-27T10:50:01Z</time>
      </trkpt>
      <trkpt lat="42.3546110" lon="-3.3994860">
        <ele>1112.4</ele>
        <time>2022-06-27T10:50:02Z</time>
      </trkpt>
      <trkpt lat="42.3545640" lon="-3.3996290">
        <ele>1112.2</ele>
        <time>2022-06-27T10:50:03Z</time>
      </trkpt>
      <trkpt lat="42.3545170" lon="-3.3997710">
        <ele>1112.0</ele>
        <time>2022-06-27T10:50:04Z</time>
      </trkpt>
      <trkpt lat="42.3544700" lon="-3.3999120">
        <ele>1111.8</ele>
        <time>2022-06-27T10:50:05Z</time>
      </trkpt>
      <trkpt lat="42.3544230" lon="-3.4000520">
        <ele>1111.6</ele>
        <time>2022-06-27T10:50:06Z</time>
      </trkpt>
      <trkpt lat="42.3543750" lon="-3.4001950">
        <ele>1111.6</ele>
        <time>2022-06-27T10:50:07Z</time>
      </trkpt>
      <trkpt lat="42.3543280" lon="-3.4003390">
        <ele>1111.6</ele>
        <time>2022-06-27T10:50:08Z</time>
      </trkpt>
      <trkpt lat="42.3542820" lon="-3.4004820">
        <ele>1111.6</ele>
        <time>2022-06-27T10:50:09Z</time>
      </trkpt>
      <trkpt lat="42.3542350" lon="-3.4006260">
        <ele>1111.6</ele>
        <time>2022-06-27T10:50:10Z</time>
      </trkpt>
      <trkpt lat="42.3541900" lon="-3.4007710">
        <ele>1111.2</ele>
        <time>2022-06-27T10:50:11Z</time>
      </trkpt>
      <trkpt lat="42.3541450" lon="-3.4009140">
        <ele>1111.0</ele>
        <time>2022-06-27T10:50:12Z</time>
      </trkpt>
      <trkpt lat="42.3540990" lon="-3.4010590">
        <ele>1110.6</ele>
        <time>2022-06-27T10:50:13Z</time>
      </trkpt>
      <trkpt lat="42.3540530" lon="-3.4012070">
        <ele>1110.2</ele>
        <time>2022-06-27T10:50:14Z</time>
      </trkpt>
      <trkpt lat="42.3540040" lon="-3.4013590">
        <ele>1109.8</ele>
        <time>2022-06-27T10:50:15Z</time>
      </trkpt>
      <trkpt lat="42.3539550" lon="-3.4015120">
        <ele>1109.2</ele>
        <time>2022-06-27T10:50:16Z</time>
      </trkpt>
      <trkpt lat="42.3539040" lon="-3.4016690">
        <ele>1109.0</ele>
        <time>2022-06-27T10:50:17Z</time>
      </trkpt>
      <trkpt lat="42.3538530" lon="-3.4018260">
        <ele>1108.4</ele>
        <time>2022-06-27T10:50:18Z</time>
      </trkpt>
      <trkpt lat="42.3538010" lon="-3.4019830">
        <ele>1108.0</ele>
        <time>2022-06-27T10:50:19Z</time>
      </trkpt>
      <trkpt lat="42.3537490" lon="-3.4021410">
        <ele>1107.6</ele>
        <time>2022-06-27T10:50:20Z</time>
      </trkpt>
      <trkpt lat="42.3536970" lon="-3.4023000">
        <ele>1107.4</ele>
        <time>2022-06-27T10:50:21Z</time>
      </trkpt>
      <trkpt lat="42.3536430" lon="-3.4024600">
        <ele>1107.0</ele>
        <time>2022-06-27T10:50:22Z</time>
      </trkpt>
      <trkpt lat="42.3535900" lon="-3.4026230">
        <ele>1106.6</ele>
        <time>2022-06-27T10:50:23Z</time>
      </trkpt>
      <trkpt lat="42.3535380" lon="-3.4027890">
        <ele>1106.4</ele>
        <time>2022-06-27T10:50:24Z</time>
      </trkpt>
      <trkpt lat="42.3534950" lon="-3.4029220">
        <ele>1105.8</ele>
        <time>2022-06-27T10:50:25Z</time>
      </trkpt>
      <trkpt lat="42.3534300" lon="-3.4031230">
        <ele>1105.6</ele>
        <time>2022-06-27T10:50:26Z</time>
      </trkpt>
      <trkpt lat="42.3533760" lon="-3.4032920">
        <ele>1104.8</ele>
        <time>2022-06-27T10:50:27Z</time>
      </trkpt>
      <trkpt lat="42.3533230" lon="-3.4034610">
        <ele>1104.6</ele>
        <time>2022-06-27T10:50:28Z</time>
      </trkpt>
      <trkpt lat="42.3532800" lon="-3.4035960">
        <ele>1103.6</ele>
        <time>2022-06-27T10:50:29Z</time>
      </trkpt>
      <trkpt lat="42.3532120" lon="-3.4037990">
        <ele>1102.8</ele>
        <time>2022-06-27T10:50:30Z</time>
      </trkpt>
      <trkpt lat="42.3531510" lon="-3.4039690">
        <ele>1102.0</ele>
        <time>2022-06-27T10:50:31Z</time>
      </trkpt>
      <trkpt lat="42.3530880" lon="-3.4041360">
        <ele>1101.0</ele>
        <time>2022-06-27T10:50:32Z</time>
      </trkpt>
      <trkpt lat="42.3530230" lon="-3.4043020">
        <ele>1100.8</ele>
        <time>2022-06-27T10:50:33Z</time>
      </trkpt>
      <trkpt lat="42.3529550" lon="-3.4044700">
        <ele>1100.4</ele>
        <time>2022-06-27T10:50:34Z</time>
      </trkpt>
      <trkpt lat="42.3528880" lon="-3.4046410">
        <ele>1100.2</ele>
        <time>2022-06-27T10:50:35Z</time>
      </trkpt>
      <trkpt lat="42.3528220" lon="-3.4048120">
        <ele>1099.6</ele>
        <time>2022-06-27T10:50:36Z</time>
      </trkpt>
      <trkpt lat="42.3527540" lon="-3.4049860">
        <ele>1099.2</ele>
        <time>2022-06-27T10:50:37Z</time>
      </trkpt>
      <trkpt lat="42.3526840" lon="-3.4051620">
        <ele>1098.0</ele>
        <time>2022-06-27T10:50:38Z</time>
      </trkpt>
      <trkpt lat="42.3526110" lon="-3.4053350">
        <ele>1096.4</ele>
        <time>2022-06-27T10:50:39Z</time>
      </trkpt>
      <trkpt lat="42.3525400" lon="-3.4055070">
        <ele>1095.8</ele>
        <time>2022-06-27T10:50:40Z</time>
      </trkpt>
      <trkpt lat="42.3524710" lon="-3.4056820">
        <ele>1094.4</ele>
        <time>2022-06-27T10:50:41Z</time>
      </trkpt>
      <trkpt lat="42.3524010" lon="-3.4058570">
        <ele>1094.0</ele>
        <time>2022-06-27T10:50:42Z</time>
      </trkpt>
      <trkpt lat="42.3523450" lon="-3.4059990">
        <ele>1093.4</ele>
        <time>2022-06-27T10:50:43Z</time>
      </trkpt>
      <trkpt lat="42.3522590" lon="-3.4062150">
        <ele>1093.0</ele>
        <time>2022-06-27T10:50:44Z</time>
      </trkpt>
      <trkpt lat="42.3521860" lon="-3.4063960">
        <ele>1092.6</ele>
        <time>2022-06-27T10:50:45Z</time>
      </trkpt>
      <trkpt lat="42.3521130" lon="-3.4065750">
        <ele>1092.0</ele>
        <time>2022-06-27T10:50:46Z</time>
      </trkpt>
      <trkpt lat="42.3520380" lon="-3.4067590">
        <ele>1091.6</ele>
        <time>2022-06-27T10:50:47Z</time>
      </trkpt>
      <trkpt lat="42.3519640" lon="-3.4069470">
        <ele>1090.8</ele>
        <time>2022-06-27T10:50:48Z</time>
      </trkpt>
      <trkpt lat="42.3518890" lon="-3.4071370">
        <ele>1090.4</ele>
        <time>2022-06-27T10:50:49Z</time>
      </trkpt>
      <trkpt lat="42.3518150" lon="-3.4073250">
        <ele>1089.6</ele>
        <time>2022-06-27T10:50:50Z</time>
      </trkpt>
      <trkpt lat="42.3517400" lon="-3.4075120">
        <ele>1089.2</ele>
        <time>2022-06-27T10:50:51Z</time>
      </trkpt>
      <trkpt lat="42.3516640" lon="-3.4076980">
        <ele>1088.6</ele>
        <time>2022-06-27T10:50:52Z</time>
      </trkpt>
      <trkpt lat="42.3515890" lon="-3.4078850">
        <ele>1087.2</ele>
        <time>2022-06-27T10:50:53Z</time>
      </trkpt>
      <trkpt lat="42.3515160" lon="-3.4080740">
        <ele>1086.6</ele>
        <time>2022-06-27T10:50:54Z</time>
      </trkpt>
      <trkpt lat="42.3514440" lon="-3.4082640">
        <ele>1085.8</ele>
        <time>2022-06-27T10:50:55Z</time>
      </trkpt>
      <trkpt lat="42.3513720" lon="-3.4084500">
        <ele>1085.4</ele>
        <time>2022-06-27T10:50:56Z</time>
      </trkpt>
      <trkpt lat="42.3512980" lon="-3.4086370">
        <ele>1084.6</ele>
        <time>2022-06-27T10:50:57Z</time>
      </trkpt>
      <trkpt lat="42.3512270" lon="-3.4088290">
        <ele>1084.2</ele>
        <time>2022-06-27T10:50:58Z</time>
      </trkpt>
      <trkpt lat="42.3511610" lon="-3.4090230">
        <ele>1083.6</ele>
        <time>2022-06-27T10:50:59Z</time>
      </trkpt>
      <trkpt lat="42.3511030" lon="-3.4092210">
        <ele>1082.8</ele>
        <time>2022-06-27T10:51:00Z</time>
      </trkpt>
      <trkpt lat="42.3510560" lon="-3.4094190">
        <ele>1082.4</ele>
        <time>2022-06-27T10:51:01Z</time>
      </trkpt>
      <trkpt lat="42.3510160" lon="-3.4096180">
        <ele>1081.8</ele>
        <time>2022-06-27T10:51:02Z</time>
      </trkpt>
      <trkpt lat="42.3509840" lon="-3.4098150">
        <ele>1081.2</ele>
        <time>2022-06-27T10:51:03Z</time>
      </trkpt>
      <trkpt lat="42.3509580" lon="-3.4100100">
        <ele>1080.2</ele>
        <time>2022-06-27T10:51:04Z</time>
      </trkpt>
      <trkpt lat="42.3509360" lon="-3.4102020">
        <ele>1079.8</ele>
        <time>2022-06-27T10:51:05Z</time>
      </trkpt>
      <trkpt lat="42.3509210" lon="-3.4103910">
        <ele>1079.2</ele>
        <time>2022-06-27T10:51:06Z</time>
      </trkpt>
      <trkpt lat="42.3509120" lon="-3.4105810">
        <ele>1079.0</ele>
        <time>2022-06-27T10:51:07Z</time>
      </trkpt>
      <trkpt lat="42.3509080" lon="-3.4107670">
        <ele>1078.8</ele>
        <time>2022-06-27T10:51:08Z</time>
      </trkpt>
      <trkpt lat="42.3509060" lon="-3.4109480">
        <ele>1078.6</ele>
        <time>2022-06-27T10:51:09Z</time>
      </trkpt>
      <trkpt lat="42.3509060" lon="-3.4111230">
        <ele>1078.4</ele>
        <time>2022-06-27T10:51:10Z</time>
      </trkpt>
      <trkpt lat="42.3509050" lon="-3.4112930">
        <ele>1078.6</ele>
        <time>2022-06-27T10:51:11Z</time>
      </trkpt>
      <trkpt lat="42.3509060" lon="-3.4114570">
        <ele>1078.6</ele>
        <time>2022-06-27T10:51:12Z</time>
      </trkpt>
      <trkpt lat="42.3509070" lon="-3.4116180">
        <ele>1078.8</ele>
        <time>2022-06-27T10:51:13Z</time>
      </trkpt>
      <trkpt lat="42.3509070" lon="-3.4117780">
        <ele>1078.8</ele>
        <time>2022-06-27T10:51:14Z</time>
      </trkpt>
      <trkpt lat="42.3509070" lon="-3.4119310">
        <ele>1078.8</ele>
        <time>2022-06-27T10:51:15Z</time>
      </trkpt>
      <trkpt lat="42.3509050" lon="-3.4120830">
        <ele>1078.8</ele>
        <time>2022-06-27T10:51:16Z</time>
      </trkpt>
      <trkpt lat="42.3509050" lon="-3.4122310">
        <ele>1078.8</ele>
        <time>2022-06-27T10:51:17Z</time>
      </trkpt>
      <trkpt lat="42.3509070" lon="-3.4123770">
        <ele>1078.8</ele>
        <time>2022-06-27T10:51:18Z</time>
      </trkpt>
      <trkpt lat="42.3509080" lon="-3.4125210">
        <ele>1079.0</ele>
        <time>2022-06-27T10:51:19Z</time>
      </trkpt>
      <trkpt lat="42.3509060" lon="-3.4126630">
        <ele>1079.0</ele>
        <time>2022-06-27T10:51:20Z</time>
      </trkpt>
      <trkpt lat="42.3509050" lon="-3.4128030">
        <ele>1079.0</ele>
        <time>2022-06-27T10:51:21Z</time>
      </trkpt>
      <trkpt lat="42.3509030" lon="-3.4129400">
        <ele>1079.2</ele>
        <time>2022-06-27T10:51:22Z</time>
      </trkpt>
      <trkpt lat="42.3509030" lon="-3.4130730">
        <ele>1079.2</ele>
        <time>2022-06-27T10:51:23Z</time>
      </trkpt>
      <trkpt lat="42.3509030" lon="-3.4132060">
        <ele>1079.4</ele>
        <time>2022-06-27T10:51:24Z</time>
      </trkpt>
      <trkpt lat="42.3509020" lon="-3.4133400">
        <ele>1079.6</ele>
        <time>2022-06-27T10:51:25Z</time>
      </trkpt>
      <trkpt lat="42.3509010" lon="-3.4134720">
        <ele>1079.8</ele>
        <time>2022-06-27T10:51:26Z</time>
      </trkpt>
      <trkpt lat="42.3509020" lon="-3.4135760">
        <ele>1080.2</ele>
        <time>2022-06-27T10:51:27Z</time>
      </trkpt>
      <trkpt lat="42.3509020" lon="-3.4137330">
        <ele>1080.4</ele>
        <time>2022-06-27T10:51:28Z</time>
      </trkpt>
      <trkpt lat="42.3509030" lon="-3.4138570">
        <ele>1080.8</ele>
        <time>2022-06-27T10:51:29Z</time>
      </trkpt>
      <trkpt lat="42.3509030" lon="-3.4139820">
        <ele>1081.2</ele>
        <time>2022-06-27T10:51:30Z</time>
      </trkpt>
      <trkpt lat="42.3509040" lon="-3.4141060">
        <ele>1081.6</ele>
        <time>2022-06-27T10:51:31Z</time>
      </trkpt>
      <trkpt lat="42.3509030" lon="-3.4142310">
        <ele>1082.0</ele>
        <time>2022-06-27T10:51:32Z</time>
      </trkpt>
      <trkpt lat="42.3509010" lon="-3.4143550">
        <ele>1082.2</ele>
        <time>2022-06-27T10:51:33Z</time>
      </trkpt>
      <trkpt lat="42.3509020" lon="-3.4144740">
        <ele>1082.6</ele>
        <time>2022-06-27T10:51:34Z</time>
      </trkpt>
      <trkpt lat="42.3509010" lon="-3.4145920">
        <ele>1082.6</ele>
        <time>2022-06-27T10:51:35Z</time>
      </trkpt>
      <trkpt lat="42.3509010" lon="-3.4147080">
        <ele>1083.0</ele>
        <time>2022-06-27T10:51:36Z</time>
      </trkpt>
      <trkpt lat="42.3509000" lon="-3.4148240">
        <ele>1083.2</ele>
        <time>2022-06-27T10:51:37Z</time>
      </trkpt>
      <trkpt lat="42.3509000" lon="-3.4149390">
        <ele>1083.4</ele>
        <time>2022-06-27T10:51:38Z</time>
      </trkpt>
      <trkpt lat="42.3509000" lon="-3.4150530">
        <ele>1083.4</ele>
        <time>2022-06-27T10:51:39Z</time>
      </trkpt>
      <trkpt lat="42.3509010" lon="-3.4151670">
        <ele>1083.6</ele>
        <time>2022-06-27T10:51:40Z</time>
      </trkpt>
      <trkpt lat="42.3509010" lon="-3.4152820">
        <ele>1084.0</ele>
        <time>2022-06-27T10:51:41Z</time>
      </trkpt>
      <trkpt lat="42.3509000" lon="-3.4153960">
        <ele>1084.0</ele>
        <time>2022-06-27T10:51:42Z</time>
      </trkpt>
      <trkpt lat="42.3509010" lon="-3.4155100">
        <ele>1084.4</ele>
        <time>2022-06-27T10:51:43Z</time>
      </trkpt>
      <trkpt lat="42.3509010" lon="-3.4156250">
        <ele>1084.4</ele>
        <time>2022-06-27T10:51:44Z</time>
      </trkpt>
      <trkpt lat="42.3509010" lon="-3.4157420">
        <ele>1084.4</ele>
        <time>2022-06-27T10:51:45Z</time>
      </trkpt>
      <trkpt lat="42.3509000" lon="-3.4158600">
        <ele>1084.6</ele>
        <time>2022-06-27T10:51:46Z</time>
      </trkpt>
      <trkpt lat="42.3508990" lon="-3.4159770">
        <ele>1084.8</ele>
        <time>2022-06-27T10:51:47Z</time>
      </trkpt>
      <trkpt lat="42.3508980" lon="-3.4160950">
        <ele>1085.2</ele>
        <time>2022-06-27T10:51:48Z</time>
      </trkpt>
      <trkpt lat="42.3508970" lon="-3.4162150">
        <ele>1085.4</ele>
        <time>2022-06-27T10:51:49Z</time>
      </trkpt>
      <trkpt lat="42.3508960" lon="-3.4163330">
        <ele>1085.4</ele>
        <time>2022-06-27T10:51:50Z</time>
      </trkpt>
      <trkpt lat="42.3508950" lon="-3.4164530">
        <ele>1085.6</ele>
        <time>2022-06-27T10:51:51Z</time>
      </trkpt>
      <trkpt lat="42.3508950" lon="-3.4165730">
        <ele>1085.6</ele>
        <time>2022-06-27T10:51:52Z</time>
      </trkpt>
      <trkpt lat="42.3508940" lon="-3.4166930">
        <ele>1085.6</ele>
        <time>2022-06-27T10:51:53Z</time>
      </trkpt>
      <trkpt lat="42.3508930" lon="-3.4168140">
        <ele>1085.6</ele>
        <time>2022-06-27T10:51:54Z</time>
      </trkpt>
      <trkpt lat="42.3508930" lon="-3.4169340">
        <ele>1085.6</ele>
        <time>2022-06-27T10:51:55Z</time>
      </trkpt>
      <trkpt lat="42.3508920" lon="-3.4170560">
        <ele>1085.6</ele>
        <time>2022-06-27T10:51:56Z</time>
      </trkpt>
      <trkpt lat="42.3508920" lon="-3.4171760">
        <ele>1085.6</ele>
        <time>2022-06-27T10:51:57Z</time>
      </trkpt>
      <trkpt lat="42.3508920" lon="-3.4172970">
        <ele>1085.6</ele>
        <time>2022-06-27T10:51:58Z</time>
      </trkpt>
      <trkpt lat="42.3508920" lon="-3.4174210">
        <ele>1085.6</ele>
        <time>2022-06-27T10:51:59Z</time>
      </trkpt>
      <trkpt lat="42.3508910" lon="-3.4175440">
        <ele>1085.6</ele>
        <time>2022-06-27T10:52:00Z</time>
      </trkpt>
      <trkpt lat="42.3508900" lon="-3.4176730">
        <ele>1085.6</ele>
        <time>2022-06-27T10:52:01Z</time>
      </trkpt>
      <trkpt lat="42.3508890" lon="-3.4178010">
        <ele>1085.6</ele>
        <time>2022-06-27T10:52:02Z</time>
      </trkpt>
      <trkpt lat="42.3508900" lon="-3.4179300">
        <ele>1085.6</ele>
        <time>2022-06-27T10:52:03Z</time>
      </trkpt>
      <trkpt lat="42.3508910" lon="-3.4180600">
        <ele>1085.6</ele>
        <time>2022-06-27T10:52:04Z</time>
      </trkpt>
      <trkpt lat="42.3508910" lon="-3.4181920">
        <ele>1085.6</ele>
        <time>2022-06-27T10:52:05Z</time>
      </trkpt>
      <trkpt lat="42.3508910" lon="-3.4183270">
        <ele>1085.4</ele>
        <time>2022-06-27T10:52:06Z</time>
      </trkpt>
      <trkpt lat="42.3508920" lon="-3.4184640">
        <ele>1085.4</ele>
        <time>2022-06-27T10:52:07Z</time>
      </trkpt>
      <trkpt lat="42.3508930" lon="-3.4186040">
        <ele>1085.2</ele>
        <time>2022-06-27T10:52:08Z</time>
      </trkpt>
      <trkpt lat="42.3508940" lon="-3.4187460">
        <ele>1085.0</ele>
        <time>2022-06-27T10:52:09Z</time>
      </trkpt>
      <trkpt lat="42.3508950" lon="-3.4188910">
        <ele>1084.8</ele>
        <time>2022-06-27T10:52:10Z</time>
      </trkpt>
      <trkpt lat="42.3508970" lon="-3.4190350">
        <ele>1084.4</ele>
        <time>2022-06-27T10:52:11Z</time>
      </trkpt>
      <trkpt lat="42.3508970" lon="-3.4191810">
        <ele>1084.2</ele>
        <time>2022-06-27T10:52:12Z</time>
      </trkpt>
      <trkpt lat="42.3508970" lon="-3.4193310">
        <ele>1083.8</ele>
        <time>2022-06-27T10:52:13Z</time>
      </trkpt>
      <trkpt lat="42.3508980" lon="-3.4194840">
        <ele>1083.6</ele>
        <time>2022-06-27T10:52:14Z</time>
      </trkpt>
      <trkpt lat="42.3508980" lon="-3.4196400">
        <ele>1083.2</ele>
        <time>2022-06-27T10:52:15Z</time>
      </trkpt>
      <trkpt lat="42.3508970" lon="-3.4198000">
        <ele>1082.8</ele>
        <time>2022-06-27T10:52:16Z</time>
      </trkpt>
      <trkpt lat="42.3508970" lon="-3.4199630">
        <ele>1082.8</ele>
        <time>2022-06-27T10:52:17Z</time>
      </trkpt>
      <trkpt lat="42.3508960" lon="-3.4201290">
        <ele>1082.4</ele>
        <time>2022-06-27T10:52:18Z</time>
      </trkpt>
      <trkpt lat="42.3508960" lon="-3.4203020">
        <ele>1082.2</ele>
        <time>2022-06-27T10:52:19Z</time>
      </trkpt>
      <trkpt lat="42.3508970" lon="-3.4204760">
        <ele>1081.6</ele>
        <time>2022-06-27T10:52:20Z</time>
      </trkpt>
      <trkpt lat="42.3508970" lon="-3.4206530">
        <ele>1081.2</ele>
        <time>2022-06-27T10:52:21Z</time>
      </trkpt>
      <trkpt lat="42.3508960" lon="-3.4208330">
        <ele>1080.8</ele>
        <time>2022-06-27T10:52:22Z</time>
      </trkpt>
      <trkpt lat="42.3508950" lon="-3.4210150">
        <ele>1079.8</ele>
        <time>2022-06-27T10:52:23Z</time>
      </trkpt>
      <trkpt lat="42.3508960" lon="-3.4211990">
        <ele>1078.8</ele>
        <time>2022-06-27T10:52:24Z</time>
      </trkpt>
      <trkpt lat="42.3508980" lon="-3.4213860">
        <ele>1077.8</ele>
        <time>2022-06-27T10:52:25Z</time>
      </trkpt>
      <trkpt lat="42.3508980" lon="-3.4215760">
        <ele>1077.6</ele>
        <time>2022-06-27T10:52:26Z</time>
      </trkpt>
      <trkpt lat="42.3508960" lon="-3.4217650">
        <ele>1076.8</ele>
        <time>2022-06-27T10:52:27Z</time>
      </trkpt>
      <trkpt lat="42.3508950" lon="-3.4219550">
        <ele>1076.2</ele>
        <time>2022-06-27T10:52:28Z</time>
      </trkpt>
      <trkpt lat="42.3508950" lon="-3.4221440">
        <ele>1075.8</ele>
        <time>2022-06-27T10:52:29Z</time>
      </trkpt>
      <trkpt lat="42.3508950" lon="-3.4223300">
        <ele>1075.2</ele>
        <time>2022-06-27T10:52:30Z</time>
      </trkpt>
      <trkpt lat="42.3508950" lon="-3.4225160">
        <ele>1074.2</ele>
        <time>2022-06-27T10:52:31Z</time>
      </trkpt>
      <trkpt lat="42.3508950" lon="-3.4227010">
        <ele>1073.4</ele>
        <time>2022-06-27T10:52:32Z</time>
      </trkpt>
      <trkpt lat="42.3508950" lon="-3.4228860">
        <ele>1073.2</ele>
        <time>2022-06-27T10:52:33Z</time>
      </trkpt>
      <trkpt lat="42.3508930" lon="-3.4230690">
        <ele>1072.6</ele>
        <time>2022-06-27T10:52:34Z</time>
      </trkpt>
      <trkpt lat="42.3508910" lon="-3.4232500">
        <ele>1072.4</ele>
        <time>2022-06-27T10:52:35Z</time>
      </trkpt>
      <trkpt lat="42.3508890" lon="-3.4234290">
        <ele>1071.8</ele>
        <time>2022-06-27T10:52:36Z</time>
      </trkpt>
      <trkpt lat="42.3508880" lon="-3.4236090">
        <ele>1071.8</ele>
        <time>2022-06-27T10:52:37Z</time>
      </trkpt>
      <trkpt lat="42.3508890" lon="-3.4237870">
        <ele>1071.4</ele>
        <time>2022-06-27T10:52:38Z</time>
      </trkpt>
      <trkpt lat="42.3508880" lon="-3.4239650">
        <ele>1070.8</ele>
        <time>2022-06-27T10:52:39Z</time>
      </trkpt>
      <trkpt lat="42.3508890" lon="-3.4241440">
        <ele>1070.2</ele>
        <time>2022-06-27T10:52:40Z</time>
      </trkpt>
      <trkpt lat="42.3508880" lon="-3.4243220">
        <ele>1069.4</ele>
        <time>2022-06-27T10:52:41Z</time>
      </trkpt>
      <trkpt lat="42.3508870" lon="-3.4244980">
        <ele>1069.2</ele>
        <time>2022-06-27T10:52:42Z</time>
      </trkpt>
      <trkpt lat="42.3508870" lon="-3.4246720">
        <ele>1069.0</ele>
        <time>2022-06-27T10:52:43Z</time>
      </trkpt>
      <trkpt lat="42.3508870" lon="-3.4248420">
        <ele>1068.8</ele>
        <time>2022-06-27T10:52:44Z</time>
      </trkpt>
      <trkpt lat="42.3508880" lon="-3.4250100">
        <ele>1068.6</ele>
        <time>2022-06-27T10:52:45Z</time>
      </trkpt>
      <trkpt lat="42.3508870" lon="-3.4251760">
        <ele>1068.2</ele>
        <time>2022-06-27T10:52:46Z</time>
      </trkpt>
      <trkpt lat="42.3508880" lon="-3.4253350">
        <ele>1068.2</ele>
        <time>2022-06-27T10:52:47Z</time>
      </trkpt>
      <trkpt lat="42.3508880" lon="-3.4254930">
        <ele>1067.6</ele>
        <time>2022-06-27T10:52:48Z</time>
      </trkpt>
      <trkpt lat="42.3508890" lon="-3.4256520">
        <ele>1067.2</ele>
        <time>2022-06-27T10:52:49Z</time>
      </trkpt>
      <trkpt lat="42.3508870" lon="-3.4258100">
        <ele>1066.8</ele>
        <time>2022-06-27T10:52:50Z</time>
      </trkpt>
      <trkpt lat="42.3508860" lon="-3.4259680">
        <ele>1066.6</ele>
        <time>2022-06-27T10:52:51Z</time>
      </trkpt>
      <trkpt lat="42.3508860" lon="-3.4261240">
        <ele>1066.4</ele>
        <time>2022-06-27T10:52:52Z</time>
      </trkpt>
      <trkpt lat="42.3508850" lon="-3.4262790">
        <ele>1066.4</ele>
        <time>2022-06-27T10:52:53Z</time>
      </trkpt>
      <trkpt lat="42.3508830" lon="-3.4264350">
        <ele>1066.2</ele>
        <time>2022-06-27T10:52:54Z</time>
      </trkpt>
      <trkpt lat="42.3508830" lon="-3.4265900">
        <ele>1066.2</ele>
        <time>2022-06-27T10:52:55Z</time>
      </trkpt>
      <trkpt lat="42.3508810" lon="-3.4267430">
        <ele>1066.2</ele>
        <time>2022-06-27T10:52:56Z</time>
      </trkpt>
      <trkpt lat="42.3508800" lon="-3.4268640">
        <ele>1066.2</ele>
        <time>2022-06-27T10:52:57Z</time>
      </trkpt>
      <trkpt lat="42.3508800" lon="-3.4270430">
        <ele>1066.2</ele>
        <time>2022-06-27T10:52:58Z</time>
      </trkpt>
      <trkpt lat="42.3508830" lon="-3.4271910">
        <ele>1066.2</ele>
        <time>2022-06-27T10:52:59Z</time>
      </trkpt>
      <trkpt lat="42.3508870" lon="-3.4273390">
        <ele>1066.2</ele>
        <time>2022-06-27T10:53:00Z</time>
      </trkpt>
      <trkpt lat="42.3508930" lon="-3.4274840">
        <ele>1066.0</ele>
        <time>2022-06-27T10:53:01Z</time>
      </trkpt>
      <trkpt lat="42.3508970" lon="-3.4276270">
        <ele>1066.0</ele>
        <time>2022-06-27T10:53:02Z</time>
      </trkpt>
      <trkpt lat="42.3508980" lon="-3.4277700">
        <ele>1066.0</ele>
        <time>2022-06-27T10:53:03Z</time>
      </trkpt>
      <trkpt lat="42.3508990" lon="-3.4279120">
        <ele>1066.0</ele>
        <time>2022-06-27T10:53:04Z</time>
      </trkpt>
      <trkpt lat="42.3508990" lon="-3.4280520">
        <ele>1066.0</ele>
        <time>2022-06-27T10:53:05Z</time>
      </trkpt>
      <trkpt lat="42.3509000" lon="-3.4281920">
        <ele>1065.8</ele>
        <time>2022-06-27T10:53:06Z</time>
      </trkpt>
      <trkpt lat="42.3509000" lon="-3.4283330">
        <ele>1066.0</ele>
        <time>2022-06-27T10:53:07Z</time>
      </trkpt>
      <trkpt lat="42.3509000" lon="-3.4284720">
        <ele>1065.8</ele>
        <time>2022-06-27T10:53:08Z</time>
      </trkpt>
      <trkpt lat="42.3508990" lon="-3.4286110">
        <ele>1065.6</ele>
        <time>2022-06-27T10:53:09Z</time>
      </trkpt>
      <trkpt lat="42.3508990" lon="-3.4287480">
        <ele>1065.6</ele>
        <time>2022-06-27T10:53:10Z</time>
      </trkpt>
      <trkpt lat="42.3509000" lon="-3.4288860">
        <ele>1065.4</ele>
        <time>2022-06-27T10:53:11Z</time>
      </trkpt>
      <trkpt lat="42.3509010" lon="-3.4290210">
        <ele>1065.4</ele>
        <time>2022-06-27T10:53:12Z</time>
      </trkpt>
      <trkpt lat="42.3509020" lon="-3.4291570">
        <ele>1065.4</ele>
        <time>2022-06-27T10:53:13Z</time>
      </trkpt>
      <trkpt lat="42.3509030" lon="-3.4292910">
        <ele>1065.4</ele>
        <time>2022-06-27T10:53:14Z</time>
      </trkpt>
      <trkpt lat="42.3509030" lon="-3.4294270">
        <ele>1065.4</ele>
        <time>2022-06-27T10:53:15Z</time>
      </trkpt>
      <trkpt lat="42.3509030" lon="-3.4295630">
        <ele>1065.4</ele>
        <time>2022-06-27T10:53:16Z</time>
      </trkpt>
      <trkpt lat="42.3509030" lon="-3.4297000">
        <ele>1065.4</ele>
        <time>2022-06-27T10:53:17Z</time>
      </trkpt>
      <trkpt lat="42.3509020" lon="-3.4298370">
        <ele>1065.4</ele>
        <time>2022-06-27T10:53:18Z</time>
      </trkpt>
      <trkpt lat="42.3509000" lon="-3.4299740">
        <ele>1065.4</ele>
        <time>2022-06-27T10:53:19Z</time>
      </trkpt>
      <trkpt lat="42.3509000" lon="-3.4301130">
        <ele>1065.2</ele>
        <time>2022-06-27T10:53:20Z</time>
      </trkpt>
      <trkpt lat="42.3509010" lon="-3.4302530">
        <ele>1065.2</ele>
        <time>2022-06-27T10:53:21Z</time>
      </trkpt>
      <trkpt lat="42.3509010" lon="-3.4303940">
        <ele>1065.2</ele>
        <time>2022-06-27T10:53:22Z</time>
      </trkpt>
      <trkpt lat="42.3509020" lon="-3.4305360">
        <ele>1065.2</ele>
        <time>2022-06-27T10:53:23Z</time>
      </trkpt>
      <trkpt lat="42.3509000" lon="-3.4306800">
        <ele>1065.2</ele>
        <time>2022-06-27T10:53:24Z</time>
      </trkpt>
      <trkpt lat="42.3509000" lon="-3.4308230">
        <ele>1065.2</ele>
        <time>2022-06-27T10:53:25Z</time>
      </trkpt>
      <trkpt lat="42.3509000" lon="-3.4309650">
        <ele>1065.2</ele>
        <time>2022-06-27T10:53:26Z</time>
      </trkpt>
      <trkpt lat="42.3509000" lon="-3.4311080">
        <ele>1065.2</ele>
        <time>2022-06-27T10:53:27Z</time>
      </trkpt>
      <trkpt lat="42.3508990" lon="-3.4312500">
        <ele>1065.2</ele>
        <time>2022-06-27T10:53:28Z</time>
      </trkpt>
      <trkpt lat="42.3508970" lon="-3.4313940">
        <ele>1065.0</ele>
        <time>2022-06-27T10:53:29Z</time>
      </trkpt>
      <trkpt lat="42.3508970" lon="-3.4315360">
        <ele>1065.0</ele>
        <time>2022-06-27T10:53:30Z</time>
      </trkpt>
      <trkpt lat="42.3508970" lon="-3.4316790">
        <ele>1064.8</ele>
        <time>2022-06-27T10:53:31Z</time>
      </trkpt>
      <trkpt lat="42.3508970" lon="-3.4318240">
        <ele>1064.6</ele>
        <time>2022-06-27T10:53:32Z</time>
      </trkpt>
      <trkpt lat="42.3508980" lon="-3.4319680">
        <ele>1064.6</ele>
        <time>2022-06-27T10:53:33Z</time>
      </trkpt>
      <trkpt lat="42.3508980" lon="-3.4321140">
        <ele>1064.6</ele>
        <time>2022-06-27T10:53:34Z</time>
      </trkpt>
      <trkpt lat="42.3508980" lon="-3.4322620">
        <ele>1064.4</ele>
        <time>2022-06-27T10:53:35Z</time>
      </trkpt>
      <trkpt lat="42.3509000" lon="-3.4324110">
        <ele>1064.4</ele>
        <time>2022-06-27T10:53:36Z</time>
      </trkpt>
      <trkpt lat="42.3509000" lon="-3.4325610">
        <ele>1064.0</ele>
        <time>2022-06-27T10:53:37Z</time>
      </trkpt>
      <trkpt lat="42.3509000" lon="-3.4327090">
        <ele>1063.6</ele>
        <time>2022-06-27T10:53:38Z</time>
      </trkpt>
      <trkpt lat="42.3509000" lon="-3.4328590">
        <ele>1063.4</ele>
        <time>2022-06-27T10:53:39Z</time>
      </trkpt>
      <trkpt lat="42.3508990" lon="-3.4330100">
        <ele>1063.0</ele>
        <time>2022-06-27T10:53:40Z</time>
      </trkpt>
      <trkpt lat="42.3508980" lon="-3.4331590">
        <ele>1062.6</ele>
        <time>2022-06-27T10:53:41Z</time>
      </trkpt>
      <trkpt lat="42.3508980" lon="-3.4333080">
        <ele>1062.4</ele>
        <time>2022-06-27T10:53:42Z</time>
      </trkpt>
      <trkpt lat="42.3508970" lon="-3.4334580">
        <ele>1062.0</ele>
        <time>2022-06-27T10:53:43Z</time>
      </trkpt>
      <trkpt lat="42.3508950" lon="-3.4335780">
        <ele>1062.0</ele>
        <time>2022-06-27T10:53:44Z</time>
      </trkpt>
      <trkpt lat="42.3508910" lon="-3.4337590">
        <ele>1061.8</ele>
        <time>2022-06-27T10:53:45Z</time>
      </trkpt>
      <trkpt lat="42.3508840" lon="-3.4339090">
        <ele>1061.6</ele>
        <time>2022-06-27T10:53:46Z</time>
      </trkpt>
      <trkpt lat="42.3508740" lon="-3.4340600">
        <ele>1061.4</ele>
        <time>2022-06-27T10:53:47Z</time>
      </trkpt>
      <trkpt lat="42.3508600" lon="-3.4342130">
        <ele>1061.0</ele>
        <time>2022-06-27T10:53:48Z</time>
      </trkpt>
      <trkpt lat="42.3508440" lon="-3.4343340">
        <ele>1060.8</ele>
        <time>2022-06-27T10:53:49Z</time>
      </trkpt>
      <trkpt lat="42.3508150" lon="-3.4345140">
        <ele>1060.6</ele>
        <time>2022-06-27T10:53:50Z</time>
      </trkpt>
      <trkpt lat="42.3507830" lon="-3.4346620">
        <ele>1060.4</ele>
        <time>2022-06-27T10:53:51Z</time>
      </trkpt>
      <trkpt lat="42.3507450" lon="-3.4348070">
        <ele>1059.8</ele>
        <time>2022-06-27T10:53:52Z</time>
      </trkpt>
      <trkpt lat="42.3507100" lon="-3.4349200">
        <ele>1059.8</ele>
        <time>2022-06-27T10:53:53Z</time>
      </trkpt>
      <trkpt lat="42.3506620" lon="-3.4350600">
        <ele>1059.4</ele>
        <time>2022-06-27T10:53:54Z</time>
      </trkpt>
      <trkpt lat="42.3506000" lon="-3.4352240">
        <ele>1059.2</ele>
        <time>2022-06-27T10:53:55Z</time>
      </trkpt>
      <trkpt lat="42.3505440" lon="-3.4353560">
        <ele>1059.0</ele>
        <time>2022-06-27T10:53:56Z</time>
      </trkpt>
      <trkpt lat="42.3504960" lon="-3.4354600">
        <ele>1059.0</ele>
        <time>2022-06-27T10:53:57Z</time>
      </trkpt>
      <trkpt lat="42.3504340" lon="-3.4355870">
        <ele>1058.8</ele>
        <time>2022-06-27T10:53:58Z</time>
      </trkpt>
      <trkpt lat="42.3503700" lon="-3.4357110">
        <ele>1058.6</ele>
        <time>2022-06-27T10:53:59Z</time>
      </trkpt>
      <trkpt lat="42.3503050" lon="-3.4358360">
        <ele>1058.4</ele>
        <time>2022-06-27T10:54:00Z</time>
      </trkpt>
      <trkpt lat="42.3502390" lon="-3.4359600">
        <ele>1058.2</ele>
        <time>2022-06-27T10:54:01Z</time>
      </trkpt>
      <trkpt lat="42.3501710" lon="-3.4360840">
        <ele>1058.2</ele>
        <time>2022-06-27T10:54:02Z</time>
      </trkpt>
      <trkpt lat="42.3501040" lon="-3.4362060">
        <ele>1058.2</ele>
        <time>2022-06-27T10:54:03Z</time>
      </trkpt>
      <trkpt lat="42.3500390" lon="-3.4363290">
        <ele>1058.0</ele>
        <time>2022-06-27T10:54:04Z</time>
      </trkpt>
      <trkpt lat="42.3499600" lon="-3.4364800">
        <ele>1058.0</ele>
        <time>2022-06-27T10:54:05Z</time>
      </trkpt>
      <trkpt lat="42.3498960" lon="-3.4366070">
        <ele>1058.0</ele>
        <time>2022-06-27T10:54:06Z</time>
      </trkpt>
      <trkpt lat="42.3498340" lon="-3.4367350">
        <ele>1058.0</ele>
        <time>2022-06-27T10:54:07Z</time>
      </trkpt>
      <trkpt lat="42.3497780" lon="-3.4368660">
        <ele>1058.0</ele>
        <time>2022-06-27T10:54:08Z</time>
      </trkpt>
      <trkpt lat="42.3497260" lon="-3.4370000">
        <ele>1058.0</ele>
        <time>2022-06-27T10:54:09Z</time>
      </trkpt>
      <trkpt lat="42.3496770" lon="-3.4371400">
        <ele>1057.6</ele>
        <time>2022-06-27T10:54:10Z</time>
      </trkpt>
      <trkpt lat="42.3496330" lon="-3.4372830">
        <ele>1057.4</ele>
        <time>2022-06-27T10:54:11Z</time>
      </trkpt>
      <trkpt lat="42.3495940" lon="-3.4374270">
        <ele>1057.4</ele>
        <time>2022-06-27T10:54:12Z</time>
      </trkpt>
      <trkpt lat="42.3495610" lon="-3.4375740">
        <ele>1057.2</ele>
        <time>2022-06-27T10:54:13Z</time>
      </trkpt>
      <trkpt lat="42.3495330" lon="-3.4377260">
        <ele>1057.2</ele>
        <time>2022-06-27T10:54:14Z</time>
      </trkpt>
      <trkpt lat="42.3495090" lon="-3.4378780">
        <ele>1057.0</ele>
        <time>2022-06-27T10:54:15Z</time>
      </trkpt>
      <trkpt lat="42.3494880" lon="-3.4380310">
        <ele>1057.0</ele>
        <time>2022-06-27T10:54:16Z</time>
      </trkpt>
      <trkpt lat="42.3494720" lon="-3.4381570">
        <ele>1056.8</ele>
        <time>2022-06-27T10:54:17Z</time>
      </trkpt>
      <trkpt lat="42.3494510" lon="-3.4383470">
        <ele>1056.6</ele>
        <time>2022-06-27T10:54:18Z</time>
      </trkpt>
      <trkpt lat="42.3494360" lon="-3.4385100">
        <ele>1056.6</ele>
        <time>2022-06-27T10:54:19Z</time>
      </trkpt>
      <trkpt lat="42.3494190" lon="-3.4386750">
        <ele>1056.6</ele>
        <time>2022-06-27T10:54:20Z</time>
      </trkpt>
      <trkpt lat="42.3494020" lon="-3.4388400">
        <ele>1056.6</ele>
        <time>2022-06-27T10:54:21Z</time>
      </trkpt>
      <trkpt lat="42.3493860" lon="-3.4390050">
        <ele>1056.4</ele>
        <time>2022-06-27T10:54:22Z</time>
      </trkpt>
      <trkpt lat="42.3493700" lon="-3.4391690">
        <ele>1056.4</ele>
        <time>2022-06-27T10:54:23Z</time>
      </trkpt>
      <trkpt lat="42.3493540" lon="-3.4393360">
        <ele>1056.0</ele>
        <time>2022-06-27T10:54:24Z</time>
      </trkpt>
      <trkpt lat="42.3493350" lon="-3.4395040">
        <ele>1055.6</ele>
        <time>2022-06-27T10:54:25Z</time>
      </trkpt>
      <trkpt lat="42.3493180" lon="-3.4396730">
        <ele>1055.4</ele>
        <time>2022-06-27T10:54:26Z</time>
      </trkpt>
      <trkpt lat="42.3493010" lon="-3.4398420">
        <ele>1055.0</ele>
        <time>2022-06-27T10:54:27Z</time>
      </trkpt>
      <trkpt lat="42.3492840" lon="-3.4400150">
        <ele>1054.8</ele>
        <time>2022-06-27T10:54:28Z</time>
      </trkpt>
      <trkpt lat="42.3492680" lon="-3.4401890">
        <ele>1054.6</ele>
        <time>2022-06-27T10:54:29Z</time>
      </trkpt>
      <trkpt lat="42.3492540" lon="-3.4403650">
        <ele>1054.4</ele>
        <time>2022-06-27T10:54:30Z</time>
      </trkpt>
      <trkpt lat="42.3492430" lon="-3.4405470">
        <ele>1054.0</ele>
        <time>2022-06-27T10:54:31Z</time>
      </trkpt>
      <trkpt lat="42.3492380" lon="-3.4407300">
        <ele>1053.8</ele>
        <time>2022-06-27T10:54:32Z</time>
      </trkpt>
      <trkpt lat="42.3492390" lon="-3.4409150">
        <ele>1052.8</ele>
        <time>2022-06-27T10:54:33Z</time>
      </trkpt>
      <trkpt lat="42.3492410" lon="-3.4411040">
        <ele>1052.2</ele>
        <time>2022-06-27T10:54:34Z</time>
      </trkpt>
      <trkpt lat="42.3492470" lon="-3.4412960">
        <ele>1051.6</ele>
        <time>2022-06-27T10:54:35Z</time>
      </trkpt>
      <trkpt lat="42.3492540" lon="-3.4414860">
        <ele>1051.2</ele>
        <time>2022-06-27T10:54:36Z</time>
      </trkpt>
      <trkpt lat="42.3492620" lon="-3.4416770">
        <ele>1051.0</ele>
        <time>2022-06-27T10:54:37Z</time>
      </trkpt>
      <trkpt lat="42.3492690" lon="-3.4418660">
        <ele>1050.2</ele>
        <time>2022-06-27T10:54:38Z</time>
      </trkpt>
      <trkpt lat="42.3492750" lon="-3.4420560">
        <ele>1049.8</ele>
        <time>2022-06-27T10:54:39Z</time>
      </trkpt>
      <trkpt lat="42.3492800" lon="-3.4422420">
        <ele>1049.2</ele>
        <time>2022-06-27T10:54:40Z</time>
      </trkpt>
      <trkpt lat="42.3492850" lon="-3.4424270">
        <ele>1048.6</ele>
        <time>2022-06-27T10:54:41Z</time>
      </trkpt>
      <trkpt lat="42.3492890" lon="-3.4426120">
        <ele>1048.6</ele>
        <time>2022-06-27T10:54:42Z</time>
      </trkpt>
      <trkpt lat="42.3492900" lon="-3.4427930">
        <ele>1048.4</ele>
        <time>2022-06-27T10:54:43Z</time>
      </trkpt>
      <trkpt lat="42.3492860" lon="-3.4429750">
        <ele>1048.4</ele>
        <time>2022-06-27T10:54:44Z</time>
      </trkpt>
      <trkpt lat="42.3492780" lon="-3.4431570">
        <ele>1048.2</ele>
        <time>2022-06-27T10:54:45Z</time>
      </trkpt>
      <trkpt lat="42.3492660" lon="-3.4433420">
        <ele>1048.0</ele>
        <time>2022-06-27T10:54:46Z</time>
      </trkpt>
      <trkpt lat="42.3492530" lon="-3.4435280">
        <ele>1047.6</ele>
        <time>2022-06-27T10:54:47Z</time>
      </trkpt>
      <trkpt lat="42.3492390" lon="-3.4437160">
        <ele>1047.2</ele>
        <time>2022-06-27T10:54:48Z</time>
      </trkpt>
      <trkpt lat="42.3492220" lon="-3.4439050">
        <ele>1047.0</ele>
        <time>2022-06-27T10:54:49Z</time>
      </trkpt>
      <trkpt lat="42.3492050" lon="-3.4440950">
        <ele>1046.2</ele>
        <time>2022-06-27T10:54:50Z</time>
      </trkpt>
      <trkpt lat="42.3491870" lon="-3.4442910">
        <ele>1045.4</ele>
        <time>2022-06-27T10:54:51Z</time>
      </trkpt>
      <trkpt lat="42.3491680" lon="-3.4444880">
        <ele>1044.4</ele>
        <time>2022-06-27T10:54:52Z</time>
      </trkpt>
      <trkpt lat="42.3491480" lon="-3.4446880">
        <ele>1044.2</ele>
        <time>2022-06-27T10:54:53Z</time>
      </trkpt>
      <trkpt lat="42.3491280" lon="-3.4448870">
        <ele>1043.8</ele>
        <time>2022-06-27T10:54:54Z</time>
      </trkpt>
      <trkpt lat="42.3491070" lon="-3.4450870">
        <ele>1043.6</ele>
        <time>2022-06-27T10:54:55Z</time>
      </trkpt>
      <trkpt lat="42.3490890" lon="-3.4452900">
        <ele>1042.0</ele>
        <time>2022-06-27T10:54:56Z</time>
      </trkpt>
      <trkpt lat="42.3490690" lon="-3.4454950">
        <ele>1040.8</ele>
        <time>2022-06-27T10:54:57Z</time>
      </trkpt>
      <trkpt lat="42.3490490" lon="-3.4457020">
        <ele>1039.8</ele>
        <time>2022-06-27T10:54:58Z</time>
      </trkpt>
      <trkpt lat="42.3490290" lon="-3.4459100">
        <ele>1038.6</ele>
        <time>2022-06-27T10:54:59Z</time>
      </trkpt>
      <trkpt lat="42.3490090" lon="-3.4461200">
        <ele>1038.2</ele>
        <time>2022-06-27T10:55:00Z</time>
      </trkpt>
      <trkpt lat="42.3489890" lon="-3.4463330">
        <ele>1037.0</ele>
        <time>2022-06-27T10:55:01Z</time>
      </trkpt>
      <trkpt lat="42.3489680" lon="-3.4465470">
        <ele>1036.6</ele>
        <time>2022-06-27T10:55:02Z</time>
      </trkpt>
      <trkpt lat="42.3489470" lon="-3.4467610">
        <ele>1035.6</ele>
        <time>2022-06-27T10:55:03Z</time>
      </trkpt>
      <trkpt lat="42.3489250" lon="-3.4469770">
        <ele>1034.2</ele>
        <time>2022-06-27T10:55:04Z</time>
      </trkpt>
      <trkpt lat="42.3489040" lon="-3.4471930">
        <ele>1033.8</ele>
        <time>2022-06-27T10:55:05Z</time>
      </trkpt>
      <trkpt lat="42.3488820" lon="-3.4474100">
        <ele>1032.6</ele>
        <time>2022-06-27T10:55:06Z</time>
      </trkpt>
      <trkpt lat="42.3488610" lon="-3.4476310">
        <ele>1031.4</ele>
        <time>2022-06-27T10:55:07Z</time>
      </trkpt>
      <trkpt lat="42.3488400" lon="-3.4478530">
        <ele>1030.0</ele>
        <time>2022-06-27T10:55:08Z</time>
      </trkpt>
      <trkpt lat="42.3488170" lon="-3.4480760">
        <ele>1029.4</ele>
        <time>2022-06-27T10:55:09Z</time>
      </trkpt>
      <trkpt lat="42.3487940" lon="-3.4483000">
        <ele>1028.2</ele>
        <time>2022-06-27T10:55:10Z</time>
      </trkpt>
      <trkpt lat="42.3487710" lon="-3.4485260">
        <ele>1027.4</ele>
        <time>2022-06-27T10:55:11Z</time>
      </trkpt>
      <trkpt lat="42.3487470" lon="-3.4487530">
        <ele>1027.0</ele>
        <time>2022-06-27T10:55:12Z</time>
      </trkpt>
      <trkpt lat="42.3487290" lon="-3.4489360">
        <ele>1025.4</ele>
        <time>2022-06-27T10:55:13Z</time>
      </trkpt>
      <trkpt lat="42.3487070" lon="-3.4491650">
        <ele>1024.8</ele>
        <time>2022-06-27T10:55:14Z</time>
      </trkpt>
      <trkpt lat="42.3486820" lon="-3.4494400">
        <ele>1024.0</ele>
        <time>2022-06-27T10:55:15Z</time>
      </trkpt>
      <trkpt lat="42.3486590" lon="-3.4496680">
        <ele>1023.4</ele>
        <time>2022-06-27T10:55:16Z</time>
      </trkpt>
      <trkpt lat="42.3486450" lon="-3.4498540">
        <ele>1022.6</ele>
        <time>2022-06-27T10:55:17Z</time>
      </trkpt>
      <trkpt lat="42.3486330" lon="-3.4500870">
        <ele>1022.2</ele>
        <time>2022-06-27T10:55:18Z</time>
      </trkpt>
      <trkpt lat="42.3486330" lon="-3.4503220">
        <ele>1021.2</ele>
        <time>2022-06-27T10:55:19Z</time>
      </trkpt>
      <trkpt lat="42.3486540" lon="-3.4506020">
        <ele>1020.0</ele>
        <time>2022-06-27T10:55:20Z</time>
      </trkpt>
      <trkpt lat="42.3486860" lon="-3.4508330">
        <ele>1019.6</ele>
        <time>2022-06-27T10:55:21Z</time>
      </trkpt>
      <trkpt lat="42.3487250" lon="-3.4510620">
        <ele>1019.0</ele>
        <time>2022-06-27T10:55:22Z</time>
      </trkpt>
      <trkpt lat="42.3487690" lon="-3.4512920">
        <ele>1018.4</ele>
        <time>2022-06-27T10:55:23Z</time>
      </trkpt>
      <trkpt lat="42.3488070" lon="-3.4514740">
        <ele>1017.0</ele>
        <time>2022-06-27T10:55:24Z</time>
      </trkpt>
      <trkpt lat="42.3488620" lon="-3.4517480">
        <ele>1016.2</ele>
        <time>2022-06-27T10:55:25Z</time>
      </trkpt>
      <trkpt lat="42.3489070" lon="-3.4519760">
        <ele>1015.0</ele>
        <time>2022-06-27T10:55:26Z</time>
      </trkpt>
      <trkpt lat="42.3489450" lon="-3.4521590">
        <ele>1013.4</ele>
        <time>2022-06-27T10:55:27Z</time>
      </trkpt>
      <trkpt lat="42.3489920" lon="-3.4523870">
        <ele>1012.8</ele>
        <time>2022-06-27T10:55:28Z</time>
      </trkpt>
      <trkpt lat="42.3490490" lon="-3.4526560">
        <ele>1011.4</ele>
        <time>2022-06-27T10:55:29Z</time>
      </trkpt>
      <trkpt lat="42.3490940" lon="-3.4528790">
        <ele>1010.6</ele>
        <time>2022-06-27T10:55:30Z</time>
      </trkpt>
      <trkpt lat="42.3491400" lon="-3.4531000">
        <ele>1009.4</ele>
        <time>2022-06-27T10:55:31Z</time>
      </trkpt>
      <trkpt lat="42.3491760" lon="-3.4532760">
        <ele>1009.2</ele>
        <time>2022-06-27T10:55:32Z</time>
      </trkpt>
      <trkpt lat="42.3492210" lon="-3.4534940">
        <ele>1007.8</ele>
        <time>2022-06-27T10:55:33Z</time>
      </trkpt>
      <trkpt lat="42.3492750" lon="-3.4537540">
        <ele>1007.0</ele>
        <time>2022-06-27T10:55:34Z</time>
      </trkpt>
      <trkpt lat="42.3493180" lon="-3.4539650">
        <ele>1006.6</ele>
        <time>2022-06-27T10:55:35Z</time>
      </trkpt>
      <trkpt lat="42.3493600" lon="-3.4541770">
        <ele>1005.8</ele>
        <time>2022-06-27T10:55:36Z</time>
      </trkpt>
      <trkpt lat="42.3494030" lon="-3.4543900">
        <ele>1005.4</ele>
        <time>2022-06-27T10:55:37Z</time>
      </trkpt>
      <trkpt lat="42.3494360" lon="-3.4545610">
        <ele>1005.0</ele>
        <time>2022-06-27T10:55:38Z</time>
      </trkpt>
      <trkpt lat="42.3494880" lon="-3.4548140">
        <ele>1004.8</ele>
        <time>2022-06-27T10:55:39Z</time>
      </trkpt>
      <trkpt lat="42.3495310" lon="-3.4550250">
        <ele>1004.2</ele>
        <time>2022-06-27T10:55:40Z</time>
      </trkpt>
      <trkpt lat="42.3495730" lon="-3.4552350">
        <ele>1003.8</ele>
        <time>2022-06-27T10:55:41Z</time>
      </trkpt>
      <trkpt lat="42.3496060" lon="-3.4554050">
        <ele>1002.4</ele>
        <time>2022-06-27T10:55:42Z</time>
      </trkpt>
      <trkpt lat="42.3496470" lon="-3.4556160">
        <ele>1001.4</ele>
        <time>2022-06-27T10:55:43Z</time>
      </trkpt>
      <trkpt lat="42.3496960" lon="-3.4558670">
        <ele>1001.0</ele>
        <time>2022-06-27T10:55:44Z</time>
      </trkpt>
      <trkpt lat="42.3497380" lon="-3.4560700">
        <ele>999.4</ele>
        <time>2022-06-27T10:55:45Z</time>
      </trkpt>
      <trkpt lat="42.3497800" lon="-3.4562730">
        <ele>998.8</ele>
        <time>2022-06-27T10:55:46Z</time>
      </trkpt>
      <trkpt lat="42.3498190" lon="-3.4564710">
        <ele>998.0</ele>
        <time>2022-06-27T10:55:47Z</time>
      </trkpt>
      <trkpt lat="42.3498570" lon="-3.4566660">
        <ele>997.8</ele>
        <time>2022-06-27T10:55:48Z</time>
      </trkpt>
      <trkpt lat="42.3498950" lon="-3.4568550">
        <ele>997.0</ele>
        <time>2022-06-27T10:55:49Z</time>
      </trkpt>
      <trkpt lat="42.3499320" lon="-3.4570400">
        <ele>996.6</ele>
        <time>2022-06-27T10:55:50Z</time>
      </trkpt>
      <trkpt lat="42.3499690" lon="-3.4572210">
        <ele>996.4</ele>
        <time>2022-06-27T10:55:51Z</time>
      </trkpt>
      <trkpt lat="42.3499970" lon="-3.4573630">
        <ele>996.2</ele>
        <time>2022-06-27T10:55:52Z</time>
      </trkpt>
      <trkpt lat="42.3500380" lon="-3.4575730">
        <ele>996.0</ele>
        <time>2022-06-27T10:55:53Z</time>
      </trkpt>
      <trkpt lat="42.3500720" lon="-3.4577430">
        <ele>996.0</ele>
        <time>2022-06-27T10:55:54Z</time>
      </trkpt>
      <trkpt lat="42.3501050" lon="-3.4579110">
        <ele>996.0</ele>
        <time>2022-06-27T10:55:55Z</time>
      </trkpt>
      <trkpt lat="42.3501350" lon="-3.4580760">
        <ele>995.8</ele>
        <time>2022-06-27T10:55:56Z</time>
      </trkpt>
      <trkpt lat="42.3501620" lon="-3.4582030">
        <ele>995.6</ele>
        <time>2022-06-27T10:55:57Z</time>
      </trkpt>
      <trkpt lat="42.3502010" lon="-3.4583920">
        <ele>995.6</ele>
        <time>2022-06-27T10:55:58Z</time>
      </trkpt>
      <trkpt lat="42.3502320" lon="-3.4585430">
        <ele>995.4</ele>
        <time>2022-06-27T10:55:59Z</time>
      </trkpt>
      <trkpt lat="42.3502620" lon="-3.4586900">
        <ele>995.4</ele>
        <time>2022-06-27T10:56:00Z</time>
      </trkpt>
      <trkpt lat="42.3502860" lon="-3.4588040">
        <ele>995.6</ele>
        <time>2022-06-27T10:56:01Z</time>
      </trkpt>
      <trkpt lat="42.3503140" lon="-3.4589480">
        <ele>995.6</ele>
        <time>2022-06-27T10:56:02Z</time>
      </trkpt>
      <trkpt lat="42.3503480" lon="-3.4591180">
        <ele>995.6</ele>
        <time>2022-06-27T10:56:03Z</time>
      </trkpt>
      <trkpt lat="42.3503750" lon="-3.4592580">
        <ele>995.8</ele>
        <time>2022-06-27T10:56:04Z</time>
      </trkpt>
      <trkpt lat="42.3504020" lon="-3.4593930">
        <ele>995.8</ele>
        <time>2022-06-27T10:56:05Z</time>
      </trkpt>
      <trkpt lat="42.3504230" lon="-3.4595000">
        <ele>995.8</ele>
        <time>2022-06-27T10:56:06Z</time>
      </trkpt>
      <trkpt lat="42.3504550" lon="-3.4596590">
        <ele>995.8</ele>
        <time>2022-06-27T10:56:07Z</time>
      </trkpt>
      <trkpt lat="42.3504790" lon="-3.4597890">
        <ele>996.2</ele>
        <time>2022-06-27T10:56:08Z</time>
      </trkpt>
      <trkpt lat="42.3505010" lon="-3.4599180">
        <ele>996.2</ele>
        <time>2022-06-27T10:56:09Z</time>
      </trkpt>
      <trkpt lat="42.3505160" lon="-3.4600190">
        <ele>996.2</ele>
        <time>2022-06-27T10:56:10Z</time>
      </trkpt>
      <trkpt lat="42.3505380" lon="-3.4601700">
        <ele>996.4</ele>
        <time>2022-06-27T10:56:11Z</time>
      </trkpt>
      <trkpt lat="42.3505560" lon="-3.4602950">
        <ele>996.6</ele>
        <time>2022-06-27T10:56:12Z</time>
      </trkpt>
      <trkpt lat="42.3505710" lon="-3.4604170">
        <ele>996.8</ele>
        <time>2022-06-27T10:56:13Z</time>
      </trkpt>
      <trkpt lat="42.3505850" lon="-3.4605340">
        <ele>996.8</ele>
        <time>2022-06-27T10:56:14Z</time>
      </trkpt>
      <trkpt lat="42.3505920" lon="-3.4606240">
        <ele>996.8</ele>
        <time>2022-06-27T10:56:15Z</time>
      </trkpt>
      <trkpt lat="42.3505980" lon="-3.4607360">
        <ele>997.0</ele>
        <time>2022-06-27T10:56:16Z</time>
      </trkpt>
      <trkpt lat="42.3506060" lon="-3.4608680">
        <ele>997.2</ele>
        <time>2022-06-27T10:56:17Z</time>
      </trkpt>
      <trkpt lat="42.3506110" lon="-3.4609750">
        <ele>997.4</ele>
        <time>2022-06-27T10:56:18Z</time>
      </trkpt>
      <trkpt lat="42.3506140" lon="-3.4610800">
        <ele>997.8</ele>
        <time>2022-06-27T10:56:19Z</time>
      </trkpt>
      <trkpt lat="42.3506150" lon="-3.4611610">
        <ele>998.2</ele>
        <time>2022-06-27T10:56:20Z</time>
      </trkpt>
      <trkpt lat="42.3506160" lon="-3.4612790">
        <ele>998.4</ele>
        <time>2022-06-27T10:56:21Z</time>
      </trkpt>
      <trkpt lat="42.3506160" lon="-3.4613710">
        <ele>998.8</ele>
        <time>2022-06-27T10:56:22Z</time>
      </trkpt>
      <trkpt lat="42.3506160" lon="-3.4614620">
        <ele>998.8</ele>
        <time>2022-06-27T10:56:23Z</time>
      </trkpt>
      <trkpt lat="42.3506140" lon="-3.4615500">
        <ele>999.2</ele>
        <time>2022-06-27T10:56:24Z</time>
      </trkpt>
      <trkpt lat="42.3506110" lon="-3.4616340">
        <ele>999.2</ele>
        <time>2022-06-27T10:56:25Z</time>
      </trkpt>
      <trkpt lat="42.3506080" lon="-3.4617170">
        <ele>999.4</ele>
        <time>2022-06-27T10:56:26Z</time>
      </trkpt>
      <trkpt lat="42.3506060" lon="-3.4618010">
        <ele>999.6</ele>
        <time>2022-06-27T10:56:27Z</time>
      </trkpt>
      <trkpt lat="42.3506030" lon="-3.4618830">
        <ele>999.6</ele>
        <time>2022-06-27T10:56:28Z</time>
      </trkpt>
      <trkpt lat="42.3506000" lon="-3.4619480">
        <ele>1000.0</ele>
        <time>2022-06-27T10:56:29Z</time>
      </trkpt>
      <trkpt lat="42.3505950" lon="-3.4620450">
        <ele>1000.2</ele>
        <time>2022-06-27T10:56:30Z</time>
      </trkpt>
      <trkpt lat="42.3505870" lon="-3.4621260">
        <ele>1000.4</ele>
        <time>2022-06-27T10:56:31Z</time>
      </trkpt>
      <trkpt lat="42.3505790" lon="-3.4622050">
        <ele>1000.4</ele>
        <time>2022-06-27T10:56:32Z</time>
      </trkpt>
      <trkpt lat="42.3505690" lon="-3.4622830">
        <ele>1000.6</ele>
        <time>2022-06-27T10:56:33Z</time>
      </trkpt>
      <trkpt lat="42.3505610" lon="-3.4623470">
        <ele>1000.8</ele>
        <time>2022-06-27T10:56:34Z</time>
      </trkpt>
      <trkpt lat="42.3505530" lon="-3.4624250">
        <ele>1000.8</ele>
        <time>2022-06-27T10:56:35Z</time>
      </trkpt>
      <trkpt lat="42.3505440" lon="-3.4625200">
        <ele>1001.2</ele>
        <time>2022-06-27T10:56:36Z</time>
      </trkpt>
      <trkpt lat="42.3505340" lon="-3.4626000">
        <ele>1001.4</ele>
        <time>2022-06-27T10:56:37Z</time>
      </trkpt>
      <trkpt lat="42.3505240" lon="-3.4626830">
        <ele>1002.0</ele>
        <time>2022-06-27T10:56:38Z</time>
      </trkpt>
      <trkpt lat="42.3505150" lon="-3.4627480">
        <ele>1002.2</ele>
        <time>2022-06-27T10:56:39Z</time>
      </trkpt>
      <trkpt lat="42.3505010" lon="-3.4628440">
        <ele>1002.4</ele>
        <time>2022-06-27T10:56:40Z</time>
      </trkpt>
      <trkpt lat="42.3504910" lon="-3.4629240">
        <ele>1002.6</ele>
        <time>2022-06-27T10:56:41Z</time>
      </trkpt>
      <trkpt lat="42.3504800" lon="-3.4630040">
        <ele>1002.6</ele>
        <time>2022-06-27T10:56:42Z</time>
      </trkpt>
      <trkpt lat="42.3504690" lon="-3.4630830">
        <ele>1002.8</ele>
        <time>2022-06-27T10:56:43Z</time>
      </trkpt>
      <trkpt lat="42.3504590" lon="-3.4631480">
        <ele>1002.8</ele>
        <time>2022-06-27T10:56:44Z</time>
      </trkpt>
      <trkpt lat="42.3504430" lon="-3.4632520">
        <ele>1002.8</ele>
        <time>2022-06-27T10:56:45Z</time>
      </trkpt>
      <trkpt lat="42.3504310" lon="-3.4633400">
        <ele>1002.8</ele>
        <time>2022-06-27T10:56:46Z</time>
      </trkpt>
      <trkpt lat="42.3504180" lon="-3.4634300">
        <ele>1002.8</ele>
        <time>2022-06-27T10:56:47Z</time>
      </trkpt>
      <trkpt lat="42.3504060" lon="-3.4635200">
        <ele>1002.8</ele>
        <time>2022-06-27T10:56:48Z</time>
      </trkpt>
      <trkpt lat="42.3503950" lon="-3.4636090">
        <ele>1002.8</ele>
        <time>2022-06-27T10:56:49Z</time>
      </trkpt>
      <trkpt lat="42.3503830" lon="-3.4637030">
        <ele>1002.8</ele>
        <time>2022-06-27T10:56:50Z</time>
      </trkpt>
      <trkpt lat="42.3503690" lon="-3.4638020">
        <ele>1002.8</ele>
        <time>2022-06-27T10:56:51Z</time>
      </trkpt>
      <trkpt lat="42.3503570" lon="-3.4639040">
        <ele>1002.4</ele>
        <time>2022-06-27T10:56:52Z</time>
      </trkpt>
      <trkpt lat="42.3503460" lon="-3.4639890">
        <ele>1002.4</ele>
        <time>2022-06-27T10:56:53Z</time>
      </trkpt>
      <trkpt lat="42.3503330" lon="-3.4640980">
        <ele>1002.2</ele>
        <time>2022-06-27T10:56:54Z</time>
      </trkpt>
      <trkpt lat="42.3503170" lon="-3.4642320">
        <ele>1002.2</ele>
        <time>2022-06-27T10:56:55Z</time>
      </trkpt>
      <trkpt lat="42.3503000" lon="-3.4643450">
        <ele>1002.2</ele>
        <time>2022-06-27T10:56:56Z</time>
      </trkpt>
      <trkpt lat="42.3502850" lon="-3.4644570">
        <ele>1002.2</ele>
        <time>2022-06-27T10:56:57Z</time>
      </trkpt>
      <trkpt lat="42.3502730" lon="-3.4645470">
        <ele>1002.2</ele>
        <time>2022-06-27T10:56:58Z</time>
      </trkpt>
      <trkpt lat="42.3502530" lon="-3.4646840">
        <ele>1002.2</ele>
        <time>2022-06-27T10:56:59Z</time>
      </trkpt>
      <trkpt lat="42.3502370" lon="-3.4648000">
        <ele>1002.2</ele>
        <time>2022-06-27T10:57:00Z</time>
      </trkpt>
      <trkpt lat="42.3502210" lon="-3.4649180">
        <ele>1002.0</ele>
        <time>2022-06-27T10:57:01Z</time>
      </trkpt>
      <trkpt lat="42.3502060" lon="-3.4650370">
        <ele>1002.0</ele>
        <time>2022-06-27T10:57:02Z</time>
      </trkpt>
      <trkpt lat="42.3501920" lon="-3.4651550">
        <ele>1002.0</ele>
        <time>2022-06-27T10:57:03Z</time>
      </trkpt>
      <trkpt lat="42.3501780" lon="-3.4652700">
        <ele>1002.0</ele>
        <time>2022-06-27T10:57:04Z</time>
      </trkpt>
      <trkpt lat="42.3501630" lon="-3.4653840">
        <ele>1002.0</ele>
        <time>2022-06-27T10:57:05Z</time>
      </trkpt>
      <trkpt lat="42.3501480" lon="-3.4654960">
        <ele>1002.0</ele>
        <time>2022-06-27T10:57:06Z</time>
      </trkpt>
      <trkpt lat="42.3501360" lon="-3.4655870">
        <ele>1002.0</ele>
        <time>2022-06-27T10:57:07Z</time>
      </trkpt>
      <trkpt lat="42.3501200" lon="-3.4657220">
        <ele>1002.0</ele>
        <time>2022-06-27T10:57:08Z</time>
      </trkpt>
      <trkpt lat="42.3501050" lon="-3.4658320">
        <ele>1002.0</ele>
        <time>2022-06-27T10:57:09Z</time>
      </trkpt>
      <trkpt lat="42.3500900" lon="-3.4659410">
        <ele>1002.0</ele>
        <time>2022-06-27T10:57:10Z</time>
      </trkpt>
      <trkpt lat="42.3500750" lon="-3.4660510">
        <ele>1002.0</ele>
        <time>2022-06-27T10:57:11Z</time>
      </trkpt>
      <trkpt lat="42.3500630" lon="-3.4661380">
        <ele>1002.0</ele>
        <time>2022-06-27T10:57:12Z</time>
      </trkpt>
      <trkpt lat="42.3500480" lon="-3.4662470">
        <ele>1002.0</ele>
        <time>2022-06-27T10:57:13Z</time>
      </trkpt>
      <trkpt lat="42.3500290" lon="-3.4663790">
        <ele>1002.2</ele>
        <time>2022-06-27T10:57:14Z</time>
      </trkpt>
      <trkpt lat="42.3500130" lon="-3.4664890">
        <ele>1002.2</ele>
        <time>2022-06-27T10:57:15Z</time>
      </trkpt>
      <trkpt lat="42.3499980" lon="-3.4665980">
        <ele>1002.4</ele>
        <time>2022-06-27T10:57:16Z</time>
      </trkpt>
      <trkpt lat="42.3499850" lon="-3.4666850">
        <ele>1002.4</ele>
        <time>2022-06-27T10:57:17Z</time>
      </trkpt>
      <trkpt lat="42.3499700" lon="-3.4667960">
        <ele>1002.4</ele>
        <time>2022-06-27T10:57:18Z</time>
      </trkpt>
      <trkpt lat="42.3499550" lon="-3.4669080">
        <ele>1002.4</ele>
        <time>2022-06-27T10:57:19Z</time>
      </trkpt>
      <trkpt lat="42.3499360" lon="-3.4670440">
        <ele>1002.4</ele>
        <time>2022-06-27T10:57:20Z</time>
      </trkpt>
      <trkpt lat="42.3499200" lon="-3.4671590">
        <ele>1002.4</ele>
        <time>2022-06-27T10:57:21Z</time>
      </trkpt>
      <trkpt lat="42.3499070" lon="-3.4672480">
        <ele>1002.4</ele>
        <time>2022-06-27T10:57:22Z</time>
      </trkpt>
      <trkpt lat="42.3498870" lon="-3.4673850">
        <ele>1002.4</ele>
        <time>2022-06-27T10:57:23Z</time>
      </trkpt>
      <trkpt lat="42.3498690" lon="-3.4675020">
        <ele>1002.4</ele>
        <time>2022-06-27T10:57:24Z</time>
      </trkpt>
      <trkpt lat="42.3498490" lon="-3.4676200">
        <ele>1002.4</ele>
        <time>2022-06-27T10:57:25Z</time>
      </trkpt>
      <trkpt lat="42.3498340" lon="-3.4677170">
        <ele>1002.4</ele>
        <time>2022-06-27T10:57:26Z</time>
      </trkpt>
      <trkpt lat="42.3498140" lon="-3.4678670">
        <ele>1002.2</ele>
        <time>2022-06-27T10:57:27Z</time>
      </trkpt>
      <trkpt lat="42.3498010" lon="-3.4679980">
        <ele>1002.2</ele>
        <time>2022-06-27T10:57:28Z</time>
      </trkpt>
      <trkpt lat="42.3497880" lon="-3.4681300">
        <ele>1002.0</ele>
        <time>2022-06-27T10:57:29Z</time>
      </trkpt>
      <trkpt lat="42.3497740" lon="-3.4682640">
        <ele>1002.0</ele>
        <time>2022-06-27T10:57:30Z</time>
      </trkpt>
      <trkpt lat="42.3497610" lon="-3.4683700">
        <ele>1002.0</ele>
        <time>2022-06-27T10:57:31Z</time>
      </trkpt>
      <trkpt lat="42.3497430" lon="-3.4685020">
        <ele>1002.0</ele>
        <time>2022-06-27T10:57:32Z</time>
      </trkpt>
      <trkpt lat="42.3497220" lon="-3.4686620">
        <ele>1001.8</ele>
        <time>2022-06-27T10:57:33Z</time>
      </trkpt>
      <trkpt lat="42.3497050" lon="-3.4687960">
        <ele>1001.8</ele>
        <time>2022-06-27T10:57:34Z</time>
      </trkpt>
      <trkpt lat="42.3496860" lon="-3.4689310">
        <ele>1001.6</ele>
        <time>2022-06-27T10:57:35Z</time>
      </trkpt>
      <trkpt lat="42.3496720" lon="-3.4690410">
        <ele>1001.4</ele>
        <time>2022-06-27T10:57:36Z</time>
      </trkpt>
      <trkpt lat="42.3496490" lon="-3.4692050">
        <ele>1001.4</ele>
        <time>2022-06-27T10:57:37Z</time>
      </trkpt>
      <trkpt lat="42.3496310" lon="-3.4693430">
        <ele>1001.0</ele>
        <time>2022-06-27T10:57:38Z</time>
      </trkpt>
      <trkpt lat="42.3496100" lon="-3.4694840">
        <ele>1001.0</ele>
        <time>2022-06-27T10:57:39Z</time>
      </trkpt>
      <trkpt lat="42.3495960" lon="-3.4695960">
        <ele>1000.8</ele>
        <time>2022-06-27T10:57:40Z</time>
      </trkpt>
      <trkpt lat="42.3495730" lon="-3.4697690">
        <ele>1000.6</ele>
        <time>2022-06-27T10:57:41Z</time>
      </trkpt>
      <trkpt lat="42.3495540" lon="-3.4699150">
        <ele>1000.2</ele>
        <time>2022-06-27T10:57:42Z</time>
      </trkpt>
      <trkpt lat="42.3495340" lon="-3.4700640">
        <ele>999.8</ele>
        <time>2022-06-27T10:57:43Z</time>
      </trkpt>
      <trkpt lat="42.3495140" lon="-3.4702150">
        <ele>999.6</ele>
        <time>2022-06-27T10:57:44Z</time>
      </trkpt>
      <trkpt lat="42.3494980" lon="-3.4703360">
        <ele>999.4</ele>
        <time>2022-06-27T10:57:45Z</time>
      </trkpt>
      <trkpt lat="42.3494730" lon="-3.4705210">
        <ele>999.2</ele>
        <time>2022-06-27T10:57:46Z</time>
      </trkpt>
      <trkpt lat="42.3494510" lon="-3.4706760">
        <ele>998.6</ele>
        <time>2022-06-27T10:57:47Z</time>
      </trkpt>
      <trkpt lat="42.3494300" lon="-3.4708310">
        <ele>998.2</ele>
        <time>2022-06-27T10:57:48Z</time>
      </trkpt>
      <trkpt lat="42.3494090" lon="-3.4709890">
        <ele>997.8</ele>
        <time>2022-06-27T10:57:49Z</time>
      </trkpt>
      <trkpt lat="42.3493900" lon="-3.4711180">
        <ele>997.2</ele>
        <time>2022-06-27T10:57:50Z</time>
      </trkpt>
      <trkpt lat="42.3493660" lon="-3.4712830">
        <ele>997.0</ele>
        <time>2022-06-27T10:57:51Z</time>
      </trkpt>
      <trkpt lat="42.3493380" lon="-3.4714840">
        <ele>996.8</ele>
        <time>2022-06-27T10:57:52Z</time>
      </trkpt>
      <trkpt lat="42.3493140" lon="-3.4716500">
        <ele>996.6</ele>
        <time>2022-06-27T10:57:53Z</time>
      </trkpt>
      <trkpt lat="42.3492920" lon="-3.4718160">
        <ele>996.4</ele>
        <time>2022-06-27T10:57:54Z</time>
      </trkpt>
      <trkpt lat="42.3492700" lon="-3.4719850">
        <ele>995.8</ele>
        <time>2022-06-27T10:57:55Z</time>
      </trkpt>
      <trkpt lat="42.3492490" lon="-3.4721520">
        <ele>995.2</ele>
        <time>2022-06-27T10:57:56Z</time>
      </trkpt>
      <trkpt lat="42.3492270" lon="-3.4723160">
        <ele>994.2</ele>
        <time>2022-06-27T10:57:57Z</time>
      </trkpt>
      <trkpt lat="42.3492050" lon="-3.4724750">
        <ele>993.8</ele>
        <time>2022-06-27T10:57:58Z</time>
      </trkpt>
      <trkpt lat="42.3491860" lon="-3.4725970">
        <ele>993.4</ele>
        <time>2022-06-27T10:57:59Z</time>
      </trkpt>
      <trkpt lat="42.3491650" lon="-3.4727450">
        <ele>993.2</ele>
        <time>2022-06-27T10:58:00Z</time>
      </trkpt>
      <trkpt lat="42.3491430" lon="-3.4729210">
        <ele>993.0</ele>
        <time>2022-06-27T10:58:01Z</time>
      </trkpt>
      <trkpt lat="42.3491250" lon="-3.4730630">
        <ele>993.0</ele>
        <time>2022-06-27T10:58:02Z</time>
      </trkpt>
      <trkpt lat="42.3491070" lon="-3.4732010">
        <ele>993.0</ele>
        <time>2022-06-27T10:58:03Z</time>
      </trkpt>
      <trkpt lat="42.3490880" lon="-3.4733400">
        <ele>992.8</ele>
        <time>2022-06-27T10:58:04Z</time>
      </trkpt>
      <trkpt lat="42.3490650" lon="-3.4734820">
        <ele>992.6</ele>
        <time>2022-06-27T10:58:05Z</time>
      </trkpt>
      <trkpt lat="42.3490460" lon="-3.4736200">
        <ele>992.4</ele>
        <time>2022-06-27T10:58:06Z</time>
      </trkpt>
      <trkpt lat="42.3490300" lon="-3.4737570">
        <ele>992.4</ele>
        <time>2022-06-27T10:58:07Z</time>
      </trkpt>
      <trkpt lat="42.3490120" lon="-3.4738960">
        <ele>992.2</ele>
        <time>2022-06-27T10:58:08Z</time>
      </trkpt>
      <trkpt lat="42.3489980" lon="-3.4740060">
        <ele>992.0</ele>
        <time>2022-06-27T10:58:09Z</time>
      </trkpt>
      <trkpt lat="42.3489780" lon="-3.4741670">
        <ele>992.0</ele>
        <time>2022-06-27T10:58:10Z</time>
      </trkpt>
      <trkpt lat="42.3489610" lon="-3.4742970">
        <ele>992.0</ele>
        <time>2022-06-27T10:58:11Z</time>
      </trkpt>
      <trkpt lat="42.3489430" lon="-3.4744240">
        <ele>992.0</ele>
        <time>2022-06-27T10:58:12Z</time>
      </trkpt>
      <trkpt lat="42.3489270" lon="-3.4745470">
        <ele>992.2</ele>
        <time>2022-06-27T10:58:13Z</time>
      </trkpt>
      <trkpt lat="42.3489150" lon="-3.4746430">
        <ele>992.2</ele>
        <time>2022-06-27T10:58:14Z</time>
      </trkpt>
      <trkpt lat="42.3488970" lon="-3.4747860">
        <ele>992.2</ele>
        <time>2022-06-27T10:58:15Z</time>
      </trkpt>
      <trkpt lat="42.3488830" lon="-3.4749010">
        <ele>992.2</ele>
        <time>2022-06-27T10:58:16Z</time>
      </trkpt>
      <trkpt lat="42.3488690" lon="-3.4750120">
        <ele>992.6</ele>
        <time>2022-06-27T10:58:17Z</time>
      </trkpt>
      <trkpt lat="42.3488560" lon="-3.4750990">
        <ele>992.8</ele>
        <time>2022-06-27T10:58:18Z</time>
      </trkpt>
      <trkpt lat="42.3488420" lon="-3.4752050">
        <ele>993.2</ele>
        <time>2022-06-27T10:58:19Z</time>
      </trkpt>
      <trkpt lat="42.3488270" lon="-3.4753270">
        <ele>993.4</ele>
        <time>2022-06-27T10:58:20Z</time>
      </trkpt>
      <trkpt lat="42.3488140" lon="-3.4754270">
        <ele>993.4</ele>
        <time>2022-06-27T10:58:21Z</time>
      </trkpt>
      <trkpt lat="42.3488000" lon="-3.4755300">
        <ele>993.6</ele>
        <time>2022-06-27T10:58:22Z</time>
      </trkpt>
      <trkpt lat="42.3487890" lon="-3.4756110">
        <ele>993.8</ele>
        <time>2022-06-27T10:58:23Z</time>
      </trkpt>
      <trkpt lat="42.3487750" lon="-3.4757180">
        <ele>993.8</ele>
        <time>2022-06-27T10:58:24Z</time>
      </trkpt>
      <trkpt lat="42.3487550" lon="-3.4758720">
        <ele>994.0</ele>
        <time>2022-06-27T10:58:25Z</time>
      </trkpt>
      <trkpt lat="42.3487490" lon="-3.4759190">
        <ele>994.6</ele>
        <time>2022-06-27T10:58:26Z</time>
      </trkpt>
      <trkpt lat="42.3487370" lon="-3.4760130">
        <ele>995.0</ele>
        <time>2022-06-27T10:58:27Z</time>
      </trkpt>
      <trkpt lat="42.3487260" lon="-3.4760860">
        <ele>995.2</ele>
        <time>2022-06-27T10:58:28Z</time>
      </trkpt>
      <trkpt lat="42.3487110" lon="-3.4761960">
        <ele>995.6</ele>
        <time>2022-06-27T10:58:29Z</time>
      </trkpt>
      <trkpt lat="42.3486970" lon="-3.4762870">
        <ele>995.8</ele>
        <time>2022-06-27T10:58:30Z</time>
      </trkpt>
      <trkpt lat="42.3486820" lon="-3.4763770">
        <ele>996.0</ele>
        <time>2022-06-27T10:58:31Z</time>
      </trkpt>
      <trkpt lat="42.3486580" lon="-3.4765620">
        <ele>996.0</ele>
        <time>2022-06-27T10:58:32Z</time>
      </trkpt>
      <trkpt lat="42.3486520" lon="-3.4766080">
        <ele>996.4</ele>
        <time>2022-06-27T10:58:33Z</time>
      </trkpt>
      <trkpt lat="42.3486460" lon="-3.4766540">
        <ele>996.6</ele>
        <time>2022-06-27T10:58:34Z</time>
      </trkpt>
      <trkpt lat="42.3486340" lon="-3.4767450">
        <ele>996.8</ele>
        <time>2022-06-27T10:58:35Z</time>
      </trkpt>
      <trkpt lat="42.3486220" lon="-3.4768350">
        <ele>997.2</ele>
        <time>2022-06-27T10:58:36Z</time>
      </trkpt>
      <trkpt lat="42.3486050" lon="-3.4769680">
        <ele>997.4</ele>
        <time>2022-06-27T10:58:37Z</time>
      </trkpt>
      <trkpt lat="42.3485990" lon="-3.4770140">
        <ele>997.8</ele>
        <time>2022-06-27T10:58:38Z</time>
      </trkpt>
      <trkpt lat="42.3485880" lon="-3.4771060">
        <ele>997.8</ele>
        <time>2022-06-27T10:58:39Z</time>
      </trkpt>
      <trkpt lat="42.3485620" lon="-3.4772710">
        <ele>998.6</ele>
        <time>2022-06-27T10:58:40Z</time>
      </trkpt>
      <trkpt lat="42.3485620" lon="-3.4772710">
        <ele>998.8</ele>
        <time>2022-06-27T10:58:41Z</time>
      </trkpt>
      <trkpt lat="42.3485410" lon="-3.4774200">
        <ele>999.0</ele>
        <time>2022-06-27T10:58:42Z</time>
      </trkpt>
      <trkpt lat="42.3485340" lon="-3.4774730">
        <ele>999.2</ele>
        <time>2022-06-27T10:58:43Z</time>
      </trkpt>
      <trkpt lat="42.3485200" lon="-3.4775800">
        <ele>999.4</ele>
        <time>2022-06-27T10:58:44Z</time>
      </trkpt>
      <trkpt lat="42.3485000" lon="-3.4777240">
        <ele>999.8</ele>
        <time>2022-06-27T10:58:45Z</time>
      </trkpt>
      <trkpt lat="42.3484940" lon="-3.4777720">
        <ele>1000.0</ele>
        <time>2022-06-27T10:58:46Z</time>
      </trkpt>
      <trkpt lat="42.3484810" lon="-3.4778690">
        <ele>1000.2</ele>
        <time>2022-06-27T10:58:47Z</time>
      </trkpt>
      <trkpt lat="42.3484690" lon="-3.4779670">
        <ele>1000.2</ele>
        <time>2022-06-27T10:58:48Z</time>
      </trkpt>
      <trkpt lat="42.3484440" lon="-3.4781630">
        <ele>1000.4</ele>
        <time>2022-06-27T10:58:49Z</time>
      </trkpt>
      <trkpt lat="42.3484440" lon="-3.4781630">
        <ele>1000.4</ele>
        <time>2022-06-27T10:58:50Z</time>
      </trkpt>
      <trkpt lat="42.3484190" lon="-3.4783400">
        <ele>1000.4</ele>
        <time>2022-06-27T10:58:51Z</time>
      </trkpt>
      <trkpt lat="42.3484040" lon="-3.4784610">
        <ele>1000.6</ele>
        <time>2022-06-27T10:58:52Z</time>
      </trkpt>
      <trkpt lat="42.3484040" lon="-3.4784610">
        <ele>1000.6</ele>
        <time>2022-06-27T10:58:53Z</time>
      </trkpt>
      <trkpt lat="42.3483760" lon="-3.4786650">
        <ele>1000.8</ele>
        <time>2022-06-27T10:58:54Z</time>
      </trkpt>
      <trkpt lat="42.3483620" lon="-3.4787670">
        <ele>1000.8</ele>
        <time>2022-06-27T10:58:55Z</time>
      </trkpt>
      <trkpt lat="42.3483520" lon="-3.4788450">
        <ele>1001.0</ele>
        <time>2022-06-27T10:58:56Z</time>
      </trkpt>
      <trkpt lat="42.3483410" lon="-3.4789230">
        <ele>1001.2</ele>
        <time>2022-06-27T10:58:57Z</time>
      </trkpt>
      <trkpt lat="42.3483210" lon="-3.4790780">
        <ele>1001.2</ele>
        <time>2022-06-27T10:58:58Z</time>
      </trkpt>
      <trkpt lat="42.3483090" lon="-3.4791610">
        <ele>1001.2</ele>
        <time>2022-06-27T10:58:59Z</time>
      </trkpt>
      <trkpt lat="42.3482980" lon="-3.4792440">
        <ele>1001.2</ele>
        <time>2022-06-27T10:59:00Z</time>
      </trkpt>
      <trkpt lat="42.3482750" lon="-3.4794090">
        <ele>1001.4</ele>
        <time>2022-06-27T10:59:01Z</time>
      </trkpt>
      <trkpt lat="42.3482600" lon="-3.4795200">
        <ele>1001.4</ele>
        <time>2022-06-27T10:59:02Z</time>
      </trkpt>
      <trkpt lat="42.3482600" lon="-3.4795200">
        <ele>1001.4</ele>
        <time>2022-06-27T10:59:03Z</time>
      </trkpt>
      <trkpt lat="42.3482330" lon="-3.4797230">
        <ele>1001.4</ele>
        <time>2022-06-27T10:59:04Z</time>
      </trkpt>
      <trkpt lat="42.3482180" lon="-3.4798390">
        <ele>1001.4</ele>
        <time>2022-06-27T10:59:05Z</time>
      </trkpt>
      <trkpt lat="42.3481990" lon="-3.4799810">
        <ele>1001.4</ele>
        <time>2022-06-27T10:59:06Z</time>
      </trkpt>
      <trkpt lat="42.3481830" lon="-3.4801010">
        <ele>1001.4</ele>
        <time>2022-06-27T10:59:07Z</time>
      </trkpt>
      <trkpt lat="42.3481680" lon="-3.4802240">
        <ele>1001.4</ele>
        <time>2022-06-27T10:59:08Z</time>
      </trkpt>
      <trkpt lat="42.3481510" lon="-3.4803500">
        <ele>1001.4</ele>
        <time>2022-06-27T10:59:09Z</time>
      </trkpt>
      <trkpt lat="42.3481330" lon="-3.4804790">
        <ele>1001.2</ele>
        <time>2022-06-27T10:59:10Z</time>
      </trkpt>
      <trkpt lat="42.3481160" lon="-3.4806110">
        <ele>1001.0</ele>
        <time>2022-06-27T10:59:11Z</time>
      </trkpt>
      <trkpt lat="42.3480980" lon="-3.4807440">
        <ele>1000.8</ele>
        <time>2022-06-27T10:59:12Z</time>
      </trkpt>
      <trkpt lat="42.3480810" lon="-3.4808810">
        <ele>1000.6</ele>
        <time>2022-06-27T10:59:13Z</time>
      </trkpt>
      <trkpt lat="42.3480630" lon="-3.4810200">
        <ele>1000.4</ele>
        <time>2022-06-27T10:59:14Z</time>
      </trkpt>
      <trkpt lat="42.3480510" lon="-3.4811130">
        <ele>1000.0</ele>
        <time>2022-06-27T10:59:15Z</time>
      </trkpt>
      <trkpt lat="42.3480390" lon="-3.4812060">
        <ele>1000.0</ele>
        <time>2022-06-27T10:59:16Z</time>
      </trkpt>
      <trkpt lat="42.3480150" lon="-3.4813920">
        <ele>999.8</ele>
        <time>2022-06-27T10:59:17Z</time>
      </trkpt>
      <trkpt lat="42.3479900" lon="-3.4815780">
        <ele>999.6</ele>
        <time>2022-06-27T10:59:18Z</time>
      </trkpt>
      <trkpt lat="42.3479710" lon="-3.4817290">
        <ele>999.2</ele>
        <time>2022-06-27T10:59:19Z</time>
      </trkpt>
      <trkpt lat="42.3479460" lon="-3.4819130">
        <ele>998.8</ele>
        <time>2022-06-27T10:59:20Z</time>
      </trkpt>
      <trkpt lat="42.3479250" lon="-3.4820690">
        <ele>998.6</ele>
        <time>2022-06-27T10:59:21Z</time>
      </trkpt>
      <trkpt lat="42.3479040" lon="-3.4822260">
        <ele>998.4</ele>
        <time>2022-06-27T10:59:22Z</time>
      </trkpt>
      <trkpt lat="42.3478850" lon="-3.4823510">
        <ele>998.0</ele>
        <time>2022-06-27T10:59:23Z</time>
      </trkpt>
      <trkpt lat="42.3478610" lon="-3.4825080">
        <ele>997.4</ele>
        <time>2022-06-27T10:59:24Z</time>
      </trkpt>
      <trkpt lat="42.3478300" lon="-3.4826940">
        <ele>997.0</ele>
        <time>2022-06-27T10:59:25Z</time>
      </trkpt>
      <trkpt lat="42.3478020" lon="-3.4828480">
        <ele>996.6</ele>
        <time>2022-06-27T10:59:26Z</time>
      </trkpt>
      <trkpt lat="42.3477730" lon="-3.4830010">
        <ele>996.6</ele>
        <time>2022-06-27T10:59:27Z</time>
      </trkpt>
      <trkpt lat="42.3477430" lon="-3.4831530">
        <ele>996.0</ele>
        <time>2022-06-27T10:59:28Z</time>
      </trkpt>
      <trkpt lat="42.3477180" lon="-3.4832640">
        <ele>995.6</ele>
        <time>2022-06-27T10:59:29Z</time>
      </trkpt>
      <trkpt lat="42.3476920" lon="-3.4833740">
        <ele>995.4</ele>
        <time>2022-06-27T10:59:30Z</time>
      </trkpt>
      <trkpt lat="42.3476420" lon="-3.4835960">
        <ele>995.2</ele>
        <time>2022-06-27T10:59:31Z</time>
      </trkpt>
      <trkpt lat="42.3476060" lon="-3.4837400">
        <ele>995.0</ele>
        <time>2022-06-27T10:59:32Z</time>
      </trkpt>
      <trkpt lat="42.3475770" lon="-3.4838540">
        <ele>994.8</ele>
        <time>2022-06-27T10:59:33Z</time>
      </trkpt>
      <trkpt lat="42.3475470" lon="-3.4839570">
        <ele>994.6</ele>
        <time>2022-06-27T10:59:34Z</time>
      </trkpt>
      <trkpt lat="42.3475170" lon="-3.4840610">
        <ele>994.2</ele>
        <time>2022-06-27T10:59:35Z</time>
      </trkpt>
      <trkpt lat="42.3474570" lon="-3.4842680">
        <ele>994.0</ele>
        <time>2022-06-27T10:59:36Z</time>
      </trkpt>
      <trkpt lat="42.3474160" lon="-3.4844020">
        <ele>994.0</ele>
        <time>2022-06-27T10:59:37Z</time>
      </trkpt>
      <trkpt lat="42.3473730" lon="-3.4845380">
        <ele>993.8</ele>
        <time>2022-06-27T10:59:38Z</time>
      </trkpt>
      <trkpt lat="42.3473310" lon="-3.4846740">
        <ele>993.6</ele>
        <time>2022-06-27T10:59:39Z</time>
      </trkpt>
      <trkpt lat="42.3472920" lon="-3.4848070">
        <ele>993.6</ele>
        <time>2022-06-27T10:59:40Z</time>
      </trkpt>
      <trkpt lat="42.3472520" lon="-3.4849390">
        <ele>993.6</ele>
        <time>2022-06-27T10:59:41Z</time>
      </trkpt>
      <trkpt lat="42.3472220" lon="-3.4850370">
        <ele>993.6</ele>
        <time>2022-06-27T10:59:42Z</time>
      </trkpt>
      <trkpt lat="42.3471920" lon="-3.4851350">
        <ele>993.6</ele>
        <time>2022-06-27T10:59:43Z</time>
      </trkpt>
      <trkpt lat="42.3471310" lon="-3.4853320">
        <ele>993.6</ele>
        <time>2022-06-27T10:59:44Z</time>
      </trkpt>
      <trkpt lat="42.3470900" lon="-3.4854610">
        <ele>993.6</ele>
        <time>2022-06-27T10:59:45Z</time>
      </trkpt>
      <trkpt lat="42.3470490" lon="-3.4855910">
        <ele>993.6</ele>
        <time>2022-06-27T10:59:46Z</time>
      </trkpt>
      <trkpt lat="42.3470490" lon="-3.4855910">
        <ele>993.8</ele>
        <time>2022-06-27T10:59:47Z</time>
      </trkpt>
      <trkpt lat="42.3469580" lon="-3.4858800">
        <ele>993.8</ele>
        <time>2022-06-27T10:59:48Z</time>
      </trkpt>
      <trkpt lat="42.3469250" lon="-3.4859830">
        <ele>993.8</ele>
        <time>2022-06-27T10:59:49Z</time>
      </trkpt>
      <trkpt lat="42.3468930" lon="-3.4860830">
        <ele>993.8</ele>
        <time>2022-06-27T10:59:50Z</time>
      </trkpt>
      <trkpt lat="42.3468610" lon="-3.4861820">
        <ele>993.8</ele>
        <time>2022-06-27T10:59:51Z</time>
      </trkpt>
      <trkpt lat="42.3467980" lon="-3.4863810">
        <ele>993.8</ele>
        <time>2022-06-27T10:59:52Z</time>
      </trkpt>
      <trkpt lat="42.3467550" lon="-3.4865140">
        <ele>993.6</ele>
        <time>2022-06-27T10:59:53Z</time>
      </trkpt>
      <trkpt lat="42.3467140" lon="-3.4866470">
        <ele>993.6</ele>
        <time>2022-06-27T10:59:54Z</time>
      </trkpt>
      <trkpt lat="42.3466730" lon="-3.4867810">
        <ele>993.4</ele>
        <time>2022-06-27T10:59:55Z</time>
      </trkpt>
      <trkpt lat="42.3466310" lon="-3.4869150">
        <ele>993.2</ele>
        <time>2022-06-27T10:59:56Z</time>
      </trkpt>
      <trkpt lat="42.3465880" lon="-3.4870500">
        <ele>993.2</ele>
        <time>2022-06-27T10:59:57Z</time>
      </trkpt>
      <trkpt lat="42.3465440" lon="-3.4871860">
        <ele>992.8</ele>
        <time>2022-06-27T10:59:58Z</time>
      </trkpt>
      <trkpt lat="42.3465000" lon="-3.4873210">
        <ele>992.6</ele>
        <time>2022-06-27T10:59:59Z</time>
      </trkpt>
      <trkpt lat="42.3464680" lon="-3.4874120">
        <ele>992.8</ele>
        <time>2022-06-27T11:00:00Z</time>
      </trkpt>
      <trkpt lat="42.3464370" lon="-3.4875040">
        <ele>992.6</ele>
        <time>2022-06-27T11:00:01Z</time>
      </trkpt>
      <trkpt lat="42.3463740" lon="-3.4876870">
        <ele>992.6</ele>
        <time>2022-06-27T11:00:02Z</time>
      </trkpt>
      <trkpt lat="42.3463110" lon="-3.4878700">
        <ele>992.6</ele>
        <time>2022-06-27T11:00:03Z</time>
      </trkpt>
      <trkpt lat="42.3462640" lon="-3.4880070">
        <ele>992.6</ele>
        <time>2022-06-27T11:00:04Z</time>
      </trkpt>
      <trkpt lat="42.3462180" lon="-3.4881450">
        <ele>992.6</ele>
        <time>2022-06-27T11:00:05Z</time>
      </trkpt>
      <trkpt lat="42.3461740" lon="-3.4882850">
        <ele>992.6</ele>
        <time>2022-06-27T11:00:06Z</time>
      </trkpt>
      <trkpt lat="42.3461270" lon="-3.4884270">
        <ele>992.6</ele>
        <time>2022-06-27T11:00:07Z</time>
      </trkpt>
      <trkpt lat="42.3460790" lon="-3.4885670">
        <ele>992.6</ele>
        <time>2022-06-27T11:00:08Z</time>
      </trkpt>
      <trkpt lat="42.3460280" lon="-3.4887090">
        <ele>992.6</ele>
        <time>2022-06-27T11:00:09Z</time>
      </trkpt>
      <trkpt lat="42.3459890" lon="-3.4888140">
        <ele>992.6</ele>
        <time>2022-06-27T11:00:10Z</time>
      </trkpt>
      <trkpt lat="42.3459500" lon="-3.4889190">
        <ele>992.4</ele>
        <time>2022-06-27T11:00:11Z</time>
      </trkpt>
      <trkpt lat="42.3458730" lon="-3.4891290">
        <ele>992.2</ele>
        <time>2022-06-27T11:00:12Z</time>
      </trkpt>
      <trkpt lat="42.3458180" lon="-3.4892710">
        <ele>992.0</ele>
        <time>2022-06-27T11:00:13Z</time>
      </trkpt>
      <trkpt lat="42.3457640" lon="-3.4894160">
        <ele>991.8</ele>
        <time>2022-06-27T11:00:14Z</time>
      </trkpt>
      <trkpt lat="42.3457090" lon="-3.4895620">
        <ele>991.6</ele>
        <time>2022-06-27T11:00:15Z</time>
      </trkpt>
      <trkpt lat="42.3456540" lon="-3.4897120">
        <ele>991.4</ele>
        <time>2022-06-27T11:00:16Z</time>
      </trkpt>
      <trkpt lat="42.3455980" lon="-3.4898610">
        <ele>991.4</ele>
        <time>2022-06-27T11:00:17Z</time>
      </trkpt>
      <trkpt lat="42.3455520" lon="-3.4899830">
        <ele>991.2</ele>
        <time>2022-06-27T11:00:18Z</time>
      </trkpt>
      <trkpt lat="42.3455060" lon="-3.4901040">
        <ele>991.0</ele>
        <time>2022-06-27T11:00:19Z</time>
      </trkpt>
      <trkpt lat="42.3454150" lon="-3.4903480">
        <ele>990.8</ele>
        <time>2022-06-27T11:00:20Z</time>
      </trkpt>
      <trkpt lat="42.3453690" lon="-3.4904690">
        <ele>990.2</ele>
        <time>2022-06-27T11:00:21Z</time>
      </trkpt>
      <trkpt lat="42.3453140" lon="-3.4906220">
        <ele>989.8</ele>
        <time>2022-06-27T11:00:22Z</time>
      </trkpt>
      <trkpt lat="42.3452710" lon="-3.4907360">
        <ele>988.8</ele>
        <time>2022-06-27T11:00:23Z</time>
      </trkpt>
      <trkpt lat="42.3452280" lon="-3.4908500">
        <ele>987.6</ele>
        <time>2022-06-27T11:00:24Z</time>
      </trkpt>
      <trkpt lat="42.3451420" lon="-3.4910780">
        <ele>987.2</ele>
        <time>2022-06-27T11:00:25Z</time>
      </trkpt>
      <trkpt lat="42.3450850" lon="-3.4912300">
        <ele>986.8</ele>
        <time>2022-06-27T11:00:26Z</time>
      </trkpt>
      <trkpt lat="42.3450250" lon="-3.4913820">
        <ele>986.6</ele>
        <time>2022-06-27T11:00:27Z</time>
      </trkpt>
      <trkpt lat="42.3449820" lon="-3.4914950">
        <ele>986.2</ele>
        <time>2022-06-27T11:00:28Z</time>
      </trkpt>
      <trkpt lat="42.3449390" lon="-3.4916080">
        <ele>985.4</ele>
        <time>2022-06-27T11:00:29Z</time>
      </trkpt>
      <trkpt lat="42.3448530" lon="-3.4918350">
        <ele>985.0</ele>
        <time>2022-06-27T11:00:30Z</time>
      </trkpt>
      <trkpt lat="42.3447960" lon="-3.4919860">
        <ele>984.6</ele>
        <time>2022-06-27T11:00:31Z</time>
      </trkpt>
      <trkpt lat="42.3447400" lon="-3.4921360">
        <ele>984.6</ele>
        <time>2022-06-27T11:00:32Z</time>
      </trkpt>
      <trkpt lat="42.3446960" lon="-3.4922550">
        <ele>984.4</ele>
        <time>2022-06-27T11:00:33Z</time>
      </trkpt>
      <trkpt lat="42.3446510" lon="-3.4923730">
        <ele>984.2</ele>
        <time>2022-06-27T11:00:34Z</time>
      </trkpt>
      <trkpt lat="42.3445610" lon="-3.4926110">
        <ele>984.0</ele>
        <time>2022-06-27T11:00:35Z</time>
      </trkpt>
      <trkpt lat="42.3445190" lon="-3.4927220">
        <ele>983.8</ele>
        <time>2022-06-27T11:00:36Z</time>
      </trkpt>
      <trkpt lat="42.3444770" lon="-3.4928330">
        <ele>983.8</ele>
        <time>2022-06-27T11:00:37Z</time>
      </trkpt>
      <trkpt lat="42.3443930" lon="-3.4930550">
        <ele>983.8</ele>
        <time>2022-06-27T11:00:38Z</time>
      </trkpt>
      <trkpt lat="42.3443370" lon="-3.4932010">
        <ele>983.6</ele>
        <time>2022-06-27T11:00:39Z</time>
      </trkpt>
      <trkpt lat="42.3442820" lon="-3.4933470">
        <ele>983.4</ele>
        <time>2022-06-27T11:00:40Z</time>
      </trkpt>
      <trkpt lat="42.3442400" lon="-3.4934630">
        <ele>983.2</ele>
        <time>2022-06-27T11:00:41Z</time>
      </trkpt>
      <trkpt lat="42.3441850" lon="-3.4936080">
        <ele>983.0</ele>
        <time>2022-06-27T11:00:42Z</time>
      </trkpt>
      <trkpt lat="42.3441200" lon="-3.4937810">
        <ele>983.0</ele>
        <time>2022-06-27T11:00:43Z</time>
      </trkpt>
      <trkpt lat="42.3440650" lon="-3.4939260">
        <ele>982.8</ele>
        <time>2022-06-27T11:00:44Z</time>
      </trkpt>
      <trkpt lat="42.3440120" lon="-3.4940720">
        <ele>982.6</ele>
        <time>2022-06-27T11:00:45Z</time>
      </trkpt>
      <trkpt lat="42.3439680" lon="-3.4941870">
        <ele>982.6</ele>
        <time>2022-06-27T11:00:46Z</time>
      </trkpt>
      <trkpt lat="42.3439240" lon="-3.4943040">
        <ele>982.4</ele>
        <time>2022-06-27T11:00:47Z</time>
      </trkpt>
      <trkpt lat="42.3438800" lon="-3.4944200">
        <ele>982.4</ele>
        <time>2022-06-27T11:00:48Z</time>
      </trkpt>
      <trkpt lat="42.3437930" lon="-3.4946520">
        <ele>982.4</ele>
        <time>2022-06-27T11:00:49Z</time>
      </trkpt>
      <trkpt lat="42.3437370" lon="-3.4948000">
        <ele>982.2</ele>
        <time>2022-06-27T11:00:50Z</time>
      </trkpt>
      <trkpt lat="42.3436940" lon="-3.4949170">
        <ele>982.2</ele>
        <time>2022-06-27T11:00:51Z</time>
      </trkpt>
      <trkpt lat="42.3436490" lon="-3.4950350">
        <ele>982.0</ele>
        <time>2022-06-27T11:00:52Z</time>
      </trkpt>
      <trkpt lat="42.3436050" lon="-3.4951530">
        <ele>982.0</ele>
        <time>2022-06-27T11:00:53Z</time>
      </trkpt>
      <trkpt lat="42.3435170" lon="-3.4953890">
        <ele>982.0</ele>
        <time>2022-06-27T11:00:54Z</time>
      </trkpt>
      <trkpt lat="42.3434720" lon="-3.4955060">
        <ele>982.0</ele>
        <time>2022-06-27T11:00:55Z</time>
      </trkpt>
      <trkpt lat="42.3434170" lon="-3.4956520">
        <ele>982.0</ele>
        <time>2022-06-27T11:00:56Z</time>
      </trkpt>
      <trkpt lat="42.3433500" lon="-3.4958260">
        <ele>981.6</ele>
        <time>2022-06-27T11:00:57Z</time>
      </trkpt>
      <trkpt lat="42.3432940" lon="-3.4959710">
        <ele>981.0</ele>
        <time>2022-06-27T11:00:58Z</time>
      </trkpt>
      <trkpt lat="42.3432490" lon="-3.4960880">
        <ele>980.6</ele>
        <time>2022-06-27T11:00:59Z</time>
      </trkpt>
      <trkpt lat="42.3431930" lon="-3.4962350">
        <ele>980.6</ele>
        <time>2022-06-27T11:01:00Z</time>
      </trkpt>
      <trkpt lat="42.3431390" lon="-3.4963800">
        <ele>980.4</ele>
        <time>2022-06-27T11:01:01Z</time>
      </trkpt>
      <trkpt lat="42.3430740" lon="-3.4965550">
        <ele>980.4</ele>
        <time>2022-06-27T11:01:02Z</time>
      </trkpt>
      <trkpt lat="42.3430200" lon="-3.4967000">
        <ele>980.2</ele>
        <time>2022-06-27T11:01:03Z</time>
      </trkpt>
      <trkpt lat="42.3429660" lon="-3.4968440">
        <ele>980.2</ele>
        <time>2022-06-27T11:01:04Z</time>
      </trkpt>
      <trkpt lat="42.3429220" lon="-3.4969600">
        <ele>980.0</ele>
        <time>2022-06-27T11:01:05Z</time>
      </trkpt>
      <trkpt lat="42.3428800" lon="-3.4970740">
        <ele>980.0</ele>
        <time>2022-06-27T11:01:06Z</time>
      </trkpt>
      <trkpt lat="42.3428370" lon="-3.4971880">
        <ele>980.0</ele>
        <time>2022-06-27T11:01:07Z</time>
      </trkpt>
      <trkpt lat="42.3427510" lon="-3.4974160">
        <ele>979.8</ele>
        <time>2022-06-27T11:01:08Z</time>
      </trkpt>
      <trkpt lat="42.3427080" lon="-3.4975300">
        <ele>979.8</ele>
        <time>2022-06-27T11:01:09Z</time>
      </trkpt>
      <trkpt lat="42.3426540" lon="-3.4976720">
        <ele>979.8</ele>
        <time>2022-06-27T11:01:10Z</time>
      </trkpt>
      <trkpt lat="42.3426120" lon="-3.4977850">
        <ele>979.6</ele>
        <time>2022-06-27T11:01:11Z</time>
      </trkpt>
      <trkpt lat="42.3425690" lon="-3.4978970">
        <ele>979.4</ele>
        <time>2022-06-27T11:01:12Z</time>
      </trkpt>
      <trkpt lat="42.3424840" lon="-3.4981220">
        <ele>979.4</ele>
        <time>2022-06-27T11:01:13Z</time>
      </trkpt>
      <trkpt lat="42.3424400" lon="-3.4982350">
        <ele>979.2</ele>
        <time>2022-06-27T11:01:14Z</time>
      </trkpt>
      <trkpt lat="42.3423850" lon="-3.4983760">
        <ele>979.0</ele>
        <time>2022-06-27T11:01:15Z</time>
      </trkpt>
      <trkpt lat="42.3423190" lon="-3.4985460">
        <ele>979.0</ele>
        <time>2022-06-27T11:01:16Z</time>
      </trkpt>
      <trkpt lat="42.3422630" lon="-3.4986880">
        <ele>979.2</ele>
        <time>2022-06-27T11:01:17Z</time>
      </trkpt>
      <trkpt lat="42.3422190" lon="-3.4988030">
        <ele>979.0</ele>
        <time>2022-06-27T11:01:18Z</time>
      </trkpt>
      <trkpt lat="42.3421630" lon="-3.4989460">
        <ele>978.8</ele>
        <time>2022-06-27T11:01:19Z</time>
      </trkpt>
      <trkpt lat="42.3420960" lon="-3.4991190">
        <ele>978.8</ele>
        <time>2022-06-27T11:01:20Z</time>
      </trkpt>
      <trkpt lat="42.3420410" lon="-3.4992640">
        <ele>978.8</ele>
        <time>2022-06-27T11:01:21Z</time>
      </trkpt>
      <trkpt lat="42.3419880" lon="-3.4994090">
        <ele>978.6</ele>
        <time>2022-06-27T11:01:22Z</time>
      </trkpt>
      <trkpt lat="42.3419330" lon="-3.4995540">
        <ele>978.6</ele>
        <time>2022-06-27T11:01:23Z</time>
      </trkpt>
      <trkpt lat="42.3418910" lon="-3.4996700">
        <ele>978.6</ele>
        <time>2022-06-27T11:01:24Z</time>
      </trkpt>
      <trkpt lat="42.3418390" lon="-3.4998140">
        <ele>978.6</ele>
        <time>2022-06-27T11:01:25Z</time>
      </trkpt>
      <trkpt lat="42.3417870" lon="-3.4999590">
        <ele>978.6</ele>
        <time>2022-06-27T11:01:26Z</time>
      </trkpt>
      <trkpt lat="42.3417490" lon="-3.5000680">
        <ele>978.6</ele>
        <time>2022-06-27T11:01:27Z</time>
      </trkpt>
      <trkpt lat="42.3417100" lon="-3.5001770">
        <ele>978.6</ele>
        <time>2022-06-27T11:01:28Z</time>
      </trkpt>
      <trkpt lat="42.3416340" lon="-3.5003960">
        <ele>978.6</ele>
        <time>2022-06-27T11:01:29Z</time>
      </trkpt>
      <trkpt lat="42.3415870" lon="-3.5005420">
        <ele>978.6</ele>
        <time>2022-06-27T11:01:30Z</time>
      </trkpt>
      <trkpt lat="42.3415430" lon="-3.5006900">
        <ele>978.6</ele>
        <time>2022-06-27T11:01:31Z</time>
      </trkpt>
      <trkpt lat="42.3414990" lon="-3.5008390">
        <ele>978.6</ele>
        <time>2022-06-27T11:01:32Z</time>
      </trkpt>
      <trkpt lat="42.3414570" lon="-3.5009900">
        <ele>978.6</ele>
        <time>2022-06-27T11:01:33Z</time>
      </trkpt>
      <trkpt lat="42.3414170" lon="-3.5011420">
        <ele>978.4</ele>
        <time>2022-06-27T11:01:34Z</time>
      </trkpt>
      <trkpt lat="42.3413750" lon="-3.5012940">
        <ele>978.4</ele>
        <time>2022-06-27T11:01:35Z</time>
      </trkpt>
      <trkpt lat="42.3413330" lon="-3.5014480">
        <ele>978.4</ele>
        <time>2022-06-27T11:01:36Z</time>
      </trkpt>
      <trkpt lat="42.3413020" lon="-3.5015650">
        <ele>978.4</ele>
        <time>2022-06-27T11:01:37Z</time>
      </trkpt>
      <trkpt lat="42.3412710" lon="-3.5016830">
        <ele>978.4</ele>
        <time>2022-06-27T11:01:38Z</time>
      </trkpt>
      <trkpt lat="42.3412080" lon="-3.5019170">
        <ele>978.4</ele>
        <time>2022-06-27T11:01:39Z</time>
      </trkpt>
      <trkpt lat="42.3411660" lon="-3.5020760">
        <ele>978.4</ele>
        <time>2022-06-27T11:01:40Z</time>
      </trkpt>
      <trkpt lat="42.3411230" lon="-3.5022360">
        <ele>978.4</ele>
        <time>2022-06-27T11:01:41Z</time>
      </trkpt>
      <trkpt lat="42.3410780" lon="-3.5023980">
        <ele>978.4</ele>
        <time>2022-06-27T11:01:42Z</time>
      </trkpt>
      <trkpt lat="42.3410350" lon="-3.5025600">
        <ele>978.4</ele>
        <time>2022-06-27T11:01:43Z</time>
      </trkpt>
      <trkpt lat="42.3409900" lon="-3.5027230">
        <ele>978.2</ele>
        <time>2022-06-27T11:01:44Z</time>
      </trkpt>
      <trkpt lat="42.3409590" lon="-3.5028450">
        <ele>978.0</ele>
        <time>2022-06-27T11:01:45Z</time>
      </trkpt>
      <trkpt lat="42.3409270" lon="-3.5029670">
        <ele>978.0</ele>
        <time>2022-06-27T11:01:46Z</time>
      </trkpt>
      <trkpt lat="42.3408640" lon="-3.5032110">
        <ele>976.8</ele>
        <time>2022-06-27T11:01:47Z</time>
      </trkpt>
      <trkpt lat="42.3408200" lon="-3.5033780">
        <ele>976.6</ele>
        <time>2022-06-27T11:01:48Z</time>
      </trkpt>
      <trkpt lat="42.3407750" lon="-3.5035450">
        <ele>976.2</ele>
        <time>2022-06-27T11:01:49Z</time>
      </trkpt>
      <trkpt lat="42.3407420" lon="-3.5036690">
        <ele>975.8</ele>
        <time>2022-06-27T11:01:50Z</time>
      </trkpt>
      <trkpt lat="42.3407090" lon="-3.5037930">
        <ele>975.0</ele>
        <time>2022-06-27T11:01:51Z</time>
      </trkpt>
      <trkpt lat="42.3406420" lon="-3.5040420">
        <ele>974.6</ele>
        <time>2022-06-27T11:01:52Z</time>
      </trkpt>
      <trkpt lat="42.3405960" lon="-3.5042090">
        <ele>974.4</ele>
        <time>2022-06-27T11:01:53Z</time>
      </trkpt>
      <trkpt lat="42.3405510" lon="-3.5043770">
        <ele>974.0</ele>
        <time>2022-06-27T11:01:54Z</time>
      </trkpt>
      <trkpt lat="42.3405180" lon="-3.5045020">
        <ele>974.0</ele>
        <time>2022-06-27T11:01:55Z</time>
      </trkpt>
      <trkpt lat="42.3404850" lon="-3.5046280">
        <ele>973.6</ele>
        <time>2022-06-27T11:01:56Z</time>
      </trkpt>
      <trkpt lat="42.3404180" lon="-3.5048780">
        <ele>973.6</ele>
        <time>2022-06-27T11:01:57Z</time>
      </trkpt>
      <trkpt lat="42.3403720" lon="-3.5050460">
        <ele>973.4</ele>
        <time>2022-06-27T11:01:58Z</time>
      </trkpt>
      <trkpt lat="42.3403280" lon="-3.5052130">
        <ele>973.2</ele>
        <time>2022-06-27T11:01:59Z</time>
      </trkpt>
      <trkpt lat="42.3403060" lon="-3.5052970">
        <ele>973.0</ele>
        <time>2022-06-27T11:02:00Z</time>
      </trkpt>
      <trkpt lat="42.3402830" lon="-3.5053800">
        <ele>973.0</ele>
        <time>2022-06-27T11:02:01Z</time>
      </trkpt>
      <trkpt lat="42.3402390" lon="-3.5055480">
        <ele>973.0</ele>
        <time>2022-06-27T11:02:02Z</time>
      </trkpt>
      <trkpt lat="42.3401690" lon="-3.5057970">
        <ele>972.8</ele>
        <time>2022-06-27T11:02:03Z</time>
      </trkpt>
      <trkpt lat="42.3400990" lon="-3.5060460">
        <ele>972.6</ele>
        <time>2022-06-27T11:02:04Z</time>
      </trkpt>
      <trkpt lat="42.3400610" lon="-3.5061680">
        <ele>972.4</ele>
        <time>2022-06-27T11:02:05Z</time>
      </trkpt>
      <trkpt lat="42.3400230" lon="-3.5062910">
        <ele>972.6</ele>
        <time>2022-06-27T11:02:06Z</time>
      </trkpt>
      <trkpt lat="42.3399480" lon="-3.5065350">
        <ele>972.4</ele>
        <time>2022-06-27T11:02:07Z</time>
      </trkpt>
      <trkpt lat="42.3398920" lon="-3.5066960">
        <ele>972.4</ele>
        <time>2022-06-27T11:02:08Z</time>
      </trkpt>
      <trkpt lat="42.3398340" lon="-3.5068510">
        <ele>972.2</ele>
        <time>2022-06-27T11:02:09Z</time>
      </trkpt>
      <trkpt lat="42.3397720" lon="-3.5070020">
        <ele>972.2</ele>
        <time>2022-06-27T11:02:10Z</time>
      </trkpt>
      <trkpt lat="42.3397050" lon="-3.5071480">
        <ele>972.2</ele>
        <time>2022-06-27T11:02:11Z</time>
      </trkpt>
      <trkpt lat="42.3396290" lon="-3.5072910">
        <ele>972.2</ele>
        <time>2022-06-27T11:02:12Z</time>
      </trkpt>
      <trkpt lat="42.3395490" lon="-3.5074260">
        <ele>972.0</ele>
        <time>2022-06-27T11:02:13Z</time>
      </trkpt>
      <trkpt lat="42.3394670" lon="-3.5075570">
        <ele>971.8</ele>
        <time>2022-06-27T11:02:14Z</time>
      </trkpt>
      <trkpt lat="42.3393790" lon="-3.5076830">
        <ele>971.8</ele>
        <time>2022-06-27T11:02:15Z</time>
      </trkpt>
      <trkpt lat="42.3392890" lon="-3.5078030">
        <ele>971.6</ele>
        <time>2022-06-27T11:02:16Z</time>
      </trkpt>
      <trkpt lat="42.3391940" lon="-3.5079200">
        <ele>971.4</ele>
        <time>2022-06-27T11:02:17Z</time>
      </trkpt>
      <trkpt lat="42.3390980" lon="-3.5080360">
        <ele>971.4</ele>
        <time>2022-06-27T11:02:18Z</time>
      </trkpt>
      <trkpt lat="42.3390250" lon="-3.5081210">
        <ele>971.2</ele>
        <time>2022-06-27T11:02:19Z</time>
      </trkpt>
      <trkpt lat="42.3389510" lon="-3.5082060">
        <ele>970.8</ele>
        <time>2022-06-27T11:02:20Z</time>
      </trkpt>
      <trkpt lat="42.3388030" lon="-3.5083760">
        <ele>970.6</ele>
        <time>2022-06-27T11:02:21Z</time>
      </trkpt>
      <trkpt lat="42.3387060" lon="-3.5084880">
        <ele>970.2</ele>
        <time>2022-06-27T11:02:22Z</time>
      </trkpt>
      <trkpt lat="42.3386080" lon="-3.5085990">
        <ele>970.0</ele>
        <time>2022-06-27T11:02:23Z</time>
      </trkpt>
      <trkpt lat="42.3385100" lon="-3.5087110">
        <ele>969.8</ele>
        <time>2022-06-27T11:02:24Z</time>
      </trkpt>
      <trkpt lat="42.3384130" lon="-3.5088210">
        <ele>969.6</ele>
        <time>2022-06-27T11:02:25Z</time>
      </trkpt>
      <trkpt lat="42.3383160" lon="-3.5089320">
        <ele>969.0</ele>
        <time>2022-06-27T11:02:26Z</time>
      </trkpt>
      <trkpt lat="42.3382420" lon="-3.5090170">
        <ele>968.6</ele>
        <time>2022-06-27T11:02:27Z</time>
      </trkpt>
      <trkpt lat="42.3381690" lon="-3.5091010">
        <ele>968.0</ele>
        <time>2022-06-27T11:02:28Z</time>
      </trkpt>
      <trkpt lat="42.3380220" lon="-3.5092700">
        <ele>967.6</ele>
        <time>2022-06-27T11:02:29Z</time>
      </trkpt>
      <trkpt lat="42.3379230" lon="-3.5093810">
        <ele>967.4</ele>
        <time>2022-06-27T11:02:30Z</time>
      </trkpt>
      <trkpt lat="42.3378250" lon="-3.5094930">
        <ele>967.2</ele>
        <time>2022-06-27T11:02:31Z</time>
      </trkpt>
      <trkpt lat="42.3377300" lon="-3.5096030">
        <ele>967.2</ele>
        <time>2022-06-27T11:02:32Z</time>
      </trkpt>
      <trkpt lat="42.3376360" lon="-3.5097120">
        <ele>967.2</ele>
        <time>2022-06-27T11:02:33Z</time>
      </trkpt>
      <trkpt lat="42.3375420" lon="-3.5098190">
        <ele>967.2</ele>
        <time>2022-06-27T11:02:34Z</time>
      </trkpt>
      <trkpt lat="42.3374510" lon="-3.5099280">
        <ele>967.2</ele>
        <time>2022-06-27T11:02:35Z</time>
      </trkpt>
      <trkpt lat="42.3373640" lon="-3.5100390">
        <ele>967.2</ele>
        <time>2022-06-27T11:02:36Z</time>
      </trkpt>
      <trkpt lat="42.3372800" lon="-3.5101530">
        <ele>966.8</ele>
        <time>2022-06-27T11:02:37Z</time>
      </trkpt>
      <trkpt lat="42.3372000" lon="-3.5102730">
        <ele>966.4</ele>
        <time>2022-06-27T11:02:38Z</time>
      </trkpt>
      <trkpt lat="42.3371250" lon="-3.5103970">
        <ele>966.2</ele>
        <time>2022-06-27T11:02:39Z</time>
      </trkpt>
      <trkpt lat="42.3370540" lon="-3.5105260">
        <ele>966.0</ele>
        <time>2022-06-27T11:02:40Z</time>
      </trkpt>
      <trkpt lat="42.3370080" lon="-3.5106320">
        <ele>966.0</ele>
        <time>2022-06-27T11:02:41Z</time>
      </trkpt>
      <trkpt lat="42.3369620" lon="-3.5107380">
        <ele>966.0</ele>
        <time>2022-06-27T11:02:42Z</time>
      </trkpt>
      <trkpt lat="42.3368710" lon="-3.5109490">
        <ele>966.0</ele>
        <time>2022-06-27T11:02:43Z</time>
      </trkpt>
      <trkpt lat="42.3368210" lon="-3.5111010">
        <ele>965.8</ele>
        <time>2022-06-27T11:02:44Z</time>
      </trkpt>
      <trkpt lat="42.3367730" lon="-3.5112560">
        <ele>965.6</ele>
        <time>2022-06-27T11:02:45Z</time>
      </trkpt>
      <trkpt lat="42.3367410" lon="-3.5113730">
        <ele>965.6</ele>
        <time>2022-06-27T11:02:46Z</time>
      </trkpt>
      <trkpt lat="42.3367080" lon="-3.5114900">
        <ele>965.8</ele>
        <time>2022-06-27T11:02:47Z</time>
      </trkpt>
      <trkpt lat="42.3366430" lon="-3.5117240">
        <ele>965.8</ele>
        <time>2022-06-27T11:02:48Z</time>
      </trkpt>
      <trkpt lat="42.3365990" lon="-3.5118840">
        <ele>966.0</ele>
        <time>2022-06-27T11:02:49Z</time>
      </trkpt>
      <trkpt lat="42.3365550" lon="-3.5120420">
        <ele>966.0</ele>
        <time>2022-06-27T11:02:50Z</time>
      </trkpt>
      <trkpt lat="42.3365110" lon="-3.5122000">
        <ele>966.0</ele>
        <time>2022-06-27T11:02:51Z</time>
      </trkpt>
      <trkpt lat="42.3364660" lon="-3.5123610">
        <ele>966.0</ele>
        <time>2022-06-27T11:02:52Z</time>
      </trkpt>
      <trkpt lat="42.3364180" lon="-3.5125220">
        <ele>966.0</ele>
        <time>2022-06-27T11:02:53Z</time>
      </trkpt>
      <trkpt lat="42.3363710" lon="-3.5126840">
        <ele>965.4</ele>
        <time>2022-06-27T11:02:54Z</time>
      </trkpt>
      <trkpt lat="42.3363250" lon="-3.5128480">
        <ele>965.2</ele>
        <time>2022-06-27T11:02:55Z</time>
      </trkpt>
      <trkpt lat="42.3362790" lon="-3.5130120">
        <ele>965.0</ele>
        <time>2022-06-27T11:02:56Z</time>
      </trkpt>
      <trkpt lat="42.3362330" lon="-3.5131770">
        <ele>965.0</ele>
        <time>2022-06-27T11:02:57Z</time>
      </trkpt>
      <trkpt lat="42.3361880" lon="-3.5133420">
        <ele>964.8</ele>
        <time>2022-06-27T11:02:58Z</time>
      </trkpt>
      <trkpt lat="42.3361430" lon="-3.5135070">
        <ele>964.6</ele>
        <time>2022-06-27T11:02:59Z</time>
      </trkpt>
      <trkpt lat="42.3360970" lon="-3.5136710">
        <ele>964.4</ele>
        <time>2022-06-27T11:03:00Z</time>
      </trkpt>
      <trkpt lat="42.3360530" lon="-3.5138380">
        <ele>964.0</ele>
        <time>2022-06-27T11:03:01Z</time>
      </trkpt>
      <trkpt lat="42.3360190" lon="-3.5139730">
        <ele>963.8</ele>
        <time>2022-06-27T11:03:02Z</time>
      </trkpt>
      <trkpt lat="42.3359860" lon="-3.5141090">
        <ele>963.6</ele>
        <time>2022-06-27T11:03:03Z</time>
      </trkpt>
      <trkpt lat="42.3359190" lon="-3.5143790">
        <ele>963.6</ele>
        <time>2022-06-27T11:03:04Z</time>
      </trkpt>
      <trkpt lat="42.3358840" lon="-3.5145130">
        <ele>963.6</ele>
        <time>2022-06-27T11:03:05Z</time>
      </trkpt>
      <trkpt lat="42.3358400" lon="-3.5146810">
        <ele>963.4</ele>
        <time>2022-06-27T11:03:06Z</time>
      </trkpt>
      <trkpt lat="42.3357980" lon="-3.5148510">
        <ele>963.4</ele>
        <time>2022-06-27T11:03:07Z</time>
      </trkpt>
      <trkpt lat="42.3357440" lon="-3.5150550">
        <ele>962.6</ele>
        <time>2022-06-27T11:03:08Z</time>
      </trkpt>
      <trkpt lat="42.3356970" lon="-3.5152240">
        <ele>962.4</ele>
        <time>2022-06-27T11:03:09Z</time>
      </trkpt>
      <trkpt lat="42.3356500" lon="-3.5153960">
        <ele>962.2</ele>
        <time>2022-06-27T11:03:10Z</time>
      </trkpt>
      <trkpt lat="42.3356120" lon="-3.5155320">
        <ele>962.0</ele>
        <time>2022-06-27T11:03:11Z</time>
      </trkpt>
      <trkpt lat="42.3355800" lon="-3.5156440">
        <ele>961.6</ele>
        <time>2022-06-27T11:03:12Z</time>
      </trkpt>
      <trkpt lat="42.3355480" lon="-3.5157560">
        <ele>961.4</ele>
        <time>2022-06-27T11:03:13Z</time>
      </trkpt>
      <trkpt lat="42.3354840" lon="-3.5159800">
        <ele>961.2</ele>
        <time>2022-06-27T11:03:14Z</time>
      </trkpt>
      <trkpt lat="42.3354200" lon="-3.5162040">
        <ele>961.2</ele>
        <time>2022-06-27T11:03:15Z</time>
      </trkpt>
      <trkpt lat="42.3353740" lon="-3.5163710">
        <ele>961.0</ele>
        <time>2022-06-27T11:03:16Z</time>
      </trkpt>
      <trkpt lat="42.3353390" lon="-3.5164960">
        <ele>960.8</ele>
        <time>2022-06-27T11:03:17Z</time>
      </trkpt>
      <trkpt lat="42.3353030" lon="-3.5166210">
        <ele>960.8</ele>
        <time>2022-06-27T11:03:18Z</time>
      </trkpt>
      <trkpt lat="42.3352320" lon="-3.5168710">
        <ele>960.8</ele>
        <time>2022-06-27T11:03:19Z</time>
      </trkpt>
      <trkpt lat="42.3351840" lon="-3.5170380">
        <ele>960.8</ele>
        <time>2022-06-27T11:03:20Z</time>
      </trkpt>
      <trkpt lat="42.3351340" lon="-3.5172070">
        <ele>960.4</ele>
        <time>2022-06-27T11:03:21Z</time>
      </trkpt>
      <trkpt lat="42.3350960" lon="-3.5173410">
        <ele>960.2</ele>
        <time>2022-06-27T11:03:22Z</time>
      </trkpt>
      <trkpt lat="42.3350580" lon="-3.5174760">
        <ele>960.0</ele>
        <time>2022-06-27T11:03:23Z</time>
      </trkpt>
      <trkpt lat="42.3349810" lon="-3.5177450">
        <ele>960.0</ele>
        <time>2022-06-27T11:03:24Z</time>
      </trkpt>
      <trkpt lat="42.3349440" lon="-3.5178780">
        <ele>960.0</ele>
        <time>2022-06-27T11:03:25Z</time>
      </trkpt>
      <trkpt lat="42.3348970" lon="-3.5180430">
        <ele>960.0</ele>
        <time>2022-06-27T11:03:26Z</time>
      </trkpt>
      <trkpt lat="42.3348450" lon="-3.5182390">
        <ele>959.8</ele>
        <time>2022-06-27T11:03:27Z</time>
      </trkpt>
      <trkpt lat="42.3348020" lon="-3.5184040">
        <ele>959.6</ele>
        <time>2022-06-27T11:03:28Z</time>
      </trkpt>
      <trkpt lat="42.3347560" lon="-3.5185670">
        <ele>959.6</ele>
        <time>2022-06-27T11:03:29Z</time>
      </trkpt>
      <trkpt lat="42.3347190" lon="-3.5186970">
        <ele>959.4</ele>
        <time>2022-06-27T11:03:30Z</time>
      </trkpt>
      <trkpt lat="42.3346820" lon="-3.5188280">
        <ele>959.2</ele>
        <time>2022-06-27T11:03:31Z</time>
      </trkpt>
      <trkpt lat="42.3346440" lon="-3.5189580">
        <ele>959.2</ele>
        <time>2022-06-27T11:03:32Z</time>
      </trkpt>
      <trkpt lat="42.3345700" lon="-3.5192190">
        <ele>959.2</ele>
        <time>2022-06-27T11:03:33Z</time>
      </trkpt>
      <trkpt lat="42.3345310" lon="-3.5193490">
        <ele>959.0</ele>
        <time>2022-06-27T11:03:34Z</time>
      </trkpt>
      <trkpt lat="42.3344820" lon="-3.5195140">
        <ele>959.0</ele>
        <time>2022-06-27T11:03:35Z</time>
      </trkpt>
      <trkpt lat="42.3344430" lon="-3.5196490">
        <ele>959.0</ele>
        <time>2022-06-27T11:03:36Z</time>
      </trkpt>
      <trkpt lat="42.3344040" lon="-3.5197840">
        <ele>958.8</ele>
        <time>2022-06-27T11:03:37Z</time>
      </trkpt>
      <trkpt lat="42.3343270" lon="-3.5200530">
        <ele>958.4</ele>
        <time>2022-06-27T11:03:38Z</time>
      </trkpt>
      <trkpt lat="42.3342860" lon="-3.5201900">
        <ele>958.4</ele>
        <time>2022-06-27T11:03:39Z</time>
      </trkpt>
      <trkpt lat="42.3342350" lon="-3.5203600">
        <ele>958.0</ele>
        <time>2022-06-27T11:03:40Z</time>
      </trkpt>
      <trkpt lat="42.3341940" lon="-3.5204960">
        <ele>957.8</ele>
        <time>2022-06-27T11:03:41Z</time>
      </trkpt>
      <trkpt lat="42.3341520" lon="-3.5206330">
        <ele>957.6</ele>
        <time>2022-06-27T11:03:42Z</time>
      </trkpt>
      <trkpt lat="42.3340680" lon="-3.5209060">
        <ele>957.6</ele>
        <time>2022-06-27T11:03:43Z</time>
      </trkpt>
      <trkpt lat="42.3340270" lon="-3.5210390">
        <ele>957.6</ele>
        <time>2022-06-27T11:03:44Z</time>
      </trkpt>
      <trkpt lat="42.3339750" lon="-3.5212040">
        <ele>957.0</ele>
        <time>2022-06-27T11:03:45Z</time>
      </trkpt>
      <trkpt lat="42.3339100" lon="-3.5214030">
        <ele>956.8</ele>
        <time>2022-06-27T11:03:46Z</time>
      </trkpt>
      <trkpt lat="42.3338590" lon="-3.5215690">
        <ele>956.6</ele>
        <time>2022-06-27T11:03:47Z</time>
      </trkpt>
      <trkpt lat="42.3338090" lon="-3.5217370">
        <ele>956.6</ele>
        <time>2022-06-27T11:03:48Z</time>
      </trkpt>
      <trkpt lat="42.3337690" lon="-3.5218730">
        <ele>956.2</ele>
        <time>2022-06-27T11:03:49Z</time>
      </trkpt>
      <trkpt lat="42.3337100" lon="-3.5220770">
        <ele>956.2</ele>
        <time>2022-06-27T11:03:50Z</time>
      </trkpt>
      <trkpt lat="42.3336600" lon="-3.5222450">
        <ele>956.0</ele>
        <time>2022-06-27T11:03:51Z</time>
      </trkpt>
      <trkpt lat="42.3336110" lon="-3.5224140">
        <ele>955.8</ele>
        <time>2022-06-27T11:03:52Z</time>
      </trkpt>
      <trkpt lat="42.3335630" lon="-3.5225840">
        <ele>955.8</ele>
        <time>2022-06-27T11:03:53Z</time>
      </trkpt>
      <trkpt lat="42.3335260" lon="-3.5227200">
        <ele>955.8</ele>
        <time>2022-06-27T11:03:54Z</time>
      </trkpt>
      <trkpt lat="42.3334870" lon="-3.5228570">
        <ele>955.6</ele>
        <time>2022-06-27T11:03:55Z</time>
      </trkpt>
      <trkpt lat="42.3334480" lon="-3.5229950">
        <ele>955.6</ele>
        <time>2022-06-27T11:03:56Z</time>
      </trkpt>
      <trkpt lat="42.3333710" lon="-3.5232690">
        <ele>955.6</ele>
        <time>2022-06-27T11:03:57Z</time>
      </trkpt>
      <trkpt lat="42.3333300" lon="-3.5234090">
        <ele>955.6</ele>
        <time>2022-06-27T11:03:58Z</time>
      </trkpt>
      <trkpt lat="42.3332800" lon="-3.5235830">
        <ele>955.4</ele>
        <time>2022-06-27T11:03:59Z</time>
      </trkpt>
      <trkpt lat="42.3332320" lon="-3.5237590">
        <ele>955.2</ele>
        <time>2022-06-27T11:04:00Z</time>
      </trkpt>
      <trkpt lat="42.3331740" lon="-3.5239680">
        <ele>954.6</ele>
        <time>2022-06-27T11:04:01Z</time>
      </trkpt>
      <trkpt lat="42.3331240" lon="-3.5241430">
        <ele>954.2</ele>
        <time>2022-06-27T11:04:02Z</time>
      </trkpt>
      <trkpt lat="42.3330860" lon="-3.5242830">
        <ele>953.6</ele>
        <time>2022-06-27T11:04:03Z</time>
      </trkpt>
      <trkpt lat="42.3330360" lon="-3.5244570">
        <ele>953.4</ele>
        <time>2022-06-27T11:04:04Z</time>
      </trkpt>
      <trkpt lat="42.3329760" lon="-3.5246670">
        <ele>953.0</ele>
        <time>2022-06-27T11:04:05Z</time>
      </trkpt>
      <trkpt lat="42.3329280" lon="-3.5248400">
        <ele>952.8</ele>
        <time>2022-06-27T11:04:06Z</time>
      </trkpt>
      <trkpt lat="42.3328800" lon="-3.5250120">
        <ele>952.6</ele>
        <time>2022-06-27T11:04:07Z</time>
      </trkpt>
      <trkpt lat="42.3328420" lon="-3.5251480">
        <ele>952.2</ele>
        <time>2022-06-27T11:04:08Z</time>
      </trkpt>
      <trkpt lat="42.3328050" lon="-3.5252830">
        <ele>952.0</ele>
        <time>2022-06-27T11:04:09Z</time>
      </trkpt>
      <trkpt lat="42.3327680" lon="-3.5254170">
        <ele>951.4</ele>
        <time>2022-06-27T11:04:10Z</time>
      </trkpt>
      <trkpt lat="42.3326950" lon="-3.5256860">
        <ele>951.0</ele>
        <time>2022-06-27T11:04:11Z</time>
      </trkpt>
      <trkpt lat="42.3326560" lon="-3.5258200">
        <ele>950.8</ele>
        <time>2022-06-27T11:04:12Z</time>
      </trkpt>
      <trkpt lat="42.3326080" lon="-3.5259890">
        <ele>950.8</ele>
        <time>2022-06-27T11:04:13Z</time>
      </trkpt>
      <trkpt lat="42.3325740" lon="-3.5261210">
        <ele>950.2</ele>
        <time>2022-06-27T11:04:14Z</time>
      </trkpt>
      <trkpt lat="42.3325400" lon="-3.5262520">
        <ele>949.6</ele>
        <time>2022-06-27T11:04:15Z</time>
      </trkpt>
      <trkpt lat="42.3324720" lon="-3.5265160">
        <ele>949.2</ele>
        <time>2022-06-27T11:04:16Z</time>
      </trkpt>
      <trkpt lat="42.3324280" lon="-3.5266980">
        <ele>948.8</ele>
        <time>2022-06-27T11:04:17Z</time>
      </trkpt>
      <trkpt lat="42.3323880" lon="-3.5268840">
        <ele>948.6</ele>
        <time>2022-06-27T11:04:18Z</time>
      </trkpt>
      <trkpt lat="42.3323630" lon="-3.5270400">
        <ele>948.2</ele>
        <time>2022-06-27T11:04:19Z</time>
      </trkpt>
      <trkpt lat="42.3323380" lon="-3.5271970">
        <ele>947.8</ele>
        <time>2022-06-27T11:04:20Z</time>
      </trkpt>
      <trkpt lat="42.3322890" lon="-3.5275100">
        <ele>947.4</ele>
        <time>2022-06-27T11:04:21Z</time>
      </trkpt>
      <trkpt lat="42.3322680" lon="-3.5276730">
        <ele>946.4</ele>
        <time>2022-06-27T11:04:22Z</time>
      </trkpt>
      <trkpt lat="42.3322410" lon="-3.5278780">
        <ele>945.8</ele>
        <time>2022-06-27T11:04:23Z</time>
      </trkpt>
      <trkpt lat="42.3322100" lon="-3.5281240">
        <ele>945.4</ele>
        <time>2022-06-27T11:04:24Z</time>
      </trkpt>
      <trkpt lat="42.3321850" lon="-3.5283300">
        <ele>945.0</ele>
        <time>2022-06-27T11:04:25Z</time>
      </trkpt>
      <trkpt lat="42.3321580" lon="-3.5285360">
        <ele>944.6</ele>
        <time>2022-06-27T11:04:26Z</time>
      </trkpt>
      <trkpt lat="42.3321370" lon="-3.5287000">
        <ele>944.0</ele>
        <time>2022-06-27T11:04:27Z</time>
      </trkpt>
      <trkpt lat="42.3321100" lon="-3.5289060">
        <ele>943.2</ele>
        <time>2022-06-27T11:04:28Z</time>
      </trkpt>
      <trkpt lat="42.3320840" lon="-3.5291090">
        <ele>942.4</ele>
        <time>2022-06-27T11:04:29Z</time>
      </trkpt>
      <trkpt lat="42.3320660" lon="-3.5292580">
        <ele>942.0</ele>
        <time>2022-06-27T11:04:30Z</time>
      </trkpt>
      <trkpt lat="42.3320470" lon="-3.5294080">
        <ele>941.2</ele>
        <time>2022-06-27T11:04:31Z</time>
      </trkpt>
      <trkpt lat="42.3320110" lon="-3.5297060">
        <ele>941.0</ele>
        <time>2022-06-27T11:04:32Z</time>
      </trkpt>
      <trkpt lat="42.3319830" lon="-3.5299000">
        <ele>940.0</ele>
        <time>2022-06-27T11:04:33Z</time>
      </trkpt>
      <trkpt lat="42.3319520" lon="-3.5301300">
        <ele>939.4</ele>
        <time>2022-06-27T11:04:34Z</time>
      </trkpt>
      <trkpt lat="42.3319270" lon="-3.5303180">
        <ele>938.4</ele>
        <time>2022-06-27T11:04:35Z</time>
      </trkpt>
      <trkpt lat="42.3319100" lon="-3.5304670">
        <ele>938.0</ele>
        <time>2022-06-27T11:04:36Z</time>
      </trkpt>
      <trkpt lat="42.3318880" lon="-3.5306530">
        <ele>937.6</ele>
        <time>2022-06-27T11:04:37Z</time>
      </trkpt>
      <trkpt lat="42.3318690" lon="-3.5308000">
        <ele>937.2</ele>
        <time>2022-06-27T11:04:38Z</time>
      </trkpt>
      <trkpt lat="42.3318510" lon="-3.5309470">
        <ele>937.0</ele>
        <time>2022-06-27T11:04:39Z</time>
      </trkpt>
      <trkpt lat="42.3318140" lon="-3.5312410">
        <ele>936.6</ele>
        <time>2022-06-27T11:04:40Z</time>
      </trkpt>
      <trkpt lat="42.3317970" lon="-3.5313840">
        <ele>936.6</ele>
        <time>2022-06-27T11:04:41Z</time>
      </trkpt>
      <trkpt lat="42.3317750" lon="-3.5315630">
        <ele>936.4</ele>
        <time>2022-06-27T11:04:42Z</time>
      </trkpt>
      <trkpt lat="42.3317580" lon="-3.5317060">
        <ele>936.2</ele>
        <time>2022-06-27T11:04:43Z</time>
      </trkpt>
      <trkpt lat="42.3317400" lon="-3.5318490">
        <ele>936.0</ele>
        <time>2022-06-27T11:04:44Z</time>
      </trkpt>
      <trkpt lat="42.3317060" lon="-3.5321340">
        <ele>936.0</ele>
        <time>2022-06-27T11:04:45Z</time>
      </trkpt>
      <trkpt lat="42.3316900" lon="-3.5322790">
        <ele>936.0</ele>
        <time>2022-06-27T11:04:46Z</time>
      </trkpt>
      <trkpt lat="42.3316730" lon="-3.5324620">
        <ele>935.8</ele>
        <time>2022-06-27T11:04:47Z</time>
      </trkpt>
      <trkpt lat="42.3316620" lon="-3.5326810">
        <ele>935.8</ele>
        <time>2022-06-27T11:04:48Z</time>
      </trkpt>
      <trkpt lat="42.3316600" lon="-3.5328250">
        <ele>935.6</ele>
        <time>2022-06-27T11:04:49Z</time>
      </trkpt>
      <trkpt lat="42.3316620" lon="-3.5330370">
        <ele>935.6</ele>
        <time>2022-06-27T11:04:50Z</time>
      </trkpt>
      <trkpt lat="42.3316650" lon="-3.5331760">
        <ele>935.6</ele>
        <time>2022-06-27T11:04:51Z</time>
      </trkpt>
      <trkpt lat="42.3316690" lon="-3.5333490">
        <ele>935.6</ele>
        <time>2022-06-27T11:04:52Z</time>
      </trkpt>
      <trkpt lat="42.3316720" lon="-3.5335200">
        <ele>935.4</ele>
        <time>2022-06-27T11:04:53Z</time>
      </trkpt>
      <trkpt lat="42.3316750" lon="-3.5336860">
        <ele>935.0</ele>
        <time>2022-06-27T11:04:54Z</time>
      </trkpt>
      <trkpt lat="42.3316770" lon="-3.5338510">
        <ele>934.6</ele>
        <time>2022-06-27T11:04:55Z</time>
      </trkpt>
      <trkpt lat="42.3316810" lon="-3.5340080">
        <ele>934.2</ele>
        <time>2022-06-27T11:04:56Z</time>
      </trkpt>
      <trkpt lat="42.3316840" lon="-3.5341570">
        <ele>934.0</ele>
        <time>2022-06-27T11:04:57Z</time>
      </trkpt>
      <trkpt lat="42.3316880" lon="-3.5343030">
        <ele>933.6</ele>
        <time>2022-06-27T11:04:58Z</time>
      </trkpt>
      <trkpt lat="42.3316900" lon="-3.5344450">
        <ele>933.4</ele>
        <time>2022-06-27T11:04:59Z</time>
      </trkpt>
      <trkpt lat="42.3316920" lon="-3.5345810">
        <ele>933.4</ele>
        <time>2022-06-27T11:05:00Z</time>
      </trkpt>
      <trkpt lat="42.3316920" lon="-3.5346760">
        <ele>933.2</ele>
        <time>2022-06-27T11:05:01Z</time>
      </trkpt>
      <trkpt lat="42.3316920" lon="-3.5347710">
        <ele>933.2</ele>
        <time>2022-06-27T11:05:02Z</time>
      </trkpt>
      <trkpt lat="42.3316930" lon="-3.5349610">
        <ele>933.2</ele>
        <time>2022-06-27T11:05:03Z</time>
      </trkpt>
      <trkpt lat="42.3316930" lon="-3.5350440">
        <ele>933.2</ele>
        <time>2022-06-27T11:05:04Z</time>
      </trkpt>
      <trkpt lat="42.3316930" lon="-3.5351670">
        <ele>933.2</ele>
        <time>2022-06-27T11:05:05Z</time>
      </trkpt>
      <trkpt lat="42.3316920" lon="-3.5352500">
        <ele>933.2</ele>
        <time>2022-06-27T11:05:06Z</time>
      </trkpt>
      <trkpt lat="42.3316940" lon="-3.5353520">
        <ele>933.2</ele>
        <time>2022-06-27T11:05:07Z</time>
      </trkpt>
      <trkpt lat="42.3316960" lon="-3.5354570">
        <ele>933.2</ele>
        <time>2022-06-27T11:05:08Z</time>
      </trkpt>
      <trkpt lat="42.3316970" lon="-3.5355850">
        <ele>933.2</ele>
        <time>2022-06-27T11:05:09Z</time>
      </trkpt>
      <trkpt lat="42.3316980" lon="-3.5356690">
        <ele>933.4</ele>
        <time>2022-06-27T11:05:10Z</time>
      </trkpt>
      <trkpt lat="42.3317000" lon="-3.5357790">
        <ele>933.4</ele>
        <time>2022-06-27T11:05:11Z</time>
      </trkpt>
      <trkpt lat="42.3317000" lon="-3.5358930">
        <ele>933.6</ele>
        <time>2022-06-27T11:05:12Z</time>
      </trkpt>
      <trkpt lat="42.3317030" lon="-3.5360090">
        <ele>933.6</ele>
        <time>2022-06-27T11:05:13Z</time>
      </trkpt>
      <trkpt lat="42.3317040" lon="-3.5361290">
        <ele>933.6</ele>
        <time>2022-06-27T11:05:14Z</time>
      </trkpt>
      <trkpt lat="42.3317070" lon="-3.5362530">
        <ele>933.6</ele>
        <time>2022-06-27T11:05:15Z</time>
      </trkpt>
      <trkpt lat="42.3317150" lon="-3.5363790">
        <ele>933.6</ele>
        <time>2022-06-27T11:05:16Z</time>
      </trkpt>
      <trkpt lat="42.3317210" lon="-3.5364830">
        <ele>933.6</ele>
        <time>2022-06-27T11:05:17Z</time>
      </trkpt>
      <trkpt lat="42.3317280" lon="-3.5365880">
        <ele>933.6</ele>
        <time>2022-06-27T11:05:18Z</time>
      </trkpt>
      <trkpt lat="42.3317410" lon="-3.5367970">
        <ele>933.6</ele>
        <time>2022-06-27T11:05:19Z</time>
      </trkpt>
      <trkpt lat="42.3317470" lon="-3.5369090">
        <ele>933.6</ele>
        <time>2022-06-27T11:05:20Z</time>
      </trkpt>
      <trkpt lat="42.3317550" lon="-3.5370500">
        <ele>933.6</ele>
        <time>2022-06-27T11:05:21Z</time>
      </trkpt>
      <trkpt lat="42.3317630" lon="-3.5371650">
        <ele>933.6</ele>
        <time>2022-06-27T11:05:22Z</time>
      </trkpt>
      <trkpt lat="42.3317720" lon="-3.5372800">
        <ele>933.6</ele>
        <time>2022-06-27T11:05:23Z</time>
      </trkpt>
      <trkpt lat="42.3317900" lon="-3.5375100">
        <ele>933.6</ele>
        <time>2022-06-27T11:05:24Z</time>
      </trkpt>
      <trkpt lat="42.3317970" lon="-3.5376270">
        <ele>933.6</ele>
        <time>2022-06-27T11:05:25Z</time>
      </trkpt>
      <trkpt lat="42.3318070" lon="-3.5377730">
        <ele>933.6</ele>
        <time>2022-06-27T11:05:26Z</time>
      </trkpt>
      <trkpt lat="42.3318140" lon="-3.5378820">
        <ele>933.4</ele>
        <time>2022-06-27T11:05:27Z</time>
      </trkpt>
      <trkpt lat="42.3318210" lon="-3.5379910">
        <ele>933.4</ele>
        <time>2022-06-27T11:05:28Z</time>
      </trkpt>
      <trkpt lat="42.3318350" lon="-3.5382090">
        <ele>933.2</ele>
        <time>2022-06-27T11:05:29Z</time>
      </trkpt>
      <trkpt lat="42.3318450" lon="-3.5383540">
        <ele>933.0</ele>
        <time>2022-06-27T11:05:30Z</time>
      </trkpt>
      <trkpt lat="42.3318540" lon="-3.5385010">
        <ele>932.8</ele>
        <time>2022-06-27T11:05:31Z</time>
      </trkpt>
      <trkpt lat="42.3318600" lon="-3.5386120">
        <ele>932.8</ele>
        <time>2022-06-27T11:05:32Z</time>
      </trkpt>
      <trkpt lat="42.3318660" lon="-3.5387220">
        <ele>932.8</ele>
        <time>2022-06-27T11:05:33Z</time>
      </trkpt>
      <trkpt lat="42.3318780" lon="-3.5389430">
        <ele>932.6</ele>
        <time>2022-06-27T11:05:34Z</time>
      </trkpt>
      <trkpt lat="42.3318860" lon="-3.5390870">
        <ele>932.4</ele>
        <time>2022-06-27T11:05:35Z</time>
      </trkpt>
      <trkpt lat="42.3318940" lon="-3.5392290">
        <ele>932.2</ele>
        <time>2022-06-27T11:05:36Z</time>
      </trkpt>
      <trkpt lat="42.3319020" lon="-3.5393370">
        <ele>931.8</ele>
        <time>2022-06-27T11:05:37Z</time>
      </trkpt>
      <trkpt lat="42.3319090" lon="-3.5394460">
        <ele>931.8</ele>
        <time>2022-06-27T11:05:38Z</time>
      </trkpt>
      <trkpt lat="42.3319240" lon="-3.5396630">
        <ele>931.8</ele>
        <time>2022-06-27T11:05:39Z</time>
      </trkpt>
      <trkpt lat="42.3319340" lon="-3.5398070">
        <ele>931.8</ele>
        <time>2022-06-27T11:05:40Z</time>
      </trkpt>
      <trkpt lat="42.3319430" lon="-3.5399500">
        <ele>931.6</ele>
        <time>2022-06-27T11:05:41Z</time>
      </trkpt>
      <trkpt lat="42.3319520" lon="-3.5400940">
        <ele>931.6</ele>
        <time>2022-06-27T11:05:42Z</time>
      </trkpt>
      <trkpt lat="42.3319600" lon="-3.5402380">
        <ele>931.6</ele>
        <time>2022-06-27T11:05:43Z</time>
      </trkpt>
      <trkpt lat="42.3319630" lon="-3.5403030">
        <ele>931.4</ele>
        <time>2022-06-27T11:05:44Z</time>
      </trkpt>
      <trkpt lat="42.3319670" lon="-3.5403680">
        <ele>931.4</ele>
        <time>2022-06-27T11:05:45Z</time>
      </trkpt>
      <trkpt lat="42.3319740" lon="-3.5404990">
        <ele>931.4</ele>
        <time>2022-06-27T11:05:46Z</time>
      </trkpt>
      <trkpt lat="42.3319870" lon="-3.5406700">
        <ele>931.4</ele>
        <time>2022-06-27T11:05:47Z</time>
      </trkpt>
      <trkpt lat="42.3320070" lon="-3.5409550">
        <ele>931.2</ele>
        <time>2022-06-27T11:05:48Z</time>
      </trkpt>
      <trkpt lat="42.3320100" lon="-3.5410170">
        <ele>931.0</ele>
        <time>2022-06-27T11:05:49Z</time>
      </trkpt>
      <trkpt lat="42.3320130" lon="-3.5410800">
        <ele>931.0</ele>
        <time>2022-06-27T11:05:50Z</time>
      </trkpt>
      <trkpt lat="42.3320200" lon="-3.5412060">
        <ele>930.8</ele>
        <time>2022-06-27T11:05:51Z</time>
      </trkpt>
      <trkpt lat="42.3320320" lon="-3.5414260">
        <ele>930.4</ele>
        <time>2022-06-27T11:05:52Z</time>
      </trkpt>
      <trkpt lat="42.3320430" lon="-3.5416460">
        <ele>930.2</ele>
        <time>2022-06-27T11:05:53Z</time>
      </trkpt>
      <trkpt lat="42.3320470" lon="-3.5417080">
        <ele>930.0</ele>
        <time>2022-06-27T11:05:54Z</time>
      </trkpt>
      <trkpt lat="42.3320510" lon="-3.5417700">
        <ele>930.0</ele>
        <time>2022-06-27T11:05:55Z</time>
      </trkpt>
      <trkpt lat="42.3320580" lon="-3.5418940">
        <ele>930.0</ele>
        <time>2022-06-27T11:05:56Z</time>
      </trkpt>
      <trkpt lat="42.3320730" lon="-3.5421120">
        <ele>930.0</ele>
        <time>2022-06-27T11:05:57Z</time>
      </trkpt>
      <trkpt lat="42.3320880" lon="-3.5423310">
        <ele>929.8</ele>
        <time>2022-06-27T11:05:58Z</time>
      </trkpt>
      <trkpt lat="42.3320920" lon="-3.5423930">
        <ele>929.8</ele>
        <time>2022-06-27T11:05:59Z</time>
      </trkpt>
      <trkpt lat="42.3320960" lon="-3.5424550">
        <ele>929.8</ele>
        <time>2022-06-27T11:06:00Z</time>
      </trkpt>
      <trkpt lat="42.3321040" lon="-3.5425790">
        <ele>929.6</ele>
        <time>2022-06-27T11:06:01Z</time>
      </trkpt>
      <trkpt lat="42.3321160" lon="-3.5428010">
        <ele>929.6</ele>
        <time>2022-06-27T11:06:02Z</time>
      </trkpt>
      <trkpt lat="42.3321290" lon="-3.5430220">
        <ele>929.6</ele>
        <time>2022-06-27T11:06:03Z</time>
      </trkpt>
      <trkpt lat="42.3321390" lon="-3.5431610">
        <ele>929.6</ele>
        <time>2022-06-27T11:06:04Z</time>
      </trkpt>
      <trkpt lat="42.3321450" lon="-3.5432590">
        <ele>929.4</ele>
        <time>2022-06-27T11:06:05Z</time>
      </trkpt>
      <trkpt lat="42.3321500" lon="-3.5433570">
        <ele>929.4</ele>
        <time>2022-06-27T11:06:06Z</time>
      </trkpt>
      <trkpt lat="42.3321620" lon="-3.5435530">
        <ele>929.6</ele>
        <time>2022-06-27T11:06:07Z</time>
      </trkpt>
      <trkpt lat="42.3321690" lon="-3.5436680">
        <ele>929.6</ele>
        <time>2022-06-27T11:06:08Z</time>
      </trkpt>
      <trkpt lat="42.3321760" lon="-3.5437820">
        <ele>929.6</ele>
        <time>2022-06-27T11:06:09Z</time>
      </trkpt>
      <trkpt lat="42.3321900" lon="-3.5440110">
        <ele>929.6</ele>
        <time>2022-06-27T11:06:10Z</time>
      </trkpt>
      <trkpt lat="42.3321980" lon="-3.5441550">
        <ele>929.8</ele>
        <time>2022-06-27T11:06:11Z</time>
      </trkpt>
      <trkpt lat="42.3322060" lon="-3.5443000">
        <ele>929.8</ele>
        <time>2022-06-27T11:06:12Z</time>
      </trkpt>
      <trkpt lat="42.3322120" lon="-3.5444080">
        <ele>929.8</ele>
        <time>2022-06-27T11:06:13Z</time>
      </trkpt>
      <trkpt lat="42.3322180" lon="-3.5445170">
        <ele>929.8</ele>
        <time>2022-06-27T11:06:14Z</time>
      </trkpt>
      <trkpt lat="42.3322310" lon="-3.5447340">
        <ele>929.8</ele>
        <time>2022-06-27T11:06:15Z</time>
      </trkpt>
      <trkpt lat="42.3322400" lon="-3.5448780">
        <ele>929.8</ele>
        <time>2022-06-27T11:06:16Z</time>
      </trkpt>
      <trkpt lat="42.3322480" lon="-3.5450230">
        <ele>929.8</ele>
        <time>2022-06-27T11:06:17Z</time>
      </trkpt>
      <trkpt lat="42.3322560" lon="-3.5451690">
        <ele>929.8</ele>
        <time>2022-06-27T11:06:18Z</time>
      </trkpt>
      <trkpt lat="42.3322640" lon="-3.5453140">
        <ele>929.6</ele>
        <time>2022-06-27T11:06:19Z</time>
      </trkpt>
      <trkpt lat="42.3322730" lon="-3.5454600">
        <ele>929.6</ele>
        <time>2022-06-27T11:06:20Z</time>
      </trkpt>
      <trkpt lat="42.3322810" lon="-3.5456040">
        <ele>929.6</ele>
        <time>2022-06-27T11:06:21Z</time>
      </trkpt>
      <trkpt lat="42.3322890" lon="-3.5457460">
        <ele>929.4</ele>
        <time>2022-06-27T11:06:22Z</time>
      </trkpt>
      <trkpt lat="42.3322980" lon="-3.5458900">
        <ele>929.4</ele>
        <time>2022-06-27T11:06:23Z</time>
      </trkpt>
      <trkpt lat="42.3323050" lon="-3.5460350">
        <ele>929.2</ele>
        <time>2022-06-27T11:06:24Z</time>
      </trkpt>
      <trkpt lat="42.3323130" lon="-3.5461800">
        <ele>929.0</ele>
        <time>2022-06-27T11:06:25Z</time>
      </trkpt>
      <trkpt lat="42.3323220" lon="-3.5463270">
        <ele>928.8</ele>
        <time>2022-06-27T11:06:26Z</time>
      </trkpt>
      <trkpt lat="42.3323320" lon="-3.5464730">
        <ele>928.8</ele>
        <time>2022-06-27T11:06:27Z</time>
      </trkpt>
      <trkpt lat="42.3323410" lon="-3.5466200">
        <ele>928.8</ele>
        <time>2022-06-27T11:06:28Z</time>
      </trkpt>
      <trkpt lat="42.3323500" lon="-3.5467670">
        <ele>928.4</ele>
        <time>2022-06-27T11:06:29Z</time>
      </trkpt>
      <trkpt lat="42.3323600" lon="-3.5469460">
        <ele>928.2</ele>
        <time>2022-06-27T11:06:30Z</time>
      </trkpt>
      <trkpt lat="42.3323680" lon="-3.5470650">
        <ele>928.0</ele>
        <time>2022-06-27T11:06:31Z</time>
      </trkpt>
      <trkpt lat="42.3323780" lon="-3.5472150">
        <ele>927.8</ele>
        <time>2022-06-27T11:06:32Z</time>
      </trkpt>
      <trkpt lat="42.3323870" lon="-3.5473630">
        <ele>927.8</ele>
        <time>2022-06-27T11:06:33Z</time>
      </trkpt>
      <trkpt lat="42.3323980" lon="-3.5475110">
        <ele>927.6</ele>
        <time>2022-06-27T11:06:34Z</time>
      </trkpt>
      <trkpt lat="42.3324070" lon="-3.5476600">
        <ele>927.6</ele>
        <time>2022-06-27T11:06:35Z</time>
      </trkpt>
      <trkpt lat="42.3324170" lon="-3.5478090">
        <ele>927.6</ele>
        <time>2022-06-27T11:06:36Z</time>
      </trkpt>
      <trkpt lat="42.3324270" lon="-3.5479590">
        <ele>927.6</ele>
        <time>2022-06-27T11:06:37Z</time>
      </trkpt>
      <trkpt lat="42.3324370" lon="-3.5481080">
        <ele>927.6</ele>
        <time>2022-06-27T11:06:38Z</time>
      </trkpt>
      <trkpt lat="42.3324430" lon="-3.5482220">
        <ele>927.6</ele>
        <time>2022-06-27T11:06:39Z</time>
      </trkpt>
      <trkpt lat="42.3324500" lon="-3.5483360">
        <ele>927.4</ele>
        <time>2022-06-27T11:06:40Z</time>
      </trkpt>
      <trkpt lat="42.3324640" lon="-3.5485640">
        <ele>927.6</ele>
        <time>2022-06-27T11:06:41Z</time>
      </trkpt>
      <trkpt lat="42.3324730" lon="-3.5487160">
        <ele>927.6</ele>
        <time>2022-06-27T11:06:42Z</time>
      </trkpt>
      <trkpt lat="42.3324820" lon="-3.5488670">
        <ele>927.6</ele>
        <time>2022-06-27T11:06:43Z</time>
      </trkpt>
      <trkpt lat="42.3324920" lon="-3.5490160">
        <ele>927.6</ele>
        <time>2022-06-27T11:06:44Z</time>
      </trkpt>
      <trkpt lat="42.3325010" lon="-3.5491640">
        <ele>927.6</ele>
        <time>2022-06-27T11:06:45Z</time>
      </trkpt>
      <trkpt lat="42.3325100" lon="-3.5493130">
        <ele>927.6</ele>
        <time>2022-06-27T11:06:46Z</time>
      </trkpt>
      <trkpt lat="42.3325180" lon="-3.5494610">
        <ele>927.6</ele>
        <time>2022-06-27T11:06:47Z</time>
      </trkpt>
      <trkpt lat="42.3325260" lon="-3.5496090">
        <ele>927.8</ele>
        <time>2022-06-27T11:06:48Z</time>
      </trkpt>
      <trkpt lat="42.3325350" lon="-3.5497550">
        <ele>927.8</ele>
        <time>2022-06-27T11:06:49Z</time>
      </trkpt>
      <trkpt lat="42.3325430" lon="-3.5499020">
        <ele>927.4</ele>
        <time>2022-06-27T11:06:50Z</time>
      </trkpt>
      <trkpt lat="42.3325510" lon="-3.5500490">
        <ele>926.6</ele>
        <time>2022-06-27T11:06:51Z</time>
      </trkpt>
      <trkpt lat="42.3325600" lon="-3.5501960">
        <ele>926.8</ele>
        <time>2022-06-27T11:06:52Z</time>
      </trkpt>
      <trkpt lat="42.3325700" lon="-3.5503430">
        <ele>926.6</ele>
        <time>2022-06-27T11:06:53Z</time>
      </trkpt>
      <trkpt lat="42.3325790" lon="-3.5504910">
        <ele>926.4</ele>
        <time>2022-06-27T11:06:54Z</time>
      </trkpt>
      <trkpt lat="42.3325860" lon="-3.5506100">
        <ele>926.0</ele>
        <time>2022-06-27T11:06:55Z</time>
      </trkpt>
      <trkpt lat="42.3325930" lon="-3.5507280">
        <ele>925.6</ele>
        <time>2022-06-27T11:06:56Z</time>
      </trkpt>
      <trkpt lat="42.3326070" lon="-3.5509650">
        <ele>925.4</ele>
        <time>2022-06-27T11:06:57Z</time>
      </trkpt>
      <trkpt lat="42.3326160" lon="-3.5510840">
        <ele>925.2</ele>
        <time>2022-06-27T11:06:58Z</time>
      </trkpt>
      <trkpt lat="42.3326260" lon="-3.5512340">
        <ele>925.2</ele>
        <time>2022-06-27T11:06:59Z</time>
      </trkpt>
      <trkpt lat="42.3326350" lon="-3.5513860">
        <ele>925.2</ele>
        <time>2022-06-27T11:07:00Z</time>
      </trkpt>
      <trkpt lat="42.3326440" lon="-3.5515370">
        <ele>925.2</ele>
        <time>2022-06-27T11:07:01Z</time>
      </trkpt>
      <trkpt lat="42.3326540" lon="-3.5516880">
        <ele>925.2</ele>
        <time>2022-06-27T11:07:02Z</time>
      </trkpt>
      <trkpt lat="42.3326610" lon="-3.5518020">
        <ele>925.2</ele>
        <time>2022-06-27T11:07:03Z</time>
      </trkpt>
      <trkpt lat="42.3326680" lon="-3.5519160">
        <ele>925.0</ele>
        <time>2022-06-27T11:07:04Z</time>
      </trkpt>
      <trkpt lat="42.3326810" lon="-3.5521440">
        <ele>925.0</ele>
        <time>2022-06-27T11:07:05Z</time>
      </trkpt>
      <trkpt lat="42.3326890" lon="-3.5522970">
        <ele>925.0</ele>
        <time>2022-06-27T11:07:06Z</time>
      </trkpt>
      <trkpt lat="42.3326990" lon="-3.5524510">
        <ele>925.0</ele>
        <time>2022-06-27T11:07:07Z</time>
      </trkpt>
      <trkpt lat="42.3327060" lon="-3.5526070">
        <ele>925.0</ele>
        <time>2022-06-27T11:07:08Z</time>
      </trkpt>
      <trkpt lat="42.3327160" lon="-3.5527620">
        <ele>924.8</ele>
        <time>2022-06-27T11:07:09Z</time>
      </trkpt>
      <trkpt lat="42.3327270" lon="-3.5529160">
        <ele>924.6</ele>
        <time>2022-06-27T11:07:10Z</time>
      </trkpt>
      <trkpt lat="42.3327360" lon="-3.5530720">
        <ele>924.6</ele>
        <time>2022-06-27T11:07:11Z</time>
      </trkpt>
      <trkpt lat="42.3327450" lon="-3.5532270">
        <ele>924.6</ele>
        <time>2022-06-27T11:07:12Z</time>
      </trkpt>
      <trkpt lat="42.3327570" lon="-3.5534140">
        <ele>924.6</ele>
        <time>2022-06-27T11:07:13Z</time>
      </trkpt>
      <trkpt lat="42.3327640" lon="-3.5535390">
        <ele>924.0</ele>
        <time>2022-06-27T11:07:14Z</time>
      </trkpt>
      <trkpt lat="42.3327730" lon="-3.5536950">
        <ele>923.8</ele>
        <time>2022-06-27T11:07:15Z</time>
      </trkpt>
      <trkpt lat="42.3327830" lon="-3.5538510">
        <ele>923.6</ele>
        <time>2022-06-27T11:07:16Z</time>
      </trkpt>
      <trkpt lat="42.3327910" lon="-3.5540070">
        <ele>923.4</ele>
        <time>2022-06-27T11:07:17Z</time>
      </trkpt>
      <trkpt lat="42.3327990" lon="-3.5541640">
        <ele>923.2</ele>
        <time>2022-06-27T11:07:18Z</time>
      </trkpt>
      <trkpt lat="42.3328070" lon="-3.5543200">
        <ele>923.2</ele>
        <time>2022-06-27T11:07:19Z</time>
      </trkpt>
      <trkpt lat="42.3328150" lon="-3.5544370">
        <ele>923.2</ele>
        <time>2022-06-27T11:07:20Z</time>
      </trkpt>
      <trkpt lat="42.3328220" lon="-3.5545540">
        <ele>923.2</ele>
        <time>2022-06-27T11:07:21Z</time>
      </trkpt>
      <trkpt lat="42.3328360" lon="-3.5547870">
        <ele>923.2</ele>
        <time>2022-06-27T11:07:22Z</time>
      </trkpt>
      <trkpt lat="42.3328460" lon="-3.5549450">
        <ele>923.2</ele>
        <time>2022-06-27T11:07:23Z</time>
      </trkpt>
      <trkpt lat="42.3328560" lon="-3.5551340">
        <ele>923.2</ele>
        <time>2022-06-27T11:07:24Z</time>
      </trkpt>
      <trkpt lat="42.3328620" lon="-3.5552610">
        <ele>923.2</ele>
        <time>2022-06-27T11:07:25Z</time>
      </trkpt>
      <trkpt lat="42.3328710" lon="-3.5554240">
        <ele>923.0</ele>
        <time>2022-06-27T11:07:26Z</time>
      </trkpt>
      <trkpt lat="42.3328820" lon="-3.5555850">
        <ele>923.0</ele>
        <time>2022-06-27T11:07:27Z</time>
      </trkpt>
      <trkpt lat="42.3328900" lon="-3.5557440">
        <ele>922.8</ele>
        <time>2022-06-27T11:07:28Z</time>
      </trkpt>
      <trkpt lat="42.3329010" lon="-3.5559040">
        <ele>922.8</ele>
        <time>2022-06-27T11:07:29Z</time>
      </trkpt>
      <trkpt lat="42.3329120" lon="-3.5560650">
        <ele>923.0</ele>
        <time>2022-06-27T11:07:30Z</time>
      </trkpt>
      <trkpt lat="42.3329220" lon="-3.5562240">
        <ele>923.0</ele>
        <time>2022-06-27T11:07:31Z</time>
      </trkpt>
      <trkpt lat="42.3329320" lon="-3.5563830">
        <ele>923.0</ele>
        <time>2022-06-27T11:07:32Z</time>
      </trkpt>
      <trkpt lat="42.3329420" lon="-3.5565410">
        <ele>922.8</ele>
        <time>2022-06-27T11:07:33Z</time>
      </trkpt>
      <trkpt lat="42.3329520" lon="-3.5566980">
        <ele>922.8</ele>
        <time>2022-06-27T11:07:34Z</time>
      </trkpt>
      <trkpt lat="42.3329610" lon="-3.5568540">
        <ele>922.6</ele>
        <time>2022-06-27T11:07:35Z</time>
      </trkpt>
      <trkpt lat="42.3329720" lon="-3.5570110">
        <ele>922.0</ele>
        <time>2022-06-27T11:07:36Z</time>
      </trkpt>
      <trkpt lat="42.3329820" lon="-3.5571670">
        <ele>921.6</ele>
        <time>2022-06-27T11:07:37Z</time>
      </trkpt>
      <trkpt lat="42.3329890" lon="-3.5572900">
        <ele>921.4</ele>
        <time>2022-06-27T11:07:38Z</time>
      </trkpt>
      <trkpt lat="42.3329970" lon="-3.5574130">
        <ele>921.4</ele>
        <time>2022-06-27T11:07:39Z</time>
      </trkpt>
      <trkpt lat="42.3330120" lon="-3.5576580">
        <ele>921.2</ele>
        <time>2022-06-27T11:07:40Z</time>
      </trkpt>
      <trkpt lat="42.3330200" lon="-3.5577840">
        <ele>921.0</ele>
        <time>2022-06-27T11:07:41Z</time>
      </trkpt>
      <trkpt lat="42.3330300" lon="-3.5579400">
        <ele>920.8</ele>
        <time>2022-06-27T11:07:42Z</time>
      </trkpt>
      <trkpt lat="42.3330390" lon="-3.5580950">
        <ele>920.8</ele>
        <time>2022-06-27T11:07:43Z</time>
      </trkpt>
      <trkpt lat="42.3330490" lon="-3.5582490">
        <ele>920.6</ele>
        <time>2022-06-27T11:07:44Z</time>
      </trkpt>
      <trkpt lat="42.3330570" lon="-3.5584020">
        <ele>920.4</ele>
        <time>2022-06-27T11:07:45Z</time>
      </trkpt>
      <trkpt lat="42.3330680" lon="-3.5585560">
        <ele>920.4</ele>
        <time>2022-06-27T11:07:46Z</time>
      </trkpt>
      <trkpt lat="42.3330780" lon="-3.5587100">
        <ele>920.4</ele>
        <time>2022-06-27T11:07:47Z</time>
      </trkpt>
      <trkpt lat="42.3330890" lon="-3.5588640">
        <ele>920.2</ele>
        <time>2022-06-27T11:07:48Z</time>
      </trkpt>
      <trkpt lat="42.3330980" lon="-3.5590180">
        <ele>920.2</ele>
        <time>2022-06-27T11:07:49Z</time>
      </trkpt>
      <trkpt lat="42.3331080" lon="-3.5592030">
        <ele>920.2</ele>
        <time>2022-06-27T11:07:50Z</time>
      </trkpt>
      <trkpt lat="42.3331160" lon="-3.5593250">
        <ele>920.2</ele>
        <time>2022-06-27T11:07:51Z</time>
      </trkpt>
      <trkpt lat="42.3331260" lon="-3.5594790">
        <ele>920.2</ele>
        <time>2022-06-27T11:07:52Z</time>
      </trkpt>
      <trkpt lat="42.3331350" lon="-3.5596340">
        <ele>920.2</ele>
        <time>2022-06-27T11:07:53Z</time>
      </trkpt>
      <trkpt lat="42.3331430" lon="-3.5597560">
        <ele>920.2</ele>
        <time>2022-06-27T11:07:54Z</time>
      </trkpt>
      <trkpt lat="42.3331500" lon="-3.5598790">
        <ele>920.2</ele>
        <time>2022-06-27T11:07:55Z</time>
      </trkpt>
      <trkpt lat="42.3331650" lon="-3.5601250">
        <ele>920.2</ele>
        <time>2022-06-27T11:07:56Z</time>
      </trkpt>
      <trkpt lat="42.3331720" lon="-3.5602470">
        <ele>920.2</ele>
        <time>2022-06-27T11:07:57Z</time>
      </trkpt>
      <trkpt lat="42.3331810" lon="-3.5603980">
        <ele>920.0</ele>
        <time>2022-06-27T11:07:58Z</time>
      </trkpt>
      <trkpt lat="42.3331900" lon="-3.5605490">
        <ele>919.4</ele>
        <time>2022-06-27T11:07:59Z</time>
      </trkpt>
      <trkpt lat="42.3332000" lon="-3.5607000">
        <ele>919.2</ele>
        <time>2022-06-27T11:08:00Z</time>
      </trkpt>
      <trkpt lat="42.3332090" lon="-3.5608500">
        <ele>918.8</ele>
        <time>2022-06-27T11:08:01Z</time>
      </trkpt>
      <trkpt lat="42.3332190" lon="-3.5610300">
        <ele>918.8</ele>
        <time>2022-06-27T11:08:02Z</time>
      </trkpt>
      <trkpt lat="42.3332260" lon="-3.5611470">
        <ele>918.4</ele>
        <time>2022-06-27T11:08:03Z</time>
      </trkpt>
      <trkpt lat="42.3332350" lon="-3.5612950">
        <ele>918.2</ele>
        <time>2022-06-27T11:08:04Z</time>
      </trkpt>
      <trkpt lat="42.3332430" lon="-3.5614430">
        <ele>918.2</ele>
        <time>2022-06-27T11:08:05Z</time>
      </trkpt>
      <trkpt lat="42.3332510" lon="-3.5615890">
        <ele>918.2</ele>
        <time>2022-06-27T11:08:06Z</time>
      </trkpt>
      <trkpt lat="42.3332610" lon="-3.5617350">
        <ele>918.4</ele>
        <time>2022-06-27T11:08:07Z</time>
      </trkpt>
      <trkpt lat="42.3332690" lon="-3.5618810">
        <ele>918.2</ele>
        <time>2022-06-27T11:08:08Z</time>
      </trkpt>
      <trkpt lat="42.3332770" lon="-3.5620290">
        <ele>918.2</ele>
        <time>2022-06-27T11:08:09Z</time>
      </trkpt>
      <trkpt lat="42.3332850" lon="-3.5621760">
        <ele>918.2</ele>
        <time>2022-06-27T11:08:10Z</time>
      </trkpt>
      <trkpt lat="42.3332930" lon="-3.5623220">
        <ele>918.2</ele>
        <time>2022-06-27T11:08:11Z</time>
      </trkpt>
      <trkpt lat="42.3333000" lon="-3.5624330">
        <ele>918.4</ele>
        <time>2022-06-27T11:08:12Z</time>
      </trkpt>
      <trkpt lat="42.3333060" lon="-3.5625440">
        <ele>918.4</ele>
        <time>2022-06-27T11:08:13Z</time>
      </trkpt>
      <trkpt lat="42.3333200" lon="-3.5627650">
        <ele>918.6</ele>
        <time>2022-06-27T11:08:14Z</time>
      </trkpt>
      <trkpt lat="42.3333270" lon="-3.5629160">
        <ele>918.8</ele>
        <time>2022-06-27T11:08:15Z</time>
      </trkpt>
      <trkpt lat="42.3333350" lon="-3.5630660">
        <ele>919.0</ele>
        <time>2022-06-27T11:08:16Z</time>
      </trkpt>
      <trkpt lat="42.3333440" lon="-3.5632170">
        <ele>919.2</ele>
        <time>2022-06-27T11:08:17Z</time>
      </trkpt>
      <trkpt lat="42.3333550" lon="-3.5633660">
        <ele>919.2</ele>
        <time>2022-06-27T11:08:18Z</time>
      </trkpt>
      <trkpt lat="42.3333650" lon="-3.5635170">
        <ele>918.8</ele>
        <time>2022-06-27T11:08:19Z</time>
      </trkpt>
      <trkpt lat="42.3333740" lon="-3.5636670">
        <ele>918.6</ele>
        <time>2022-06-27T11:08:20Z</time>
      </trkpt>
      <trkpt lat="42.3333820" lon="-3.5637850">
        <ele>918.6</ele>
        <time>2022-06-27T11:08:21Z</time>
      </trkpt>
      <trkpt lat="42.3333900" lon="-3.5639020">
        <ele>918.6</ele>
        <time>2022-06-27T11:08:22Z</time>
      </trkpt>
      <trkpt lat="42.3334060" lon="-3.5641370">
        <ele>918.6</ele>
        <time>2022-06-27T11:08:23Z</time>
      </trkpt>
      <trkpt lat="42.3334120" lon="-3.5642540">
        <ele>918.4</ele>
        <time>2022-06-27T11:08:24Z</time>
      </trkpt>
      <trkpt lat="42.3334200" lon="-3.5644000">
        <ele>918.4</ele>
        <time>2022-06-27T11:08:25Z</time>
      </trkpt>
      <trkpt lat="42.3334300" lon="-3.5645460">
        <ele>918.2</ele>
        <time>2022-06-27T11:08:26Z</time>
      </trkpt>
      <trkpt lat="42.3334390" lon="-3.5646920">
        <ele>918.0</ele>
        <time>2022-06-27T11:08:27Z</time>
      </trkpt>
      <trkpt lat="42.3334460" lon="-3.5648380">
        <ele>918.0</ele>
        <time>2022-06-27T11:08:28Z</time>
      </trkpt>
      <trkpt lat="42.3334560" lon="-3.5650140">
        <ele>917.8</ele>
        <time>2022-06-27T11:08:29Z</time>
      </trkpt>
      <trkpt lat="42.3334610" lon="-3.5651320">
        <ele>917.8</ele>
        <time>2022-06-27T11:08:30Z</time>
      </trkpt>
      <trkpt lat="42.3334690" lon="-3.5652790">
        <ele>917.6</ele>
        <time>2022-06-27T11:08:31Z</time>
      </trkpt>
      <trkpt lat="42.3334790" lon="-3.5654580">
        <ele>917.6</ele>
        <time>2022-06-27T11:08:32Z</time>
      </trkpt>
      <trkpt lat="42.3334850" lon="-3.5655780">
        <ele>917.6</ele>
        <time>2022-06-27T11:08:33Z</time>
      </trkpt>
      <trkpt lat="42.3334950" lon="-3.5657260">
        <ele>917.6</ele>
        <time>2022-06-27T11:08:34Z</time>
      </trkpt>
      <trkpt lat="42.3335030" lon="-3.5658740">
        <ele>917.6</ele>
        <time>2022-06-27T11:08:35Z</time>
      </trkpt>
      <trkpt lat="42.3335120" lon="-3.5660230">
        <ele>917.6</ele>
        <time>2022-06-27T11:08:36Z</time>
      </trkpt>
      <trkpt lat="42.3335180" lon="-3.5661350">
        <ele>917.6</ele>
        <time>2022-06-27T11:08:37Z</time>
      </trkpt>
      <trkpt lat="42.3335240" lon="-3.5662480">
        <ele>917.6</ele>
        <time>2022-06-27T11:08:38Z</time>
      </trkpt>
      <trkpt lat="42.3335370" lon="-3.5664740">
        <ele>917.6</ele>
        <time>2022-06-27T11:08:39Z</time>
      </trkpt>
      <trkpt lat="42.3335460" lon="-3.5666240">
        <ele>917.6</ele>
        <time>2022-06-27T11:08:40Z</time>
      </trkpt>
      <trkpt lat="42.3335570" lon="-3.5667750">
        <ele>917.6</ele>
        <time>2022-06-27T11:08:41Z</time>
      </trkpt>
      <trkpt lat="42.3335680" lon="-3.5669270">
        <ele>917.4</ele>
        <time>2022-06-27T11:08:42Z</time>
      </trkpt>
      <trkpt lat="42.3335800" lon="-3.5670790">
        <ele>917.4</ele>
        <time>2022-06-27T11:08:43Z</time>
      </trkpt>
      <trkpt lat="42.3335930" lon="-3.5672330">
        <ele>917.2</ele>
        <time>2022-06-27T11:08:44Z</time>
      </trkpt>
      <trkpt lat="42.3336050" lon="-3.5673850">
        <ele>917.2</ele>
        <time>2022-06-27T11:08:45Z</time>
      </trkpt>
      <trkpt lat="42.3336170" lon="-3.5675390">
        <ele>917.0</ele>
        <time>2022-06-27T11:08:46Z</time>
      </trkpt>
      <trkpt lat="42.3336310" lon="-3.5676930">
        <ele>916.8</ele>
        <time>2022-06-27T11:08:47Z</time>
      </trkpt>
      <trkpt lat="42.3336460" lon="-3.5678470">
        <ele>916.8</ele>
        <time>2022-06-27T11:08:48Z</time>
      </trkpt>
      <trkpt lat="42.3336640" lon="-3.5679990">
        <ele>916.8</ele>
        <time>2022-06-27T11:08:49Z</time>
      </trkpt>
      <trkpt lat="42.3336820" lon="-3.5681510">
        <ele>916.8</ele>
        <time>2022-06-27T11:08:50Z</time>
      </trkpt>
      <trkpt lat="42.3337010" lon="-3.5683040">
        <ele>916.8</ele>
        <time>2022-06-27T11:08:51Z</time>
      </trkpt>
      <trkpt lat="42.3337220" lon="-3.5684570">
        <ele>916.8</ele>
        <time>2022-06-27T11:08:52Z</time>
      </trkpt>
      <trkpt lat="42.3337450" lon="-3.5686100">
        <ele>916.8</ele>
        <time>2022-06-27T11:08:53Z</time>
      </trkpt>
      <trkpt lat="42.3337710" lon="-3.5687950">
        <ele>917.0</ele>
        <time>2022-06-27T11:08:54Z</time>
      </trkpt>
      <trkpt lat="42.3337940" lon="-3.5689510">
        <ele>917.0</ele>
        <time>2022-06-27T11:08:55Z</time>
      </trkpt>
      <trkpt lat="42.3338140" lon="-3.5690750">
        <ele>917.0</ele>
        <time>2022-06-27T11:08:56Z</time>
      </trkpt>
      <trkpt lat="42.3338420" lon="-3.5692280">
        <ele>916.6</ele>
        <time>2022-06-27T11:08:57Z</time>
      </trkpt>
      <trkpt lat="42.3338740" lon="-3.5694140">
        <ele>916.6</ele>
        <time>2022-06-27T11:08:58Z</time>
      </trkpt>
      <trkpt lat="42.3339000" lon="-3.5695670">
        <ele>916.6</ele>
        <time>2022-06-27T11:08:59Z</time>
      </trkpt>
      <trkpt lat="42.3339270" lon="-3.5697200">
        <ele>916.4</ele>
        <time>2022-06-27T11:09:00Z</time>
      </trkpt>
      <trkpt lat="42.3339490" lon="-3.5698410">
        <ele>916.2</ele>
        <time>2022-06-27T11:09:01Z</time>
      </trkpt>
      <trkpt lat="42.3339760" lon="-3.5699920">
        <ele>916.2</ele>
        <time>2022-06-27T11:09:02Z</time>
      </trkpt>
      <trkpt lat="42.3340110" lon="-3.5701720">
        <ele>916.2</ele>
        <time>2022-06-27T11:09:03Z</time>
      </trkpt>
      <trkpt lat="42.3340300" lon="-3.5702760">
        <ele>916.0</ele>
        <time>2022-06-27T11:09:04Z</time>
      </trkpt>
      <trkpt lat="42.3340490" lon="-3.5703800">
        <ele>915.8</ele>
        <time>2022-06-27T11:09:05Z</time>
      </trkpt>
      <trkpt lat="42.3340870" lon="-3.5705870">
        <ele>915.6</ele>
        <time>2022-06-27T11:09:06Z</time>
      </trkpt>
      <trkpt lat="42.3341130" lon="-3.5707340">
        <ele>915.2</ele>
        <time>2022-06-27T11:09:07Z</time>
      </trkpt>
      <trkpt lat="42.3341400" lon="-3.5708810">
        <ele>914.8</ele>
        <time>2022-06-27T11:09:08Z</time>
      </trkpt>
      <trkpt lat="42.3341730" lon="-3.5710560">
        <ele>914.8</ele>
        <time>2022-06-27T11:09:09Z</time>
      </trkpt>
      <trkpt lat="42.3342010" lon="-3.5712030">
        <ele>914.6</ele>
        <time>2022-06-27T11:09:10Z</time>
      </trkpt>
      <trkpt lat="42.3342230" lon="-3.5713210">
        <ele>914.6</ele>
        <time>2022-06-27T11:09:11Z</time>
      </trkpt>
      <trkpt lat="42.3342360" lon="-3.5713950">
        <ele>914.4</ele>
        <time>2022-06-27T11:09:12Z</time>
      </trkpt>
      <trkpt lat="42.3342490" lon="-3.5714690">
        <ele>914.4</ele>
        <time>2022-06-27T11:09:13Z</time>
      </trkpt>
      <trkpt lat="42.3342940" lon="-3.5717290">
        <ele>914.4</ele>
        <time>2022-06-27T11:09:14Z</time>
      </trkpt>
      <trkpt lat="42.3343130" lon="-3.5718420">
        <ele>913.8</ele>
        <time>2022-06-27T11:09:15Z</time>
      </trkpt>
      <trkpt lat="42.3343510" lon="-3.5720670">
        <ele>913.8</ele>
        <time>2022-06-27T11:09:16Z</time>
      </trkpt>
      <trkpt lat="42.3343710" lon="-3.5721780">
        <ele>913.8</ele>
        <time>2022-06-27T11:09:17Z</time>
      </trkpt>
      <trkpt lat="42.3343900" lon="-3.5722900">
        <ele>913.8</ele>
        <time>2022-06-27T11:09:18Z</time>
      </trkpt>
      <trkpt lat="42.3344290" lon="-3.5725130">
        <ele>913.8</ele>
        <time>2022-06-27T11:09:19Z</time>
      </trkpt>
      <trkpt lat="42.3344420" lon="-3.5725860">
        <ele>914.0</ele>
        <time>2022-06-27T11:09:20Z</time>
      </trkpt>
      <trkpt lat="42.3344550" lon="-3.5726600">
        <ele>914.0</ele>
        <time>2022-06-27T11:09:21Z</time>
      </trkpt>
      <trkpt lat="42.3344940" lon="-3.5728800">
        <ele>913.8</ele>
        <time>2022-06-27T11:09:22Z</time>
      </trkpt>
      <trkpt lat="42.3345070" lon="-3.5729530">
        <ele>913.6</ele>
        <time>2022-06-27T11:09:23Z</time>
      </trkpt>
      <trkpt lat="42.3345450" lon="-3.5731730">
        <ele>913.4</ele>
        <time>2022-06-27T11:09:24Z</time>
      </trkpt>
      <trkpt lat="42.3345580" lon="-3.5732460">
        <ele>913.4</ele>
        <time>2022-06-27T11:09:25Z</time>
      </trkpt>
      <trkpt lat="42.3345840" lon="-3.5733920">
        <ele>913.2</ele>
        <time>2022-06-27T11:09:26Z</time>
      </trkpt>
      <trkpt lat="42.3346240" lon="-3.5736110">
        <ele>913.2</ele>
        <time>2022-06-27T11:09:27Z</time>
      </trkpt>
      <trkpt lat="42.3346640" lon="-3.5738310">
        <ele>913.2</ele>
        <time>2022-06-27T11:09:28Z</time>
      </trkpt>
      <trkpt lat="42.3346930" lon="-3.5740070">
        <ele>913.0</ele>
        <time>2022-06-27T11:09:29Z</time>
      </trkpt>
      <trkpt lat="42.3347110" lon="-3.5741250">
        <ele>913.0</ele>
        <time>2022-06-27T11:09:30Z</time>
      </trkpt>
      <trkpt lat="42.3347320" lon="-3.5742700">
        <ele>912.8</ele>
        <time>2022-06-27T11:09:31Z</time>
      </trkpt>
      <trkpt lat="42.3347540" lon="-3.5744130">
        <ele>912.8</ele>
        <time>2022-06-27T11:09:32Z</time>
      </trkpt>
      <trkpt lat="42.3347760" lon="-3.5745550">
        <ele>912.8</ele>
        <time>2022-06-27T11:09:33Z</time>
      </trkpt>
      <trkpt lat="42.3347970" lon="-3.5746970">
        <ele>912.8</ele>
        <time>2022-06-27T11:09:34Z</time>
      </trkpt>
      <trkpt lat="42.3348180" lon="-3.5748390">
        <ele>912.6</ele>
        <time>2022-06-27T11:09:35Z</time>
      </trkpt>
      <trkpt lat="42.3348410" lon="-3.5749810">
        <ele>912.6</ele>
        <time>2022-06-27T11:09:36Z</time>
      </trkpt>
      <trkpt lat="42.3348630" lon="-3.5751220">
        <ele>912.6</ele>
        <time>2022-06-27T11:09:37Z</time>
      </trkpt>
      <trkpt lat="42.3348840" lon="-3.5752630">
        <ele>912.6</ele>
        <time>2022-06-27T11:09:38Z</time>
      </trkpt>
      <trkpt lat="42.3349060" lon="-3.5754040">
        <ele>912.6</ele>
        <time>2022-06-27T11:09:39Z</time>
      </trkpt>
      <trkpt lat="42.3349290" lon="-3.5755450">
        <ele>912.4</ele>
        <time>2022-06-27T11:09:40Z</time>
      </trkpt>
      <trkpt lat="42.3349530" lon="-3.5756880">
        <ele>912.4</ele>
        <time>2022-06-27T11:09:41Z</time>
      </trkpt>
      <trkpt lat="42.3349770" lon="-3.5758300">
        <ele>912.4</ele>
        <time>2022-06-27T11:09:42Z</time>
      </trkpt>
      <trkpt lat="42.3350020" lon="-3.5759690">
        <ele>912.0</ele>
        <time>2022-06-27T11:09:43Z</time>
      </trkpt>
      <trkpt lat="42.3350280" lon="-3.5761080">
        <ele>911.8</ele>
        <time>2022-06-27T11:09:44Z</time>
      </trkpt>
      <trkpt lat="42.3350550" lon="-3.5762470">
        <ele>911.6</ele>
        <time>2022-06-27T11:09:45Z</time>
      </trkpt>
      <trkpt lat="42.3350810" lon="-3.5763850">
        <ele>911.6</ele>
        <time>2022-06-27T11:09:46Z</time>
      </trkpt>
      <trkpt lat="42.3351070" lon="-3.5765240">
        <ele>911.4</ele>
        <time>2022-06-27T11:09:47Z</time>
      </trkpt>
      <trkpt lat="42.3351330" lon="-3.5766650">
        <ele>911.2</ele>
        <time>2022-06-27T11:09:48Z</time>
      </trkpt>
      <trkpt lat="42.3351590" lon="-3.5768060">
        <ele>911.2</ele>
        <time>2022-06-27T11:09:49Z</time>
      </trkpt>
      <trkpt lat="42.3351850" lon="-3.5769470">
        <ele>911.4</ele>
        <time>2022-06-27T11:09:50Z</time>
      </trkpt>
      <trkpt lat="42.3352100" lon="-3.5770870">
        <ele>911.4</ele>
        <time>2022-06-27T11:09:51Z</time>
      </trkpt>
      <trkpt lat="42.3352340" lon="-3.5772290">
        <ele>911.4</ele>
        <time>2022-06-27T11:09:52Z</time>
      </trkpt>
      <trkpt lat="42.3352610" lon="-3.5773690">
        <ele>911.4</ele>
        <time>2022-06-27T11:09:53Z</time>
      </trkpt>
      <trkpt lat="42.3352870" lon="-3.5775100">
        <ele>911.4</ele>
        <time>2022-06-27T11:09:54Z</time>
      </trkpt>
      <trkpt lat="42.3353120" lon="-3.5776510">
        <ele>911.4</ele>
        <time>2022-06-27T11:09:55Z</time>
      </trkpt>
      <trkpt lat="42.3353370" lon="-3.5777930">
        <ele>911.4</ele>
        <time>2022-06-27T11:09:56Z</time>
      </trkpt>
      <trkpt lat="42.3353570" lon="-3.5779060">
        <ele>911.6</ele>
        <time>2022-06-27T11:09:57Z</time>
      </trkpt>
      <trkpt lat="42.3353780" lon="-3.5780190">
        <ele>911.6</ele>
        <time>2022-06-27T11:09:58Z</time>
      </trkpt>
      <trkpt lat="42.3354180" lon="-3.5782440">
        <ele>911.6</ele>
        <time>2022-06-27T11:09:59Z</time>
      </trkpt>
      <trkpt lat="42.3354390" lon="-3.5783570">
        <ele>911.6</ele>
        <time>2022-06-27T11:10:00Z</time>
      </trkpt>
      <trkpt lat="42.3354650" lon="-3.5784970">
        <ele>911.6</ele>
        <time>2022-06-27T11:10:01Z</time>
      </trkpt>
      <trkpt lat="42.3354890" lon="-3.5786370">
        <ele>911.6</ele>
        <time>2022-06-27T11:10:02Z</time>
      </trkpt>
      <trkpt lat="42.3355140" lon="-3.5787780">
        <ele>911.4</ele>
        <time>2022-06-27T11:10:03Z</time>
      </trkpt>
      <trkpt lat="42.3355410" lon="-3.5789210">
        <ele>911.2</ele>
        <time>2022-06-27T11:10:04Z</time>
      </trkpt>
      <trkpt lat="42.3355660" lon="-3.5790650">
        <ele>911.0</ele>
        <time>2022-06-27T11:10:05Z</time>
      </trkpt>
      <trkpt lat="42.3355920" lon="-3.5792070">
        <ele>910.8</ele>
        <time>2022-06-27T11:10:06Z</time>
      </trkpt>
      <trkpt lat="42.3356160" lon="-3.5793510">
        <ele>910.8</ele>
        <time>2022-06-27T11:10:07Z</time>
      </trkpt>
      <trkpt lat="42.3356410" lon="-3.5794930">
        <ele>910.4</ele>
        <time>2022-06-27T11:10:08Z</time>
      </trkpt>
      <trkpt lat="42.3356650" lon="-3.5796340">
        <ele>910.4</ele>
        <time>2022-06-27T11:10:09Z</time>
      </trkpt>
      <trkpt lat="42.3356890" lon="-3.5797760">
        <ele>910.0</ele>
        <time>2022-06-27T11:10:10Z</time>
      </trkpt>
      <trkpt lat="42.3357160" lon="-3.5799180">
        <ele>910.0</ele>
        <time>2022-06-27T11:10:11Z</time>
      </trkpt>
      <trkpt lat="42.3357410" lon="-3.5800600">
        <ele>910.0</ele>
        <time>2022-06-27T11:10:12Z</time>
      </trkpt>
      <trkpt lat="42.3357680" lon="-3.5802030">
        <ele>909.4</ele>
        <time>2022-06-27T11:10:13Z</time>
      </trkpt>
      <trkpt lat="42.3357930" lon="-3.5803450">
        <ele>909.2</ele>
        <time>2022-06-27T11:10:14Z</time>
      </trkpt>
      <trkpt lat="42.3358190" lon="-3.5804880">
        <ele>909.2</ele>
        <time>2022-06-27T11:10:15Z</time>
      </trkpt>
      <trkpt lat="42.3358440" lon="-3.5806290">
        <ele>909.2</ele>
        <time>2022-06-27T11:10:16Z</time>
      </trkpt>
      <trkpt lat="42.3358680" lon="-3.5807710">
        <ele>909.2</ele>
        <time>2022-06-27T11:10:17Z</time>
      </trkpt>
      <trkpt lat="42.3358930" lon="-3.5809130">
        <ele>909.2</ele>
        <time>2022-06-27T11:10:18Z</time>
      </trkpt>
      <trkpt lat="42.3359180" lon="-3.5810550">
        <ele>909.2</ele>
        <time>2022-06-27T11:10:19Z</time>
      </trkpt>
      <trkpt lat="42.3359430" lon="-3.5811960">
        <ele>909.2</ele>
        <time>2022-06-27T11:10:20Z</time>
      </trkpt>
      <trkpt lat="42.3359700" lon="-3.5813370">
        <ele>909.4</ele>
        <time>2022-06-27T11:10:21Z</time>
      </trkpt>
      <trkpt lat="42.3359890" lon="-3.5814430">
        <ele>909.2</ele>
        <time>2022-06-27T11:10:22Z</time>
      </trkpt>
      <trkpt lat="42.3360090" lon="-3.5815480">
        <ele>909.2</ele>
        <time>2022-06-27T11:10:23Z</time>
      </trkpt>
      <trkpt lat="42.3360470" lon="-3.5817580">
        <ele>909.0</ele>
        <time>2022-06-27T11:10:24Z</time>
      </trkpt>
      <trkpt lat="42.3360740" lon="-3.5819010">
        <ele>908.8</ele>
        <time>2022-06-27T11:10:25Z</time>
      </trkpt>
      <trkpt lat="42.3361000" lon="-3.5820450">
        <ele>908.6</ele>
        <time>2022-06-27T11:10:26Z</time>
      </trkpt>
      <trkpt lat="42.3361250" lon="-3.5821890">
        <ele>908.4</ele>
        <time>2022-06-27T11:10:27Z</time>
      </trkpt>
      <trkpt lat="42.3361500" lon="-3.5823340">
        <ele>908.2</ele>
        <time>2022-06-27T11:10:28Z</time>
      </trkpt>
      <trkpt lat="42.3361750" lon="-3.5824770">
        <ele>908.0</ele>
        <time>2022-06-27T11:10:29Z</time>
      </trkpt>
      <trkpt lat="42.3362000" lon="-3.5826200">
        <ele>908.0</ele>
        <time>2022-06-27T11:10:30Z</time>
      </trkpt>
      <trkpt lat="42.3362250" lon="-3.5827630">
        <ele>908.0</ele>
        <time>2022-06-27T11:10:31Z</time>
      </trkpt>
      <trkpt lat="42.3362520" lon="-3.5829080">
        <ele>907.8</ele>
        <time>2022-06-27T11:10:32Z</time>
      </trkpt>
      <trkpt lat="42.3362790" lon="-3.5830530">
        <ele>907.4</ele>
        <time>2022-06-27T11:10:33Z</time>
      </trkpt>
      <trkpt lat="42.3363050" lon="-3.5831970">
        <ele>907.4</ele>
        <time>2022-06-27T11:10:34Z</time>
      </trkpt>
      <trkpt lat="42.3363300" lon="-3.5833410">
        <ele>907.2</ele>
        <time>2022-06-27T11:10:35Z</time>
      </trkpt>
      <trkpt lat="42.3363560" lon="-3.5834840">
        <ele>907.2</ele>
        <time>2022-06-27T11:10:36Z</time>
      </trkpt>
      <trkpt lat="42.3363810" lon="-3.5836280">
        <ele>907.2</ele>
        <time>2022-06-27T11:10:37Z</time>
      </trkpt>
      <trkpt lat="42.3364070" lon="-3.5837720">
        <ele>907.2</ele>
        <time>2022-06-27T11:10:38Z</time>
      </trkpt>
      <trkpt lat="42.3364330" lon="-3.5839170">
        <ele>907.0</ele>
        <time>2022-06-27T11:10:39Z</time>
      </trkpt>
      <trkpt lat="42.3364520" lon="-3.5840260">
        <ele>906.8</ele>
        <time>2022-06-27T11:10:40Z</time>
      </trkpt>
      <trkpt lat="42.3364710" lon="-3.5841350">
        <ele>906.8</ele>
        <time>2022-06-27T11:10:41Z</time>
      </trkpt>
      <trkpt lat="42.3365100" lon="-3.5843530">
        <ele>906.6</ele>
        <time>2022-06-27T11:10:42Z</time>
      </trkpt>
      <trkpt lat="42.3365340" lon="-3.5844980">
        <ele>906.4</ele>
        <time>2022-06-27T11:10:43Z</time>
      </trkpt>
      <trkpt lat="42.3365590" lon="-3.5846420">
        <ele>906.6</ele>
        <time>2022-06-27T11:10:44Z</time>
      </trkpt>
      <trkpt lat="42.3365840" lon="-3.5847850">
        <ele>906.6</ele>
        <time>2022-06-27T11:10:45Z</time>
      </trkpt>
      <trkpt lat="42.3366100" lon="-3.5849280">
        <ele>906.8</ele>
        <time>2022-06-27T11:10:46Z</time>
      </trkpt>
      <trkpt lat="42.3366300" lon="-3.5850360">
        <ele>906.8</ele>
        <time>2022-06-27T11:10:47Z</time>
      </trkpt>
      <trkpt lat="42.3366500" lon="-3.5851450">
        <ele>906.8</ele>
        <time>2022-06-27T11:10:48Z</time>
      </trkpt>
      <trkpt lat="42.3366890" lon="-3.5853610">
        <ele>907.0</ele>
        <time>2022-06-27T11:10:49Z</time>
      </trkpt>
      <trkpt lat="42.3367160" lon="-3.5855060">
        <ele>907.0</ele>
        <time>2022-06-27T11:10:50Z</time>
      </trkpt>
      <trkpt lat="42.3367440" lon="-3.5856510">
        <ele>906.8</ele>
        <time>2022-06-27T11:10:51Z</time>
      </trkpt>
      <trkpt lat="42.3367700" lon="-3.5857950">
        <ele>906.8</ele>
        <time>2022-06-27T11:10:52Z</time>
      </trkpt>
      <trkpt lat="42.3367970" lon="-3.5859430">
        <ele>906.8</ele>
        <time>2022-06-27T11:10:53Z</time>
      </trkpt>
      <trkpt lat="42.3368240" lon="-3.5860890">
        <ele>906.8</ele>
        <time>2022-06-27T11:10:54Z</time>
      </trkpt>
      <trkpt lat="42.3368490" lon="-3.5862350">
        <ele>906.8</ele>
        <time>2022-06-27T11:10:55Z</time>
      </trkpt>
      <trkpt lat="42.3368690" lon="-3.5863450">
        <ele>906.8</ele>
        <time>2022-06-27T11:10:56Z</time>
      </trkpt>
      <trkpt lat="42.3368890" lon="-3.5864540">
        <ele>906.8</ele>
        <time>2022-06-27T11:10:57Z</time>
      </trkpt>
      <trkpt lat="42.3369290" lon="-3.5866720">
        <ele>906.8</ele>
        <time>2022-06-27T11:10:58Z</time>
      </trkpt>
      <trkpt lat="42.3369540" lon="-3.5868150">
        <ele>906.4</ele>
        <time>2022-06-27T11:10:59Z</time>
      </trkpt>
      <trkpt lat="42.3369800" lon="-3.5869590">
        <ele>906.4</ele>
        <time>2022-06-27T11:11:00Z</time>
      </trkpt>
      <trkpt lat="42.3370050" lon="-3.5871040">
        <ele>906.2</ele>
        <time>2022-06-27T11:11:01Z</time>
      </trkpt>
      <trkpt lat="42.3370300" lon="-3.5872490">
        <ele>906.0</ele>
        <time>2022-06-27T11:11:02Z</time>
      </trkpt>
      <trkpt lat="42.3370560" lon="-3.5873930">
        <ele>906.2</ele>
        <time>2022-06-27T11:11:03Z</time>
      </trkpt>
      <trkpt lat="42.3370810" lon="-3.5875360">
        <ele>906.0</ele>
        <time>2022-06-27T11:11:04Z</time>
      </trkpt>
      <trkpt lat="42.3371060" lon="-3.5876790">
        <ele>906.0</ele>
        <time>2022-06-27T11:11:05Z</time>
      </trkpt>
      <trkpt lat="42.3371310" lon="-3.5878210">
        <ele>905.8</ele>
        <time>2022-06-27T11:11:06Z</time>
      </trkpt>
      <trkpt lat="42.3371560" lon="-3.5879630">
        <ele>905.8</ele>
        <time>2022-06-27T11:11:07Z</time>
      </trkpt>
      <trkpt lat="42.3371820" lon="-3.5881060">
        <ele>905.8</ele>
        <time>2022-06-27T11:11:08Z</time>
      </trkpt>
      <trkpt lat="42.3372070" lon="-3.5882490">
        <ele>905.8</ele>
        <time>2022-06-27T11:11:09Z</time>
      </trkpt>
      <trkpt lat="42.3372330" lon="-3.5883900">
        <ele>905.6</ele>
        <time>2022-06-27T11:11:10Z</time>
      </trkpt>
      <trkpt lat="42.3372590" lon="-3.5885310">
        <ele>905.6</ele>
        <time>2022-06-27T11:11:11Z</time>
      </trkpt>
      <trkpt lat="42.3372840" lon="-3.5886720">
        <ele>905.6</ele>
        <time>2022-06-27T11:11:12Z</time>
      </trkpt>
      <trkpt lat="42.3373090" lon="-3.5888130">
        <ele>905.8</ele>
        <time>2022-06-27T11:11:13Z</time>
      </trkpt>
      <trkpt lat="42.3373340" lon="-3.5889550">
        <ele>905.8</ele>
        <time>2022-06-27T11:11:14Z</time>
      </trkpt>
      <trkpt lat="42.3373590" lon="-3.5890980">
        <ele>905.8</ele>
        <time>2022-06-27T11:11:15Z</time>
      </trkpt>
      <trkpt lat="42.3373840" lon="-3.5892410">
        <ele>905.8</ele>
        <time>2022-06-27T11:11:16Z</time>
      </trkpt>
      <trkpt lat="42.3374100" lon="-3.5893850">
        <ele>905.8</ele>
        <time>2022-06-27T11:11:17Z</time>
      </trkpt>
      <trkpt lat="42.3374360" lon="-3.5895280">
        <ele>905.8</ele>
        <time>2022-06-27T11:11:18Z</time>
      </trkpt>
      <trkpt lat="42.3374610" lon="-3.5896700">
        <ele>905.6</ele>
        <time>2022-06-27T11:11:19Z</time>
      </trkpt>
      <trkpt lat="42.3374870" lon="-3.5898120">
        <ele>905.6</ele>
        <time>2022-06-27T11:11:20Z</time>
      </trkpt>
      <trkpt lat="42.3375120" lon="-3.5899520">
        <ele>905.6</ele>
        <time>2022-06-27T11:11:21Z</time>
      </trkpt>
      <trkpt lat="42.3375390" lon="-3.5900900">
        <ele>905.6</ele>
        <time>2022-06-27T11:11:22Z</time>
      </trkpt>
      <trkpt lat="42.3375650" lon="-3.5902280">
        <ele>905.4</ele>
        <time>2022-06-27T11:11:23Z</time>
      </trkpt>
      <trkpt lat="42.3375900" lon="-3.5903670">
        <ele>905.4</ele>
        <time>2022-06-27T11:11:24Z</time>
      </trkpt>
      <trkpt lat="42.3376140" lon="-3.5905060">
        <ele>905.2</ele>
        <time>2022-06-27T11:11:25Z</time>
      </trkpt>
      <trkpt lat="42.3376390" lon="-3.5906460">
        <ele>905.0</ele>
        <time>2022-06-27T11:11:26Z</time>
      </trkpt>
      <trkpt lat="42.3376640" lon="-3.5907850">
        <ele>904.8</ele>
        <time>2022-06-27T11:11:27Z</time>
      </trkpt>
      <trkpt lat="42.3376820" lon="-3.5908890">
        <ele>904.6</ele>
        <time>2022-06-27T11:11:28Z</time>
      </trkpt>
      <trkpt lat="42.3377010" lon="-3.5909940">
        <ele>904.6</ele>
        <time>2022-06-27T11:11:29Z</time>
      </trkpt>
      <trkpt lat="42.3377380" lon="-3.5912040">
        <ele>904.4</ele>
        <time>2022-06-27T11:11:30Z</time>
      </trkpt>
      <trkpt lat="42.3377630" lon="-3.5913430">
        <ele>904.2</ele>
        <time>2022-06-27T11:11:31Z</time>
      </trkpt>
      <trkpt lat="42.3377880" lon="-3.5914840">
        <ele>904.2</ele>
        <time>2022-06-27T11:11:32Z</time>
      </trkpt>
      <trkpt lat="42.3378120" lon="-3.5916230">
        <ele>904.0</ele>
        <time>2022-06-27T11:11:33Z</time>
      </trkpt>
      <trkpt lat="42.3378430" lon="-3.5917890">
        <ele>904.0</ele>
        <time>2022-06-27T11:11:34Z</time>
      </trkpt>
      <trkpt lat="42.3378690" lon="-3.5919270">
        <ele>904.0</ele>
        <time>2022-06-27T11:11:35Z</time>
      </trkpt>
      <trkpt lat="42.3378910" lon="-3.5920360">
        <ele>904.0</ele>
        <time>2022-06-27T11:11:36Z</time>
      </trkpt>
      <trkpt lat="42.3379200" lon="-3.5921710">
        <ele>903.8</ele>
        <time>2022-06-27T11:11:37Z</time>
      </trkpt>
      <trkpt lat="42.3379480" lon="-3.5923070">
        <ele>903.8</ele>
        <time>2022-06-27T11:11:38Z</time>
      </trkpt>
      <trkpt lat="42.3379760" lon="-3.5924430">
        <ele>903.8</ele>
        <time>2022-06-27T11:11:39Z</time>
      </trkpt>
      <trkpt lat="42.3380100" lon="-3.5926050">
        <ele>903.8</ele>
        <time>2022-06-27T11:11:40Z</time>
      </trkpt>
      <trkpt lat="42.3380380" lon="-3.5927390">
        <ele>903.8</ele>
        <time>2022-06-27T11:11:41Z</time>
      </trkpt>
      <trkpt lat="42.3380610" lon="-3.5928470">
        <ele>903.6</ele>
        <time>2022-06-27T11:11:42Z</time>
      </trkpt>
      <trkpt lat="42.3380900" lon="-3.5929830">
        <ele>903.6</ele>
        <time>2022-06-27T11:11:43Z</time>
      </trkpt>
      <trkpt lat="42.3381170" lon="-3.5931170">
        <ele>903.6</ele>
        <time>2022-06-27T11:11:44Z</time>
      </trkpt>
      <trkpt lat="42.3381430" lon="-3.5932520">
        <ele>903.6</ele>
        <time>2022-06-27T11:11:45Z</time>
      </trkpt>
      <trkpt lat="42.3381740" lon="-3.5934150">
        <ele>903.6</ele>
        <time>2022-06-27T11:11:46Z</time>
      </trkpt>
      <trkpt lat="42.3381990" lon="-3.5935510">
        <ele>903.4</ele>
        <time>2022-06-27T11:11:47Z</time>
      </trkpt>
      <trkpt lat="42.3382190" lon="-3.5936590">
        <ele>903.2</ele>
        <time>2022-06-27T11:11:48Z</time>
      </trkpt>
      <trkpt lat="42.3382430" lon="-3.5937950">
        <ele>903.2</ele>
        <time>2022-06-27T11:11:49Z</time>
      </trkpt>
      <trkpt lat="42.3382730" lon="-3.5939590">
        <ele>903.2</ele>
        <time>2022-06-27T11:11:50Z</time>
      </trkpt>
      <trkpt lat="42.3382970" lon="-3.5940950">
        <ele>903.2</ele>
        <time>2022-06-27T11:11:51Z</time>
      </trkpt>
      <trkpt lat="42.3383220" lon="-3.5942300">
        <ele>903.2</ele>
        <time>2022-06-27T11:11:52Z</time>
      </trkpt>
      <trkpt lat="42.3383410" lon="-3.5943390">
        <ele>903.0</ele>
        <time>2022-06-27T11:11:53Z</time>
      </trkpt>
      <trkpt lat="42.3383640" lon="-3.5944740">
        <ele>903.0</ele>
        <time>2022-06-27T11:11:54Z</time>
      </trkpt>
      <trkpt lat="42.3383910" lon="-3.5946370">
        <ele>903.0</ele>
        <time>2022-06-27T11:11:55Z</time>
      </trkpt>
      <trkpt lat="42.3384150" lon="-3.5947720">
        <ele>902.8</ele>
        <time>2022-06-27T11:11:56Z</time>
      </trkpt>
      <trkpt lat="42.3384390" lon="-3.5949070">
        <ele>902.8</ele>
        <time>2022-06-27T11:11:57Z</time>
      </trkpt>
      <trkpt lat="42.3384590" lon="-3.5950170">
        <ele>902.8</ele>
        <time>2022-06-27T11:11:58Z</time>
      </trkpt>
      <trkpt lat="42.3384820" lon="-3.5951530">
        <ele>902.8</ele>
        <time>2022-06-27T11:11:59Z</time>
      </trkpt>
      <trkpt lat="42.3385040" lon="-3.5952880">
        <ele>902.8</ele>
        <time>2022-06-27T11:12:00Z</time>
      </trkpt>
      <trkpt lat="42.3385320" lon="-3.5954510">
        <ele>902.6</ele>
        <time>2022-06-27T11:12:01Z</time>
      </trkpt>
      <trkpt lat="42.3385560" lon="-3.5955860">
        <ele>902.6</ele>
        <time>2022-06-27T11:12:02Z</time>
      </trkpt>
      <trkpt lat="42.3385790" lon="-3.5957220">
        <ele>902.4</ele>
        <time>2022-06-27T11:12:03Z</time>
      </trkpt>
      <trkpt lat="42.3385970" lon="-3.5958290">
        <ele>902.4</ele>
        <time>2022-06-27T11:12:04Z</time>
      </trkpt>
      <trkpt lat="42.3386210" lon="-3.5959610">
        <ele>902.2</ele>
        <time>2022-06-27T11:12:05Z</time>
      </trkpt>
      <trkpt lat="42.3386500" lon="-3.5961160">
        <ele>902.2</ele>
        <time>2022-06-27T11:12:06Z</time>
      </trkpt>
      <trkpt lat="42.3386750" lon="-3.5962450">
        <ele>902.2</ele>
        <time>2022-06-27T11:12:07Z</time>
      </trkpt>
      <trkpt lat="42.3386980" lon="-3.5963740">
        <ele>902.2</ele>
        <time>2022-06-27T11:12:08Z</time>
      </trkpt>
      <trkpt lat="42.3387160" lon="-3.5964770">
        <ele>902.2</ele>
        <time>2022-06-27T11:12:09Z</time>
      </trkpt>
      <trkpt lat="42.3387440" lon="-3.5966330">
        <ele>902.2</ele>
        <time>2022-06-27T11:12:10Z</time>
      </trkpt>
      <trkpt lat="42.3387690" lon="-3.5967610">
        <ele>902.2</ele>
        <time>2022-06-27T11:12:11Z</time>
      </trkpt>
      <trkpt lat="42.3387930" lon="-3.5968900">
        <ele>902.0</ele>
        <time>2022-06-27T11:12:12Z</time>
      </trkpt>
      <trkpt lat="42.3388120" lon="-3.5969920">
        <ele>901.8</ele>
        <time>2022-06-27T11:12:13Z</time>
      </trkpt>
      <trkpt lat="42.3388350" lon="-3.5971210">
        <ele>901.8</ele>
        <time>2022-06-27T11:12:14Z</time>
      </trkpt>
      <trkpt lat="42.3388650" lon="-3.5972750">
        <ele>901.6</ele>
        <time>2022-06-27T11:12:15Z</time>
      </trkpt>
      <trkpt lat="42.3388910" lon="-3.5974030">
        <ele>901.4</ele>
        <time>2022-06-27T11:12:16Z</time>
      </trkpt>
      <trkpt lat="42.3389150" lon="-3.5975330">
        <ele>901.4</ele>
        <time>2022-06-27T11:12:17Z</time>
      </trkpt>
      <trkpt lat="42.3389340" lon="-3.5976360">
        <ele>901.2</ele>
        <time>2022-06-27T11:12:18Z</time>
      </trkpt>
      <trkpt lat="42.3389580" lon="-3.5977660">
        <ele>901.2</ele>
        <time>2022-06-27T11:12:19Z</time>
      </trkpt>
      <trkpt lat="42.3389850" lon="-3.5979230">
        <ele>901.0</ele>
        <time>2022-06-27T11:12:20Z</time>
      </trkpt>
      <trkpt lat="42.3390070" lon="-3.5980540">
        <ele>901.0</ele>
        <time>2022-06-27T11:12:21Z</time>
      </trkpt>
      <trkpt lat="42.3390290" lon="-3.5981840">
        <ele>900.6</ele>
        <time>2022-06-27T11:12:22Z</time>
      </trkpt>
      <trkpt lat="42.3390460" lon="-3.5982880">
        <ele>900.6</ele>
        <time>2022-06-27T11:12:23Z</time>
      </trkpt>
      <trkpt lat="42.3390630" lon="-3.5983920">
        <ele>900.8</ele>
        <time>2022-06-27T11:12:24Z</time>
      </trkpt>
      <trkpt lat="42.3390800" lon="-3.5984950">
        <ele>900.8</ele>
        <time>2022-06-27T11:12:25Z</time>
      </trkpt>
      <trkpt lat="42.3391130" lon="-3.5987020">
        <ele>900.6</ele>
        <time>2022-06-27T11:12:26Z</time>
      </trkpt>
      <trkpt lat="42.3391290" lon="-3.5988060">
        <ele>900.6</ele>
        <time>2022-06-27T11:12:27Z</time>
      </trkpt>
      <trkpt lat="42.3391480" lon="-3.5989360">
        <ele>900.6</ele>
        <time>2022-06-27T11:12:28Z</time>
      </trkpt>
      <trkpt lat="42.3391710" lon="-3.5990920">
        <ele>900.6</ele>
        <time>2022-06-27T11:12:29Z</time>
      </trkpt>
      <trkpt lat="42.3391900" lon="-3.5992200">
        <ele>900.4</ele>
        <time>2022-06-27T11:12:30Z</time>
      </trkpt>
      <trkpt lat="42.3392080" lon="-3.5993470">
        <ele>900.4</ele>
        <time>2022-06-27T11:12:31Z</time>
      </trkpt>
      <trkpt lat="42.3392210" lon="-3.5994490">
        <ele>900.4</ele>
        <time>2022-06-27T11:12:32Z</time>
      </trkpt>
      <trkpt lat="42.3392390" lon="-3.5995760">
        <ele>900.4</ele>
        <time>2022-06-27T11:12:33Z</time>
      </trkpt>
      <trkpt lat="42.3392630" lon="-3.5997280">
        <ele>900.4</ele>
        <time>2022-06-27T11:12:34Z</time>
      </trkpt>
      <trkpt lat="42.3392840" lon="-3.5998560">
        <ele>900.4</ele>
        <time>2022-06-27T11:12:35Z</time>
      </trkpt>
      <trkpt lat="42.3393050" lon="-3.5999830">
        <ele>900.6</ele>
        <time>2022-06-27T11:12:36Z</time>
      </trkpt>
      <trkpt lat="42.3393230" lon="-3.6000840">
        <ele>900.6</ele>
        <time>2022-06-27T11:12:37Z</time>
      </trkpt>
      <trkpt lat="42.3393460" lon="-3.6002110">
        <ele>900.6</ele>
        <time>2022-06-27T11:12:38Z</time>
      </trkpt>
      <trkpt lat="42.3393730" lon="-3.6003640">
        <ele>900.6</ele>
        <time>2022-06-27T11:12:39Z</time>
      </trkpt>
      <trkpt lat="42.3393950" lon="-3.6004900">
        <ele>900.4</ele>
        <time>2022-06-27T11:12:40Z</time>
      </trkpt>
      <trkpt lat="42.3394170" lon="-3.6006150">
        <ele>900.6</ele>
        <time>2022-06-27T11:12:41Z</time>
      </trkpt>
      <trkpt lat="42.3394340" lon="-3.6007160">
        <ele>900.6</ele>
        <time>2022-06-27T11:12:42Z</time>
      </trkpt>
      <trkpt lat="42.3394560" lon="-3.6008410">
        <ele>900.6</ele>
        <time>2022-06-27T11:12:43Z</time>
      </trkpt>
      <trkpt lat="42.3394830" lon="-3.6009920">
        <ele>900.6</ele>
        <time>2022-06-27T11:12:44Z</time>
      </trkpt>
      <trkpt lat="42.3395040" lon="-3.6011190">
        <ele>900.6</ele>
        <time>2022-06-27T11:12:45Z</time>
      </trkpt>
      <trkpt lat="42.3395210" lon="-3.6012230">
        <ele>900.6</ele>
        <time>2022-06-27T11:12:46Z</time>
      </trkpt>
      <trkpt lat="42.3395430" lon="-3.6013520">
        <ele>900.4</ele>
        <time>2022-06-27T11:12:47Z</time>
      </trkpt>
      <trkpt lat="42.3395710" lon="-3.6015070">
        <ele>900.4</ele>
        <time>2022-06-27T11:12:48Z</time>
      </trkpt>
      <trkpt lat="42.3395950" lon="-3.6016360">
        <ele>900.2</ele>
        <time>2022-06-27T11:12:49Z</time>
      </trkpt>
      <trkpt lat="42.3396190" lon="-3.6017670">
        <ele>900.2</ele>
        <time>2022-06-27T11:12:50Z</time>
      </trkpt>
      <trkpt lat="42.3396420" lon="-3.6018980">
        <ele>900.0</ele>
        <time>2022-06-27T11:12:51Z</time>
      </trkpt>
      <trkpt lat="42.3396610" lon="-3.6020030">
        <ele>899.8</ele>
        <time>2022-06-27T11:12:52Z</time>
      </trkpt>
      <trkpt lat="42.3396910" lon="-3.6021610">
        <ele>899.6</ele>
        <time>2022-06-27T11:12:53Z</time>
      </trkpt>
      <trkpt lat="42.3397140" lon="-3.6022930">
        <ele>899.6</ele>
        <time>2022-06-27T11:12:54Z</time>
      </trkpt>
      <trkpt lat="42.3397380" lon="-3.6024250">
        <ele>899.4</ele>
        <time>2022-06-27T11:12:55Z</time>
      </trkpt>
      <trkpt lat="42.3397570" lon="-3.6025320">
        <ele>899.4</ele>
        <time>2022-06-27T11:12:56Z</time>
      </trkpt>
      <trkpt lat="42.3397830" lon="-3.6026670">
        <ele>899.4</ele>
        <time>2022-06-27T11:12:57Z</time>
      </trkpt>
      <trkpt lat="42.3398130" lon="-3.6028290">
        <ele>899.4</ele>
        <time>2022-06-27T11:12:58Z</time>
      </trkpt>
      <trkpt lat="42.3398380" lon="-3.6029670">
        <ele>899.0</ele>
        <time>2022-06-27T11:12:59Z</time>
      </trkpt>
      <trkpt lat="42.3398580" lon="-3.6030750">
        <ele>899.0</ele>
        <time>2022-06-27T11:13:00Z</time>
      </trkpt>
      <trkpt lat="42.3398830" lon="-3.6032130">
        <ele>898.8</ele>
        <time>2022-06-27T11:13:01Z</time>
      </trkpt>
      <trkpt lat="42.3399140" lon="-3.6033770">
        <ele>898.6</ele>
        <time>2022-06-27T11:13:02Z</time>
      </trkpt>
      <trkpt lat="42.3399390" lon="-3.6035140">
        <ele>898.6</ele>
        <time>2022-06-27T11:13:03Z</time>
      </trkpt>
      <trkpt lat="42.3399640" lon="-3.6036500">
        <ele>898.6</ele>
        <time>2022-06-27T11:13:04Z</time>
      </trkpt>
      <trkpt lat="42.3399840" lon="-3.6037580">
        <ele>898.6</ele>
        <time>2022-06-27T11:13:05Z</time>
      </trkpt>
      <trkpt lat="42.3400090" lon="-3.6038940">
        <ele>898.8</ele>
        <time>2022-06-27T11:13:06Z</time>
      </trkpt>
      <trkpt lat="42.3400380" lon="-3.6040590">
        <ele>898.8</ele>
        <time>2022-06-27T11:13:07Z</time>
      </trkpt>
      <trkpt lat="42.3400630" lon="-3.6041970">
        <ele>898.8</ele>
        <time>2022-06-27T11:13:08Z</time>
      </trkpt>
      <trkpt lat="42.3400880" lon="-3.6043370">
        <ele>898.8</ele>
        <time>2022-06-27T11:13:09Z</time>
      </trkpt>
      <trkpt lat="42.3401080" lon="-3.6044490">
        <ele>898.8</ele>
        <time>2022-06-27T11:13:10Z</time>
      </trkpt>
      <trkpt lat="42.3401320" lon="-3.6045890">
        <ele>898.8</ele>
        <time>2022-06-27T11:13:11Z</time>
      </trkpt>
      <trkpt lat="42.3401630" lon="-3.6047590">
        <ele>898.8</ele>
        <time>2022-06-27T11:13:12Z</time>
      </trkpt>
      <trkpt lat="42.3401880" lon="-3.6049010">
        <ele>898.8</ele>
        <time>2022-06-27T11:13:13Z</time>
      </trkpt>
      <trkpt lat="42.3402140" lon="-3.6050440">
        <ele>898.8</ele>
        <time>2022-06-27T11:13:14Z</time>
      </trkpt>
      <trkpt lat="42.3402350" lon="-3.6051570">
        <ele>898.8</ele>
        <time>2022-06-27T11:13:15Z</time>
      </trkpt>
      <trkpt lat="42.3402660" lon="-3.6053290">
        <ele>898.6</ele>
        <time>2022-06-27T11:13:16Z</time>
      </trkpt>
      <trkpt lat="42.3402910" lon="-3.6054720">
        <ele>898.2</ele>
        <time>2022-06-27T11:13:17Z</time>
      </trkpt>
      <trkpt lat="42.3403160" lon="-3.6056150">
        <ele>898.2</ele>
        <time>2022-06-27T11:13:18Z</time>
      </trkpt>
      <trkpt lat="42.3403420" lon="-3.6057580">
        <ele>898.0</ele>
        <time>2022-06-27T11:13:19Z</time>
      </trkpt>
      <trkpt lat="42.3403680" lon="-3.6058990">
        <ele>897.8</ele>
        <time>2022-06-27T11:13:20Z</time>
      </trkpt>
      <trkpt lat="42.3403910" lon="-3.6060110">
        <ele>897.8</ele>
        <time>2022-06-27T11:13:21Z</time>
      </trkpt>
      <trkpt lat="42.3404220" lon="-3.6061820">
        <ele>897.8</ele>
        <time>2022-06-27T11:13:22Z</time>
      </trkpt>
      <trkpt lat="42.3404430" lon="-3.6062960">
        <ele>897.8</ele>
        <time>2022-06-27T11:13:23Z</time>
      </trkpt>
      <trkpt lat="42.3404680" lon="-3.6064380">
        <ele>897.6</ele>
        <time>2022-06-27T11:13:24Z</time>
      </trkpt>
      <trkpt lat="42.3404930" lon="-3.6065810">
        <ele>897.4</ele>
        <time>2022-06-27T11:13:25Z</time>
      </trkpt>
      <trkpt lat="42.3405210" lon="-3.6067520">
        <ele>897.4</ele>
        <time>2022-06-27T11:13:26Z</time>
      </trkpt>
      <trkpt lat="42.3405460" lon="-3.6068950">
        <ele>897.2</ele>
        <time>2022-06-27T11:13:27Z</time>
      </trkpt>
      <trkpt lat="42.3405720" lon="-3.6070370">
        <ele>897.0</ele>
        <time>2022-06-27T11:13:28Z</time>
      </trkpt>
      <trkpt lat="42.3405940" lon="-3.6071520">
        <ele>896.8</ele>
        <time>2022-06-27T11:13:29Z</time>
      </trkpt>
      <trkpt lat="42.3406140" lon="-3.6072650">
        <ele>896.8</ele>
        <time>2022-06-27T11:13:30Z</time>
      </trkpt>
      <trkpt lat="42.3406340" lon="-3.6073790">
        <ele>896.6</ele>
        <time>2022-06-27T11:13:31Z</time>
      </trkpt>
      <trkpt lat="42.3406730" lon="-3.6076060">
        <ele>896.4</ele>
        <time>2022-06-27T11:13:32Z</time>
      </trkpt>
      <trkpt lat="42.3406930" lon="-3.6077170">
        <ele>896.4</ele>
        <time>2022-06-27T11:13:33Z</time>
      </trkpt>
      <trkpt lat="42.3407180" lon="-3.6078560">
        <ele>896.4</ele>
        <time>2022-06-27T11:13:34Z</time>
      </trkpt>
      <trkpt lat="42.3407470" lon="-3.6080190">
        <ele>896.2</ele>
        <time>2022-06-27T11:13:35Z</time>
      </trkpt>
      <trkpt lat="42.3407700" lon="-3.6081530">
        <ele>895.8</ele>
        <time>2022-06-27T11:13:36Z</time>
      </trkpt>
      <trkpt lat="42.3407920" lon="-3.6082890">
        <ele>895.8</ele>
        <time>2022-06-27T11:13:37Z</time>
      </trkpt>
      <trkpt lat="42.3408110" lon="-3.6083980">
        <ele>895.6</ele>
        <time>2022-06-27T11:13:38Z</time>
      </trkpt>
      <trkpt lat="42.3408340" lon="-3.6085380">
        <ele>895.4</ele>
        <time>2022-06-27T11:13:39Z</time>
      </trkpt>
      <trkpt lat="42.3408620" lon="-3.6087040">
        <ele>895.4</ele>
        <time>2022-06-27T11:13:40Z</time>
      </trkpt>
      <trkpt lat="42.3408870" lon="-3.6088400">
        <ele>895.4</ele>
        <time>2022-06-27T11:13:41Z</time>
      </trkpt>
      <trkpt lat="42.3409100" lon="-3.6089650">
        <ele>895.4</ele>
        <time>2022-06-27T11:13:42Z</time>
      </trkpt>
      <trkpt lat="42.3409360" lon="-3.6090920">
        <ele>895.4</ele>
        <time>2022-06-27T11:13:43Z</time>
      </trkpt>
      <trkpt lat="42.3409570" lon="-3.6092040">
        <ele>895.4</ele>
        <time>2022-06-27T11:13:44Z</time>
      </trkpt>
      <trkpt lat="42.3409850" lon="-3.6093730">
        <ele>895.6</ele>
        <time>2022-06-27T11:13:45Z</time>
      </trkpt>
      <trkpt lat="42.3410100" lon="-3.6095140">
        <ele>895.6</ele>
        <time>2022-06-27T11:13:46Z</time>
      </trkpt>
      <trkpt lat="42.3410350" lon="-3.6096530">
        <ele>895.6</ele>
        <time>2022-06-27T11:13:47Z</time>
      </trkpt>
      <trkpt lat="42.3410550" lon="-3.6097650">
        <ele>895.6</ele>
        <time>2022-06-27T11:13:48Z</time>
      </trkpt>
      <trkpt lat="42.3410810" lon="-3.6099060">
        <ele>895.6</ele>
        <time>2022-06-27T11:13:49Z</time>
      </trkpt>
      <trkpt lat="42.3411110" lon="-3.6100760">
        <ele>895.6</ele>
        <time>2022-06-27T11:13:50Z</time>
      </trkpt>
      <trkpt lat="42.3411340" lon="-3.6102170">
        <ele>895.6</ele>
        <time>2022-06-27T11:13:51Z</time>
      </trkpt>
      <trkpt lat="42.3411530" lon="-3.6103310">
        <ele>895.4</ele>
        <time>2022-06-27T11:13:52Z</time>
      </trkpt>
      <trkpt lat="42.3411770" lon="-3.6104730">
        <ele>895.2</ele>
        <time>2022-06-27T11:13:53Z</time>
      </trkpt>
      <trkpt lat="42.3412070" lon="-3.6106420">
        <ele>895.2</ele>
        <time>2022-06-27T11:13:54Z</time>
      </trkpt>
      <trkpt lat="42.3412320" lon="-3.6107830">
        <ele>895.2</ele>
        <time>2022-06-27T11:13:55Z</time>
      </trkpt>
      <trkpt lat="42.3412570" lon="-3.6109220">
        <ele>895.2</ele>
        <time>2022-06-27T11:13:56Z</time>
      </trkpt>
      <trkpt lat="42.3412770" lon="-3.6110340">
        <ele>895.0</ele>
        <time>2022-06-27T11:13:57Z</time>
      </trkpt>
      <trkpt lat="42.3413020" lon="-3.6111710">
        <ele>894.8</ele>
        <time>2022-06-27T11:13:58Z</time>
      </trkpt>
      <trkpt lat="42.3413320" lon="-3.6113340">
        <ele>894.6</ele>
        <time>2022-06-27T11:13:59Z</time>
      </trkpt>
      <trkpt lat="42.3413570" lon="-3.6114700">
        <ele>894.4</ele>
        <time>2022-06-27T11:14:00Z</time>
      </trkpt>
      <trkpt lat="42.3413820" lon="-3.6116050">
        <ele>894.2</ele>
        <time>2022-06-27T11:14:01Z</time>
      </trkpt>
      <trkpt lat="42.3414060" lon="-3.6117410">
        <ele>894.0</ele>
        <time>2022-06-27T11:14:02Z</time>
      </trkpt>
      <trkpt lat="42.3414250" lon="-3.6118500">
        <ele>893.6</ele>
        <time>2022-06-27T11:14:03Z</time>
      </trkpt>
      <trkpt lat="42.3414500" lon="-3.6119860">
        <ele>893.4</ele>
        <time>2022-06-27T11:14:04Z</time>
      </trkpt>
      <trkpt lat="42.3414810" lon="-3.6121480">
        <ele>893.0</ele>
        <time>2022-06-27T11:14:05Z</time>
      </trkpt>
      <trkpt lat="42.3415050" lon="-3.6122850">
        <ele>892.8</ele>
        <time>2022-06-27T11:14:06Z</time>
      </trkpt>
      <trkpt lat="42.3415250" lon="-3.6123950">
        <ele>892.8</ele>
        <time>2022-06-27T11:14:07Z</time>
      </trkpt>
      <trkpt lat="42.3415550" lon="-3.6125600">
        <ele>892.4</ele>
        <time>2022-06-27T11:14:08Z</time>
      </trkpt>
      <trkpt lat="42.3415780" lon="-3.6126980">
        <ele>892.2</ele>
        <time>2022-06-27T11:14:09Z</time>
      </trkpt>
      <trkpt lat="42.3416020" lon="-3.6128340">
        <ele>892.0</ele>
        <time>2022-06-27T11:14:10Z</time>
      </trkpt>
      <trkpt lat="42.3416260" lon="-3.6129700">
        <ele>892.0</ele>
        <time>2022-06-27T11:14:11Z</time>
      </trkpt>
      <trkpt lat="42.3416450" lon="-3.6130780">
        <ele>891.8</ele>
        <time>2022-06-27T11:14:12Z</time>
      </trkpt>
      <trkpt lat="42.3416750" lon="-3.6132420">
        <ele>891.8</ele>
        <time>2022-06-27T11:14:13Z</time>
      </trkpt>
      <trkpt lat="42.3416990" lon="-3.6133780">
        <ele>891.6</ele>
        <time>2022-06-27T11:14:14Z</time>
      </trkpt>
      <trkpt lat="42.3417230" lon="-3.6135160">
        <ele>891.6</ele>
        <time>2022-06-27T11:14:15Z</time>
      </trkpt>
      <trkpt lat="42.3417410" lon="-3.6136260">
        <ele>891.6</ele>
        <time>2022-06-27T11:14:16Z</time>
      </trkpt>
      <trkpt lat="42.3417660" lon="-3.6137650">
        <ele>891.6</ele>
        <time>2022-06-27T11:14:17Z</time>
      </trkpt>
      <trkpt lat="42.3417960" lon="-3.6139310">
        <ele>891.6</ele>
        <time>2022-06-27T11:14:18Z</time>
      </trkpt>
      <trkpt lat="42.3418210" lon="-3.6140700">
        <ele>891.6</ele>
        <time>2022-06-27T11:14:19Z</time>
      </trkpt>
      <trkpt lat="42.3418460" lon="-3.6142100">
        <ele>891.4</ele>
        <time>2022-06-27T11:14:20Z</time>
      </trkpt>
      <trkpt lat="42.3418700" lon="-3.6143480">
        <ele>891.4</ele>
        <time>2022-06-27T11:14:21Z</time>
      </trkpt>
      <trkpt lat="42.3418900" lon="-3.6144600">
        <ele>891.4</ele>
        <time>2022-06-27T11:14:22Z</time>
      </trkpt>
      <trkpt lat="42.3419200" lon="-3.6146250">
        <ele>891.4</ele>
        <time>2022-06-27T11:14:23Z</time>
      </trkpt>
      <trkpt lat="42.3419450" lon="-3.6147630">
        <ele>891.2</ele>
        <time>2022-06-27T11:14:24Z</time>
      </trkpt>
      <trkpt lat="42.3419660" lon="-3.6148730">
        <ele>891.2</ele>
        <time>2022-06-27T11:14:25Z</time>
      </trkpt>
      <trkpt lat="42.3419900" lon="-3.6150120">
        <ele>891.2</ele>
        <time>2022-06-27T11:14:26Z</time>
      </trkpt>
      <trkpt lat="42.3420190" lon="-3.6151790">
        <ele>891.2</ele>
        <time>2022-06-27T11:14:27Z</time>
      </trkpt>
      <trkpt lat="42.3420450" lon="-3.6153170">
        <ele>891.2</ele>
        <time>2022-06-27T11:14:28Z</time>
      </trkpt>
      <trkpt lat="42.3420690" lon="-3.6154540">
        <ele>891.0</ele>
        <time>2022-06-27T11:14:29Z</time>
      </trkpt>
      <trkpt lat="42.3420890" lon="-3.6155640">
        <ele>890.8</ele>
        <time>2022-06-27T11:14:30Z</time>
      </trkpt>
      <trkpt lat="42.3421150" lon="-3.6157000">
        <ele>890.8</ele>
        <time>2022-06-27T11:14:31Z</time>
      </trkpt>
      <trkpt lat="42.3421440" lon="-3.6158620">
        <ele>890.8</ele>
        <time>2022-06-27T11:14:32Z</time>
      </trkpt>
      <trkpt lat="42.3421680" lon="-3.6159970">
        <ele>890.8</ele>
        <time>2022-06-27T11:14:33Z</time>
      </trkpt>
      <trkpt lat="42.3421950" lon="-3.6161330">
        <ele>890.8</ele>
        <time>2022-06-27T11:14:34Z</time>
      </trkpt>
      <trkpt lat="42.3422210" lon="-3.6162700">
        <ele>890.8</ele>
        <time>2022-06-27T11:14:35Z</time>
      </trkpt>
      <trkpt lat="42.3422410" lon="-3.6163780">
        <ele>890.8</ele>
        <time>2022-06-27T11:14:36Z</time>
      </trkpt>
      <trkpt lat="42.3422700" lon="-3.6165390">
        <ele>890.8</ele>
        <time>2022-06-27T11:14:37Z</time>
      </trkpt>
      <trkpt lat="42.3422940" lon="-3.6166750">
        <ele>890.8</ele>
        <time>2022-06-27T11:14:38Z</time>
      </trkpt>
      <trkpt lat="42.3423130" lon="-3.6167840">
        <ele>890.8</ele>
        <time>2022-06-27T11:14:39Z</time>
      </trkpt>
      <trkpt lat="42.3423380" lon="-3.6169210">
        <ele>891.0</ele>
        <time>2022-06-27T11:14:40Z</time>
      </trkpt>
      <trkpt lat="42.3423680" lon="-3.6170850">
        <ele>890.8</ele>
        <time>2022-06-27T11:14:41Z</time>
      </trkpt>
      <trkpt lat="42.3423920" lon="-3.6172200">
        <ele>890.8</ele>
        <time>2022-06-27T11:14:42Z</time>
      </trkpt>
      <trkpt lat="42.3424160" lon="-3.6173570">
        <ele>890.8</ele>
        <time>2022-06-27T11:14:43Z</time>
      </trkpt>
      <trkpt lat="42.3424340" lon="-3.6174670">
        <ele>890.8</ele>
        <time>2022-06-27T11:14:44Z</time>
      </trkpt>
      <trkpt lat="42.3424580" lon="-3.6176060">
        <ele>890.8</ele>
        <time>2022-06-27T11:14:45Z</time>
      </trkpt>
      <trkpt lat="42.3424880" lon="-3.6177710">
        <ele>890.8</ele>
        <time>2022-06-27T11:14:46Z</time>
      </trkpt>
      <trkpt lat="42.3425120" lon="-3.6179080">
        <ele>890.6</ele>
        <time>2022-06-27T11:14:47Z</time>
      </trkpt>
      <trkpt lat="42.3425370" lon="-3.6180450">
        <ele>890.6</ele>
        <time>2022-06-27T11:14:48Z</time>
      </trkpt>
      <trkpt lat="42.3425620" lon="-3.6181830">
        <ele>890.6</ele>
        <time>2022-06-27T11:14:49Z</time>
      </trkpt>
      <trkpt lat="42.3425830" lon="-3.6182950">
        <ele>890.6</ele>
        <time>2022-06-27T11:14:50Z</time>
      </trkpt>
      <trkpt lat="42.3426130" lon="-3.6184620">
        <ele>890.8</ele>
        <time>2022-06-27T11:14:51Z</time>
      </trkpt>
      <trkpt lat="42.3426390" lon="-3.6186020">
        <ele>890.6</ele>
        <time>2022-06-27T11:14:52Z</time>
      </trkpt>
      <trkpt lat="42.3426630" lon="-3.6187420">
        <ele>890.6</ele>
        <time>2022-06-27T11:14:53Z</time>
      </trkpt>
      <trkpt lat="42.3426830" lon="-3.6188560">
        <ele>890.6</ele>
        <time>2022-06-27T11:14:54Z</time>
      </trkpt>
      <trkpt lat="42.3427070" lon="-3.6189970">
        <ele>890.6</ele>
        <time>2022-06-27T11:14:55Z</time>
      </trkpt>
      <trkpt lat="42.3427360" lon="-3.6191640">
        <ele>890.8</ele>
        <time>2022-06-27T11:14:56Z</time>
      </trkpt>
      <trkpt lat="42.3427610" lon="-3.6193020">
        <ele>890.6</ele>
        <time>2022-06-27T11:14:57Z</time>
      </trkpt>
      <trkpt lat="42.3427820" lon="-3.6194110">
        <ele>890.6</ele>
        <time>2022-06-27T11:14:58Z</time>
      </trkpt>
      <trkpt lat="42.3428090" lon="-3.6195480">
        <ele>890.4</ele>
        <time>2022-06-27T11:14:59Z</time>
      </trkpt>
      <trkpt lat="42.3428370" lon="-3.6197090">
        <ele>890.4</ele>
        <time>2022-06-27T11:15:00Z</time>
      </trkpt>
      <trkpt lat="42.3428610" lon="-3.6198420">
        <ele>890.2</ele>
        <time>2022-06-27T11:15:01Z</time>
      </trkpt>
      <trkpt lat="42.3428850" lon="-3.6199720">
        <ele>890.2</ele>
        <time>2022-06-27T11:15:02Z</time>
      </trkpt>
      <trkpt lat="42.3429100" lon="-3.6201060">
        <ele>889.8</ele>
        <time>2022-06-27T11:15:03Z</time>
      </trkpt>
      <trkpt lat="42.3429310" lon="-3.6202410">
        <ele>889.6</ele>
        <time>2022-06-27T11:15:04Z</time>
      </trkpt>
      <trkpt lat="42.3429540" lon="-3.6203770">
        <ele>889.6</ele>
        <time>2022-06-27T11:15:05Z</time>
      </trkpt>
      <trkpt lat="42.3429780" lon="-3.6205110">
        <ele>889.4</ele>
        <time>2022-06-27T11:15:06Z</time>
      </trkpt>
      <trkpt lat="42.3430030" lon="-3.6206460">
        <ele>889.4</ele>
        <time>2022-06-27T11:15:07Z</time>
      </trkpt>
      <trkpt lat="42.3430270" lon="-3.6207830">
        <ele>889.2</ele>
        <time>2022-06-27T11:15:08Z</time>
      </trkpt>
      <trkpt lat="42.3430440" lon="-3.6208840">
        <ele>889.0</ele>
        <time>2022-06-27T11:15:09Z</time>
      </trkpt>
      <trkpt lat="42.3430600" lon="-3.6209860">
        <ele>889.0</ele>
        <time>2022-06-27T11:15:10Z</time>
      </trkpt>
      <trkpt lat="42.3430930" lon="-3.6211880">
        <ele>888.8</ele>
        <time>2022-06-27T11:15:11Z</time>
      </trkpt>
      <trkpt lat="42.3431180" lon="-3.6213250">
        <ele>888.8</ele>
        <time>2022-06-27T11:15:12Z</time>
      </trkpt>
      <trkpt lat="42.3431430" lon="-3.6214630">
        <ele>888.6</ele>
        <time>2022-06-27T11:15:13Z</time>
      </trkpt>
      <trkpt lat="42.3431680" lon="-3.6215980">
        <ele>888.6</ele>
        <time>2022-06-27T11:15:14Z</time>
      </trkpt>
      <trkpt lat="42.3431910" lon="-3.6217320">
        <ele>888.4</ele>
        <time>2022-06-27T11:15:15Z</time>
      </trkpt>
      <trkpt lat="42.3432170" lon="-3.6218690">
        <ele>888.4</ele>
        <time>2022-06-27T11:15:16Z</time>
      </trkpt>
      <trkpt lat="42.3432410" lon="-3.6220050">
        <ele>888.2</ele>
        <time>2022-06-27T11:15:17Z</time>
      </trkpt>
      <trkpt lat="42.3432640" lon="-3.6221400">
        <ele>888.2</ele>
        <time>2022-06-27T11:15:18Z</time>
      </trkpt>
      <trkpt lat="42.3432880" lon="-3.6222750">
        <ele>888.2</ele>
        <time>2022-06-27T11:15:19Z</time>
      </trkpt>
      <trkpt lat="42.3433110" lon="-3.6224090">
        <ele>888.2</ele>
        <time>2022-06-27T11:15:20Z</time>
      </trkpt>
      <trkpt lat="42.3433330" lon="-3.6225430">
        <ele>888.2</ele>
        <time>2022-06-27T11:15:21Z</time>
      </trkpt>
      <trkpt lat="42.3433510" lon="-3.6226500">
        <ele>888.2</ele>
        <time>2022-06-27T11:15:22Z</time>
      </trkpt>
      <trkpt lat="42.3433800" lon="-3.6228090">
        <ele>888.2</ele>
        <time>2022-06-27T11:15:23Z</time>
      </trkpt>
      <trkpt lat="42.3434040" lon="-3.6229430">
        <ele>888.0</ele>
        <time>2022-06-27T11:15:24Z</time>
      </trkpt>
      <trkpt lat="42.3434280" lon="-3.6230760">
        <ele>888.0</ele>
        <time>2022-06-27T11:15:25Z</time>
      </trkpt>
      <trkpt lat="42.3434530" lon="-3.6232100">
        <ele>888.0</ele>
        <time>2022-06-27T11:15:26Z</time>
      </trkpt>
      <trkpt lat="42.3434760" lon="-3.6233440">
        <ele>888.0</ele>
        <time>2022-06-27T11:15:27Z</time>
      </trkpt>
      <trkpt lat="42.3435010" lon="-3.6234780">
        <ele>888.0</ele>
        <time>2022-06-27T11:15:28Z</time>
      </trkpt>
      <trkpt lat="42.3435240" lon="-3.6236110">
        <ele>888.0</ele>
        <time>2022-06-27T11:15:29Z</time>
      </trkpt>
      <trkpt lat="42.3435460" lon="-3.6237420">
        <ele>888.2</ele>
        <time>2022-06-27T11:15:30Z</time>
      </trkpt>
      <trkpt lat="42.3435700" lon="-3.6238720">
        <ele>888.0</ele>
        <time>2022-06-27T11:15:31Z</time>
      </trkpt>
      <trkpt lat="42.3435930" lon="-3.6240060">
        <ele>888.0</ele>
        <time>2022-06-27T11:15:32Z</time>
      </trkpt>
      <trkpt lat="42.3436160" lon="-3.6241390">
        <ele>888.0</ele>
        <time>2022-06-27T11:15:33Z</time>
      </trkpt>
      <trkpt lat="42.3436400" lon="-3.6242700">
        <ele>887.8</ele>
        <time>2022-06-27T11:15:34Z</time>
      </trkpt>
      <trkpt lat="42.3436630" lon="-3.6244010">
        <ele>887.8</ele>
        <time>2022-06-27T11:15:35Z</time>
      </trkpt>
      <trkpt lat="42.3436820" lon="-3.6245080">
        <ele>887.6</ele>
        <time>2022-06-27T11:15:36Z</time>
      </trkpt>
      <trkpt lat="42.3437120" lon="-3.6246650">
        <ele>887.6</ele>
        <time>2022-06-27T11:15:37Z</time>
      </trkpt>
      <trkpt lat="42.3437350" lon="-3.6247940">
        <ele>887.4</ele>
        <time>2022-06-27T11:15:38Z</time>
      </trkpt>
      <trkpt lat="42.3437570" lon="-3.6249200">
        <ele>887.4</ele>
        <time>2022-06-27T11:15:39Z</time>
      </trkpt>
      <trkpt lat="42.3437800" lon="-3.6250460">
        <ele>887.2</ele>
        <time>2022-06-27T11:15:40Z</time>
      </trkpt>
      <trkpt lat="42.3438010" lon="-3.6251710">
        <ele>887.0</ele>
        <time>2022-06-27T11:15:41Z</time>
      </trkpt>
      <trkpt lat="42.3438210" lon="-3.6252930">
        <ele>887.0</ele>
        <time>2022-06-27T11:15:42Z</time>
      </trkpt>
      <trkpt lat="42.3438410" lon="-3.6254110">
        <ele>887.0</ele>
        <time>2022-06-27T11:15:43Z</time>
      </trkpt>
      <trkpt lat="42.3438610" lon="-3.6255270">
        <ele>887.0</ele>
        <time>2022-06-27T11:15:44Z</time>
      </trkpt>
      <trkpt lat="42.3438780" lon="-3.6256400">
        <ele>887.0</ele>
        <time>2022-06-27T11:15:45Z</time>
      </trkpt>
      <trkpt lat="42.3438930" lon="-3.6257510">
        <ele>887.0</ele>
        <time>2022-06-27T11:15:46Z</time>
      </trkpt>
      <trkpt lat="42.3439030" lon="-3.6258620">
        <ele>887.0</ele>
        <time>2022-06-27T11:15:47Z</time>
      </trkpt>
      <trkpt lat="42.3439100" lon="-3.6259740">
        <ele>887.0</ele>
        <time>2022-06-27T11:15:48Z</time>
      </trkpt>
      <trkpt lat="42.3439080" lon="-3.6260840">
        <ele>887.0</ele>
        <time>2022-06-27T11:15:49Z</time>
      </trkpt>
      <trkpt lat="42.3439030" lon="-3.6261950">
        <ele>886.8</ele>
        <time>2022-06-27T11:15:50Z</time>
      </trkpt>
      <trkpt lat="42.3438980" lon="-3.6263030">
        <ele>886.8</ele>
        <time>2022-06-27T11:15:51Z</time>
      </trkpt>
      <trkpt lat="42.3438910" lon="-3.6264100">
        <ele>886.8</ele>
        <time>2022-06-27T11:15:52Z</time>
      </trkpt>
      <trkpt lat="42.3438850" lon="-3.6265170">
        <ele>886.8</ele>
        <time>2022-06-27T11:15:53Z</time>
      </trkpt>
      <trkpt lat="42.3438770" lon="-3.6266290">
        <ele>887.0</ele>
        <time>2022-06-27T11:15:54Z</time>
      </trkpt>
      <trkpt lat="42.3438680" lon="-3.6267440">
        <ele>887.0</ele>
        <time>2022-06-27T11:15:55Z</time>
      </trkpt>
      <trkpt lat="42.3438590" lon="-3.6268570">
        <ele>887.0</ele>
        <time>2022-06-27T11:15:56Z</time>
      </trkpt>
      <trkpt lat="42.3438500" lon="-3.6269700">
        <ele>887.0</ele>
        <time>2022-06-27T11:15:57Z</time>
      </trkpt>
      <trkpt lat="42.3438400" lon="-3.6270810">
        <ele>887.0</ele>
        <time>2022-06-27T11:15:58Z</time>
      </trkpt>
      <trkpt lat="42.3438290" lon="-3.6271910">
        <ele>887.0</ele>
        <time>2022-06-27T11:15:59Z</time>
      </trkpt>
      <trkpt lat="42.3438200" lon="-3.6273030">
        <ele>887.0</ele>
        <time>2022-06-27T11:16:00Z</time>
      </trkpt>
      <trkpt lat="42.3438120" lon="-3.6274180">
        <ele>887.2</ele>
        <time>2022-06-27T11:16:01Z</time>
      </trkpt>
      <trkpt lat="42.3438030" lon="-3.6275350">
        <ele>887.2</ele>
        <time>2022-06-27T11:16:02Z</time>
      </trkpt>
      <trkpt lat="42.3437940" lon="-3.6276560">
        <ele>887.2</ele>
        <time>2022-06-27T11:16:03Z</time>
      </trkpt>
      <trkpt lat="42.3437890" lon="-3.6277800">
        <ele>887.2</ele>
        <time>2022-06-27T11:16:04Z</time>
      </trkpt>
      <trkpt lat="42.3437850" lon="-3.6279030">
        <ele>887.2</ele>
        <time>2022-06-27T11:16:05Z</time>
      </trkpt>
      <trkpt lat="42.3437840" lon="-3.6280280">
        <ele>887.4</ele>
        <time>2022-06-27T11:16:06Z</time>
      </trkpt>
      <trkpt lat="42.3437860" lon="-3.6281540">
        <ele>887.4</ele>
        <time>2022-06-27T11:16:07Z</time>
      </trkpt>
      <trkpt lat="42.3437890" lon="-3.6282780">
        <ele>887.2</ele>
        <time>2022-06-27T11:16:08Z</time>
      </trkpt>
      <trkpt lat="42.3437910" lon="-3.6284030">
        <ele>887.2</ele>
        <time>2022-06-27T11:16:09Z</time>
      </trkpt>
      <trkpt lat="42.3437960" lon="-3.6285290">
        <ele>887.0</ele>
        <time>2022-06-27T11:16:10Z</time>
      </trkpt>
      <trkpt lat="42.3438030" lon="-3.6286550">
        <ele>887.0</ele>
        <time>2022-06-27T11:16:11Z</time>
      </trkpt>
      <trkpt lat="42.3438110" lon="-3.6287800">
        <ele>887.0</ele>
        <time>2022-06-27T11:16:12Z</time>
      </trkpt>
      <trkpt lat="42.3438190" lon="-3.6289060">
        <ele>886.8</ele>
        <time>2022-06-27T11:16:13Z</time>
      </trkpt>
      <trkpt lat="42.3438270" lon="-3.6290330">
        <ele>886.6</ele>
        <time>2022-06-27T11:16:14Z</time>
      </trkpt>
      <trkpt lat="42.3438340" lon="-3.6291620">
        <ele>886.4</ele>
        <time>2022-06-27T11:16:15Z</time>
      </trkpt>
      <trkpt lat="42.3438430" lon="-3.6292900">
        <ele>886.4</ele>
        <time>2022-06-27T11:16:16Z</time>
      </trkpt>
      <trkpt lat="42.3438530" lon="-3.6294190">
        <ele>886.2</ele>
        <time>2022-06-27T11:16:17Z</time>
      </trkpt>
      <trkpt lat="42.3438630" lon="-3.6295480">
        <ele>886.0</ele>
        <time>2022-06-27T11:16:18Z</time>
      </trkpt>
      <trkpt lat="42.3438700" lon="-3.6296770">
        <ele>886.0</ele>
        <time>2022-06-27T11:16:19Z</time>
      </trkpt>
      <trkpt lat="42.3438790" lon="-3.6298070">
        <ele>886.0</ele>
        <time>2022-06-27T11:16:20Z</time>
      </trkpt>
      <trkpt lat="42.3438860" lon="-3.6299380">
        <ele>886.2</ele>
        <time>2022-06-27T11:16:21Z</time>
      </trkpt>
      <trkpt lat="42.3438940" lon="-3.6300680">
        <ele>886.2</ele>
        <time>2022-06-27T11:16:22Z</time>
      </trkpt>
      <trkpt lat="42.3439010" lon="-3.6301980">
        <ele>886.2</ele>
        <time>2022-06-27T11:16:23Z</time>
      </trkpt>
      <trkpt lat="42.3439090" lon="-3.6303290">
        <ele>886.2</ele>
        <time>2022-06-27T11:16:24Z</time>
      </trkpt>
      <trkpt lat="42.3439180" lon="-3.6304610">
        <ele>886.2</ele>
        <time>2022-06-27T11:16:25Z</time>
      </trkpt>
      <trkpt lat="42.3439250" lon="-3.6305920">
        <ele>886.2</ele>
        <time>2022-06-27T11:16:26Z</time>
      </trkpt>
      <trkpt lat="42.3439310" lon="-3.6306900">
        <ele>886.2</ele>
        <time>2022-06-27T11:16:27Z</time>
      </trkpt>
      <trkpt lat="42.3439370" lon="-3.6307880">
        <ele>886.2</ele>
        <time>2022-06-27T11:16:28Z</time>
      </trkpt>
      <trkpt lat="42.3439490" lon="-3.6309840">
        <ele>886.2</ele>
        <time>2022-06-27T11:16:29Z</time>
      </trkpt>
      <trkpt lat="42.3439570" lon="-3.6311140">
        <ele>886.2</ele>
        <time>2022-06-27T11:16:30Z</time>
      </trkpt>
      <trkpt lat="42.3439650" lon="-3.6312440">
        <ele>886.2</ele>
        <time>2022-06-27T11:16:31Z</time>
      </trkpt>
      <trkpt lat="42.3439730" lon="-3.6313760">
        <ele>886.2</ele>
        <time>2022-06-27T11:16:32Z</time>
      </trkpt>
      <trkpt lat="42.3439810" lon="-3.6315080">
        <ele>885.8</ele>
        <time>2022-06-27T11:16:33Z</time>
      </trkpt>
      <trkpt lat="42.3439890" lon="-3.6316400">
        <ele>885.8</ele>
        <time>2022-06-27T11:16:34Z</time>
      </trkpt>
      <trkpt lat="42.3439950" lon="-3.6317700">
        <ele>885.8</ele>
        <time>2022-06-27T11:16:35Z</time>
      </trkpt>
      <trkpt lat="42.3440020" lon="-3.6319000">
        <ele>886.0</ele>
        <time>2022-06-27T11:16:36Z</time>
      </trkpt>
      <trkpt lat="42.3440090" lon="-3.6320300">
        <ele>885.8</ele>
        <time>2022-06-27T11:16:37Z</time>
      </trkpt>
      <trkpt lat="42.3440160" lon="-3.6321600">
        <ele>885.8</ele>
        <time>2022-06-27T11:16:38Z</time>
      </trkpt>
      <trkpt lat="42.3440230" lon="-3.6322910">
        <ele>885.8</ele>
        <time>2022-06-27T11:16:39Z</time>
      </trkpt>
      <trkpt lat="42.3440310" lon="-3.6324210">
        <ele>885.6</ele>
        <time>2022-06-27T11:16:40Z</time>
      </trkpt>
      <trkpt lat="42.3440380" lon="-3.6325490">
        <ele>886.0</ele>
        <time>2022-06-27T11:16:41Z</time>
      </trkpt>
      <trkpt lat="42.3440460" lon="-3.6326760">
        <ele>885.8</ele>
        <time>2022-06-27T11:16:42Z</time>
      </trkpt>
      <trkpt lat="42.3440550" lon="-3.6328020">
        <ele>885.6</ele>
        <time>2022-06-27T11:16:43Z</time>
      </trkpt>
      <trkpt lat="42.3440620" lon="-3.6329280">
        <ele>886.0</ele>
        <time>2022-06-27T11:16:44Z</time>
      </trkpt>
      <trkpt lat="42.3440690" lon="-3.6330540">
        <ele>886.0</ele>
        <time>2022-06-27T11:16:45Z</time>
      </trkpt>
      <trkpt lat="42.3440780" lon="-3.6331790">
        <ele>886.0</ele>
        <time>2022-06-27T11:16:46Z</time>
      </trkpt>
      <trkpt lat="42.3440870" lon="-3.6333020">
        <ele>886.0</ele>
        <time>2022-06-27T11:16:47Z</time>
      </trkpt>
      <trkpt lat="42.3440940" lon="-3.6334260">
        <ele>885.8</ele>
        <time>2022-06-27T11:16:48Z</time>
      </trkpt>
      <trkpt lat="42.3440990" lon="-3.6335500">
        <ele>885.8</ele>
        <time>2022-06-27T11:16:49Z</time>
      </trkpt>
      <trkpt lat="42.3441060" lon="-3.6336760">
        <ele>885.8</ele>
        <time>2022-06-27T11:16:50Z</time>
      </trkpt>
      <trkpt lat="42.3441120" lon="-3.6338010">
        <ele>885.8</ele>
        <time>2022-06-27T11:16:51Z</time>
      </trkpt>
      <trkpt lat="42.3441170" lon="-3.6339260">
        <ele>885.6</ele>
        <time>2022-06-27T11:16:52Z</time>
      </trkpt>
      <trkpt lat="42.3441240" lon="-3.6340510">
        <ele>885.6</ele>
        <time>2022-06-27T11:16:53Z</time>
      </trkpt>
      <trkpt lat="42.3441310" lon="-3.6341730">
        <ele>885.6</ele>
        <time>2022-06-27T11:16:54Z</time>
      </trkpt>
      <trkpt lat="42.3441380" lon="-3.6342920">
        <ele>886.0</ele>
        <time>2022-06-27T11:16:55Z</time>
      </trkpt>
      <trkpt lat="42.3441440" lon="-3.6344110">
        <ele>886.0</ele>
        <time>2022-06-27T11:16:56Z</time>
      </trkpt>
      <trkpt lat="42.3441510" lon="-3.6345320">
        <ele>886.2</ele>
        <time>2022-06-27T11:16:57Z</time>
      </trkpt>
      <trkpt lat="42.3441570" lon="-3.6346530">
        <ele>886.2</ele>
        <time>2022-06-27T11:16:58Z</time>
      </trkpt>
      <trkpt lat="42.3441620" lon="-3.6347720">
        <ele>886.0</ele>
        <time>2022-06-27T11:16:59Z</time>
      </trkpt>
      <trkpt lat="42.3441690" lon="-3.6348920">
        <ele>886.0</ele>
        <time>2022-06-27T11:17:00Z</time>
      </trkpt>
      <trkpt lat="42.3441760" lon="-3.6350120">
        <ele>886.0</ele>
        <time>2022-06-27T11:17:01Z</time>
      </trkpt>
      <trkpt lat="42.3441810" lon="-3.6351300">
        <ele>886.2</ele>
        <time>2022-06-27T11:17:02Z</time>
      </trkpt>
      <trkpt lat="42.3441890" lon="-3.6352490">
        <ele>886.2</ele>
        <time>2022-06-27T11:17:03Z</time>
      </trkpt>
      <trkpt lat="42.3441970" lon="-3.6353700">
        <ele>885.8</ele>
        <time>2022-06-27T11:17:04Z</time>
      </trkpt>
      <trkpt lat="42.3442050" lon="-3.6354920">
        <ele>885.6</ele>
        <time>2022-06-27T11:17:05Z</time>
      </trkpt>
      <trkpt lat="42.3442140" lon="-3.6356150">
        <ele>885.4</ele>
        <time>2022-06-27T11:17:06Z</time>
      </trkpt>
      <trkpt lat="42.3442220" lon="-3.6357370">
        <ele>885.2</ele>
        <time>2022-06-27T11:17:07Z</time>
      </trkpt>
      <trkpt lat="42.3442290" lon="-3.6358570">
        <ele>885.2</ele>
        <time>2022-06-27T11:17:08Z</time>
      </trkpt>
      <trkpt lat="42.3442420" lon="-3.6359790">
        <ele>885.0</ele>
        <time>2022-06-27T11:17:09Z</time>
      </trkpt>
      <trkpt lat="42.3442590" lon="-3.6360990">
        <ele>884.8</ele>
        <time>2022-06-27T11:17:10Z</time>
      </trkpt>
      <trkpt lat="42.3442800" lon="-3.6362200">
        <ele>884.8</ele>
        <time>2022-06-27T11:17:11Z</time>
      </trkpt>
      <trkpt lat="42.3443070" lon="-3.6363370">
        <ele>884.8</ele>
        <time>2022-06-27T11:17:12Z</time>
      </trkpt>
      <trkpt lat="42.3443420" lon="-3.6364490">
        <ele>884.8</ele>
        <time>2022-06-27T11:17:13Z</time>
      </trkpt>
      <trkpt lat="42.3443820" lon="-3.6365570">
        <ele>884.8</ele>
        <time>2022-06-27T11:17:14Z</time>
      </trkpt>
      <trkpt lat="42.3444290" lon="-3.6366600">
        <ele>884.8</ele>
        <time>2022-06-27T11:17:15Z</time>
      </trkpt>
      <trkpt lat="42.3444800" lon="-3.6367570">
        <ele>884.8</ele>
        <time>2022-06-27T11:17:16Z</time>
      </trkpt>
      <trkpt lat="42.3445410" lon="-3.6368460">
        <ele>884.8</ele>
        <time>2022-06-27T11:17:17Z</time>
      </trkpt>
      <trkpt lat="42.3446150" lon="-3.6369210">
        <ele>884.6</ele>
        <time>2022-06-27T11:17:18Z</time>
      </trkpt>
      <trkpt lat="42.3446950" lon="-3.6369740">
        <ele>884.6</ele>
        <time>2022-06-27T11:17:19Z</time>
      </trkpt>
      <trkpt lat="42.3447830" lon="-3.6370070">
        <ele>884.6</ele>
        <time>2022-06-27T11:17:20Z</time>
      </trkpt>
      <trkpt lat="42.3448700" lon="-3.6370360">
        <ele>884.4</ele>
        <time>2022-06-27T11:17:21Z</time>
      </trkpt>
      <trkpt lat="42.3449540" lon="-3.6370790">
        <ele>884.2</ele>
        <time>2022-06-27T11:17:22Z</time>
      </trkpt>
      <trkpt lat="42.3450130" lon="-3.6371320">
        <ele>884.0</ele>
        <time>2022-06-27T11:17:23Z</time>
      </trkpt>
      <trkpt lat="42.3450920" lon="-3.6372310">
        <ele>883.4</ele>
        <time>2022-06-27T11:17:24Z</time>
      </trkpt>
      <trkpt lat="42.3451400" lon="-3.6373310">
        <ele>883.0</ele>
        <time>2022-06-27T11:17:25Z</time>
      </trkpt>
      <trkpt lat="42.3451740" lon="-3.6374400">
        <ele>883.0</ele>
        <time>2022-06-27T11:17:26Z</time>
      </trkpt>
      <trkpt lat="42.3451990" lon="-3.6375560">
        <ele>882.6</ele>
        <time>2022-06-27T11:17:27Z</time>
      </trkpt>
      <trkpt lat="42.3452200" lon="-3.6376760">
        <ele>882.4</ele>
        <time>2022-06-27T11:17:28Z</time>
      </trkpt>
      <trkpt lat="42.3452330" lon="-3.6377970">
        <ele>882.2</ele>
        <time>2022-06-27T11:17:29Z</time>
      </trkpt>
      <trkpt lat="42.3452470" lon="-3.6379200">
        <ele>882.2</ele>
        <time>2022-06-27T11:17:30Z</time>
      </trkpt>
      <trkpt lat="42.3452550" lon="-3.6380450">
        <ele>882.2</ele>
        <time>2022-06-27T11:17:31Z</time>
      </trkpt>
      <trkpt lat="42.3452570" lon="-3.6381490">
        <ele>882.2</ele>
        <time>2022-06-27T11:17:32Z</time>
      </trkpt>
      <trkpt lat="42.3452500" lon="-3.6382380">
        <ele>882.0</ele>
        <time>2022-06-27T11:17:33Z</time>
      </trkpt>
      <trkpt lat="42.3452290" lon="-3.6383470">
        <ele>882.0</ele>
        <time>2022-06-27T11:17:34Z</time>
      </trkpt>
      <trkpt lat="42.3452000" lon="-3.6384580">
        <ele>882.0</ele>
        <time>2022-06-27T11:17:35Z</time>
      </trkpt>
      <trkpt lat="42.3451690" lon="-3.6385410">
        <ele>882.0</ele>
        <time>2022-06-27T11:17:36Z</time>
      </trkpt>
      <trkpt lat="42.3451090" lon="-3.6386500">
        <ele>882.0</ele>
        <time>2022-06-27T11:17:37Z</time>
      </trkpt>
      <trkpt lat="42.3450450" lon="-3.6387240">
        <ele>882.0</ele>
        <time>2022-06-27T11:17:38Z</time>
      </trkpt>
      <trkpt lat="42.3449730" lon="-3.6387790">
        <ele>881.8</ele>
        <time>2022-06-27T11:17:39Z</time>
      </trkpt>
      <trkpt lat="42.3448960" lon="-3.6388170">
        <ele>881.8</ele>
        <time>2022-06-27T11:17:40Z</time>
      </trkpt>
      <trkpt lat="42.3448190" lon="-3.6388470">
        <ele>882.0</ele>
        <time>2022-06-27T11:17:41Z</time>
      </trkpt>
      <trkpt lat="42.3447410" lon="-3.6388750">
        <ele>882.0</ele>
        <time>2022-06-27T11:17:42Z</time>
      </trkpt>
      <trkpt lat="42.3446660" lon="-3.6389100">
        <ele>881.8</ele>
        <time>2022-06-27T11:17:43Z</time>
      </trkpt>
      <trkpt lat="42.3445960" lon="-3.6389650">
        <ele>881.8</ele>
        <time>2022-06-27T11:17:44Z</time>
      </trkpt>
      <trkpt lat="42.3445420" lon="-3.6390410">
        <ele>881.8</ele>
        <time>2022-06-27T11:17:45Z</time>
      </trkpt>
      <trkpt lat="42.3445100" lon="-3.6391350">
        <ele>881.8</ele>
        <time>2022-06-27T11:17:46Z</time>
      </trkpt>
      <trkpt lat="42.3444960" lon="-3.6392370">
        <ele>881.8</ele>
        <time>2022-06-27T11:17:47Z</time>
      </trkpt>
      <trkpt lat="42.3444900" lon="-3.6393420">
        <ele>881.8</ele>
        <time>2022-06-27T11:17:48Z</time>
      </trkpt>
      <trkpt lat="42.3444880" lon="-3.6394490">
        <ele>881.8</ele>
        <time>2022-06-27T11:17:49Z</time>
      </trkpt>
      <trkpt lat="42.3444840" lon="-3.6395570">
        <ele>881.8</ele>
        <time>2022-06-27T11:17:50Z</time>
      </trkpt>
      <trkpt lat="42.3444800" lon="-3.6396650">
        <ele>881.8</ele>
        <time>2022-06-27T11:17:51Z</time>
      </trkpt>
      <trkpt lat="42.3444770" lon="-3.6397750">
        <ele>882.0</ele>
        <time>2022-06-27T11:17:52Z</time>
      </trkpt>
      <trkpt lat="42.3444760" lon="-3.6398850">
        <ele>882.0</ele>
        <time>2022-06-27T11:17:53Z</time>
      </trkpt>
      <trkpt lat="42.3444770" lon="-3.6399970">
        <ele>882.2</ele>
        <time>2022-06-27T11:17:54Z</time>
      </trkpt>
      <trkpt lat="42.3444790" lon="-3.6401090">
        <ele>882.4</ele>
        <time>2022-06-27T11:17:55Z</time>
      </trkpt>
      <trkpt lat="42.3444830" lon="-3.6402200">
        <ele>882.4</ele>
        <time>2022-06-27T11:17:56Z</time>
      </trkpt>
      <trkpt lat="42.3444870" lon="-3.6403340">
        <ele>882.6</ele>
        <time>2022-06-27T11:17:57Z</time>
      </trkpt>
      <trkpt lat="42.3444930" lon="-3.6404500">
        <ele>882.8</ele>
        <time>2022-06-27T11:17:58Z</time>
      </trkpt>
      <trkpt lat="42.3445010" lon="-3.6405680">
        <ele>882.8</ele>
        <time>2022-06-27T11:17:59Z</time>
      </trkpt>
      <trkpt lat="42.3445070" lon="-3.6406870">
        <ele>883.0</ele>
        <time>2022-06-27T11:18:00Z</time>
      </trkpt>
      <trkpt lat="42.3445130" lon="-3.6408060">
        <ele>883.0</ele>
        <time>2022-06-27T11:18:01Z</time>
      </trkpt>
      <trkpt lat="42.3445200" lon="-3.6409240">
        <ele>883.0</ele>
        <time>2022-06-27T11:18:02Z</time>
      </trkpt>
      <trkpt lat="42.3445260" lon="-3.6410420">
        <ele>883.0</ele>
        <time>2022-06-27T11:18:03Z</time>
      </trkpt>
      <trkpt lat="42.3445320" lon="-3.6411600">
        <ele>883.0</ele>
        <time>2022-06-27T11:18:04Z</time>
      </trkpt>
      <trkpt lat="42.3445390" lon="-3.6412780">
        <ele>883.0</ele>
        <time>2022-06-27T11:18:05Z</time>
      </trkpt>
      <trkpt lat="42.3445460" lon="-3.6413970">
        <ele>883.0</ele>
        <time>2022-06-27T11:18:06Z</time>
      </trkpt>
      <trkpt lat="42.3445530" lon="-3.6415160">
        <ele>883.0</ele>
        <time>2022-06-27T11:18:07Z</time>
      </trkpt>
      <trkpt lat="42.3445580" lon="-3.6416340">
        <ele>883.0</ele>
        <time>2022-06-27T11:18:08Z</time>
      </trkpt>
      <trkpt lat="42.3445640" lon="-3.6417510">
        <ele>883.0</ele>
        <time>2022-06-27T11:18:09Z</time>
      </trkpt>
      <trkpt lat="42.3445690" lon="-3.6418700">
        <ele>883.0</ele>
        <time>2022-06-27T11:18:10Z</time>
      </trkpt>
      <trkpt lat="42.3445760" lon="-3.6419890">
        <ele>883.0</ele>
        <time>2022-06-27T11:18:11Z</time>
      </trkpt>
      <trkpt lat="42.3445850" lon="-3.6421070">
        <ele>883.0</ele>
        <time>2022-06-27T11:18:12Z</time>
      </trkpt>
      <trkpt lat="42.3445920" lon="-3.6422020">
        <ele>883.0</ele>
        <time>2022-06-27T11:18:13Z</time>
      </trkpt>
      <trkpt lat="42.3445990" lon="-3.6423450">
        <ele>883.0</ele>
        <time>2022-06-27T11:18:14Z</time>
      </trkpt>
      <trkpt lat="42.3446070" lon="-3.6424640">
        <ele>882.8</ele>
        <time>2022-06-27T11:18:15Z</time>
      </trkpt>
      <trkpt lat="42.3446140" lon="-3.6425850">
        <ele>882.8</ele>
        <time>2022-06-27T11:18:16Z</time>
      </trkpt>
      <trkpt lat="42.3446210" lon="-3.6427080">
        <ele>883.0</ele>
        <time>2022-06-27T11:18:17Z</time>
      </trkpt>
      <trkpt lat="42.3446280" lon="-3.6428310">
        <ele>883.0</ele>
        <time>2022-06-27T11:18:18Z</time>
      </trkpt>
      <trkpt lat="42.3446350" lon="-3.6429540">
        <ele>882.8</ele>
        <time>2022-06-27T11:18:19Z</time>
      </trkpt>
      <trkpt lat="42.3446420" lon="-3.6430770">
        <ele>882.6</ele>
        <time>2022-06-27T11:18:20Z</time>
      </trkpt>
      <trkpt lat="42.3446500" lon="-3.6431990">
        <ele>882.4</ele>
        <time>2022-06-27T11:18:21Z</time>
      </trkpt>
      <trkpt lat="42.3446590" lon="-3.6433200">
        <ele>882.4</ele>
        <time>2022-06-27T11:18:22Z</time>
      </trkpt>
      <trkpt lat="42.3446680" lon="-3.6434450">
        <ele>882.4</ele>
        <time>2022-06-27T11:18:23Z</time>
      </trkpt>
      <trkpt lat="42.3446780" lon="-3.6435690">
        <ele>882.2</ele>
        <time>2022-06-27T11:18:24Z</time>
      </trkpt>
      <trkpt lat="42.3446880" lon="-3.6436920">
        <ele>882.2</ele>
        <time>2022-06-27T11:18:25Z</time>
      </trkpt>
      <trkpt lat="42.3446980" lon="-3.6438130">
        <ele>882.2</ele>
        <time>2022-06-27T11:18:26Z</time>
      </trkpt>
      <trkpt lat="42.3447050" lon="-3.6439120">
        <ele>882.2</ele>
        <time>2022-06-27T11:18:27Z</time>
      </trkpt>
      <trkpt lat="42.3447170" lon="-3.6440600">
        <ele>882.2</ele>
        <time>2022-06-27T11:18:28Z</time>
      </trkpt>
      <trkpt lat="42.3447290" lon="-3.6441810">
        <ele>882.0</ele>
        <time>2022-06-27T11:18:29Z</time>
      </trkpt>
      <trkpt lat="42.3447400" lon="-3.6443030">
        <ele>882.0</ele>
        <time>2022-06-27T11:18:30Z</time>
      </trkpt>
      <trkpt lat="42.3447510" lon="-3.6444010">
        <ele>881.8</ele>
        <time>2022-06-27T11:18:31Z</time>
      </trkpt>
      <trkpt lat="42.3447640" lon="-3.6445230">
        <ele>881.8</ele>
        <time>2022-06-27T11:18:32Z</time>
      </trkpt>
      <trkpt lat="42.3447770" lon="-3.6446450">
        <ele>881.8</ele>
        <time>2022-06-27T11:18:33Z</time>
      </trkpt>
      <trkpt lat="42.3447940" lon="-3.6447920">
        <ele>881.6</ele>
        <time>2022-06-27T11:18:34Z</time>
      </trkpt>
      <trkpt lat="42.3448050" lon="-3.6449150">
        <ele>881.6</ele>
        <time>2022-06-27T11:18:35Z</time>
      </trkpt>
      <trkpt lat="42.3448170" lon="-3.6450370">
        <ele>881.6</ele>
        <time>2022-06-27T11:18:36Z</time>
      </trkpt>
      <trkpt lat="42.3448280" lon="-3.6451600">
        <ele>881.4</ele>
        <time>2022-06-27T11:18:37Z</time>
      </trkpt>
      <trkpt lat="42.3448390" lon="-3.6452820">
        <ele>881.2</ele>
        <time>2022-06-27T11:18:38Z</time>
      </trkpt>
      <trkpt lat="42.3448490" lon="-3.6454030">
        <ele>881.2</ele>
        <time>2022-06-27T11:18:39Z</time>
      </trkpt>
      <trkpt lat="42.3448610" lon="-3.6455220">
        <ele>881.2</ele>
        <time>2022-06-27T11:18:40Z</time>
      </trkpt>
      <trkpt lat="42.3448680" lon="-3.6456150">
        <ele>881.2</ele>
        <time>2022-06-27T11:18:41Z</time>
      </trkpt>
      <trkpt lat="42.3448780" lon="-3.6457320">
        <ele>881.0</ele>
        <time>2022-06-27T11:18:42Z</time>
      </trkpt>
      <trkpt lat="42.3448880" lon="-3.6458710">
        <ele>881.0</ele>
        <time>2022-06-27T11:18:43Z</time>
      </trkpt>
      <trkpt lat="42.3448960" lon="-3.6459850">
        <ele>881.0</ele>
        <time>2022-06-27T11:18:44Z</time>
      </trkpt>
      <trkpt lat="42.3449030" lon="-3.6460970">
        <ele>880.8</ele>
        <time>2022-06-27T11:18:45Z</time>
      </trkpt>
      <trkpt lat="42.3449090" lon="-3.6461850">
        <ele>880.8</ele>
        <time>2022-06-27T11:18:46Z</time>
      </trkpt>
      <trkpt lat="42.3449160" lon="-3.6463150">
        <ele>880.8</ele>
        <time>2022-06-27T11:18:47Z</time>
      </trkpt>
      <trkpt lat="42.3449230" lon="-3.6464220">
        <ele>880.6</ele>
        <time>2022-06-27T11:18:48Z</time>
      </trkpt>
      <trkpt lat="42.3449290" lon="-3.6465280">
        <ele>880.6</ele>
        <time>2022-06-27T11:18:49Z</time>
      </trkpt>
      <trkpt lat="42.3449330" lon="-3.6466320">
        <ele>880.6</ele>
        <time>2022-06-27T11:18:50Z</time>
      </trkpt>
      <trkpt lat="42.3449380" lon="-3.6467140">
        <ele>880.6</ele>
        <time>2022-06-27T11:18:51Z</time>
      </trkpt>
      <trkpt lat="42.3449420" lon="-3.6468360">
        <ele>880.6</ele>
        <time>2022-06-27T11:18:52Z</time>
      </trkpt>
      <trkpt lat="42.3449450" lon="-3.6469350">
        <ele>880.6</ele>
        <time>2022-06-27T11:18:53Z</time>
      </trkpt>
      <trkpt lat="42.3449500" lon="-3.6470350">
        <ele>880.6</ele>
        <time>2022-06-27T11:18:54Z</time>
      </trkpt>
      <trkpt lat="42.3449530" lon="-3.6471140">
        <ele>880.6</ele>
        <time>2022-06-27T11:18:55Z</time>
      </trkpt>
      <trkpt lat="42.3449540" lon="-3.6472110">
        <ele>880.6</ele>
        <time>2022-06-27T11:18:56Z</time>
      </trkpt>
      <trkpt lat="42.3449600" lon="-3.6473250">
        <ele>880.6</ele>
        <time>2022-06-27T11:18:57Z</time>
      </trkpt>
      <trkpt lat="42.3449630" lon="-3.6474160">
        <ele>880.6</ele>
        <time>2022-06-27T11:18:58Z</time>
      </trkpt>
      <trkpt lat="42.3449620" lon="-3.6475020">
        <ele>880.6</ele>
        <time>2022-06-27T11:18:59Z</time>
      </trkpt>
      <trkpt lat="42.3449620" lon="-3.6475700">
        <ele>880.6</ele>
        <time>2022-06-27T11:19:00Z</time>
      </trkpt>
      <trkpt lat="42.3449640" lon="-3.6476570">
        <ele>880.6</ele>
        <time>2022-06-27T11:19:01Z</time>
      </trkpt>
      <trkpt lat="42.3449700" lon="-3.6477620">
        <ele>880.6</ele>
        <time>2022-06-27T11:19:02Z</time>
      </trkpt>
      <trkpt lat="42.3449730" lon="-3.6478540">
        <ele>880.6</ele>
        <time>2022-06-27T11:19:03Z</time>
      </trkpt>
      <trkpt lat="42.3449760" lon="-3.6479470">
        <ele>880.6</ele>
        <time>2022-06-27T11:19:04Z</time>
      </trkpt>
      <trkpt lat="42.3449780" lon="-3.6480230">
        <ele>880.6</ele>
        <time>2022-06-27T11:19:05Z</time>
      </trkpt>
      <trkpt lat="42.3449810" lon="-3.6481410">
        <ele>880.6</ele>
        <time>2022-06-27T11:19:06Z</time>
      </trkpt>
      <trkpt lat="42.3449850" lon="-3.6482430">
        <ele>880.6</ele>
        <time>2022-06-27T11:19:07Z</time>
      </trkpt>
      <trkpt lat="42.3449900" lon="-3.6483460">
        <ele>880.4</ele>
        <time>2022-06-27T11:19:08Z</time>
      </trkpt>
      <trkpt lat="42.3449950" lon="-3.6484310">
        <ele>880.4</ele>
        <time>2022-06-27T11:19:09Z</time>
      </trkpt>
      <trkpt lat="42.3450000" lon="-3.6485410">
        <ele>880.4</ele>
        <time>2022-06-27T11:19:10Z</time>
      </trkpt>
      <trkpt lat="42.3450080" lon="-3.6486760">
        <ele>880.4</ele>
        <time>2022-06-27T11:19:11Z</time>
      </trkpt>
      <trkpt lat="42.3450150" lon="-3.6487870">
        <ele>880.2</ele>
        <time>2022-06-27T11:19:12Z</time>
      </trkpt>
      <trkpt lat="42.3450210" lon="-3.6488980">
        <ele>880.0</ele>
        <time>2022-06-27T11:19:13Z</time>
      </trkpt>
      <trkpt lat="42.3450270" lon="-3.6490070">
        <ele>880.0</ele>
        <time>2022-06-27T11:19:14Z</time>
      </trkpt>
      <trkpt lat="42.3450300" lon="-3.6490940">
        <ele>879.8</ele>
        <time>2022-06-27T11:19:15Z</time>
      </trkpt>
      <trkpt lat="42.3450350" lon="-3.6492240">
        <ele>879.6</ele>
        <time>2022-06-27T11:19:16Z</time>
      </trkpt>
      <trkpt lat="42.3450400" lon="-3.6493350">
        <ele>879.6</ele>
        <time>2022-06-27T11:19:17Z</time>
      </trkpt>
      <trkpt lat="42.3450450" lon="-3.6494470">
        <ele>879.2</ele>
        <time>2022-06-27T11:19:18Z</time>
      </trkpt>
      <trkpt lat="42.3450500" lon="-3.6495350">
        <ele>879.2</ele>
        <time>2022-06-27T11:19:19Z</time>
      </trkpt>
      <trkpt lat="42.3450570" lon="-3.6496670">
        <ele>878.8</ele>
        <time>2022-06-27T11:19:20Z</time>
      </trkpt>
      <trkpt lat="42.3450620" lon="-3.6497780">
        <ele>878.6</ele>
        <time>2022-06-27T11:19:21Z</time>
      </trkpt>
      <trkpt lat="42.3450630" lon="-3.6498900">
        <ele>878.6</ele>
        <time>2022-06-27T11:19:22Z</time>
      </trkpt>
      <trkpt lat="42.3450650" lon="-3.6499990">
        <ele>878.6</ele>
        <time>2022-06-27T11:19:23Z</time>
      </trkpt>
      <trkpt lat="42.3450680" lon="-3.6500850">
        <ele>878.6</ele>
        <time>2022-06-27T11:19:24Z</time>
      </trkpt>
      <trkpt lat="42.3450750" lon="-3.6502130">
        <ele>878.6</ele>
        <time>2022-06-27T11:19:25Z</time>
      </trkpt>
      <trkpt lat="42.3450780" lon="-3.6503170">
        <ele>878.6</ele>
        <time>2022-06-27T11:19:26Z</time>
      </trkpt>
      <trkpt lat="42.3450820" lon="-3.6504180">
        <ele>878.6</ele>
        <time>2022-06-27T11:19:27Z</time>
      </trkpt>
      <trkpt lat="42.3450900" lon="-3.6505190">
        <ele>878.4</ele>
        <time>2022-06-27T11:19:28Z</time>
      </trkpt>
      <trkpt lat="42.3450970" lon="-3.6506220">
        <ele>878.6</ele>
        <time>2022-06-27T11:19:29Z</time>
      </trkpt>
      <trkpt lat="42.3451050" lon="-3.6507230">
        <ele>878.6</ele>
        <time>2022-06-27T11:19:30Z</time>
      </trkpt>
      <trkpt lat="42.3451110" lon="-3.6508260">
        <ele>878.6</ele>
        <time>2022-06-27T11:19:31Z</time>
      </trkpt>
      <trkpt lat="42.3451150" lon="-3.6509320">
        <ele>878.6</ele>
        <time>2022-06-27T11:19:32Z</time>
      </trkpt>
      <trkpt lat="42.3451200" lon="-3.6510170">
        <ele>878.6</ele>
        <time>2022-06-27T11:19:33Z</time>
      </trkpt>
      <trkpt lat="42.3451270" lon="-3.6511440">
        <ele>878.6</ele>
        <time>2022-06-27T11:19:34Z</time>
      </trkpt>
      <trkpt lat="42.3451340" lon="-3.6512520">
        <ele>878.6</ele>
        <time>2022-06-27T11:19:35Z</time>
      </trkpt>
      <trkpt lat="42.3451410" lon="-3.6513600">
        <ele>878.6</ele>
        <time>2022-06-27T11:19:36Z</time>
      </trkpt>
      <trkpt lat="42.3451480" lon="-3.6514470">
        <ele>878.4</ele>
        <time>2022-06-27T11:19:37Z</time>
      </trkpt>
      <trkpt lat="42.3451570" lon="-3.6515570">
        <ele>878.2</ele>
        <time>2022-06-27T11:19:38Z</time>
      </trkpt>
      <trkpt lat="42.3451690" lon="-3.6516900">
        <ele>878.2</ele>
        <time>2022-06-27T11:19:39Z</time>
      </trkpt>
      <trkpt lat="42.3451820" lon="-3.6518020">
        <ele>878.2</ele>
        <time>2022-06-27T11:19:40Z</time>
      </trkpt>
      <trkpt lat="42.3451940" lon="-3.6519130">
        <ele>878.0</ele>
        <time>2022-06-27T11:19:41Z</time>
      </trkpt>
      <trkpt lat="42.3452040" lon="-3.6520000">
        <ele>878.0</ele>
        <time>2022-06-27T11:19:42Z</time>
      </trkpt>
      <trkpt lat="42.3452170" lon="-3.6521080">
        <ele>878.0</ele>
        <time>2022-06-27T11:19:43Z</time>
      </trkpt>
      <trkpt lat="42.3452320" lon="-3.6522120">
        <ele>878.0</ele>
        <time>2022-06-27T11:19:44Z</time>
      </trkpt>
      <trkpt lat="42.3452510" lon="-3.6523380">
        <ele>877.8</ele>
        <time>2022-06-27T11:19:45Z</time>
      </trkpt>
      <trkpt lat="42.3452660" lon="-3.6524440">
        <ele>877.8</ele>
        <time>2022-06-27T11:19:46Z</time>
      </trkpt>
      <trkpt lat="42.3452810" lon="-3.6525520">
        <ele>877.8</ele>
        <time>2022-06-27T11:19:47Z</time>
      </trkpt>
      <trkpt lat="42.3452940" lon="-3.6526570">
        <ele>877.8</ele>
        <time>2022-06-27T11:19:48Z</time>
      </trkpt>
      <trkpt lat="42.3453090" lon="-3.6527630">
        <ele>877.8</ele>
        <time>2022-06-27T11:19:49Z</time>
      </trkpt>
      <trkpt lat="42.3453240" lon="-3.6528670">
        <ele>877.6</ele>
        <time>2022-06-27T11:19:50Z</time>
      </trkpt>
      <trkpt lat="42.3453380" lon="-3.6529680">
        <ele>877.6</ele>
        <time>2022-06-27T11:19:51Z</time>
      </trkpt>
      <trkpt lat="42.3453520" lon="-3.6530690">
        <ele>877.6</ele>
        <time>2022-06-27T11:19:52Z</time>
      </trkpt>
      <trkpt lat="42.3453640" lon="-3.6531490">
        <ele>877.2</ele>
        <time>2022-06-27T11:19:53Z</time>
      </trkpt>
      <trkpt lat="42.3453830" lon="-3.6532670">
        <ele>877.4</ele>
        <time>2022-06-27T11:19:54Z</time>
      </trkpt>
      <trkpt lat="42.3454000" lon="-3.6533680">
        <ele>877.4</ele>
        <time>2022-06-27T11:19:55Z</time>
      </trkpt>
      <trkpt lat="42.3454150" lon="-3.6534720">
        <ele>877.4</ele>
        <time>2022-06-27T11:19:56Z</time>
      </trkpt>
      <trkpt lat="42.3454280" lon="-3.6535780">
        <ele>877.2</ele>
        <time>2022-06-27T11:19:57Z</time>
      </trkpt>
      <trkpt lat="42.3454400" lon="-3.6536610">
        <ele>877.2</ele>
        <time>2022-06-27T11:19:58Z</time>
      </trkpt>
      <trkpt lat="42.3454570" lon="-3.6537760">
        <ele>877.2</ele>
        <time>2022-06-27T11:19:59Z</time>
      </trkpt>
      <trkpt lat="42.3454680" lon="-3.6538540">
        <ele>877.2</ele>
        <time>2022-06-27T11:20:00Z</time>
      </trkpt>
      <trkpt lat="42.3454760" lon="-3.6539120">
        <ele>877.2</ele>
        <time>2022-06-27T11:20:01Z</time>
      </trkpt>
      <trkpt lat="42.3454810" lon="-3.6539450">
        <ele>877.2</ele>
        <time>2022-06-27T11:20:02Z</time>
      </trkpt>
      <trkpt lat="42.3454860" lon="-3.6539820">
        <ele>877.2</ele>
        <time>2022-06-27T11:20:03Z</time>
      </trkpt>
      <trkpt lat="42.3454880" lon="-3.6540030">
        <ele>877.0</ele>
        <time>2022-06-27T11:20:04Z</time>
      </trkpt>
      <trkpt lat="42.3454880" lon="-3.6540120">
        <ele>877.0</ele>
        <time>2022-06-27T11:20:05Z</time>
      </trkpt>
      <trkpt lat="42.3454880" lon="-3.6540120">
        <ele>877.0</ele>
        <time>2022-06-27T11:20:06Z</time>
      </trkpt>
      <trkpt lat="42.3454880" lon="-3.6540120">
        <ele>877.2</ele>
        <time>2022-06-27T11:20:07Z</time>
      </trkpt>
      <trkpt lat="42.3454940" lon="-3.6540450">
        <ele>877.2</ele>
        <time>2022-06-27T11:20:37Z</time>
      </trkpt>
      <trkpt lat="42.3455000" lon="-3.6540740">
        <ele>877.2</ele>
        <time>2022-06-27T11:20:38Z</time>
      </trkpt>
      <trkpt lat="42.3455090" lon="-3.6541070">
        <ele>877.2</ele>
        <time>2022-06-27T11:20:39Z</time>
      </trkpt>
      <trkpt lat="42.3455150" lon="-3.6541410">
        <ele>877.2</ele>
        <time>2022-06-27T11:20:40Z</time>
      </trkpt>
      <trkpt lat="42.3455220" lon="-3.6541960">
        <ele>877.2</ele>
        <time>2022-06-27T11:20:41Z</time>
      </trkpt>
      <trkpt lat="42.3455290" lon="-3.6542530">
        <ele>877.2</ele>
        <time>2022-06-27T11:20:42Z</time>
      </trkpt>
      <trkpt lat="42.3455380" lon="-3.6543130">
        <ele>877.2</ele>
        <time>2022-06-27T11:20:43Z</time>
      </trkpt>
      <trkpt lat="42.3455490" lon="-3.6543770">
        <ele>877.4</ele>
        <time>2022-06-27T11:20:44Z</time>
      </trkpt>
      <trkpt lat="42.3455620" lon="-3.6544460">
        <ele>877.4</ele>
        <time>2022-06-27T11:20:45Z</time>
      </trkpt>
      <trkpt lat="42.3455740" lon="-3.6545140">
        <ele>877.4</ele>
        <time>2022-06-27T11:20:46Z</time>
      </trkpt>
      <trkpt lat="42.3455850" lon="-3.6545870">
        <ele>877.4</ele>
        <time>2022-06-27T11:20:47Z</time>
      </trkpt>
      <trkpt lat="42.3455970" lon="-3.6546640">
        <ele>877.4</ele>
        <time>2022-06-27T11:20:48Z</time>
      </trkpt>
      <trkpt lat="42.3456100" lon="-3.6547460">
        <ele>877.4</ele>
        <time>2022-06-27T11:20:49Z</time>
      </trkpt>
      <trkpt lat="42.3456200" lon="-3.6548270">
        <ele>877.4</ele>
        <time>2022-06-27T11:20:50Z</time>
      </trkpt>
      <trkpt lat="42.3456320" lon="-3.6549080">
        <ele>877.4</ele>
        <time>2022-06-27T11:20:51Z</time>
      </trkpt>
      <trkpt lat="42.3456460" lon="-3.6549870">
        <ele>877.4</ele>
        <time>2022-06-27T11:20:52Z</time>
      </trkpt>
      <trkpt lat="42.3456580" lon="-3.6550660">
        <ele>877.4</ele>
        <time>2022-06-27T11:20:53Z</time>
      </trkpt>
      <trkpt lat="42.3456680" lon="-3.6551450">
        <ele>877.4</ele>
        <time>2022-06-27T11:20:54Z</time>
      </trkpt>
      <trkpt lat="42.3456760" lon="-3.6552270">
        <ele>877.4</ele>
        <time>2022-06-27T11:20:55Z</time>
      </trkpt>
      <trkpt lat="42.3456850" lon="-3.6553100">
        <ele>877.4</ele>
        <time>2022-06-27T11:20:56Z</time>
      </trkpt>
      <trkpt lat="42.3456970" lon="-3.6553910">
        <ele>877.4</ele>
        <time>2022-06-27T11:20:57Z</time>
      </trkpt>
      <trkpt lat="42.3457070" lon="-3.6554570">
        <ele>877.4</ele>
        <time>2022-06-27T11:20:58Z</time>
      </trkpt>
      <trkpt lat="42.3457180" lon="-3.6555360">
        <ele>877.4</ele>
        <time>2022-06-27T11:20:59Z</time>
      </trkpt>
      <trkpt lat="42.3457340" lon="-3.6556290">
        <ele>877.4</ele>
        <time>2022-06-27T11:21:00Z</time>
      </trkpt>
      <trkpt lat="42.3457490" lon="-3.6557060">
        <ele>877.2</ele>
        <time>2022-06-27T11:21:01Z</time>
      </trkpt>
      <trkpt lat="42.3457630" lon="-3.6557870">
        <ele>877.2</ele>
        <time>2022-06-27T11:21:02Z</time>
      </trkpt>
      <trkpt lat="42.3457720" lon="-3.6558530">
        <ele>877.0</ele>
        <time>2022-06-27T11:21:03Z</time>
      </trkpt>
      <trkpt lat="42.3457840" lon="-3.6559380">
        <ele>877.0</ele>
        <time>2022-06-27T11:21:04Z</time>
      </trkpt>
      <trkpt lat="42.3457980" lon="-3.6560440">
        <ele>877.0</ele>
        <time>2022-06-27T11:21:05Z</time>
      </trkpt>
      <trkpt lat="42.3458110" lon="-3.6561340">
        <ele>876.8</ele>
        <time>2022-06-27T11:21:06Z</time>
      </trkpt>
      <trkpt lat="42.3458210" lon="-3.6562210">
        <ele>876.6</ele>
        <time>2022-06-27T11:21:07Z</time>
      </trkpt>
      <trkpt lat="42.3458330" lon="-3.6563100">
        <ele>876.6</ele>
        <time>2022-06-27T11:21:08Z</time>
      </trkpt>
      <trkpt lat="42.3458450" lon="-3.6563990">
        <ele>876.6</ele>
        <time>2022-06-27T11:21:09Z</time>
      </trkpt>
      <trkpt lat="42.3458570" lon="-3.6564900">
        <ele>876.6</ele>
        <time>2022-06-27T11:21:10Z</time>
      </trkpt>
      <trkpt lat="42.3458680" lon="-3.6565800">
        <ele>876.6</ele>
        <time>2022-06-27T11:21:11Z</time>
      </trkpt>
      <trkpt lat="42.3458790" lon="-3.6566520">
        <ele>876.6</ele>
        <time>2022-06-27T11:21:12Z</time>
      </trkpt>
      <trkpt lat="42.3458910" lon="-3.6567410">
        <ele>876.6</ele>
        <time>2022-06-27T11:21:13Z</time>
      </trkpt>
      <trkpt lat="42.3459040" lon="-3.6568480">
        <ele>876.4</ele>
        <time>2022-06-27T11:21:14Z</time>
      </trkpt>
      <trkpt lat="42.3459140" lon="-3.6569350">
        <ele>876.4</ele>
        <time>2022-06-27T11:21:15Z</time>
      </trkpt>
      <trkpt lat="42.3459240" lon="-3.6570180">
        <ele>876.4</ele>
        <time>2022-06-27T11:21:16Z</time>
      </trkpt>
      <trkpt lat="42.3459340" lon="-3.6571020">
        <ele>876.4</ele>
        <time>2022-06-27T11:21:17Z</time>
      </trkpt>
      <trkpt lat="42.3459420" lon="-3.6571690">
        <ele>876.4</ele>
        <time>2022-06-27T11:21:18Z</time>
      </trkpt>
      <trkpt lat="42.3459540" lon="-3.6572690">
        <ele>876.4</ele>
        <time>2022-06-27T11:21:19Z</time>
      </trkpt>
      <trkpt lat="42.3459660" lon="-3.6573500">
        <ele>876.2</ele>
        <time>2022-06-27T11:21:20Z</time>
      </trkpt>
      <trkpt lat="42.3459770" lon="-3.6574310">
        <ele>876.2</ele>
        <time>2022-06-27T11:21:21Z</time>
      </trkpt>
      <trkpt lat="42.3459850" lon="-3.6574960">
        <ele>876.0</ele>
        <time>2022-06-27T11:21:22Z</time>
      </trkpt>
      <trkpt lat="42.3459970" lon="-3.6575750">
        <ele>876.0</ele>
        <time>2022-06-27T11:21:23Z</time>
      </trkpt>
      <trkpt lat="42.3460100" lon="-3.6576680">
        <ele>876.0</ele>
        <time>2022-06-27T11:21:24Z</time>
      </trkpt>
      <trkpt lat="42.3460220" lon="-3.6577440">
        <ele>876.0</ele>
        <time>2022-06-27T11:21:25Z</time>
      </trkpt>
      <trkpt lat="42.3460320" lon="-3.6578210">
        <ele>876.0</ele>
        <time>2022-06-27T11:21:26Z</time>
      </trkpt>
      <trkpt lat="42.3460430" lon="-3.6579010">
        <ele>876.0</ele>
        <time>2022-06-27T11:21:27Z</time>
      </trkpt>
      <trkpt lat="42.3460540" lon="-3.6579820">
        <ele>876.0</ele>
        <time>2022-06-27T11:21:28Z</time>
      </trkpt>
      <trkpt lat="42.3460650" lon="-3.6580670">
        <ele>875.8</ele>
        <time>2022-06-27T11:21:29Z</time>
      </trkpt>
      <trkpt lat="42.3460780" lon="-3.6581560">
        <ele>875.8</ele>
        <time>2022-06-27T11:21:30Z</time>
      </trkpt>
      <trkpt lat="42.3460890" lon="-3.6582270">
        <ele>875.8</ele>
        <time>2022-06-27T11:21:31Z</time>
      </trkpt>
      <trkpt lat="42.3461040" lon="-3.6583360">
        <ele>875.8</ele>
        <time>2022-06-27T11:21:32Z</time>
      </trkpt>
      <trkpt lat="42.3461170" lon="-3.6584280">
        <ele>875.8</ele>
        <time>2022-06-27T11:21:33Z</time>
      </trkpt>
      <trkpt lat="42.3461310" lon="-3.6585220">
        <ele>875.8</ele>
        <time>2022-06-27T11:21:34Z</time>
      </trkpt>
      <trkpt lat="42.3461450" lon="-3.6586170">
        <ele>875.8</ele>
        <time>2022-06-27T11:21:35Z</time>
      </trkpt>
      <trkpt lat="42.3461580" lon="-3.6586930">
        <ele>875.8</ele>
        <time>2022-06-27T11:21:36Z</time>
      </trkpt>
      <trkpt lat="42.3461740" lon="-3.6587890">
        <ele>875.8</ele>
        <time>2022-06-27T11:21:37Z</time>
      </trkpt>
      <trkpt lat="42.3461910" lon="-3.6589050">
        <ele>875.8</ele>
        <time>2022-06-27T11:21:38Z</time>
      </trkpt>
      <trkpt lat="42.3462040" lon="-3.6590020">
        <ele>875.8</ele>
        <time>2022-06-27T11:21:39Z</time>
      </trkpt>
      <trkpt lat="42.3462170" lon="-3.6590990">
        <ele>875.8</ele>
        <time>2022-06-27T11:21:40Z</time>
      </trkpt>
      <trkpt lat="42.3462300" lon="-3.6591950">
        <ele>875.8</ele>
        <time>2022-06-27T11:21:41Z</time>
      </trkpt>
      <trkpt lat="42.3462440" lon="-3.6592880">
        <ele>875.8</ele>
        <time>2022-06-27T11:21:42Z</time>
      </trkpt>
      <trkpt lat="42.3462570" lon="-3.6593810">
        <ele>875.8</ele>
        <time>2022-06-27T11:21:43Z</time>
      </trkpt>
      <trkpt lat="42.3462720" lon="-3.6594760">
        <ele>875.8</ele>
        <time>2022-06-27T11:21:44Z</time>
      </trkpt>
      <trkpt lat="42.3462830" lon="-3.6595530">
        <ele>875.8</ele>
        <time>2022-06-27T11:21:45Z</time>
      </trkpt>
      <trkpt lat="42.3462980" lon="-3.6596500">
        <ele>875.8</ele>
        <time>2022-06-27T11:21:46Z</time>
      </trkpt>
      <trkpt lat="42.3463130" lon="-3.6597660">
        <ele>875.8</ele>
        <time>2022-06-27T11:21:47Z</time>
      </trkpt>
      <trkpt lat="42.3463250" lon="-3.6598620">
        <ele>875.8</ele>
        <time>2022-06-27T11:21:48Z</time>
      </trkpt>
      <trkpt lat="42.3463400" lon="-3.6599600">
        <ele>875.8</ele>
        <time>2022-06-27T11:21:49Z</time>
      </trkpt>
      <trkpt lat="42.3463530" lon="-3.6600380">
        <ele>875.8</ele>
        <time>2022-06-27T11:21:50Z</time>
      </trkpt>
      <trkpt lat="42.3463710" lon="-3.6601360">
        <ele>875.8</ele>
        <time>2022-06-27T11:21:51Z</time>
      </trkpt>
      <trkpt lat="42.3463960" lon="-3.6602540">
        <ele>875.8</ele>
        <time>2022-06-27T11:21:52Z</time>
      </trkpt>
      <trkpt lat="42.3464170" lon="-3.6603520">
        <ele>875.8</ele>
        <time>2022-06-27T11:21:53Z</time>
      </trkpt>
      <trkpt lat="42.3464380" lon="-3.6604500">
        <ele>875.8</ele>
        <time>2022-06-27T11:21:54Z</time>
      </trkpt>
      <trkpt lat="42.3464560" lon="-3.6605290">
        <ele>875.8</ele>
        <time>2022-06-27T11:21:55Z</time>
      </trkpt>
      <trkpt lat="42.3464750" lon="-3.6606250">
        <ele>875.8</ele>
        <time>2022-06-27T11:21:56Z</time>
      </trkpt>
      <trkpt lat="42.3465000" lon="-3.6607410">
        <ele>875.8</ele>
        <time>2022-06-27T11:21:57Z</time>
      </trkpt>
      <trkpt lat="42.3465200" lon="-3.6608360">
        <ele>875.8</ele>
        <time>2022-06-27T11:21:58Z</time>
      </trkpt>
      <trkpt lat="42.3465380" lon="-3.6609310">
        <ele>875.6</ele>
        <time>2022-06-27T11:21:59Z</time>
      </trkpt>
      <trkpt lat="42.3465540" lon="-3.6610260">
        <ele>875.6</ele>
        <time>2022-06-27T11:22:00Z</time>
      </trkpt>
      <trkpt lat="42.3465680" lon="-3.6611240">
        <ele>875.6</ele>
        <time>2022-06-27T11:22:01Z</time>
      </trkpt>
      <trkpt lat="42.3465800" lon="-3.6612210">
        <ele>875.6</ele>
        <time>2022-06-27T11:22:02Z</time>
      </trkpt>
      <trkpt lat="42.3465910" lon="-3.6613190">
        <ele>875.6</ele>
        <time>2022-06-27T11:22:03Z</time>
      </trkpt>
      <trkpt lat="42.3466040" lon="-3.6614160">
        <ele>875.6</ele>
        <time>2022-06-27T11:22:04Z</time>
      </trkpt>
      <trkpt lat="42.3466140" lon="-3.6614920">
        <ele>875.4</ele>
        <time>2022-06-27T11:22:05Z</time>
      </trkpt>
      <trkpt lat="42.3466270" lon="-3.6616060">
        <ele>875.4</ele>
        <time>2022-06-27T11:22:06Z</time>
      </trkpt>
      <trkpt lat="42.3466410" lon="-3.6616990">
        <ele>875.0</ele>
        <time>2022-06-27T11:22:07Z</time>
      </trkpt>
      <trkpt lat="42.3466550" lon="-3.6617900">
        <ele>875.0</ele>
        <time>2022-06-27T11:22:08Z</time>
      </trkpt>
      <trkpt lat="42.3466660" lon="-3.6618630">
        <ele>875.0</ele>
        <time>2022-06-27T11:22:09Z</time>
      </trkpt>
      <trkpt lat="42.3466820" lon="-3.6619700">
        <ele>875.0</ele>
        <time>2022-06-27T11:22:10Z</time>
      </trkpt>
      <trkpt lat="42.3466970" lon="-3.6620590">
        <ele>874.8</ele>
        <time>2022-06-27T11:22:11Z</time>
      </trkpt>
      <trkpt lat="42.3467110" lon="-3.6621480">
        <ele>874.8</ele>
        <time>2022-06-27T11:22:12Z</time>
      </trkpt>
      <trkpt lat="42.3467190" lon="-3.6622160">
        <ele>874.8</ele>
        <time>2022-06-27T11:22:13Z</time>
      </trkpt>
      <trkpt lat="42.3467310" lon="-3.6623010">
        <ele>874.8</ele>
        <time>2022-06-27T11:22:14Z</time>
      </trkpt>
      <trkpt lat="42.3467450" lon="-3.6624010">
        <ele>874.8</ele>
        <time>2022-06-27T11:22:15Z</time>
      </trkpt>
      <trkpt lat="42.3467560" lon="-3.6624840">
        <ele>874.8</ele>
        <time>2022-06-27T11:22:16Z</time>
      </trkpt>
      <trkpt lat="42.3467690" lon="-3.6625670">
        <ele>874.8</ele>
        <time>2022-06-27T11:22:17Z</time>
      </trkpt>
      <trkpt lat="42.3467810" lon="-3.6626470">
        <ele>874.8</ele>
        <time>2022-06-27T11:22:18Z</time>
      </trkpt>
      <trkpt lat="42.3467910" lon="-3.6627090">
        <ele>874.8</ele>
        <time>2022-06-27T11:22:19Z</time>
      </trkpt>
      <trkpt lat="42.3468070" lon="-3.6628010">
        <ele>874.8</ele>
        <time>2022-06-27T11:22:20Z</time>
      </trkpt>
      <trkpt lat="42.3468190" lon="-3.6628750">
        <ele>874.8</ele>
        <time>2022-06-27T11:22:21Z</time>
      </trkpt>
      <trkpt lat="42.3468280" lon="-3.6629500">
        <ele>874.8</ele>
        <time>2022-06-27T11:22:22Z</time>
      </trkpt>
      <trkpt lat="42.3468350" lon="-3.6630250">
        <ele>874.8</ele>
        <time>2022-06-27T11:22:23Z</time>
      </trkpt>
      <trkpt lat="42.3468390" lon="-3.6631010">
        <ele>874.8</ele>
        <time>2022-06-27T11:22:24Z</time>
      </trkpt>
      <trkpt lat="42.3468320" lon="-3.6631710">
        <ele>874.8</ele>
        <time>2022-06-27T11:22:25Z</time>
      </trkpt>
      <trkpt lat="42.3468070" lon="-3.6632310">
        <ele>874.8</ele>
        <time>2022-06-27T11:22:26Z</time>
      </trkpt>
      <trkpt lat="42.3467710" lon="-3.6632700">
        <ele>875.0</ele>
        <time>2022-06-27T11:22:27Z</time>
      </trkpt>
      <trkpt lat="42.3467210" lon="-3.6633080">
        <ele>875.0</ele>
        <time>2022-06-27T11:22:28Z</time>
      </trkpt>
      <trkpt lat="42.3466540" lon="-3.6633460">
        <ele>875.2</ele>
        <time>2022-06-27T11:22:29Z</time>
      </trkpt>
      <trkpt lat="42.3465950" lon="-3.6633760">
        <ele>875.4</ele>
        <time>2022-06-27T11:22:30Z</time>
      </trkpt>
      <trkpt lat="42.3465330" lon="-3.6634080">
        <ele>875.4</ele>
        <time>2022-06-27T11:22:31Z</time>
      </trkpt>
      <trkpt lat="42.3464710" lon="-3.6634480">
        <ele>875.4</ele>
        <time>2022-06-27T11:22:32Z</time>
      </trkpt>
      <trkpt lat="42.3464120" lon="-3.6634930">
        <ele>875.4</ele>
        <time>2022-06-27T11:22:33Z</time>
      </trkpt>
      <trkpt lat="42.3463590" lon="-3.6635410">
        <ele>875.4</ele>
        <time>2022-06-27T11:22:34Z</time>
      </trkpt>
      <trkpt lat="42.3463020" lon="-3.6635920">
        <ele>875.4</ele>
        <time>2022-06-27T11:22:35Z</time>
      </trkpt>
      <trkpt lat="42.3462430" lon="-3.6636450">
        <ele>875.4</ele>
        <time>2022-06-27T11:22:36Z</time>
      </trkpt>
      <trkpt lat="42.3461970" lon="-3.6636860">
        <ele>875.2</ele>
        <time>2022-06-27T11:22:37Z</time>
      </trkpt>
      <trkpt lat="42.3461410" lon="-3.6637380">
        <ele>875.0</ele>
        <time>2022-06-27T11:22:38Z</time>
      </trkpt>
      <trkpt lat="42.3460860" lon="-3.6637890">
        <ele>875.0</ele>
        <time>2022-06-27T11:22:39Z</time>
      </trkpt>
      <trkpt lat="42.3460320" lon="-3.6638400">
        <ele>875.0</ele>
        <time>2022-06-27T11:22:40Z</time>
      </trkpt>
      <trkpt lat="42.3459750" lon="-3.6638910">
        <ele>875.0</ele>
        <time>2022-06-27T11:22:41Z</time>
      </trkpt>
      <trkpt lat="42.3459160" lon="-3.6639390">
        <ele>875.2</ele>
        <time>2022-06-27T11:22:42Z</time>
      </trkpt>
      <trkpt lat="42.3458560" lon="-3.6639880">
        <ele>875.2</ele>
        <time>2022-06-27T11:22:43Z</time>
      </trkpt>
      <trkpt lat="42.3457930" lon="-3.6640390">
        <ele>875.2</ele>
        <time>2022-06-27T11:22:44Z</time>
      </trkpt>
      <trkpt lat="42.3457310" lon="-3.6640940">
        <ele>875.4</ele>
        <time>2022-06-27T11:22:45Z</time>
      </trkpt>
      <trkpt lat="42.3456700" lon="-3.6641530">
        <ele>875.4</ele>
        <time>2022-06-27T11:22:46Z</time>
      </trkpt>
      <trkpt lat="42.3456100" lon="-3.6642090">
        <ele>875.4</ele>
        <time>2022-06-27T11:22:47Z</time>
      </trkpt>
      <trkpt lat="42.3455360" lon="-3.6642750">
        <ele>875.4</ele>
        <time>2022-06-27T11:22:48Z</time>
      </trkpt>
      <trkpt lat="42.3454710" lon="-3.6643330">
        <ele>875.4</ele>
        <time>2022-06-27T11:22:49Z</time>
      </trkpt>
      <trkpt lat="42.3454060" lon="-3.6643920">
        <ele>875.4</ele>
        <time>2022-06-27T11:22:50Z</time>
      </trkpt>
      <trkpt lat="42.3453410" lon="-3.6644540">
        <ele>875.4</ele>
        <time>2022-06-27T11:22:51Z</time>
      </trkpt>
      <trkpt lat="42.3452750" lon="-3.6645150">
        <ele>875.4</ele>
        <time>2022-06-27T11:22:52Z</time>
      </trkpt>
      <trkpt lat="42.3452090" lon="-3.6645750">
        <ele>875.4</ele>
        <time>2022-06-27T11:22:53Z</time>
      </trkpt>
      <trkpt lat="42.3451410" lon="-3.6646390">
        <ele>875.2</ele>
        <time>2022-06-27T11:22:54Z</time>
      </trkpt>
      <trkpt lat="42.3450730" lon="-3.6647020">
        <ele>874.8</ele>
        <time>2022-06-27T11:22:55Z</time>
      </trkpt>
      <trkpt lat="42.3450040" lon="-3.6647660">
        <ele>874.6</ele>
        <time>2022-06-27T11:22:56Z</time>
      </trkpt>
      <trkpt lat="42.3449500" lon="-3.6648170">
        <ele>874.4</ele>
        <time>2022-06-27T11:22:57Z</time>
      </trkpt>
      <trkpt lat="42.3448690" lon="-3.6648930">
        <ele>874.2</ele>
        <time>2022-06-27T11:22:58Z</time>
      </trkpt>
      <trkpt lat="42.3448030" lon="-3.6649560">
        <ele>874.0</ele>
        <time>2022-06-27T11:22:59Z</time>
      </trkpt>
      <trkpt lat="42.3447520" lon="-3.6650070">
        <ele>874.0</ele>
        <time>2022-06-27T11:23:00Z</time>
      </trkpt>
      <trkpt lat="42.3446880" lon="-3.6650710">
        <ele>873.8</ele>
        <time>2022-06-27T11:23:01Z</time>
      </trkpt>
      <trkpt lat="42.3446120" lon="-3.6651490">
        <ele>873.6</ele>
        <time>2022-06-27T11:23:02Z</time>
      </trkpt>
      <trkpt lat="42.3445640" lon="-3.6651990">
        <ele>873.4</ele>
        <time>2022-06-27T11:23:03Z</time>
      </trkpt>
      <trkpt lat="42.3445050" lon="-3.6652590">
        <ele>873.4</ele>
        <time>2022-06-27T11:23:04Z</time>
      </trkpt>
      <trkpt lat="42.3444650" lon="-3.6653000">
        <ele>873.2</ele>
        <time>2022-06-27T11:23:05Z</time>
      </trkpt>
      <trkpt lat="42.3444260" lon="-3.6653410">
        <ele>873.2</ele>
        <time>2022-06-27T11:23:06Z</time>
      </trkpt>
      <trkpt lat="42.3443460" lon="-3.6654220">
        <ele>873.2</ele>
        <time>2022-06-27T11:23:07Z</time>
      </trkpt>
      <trkpt lat="42.3442980" lon="-3.6654670">
        <ele>873.2</ele>
        <time>2022-06-27T11:23:08Z</time>
      </trkpt>
      <trkpt lat="42.3442540" lon="-3.6655090">
        <ele>873.4</ele>
        <time>2022-06-27T11:23:09Z</time>
      </trkpt>
      <trkpt lat="42.3442130" lon="-3.6655470">
        <ele>874.0</ele>
        <time>2022-06-27T11:23:10Z</time>
      </trkpt>
      <trkpt lat="42.3441640" lon="-3.6655900">
        <ele>874.0</ele>
        <time>2022-06-27T11:23:11Z</time>
      </trkpt>
      <trkpt lat="42.3441230" lon="-3.6656220">
        <ele>874.4</ele>
        <time>2022-06-27T11:23:12Z</time>
      </trkpt>
      <trkpt lat="42.3440820" lon="-3.6656530">
        <ele>874.6</ele>
        <time>2022-06-27T11:23:13Z</time>
      </trkpt>
      <trkpt lat="42.3440410" lon="-3.6656860">
        <ele>875.0</ele>
        <time>2022-06-27T11:23:14Z</time>
      </trkpt>
      <trkpt lat="42.3440000" lon="-3.6657220">
        <ele>875.2</ele>
        <time>2022-06-27T11:23:15Z</time>
      </trkpt>
      <trkpt lat="42.3439580" lon="-3.6657600">
        <ele>875.6</ele>
        <time>2022-06-27T11:23:16Z</time>
      </trkpt>
      <trkpt lat="42.3439120" lon="-3.6658020">
        <ele>875.8</ele>
        <time>2022-06-27T11:23:17Z</time>
      </trkpt>
      <trkpt lat="42.3438670" lon="-3.6658460">
        <ele>876.2</ele>
        <time>2022-06-27T11:23:18Z</time>
      </trkpt>
      <trkpt lat="42.3438210" lon="-3.6658880">
        <ele>876.4</ele>
        <time>2022-06-27T11:23:19Z</time>
      </trkpt>
      <trkpt lat="42.3437730" lon="-3.6659320">
        <ele>876.6</ele>
        <time>2022-06-27T11:23:20Z</time>
      </trkpt>
      <trkpt lat="42.3437320" lon="-3.6659690">
        <ele>876.8</ele>
        <time>2022-06-27T11:23:21Z</time>
      </trkpt>
      <trkpt lat="42.3436660" lon="-3.6660290">
        <ele>876.8</ele>
        <time>2022-06-27T11:23:22Z</time>
      </trkpt>
      <trkpt lat="42.3436070" lon="-3.6660840">
        <ele>876.8</ele>
        <time>2022-06-27T11:23:23Z</time>
      </trkpt>
      <trkpt lat="42.3435590" lon="-3.6661280">
        <ele>876.8</ele>
        <time>2022-06-27T11:23:24Z</time>
      </trkpt>
      <trkpt lat="42.3434960" lon="-3.6661850">
        <ele>877.0</ele>
        <time>2022-06-27T11:23:25Z</time>
      </trkpt>
      <trkpt lat="42.3434160" lon="-3.6662550">
        <ele>877.2</ele>
        <time>2022-06-27T11:23:26Z</time>
      </trkpt>
      <trkpt lat="42.3433480" lon="-3.6663150">
        <ele>876.8</ele>
        <time>2022-06-27T11:23:27Z</time>
      </trkpt>
      <trkpt lat="42.3432800" lon="-3.6663800">
        <ele>876.8</ele>
        <time>2022-06-27T11:23:28Z</time>
      </trkpt>
      <trkpt lat="42.3432230" lon="-3.6664320">
        <ele>876.6</ele>
        <time>2022-06-27T11:23:29Z</time>
      </trkpt>
      <trkpt lat="42.3431530" lon="-3.6664950">
        <ele>876.4</ele>
        <time>2022-06-27T11:23:30Z</time>
      </trkpt>
      <trkpt lat="42.3430660" lon="-3.6665730">
        <ele>876.2</ele>
        <time>2022-06-27T11:23:31Z</time>
      </trkpt>
      <trkpt lat="42.3429950" lon="-3.6666400">
        <ele>875.6</ele>
        <time>2022-06-27T11:23:32Z</time>
      </trkpt>
      <trkpt lat="42.3429220" lon="-3.6667100">
        <ele>875.0</ele>
        <time>2022-06-27T11:23:33Z</time>
      </trkpt>
      <trkpt lat="42.3428640" lon="-3.6667660">
        <ele>874.8</ele>
        <time>2022-06-27T11:23:34Z</time>
      </trkpt>
      <trkpt lat="42.3427880" lon="-3.6668360">
        <ele>874.4</ele>
        <time>2022-06-27T11:23:35Z</time>
      </trkpt>
      <trkpt lat="42.3426990" lon="-3.6669240">
        <ele>874.0</ele>
        <time>2022-06-27T11:23:36Z</time>
      </trkpt>
      <trkpt lat="42.3426300" lon="-3.6670020">
        <ele>873.8</ele>
        <time>2022-06-27T11:23:37Z</time>
      </trkpt>
      <trkpt lat="42.3425750" lon="-3.6670670">
        <ele>873.6</ele>
        <time>2022-06-27T11:23:38Z</time>
      </trkpt>
      <trkpt lat="42.3425080" lon="-3.6671490">
        <ele>873.2</ele>
        <time>2022-06-27T11:23:39Z</time>
      </trkpt>
      <trkpt lat="42.3424290" lon="-3.6672510">
        <ele>872.6</ele>
        <time>2022-06-27T11:23:40Z</time>
      </trkpt>
      <trkpt lat="42.3423670" lon="-3.6673410">
        <ele>872.6</ele>
        <time>2022-06-27T11:23:41Z</time>
      </trkpt>
      <trkpt lat="42.3423090" lon="-3.6674340">
        <ele>872.4</ele>
        <time>2022-06-27T11:23:42Z</time>
      </trkpt>
      <trkpt lat="42.3422640" lon="-3.6675090">
        <ele>872.2</ele>
        <time>2022-06-27T11:23:43Z</time>
      </trkpt>
      <trkpt lat="42.3422080" lon="-3.6676050">
        <ele>872.2</ele>
        <time>2022-06-27T11:23:44Z</time>
      </trkpt>
      <trkpt lat="42.3421440" lon="-3.6677190">
        <ele>872.0</ele>
        <time>2022-06-27T11:23:45Z</time>
      </trkpt>
      <trkpt lat="42.3420950" lon="-3.6678170">
        <ele>872.0</ele>
        <time>2022-06-27T11:23:46Z</time>
      </trkpt>
      <trkpt lat="42.3420460" lon="-3.6679180">
        <ele>871.8</ele>
        <time>2022-06-27T11:23:47Z</time>
      </trkpt>
      <trkpt lat="42.3420110" lon="-3.6680000">
        <ele>871.8</ele>
        <time>2022-06-27T11:23:48Z</time>
      </trkpt>
      <trkpt lat="42.3419700" lon="-3.6681020">
        <ele>871.8</ele>
        <time>2022-06-27T11:23:49Z</time>
      </trkpt>
      <trkpt lat="42.3419230" lon="-3.6682240">
        <ele>871.8</ele>
        <time>2022-06-27T11:23:50Z</time>
      </trkpt>
      <trkpt lat="42.3418930" lon="-3.6683060">
        <ele>872.0</ele>
        <time>2022-06-27T11:23:51Z</time>
      </trkpt>
      <trkpt lat="42.3418490" lon="-3.6684290">
        <ele>872.0</ele>
        <time>2022-06-27T11:23:52Z</time>
      </trkpt>
      <trkpt lat="42.3418180" lon="-3.6685100">
        <ele>872.2</ele>
        <time>2022-06-27T11:23:53Z</time>
      </trkpt>
      <trkpt lat="42.3417820" lon="-3.6686090">
        <ele>872.4</ele>
        <time>2022-06-27T11:23:54Z</time>
      </trkpt>
      <trkpt lat="42.3417380" lon="-3.6687300">
        <ele>872.4</ele>
        <time>2022-06-27T11:23:55Z</time>
      </trkpt>
      <trkpt lat="42.3417010" lon="-3.6688300">
        <ele>872.4</ele>
        <time>2022-06-27T11:23:56Z</time>
      </trkpt>
      <trkpt lat="42.3416730" lon="-3.6689090">
        <ele>872.4</ele>
        <time>2022-06-27T11:23:57Z</time>
      </trkpt>
      <trkpt lat="42.3416380" lon="-3.6690080">
        <ele>872.6</ele>
        <time>2022-06-27T11:23:58Z</time>
      </trkpt>
      <trkpt lat="42.3415960" lon="-3.6691230">
        <ele>872.6</ele>
        <time>2022-06-27T11:23:59Z</time>
      </trkpt>
      <trkpt lat="42.3415630" lon="-3.6692130">
        <ele>872.6</ele>
        <time>2022-06-27T11:24:00Z</time>
      </trkpt>
      <trkpt lat="42.3415310" lon="-3.6693000">
        <ele>872.6</ele>
        <time>2022-06-27T11:24:01Z</time>
      </trkpt>
      <trkpt lat="42.3415080" lon="-3.6693700">
        <ele>872.6</ele>
        <time>2022-06-27T11:24:02Z</time>
      </trkpt>
      <trkpt lat="42.3414850" lon="-3.6694600">
        <ele>872.8</ele>
        <time>2022-06-27T11:24:03Z</time>
      </trkpt>
      <trkpt lat="42.3414770" lon="-3.6695710">
        <ele>872.8</ele>
        <time>2022-06-27T11:24:04Z</time>
      </trkpt>
      <trkpt lat="42.3414850" lon="-3.6696630">
        <ele>872.8</ele>
        <time>2022-06-27T11:24:05Z</time>
      </trkpt>
      <trkpt lat="42.3414910" lon="-3.6697530">
        <ele>872.8</ele>
        <time>2022-06-27T11:24:06Z</time>
      </trkpt>
      <trkpt lat="42.3414850" lon="-3.6698250">
        <ele>873.0</ele>
        <time>2022-06-27T11:24:07Z</time>
      </trkpt>
      <trkpt lat="42.3414640" lon="-3.6699120">
        <ele>873.0</ele>
        <time>2022-06-27T11:24:08Z</time>
      </trkpt>
      <trkpt lat="42.3414210" lon="-3.6700020">
        <ele>873.0</ele>
        <time>2022-06-27T11:24:09Z</time>
      </trkpt>
      <trkpt lat="42.3413720" lon="-3.6700630">
        <ele>873.2</ele>
        <time>2022-06-27T11:24:10Z</time>
      </trkpt>
      <trkpt lat="42.3413300" lon="-3.6701050">
        <ele>873.2</ele>
        <time>2022-06-27T11:24:11Z</time>
      </trkpt>
      <trkpt lat="42.3412810" lon="-3.6701590">
        <ele>873.2</ele>
        <time>2022-06-27T11:24:12Z</time>
      </trkpt>
      <trkpt lat="42.3412320" lon="-3.6702330">
        <ele>873.2</ele>
        <time>2022-06-27T11:24:13Z</time>
      </trkpt>
      <trkpt lat="42.3412020" lon="-3.6703120">
        <ele>873.2</ele>
        <time>2022-06-27T11:24:14Z</time>
      </trkpt>
      <trkpt lat="42.3411790" lon="-3.6703990">
        <ele>873.2</ele>
        <time>2022-06-27T11:24:15Z</time>
      </trkpt>
      <trkpt lat="42.3411630" lon="-3.6704750">
        <ele>873.2</ele>
        <time>2022-06-27T11:24:16Z</time>
      </trkpt>
      <trkpt lat="42.3411460" lon="-3.6705740">
        <ele>873.2</ele>
        <time>2022-06-27T11:24:17Z</time>
      </trkpt>
      <trkpt lat="42.3411270" lon="-3.6706930">
        <ele>873.2</ele>
        <time>2022-06-27T11:24:18Z</time>
      </trkpt>
      <trkpt lat="42.3411130" lon="-3.6707950">
        <ele>873.0</ele>
        <time>2022-06-27T11:24:19Z</time>
      </trkpt>
      <trkpt lat="42.3411010" lon="-3.6708990">
        <ele>873.0</ele>
        <time>2022-06-27T11:24:20Z</time>
      </trkpt>
      <trkpt lat="42.3410920" lon="-3.6709840">
        <ele>873.0</ele>
        <time>2022-06-27T11:24:21Z</time>
      </trkpt>
      <trkpt lat="42.3410800" lon="-3.6710900">
        <ele>873.0</ele>
        <time>2022-06-27T11:24:22Z</time>
      </trkpt>
      <trkpt lat="42.3410650" lon="-3.6712180">
        <ele>873.0</ele>
        <time>2022-06-27T11:24:23Z</time>
      </trkpt>
      <trkpt lat="42.3410560" lon="-3.6713250">
        <ele>873.0</ele>
        <time>2022-06-27T11:24:24Z</time>
      </trkpt>
      <trkpt lat="42.3410480" lon="-3.6714320">
        <ele>872.8</ele>
        <time>2022-06-27T11:24:25Z</time>
      </trkpt>
      <trkpt lat="42.3410440" lon="-3.6715410">
        <ele>872.8</ele>
        <time>2022-06-27T11:24:26Z</time>
      </trkpt>
      <trkpt lat="42.3410430" lon="-3.6716310">
        <ele>872.8</ele>
        <time>2022-06-27T11:24:27Z</time>
      </trkpt>
      <trkpt lat="42.3410420" lon="-3.6717660">
        <ele>872.8</ele>
        <time>2022-06-27T11:24:28Z</time>
      </trkpt>
      <trkpt lat="42.3410400" lon="-3.6718790">
        <ele>872.6</ele>
        <time>2022-06-27T11:24:29Z</time>
      </trkpt>
      <trkpt lat="42.3410410" lon="-3.6719710">
        <ele>872.6</ele>
        <time>2022-06-27T11:24:30Z</time>
      </trkpt>
      <trkpt lat="42.3410430" lon="-3.6720870">
        <ele>872.2</ele>
        <time>2022-06-27T11:24:31Z</time>
      </trkpt>
      <trkpt lat="42.3410470" lon="-3.6722260">
        <ele>872.2</ele>
        <time>2022-06-27T11:24:32Z</time>
      </trkpt>
      <trkpt lat="42.3410500" lon="-3.6723430">
        <ele>872.2</ele>
        <time>2022-06-27T11:24:33Z</time>
      </trkpt>
      <trkpt lat="42.3410530" lon="-3.6724600">
        <ele>872.0</ele>
        <time>2022-06-27T11:24:34Z</time>
      </trkpt>
      <trkpt lat="42.3410560" lon="-3.6725540">
        <ele>872.0</ele>
        <time>2022-06-27T11:24:35Z</time>
      </trkpt>
      <trkpt lat="42.3410600" lon="-3.6726710">
        <ele>872.0</ele>
        <time>2022-06-27T11:24:36Z</time>
      </trkpt>
      <trkpt lat="42.3410630" lon="-3.6728130">
        <ele>871.8</ele>
        <time>2022-06-27T11:24:37Z</time>
      </trkpt>
      <trkpt lat="42.3410660" lon="-3.6729310">
        <ele>871.6</ele>
        <time>2022-06-27T11:24:38Z</time>
      </trkpt>
      <trkpt lat="42.3410680" lon="-3.6730510">
        <ele>871.6</ele>
        <time>2022-06-27T11:24:39Z</time>
      </trkpt>
      <trkpt lat="42.3410700" lon="-3.6731710">
        <ele>871.6</ele>
        <time>2022-06-27T11:24:40Z</time>
      </trkpt>
      <trkpt lat="42.3410720" lon="-3.6732680">
        <ele>871.6</ele>
        <time>2022-06-27T11:24:41Z</time>
      </trkpt>
      <trkpt lat="42.3410740" lon="-3.6733890">
        <ele>871.4</ele>
        <time>2022-06-27T11:24:42Z</time>
      </trkpt>
      <trkpt lat="42.3410770" lon="-3.6735310">
        <ele>871.4</ele>
        <time>2022-06-27T11:24:43Z</time>
      </trkpt>
      <trkpt lat="42.3410770" lon="-3.6736260">
        <ele>871.4</ele>
        <time>2022-06-27T11:24:44Z</time>
      </trkpt>
      <trkpt lat="42.3410760" lon="-3.6737430">
        <ele>871.4</ele>
        <time>2022-06-27T11:24:45Z</time>
      </trkpt>
      <trkpt lat="42.3410760" lon="-3.6738830">
        <ele>871.4</ele>
        <time>2022-06-27T11:24:46Z</time>
      </trkpt>
      <trkpt lat="42.3410760" lon="-3.6739970">
        <ele>871.4</ele>
        <time>2022-06-27T11:24:47Z</time>
      </trkpt>
      <trkpt lat="42.3410770" lon="-3.6741120">
        <ele>871.4</ele>
        <time>2022-06-27T11:24:48Z</time>
      </trkpt>
      <trkpt lat="42.3410780" lon="-3.6742030">
        <ele>871.2</ele>
        <time>2022-06-27T11:24:49Z</time>
      </trkpt>
      <trkpt lat="42.3410760" lon="-3.6743400">
        <ele>871.2</ele>
        <time>2022-06-27T11:24:50Z</time>
      </trkpt>
      <trkpt lat="42.3410750" lon="-3.6744560">
        <ele>871.2</ele>
        <time>2022-06-27T11:24:51Z</time>
      </trkpt>
      <trkpt lat="42.3410730" lon="-3.6745720">
        <ele>871.2</ele>
        <time>2022-06-27T11:24:52Z</time>
      </trkpt>
      <trkpt lat="42.3410720" lon="-3.6746890">
        <ele>871.2</ele>
        <time>2022-06-27T11:24:53Z</time>
      </trkpt>
      <trkpt lat="42.3410690" lon="-3.6747830">
        <ele>871.2</ele>
        <time>2022-06-27T11:24:54Z</time>
      </trkpt>
      <trkpt lat="42.3410670" lon="-3.6749010">
        <ele>871.2</ele>
        <time>2022-06-27T11:24:55Z</time>
      </trkpt>
      <trkpt lat="42.3410650" lon="-3.6750440">
        <ele>871.2</ele>
        <time>2022-06-27T11:24:56Z</time>
      </trkpt>
      <trkpt lat="42.3410600" lon="-3.6751630">
        <ele>871.2</ele>
        <time>2022-06-27T11:24:57Z</time>
      </trkpt>
      <trkpt lat="42.3410580" lon="-3.6752810">
        <ele>871.2</ele>
        <time>2022-06-27T11:24:58Z</time>
      </trkpt>
      <trkpt lat="42.3410560" lon="-3.6753740">
        <ele>871.2</ele>
        <time>2022-06-27T11:24:59Z</time>
      </trkpt>
      <trkpt lat="42.3410530" lon="-3.6754940">
        <ele>871.2</ele>
        <time>2022-06-27T11:25:00Z</time>
      </trkpt>
      <trkpt lat="42.3410470" lon="-3.6756370">
        <ele>871.2</ele>
        <time>2022-06-27T11:25:01Z</time>
      </trkpt>
      <trkpt lat="42.3410410" lon="-3.6757560">
        <ele>871.0</ele>
        <time>2022-06-27T11:25:02Z</time>
      </trkpt>
      <trkpt lat="42.3410370" lon="-3.6758510">
        <ele>871.0</ele>
        <time>2022-06-27T11:25:03Z</time>
      </trkpt>
      <trkpt lat="42.3410330" lon="-3.6759700">
        <ele>871.0</ele>
        <time>2022-06-27T11:25:04Z</time>
      </trkpt>
      <trkpt lat="42.3410300" lon="-3.6761120">
        <ele>871.0</ele>
        <time>2022-06-27T11:25:05Z</time>
      </trkpt>
      <trkpt lat="42.3410270" lon="-3.6762310">
        <ele>871.0</ele>
        <time>2022-06-27T11:25:06Z</time>
      </trkpt>
      <trkpt lat="42.3410230" lon="-3.6763490">
        <ele>871.0</ele>
        <time>2022-06-27T11:25:07Z</time>
      </trkpt>
      <trkpt lat="42.3410190" lon="-3.6764680">
        <ele>871.0</ele>
        <time>2022-06-27T11:25:08Z</time>
      </trkpt>
      <trkpt lat="42.3410160" lon="-3.6765640">
        <ele>871.0</ele>
        <time>2022-06-27T11:25:09Z</time>
      </trkpt>
      <trkpt lat="42.3410120" lon="-3.6767070">
        <ele>870.8</ele>
        <time>2022-06-27T11:25:10Z</time>
      </trkpt>
      <trkpt lat="42.3410070" lon="-3.6768270">
        <ele>870.8</ele>
        <time>2022-06-27T11:25:11Z</time>
      </trkpt>
      <trkpt lat="42.3410020" lon="-3.6769470">
        <ele>870.8</ele>
        <time>2022-06-27T11:25:12Z</time>
      </trkpt>
      <trkpt lat="42.3409970" lon="-3.6770430">
        <ele>870.8</ele>
        <time>2022-06-27T11:25:13Z</time>
      </trkpt>
      <trkpt lat="42.3409910" lon="-3.6771620">
        <ele>870.8</ele>
        <time>2022-06-27T11:25:14Z</time>
      </trkpt>
      <trkpt lat="42.3409850" lon="-3.6773040">
        <ele>870.8</ele>
        <time>2022-06-27T11:25:15Z</time>
      </trkpt>
      <trkpt lat="42.3409790" lon="-3.6774230">
        <ele>870.8</ele>
        <time>2022-06-27T11:25:16Z</time>
      </trkpt>
      <trkpt lat="42.3409750" lon="-3.6775190">
        <ele>870.6</ele>
        <time>2022-06-27T11:25:17Z</time>
      </trkpt>
      <trkpt lat="42.3409700" lon="-3.6776390">
        <ele>870.6</ele>
        <time>2022-06-27T11:25:18Z</time>
      </trkpt>
      <trkpt lat="42.3409650" lon="-3.6777590">
        <ele>870.6</ele>
        <time>2022-06-27T11:25:19Z</time>
      </trkpt>
      <trkpt lat="42.3409590" lon="-3.6779000">
        <ele>870.6</ele>
        <time>2022-06-27T11:25:20Z</time>
      </trkpt>
      <trkpt lat="42.3409530" lon="-3.6780150">
        <ele>870.4</ele>
        <time>2022-06-27T11:25:21Z</time>
      </trkpt>
      <trkpt lat="42.3409460" lon="-3.6781310">
        <ele>870.2</ele>
        <time>2022-06-27T11:25:22Z</time>
      </trkpt>
      <trkpt lat="42.3409390" lon="-3.6782250">
        <ele>870.2</ele>
        <time>2022-06-27T11:25:23Z</time>
      </trkpt>
      <trkpt lat="42.3409320" lon="-3.6783430">
        <ele>870.2</ele>
        <time>2022-06-27T11:25:24Z</time>
      </trkpt>
      <trkpt lat="42.3409250" lon="-3.6784830">
        <ele>870.2</ele>
        <time>2022-06-27T11:25:25Z</time>
      </trkpt>
      <trkpt lat="42.3409210" lon="-3.6785970">
        <ele>870.2</ele>
        <time>2022-06-27T11:25:26Z</time>
      </trkpt>
      <trkpt lat="42.3409160" lon="-3.6786880">
        <ele>870.2</ele>
        <time>2022-06-27T11:25:27Z</time>
      </trkpt>
      <trkpt lat="42.3409100" lon="-3.6787950">
        <ele>870.2</ele>
        <time>2022-06-27T11:25:28Z</time>
      </trkpt>
      <trkpt lat="42.3409040" lon="-3.6789110">
        <ele>870.0</ele>
        <time>2022-06-27T11:25:29Z</time>
      </trkpt>
      <trkpt lat="42.3408970" lon="-3.6789950">
        <ele>870.0</ele>
        <time>2022-06-27T11:25:30Z</time>
      </trkpt>
      <trkpt lat="42.3408910" lon="-3.6790680">
        <ele>869.8</ele>
        <time>2022-06-27T11:25:31Z</time>
      </trkpt>
      <trkpt lat="42.3408880" lon="-3.6791180">
        <ele>869.8</ele>
        <time>2022-06-27T11:25:32Z</time>
      </trkpt>
      <trkpt lat="42.3408850" lon="-3.6791750">
        <ele>869.8</ele>
        <time>2022-06-27T11:25:33Z</time>
      </trkpt>
      <trkpt lat="42.3408810" lon="-3.6792320">
        <ele>869.8</ele>
        <time>2022-06-27T11:25:34Z</time>
      </trkpt>
      <trkpt lat="42.3408540" lon="-3.6796570">
        <ele>868.4</ele>
        <time>2022-06-27T11:25:57Z</time>
      </trkpt>
      <trkpt lat="42.3408500" lon="-3.6796980">
        <ele>868.4</ele>
        <time>2022-06-27T11:25:58Z</time>
      </trkpt>
      <trkpt lat="42.3408410" lon="-3.6797710">
        <ele>868.4</ele>
        <time>2022-06-27T11:25:59Z</time>
      </trkpt>
      <trkpt lat="42.3408360" lon="-3.6798330">
        <ele>868.4</ele>
        <time>2022-06-27T11:26:00Z</time>
      </trkpt>
      <trkpt lat="42.3408320" lon="-3.6799150">
        <ele>868.4</ele>
        <time>2022-06-27T11:26:01Z</time>
      </trkpt>
      <trkpt lat="42.3408280" lon="-3.6800130">
        <ele>868.4</ele>
        <time>2022-06-27T11:26:02Z</time>
      </trkpt>
      <trkpt lat="42.3408230" lon="-3.6800970">
        <ele>868.4</ele>
        <time>2022-06-27T11:26:03Z</time>
      </trkpt>
      <trkpt lat="42.3408180" lon="-3.6801830">
        <ele>868.4</ele>
        <time>2022-06-27T11:26:04Z</time>
      </trkpt>
      <trkpt lat="42.3408130" lon="-3.6802530">
        <ele>868.4</ele>
        <time>2022-06-27T11:26:05Z</time>
      </trkpt>
      <trkpt lat="42.3408070" lon="-3.6803400">
        <ele>868.4</ele>
        <time>2022-06-27T11:26:06Z</time>
      </trkpt>
      <trkpt lat="42.3408000" lon="-3.6804480">
        <ele>868.4</ele>
        <time>2022-06-27T11:26:07Z</time>
      </trkpt>
      <trkpt lat="42.3407950" lon="-3.6805390">
        <ele>868.2</ele>
        <time>2022-06-27T11:26:08Z</time>
      </trkpt>
      <trkpt lat="42.3407890" lon="-3.6806330">
        <ele>868.2</ele>
        <time>2022-06-27T11:26:09Z</time>
      </trkpt>
      <trkpt lat="42.3407840" lon="-3.6807090">
        <ele>867.6</ele>
        <time>2022-06-27T11:26:10Z</time>
      </trkpt>
      <trkpt lat="42.3407780" lon="-3.6808060">
        <ele>867.4</ele>
        <time>2022-06-27T11:26:11Z</time>
      </trkpt>
      <trkpt lat="42.3407680" lon="-3.6809220">
        <ele>867.0</ele>
        <time>2022-06-27T11:26:12Z</time>
      </trkpt>
      <trkpt lat="42.3407590" lon="-3.6810200">
        <ele>866.8</ele>
        <time>2022-06-27T11:26:13Z</time>
      </trkpt>
      <trkpt lat="42.3407530" lon="-3.6811210">
        <ele>866.6</ele>
        <time>2022-06-27T11:26:14Z</time>
      </trkpt>
      <trkpt lat="42.3407470" lon="-3.6812030">
        <ele>866.4</ele>
        <time>2022-06-27T11:26:15Z</time>
      </trkpt>
      <trkpt lat="42.3407370" lon="-3.6813030">
        <ele>866.4</ele>
        <time>2022-06-27T11:26:16Z</time>
      </trkpt>
      <trkpt lat="42.3407250" lon="-3.6814250">
        <ele>866.2</ele>
        <time>2022-06-27T11:26:17Z</time>
      </trkpt>
      <trkpt lat="42.3407160" lon="-3.6815090">
        <ele>866.2</ele>
        <time>2022-06-27T11:26:18Z</time>
      </trkpt>
      <trkpt lat="42.3407050" lon="-3.6816140">
        <ele>866.0</ele>
        <time>2022-06-27T11:26:19Z</time>
      </trkpt>
      <trkpt lat="42.3406940" lon="-3.6817190">
        <ele>866.0</ele>
        <time>2022-06-27T11:26:20Z</time>
      </trkpt>
      <trkpt lat="42.3406830" lon="-3.6818250">
        <ele>866.0</ele>
        <time>2022-06-27T11:26:21Z</time>
      </trkpt>
      <trkpt lat="42.3406700" lon="-3.6819320">
        <ele>866.0</ele>
        <time>2022-06-27T11:26:22Z</time>
      </trkpt>
      <trkpt lat="42.3406540" lon="-3.6820610">
        <ele>866.0</ele>
        <time>2022-06-27T11:26:23Z</time>
      </trkpt>
      <trkpt lat="42.3406420" lon="-3.6821470">
        <ele>866.2</ele>
        <time>2022-06-27T11:26:24Z</time>
      </trkpt>
      <trkpt lat="42.3406270" lon="-3.6822550">
        <ele>866.2</ele>
        <time>2022-06-27T11:26:25Z</time>
      </trkpt>
      <trkpt lat="42.3406060" lon="-3.6823830">
        <ele>866.2</ele>
        <time>2022-06-27T11:26:26Z</time>
      </trkpt>
      <trkpt lat="42.3405910" lon="-3.6824680">
        <ele>866.2</ele>
        <time>2022-06-27T11:26:27Z</time>
      </trkpt>
      <trkpt lat="42.3405680" lon="-3.6825960">
        <ele>866.2</ele>
        <time>2022-06-27T11:26:28Z</time>
      </trkpt>
      <trkpt lat="42.3405530" lon="-3.6826810">
        <ele>866.4</ele>
        <time>2022-06-27T11:26:29Z</time>
      </trkpt>
      <trkpt lat="42.3405340" lon="-3.6827870">
        <ele>866.4</ele>
        <time>2022-06-27T11:26:30Z</time>
      </trkpt>
      <trkpt lat="42.3405110" lon="-3.6829110">
        <ele>866.4</ele>
        <time>2022-06-27T11:26:31Z</time>
      </trkpt>
      <trkpt lat="42.3404900" lon="-3.6830140">
        <ele>866.4</ele>
        <time>2022-06-27T11:26:32Z</time>
      </trkpt>
      <trkpt lat="42.3404700" lon="-3.6831160">
        <ele>866.4</ele>
        <time>2022-06-27T11:26:33Z</time>
      </trkpt>
      <trkpt lat="42.3404540" lon="-3.6832000">
        <ele>866.2</ele>
        <time>2022-06-27T11:26:34Z</time>
      </trkpt>
      <trkpt lat="42.3404310" lon="-3.6833040">
        <ele>866.0</ele>
        <time>2022-06-27T11:26:35Z</time>
      </trkpt>
      <trkpt lat="42.3404030" lon="-3.6834290">
        <ele>866.0</ele>
        <time>2022-06-27T11:26:36Z</time>
      </trkpt>
      <trkpt lat="42.3403790" lon="-3.6835320">
        <ele>866.0</ele>
        <time>2022-06-27T11:26:37Z</time>
      </trkpt>
      <trkpt lat="42.3403610" lon="-3.6836130">
        <ele>865.8</ele>
        <time>2022-06-27T11:26:38Z</time>
      </trkpt>
      <trkpt lat="42.3403330" lon="-3.6837150">
        <ele>865.8</ele>
        <time>2022-06-27T11:26:39Z</time>
      </trkpt>
      <trkpt lat="42.3403070" lon="-3.6838170">
        <ele>865.8</ele>
        <time>2022-06-27T11:26:40Z</time>
      </trkpt>
      <trkpt lat="42.3402740" lon="-3.6839390">
        <ele>865.8</ele>
        <time>2022-06-27T11:26:41Z</time>
      </trkpt>
      <trkpt lat="42.3402470" lon="-3.6840420">
        <ele>865.8</ele>
        <time>2022-06-27T11:26:42Z</time>
      </trkpt>
      <trkpt lat="42.3402250" lon="-3.6841240">
        <ele>865.8</ele>
        <time>2022-06-27T11:26:43Z</time>
      </trkpt>
      <trkpt lat="42.3401980" lon="-3.6842250">
        <ele>865.8</ele>
        <time>2022-06-27T11:26:44Z</time>
      </trkpt>
      <trkpt lat="42.3401700" lon="-3.6843240">
        <ele>865.8</ele>
        <time>2022-06-27T11:26:45Z</time>
      </trkpt>
      <trkpt lat="42.3401410" lon="-3.6844220">
        <ele>865.8</ele>
        <time>2022-06-27T11:26:46Z</time>
      </trkpt>
      <trkpt lat="42.3401040" lon="-3.6845390">
        <ele>865.8</ele>
        <time>2022-06-27T11:26:47Z</time>
      </trkpt>
      <trkpt lat="42.3400720" lon="-3.6846340">
        <ele>865.8</ele>
        <time>2022-06-27T11:26:48Z</time>
      </trkpt>
      <trkpt lat="42.3400480" lon="-3.6847090">
        <ele>865.6</ele>
        <time>2022-06-27T11:26:49Z</time>
      </trkpt>
      <trkpt lat="42.3400160" lon="-3.6848050">
        <ele>865.6</ele>
        <time>2022-06-27T11:26:50Z</time>
      </trkpt>
      <trkpt lat="42.3399780" lon="-3.6849160">
        <ele>865.6</ele>
        <time>2022-06-27T11:26:51Z</time>
      </trkpt>
      <trkpt lat="42.3399480" lon="-3.6850090">
        <ele>865.6</ele>
        <time>2022-06-27T11:26:52Z</time>
      </trkpt>
      <trkpt lat="42.3399200" lon="-3.6850860">
        <ele>865.6</ele>
        <time>2022-06-27T11:26:53Z</time>
      </trkpt>
      <trkpt lat="42.3398830" lon="-3.6851820">
        <ele>865.2</ele>
        <time>2022-06-27T11:26:54Z</time>
      </trkpt>
      <trkpt lat="42.3398430" lon="-3.6852950">
        <ele>865.2</ele>
        <time>2022-06-27T11:26:55Z</time>
      </trkpt>
      <trkpt lat="42.3398120" lon="-3.6853910">
        <ele>865.4</ele>
        <time>2022-06-27T11:26:56Z</time>
      </trkpt>
      <trkpt lat="42.3397870" lon="-3.6854880">
        <ele>865.4</ele>
        <time>2022-06-27T11:26:57Z</time>
      </trkpt>
      <trkpt lat="42.3397670" lon="-3.6855670">
        <ele>865.4</ele>
        <time>2022-06-27T11:26:58Z</time>
      </trkpt>
      <trkpt lat="42.3397370" lon="-3.6856620">
        <ele>865.4</ele>
        <time>2022-06-27T11:26:59Z</time>
      </trkpt>
      <trkpt lat="42.3396940" lon="-3.6857730">
        <ele>865.4</ele>
        <time>2022-06-27T11:27:00Z</time>
      </trkpt>
      <trkpt lat="42.3396560" lon="-3.6858660">
        <ele>865.4</ele>
        <time>2022-06-27T11:27:01Z</time>
      </trkpt>
      <trkpt lat="42.3396190" lon="-3.6859580">
        <ele>865.4</ele>
        <time>2022-06-27T11:27:02Z</time>
      </trkpt>
      <trkpt lat="42.3395920" lon="-3.6860330">
        <ele>864.8</ele>
        <time>2022-06-27T11:27:03Z</time>
      </trkpt>
      <trkpt lat="42.3395590" lon="-3.6861250">
        <ele>864.6</ele>
        <time>2022-06-27T11:27:04Z</time>
      </trkpt>
      <trkpt lat="42.3395170" lon="-3.6862290">
        <ele>864.6</ele>
        <time>2022-06-27T11:27:05Z</time>
      </trkpt>
      <trkpt lat="42.3394820" lon="-3.6863110">
        <ele>864.6</ele>
        <time>2022-06-27T11:27:06Z</time>
      </trkpt>
      <trkpt lat="42.3394460" lon="-3.6863930">
        <ele>864.4</ele>
        <time>2022-06-27T11:27:07Z</time>
      </trkpt>
      <trkpt lat="42.3394170" lon="-3.6864590">
        <ele>864.4</ele>
        <time>2022-06-27T11:27:08Z</time>
      </trkpt>
      <trkpt lat="42.3393840" lon="-3.6865440">
        <ele>864.4</ele>
        <time>2022-06-27T11:27:09Z</time>
      </trkpt>
      <trkpt lat="42.3393450" lon="-3.6866440">
        <ele>864.4</ele>
        <time>2022-06-27T11:27:10Z</time>
      </trkpt>
      <trkpt lat="42.3393140" lon="-3.6867290">
        <ele>864.4</ele>
        <time>2022-06-27T11:27:11Z</time>
      </trkpt>
      <trkpt lat="42.3392890" lon="-3.6867960">
        <ele>864.4</ele>
        <time>2022-06-27T11:27:12Z</time>
      </trkpt>
      <trkpt lat="42.3392570" lon="-3.6868790">
        <ele>864.4</ele>
        <time>2022-06-27T11:27:13Z</time>
      </trkpt>
      <trkpt lat="42.3392180" lon="-3.6869780">
        <ele>864.4</ele>
        <time>2022-06-27T11:27:14Z</time>
      </trkpt>
      <trkpt lat="42.3391850" lon="-3.6870600">
        <ele>864.4</ele>
        <time>2022-06-27T11:27:15Z</time>
      </trkpt>
      <trkpt lat="42.3391510" lon="-3.6871420">
        <ele>864.4</ele>
        <time>2022-06-27T11:27:16Z</time>
      </trkpt>
      <trkpt lat="42.3391250" lon="-3.6872060">
        <ele>864.6</ele>
        <time>2022-06-27T11:27:17Z</time>
      </trkpt>
      <trkpt lat="42.3390920" lon="-3.6872840">
        <ele>864.6</ele>
        <time>2022-06-27T11:27:18Z</time>
      </trkpt>
      <trkpt lat="42.3390570" lon="-3.6873730">
        <ele>864.8</ele>
        <time>2022-06-27T11:27:19Z</time>
      </trkpt>
      <trkpt lat="42.3390270" lon="-3.6874460">
        <ele>865.0</ele>
        <time>2022-06-27T11:27:20Z</time>
      </trkpt>
      <trkpt lat="42.3389990" lon="-3.6875060">
        <ele>865.0</ele>
        <time>2022-06-27T11:27:21Z</time>
      </trkpt>
      <trkpt lat="42.3389650" lon="-3.6875840">
        <ele>865.2</ele>
        <time>2022-06-27T11:27:22Z</time>
      </trkpt>
      <trkpt lat="42.3389290" lon="-3.6876600">
        <ele>865.2</ele>
        <time>2022-06-27T11:27:23Z</time>
      </trkpt>
      <trkpt lat="42.3388880" lon="-3.6877470">
        <ele>865.4</ele>
        <time>2022-06-27T11:27:24Z</time>
      </trkpt>
      <trkpt lat="42.3388550" lon="-3.6878230">
        <ele>865.4</ele>
        <time>2022-06-27T11:27:25Z</time>
      </trkpt>
      <trkpt lat="42.3388300" lon="-3.6878840">
        <ele>865.6</ele>
        <time>2022-06-27T11:27:26Z</time>
      </trkpt>
      <trkpt lat="42.3388000" lon="-3.6879600">
        <ele>865.8</ele>
        <time>2022-06-27T11:27:27Z</time>
      </trkpt>
      <trkpt lat="42.3387720" lon="-3.6880360">
        <ele>866.0</ele>
        <time>2022-06-27T11:27:28Z</time>
      </trkpt>
      <trkpt lat="42.3387350" lon="-3.6881300">
        <ele>866.2</ele>
        <time>2022-06-27T11:27:29Z</time>
      </trkpt>
      <trkpt lat="42.3387020" lon="-3.6882050">
        <ele>866.2</ele>
        <time>2022-06-27T11:27:30Z</time>
      </trkpt>
      <trkpt lat="42.3386720" lon="-3.6882800">
        <ele>866.4</ele>
        <time>2022-06-27T11:27:31Z</time>
      </trkpt>
      <trkpt lat="42.3386500" lon="-3.6883400">
        <ele>866.6</ele>
        <time>2022-06-27T11:27:32Z</time>
      </trkpt>
      <trkpt lat="42.3386240" lon="-3.6884140">
        <ele>866.8</ele>
        <time>2022-06-27T11:27:33Z</time>
      </trkpt>
      <trkpt lat="42.3385880" lon="-3.6885040">
        <ele>867.0</ele>
        <time>2022-06-27T11:27:34Z</time>
      </trkpt>
      <trkpt lat="42.3385570" lon="-3.6885800">
        <ele>867.2</ele>
        <time>2022-06-27T11:27:35Z</time>
      </trkpt>
      <trkpt lat="42.3385320" lon="-3.6886410">
        <ele>867.4</ele>
        <time>2022-06-27T11:27:36Z</time>
      </trkpt>
      <trkpt lat="42.3384990" lon="-3.6887180">
        <ele>867.4</ele>
        <time>2022-06-27T11:27:37Z</time>
      </trkpt>
      <trkpt lat="42.3384600" lon="-3.6888140">
        <ele>867.6</ele>
        <time>2022-06-27T11:27:38Z</time>
      </trkpt>
      <trkpt lat="42.3384300" lon="-3.6888970">
        <ele>867.6</ele>
        <time>2022-06-27T11:27:39Z</time>
      </trkpt>
      <trkpt lat="42.3384000" lon="-3.6889810">
        <ele>867.8</ele>
        <time>2022-06-27T11:27:40Z</time>
      </trkpt>
      <trkpt lat="42.3383750" lon="-3.6890500">
        <ele>867.8</ele>
        <time>2022-06-27T11:27:41Z</time>
      </trkpt>
      <trkpt lat="42.3383420" lon="-3.6891370">
        <ele>867.8</ele>
        <time>2022-06-27T11:27:42Z</time>
      </trkpt>
      <trkpt lat="42.3382990" lon="-3.6892380">
        <ele>868.0</ele>
        <time>2022-06-27T11:27:43Z</time>
      </trkpt>
      <trkpt lat="42.3382650" lon="-3.6893120">
        <ele>868.0</ele>
        <time>2022-06-27T11:27:44Z</time>
      </trkpt>
      <trkpt lat="42.3382430" lon="-3.6893620">
        <ele>868.0</ele>
        <time>2022-06-27T11:27:45Z</time>
      </trkpt>
      <trkpt lat="42.3382230" lon="-3.6894120">
        <ele>868.0</ele>
        <time>2022-06-27T11:27:46Z</time>
      </trkpt>
      <trkpt lat="42.3382060" lon="-3.6894550">
        <ele>867.8</ele>
        <time>2022-06-27T11:27:47Z</time>
      </trkpt>
      <trkpt lat="42.3381890" lon="-3.6895030">
        <ele>867.8</ele>
        <time>2022-06-27T11:27:48Z</time>
      </trkpt>
      <trkpt lat="42.3381800" lon="-3.6895380">
        <ele>867.8</ele>
        <time>2022-06-27T11:27:49Z</time>
      </trkpt>
      <trkpt lat="42.3381800" lon="-3.6895670">
        <ele>867.6</ele>
        <time>2022-06-27T11:27:50Z</time>
      </trkpt>
      <trkpt lat="42.3381930" lon="-3.6896010">
        <ele>867.6</ele>
        <time>2022-06-27T11:27:51Z</time>
      </trkpt>
      <trkpt lat="42.3382200" lon="-3.6896410">
        <ele>867.4</ele>
        <time>2022-06-27T11:27:52Z</time>
      </trkpt>
      <trkpt lat="42.3382480" lon="-3.6896650">
        <ele>867.4</ele>
        <time>2022-06-27T11:27:53Z</time>
      </trkpt>
      <trkpt lat="42.3382850" lon="-3.6896770">
        <ele>867.4</ele>
        <time>2022-06-27T11:27:54Z</time>
      </trkpt>
      <trkpt lat="42.3383210" lon="-3.6896790">
        <ele>867.4</ele>
        <time>2022-06-27T11:27:55Z</time>
      </trkpt>
      <trkpt lat="42.3383690" lon="-3.6896920">
        <ele>867.2</ele>
        <time>2022-06-27T11:27:56Z</time>
      </trkpt>
      <trkpt lat="42.3384310" lon="-3.6897140">
        <ele>867.2</ele>
        <time>2022-06-27T11:27:57Z</time>
      </trkpt>
      <trkpt lat="42.3384830" lon="-3.6897340">
        <ele>867.2</ele>
        <time>2022-06-27T11:27:58Z</time>
      </trkpt>
      <trkpt lat="42.3385310" lon="-3.6897530">
        <ele>867.0</ele>
        <time>2022-06-27T11:27:59Z</time>
      </trkpt>
      <trkpt lat="42.3385650" lon="-3.6897700">
        <ele>867.0</ele>
        <time>2022-06-27T11:28:00Z</time>
      </trkpt>
      <trkpt lat="42.3386020" lon="-3.6898010">
        <ele>867.0</ele>
        <time>2022-06-27T11:28:01Z</time>
      </trkpt>
      <trkpt lat="42.3386260" lon="-3.6898280">
        <ele>866.8</ele>
        <time>2022-06-27T11:28:02Z</time>
      </trkpt>
      <trkpt lat="42.3386390" lon="-3.6898540">
        <ele>866.6</ele>
        <time>2022-06-27T11:28:03Z</time>
      </trkpt>
      <trkpt lat="42.3386430" lon="-3.6898730">
        <ele>866.4</ele>
        <time>2022-06-27T11:28:04Z</time>
      </trkpt>
      <trkpt lat="42.3386440" lon="-3.6898890">
        <ele>866.2</ele>
        <time>2022-06-27T11:28:05Z</time>
      </trkpt>
      <trkpt lat="42.3386420" lon="-3.6898920">
        <ele>866.0</ele>
        <time>2022-06-27T11:28:06Z</time>
      </trkpt>
      <trkpt lat="42.3386420" lon="-3.6898920">
        <ele>865.8</ele>
        <time>2022-06-27T11:28:07Z</time>
      </trkpt>
      <trkpt lat="42.3386420" lon="-3.6898920">
        <ele>865.6</ele>
        <time>2022-06-27T11:28:08Z</time>
      </trkpt>
      <trkpt lat="42.3386560" lon="-3.6900020">
        <ele>864.4</ele>
        <time>2022-06-27T11:28:17Z</time>
      </trkpt>
      <trkpt lat="42.3386560" lon="-3.6900480">
        <ele>864.4</ele>
        <time>2022-06-27T11:28:18Z</time>
      </trkpt>
      <trkpt lat="42.3386510" lon="-3.6900900">
        <ele>864.4</ele>
        <time>2022-06-27T11:28:19Z</time>
      </trkpt>
      <trkpt lat="42.3386460" lon="-3.6901450">
        <ele>864.2</ele>
        <time>2022-06-27T11:28:20Z</time>
      </trkpt>
      <trkpt lat="42.3386360" lon="-3.6902140">
        <ele>864.2</ele>
        <time>2022-06-27T11:28:21Z</time>
      </trkpt>
      <trkpt lat="42.3386260" lon="-3.6902770">
        <ele>864.2</ele>
        <time>2022-06-27T11:28:22Z</time>
      </trkpt>
      <trkpt lat="42.3386160" lon="-3.6903330">
        <ele>864.2</ele>
        <time>2022-06-27T11:28:23Z</time>
      </trkpt>
      <trkpt lat="42.3386190" lon="-3.6904070">
        <ele>864.0</ele>
        <time>2022-06-27T11:28:24Z</time>
      </trkpt>
      <trkpt lat="42.3386070" lon="-3.6904840">
        <ele>864.0</ele>
        <time>2022-06-27T11:28:25Z</time>
      </trkpt>
      <trkpt lat="42.3385870" lon="-3.6905790">
        <ele>864.0</ele>
        <time>2022-06-27T11:28:26Z</time>
      </trkpt>
      <trkpt lat="42.3385660" lon="-3.6906520">
        <ele>863.8</ele>
        <time>2022-06-27T11:28:27Z</time>
      </trkpt>
      <trkpt lat="42.3385430" lon="-3.6907270">
        <ele>863.8</ele>
        <time>2022-06-27T11:28:28Z</time>
      </trkpt>
      <trkpt lat="42.3385260" lon="-3.6907860">
        <ele>863.6</ele>
        <time>2022-06-27T11:28:29Z</time>
      </trkpt>
      <trkpt lat="42.3384970" lon="-3.6908790">
        <ele>863.6</ele>
        <time>2022-06-27T11:28:30Z</time>
      </trkpt>
      <trkpt lat="42.3384690" lon="-3.6909540">
        <ele>863.6</ele>
        <time>2022-06-27T11:28:31Z</time>
      </trkpt>
      <trkpt lat="42.3384390" lon="-3.6910280">
        <ele>863.4</ele>
        <time>2022-06-27T11:28:32Z</time>
      </trkpt>
      <trkpt lat="42.3384190" lon="-3.6910900">
        <ele>863.4</ele>
        <time>2022-06-27T11:28:33Z</time>
      </trkpt>
      <trkpt lat="42.3383880" lon="-3.6911830">
        <ele>863.2</ele>
        <time>2022-06-27T11:28:34Z</time>
      </trkpt>
      <trkpt lat="42.3383600" lon="-3.6912570">
        <ele>863.2</ele>
        <time>2022-06-27T11:28:35Z</time>
      </trkpt>
      <trkpt lat="42.3383290" lon="-3.6913330">
        <ele>863.2</ele>
        <time>2022-06-27T11:28:36Z</time>
      </trkpt>
      <trkpt lat="42.3383000" lon="-3.6914100">
        <ele>863.0</ele>
        <time>2022-06-27T11:28:37Z</time>
      </trkpt>
      <trkpt lat="42.3382720" lon="-3.6914810">
        <ele>863.0</ele>
        <time>2022-06-27T11:28:38Z</time>
      </trkpt>
      <trkpt lat="42.3382500" lon="-3.6915390">
        <ele>863.0</ele>
        <time>2022-06-27T11:28:39Z</time>
      </trkpt>
      <trkpt lat="42.3382250" lon="-3.6916120">
        <ele>862.8</ele>
        <time>2022-06-27T11:28:40Z</time>
      </trkpt>
      <trkpt lat="42.3381990" lon="-3.6916860">
        <ele>862.8</ele>
        <time>2022-06-27T11:28:41Z</time>
      </trkpt>
      <trkpt lat="42.3381740" lon="-3.6917610">
        <ele>862.8</ele>
        <time>2022-06-27T11:28:42Z</time>
      </trkpt>
      <trkpt lat="42.3381510" lon="-3.6918380">
        <ele>862.8</ele>
        <time>2022-06-27T11:28:43Z</time>
      </trkpt>
      <trkpt lat="42.3381360" lon="-3.6919140">
        <ele>862.8</ele>
        <time>2022-06-27T11:28:44Z</time>
      </trkpt>
      <trkpt lat="42.3381230" lon="-3.6919900">
        <ele>862.8</ele>
        <time>2022-06-27T11:28:45Z</time>
      </trkpt>
      <trkpt lat="42.3381130" lon="-3.6920650">
        <ele>862.8</ele>
        <time>2022-06-27T11:28:46Z</time>
      </trkpt>
      <trkpt lat="42.3381060" lon="-3.6921340">
        <ele>862.8</ele>
        <time>2022-06-27T11:28:47Z</time>
      </trkpt>
      <trkpt lat="42.3381030" lon="-3.6921930">
        <ele>862.6</ele>
        <time>2022-06-27T11:28:48Z</time>
      </trkpt>
      <trkpt lat="42.3380980" lon="-3.6922480">
        <ele>862.6</ele>
        <time>2022-06-27T11:28:49Z</time>
      </trkpt>
      <trkpt lat="42.3380940" lon="-3.6922810">
        <ele>862.6</ele>
        <time>2022-06-27T11:28:50Z</time>
      </trkpt>
      <trkpt lat="42.3380890" lon="-3.6923090">
        <ele>862.6</ele>
        <time>2022-06-27T11:28:51Z</time>
      </trkpt>
      <trkpt lat="42.3351300" lon="-3.6921130">
        <ele>872.8</ele>
        <time>2022-06-27T11:32:10Z</time>
      </trkpt>
      <trkpt lat="42.3351230" lon="-3.6921410">
        <ele>873.0</ele>
        <time>2022-06-27T11:32:11Z</time>
      </trkpt>
      <trkpt lat="42.3351100" lon="-3.6921890">
        <ele>873.2</ele>
        <time>2022-06-27T11:32:12Z</time>
      </trkpt>
      <trkpt lat="42.3350920" lon="-3.6922470">
        <ele>873.4</ele>
        <time>2022-06-27T11:32:13Z</time>
      </trkpt>
      <trkpt lat="42.3350700" lon="-3.6923180">
        <ele>873.6</ele>
        <time>2022-06-27T11:32:14Z</time>
      </trkpt>
      <trkpt lat="42.3350550" lon="-3.6923810">
        <ele>873.6</ele>
        <time>2022-06-27T11:32:15Z</time>
      </trkpt>
      <trkpt lat="42.3350310" lon="-3.6924440">
        <ele>873.8</ele>
        <time>2022-06-27T11:32:16Z</time>
      </trkpt>
      <trkpt lat="42.3350170" lon="-3.6924950">
        <ele>873.8</ele>
        <time>2022-06-27T11:32:17Z</time>
      </trkpt>
      <trkpt lat="42.3350020" lon="-3.6925560">
        <ele>873.8</ele>
        <time>2022-06-27T11:32:18Z</time>
      </trkpt>
      <trkpt lat="42.3349680" lon="-3.6926270">
        <ele>874.0</ele>
        <time>2022-06-27T11:32:19Z</time>
      </trkpt>
      <trkpt lat="42.3349340" lon="-3.6926890">
        <ele>873.8</ele>
        <time>2022-06-27T11:32:20Z</time>
      </trkpt>
      <trkpt lat="42.3349120" lon="-3.6927500">
        <ele>873.8</ele>
        <time>2022-06-27T11:32:21Z</time>
      </trkpt>
      <trkpt lat="42.3348950" lon="-3.6928000">
        <ele>873.8</ele>
        <time>2022-06-27T11:32:22Z</time>
      </trkpt>
      <trkpt lat="42.3348730" lon="-3.6928610">
        <ele>874.0</ele>
        <time>2022-06-27T11:32:23Z</time>
      </trkpt>
      <trkpt lat="42.3348430" lon="-3.6929370">
        <ele>874.0</ele>
        <time>2022-06-27T11:32:24Z</time>
      </trkpt>
      <trkpt lat="42.3348220" lon="-3.6930010">
        <ele>873.8</ele>
        <time>2022-06-27T11:32:25Z</time>
      </trkpt>
      <trkpt lat="42.3348060" lon="-3.6930530">
        <ele>873.8</ele>
        <time>2022-06-27T11:32:26Z</time>
      </trkpt>
      <trkpt lat="42.3347870" lon="-3.6931180">
        <ele>873.8</ele>
        <time>2022-06-27T11:32:27Z</time>
      </trkpt>
      <trkpt lat="42.3347670" lon="-3.6931840">
        <ele>873.8</ele>
        <time>2022-06-27T11:32:28Z</time>
      </trkpt>
      <trkpt lat="42.3347410" lon="-3.6932640">
        <ele>873.8</ele>
        <time>2022-06-27T11:32:29Z</time>
      </trkpt>
      <trkpt lat="42.3347240" lon="-3.6933180">
        <ele>873.8</ele>
        <time>2022-06-27T11:32:30Z</time>
      </trkpt>
      <trkpt lat="42.3347010" lon="-3.6933850">
        <ele>873.8</ele>
        <time>2022-06-27T11:32:31Z</time>
      </trkpt>
      <trkpt lat="42.3346790" lon="-3.6934510">
        <ele>874.0</ele>
        <time>2022-06-27T11:32:32Z</time>
      </trkpt>
      <trkpt lat="42.3346570" lon="-3.6935180">
        <ele>874.0</ele>
        <time>2022-06-27T11:32:33Z</time>
      </trkpt>
      <trkpt lat="42.3346340" lon="-3.6935850">
        <ele>874.0</ele>
        <time>2022-06-27T11:32:34Z</time>
      </trkpt>
      <trkpt lat="42.3346120" lon="-3.6936500">
        <ele>874.4</ele>
        <time>2022-06-27T11:32:35Z</time>
      </trkpt>
      <trkpt lat="42.3345910" lon="-3.6937180">
        <ele>874.6</ele>
        <time>2022-06-27T11:32:36Z</time>
      </trkpt>
      <trkpt lat="42.3345690" lon="-3.6937880">
        <ele>874.8</ele>
        <time>2022-06-27T11:32:37Z</time>
      </trkpt>
      <trkpt lat="42.3345450" lon="-3.6938580">
        <ele>875.0</ele>
        <time>2022-06-27T11:32:38Z</time>
      </trkpt>
      <trkpt lat="42.3345210" lon="-3.6939300">
        <ele>875.0</ele>
        <time>2022-06-27T11:32:39Z</time>
      </trkpt>
      <trkpt lat="42.3344980" lon="-3.6940040">
        <ele>875.0</ele>
        <time>2022-06-27T11:32:40Z</time>
      </trkpt>
      <trkpt lat="42.3344770" lon="-3.6940780">
        <ele>875.0</ele>
        <time>2022-06-27T11:32:41Z</time>
      </trkpt>
      <trkpt lat="42.3344560" lon="-3.6941520">
        <ele>875.0</ele>
        <time>2022-06-27T11:32:42Z</time>
      </trkpt>
      <trkpt lat="42.3344340" lon="-3.6942260">
        <ele>875.0</ele>
        <time>2022-06-27T11:32:43Z</time>
      </trkpt>
      <trkpt lat="42.3344120" lon="-3.6943000">
        <ele>875.2</ele>
        <time>2022-06-27T11:32:44Z</time>
      </trkpt>
      <trkpt lat="42.3343910" lon="-3.6943840">
        <ele>875.2</ele>
        <time>2022-06-27T11:32:45Z</time>
      </trkpt>
      <trkpt lat="42.3343680" lon="-3.6944490">
        <ele>875.2</ele>
        <time>2022-06-27T11:32:46Z</time>
      </trkpt>
      <trkpt lat="42.3343460" lon="-3.6945040">
        <ele>875.2</ele>
        <time>2022-06-27T11:32:47Z</time>
      </trkpt>
      <trkpt lat="42.3343200" lon="-3.6945760">
        <ele>875.0</ele>
        <time>2022-06-27T11:32:48Z</time>
      </trkpt>
      <trkpt lat="42.3342810" lon="-3.6946630">
        <ele>875.0</ele>
        <time>2022-06-27T11:32:49Z</time>
      </trkpt>
      <trkpt lat="42.3342500" lon="-3.6947350">
        <ele>875.0</ele>
        <time>2022-06-27T11:32:50Z</time>
      </trkpt>
      <trkpt lat="42.3342290" lon="-3.6947890">
        <ele>874.8</ele>
        <time>2022-06-27T11:32:51Z</time>
      </trkpt>
      <trkpt lat="42.3342060" lon="-3.6948590">
        <ele>874.8</ele>
        <time>2022-06-27T11:32:52Z</time>
      </trkpt>
      <trkpt lat="42.3341750" lon="-3.6949260">
        <ele>874.6</ele>
        <time>2022-06-27T11:32:53Z</time>
      </trkpt>
      <trkpt lat="42.3341410" lon="-3.6949920">
        <ele>874.6</ele>
        <time>2022-06-27T11:32:54Z</time>
      </trkpt>
      <trkpt lat="42.3341000" lon="-3.6950590">
        <ele>874.6</ele>
        <time>2022-06-27T11:32:55Z</time>
      </trkpt>
      <trkpt lat="42.3340670" lon="-3.6951290">
        <ele>874.6</ele>
        <time>2022-06-27T11:32:56Z</time>
      </trkpt>
      <trkpt lat="42.3340350" lon="-3.6952100">
        <ele>874.8</ele>
        <time>2022-06-27T11:32:57Z</time>
      </trkpt>
      <trkpt lat="42.3339970" lon="-3.6952870">
        <ele>874.8</ele>
        <time>2022-06-27T11:32:58Z</time>
      </trkpt>
      <trkpt lat="42.3339650" lon="-3.6953590">
        <ele>874.8</ele>
        <time>2022-06-27T11:32:59Z</time>
      </trkpt>
      <trkpt lat="42.3339350" lon="-3.6954310">
        <ele>875.0</ele>
        <time>2022-06-27T11:33:00Z</time>
      </trkpt>
      <trkpt lat="42.3339040" lon="-3.6955210">
        <ele>875.0</ele>
        <time>2022-06-27T11:33:01Z</time>
      </trkpt>
      <trkpt lat="42.3338690" lon="-3.6955970">
        <ele>875.0</ele>
        <time>2022-06-27T11:33:02Z</time>
      </trkpt>
      <trkpt lat="42.3338350" lon="-3.6956770">
        <ele>875.0</ele>
        <time>2022-06-27T11:33:03Z</time>
      </trkpt>
      <trkpt lat="42.3337950" lon="-3.6957610">
        <ele>875.0</ele>
        <time>2022-06-27T11:33:04Z</time>
      </trkpt>
      <trkpt lat="42.3337670" lon="-3.6958320">
        <ele>875.2</ele>
        <time>2022-06-27T11:33:05Z</time>
      </trkpt>
      <trkpt lat="42.3337410" lon="-3.6959010">
        <ele>875.2</ele>
        <time>2022-06-27T11:33:06Z</time>
      </trkpt>
      <trkpt lat="42.3337140" lon="-3.6959700">
        <ele>875.4</ele>
        <time>2022-06-27T11:33:07Z</time>
      </trkpt>
      <trkpt lat="42.3336860" lon="-3.6960440">
        <ele>875.4</ele>
        <time>2022-06-27T11:33:08Z</time>
      </trkpt>
      <trkpt lat="42.3336600" lon="-3.6961070">
        <ele>875.2</ele>
        <time>2022-06-27T11:33:09Z</time>
      </trkpt>
      <trkpt lat="42.3336340" lon="-3.6961840">
        <ele>875.4</ele>
        <time>2022-06-27T11:33:10Z</time>
      </trkpt>
      <trkpt lat="42.3336040" lon="-3.6962730">
        <ele>875.4</ele>
        <time>2022-06-27T11:33:11Z</time>
      </trkpt>
      <trkpt lat="42.3335810" lon="-3.6963410">
        <ele>875.6</ele>
        <time>2022-06-27T11:33:12Z</time>
      </trkpt>
      <trkpt lat="42.3335580" lon="-3.6963930">
        <ele>875.8</ele>
        <time>2022-06-27T11:33:13Z</time>
      </trkpt>
      <trkpt lat="42.3335330" lon="-3.6964590">
        <ele>876.0</ele>
        <time>2022-06-27T11:33:14Z</time>
      </trkpt>
      <trkpt lat="42.3335080" lon="-3.6965370">
        <ele>876.0</ele>
        <time>2022-06-27T11:33:15Z</time>
      </trkpt>
      <trkpt lat="42.3334920" lon="-3.6965900">
        <ele>876.2</ele>
        <time>2022-06-27T11:33:16Z</time>
      </trkpt>
      <trkpt lat="42.3334700" lon="-3.6966530">
        <ele>876.2</ele>
        <time>2022-06-27T11:33:17Z</time>
      </trkpt>
      <trkpt lat="42.3334490" lon="-3.6967110">
        <ele>876.4</ele>
        <time>2022-06-27T11:33:18Z</time>
      </trkpt>
      <trkpt lat="42.3334300" lon="-3.6967660">
        <ele>876.6</ele>
        <time>2022-06-27T11:33:19Z</time>
      </trkpt>
      <trkpt lat="42.3334120" lon="-3.6968200">
        <ele>876.8</ele>
        <time>2022-06-27T11:33:20Z</time>
      </trkpt>
      <trkpt lat="42.3333940" lon="-3.6968720">
        <ele>877.2</ele>
        <time>2022-06-27T11:33:21Z</time>
      </trkpt>
      <trkpt lat="42.3333750" lon="-3.6969250">
        <ele>877.2</ele>
        <time>2022-06-27T11:33:22Z</time>
      </trkpt>
      <trkpt lat="42.3333540" lon="-3.6969760">
        <ele>877.4</ele>
        <time>2022-06-27T11:33:23Z</time>
      </trkpt>
      <trkpt lat="42.3333320" lon="-3.6970280">
        <ele>877.4</ele>
        <time>2022-06-27T11:33:24Z</time>
      </trkpt>
      <trkpt lat="42.3333110" lon="-3.6970840">
        <ele>877.4</ele>
        <time>2022-06-27T11:33:25Z</time>
      </trkpt>
      <trkpt lat="42.3332820" lon="-3.6971510">
        <ele>877.6</ele>
        <time>2022-06-27T11:33:26Z</time>
      </trkpt>
      <trkpt lat="42.3332600" lon="-3.6972000">
        <ele>877.6</ele>
        <time>2022-06-27T11:33:27Z</time>
      </trkpt>
      <trkpt lat="42.3332290" lon="-3.6972610">
        <ele>877.8</ele>
        <time>2022-06-27T11:33:28Z</time>
      </trkpt>
      <trkpt lat="42.3331980" lon="-3.6973400">
        <ele>877.8</ele>
        <time>2022-06-27T11:33:29Z</time>
      </trkpt>
      <trkpt lat="42.3331850" lon="-3.6973940">
        <ele>877.8</ele>
        <time>2022-06-27T11:33:30Z</time>
      </trkpt>
      <trkpt lat="42.3331740" lon="-3.6974570">
        <ele>877.8</ele>
        <time>2022-06-27T11:33:31Z</time>
      </trkpt>
      <trkpt lat="42.3331710" lon="-3.6975070">
        <ele>877.8</ele>
        <time>2022-06-27T11:33:32Z</time>
      </trkpt>
      <trkpt lat="42.3331730" lon="-3.6975550">
        <ele>877.8</ele>
        <time>2022-06-27T11:33:33Z</time>
      </trkpt>
      <trkpt lat="42.3331730" lon="-3.6975790">
        <ele>877.6</ele>
        <time>2022-06-27T11:33:34Z</time>
      </trkpt>
      <trkpt lat="42.3331720" lon="-3.6976050">
        <ele>877.6</ele>
        <time>2022-06-27T11:33:35Z</time>
      </trkpt>
      <trkpt lat="42.3331740" lon="-3.6976290">
        <ele>877.4</ele>
        <time>2022-06-27T11:33:36Z</time>
      </trkpt>
      <trkpt lat="42.3331710" lon="-3.6976410">
        <ele>877.4</ele>
        <time>2022-06-27T11:33:37Z</time>
      </trkpt>
      <trkpt lat="42.3331700" lon="-3.6976510">
        <ele>877.4</ele>
        <time>2022-06-27T11:33:38Z</time>
      </trkpt>
      <trkpt lat="42.3331700" lon="-3.6976570">
        <ele>877.2</ele>
        <time>2022-06-27T11:33:39Z</time>
      </trkpt>
      <trkpt lat="42.3331700" lon="-3.6976570">
        <ele>877.0</ele>
        <time>2022-06-27T11:33:40Z</time>
      </trkpt>
      <trkpt lat="42.3331700" lon="-3.6976570">
        <ele>877.0</ele>
        <time>2022-06-27T11:33:41Z</time>
      </trkpt>
      <trkpt lat="42.3331700" lon="-3.6976570">
        <ele>876.8</ele>
        <time>2022-06-27T11:33:42Z</time>
      </trkpt>
      <trkpt lat="42.3331790" lon="-3.6977140">
        <ele>875.8</ele>
        <time>2022-06-27T11:33:52Z</time>
      </trkpt>
      <trkpt lat="42.3331850" lon="-3.6977490">
        <ele>875.8</ele>
        <time>2022-06-27T11:33:53Z</time>
      </trkpt>
      <trkpt lat="42.3331960" lon="-3.6977940">
        <ele>875.6</ele>
        <time>2022-06-27T11:33:54Z</time>
      </trkpt>
      <trkpt lat="42.3332100" lon="-3.6978430">
        <ele>875.6</ele>
        <time>2022-06-27T11:33:55Z</time>
      </trkpt>
      <trkpt lat="42.3332210" lon="-3.6979070">
        <ele>875.6</ele>
        <time>2022-06-27T11:33:56Z</time>
      </trkpt>
      <trkpt lat="42.3332290" lon="-3.6979810">
        <ele>875.6</ele>
        <time>2022-06-27T11:33:57Z</time>
      </trkpt>
      <trkpt lat="42.3332390" lon="-3.6980640">
        <ele>875.4</ele>
        <time>2022-06-27T11:33:58Z</time>
      </trkpt>
      <trkpt lat="42.3332470" lon="-3.6981480">
        <ele>875.4</ele>
        <time>2022-06-27T11:33:59Z</time>
      </trkpt>
      <trkpt lat="42.3332550" lon="-3.6982350">
        <ele>875.2</ele>
        <time>2022-06-27T11:34:00Z</time>
      </trkpt>
      <trkpt lat="42.3332640" lon="-3.6983150">
        <ele>874.8</ele>
        <time>2022-06-27T11:34:01Z</time>
      </trkpt>
      <trkpt lat="42.3332740" lon="-3.6983960">
        <ele>874.4</ele>
        <time>2022-06-27T11:34:02Z</time>
      </trkpt>
      <trkpt lat="42.3332870" lon="-3.6984730">
        <ele>874.0</ele>
        <time>2022-06-27T11:34:03Z</time>
      </trkpt>
      <trkpt lat="42.3332960" lon="-3.6985380">
        <ele>873.8</ele>
        <time>2022-06-27T11:34:04Z</time>
      </trkpt>
      <trkpt lat="42.3333020" lon="-3.6985890">
        <ele>873.6</ele>
        <time>2022-06-27T11:34:05Z</time>
      </trkpt>
      <trkpt lat="42.3333070" lon="-3.6986290">
        <ele>873.4</ele>
        <time>2022-06-27T11:34:06Z</time>
      </trkpt>
      <trkpt lat="42.3333130" lon="-3.6986540">
        <ele>873.0</ele>
        <time>2022-06-27T11:34:07Z</time>
      </trkpt>
      <trkpt lat="42.3333190" lon="-3.6986750">
        <ele>872.8</ele>
        <time>2022-06-27T11:34:08Z</time>
      </trkpt>
      <trkpt lat="42.3333280" lon="-3.6987150">
        <ele>872.4</ele>
        <time>2022-06-27T11:34:09Z</time>
      </trkpt>
      <trkpt lat="42.3333390" lon="-3.6987700">
        <ele>872.0</ele>
        <time>2022-06-27T11:34:10Z</time>
      </trkpt>
      <trkpt lat="42.3333460" lon="-3.6988290">
        <ele>871.6</ele>
        <time>2022-06-27T11:34:11Z</time>
      </trkpt>
      <trkpt lat="42.3333430" lon="-3.6988880">
        <ele>871.2</ele>
        <time>2022-06-27T11:34:12Z</time>
      </trkpt>
      <trkpt lat="42.3333360" lon="-3.6989390">
        <ele>871.2</ele>
        <time>2022-06-27T11:34:13Z</time>
      </trkpt>
      <trkpt lat="42.3333330" lon="-3.6989810">
        <ele>870.8</ele>
        <time>2022-06-27T11:34:14Z</time>
      </trkpt>
      <trkpt lat="42.3333390" lon="-3.6990190">
        <ele>870.6</ele>
        <time>2022-06-27T11:34:15Z</time>
      </trkpt>
      <trkpt lat="42.3333480" lon="-3.6990620">
        <ele>870.4</ele>
        <time>2022-06-27T11:34:16Z</time>
      </trkpt>
      <trkpt lat="42.3333570" lon="-3.6991010">
        <ele>869.8</ele>
        <time>2022-06-27T11:34:17Z</time>
      </trkpt>
      <trkpt lat="42.3333650" lon="-3.6991380">
        <ele>869.6</ele>
        <time>2022-06-27T11:34:18Z</time>
      </trkpt>
      <trkpt lat="42.3333700" lon="-3.6991810">
        <ele>869.2</ele>
        <time>2022-06-27T11:34:19Z</time>
      </trkpt>
      <trkpt lat="42.3333770" lon="-3.6992280">
        <ele>869.0</ele>
        <time>2022-06-27T11:34:20Z</time>
      </trkpt>
      <trkpt lat="42.3333840" lon="-3.6992790">
        <ele>868.8</ele>
        <time>2022-06-27T11:34:21Z</time>
      </trkpt>
      <trkpt lat="42.3333920" lon="-3.6993330">
        <ele>868.8</ele>
        <time>2022-06-27T11:34:22Z</time>
      </trkpt>
      <trkpt lat="42.3334100" lon="-3.6993890">
        <ele>868.6</ele>
        <time>2022-06-27T11:34:23Z</time>
      </trkpt>
      <trkpt lat="42.3334360" lon="-3.6994540">
        <ele>868.2</ele>
        <time>2022-06-27T11:34:24Z</time>
      </trkpt>
      <trkpt lat="42.3334630" lon="-3.6995230">
        <ele>867.8</ele>
        <time>2022-06-27T11:34:25Z</time>
      </trkpt>
      <trkpt lat="42.3334810" lon="-3.6995920">
        <ele>867.4</ele>
        <time>2022-06-27T11:34:26Z</time>
      </trkpt>
      <trkpt lat="42.3334850" lon="-3.6996610">
        <ele>867.2</ele>
        <time>2022-06-27T11:34:27Z</time>
      </trkpt>
      <trkpt lat="42.3334730" lon="-3.6997220">
        <ele>866.6</ele>
        <time>2022-06-27T11:34:28Z</time>
      </trkpt>
      <trkpt lat="42.3334420" lon="-3.6997690">
        <ele>866.4</ele>
        <time>2022-06-27T11:34:29Z</time>
      </trkpt>
      <trkpt lat="42.3333980" lon="-3.6998020">
        <ele>866.2</ele>
        <time>2022-06-27T11:34:30Z</time>
      </trkpt>
      <trkpt lat="42.3333470" lon="-3.6998190">
        <ele>865.8</ele>
        <time>2022-06-27T11:34:31Z</time>
      </trkpt>
      <trkpt lat="42.3332930" lon="-3.6998320">
        <ele>865.6</ele>
        <time>2022-06-27T11:34:32Z</time>
      </trkpt>
      <trkpt lat="42.3332380" lon="-3.6998420">
        <ele>865.4</ele>
        <time>2022-06-27T11:34:33Z</time>
      </trkpt>
      <trkpt lat="42.3331820" lon="-3.6998480">
        <ele>865.0</ele>
        <time>2022-06-27T11:34:34Z</time>
      </trkpt>
      <trkpt lat="42.3331250" lon="-3.6998530">
        <ele>864.2</ele>
        <time>2022-06-27T11:34:35Z</time>
      </trkpt>
      <trkpt lat="42.3330670" lon="-3.6998650">
        <ele>864.2</ele>
        <time>2022-06-27T11:34:36Z</time>
      </trkpt>
      <trkpt lat="42.3330120" lon="-3.6998760">
        <ele>863.8</ele>
        <time>2022-06-27T11:34:37Z</time>
      </trkpt>
      <trkpt lat="42.3329520" lon="-3.6998890">
        <ele>863.6</ele>
        <time>2022-06-27T11:34:38Z</time>
      </trkpt>
      <trkpt lat="42.3328890" lon="-3.6999010">
        <ele>863.6</ele>
        <time>2022-06-27T11:34:39Z</time>
      </trkpt>
      <trkpt lat="42.3328260" lon="-3.6999090">
        <ele>863.6</ele>
        <time>2022-06-27T11:34:40Z</time>
      </trkpt>
      <trkpt lat="42.3327630" lon="-3.6999170">
        <ele>863.6</ele>
        <time>2022-06-27T11:34:41Z</time>
      </trkpt>
      <trkpt lat="42.3326950" lon="-3.6999270">
        <ele>863.4</ele>
        <time>2022-06-27T11:34:42Z</time>
      </trkpt>
      <trkpt lat="42.3326240" lon="-3.6999390">
        <ele>863.4</ele>
        <time>2022-06-27T11:34:43Z</time>
      </trkpt>
      <trkpt lat="42.3325550" lon="-3.6999490">
        <ele>863.4</ele>
        <time>2022-06-27T11:34:44Z</time>
      </trkpt>
      <trkpt lat="42.3324840" lon="-3.6999590">
        <ele>863.4</ele>
        <time>2022-06-27T11:34:45Z</time>
      </trkpt>
      <trkpt lat="42.3324100" lon="-3.6999680">
        <ele>863.4</ele>
        <time>2022-06-27T11:34:46Z</time>
      </trkpt>
      <trkpt lat="42.3323360" lon="-3.6999750">
        <ele>863.4</ele>
        <time>2022-06-27T11:34:47Z</time>
      </trkpt>
      <trkpt lat="42.3322640" lon="-3.6999790">
        <ele>863.6</ele>
        <time>2022-06-27T11:34:48Z</time>
      </trkpt>
      <trkpt lat="42.3321940" lon="-3.6999760">
        <ele>863.4</ele>
        <time>2022-06-27T11:34:49Z</time>
      </trkpt>
      <trkpt lat="42.3321250" lon="-3.6999740">
        <ele>863.4</ele>
        <time>2022-06-27T11:34:50Z</time>
      </trkpt>
      <trkpt lat="42.3320500" lon="-3.6999750">
        <ele>863.6</ele>
        <time>2022-06-27T11:34:51Z</time>
      </trkpt>
      <trkpt lat="42.3319680" lon="-3.6999790">
        <ele>863.6</ele>
        <time>2022-06-27T11:34:52Z</time>
      </trkpt>
      <trkpt lat="42.3318940" lon="-3.6999880">
        <ele>863.4</ele>
        <time>2022-06-27T11:34:53Z</time>
      </trkpt>
      <trkpt lat="42.3318180" lon="-3.6999950">
        <ele>863.4</ele>
        <time>2022-06-27T11:34:54Z</time>
      </trkpt>
      <trkpt lat="42.3317450" lon="-3.7000010">
        <ele>863.4</ele>
        <time>2022-06-27T11:34:55Z</time>
      </trkpt>
      <trkpt lat="42.3316650" lon="-3.7000430">
        <ele>863.6</ele>
        <time>2022-06-27T11:34:56Z</time>
      </trkpt>
      <trkpt lat="42.3315880" lon="-3.7000600">
        <ele>863.6</ele>
        <time>2022-06-27T11:34:57Z</time>
      </trkpt>
      <trkpt lat="42.3315170" lon="-3.7000750">
        <ele>863.6</ele>
        <time>2022-06-27T11:34:58Z</time>
      </trkpt>
      <trkpt lat="42.3314450" lon="-3.7000820">
        <ele>863.6</ele>
        <time>2022-06-27T11:34:59Z</time>
      </trkpt>
      <trkpt lat="42.3313680" lon="-3.7000860">
        <ele>863.6</ele>
        <time>2022-06-27T11:35:00Z</time>
      </trkpt>
      <trkpt lat="42.3312860" lon="-3.7000900">
        <ele>863.8</ele>
        <time>2022-06-27T11:35:01Z</time>
      </trkpt>
      <trkpt lat="42.3312070" lon="-3.7000920">
        <ele>863.8</ele>
        <time>2022-06-27T11:35:02Z</time>
      </trkpt>
      <trkpt lat="42.3311300" lon="-3.7000940">
        <ele>863.8</ele>
        <time>2022-06-27T11:35:03Z</time>
      </trkpt>
      <trkpt lat="42.3310540" lon="-3.7000960">
        <ele>863.8</ele>
        <time>2022-06-27T11:35:04Z</time>
      </trkpt>
      <trkpt lat="42.3309750" lon="-3.7000990">
        <ele>863.8</ele>
        <time>2022-06-27T11:35:05Z</time>
      </trkpt>
      <trkpt lat="42.3308980" lon="-3.7000970">
        <ele>863.8</ele>
        <time>2022-06-27T11:35:06Z</time>
      </trkpt>
      <trkpt lat="42.3308270" lon="-3.7001020">
        <ele>864.0</ele>
        <time>2022-06-27T11:35:07Z</time>
      </trkpt>
      <trkpt lat="42.3307600" lon="-3.7001190">
        <ele>864.0</ele>
        <time>2022-06-27T11:35:08Z</time>
      </trkpt>
      <trkpt lat="42.3307000" lon="-3.7001370">
        <ele>864.0</ele>
        <time>2022-06-27T11:35:09Z</time>
      </trkpt>
      <trkpt lat="42.3306430" lon="-3.7001580">
        <ele>864.0</ele>
        <time>2022-06-27T11:35:10Z</time>
      </trkpt>
      <trkpt lat="42.3305840" lon="-3.7001770">
        <ele>864.0</ele>
        <time>2022-06-27T11:35:11Z</time>
      </trkpt>
      <trkpt lat="42.3305250" lon="-3.7001940">
        <ele>864.0</ele>
        <time>2022-06-27T11:35:12Z</time>
      </trkpt>
      <trkpt lat="42.3304690" lon="-3.7002020">
        <ele>864.0</ele>
        <time>2022-06-27T11:35:13Z</time>
      </trkpt>
      <trkpt lat="42.3304240" lon="-3.7002090">
        <ele>864.2</ele>
        <time>2022-06-27T11:35:14Z</time>
      </trkpt>
      <trkpt lat="42.3303840" lon="-3.7002230">
        <ele>864.4</ele>
        <time>2022-06-27T11:35:15Z</time>
      </trkpt>
      <trkpt lat="42.3303540" lon="-3.7002690">
        <ele>864.4</ele>
        <time>2022-06-27T11:35:16Z</time>
      </trkpt>
      <trkpt lat="42.3303300" lon="-3.7002780">
        <ele>864.8</ele>
        <time>2022-06-27T11:35:17Z</time>
      </trkpt>
      <trkpt lat="42.3303100" lon="-3.7002940">
        <ele>864.8</ele>
        <time>2022-06-27T11:35:18Z</time>
      </trkpt>
      <trkpt lat="42.3302960" lon="-3.7002990">
        <ele>865.0</ele>
        <time>2022-06-27T11:35:19Z</time>
      </trkpt>
      <trkpt lat="42.3302850" lon="-3.7003000">
        <ele>865.2</ele>
        <time>2022-06-27T11:35:20Z</time>
      </trkpt>
      <trkpt lat="42.3302800" lon="-3.7003020">
        <ele>865.4</ele>
        <time>2022-06-27T11:35:21Z</time>
      </trkpt>
      <trkpt lat="42.3302800" lon="-3.7003020">
        <ele>865.6</ele>
        <time>2022-06-27T11:35:22Z</time>
      </trkpt>
      <trkpt lat="42.3302800" lon="-3.7003020">
        <ele>865.6</ele>
        <time>2022-06-27T11:35:23Z</time>
      </trkpt>
      <trkpt lat="42.3302410" lon="-3.7003120">
        <ele>865.6</ele>
        <time>2022-06-27T11:35:28Z</time>
      </trkpt>
      <trkpt lat="42.3302170" lon="-3.7003240">
        <ele>865.6</ele>
        <time>2022-06-27T11:35:29Z</time>
      </trkpt>
      <trkpt lat="42.3301810" lon="-3.7003320">
        <ele>865.6</ele>
        <time>2022-06-27T11:35:30Z</time>
      </trkpt>
      <trkpt lat="42.3301410" lon="-3.7003380">
        <ele>865.6</ele>
        <time>2022-06-27T11:35:31Z</time>
      </trkpt>
      <trkpt lat="42.3300940" lon="-3.7003430">
        <ele>865.6</ele>
        <time>2022-06-27T11:35:32Z</time>
      </trkpt>
      <trkpt lat="42.3300460" lon="-3.7003470">
        <ele>865.4</ele>
        <time>2022-06-27T11:35:33Z</time>
      </trkpt>
      <trkpt lat="42.3299970" lon="-3.7003580">
        <ele>865.4</ele>
        <time>2022-06-27T11:35:34Z</time>
      </trkpt>
      <trkpt lat="42.3299530" lon="-3.7003640">
        <ele>865.4</ele>
        <time>2022-06-27T11:35:35Z</time>
      </trkpt>
      <trkpt lat="42.3299070" lon="-3.7003720">
        <ele>865.4</ele>
        <time>2022-06-27T11:35:36Z</time>
      </trkpt>
      <trkpt lat="42.3298610" lon="-3.7003800">
        <ele>865.4</ele>
        <time>2022-06-27T11:35:37Z</time>
      </trkpt>
      <trkpt lat="42.3298150" lon="-3.7003910">
        <ele>865.6</ele>
        <time>2022-06-27T11:35:38Z</time>
      </trkpt>
      <trkpt lat="42.3297670" lon="-3.7003990">
        <ele>865.6</ele>
        <time>2022-06-27T11:35:39Z</time>
      </trkpt>
      <trkpt lat="42.3297110" lon="-3.7003970">
        <ele>865.6</ele>
        <time>2022-06-27T11:35:40Z</time>
      </trkpt>
      <trkpt lat="42.3296550" lon="-3.7003960">
        <ele>865.6</ele>
        <time>2022-06-27T11:35:41Z</time>
      </trkpt>
      <trkpt lat="42.3296050" lon="-3.7004000">
        <ele>865.6</ele>
        <time>2022-06-27T11:35:42Z</time>
      </trkpt>
      <trkpt lat="42.3295560" lon="-3.7004010">
        <ele>865.6</ele>
        <time>2022-06-27T11:35:43Z</time>
      </trkpt>
      <trkpt lat="42.3295080" lon="-3.7004020">
        <ele>865.8</ele>
        <time>2022-06-27T11:35:44Z</time>
      </trkpt>
      <trkpt lat="42.3294610" lon="-3.7004070">
        <ele>865.8</ele>
        <time>2022-06-27T11:35:45Z</time>
      </trkpt>
      <trkpt lat="42.3294270" lon="-3.7004510">
        <ele>865.8</ele>
        <time>2022-06-27T11:35:46Z</time>
      </trkpt>
      <trkpt lat="42.3293920" lon="-3.7004950">
        <ele>866.0</ele>
        <time>2022-06-27T11:35:47Z</time>
      </trkpt>
      <trkpt lat="42.3293650" lon="-3.7005660">
        <ele>866.0</ele>
        <time>2022-06-27T11:35:48Z</time>
      </trkpt>
      <trkpt lat="42.3293530" lon="-3.7006030">
        <ele>866.2</ele>
        <time>2022-06-27T11:35:49Z</time>
      </trkpt>
      <trkpt lat="42.3293410" lon="-3.7006390">
        <ele>866.2</ele>
        <time>2022-06-27T11:35:50Z</time>
      </trkpt>
      <trkpt lat="42.3292750" lon="-3.7007720">
        <ele>866.4</ele>
        <time>2022-06-27T11:35:51Z</time>
      </trkpt>
      <trkpt lat="42.3292510" lon="-3.7007950">
        <ele>866.6</ele>
        <time>2022-06-27T11:35:52Z</time>
      </trkpt>
      <trkpt lat="42.3292280" lon="-3.7008180">
        <ele>866.8</ele>
        <time>2022-06-27T11:35:53Z</time>
      </trkpt>
      <trkpt lat="42.3291260" lon="-3.7008490">
        <ele>867.0</ele>
        <time>2022-06-27T11:35:54Z</time>
      </trkpt>
      <trkpt lat="42.3290770" lon="-3.7008410">
        <ele>867.2</ele>
        <time>2022-06-27T11:35:55Z</time>
      </trkpt>
      <trkpt lat="42.3290330" lon="-3.7008200">
        <ele>867.4</ele>
        <time>2022-06-27T11:35:56Z</time>
      </trkpt>
      <trkpt lat="42.3289940" lon="-3.7007830">
        <ele>867.6</ele>
        <time>2022-06-27T11:35:57Z</time>
      </trkpt>
      <trkpt lat="42.3289560" lon="-3.7007380">
        <ele>868.0</ele>
        <time>2022-06-27T11:35:58Z</time>
      </trkpt>
      <trkpt lat="42.3289200" lon="-3.7006910">
        <ele>868.0</ele>
        <time>2022-06-27T11:35:59Z</time>
      </trkpt>
      <trkpt lat="42.3288790" lon="-3.7006470">
        <ele>868.0</ele>
        <time>2022-06-27T11:36:00Z</time>
      </trkpt>
      <trkpt lat="42.3288320" lon="-3.7006120">
        <ele>868.0</ele>
        <time>2022-06-27T11:36:01Z</time>
      </trkpt>
      <trkpt lat="42.3287800" lon="-3.7005900">
        <ele>868.2</ele>
        <time>2022-06-27T11:36:02Z</time>
      </trkpt>
      <trkpt lat="42.3287290" lon="-3.7005750">
        <ele>868.4</ele>
        <time>2022-06-27T11:36:03Z</time>
      </trkpt>
      <trkpt lat="42.3286740" lon="-3.7005660">
        <ele>868.4</ele>
        <time>2022-06-27T11:36:04Z</time>
      </trkpt>
      <trkpt lat="42.3286200" lon="-3.7005620">
        <ele>868.4</ele>
        <time>2022-06-27T11:36:05Z</time>
      </trkpt>
      <trkpt lat="42.3285660" lon="-3.7005600">
        <ele>868.4</ele>
        <time>2022-06-27T11:36:06Z</time>
      </trkpt>
      <trkpt lat="42.3285110" lon="-3.7005610">
        <ele>868.4</ele>
        <time>2022-06-27T11:36:07Z</time>
      </trkpt>
      <trkpt lat="42.3284570" lon="-3.7005630">
        <ele>868.6</ele>
        <time>2022-06-27T11:36:08Z</time>
      </trkpt>
      <trkpt lat="42.3284050" lon="-3.7005650">
        <ele>868.8</ele>
        <time>2022-06-27T11:36:09Z</time>
      </trkpt>
      <trkpt lat="42.3283510" lon="-3.7005720">
        <ele>868.8</ele>
        <time>2022-06-27T11:36:10Z</time>
      </trkpt>
      <trkpt lat="42.3282990" lon="-3.7005790">
        <ele>868.8</ele>
        <time>2022-06-27T11:36:11Z</time>
      </trkpt>
      <trkpt lat="42.3282460" lon="-3.7005870">
        <ele>869.0</ele>
        <time>2022-06-27T11:36:12Z</time>
      </trkpt>
      <trkpt lat="42.3281920" lon="-3.7005970">
        <ele>869.2</ele>
        <time>2022-06-27T11:36:13Z</time>
      </trkpt>
      <trkpt lat="42.3281520" lon="-3.7006060">
        <ele>869.4</ele>
        <time>2022-06-27T11:36:14Z</time>
      </trkpt>
      <trkpt lat="42.3281110" lon="-3.7006150">
        <ele>869.6</ele>
        <time>2022-06-27T11:36:15Z</time>
      </trkpt>
      <trkpt lat="42.3280310" lon="-3.7006330">
        <ele>869.6</ele>
        <time>2022-06-27T11:36:16Z</time>
      </trkpt>
      <trkpt lat="42.3279770" lon="-3.7006450">
        <ele>869.8</ele>
        <time>2022-06-27T11:36:17Z</time>
      </trkpt>
      <trkpt lat="42.3279240" lon="-3.7006560">
        <ele>869.8</ele>
        <time>2022-06-27T11:36:18Z</time>
      </trkpt>
      <trkpt lat="42.3278730" lon="-3.7006690">
        <ele>869.8</ele>
        <time>2022-06-27T11:36:19Z</time>
      </trkpt>
      <trkpt lat="42.3278260" lon="-3.7006850">
        <ele>870.0</ele>
        <time>2022-06-27T11:36:20Z</time>
      </trkpt>
      <trkpt lat="42.3277820" lon="-3.7007030">
        <ele>870.2</ele>
        <time>2022-06-27T11:36:21Z</time>
      </trkpt>
      <trkpt lat="42.3277350" lon="-3.7007150">
        <ele>870.2</ele>
        <time>2022-06-27T11:36:22Z</time>
      </trkpt>
      <trkpt lat="42.3276860" lon="-3.7007280">
        <ele>870.4</ele>
        <time>2022-06-27T11:36:23Z</time>
      </trkpt>
      <trkpt lat="42.3276400" lon="-3.7007400">
        <ele>870.4</ele>
        <time>2022-06-27T11:36:24Z</time>
      </trkpt>
      <trkpt lat="42.3275940" lon="-3.7007490">
        <ele>870.4</ele>
        <time>2022-06-27T11:36:25Z</time>
      </trkpt>
      <trkpt lat="42.3275470" lon="-3.7007590">
        <ele>870.6</ele>
        <time>2022-06-27T11:36:26Z</time>
      </trkpt>
      <trkpt lat="42.3274980" lon="-3.7007670">
        <ele>870.8</ele>
        <time>2022-06-27T11:36:27Z</time>
      </trkpt>
      <trkpt lat="42.3274500" lon="-3.7007760">
        <ele>871.2</ele>
        <time>2022-06-27T11:36:28Z</time>
      </trkpt>
      <trkpt lat="42.3274040" lon="-3.7007870">
        <ele>871.4</ele>
        <time>2022-06-27T11:36:29Z</time>
      </trkpt>
      <trkpt lat="42.3273580" lon="-3.7008000">
        <ele>871.4</ele>
        <time>2022-06-27T11:36:30Z</time>
      </trkpt>
      <trkpt lat="42.3273160" lon="-3.7008160">
        <ele>871.6</ele>
        <time>2022-06-27T11:36:31Z</time>
      </trkpt>
      <trkpt lat="42.3272720" lon="-3.7008290">
        <ele>871.8</ele>
        <time>2022-06-27T11:36:32Z</time>
      </trkpt>
      <trkpt lat="42.3272320" lon="-3.7008410">
        <ele>872.2</ele>
        <time>2022-06-27T11:36:33Z</time>
      </trkpt>
      <trkpt lat="42.3271920" lon="-3.7008540">
        <ele>872.2</ele>
        <time>2022-06-27T11:36:34Z</time>
      </trkpt>
      <trkpt lat="42.3271540" lon="-3.7008670">
        <ele>872.6</ele>
        <time>2022-06-27T11:36:35Z</time>
      </trkpt>
      <trkpt lat="42.3271150" lon="-3.7008790">
        <ele>872.6</ele>
        <time>2022-06-27T11:36:36Z</time>
      </trkpt>
      <trkpt lat="42.3270770" lon="-3.7008920">
        <ele>872.6</ele>
        <time>2022-06-27T11:36:37Z</time>
      </trkpt>
      <trkpt lat="42.3270580" lon="-3.7008990">
        <ele>873.0</ele>
        <time>2022-06-27T11:36:38Z</time>
      </trkpt>
      <trkpt lat="42.3270400" lon="-3.7009060">
        <ele>873.2</ele>
        <time>2022-06-27T11:36:39Z</time>
      </trkpt>
      <trkpt lat="42.3269710" lon="-3.7009350">
        <ele>873.2</ele>
        <time>2022-06-27T11:36:40Z</time>
      </trkpt>
      <trkpt lat="42.3269370" lon="-3.7009470">
        <ele>873.2</ele>
        <time>2022-06-27T11:36:41Z</time>
      </trkpt>
      <trkpt lat="42.3269020" lon="-3.7009580">
        <ele>873.4</ele>
        <time>2022-06-27T11:36:42Z</time>
      </trkpt>
      <trkpt lat="42.3268690" lon="-3.7009720">
        <ele>873.6</ele>
        <time>2022-06-27T11:36:43Z</time>
      </trkpt>
      <trkpt lat="42.3268350" lon="-3.7009860">
        <ele>873.8</ele>
        <time>2022-06-27T11:36:44Z</time>
      </trkpt>
      <trkpt lat="42.3268000" lon="-3.7009990">
        <ele>874.0</ele>
        <time>2022-06-27T11:36:45Z</time>
      </trkpt>
      <trkpt lat="42.3267640" lon="-3.7010100">
        <ele>874.0</ele>
        <time>2022-06-27T11:36:46Z</time>
      </trkpt>
      <trkpt lat="42.3267280" lon="-3.7010160">
        <ele>874.2</ele>
        <time>2022-06-27T11:36:47Z</time>
      </trkpt>
      <trkpt lat="42.3266930" lon="-3.7010260">
        <ele>874.4</ele>
        <time>2022-06-27T11:36:48Z</time>
      </trkpt>
      <trkpt lat="42.3266570" lon="-3.7010350">
        <ele>874.6</ele>
        <time>2022-06-27T11:36:49Z</time>
      </trkpt>
      <trkpt lat="42.3266220" lon="-3.7010460">
        <ele>874.8</ele>
        <time>2022-06-27T11:36:50Z</time>
      </trkpt>
      <trkpt lat="42.3265870" lon="-3.7010560">
        <ele>874.8</ele>
        <time>2022-06-27T11:36:51Z</time>
      </trkpt>
      <trkpt lat="42.3265520" lon="-3.7010650">
        <ele>874.8</ele>
        <time>2022-06-27T11:36:52Z</time>
      </trkpt>
      <trkpt lat="42.3265340" lon="-3.7010700">
        <ele>875.0</ele>
        <time>2022-06-27T11:36:53Z</time>
      </trkpt>
      <trkpt lat="42.3265160" lon="-3.7010750">
        <ele>875.2</ele>
        <time>2022-06-27T11:36:54Z</time>
      </trkpt>
      <trkpt lat="42.3264460" lon="-3.7010930">
        <ele>875.6</ele>
        <time>2022-06-27T11:36:55Z</time>
      </trkpt>
      <trkpt lat="42.3264090" lon="-3.7011020">
        <ele>875.8</ele>
        <time>2022-06-27T11:36:56Z</time>
      </trkpt>
      <trkpt lat="42.3263730" lon="-3.7011100">
        <ele>876.2</ele>
        <time>2022-06-27T11:36:57Z</time>
      </trkpt>
      <trkpt lat="42.3263370" lon="-3.7011190">
        <ele>876.4</ele>
        <time>2022-06-27T11:36:58Z</time>
      </trkpt>
      <trkpt lat="42.3263010" lon="-3.7011280">
        <ele>876.6</ele>
        <time>2022-06-27T11:36:59Z</time>
      </trkpt>
      <trkpt lat="42.3262660" lon="-3.7011350">
        <ele>876.6</ele>
        <time>2022-06-27T11:37:00Z</time>
      </trkpt>
      <trkpt lat="42.3262300" lon="-3.7011420">
        <ele>877.0</ele>
        <time>2022-06-27T11:37:01Z</time>
      </trkpt>
      <trkpt lat="42.3261960" lon="-3.7011520">
        <ele>877.0</ele>
        <time>2022-06-27T11:37:02Z</time>
      </trkpt>
      <trkpt lat="42.3261620" lon="-3.7011600">
        <ele>877.2</ele>
        <time>2022-06-27T11:37:03Z</time>
      </trkpt>
      <trkpt lat="42.3261270" lon="-3.7011690">
        <ele>877.8</ele>
        <time>2022-06-27T11:37:04Z</time>
      </trkpt>
      <trkpt lat="42.3260920" lon="-3.7011770">
        <ele>877.8</ele>
        <time>2022-06-27T11:37:05Z</time>
      </trkpt>
      <trkpt lat="42.3260550" lon="-3.7011850">
        <ele>878.0</ele>
        <time>2022-06-27T11:37:06Z</time>
      </trkpt>
      <trkpt lat="42.3260200" lon="-3.7011950">
        <ele>878.2</ele>
        <time>2022-06-27T11:37:07Z</time>
      </trkpt>
      <trkpt lat="42.3259850" lon="-3.7012050">
        <ele>878.4</ele>
        <time>2022-06-27T11:37:08Z</time>
      </trkpt>
      <trkpt lat="42.3259510" lon="-3.7012160">
        <ele>878.4</ele>
        <time>2022-06-27T11:37:09Z</time>
      </trkpt>
      <trkpt lat="42.3259160" lon="-3.7012260">
        <ele>878.6</ele>
        <time>2022-06-27T11:37:10Z</time>
      </trkpt>
      <trkpt lat="42.3258800" lon="-3.7012350">
        <ele>878.6</ele>
        <time>2022-06-27T11:37:11Z</time>
      </trkpt>
      <trkpt lat="42.3258450" lon="-3.7012430">
        <ele>878.8</ele>
        <time>2022-06-27T11:37:12Z</time>
      </trkpt>
      <trkpt lat="42.3258090" lon="-3.7012520">
        <ele>879.0</ele>
        <time>2022-06-27T11:37:13Z</time>
      </trkpt>
      <trkpt lat="42.3257760" lon="-3.7012610">
        <ele>879.2</ele>
        <time>2022-06-27T11:37:14Z</time>
      </trkpt>
      <trkpt lat="42.3257420" lon="-3.7012710">
        <ele>879.4</ele>
        <time>2022-06-27T11:37:15Z</time>
      </trkpt>
      <trkpt lat="42.3257080" lon="-3.7012800">
        <ele>879.6</ele>
        <time>2022-06-27T11:37:16Z</time>
      </trkpt>
      <trkpt lat="42.3256750" lon="-3.7012880">
        <ele>880.0</ele>
        <time>2022-06-27T11:37:17Z</time>
      </trkpt>
      <trkpt lat="42.3256420" lon="-3.7012960">
        <ele>880.2</ele>
        <time>2022-06-27T11:37:18Z</time>
      </trkpt>
      <trkpt lat="42.3256090" lon="-3.7013060">
        <ele>880.6</ele>
        <time>2022-06-27T11:37:19Z</time>
      </trkpt>
      <trkpt lat="42.3255760" lon="-3.7013160">
        <ele>881.0</ele>
        <time>2022-06-27T11:37:20Z</time>
      </trkpt>
      <trkpt lat="42.3255410" lon="-3.7013270">
        <ele>881.0</ele>
        <time>2022-06-27T11:37:21Z</time>
      </trkpt>
      <trkpt lat="42.3255060" lon="-3.7013370">
        <ele>881.2</ele>
        <time>2022-06-27T11:37:22Z</time>
      </trkpt>
      <trkpt lat="42.3254700" lon="-3.7013470">
        <ele>881.4</ele>
        <time>2022-06-27T11:37:23Z</time>
      </trkpt>
      <trkpt lat="42.3254360" lon="-3.7013560">
        <ele>881.6</ele>
        <time>2022-06-27T11:37:24Z</time>
      </trkpt>
      <trkpt lat="42.3254020" lon="-3.7013650">
        <ele>881.8</ele>
        <time>2022-06-27T11:37:25Z</time>
      </trkpt>
      <trkpt lat="42.3253680" lon="-3.7013740">
        <ele>882.2</ele>
        <time>2022-06-27T11:37:26Z</time>
      </trkpt>
      <trkpt lat="42.3253350" lon="-3.7013820">
        <ele>882.4</ele>
        <time>2022-06-27T11:37:27Z</time>
      </trkpt>
      <trkpt lat="42.3253010" lon="-3.7013880">
        <ele>882.6</ele>
        <time>2022-06-27T11:37:28Z</time>
      </trkpt>
      <trkpt lat="42.3252660" lon="-3.7013950">
        <ele>882.8</ele>
        <time>2022-06-27T11:37:29Z</time>
      </trkpt>
      <trkpt lat="42.3252330" lon="-3.7014030">
        <ele>882.8</ele>
        <time>2022-06-27T11:37:30Z</time>
      </trkpt>
      <trkpt lat="42.3251990" lon="-3.7014100">
        <ele>883.0</ele>
        <time>2022-06-27T11:37:31Z</time>
      </trkpt>
      <trkpt lat="42.3251660" lon="-3.7014170">
        <ele>883.2</ele>
        <time>2022-06-27T11:37:32Z</time>
      </trkpt>
      <trkpt lat="42.3251310" lon="-3.7014240">
        <ele>883.2</ele>
        <time>2022-06-27T11:37:33Z</time>
      </trkpt>
      <trkpt lat="42.3250970" lon="-3.7014320">
        <ele>883.4</ele>
        <time>2022-06-27T11:37:34Z</time>
      </trkpt>
      <trkpt lat="42.3250620" lon="-3.7014410">
        <ele>883.6</ele>
        <time>2022-06-27T11:37:35Z</time>
      </trkpt>
      <trkpt lat="42.3250270" lon="-3.7014500">
        <ele>883.8</ele>
        <time>2022-06-27T11:37:36Z</time>
      </trkpt>
      <trkpt lat="42.3249930" lon="-3.7014590">
        <ele>883.8</ele>
        <time>2022-06-27T11:37:37Z</time>
      </trkpt>
      <trkpt lat="42.3249580" lon="-3.7014670">
        <ele>884.0</ele>
        <time>2022-06-27T11:37:38Z</time>
      </trkpt>
      <trkpt lat="42.3249220" lon="-3.7014750">
        <ele>884.4</ele>
        <time>2022-06-27T11:37:39Z</time>
      </trkpt>
      <trkpt lat="42.3248860" lon="-3.7014820">
        <ele>885.0</ele>
        <time>2022-06-27T11:37:40Z</time>
      </trkpt>
      <trkpt lat="42.3248530" lon="-3.7014880">
        <ele>885.2</ele>
        <time>2022-06-27T11:37:41Z</time>
      </trkpt>
      <trkpt lat="42.3248180" lon="-3.7014930">
        <ele>885.6</ele>
        <time>2022-06-27T11:37:42Z</time>
      </trkpt>
      <trkpt lat="42.3247820" lon="-3.7014980">
        <ele>886.0</ele>
        <time>2022-06-27T11:37:43Z</time>
      </trkpt>
      <trkpt lat="42.3247460" lon="-3.7015040">
        <ele>886.4</ele>
        <time>2022-06-27T11:37:44Z</time>
      </trkpt>
      <trkpt lat="42.3247100" lon="-3.7015120">
        <ele>887.0</ele>
        <time>2022-06-27T11:37:45Z</time>
      </trkpt>
      <trkpt lat="42.3246740" lon="-3.7015210">
        <ele>887.2</ele>
        <time>2022-06-27T11:37:46Z</time>
      </trkpt>
      <trkpt lat="42.3246380" lon="-3.7015300">
        <ele>887.6</ele>
        <time>2022-06-27T11:37:47Z</time>
      </trkpt>
      <trkpt lat="42.3246020" lon="-3.7015400">
        <ele>887.8</ele>
        <time>2022-06-27T11:37:48Z</time>
      </trkpt>
      <trkpt lat="42.3245840" lon="-3.7015450">
        <ele>888.0</ele>
        <time>2022-06-27T11:37:49Z</time>
      </trkpt>
      <trkpt lat="42.3245670" lon="-3.7015500">
        <ele>888.2</ele>
        <time>2022-06-27T11:37:50Z</time>
      </trkpt>
      <trkpt lat="42.3244930" lon="-3.7015690">
        <ele>888.4</ele>
        <time>2022-06-27T11:37:51Z</time>
      </trkpt>
      <trkpt lat="42.3244550" lon="-3.7015790">
        <ele>888.6</ele>
        <time>2022-06-27T11:37:52Z</time>
      </trkpt>
      <trkpt lat="42.3244150" lon="-3.7015890">
        <ele>888.6</ele>
        <time>2022-06-27T11:37:53Z</time>
      </trkpt>
      <trkpt lat="42.3243740" lon="-3.7015970">
        <ele>888.8</ele>
        <time>2022-06-27T11:37:54Z</time>
      </trkpt>
      <trkpt lat="42.3243330" lon="-3.7016060">
        <ele>889.0</ele>
        <time>2022-06-27T11:37:55Z</time>
      </trkpt>
      <trkpt lat="42.3242890" lon="-3.7016120">
        <ele>889.2</ele>
        <time>2022-06-27T11:37:56Z</time>
      </trkpt>
      <trkpt lat="42.3242440" lon="-3.7016180">
        <ele>889.4</ele>
        <time>2022-06-27T11:37:57Z</time>
      </trkpt>
      <trkpt lat="42.3242010" lon="-3.7016270">
        <ele>889.4</ele>
        <time>2022-06-27T11:37:58Z</time>
      </trkpt>
      <trkpt lat="42.3241570" lon="-3.7016370">
        <ele>889.8</ele>
        <time>2022-06-27T11:37:59Z</time>
      </trkpt>
      <trkpt lat="42.3241130" lon="-3.7016470">
        <ele>889.8</ele>
        <time>2022-06-27T11:38:00Z</time>
      </trkpt>
      <trkpt lat="42.3240680" lon="-3.7016550">
        <ele>890.2</ele>
        <time>2022-06-27T11:38:01Z</time>
      </trkpt>
      <trkpt lat="42.3240260" lon="-3.7016610">
        <ele>890.4</ele>
        <time>2022-06-27T11:38:02Z</time>
      </trkpt>
      <trkpt lat="42.3239820" lon="-3.7016690">
        <ele>890.4</ele>
        <time>2022-06-27T11:38:03Z</time>
      </trkpt>
      <trkpt lat="42.3239390" lon="-3.7016780">
        <ele>890.8</ele>
        <time>2022-06-27T11:38:04Z</time>
      </trkpt>
      <trkpt lat="42.3238960" lon="-3.7016840">
        <ele>890.8</ele>
        <time>2022-06-27T11:38:05Z</time>
      </trkpt>
      <trkpt lat="42.3238520" lon="-3.7016900">
        <ele>891.0</ele>
        <time>2022-06-27T11:38:06Z</time>
      </trkpt>
      <trkpt lat="42.3238060" lon="-3.7016910">
        <ele>890.8</ele>
        <time>2022-06-27T11:38:07Z</time>
      </trkpt>
      <trkpt lat="42.3237620" lon="-3.7016910">
        <ele>891.2</ele>
        <time>2022-06-27T11:38:08Z</time>
      </trkpt>
      <trkpt lat="42.3237170" lon="-3.7016910">
        <ele>891.2</ele>
        <time>2022-06-27T11:38:09Z</time>
      </trkpt>
      <trkpt lat="42.3236730" lon="-3.7016920">
        <ele>891.2</ele>
        <time>2022-06-27T11:38:10Z</time>
      </trkpt>
      <trkpt lat="42.3236290" lon="-3.7016920">
        <ele>891.4</ele>
        <time>2022-06-27T11:38:11Z</time>
      </trkpt>
      <trkpt lat="42.3235830" lon="-3.7016910">
        <ele>891.4</ele>
        <time>2022-06-27T11:38:12Z</time>
      </trkpt>
      <trkpt lat="42.3235390" lon="-3.7016890">
        <ele>891.6</ele>
        <time>2022-06-27T11:38:13Z</time>
      </trkpt>
      <trkpt lat="42.3234940" lon="-3.7016870">
        <ele>891.6</ele>
        <time>2022-06-27T11:38:14Z</time>
      </trkpt>
      <trkpt lat="42.3234500" lon="-3.7016890">
        <ele>891.8</ele>
        <time>2022-06-27T11:38:15Z</time>
      </trkpt>
      <trkpt lat="42.3234060" lon="-3.7016980">
        <ele>891.8</ele>
        <time>2022-06-27T11:38:16Z</time>
      </trkpt>
      <trkpt lat="42.3233660" lon="-3.7017170">
        <ele>891.8</ele>
        <time>2022-06-27T11:38:17Z</time>
      </trkpt>
      <trkpt lat="42.3233280" lon="-3.7017480">
        <ele>892.0</ele>
        <time>2022-06-27T11:38:18Z</time>
      </trkpt>
      <trkpt lat="42.3232940" lon="-3.7017850">
        <ele>892.0</ele>
        <time>2022-06-27T11:38:19Z</time>
      </trkpt>
      <trkpt lat="42.3232600" lon="-3.7018220">
        <ele>892.0</ele>
        <time>2022-06-27T11:38:20Z</time>
      </trkpt>
      <trkpt lat="42.3232260" lon="-3.7018600">
        <ele>892.0</ele>
        <time>2022-06-27T11:38:21Z</time>
      </trkpt>
      <trkpt lat="42.3231900" lon="-3.7018970">
        <ele>892.2</ele>
        <time>2022-06-27T11:38:22Z</time>
      </trkpt>
      <trkpt lat="42.3231560" lon="-3.7019360">
        <ele>892.2</ele>
        <time>2022-06-27T11:38:23Z</time>
      </trkpt>
      <trkpt lat="42.3231260" lon="-3.7019790">
        <ele>892.6</ele>
        <time>2022-06-27T11:38:24Z</time>
      </trkpt>
      <trkpt lat="42.3230960" lon="-3.7020210">
        <ele>892.8</ele>
        <time>2022-06-27T11:38:25Z</time>
      </trkpt>
      <trkpt lat="42.3230740" lon="-3.7020720">
        <ele>893.0</ele>
        <time>2022-06-27T11:38:26Z</time>
      </trkpt>
      <trkpt lat="42.3230600" lon="-3.7021280">
        <ele>893.2</ele>
        <time>2022-06-27T11:38:27Z</time>
      </trkpt>
      <trkpt lat="42.3230490" lon="-3.7021860">
        <ele>893.2</ele>
        <time>2022-06-27T11:38:28Z</time>
      </trkpt>
      <trkpt lat="42.3230390" lon="-3.7022450">
        <ele>893.4</ele>
        <time>2022-06-27T11:38:29Z</time>
      </trkpt>
      <trkpt lat="42.3230290" lon="-3.7023010">
        <ele>893.6</ele>
        <time>2022-06-27T11:38:30Z</time>
      </trkpt>
      <trkpt lat="42.3230160" lon="-3.7023570">
        <ele>893.8</ele>
        <time>2022-06-27T11:38:31Z</time>
      </trkpt>
      <trkpt lat="42.3230050" lon="-3.7024120">
        <ele>893.8</ele>
        <time>2022-06-27T11:38:32Z</time>
      </trkpt>
      <trkpt lat="42.3229950" lon="-3.7024670">
        <ele>894.0</ele>
        <time>2022-06-27T11:38:33Z</time>
      </trkpt>
      <trkpt lat="42.3229840" lon="-3.7025190">
        <ele>894.0</ele>
        <time>2022-06-27T11:38:34Z</time>
      </trkpt>
      <trkpt lat="42.3229730" lon="-3.7025710">
        <ele>894.2</ele>
        <time>2022-06-27T11:38:35Z</time>
      </trkpt>
      <trkpt lat="42.3229630" lon="-3.7026250">
        <ele>894.4</ele>
        <time>2022-06-27T11:38:36Z</time>
      </trkpt>
      <trkpt lat="42.3229520" lon="-3.7026790">
        <ele>894.4</ele>
        <time>2022-06-27T11:38:37Z</time>
      </trkpt>
      <trkpt lat="42.3229450" lon="-3.7027350">
        <ele>894.8</ele>
        <time>2022-06-27T11:38:38Z</time>
      </trkpt>
      <trkpt lat="42.3229360" lon="-3.7027900">
        <ele>895.2</ele>
        <time>2022-06-27T11:38:39Z</time>
      </trkpt>
      <trkpt lat="42.3229260" lon="-3.7028450">
        <ele>895.2</ele>
        <time>2022-06-27T11:38:40Z</time>
      </trkpt>
      <trkpt lat="42.3229160" lon="-3.7029010">
        <ele>895.6</ele>
        <time>2022-06-27T11:38:41Z</time>
      </trkpt>
      <trkpt lat="42.3229050" lon="-3.7029560">
        <ele>895.8</ele>
        <time>2022-06-27T11:38:42Z</time>
      </trkpt>
      <trkpt lat="42.3228950" lon="-3.7030110">
        <ele>896.0</ele>
        <time>2022-06-27T11:38:43Z</time>
      </trkpt>
      <trkpt lat="42.3228860" lon="-3.7030670">
        <ele>896.2</ele>
        <time>2022-06-27T11:38:44Z</time>
      </trkpt>
      <trkpt lat="42.3228770" lon="-3.7031230">
        <ele>896.4</ele>
        <time>2022-06-27T11:38:45Z</time>
      </trkpt>
      <trkpt lat="42.3228670" lon="-3.7031770">
        <ele>896.6</ele>
        <time>2022-06-27T11:38:46Z</time>
      </trkpt>
      <trkpt lat="42.3228590" lon="-3.7032330">
        <ele>896.6</ele>
        <time>2022-06-27T11:38:47Z</time>
      </trkpt>
      <trkpt lat="42.3228510" lon="-3.7032870">
        <ele>896.8</ele>
        <time>2022-06-27T11:38:48Z</time>
      </trkpt>
      <trkpt lat="42.3228420" lon="-3.7033400">
        <ele>896.8</ele>
        <time>2022-06-27T11:38:49Z</time>
      </trkpt>
      <trkpt lat="42.3228320" lon="-3.7033910">
        <ele>897.0</ele>
        <time>2022-06-27T11:38:50Z</time>
      </trkpt>
      <trkpt lat="42.3228220" lon="-3.7034400">
        <ele>897.2</ele>
        <time>2022-06-27T11:38:51Z</time>
      </trkpt>
      <trkpt lat="42.3228120" lon="-3.7034890">
        <ele>897.8</ele>
        <time>2022-06-27T11:38:52Z</time>
      </trkpt>
      <trkpt lat="42.3228010" lon="-3.7035390">
        <ele>898.2</ele>
        <time>2022-06-27T11:38:53Z</time>
      </trkpt>
      <trkpt lat="42.3227910" lon="-3.7035910">
        <ele>898.4</ele>
        <time>2022-06-27T11:38:54Z</time>
      </trkpt>
      <trkpt lat="42.3227820" lon="-3.7036430">
        <ele>898.6</ele>
        <time>2022-06-27T11:38:55Z</time>
      </trkpt>
      <trkpt lat="42.3227770" lon="-3.7036690">
        <ele>898.8</ele>
        <time>2022-06-27T11:38:56Z</time>
      </trkpt>
      <trkpt lat="42.3227720" lon="-3.7036940">
        <ele>899.0</ele>
        <time>2022-06-27T11:38:57Z</time>
      </trkpt>
      <trkpt lat="42.3227510" lon="-3.7037940">
        <ele>899.0</ele>
        <time>2022-06-27T11:38:58Z</time>
      </trkpt>
      <trkpt lat="42.3227400" lon="-3.7038460">
        <ele>899.2</ele>
        <time>2022-06-27T11:38:59Z</time>
      </trkpt>
      <trkpt lat="42.3227300" lon="-3.7039000">
        <ele>899.4</ele>
        <time>2022-06-27T11:39:00Z</time>
      </trkpt>
      <trkpt lat="42.3227210" lon="-3.7039540">
        <ele>899.6</ele>
        <time>2022-06-27T11:39:01Z</time>
      </trkpt>
      <trkpt lat="42.3227170" lon="-3.7039810">
        <ele>900.0</ele>
        <time>2022-06-27T11:39:02Z</time>
      </trkpt>
      <trkpt lat="42.3227130" lon="-3.7040090">
        <ele>900.2</ele>
        <time>2022-06-27T11:39:03Z</time>
      </trkpt>
      <trkpt lat="42.3226930" lon="-3.7041140">
        <ele>900.4</ele>
        <time>2022-06-27T11:39:04Z</time>
      </trkpt>
      <trkpt lat="42.3226830" lon="-3.7041680">
        <ele>900.4</ele>
        <time>2022-06-27T11:39:05Z</time>
      </trkpt>
      <trkpt lat="42.3226730" lon="-3.7042220">
        <ele>900.6</ele>
        <time>2022-06-27T11:39:06Z</time>
      </trkpt>
      <trkpt lat="42.3226640" lon="-3.7042760">
        <ele>901.0</ele>
        <time>2022-06-27T11:39:07Z</time>
      </trkpt>
      <trkpt lat="42.3226540" lon="-3.7043300">
        <ele>901.2</ele>
        <time>2022-06-27T11:39:08Z</time>
      </trkpt>
      <trkpt lat="42.3226450" lon="-3.7043840">
        <ele>901.4</ele>
        <time>2022-06-27T11:39:09Z</time>
      </trkpt>
      <trkpt lat="42.3226350" lon="-3.7044370">
        <ele>901.4</ele>
        <time>2022-06-27T11:39:10Z</time>
      </trkpt>
      <trkpt lat="42.3226230" lon="-3.7044890">
        <ele>901.4</ele>
        <time>2022-06-27T11:39:11Z</time>
      </trkpt>
      <trkpt lat="42.3226120" lon="-3.7045400">
        <ele>901.4</ele>
        <time>2022-06-27T11:39:12Z</time>
      </trkpt>
      <trkpt lat="42.3226020" lon="-3.7045910">
        <ele>901.6</ele>
        <time>2022-06-27T11:39:13Z</time>
      </trkpt>
      <trkpt lat="42.3225940" lon="-3.7046440">
        <ele>901.8</ele>
        <time>2022-06-27T11:39:14Z</time>
      </trkpt>
      <trkpt lat="42.3225860" lon="-3.7046960">
        <ele>902.0</ele>
        <time>2022-06-27T11:39:15Z</time>
      </trkpt>
      <trkpt lat="42.3225770" lon="-3.7047460">
        <ele>902.2</ele>
        <time>2022-06-27T11:39:16Z</time>
      </trkpt>
      <trkpt lat="42.3225670" lon="-3.7047950">
        <ele>902.2</ele>
        <time>2022-06-27T11:39:17Z</time>
      </trkpt>
      <trkpt lat="42.3225560" lon="-3.7048450">
        <ele>902.2</ele>
        <time>2022-06-27T11:39:18Z</time>
      </trkpt>
      <trkpt lat="42.3225370" lon="-3.7048900">
        <ele>902.4</ele>
        <time>2022-06-27T11:39:19Z</time>
      </trkpt>
      <trkpt lat="42.3225090" lon="-3.7049250">
        <ele>902.4</ele>
        <time>2022-06-27T11:39:20Z</time>
      </trkpt>
      <trkpt lat="42.3224770" lon="-3.7049500">
        <ele>902.4</ele>
        <time>2022-06-27T11:39:21Z</time>
      </trkpt>
      <trkpt lat="42.3224430" lon="-3.7049610">
        <ele>902.6</ele>
        <time>2022-06-27T11:39:22Z</time>
      </trkpt>
      <trkpt lat="42.3224080" lon="-3.7049570">
        <ele>902.6</ele>
        <time>2022-06-27T11:39:23Z</time>
      </trkpt>
      <trkpt lat="42.3223720" lon="-3.7049450">
        <ele>902.6</ele>
        <time>2022-06-27T11:39:24Z</time>
      </trkpt>
      <trkpt lat="42.3223370" lon="-3.7049240">
        <ele>902.8</ele>
        <time>2022-06-27T11:39:25Z</time>
      </trkpt>
      <trkpt lat="42.3223020" lon="-3.7049010">
        <ele>902.8</ele>
        <time>2022-06-27T11:39:26Z</time>
      </trkpt>
      <trkpt lat="42.3222680" lon="-3.7048760">
        <ele>902.8</ele>
        <time>2022-06-27T11:39:27Z</time>
      </trkpt>
      <trkpt lat="42.3222310" lon="-3.7048510">
        <ele>902.8</ele>
        <time>2022-06-27T11:39:28Z</time>
      </trkpt>
      <trkpt lat="42.3221950" lon="-3.7048260">
        <ele>903.0</ele>
        <time>2022-06-27T11:39:29Z</time>
      </trkpt>
      <trkpt lat="42.3221580" lon="-3.7048010">
        <ele>903.2</ele>
        <time>2022-06-27T11:39:30Z</time>
      </trkpt>
      <trkpt lat="42.3221210" lon="-3.7047790">
        <ele>903.2</ele>
        <time>2022-06-27T11:39:31Z</time>
      </trkpt>
      <trkpt lat="42.3220830" lon="-3.7047570">
        <ele>903.6</ele>
        <time>2022-06-27T11:39:32Z</time>
      </trkpt>
      <trkpt lat="42.3220440" lon="-3.7047330">
        <ele>904.0</ele>
        <time>2022-06-27T11:39:33Z</time>
      </trkpt>
      <trkpt lat="42.3220050" lon="-3.7047080">
        <ele>904.4</ele>
        <time>2022-06-27T11:39:34Z</time>
      </trkpt>
      <trkpt lat="42.3219650" lon="-3.7046850">
        <ele>904.4</ele>
        <time>2022-06-27T11:39:35Z</time>
      </trkpt>
      <trkpt lat="42.3219160" lon="-3.7046570">
        <ele>904.6</ele>
        <time>2022-06-27T11:39:36Z</time>
      </trkpt>
      <trkpt lat="42.3218820" lon="-3.7046390">
        <ele>904.8</ele>
        <time>2022-06-27T11:39:37Z</time>
      </trkpt>
      <trkpt lat="42.3218400" lon="-3.7046170">
        <ele>905.0</ele>
        <time>2022-06-27T11:39:38Z</time>
      </trkpt>
      <trkpt lat="42.3217980" lon="-3.7045940">
        <ele>905.0</ele>
        <time>2022-06-27T11:39:39Z</time>
      </trkpt>
      <trkpt lat="42.3217530" lon="-3.7045720">
        <ele>905.2</ele>
        <time>2022-06-27T11:39:40Z</time>
      </trkpt>
      <trkpt lat="42.3217090" lon="-3.7045490">
        <ele>905.2</ele>
        <time>2022-06-27T11:39:41Z</time>
      </trkpt>
      <trkpt lat="42.3216660" lon="-3.7045270">
        <ele>905.2</ele>
        <time>2022-06-27T11:39:42Z</time>
      </trkpt>
      <trkpt lat="42.3216220" lon="-3.7045010">
        <ele>905.4</ele>
        <time>2022-06-27T11:39:43Z</time>
      </trkpt>
      <trkpt lat="42.3215770" lon="-3.7044740">
        <ele>905.6</ele>
        <time>2022-06-27T11:39:44Z</time>
      </trkpt>
      <trkpt lat="42.3215320" lon="-3.7044510">
        <ele>905.6</ele>
        <time>2022-06-27T11:39:45Z</time>
      </trkpt>
      <trkpt lat="42.3214880" lon="-3.7044270">
        <ele>905.8</ele>
        <time>2022-06-27T11:39:46Z</time>
      </trkpt>
      <trkpt lat="42.3214410" lon="-3.7044020">
        <ele>905.8</ele>
        <time>2022-06-27T11:39:47Z</time>
      </trkpt>
      <trkpt lat="42.3213930" lon="-3.7043790">
        <ele>906.2</ele>
        <time>2022-06-27T11:39:48Z</time>
      </trkpt>
      <trkpt lat="42.3213450" lon="-3.7043560">
        <ele>906.2</ele>
        <time>2022-06-27T11:39:49Z</time>
      </trkpt>
      <trkpt lat="42.3212980" lon="-3.7043320">
        <ele>906.4</ele>
        <time>2022-06-27T11:39:50Z</time>
      </trkpt>
      <trkpt lat="42.3212530" lon="-3.7043090">
        <ele>906.8</ele>
        <time>2022-06-27T11:39:51Z</time>
      </trkpt>
      <trkpt lat="42.3212070" lon="-3.7042870">
        <ele>906.8</ele>
        <time>2022-06-27T11:39:52Z</time>
      </trkpt>
      <trkpt lat="42.3211610" lon="-3.7042630">
        <ele>907.2</ele>
        <time>2022-06-27T11:39:53Z</time>
      </trkpt>
      <trkpt lat="42.3211160" lon="-3.7042370">
        <ele>907.4</ele>
        <time>2022-06-27T11:39:54Z</time>
      </trkpt>
      <trkpt lat="42.3210710" lon="-3.7042140">
        <ele>908.0</ele>
        <time>2022-06-27T11:39:55Z</time>
      </trkpt>
      <trkpt lat="42.3210270" lon="-3.7041910">
        <ele>908.2</ele>
        <time>2022-06-27T11:39:56Z</time>
      </trkpt>
      <trkpt lat="42.3209840" lon="-3.7041670">
        <ele>908.4</ele>
        <time>2022-06-27T11:39:57Z</time>
      </trkpt>
      <trkpt lat="42.3209420" lon="-3.7041430">
        <ele>908.6</ele>
        <time>2022-06-27T11:39:58Z</time>
      </trkpt>
      <trkpt lat="42.3208990" lon="-3.7041180">
        <ele>908.8</ele>
        <time>2022-06-27T11:39:59Z</time>
      </trkpt>
      <trkpt lat="42.3208550" lon="-3.7040940">
        <ele>909.0</ele>
        <time>2022-06-27T11:40:00Z</time>
      </trkpt>
      <trkpt lat="42.3208120" lon="-3.7040730">
        <ele>909.0</ele>
        <time>2022-06-27T11:40:01Z</time>
      </trkpt>
      <trkpt lat="42.3207660" lon="-3.7040500">
        <ele>909.4</ele>
        <time>2022-06-27T11:40:02Z</time>
      </trkpt>
      <trkpt lat="42.3207190" lon="-3.7040290">
        <ele>909.4</ele>
        <time>2022-06-27T11:40:03Z</time>
      </trkpt>
      <trkpt lat="42.3206710" lon="-3.7040150">
        <ele>909.6</ele>
        <time>2022-06-27T11:40:04Z</time>
      </trkpt>
      <trkpt lat="42.3206210" lon="-3.7040010">
        <ele>909.8</ele>
        <time>2022-06-27T11:40:05Z</time>
      </trkpt>
      <trkpt lat="42.3205700" lon="-3.7039880">
        <ele>910.0</ele>
        <time>2022-06-27T11:40:06Z</time>
      </trkpt>
      <trkpt lat="42.3205230" lon="-3.7039790">
        <ele>910.4</ele>
        <time>2022-06-27T11:40:07Z</time>
      </trkpt>
      <trkpt lat="42.3204770" lon="-3.7039700">
        <ele>910.6</ele>
        <time>2022-06-27T11:40:08Z</time>
      </trkpt>
      <trkpt lat="42.3204310" lon="-3.7039620">
        <ele>910.8</ele>
        <time>2022-06-27T11:40:09Z</time>
      </trkpt>
      <trkpt lat="42.3203840" lon="-3.7039540">
        <ele>911.0</ele>
        <time>2022-06-27T11:40:10Z</time>
      </trkpt>
      <trkpt lat="42.3203390" lon="-3.7039480">
        <ele>911.4</ele>
        <time>2022-06-27T11:40:11Z</time>
      </trkpt>
      <trkpt lat="42.3202930" lon="-3.7039460">
        <ele>911.6</ele>
        <time>2022-06-27T11:40:12Z</time>
      </trkpt>
      <trkpt lat="42.3202460" lon="-3.7039480">
        <ele>911.6</ele>
        <time>2022-06-27T11:40:13Z</time>
      </trkpt>
      <trkpt lat="42.3201960" lon="-3.7039500">
        <ele>911.8</ele>
        <time>2022-06-27T11:40:14Z</time>
      </trkpt>
      <trkpt lat="42.3201440" lon="-3.7039500">
        <ele>911.8</ele>
        <time>2022-06-27T11:40:15Z</time>
      </trkpt>
      <trkpt lat="42.3200920" lon="-3.7039470">
        <ele>911.8</ele>
        <time>2022-06-27T11:40:16Z</time>
      </trkpt>
      <trkpt lat="42.3200410" lon="-3.7039440">
        <ele>911.8</ele>
        <time>2022-06-27T11:40:17Z</time>
      </trkpt>
      <trkpt lat="42.3199890" lon="-3.7039360">
        <ele>912.0</ele>
        <time>2022-06-27T11:40:18Z</time>
      </trkpt>
      <trkpt lat="42.3199410" lon="-3.7039270">
        <ele>912.0</ele>
        <time>2022-06-27T11:40:19Z</time>
      </trkpt>
      <trkpt lat="42.3198930" lon="-3.7039120">
        <ele>912.0</ele>
        <time>2022-06-27T11:40:20Z</time>
      </trkpt>
      <trkpt lat="42.3198490" lon="-3.7038960">
        <ele>912.0</ele>
        <time>2022-06-27T11:40:21Z</time>
      </trkpt>
      <trkpt lat="42.3198110" lon="-3.7039030">
        <ele>912.0</ele>
        <time>2022-06-27T11:40:22Z</time>
      </trkpt>
      <trkpt lat="42.3197740" lon="-3.7039090">
        <ele>912.0</ele>
        <time>2022-06-27T11:40:23Z</time>
      </trkpt>
      <trkpt lat="42.3200910" lon="-3.7038820">
        <ele>912.4</ele>
        <time>2022-06-27T12:16:51Z</time>
      </trkpt>
      <trkpt lat="42.3201160" lon="-3.7038830">
        <ele>912.6</ele>
        <time>2022-06-27T12:16:52Z</time>
      </trkpt>
      <trkpt lat="42.3201460" lon="-3.7038840">
        <ele>912.6</ele>
        <time>2022-06-27T12:16:53Z</time>
      </trkpt>
      <trkpt lat="42.3201750" lon="-3.7038900">
        <ele>912.6</ele>
        <time>2022-06-27T12:16:54Z</time>
      </trkpt>
      <trkpt lat="42.3202030" lon="-3.7038990">
        <ele>912.8</ele>
        <time>2022-06-27T12:16:55Z</time>
      </trkpt>
      <trkpt lat="42.3202340" lon="-3.7039070">
        <ele>912.8</ele>
        <time>2022-06-27T12:16:56Z</time>
      </trkpt>
      <trkpt lat="42.3202650" lon="-3.7039110">
        <ele>913.0</ele>
        <time>2022-06-27T12:16:57Z</time>
      </trkpt>
      <trkpt lat="42.3202980" lon="-3.7039140">
        <ele>913.2</ele>
        <time>2022-06-27T12:16:58Z</time>
      </trkpt>
      <trkpt lat="42.3203320" lon="-3.7039230">
        <ele>913.2</ele>
        <time>2022-06-27T12:16:59Z</time>
      </trkpt>
      <trkpt lat="42.3203700" lon="-3.7039340">
        <ele>913.2</ele>
        <time>2022-06-27T12:17:00Z</time>
      </trkpt>
      <trkpt lat="42.3204160" lon="-3.7039420">
        <ele>913.4</ele>
        <time>2022-06-27T12:17:01Z</time>
      </trkpt>
      <trkpt lat="42.3204600" lon="-3.7039490">
        <ele>913.4</ele>
        <time>2022-06-27T12:17:02Z</time>
      </trkpt>
      <trkpt lat="42.3205050" lon="-3.7039570">
        <ele>913.4</ele>
        <time>2022-06-27T12:17:03Z</time>
      </trkpt>
      <trkpt lat="42.3205500" lon="-3.7039670">
        <ele>913.4</ele>
        <time>2022-06-27T12:17:04Z</time>
      </trkpt>
      <trkpt lat="42.3205950" lon="-3.7039790">
        <ele>913.4</ele>
        <time>2022-06-27T12:17:05Z</time>
      </trkpt>
      <trkpt lat="42.3206380" lon="-3.7039920">
        <ele>913.2</ele>
        <time>2022-06-27T12:17:06Z</time>
      </trkpt>
      <trkpt lat="42.3206820" lon="-3.7040060">
        <ele>913.2</ele>
        <time>2022-06-27T12:17:07Z</time>
      </trkpt>
      <trkpt lat="42.3207270" lon="-3.7040210">
        <ele>913.2</ele>
        <time>2022-06-27T12:17:08Z</time>
      </trkpt>
      <trkpt lat="42.3207720" lon="-3.7040400">
        <ele>913.2</ele>
        <time>2022-06-27T12:17:09Z</time>
      </trkpt>
      <trkpt lat="42.3208180" lon="-3.7040580">
        <ele>913.2</ele>
        <time>2022-06-27T12:17:10Z</time>
      </trkpt>
      <trkpt lat="42.3208650" lon="-3.7040790">
        <ele>913.0</ele>
        <time>2022-06-27T12:17:11Z</time>
      </trkpt>
      <trkpt lat="42.3209130" lon="-3.7041040">
        <ele>913.0</ele>
        <time>2022-06-27T12:17:12Z</time>
      </trkpt>
      <trkpt lat="42.3209640" lon="-3.7041290">
        <ele>913.0</ele>
        <time>2022-06-27T12:17:13Z</time>
      </trkpt>
      <trkpt lat="42.3210180" lon="-3.7041540">
        <ele>913.0</ele>
        <time>2022-06-27T12:17:14Z</time>
      </trkpt>
      <trkpt lat="42.3210750" lon="-3.7041780">
        <ele>912.8</ele>
        <time>2022-06-27T12:17:15Z</time>
      </trkpt>
      <trkpt lat="42.3211320" lon="-3.7042070">
        <ele>912.8</ele>
        <time>2022-06-27T12:17:16Z</time>
      </trkpt>
      <trkpt lat="42.3211900" lon="-3.7042390">
        <ele>912.8</ele>
        <time>2022-06-27T12:17:17Z</time>
      </trkpt>
      <trkpt lat="42.3212480" lon="-3.7042700">
        <ele>912.8</ele>
        <time>2022-06-27T12:17:18Z</time>
      </trkpt>
      <trkpt lat="42.3213090" lon="-3.7043020">
        <ele>912.8</ele>
        <time>2022-06-27T12:17:19Z</time>
      </trkpt>
      <trkpt lat="42.3213740" lon="-3.7043370">
        <ele>912.4</ele>
        <time>2022-06-27T12:17:20Z</time>
      </trkpt>
      <trkpt lat="42.3214390" lon="-3.7043710">
        <ele>912.4</ele>
        <time>2022-06-27T12:17:21Z</time>
      </trkpt>
      <trkpt lat="42.3215070" lon="-3.7044080">
        <ele>912.0</ele>
        <time>2022-06-27T12:17:22Z</time>
      </trkpt>
      <trkpt lat="42.3215790" lon="-3.7044440">
        <ele>912.0</ele>
        <time>2022-06-27T12:17:23Z</time>
      </trkpt>
      <trkpt lat="42.3216490" lon="-3.7044800">
        <ele>911.6</ele>
        <time>2022-06-27T12:17:24Z</time>
      </trkpt>
      <trkpt lat="42.3217180" lon="-3.7045170">
        <ele>911.4</ele>
        <time>2022-06-27T12:17:25Z</time>
      </trkpt>
      <trkpt lat="42.3217880" lon="-3.7045530">
        <ele>911.4</ele>
        <time>2022-06-27T12:17:26Z</time>
      </trkpt>
      <trkpt lat="42.3218570" lon="-3.7045900">
        <ele>911.0</ele>
        <time>2022-06-27T12:17:27Z</time>
      </trkpt>
      <trkpt lat="42.3219230" lon="-3.7046260">
        <ele>910.8</ele>
        <time>2022-06-27T12:17:28Z</time>
      </trkpt>
      <trkpt lat="42.3219860" lon="-3.7046620">
        <ele>910.6</ele>
        <time>2022-06-27T12:17:29Z</time>
      </trkpt>
      <trkpt lat="42.3220440" lon="-3.7046960">
        <ele>910.4</ele>
        <time>2022-06-27T12:17:30Z</time>
      </trkpt>
      <trkpt lat="42.3220960" lon="-3.7047320">
        <ele>910.2</ele>
        <time>2022-06-27T12:17:31Z</time>
      </trkpt>
      <trkpt lat="42.3221410" lon="-3.7047690">
        <ele>910.0</ele>
        <time>2022-06-27T12:17:32Z</time>
      </trkpt>
      <trkpt lat="42.3221870" lon="-3.7048050">
        <ele>910.0</ele>
        <time>2022-06-27T12:17:33Z</time>
      </trkpt>
      <trkpt lat="42.3222370" lon="-3.7048390">
        <ele>909.6</ele>
        <time>2022-06-27T12:17:34Z</time>
      </trkpt>
      <trkpt lat="42.3222900" lon="-3.7048630">
        <ele>909.6</ele>
        <time>2022-06-27T12:17:35Z</time>
      </trkpt>
      <trkpt lat="42.3223630" lon="-3.7048710">
        <ele>909.2</ele>
        <time>2022-06-27T12:17:36Z</time>
      </trkpt>
      <trkpt lat="42.3224250" lon="-3.7048540">
        <ele>909.2</ele>
        <time>2022-06-27T12:17:37Z</time>
      </trkpt>
      <trkpt lat="42.3224830" lon="-3.7048140">
        <ele>908.8</ele>
        <time>2022-06-27T12:17:38Z</time>
      </trkpt>
      <trkpt lat="42.3225200" lon="-3.7047670">
        <ele>908.4</ele>
        <time>2022-06-27T12:17:39Z</time>
      </trkpt>
      <trkpt lat="42.3225560" lon="-3.7046960">
        <ele>908.4</ele>
        <time>2022-06-27T12:17:40Z</time>
      </trkpt>
      <trkpt lat="42.3225820" lon="-3.7046020">
        <ele>908.2</ele>
        <time>2022-06-27T12:17:41Z</time>
      </trkpt>
      <trkpt lat="42.3225910" lon="-3.7045190">
        <ele>907.8</ele>
        <time>2022-06-27T12:17:42Z</time>
      </trkpt>
      <trkpt lat="42.3226020" lon="-3.7044410">
        <ele>907.4</ele>
        <time>2022-06-27T12:17:43Z</time>
      </trkpt>
      <trkpt lat="42.3226110" lon="-3.7043780">
        <ele>907.4</ele>
        <time>2022-06-27T12:17:44Z</time>
      </trkpt>
      <trkpt lat="42.3226250" lon="-3.7043000">
        <ele>906.8</ele>
        <time>2022-06-27T12:17:45Z</time>
      </trkpt>
      <trkpt lat="42.3226410" lon="-3.7042230">
        <ele>906.4</ele>
        <time>2022-06-27T12:17:46Z</time>
      </trkpt>
      <trkpt lat="42.3226570" lon="-3.7041250">
        <ele>906.2</ele>
        <time>2022-06-27T12:17:47Z</time>
      </trkpt>
      <trkpt lat="42.3226680" lon="-3.7040590">
        <ele>906.0</ele>
        <time>2022-06-27T12:17:48Z</time>
      </trkpt>
      <trkpt lat="42.3226840" lon="-3.7039790">
        <ele>906.0</ele>
        <time>2022-06-27T12:17:49Z</time>
      </trkpt>
      <trkpt lat="42.3227010" lon="-3.7038990">
        <ele>905.8</ele>
        <time>2022-06-27T12:17:50Z</time>
      </trkpt>
      <trkpt lat="42.3227170" lon="-3.7038190">
        <ele>905.8</ele>
        <time>2022-06-27T12:17:51Z</time>
      </trkpt>
      <trkpt lat="42.3227320" lon="-3.7037480">
        <ele>905.4</ele>
        <time>2022-06-27T12:17:52Z</time>
      </trkpt>
      <trkpt lat="42.3227470" lon="-3.7036680">
        <ele>905.2</ele>
        <time>2022-06-27T12:17:53Z</time>
      </trkpt>
      <trkpt lat="42.3227600" lon="-3.7035990">
        <ele>905.0</ele>
        <time>2022-06-27T12:17:54Z</time>
      </trkpt>
      <trkpt lat="42.3227710" lon="-3.7035430">
        <ele>904.8</ele>
        <time>2022-06-27T12:17:55Z</time>
      </trkpt>
      <trkpt lat="42.3227820" lon="-3.7034740">
        <ele>904.6</ele>
        <time>2022-06-27T12:17:56Z</time>
      </trkpt>
      <trkpt lat="42.3227940" lon="-3.7033900">
        <ele>904.2</ele>
        <time>2022-06-27T12:17:57Z</time>
      </trkpt>
      <trkpt lat="42.3228040" lon="-3.7033180">
        <ele>904.2</ele>
        <time>2022-06-27T12:17:58Z</time>
      </trkpt>
      <trkpt lat="42.3228170" lon="-3.7032490">
        <ele>904.0</ele>
        <time>2022-06-27T12:17:59Z</time>
      </trkpt>
      <trkpt lat="42.3228310" lon="-3.7031940">
        <ele>903.8</ele>
        <time>2022-06-27T12:18:00Z</time>
      </trkpt>
      <trkpt lat="42.3228490" lon="-3.7031210">
        <ele>903.4</ele>
        <time>2022-06-27T12:18:01Z</time>
      </trkpt>
      <trkpt lat="42.3228680" lon="-3.7030460">
        <ele>903.0</ele>
        <time>2022-06-27T12:18:02Z</time>
      </trkpt>
      <trkpt lat="42.3228880" lon="-3.7029530">
        <ele>903.0</ele>
        <time>2022-06-27T12:18:03Z</time>
      </trkpt>
      <trkpt lat="42.3229050" lon="-3.7028750">
        <ele>902.8</ele>
        <time>2022-06-27T12:18:04Z</time>
      </trkpt>
      <trkpt lat="42.3229200" lon="-3.7027940">
        <ele>902.6</ele>
        <time>2022-06-27T12:18:05Z</time>
      </trkpt>
      <trkpt lat="42.3229320" lon="-3.7027300">
        <ele>902.2</ele>
        <time>2022-06-27T12:18:06Z</time>
      </trkpt>
      <trkpt lat="42.3229500" lon="-3.7026490">
        <ele>902.0</ele>
        <time>2022-06-27T12:18:07Z</time>
      </trkpt>
      <trkpt lat="42.3229730" lon="-3.7025530">
        <ele>901.4</ele>
        <time>2022-06-27T12:18:08Z</time>
      </trkpt>
      <trkpt lat="42.3229910" lon="-3.7024740">
        <ele>901.0</ele>
        <time>2022-06-27T12:18:09Z</time>
      </trkpt>
      <trkpt lat="42.3230070" lon="-3.7023940">
        <ele>900.8</ele>
        <time>2022-06-27T12:18:10Z</time>
      </trkpt>
      <trkpt lat="42.3230190" lon="-3.7023310">
        <ele>900.4</ele>
        <time>2022-06-27T12:18:11Z</time>
      </trkpt>
      <trkpt lat="42.3230340" lon="-3.7022470">
        <ele>900.2</ele>
        <time>2022-06-27T12:18:12Z</time>
      </trkpt>
      <trkpt lat="42.3230480" lon="-3.7021580">
        <ele>899.8</ele>
        <time>2022-06-27T12:18:13Z</time>
      </trkpt>
      <trkpt lat="42.3230600" lon="-3.7020550">
        <ele>899.6</ele>
        <time>2022-06-27T12:18:14Z</time>
      </trkpt>
      <trkpt lat="42.3230630" lon="-3.7019800">
        <ele>899.6</ele>
        <time>2022-06-27T12:18:15Z</time>
      </trkpt>
      <trkpt lat="42.3230600" lon="-3.7019230">
        <ele>899.2</ele>
        <time>2022-06-27T12:18:16Z</time>
      </trkpt>
      <trkpt lat="42.3230560" lon="-3.7018860">
        <ele>899.2</ele>
        <time>2022-06-27T12:18:17Z</time>
      </trkpt>
      <trkpt lat="42.3230500" lon="-3.7018420">
        <ele>899.2</ele>
        <time>2022-06-27T12:18:18Z</time>
      </trkpt>
      <trkpt lat="42.3230400" lon="-3.7017840">
        <ele>899.2</ele>
        <time>2022-06-27T12:18:19Z</time>
      </trkpt>
      <trkpt lat="42.3230330" lon="-3.7017300">
        <ele>899.0</ele>
        <time>2022-06-27T12:18:20Z</time>
      </trkpt>
      <trkpt lat="42.3230330" lon="-3.7016770">
        <ele>898.8</ele>
        <time>2022-06-27T12:18:21Z</time>
      </trkpt>
      <trkpt lat="42.3230400" lon="-3.7016370">
        <ele>898.8</ele>
        <time>2022-06-27T12:18:22Z</time>
      </trkpt>
      <trkpt lat="42.3230570" lon="-3.7015860">
        <ele>898.6</ele>
        <time>2022-06-27T12:18:23Z</time>
      </trkpt>
      <trkpt lat="42.3230890" lon="-3.7015260">
        <ele>898.6</ele>
        <time>2022-06-27T12:18:24Z</time>
      </trkpt>
      <trkpt lat="42.3231230" lon="-3.7014810">
        <ele>898.4</ele>
        <time>2022-06-27T12:18:25Z</time>
      </trkpt>
      <trkpt lat="42.3231580" lon="-3.7014330">
        <ele>898.4</ele>
        <time>2022-06-27T12:18:26Z</time>
      </trkpt>
      <trkpt lat="42.3231870" lon="-3.7013890">
        <ele>898.2</ele>
        <time>2022-06-27T12:18:27Z</time>
      </trkpt>
      <trkpt lat="42.3232260" lon="-3.7013290">
        <ele>898.2</ele>
        <time>2022-06-27T12:18:28Z</time>
      </trkpt>
      <trkpt lat="42.3232660" lon="-3.7012610">
        <ele>898.0</ele>
        <time>2022-06-27T12:18:29Z</time>
      </trkpt>
      <trkpt lat="42.3233180" lon="-3.7011740">
        <ele>897.8</ele>
        <time>2022-06-27T12:18:30Z</time>
      </trkpt>
      <trkpt lat="42.3233670" lon="-3.7011020">
        <ele>897.8</ele>
        <time>2022-06-27T12:18:31Z</time>
      </trkpt>
      <trkpt lat="42.3234220" lon="-3.7010290">
        <ele>897.6</ele>
        <time>2022-06-27T12:18:32Z</time>
      </trkpt>
      <trkpt lat="42.3234720" lon="-3.7009740">
        <ele>897.4</ele>
        <time>2022-06-27T12:18:33Z</time>
      </trkpt>
      <trkpt lat="42.3235350" lon="-3.7009140">
        <ele>897.0</ele>
        <time>2022-06-27T12:18:34Z</time>
      </trkpt>
      <trkpt lat="42.3236180" lon="-3.7008610">
        <ele>896.4</ele>
        <time>2022-06-27T12:18:35Z</time>
      </trkpt>
      <trkpt lat="42.3236750" lon="-3.7008410">
        <ele>895.6</ele>
        <time>2022-06-27T12:18:36Z</time>
      </trkpt>
      <trkpt lat="42.3237410" lon="-3.7008240">
        <ele>894.8</ele>
        <time>2022-06-27T12:18:37Z</time>
      </trkpt>
      <trkpt lat="42.3238100" lon="-3.7008410">
        <ele>894.4</ele>
        <time>2022-06-27T12:18:38Z</time>
      </trkpt>
      <trkpt lat="42.3238840" lon="-3.7008850">
        <ele>893.8</ele>
        <time>2022-06-27T12:18:39Z</time>
      </trkpt>
      <trkpt lat="42.3239530" lon="-3.7009370">
        <ele>893.6</ele>
        <time>2022-06-27T12:18:40Z</time>
      </trkpt>
      <trkpt lat="42.3240260" lon="-3.7009980">
        <ele>893.4</ele>
        <time>2022-06-27T12:18:41Z</time>
      </trkpt>
      <trkpt lat="42.3240830" lon="-3.7010440">
        <ele>893.4</ele>
        <time>2022-06-27T12:18:42Z</time>
      </trkpt>
      <trkpt lat="42.3241280" lon="-3.7010760">
        <ele>893.2</ele>
        <time>2022-06-27T12:18:43Z</time>
      </trkpt>
      <trkpt lat="42.3241850" lon="-3.7011100">
        <ele>893.0</ele>
        <time>2022-06-27T12:18:44Z</time>
      </trkpt>
      <trkpt lat="42.3242450" lon="-3.7011440">
        <ele>893.0</ele>
        <time>2022-06-27T12:18:45Z</time>
      </trkpt>
      <trkpt lat="42.3243080" lon="-3.7011730">
        <ele>893.0</ele>
        <time>2022-06-27T12:18:46Z</time>
      </trkpt>
      <trkpt lat="42.3243760" lon="-3.7011980">
        <ele>893.0</ele>
        <time>2022-06-27T12:18:47Z</time>
      </trkpt>
      <trkpt lat="42.3244620" lon="-3.7012210">
        <ele>893.2</ele>
        <time>2022-06-27T12:18:48Z</time>
      </trkpt>
      <trkpt lat="42.3245250" lon="-3.7012370">
        <ele>893.2</ele>
        <time>2022-06-27T12:18:49Z</time>
      </trkpt>
      <trkpt lat="42.3246020" lon="-3.7012490">
        <ele>893.2</ele>
        <time>2022-06-27T12:18:50Z</time>
      </trkpt>
      <trkpt lat="42.3246810" lon="-3.7012550">
        <ele>893.2</ele>
        <time>2022-06-27T12:18:51Z</time>
      </trkpt>
      <trkpt lat="42.3247800" lon="-3.7012570">
        <ele>893.2</ele>
        <time>2022-06-27T12:18:52Z</time>
      </trkpt>
      <trkpt lat="42.3248660" lon="-3.7012550">
        <ele>893.0</ele>
        <time>2022-06-27T12:18:53Z</time>
      </trkpt>
      <trkpt lat="42.3249370" lon="-3.7012490">
        <ele>892.8</ele>
        <time>2022-06-27T12:18:54Z</time>
      </trkpt>
      <trkpt lat="42.3250250" lon="-3.7012430">
        <ele>893.0</ele>
        <time>2022-06-27T12:18:55Z</time>
      </trkpt>
      <trkpt lat="42.3251310" lon="-3.7012330">
        <ele>892.8</ele>
        <time>2022-06-27T12:18:56Z</time>
      </trkpt>
      <trkpt lat="42.3252010" lon="-3.7012210">
        <ele>891.6</ele>
        <time>2022-06-27T12:18:57Z</time>
      </trkpt>
      <trkpt lat="42.3252910" lon="-3.7012030">
        <ele>891.2</ele>
        <time>2022-06-27T12:18:58Z</time>
      </trkpt>
      <trkpt lat="42.3253790" lon="-3.7011810">
        <ele>891.0</ele>
        <time>2022-06-27T12:18:59Z</time>
      </trkpt>
      <trkpt lat="42.3254650" lon="-3.7011600">
        <ele>890.8</ele>
        <time>2022-06-27T12:19:00Z</time>
      </trkpt>
      <trkpt lat="42.3255490" lon="-3.7011410">
        <ele>890.6</ele>
        <time>2022-06-27T12:19:01Z</time>
      </trkpt>
      <trkpt lat="42.3256460" lon="-3.7011220">
        <ele>889.8</ele>
        <time>2022-06-27T12:19:02Z</time>
      </trkpt>
      <trkpt lat="42.3257100" lon="-3.7011090">
        <ele>889.4</ele>
        <time>2022-06-27T12:19:03Z</time>
      </trkpt>
      <trkpt lat="42.3258040" lon="-3.7010910">
        <ele>888.6</ele>
        <time>2022-06-27T12:19:04Z</time>
      </trkpt>
      <trkpt lat="42.3258700" lon="-3.7010780">
        <ele>888.0</ele>
        <time>2022-06-27T12:19:05Z</time>
      </trkpt>
      <trkpt lat="42.3259510" lon="-3.7010610">
        <ele>887.6</ele>
        <time>2022-06-27T12:19:06Z</time>
      </trkpt>
      <trkpt lat="42.3260490" lon="-3.7010380">
        <ele>887.0</ele>
        <time>2022-06-27T12:19:07Z</time>
      </trkpt>
      <trkpt lat="42.3261160" lon="-3.7010220">
        <ele>886.4</ele>
        <time>2022-06-27T12:19:08Z</time>
      </trkpt>
      <trkpt lat="42.3262190" lon="-3.7009960">
        <ele>885.6</ele>
        <time>2022-06-27T12:19:09Z</time>
      </trkpt>
      <trkpt lat="42.3262890" lon="-3.7009810">
        <ele>885.2</ele>
        <time>2022-06-27T12:19:10Z</time>
      </trkpt>
      <trkpt lat="42.3263800" lon="-3.7009620">
        <ele>884.8</ele>
        <time>2022-06-27T12:19:11Z</time>
      </trkpt>
      <trkpt lat="42.3264740" lon="-3.7009450">
        <ele>884.6</ele>
        <time>2022-06-27T12:19:12Z</time>
      </trkpt>
      <trkpt lat="42.3265890" lon="-3.7009240">
        <ele>884.2</ele>
        <time>2022-06-27T12:19:13Z</time>
      </trkpt>
      <trkpt lat="42.3266690" lon="-3.7009080">
        <ele>883.8</ele>
        <time>2022-06-27T12:19:14Z</time>
      </trkpt>
      <trkpt lat="42.3267690" lon="-3.7008860">
        <ele>883.6</ele>
        <time>2022-06-27T12:19:15Z</time>
      </trkpt>
      <trkpt lat="42.3268690" lon="-3.7008630">
        <ele>883.2</ele>
        <time>2022-06-27T12:19:16Z</time>
      </trkpt>
      <trkpt lat="42.3269670" lon="-3.7008390">
        <ele>882.6</ele>
        <time>2022-06-27T12:19:17Z</time>
      </trkpt>
      <trkpt lat="42.3270820" lon="-3.7008080">
        <ele>881.4</ele>
        <time>2022-06-27T12:19:18Z</time>
      </trkpt>
      <trkpt lat="42.3271610" lon="-3.7007870">
        <ele>881.0</ele>
        <time>2022-06-27T12:19:19Z</time>
      </trkpt>
      <trkpt lat="42.3272780" lon="-3.7007590">
        <ele>880.0</ele>
        <time>2022-06-27T12:19:20Z</time>
      </trkpt>
      <trkpt lat="42.3273570" lon="-3.7007390">
        <ele>879.4</ele>
        <time>2022-06-27T12:19:21Z</time>
      </trkpt>
      <trkpt lat="42.3274570" lon="-3.7007090">
        <ele>879.0</ele>
        <time>2022-06-27T12:19:22Z</time>
      </trkpt>
      <trkpt lat="42.3275750" lon="-3.7006760">
        <ele>878.6</ele>
        <time>2022-06-27T12:19:23Z</time>
      </trkpt>
      <trkpt lat="42.3276750" lon="-3.7006500">
        <ele>878.2</ele>
        <time>2022-06-27T12:19:24Z</time>
      </trkpt>
      <trkpt lat="42.3277730" lon="-3.7006230">
        <ele>877.8</ele>
        <time>2022-06-27T12:19:25Z</time>
      </trkpt>
      <trkpt lat="42.3278690" lon="-3.7005960">
        <ele>877.6</ele>
        <time>2022-06-27T12:19:26Z</time>
      </trkpt>
      <trkpt lat="42.3279440" lon="-3.7005750">
        <ele>877.0</ele>
        <time>2022-06-27T12:19:27Z</time>
      </trkpt>
      <trkpt lat="42.3280370" lon="-3.7005470">
        <ele>876.2</ele>
        <time>2022-06-27T12:19:28Z</time>
      </trkpt>
      <trkpt lat="42.3281470" lon="-3.7005200">
        <ele>875.8</ele>
        <time>2022-06-27T12:19:29Z</time>
      </trkpt>
      <trkpt lat="42.3282350" lon="-3.7005010">
        <ele>875.4</ele>
        <time>2022-06-27T12:19:31Z</time>
      </trkpt>
      <trkpt lat="42.3283080" lon="-3.7004870">
        <ele>875.0</ele>
        <time>2022-06-27T12:19:32Z</time>
      </trkpt>
      <trkpt lat="42.3283990" lon="-3.7004710">
        <ele>874.6</ele>
        <time>2022-06-27T12:19:33Z</time>
      </trkpt>
      <trkpt lat="42.3284900" lon="-3.7004620">
        <ele>874.4</ele>
        <time>2022-06-27T12:19:34Z</time>
      </trkpt>
      <trkpt lat="42.3285970" lon="-3.7004590">
        <ele>874.2</ele>
        <time>2022-06-27T12:19:35Z</time>
      </trkpt>
      <trkpt lat="42.3286840" lon="-3.7004610">
        <ele>874.0</ele>
        <time>2022-06-27T12:19:36Z</time>
      </trkpt>
      <trkpt lat="42.3287690" lon="-3.7004640">
        <ele>873.6</ele>
        <time>2022-06-27T12:19:37Z</time>
      </trkpt>
      <trkpt lat="42.3288350" lon="-3.7004650">
        <ele>873.2</ele>
        <time>2022-06-27T12:19:38Z</time>
      </trkpt>
      <trkpt lat="42.3289170" lon="-3.7004580">
        <ele>873.0</ele>
        <time>2022-06-27T12:19:39Z</time>
      </trkpt>
      <trkpt lat="42.3289970" lon="-3.7004340">
        <ele>872.6</ele>
        <time>2022-06-27T12:19:40Z</time>
      </trkpt>
      <trkpt lat="42.3290900" lon="-3.7004000">
        <ele>872.4</ele>
        <time>2022-06-27T12:19:41Z</time>
      </trkpt>
      <trkpt lat="42.3291700" lon="-3.7003850">
        <ele>872.0</ele>
        <time>2022-06-27T12:19:42Z</time>
      </trkpt>
      <trkpt lat="42.3292430" lon="-3.7003940">
        <ele>871.8</ele>
        <time>2022-06-27T12:19:43Z</time>
      </trkpt>
      <trkpt lat="42.3292950" lon="-3.7004210">
        <ele>871.6</ele>
        <time>2022-06-27T12:19:44Z</time>
      </trkpt>
      <trkpt lat="42.3293470" lon="-3.7004840">
        <ele>871.2</ele>
        <time>2022-06-27T12:19:45Z</time>
      </trkpt>
      <trkpt lat="42.3293860" lon="-3.7005680">
        <ele>871.0</ele>
        <time>2022-06-27T12:19:46Z</time>
      </trkpt>
      <trkpt lat="42.3294140" lon="-3.7006560">
        <ele>870.6</ele>
        <time>2022-06-27T12:19:47Z</time>
      </trkpt>
      <trkpt lat="42.3294410" lon="-3.7007430">
        <ele>870.4</ele>
        <time>2022-06-27T12:19:48Z</time>
      </trkpt>
      <trkpt lat="42.3294840" lon="-3.7007890">
        <ele>870.2</ele>
        <time>2022-06-27T12:19:49Z</time>
      </trkpt>
      <trkpt lat="42.3295280" lon="-3.7008350">
        <ele>870.0</ele>
        <time>2022-06-27T12:19:50Z</time>
      </trkpt>
      <trkpt lat="42.3296160" lon="-3.7009280">
        <ele>869.8</ele>
        <time>2022-06-27T12:19:51Z</time>
      </trkpt>
      <trkpt lat="42.3296780" lon="-3.7009330">
        <ele>869.4</ele>
        <time>2022-06-27T12:19:52Z</time>
      </trkpt>
      <trkpt lat="42.3297680" lon="-3.7009260">
        <ele>869.2</ele>
        <time>2022-06-27T12:19:53Z</time>
      </trkpt>
      <trkpt lat="42.3298250" lon="-3.7009080">
        <ele>868.8</ele>
        <time>2022-06-27T12:19:54Z</time>
      </trkpt>
      <trkpt lat="42.3298960" lon="-3.7008800">
        <ele>868.8</ele>
        <time>2022-06-27T12:19:55Z</time>
      </trkpt>
      <trkpt lat="42.3299840" lon="-3.7008570">
        <ele>868.6</ele>
        <time>2022-06-27T12:19:56Z</time>
      </trkpt>
      <trkpt lat="42.3300580" lon="-3.7008480">
        <ele>868.4</ele>
        <time>2022-06-27T12:19:57Z</time>
      </trkpt>
      <trkpt lat="42.3301150" lon="-3.7008470">
        <ele>868.2</ele>
        <time>2022-06-27T12:19:58Z</time>
      </trkpt>
      <trkpt lat="42.3301850" lon="-3.7008470">
        <ele>868.0</ele>
        <time>2022-06-27T12:19:59Z</time>
      </trkpt>
      <trkpt lat="42.3302570" lon="-3.7008460">
        <ele>868.0</ele>
        <time>2022-06-27T12:20:00Z</time>
      </trkpt>
      <trkpt lat="42.3303290" lon="-3.7008460">
        <ele>867.6</ele>
        <time>2022-06-27T12:20:01Z</time>
      </trkpt>
      <trkpt lat="42.3304220" lon="-3.7008530">
        <ele>867.6</ele>
        <time>2022-06-27T12:20:02Z</time>
      </trkpt>
      <trkpt lat="42.3304910" lon="-3.7008680">
        <ele>867.4</ele>
        <time>2022-06-27T12:20:03Z</time>
      </trkpt>
      <trkpt lat="42.3305570" lon="-3.7008740">
        <ele>867.4</ele>
        <time>2022-06-27T12:20:04Z</time>
      </trkpt>
      <trkpt lat="42.3306050" lon="-3.7008690">
        <ele>867.2</ele>
        <time>2022-06-27T12:20:05Z</time>
      </trkpt>
      <trkpt lat="42.3306640" lon="-3.7008630">
        <ele>867.2</ele>
        <time>2022-06-27T12:20:06Z</time>
      </trkpt>
      <trkpt lat="42.3307330" lon="-3.7008640">
        <ele>867.2</ele>
        <time>2022-06-27T12:20:07Z</time>
      </trkpt>
      <trkpt lat="42.3308020" lon="-3.7008730">
        <ele>867.0</ele>
        <time>2022-06-27T12:20:08Z</time>
      </trkpt>
      <trkpt lat="42.3308640" lon="-3.7008800">
        <ele>867.0</ele>
        <time>2022-06-27T12:20:09Z</time>
      </trkpt>
      <trkpt lat="42.3309220" lon="-3.7008850">
        <ele>866.8</ele>
        <time>2022-06-27T12:20:10Z</time>
      </trkpt>
      <trkpt lat="42.3309830" lon="-3.7008990">
        <ele>866.6</ele>
        <time>2022-06-27T12:20:11Z</time>
      </trkpt>
      <trkpt lat="42.3310460" lon="-3.7009200">
        <ele>866.4</ele>
        <time>2022-06-27T12:20:12Z</time>
      </trkpt>
      <trkpt lat="42.3311240" lon="-3.7009450">
        <ele>866.0</ele>
        <time>2022-06-27T12:20:13Z</time>
      </trkpt>
      <trkpt lat="42.3311930" lon="-3.7009720">
        <ele>865.8</ele>
        <time>2022-06-27T12:20:14Z</time>
      </trkpt>
      <trkpt lat="42.3312620" lon="-3.7010010">
        <ele>865.6</ele>
        <time>2022-06-27T12:20:15Z</time>
      </trkpt>
      <trkpt lat="42.3313100" lon="-3.7010240">
        <ele>865.6</ele>
        <time>2022-06-27T12:20:16Z</time>
      </trkpt>
      <trkpt lat="42.3313730" lon="-3.7010580">
        <ele>865.4</ele>
        <time>2022-06-27T12:20:17Z</time>
      </trkpt>
      <trkpt lat="42.3314360" lon="-3.7010900">
        <ele>865.4</ele>
        <time>2022-06-27T12:20:18Z</time>
      </trkpt>
      <trkpt lat="42.3315170" lon="-3.7011210">
        <ele>865.2</ele>
        <time>2022-06-27T12:20:19Z</time>
      </trkpt>
      <trkpt lat="42.3315660" lon="-3.7011500">
        <ele>865.2</ele>
        <time>2022-06-27T12:20:20Z</time>
      </trkpt>
      <trkpt lat="42.3316200" lon="-3.7011770">
        <ele>865.0</ele>
        <time>2022-06-27T12:20:21Z</time>
      </trkpt>
      <trkpt lat="42.3316480" lon="-3.7011760">
        <ele>864.8</ele>
        <time>2022-06-27T12:20:22Z</time>
      </trkpt>
      <trkpt lat="42.3316800" lon="-3.7011740">
        <ele>864.8</ele>
        <time>2022-06-27T12:20:23Z</time>
      </trkpt>
      <trkpt lat="42.3317260" lon="-3.7011960">
        <ele>864.8</ele>
        <time>2022-06-27T12:20:24Z</time>
      </trkpt>
      <trkpt lat="42.3317690" lon="-3.7012270">
        <ele>864.8</ele>
        <time>2022-06-27T12:20:25Z</time>
      </trkpt>
      <trkpt lat="42.3318150" lon="-3.7012620">
        <ele>864.6</ele>
        <time>2022-06-27T12:20:26Z</time>
      </trkpt>
      <trkpt lat="42.3318660" lon="-3.7013000">
        <ele>864.6</ele>
        <time>2022-06-27T12:20:27Z</time>
      </trkpt>
      <trkpt lat="42.3319070" lon="-3.7013420">
        <ele>864.6</ele>
        <time>2022-06-27T12:20:28Z</time>
      </trkpt>
      <trkpt lat="42.3319400" lon="-3.7013780">
        <ele>864.4</ele>
        <time>2022-06-27T12:20:29Z</time>
      </trkpt>
      <trkpt lat="42.3319770" lon="-3.7014060">
        <ele>864.4</ele>
        <time>2022-06-27T12:20:30Z</time>
      </trkpt>
      <trkpt lat="42.3320130" lon="-3.7014320">
        <ele>864.4</ele>
        <time>2022-06-27T12:20:31Z</time>
      </trkpt>
      <trkpt lat="42.3320410" lon="-3.7014630">
        <ele>864.4</ele>
        <time>2022-06-27T12:20:32Z</time>
      </trkpt>
      <trkpt lat="42.3320910" lon="-3.7015050">
        <ele>864.4</ele>
        <time>2022-06-27T12:20:33Z</time>
      </trkpt>
      <trkpt lat="42.3321460" lon="-3.7015550">
        <ele>864.4</ele>
        <time>2022-06-27T12:20:34Z</time>
      </trkpt>
      <trkpt lat="42.3321920" lon="-3.7015970">
        <ele>864.4</ele>
        <time>2022-06-27T12:20:35Z</time>
      </trkpt>
      <trkpt lat="42.3322280" lon="-3.7016370">
        <ele>864.2</ele>
        <time>2022-06-27T12:20:36Z</time>
      </trkpt>
      <trkpt lat="42.3322640" lon="-3.7016670">
        <ele>864.2</ele>
        <time>2022-06-27T12:20:37Z</time>
      </trkpt>
      <trkpt lat="42.3323100" lon="-3.7016970">
        <ele>864.2</ele>
        <time>2022-06-27T12:20:38Z</time>
      </trkpt>
      <trkpt lat="42.3323720" lon="-3.7017360">
        <ele>864.2</ele>
        <time>2022-06-27T12:20:39Z</time>
      </trkpt>
      <trkpt lat="42.3324740" lon="-3.7017750">
        <ele>864.2</ele>
        <time>2022-06-27T12:20:40Z</time>
      </trkpt>
      <trkpt lat="42.3325600" lon="-3.7017960">
        <ele>864.2</ele>
        <time>2022-06-27T12:20:41Z</time>
      </trkpt>
      <trkpt lat="42.3327300" lon="-3.7018430">
        <ele>864.2</ele>
        <time>2022-06-27T12:20:42Z</time>
      </trkpt>
      <trkpt lat="42.3328950" lon="-3.7019050">
        <ele>864.2</ele>
        <time>2022-06-27T12:20:43Z</time>
      </trkpt>
      <trkpt lat="42.3330060" lon="-3.7019670">
        <ele>864.2</ele>
        <time>2022-06-27T12:20:44Z</time>
      </trkpt>
      <trkpt lat="42.3330520" lon="-3.7020140">
        <ele>864.2</ele>
        <time>2022-06-27T12:20:45Z</time>
      </trkpt>
      <trkpt lat="42.3331200" lon="-3.7020620">
        <ele>864.2</ele>
        <time>2022-06-27T12:20:46Z</time>
      </trkpt>
      <trkpt lat="42.3331730" lon="-3.7021000">
        <ele>864.0</ele>
        <time>2022-06-27T12:20:47Z</time>
      </trkpt>
      <trkpt lat="42.3331740" lon="-3.7021020">
        <ele>863.8</ele>
        <time>2022-06-27T12:20:48Z</time>
      </trkpt>
      <trkpt lat="42.3331740" lon="-3.7021020">
        <ele>863.6</ele>
        <time>2022-06-27T12:20:49Z</time>
      </trkpt>
      <trkpt lat="42.3331720" lon="-3.7020930">
        <ele>863.6</ele>
        <time>2022-06-27T12:20:50Z</time>
      </trkpt>
      <trkpt lat="42.3331740" lon="-3.7020960">
        <ele>863.4</ele>
        <time>2022-06-27T12:20:51Z</time>
      </trkpt>
      <trkpt lat="42.3331740" lon="-3.7020960">
        <ele>863.2</ele>
        <time>2022-06-27T12:20:52Z</time>
      </trkpt>
      <trkpt lat="42.3331740" lon="-3.7020960">
        <ele>863.2</ele>
        <time>2022-06-27T12:20:53Z</time>
      </trkpt>
      <trkpt lat="42.3331740" lon="-3.7020960">
        <ele>863.2</ele>
        <time>2022-06-27T12:20:54Z</time>
      </trkpt>
      <trkpt lat="42.3331750" lon="-3.7020600">
        <ele>863.0</ele>
        <time>2022-06-27T12:20:55Z</time>
      </trkpt>
      <trkpt lat="42.3331800" lon="-3.7020500">
        <ele>863.0</ele>
        <time>2022-06-27T12:20:56Z</time>
      </trkpt>
      <trkpt lat="42.3331930" lon="-3.7020490">
        <ele>863.0</ele>
        <time>2022-06-27T12:20:57Z</time>
      </trkpt>
      <trkpt lat="42.3332070" lon="-3.7020440">
        <ele>863.0</ele>
        <time>2022-06-27T12:20:58Z</time>
      </trkpt>
      <trkpt lat="42.3332080" lon="-3.7020330">
        <ele>863.0</ele>
        <time>2022-06-27T12:20:59Z</time>
      </trkpt>
      <trkpt lat="42.3332210" lon="-3.7020250">
        <ele>863.0</ele>
        <time>2022-06-27T12:21:00Z</time>
      </trkpt>
      <trkpt lat="42.3332530" lon="-3.7020250">
        <ele>863.0</ele>
        <time>2022-06-27T12:21:01Z</time>
      </trkpt>
      <trkpt lat="42.3332590" lon="-3.7020140">
        <ele>863.0</ele>
        <time>2022-06-27T12:21:02Z</time>
      </trkpt>
      <trkpt lat="42.3332870" lon="-3.7020330">
        <ele>863.0</ele>
        <time>2022-06-27T12:21:03Z</time>
      </trkpt>
      <trkpt lat="42.3332610" lon="-3.7020620">
        <ele>863.0</ele>
        <time>2022-06-27T12:21:04Z</time>
      </trkpt>
      <trkpt lat="42.3332100" lon="-3.7020930">
        <ele>863.0</ele>
        <time>2022-06-27T12:21:05Z</time>
      </trkpt>
      <trkpt lat="42.3332200" lon="-3.7021210">
        <ele>863.0</ele>
        <time>2022-06-27T12:21:06Z</time>
      </trkpt>
      <trkpt lat="42.3332410" lon="-3.7021530">
        <ele>863.0</ele>
        <time>2022-06-27T12:21:07Z</time>
      </trkpt>
      <trkpt lat="42.3332950" lon="-3.7021800">
        <ele>863.2</ele>
        <time>2022-06-27T12:21:08Z</time>
      </trkpt>
      <trkpt lat="42.3333440" lon="-3.7021870">
        <ele>863.0</ele>
        <time>2022-06-27T12:21:09Z</time>
      </trkpt>
      <trkpt lat="42.3334040" lon="-3.7022170">
        <ele>863.2</ele>
        <time>2022-06-27T12:21:10Z</time>
      </trkpt>
      <trkpt lat="42.3334600" lon="-3.7022360">
        <ele>863.2</ele>
        <time>2022-06-27T12:21:11Z</time>
      </trkpt>
      <trkpt lat="42.3335310" lon="-3.7022750">
        <ele>863.2</ele>
        <time>2022-06-27T12:21:12Z</time>
      </trkpt>
      <trkpt lat="42.3335960" lon="-3.7023100">
        <ele>863.2</ele>
        <time>2022-06-27T12:21:13Z</time>
      </trkpt>
      <trkpt lat="42.3336560" lon="-3.7023260">
        <ele>863.2</ele>
        <time>2022-06-27T12:21:14Z</time>
      </trkpt>
      <trkpt lat="42.3336920" lon="-3.7023310">
        <ele>863.2</ele>
        <time>2022-06-27T12:21:15Z</time>
      </trkpt>
      <trkpt lat="42.3337510" lon="-3.7023440">
        <ele>863.2</ele>
        <time>2022-06-27T12:21:16Z</time>
      </trkpt>
      <trkpt lat="42.3338320" lon="-3.7023590">
        <ele>863.2</ele>
        <time>2022-06-27T12:21:17Z</time>
      </trkpt>
      <trkpt lat="42.3338900" lon="-3.7023630">
        <ele>863.2</ele>
        <time>2022-06-27T12:21:18Z</time>
      </trkpt>
      <trkpt lat="42.3339470" lon="-3.7023630">
        <ele>863.2</ele>
        <time>2022-06-27T12:21:19Z</time>
      </trkpt>
      <trkpt lat="42.3339920" lon="-3.7023650">
        <ele>863.2</ele>
        <time>2022-06-27T12:21:20Z</time>
      </trkpt>
      <trkpt lat="42.3340480" lon="-3.7023730">
        <ele>863.2</ele>
        <time>2022-06-27T12:21:21Z</time>
      </trkpt>
      <trkpt lat="42.3340990" lon="-3.7023810">
        <ele>863.0</ele>
        <time>2022-06-27T12:21:22Z</time>
      </trkpt>
      <trkpt lat="42.3341710" lon="-3.7023930">
        <ele>862.8</ele>
        <time>2022-06-27T12:21:23Z</time>
      </trkpt>
      <trkpt lat="42.3342370" lon="-3.7024030">
        <ele>862.6</ele>
        <time>2022-06-27T12:21:24Z</time>
      </trkpt>
      <trkpt lat="42.3342960" lon="-3.7024070">
        <ele>862.4</ele>
        <time>2022-06-27T12:21:25Z</time>
      </trkpt>
      <trkpt lat="42.3343410" lon="-3.7024100">
        <ele>862.4</ele>
        <time>2022-06-27T12:21:26Z</time>
      </trkpt>
      <trkpt lat="42.3343980" lon="-3.7024120">
        <ele>862.4</ele>
        <time>2022-06-27T12:21:27Z</time>
      </trkpt>
      <trkpt lat="42.3344540" lon="-3.7024180">
        <ele>862.4</ele>
        <time>2022-06-27T12:21:28Z</time>
      </trkpt>
      <trkpt lat="42.3345210" lon="-3.7024300">
        <ele>862.2</ele>
        <time>2022-06-27T12:21:29Z</time>
      </trkpt>
      <trkpt lat="42.3345830" lon="-3.7024400">
        <ele>862.2</ele>
        <time>2022-06-27T12:21:30Z</time>
      </trkpt>
      <trkpt lat="42.3346450" lon="-3.7024500">
        <ele>862.2</ele>
        <time>2022-06-27T12:21:31Z</time>
      </trkpt>
      <trkpt lat="42.3347030" lon="-3.7024630">
        <ele>862.0</ele>
        <time>2022-06-27T12:21:32Z</time>
      </trkpt>
      <trkpt lat="42.3347530" lon="-3.7024750">
        <ele>862.0</ele>
        <time>2022-06-27T12:21:33Z</time>
      </trkpt>
      <trkpt lat="42.3347990" lon="-3.7024900">
        <ele>862.0</ele>
        <time>2022-06-27T12:21:34Z</time>
      </trkpt>
      <trkpt lat="42.3348320" lon="-3.7025010">
        <ele>862.0</ele>
        <time>2022-06-27T12:21:35Z</time>
      </trkpt>
      <trkpt lat="42.3348600" lon="-3.7025100">
        <ele>862.0</ele>
        <time>2022-06-27T12:21:36Z</time>
      </trkpt>
      <trkpt lat="42.3348960" lon="-3.7025200">
        <ele>862.0</ele>
        <time>2022-06-27T12:21:37Z</time>
      </trkpt>
      <trkpt lat="42.3349370" lon="-3.7025310">
        <ele>862.0</ele>
        <time>2022-06-27T12:21:38Z</time>
      </trkpt>
      <trkpt lat="42.3349770" lon="-3.7025420">
        <ele>862.0</ele>
        <time>2022-06-27T12:21:39Z</time>
      </trkpt>
      <trkpt lat="42.3350010" lon="-3.7025460">
        <ele>862.0</ele>
        <time>2022-06-27T12:21:40Z</time>
      </trkpt>
      <trkpt lat="42.3350170" lon="-3.7025460">
        <ele>862.0</ele>
        <time>2022-06-27T12:21:41Z</time>
      </trkpt>
      <trkpt lat="42.3350420" lon="-3.7025500">
        <ele>862.0</ele>
        <time>2022-06-27T12:21:42Z</time>
      </trkpt>
      <trkpt lat="42.3350590" lon="-3.7025480">
        <ele>862.0</ele>
        <time>2022-06-27T12:21:43Z</time>
      </trkpt>
      <trkpt lat="42.3350710" lon="-3.7025460">
        <ele>862.0</ele>
        <time>2022-06-27T12:21:44Z</time>
      </trkpt>
      <trkpt lat="42.3350740" lon="-3.7025470">
        <ele>862.2</ele>
        <time>2022-06-27T12:21:45Z</time>
      </trkpt>
      <trkpt lat="42.3350740" lon="-3.7025470">
        <ele>861.8</ele>
        <time>2022-06-27T12:21:46Z</time>
      </trkpt>
      <trkpt lat="42.3350740" lon="-3.7025470">
        <ele>861.8</ele>
        <time>2022-06-27T12:21:47Z</time>
      </trkpt>
      <trkpt lat="42.3350920" lon="-3.7025490">
        <ele>861.8</ele>
        <time>2022-06-27T12:22:28Z</time>
      </trkpt>
      <trkpt lat="42.3351160" lon="-3.7025540">
        <ele>861.8</ele>
        <time>2022-06-27T12:22:29Z</time>
      </trkpt>
      <trkpt lat="42.3351480" lon="-3.7025590">
        <ele>861.6</ele>
        <time>2022-06-27T12:22:30Z</time>
      </trkpt>
      <trkpt lat="42.3351800" lon="-3.7025660">
        <ele>861.6</ele>
        <time>2022-06-27T12:22:31Z</time>
      </trkpt>
      <trkpt lat="42.3352180" lon="-3.7025840">
        <ele>861.4</ele>
        <time>2022-06-27T12:22:32Z</time>
      </trkpt>
      <trkpt lat="42.3352450" lon="-3.7026090">
        <ele>861.4</ele>
        <time>2022-06-27T12:22:33Z</time>
      </trkpt>
      <trkpt lat="42.3352690" lon="-3.7026380">
        <ele>861.4</ele>
        <time>2022-06-27T12:22:34Z</time>
      </trkpt>
      <trkpt lat="42.3352810" lon="-3.7026640">
        <ele>861.4</ele>
        <time>2022-06-27T12:22:35Z</time>
      </trkpt>
      <trkpt lat="42.3352860" lon="-3.7026970">
        <ele>861.2</ele>
        <time>2022-06-27T12:22:36Z</time>
      </trkpt>
      <trkpt lat="42.3352870" lon="-3.7027340">
        <ele>861.2</ele>
        <time>2022-06-27T12:22:37Z</time>
      </trkpt>
      <trkpt lat="42.3352860" lon="-3.7027830">
        <ele>861.0</ele>
        <time>2022-06-27T12:22:38Z</time>
      </trkpt>
      <trkpt lat="42.3352810" lon="-3.7028250">
        <ele>861.0</ele>
        <time>2022-06-27T12:22:39Z</time>
      </trkpt>
      <trkpt lat="42.3352720" lon="-3.7028660">
        <ele>860.8</ele>
        <time>2022-06-27T12:22:40Z</time>
      </trkpt>
      <trkpt lat="42.3352610" lon="-3.7028950">
        <ele>860.8</ele>
        <time>2022-06-27T12:22:41Z</time>
      </trkpt>
      <trkpt lat="42.3352490" lon="-3.7029300">
        <ele>860.6</ele>
        <time>2022-06-27T12:22:42Z</time>
      </trkpt>
      <trkpt lat="42.3352420" lon="-3.7029780">
        <ele>860.6</ele>
        <time>2022-06-27T12:22:43Z</time>
      </trkpt>
      <trkpt lat="42.3352420" lon="-3.7030150">
        <ele>860.6</ele>
        <time>2022-06-27T12:22:44Z</time>
      </trkpt>
      <trkpt lat="42.3352370" lon="-3.7030720">
        <ele>860.6</ele>
        <time>2022-06-27T12:22:45Z</time>
      </trkpt>
      <trkpt lat="42.3352300" lon="-3.7031110">
        <ele>860.6</ele>
        <time>2022-06-27T12:22:46Z</time>
      </trkpt>
      <trkpt lat="42.3352260" lon="-3.7031620">
        <ele>860.6</ele>
        <time>2022-06-27T12:22:47Z</time>
      </trkpt>
      <trkpt lat="42.3352260" lon="-3.7032140">
        <ele>860.6</ele>
        <time>2022-06-27T12:22:48Z</time>
      </trkpt>
      <trkpt lat="42.3352170" lon="-3.7032730">
        <ele>860.6</ele>
        <time>2022-06-27T12:22:49Z</time>
      </trkpt>
      <trkpt lat="42.3352060" lon="-3.7033190">
        <ele>860.6</ele>
        <time>2022-06-27T12:22:50Z</time>
      </trkpt>
      <trkpt lat="42.3351900" lon="-3.7033610">
        <ele>860.6</ele>
        <time>2022-06-27T12:22:51Z</time>
      </trkpt>
      <trkpt lat="42.3351780" lon="-3.7033920">
        <ele>860.6</ele>
        <time>2022-06-27T12:22:52Z</time>
      </trkpt>
      <trkpt lat="42.3351670" lon="-3.7034270">
        <ele>860.6</ele>
        <time>2022-06-27T12:22:53Z</time>
      </trkpt>
      <trkpt lat="42.3351590" lon="-3.7034630">
        <ele>860.6</ele>
        <time>2022-06-27T12:22:54Z</time>
      </trkpt>
      <trkpt lat="42.3351470" lon="-3.7034960">
        <ele>860.4</ele>
        <time>2022-06-27T12:22:55Z</time>
      </trkpt>
      <trkpt lat="42.3351340" lon="-3.7035300">
        <ele>860.4</ele>
        <time>2022-06-27T12:22:56Z</time>
      </trkpt>
      <trkpt lat="42.3351220" lon="-3.7035700">
        <ele>860.4</ele>
        <time>2022-06-27T12:22:57Z</time>
      </trkpt>
      <trkpt lat="42.3351110" lon="-3.7036140">
        <ele>860.4</ele>
        <time>2022-06-27T12:22:58Z</time>
      </trkpt>
      <trkpt lat="42.3351020" lon="-3.7036620">
        <ele>860.4</ele>
        <time>2022-06-27T12:22:59Z</time>
      </trkpt>
      <trkpt lat="42.3350890" lon="-3.7037130">
        <ele>860.2</ele>
        <time>2022-06-27T12:23:00Z</time>
      </trkpt>
      <trkpt lat="42.3350680" lon="-3.7037770">
        <ele>860.2</ele>
        <time>2022-06-27T12:23:01Z</time>
      </trkpt>
      <trkpt lat="42.3350550" lon="-3.7038250">
        <ele>860.2</ele>
        <time>2022-06-27T12:23:02Z</time>
      </trkpt>
      <trkpt lat="42.3350400" lon="-3.7038870">
        <ele>860.2</ele>
        <time>2022-06-27T12:23:03Z</time>
      </trkpt>
      <trkpt lat="42.3350270" lon="-3.7039490">
        <ele>860.2</ele>
        <time>2022-06-27T12:23:04Z</time>
      </trkpt>
      <trkpt lat="42.3350050" lon="-3.7040190">
        <ele>860.2</ele>
        <time>2022-06-27T12:23:05Z</time>
      </trkpt>
      <trkpt lat="42.3349880" lon="-3.7040820">
        <ele>860.0</ele>
        <time>2022-06-27T12:23:06Z</time>
      </trkpt>
      <trkpt lat="42.3349730" lon="-3.7041490">
        <ele>860.0</ele>
        <time>2022-06-27T12:23:07Z</time>
      </trkpt>
      <trkpt lat="42.3349600" lon="-3.7042050">
        <ele>860.0</ele>
        <time>2022-06-27T12:23:08Z</time>
      </trkpt>
      <trkpt lat="42.3349450" lon="-3.7042770">
        <ele>859.8</ele>
        <time>2022-06-27T12:23:09Z</time>
      </trkpt>
      <trkpt lat="42.3349280" lon="-3.7043490">
        <ele>859.8</ele>
        <time>2022-06-27T12:23:10Z</time>
      </trkpt>
      <trkpt lat="42.3349110" lon="-3.7044190">
        <ele>859.4</ele>
        <time>2022-06-27T12:23:11Z</time>
      </trkpt>
      <trkpt lat="42.3348950" lon="-3.7044920">
        <ele>859.4</ele>
        <time>2022-06-27T12:23:12Z</time>
      </trkpt>
      <trkpt lat="42.3348830" lon="-3.7045670">
        <ele>859.4</ele>
        <time>2022-06-27T12:23:13Z</time>
      </trkpt>
      <trkpt lat="42.3348730" lon="-3.7046410">
        <ele>859.2</ele>
        <time>2022-06-27T12:23:14Z</time>
      </trkpt>
      <trkpt lat="42.3348620" lon="-3.7047180">
        <ele>859.2</ele>
        <time>2022-06-27T12:23:15Z</time>
      </trkpt>
      <trkpt lat="42.3348500" lon="-3.7047940">
        <ele>859.2</ele>
        <time>2022-06-27T12:23:16Z</time>
      </trkpt>
      <trkpt lat="42.3348360" lon="-3.7048710">
        <ele>859.2</ele>
        <time>2022-06-27T12:23:17Z</time>
      </trkpt>
      <trkpt lat="42.3348240" lon="-3.7049470">
        <ele>859.2</ele>
        <time>2022-06-27T12:23:18Z</time>
      </trkpt>
      <trkpt lat="42.3348100" lon="-3.7050240">
        <ele>859.2</ele>
        <time>2022-06-27T12:23:19Z</time>
      </trkpt>
      <trkpt lat="42.3347960" lon="-3.7050980">
        <ele>859.2</ele>
        <time>2022-06-27T12:23:20Z</time>
      </trkpt>
      <trkpt lat="42.3347810" lon="-3.7051880">
        <ele>859.0</ele>
        <time>2022-06-27T12:23:21Z</time>
      </trkpt>
      <trkpt lat="42.3347710" lon="-3.7052620">
        <ele>858.8</ele>
        <time>2022-06-27T12:23:22Z</time>
      </trkpt>
      <trkpt lat="42.3347580" lon="-3.7053210">
        <ele>858.8</ele>
        <time>2022-06-27T12:23:23Z</time>
      </trkpt>
      <trkpt lat="42.3347420" lon="-3.7053960">
        <ele>858.8</ele>
        <time>2022-06-27T12:23:24Z</time>
      </trkpt>
      <trkpt lat="42.3347250" lon="-3.7054720">
        <ele>858.8</ele>
        <time>2022-06-27T12:23:25Z</time>
      </trkpt>
      <trkpt lat="42.3347100" lon="-3.7055480">
        <ele>858.8</ele>
        <time>2022-06-27T12:23:26Z</time>
      </trkpt>
      <trkpt lat="42.3346940" lon="-3.7056250">
        <ele>858.8</ele>
        <time>2022-06-27T12:23:27Z</time>
      </trkpt>
      <trkpt lat="42.3346750" lon="-3.7057030">
        <ele>858.8</ele>
        <time>2022-06-27T12:23:28Z</time>
      </trkpt>
      <trkpt lat="42.3346550" lon="-3.7057800">
        <ele>858.8</ele>
        <time>2022-06-27T12:23:29Z</time>
      </trkpt>
      <trkpt lat="42.3346390" lon="-3.7058570">
        <ele>858.8</ele>
        <time>2022-06-27T12:23:30Z</time>
      </trkpt>
      <trkpt lat="42.3346190" lon="-3.7059510">
        <ele>858.8</ele>
        <time>2022-06-27T12:23:31Z</time>
      </trkpt>
      <trkpt lat="42.3346070" lon="-3.7060140">
        <ele>858.8</ele>
        <time>2022-06-27T12:23:32Z</time>
      </trkpt>
      <trkpt lat="42.3345950" lon="-3.7060930">
        <ele>858.8</ele>
        <time>2022-06-27T12:23:33Z</time>
      </trkpt>
      <trkpt lat="42.3345770" lon="-3.7061710">
        <ele>859.0</ele>
        <time>2022-06-27T12:23:34Z</time>
      </trkpt>
      <trkpt lat="42.3345600" lon="-3.7062490">
        <ele>859.0</ele>
        <time>2022-06-27T12:23:35Z</time>
      </trkpt>
      <trkpt lat="42.3345420" lon="-3.7063260">
        <ele>859.0</ele>
        <time>2022-06-27T12:23:36Z</time>
      </trkpt>
      <trkpt lat="42.3345260" lon="-3.7064030">
        <ele>859.0</ele>
        <time>2022-06-27T12:23:37Z</time>
      </trkpt>
      <trkpt lat="42.3345120" lon="-3.7064610">
        <ele>859.0</ele>
        <time>2022-06-27T12:23:38Z</time>
      </trkpt>
      <trkpt lat="42.3344990" lon="-3.7065190">
        <ele>859.0</ele>
        <time>2022-06-27T12:23:39Z</time>
      </trkpt>
      <trkpt lat="42.3344720" lon="-3.7066340">
        <ele>859.0</ele>
        <time>2022-06-27T12:23:40Z</time>
      </trkpt>
      <trkpt lat="42.3344500" lon="-3.7067110">
        <ele>859.2</ele>
        <time>2022-06-27T12:23:41Z</time>
      </trkpt>
      <trkpt lat="42.3344260" lon="-3.7067870">
        <ele>859.2</ele>
        <time>2022-06-27T12:23:42Z</time>
      </trkpt>
      <trkpt lat="42.3344050" lon="-3.7068620">
        <ele>859.2</ele>
        <time>2022-06-27T12:23:43Z</time>
      </trkpt>
      <trkpt lat="42.3343830" lon="-3.7069390">
        <ele>859.2</ele>
        <time>2022-06-27T12:23:44Z</time>
      </trkpt>
      <trkpt lat="42.3343570" lon="-3.7070160">
        <ele>859.2</ele>
        <time>2022-06-27T12:23:45Z</time>
      </trkpt>
      <trkpt lat="42.3343330" lon="-3.7070940">
        <ele>859.2</ele>
        <time>2022-06-27T12:23:46Z</time>
      </trkpt>
      <trkpt lat="42.3343140" lon="-3.7071510">
        <ele>859.0</ele>
        <time>2022-06-27T12:23:47Z</time>
      </trkpt>
      <trkpt lat="42.3342950" lon="-3.7072070">
        <ele>859.0</ele>
        <time>2022-06-27T12:23:48Z</time>
      </trkpt>
      <trkpt lat="42.3342580" lon="-3.7073210">
        <ele>859.0</ele>
        <time>2022-06-27T12:23:49Z</time>
      </trkpt>
      <trkpt lat="42.3342450" lon="-3.7073580">
        <ele>859.0</ele>
        <time>2022-06-27T12:23:50Z</time>
      </trkpt>
      <trkpt lat="42.3342320" lon="-3.7073940">
        <ele>859.0</ele>
        <time>2022-06-27T12:23:51Z</time>
      </trkpt>
      <trkpt lat="42.3341860" lon="-3.7075120">
        <ele>858.8</ele>
        <time>2022-06-27T12:23:52Z</time>
      </trkpt>
      <trkpt lat="42.3341580" lon="-3.7075850">
        <ele>858.8</ele>
        <time>2022-06-27T12:23:53Z</time>
      </trkpt>
      <trkpt lat="42.3341370" lon="-3.7076470">
        <ele>858.8</ele>
        <time>2022-06-27T12:23:54Z</time>
      </trkpt>
      <trkpt lat="42.3341170" lon="-3.7077080">
        <ele>858.6</ele>
        <time>2022-06-27T12:23:55Z</time>
      </trkpt>
      <trkpt lat="42.3340980" lon="-3.7077700">
        <ele>858.6</ele>
        <time>2022-06-27T12:23:56Z</time>
      </trkpt>
      <trkpt lat="42.3340820" lon="-3.7078290">
        <ele>858.6</ele>
        <time>2022-06-27T12:23:57Z</time>
      </trkpt>
      <trkpt lat="42.3340650" lon="-3.7078830">
        <ele>858.6</ele>
        <time>2022-06-27T12:23:58Z</time>
      </trkpt>
      <trkpt lat="42.3340470" lon="-3.7079390">
        <ele>858.6</ele>
        <time>2022-06-27T12:23:59Z</time>
      </trkpt>
      <trkpt lat="42.3340320" lon="-3.7079950">
        <ele>858.6</ele>
        <time>2022-06-27T12:24:00Z</time>
      </trkpt>
      <trkpt lat="42.3340110" lon="-3.7080550">
        <ele>858.6</ele>
        <time>2022-06-27T12:24:01Z</time>
      </trkpt>
      <trkpt lat="42.3339920" lon="-3.7081160">
        <ele>858.6</ele>
        <time>2022-06-27T12:24:02Z</time>
      </trkpt>
      <trkpt lat="42.3339650" lon="-3.7081780">
        <ele>858.6</ele>
        <time>2022-06-27T12:24:03Z</time>
      </trkpt>
      <trkpt lat="42.3339340" lon="-3.7082430">
        <ele>858.4</ele>
        <time>2022-06-27T12:24:04Z</time>
      </trkpt>
      <trkpt lat="42.3339060" lon="-3.7083130">
        <ele>858.4</ele>
        <time>2022-06-27T12:24:05Z</time>
      </trkpt>
      <trkpt lat="42.3338770" lon="-3.7083850">
        <ele>858.2</ele>
        <time>2022-06-27T12:24:06Z</time>
      </trkpt>
      <trkpt lat="42.3338480" lon="-3.7084570">
        <ele>858.2</ele>
        <time>2022-06-27T12:24:07Z</time>
      </trkpt>
      <trkpt lat="42.3338210" lon="-3.7085290">
        <ele>858.2</ele>
        <time>2022-06-27T12:24:08Z</time>
      </trkpt>
      <trkpt lat="42.3337950" lon="-3.7086000">
        <ele>858.2</ele>
        <time>2022-06-27T12:24:09Z</time>
      </trkpt>
      <trkpt lat="42.3337730" lon="-3.7086690">
        <ele>858.2</ele>
        <time>2022-06-27T12:24:10Z</time>
      </trkpt>
      <trkpt lat="42.3337510" lon="-3.7087390">
        <ele>858.2</ele>
        <time>2022-06-27T12:24:11Z</time>
      </trkpt>
      <trkpt lat="42.3337350" lon="-3.7088080">
        <ele>858.2</ele>
        <time>2022-06-27T12:24:12Z</time>
      </trkpt>
      <trkpt lat="42.3337380" lon="-3.7088700">
        <ele>858.0</ele>
        <time>2022-06-27T12:24:13Z</time>
      </trkpt>
      <trkpt lat="42.3337640" lon="-3.7089170">
        <ele>858.0</ele>
        <time>2022-06-27T12:24:14Z</time>
      </trkpt>
      <trkpt lat="42.3338070" lon="-3.7089430">
        <ele>858.0</ele>
        <time>2022-06-27T12:24:15Z</time>
      </trkpt>
      <trkpt lat="42.3338460" lon="-3.7089540">
        <ele>858.0</ele>
        <time>2022-06-27T12:24:16Z</time>
      </trkpt>
      <trkpt lat="42.3338850" lon="-3.7089640">
        <ele>858.0</ele>
        <time>2022-06-27T12:24:17Z</time>
      </trkpt>
      <trkpt lat="42.3339630" lon="-3.7089850">
        <ele>858.0</ele>
        <time>2022-06-27T12:24:18Z</time>
      </trkpt>
      <trkpt lat="42.3340200" lon="-3.7089990">
        <ele>858.0</ele>
        <time>2022-06-27T12:24:19Z</time>
      </trkpt>
      <trkpt lat="42.3340780" lon="-3.7090140">
        <ele>858.0</ele>
        <time>2022-06-27T12:24:20Z</time>
      </trkpt>
      <trkpt lat="42.3341200" lon="-3.7090280">
        <ele>858.2</ele>
        <time>2022-06-27T12:24:21Z</time>
      </trkpt>
      <trkpt lat="42.3341630" lon="-3.7090420">
        <ele>858.2</ele>
        <time>2022-06-27T12:24:22Z</time>
      </trkpt>
      <trkpt lat="42.3342470" lon="-3.7090700">
        <ele>858.2</ele>
        <time>2022-06-27T12:24:23Z</time>
      </trkpt>
      <trkpt lat="42.3343030" lon="-3.7090870">
        <ele>858.2</ele>
        <time>2022-06-27T12:24:24Z</time>
      </trkpt>
      <trkpt lat="42.3343590" lon="-3.7091100">
        <ele>858.4</ele>
        <time>2022-06-27T12:24:25Z</time>
      </trkpt>
      <trkpt lat="42.3344160" lon="-3.7091360">
        <ele>858.4</ele>
        <time>2022-06-27T12:24:26Z</time>
      </trkpt>
      <trkpt lat="42.3344700" lon="-3.7091590">
        <ele>858.6</ele>
        <time>2022-06-27T12:24:27Z</time>
      </trkpt>
      <trkpt lat="42.3345210" lon="-3.7091770">
        <ele>858.6</ele>
        <time>2022-06-27T12:24:28Z</time>
      </trkpt>
      <trkpt lat="42.3345720" lon="-3.7091950">
        <ele>858.4</ele>
        <time>2022-06-27T12:24:29Z</time>
      </trkpt>
      <trkpt lat="42.3346200" lon="-3.7092120">
        <ele>858.4</ele>
        <time>2022-06-27T12:24:30Z</time>
      </trkpt>
      <trkpt lat="42.3346640" lon="-3.7092270">
        <ele>858.4</ele>
        <time>2022-06-27T12:24:31Z</time>
      </trkpt>
      <trkpt lat="42.3347040" lon="-3.7092240">
        <ele>858.4</ele>
        <time>2022-06-27T12:24:32Z</time>
      </trkpt>
      <trkpt lat="42.3347430" lon="-3.7092210">
        <ele>858.4</ele>
        <time>2022-06-27T12:24:33Z</time>
      </trkpt>
      <trkpt lat="42.3347770" lon="-3.7091910">
        <ele>858.2</ele>
        <time>2022-06-27T12:24:34Z</time>
      </trkpt>
      <trkpt lat="42.3348040" lon="-3.7091480">
        <ele>858.2</ele>
        <time>2022-06-27T12:24:35Z</time>
      </trkpt>
      <trkpt lat="42.3348220" lon="-3.7090950">
        <ele>858.4</ele>
        <time>2022-06-27T12:24:36Z</time>
      </trkpt>
      <trkpt lat="42.3348340" lon="-3.7090350">
        <ele>858.2</ele>
        <time>2022-06-27T12:24:37Z</time>
      </trkpt>
      <trkpt lat="42.3348440" lon="-3.7089740">
        <ele>858.2</ele>
        <time>2022-06-27T12:24:38Z</time>
      </trkpt>
      <trkpt lat="42.3348560" lon="-3.7089140">
        <ele>858.2</ele>
        <time>2022-06-27T12:24:39Z</time>
      </trkpt>
      <trkpt lat="42.3348720" lon="-3.7088560">
        <ele>858.2</ele>
        <time>2022-06-27T12:24:40Z</time>
      </trkpt>
      <trkpt lat="42.3348870" lon="-3.7087990">
        <ele>858.2</ele>
        <time>2022-06-27T12:24:41Z</time>
      </trkpt>
      <trkpt lat="42.3349000" lon="-3.7087420">
        <ele>858.0</ele>
        <time>2022-06-27T12:24:42Z</time>
      </trkpt>
      <trkpt lat="42.3349110" lon="-3.7086860">
        <ele>858.0</ele>
        <time>2022-06-27T12:24:43Z</time>
      </trkpt>
      <trkpt lat="42.3349190" lon="-3.7086360">
        <ele>858.0</ele>
        <time>2022-06-27T12:24:44Z</time>
      </trkpt>
      <trkpt lat="42.3349260" lon="-3.7085890">
        <ele>858.0</ele>
        <time>2022-06-27T12:24:45Z</time>
      </trkpt>
      <trkpt lat="42.3349340" lon="-3.7085410">
        <ele>858.0</ele>
        <time>2022-06-27T12:24:46Z</time>
      </trkpt>
      <trkpt lat="42.3349410" lon="-3.7084920">
        <ele>858.0</ele>
        <time>2022-06-27T12:24:47Z</time>
      </trkpt>
      <trkpt lat="42.3349490" lon="-3.7084400">
        <ele>858.0</ele>
        <time>2022-06-27T12:24:48Z</time>
      </trkpt>
      <trkpt lat="42.3349580" lon="-3.7083870">
        <ele>858.0</ele>
        <time>2022-06-27T12:24:49Z</time>
      </trkpt>
      <trkpt lat="42.3349690" lon="-3.7083340">
        <ele>858.2</ele>
        <time>2022-06-27T12:24:50Z</time>
      </trkpt>
      <trkpt lat="42.3349810" lon="-3.7082800">
        <ele>858.4</ele>
        <time>2022-06-27T12:24:51Z</time>
      </trkpt>
      <trkpt lat="42.3349930" lon="-3.7082290">
        <ele>858.4</ele>
        <time>2022-06-27T12:24:52Z</time>
      </trkpt>
      <trkpt lat="42.3350030" lon="-3.7081800">
        <ele>858.6</ele>
        <time>2022-06-27T12:24:53Z</time>
      </trkpt>
      <trkpt lat="42.3350140" lon="-3.7081320">
        <ele>858.6</ele>
        <time>2022-06-27T12:24:54Z</time>
      </trkpt>
      <trkpt lat="42.3350200" lon="-3.7080940">
        <ele>858.8</ele>
        <time>2022-06-27T12:24:55Z</time>
      </trkpt>
      <trkpt lat="42.3350270" lon="-3.7080560">
        <ele>858.8</ele>
        <time>2022-06-27T12:24:56Z</time>
      </trkpt>
      <trkpt lat="42.3350330" lon="-3.7080260">
        <ele>858.8</ele>
        <time>2022-06-27T12:24:57Z</time>
      </trkpt>
      <trkpt lat="42.3350410" lon="-3.7079970">
        <ele>858.8</ele>
        <time>2022-06-27T12:24:58Z</time>
      </trkpt>
      <trkpt lat="42.3350550" lon="-3.7079730">
        <ele>858.8</ele>
        <time>2022-06-27T12:24:59Z</time>
      </trkpt>
      <trkpt lat="42.3350730" lon="-3.7079580">
        <ele>858.8</ele>
        <time>2022-06-27T12:25:00Z</time>
      </trkpt>
      <trkpt lat="42.3350900" lon="-3.7079470">
        <ele>858.6</ele>
        <time>2022-06-27T12:25:01Z</time>
      </trkpt>
      <trkpt lat="42.3351030" lon="-3.7079400">
        <ele>858.6</ele>
        <time>2022-06-27T12:25:02Z</time>
      </trkpt>
      <trkpt lat="42.3351130" lon="-3.7079370">
        <ele>858.6</ele>
        <time>2022-06-27T12:25:03Z</time>
      </trkpt>
      <trkpt lat="42.3351220" lon="-3.7079330">
        <ele>858.6</ele>
        <time>2022-06-27T12:25:04Z</time>
      </trkpt>
      <trkpt lat="42.3351330" lon="-3.7079240">
        <ele>858.6</ele>
        <time>2022-06-27T12:25:05Z</time>
      </trkpt>
      <trkpt lat="42.3351480" lon="-3.7079150">
        <ele>858.6</ele>
        <time>2022-06-27T12:25:06Z</time>
      </trkpt>
      <trkpt lat="42.3351690" lon="-3.7079130">
        <ele>858.6</ele>
        <time>2022-06-27T12:25:07Z</time>
      </trkpt>
      <trkpt lat="42.3351930" lon="-3.7079110">
        <ele>858.6</ele>
        <time>2022-06-27T12:25:08Z</time>
      </trkpt>
      <trkpt lat="42.3352130" lon="-3.7078990">
        <ele>858.6</ele>
        <time>2022-06-27T12:25:09Z</time>
      </trkpt>
      <trkpt lat="42.3352330" lon="-3.7078840">
        <ele>858.6</ele>
        <time>2022-06-27T12:25:10Z</time>
      </trkpt>
      <trkpt lat="42.3352590" lon="-3.7078790">
        <ele>858.6</ele>
        <time>2022-06-27T12:25:11Z</time>
      </trkpt>
      <trkpt lat="42.3352860" lon="-3.7078810">
        <ele>858.6</ele>
        <time>2022-06-27T12:25:12Z</time>
      </trkpt>
      <trkpt lat="42.3353090" lon="-3.7078870">
        <ele>858.6</ele>
        <time>2022-06-27T12:25:13Z</time>
      </trkpt>
      <trkpt lat="42.3353370" lon="-3.7078970">
        <ele>858.4</ele>
        <time>2022-06-27T12:25:14Z</time>
      </trkpt>
      <trkpt lat="42.3353750" lon="-3.7079070">
        <ele>858.4</ele>
        <time>2022-06-27T12:25:15Z</time>
      </trkpt>
      <trkpt lat="42.3354190" lon="-3.7079200">
        <ele>858.4</ele>
        <time>2022-06-27T12:25:16Z</time>
      </trkpt>
      <trkpt lat="42.3354680" lon="-3.7079330">
        <ele>858.4</ele>
        <time>2022-06-27T12:25:17Z</time>
      </trkpt>
      <trkpt lat="42.3355170" lon="-3.7079480">
        <ele>858.4</ele>
        <time>2022-06-27T12:25:18Z</time>
      </trkpt>
      <trkpt lat="42.3355610" lon="-3.7079610">
        <ele>858.4</ele>
        <time>2022-06-27T12:25:19Z</time>
      </trkpt>
      <trkpt lat="42.3355970" lon="-3.7079690">
        <ele>858.4</ele>
        <time>2022-06-27T12:25:20Z</time>
      </trkpt>
      <trkpt lat="42.3356290" lon="-3.7079770">
        <ele>858.2</ele>
        <time>2022-06-27T12:25:21Z</time>
      </trkpt>
      <trkpt lat="42.3356290" lon="-3.7079770">
        <ele>858.2</ele>
        <time>2022-06-27T12:25:22Z</time>
      </trkpt>
      <trkpt lat="42.3356650" lon="-3.7079850">
        <ele>858.2</ele>
        <time>2022-06-27T12:25:23Z</time>
      </trkpt>
      <trkpt lat="42.3357390" lon="-3.7080110">
        <ele>858.2</ele>
        <time>2022-06-27T12:25:24Z</time>
      </trkpt>
      <trkpt lat="42.3357830" lon="-3.7080270">
        <ele>858.4</ele>
        <time>2022-06-27T12:25:25Z</time>
      </trkpt>
      <trkpt lat="42.3358320" lon="-3.7080460">
        <ele>858.4</ele>
        <time>2022-06-27T12:25:26Z</time>
      </trkpt>
      <trkpt lat="42.3358780" lon="-3.7080680">
        <ele>858.4</ele>
        <time>2022-06-27T12:25:27Z</time>
      </trkpt>
      <trkpt lat="42.3359100" lon="-3.7080830">
        <ele>858.4</ele>
        <time>2022-06-27T12:25:28Z</time>
      </trkpt>
      <trkpt lat="42.3359400" lon="-3.7080970">
        <ele>858.4</ele>
        <time>2022-06-27T12:25:29Z</time>
      </trkpt>
      <trkpt lat="42.3359670" lon="-3.7081090">
        <ele>858.6</ele>
        <time>2022-06-27T12:25:30Z</time>
      </trkpt>
      <trkpt lat="42.3359950" lon="-3.7081220">
        <ele>858.6</ele>
        <time>2022-06-27T12:25:31Z</time>
      </trkpt>
      <trkpt lat="42.3360270" lon="-3.7081310">
        <ele>858.8</ele>
        <time>2022-06-27T12:25:32Z</time>
      </trkpt>
      <trkpt lat="42.3360580" lon="-3.7081400">
        <ele>858.8</ele>
        <time>2022-06-27T12:25:33Z</time>
      </trkpt>
      <trkpt lat="42.3360910" lon="-3.7081540">
        <ele>859.0</ele>
        <time>2022-06-27T12:25:34Z</time>
      </trkpt>
      <trkpt lat="42.3361270" lon="-3.7081700">
        <ele>859.0</ele>
        <time>2022-06-27T12:25:35Z</time>
      </trkpt>
      <trkpt lat="42.3361630" lon="-3.7081820">
        <ele>859.0</ele>
        <time>2022-06-27T12:25:36Z</time>
      </trkpt>
      <trkpt lat="42.3361950" lon="-3.7081930">
        <ele>859.0</ele>
        <time>2022-06-27T12:25:37Z</time>
      </trkpt>
      <trkpt lat="42.3362190" lon="-3.7082010">
        <ele>859.2</ele>
        <time>2022-06-27T12:25:38Z</time>
      </trkpt>
      <trkpt lat="42.3362410" lon="-3.7082080">
        <ele>859.2</ele>
        <time>2022-06-27T12:25:39Z</time>
      </trkpt>
      <trkpt lat="42.3362690" lon="-3.7082180">
        <ele>859.2</ele>
        <time>2022-06-27T12:25:40Z</time>
      </trkpt>
      <trkpt lat="42.3362890" lon="-3.7082370">
        <ele>859.2</ele>
        <time>2022-06-27T12:25:41Z</time>
      </trkpt>
      <trkpt lat="42.3363080" lon="-3.7082550">
        <ele>859.4</ele>
        <time>2022-06-27T12:25:42Z</time>
      </trkpt>
      <trkpt lat="42.3363240" lon="-3.7082850">
        <ele>859.4</ele>
        <time>2022-06-27T12:25:43Z</time>
      </trkpt>
      <trkpt lat="42.3363440" lon="-3.7083110">
        <ele>859.4</ele>
        <time>2022-06-27T12:25:44Z</time>
      </trkpt>
      <trkpt lat="42.3363670" lon="-3.7083320">
        <ele>859.4</ele>
        <time>2022-06-27T12:25:45Z</time>
      </trkpt>
      <trkpt lat="42.3363920" lon="-3.7083430">
        <ele>859.6</ele>
        <time>2022-06-27T12:25:46Z</time>
      </trkpt>
      <trkpt lat="42.3364100" lon="-3.7083360">
        <ele>859.6</ele>
        <time>2022-06-27T12:25:47Z</time>
      </trkpt>
      <trkpt lat="42.3364380" lon="-3.7083220">
        <ele>859.6</ele>
        <time>2022-06-27T12:25:48Z</time>
      </trkpt>
      <trkpt lat="42.3364760" lon="-3.7083130">
        <ele>859.6</ele>
        <time>2022-06-27T12:25:49Z</time>
      </trkpt>
      <trkpt lat="42.3365210" lon="-3.7083070">
        <ele>859.6</ele>
        <time>2022-06-27T12:25:50Z</time>
      </trkpt>
      <trkpt lat="42.3365670" lon="-3.7083010">
        <ele>859.6</ele>
        <time>2022-06-27T12:25:51Z</time>
      </trkpt>
      <trkpt lat="42.3366180" lon="-3.7083040">
        <ele>859.6</ele>
        <time>2022-06-27T12:25:52Z</time>
      </trkpt>
      <trkpt lat="42.3366610" lon="-3.7083120">
        <ele>859.6</ele>
        <time>2022-06-27T12:25:53Z</time>
      </trkpt>
      <trkpt lat="42.3367040" lon="-3.7083280">
        <ele>859.6</ele>
        <time>2022-06-27T12:25:54Z</time>
      </trkpt>
      <trkpt lat="42.3367560" lon="-3.7083550">
        <ele>859.6</ele>
        <time>2022-06-27T12:25:55Z</time>
      </trkpt>
      <trkpt lat="42.3368050" lon="-3.7083880">
        <ele>859.6</ele>
        <time>2022-06-27T12:25:56Z</time>
      </trkpt>
      <trkpt lat="42.3368540" lon="-3.7084260">
        <ele>859.6</ele>
        <time>2022-06-27T12:25:57Z</time>
      </trkpt>
      <trkpt lat="42.3369080" lon="-3.7084650">
        <ele>859.8</ele>
        <time>2022-06-27T12:25:58Z</time>
      </trkpt>
      <trkpt lat="42.3369610" lon="-3.7084950">
        <ele>859.8</ele>
        <time>2022-06-27T12:25:59Z</time>
      </trkpt>
      <trkpt lat="42.3370120" lon="-3.7085150">
        <ele>859.8</ele>
        <time>2022-06-27T12:26:00Z</time>
      </trkpt>
      <trkpt lat="42.3370610" lon="-3.7085340">
        <ele>859.8</ele>
        <time>2022-06-27T12:26:01Z</time>
      </trkpt>
      <trkpt lat="42.3371080" lon="-3.7085490">
        <ele>859.8</ele>
        <time>2022-06-27T12:26:02Z</time>
      </trkpt>
      <trkpt lat="42.3371550" lon="-3.7085670">
        <ele>860.0</ele>
        <time>2022-06-27T12:26:03Z</time>
      </trkpt>
      <trkpt lat="42.3372050" lon="-3.7085810">
        <ele>860.2</ele>
        <time>2022-06-27T12:26:04Z</time>
      </trkpt>
      <trkpt lat="42.3372520" lon="-3.7085960">
        <ele>860.2</ele>
        <time>2022-06-27T12:26:05Z</time>
      </trkpt>
      <trkpt lat="42.3372980" lon="-3.7086110">
        <ele>860.2</ele>
        <time>2022-06-27T12:26:06Z</time>
      </trkpt>
      <trkpt lat="42.3373450" lon="-3.7086200">
        <ele>860.4</ele>
        <time>2022-06-27T12:26:07Z</time>
      </trkpt>
      <trkpt lat="42.3373900" lon="-3.7086230">
        <ele>860.4</ele>
        <time>2022-06-27T12:26:08Z</time>
      </trkpt>
      <trkpt lat="42.3374370" lon="-3.7086140">
        <ele>860.4</ele>
        <time>2022-06-27T12:26:09Z</time>
      </trkpt>
      <trkpt lat="42.3374810" lon="-3.7085950">
        <ele>860.4</ele>
        <time>2022-06-27T12:26:10Z</time>
      </trkpt>
      <trkpt lat="42.3375290" lon="-3.7085690">
        <ele>860.4</ele>
        <time>2022-06-27T12:26:11Z</time>
      </trkpt>
      <trkpt lat="42.3375780" lon="-3.7085430">
        <ele>860.4</ele>
        <time>2022-06-27T12:26:12Z</time>
      </trkpt>
      <trkpt lat="42.3376320" lon="-3.7085230">
        <ele>860.4</ele>
        <time>2022-06-27T12:26:13Z</time>
      </trkpt>
      <trkpt lat="42.3376910" lon="-3.7085180">
        <ele>860.2</ele>
        <time>2022-06-27T12:26:14Z</time>
      </trkpt>
      <trkpt lat="42.3377420" lon="-3.7085230">
        <ele>860.2</ele>
        <time>2022-06-27T12:26:15Z</time>
      </trkpt>
      <trkpt lat="42.3377880" lon="-3.7085230">
        <ele>860.0</ele>
        <time>2022-06-27T12:26:16Z</time>
      </trkpt>
      <trkpt lat="42.3378340" lon="-3.7085040">
        <ele>860.0</ele>
        <time>2022-06-27T12:26:17Z</time>
      </trkpt>
      <trkpt lat="42.3378710" lon="-3.7084690">
        <ele>860.0</ele>
        <time>2022-06-27T12:26:18Z</time>
      </trkpt>
      <trkpt lat="42.3379040" lon="-3.7084290">
        <ele>860.0</ele>
        <time>2022-06-27T12:26:19Z</time>
      </trkpt>
      <trkpt lat="42.3379330" lon="-3.7083890">
        <ele>859.8</ele>
        <time>2022-06-27T12:26:20Z</time>
      </trkpt>
      <trkpt lat="42.3379600" lon="-3.7083400">
        <ele>859.8</ele>
        <time>2022-06-27T12:26:21Z</time>
      </trkpt>
      <trkpt lat="42.3379890" lon="-3.7082850">
        <ele>859.6</ele>
        <time>2022-06-27T12:26:22Z</time>
      </trkpt>
      <trkpt lat="42.3380170" lon="-3.7082270">
        <ele>859.4</ele>
        <time>2022-06-27T12:26:23Z</time>
      </trkpt>
      <trkpt lat="42.3380480" lon="-3.7081640">
        <ele>859.4</ele>
        <time>2022-06-27T12:26:24Z</time>
      </trkpt>
      <trkpt lat="42.3380820" lon="-3.7081010">
        <ele>859.4</ele>
        <time>2022-06-27T12:26:25Z</time>
      </trkpt>
      <trkpt lat="42.3381160" lon="-3.7080400">
        <ele>859.4</ele>
        <time>2022-06-27T12:26:26Z</time>
      </trkpt>
      <trkpt lat="42.3381530" lon="-3.7079770">
        <ele>859.2</ele>
        <time>2022-06-27T12:26:27Z</time>
      </trkpt>
      <trkpt lat="42.3381930" lon="-3.7079110">
        <ele>859.0</ele>
        <time>2022-06-27T12:26:28Z</time>
      </trkpt>
      <trkpt lat="42.3382320" lon="-3.7078500">
        <ele>859.0</ele>
        <time>2022-06-27T12:26:29Z</time>
      </trkpt>
      <trkpt lat="42.3382700" lon="-3.7077970">
        <ele>859.0</ele>
        <time>2022-06-27T12:26:30Z</time>
      </trkpt>
      <trkpt lat="42.3382970" lon="-3.7077610">
        <ele>859.0</ele>
        <time>2022-06-27T12:26:31Z</time>
      </trkpt>
      <trkpt lat="42.3383250" lon="-3.7077250">
        <ele>859.0</ele>
        <time>2022-06-27T12:26:32Z</time>
      </trkpt>
      <trkpt lat="42.3383790" lon="-3.7076530">
        <ele>858.8</ele>
        <time>2022-06-27T12:26:33Z</time>
      </trkpt>
      <trkpt lat="42.3384130" lon="-3.7076050">
        <ele>858.8</ele>
        <time>2022-06-27T12:26:34Z</time>
      </trkpt>
      <trkpt lat="42.3384500" lon="-3.7075550">
        <ele>858.8</ele>
        <time>2022-06-27T12:26:35Z</time>
      </trkpt>
      <trkpt lat="42.3384880" lon="-3.7075030">
        <ele>858.8</ele>
        <time>2022-06-27T12:26:36Z</time>
      </trkpt>
      <trkpt lat="42.3385280" lon="-3.7074520">
        <ele>858.8</ele>
        <time>2022-06-27T12:26:37Z</time>
      </trkpt>
      <trkpt lat="42.3385700" lon="-3.7073990">
        <ele>859.0</ele>
        <time>2022-06-27T12:26:38Z</time>
      </trkpt>
      <trkpt lat="42.3386090" lon="-3.7073460">
        <ele>859.2</ele>
        <time>2022-06-27T12:26:39Z</time>
      </trkpt>
      <trkpt lat="42.3386310" lon="-3.7072810">
        <ele>859.2</ele>
        <time>2022-06-27T12:26:40Z</time>
      </trkpt>
      <trkpt lat="42.3386400" lon="-3.7072090">
        <ele>859.4</ele>
        <time>2022-06-27T12:26:41Z</time>
      </trkpt>
      <trkpt lat="42.3386540" lon="-3.7071480">
        <ele>859.6</ele>
        <time>2022-06-27T12:26:42Z</time>
      </trkpt>
      <trkpt lat="42.3386770" lon="-3.7070950">
        <ele>859.8</ele>
        <time>2022-06-27T12:26:43Z</time>
      </trkpt>
      <trkpt lat="42.3387030" lon="-3.7070380">
        <ele>859.8</ele>
        <time>2022-06-27T12:26:44Z</time>
      </trkpt>
      <trkpt lat="42.3387180" lon="-3.7070080">
        <ele>859.8</ele>
        <time>2022-06-27T12:26:45Z</time>
      </trkpt>
      <trkpt lat="42.3387320" lon="-3.7069780">
        <ele>859.8</ele>
        <time>2022-06-27T12:26:46Z</time>
      </trkpt>
      <trkpt lat="42.3387750" lon="-3.7068900">
        <ele>859.8</ele>
        <time>2022-06-27T12:26:47Z</time>
      </trkpt>
      <trkpt lat="42.3387900" lon="-3.7068630">
        <ele>860.0</ele>
        <time>2022-06-27T12:26:48Z</time>
      </trkpt>
      <trkpt lat="42.3388360" lon="-3.7067800">
        <ele>860.0</ele>
        <time>2022-06-27T12:26:49Z</time>
      </trkpt>
      <trkpt lat="42.3388530" lon="-3.7067510">
        <ele>860.0</ele>
        <time>2022-06-27T12:26:50Z</time>
      </trkpt>
      <trkpt lat="42.3389110" lon="-3.7066510">
        <ele>860.0</ele>
        <time>2022-06-27T12:26:51Z</time>
      </trkpt>
      <trkpt lat="42.3389350" lon="-3.7066080">
        <ele>860.0</ele>
        <time>2022-06-27T12:26:52Z</time>
      </trkpt>
      <trkpt lat="42.3389830" lon="-3.7065240">
        <ele>860.0</ele>
        <time>2022-06-27T12:26:53Z</time>
      </trkpt>
      <trkpt lat="42.3390140" lon="-3.7064720">
        <ele>860.0</ele>
        <time>2022-06-27T12:26:54Z</time>
      </trkpt>
      <trkpt lat="42.3390440" lon="-3.7064200">
        <ele>860.0</ele>
        <time>2022-06-27T12:26:55Z</time>
      </trkpt>
      <trkpt lat="42.3390740" lon="-3.7063690">
        <ele>860.0</ele>
        <time>2022-06-27T12:26:56Z</time>
      </trkpt>
      <trkpt lat="42.3391070" lon="-3.7063240">
        <ele>860.0</ele>
        <time>2022-06-27T12:26:57Z</time>
      </trkpt>
      <trkpt lat="42.3391450" lon="-3.7063010">
        <ele>860.0</ele>
        <time>2022-06-27T12:26:58Z</time>
      </trkpt>
      <trkpt lat="42.3391810" lon="-3.7063000">
        <ele>860.0</ele>
        <time>2022-06-27T12:26:59Z</time>
      </trkpt>
      <trkpt lat="42.3392090" lon="-3.7063210">
        <ele>860.0</ele>
        <time>2022-06-27T12:27:00Z</time>
      </trkpt>
      <trkpt lat="42.3392290" lon="-3.7063600">
        <ele>860.2</ele>
        <time>2022-06-27T12:27:01Z</time>
      </trkpt>
      <trkpt lat="42.3392370" lon="-3.7064070">
        <ele>860.2</ele>
        <time>2022-06-27T12:27:02Z</time>
      </trkpt>
      <trkpt lat="42.3392400" lon="-3.7064650">
        <ele>860.4</ele>
        <time>2022-06-27T12:27:03Z</time>
      </trkpt>
      <trkpt lat="42.3392410" lon="-3.7065280">
        <ele>860.6</ele>
        <time>2022-06-27T12:27:04Z</time>
      </trkpt>
      <trkpt lat="42.3392430" lon="-3.7065950">
        <ele>860.6</ele>
        <time>2022-06-27T12:27:05Z</time>
      </trkpt>
      <trkpt lat="42.3392470" lon="-3.7066660">
        <ele>860.4</ele>
        <time>2022-06-27T12:27:06Z</time>
      </trkpt>
      <trkpt lat="42.3392520" lon="-3.7067430">
        <ele>860.8</ele>
        <time>2022-06-27T12:27:07Z</time>
      </trkpt>
      <trkpt lat="42.3392570" lon="-3.7068210">
        <ele>860.8</ele>
        <time>2022-06-27T12:27:08Z</time>
      </trkpt>
      <trkpt lat="42.3392600" lon="-3.7068970">
        <ele>860.8</ele>
        <time>2022-06-27T12:27:09Z</time>
      </trkpt>
      <trkpt lat="42.3392620" lon="-3.7069700">
        <ele>860.8</ele>
        <time>2022-06-27T12:27:10Z</time>
      </trkpt>
      <trkpt lat="42.3392660" lon="-3.7070420">
        <ele>860.6</ele>
        <time>2022-06-27T12:27:11Z</time>
      </trkpt>
      <trkpt lat="42.3392720" lon="-3.7071150">
        <ele>860.6</ele>
        <time>2022-06-27T12:27:12Z</time>
      </trkpt>
      <trkpt lat="42.3392780" lon="-3.7071910">
        <ele>860.6</ele>
        <time>2022-06-27T12:27:13Z</time>
      </trkpt>
      <trkpt lat="42.3392850" lon="-3.7072680">
        <ele>860.4</ele>
        <time>2022-06-27T12:27:14Z</time>
      </trkpt>
      <trkpt lat="42.3392880" lon="-3.7073450">
        <ele>860.4</ele>
        <time>2022-06-27T12:27:15Z</time>
      </trkpt>
      <trkpt lat="42.3392970" lon="-3.7074180">
        <ele>860.4</ele>
        <time>2022-06-27T12:27:16Z</time>
      </trkpt>
      <trkpt lat="42.3393230" lon="-3.7074800">
        <ele>860.4</ele>
        <time>2022-06-27T12:27:17Z</time>
      </trkpt>
      <trkpt lat="42.3393610" lon="-3.7075180">
        <ele>860.2</ele>
        <time>2022-06-27T12:27:18Z</time>
      </trkpt>
      <trkpt lat="42.3394170" lon="-3.7075160">
        <ele>860.2</ele>
        <time>2022-06-27T12:27:19Z</time>
      </trkpt>
      <trkpt lat="42.3394650" lon="-3.7075140">
        <ele>860.2</ele>
        <time>2022-06-27T12:27:20Z</time>
      </trkpt>
      <trkpt lat="42.3395020" lon="-3.7075050">
        <ele>860.0</ele>
        <time>2022-06-27T12:27:21Z</time>
      </trkpt>
      <trkpt lat="42.3395460" lon="-3.7074890">
        <ele>860.0</ele>
        <time>2022-06-27T12:27:22Z</time>
      </trkpt>
      <trkpt lat="42.3395960" lon="-3.7074780">
        <ele>860.0</ele>
        <time>2022-06-27T12:27:23Z</time>
      </trkpt>
      <trkpt lat="42.3396450" lon="-3.7074650">
        <ele>860.0</ele>
        <time>2022-06-27T12:27:24Z</time>
      </trkpt>
      <trkpt lat="42.3396910" lon="-3.7074580">
        <ele>860.0</ele>
        <time>2022-06-27T12:27:25Z</time>
      </trkpt>
      <trkpt lat="42.3397270" lon="-3.7074540">
        <ele>860.2</ele>
        <time>2022-06-27T12:27:26Z</time>
      </trkpt>
      <trkpt lat="42.3397640" lon="-3.7074500">
        <ele>860.4</ele>
        <time>2022-06-27T12:27:27Z</time>
      </trkpt>
      <trkpt lat="42.3397880" lon="-3.7074500">
        <ele>860.4</ele>
        <time>2022-06-27T12:27:28Z</time>
      </trkpt>
      <trkpt lat="42.3398060" lon="-3.7074530">
        <ele>860.6</ele>
        <time>2022-06-27T12:27:29Z</time>
      </trkpt>
      <trkpt lat="42.3398170" lon="-3.7074590">
        <ele>860.8</ele>
        <time>2022-06-27T12:27:30Z</time>
      </trkpt>
      <trkpt lat="42.3398190" lon="-3.7074600">
        <ele>861.0</ele>
        <time>2022-06-27T12:27:31Z</time>
      </trkpt>
      <trkpt lat="42.3398140" lon="-3.7074520">
        <ele>861.6</ele>
        <time>2022-06-27T12:27:32Z</time>
      </trkpt>
      <trkpt lat="42.3397960" lon="-3.7074440">
        <ele>862.0</ele>
        <time>2022-06-27T12:27:33Z</time>
      </trkpt>
      <trkpt lat="42.3397710" lon="-3.7074320">
        <ele>862.2</ele>
        <time>2022-06-27T12:27:34Z</time>
      </trkpt>
      <trkpt lat="42.3397430" lon="-3.7074130">
        <ele>862.4</ele>
        <time>2022-06-27T12:27:35Z</time>
      </trkpt>
      <trkpt lat="42.3397140" lon="-3.7073940">
        <ele>862.4</ele>
        <time>2022-06-27T12:27:36Z</time>
      </trkpt>
      <trkpt lat="42.3396980" lon="-3.7073570">
        <ele>862.4</ele>
        <time>2022-06-27T12:27:37Z</time>
      </trkpt>
      <trkpt lat="42.3396850" lon="-3.7073170">
        <ele>862.4</ele>
        <time>2022-06-27T12:27:38Z</time>
      </trkpt>
      <trkpt lat="42.3397040" lon="-3.7072580">
        <ele>862.6</ele>
        <time>2022-06-27T12:27:39Z</time>
      </trkpt>
      <trkpt lat="42.3397100" lon="-3.7072060">
        <ele>862.6</ele>
        <time>2022-06-27T12:27:40Z</time>
      </trkpt>
      <trkpt lat="42.3397050" lon="-3.7071720">
        <ele>862.8</ele>
        <time>2022-06-27T12:27:41Z</time>
      </trkpt>
      <trkpt lat="42.3397050" lon="-3.7071310">
        <ele>863.0</ele>
        <time>2022-06-27T12:27:42Z</time>
      </trkpt>
      <trkpt lat="42.3397030" lon="-3.7070910">
        <ele>863.0</ele>
        <time>2022-06-27T12:27:43Z</time>
      </trkpt>
      <trkpt lat="42.3397070" lon="-3.7070490">
        <ele>863.2</ele>
        <time>2022-06-27T12:27:44Z</time>
      </trkpt>
      <trkpt lat="42.3397050" lon="-3.7070090">
        <ele>863.4</ele>
        <time>2022-06-27T12:27:45Z</time>
      </trkpt>
      <trkpt lat="42.3397010" lon="-3.7069730">
        <ele>863.6</ele>
        <time>2022-06-27T12:27:46Z</time>
      </trkpt>
      <trkpt lat="42.3397010" lon="-3.7069360">
        <ele>863.8</ele>
        <time>2022-06-27T12:27:47Z</time>
      </trkpt>
      <trkpt lat="42.3397000" lon="-3.7069000">
        <ele>863.8</ele>
        <time>2022-06-27T12:27:48Z</time>
      </trkpt>
      <trkpt lat="42.3396920" lon="-3.7068730">
        <ele>864.4</ele>
        <time>2022-06-27T12:27:49Z</time>
      </trkpt>
      <trkpt lat="42.3396790" lon="-3.7068550">
        <ele>864.4</ele>
        <time>2022-06-27T12:27:50Z</time>
      </trkpt>
      <trkpt lat="42.3396720" lon="-3.7068320">
        <ele>864.6</ele>
        <time>2022-06-27T12:27:51Z</time>
      </trkpt>
      <trkpt lat="42.3396660" lon="-3.7068090">
        <ele>864.6</ele>
        <time>2022-06-27T12:27:52Z</time>
      </trkpt>
      <trkpt lat="42.3396670" lon="-3.7067760">
        <ele>864.6</ele>
        <time>2022-06-27T12:27:53Z</time>
      </trkpt>
      <trkpt lat="42.3396710" lon="-3.7067360">
        <ele>864.6</ele>
        <time>2022-06-27T12:27:54Z</time>
      </trkpt>
      <trkpt lat="42.3396830" lon="-3.7066960">
        <ele>864.8</ele>
        <time>2022-06-27T12:27:55Z</time>
      </trkpt>
      <trkpt lat="42.3396990" lon="-3.7066530">
        <ele>864.8</ele>
        <time>2022-06-27T12:27:56Z</time>
      </trkpt>
      <trkpt lat="42.3397150" lon="-3.7066060">
        <ele>864.8</ele>
        <time>2022-06-27T12:27:57Z</time>
      </trkpt>
      <trkpt lat="42.3397270" lon="-3.7065620">
        <ele>864.8</ele>
        <time>2022-06-27T12:27:58Z</time>
      </trkpt>
      <trkpt lat="42.3397370" lon="-3.7065160">
        <ele>864.8</ele>
        <time>2022-06-27T12:27:59Z</time>
      </trkpt>
      <trkpt lat="42.3397530" lon="-3.7064570">
        <ele>864.8</ele>
        <time>2022-06-27T12:28:00Z</time>
      </trkpt>
      <trkpt lat="42.3397700" lon="-3.7063900">
        <ele>864.8</ele>
        <time>2022-06-27T12:28:01Z</time>
      </trkpt>
      <trkpt lat="42.3397830" lon="-3.7063260">
        <ele>864.8</ele>
        <time>2022-06-27T12:28:02Z</time>
      </trkpt>
      <trkpt lat="42.3398100" lon="-3.7062620">
        <ele>864.6</ele>
        <time>2022-06-27T12:28:03Z</time>
      </trkpt>
      <trkpt lat="42.3398320" lon="-3.7061910">
        <ele>864.6</ele>
        <time>2022-06-27T12:28:04Z</time>
      </trkpt>
      <trkpt lat="42.3398500" lon="-3.7061270">
        <ele>864.4</ele>
        <time>2022-06-27T12:28:05Z</time>
      </trkpt>
      <trkpt lat="42.3398640" lon="-3.7060540">
        <ele>864.2</ele>
        <time>2022-06-27T12:28:06Z</time>
      </trkpt>
      <trkpt lat="42.3398760" lon="-3.7060020">
        <ele>864.0</ele>
        <time>2022-06-27T12:28:07Z</time>
      </trkpt>
      <trkpt lat="42.3398860" lon="-3.7059570">
        <ele>863.8</ele>
        <time>2022-06-27T12:28:08Z</time>
      </trkpt>
      <trkpt lat="42.3399000" lon="-3.7059140">
        <ele>863.8</ele>
        <time>2022-06-27T12:28:09Z</time>
      </trkpt>
      <trkpt lat="42.3399130" lon="-3.7058810">
        <ele>863.8</ele>
        <time>2022-06-27T12:28:10Z</time>
      </trkpt>
      <trkpt lat="42.3399230" lon="-3.7058460">
        <ele>863.6</ele>
        <time>2022-06-27T12:28:11Z</time>
      </trkpt>
      <trkpt lat="42.3399320" lon="-3.7058130">
        <ele>863.6</ele>
        <time>2022-06-27T12:28:12Z</time>
      </trkpt>
      <trkpt lat="42.3399340" lon="-3.7057770">
        <ele>863.6</ele>
        <time>2022-06-27T12:28:13Z</time>
      </trkpt>
      <trkpt lat="42.3399360" lon="-3.7057700">
        <ele>863.6</ele>
        <time>2022-06-27T12:28:14Z</time>
      </trkpt>
      <trkpt lat="42.3399450" lon="-3.7057500">
        <ele>863.6</ele>
        <time>2022-06-27T12:28:15Z</time>
      </trkpt>
      <trkpt lat="42.3399650" lon="-3.7057090">
        <ele>863.6</ele>
        <time>2022-06-27T12:28:16Z</time>
      </trkpt>
      <trkpt lat="42.3399850" lon="-3.7056730">
        <ele>863.6</ele>
        <time>2022-06-27T12:28:17Z</time>
      </trkpt>
      <trkpt lat="42.3400070" lon="-3.7056350">
        <ele>863.6</ele>
        <time>2022-06-27T12:28:18Z</time>
      </trkpt>
      <trkpt lat="42.3400190" lon="-3.7055830">
        <ele>863.6</ele>
        <time>2022-06-27T12:28:19Z</time>
      </trkpt>
      <trkpt lat="42.3400300" lon="-3.7055340">
        <ele>863.6</ele>
        <time>2022-06-27T12:28:20Z</time>
      </trkpt>
      <trkpt lat="42.3400540" lon="-3.7054920">
        <ele>863.6</ele>
        <time>2022-06-27T12:28:21Z</time>
      </trkpt>
      <trkpt lat="42.3400790" lon="-3.7054570">
        <ele>863.6</ele>
        <time>2022-06-27T12:28:22Z</time>
      </trkpt>
      <trkpt lat="42.3400960" lon="-3.7054310">
        <ele>863.6</ele>
        <time>2022-06-27T12:28:23Z</time>
      </trkpt>
      <trkpt lat="42.3401110" lon="-3.7054070">
        <ele>863.8</ele>
        <time>2022-06-27T12:28:24Z</time>
      </trkpt>
      <trkpt lat="42.3401240" lon="-3.7053830">
        <ele>863.8</ele>
        <time>2022-06-27T12:28:25Z</time>
      </trkpt>
      <trkpt lat="42.3401400" lon="-3.7053660">
        <ele>864.0</ele>
        <time>2022-06-27T12:28:26Z</time>
      </trkpt>
      <trkpt lat="42.3401590" lon="-3.7053570">
        <ele>864.2</ele>
        <time>2022-06-27T12:28:27Z</time>
      </trkpt>
      <trkpt lat="42.3401800" lon="-3.7053480">
        <ele>864.4</ele>
        <time>2022-06-27T12:28:28Z</time>
      </trkpt>
      <trkpt lat="42.3402090" lon="-3.7053380">
        <ele>864.4</ele>
        <time>2022-06-27T12:28:29Z</time>
      </trkpt>
      <trkpt lat="42.3402460" lon="-3.7053360">
        <ele>865.0</ele>
        <time>2022-06-27T12:28:30Z</time>
      </trkpt>
      <trkpt lat="42.3402800" lon="-3.7053340">
        <ele>865.2</ele>
        <time>2022-06-27T12:28:31Z</time>
      </trkpt>
      <trkpt lat="42.3403040" lon="-3.7053180">
        <ele>865.2</ele>
        <time>2022-06-27T12:28:32Z</time>
      </trkpt>
      <trkpt lat="42.3403120" lon="-3.7052860">
        <ele>865.4</ele>
        <time>2022-06-27T12:28:33Z</time>
      </trkpt>
      <trkpt lat="42.3402910" lon="-3.7052330">
        <ele>865.4</ele>
        <time>2022-06-27T12:28:34Z</time>
      </trkpt>
      <trkpt lat="42.3402690" lon="-3.7051800">
        <ele>865.4</ele>
        <time>2022-06-27T12:28:35Z</time>
      </trkpt>
      <trkpt lat="42.3402730" lon="-3.7051580">
        <ele>865.6</ele>
        <time>2022-06-27T12:28:36Z</time>
      </trkpt>
      <trkpt lat="42.3402720" lon="-3.7051320">
        <ele>865.6</ele>
        <time>2022-06-27T12:28:37Z</time>
      </trkpt>
      <trkpt lat="42.3402840" lon="-3.7051200">
        <ele>865.6</ele>
        <time>2022-06-27T12:28:38Z</time>
      </trkpt>
      <trkpt lat="42.3402940" lon="-3.7051050">
        <ele>865.6</ele>
        <time>2022-06-27T12:28:39Z</time>
      </trkpt>
      <trkpt lat="42.3403050" lon="-3.7050810">
        <ele>865.6</ele>
        <time>2022-06-27T12:28:40Z</time>
      </trkpt>
      <trkpt lat="42.3403180" lon="-3.7050510">
        <ele>865.6</ele>
        <time>2022-06-27T12:28:41Z</time>
      </trkpt>
      <trkpt lat="42.3403290" lon="-3.7050210">
        <ele>865.6</ele>
        <time>2022-06-27T12:28:42Z</time>
      </trkpt>
      <trkpt lat="42.3403390" lon="-3.7049910">
        <ele>865.6</ele>
        <time>2022-06-27T12:28:43Z</time>
      </trkpt>
      <trkpt lat="42.3403520" lon="-3.7049600">
        <ele>865.6</ele>
        <time>2022-06-27T12:28:44Z</time>
      </trkpt>
      <trkpt lat="42.3403670" lon="-3.7049360">
        <ele>865.6</ele>
        <time>2022-06-27T12:28:45Z</time>
      </trkpt>
      <trkpt lat="42.3403810" lon="-3.7049120">
        <ele>865.6</ele>
        <time>2022-06-27T12:28:46Z</time>
      </trkpt>
      <trkpt lat="42.3403920" lon="-3.7048910">
        <ele>865.8</ele>
        <time>2022-06-27T12:28:47Z</time>
      </trkpt>
      <trkpt lat="42.3403970" lon="-3.7048710">
        <ele>865.8</ele>
        <time>2022-06-27T12:28:48Z</time>
      </trkpt>
      <trkpt lat="42.3404130" lon="-3.7048530">
        <ele>865.8</ele>
        <time>2022-06-27T12:28:49Z</time>
      </trkpt>
      <trkpt lat="42.3404280" lon="-3.7048440">
        <ele>865.8</ele>
        <time>2022-06-27T12:28:50Z</time>
      </trkpt>
      <trkpt lat="42.3404280" lon="-3.7048490">
        <ele>865.8</ele>
        <time>2022-06-27T12:28:51Z</time>
      </trkpt>
      <trkpt lat="42.3404280" lon="-3.7048540">
        <ele>865.8</ele>
        <time>2022-06-27T12:28:52Z</time>
      </trkpt>
      <trkpt lat="42.3404230" lon="-3.7048600">
        <ele>866.0</ele>
        <time>2022-06-27T12:28:53Z</time>
      </trkpt>
      <trkpt lat="42.3404110" lon="-3.7048680">
        <ele>866.2</ele>
        <time>2022-06-27T12:28:54Z</time>
      </trkpt>
      <trkpt lat="42.3404000" lon="-3.7048740">
        <ele>866.2</ele>
        <time>2022-06-27T12:28:55Z</time>
      </trkpt>
      <trkpt lat="42.3403960" lon="-3.7048760">
        <ele>866.4</ele>
        <time>2022-06-27T12:28:56Z</time>
      </trkpt>
      <trkpt lat="42.3403960" lon="-3.7048760">
        <ele>866.4</ele>
        <time>2022-06-27T12:28:57Z</time>
      </trkpt>
      <trkpt lat="42.3403960" lon="-3.7048760">
        <ele>866.4</ele>
        <time>2022-06-27T12:28:58Z</time>
      </trkpt>
      <trkpt lat="42.3403790" lon="-3.7049010">
        <ele>866.4</ele>
        <time>2022-06-27T12:29:30Z</time>
      </trkpt>
      <trkpt lat="42.3403670" lon="-3.7049190">
        <ele>866.4</ele>
        <time>2022-06-27T12:29:31Z</time>
      </trkpt>
      <trkpt lat="42.3403610" lon="-3.7049340">
        <ele>866.4</ele>
        <time>2022-06-27T12:29:32Z</time>
      </trkpt>
      <trkpt lat="42.3403540" lon="-3.7049470">
        <ele>866.4</ele>
        <time>2022-06-27T12:29:33Z</time>
      </trkpt>
      <trkpt lat="42.3403450" lon="-3.7049620">
        <ele>866.4</ele>
        <time>2022-06-27T12:29:34Z</time>
      </trkpt>
      <trkpt lat="42.3403350" lon="-3.7049750">
        <ele>866.4</ele>
        <time>2022-06-27T12:29:35Z</time>
      </trkpt>
      <trkpt lat="42.3403200" lon="-3.7049900">
        <ele>866.4</ele>
        <time>2022-06-27T12:29:36Z</time>
      </trkpt>
      <trkpt lat="42.3403110" lon="-3.7049980">
        <ele>866.2</ele>
        <time>2022-06-27T12:29:37Z</time>
      </trkpt>
      <trkpt lat="42.3403070" lon="-3.7050030">
        <ele>866.2</ele>
        <time>2022-06-27T12:29:38Z</time>
      </trkpt>
      <trkpt lat="42.3403080" lon="-3.7050070">
        <ele>866.2</ele>
        <time>2022-06-27T12:29:39Z</time>
      </trkpt>
      <trkpt lat="42.3403040" lon="-3.7050060">
        <ele>866.2</ele>
        <time>2022-06-27T12:29:40Z</time>
      </trkpt>
      <trkpt lat="42.3403030" lon="-3.7049940">
        <ele>866.0</ele>
        <time>2022-06-27T12:29:41Z</time>
      </trkpt>
      <trkpt lat="42.3403030" lon="-3.7049940">
        <ele>866.0</ele>
        <time>2022-06-27T12:29:42Z</time>
      </trkpt>
      <trkpt lat="42.3403130" lon="-3.7049770">
        <ele>865.8</ele>
        <time>2022-06-27T12:29:43Z</time>
      </trkpt>
      <trkpt lat="42.3403200" lon="-3.7049810">
        <ele>865.6</ele>
        <time>2022-06-27T12:29:44Z</time>
      </trkpt>
      <trkpt lat="42.3403230" lon="-3.7049820">
        <ele>865.6</ele>
        <time>2022-06-27T12:29:45Z</time>
      </trkpt>
      <trkpt lat="42.3403230" lon="-3.7049820">
        <ele>865.6</ele>
        <time>2022-06-27T12:29:46Z</time>
      </trkpt>
      <trkpt lat="42.3403230" lon="-3.7049820">
        <ele>865.4</ele>
        <time>2022-06-27T12:29:47Z</time>
      </trkpt>
      <trkpt lat="42.3403200" lon="-3.7049900">
        <ele>864.6</ele>
        <time>2022-06-27T12:32:15Z</time>
      </trkpt>
      <trkpt lat="42.3403200" lon="-3.7049900">
        <ele>864.6</ele>
        <time>2022-06-27T12:32:16Z</time>
      </trkpt>
      <trkpt lat="42.3403200" lon="-3.7049900">
        <ele>864.4</ele>
        <time>2022-06-27T12:32:17Z</time>
      </trkpt>
      <trkpt lat="42.3403190" lon="-3.7050210">
        <ele>864.4</ele>
        <time>2022-06-27T12:32:19Z</time>
      </trkpt>
      <trkpt lat="42.3403210" lon="-3.7050430">
        <ele>864.4</ele>
        <time>2022-06-27T12:32:20Z</time>
      </trkpt>
      <trkpt lat="42.3403230" lon="-3.7050510">
        <ele>864.4</ele>
        <time>2022-06-27T12:32:21Z</time>
      </trkpt>
      <trkpt lat="42.3403230" lon="-3.7050510">
        <ele>864.4</ele>
        <time>2022-06-27T12:32:22Z</time>
      </trkpt>
      <trkpt lat="42.3403230" lon="-3.7050510">
        <ele>864.4</ele>
        <time>2022-06-27T12:32:23Z</time>
      </trkpt>
      <trkpt lat="42.3403280" lon="-3.7050660">
        <ele>864.2</ele>
        <time>2022-06-27T12:32:27Z</time>
      </trkpt>
      <trkpt lat="42.3403280" lon="-3.7050660">
        <ele>864.2</ele>
        <time>2022-06-27T12:32:28Z</time>
      </trkpt>
      <trkpt lat="42.3403290" lon="-3.7050720">
        <ele>864.4</ele>
        <time>2022-06-27T12:32:29Z</time>
      </trkpt>
      <trkpt lat="42.3403370" lon="-3.7050890">
        <ele>864.4</ele>
        <time>2022-06-27T12:32:30Z</time>
      </trkpt>
      <trkpt lat="42.3403400" lon="-3.7051000">
        <ele>864.4</ele>
        <time>2022-06-27T12:32:31Z</time>
      </trkpt>
      <trkpt lat="42.3403440" lon="-3.7051030">
        <ele>864.4</ele>
        <time>2022-06-27T12:32:32Z</time>
      </trkpt>
      <trkpt lat="42.3403440" lon="-3.7051030">
        <ele>864.6</ele>
        <time>2022-06-27T12:32:33Z</time>
      </trkpt>
      <trkpt lat="42.3403480" lon="-3.7051110">
        <ele>864.6</ele>
        <time>2022-06-27T12:32:34Z</time>
      </trkpt>
      <trkpt lat="42.3403470" lon="-3.7051190">
        <ele>864.6</ele>
        <time>2022-06-27T12:32:35Z</time>
      </trkpt>
      <trkpt lat="42.3403550" lon="-3.7051350">
        <ele>864.6</ele>
        <time>2022-06-27T12:32:36Z</time>
      </trkpt>
      <trkpt lat="42.3403610" lon="-3.7051370">
        <ele>864.4</ele>
        <time>2022-06-27T12:32:37Z</time>
      </trkpt>
      <trkpt lat="42.3403620" lon="-3.7051430">
        <ele>864.4</ele>
        <time>2022-06-27T12:32:38Z</time>
      </trkpt>
      <trkpt lat="42.3403620" lon="-3.7051430">
        <ele>864.4</ele>
        <time>2022-06-27T12:32:39Z</time>
      </trkpt>
      <trkpt lat="42.3403620" lon="-3.7051430">
        <ele>864.2</ele>
        <time>2022-06-27T12:32:40Z</time>
      </trkpt>
      <trkpt lat="42.3403590" lon="-3.7051590">
        <ele>864.0</ele>
        <time>2022-06-27T12:32:41Z</time>
      </trkpt>
      <trkpt lat="42.3403710" lon="-3.7051810">
        <ele>864.0</ele>
        <time>2022-06-27T12:32:42Z</time>
      </trkpt>
      <trkpt lat="42.3403700" lon="-3.7052280">
        <ele>863.8</ele>
        <time>2022-06-27T12:32:43Z</time>
      </trkpt>
      <trkpt lat="42.3403450" lon="-3.7052660">
        <ele>863.6</ele>
        <time>2022-06-27T12:32:44Z</time>
      </trkpt>
      <trkpt lat="42.3403090" lon="-3.7052900">
        <ele>863.2</ele>
        <time>2022-06-27T12:32:45Z</time>
      </trkpt>
      <trkpt lat="42.3402790" lon="-3.7052760">
        <ele>863.0</ele>
        <time>2022-06-27T12:32:46Z</time>
      </trkpt>
      <trkpt lat="42.3402620" lon="-3.7052430">
        <ele>863.0</ele>
        <time>2022-06-27T12:32:47Z</time>
      </trkpt>
      <trkpt lat="42.3402480" lon="-3.7051970">
        <ele>863.0</ele>
        <time>2022-06-27T12:32:48Z</time>
      </trkpt>
      <trkpt lat="42.3402400" lon="-3.7051440">
        <ele>862.8</ele>
        <time>2022-06-27T12:32:49Z</time>
      </trkpt>
      <trkpt lat="42.3402360" lon="-3.7051020">
        <ele>862.6</ele>
        <time>2022-06-27T12:32:50Z</time>
      </trkpt>
      <trkpt lat="42.3402330" lon="-3.7050650">
        <ele>862.6</ele>
        <time>2022-06-27T12:32:51Z</time>
      </trkpt>
      <trkpt lat="42.3402350" lon="-3.7050080">
        <ele>862.6</ele>
        <time>2022-06-27T12:32:52Z</time>
      </trkpt>
      <trkpt lat="42.3402400" lon="-3.7049550">
        <ele>862.4</ele>
        <time>2022-06-27T12:32:53Z</time>
      </trkpt>
      <trkpt lat="42.3402460" lon="-3.7049010">
        <ele>862.0</ele>
        <time>2022-06-27T12:32:54Z</time>
      </trkpt>
      <trkpt lat="42.3402570" lon="-3.7048500">
        <ele>861.8</ele>
        <time>2022-06-27T12:32:55Z</time>
      </trkpt>
      <trkpt lat="42.3402700" lon="-3.7048030">
        <ele>861.6</ele>
        <time>2022-06-27T12:32:56Z</time>
      </trkpt>
      <trkpt lat="42.3402800" lon="-3.7047540">
        <ele>861.4</ele>
        <time>2022-06-27T12:32:57Z</time>
      </trkpt>
      <trkpt lat="42.3402900" lon="-3.7047070">
        <ele>861.4</ele>
        <time>2022-06-27T12:32:58Z</time>
      </trkpt>
      <trkpt lat="42.3403070" lon="-3.7046680">
        <ele>861.2</ele>
        <time>2022-06-27T12:32:59Z</time>
      </trkpt>
      <trkpt lat="42.3403200" lon="-3.7046320">
        <ele>861.0</ele>
        <time>2022-06-27T12:33:00Z</time>
      </trkpt>
      <trkpt lat="42.3403230" lon="-3.7045920">
        <ele>861.0</ele>
        <time>2022-06-27T12:33:01Z</time>
      </trkpt>
      <trkpt lat="42.3403250" lon="-3.7045510">
        <ele>861.0</ele>
        <time>2022-06-27T12:33:02Z</time>
      </trkpt>
      <trkpt lat="42.3403300" lon="-3.7045130">
        <ele>861.0</ele>
        <time>2022-06-27T12:33:03Z</time>
      </trkpt>
      <trkpt lat="42.3403360" lon="-3.7044800">
        <ele>861.0</ele>
        <time>2022-06-27T12:33:04Z</time>
      </trkpt>
      <trkpt lat="42.3403430" lon="-3.7044520">
        <ele>861.0</ele>
        <time>2022-06-27T12:33:05Z</time>
      </trkpt>
      <trkpt lat="42.3403500" lon="-3.7044300">
        <ele>861.0</ele>
        <time>2022-06-27T12:33:06Z</time>
      </trkpt>
      <trkpt lat="42.3403560" lon="-3.7044060">
        <ele>861.0</ele>
        <time>2022-06-27T12:33:07Z</time>
      </trkpt>
      <trkpt lat="42.3403700" lon="-3.7043830">
        <ele>861.0</ele>
        <time>2022-06-27T12:33:08Z</time>
      </trkpt>
      <trkpt lat="42.3403880" lon="-3.7043660">
        <ele>861.0</ele>
        <time>2022-06-27T12:33:09Z</time>
      </trkpt>
      <trkpt lat="42.3404040" lon="-3.7043480">
        <ele>861.2</ele>
        <time>2022-06-27T12:33:10Z</time>
      </trkpt>
      <trkpt lat="42.3404150" lon="-3.7043230">
        <ele>861.2</ele>
        <time>2022-06-27T12:33:11Z</time>
      </trkpt>
      <trkpt lat="42.3404260" lon="-3.7042970">
        <ele>861.2</ele>
        <time>2022-06-27T12:33:12Z</time>
      </trkpt>
      <trkpt lat="42.3404270" lon="-3.7042710">
        <ele>861.4</ele>
        <time>2022-06-27T12:33:13Z</time>
      </trkpt>
      <trkpt lat="42.3404270" lon="-3.7042470">
        <ele>861.6</ele>
        <time>2022-06-27T12:33:14Z</time>
      </trkpt>
      <trkpt lat="42.3404220" lon="-3.7042250">
        <ele>861.6</ele>
        <time>2022-06-27T12:33:15Z</time>
      </trkpt>
      <trkpt lat="42.3404140" lon="-3.7042030">
        <ele>861.8</ele>
        <time>2022-06-27T12:33:16Z</time>
      </trkpt>
      <trkpt lat="42.3404140" lon="-3.7042030">
        <ele>862.0</ele>
        <time>2022-06-27T12:33:17Z</time>
      </trkpt>
      <trkpt lat="42.3404010" lon="-3.7041780">
        <ele>862.2</ele>
        <time>2022-06-27T12:33:18Z</time>
      </trkpt>
      <trkpt lat="42.3403710" lon="-3.7041400">
        <ele>862.4</ele>
        <time>2022-06-27T12:33:19Z</time>
      </trkpt>
      <trkpt lat="42.3399170" lon="-3.7041260">
        <ele>860.4</ele>
        <time>2022-06-27T13:57:01Z</time>
      </trkpt>
      <trkpt lat="42.3399110" lon="-3.7041200">
        <ele>860.4</ele>
        <time>2022-06-27T13:57:02Z</time>
      </trkpt>
      <trkpt lat="42.3399040" lon="-3.7041130">
        <ele>860.6</ele>
        <time>2022-06-27T13:57:03Z</time>
      </trkpt>
      <trkpt lat="42.3398980" lon="-3.7041070">
        <ele>860.6</ele>
        <time>2022-06-27T13:57:04Z</time>
      </trkpt>
      <trkpt lat="42.3398920" lon="-3.7041000">
        <ele>860.8</ele>
        <time>2022-06-27T13:57:05Z</time>
      </trkpt>
      <trkpt lat="42.3398860" lon="-3.7040940">
        <ele>861.2</ele>
        <time>2022-06-27T13:57:06Z</time>
      </trkpt>
      <trkpt lat="42.3398800" lon="-3.7040880">
        <ele>861.4</ele>
        <time>2022-06-27T13:57:07Z</time>
      </trkpt>
      <trkpt lat="42.3398740" lon="-3.7040810">
        <ele>861.6</ele>
        <time>2022-06-27T13:57:08Z</time>
      </trkpt>
      <trkpt lat="42.3398690" lon="-3.7040630">
        <ele>861.6</ele>
        <time>2022-06-27T13:57:09Z</time>
      </trkpt>
      <trkpt lat="42.3396540" lon="-3.7036750">
        <ele>862.2</ele>
        <time>2022-06-27T13:57:20Z</time>
      </trkpt>
      <trkpt lat="42.3396390" lon="-3.7036520">
        <ele>862.0</ele>
        <time>2022-06-27T13:57:21Z</time>
      </trkpt>
      <trkpt lat="42.3396230" lon="-3.7036280">
        <ele>862.0</ele>
        <time>2022-06-27T13:57:22Z</time>
      </trkpt>
      <trkpt lat="42.3396060" lon="-3.7036000">
        <ele>861.8</ele>
        <time>2022-06-27T13:57:23Z</time>
      </trkpt>
      <trkpt lat="42.3395870" lon="-3.7035720">
        <ele>862.0</ele>
        <time>2022-06-27T13:57:24Z</time>
      </trkpt>
      <trkpt lat="42.3395670" lon="-3.7035440">
        <ele>861.8</ele>
        <time>2022-06-27T13:57:25Z</time>
      </trkpt>
      <trkpt lat="42.3395470" lon="-3.7035110">
        <ele>861.8</ele>
        <time>2022-06-27T13:57:26Z</time>
      </trkpt>
      <trkpt lat="42.3395310" lon="-3.7034780">
        <ele>861.8</ele>
        <time>2022-06-27T13:57:27Z</time>
      </trkpt>
      <trkpt lat="42.3395130" lon="-3.7034420">
        <ele>862.0</ele>
        <time>2022-06-27T13:57:28Z</time>
      </trkpt>
      <trkpt lat="42.3394910" lon="-3.7034110">
        <ele>862.0</ele>
        <time>2022-06-27T13:57:29Z</time>
      </trkpt>
      <trkpt lat="42.3394720" lon="-3.7033810">
        <ele>862.2</ele>
        <time>2022-06-27T13:57:30Z</time>
      </trkpt>
      <trkpt lat="42.3394490" lon="-3.7033560">
        <ele>862.2</ele>
        <time>2022-06-27T13:57:31Z</time>
      </trkpt>
      <trkpt lat="42.3394290" lon="-3.7033320">
        <ele>862.4</ele>
        <time>2022-06-27T13:57:32Z</time>
      </trkpt>
      <trkpt lat="42.3394100" lon="-3.7033040">
        <ele>862.6</ele>
        <time>2022-06-27T13:57:33Z</time>
      </trkpt>
      <trkpt lat="42.3393930" lon="-3.7032750">
        <ele>862.6</ele>
        <time>2022-06-27T13:57:34Z</time>
      </trkpt>
      <trkpt lat="42.3393760" lon="-3.7032430">
        <ele>862.6</ele>
        <time>2022-06-27T13:57:35Z</time>
      </trkpt>
      <trkpt lat="42.3393590" lon="-3.7032180">
        <ele>863.2</ele>
        <time>2022-06-27T13:57:36Z</time>
      </trkpt>
      <trkpt lat="42.3393380" lon="-3.7031960">
        <ele>863.2</ele>
        <time>2022-06-27T13:57:37Z</time>
      </trkpt>
      <trkpt lat="42.3393160" lon="-3.7031760">
        <ele>863.2</ele>
        <time>2022-06-27T13:57:38Z</time>
      </trkpt>
      <trkpt lat="42.3392940" lon="-3.7031540">
        <ele>863.4</ele>
        <time>2022-06-27T13:57:39Z</time>
      </trkpt>
      <trkpt lat="42.3392730" lon="-3.7031320">
        <ele>863.4</ele>
        <time>2022-06-27T13:57:40Z</time>
      </trkpt>
      <trkpt lat="42.3392560" lon="-3.7031130">
        <ele>863.4</ele>
        <time>2022-06-27T13:57:41Z</time>
      </trkpt>
      <trkpt lat="42.3392330" lon="-3.7030940">
        <ele>863.6</ele>
        <time>2022-06-27T13:57:42Z</time>
      </trkpt>
      <trkpt lat="42.3392130" lon="-3.7030770">
        <ele>863.6</ele>
        <time>2022-06-27T13:57:43Z</time>
      </trkpt>
      <trkpt lat="42.3391930" lon="-3.7030590">
        <ele>863.6</ele>
        <time>2022-06-27T13:57:44Z</time>
      </trkpt>
      <trkpt lat="42.3391730" lon="-3.7030490">
        <ele>863.8</ele>
        <time>2022-06-27T13:57:45Z</time>
      </trkpt>
      <trkpt lat="42.3391500" lon="-3.7030510">
        <ele>863.8</ele>
        <time>2022-06-27T13:57:46Z</time>
      </trkpt>
      <trkpt lat="42.3391380" lon="-3.7030600">
        <ele>863.8</ele>
        <time>2022-06-27T13:57:47Z</time>
      </trkpt>
      <trkpt lat="42.3391250" lon="-3.7030810">
        <ele>863.8</ele>
        <time>2022-06-27T13:57:48Z</time>
      </trkpt>
      <trkpt lat="42.3391120" lon="-3.7031100">
        <ele>863.8</ele>
        <time>2022-06-27T13:57:49Z</time>
      </trkpt>
      <trkpt lat="42.3391000" lon="-3.7031440">
        <ele>863.8</ele>
        <time>2022-06-27T13:57:50Z</time>
      </trkpt>
      <trkpt lat="42.3390880" lon="-3.7031820">
        <ele>863.8</ele>
        <time>2022-06-27T13:57:51Z</time>
      </trkpt>
      <trkpt lat="42.3390760" lon="-3.7032240">
        <ele>863.8</ele>
        <time>2022-06-27T13:57:52Z</time>
      </trkpt>
      <trkpt lat="42.3390660" lon="-3.7032660">
        <ele>863.8</ele>
        <time>2022-06-27T13:57:53Z</time>
      </trkpt>
      <trkpt lat="42.3390510" lon="-3.7033070">
        <ele>863.8</ele>
        <time>2022-06-27T13:57:54Z</time>
      </trkpt>
      <trkpt lat="42.3390340" lon="-3.7033500">
        <ele>863.8</ele>
        <time>2022-06-27T13:57:55Z</time>
      </trkpt>
      <trkpt lat="42.3390160" lon="-3.7033950">
        <ele>863.8</ele>
        <time>2022-06-27T13:57:56Z</time>
      </trkpt>
      <trkpt lat="42.3389960" lon="-3.7034400">
        <ele>863.6</ele>
        <time>2022-06-27T13:57:57Z</time>
      </trkpt>
      <trkpt lat="42.3389770" lon="-3.7034890">
        <ele>863.4</ele>
        <time>2022-06-27T13:57:58Z</time>
      </trkpt>
      <trkpt lat="42.3389570" lon="-3.7035380">
        <ele>863.4</ele>
        <time>2022-06-27T13:57:59Z</time>
      </trkpt>
      <trkpt lat="42.3389350" lon="-3.7035850">
        <ele>863.0</ele>
        <time>2022-06-27T13:58:00Z</time>
      </trkpt>
      <trkpt lat="42.3389120" lon="-3.7036310">
        <ele>862.8</ele>
        <time>2022-06-27T13:58:01Z</time>
      </trkpt>
      <trkpt lat="42.3388890" lon="-3.7036750">
        <ele>862.8</ele>
        <time>2022-06-27T13:58:02Z</time>
      </trkpt>
      <trkpt lat="42.3388680" lon="-3.7037190">
        <ele>862.6</ele>
        <time>2022-06-27T13:58:03Z</time>
      </trkpt>
      <trkpt lat="42.3388510" lon="-3.7037580">
        <ele>862.6</ele>
        <time>2022-06-27T13:58:04Z</time>
      </trkpt>
      <trkpt lat="42.3388350" lon="-3.7037890">
        <ele>862.4</ele>
        <time>2022-06-27T13:58:05Z</time>
      </trkpt>
      <trkpt lat="42.3388180" lon="-3.7038130">
        <ele>862.4</ele>
        <time>2022-06-27T13:58:06Z</time>
      </trkpt>
      <trkpt lat="42.3388000" lon="-3.7038400">
        <ele>862.4</ele>
        <time>2022-06-27T13:58:07Z</time>
      </trkpt>
      <trkpt lat="42.3387840" lon="-3.7038610">
        <ele>862.4</ele>
        <time>2022-06-27T13:58:08Z</time>
      </trkpt>
      <trkpt lat="42.3387630" lon="-3.7038910">
        <ele>862.4</ele>
        <time>2022-06-27T13:58:09Z</time>
      </trkpt>
      <trkpt lat="42.3387400" lon="-3.7039250">
        <ele>862.4</ele>
        <time>2022-06-27T13:58:10Z</time>
      </trkpt>
      <trkpt lat="42.3387100" lon="-3.7039700">
        <ele>862.4</ele>
        <time>2022-06-27T13:58:11Z</time>
      </trkpt>
      <trkpt lat="42.3386790" lon="-3.7040200">
        <ele>862.4</ele>
        <time>2022-06-27T13:58:12Z</time>
      </trkpt>
      <trkpt lat="42.3386480" lon="-3.7040710">
        <ele>862.4</ele>
        <time>2022-06-27T13:58:13Z</time>
      </trkpt>
      <trkpt lat="42.3386200" lon="-3.7041080">
        <ele>862.4</ele>
        <time>2022-06-27T13:58:14Z</time>
      </trkpt>
      <trkpt lat="42.3385900" lon="-3.7041460">
        <ele>862.4</ele>
        <time>2022-06-27T13:58:15Z</time>
      </trkpt>
      <trkpt lat="42.3385620" lon="-3.7041920">
        <ele>862.2</ele>
        <time>2022-06-27T13:58:16Z</time>
      </trkpt>
      <trkpt lat="42.3385350" lon="-3.7042510">
        <ele>862.2</ele>
        <time>2022-06-27T13:58:17Z</time>
      </trkpt>
      <trkpt lat="42.3385040" lon="-3.7043050">
        <ele>862.2</ele>
        <time>2022-06-27T13:58:18Z</time>
      </trkpt>
      <trkpt lat="42.3384730" lon="-3.7043470">
        <ele>862.0</ele>
        <time>2022-06-27T13:58:19Z</time>
      </trkpt>
      <trkpt lat="42.3384420" lon="-3.7043890">
        <ele>862.0</ele>
        <time>2022-06-27T13:58:20Z</time>
      </trkpt>
      <trkpt lat="42.3384160" lon="-3.7044290">
        <ele>862.0</ele>
        <time>2022-06-27T13:58:21Z</time>
      </trkpt>
      <trkpt lat="42.3383950" lon="-3.7044690">
        <ele>862.0</ele>
        <time>2022-06-27T13:58:22Z</time>
      </trkpt>
      <trkpt lat="42.3383690" lon="-3.7045140">
        <ele>862.0</ele>
        <time>2022-06-27T13:58:23Z</time>
      </trkpt>
      <trkpt lat="42.3383360" lon="-3.7045650">
        <ele>862.0</ele>
        <time>2022-06-27T13:58:24Z</time>
      </trkpt>
      <trkpt lat="42.3383080" lon="-3.7046030">
        <ele>862.0</ele>
        <time>2022-06-27T13:58:25Z</time>
      </trkpt>
      <trkpt lat="42.3382840" lon="-3.7046410">
        <ele>862.0</ele>
        <time>2022-06-27T13:58:26Z</time>
      </trkpt>
      <trkpt lat="42.3382640" lon="-3.7046720">
        <ele>862.0</ele>
        <time>2022-06-27T13:58:27Z</time>
      </trkpt>
      <trkpt lat="42.3382430" lon="-3.7046970">
        <ele>862.2</ele>
        <time>2022-06-27T13:58:28Z</time>
      </trkpt>
      <trkpt lat="42.3382110" lon="-3.7047390">
        <ele>862.2</ele>
        <time>2022-06-27T13:58:29Z</time>
      </trkpt>
      <trkpt lat="42.3381710" lon="-3.7047940">
        <ele>862.4</ele>
        <time>2022-06-27T13:58:30Z</time>
      </trkpt>
      <trkpt lat="42.3381340" lon="-3.7048530">
        <ele>862.4</ele>
        <time>2022-06-27T13:58:31Z</time>
      </trkpt>
      <trkpt lat="42.3380990" lon="-3.7049140">
        <ele>862.6</ele>
        <time>2022-06-27T13:58:32Z</time>
      </trkpt>
      <trkpt lat="42.3380700" lon="-3.7049620">
        <ele>862.6</ele>
        <time>2022-06-27T13:58:33Z</time>
      </trkpt>
      <trkpt lat="42.3380410" lon="-3.7050090">
        <ele>862.4</ele>
        <time>2022-06-27T13:58:34Z</time>
      </trkpt>
      <trkpt lat="42.3380310" lon="-3.7050330">
        <ele>862.6</ele>
        <time>2022-06-27T13:58:35Z</time>
      </trkpt>
      <trkpt lat="42.3380080" lon="-3.7050620">
        <ele>862.6</ele>
        <time>2022-06-27T13:58:36Z</time>
      </trkpt>
      <trkpt lat="42.3379840" lon="-3.7050850">
        <ele>862.6</ele>
        <time>2022-06-27T13:58:37Z</time>
      </trkpt>
      <trkpt lat="42.3379380" lon="-3.7051390">
        <ele>862.6</ele>
        <time>2022-06-27T13:58:38Z</time>
      </trkpt>
      <trkpt lat="42.3378940" lon="-3.7051850">
        <ele>862.6</ele>
        <time>2022-06-27T13:58:39Z</time>
      </trkpt>
      <trkpt lat="42.3378560" lon="-3.7052260">
        <ele>862.4</ele>
        <time>2022-06-27T13:58:40Z</time>
      </trkpt>
      <trkpt lat="42.3378190" lon="-3.7052670">
        <ele>862.2</ele>
        <time>2022-06-27T13:58:41Z</time>
      </trkpt>
      <trkpt lat="42.3377780" lon="-3.7053050">
        <ele>862.2</ele>
        <time>2022-06-27T13:58:42Z</time>
      </trkpt>
      <trkpt lat="42.3377400" lon="-3.7053390">
        <ele>862.0</ele>
        <time>2022-06-27T13:58:43Z</time>
      </trkpt>
      <trkpt lat="42.3377030" lon="-3.7053810">
        <ele>861.8</ele>
        <time>2022-06-27T13:58:44Z</time>
      </trkpt>
      <trkpt lat="42.3376720" lon="-3.7054230">
        <ele>861.8</ele>
        <time>2022-06-27T13:58:45Z</time>
      </trkpt>
      <trkpt lat="42.3376430" lon="-3.7054630">
        <ele>861.6</ele>
        <time>2022-06-27T13:58:46Z</time>
      </trkpt>
      <trkpt lat="42.3376260" lon="-3.7055000">
        <ele>861.4</ele>
        <time>2022-06-27T13:58:47Z</time>
      </trkpt>
      <trkpt lat="42.3376030" lon="-3.7055320">
        <ele>861.4</ele>
        <time>2022-06-27T13:58:48Z</time>
      </trkpt>
      <trkpt lat="42.3375820" lon="-3.7055660">
        <ele>861.2</ele>
        <time>2022-06-27T13:58:49Z</time>
      </trkpt>
      <trkpt lat="42.3375590" lon="-3.7056080">
        <ele>861.2</ele>
        <time>2022-06-27T13:58:50Z</time>
      </trkpt>
      <trkpt lat="42.3375400" lon="-3.7056460">
        <ele>861.2</ele>
        <time>2022-06-27T13:58:51Z</time>
      </trkpt>
      <trkpt lat="42.3375180" lon="-3.7056860">
        <ele>861.2</ele>
        <time>2022-06-27T13:58:52Z</time>
      </trkpt>
      <trkpt lat="42.3374950" lon="-3.7057130">
        <ele>861.2</ele>
        <time>2022-06-27T13:58:53Z</time>
      </trkpt>
      <trkpt lat="42.3374730" lon="-3.7057510">
        <ele>861.2</ele>
        <time>2022-06-27T13:58:54Z</time>
      </trkpt>
      <trkpt lat="42.3374520" lon="-3.7057970">
        <ele>861.2</ele>
        <time>2022-06-27T13:58:55Z</time>
      </trkpt>
      <trkpt lat="42.3374330" lon="-3.7058440">
        <ele>861.4</ele>
        <time>2022-06-27T13:58:56Z</time>
      </trkpt>
      <trkpt lat="42.3374140" lon="-3.7058940">
        <ele>861.6</ele>
        <time>2022-06-27T13:58:57Z</time>
      </trkpt>
      <trkpt lat="42.3373940" lon="-3.7059460">
        <ele>861.6</ele>
        <time>2022-06-27T13:58:58Z</time>
      </trkpt>
      <trkpt lat="42.3373690" lon="-3.7060020">
        <ele>861.6</ele>
        <time>2022-06-27T13:58:59Z</time>
      </trkpt>
      <trkpt lat="42.3373440" lon="-3.7060600">
        <ele>861.6</ele>
        <time>2022-06-27T13:59:00Z</time>
      </trkpt>
      <trkpt lat="42.3373170" lon="-3.7061120">
        <ele>861.6</ele>
        <time>2022-06-27T13:59:01Z</time>
      </trkpt>
      <trkpt lat="42.3372920" lon="-3.7061640">
        <ele>861.6</ele>
        <time>2022-06-27T13:59:02Z</time>
      </trkpt>
      <trkpt lat="42.3372660" lon="-3.7062210">
        <ele>861.6</ele>
        <time>2022-06-27T13:59:03Z</time>
      </trkpt>
      <trkpt lat="42.3372400" lon="-3.7062820">
        <ele>861.6</ele>
        <time>2022-06-27T13:59:04Z</time>
      </trkpt>
      <trkpt lat="42.3372150" lon="-3.7063450">
        <ele>861.6</ele>
        <time>2022-06-27T13:59:05Z</time>
      </trkpt>
      <trkpt lat="42.3371930" lon="-3.7064080">
        <ele>861.6</ele>
        <time>2022-06-27T13:59:06Z</time>
      </trkpt>
      <trkpt lat="42.3371670" lon="-3.7064730">
        <ele>861.6</ele>
        <time>2022-06-27T13:59:07Z</time>
      </trkpt>
      <trkpt lat="42.3371460" lon="-3.7065290">
        <ele>861.6</ele>
        <time>2022-06-27T13:59:08Z</time>
      </trkpt>
      <trkpt lat="42.3371220" lon="-3.7065910">
        <ele>861.6</ele>
        <time>2022-06-27T13:59:09Z</time>
      </trkpt>
      <trkpt lat="42.3370940" lon="-3.7066590">
        <ele>861.8</ele>
        <time>2022-06-27T13:59:10Z</time>
      </trkpt>
      <trkpt lat="42.3370680" lon="-3.7067230">
        <ele>861.8</ele>
        <time>2022-06-27T13:59:11Z</time>
      </trkpt>
      <trkpt lat="42.3370460" lon="-3.7067890">
        <ele>861.8</ele>
        <time>2022-06-27T13:59:12Z</time>
      </trkpt>
      <trkpt lat="42.3370290" lon="-3.7068520">
        <ele>861.8</ele>
        <time>2022-06-27T13:59:13Z</time>
      </trkpt>
      <trkpt lat="42.3370150" lon="-3.7069100">
        <ele>861.8</ele>
        <time>2022-06-27T13:59:14Z</time>
      </trkpt>
      <trkpt lat="42.3369960" lon="-3.7069700">
        <ele>861.8</ele>
        <time>2022-06-27T13:59:15Z</time>
      </trkpt>
      <trkpt lat="42.3369780" lon="-3.7070340">
        <ele>861.8</ele>
        <time>2022-06-27T13:59:16Z</time>
      </trkpt>
      <trkpt lat="42.3369650" lon="-3.7070980">
        <ele>861.8</ele>
        <time>2022-06-27T13:59:17Z</time>
      </trkpt>
      <trkpt lat="42.3369540" lon="-3.7071620">
        <ele>861.8</ele>
        <time>2022-06-27T13:59:18Z</time>
      </trkpt>
      <trkpt lat="42.3369430" lon="-3.7072380">
        <ele>861.8</ele>
        <time>2022-06-27T13:59:19Z</time>
      </trkpt>
      <trkpt lat="42.3369330" lon="-3.7073060">
        <ele>861.8</ele>
        <time>2022-06-27T13:59:20Z</time>
      </trkpt>
      <trkpt lat="42.3369230" lon="-3.7073760">
        <ele>861.8</ele>
        <time>2022-06-27T13:59:21Z</time>
      </trkpt>
      <trkpt lat="42.3369140" lon="-3.7074330">
        <ele>861.8</ele>
        <time>2022-06-27T13:59:22Z</time>
      </trkpt>
      <trkpt lat="42.3369060" lon="-3.7074920">
        <ele>861.8</ele>
        <time>2022-06-27T13:59:23Z</time>
      </trkpt>
      <trkpt lat="42.3369000" lon="-3.7075560">
        <ele>861.8</ele>
        <time>2022-06-27T13:59:24Z</time>
      </trkpt>
      <trkpt lat="42.3368860" lon="-3.7076160">
        <ele>861.8</ele>
        <time>2022-06-27T13:59:25Z</time>
      </trkpt>
      <trkpt lat="42.3368800" lon="-3.7076730">
        <ele>861.8</ele>
        <time>2022-06-27T13:59:26Z</time>
      </trkpt>
      <trkpt lat="42.3368740" lon="-3.7077290">
        <ele>862.0</ele>
        <time>2022-06-27T13:59:27Z</time>
      </trkpt>
      <trkpt lat="42.3368680" lon="-3.7077620">
        <ele>862.2</ele>
        <time>2022-06-27T13:59:28Z</time>
      </trkpt>
      <trkpt lat="42.3368380" lon="-3.7078150">
        <ele>862.2</ele>
        <time>2022-06-27T13:59:29Z</time>
      </trkpt>
      <trkpt lat="42.3368250" lon="-3.7078670">
        <ele>862.2</ele>
        <time>2022-06-27T13:59:30Z</time>
      </trkpt>
      <trkpt lat="42.3368090" lon="-3.7079230">
        <ele>862.2</ele>
        <time>2022-06-27T13:59:31Z</time>
      </trkpt>
      <trkpt lat="42.3367880" lon="-3.7079770">
        <ele>862.2</ele>
        <time>2022-06-27T13:59:32Z</time>
      </trkpt>
      <trkpt lat="42.3367680" lon="-3.7080080">
        <ele>862.2</ele>
        <time>2022-06-27T13:59:33Z</time>
      </trkpt>
      <trkpt lat="42.3367420" lon="-3.7080500">
        <ele>862.2</ele>
        <time>2022-06-27T13:59:34Z</time>
      </trkpt>
      <trkpt lat="42.3367230" lon="-3.7080990">
        <ele>862.2</ele>
        <time>2022-06-27T13:59:35Z</time>
      </trkpt>
      <trkpt lat="42.3367210" lon="-3.7081660">
        <ele>862.2</ele>
        <time>2022-06-27T13:59:36Z</time>
      </trkpt>
      <trkpt lat="42.3367230" lon="-3.7082310">
        <ele>862.2</ele>
        <time>2022-06-27T13:59:37Z</time>
      </trkpt>
      <trkpt lat="42.3367300" lon="-3.7082990">
        <ele>862.0</ele>
        <time>2022-06-27T13:59:38Z</time>
      </trkpt>
      <trkpt lat="42.3367400" lon="-3.7083550">
        <ele>862.0</ele>
        <time>2022-06-27T13:59:39Z</time>
      </trkpt>
      <trkpt lat="42.3367400" lon="-3.7084170">
        <ele>861.8</ele>
        <time>2022-06-27T13:59:40Z</time>
      </trkpt>
      <trkpt lat="42.3367410" lon="-3.7084900">
        <ele>861.8</ele>
        <time>2022-06-27T13:59:41Z</time>
      </trkpt>
      <trkpt lat="42.3367320" lon="-3.7085510">
        <ele>861.8</ele>
        <time>2022-06-27T13:59:42Z</time>
      </trkpt>
      <trkpt lat="42.3367230" lon="-3.7086020">
        <ele>861.8</ele>
        <time>2022-06-27T13:59:43Z</time>
      </trkpt>
      <trkpt lat="42.3367200" lon="-3.7086690">
        <ele>861.6</ele>
        <time>2022-06-27T13:59:44Z</time>
      </trkpt>
      <trkpt lat="42.3367210" lon="-3.7087460">
        <ele>861.4</ele>
        <time>2022-06-27T13:59:45Z</time>
      </trkpt>
      <trkpt lat="42.3367250" lon="-3.7088080">
        <ele>861.4</ele>
        <time>2022-06-27T13:59:46Z</time>
      </trkpt>
      <trkpt lat="42.3367320" lon="-3.7088800">
        <ele>861.2</ele>
        <time>2022-06-27T13:59:47Z</time>
      </trkpt>
      <trkpt lat="42.3367410" lon="-3.7089430">
        <ele>861.0</ele>
        <time>2022-06-27T13:59:48Z</time>
      </trkpt>
      <trkpt lat="42.3367550" lon="-3.7090260">
        <ele>861.0</ele>
        <time>2022-06-27T13:59:49Z</time>
      </trkpt>
      <trkpt lat="42.3367680" lon="-3.7091240">
        <ele>861.0</ele>
        <time>2022-06-27T13:59:50Z</time>
      </trkpt>
      <trkpt lat="42.3367770" lon="-3.7092080">
        <ele>860.8</ele>
        <time>2022-06-27T13:59:51Z</time>
      </trkpt>
      <trkpt lat="42.3367870" lon="-3.7092950">
        <ele>860.6</ele>
        <time>2022-06-27T13:59:52Z</time>
      </trkpt>
      <trkpt lat="42.3367960" lon="-3.7093850">
        <ele>860.4</ele>
        <time>2022-06-27T13:59:53Z</time>
      </trkpt>
      <trkpt lat="42.3368060" lon="-3.7094590">
        <ele>860.2</ele>
        <time>2022-06-27T13:59:54Z</time>
      </trkpt>
      <trkpt lat="42.3368220" lon="-3.7095520">
        <ele>860.2</ele>
        <time>2022-06-27T13:59:55Z</time>
      </trkpt>
      <trkpt lat="42.3368490" lon="-3.7096550">
        <ele>860.0</ele>
        <time>2022-06-27T13:59:56Z</time>
      </trkpt>
      <trkpt lat="42.3368760" lon="-3.7097400">
        <ele>860.0</ele>
        <time>2022-06-27T13:59:57Z</time>
      </trkpt>
      <trkpt lat="42.3369070" lon="-3.7098290">
        <ele>859.8</ele>
        <time>2022-06-27T13:59:58Z</time>
      </trkpt>
      <trkpt lat="42.3369330" lon="-3.7098930">
        <ele>859.4</ele>
        <time>2022-06-27T13:59:59Z</time>
      </trkpt>
      <trkpt lat="42.3369700" lon="-3.7099760">
        <ele>859.4</ele>
        <time>2022-06-27T14:00:00Z</time>
      </trkpt>
      <trkpt lat="42.3370120" lon="-3.7100640">
        <ele>859.4</ele>
        <time>2022-06-27T14:00:01Z</time>
      </trkpt>
      <trkpt lat="42.3370430" lon="-3.7101380">
        <ele>859.4</ele>
        <time>2022-06-27T14:00:02Z</time>
      </trkpt>
      <trkpt lat="42.3370720" lon="-3.7102160">
        <ele>859.4</ele>
        <time>2022-06-27T14:00:03Z</time>
      </trkpt>
      <trkpt lat="42.3370940" lon="-3.7102810">
        <ele>859.4</ele>
        <time>2022-06-27T14:00:04Z</time>
      </trkpt>
      <trkpt lat="42.3371260" lon="-3.7103700">
        <ele>859.6</ele>
        <time>2022-06-27T14:00:05Z</time>
      </trkpt>
      <trkpt lat="42.3371720" lon="-3.7104810">
        <ele>859.6</ele>
        <time>2022-06-27T14:00:06Z</time>
      </trkpt>
      <trkpt lat="42.3372030" lon="-3.7105580">
        <ele>859.6</ele>
        <time>2022-06-27T14:00:07Z</time>
      </trkpt>
      <trkpt lat="42.3372400" lon="-3.7106440">
        <ele>859.4</ele>
        <time>2022-06-27T14:00:08Z</time>
      </trkpt>
      <trkpt lat="42.3372730" lon="-3.7107380">
        <ele>859.4</ele>
        <time>2022-06-27T14:00:09Z</time>
      </trkpt>
      <trkpt lat="42.3373070" lon="-3.7108330">
        <ele>859.4</ele>
        <time>2022-06-27T14:00:10Z</time>
      </trkpt>
      <trkpt lat="42.3373440" lon="-3.7109270">
        <ele>859.2</ele>
        <time>2022-06-27T14:00:11Z</time>
      </trkpt>
      <trkpt lat="42.3373870" lon="-3.7110130">
        <ele>859.2</ele>
        <time>2022-06-27T14:00:12Z</time>
      </trkpt>
      <trkpt lat="42.3374220" lon="-3.7110970">
        <ele>858.8</ele>
        <time>2022-06-27T14:00:13Z</time>
      </trkpt>
      <trkpt lat="42.3374580" lon="-3.7111830">
        <ele>858.6</ele>
        <time>2022-06-27T14:00:14Z</time>
      </trkpt>
      <trkpt lat="42.3375000" lon="-3.7112700">
        <ele>858.4</ele>
        <time>2022-06-27T14:00:15Z</time>
      </trkpt>
      <trkpt lat="42.3375410" lon="-3.7113580">
        <ele>858.4</ele>
        <time>2022-06-27T14:00:16Z</time>
      </trkpt>
      <trkpt lat="42.3375830" lon="-3.7114370">
        <ele>858.2</ele>
        <time>2022-06-27T14:00:17Z</time>
      </trkpt>
      <trkpt lat="42.3376180" lon="-3.7115070">
        <ele>858.2</ele>
        <time>2022-06-27T14:00:18Z</time>
      </trkpt>
      <trkpt lat="42.3376580" lon="-3.7115740">
        <ele>857.8</ele>
        <time>2022-06-27T14:00:19Z</time>
      </trkpt>
      <trkpt lat="42.3376980" lon="-3.7116440">
        <ele>857.8</ele>
        <time>2022-06-27T14:00:20Z</time>
      </trkpt>
      <trkpt lat="42.3377220" lon="-3.7117060">
        <ele>857.6</ele>
        <time>2022-06-27T14:00:21Z</time>
      </trkpt>
      <trkpt lat="42.3377510" lon="-3.7117590">
        <ele>857.6</ele>
        <time>2022-06-27T14:00:22Z</time>
      </trkpt>
      <trkpt lat="42.3377800" lon="-3.7118070">
        <ele>857.4</ele>
        <time>2022-06-27T14:00:23Z</time>
      </trkpt>
      <trkpt lat="42.3378030" lon="-3.7118420">
        <ele>857.4</ele>
        <time>2022-06-27T14:00:24Z</time>
      </trkpt>
      <trkpt lat="42.3378150" lon="-3.7118730">
        <ele>857.4</ele>
        <time>2022-06-27T14:00:25Z</time>
      </trkpt>
      <trkpt lat="42.3378210" lon="-3.7118910">
        <ele>857.4</ele>
        <time>2022-06-27T14:00:26Z</time>
      </trkpt>
      <trkpt lat="42.3378280" lon="-3.7119080">
        <ele>857.4</ele>
        <time>2022-06-27T14:00:27Z</time>
      </trkpt>
      <trkpt lat="42.3378390" lon="-3.7119280">
        <ele>857.4</ele>
        <time>2022-06-27T14:00:28Z</time>
      </trkpt>
      <trkpt lat="42.3378540" lon="-3.7119530">
        <ele>857.2</ele>
        <time>2022-06-27T14:00:29Z</time>
      </trkpt>
      <trkpt lat="42.3378710" lon="-3.7119840">
        <ele>857.2</ele>
        <time>2022-06-27T14:00:30Z</time>
      </trkpt>
      <trkpt lat="42.3378880" lon="-3.7120180">
        <ele>857.4</ele>
        <time>2022-06-27T14:00:31Z</time>
      </trkpt>
      <trkpt lat="42.3379060" lon="-3.7120570">
        <ele>857.4</ele>
        <time>2022-06-27T14:00:32Z</time>
      </trkpt>
      <trkpt lat="42.3379270" lon="-3.7121010">
        <ele>857.6</ele>
        <time>2022-06-27T14:00:33Z</time>
      </trkpt>
      <trkpt lat="42.3379470" lon="-3.7121490">
        <ele>857.6</ele>
        <time>2022-06-27T14:00:34Z</time>
      </trkpt>
      <trkpt lat="42.3379760" lon="-3.7122010">
        <ele>857.6</ele>
        <time>2022-06-27T14:00:35Z</time>
      </trkpt>
      <trkpt lat="42.3380100" lon="-3.7122480">
        <ele>857.6</ele>
        <time>2022-06-27T14:00:36Z</time>
      </trkpt>
      <trkpt lat="42.3380420" lon="-3.7122970">
        <ele>857.6</ele>
        <time>2022-06-27T14:00:37Z</time>
      </trkpt>
      <trkpt lat="42.3380710" lon="-3.7123400">
        <ele>857.4</ele>
        <time>2022-06-27T14:00:38Z</time>
      </trkpt>
      <trkpt lat="42.3380990" lon="-3.7123810">
        <ele>857.4</ele>
        <time>2022-06-27T14:00:39Z</time>
      </trkpt>
      <trkpt lat="42.3381310" lon="-3.7124300">
        <ele>857.2</ele>
        <time>2022-06-27T14:00:40Z</time>
      </trkpt>
      <trkpt lat="42.3381730" lon="-3.7124880">
        <ele>857.2</ele>
        <time>2022-06-27T14:00:41Z</time>
      </trkpt>
      <trkpt lat="42.3382160" lon="-3.7125500">
        <ele>857.0</ele>
        <time>2022-06-27T14:00:42Z</time>
      </trkpt>
      <trkpt lat="42.3382590" lon="-3.7126190">
        <ele>857.0</ele>
        <time>2022-06-27T14:00:43Z</time>
      </trkpt>
      <trkpt lat="42.3383080" lon="-3.7126980">
        <ele>857.0</ele>
        <time>2022-06-27T14:00:44Z</time>
      </trkpt>
      <trkpt lat="42.3383540" lon="-3.7127750">
        <ele>856.8</ele>
        <time>2022-06-27T14:00:45Z</time>
      </trkpt>
      <trkpt lat="42.3384000" lon="-3.7128510">
        <ele>857.0</ele>
        <time>2022-06-27T14:00:46Z</time>
      </trkpt>
      <trkpt lat="42.3384440" lon="-3.7129280">
        <ele>856.8</ele>
        <time>2022-06-27T14:00:47Z</time>
      </trkpt>
      <trkpt lat="42.3384860" lon="-3.7130100">
        <ele>856.8</ele>
        <time>2022-06-27T14:00:48Z</time>
      </trkpt>
      <trkpt lat="42.3385230" lon="-3.7130910">
        <ele>856.8</ele>
        <time>2022-06-27T14:00:49Z</time>
      </trkpt>
      <trkpt lat="42.3385530" lon="-3.7131670">
        <ele>856.6</ele>
        <time>2022-06-27T14:00:50Z</time>
      </trkpt>
      <trkpt lat="42.3385890" lon="-3.7132560">
        <ele>856.6</ele>
        <time>2022-06-27T14:00:51Z</time>
      </trkpt>
      <trkpt lat="42.3386230" lon="-3.7133340">
        <ele>856.6</ele>
        <time>2022-06-27T14:00:52Z</time>
      </trkpt>
      <trkpt lat="42.3386540" lon="-3.7134130">
        <ele>856.6</ele>
        <time>2022-06-27T14:00:53Z</time>
      </trkpt>
      <trkpt lat="42.3386840" lon="-3.7134940">
        <ele>856.6</ele>
        <time>2022-06-27T14:00:54Z</time>
      </trkpt>
      <trkpt lat="42.3387130" lon="-3.7135750">
        <ele>856.4</ele>
        <time>2022-06-27T14:00:55Z</time>
      </trkpt>
      <trkpt lat="42.3387420" lon="-3.7136470">
        <ele>856.4</ele>
        <time>2022-06-27T14:00:56Z</time>
      </trkpt>
      <trkpt lat="42.3387770" lon="-3.7137400">
        <ele>856.4</ele>
        <time>2022-06-27T14:00:57Z</time>
      </trkpt>
      <trkpt lat="42.3388010" lon="-3.7138000">
        <ele>856.2</ele>
        <time>2022-06-27T14:00:58Z</time>
      </trkpt>
      <trkpt lat="42.3388300" lon="-3.7138570">
        <ele>856.2</ele>
        <time>2022-06-27T14:00:59Z</time>
      </trkpt>
      <trkpt lat="42.3388540" lon="-3.7139280">
        <ele>856.2</ele>
        <time>2022-06-27T14:01:00Z</time>
      </trkpt>
      <trkpt lat="42.3388740" lon="-3.7140020">
        <ele>856.4</ele>
        <time>2022-06-27T14:01:01Z</time>
      </trkpt>
      <trkpt lat="42.3388970" lon="-3.7140750">
        <ele>856.4</ele>
        <time>2022-06-27T14:01:02Z</time>
      </trkpt>
      <trkpt lat="42.3389200" lon="-3.7141320">
        <ele>856.4</ele>
        <time>2022-06-27T14:01:03Z</time>
      </trkpt>
      <trkpt lat="42.3389540" lon="-3.7142040">
        <ele>856.6</ele>
        <time>2022-06-27T14:01:04Z</time>
      </trkpt>
      <trkpt lat="42.3389820" lon="-3.7142770">
        <ele>856.8</ele>
        <time>2022-06-27T14:01:05Z</time>
      </trkpt>
      <trkpt lat="42.3390110" lon="-3.7143410">
        <ele>856.8</ele>
        <time>2022-06-27T14:01:06Z</time>
      </trkpt>
      <trkpt lat="42.3390340" lon="-3.7144100">
        <ele>856.8</ele>
        <time>2022-06-27T14:01:07Z</time>
      </trkpt>
      <trkpt lat="42.3390610" lon="-3.7144810">
        <ele>856.8</ele>
        <time>2022-06-27T14:01:08Z</time>
      </trkpt>
      <trkpt lat="42.3390950" lon="-3.7145740">
        <ele>856.8</ele>
        <time>2022-06-27T14:01:09Z</time>
      </trkpt>
      <trkpt lat="42.3391150" lon="-3.7146450">
        <ele>856.8</ele>
        <time>2022-06-27T14:01:10Z</time>
      </trkpt>
      <trkpt lat="42.3391500" lon="-3.7147140">
        <ele>856.8</ele>
        <time>2022-06-27T14:01:11Z</time>
      </trkpt>
      <trkpt lat="42.3391790" lon="-3.7148020">
        <ele>856.8</ele>
        <time>2022-06-27T14:01:12Z</time>
      </trkpt>
      <trkpt lat="42.3392060" lon="-3.7148830">
        <ele>856.6</ele>
        <time>2022-06-27T14:01:13Z</time>
      </trkpt>
      <trkpt lat="42.3392270" lon="-3.7149580">
        <ele>856.6</ele>
        <time>2022-06-27T14:01:14Z</time>
      </trkpt>
      <trkpt lat="42.3392530" lon="-3.7150240">
        <ele>856.6</ele>
        <time>2022-06-27T14:01:15Z</time>
      </trkpt>
      <trkpt lat="42.3392750" lon="-3.7150940">
        <ele>856.6</ele>
        <time>2022-06-27T14:01:16Z</time>
      </trkpt>
      <trkpt lat="42.3393140" lon="-3.7151900">
        <ele>856.6</ele>
        <time>2022-06-27T14:01:17Z</time>
      </trkpt>
      <trkpt lat="42.3393410" lon="-3.7152850">
        <ele>856.6</ele>
        <time>2022-06-27T14:01:18Z</time>
      </trkpt>
      <trkpt lat="42.3393660" lon="-3.7153540">
        <ele>856.4</ele>
        <time>2022-06-27T14:01:19Z</time>
      </trkpt>
      <trkpt lat="42.3393810" lon="-3.7154220">
        <ele>856.4</ele>
        <time>2022-06-27T14:01:20Z</time>
      </trkpt>
      <trkpt lat="42.3394070" lon="-3.7155050">
        <ele>856.4</ele>
        <time>2022-06-27T14:01:21Z</time>
      </trkpt>
      <trkpt lat="42.3394370" lon="-3.7155900">
        <ele>856.4</ele>
        <time>2022-06-27T14:01:22Z</time>
      </trkpt>
      <trkpt lat="42.3394570" lon="-3.7156730">
        <ele>856.4</ele>
        <time>2022-06-27T14:01:23Z</time>
      </trkpt>
      <trkpt lat="42.3394760" lon="-3.7157720">
        <ele>856.6</ele>
        <time>2022-06-27T14:01:24Z</time>
      </trkpt>
      <trkpt lat="42.3395020" lon="-3.7158680">
        <ele>856.4</ele>
        <time>2022-06-27T14:01:25Z</time>
      </trkpt>
      <trkpt lat="42.3395300" lon="-3.7159620">
        <ele>856.6</ele>
        <time>2022-06-27T14:01:26Z</time>
      </trkpt>
      <trkpt lat="42.3395500" lon="-3.7160530">
        <ele>856.4</ele>
        <time>2022-06-27T14:01:27Z</time>
      </trkpt>
      <trkpt lat="42.3395730" lon="-3.7161310">
        <ele>856.4</ele>
        <time>2022-06-27T14:01:28Z</time>
      </trkpt>
      <trkpt lat="42.3395950" lon="-3.7162330">
        <ele>856.2</ele>
        <time>2022-06-27T14:01:29Z</time>
      </trkpt>
      <trkpt lat="42.3396200" lon="-3.7163180">
        <ele>856.2</ele>
        <time>2022-06-27T14:01:30Z</time>
      </trkpt>
      <trkpt lat="42.3396390" lon="-3.7163900">
        <ele>856.4</ele>
        <time>2022-06-27T14:01:31Z</time>
      </trkpt>
      <trkpt lat="42.3396600" lon="-3.7164690">
        <ele>856.2</ele>
        <time>2022-06-27T14:01:32Z</time>
      </trkpt>
      <trkpt lat="42.3396820" lon="-3.7165480">
        <ele>856.2</ele>
        <time>2022-06-27T14:01:33Z</time>
      </trkpt>
      <trkpt lat="42.3397050" lon="-3.7166320">
        <ele>856.0</ele>
        <time>2022-06-27T14:01:34Z</time>
      </trkpt>
      <trkpt lat="42.3397300" lon="-3.7167310">
        <ele>856.0</ele>
        <time>2022-06-27T14:01:35Z</time>
      </trkpt>
      <trkpt lat="42.3397520" lon="-3.7168120">
        <ele>856.0</ele>
        <time>2022-06-27T14:01:36Z</time>
      </trkpt>
      <trkpt lat="42.3397770" lon="-3.7168950">
        <ele>856.0</ele>
        <time>2022-06-27T14:01:37Z</time>
      </trkpt>
      <trkpt lat="42.3398050" lon="-3.7169770">
        <ele>856.0</ele>
        <time>2022-06-27T14:01:38Z</time>
      </trkpt>
      <trkpt lat="42.3398310" lon="-3.7170440">
        <ele>856.0</ele>
        <time>2022-06-27T14:01:39Z</time>
      </trkpt>
      <trkpt lat="42.3398690" lon="-3.7171200">
        <ele>856.0</ele>
        <time>2022-06-27T14:01:40Z</time>
      </trkpt>
      <trkpt lat="42.3399200" lon="-3.7172080">
        <ele>856.0</ele>
        <time>2022-06-27T14:01:41Z</time>
      </trkpt>
      <trkpt lat="42.3399620" lon="-3.7172810">
        <ele>856.0</ele>
        <time>2022-06-27T14:01:42Z</time>
      </trkpt>
      <trkpt lat="42.3399910" lon="-3.7173440">
        <ele>856.0</ele>
        <time>2022-06-27T14:01:43Z</time>
      </trkpt>
      <trkpt lat="42.3400230" lon="-3.7174240">
        <ele>856.0</ele>
        <time>2022-06-27T14:01:44Z</time>
      </trkpt>
      <trkpt lat="42.3400560" lon="-3.7175020">
        <ele>856.0</ele>
        <time>2022-06-27T14:01:45Z</time>
      </trkpt>
      <trkpt lat="42.3401010" lon="-3.7175970">
        <ele>856.0</ele>
        <time>2022-06-27T14:01:46Z</time>
      </trkpt>
      <trkpt lat="42.3401440" lon="-3.7176710">
        <ele>856.0</ele>
        <time>2022-06-27T14:01:47Z</time>
      </trkpt>
      <trkpt lat="42.3401880" lon="-3.7177410">
        <ele>855.8</ele>
        <time>2022-06-27T14:01:48Z</time>
      </trkpt>
      <trkpt lat="42.3402240" lon="-3.7177980">
        <ele>855.8</ele>
        <time>2022-06-27T14:01:49Z</time>
      </trkpt>
      <trkpt lat="42.3402720" lon="-3.7178650">
        <ele>855.8</ele>
        <time>2022-06-27T14:01:50Z</time>
      </trkpt>
      <trkpt lat="42.3403190" lon="-3.7179300">
        <ele>855.8</ele>
        <time>2022-06-27T14:01:51Z</time>
      </trkpt>
      <trkpt lat="42.3403670" lon="-3.7179990">
        <ele>855.8</ele>
        <time>2022-06-27T14:01:52Z</time>
      </trkpt>
      <trkpt lat="42.3404130" lon="-3.7180650">
        <ele>855.8</ele>
        <time>2022-06-27T14:01:53Z</time>
      </trkpt>
      <trkpt lat="42.3404600" lon="-3.7181330">
        <ele>855.6</ele>
        <time>2022-06-27T14:01:54Z</time>
      </trkpt>
      <trkpt lat="42.3405030" lon="-3.7182050">
        <ele>855.6</ele>
        <time>2022-06-27T14:01:55Z</time>
      </trkpt>
      <trkpt lat="42.3405500" lon="-3.7182760">
        <ele>855.6</ele>
        <time>2022-06-27T14:01:56Z</time>
      </trkpt>
      <trkpt lat="42.3405980" lon="-3.7183480">
        <ele>855.6</ele>
        <time>2022-06-27T14:01:57Z</time>
      </trkpt>
      <trkpt lat="42.3406450" lon="-3.7184220">
        <ele>855.6</ele>
        <time>2022-06-27T14:01:58Z</time>
      </trkpt>
      <trkpt lat="42.3406890" lon="-3.7184920">
        <ele>855.6</ele>
        <time>2022-06-27T14:01:59Z</time>
      </trkpt>
      <trkpt lat="42.3407310" lon="-3.7185650">
        <ele>855.4</ele>
        <time>2022-06-27T14:02:00Z</time>
      </trkpt>
      <trkpt lat="42.3407740" lon="-3.7186410">
        <ele>855.4</ele>
        <time>2022-06-27T14:02:01Z</time>
      </trkpt>
      <trkpt lat="42.3408170" lon="-3.7187210">
        <ele>855.4</ele>
        <time>2022-06-27T14:02:02Z</time>
      </trkpt>
      <trkpt lat="42.3408580" lon="-3.7188030">
        <ele>855.4</ele>
        <time>2022-06-27T14:02:03Z</time>
      </trkpt>
      <trkpt lat="42.3408990" lon="-3.7188920">
        <ele>855.2</ele>
        <time>2022-06-27T14:02:04Z</time>
      </trkpt>
      <trkpt lat="42.3409380" lon="-3.7189820">
        <ele>855.2</ele>
        <time>2022-06-27T14:02:05Z</time>
      </trkpt>
      <trkpt lat="42.3409750" lon="-3.7190700">
        <ele>855.0</ele>
        <time>2022-06-27T14:02:06Z</time>
      </trkpt>
      <trkpt lat="42.3410100" lon="-3.7191600">
        <ele>855.0</ele>
        <time>2022-06-27T14:02:07Z</time>
      </trkpt>
      <trkpt lat="42.3410380" lon="-3.7192540">
        <ele>855.0</ele>
        <time>2022-06-27T14:02:08Z</time>
      </trkpt>
      <trkpt lat="42.3410640" lon="-3.7193480">
        <ele>854.8</ele>
        <time>2022-06-27T14:02:09Z</time>
      </trkpt>
      <trkpt lat="42.3410890" lon="-3.7194430">
        <ele>854.8</ele>
        <time>2022-06-27T14:02:10Z</time>
      </trkpt>
      <trkpt lat="42.3411130" lon="-3.7195380">
        <ele>854.6</ele>
        <time>2022-06-27T14:02:11Z</time>
      </trkpt>
      <trkpt lat="42.3411360" lon="-3.7196290">
        <ele>854.6</ele>
        <time>2022-06-27T14:02:12Z</time>
      </trkpt>
      <trkpt lat="42.3411580" lon="-3.7197200">
        <ele>854.4</ele>
        <time>2022-06-27T14:02:13Z</time>
      </trkpt>
      <trkpt lat="42.3411790" lon="-3.7198100">
        <ele>854.4</ele>
        <time>2022-06-27T14:02:14Z</time>
      </trkpt>
      <trkpt lat="42.3412010" lon="-3.7198970">
        <ele>854.4</ele>
        <time>2022-06-27T14:02:15Z</time>
      </trkpt>
      <trkpt lat="42.3412280" lon="-3.7199790">
        <ele>854.4</ele>
        <time>2022-06-27T14:02:16Z</time>
      </trkpt>
      <trkpt lat="42.3412580" lon="-3.7200550">
        <ele>854.4</ele>
        <time>2022-06-27T14:02:17Z</time>
      </trkpt>
      <trkpt lat="42.3412870" lon="-3.7201280">
        <ele>854.4</ele>
        <time>2022-06-27T14:02:18Z</time>
      </trkpt>
      <trkpt lat="42.3413070" lon="-3.7202080">
        <ele>854.2</ele>
        <time>2022-06-27T14:02:19Z</time>
      </trkpt>
      <trkpt lat="42.3413150" lon="-3.7202950">
        <ele>854.2</ele>
        <time>2022-06-27T14:02:20Z</time>
      </trkpt>
      <trkpt lat="42.3413160" lon="-3.7203820">
        <ele>854.2</ele>
        <time>2022-06-27T14:02:21Z</time>
      </trkpt>
      <trkpt lat="42.3413090" lon="-3.7204680">
        <ele>854.2</ele>
        <time>2022-06-27T14:02:22Z</time>
      </trkpt>
      <trkpt lat="42.3413020" lon="-3.7205530">
        <ele>854.2</ele>
        <time>2022-06-27T14:02:23Z</time>
      </trkpt>
      <trkpt lat="42.3412990" lon="-3.7206390">
        <ele>854.2</ele>
        <time>2022-06-27T14:02:24Z</time>
      </trkpt>
      <trkpt lat="42.3413040" lon="-3.7207260">
        <ele>854.4</ele>
        <time>2022-06-27T14:02:25Z</time>
      </trkpt>
      <trkpt lat="42.3413130" lon="-3.7208120">
        <ele>854.4</ele>
        <time>2022-06-27T14:02:26Z</time>
      </trkpt>
      <trkpt lat="42.3413260" lon="-3.7209030">
        <ele>854.4</ele>
        <time>2022-06-27T14:02:27Z</time>
      </trkpt>
      <trkpt lat="42.3413350" lon="-3.7209910">
        <ele>854.4</ele>
        <time>2022-06-27T14:02:28Z</time>
      </trkpt>
      <trkpt lat="42.3413430" lon="-3.7210790">
        <ele>854.4</ele>
        <time>2022-06-27T14:02:29Z</time>
      </trkpt>
      <trkpt lat="42.3413500" lon="-3.7211690">
        <ele>854.4</ele>
        <time>2022-06-27T14:02:30Z</time>
      </trkpt>
      <trkpt lat="42.3413580" lon="-3.7212620">
        <ele>854.4</ele>
        <time>2022-06-27T14:02:31Z</time>
      </trkpt>
      <trkpt lat="42.3413680" lon="-3.7213560">
        <ele>854.2</ele>
        <time>2022-06-27T14:02:32Z</time>
      </trkpt>
      <trkpt lat="42.3413800" lon="-3.7214500">
        <ele>854.2</ele>
        <time>2022-06-27T14:02:33Z</time>
      </trkpt>
      <trkpt lat="42.3413900" lon="-3.7215460">
        <ele>854.2</ele>
        <time>2022-06-27T14:02:34Z</time>
      </trkpt>
      <trkpt lat="42.3413990" lon="-3.7216430">
        <ele>854.2</ele>
        <time>2022-06-27T14:02:35Z</time>
      </trkpt>
      <trkpt lat="42.3414090" lon="-3.7217450">
        <ele>854.2</ele>
        <time>2022-06-27T14:02:36Z</time>
      </trkpt>
      <trkpt lat="42.3414200" lon="-3.7218490">
        <ele>854.2</ele>
        <time>2022-06-27T14:02:37Z</time>
      </trkpt>
      <trkpt lat="42.3414320" lon="-3.7219540">
        <ele>854.2</ele>
        <time>2022-06-27T14:02:38Z</time>
      </trkpt>
      <trkpt lat="42.3414430" lon="-3.7220600">
        <ele>854.0</ele>
        <time>2022-06-27T14:02:39Z</time>
      </trkpt>
      <trkpt lat="42.3414540" lon="-3.7221680">
        <ele>854.0</ele>
        <time>2022-06-27T14:02:40Z</time>
      </trkpt>
      <trkpt lat="42.3414640" lon="-3.7222750">
        <ele>854.0</ele>
        <time>2022-06-27T14:02:41Z</time>
      </trkpt>
      <trkpt lat="42.3414760" lon="-3.7223800">
        <ele>853.8</ele>
        <time>2022-06-27T14:02:42Z</time>
      </trkpt>
      <trkpt lat="42.3414860" lon="-3.7224850">
        <ele>853.8</ele>
        <time>2022-06-27T14:02:43Z</time>
      </trkpt>
      <trkpt lat="42.3414940" lon="-3.7225920">
        <ele>853.8</ele>
        <time>2022-06-27T14:02:44Z</time>
      </trkpt>
      <trkpt lat="42.3415040" lon="-3.7227000">
        <ele>853.8</ele>
        <time>2022-06-27T14:02:45Z</time>
      </trkpt>
      <trkpt lat="42.3415160" lon="-3.7228070">
        <ele>853.8</ele>
        <time>2022-06-27T14:02:46Z</time>
      </trkpt>
      <trkpt lat="42.3415270" lon="-3.7229150">
        <ele>853.8</ele>
        <time>2022-06-27T14:02:47Z</time>
      </trkpt>
      <trkpt lat="42.3415360" lon="-3.7230240">
        <ele>853.8</ele>
        <time>2022-06-27T14:02:48Z</time>
      </trkpt>
      <trkpt lat="42.3415450" lon="-3.7231300">
        <ele>853.6</ele>
        <time>2022-06-27T14:02:49Z</time>
      </trkpt>
      <trkpt lat="42.3415540" lon="-3.7232410">
        <ele>853.6</ele>
        <time>2022-06-27T14:02:50Z</time>
      </trkpt>
      <trkpt lat="42.3415650" lon="-3.7233490">
        <ele>853.6</ele>
        <time>2022-06-27T14:02:51Z</time>
      </trkpt>
      <trkpt lat="42.3415750" lon="-3.7234550">
        <ele>853.6</ele>
        <time>2022-06-27T14:02:52Z</time>
      </trkpt>
      <trkpt lat="42.3415840" lon="-3.7235550">
        <ele>853.4</ele>
        <time>2022-06-27T14:02:53Z</time>
      </trkpt>
      <trkpt lat="42.3415950" lon="-3.7236600">
        <ele>853.4</ele>
        <time>2022-06-27T14:02:54Z</time>
      </trkpt>
      <trkpt lat="42.3416080" lon="-3.7237700">
        <ele>853.2</ele>
        <time>2022-06-27T14:02:55Z</time>
      </trkpt>
      <trkpt lat="42.3416200" lon="-3.7238750">
        <ele>853.2</ele>
        <time>2022-06-27T14:02:56Z</time>
      </trkpt>
      <trkpt lat="42.3416310" lon="-3.7239870">
        <ele>853.2</ele>
        <time>2022-06-27T14:02:57Z</time>
      </trkpt>
      <trkpt lat="42.3416460" lon="-3.7241020">
        <ele>853.2</ele>
        <time>2022-06-27T14:02:58Z</time>
      </trkpt>
      <trkpt lat="42.3416520" lon="-3.7242090">
        <ele>853.2</ele>
        <time>2022-06-27T14:02:59Z</time>
      </trkpt>
      <trkpt lat="42.3416550" lon="-3.7243150">
        <ele>853.0</ele>
        <time>2022-06-27T14:03:00Z</time>
      </trkpt>
      <trkpt lat="42.3416650" lon="-3.7244220">
        <ele>853.0</ele>
        <time>2022-06-27T14:03:01Z</time>
      </trkpt>
      <trkpt lat="42.3416780" lon="-3.7245290">
        <ele>852.8</ele>
        <time>2022-06-27T14:03:02Z</time>
      </trkpt>
      <trkpt lat="42.3416880" lon="-3.7246380">
        <ele>852.6</ele>
        <time>2022-06-27T14:03:03Z</time>
      </trkpt>
      <trkpt lat="42.3417020" lon="-3.7247450">
        <ele>852.6</ele>
        <time>2022-06-27T14:03:04Z</time>
      </trkpt>
      <trkpt lat="42.3417170" lon="-3.7248430">
        <ele>852.6</ele>
        <time>2022-06-27T14:03:05Z</time>
      </trkpt>
      <trkpt lat="42.3417280" lon="-3.7249540">
        <ele>852.8</ele>
        <time>2022-06-27T14:03:06Z</time>
      </trkpt>
      <trkpt lat="42.3417380" lon="-3.7250660">
        <ele>852.8</ele>
        <time>2022-06-27T14:03:07Z</time>
      </trkpt>
      <trkpt lat="42.3417450" lon="-3.7251690">
        <ele>852.8</ele>
        <time>2022-06-27T14:03:08Z</time>
      </trkpt>
      <trkpt lat="42.3417560" lon="-3.7252730">
        <ele>852.6</ele>
        <time>2022-06-27T14:03:09Z</time>
      </trkpt>
      <trkpt lat="42.3417690" lon="-3.7253680">
        <ele>852.6</ele>
        <time>2022-06-27T14:03:10Z</time>
      </trkpt>
      <trkpt lat="42.3417770" lon="-3.7254680">
        <ele>852.6</ele>
        <time>2022-06-27T14:03:11Z</time>
      </trkpt>
      <trkpt lat="42.3417870" lon="-3.7255660">
        <ele>852.6</ele>
        <time>2022-06-27T14:03:12Z</time>
      </trkpt>
      <trkpt lat="42.3417970" lon="-3.7256590">
        <ele>852.4</ele>
        <time>2022-06-27T14:03:13Z</time>
      </trkpt>
      <trkpt lat="42.3418030" lon="-3.7257560">
        <ele>852.4</ele>
        <time>2022-06-27T14:03:14Z</time>
      </trkpt>
      <trkpt lat="42.3418150" lon="-3.7258530">
        <ele>852.2</ele>
        <time>2022-06-27T14:03:15Z</time>
      </trkpt>
      <trkpt lat="42.3418250" lon="-3.7259510">
        <ele>852.4</ele>
        <time>2022-06-27T14:03:16Z</time>
      </trkpt>
      <trkpt lat="42.3418370" lon="-3.7260500">
        <ele>852.4</ele>
        <time>2022-06-27T14:03:17Z</time>
      </trkpt>
      <trkpt lat="42.3418470" lon="-3.7261510">
        <ele>852.4</ele>
        <time>2022-06-27T14:03:18Z</time>
      </trkpt>
      <trkpt lat="42.3418540" lon="-3.7262550">
        <ele>852.4</ele>
        <time>2022-06-27T14:03:19Z</time>
      </trkpt>
      <trkpt lat="42.3418660" lon="-3.7263460">
        <ele>852.4</ele>
        <time>2022-06-27T14:03:20Z</time>
      </trkpt>
      <trkpt lat="42.3418810" lon="-3.7264350">
        <ele>852.4</ele>
        <time>2022-06-27T14:03:21Z</time>
      </trkpt>
      <trkpt lat="42.3418940" lon="-3.7265340">
        <ele>852.4</ele>
        <time>2022-06-27T14:03:22Z</time>
      </trkpt>
      <trkpt lat="42.3419060" lon="-3.7266360">
        <ele>852.4</ele>
        <time>2022-06-27T14:03:23Z</time>
      </trkpt>
      <trkpt lat="42.3419180" lon="-3.7267370">
        <ele>852.4</ele>
        <time>2022-06-27T14:03:24Z</time>
      </trkpt>
      <trkpt lat="42.3419320" lon="-3.7268340">
        <ele>852.4</ele>
        <time>2022-06-27T14:03:25Z</time>
      </trkpt>
      <trkpt lat="42.3419410" lon="-3.7269320">
        <ele>852.4</ele>
        <time>2022-06-27T14:03:26Z</time>
      </trkpt>
      <trkpt lat="42.3419510" lon="-3.7270300">
        <ele>852.4</ele>
        <time>2022-06-27T14:03:27Z</time>
      </trkpt>
      <trkpt lat="42.3419570" lon="-3.7271300">
        <ele>852.4</ele>
        <time>2022-06-27T14:03:28Z</time>
      </trkpt>
      <trkpt lat="42.3419630" lon="-3.7272270">
        <ele>852.4</ele>
        <time>2022-06-27T14:03:29Z</time>
      </trkpt>
      <trkpt lat="42.3419690" lon="-3.7273240">
        <ele>852.6</ele>
        <time>2022-06-27T14:03:30Z</time>
      </trkpt>
      <trkpt lat="42.3419760" lon="-3.7274210">
        <ele>852.8</ele>
        <time>2022-06-27T14:03:31Z</time>
      </trkpt>
      <trkpt lat="42.3419890" lon="-3.7275170">
        <ele>852.8</ele>
        <time>2022-06-27T14:03:32Z</time>
      </trkpt>
      <trkpt lat="42.3419990" lon="-3.7276110">
        <ele>852.8</ele>
        <time>2022-06-27T14:03:33Z</time>
      </trkpt>
      <trkpt lat="42.3420070" lon="-3.7277020">
        <ele>852.8</ele>
        <time>2022-06-27T14:03:34Z</time>
      </trkpt>
      <trkpt lat="42.3420140" lon="-3.7277920">
        <ele>852.8</ele>
        <time>2022-06-27T14:03:35Z</time>
      </trkpt>
      <trkpt lat="42.3420210" lon="-3.7278870">
        <ele>852.8</ele>
        <time>2022-06-27T14:03:36Z</time>
      </trkpt>
      <trkpt lat="42.3420270" lon="-3.7279820">
        <ele>852.8</ele>
        <time>2022-06-27T14:03:37Z</time>
      </trkpt>
      <trkpt lat="42.3420370" lon="-3.7280770">
        <ele>852.8</ele>
        <time>2022-06-27T14:03:38Z</time>
      </trkpt>
      <trkpt lat="42.3420480" lon="-3.7281680">
        <ele>852.8</ele>
        <time>2022-06-27T14:03:39Z</time>
      </trkpt>
      <trkpt lat="42.3420570" lon="-3.7282580">
        <ele>852.8</ele>
        <time>2022-06-27T14:03:40Z</time>
      </trkpt>
      <trkpt lat="42.3420660" lon="-3.7283480">
        <ele>852.8</ele>
        <time>2022-06-27T14:03:41Z</time>
      </trkpt>
      <trkpt lat="42.3420780" lon="-3.7284380">
        <ele>852.6</ele>
        <time>2022-06-27T14:03:42Z</time>
      </trkpt>
      <trkpt lat="42.3420930" lon="-3.7285280">
        <ele>852.6</ele>
        <time>2022-06-27T14:03:43Z</time>
      </trkpt>
      <trkpt lat="42.3421110" lon="-3.7286170">
        <ele>852.6</ele>
        <time>2022-06-27T14:03:44Z</time>
      </trkpt>
      <trkpt lat="42.3421360" lon="-3.7287040">
        <ele>852.6</ele>
        <time>2022-06-27T14:03:45Z</time>
      </trkpt>
      <trkpt lat="42.3421670" lon="-3.7287870">
        <ele>852.6</ele>
        <time>2022-06-27T14:03:46Z</time>
      </trkpt>
      <trkpt lat="42.3422000" lon="-3.7288680">
        <ele>852.6</ele>
        <time>2022-06-27T14:03:47Z</time>
      </trkpt>
      <trkpt lat="42.3422310" lon="-3.7289470">
        <ele>852.6</ele>
        <time>2022-06-27T14:03:48Z</time>
      </trkpt>
      <trkpt lat="42.3422540" lon="-3.7290310">
        <ele>852.6</ele>
        <time>2022-06-27T14:03:49Z</time>
      </trkpt>
      <trkpt lat="42.3422630" lon="-3.7291190">
        <ele>852.6</ele>
        <time>2022-06-27T14:03:50Z</time>
      </trkpt>
      <trkpt lat="42.3422600" lon="-3.7292080">
        <ele>852.6</ele>
        <time>2022-06-27T14:03:51Z</time>
      </trkpt>
      <trkpt lat="42.3422470" lon="-3.7292990">
        <ele>852.6</ele>
        <time>2022-06-27T14:03:52Z</time>
      </trkpt>
      <trkpt lat="42.3422290" lon="-3.7293890">
        <ele>852.6</ele>
        <time>2022-06-27T14:03:53Z</time>
      </trkpt>
      <trkpt lat="42.3422160" lon="-3.7294820">
        <ele>852.6</ele>
        <time>2022-06-27T14:03:54Z</time>
      </trkpt>
      <trkpt lat="42.3422120" lon="-3.7295790">
        <ele>852.6</ele>
        <time>2022-06-27T14:03:55Z</time>
      </trkpt>
      <trkpt lat="42.3422130" lon="-3.7296730">
        <ele>852.6</ele>
        <time>2022-06-27T14:03:56Z</time>
      </trkpt>
      <trkpt lat="42.3422190" lon="-3.7297680">
        <ele>852.6</ele>
        <time>2022-06-27T14:03:57Z</time>
      </trkpt>
      <trkpt lat="42.3422290" lon="-3.7298600">
        <ele>852.6</ele>
        <time>2022-06-27T14:03:58Z</time>
      </trkpt>
      <trkpt lat="42.3422390" lon="-3.7299530">
        <ele>852.6</ele>
        <time>2022-06-27T14:03:59Z</time>
      </trkpt>
      <trkpt lat="42.3422490" lon="-3.7300460">
        <ele>852.6</ele>
        <time>2022-06-27T14:04:00Z</time>
      </trkpt>
      <trkpt lat="42.3422590" lon="-3.7301400">
        <ele>852.6</ele>
        <time>2022-06-27T14:04:01Z</time>
      </trkpt>
      <trkpt lat="42.3422690" lon="-3.7302330">
        <ele>852.6</ele>
        <time>2022-06-27T14:04:02Z</time>
      </trkpt>
      <trkpt lat="42.3422780" lon="-3.7303250">
        <ele>852.6</ele>
        <time>2022-06-27T14:04:03Z</time>
      </trkpt>
      <trkpt lat="42.3422880" lon="-3.7304210">
        <ele>852.8</ele>
        <time>2022-06-27T14:04:04Z</time>
      </trkpt>
      <trkpt lat="42.3422950" lon="-3.7305180">
        <ele>852.8</ele>
        <time>2022-06-27T14:04:05Z</time>
      </trkpt>
      <trkpt lat="42.3423040" lon="-3.7306170">
        <ele>852.8</ele>
        <time>2022-06-27T14:04:06Z</time>
      </trkpt>
      <trkpt lat="42.3423110" lon="-3.7307110">
        <ele>852.8</ele>
        <time>2022-06-27T14:04:07Z</time>
      </trkpt>
      <trkpt lat="42.3423200" lon="-3.7308060">
        <ele>852.6</ele>
        <time>2022-06-27T14:04:08Z</time>
      </trkpt>
      <trkpt lat="42.3423310" lon="-3.7309000">
        <ele>852.6</ele>
        <time>2022-06-27T14:04:09Z</time>
      </trkpt>
      <trkpt lat="42.3423410" lon="-3.7309970">
        <ele>852.6</ele>
        <time>2022-06-27T14:04:10Z</time>
      </trkpt>
      <trkpt lat="42.3423510" lon="-3.7310930">
        <ele>852.6</ele>
        <time>2022-06-27T14:04:11Z</time>
      </trkpt>
      <trkpt lat="42.3423600" lon="-3.7311930">
        <ele>852.6</ele>
        <time>2022-06-27T14:04:12Z</time>
      </trkpt>
      <trkpt lat="42.3423700" lon="-3.7312890">
        <ele>852.6</ele>
        <time>2022-06-27T14:04:13Z</time>
      </trkpt>
      <trkpt lat="42.3423810" lon="-3.7313830">
        <ele>852.6</ele>
        <time>2022-06-27T14:04:14Z</time>
      </trkpt>
      <trkpt lat="42.3423920" lon="-3.7314790">
        <ele>852.6</ele>
        <time>2022-06-27T14:04:15Z</time>
      </trkpt>
      <trkpt lat="42.3424030" lon="-3.7315780">
        <ele>852.6</ele>
        <time>2022-06-27T14:04:16Z</time>
      </trkpt>
      <trkpt lat="42.3424140" lon="-3.7316790">
        <ele>852.6</ele>
        <time>2022-06-27T14:04:17Z</time>
      </trkpt>
      <trkpt lat="42.3424220" lon="-3.7317820">
        <ele>852.6</ele>
        <time>2022-06-27T14:04:18Z</time>
      </trkpt>
      <trkpt lat="42.3424300" lon="-3.7318880">
        <ele>852.6</ele>
        <time>2022-06-27T14:04:19Z</time>
      </trkpt>
      <trkpt lat="42.3424390" lon="-3.7319910">
        <ele>852.4</ele>
        <time>2022-06-27T14:04:20Z</time>
      </trkpt>
      <trkpt lat="42.3424510" lon="-3.7320940">
        <ele>852.6</ele>
        <time>2022-06-27T14:04:21Z</time>
      </trkpt>
      <trkpt lat="42.3424610" lon="-3.7321950">
        <ele>852.6</ele>
        <time>2022-06-27T14:04:22Z</time>
      </trkpt>
      <trkpt lat="42.3424720" lon="-3.7323000">
        <ele>852.4</ele>
        <time>2022-06-27T14:04:23Z</time>
      </trkpt>
      <trkpt lat="42.3424830" lon="-3.7323990">
        <ele>852.4</ele>
        <time>2022-06-27T14:04:24Z</time>
      </trkpt>
      <trkpt lat="42.3424940" lon="-3.7325000">
        <ele>852.4</ele>
        <time>2022-06-27T14:04:25Z</time>
      </trkpt>
      <trkpt lat="42.3425050" lon="-3.7326020">
        <ele>852.0</ele>
        <time>2022-06-27T14:04:26Z</time>
      </trkpt>
      <trkpt lat="42.3425110" lon="-3.7327030">
        <ele>851.8</ele>
        <time>2022-06-27T14:04:27Z</time>
      </trkpt>
      <trkpt lat="42.3425180" lon="-3.7328030">
        <ele>851.8</ele>
        <time>2022-06-27T14:04:28Z</time>
      </trkpt>
      <trkpt lat="42.3425240" lon="-3.7329040">
        <ele>851.6</ele>
        <time>2022-06-27T14:04:29Z</time>
      </trkpt>
      <trkpt lat="42.3425280" lon="-3.7330050">
        <ele>851.6</ele>
        <time>2022-06-27T14:04:30Z</time>
      </trkpt>
      <trkpt lat="42.3425360" lon="-3.7331050">
        <ele>851.4</ele>
        <time>2022-06-27T14:04:31Z</time>
      </trkpt>
      <trkpt lat="42.3425470" lon="-3.7332020">
        <ele>851.4</ele>
        <time>2022-06-27T14:04:32Z</time>
      </trkpt>
      <trkpt lat="42.3425650" lon="-3.7332950">
        <ele>851.2</ele>
        <time>2022-06-27T14:04:33Z</time>
      </trkpt>
      <trkpt lat="42.3425880" lon="-3.7333880">
        <ele>851.2</ele>
        <time>2022-06-27T14:04:34Z</time>
      </trkpt>
      <trkpt lat="42.3426170" lon="-3.7334770">
        <ele>851.0</ele>
        <time>2022-06-27T14:04:35Z</time>
      </trkpt>
      <trkpt lat="42.3426390" lon="-3.7335680">
        <ele>850.8</ele>
        <time>2022-06-27T14:04:36Z</time>
      </trkpt>
      <trkpt lat="42.3426480" lon="-3.7336640">
        <ele>850.8</ele>
        <time>2022-06-27T14:04:37Z</time>
      </trkpt>
      <trkpt lat="42.3426450" lon="-3.7337610">
        <ele>850.8</ele>
        <time>2022-06-27T14:04:38Z</time>
      </trkpt>
      <trkpt lat="42.3426340" lon="-3.7338580">
        <ele>850.8</ele>
        <time>2022-06-27T14:04:39Z</time>
      </trkpt>
      <trkpt lat="42.3426230" lon="-3.7339550">
        <ele>850.8</ele>
        <time>2022-06-27T14:04:40Z</time>
      </trkpt>
      <trkpt lat="42.3426200" lon="-3.7340510">
        <ele>850.8</ele>
        <time>2022-06-27T14:04:41Z</time>
      </trkpt>
      <trkpt lat="42.3426230" lon="-3.7341510">
        <ele>850.8</ele>
        <time>2022-06-27T14:04:42Z</time>
      </trkpt>
      <trkpt lat="42.3426330" lon="-3.7342510">
        <ele>850.8</ele>
        <time>2022-06-27T14:04:43Z</time>
      </trkpt>
      <trkpt lat="42.3426460" lon="-3.7343510">
        <ele>850.8</ele>
        <time>2022-06-27T14:04:44Z</time>
      </trkpt>
      <trkpt lat="42.3426600" lon="-3.7344470">
        <ele>850.8</ele>
        <time>2022-06-27T14:04:45Z</time>
      </trkpt>
      <trkpt lat="42.3426750" lon="-3.7345450">
        <ele>850.8</ele>
        <time>2022-06-27T14:04:46Z</time>
      </trkpt>
      <trkpt lat="42.3426910" lon="-3.7346440">
        <ele>850.8</ele>
        <time>2022-06-27T14:04:47Z</time>
      </trkpt>
      <trkpt lat="42.3427060" lon="-3.7347420">
        <ele>850.8</ele>
        <time>2022-06-27T14:04:48Z</time>
      </trkpt>
      <trkpt lat="42.3427190" lon="-3.7348420">
        <ele>850.8</ele>
        <time>2022-06-27T14:04:49Z</time>
      </trkpt>
      <trkpt lat="42.3427310" lon="-3.7349420">
        <ele>850.8</ele>
        <time>2022-06-27T14:04:50Z</time>
      </trkpt>
      <trkpt lat="42.3427430" lon="-3.7350420">
        <ele>850.8</ele>
        <time>2022-06-27T14:04:51Z</time>
      </trkpt>
      <trkpt lat="42.3427550" lon="-3.7351400">
        <ele>850.8</ele>
        <time>2022-06-27T14:04:52Z</time>
      </trkpt>
      <trkpt lat="42.3427660" lon="-3.7352410">
        <ele>850.8</ele>
        <time>2022-06-27T14:04:53Z</time>
      </trkpt>
      <trkpt lat="42.3427740" lon="-3.7353410">
        <ele>850.8</ele>
        <time>2022-06-27T14:04:54Z</time>
      </trkpt>
      <trkpt lat="42.3427840" lon="-3.7354390">
        <ele>850.8</ele>
        <time>2022-06-27T14:04:55Z</time>
      </trkpt>
      <trkpt lat="42.3427930" lon="-3.7355310">
        <ele>850.8</ele>
        <time>2022-06-27T14:04:56Z</time>
      </trkpt>
      <trkpt lat="42.3428040" lon="-3.7356170">
        <ele>851.0</ele>
        <time>2022-06-27T14:04:57Z</time>
      </trkpt>
      <trkpt lat="42.3428120" lon="-3.7356960">
        <ele>851.0</ele>
        <time>2022-06-27T14:04:58Z</time>
      </trkpt>
      <trkpt lat="42.3428200" lon="-3.7357640">
        <ele>851.0</ele>
        <time>2022-06-27T14:04:59Z</time>
      </trkpt>
      <trkpt lat="42.3428280" lon="-3.7358200">
        <ele>851.0</ele>
        <time>2022-06-27T14:05:00Z</time>
      </trkpt>
      <trkpt lat="42.3428330" lon="-3.7358650">
        <ele>851.0</ele>
        <time>2022-06-27T14:05:01Z</time>
      </trkpt>
      <trkpt lat="42.3428360" lon="-3.7359000">
        <ele>851.0</ele>
        <time>2022-06-27T14:05:02Z</time>
      </trkpt>
      <trkpt lat="42.3428470" lon="-3.7361070">
        <ele>849.8</ele>
        <time>2022-06-27T14:05:31Z</time>
      </trkpt>
      <trkpt lat="42.3428540" lon="-3.7361500">
        <ele>849.8</ele>
        <time>2022-06-27T14:05:32Z</time>
      </trkpt>
      <trkpt lat="42.3428620" lon="-3.7361930">
        <ele>849.8</ele>
        <time>2022-06-27T14:05:33Z</time>
      </trkpt>
      <trkpt lat="42.3428670" lon="-3.7362410">
        <ele>849.8</ele>
        <time>2022-06-27T14:05:34Z</time>
      </trkpt>
      <trkpt lat="42.3428720" lon="-3.7363000">
        <ele>849.8</ele>
        <time>2022-06-27T14:05:35Z</time>
      </trkpt>
      <trkpt lat="42.3428760" lon="-3.7363610">
        <ele>849.8</ele>
        <time>2022-06-27T14:05:36Z</time>
      </trkpt>
      <trkpt lat="42.3428800" lon="-3.7364310">
        <ele>849.8</ele>
        <time>2022-06-27T14:05:37Z</time>
      </trkpt>
      <trkpt lat="42.3428820" lon="-3.7365070">
        <ele>849.8</ele>
        <time>2022-06-27T14:05:38Z</time>
      </trkpt>
      <trkpt lat="42.3428830" lon="-3.7365800">
        <ele>849.6</ele>
        <time>2022-06-27T14:05:39Z</time>
      </trkpt>
      <trkpt lat="42.3428840" lon="-3.7366480">
        <ele>849.6</ele>
        <time>2022-06-27T14:05:40Z</time>
      </trkpt>
      <trkpt lat="42.3428860" lon="-3.7367160">
        <ele>849.6</ele>
        <time>2022-06-27T14:05:41Z</time>
      </trkpt>
      <trkpt lat="42.3428830" lon="-3.7367880">
        <ele>849.6</ele>
        <time>2022-06-27T14:05:42Z</time>
      </trkpt>
      <trkpt lat="42.3428740" lon="-3.7368610">
        <ele>849.6</ele>
        <time>2022-06-27T14:05:43Z</time>
      </trkpt>
      <trkpt lat="42.3428630" lon="-3.7369370">
        <ele>849.6</ele>
        <time>2022-06-27T14:05:44Z</time>
      </trkpt>
      <trkpt lat="42.3428490" lon="-3.7370120">
        <ele>849.4</ele>
        <time>2022-06-27T14:05:45Z</time>
      </trkpt>
      <trkpt lat="42.3428320" lon="-3.7370890">
        <ele>849.4</ele>
        <time>2022-06-27T14:05:46Z</time>
      </trkpt>
      <trkpt lat="42.3428140" lon="-3.7371630">
        <ele>849.4</ele>
        <time>2022-06-27T14:05:47Z</time>
      </trkpt>
      <trkpt lat="42.3427910" lon="-3.7372370">
        <ele>849.2</ele>
        <time>2022-06-27T14:05:48Z</time>
      </trkpt>
      <trkpt lat="42.3427610" lon="-3.7373120">
        <ele>849.2</ele>
        <time>2022-06-27T14:05:49Z</time>
      </trkpt>
      <trkpt lat="42.3427280" lon="-3.7373860">
        <ele>849.2</ele>
        <time>2022-06-27T14:05:50Z</time>
      </trkpt>
      <trkpt lat="42.3426960" lon="-3.7374630">
        <ele>849.2</ele>
        <time>2022-06-27T14:05:51Z</time>
      </trkpt>
      <trkpt lat="42.3426660" lon="-3.7375420">
        <ele>849.2</ele>
        <time>2022-06-27T14:05:52Z</time>
      </trkpt>
      <trkpt lat="42.3426320" lon="-3.7376210">
        <ele>849.2</ele>
        <time>2022-06-27T14:05:53Z</time>
      </trkpt>
      <trkpt lat="42.3425970" lon="-3.7377010">
        <ele>849.2</ele>
        <time>2022-06-27T14:05:54Z</time>
      </trkpt>
      <trkpt lat="42.3425600" lon="-3.7377800">
        <ele>849.2</ele>
        <time>2022-06-27T14:05:55Z</time>
      </trkpt>
      <trkpt lat="42.3425210" lon="-3.7378560">
        <ele>849.2</ele>
        <time>2022-06-27T14:05:56Z</time>
      </trkpt>
      <trkpt lat="42.3424820" lon="-3.7379340">
        <ele>849.0</ele>
        <time>2022-06-27T14:05:57Z</time>
      </trkpt>
      <trkpt lat="42.3424410" lon="-3.7380120">
        <ele>849.0</ele>
        <time>2022-06-27T14:05:58Z</time>
      </trkpt>
      <trkpt lat="42.3424010" lon="-3.7380920">
        <ele>849.0</ele>
        <time>2022-06-27T14:05:59Z</time>
      </trkpt>
      <trkpt lat="42.3423630" lon="-3.7381730">
        <ele>849.0</ele>
        <time>2022-06-27T14:06:00Z</time>
      </trkpt>
      <trkpt lat="42.3423250" lon="-3.7382540">
        <ele>849.0</ele>
        <time>2022-06-27T14:06:01Z</time>
      </trkpt>
      <trkpt lat="42.3422870" lon="-3.7383350">
        <ele>849.0</ele>
        <time>2022-06-27T14:06:02Z</time>
      </trkpt>
      <trkpt lat="42.3422510" lon="-3.7384150">
        <ele>849.0</ele>
        <time>2022-06-27T14:06:03Z</time>
      </trkpt>
      <trkpt lat="42.3422170" lon="-3.7384980">
        <ele>849.0</ele>
        <time>2022-06-27T14:06:04Z</time>
      </trkpt>
      <trkpt lat="42.3421800" lon="-3.7385810">
        <ele>849.0</ele>
        <time>2022-06-27T14:06:05Z</time>
      </trkpt>
      <trkpt lat="42.3421420" lon="-3.7386630">
        <ele>849.0</ele>
        <time>2022-06-27T14:06:06Z</time>
      </trkpt>
      <trkpt lat="42.3421020" lon="-3.7387460">
        <ele>849.0</ele>
        <time>2022-06-27T14:06:07Z</time>
      </trkpt>
      <trkpt lat="42.3420630" lon="-3.7388300">
        <ele>849.0</ele>
        <time>2022-06-27T14:06:08Z</time>
      </trkpt>
      <trkpt lat="42.3420260" lon="-3.7389130">
        <ele>849.2</ele>
        <time>2022-06-27T14:06:09Z</time>
      </trkpt>
      <trkpt lat="42.3419900" lon="-3.7389960">
        <ele>849.2</ele>
        <time>2022-06-27T14:06:10Z</time>
      </trkpt>
      <trkpt lat="42.3419570" lon="-3.7390820">
        <ele>849.4</ele>
        <time>2022-06-27T14:06:11Z</time>
      </trkpt>
      <trkpt lat="42.3419240" lon="-3.7391700">
        <ele>849.4</ele>
        <time>2022-06-27T14:06:12Z</time>
      </trkpt>
      <trkpt lat="42.3418940" lon="-3.7392600">
        <ele>849.4</ele>
        <time>2022-06-27T14:06:13Z</time>
      </trkpt>
      <trkpt lat="42.3418630" lon="-3.7393500">
        <ele>849.4</ele>
        <time>2022-06-27T14:06:14Z</time>
      </trkpt>
      <trkpt lat="42.3418340" lon="-3.7394410">
        <ele>849.4</ele>
        <time>2022-06-27T14:06:15Z</time>
      </trkpt>
      <trkpt lat="42.3418050" lon="-3.7395320">
        <ele>849.4</ele>
        <time>2022-06-27T14:06:16Z</time>
      </trkpt>
      <trkpt lat="42.3417770" lon="-3.7396240">
        <ele>849.4</ele>
        <time>2022-06-27T14:06:17Z</time>
      </trkpt>
      <trkpt lat="42.3417500" lon="-3.7397180">
        <ele>849.4</ele>
        <time>2022-06-27T14:06:18Z</time>
      </trkpt>
      <trkpt lat="42.3417220" lon="-3.7398130">
        <ele>849.4</ele>
        <time>2022-06-27T14:06:19Z</time>
      </trkpt>
      <trkpt lat="42.3416960" lon="-3.7399070">
        <ele>849.4</ele>
        <time>2022-06-27T14:06:20Z</time>
      </trkpt>
      <trkpt lat="42.3416670" lon="-3.7400020">
        <ele>849.4</ele>
        <time>2022-06-27T14:06:21Z</time>
      </trkpt>
      <trkpt lat="42.3416390" lon="-3.7400980">
        <ele>849.6</ele>
        <time>2022-06-27T14:06:22Z</time>
      </trkpt>
      <trkpt lat="42.3416130" lon="-3.7401960">
        <ele>849.6</ele>
        <time>2022-06-27T14:06:23Z</time>
      </trkpt>
      <trkpt lat="42.3415850" lon="-3.7402930">
        <ele>849.6</ele>
        <time>2022-06-27T14:06:24Z</time>
      </trkpt>
      <trkpt lat="42.3415580" lon="-3.7403890">
        <ele>849.6</ele>
        <time>2022-06-27T14:06:25Z</time>
      </trkpt>
      <trkpt lat="42.3415320" lon="-3.7404850">
        <ele>849.6</ele>
        <time>2022-06-27T14:06:26Z</time>
      </trkpt>
      <trkpt lat="42.3415070" lon="-3.7405780">
        <ele>849.6</ele>
        <time>2022-06-27T14:06:27Z</time>
      </trkpt>
      <trkpt lat="42.3414830" lon="-3.7406710">
        <ele>849.6</ele>
        <time>2022-06-27T14:06:28Z</time>
      </trkpt>
      <trkpt lat="42.3414570" lon="-3.7407650">
        <ele>849.6</ele>
        <time>2022-06-27T14:06:29Z</time>
      </trkpt>
      <trkpt lat="42.3414340" lon="-3.7408600">
        <ele>849.6</ele>
        <time>2022-06-27T14:06:30Z</time>
      </trkpt>
      <trkpt lat="42.3414090" lon="-3.7409560">
        <ele>849.6</ele>
        <time>2022-06-27T14:06:31Z</time>
      </trkpt>
      <trkpt lat="42.3413830" lon="-3.7410580">
        <ele>849.4</ele>
        <time>2022-06-27T14:06:32Z</time>
      </trkpt>
      <trkpt lat="42.3413560" lon="-3.7411620">
        <ele>849.4</ele>
        <time>2022-06-27T14:06:33Z</time>
      </trkpt>
      <trkpt lat="42.3413310" lon="-3.7412680">
        <ele>849.4</ele>
        <time>2022-06-27T14:06:34Z</time>
      </trkpt>
      <trkpt lat="42.3413040" lon="-3.7413730">
        <ele>849.2</ele>
        <time>2022-06-27T14:06:35Z</time>
      </trkpt>
      <trkpt lat="42.3412770" lon="-3.7414790">
        <ele>849.2</ele>
        <time>2022-06-27T14:06:36Z</time>
      </trkpt>
      <trkpt lat="42.3412490" lon="-3.7415830">
        <ele>849.0</ele>
        <time>2022-06-27T14:06:37Z</time>
      </trkpt>
      <trkpt lat="42.3412210" lon="-3.7416880">
        <ele>849.0</ele>
        <time>2022-06-27T14:06:38Z</time>
      </trkpt>
      <trkpt lat="42.3411950" lon="-3.7417920">
        <ele>848.8</ele>
        <time>2022-06-27T14:06:39Z</time>
      </trkpt>
      <trkpt lat="42.3411690" lon="-3.7418940">
        <ele>848.6</ele>
        <time>2022-06-27T14:06:40Z</time>
      </trkpt>
      <trkpt lat="42.3411430" lon="-3.7419960">
        <ele>848.6</ele>
        <time>2022-06-27T14:06:41Z</time>
      </trkpt>
      <trkpt lat="42.3411170" lon="-3.7420960">
        <ele>848.4</ele>
        <time>2022-06-27T14:06:42Z</time>
      </trkpt>
      <trkpt lat="42.3410920" lon="-3.7421950">
        <ele>848.4</ele>
        <time>2022-06-27T14:06:43Z</time>
      </trkpt>
      <trkpt lat="42.3410670" lon="-3.7422940">
        <ele>848.2</ele>
        <time>2022-06-27T14:06:44Z</time>
      </trkpt>
      <trkpt lat="42.3410420" lon="-3.7423930">
        <ele>848.2</ele>
        <time>2022-06-27T14:06:45Z</time>
      </trkpt>
      <trkpt lat="42.3410170" lon="-3.7424910">
        <ele>848.0</ele>
        <time>2022-06-27T14:06:46Z</time>
      </trkpt>
      <trkpt lat="42.3409920" lon="-3.7425900">
        <ele>848.0</ele>
        <time>2022-06-27T14:06:47Z</time>
      </trkpt>
      <trkpt lat="42.3409670" lon="-3.7426890">
        <ele>848.0</ele>
        <time>2022-06-27T14:06:48Z</time>
      </trkpt>
      <trkpt lat="42.3409410" lon="-3.7427880">
        <ele>848.0</ele>
        <time>2022-06-27T14:06:49Z</time>
      </trkpt>
      <trkpt lat="42.3409150" lon="-3.7428870">
        <ele>848.0</ele>
        <time>2022-06-27T14:06:50Z</time>
      </trkpt>
      <trkpt lat="42.3408910" lon="-3.7429850">
        <ele>848.0</ele>
        <time>2022-06-27T14:06:51Z</time>
      </trkpt>
      <trkpt lat="42.3408680" lon="-3.7430810">
        <ele>848.0</ele>
        <time>2022-06-27T14:06:52Z</time>
      </trkpt>
      <trkpt lat="42.3408450" lon="-3.7431750">
        <ele>848.2</ele>
        <time>2022-06-27T14:06:53Z</time>
      </trkpt>
      <trkpt lat="42.3408210" lon="-3.7432670">
        <ele>848.4</ele>
        <time>2022-06-27T14:06:54Z</time>
      </trkpt>
      <trkpt lat="42.3407980" lon="-3.7433540">
        <ele>848.6</ele>
        <time>2022-06-27T14:06:55Z</time>
      </trkpt>
      <trkpt lat="42.3407750" lon="-3.7434370">
        <ele>848.6</ele>
        <time>2022-06-27T14:06:56Z</time>
      </trkpt>
      <trkpt lat="42.3407540" lon="-3.7435170">
        <ele>848.6</ele>
        <time>2022-06-27T14:06:57Z</time>
      </trkpt>
      <trkpt lat="42.3407350" lon="-3.7435950">
        <ele>848.8</ele>
        <time>2022-06-27T14:06:58Z</time>
      </trkpt>
      <trkpt lat="42.3407160" lon="-3.7436710">
        <ele>849.0</ele>
        <time>2022-06-27T14:06:59Z</time>
      </trkpt>
      <trkpt lat="42.3406980" lon="-3.7437450">
        <ele>849.4</ele>
        <time>2022-06-27T14:07:00Z</time>
      </trkpt>
      <trkpt lat="42.3406800" lon="-3.7438130">
        <ele>849.6</ele>
        <time>2022-06-27T14:07:01Z</time>
      </trkpt>
      <trkpt lat="42.3406630" lon="-3.7438830">
        <ele>850.0</ele>
        <time>2022-06-27T14:07:02Z</time>
      </trkpt>
      <trkpt lat="42.3406480" lon="-3.7439490">
        <ele>850.4</ele>
        <time>2022-06-27T14:07:03Z</time>
      </trkpt>
      <trkpt lat="42.3406320" lon="-3.7440150">
        <ele>851.0</ele>
        <time>2022-06-27T14:07:04Z</time>
      </trkpt>
      <trkpt lat="42.3406180" lon="-3.7440800">
        <ele>851.6</ele>
        <time>2022-06-27T14:07:05Z</time>
      </trkpt>
      <trkpt lat="42.3406050" lon="-3.7441450">
        <ele>852.0</ele>
        <time>2022-06-27T14:07:06Z</time>
      </trkpt>
      <trkpt lat="42.3405950" lon="-3.7442080">
        <ele>852.4</ele>
        <time>2022-06-27T14:07:07Z</time>
      </trkpt>
      <trkpt lat="42.3405840" lon="-3.7442740">
        <ele>852.6</ele>
        <time>2022-06-27T14:07:08Z</time>
      </trkpt>
      <trkpt lat="42.3405770" lon="-3.7443380">
        <ele>853.0</ele>
        <time>2022-06-27T14:07:09Z</time>
      </trkpt>
      <trkpt lat="42.3405720" lon="-3.7444040">
        <ele>853.4</ele>
        <time>2022-06-27T14:07:10Z</time>
      </trkpt>
      <trkpt lat="42.3405700" lon="-3.7444700">
        <ele>853.6</ele>
        <time>2022-06-27T14:07:11Z</time>
      </trkpt>
      <trkpt lat="42.3405690" lon="-3.7445330">
        <ele>854.2</ele>
        <time>2022-06-27T14:07:12Z</time>
      </trkpt>
      <trkpt lat="42.3405690" lon="-3.7445950">
        <ele>854.4</ele>
        <time>2022-06-27T14:07:13Z</time>
      </trkpt>
      <trkpt lat="42.3405690" lon="-3.7446560">
        <ele>854.8</ele>
        <time>2022-06-27T14:07:14Z</time>
      </trkpt>
      <trkpt lat="42.3405690" lon="-3.7447140">
        <ele>855.0</ele>
        <time>2022-06-27T14:07:15Z</time>
      </trkpt>
      <trkpt lat="42.3405690" lon="-3.7447710">
        <ele>855.4</ele>
        <time>2022-06-27T14:07:16Z</time>
      </trkpt>
      <trkpt lat="42.3405690" lon="-3.7448280">
        <ele>855.8</ele>
        <time>2022-06-27T14:07:17Z</time>
      </trkpt>
      <trkpt lat="42.3405710" lon="-3.7448880">
        <ele>856.0</ele>
        <time>2022-06-27T14:07:18Z</time>
      </trkpt>
      <trkpt lat="42.3405720" lon="-3.7449510">
        <ele>856.2</ele>
        <time>2022-06-27T14:07:19Z</time>
      </trkpt>
      <trkpt lat="42.3405740" lon="-3.7450130">
        <ele>856.4</ele>
        <time>2022-06-27T14:07:20Z</time>
      </trkpt>
      <trkpt lat="42.3405740" lon="-3.7450720">
        <ele>856.8</ele>
        <time>2022-06-27T14:07:21Z</time>
      </trkpt>
      <trkpt lat="42.3405750" lon="-3.7451340">
        <ele>857.0</ele>
        <time>2022-06-27T14:07:22Z</time>
      </trkpt>
      <trkpt lat="42.3405740" lon="-3.7451960">
        <ele>857.4</ele>
        <time>2022-06-27T14:07:23Z</time>
      </trkpt>
      <trkpt lat="42.3405730" lon="-3.7452550">
        <ele>857.6</ele>
        <time>2022-06-27T14:07:24Z</time>
      </trkpt>
      <trkpt lat="42.3405730" lon="-3.7453120">
        <ele>857.6</ele>
        <time>2022-06-27T14:07:25Z</time>
      </trkpt>
      <trkpt lat="42.3405710" lon="-3.7453730">
        <ele>857.8</ele>
        <time>2022-06-27T14:07:26Z</time>
      </trkpt>
      <trkpt lat="42.3405710" lon="-3.7454340">
        <ele>857.8</ele>
        <time>2022-06-27T14:07:27Z</time>
      </trkpt>
      <trkpt lat="42.3405710" lon="-3.7454980">
        <ele>858.0</ele>
        <time>2022-06-27T14:07:28Z</time>
      </trkpt>
      <trkpt lat="42.3405690" lon="-3.7455620">
        <ele>858.2</ele>
        <time>2022-06-27T14:07:29Z</time>
      </trkpt>
      <trkpt lat="42.3405670" lon="-3.7456260">
        <ele>858.4</ele>
        <time>2022-06-27T14:07:30Z</time>
      </trkpt>
      <trkpt lat="42.3405690" lon="-3.7456950">
        <ele>858.6</ele>
        <time>2022-06-27T14:07:31Z</time>
      </trkpt>
      <trkpt lat="42.3405700" lon="-3.7457640">
        <ele>858.8</ele>
        <time>2022-06-27T14:07:32Z</time>
      </trkpt>
      <trkpt lat="42.3405730" lon="-3.7458350">
        <ele>859.0</ele>
        <time>2022-06-27T14:07:33Z</time>
      </trkpt>
      <trkpt lat="42.3405750" lon="-3.7459060">
        <ele>859.2</ele>
        <time>2022-06-27T14:07:34Z</time>
      </trkpt>
      <trkpt lat="42.3405780" lon="-3.7459780">
        <ele>859.2</ele>
        <time>2022-06-27T14:07:35Z</time>
      </trkpt>
      <trkpt lat="42.3405800" lon="-3.7460510">
        <ele>859.2</ele>
        <time>2022-06-27T14:07:36Z</time>
      </trkpt>
      <trkpt lat="42.3405830" lon="-3.7461260">
        <ele>859.2</ele>
        <time>2022-06-27T14:07:37Z</time>
      </trkpt>
      <trkpt lat="42.3405840" lon="-3.7462060">
        <ele>859.4</ele>
        <time>2022-06-27T14:07:38Z</time>
      </trkpt>
      <trkpt lat="42.3405840" lon="-3.7462850">
        <ele>859.4</ele>
        <time>2022-06-27T14:07:39Z</time>
      </trkpt>
      <trkpt lat="42.3405860" lon="-3.7463660">
        <ele>859.4</ele>
        <time>2022-06-27T14:07:40Z</time>
      </trkpt>
      <trkpt lat="42.3405870" lon="-3.7464490">
        <ele>859.4</ele>
        <time>2022-06-27T14:07:41Z</time>
      </trkpt>
      <trkpt lat="42.3405870" lon="-3.7465360">
        <ele>859.4</ele>
        <time>2022-06-27T14:07:42Z</time>
      </trkpt>
      <trkpt lat="42.3405880" lon="-3.7466230">
        <ele>859.4</ele>
        <time>2022-06-27T14:07:43Z</time>
      </trkpt>
      <trkpt lat="42.3405890" lon="-3.7467130">
        <ele>859.2</ele>
        <time>2022-06-27T14:07:44Z</time>
      </trkpt>
      <trkpt lat="42.3405890" lon="-3.7468020">
        <ele>859.0</ele>
        <time>2022-06-27T14:07:45Z</time>
      </trkpt>
      <trkpt lat="42.3405900" lon="-3.7468920">
        <ele>859.0</ele>
        <time>2022-06-27T14:07:46Z</time>
      </trkpt>
      <trkpt lat="42.3405920" lon="-3.7469840">
        <ele>859.0</ele>
        <time>2022-06-27T14:07:47Z</time>
      </trkpt>
      <trkpt lat="42.3405940" lon="-3.7470750">
        <ele>859.0</ele>
        <time>2022-06-27T14:07:48Z</time>
      </trkpt>
      <trkpt lat="42.3405950" lon="-3.7471670">
        <ele>859.0</ele>
        <time>2022-06-27T14:07:49Z</time>
      </trkpt>
      <trkpt lat="42.3405970" lon="-3.7472620">
        <ele>858.8</ele>
        <time>2022-06-27T14:07:50Z</time>
      </trkpt>
      <trkpt lat="42.3405980" lon="-3.7473570">
        <ele>858.8</ele>
        <time>2022-06-27T14:07:51Z</time>
      </trkpt>
      <trkpt lat="42.3405990" lon="-3.7474520">
        <ele>858.8</ele>
        <time>2022-06-27T14:07:52Z</time>
      </trkpt>
      <trkpt lat="42.3406010" lon="-3.7475480">
        <ele>858.8</ele>
        <time>2022-06-27T14:07:53Z</time>
      </trkpt>
      <trkpt lat="42.3406030" lon="-3.7476450">
        <ele>858.6</ele>
        <time>2022-06-27T14:07:54Z</time>
      </trkpt>
      <trkpt lat="42.3406050" lon="-3.7477420">
        <ele>858.6</ele>
        <time>2022-06-27T14:07:55Z</time>
      </trkpt>
      <trkpt lat="42.3406060" lon="-3.7478400">
        <ele>858.6</ele>
        <time>2022-06-27T14:07:56Z</time>
      </trkpt>
      <trkpt lat="42.3406080" lon="-3.7479370">
        <ele>858.4</ele>
        <time>2022-06-27T14:07:57Z</time>
      </trkpt>
      <trkpt lat="42.3406100" lon="-3.7480340">
        <ele>858.4</ele>
        <time>2022-06-27T14:07:58Z</time>
      </trkpt>
      <trkpt lat="42.3406120" lon="-3.7481310">
        <ele>858.4</ele>
        <time>2022-06-27T14:07:59Z</time>
      </trkpt>
      <trkpt lat="42.3406140" lon="-3.7482260">
        <ele>858.4</ele>
        <time>2022-06-27T14:08:00Z</time>
      </trkpt>
      <trkpt lat="42.3406150" lon="-3.7483200">
        <ele>858.4</ele>
        <time>2022-06-27T14:08:01Z</time>
      </trkpt>
      <trkpt lat="42.3406170" lon="-3.7484150">
        <ele>858.2</ele>
        <time>2022-06-27T14:08:02Z</time>
      </trkpt>
      <trkpt lat="42.3406170" lon="-3.7485090">
        <ele>858.2</ele>
        <time>2022-06-27T14:08:03Z</time>
      </trkpt>
      <trkpt lat="42.3406180" lon="-3.7486020">
        <ele>858.2</ele>
        <time>2022-06-27T14:08:04Z</time>
      </trkpt>
      <trkpt lat="42.3406190" lon="-3.7486920">
        <ele>858.2</ele>
        <time>2022-06-27T14:08:05Z</time>
      </trkpt>
      <trkpt lat="42.3406220" lon="-3.7487820">
        <ele>858.0</ele>
        <time>2022-06-27T14:08:06Z</time>
      </trkpt>
      <trkpt lat="42.3406220" lon="-3.7488720">
        <ele>858.0</ele>
        <time>2022-06-27T14:08:07Z</time>
      </trkpt>
      <trkpt lat="42.3406220" lon="-3.7489600">
        <ele>858.0</ele>
        <time>2022-06-27T14:08:08Z</time>
      </trkpt>
      <trkpt lat="42.3406220" lon="-3.7490480">
        <ele>858.0</ele>
        <time>2022-06-27T14:08:09Z</time>
      </trkpt>
      <trkpt lat="42.3406240" lon="-3.7491360">
        <ele>857.8</ele>
        <time>2022-06-27T14:08:10Z</time>
      </trkpt>
      <trkpt lat="42.3406240" lon="-3.7492290">
        <ele>857.8</ele>
        <time>2022-06-27T14:08:11Z</time>
      </trkpt>
      <trkpt lat="42.3406250" lon="-3.7493230">
        <ele>857.8</ele>
        <time>2022-06-27T14:08:12Z</time>
      </trkpt>
      <trkpt lat="42.3406270" lon="-3.7494180">
        <ele>857.8</ele>
        <time>2022-06-27T14:08:13Z</time>
      </trkpt>
      <trkpt lat="42.3406270" lon="-3.7495160">
        <ele>857.8</ele>
        <time>2022-06-27T14:08:14Z</time>
      </trkpt>
      <trkpt lat="42.3406280" lon="-3.7496150">
        <ele>857.8</ele>
        <time>2022-06-27T14:08:15Z</time>
      </trkpt>
      <trkpt lat="42.3406300" lon="-3.7497140">
        <ele>857.8</ele>
        <time>2022-06-27T14:08:16Z</time>
      </trkpt>
      <trkpt lat="42.3406300" lon="-3.7498140">
        <ele>857.8</ele>
        <time>2022-06-27T14:08:17Z</time>
      </trkpt>
      <trkpt lat="42.3406310" lon="-3.7499120">
        <ele>858.0</ele>
        <time>2022-06-27T14:08:18Z</time>
      </trkpt>
      <trkpt lat="42.3406330" lon="-3.7500090">
        <ele>858.0</ele>
        <time>2022-06-27T14:08:19Z</time>
      </trkpt>
      <trkpt lat="42.3406340" lon="-3.7501050">
        <ele>858.2</ele>
        <time>2022-06-27T14:08:20Z</time>
      </trkpt>
      <trkpt lat="42.3406340" lon="-3.7502020">
        <ele>858.2</ele>
        <time>2022-06-27T14:08:21Z</time>
      </trkpt>
      <trkpt lat="42.3406340" lon="-3.7502990">
        <ele>858.2</ele>
        <time>2022-06-27T14:08:22Z</time>
      </trkpt>
      <trkpt lat="42.3406340" lon="-3.7503940">
        <ele>858.4</ele>
        <time>2022-06-27T14:08:23Z</time>
      </trkpt>
      <trkpt lat="42.3406360" lon="-3.7504890">
        <ele>858.4</ele>
        <time>2022-06-27T14:08:24Z</time>
      </trkpt>
      <trkpt lat="42.3406360" lon="-3.7505830">
        <ele>858.6</ele>
        <time>2022-06-27T14:08:25Z</time>
      </trkpt>
      <trkpt lat="42.3406390" lon="-3.7506770">
        <ele>858.6</ele>
        <time>2022-06-27T14:08:26Z</time>
      </trkpt>
      <trkpt lat="42.3406410" lon="-3.7507700">
        <ele>858.8</ele>
        <time>2022-06-27T14:08:27Z</time>
      </trkpt>
      <trkpt lat="42.3406430" lon="-3.7508620">
        <ele>858.8</ele>
        <time>2022-06-27T14:08:28Z</time>
      </trkpt>
      <trkpt lat="42.3406440" lon="-3.7509550">
        <ele>858.8</ele>
        <time>2022-06-27T14:08:29Z</time>
      </trkpt>
      <trkpt lat="42.3406440" lon="-3.7510460">
        <ele>858.8</ele>
        <time>2022-06-27T14:08:30Z</time>
      </trkpt>
      <trkpt lat="42.3406450" lon="-3.7511550">
        <ele>859.0</ele>
        <time>2022-06-27T14:08:31Z</time>
      </trkpt>
      <trkpt lat="42.3406450" lon="-3.7512290">
        <ele>859.0</ele>
        <time>2022-06-27T14:08:32Z</time>
      </trkpt>
      <trkpt lat="42.3406460" lon="-3.7513200">
        <ele>859.2</ele>
        <time>2022-06-27T14:08:33Z</time>
      </trkpt>
      <trkpt lat="42.3406470" lon="-3.7514110">
        <ele>859.2</ele>
        <time>2022-06-27T14:08:34Z</time>
      </trkpt>
      <trkpt lat="42.3406470" lon="-3.7515010">
        <ele>859.2</ele>
        <time>2022-06-27T14:08:35Z</time>
      </trkpt>
      <trkpt lat="42.3406500" lon="-3.7515890">
        <ele>859.4</ele>
        <time>2022-06-27T14:08:36Z</time>
      </trkpt>
      <trkpt lat="42.3406520" lon="-3.7516800">
        <ele>859.4</ele>
        <time>2022-06-27T14:08:37Z</time>
      </trkpt>
      <trkpt lat="42.3406530" lon="-3.7517690">
        <ele>859.4</ele>
        <time>2022-06-27T14:08:38Z</time>
      </trkpt>
      <trkpt lat="42.3406550" lon="-3.7518610">
        <ele>859.4</ele>
        <time>2022-06-27T14:08:39Z</time>
      </trkpt>
      <trkpt lat="42.3406550" lon="-3.7519540">
        <ele>859.4</ele>
        <time>2022-06-27T14:08:40Z</time>
      </trkpt>
      <trkpt lat="42.3406570" lon="-3.7520470">
        <ele>859.4</ele>
        <time>2022-06-27T14:08:41Z</time>
      </trkpt>
      <trkpt lat="42.3406580" lon="-3.7521430">
        <ele>859.4</ele>
        <time>2022-06-27T14:08:42Z</time>
      </trkpt>
      <trkpt lat="42.3406600" lon="-3.7522410">
        <ele>859.4</ele>
        <time>2022-06-27T14:08:43Z</time>
      </trkpt>
      <trkpt lat="42.3406610" lon="-3.7523390">
        <ele>859.4</ele>
        <time>2022-06-27T14:08:44Z</time>
      </trkpt>
      <trkpt lat="42.3406610" lon="-3.7524380">
        <ele>859.4</ele>
        <time>2022-06-27T14:08:45Z</time>
      </trkpt>
      <trkpt lat="42.3406620" lon="-3.7525380">
        <ele>859.4</ele>
        <time>2022-06-27T14:08:46Z</time>
      </trkpt>
      <trkpt lat="42.3406650" lon="-3.7526580">
        <ele>859.2</ele>
        <time>2022-06-27T14:08:47Z</time>
      </trkpt>
      <trkpt lat="42.3406670" lon="-3.7527380">
        <ele>859.2</ele>
        <time>2022-06-27T14:08:48Z</time>
      </trkpt>
      <trkpt lat="42.3406670" lon="-3.7528400">
        <ele>859.2</ele>
        <time>2022-06-27T14:08:49Z</time>
      </trkpt>
      <trkpt lat="42.3406670" lon="-3.7529430">
        <ele>859.2</ele>
        <time>2022-06-27T14:08:50Z</time>
      </trkpt>
      <trkpt lat="42.3406680" lon="-3.7530470">
        <ele>859.0</ele>
        <time>2022-06-27T14:08:51Z</time>
      </trkpt>
      <trkpt lat="42.3406680" lon="-3.7531500">
        <ele>859.0</ele>
        <time>2022-06-27T14:08:52Z</time>
      </trkpt>
      <trkpt lat="42.3406710" lon="-3.7532530">
        <ele>859.0</ele>
        <time>2022-06-27T14:08:53Z</time>
      </trkpt>
      <trkpt lat="42.3406730" lon="-3.7533570">
        <ele>859.2</ele>
        <time>2022-06-27T14:08:54Z</time>
      </trkpt>
      <trkpt lat="42.3406750" lon="-3.7534610">
        <ele>859.0</ele>
        <time>2022-06-27T14:08:55Z</time>
      </trkpt>
      <trkpt lat="42.3406760" lon="-3.7535650">
        <ele>859.0</ele>
        <time>2022-06-27T14:08:56Z</time>
      </trkpt>
      <trkpt lat="42.3406790" lon="-3.7536890">
        <ele>859.2</ele>
        <time>2022-06-27T14:08:57Z</time>
      </trkpt>
      <trkpt lat="42.3406810" lon="-3.7537700">
        <ele>859.2</ele>
        <time>2022-06-27T14:08:58Z</time>
      </trkpt>
      <trkpt lat="42.3406830" lon="-3.7538720">
        <ele>859.2</ele>
        <time>2022-06-27T14:08:59Z</time>
      </trkpt>
      <trkpt lat="42.3406840" lon="-3.7539730">
        <ele>859.2</ele>
        <time>2022-06-27T14:09:00Z</time>
      </trkpt>
      <trkpt lat="42.3406840" lon="-3.7540740">
        <ele>859.2</ele>
        <time>2022-06-27T14:09:01Z</time>
      </trkpt>
      <trkpt lat="42.3406860" lon="-3.7541740">
        <ele>859.2</ele>
        <time>2022-06-27T14:09:02Z</time>
      </trkpt>
      <trkpt lat="42.3406880" lon="-3.7542940">
        <ele>859.2</ele>
        <time>2022-06-27T14:09:03Z</time>
      </trkpt>
      <trkpt lat="42.3406890" lon="-3.7543730">
        <ele>859.4</ele>
        <time>2022-06-27T14:09:04Z</time>
      </trkpt>
      <trkpt lat="42.3406910" lon="-3.7544700">
        <ele>859.4</ele>
        <time>2022-06-27T14:09:05Z</time>
      </trkpt>
      <trkpt lat="42.3406920" lon="-3.7545670">
        <ele>859.6</ele>
        <time>2022-06-27T14:09:06Z</time>
      </trkpt>
      <trkpt lat="42.3406940" lon="-3.7546640">
        <ele>859.6</ele>
        <time>2022-06-27T14:09:07Z</time>
      </trkpt>
      <trkpt lat="42.3406950" lon="-3.7547610">
        <ele>859.6</ele>
        <time>2022-06-27T14:09:08Z</time>
      </trkpt>
      <trkpt lat="42.3406970" lon="-3.7548590">
        <ele>859.6</ele>
        <time>2022-06-27T14:09:09Z</time>
      </trkpt>
      <trkpt lat="42.3406990" lon="-3.7549560">
        <ele>859.6</ele>
        <time>2022-06-27T14:09:10Z</time>
      </trkpt>
      <trkpt lat="42.3407010" lon="-3.7550540">
        <ele>859.6</ele>
        <time>2022-06-27T14:09:11Z</time>
      </trkpt>
      <trkpt lat="42.3407030" lon="-3.7551520">
        <ele>859.6</ele>
        <time>2022-06-27T14:09:12Z</time>
      </trkpt>
      <trkpt lat="42.3407040" lon="-3.7552480">
        <ele>859.8</ele>
        <time>2022-06-27T14:09:13Z</time>
      </trkpt>
      <trkpt lat="42.3407040" lon="-3.7553440">
        <ele>859.8</ele>
        <time>2022-06-27T14:09:14Z</time>
      </trkpt>
      <trkpt lat="42.3407050" lon="-3.7554380">
        <ele>859.8</ele>
        <time>2022-06-27T14:09:15Z</time>
      </trkpt>
      <trkpt lat="42.3407070" lon="-3.7555290">
        <ele>860.0</ele>
        <time>2022-06-27T14:09:16Z</time>
      </trkpt>
      <trkpt lat="42.3407080" lon="-3.7556210">
        <ele>860.0</ele>
        <time>2022-06-27T14:09:17Z</time>
      </trkpt>
      <trkpt lat="42.3407100" lon="-3.7557110">
        <ele>860.0</ele>
        <time>2022-06-27T14:09:18Z</time>
      </trkpt>
      <trkpt lat="42.3407130" lon="-3.7558020">
        <ele>860.0</ele>
        <time>2022-06-27T14:09:19Z</time>
      </trkpt>
      <trkpt lat="42.3407170" lon="-3.7558910">
        <ele>860.0</ele>
        <time>2022-06-27T14:09:20Z</time>
      </trkpt>
      <trkpt lat="42.3407190" lon="-3.7559780">
        <ele>860.0</ele>
        <time>2022-06-27T14:09:21Z</time>
      </trkpt>
      <trkpt lat="42.3407200" lon="-3.7560650">
        <ele>860.2</ele>
        <time>2022-06-27T14:09:22Z</time>
      </trkpt>
      <trkpt lat="42.3407220" lon="-3.7561500">
        <ele>860.2</ele>
        <time>2022-06-27T14:09:23Z</time>
      </trkpt>
      <trkpt lat="42.3407250" lon="-3.7562360">
        <ele>860.2</ele>
        <time>2022-06-27T14:09:24Z</time>
      </trkpt>
      <trkpt lat="42.3407260" lon="-3.7563200">
        <ele>860.4</ele>
        <time>2022-06-27T14:09:25Z</time>
      </trkpt>
      <trkpt lat="42.3407270" lon="-3.7564040">
        <ele>860.4</ele>
        <time>2022-06-27T14:09:26Z</time>
      </trkpt>
      <trkpt lat="42.3407270" lon="-3.7564850">
        <ele>860.6</ele>
        <time>2022-06-27T14:09:27Z</time>
      </trkpt>
      <trkpt lat="42.3407270" lon="-3.7565650">
        <ele>860.6</ele>
        <time>2022-06-27T14:09:28Z</time>
      </trkpt>
      <trkpt lat="42.3407260" lon="-3.7566440">
        <ele>860.6</ele>
        <time>2022-06-27T14:09:29Z</time>
      </trkpt>
      <trkpt lat="42.3407260" lon="-3.7567220">
        <ele>860.8</ele>
        <time>2022-06-27T14:09:30Z</time>
      </trkpt>
      <trkpt lat="42.3407290" lon="-3.7568000">
        <ele>861.0</ele>
        <time>2022-06-27T14:09:31Z</time>
      </trkpt>
      <trkpt lat="42.3407310" lon="-3.7568770">
        <ele>861.4</ele>
        <time>2022-06-27T14:09:32Z</time>
      </trkpt>
      <trkpt lat="42.3407330" lon="-3.7569510">
        <ele>861.6</ele>
        <time>2022-06-27T14:09:33Z</time>
      </trkpt>
      <trkpt lat="42.3407350" lon="-3.7570270">
        <ele>861.8</ele>
        <time>2022-06-27T14:09:34Z</time>
      </trkpt>
      <trkpt lat="42.3407360" lon="-3.7571030">
        <ele>862.0</ele>
        <time>2022-06-27T14:09:35Z</time>
      </trkpt>
      <trkpt lat="42.3407370" lon="-3.7571790">
        <ele>862.2</ele>
        <time>2022-06-27T14:09:36Z</time>
      </trkpt>
      <trkpt lat="42.3407380" lon="-3.7572530">
        <ele>862.2</ele>
        <time>2022-06-27T14:09:37Z</time>
      </trkpt>
      <trkpt lat="42.3407380" lon="-3.7573250">
        <ele>862.2</ele>
        <time>2022-06-27T14:09:38Z</time>
      </trkpt>
      <trkpt lat="42.3407400" lon="-3.7573980">
        <ele>862.2</ele>
        <time>2022-06-27T14:09:39Z</time>
      </trkpt>
      <trkpt lat="42.3407420" lon="-3.7574840">
        <ele>862.4</ele>
        <time>2022-06-27T14:09:40Z</time>
      </trkpt>
      <trkpt lat="42.3407440" lon="-3.7575430">
        <ele>862.6</ele>
        <time>2022-06-27T14:09:41Z</time>
      </trkpt>
      <trkpt lat="42.3407460" lon="-3.7576170">
        <ele>862.6</ele>
        <time>2022-06-27T14:09:42Z</time>
      </trkpt>
      <trkpt lat="42.3407480" lon="-3.7576910">
        <ele>862.8</ele>
        <time>2022-06-27T14:09:43Z</time>
      </trkpt>
      <trkpt lat="42.3407500" lon="-3.7577620">
        <ele>863.0</ele>
        <time>2022-06-27T14:09:44Z</time>
      </trkpt>
      <trkpt lat="42.3407530" lon="-3.7578320">
        <ele>863.2</ele>
        <time>2022-06-27T14:09:45Z</time>
      </trkpt>
      <trkpt lat="42.3407540" lon="-3.7579030">
        <ele>863.4</ele>
        <time>2022-06-27T14:09:46Z</time>
      </trkpt>
      <trkpt lat="42.3407570" lon="-3.7579710">
        <ele>863.4</ele>
        <time>2022-06-27T14:09:47Z</time>
      </trkpt>
      <trkpt lat="42.3407610" lon="-3.7580400">
        <ele>863.6</ele>
        <time>2022-06-27T14:09:48Z</time>
      </trkpt>
      <trkpt lat="42.3407620" lon="-3.7581130">
        <ele>863.6</ele>
        <time>2022-06-27T14:09:49Z</time>
      </trkpt>
      <trkpt lat="42.3407620" lon="-3.7581840">
        <ele>864.0</ele>
        <time>2022-06-27T14:09:50Z</time>
      </trkpt>
      <trkpt lat="42.3407620" lon="-3.7582560">
        <ele>864.2</ele>
        <time>2022-06-27T14:09:51Z</time>
      </trkpt>
      <trkpt lat="42.3407620" lon="-3.7583280">
        <ele>864.4</ele>
        <time>2022-06-27T14:09:52Z</time>
      </trkpt>
      <trkpt lat="42.3407630" lon="-3.7584020">
        <ele>864.6</ele>
        <time>2022-06-27T14:09:53Z</time>
      </trkpt>
      <trkpt lat="42.3407650" lon="-3.7584750">
        <ele>864.8</ele>
        <time>2022-06-27T14:09:54Z</time>
      </trkpt>
      <trkpt lat="42.3407650" lon="-3.7585470">
        <ele>865.0</ele>
        <time>2022-06-27T14:09:55Z</time>
      </trkpt>
      <trkpt lat="42.3407660" lon="-3.7586190">
        <ele>865.2</ele>
        <time>2022-06-27T14:09:56Z</time>
      </trkpt>
      <trkpt lat="42.3407660" lon="-3.7586920">
        <ele>865.4</ele>
        <time>2022-06-27T14:09:57Z</time>
      </trkpt>
      <trkpt lat="42.3407680" lon="-3.7587640">
        <ele>866.0</ele>
        <time>2022-06-27T14:09:58Z</time>
      </trkpt>
      <trkpt lat="42.3407680" lon="-3.7588370">
        <ele>866.2</ele>
        <time>2022-06-27T14:09:59Z</time>
      </trkpt>
      <trkpt lat="42.3407670" lon="-3.7589080">
        <ele>866.4</ele>
        <time>2022-06-27T14:10:00Z</time>
      </trkpt>
      <trkpt lat="42.3407670" lon="-3.7589800">
        <ele>866.4</ele>
        <time>2022-06-27T14:10:01Z</time>
      </trkpt>
      <trkpt lat="42.3407680" lon="-3.7590610">
        <ele>866.6</ele>
        <time>2022-06-27T14:10:02Z</time>
      </trkpt>
      <trkpt lat="42.3407690" lon="-3.7591170">
        <ele>867.0</ele>
        <time>2022-06-27T14:10:03Z</time>
      </trkpt>
      <trkpt lat="42.3407690" lon="-3.7591890">
        <ele>867.0</ele>
        <time>2022-06-27T14:10:04Z</time>
      </trkpt>
      <trkpt lat="42.3407690" lon="-3.7592600">
        <ele>867.2</ele>
        <time>2022-06-27T14:10:05Z</time>
      </trkpt>
      <trkpt lat="42.3407700" lon="-3.7593330">
        <ele>867.2</ele>
        <time>2022-06-27T14:10:06Z</time>
      </trkpt>
      <trkpt lat="42.3407710" lon="-3.7594010">
        <ele>867.4</ele>
        <time>2022-06-27T14:10:07Z</time>
      </trkpt>
      <trkpt lat="42.3407700" lon="-3.7594690">
        <ele>867.6</ele>
        <time>2022-06-27T14:10:08Z</time>
      </trkpt>
      <trkpt lat="42.3407710" lon="-3.7595390">
        <ele>867.6</ele>
        <time>2022-06-27T14:10:09Z</time>
      </trkpt>
      <trkpt lat="42.3407710" lon="-3.7596080">
        <ele>867.8</ele>
        <time>2022-06-27T14:10:10Z</time>
      </trkpt>
      <trkpt lat="42.3407720" lon="-3.7596780">
        <ele>867.8</ele>
        <time>2022-06-27T14:10:11Z</time>
      </trkpt>
      <trkpt lat="42.3407720" lon="-3.7597490">
        <ele>868.0</ele>
        <time>2022-06-27T14:10:12Z</time>
      </trkpt>
      <trkpt lat="42.3407710" lon="-3.7598210">
        <ele>868.2</ele>
        <time>2022-06-27T14:10:13Z</time>
      </trkpt>
      <trkpt lat="42.3407730" lon="-3.7598940">
        <ele>868.4</ele>
        <time>2022-06-27T14:10:14Z</time>
      </trkpt>
      <trkpt lat="42.3407770" lon="-3.7599640">
        <ele>868.4</ele>
        <time>2022-06-27T14:10:15Z</time>
      </trkpt>
      <trkpt lat="42.3407840" lon="-3.7600330">
        <ele>868.4</ele>
        <time>2022-06-27T14:10:16Z</time>
      </trkpt>
      <trkpt lat="42.3407980" lon="-3.7601020">
        <ele>868.6</ele>
        <time>2022-06-27T14:10:17Z</time>
      </trkpt>
      <trkpt lat="42.3408180" lon="-3.7601690">
        <ele>868.6</ele>
        <time>2022-06-27T14:10:18Z</time>
      </trkpt>
      <trkpt lat="42.3408430" lon="-3.7602320">
        <ele>868.6</ele>
        <time>2022-06-27T14:10:19Z</time>
      </trkpt>
      <trkpt lat="42.3408720" lon="-3.7602940">
        <ele>868.8</ele>
        <time>2022-06-27T14:10:20Z</time>
      </trkpt>
      <trkpt lat="42.3409030" lon="-3.7603570">
        <ele>869.0</ele>
        <time>2022-06-27T14:10:21Z</time>
      </trkpt>
      <trkpt lat="42.3409320" lon="-3.7604230">
        <ele>869.2</ele>
        <time>2022-06-27T14:10:22Z</time>
      </trkpt>
      <trkpt lat="42.3409550" lon="-3.7604950">
        <ele>869.2</ele>
        <time>2022-06-27T14:10:23Z</time>
      </trkpt>
      <trkpt lat="42.3409700" lon="-3.7605870">
        <ele>869.2</ele>
        <time>2022-06-27T14:10:24Z</time>
      </trkpt>
      <trkpt lat="42.3409710" lon="-3.7606510">
        <ele>869.4</ele>
        <time>2022-06-27T14:10:25Z</time>
      </trkpt>
      <trkpt lat="42.3409630" lon="-3.7607310">
        <ele>869.6</ele>
        <time>2022-06-27T14:10:26Z</time>
      </trkpt>
      <trkpt lat="42.3409470" lon="-3.7608080">
        <ele>869.8</ele>
        <time>2022-06-27T14:10:27Z</time>
      </trkpt>
      <trkpt lat="42.3409260" lon="-3.7608840">
        <ele>869.8</ele>
        <time>2022-06-27T14:10:28Z</time>
      </trkpt>
      <trkpt lat="42.3409020" lon="-3.7609570">
        <ele>869.8</ele>
        <time>2022-06-27T14:10:29Z</time>
      </trkpt>
      <trkpt lat="42.3408760" lon="-3.7610310">
        <ele>870.0</ele>
        <time>2022-06-27T14:10:30Z</time>
      </trkpt>
      <trkpt lat="42.3408540" lon="-3.7611090">
        <ele>870.0</ele>
        <time>2022-06-27T14:10:31Z</time>
      </trkpt>
      <trkpt lat="42.3408420" lon="-3.7611900">
        <ele>870.2</ele>
        <time>2022-06-27T14:10:32Z</time>
      </trkpt>
      <trkpt lat="42.3408350" lon="-3.7612760">
        <ele>870.2</ele>
        <time>2022-06-27T14:10:33Z</time>
      </trkpt>
      <trkpt lat="42.3408320" lon="-3.7613780">
        <ele>870.2</ele>
        <time>2022-06-27T14:10:34Z</time>
      </trkpt>
      <trkpt lat="42.3408310" lon="-3.7614490">
        <ele>870.2</ele>
        <time>2022-06-27T14:10:35Z</time>
      </trkpt>
      <trkpt lat="42.3408300" lon="-3.7615350">
        <ele>870.2</ele>
        <time>2022-06-27T14:10:36Z</time>
      </trkpt>
      <trkpt lat="42.3408290" lon="-3.7616220">
        <ele>870.4</ele>
        <time>2022-06-27T14:10:37Z</time>
      </trkpt>
      <trkpt lat="42.3408310" lon="-3.7617080">
        <ele>870.2</ele>
        <time>2022-06-27T14:10:38Z</time>
      </trkpt>
      <trkpt lat="42.3408300" lon="-3.7617910">
        <ele>870.2</ele>
        <time>2022-06-27T14:10:39Z</time>
      </trkpt>
      <trkpt lat="42.3408280" lon="-3.7618780">
        <ele>870.2</ele>
        <time>2022-06-27T14:10:40Z</time>
      </trkpt>
      <trkpt lat="42.3408290" lon="-3.7619650">
        <ele>870.2</ele>
        <time>2022-06-27T14:10:41Z</time>
      </trkpt>
      <trkpt lat="42.3408320" lon="-3.7620490">
        <ele>870.2</ele>
        <time>2022-06-27T14:10:42Z</time>
      </trkpt>
      <trkpt lat="42.3408350" lon="-3.7621320">
        <ele>870.4</ele>
        <time>2022-06-27T14:10:43Z</time>
      </trkpt>
      <trkpt lat="42.3408360" lon="-3.7622180">
        <ele>870.2</ele>
        <time>2022-06-27T14:10:44Z</time>
      </trkpt>
      <trkpt lat="42.3408380" lon="-3.7623040">
        <ele>870.2</ele>
        <time>2022-06-27T14:10:45Z</time>
      </trkpt>
      <trkpt lat="42.3408390" lon="-3.7623880">
        <ele>870.2</ele>
        <time>2022-06-27T14:10:46Z</time>
      </trkpt>
      <trkpt lat="42.3408400" lon="-3.7624740">
        <ele>870.2</ele>
        <time>2022-06-27T14:10:47Z</time>
      </trkpt>
      <trkpt lat="42.3408420" lon="-3.7625590">
        <ele>870.2</ele>
        <time>2022-06-27T14:10:48Z</time>
      </trkpt>
      <trkpt lat="42.3408450" lon="-3.7626410">
        <ele>870.2</ele>
        <time>2022-06-27T14:10:49Z</time>
      </trkpt>
      <trkpt lat="42.3408460" lon="-3.7627230">
        <ele>870.2</ele>
        <time>2022-06-27T14:10:50Z</time>
      </trkpt>
      <trkpt lat="42.3408460" lon="-3.7628080">
        <ele>870.4</ele>
        <time>2022-06-27T14:10:51Z</time>
      </trkpt>
      <trkpt lat="42.3408460" lon="-3.7628890">
        <ele>870.4</ele>
        <time>2022-06-27T14:10:52Z</time>
      </trkpt>
      <trkpt lat="42.3408470" lon="-3.7629680">
        <ele>870.4</ele>
        <time>2022-06-27T14:10:53Z</time>
      </trkpt>
      <trkpt lat="42.3408480" lon="-3.7630480">
        <ele>870.4</ele>
        <time>2022-06-27T14:10:54Z</time>
      </trkpt>
      <trkpt lat="42.3408480" lon="-3.7631260">
        <ele>870.4</ele>
        <time>2022-06-27T14:10:55Z</time>
      </trkpt>
      <trkpt lat="42.3408490" lon="-3.7632050">
        <ele>870.6</ele>
        <time>2022-06-27T14:10:56Z</time>
      </trkpt>
      <trkpt lat="42.3408510" lon="-3.7632840">
        <ele>870.6</ele>
        <time>2022-06-27T14:10:57Z</time>
      </trkpt>
      <trkpt lat="42.3408510" lon="-3.7633630">
        <ele>870.8</ele>
        <time>2022-06-27T14:10:58Z</time>
      </trkpt>
      <trkpt lat="42.3408520" lon="-3.7634410">
        <ele>871.2</ele>
        <time>2022-06-27T14:10:59Z</time>
      </trkpt>
      <trkpt lat="42.3408510" lon="-3.7635210">
        <ele>871.2</ele>
        <time>2022-06-27T14:11:00Z</time>
      </trkpt>
      <trkpt lat="42.3408510" lon="-3.7635970">
        <ele>871.4</ele>
        <time>2022-06-27T14:11:01Z</time>
      </trkpt>
      <trkpt lat="42.3408510" lon="-3.7636700">
        <ele>871.4</ele>
        <time>2022-06-27T14:11:02Z</time>
      </trkpt>
      <trkpt lat="42.3408520" lon="-3.7637410">
        <ele>871.6</ele>
        <time>2022-06-27T14:11:03Z</time>
      </trkpt>
      <trkpt lat="42.3408520" lon="-3.7638110">
        <ele>871.6</ele>
        <time>2022-06-27T14:11:04Z</time>
      </trkpt>
      <trkpt lat="42.3408530" lon="-3.7638830">
        <ele>871.8</ele>
        <time>2022-06-27T14:11:05Z</time>
      </trkpt>
      <trkpt lat="42.3408540" lon="-3.7639530">
        <ele>872.0</ele>
        <time>2022-06-27T14:11:06Z</time>
      </trkpt>
      <trkpt lat="42.3408540" lon="-3.7640260">
        <ele>872.0</ele>
        <time>2022-06-27T14:11:07Z</time>
      </trkpt>
      <trkpt lat="42.3408520" lon="-3.7641000">
        <ele>872.2</ele>
        <time>2022-06-27T14:11:08Z</time>
      </trkpt>
      <trkpt lat="42.3408550" lon="-3.7641760">
        <ele>872.4</ele>
        <time>2022-06-27T14:11:09Z</time>
      </trkpt>
      <trkpt lat="42.3408590" lon="-3.7642520">
        <ele>872.6</ele>
        <time>2022-06-27T14:11:10Z</time>
      </trkpt>
      <trkpt lat="42.3408610" lon="-3.7643290">
        <ele>872.6</ele>
        <time>2022-06-27T14:11:11Z</time>
      </trkpt>
      <trkpt lat="42.3408630" lon="-3.7644060">
        <ele>872.8</ele>
        <time>2022-06-27T14:11:12Z</time>
      </trkpt>
      <trkpt lat="42.3408650" lon="-3.7644850">
        <ele>872.8</ele>
        <time>2022-06-27T14:11:13Z</time>
      </trkpt>
      <trkpt lat="42.3408670" lon="-3.7645650">
        <ele>873.0</ele>
        <time>2022-06-27T14:11:14Z</time>
      </trkpt>
      <trkpt lat="42.3408680" lon="-3.7646440">
        <ele>873.0</ele>
        <time>2022-06-27T14:11:15Z</time>
      </trkpt>
      <trkpt lat="42.3408680" lon="-3.7647230">
        <ele>873.0</ele>
        <time>2022-06-27T14:11:16Z</time>
      </trkpt>
      <trkpt lat="42.3408700" lon="-3.7648000">
        <ele>873.0</ele>
        <time>2022-06-27T14:11:17Z</time>
      </trkpt>
      <trkpt lat="42.3408710" lon="-3.7648790">
        <ele>873.0</ele>
        <time>2022-06-27T14:11:18Z</time>
      </trkpt>
      <trkpt lat="42.3408730" lon="-3.7649590">
        <ele>873.2</ele>
        <time>2022-06-27T14:11:19Z</time>
      </trkpt>
      <trkpt lat="42.3408740" lon="-3.7650380">
        <ele>873.2</ele>
        <time>2022-06-27T14:11:20Z</time>
      </trkpt>
      <trkpt lat="42.3408730" lon="-3.7651190">
        <ele>873.4</ele>
        <time>2022-06-27T14:11:21Z</time>
      </trkpt>
      <trkpt lat="42.3408720" lon="-3.7651990">
        <ele>873.4</ele>
        <time>2022-06-27T14:11:22Z</time>
      </trkpt>
      <trkpt lat="42.3408730" lon="-3.7652810">
        <ele>873.4</ele>
        <time>2022-06-27T14:11:23Z</time>
      </trkpt>
      <trkpt lat="42.3408760" lon="-3.7653630">
        <ele>873.6</ele>
        <time>2022-06-27T14:11:24Z</time>
      </trkpt>
      <trkpt lat="42.3408790" lon="-3.7654440">
        <ele>873.6</ele>
        <time>2022-06-27T14:11:25Z</time>
      </trkpt>
      <trkpt lat="42.3408810" lon="-3.7655260">
        <ele>873.8</ele>
        <time>2022-06-27T14:11:26Z</time>
      </trkpt>
      <trkpt lat="42.3408850" lon="-3.7656080">
        <ele>873.8</ele>
        <time>2022-06-27T14:11:27Z</time>
      </trkpt>
      <trkpt lat="42.3408870" lon="-3.7656880">
        <ele>873.8</ele>
        <time>2022-06-27T14:11:28Z</time>
      </trkpt>
      <trkpt lat="42.3408890" lon="-3.7657700">
        <ele>874.0</ele>
        <time>2022-06-27T14:11:29Z</time>
      </trkpt>
      <trkpt lat="42.3408900" lon="-3.7658540">
        <ele>874.0</ele>
        <time>2022-06-27T14:11:30Z</time>
      </trkpt>
      <trkpt lat="42.3408910" lon="-3.7659390">
        <ele>874.2</ele>
        <time>2022-06-27T14:11:31Z</time>
      </trkpt>
      <trkpt lat="42.3408910" lon="-3.7660230">
        <ele>874.2</ele>
        <time>2022-06-27T14:11:32Z</time>
      </trkpt>
      <trkpt lat="42.3408930" lon="-3.7661060">
        <ele>874.2</ele>
        <time>2022-06-27T14:11:33Z</time>
      </trkpt>
      <trkpt lat="42.3408950" lon="-3.7661910">
        <ele>874.2</ele>
        <time>2022-06-27T14:11:34Z</time>
      </trkpt>
      <trkpt lat="42.3408970" lon="-3.7662750">
        <ele>874.4</ele>
        <time>2022-06-27T14:11:35Z</time>
      </trkpt>
      <trkpt lat="42.3409000" lon="-3.7663600">
        <ele>874.4</ele>
        <time>2022-06-27T14:11:36Z</time>
      </trkpt>
      <trkpt lat="42.3409060" lon="-3.7664450">
        <ele>874.6</ele>
        <time>2022-06-27T14:11:37Z</time>
      </trkpt>
      <trkpt lat="42.3409120" lon="-3.7665310">
        <ele>874.6</ele>
        <time>2022-06-27T14:11:38Z</time>
      </trkpt>
      <trkpt lat="42.3409200" lon="-3.7666180">
        <ele>874.6</ele>
        <time>2022-06-27T14:11:39Z</time>
      </trkpt>
      <trkpt lat="42.3409260" lon="-3.7667060">
        <ele>874.6</ele>
        <time>2022-06-27T14:11:40Z</time>
      </trkpt>
      <trkpt lat="42.3409320" lon="-3.7667900">
        <ele>874.6</ele>
        <time>2022-06-27T14:11:41Z</time>
      </trkpt>
      <trkpt lat="42.3409390" lon="-3.7668770">
        <ele>874.6</ele>
        <time>2022-06-27T14:11:42Z</time>
      </trkpt>
      <trkpt lat="42.3409470" lon="-3.7669640">
        <ele>874.8</ele>
        <time>2022-06-27T14:11:43Z</time>
      </trkpt>
      <trkpt lat="42.3409560" lon="-3.7670520">
        <ele>874.8</ele>
        <time>2022-06-27T14:11:44Z</time>
      </trkpt>
      <trkpt lat="42.3409670" lon="-3.7671380">
        <ele>875.0</ele>
        <time>2022-06-27T14:11:45Z</time>
      </trkpt>
      <trkpt lat="42.3409780" lon="-3.7672250">
        <ele>875.0</ele>
        <time>2022-06-27T14:11:46Z</time>
      </trkpt>
      <trkpt lat="42.3409900" lon="-3.7673130">
        <ele>875.2</ele>
        <time>2022-06-27T14:11:47Z</time>
      </trkpt>
      <trkpt lat="42.3410020" lon="-3.7674010">
        <ele>875.2</ele>
        <time>2022-06-27T14:11:48Z</time>
      </trkpt>
      <trkpt lat="42.3410130" lon="-3.7674870">
        <ele>875.2</ele>
        <time>2022-06-27T14:11:49Z</time>
      </trkpt>
      <trkpt lat="42.3410280" lon="-3.7675740">
        <ele>875.2</ele>
        <time>2022-06-27T14:11:50Z</time>
      </trkpt>
      <trkpt lat="42.3410430" lon="-3.7676620">
        <ele>875.2</ele>
        <time>2022-06-27T14:11:51Z</time>
      </trkpt>
      <trkpt lat="42.3410590" lon="-3.7677510">
        <ele>875.4</ele>
        <time>2022-06-27T14:11:52Z</time>
      </trkpt>
      <trkpt lat="42.3410760" lon="-3.7678390">
        <ele>875.4</ele>
        <time>2022-06-27T14:11:53Z</time>
      </trkpt>
      <trkpt lat="42.3410930" lon="-3.7679240">
        <ele>875.4</ele>
        <time>2022-06-27T14:11:54Z</time>
      </trkpt>
      <trkpt lat="42.3411110" lon="-3.7680100">
        <ele>875.4</ele>
        <time>2022-06-27T14:11:55Z</time>
      </trkpt>
      <trkpt lat="42.3411290" lon="-3.7680950">
        <ele>875.4</ele>
        <time>2022-06-27T14:11:56Z</time>
      </trkpt>
      <trkpt lat="42.3411500" lon="-3.7681800">
        <ele>875.4</ele>
        <time>2022-06-27T14:11:57Z</time>
      </trkpt>
      <trkpt lat="42.3411680" lon="-3.7682640">
        <ele>875.4</ele>
        <time>2022-06-27T14:11:58Z</time>
      </trkpt>
      <trkpt lat="42.3411860" lon="-3.7683510">
        <ele>875.6</ele>
        <time>2022-06-27T14:11:59Z</time>
      </trkpt>
      <trkpt lat="42.3412050" lon="-3.7684390">
        <ele>875.6</ele>
        <time>2022-06-27T14:12:00Z</time>
      </trkpt>
      <trkpt lat="42.3412250" lon="-3.7685280">
        <ele>875.6</ele>
        <time>2022-06-27T14:12:01Z</time>
      </trkpt>
      <trkpt lat="42.3412450" lon="-3.7686170">
        <ele>875.6</ele>
        <time>2022-06-27T14:12:02Z</time>
      </trkpt>
      <trkpt lat="42.3412650" lon="-3.7687050">
        <ele>875.8</ele>
        <time>2022-06-27T14:12:03Z</time>
      </trkpt>
      <trkpt lat="42.3412840" lon="-3.7687930">
        <ele>876.0</ele>
        <time>2022-06-27T14:12:04Z</time>
      </trkpt>
      <trkpt lat="42.3413040" lon="-3.7688780">
        <ele>876.0</ele>
        <time>2022-06-27T14:12:05Z</time>
      </trkpt>
      <trkpt lat="42.3413250" lon="-3.7689630">
        <ele>876.0</ele>
        <time>2022-06-27T14:12:06Z</time>
      </trkpt>
      <trkpt lat="42.3413460" lon="-3.7690510">
        <ele>876.0</ele>
        <time>2022-06-27T14:12:07Z</time>
      </trkpt>
      <trkpt lat="42.3413660" lon="-3.7691380">
        <ele>876.0</ele>
        <time>2022-06-27T14:12:08Z</time>
      </trkpt>
      <trkpt lat="42.3413850" lon="-3.7692230">
        <ele>876.2</ele>
        <time>2022-06-27T14:12:09Z</time>
      </trkpt>
      <trkpt lat="42.3414040" lon="-3.7693090">
        <ele>876.2</ele>
        <time>2022-06-27T14:12:10Z</time>
      </trkpt>
      <trkpt lat="42.3414230" lon="-3.7693940">
        <ele>876.2</ele>
        <time>2022-06-27T14:12:11Z</time>
      </trkpt>
      <trkpt lat="42.3414430" lon="-3.7694800">
        <ele>876.2</ele>
        <time>2022-06-27T14:12:12Z</time>
      </trkpt>
      <trkpt lat="42.3414620" lon="-3.7695660">
        <ele>876.6</ele>
        <time>2022-06-27T14:12:13Z</time>
      </trkpt>
      <trkpt lat="42.3414810" lon="-3.7696530">
        <ele>876.6</ele>
        <time>2022-06-27T14:12:14Z</time>
      </trkpt>
      <trkpt lat="42.3414990" lon="-3.7697410">
        <ele>876.6</ele>
        <time>2022-06-27T14:12:15Z</time>
      </trkpt>
      <trkpt lat="42.3415180" lon="-3.7698300">
        <ele>876.6</ele>
        <time>2022-06-27T14:12:16Z</time>
      </trkpt>
      <trkpt lat="42.3415380" lon="-3.7699180">
        <ele>876.8</ele>
        <time>2022-06-27T14:12:17Z</time>
      </trkpt>
      <trkpt lat="42.3415580" lon="-3.7700050">
        <ele>876.8</ele>
        <time>2022-06-27T14:12:18Z</time>
      </trkpt>
      <trkpt lat="42.3415780" lon="-3.7700920">
        <ele>877.0</ele>
        <time>2022-06-27T14:12:19Z</time>
      </trkpt>
      <trkpt lat="42.3415980" lon="-3.7701780">
        <ele>877.0</ele>
        <time>2022-06-27T14:12:20Z</time>
      </trkpt>
      <trkpt lat="42.3416150" lon="-3.7702630">
        <ele>877.0</ele>
        <time>2022-06-27T14:12:21Z</time>
      </trkpt>
      <trkpt lat="42.3416340" lon="-3.7703500">
        <ele>877.2</ele>
        <time>2022-06-27T14:12:22Z</time>
      </trkpt>
      <trkpt lat="42.3416520" lon="-3.7704360">
        <ele>877.2</ele>
        <time>2022-06-27T14:12:23Z</time>
      </trkpt>
      <trkpt lat="42.3416710" lon="-3.7705240">
        <ele>877.2</ele>
        <time>2022-06-27T14:12:24Z</time>
      </trkpt>
      <trkpt lat="42.3416910" lon="-3.7706110">
        <ele>877.2</ele>
        <time>2022-06-27T14:12:25Z</time>
      </trkpt>
      <trkpt lat="42.3417110" lon="-3.7706980">
        <ele>877.2</ele>
        <time>2022-06-27T14:12:26Z</time>
      </trkpt>
      <trkpt lat="42.3417310" lon="-3.7707840">
        <ele>877.2</ele>
        <time>2022-06-27T14:12:27Z</time>
      </trkpt>
      <trkpt lat="42.3417490" lon="-3.7708700">
        <ele>877.2</ele>
        <time>2022-06-27T14:12:28Z</time>
      </trkpt>
      <trkpt lat="42.3417670" lon="-3.7709550">
        <ele>877.6</ele>
        <time>2022-06-27T14:12:29Z</time>
      </trkpt>
      <trkpt lat="42.3417890" lon="-3.7710390">
        <ele>877.6</ele>
        <time>2022-06-27T14:12:30Z</time>
      </trkpt>
      <trkpt lat="42.3418110" lon="-3.7711210">
        <ele>877.8</ele>
        <time>2022-06-27T14:12:31Z</time>
      </trkpt>
      <trkpt lat="42.3418310" lon="-3.7712040">
        <ele>878.0</ele>
        <time>2022-06-27T14:12:32Z</time>
      </trkpt>
      <trkpt lat="42.3418500" lon="-3.7712880">
        <ele>878.0</ele>
        <time>2022-06-27T14:12:33Z</time>
      </trkpt>
      <trkpt lat="42.3418710" lon="-3.7713720">
        <ele>878.0</ele>
        <time>2022-06-27T14:12:34Z</time>
      </trkpt>
      <trkpt lat="42.3418930" lon="-3.7714550">
        <ele>878.0</ele>
        <time>2022-06-27T14:12:35Z</time>
      </trkpt>
      <trkpt lat="42.3419140" lon="-3.7715390">
        <ele>878.0</ele>
        <time>2022-06-27T14:12:36Z</time>
      </trkpt>
      <trkpt lat="42.3419330" lon="-3.7716250">
        <ele>878.0</ele>
        <time>2022-06-27T14:12:37Z</time>
      </trkpt>
      <trkpt lat="42.3419530" lon="-3.7717110">
        <ele>878.2</ele>
        <time>2022-06-27T14:12:38Z</time>
      </trkpt>
      <trkpt lat="42.3419710" lon="-3.7718010">
        <ele>878.0</ele>
        <time>2022-06-27T14:12:39Z</time>
      </trkpt>
      <trkpt lat="42.3419900" lon="-3.7718950">
        <ele>877.8</ele>
        <time>2022-06-27T14:12:40Z</time>
      </trkpt>
      <trkpt lat="42.3420100" lon="-3.7719940">
        <ele>877.6</ele>
        <time>2022-06-27T14:12:41Z</time>
      </trkpt>
      <trkpt lat="42.3420330" lon="-3.7720960">
        <ele>877.6</ele>
        <time>2022-06-27T14:12:42Z</time>
      </trkpt>
      <trkpt lat="42.3420510" lon="-3.7721780">
        <ele>877.6</ele>
        <time>2022-06-27T14:12:43Z</time>
      </trkpt>
      <trkpt lat="42.3420700" lon="-3.7722610">
        <ele>877.4</ele>
        <time>2022-06-27T14:12:44Z</time>
      </trkpt>
      <trkpt lat="42.3421070" lon="-3.7724270">
        <ele>877.2</ele>
        <time>2022-06-27T14:12:45Z</time>
      </trkpt>
      <trkpt lat="42.3421320" lon="-3.7725470">
        <ele>877.0</ele>
        <time>2022-06-27T14:12:46Z</time>
      </trkpt>
      <trkpt lat="42.3421600" lon="-3.7726750">
        <ele>877.0</ele>
        <time>2022-06-27T14:12:47Z</time>
      </trkpt>
      <trkpt lat="42.3421890" lon="-3.7728060">
        <ele>876.4</ele>
        <time>2022-06-27T14:12:48Z</time>
      </trkpt>
      <trkpt lat="42.3422190" lon="-3.7729420">
        <ele>876.2</ele>
        <time>2022-06-27T14:12:49Z</time>
      </trkpt>
      <trkpt lat="42.3422520" lon="-3.7730790">
        <ele>875.4</ele>
        <time>2022-06-27T14:12:50Z</time>
      </trkpt>
      <trkpt lat="42.3422930" lon="-3.7732150">
        <ele>875.2</ele>
        <time>2022-06-27T14:12:51Z</time>
      </trkpt>
      <trkpt lat="42.3423450" lon="-3.7733430">
        <ele>874.8</ele>
        <time>2022-06-27T14:12:52Z</time>
      </trkpt>
      <trkpt lat="42.3424030" lon="-3.7734630">
        <ele>874.8</ele>
        <time>2022-06-27T14:12:53Z</time>
      </trkpt>
      <trkpt lat="42.3424500" lon="-3.7735830">
        <ele>874.4</ele>
        <time>2022-06-27T14:12:54Z</time>
      </trkpt>
      <trkpt lat="42.3424770" lon="-3.7737090">
        <ele>873.8</ele>
        <time>2022-06-27T14:12:55Z</time>
      </trkpt>
      <trkpt lat="42.3424790" lon="-3.7738370">
        <ele>873.4</ele>
        <time>2022-06-27T14:12:56Z</time>
      </trkpt>
      <trkpt lat="42.3424590" lon="-3.7739630">
        <ele>872.6</ele>
        <time>2022-06-27T14:12:57Z</time>
      </trkpt>
      <trkpt lat="42.3424290" lon="-3.7740870">
        <ele>872.2</ele>
        <time>2022-06-27T14:12:58Z</time>
      </trkpt>
      <trkpt lat="42.3424060" lon="-3.7742150">
        <ele>872.0</ele>
        <time>2022-06-27T14:12:59Z</time>
      </trkpt>
      <trkpt lat="42.3423970" lon="-3.7743460">
        <ele>872.0</ele>
        <time>2022-06-27T14:13:00Z</time>
      </trkpt>
      <trkpt lat="42.3424050" lon="-3.7744790">
        <ele>871.8</ele>
        <time>2022-06-27T14:13:01Z</time>
      </trkpt>
      <trkpt lat="42.3424240" lon="-3.7746120">
        <ele>871.6</ele>
        <time>2022-06-27T14:13:02Z</time>
      </trkpt>
      <trkpt lat="42.3424450" lon="-3.7747450">
        <ele>871.4</ele>
        <time>2022-06-27T14:13:03Z</time>
      </trkpt>
      <trkpt lat="42.3424660" lon="-3.7748780">
        <ele>871.2</ele>
        <time>2022-06-27T14:13:04Z</time>
      </trkpt>
      <trkpt lat="42.3424880" lon="-3.7750120">
        <ele>871.2</ele>
        <time>2022-06-27T14:13:05Z</time>
      </trkpt>
      <trkpt lat="42.3425110" lon="-3.7751450">
        <ele>871.0</ele>
        <time>2022-06-27T14:13:06Z</time>
      </trkpt>
      <trkpt lat="42.3425330" lon="-3.7752800">
        <ele>870.8</ele>
        <time>2022-06-27T14:13:07Z</time>
      </trkpt>
      <trkpt lat="42.3425580" lon="-3.7754130">
        <ele>870.4</ele>
        <time>2022-06-27T14:13:08Z</time>
      </trkpt>
      <trkpt lat="42.3425890" lon="-3.7755460">
        <ele>870.0</ele>
        <time>2022-06-27T14:13:09Z</time>
      </trkpt>
      <trkpt lat="42.3426230" lon="-3.7756790">
        <ele>869.8</ele>
        <time>2022-06-27T14:13:10Z</time>
      </trkpt>
      <trkpt lat="42.3426610" lon="-3.7758160">
        <ele>869.4</ele>
        <time>2022-06-27T14:13:11Z</time>
      </trkpt>
      <trkpt lat="42.3427040" lon="-3.7759520">
        <ele>869.2</ele>
        <time>2022-06-27T14:13:12Z</time>
      </trkpt>
      <trkpt lat="42.3427530" lon="-3.7760870">
        <ele>868.6</ele>
        <time>2022-06-27T14:13:13Z</time>
      </trkpt>
      <trkpt lat="42.3428090" lon="-3.7762210">
        <ele>868.4</ele>
        <time>2022-06-27T14:13:14Z</time>
      </trkpt>
      <trkpt lat="42.3428700" lon="-3.7763520">
        <ele>868.2</ele>
        <time>2022-06-27T14:13:15Z</time>
      </trkpt>
      <trkpt lat="42.3429380" lon="-3.7764780">
        <ele>867.8</ele>
        <time>2022-06-27T14:13:16Z</time>
      </trkpt>
      <trkpt lat="42.3430090" lon="-3.7766010">
        <ele>867.4</ele>
        <time>2022-06-27T14:13:17Z</time>
      </trkpt>
      <trkpt lat="42.3430850" lon="-3.7767200">
        <ele>866.8</ele>
        <time>2022-06-27T14:13:18Z</time>
      </trkpt>
      <trkpt lat="42.3431640" lon="-3.7768380">
        <ele>866.4</ele>
        <time>2022-06-27T14:13:19Z</time>
      </trkpt>
      <trkpt lat="42.3432460" lon="-3.7769550">
        <ele>866.0</ele>
        <time>2022-06-27T14:13:20Z</time>
      </trkpt>
      <trkpt lat="42.3433290" lon="-3.7770680">
        <ele>865.4</ele>
        <time>2022-06-27T14:13:21Z</time>
      </trkpt>
      <trkpt lat="42.3434140" lon="-3.7771830">
        <ele>864.8</ele>
        <time>2022-06-27T14:13:22Z</time>
      </trkpt>
      <trkpt lat="42.3435000" lon="-3.7772980">
        <ele>864.2</ele>
        <time>2022-06-27T14:13:23Z</time>
      </trkpt>
      <trkpt lat="42.3435890" lon="-3.7774120">
        <ele>863.8</ele>
        <time>2022-06-27T14:13:24Z</time>
      </trkpt>
      <trkpt lat="42.3436780" lon="-3.7775240">
        <ele>862.8</ele>
        <time>2022-06-27T14:13:25Z</time>
      </trkpt>
      <trkpt lat="42.3437680" lon="-3.7776390">
        <ele>862.2</ele>
        <time>2022-06-27T14:13:26Z</time>
      </trkpt>
      <trkpt lat="42.3438590" lon="-3.7777530">
        <ele>861.6</ele>
        <time>2022-06-27T14:13:27Z</time>
      </trkpt>
      <trkpt lat="42.3439490" lon="-3.7778670">
        <ele>861.2</ele>
        <time>2022-06-27T14:13:28Z</time>
      </trkpt>
      <trkpt lat="42.3440410" lon="-3.7779820">
        <ele>860.6</ele>
        <time>2022-06-27T14:13:29Z</time>
      </trkpt>
      <trkpt lat="42.3441300" lon="-3.7780960">
        <ele>859.6</ele>
        <time>2022-06-27T14:13:30Z</time>
      </trkpt>
      <trkpt lat="42.3442200" lon="-3.7782100">
        <ele>859.0</ele>
        <time>2022-06-27T14:13:31Z</time>
      </trkpt>
      <trkpt lat="42.3443070" lon="-3.7783220">
        <ele>858.0</ele>
        <time>2022-06-27T14:13:32Z</time>
      </trkpt>
      <trkpt lat="42.3443930" lon="-3.7784310">
        <ele>857.6</ele>
        <time>2022-06-27T14:13:33Z</time>
      </trkpt>
      <trkpt lat="42.3444770" lon="-3.7785390">
        <ele>856.8</ele>
        <time>2022-06-27T14:13:34Z</time>
      </trkpt>
      <trkpt lat="42.3445610" lon="-3.7786450">
        <ele>856.4</ele>
        <time>2022-06-27T14:13:35Z</time>
      </trkpt>
      <trkpt lat="42.3446440" lon="-3.7787470">
        <ele>855.8</ele>
        <time>2022-06-27T14:13:36Z</time>
      </trkpt>
      <trkpt lat="42.3447220" lon="-3.7788490">
        <ele>855.4</ele>
        <time>2022-06-27T14:13:37Z</time>
      </trkpt>
      <trkpt lat="42.3448000" lon="-3.7789490">
        <ele>855.2</ele>
        <time>2022-06-27T14:13:38Z</time>
      </trkpt>
      <trkpt lat="42.3448760" lon="-3.7790470">
        <ele>854.8</ele>
        <time>2022-06-27T14:13:39Z</time>
      </trkpt>
      <trkpt lat="42.3449510" lon="-3.7791420">
        <ele>854.8</ele>
        <time>2022-06-27T14:13:40Z</time>
      </trkpt>
      <trkpt lat="42.3450250" lon="-3.7792350">
        <ele>854.8</ele>
        <time>2022-06-27T14:13:41Z</time>
      </trkpt>
      <trkpt lat="42.3450970" lon="-3.7793270">
        <ele>854.6</ele>
        <time>2022-06-27T14:13:42Z</time>
      </trkpt>
      <trkpt lat="42.3451700" lon="-3.7794200">
        <ele>854.6</ele>
        <time>2022-06-27T14:13:43Z</time>
      </trkpt>
      <trkpt lat="42.3452430" lon="-3.7795120">
        <ele>854.4</ele>
        <time>2022-06-27T14:13:44Z</time>
      </trkpt>
      <trkpt lat="42.3453190" lon="-3.7796050">
        <ele>854.4</ele>
        <time>2022-06-27T14:13:45Z</time>
      </trkpt>
      <trkpt lat="42.3453970" lon="-3.7797000">
        <ele>854.2</ele>
        <time>2022-06-27T14:13:46Z</time>
      </trkpt>
      <trkpt lat="42.3454740" lon="-3.7797960">
        <ele>854.2</ele>
        <time>2022-06-27T14:13:47Z</time>
      </trkpt>
      <trkpt lat="42.3455530" lon="-3.7798940">
        <ele>854.0</ele>
        <time>2022-06-27T14:13:48Z</time>
      </trkpt>
      <trkpt lat="42.3456300" lon="-3.7799930">
        <ele>854.0</ele>
        <time>2022-06-27T14:13:49Z</time>
      </trkpt>
      <trkpt lat="42.3457110" lon="-3.7800940">
        <ele>853.6</ele>
        <time>2022-06-27T14:13:50Z</time>
      </trkpt>
      <trkpt lat="42.3457930" lon="-3.7802000">
        <ele>853.0</ele>
        <time>2022-06-27T14:13:51Z</time>
      </trkpt>
      <trkpt lat="42.3458740" lon="-3.7803090">
        <ele>852.6</ele>
        <time>2022-06-27T14:13:52Z</time>
      </trkpt>
      <trkpt lat="42.3459520" lon="-3.7804260">
        <ele>851.6</ele>
        <time>2022-06-27T14:13:53Z</time>
      </trkpt>
      <trkpt lat="42.3460260" lon="-3.7805510">
        <ele>851.2</ele>
        <time>2022-06-27T14:13:54Z</time>
      </trkpt>
      <trkpt lat="42.3460920" lon="-3.7806860">
        <ele>850.0</ele>
        <time>2022-06-27T14:13:55Z</time>
      </trkpt>
      <trkpt lat="42.3461540" lon="-3.7808290">
        <ele>849.8</ele>
        <time>2022-06-27T14:13:56Z</time>
      </trkpt>
      <trkpt lat="42.3462110" lon="-3.7809760">
        <ele>849.0</ele>
        <time>2022-06-27T14:13:57Z</time>
      </trkpt>
      <trkpt lat="42.3462570" lon="-3.7811310">
        <ele>848.2</ele>
        <time>2022-06-27T14:13:58Z</time>
      </trkpt>
      <trkpt lat="42.3462970" lon="-3.7812950">
        <ele>848.0</ele>
        <time>2022-06-27T14:13:59Z</time>
      </trkpt>
      <trkpt lat="42.3463350" lon="-3.7814630">
        <ele>847.2</ele>
        <time>2022-06-27T14:14:00Z</time>
      </trkpt>
      <trkpt lat="42.3463710" lon="-3.7816340">
        <ele>846.8</ele>
        <time>2022-06-27T14:14:01Z</time>
      </trkpt>
      <trkpt lat="42.3464080" lon="-3.7818070">
        <ele>845.8</ele>
        <time>2022-06-27T14:14:02Z</time>
      </trkpt>
      <trkpt lat="42.3464460" lon="-3.7819800">
        <ele>845.4</ele>
        <time>2022-06-27T14:14:03Z</time>
      </trkpt>
      <trkpt lat="42.3464840" lon="-3.7821520">
        <ele>844.0</ele>
        <time>2022-06-27T14:14:04Z</time>
      </trkpt>
      <trkpt lat="42.3465210" lon="-3.7823240">
        <ele>842.8</ele>
        <time>2022-06-27T14:14:05Z</time>
      </trkpt>
      <trkpt lat="42.3465580" lon="-3.7824920">
        <ele>842.4</ele>
        <time>2022-06-27T14:14:06Z</time>
      </trkpt>
      <trkpt lat="42.3465940" lon="-3.7826560">
        <ele>841.6</ele>
        <time>2022-06-27T14:14:07Z</time>
      </trkpt>
      <trkpt lat="42.3466300" lon="-3.7828170">
        <ele>841.4</ele>
        <time>2022-06-27T14:14:08Z</time>
      </trkpt>
      <trkpt lat="42.3466640" lon="-3.7829730">
        <ele>841.0</ele>
        <time>2022-06-27T14:14:09Z</time>
      </trkpt>
      <trkpt lat="42.3466980" lon="-3.7831230">
        <ele>840.8</ele>
        <time>2022-06-27T14:14:10Z</time>
      </trkpt>
      <trkpt lat="42.3467290" lon="-3.7832690">
        <ele>840.6</ele>
        <time>2022-06-27T14:14:11Z</time>
      </trkpt>
      <trkpt lat="42.3467600" lon="-3.7834060">
        <ele>840.6</ele>
        <time>2022-06-27T14:14:12Z</time>
      </trkpt>
      <trkpt lat="42.3467910" lon="-3.7835390">
        <ele>840.4</ele>
        <time>2022-06-27T14:14:13Z</time>
      </trkpt>
      <trkpt lat="42.3468200" lon="-3.7836660">
        <ele>840.4</ele>
        <time>2022-06-27T14:14:14Z</time>
      </trkpt>
      <trkpt lat="42.3468460" lon="-3.7837890">
        <ele>840.4</ele>
        <time>2022-06-27T14:14:15Z</time>
      </trkpt>
      <trkpt lat="42.3468720" lon="-3.7839070">
        <ele>840.4</ele>
        <time>2022-06-27T14:14:16Z</time>
      </trkpt>
      <trkpt lat="42.3468970" lon="-3.7840210">
        <ele>840.6</ele>
        <time>2022-06-27T14:14:17Z</time>
      </trkpt>
      <trkpt lat="42.3469210" lon="-3.7841290">
        <ele>840.8</ele>
        <time>2022-06-27T14:14:18Z</time>
      </trkpt>
      <trkpt lat="42.3469440" lon="-3.7842340">
        <ele>841.4</ele>
        <time>2022-06-27T14:14:19Z</time>
      </trkpt>
      <trkpt lat="42.3469660" lon="-3.7843370">
        <ele>841.4</ele>
        <time>2022-06-27T14:14:20Z</time>
      </trkpt>
      <trkpt lat="42.3469890" lon="-3.7844360">
        <ele>842.4</ele>
        <time>2022-06-27T14:14:21Z</time>
      </trkpt>
      <trkpt lat="42.3470110" lon="-3.7845350">
        <ele>842.8</ele>
        <time>2022-06-27T14:14:22Z</time>
      </trkpt>
      <trkpt lat="42.3470330" lon="-3.7846300">
        <ele>843.4</ele>
        <time>2022-06-27T14:14:23Z</time>
      </trkpt>
      <trkpt lat="42.3470550" lon="-3.7847280">
        <ele>843.8</ele>
        <time>2022-06-27T14:14:24Z</time>
      </trkpt>
      <trkpt lat="42.3470760" lon="-3.7848240">
        <ele>844.2</ele>
        <time>2022-06-27T14:14:25Z</time>
      </trkpt>
      <trkpt lat="42.3470960" lon="-3.7849210">
        <ele>844.6</ele>
        <time>2022-06-27T14:14:26Z</time>
      </trkpt>
      <trkpt lat="42.3471170" lon="-3.7850190">
        <ele>844.8</ele>
        <time>2022-06-27T14:14:27Z</time>
      </trkpt>
      <trkpt lat="42.3471380" lon="-3.7851160">
        <ele>845.0</ele>
        <time>2022-06-27T14:14:28Z</time>
      </trkpt>
      <trkpt lat="42.3471590" lon="-3.7852130">
        <ele>845.0</ele>
        <time>2022-06-27T14:14:29Z</time>
      </trkpt>
      <trkpt lat="42.3471780" lon="-3.7853090">
        <ele>845.0</ele>
        <time>2022-06-27T14:14:30Z</time>
      </trkpt>
      <trkpt lat="42.3471980" lon="-3.7854070">
        <ele>845.0</ele>
        <time>2022-06-27T14:14:31Z</time>
      </trkpt>
      <trkpt lat="42.3472190" lon="-3.7855060">
        <ele>845.4</ele>
        <time>2022-06-27T14:14:32Z</time>
      </trkpt>
      <trkpt lat="42.3472410" lon="-3.7856120">
        <ele>845.6</ele>
        <time>2022-06-27T14:14:33Z</time>
      </trkpt>
      <trkpt lat="42.3472640" lon="-3.7857200">
        <ele>845.6</ele>
        <time>2022-06-27T14:14:34Z</time>
      </trkpt>
      <trkpt lat="42.3472900" lon="-3.7858310">
        <ele>845.6</ele>
        <time>2022-06-27T14:14:35Z</time>
      </trkpt>
      <trkpt lat="42.3473170" lon="-3.7859370">
        <ele>845.6</ele>
        <time>2022-06-27T14:14:36Z</time>
      </trkpt>
      <trkpt lat="42.3473430" lon="-3.7860470">
        <ele>845.6</ele>
        <time>2022-06-27T14:14:37Z</time>
      </trkpt>
      <trkpt lat="42.3473670" lon="-3.7861560">
        <ele>845.6</ele>
        <time>2022-06-27T14:14:38Z</time>
      </trkpt>
      <trkpt lat="42.3473910" lon="-3.7862640">
        <ele>845.4</ele>
        <time>2022-06-27T14:14:39Z</time>
      </trkpt>
      <trkpt lat="42.3474150" lon="-3.7863720">
        <ele>845.4</ele>
        <time>2022-06-27T14:14:40Z</time>
      </trkpt>
      <trkpt lat="42.3474410" lon="-3.7864810">
        <ele>845.2</ele>
        <time>2022-06-27T14:14:41Z</time>
      </trkpt>
      <trkpt lat="42.3474660" lon="-3.7865910">
        <ele>845.2</ele>
        <time>2022-06-27T14:14:42Z</time>
      </trkpt>
      <trkpt lat="42.3474900" lon="-3.7867020">
        <ele>845.2</ele>
        <time>2022-06-27T14:14:43Z</time>
      </trkpt>
      <trkpt lat="42.3475130" lon="-3.7868140">
        <ele>844.8</ele>
        <time>2022-06-27T14:14:44Z</time>
      </trkpt>
      <trkpt lat="42.3475390" lon="-3.7869270">
        <ele>844.6</ele>
        <time>2022-06-27T14:14:45Z</time>
      </trkpt>
      <trkpt lat="42.3475640" lon="-3.7870420">
        <ele>844.2</ele>
        <time>2022-06-27T14:14:46Z</time>
      </trkpt>
      <trkpt lat="42.3475890" lon="-3.7871590">
        <ele>844.0</ele>
        <time>2022-06-27T14:14:47Z</time>
      </trkpt>
      <trkpt lat="42.3476150" lon="-3.7872760">
        <ele>844.0</ele>
        <time>2022-06-27T14:14:48Z</time>
      </trkpt>
      <trkpt lat="42.3476430" lon="-3.7873940">
        <ele>843.8</ele>
        <time>2022-06-27T14:14:49Z</time>
      </trkpt>
      <trkpt lat="42.3476700" lon="-3.7875130">
        <ele>843.8</ele>
        <time>2022-06-27T14:14:50Z</time>
      </trkpt>
      <trkpt lat="42.3476990" lon="-3.7876360">
        <ele>843.6</ele>
        <time>2022-06-27T14:14:51Z</time>
      </trkpt>
      <trkpt lat="42.3477280" lon="-3.7877600">
        <ele>843.6</ele>
        <time>2022-06-27T14:14:52Z</time>
      </trkpt>
      <trkpt lat="42.3477580" lon="-3.7878890">
        <ele>843.4</ele>
        <time>2022-06-27T14:14:53Z</time>
      </trkpt>
      <trkpt lat="42.3477890" lon="-3.7880210">
        <ele>843.2</ele>
        <time>2022-06-27T14:14:54Z</time>
      </trkpt>
      <trkpt lat="42.3478210" lon="-3.7881600">
        <ele>843.0</ele>
        <time>2022-06-27T14:14:55Z</time>
      </trkpt>
      <trkpt lat="42.3478520" lon="-3.7883000">
        <ele>843.0</ele>
        <time>2022-06-27T14:14:56Z</time>
      </trkpt>
      <trkpt lat="42.3478830" lon="-3.7884400">
        <ele>843.0</ele>
        <time>2022-06-27T14:14:57Z</time>
      </trkpt>
      <trkpt lat="42.3479140" lon="-3.7885830">
        <ele>842.8</ele>
        <time>2022-06-27T14:14:58Z</time>
      </trkpt>
      <trkpt lat="42.3479460" lon="-3.7887280">
        <ele>842.4</ele>
        <time>2022-06-27T14:14:59Z</time>
      </trkpt>
      <trkpt lat="42.3479800" lon="-3.7888760">
        <ele>841.4</ele>
        <time>2022-06-27T14:15:00Z</time>
      </trkpt>
      <trkpt lat="42.3480130" lon="-3.7890260">
        <ele>840.8</ele>
        <time>2022-06-27T14:15:01Z</time>
      </trkpt>
      <trkpt lat="42.3480460" lon="-3.7891780">
        <ele>840.6</ele>
        <time>2022-06-27T14:15:02Z</time>
      </trkpt>
      <trkpt lat="42.3480810" lon="-3.7893290">
        <ele>840.0</ele>
        <time>2022-06-27T14:15:03Z</time>
      </trkpt>
      <trkpt lat="42.3481140" lon="-3.7894790">
        <ele>840.0</ele>
        <time>2022-06-27T14:15:04Z</time>
      </trkpt>
      <trkpt lat="42.3481470" lon="-3.7896290">
        <ele>839.2</ele>
        <time>2022-06-27T14:15:05Z</time>
      </trkpt>
      <trkpt lat="42.3481780" lon="-3.7897780">
        <ele>839.0</ele>
        <time>2022-06-27T14:15:06Z</time>
      </trkpt>
      <trkpt lat="42.3482100" lon="-3.7899240">
        <ele>838.8</ele>
        <time>2022-06-27T14:15:07Z</time>
      </trkpt>
      <trkpt lat="42.3482420" lon="-3.7900680">
        <ele>838.2</ele>
        <time>2022-06-27T14:15:08Z</time>
      </trkpt>
      <trkpt lat="42.3482740" lon="-3.7902130">
        <ele>838.0</ele>
        <time>2022-06-27T14:15:09Z</time>
      </trkpt>
      <trkpt lat="42.3483060" lon="-3.7903550">
        <ele>837.6</ele>
        <time>2022-06-27T14:15:10Z</time>
      </trkpt>
      <trkpt lat="42.3483390" lon="-3.7904950">
        <ele>837.4</ele>
        <time>2022-06-27T14:15:11Z</time>
      </trkpt>
      <trkpt lat="42.3483700" lon="-3.7906330">
        <ele>837.0</ele>
        <time>2022-06-27T14:15:12Z</time>
      </trkpt>
      <trkpt lat="42.3483990" lon="-3.7907690">
        <ele>836.6</ele>
        <time>2022-06-27T14:15:13Z</time>
      </trkpt>
      <trkpt lat="42.3484270" lon="-3.7909040">
        <ele>836.4</ele>
        <time>2022-06-27T14:15:14Z</time>
      </trkpt>
      <trkpt lat="42.3484580" lon="-3.7910380">
        <ele>836.2</ele>
        <time>2022-06-27T14:15:15Z</time>
      </trkpt>
      <trkpt lat="42.3484870" lon="-3.7911720">
        <ele>836.2</ele>
        <time>2022-06-27T14:15:16Z</time>
      </trkpt>
      <trkpt lat="42.3485160" lon="-3.7913030">
        <ele>836.0</ele>
        <time>2022-06-27T14:15:17Z</time>
      </trkpt>
      <trkpt lat="42.3485430" lon="-3.7914310">
        <ele>836.0</ele>
        <time>2022-06-27T14:15:18Z</time>
      </trkpt>
      <trkpt lat="42.3485710" lon="-3.7915590">
        <ele>835.8</ele>
        <time>2022-06-27T14:15:19Z</time>
      </trkpt>
      <trkpt lat="42.3486000" lon="-3.7916850">
        <ele>835.8</ele>
        <time>2022-06-27T14:15:20Z</time>
      </trkpt>
      <trkpt lat="42.3486290" lon="-3.7918140">
        <ele>835.8</ele>
        <time>2022-06-27T14:15:21Z</time>
      </trkpt>
      <trkpt lat="42.3486570" lon="-3.7919400">
        <ele>835.8</ele>
        <time>2022-06-27T14:15:22Z</time>
      </trkpt>
      <trkpt lat="42.3486840" lon="-3.7920660">
        <ele>835.8</ele>
        <time>2022-06-27T14:15:23Z</time>
      </trkpt>
      <trkpt lat="42.3487100" lon="-3.7921870">
        <ele>835.8</ele>
        <time>2022-06-27T14:15:24Z</time>
      </trkpt>
      <trkpt lat="42.3487370" lon="-3.7923070">
        <ele>836.0</ele>
        <time>2022-06-27T14:15:25Z</time>
      </trkpt>
      <trkpt lat="42.3487630" lon="-3.7924250">
        <ele>836.0</ele>
        <time>2022-06-27T14:15:26Z</time>
      </trkpt>
      <trkpt lat="42.3487880" lon="-3.7925400">
        <ele>835.8</ele>
        <time>2022-06-27T14:15:27Z</time>
      </trkpt>
      <trkpt lat="42.3488130" lon="-3.7926520">
        <ele>835.6</ele>
        <time>2022-06-27T14:15:28Z</time>
      </trkpt>
      <trkpt lat="42.3488400" lon="-3.7927590">
        <ele>835.4</ele>
        <time>2022-06-27T14:15:29Z</time>
      </trkpt>
      <trkpt lat="42.3488750" lon="-3.7928610">
        <ele>835.4</ele>
        <time>2022-06-27T14:15:30Z</time>
      </trkpt>
      <trkpt lat="42.3489250" lon="-3.7929490">
        <ele>835.2</ele>
        <time>2022-06-27T14:15:31Z</time>
      </trkpt>
      <trkpt lat="42.3489880" lon="-3.7930090">
        <ele>835.2</ele>
        <time>2022-06-27T14:15:32Z</time>
      </trkpt>
      <trkpt lat="42.3490570" lon="-3.7930480">
        <ele>835.2</ele>
        <time>2022-06-27T14:15:33Z</time>
      </trkpt>
      <trkpt lat="42.3491290" lon="-3.7930790">
        <ele>835.2</ele>
        <time>2022-06-27T14:15:34Z</time>
      </trkpt>
      <trkpt lat="42.3492000" lon="-3.7931040">
        <ele>835.2</ele>
        <time>2022-06-27T14:15:35Z</time>
      </trkpt>
      <trkpt lat="42.3492680" lon="-3.7931340">
        <ele>835.2</ele>
        <time>2022-06-27T14:15:36Z</time>
      </trkpt>
      <trkpt lat="42.3493350" lon="-3.7931710">
        <ele>835.2</ele>
        <time>2022-06-27T14:15:37Z</time>
      </trkpt>
      <trkpt lat="42.3493990" lon="-3.7932170">
        <ele>835.2</ele>
        <time>2022-06-27T14:15:38Z</time>
      </trkpt>
      <trkpt lat="42.3494580" lon="-3.7932710">
        <ele>835.2</ele>
        <time>2022-06-27T14:15:39Z</time>
      </trkpt>
      <trkpt lat="42.3495140" lon="-3.7933320">
        <ele>835.4</ele>
        <time>2022-06-27T14:15:40Z</time>
      </trkpt>
      <trkpt lat="42.3495660" lon="-3.7933980">
        <ele>835.4</ele>
        <time>2022-06-27T14:15:41Z</time>
      </trkpt>
      <trkpt lat="42.3496120" lon="-3.7934700">
        <ele>835.6</ele>
        <time>2022-06-27T14:15:42Z</time>
      </trkpt>
      <trkpt lat="42.3496530" lon="-3.7935490">
        <ele>835.8</ele>
        <time>2022-06-27T14:15:43Z</time>
      </trkpt>
      <trkpt lat="42.3496860" lon="-3.7936360">
        <ele>836.2</ele>
        <time>2022-06-27T14:15:44Z</time>
      </trkpt>
      <trkpt lat="42.3497100" lon="-3.7937260">
        <ele>836.4</ele>
        <time>2022-06-27T14:15:45Z</time>
      </trkpt>
      <trkpt lat="42.3497290" lon="-3.7938190">
        <ele>836.4</ele>
        <time>2022-06-27T14:15:46Z</time>
      </trkpt>
      <trkpt lat="42.3497440" lon="-3.7939140">
        <ele>836.6</ele>
        <time>2022-06-27T14:15:47Z</time>
      </trkpt>
      <trkpt lat="42.3497520" lon="-3.7940090">
        <ele>836.6</ele>
        <time>2022-06-27T14:15:48Z</time>
      </trkpt>
      <trkpt lat="42.3497530" lon="-3.7941050">
        <ele>836.8</ele>
        <time>2022-06-27T14:15:49Z</time>
      </trkpt>
      <trkpt lat="42.3497480" lon="-3.7942020">
        <ele>836.8</ele>
        <time>2022-06-27T14:15:50Z</time>
      </trkpt>
      <trkpt lat="42.3497370" lon="-3.7942970">
        <ele>836.8</ele>
        <time>2022-06-27T14:15:51Z</time>
      </trkpt>
      <trkpt lat="42.3497200" lon="-3.7943900">
        <ele>837.0</ele>
        <time>2022-06-27T14:15:52Z</time>
      </trkpt>
      <trkpt lat="42.3496970" lon="-3.7944800">
        <ele>837.0</ele>
        <time>2022-06-27T14:15:53Z</time>
      </trkpt>
      <trkpt lat="42.3496680" lon="-3.7945640">
        <ele>837.0</ele>
        <time>2022-06-27T14:15:54Z</time>
      </trkpt>
      <trkpt lat="42.3496330" lon="-3.7946470">
        <ele>837.2</ele>
        <time>2022-06-27T14:15:55Z</time>
      </trkpt>
      <trkpt lat="42.3495950" lon="-3.7947270">
        <ele>837.2</ele>
        <time>2022-06-27T14:15:56Z</time>
      </trkpt>
      <trkpt lat="42.3495460" lon="-3.7948030">
        <ele>837.2</ele>
        <time>2022-06-27T14:15:57Z</time>
      </trkpt>
      <trkpt lat="42.3494870" lon="-3.7948700">
        <ele>837.2</ele>
        <time>2022-06-27T14:15:58Z</time>
      </trkpt>
      <trkpt lat="42.3494240" lon="-3.7949310">
        <ele>837.4</ele>
        <time>2022-06-27T14:15:59Z</time>
      </trkpt>
      <trkpt lat="42.3493580" lon="-3.7949840">
        <ele>837.4</ele>
        <time>2022-06-27T14:16:00Z</time>
      </trkpt>
      <trkpt lat="42.3492870" lon="-3.7950230">
        <ele>837.4</ele>
        <time>2022-06-27T14:16:01Z</time>
      </trkpt>
      <trkpt lat="42.3492100" lon="-3.7950550">
        <ele>837.4</ele>
        <time>2022-06-27T14:16:02Z</time>
      </trkpt>
      <trkpt lat="42.3491330" lon="-3.7950790">
        <ele>837.0</ele>
        <time>2022-06-27T14:16:03Z</time>
      </trkpt>
      <trkpt lat="42.3490560" lon="-3.7950960">
        <ele>837.0</ele>
        <time>2022-06-27T14:16:04Z</time>
      </trkpt>
      <trkpt lat="42.3489780" lon="-3.7951050">
        <ele>836.8</ele>
        <time>2022-06-27T14:16:05Z</time>
      </trkpt>
      <trkpt lat="42.3489020" lon="-3.7951130">
        <ele>836.6</ele>
        <time>2022-06-27T14:16:06Z</time>
      </trkpt>
      <trkpt lat="42.3488270" lon="-3.7951300">
        <ele>836.6</ele>
        <time>2022-06-27T14:16:07Z</time>
      </trkpt>
      <trkpt lat="42.3487610" lon="-3.7951740">
        <ele>836.6</ele>
        <time>2022-06-27T14:16:08Z</time>
      </trkpt>
      <trkpt lat="42.3487130" lon="-3.7952470">
        <ele>836.6</ele>
        <time>2022-06-27T14:16:09Z</time>
      </trkpt>
      <trkpt lat="42.3486900" lon="-3.7953380">
        <ele>836.4</ele>
        <time>2022-06-27T14:16:10Z</time>
      </trkpt>
      <trkpt lat="42.3487020" lon="-3.7954360">
        <ele>836.2</ele>
        <time>2022-06-27T14:16:11Z</time>
      </trkpt>
      <trkpt lat="42.3487430" lon="-3.7955320">
        <ele>836.0</ele>
        <time>2022-06-27T14:16:12Z</time>
      </trkpt>
      <trkpt lat="42.3488000" lon="-3.7956140">
        <ele>835.8</ele>
        <time>2022-06-27T14:16:13Z</time>
      </trkpt>
      <trkpt lat="42.3488670" lon="-3.7956870">
        <ele>835.8</ele>
        <time>2022-06-27T14:16:14Z</time>
      </trkpt>
      <trkpt lat="42.3489380" lon="-3.7957490">
        <ele>835.6</ele>
        <time>2022-06-27T14:16:15Z</time>
      </trkpt>
      <trkpt lat="42.3490150" lon="-3.7958040">
        <ele>835.4</ele>
        <time>2022-06-27T14:16:16Z</time>
      </trkpt>
      <trkpt lat="42.3490940" lon="-3.7958520">
        <ele>835.2</ele>
        <time>2022-06-27T14:16:17Z</time>
      </trkpt>
      <trkpt lat="42.3491730" lon="-3.7958950">
        <ele>835.0</ele>
        <time>2022-06-27T14:16:18Z</time>
      </trkpt>
      <trkpt lat="42.3492520" lon="-3.7959360">
        <ele>834.6</ele>
        <time>2022-06-27T14:16:19Z</time>
      </trkpt>
      <trkpt lat="42.3493300" lon="-3.7959790">
        <ele>834.4</ele>
        <time>2022-06-27T14:16:20Z</time>
      </trkpt>
      <trkpt lat="42.3494040" lon="-3.7960270">
        <ele>834.4</ele>
        <time>2022-06-27T14:16:21Z</time>
      </trkpt>
      <trkpt lat="42.3494750" lon="-3.7960780">
        <ele>834.2</ele>
        <time>2022-06-27T14:16:22Z</time>
      </trkpt>
      <trkpt lat="42.3495420" lon="-3.7961340">
        <ele>834.2</ele>
        <time>2022-06-27T14:16:23Z</time>
      </trkpt>
      <trkpt lat="42.3496050" lon="-3.7961970">
        <ele>834.4</ele>
        <time>2022-06-27T14:16:24Z</time>
      </trkpt>
      <trkpt lat="42.3496650" lon="-3.7962640">
        <ele>834.6</ele>
        <time>2022-06-27T14:16:25Z</time>
      </trkpt>
      <trkpt lat="42.3497200" lon="-3.7963360">
        <ele>834.6</ele>
        <time>2022-06-27T14:16:26Z</time>
      </trkpt>
      <trkpt lat="42.3497710" lon="-3.7964110">
        <ele>834.8</ele>
        <time>2022-06-27T14:16:27Z</time>
      </trkpt>
      <trkpt lat="42.3498160" lon="-3.7964900">
        <ele>834.8</ele>
        <time>2022-06-27T14:16:28Z</time>
      </trkpt>
      <trkpt lat="42.3498590" lon="-3.7965730">
        <ele>835.2</ele>
        <time>2022-06-27T14:16:29Z</time>
      </trkpt>
      <trkpt lat="42.3498980" lon="-3.7966580">
        <ele>835.4</ele>
        <time>2022-06-27T14:16:30Z</time>
      </trkpt>
      <trkpt lat="42.3499310" lon="-3.7967460">
        <ele>835.6</ele>
        <time>2022-06-27T14:16:31Z</time>
      </trkpt>
      <trkpt lat="42.3499590" lon="-3.7968390">
        <ele>835.6</ele>
        <time>2022-06-27T14:16:32Z</time>
      </trkpt>
      <trkpt lat="42.3499810" lon="-3.7969350">
        <ele>835.6</ele>
        <time>2022-06-27T14:16:33Z</time>
      </trkpt>
      <trkpt lat="42.3499990" lon="-3.7970320">
        <ele>835.6</ele>
        <time>2022-06-27T14:16:34Z</time>
      </trkpt>
      <trkpt lat="42.3500140" lon="-3.7971310">
        <ele>835.6</ele>
        <time>2022-06-27T14:16:35Z</time>
      </trkpt>
      <trkpt lat="42.3500260" lon="-3.7972300">
        <ele>835.8</ele>
        <time>2022-06-27T14:16:36Z</time>
      </trkpt>
      <trkpt lat="42.3500340" lon="-3.7973310">
        <ele>835.8</ele>
        <time>2022-06-27T14:16:37Z</time>
      </trkpt>
      <trkpt lat="42.3500410" lon="-3.7974340">
        <ele>835.8</ele>
        <time>2022-06-27T14:16:38Z</time>
      </trkpt>
      <trkpt lat="42.3500450" lon="-3.7975360">
        <ele>835.8</ele>
        <time>2022-06-27T14:16:39Z</time>
      </trkpt>
      <trkpt lat="42.3500480" lon="-3.7976400">
        <ele>835.8</ele>
        <time>2022-06-27T14:16:40Z</time>
      </trkpt>
      <trkpt lat="42.3500490" lon="-3.7977430">
        <ele>835.8</ele>
        <time>2022-06-27T14:16:41Z</time>
      </trkpt>
      <trkpt lat="42.3500510" lon="-3.7978470">
        <ele>835.8</ele>
        <time>2022-06-27T14:16:42Z</time>
      </trkpt>
      <trkpt lat="42.3500530" lon="-3.7979490">
        <ele>835.8</ele>
        <time>2022-06-27T14:16:43Z</time>
      </trkpt>
      <trkpt lat="42.3500540" lon="-3.7980540">
        <ele>835.8</ele>
        <time>2022-06-27T14:16:44Z</time>
      </trkpt>
      <trkpt lat="42.3500530" lon="-3.7981580">
        <ele>835.6</ele>
        <time>2022-06-27T14:16:45Z</time>
      </trkpt>
      <trkpt lat="42.3500520" lon="-3.7982610">
        <ele>835.6</ele>
        <time>2022-06-27T14:16:46Z</time>
      </trkpt>
      <trkpt lat="42.3500520" lon="-3.7983650">
        <ele>835.8</ele>
        <time>2022-06-27T14:16:47Z</time>
      </trkpt>
      <trkpt lat="42.3500510" lon="-3.7984690">
        <ele>835.8</ele>
        <time>2022-06-27T14:16:48Z</time>
      </trkpt>
      <trkpt lat="42.3500510" lon="-3.7985750">
        <ele>835.8</ele>
        <time>2022-06-27T14:16:49Z</time>
      </trkpt>
      <trkpt lat="42.3500490" lon="-3.7986790">
        <ele>835.8</ele>
        <time>2022-06-27T14:16:50Z</time>
      </trkpt>
      <trkpt lat="42.3500470" lon="-3.7987850">
        <ele>835.6</ele>
        <time>2022-06-27T14:16:51Z</time>
      </trkpt>
      <trkpt lat="42.3500440" lon="-3.7988940">
        <ele>835.6</ele>
        <time>2022-06-27T14:16:52Z</time>
      </trkpt>
      <trkpt lat="42.3500400" lon="-3.7990030">
        <ele>835.6</ele>
        <time>2022-06-27T14:16:53Z</time>
      </trkpt>
      <trkpt lat="42.3500350" lon="-3.7991110">
        <ele>835.6</ele>
        <time>2022-06-27T14:16:54Z</time>
      </trkpt>
      <trkpt lat="42.3500290" lon="-3.7992200">
        <ele>835.8</ele>
        <time>2022-06-27T14:16:55Z</time>
      </trkpt>
      <trkpt lat="42.3500210" lon="-3.7993290">
        <ele>835.6</ele>
        <time>2022-06-27T14:16:56Z</time>
      </trkpt>
      <trkpt lat="42.3500110" lon="-3.7994380">
        <ele>835.8</ele>
        <time>2022-06-27T14:16:57Z</time>
      </trkpt>
      <trkpt lat="42.3499980" lon="-3.7995460">
        <ele>835.8</ele>
        <time>2022-06-27T14:16:58Z</time>
      </trkpt>
      <trkpt lat="42.3499830" lon="-3.7996550">
        <ele>835.8</ele>
        <time>2022-06-27T14:16:59Z</time>
      </trkpt>
      <trkpt lat="42.3499660" lon="-3.7997620">
        <ele>835.8</ele>
        <time>2022-06-27T14:17:00Z</time>
      </trkpt>
      <trkpt lat="42.3499510" lon="-3.7998690">
        <ele>835.8</ele>
        <time>2022-06-27T14:17:01Z</time>
      </trkpt>
      <trkpt lat="42.3499310" lon="-3.7999750">
        <ele>835.8</ele>
        <time>2022-06-27T14:17:02Z</time>
      </trkpt>
      <trkpt lat="42.3499080" lon="-3.8000820">
        <ele>835.8</ele>
        <time>2022-06-27T14:17:03Z</time>
      </trkpt>
      <trkpt lat="42.3498810" lon="-3.8001870">
        <ele>835.8</ele>
        <time>2022-06-27T14:17:04Z</time>
      </trkpt>
      <trkpt lat="42.3498500" lon="-3.8002900">
        <ele>835.8</ele>
        <time>2022-06-27T14:17:05Z</time>
      </trkpt>
      <trkpt lat="42.3498170" lon="-3.8003930">
        <ele>835.8</ele>
        <time>2022-06-27T14:17:06Z</time>
      </trkpt>
      <trkpt lat="42.3497830" lon="-3.8004930">
        <ele>835.8</ele>
        <time>2022-06-27T14:17:07Z</time>
      </trkpt>
      <trkpt lat="42.3497480" lon="-3.8005920">
        <ele>835.8</ele>
        <time>2022-06-27T14:17:08Z</time>
      </trkpt>
      <trkpt lat="42.3497110" lon="-3.8006880">
        <ele>835.8</ele>
        <time>2022-06-27T14:17:09Z</time>
      </trkpt>
      <trkpt lat="42.3496720" lon="-3.8007840">
        <ele>835.8</ele>
        <time>2022-06-27T14:17:10Z</time>
      </trkpt>
      <trkpt lat="42.3496330" lon="-3.8008790">
        <ele>835.6</ele>
        <time>2022-06-27T14:17:11Z</time>
      </trkpt>
      <trkpt lat="42.3495910" lon="-3.8009760">
        <ele>835.6</ele>
        <time>2022-06-27T14:17:12Z</time>
      </trkpt>
      <trkpt lat="42.3495360" lon="-3.8010880">
        <ele>835.6</ele>
        <time>2022-06-27T14:17:13Z</time>
      </trkpt>
      <trkpt lat="42.3495000" lon="-3.8011620">
        <ele>835.6</ele>
        <time>2022-06-27T14:17:14Z</time>
      </trkpt>
      <trkpt lat="42.3494540" lon="-3.8012550">
        <ele>835.6</ele>
        <time>2022-06-27T14:17:15Z</time>
      </trkpt>
      <trkpt lat="42.3494060" lon="-3.8013460">
        <ele>835.6</ele>
        <time>2022-06-27T14:17:16Z</time>
      </trkpt>
      <trkpt lat="42.3493600" lon="-3.8014360">
        <ele>835.4</ele>
        <time>2022-06-27T14:17:17Z</time>
      </trkpt>
      <trkpt lat="42.3493110" lon="-3.8015270">
        <ele>835.4</ele>
        <time>2022-06-27T14:17:18Z</time>
      </trkpt>
      <trkpt lat="42.3492630" lon="-3.8016190">
        <ele>835.4</ele>
        <time>2022-06-27T14:17:19Z</time>
      </trkpt>
      <trkpt lat="42.3492130" lon="-3.8017100">
        <ele>835.4</ele>
        <time>2022-06-27T14:17:20Z</time>
      </trkpt>
      <trkpt lat="42.3491620" lon="-3.8017980">
        <ele>835.4</ele>
        <time>2022-06-27T14:17:21Z</time>
      </trkpt>
      <trkpt lat="42.3491100" lon="-3.8018850">
        <ele>835.2</ele>
        <time>2022-06-27T14:17:22Z</time>
      </trkpt>
      <trkpt lat="42.3490590" lon="-3.8019720">
        <ele>835.2</ele>
        <time>2022-06-27T14:17:23Z</time>
      </trkpt>
      <trkpt lat="42.3490080" lon="-3.8020590">
        <ele>835.2</ele>
        <time>2022-06-27T14:17:24Z</time>
      </trkpt>
      <trkpt lat="42.3489560" lon="-3.8021460">
        <ele>835.2</ele>
        <time>2022-06-27T14:17:25Z</time>
      </trkpt>
      <trkpt lat="42.3489060" lon="-3.8022330">
        <ele>835.4</ele>
        <time>2022-06-27T14:17:26Z</time>
      </trkpt>
      <trkpt lat="42.3488560" lon="-3.8023210">
        <ele>835.4</ele>
        <time>2022-06-27T14:17:27Z</time>
      </trkpt>
      <trkpt lat="42.3488060" lon="-3.8024110">
        <ele>835.4</ele>
        <time>2022-06-27T14:17:28Z</time>
      </trkpt>
      <trkpt lat="42.3487550" lon="-3.8024990">
        <ele>835.8</ele>
        <time>2022-06-27T14:17:29Z</time>
      </trkpt>
      <trkpt lat="42.3487040" lon="-3.8025890">
        <ele>835.8</ele>
        <time>2022-06-27T14:17:30Z</time>
      </trkpt>
      <trkpt lat="42.3486540" lon="-3.8026800">
        <ele>835.8</ele>
        <time>2022-06-27T14:17:31Z</time>
      </trkpt>
      <trkpt lat="42.3486080" lon="-3.8027700">
        <ele>836.0</ele>
        <time>2022-06-27T14:17:32Z</time>
      </trkpt>
      <trkpt lat="42.3485610" lon="-3.8028600">
        <ele>836.0</ele>
        <time>2022-06-27T14:17:33Z</time>
      </trkpt>
      <trkpt lat="42.3485150" lon="-3.8029520">
        <ele>836.0</ele>
        <time>2022-06-27T14:17:34Z</time>
      </trkpt>
      <trkpt lat="42.3484690" lon="-3.8030450">
        <ele>836.0</ele>
        <time>2022-06-27T14:17:35Z</time>
      </trkpt>
      <trkpt lat="42.3484230" lon="-3.8031390">
        <ele>836.2</ele>
        <time>2022-06-27T14:17:36Z</time>
      </trkpt>
      <trkpt lat="42.3483790" lon="-3.8032330">
        <ele>836.2</ele>
        <time>2022-06-27T14:17:37Z</time>
      </trkpt>
      <trkpt lat="42.3483370" lon="-3.8033300">
        <ele>836.2</ele>
        <time>2022-06-27T14:17:38Z</time>
      </trkpt>
      <trkpt lat="42.3482960" lon="-3.8034260">
        <ele>836.2</ele>
        <time>2022-06-27T14:17:39Z</time>
      </trkpt>
      <trkpt lat="42.3482560" lon="-3.8035230">
        <ele>836.2</ele>
        <time>2022-06-27T14:17:40Z</time>
      </trkpt>
      <trkpt lat="42.3482160" lon="-3.8036210">
        <ele>836.2</ele>
        <time>2022-06-27T14:17:41Z</time>
      </trkpt>
      <trkpt lat="42.3481790" lon="-3.8037190">
        <ele>836.2</ele>
        <time>2022-06-27T14:17:42Z</time>
      </trkpt>
      <trkpt lat="42.3481470" lon="-3.8038170">
        <ele>836.2</ele>
        <time>2022-06-27T14:17:43Z</time>
      </trkpt>
      <trkpt lat="42.3481120" lon="-3.8039170">
        <ele>836.2</ele>
        <time>2022-06-27T14:17:44Z</time>
      </trkpt>
      <trkpt lat="42.3480780" lon="-3.8040160">
        <ele>836.4</ele>
        <time>2022-06-27T14:17:45Z</time>
      </trkpt>
      <trkpt lat="42.3480450" lon="-3.8041180">
        <ele>836.4</ele>
        <time>2022-06-27T14:17:46Z</time>
      </trkpt>
      <trkpt lat="42.3480140" lon="-3.8042190">
        <ele>836.4</ele>
        <time>2022-06-27T14:17:47Z</time>
      </trkpt>
      <trkpt lat="42.3479840" lon="-3.8043240">
        <ele>836.4</ele>
        <time>2022-06-27T14:17:48Z</time>
      </trkpt>
      <trkpt lat="42.3479550" lon="-3.8044290">
        <ele>836.4</ele>
        <time>2022-06-27T14:17:49Z</time>
      </trkpt>
      <trkpt lat="42.3479270" lon="-3.8045350">
        <ele>836.4</ele>
        <time>2022-06-27T14:17:50Z</time>
      </trkpt>
      <trkpt lat="42.3479000" lon="-3.8046420">
        <ele>836.6</ele>
        <time>2022-06-27T14:17:51Z</time>
      </trkpt>
      <trkpt lat="42.3478750" lon="-3.8047500">
        <ele>836.8</ele>
        <time>2022-06-27T14:17:52Z</time>
      </trkpt>
      <trkpt lat="42.3478510" lon="-3.8048570">
        <ele>836.8</ele>
        <time>2022-06-27T14:17:53Z</time>
      </trkpt>
      <trkpt lat="42.3478280" lon="-3.8049650">
        <ele>836.8</ele>
        <time>2022-06-27T14:17:54Z</time>
      </trkpt>
      <trkpt lat="42.3478070" lon="-3.8050750">
        <ele>836.8</ele>
        <time>2022-06-27T14:17:55Z</time>
      </trkpt>
      <trkpt lat="42.3477870" lon="-3.8051830">
        <ele>836.8</ele>
        <time>2022-06-27T14:17:56Z</time>
      </trkpt>
      <trkpt lat="42.3477700" lon="-3.8052960">
        <ele>836.6</ele>
        <time>2022-06-27T14:17:57Z</time>
      </trkpt>
      <trkpt lat="42.3477530" lon="-3.8054090">
        <ele>836.6</ele>
        <time>2022-06-27T14:17:58Z</time>
      </trkpt>
      <trkpt lat="42.3477370" lon="-3.8055260">
        <ele>836.6</ele>
        <time>2022-06-27T14:17:59Z</time>
      </trkpt>
      <trkpt lat="42.3477220" lon="-3.8056420">
        <ele>836.6</ele>
        <time>2022-06-27T14:18:00Z</time>
      </trkpt>
      <trkpt lat="42.3477080" lon="-3.8057610">
        <ele>836.6</ele>
        <time>2022-06-27T14:18:01Z</time>
      </trkpt>
      <trkpt lat="42.3476960" lon="-3.8058780">
        <ele>836.6</ele>
        <time>2022-06-27T14:18:02Z</time>
      </trkpt>
      <trkpt lat="42.3476850" lon="-3.8059940">
        <ele>836.6</ele>
        <time>2022-06-27T14:18:03Z</time>
      </trkpt>
      <trkpt lat="42.3476770" lon="-3.8061120">
        <ele>836.6</ele>
        <time>2022-06-27T14:18:04Z</time>
      </trkpt>
      <trkpt lat="42.3476710" lon="-3.8062310">
        <ele>836.6</ele>
        <time>2022-06-27T14:18:05Z</time>
      </trkpt>
      <trkpt lat="42.3476680" lon="-3.8063510">
        <ele>836.6</ele>
        <time>2022-06-27T14:18:06Z</time>
      </trkpt>
      <trkpt lat="42.3476660" lon="-3.8064710">
        <ele>836.6</ele>
        <time>2022-06-27T14:18:07Z</time>
      </trkpt>
      <trkpt lat="42.3476640" lon="-3.8065940">
        <ele>836.6</ele>
        <time>2022-06-27T14:18:08Z</time>
      </trkpt>
      <trkpt lat="42.3476660" lon="-3.8067180">
        <ele>836.8</ele>
        <time>2022-06-27T14:18:09Z</time>
      </trkpt>
      <trkpt lat="42.3476680" lon="-3.8068400">
        <ele>836.8</ele>
        <time>2022-06-27T14:18:10Z</time>
      </trkpt>
      <trkpt lat="42.3476720" lon="-3.8069620">
        <ele>836.8</ele>
        <time>2022-06-27T14:18:11Z</time>
      </trkpt>
      <trkpt lat="42.3476770" lon="-3.8070820">
        <ele>836.8</ele>
        <time>2022-06-27T14:18:12Z</time>
      </trkpt>
      <trkpt lat="42.3476820" lon="-3.8072020">
        <ele>836.6</ele>
        <time>2022-06-27T14:18:13Z</time>
      </trkpt>
      <trkpt lat="42.3476890" lon="-3.8073240">
        <ele>836.8</ele>
        <time>2022-06-27T14:18:14Z</time>
      </trkpt>
      <trkpt lat="42.3476970" lon="-3.8074460">
        <ele>836.8</ele>
        <time>2022-06-27T14:18:15Z</time>
      </trkpt>
      <trkpt lat="42.3477040" lon="-3.8075660">
        <ele>836.6</ele>
        <time>2022-06-27T14:18:16Z</time>
      </trkpt>
      <trkpt lat="42.3477140" lon="-3.8076890">
        <ele>836.6</ele>
        <time>2022-06-27T14:18:17Z</time>
      </trkpt>
      <trkpt lat="42.3477250" lon="-3.8078120">
        <ele>836.6</ele>
        <time>2022-06-27T14:18:18Z</time>
      </trkpt>
      <trkpt lat="42.3477360" lon="-3.8079350">
        <ele>836.6</ele>
        <time>2022-06-27T14:18:19Z</time>
      </trkpt>
      <trkpt lat="42.3477490" lon="-3.8080560">
        <ele>836.4</ele>
        <time>2022-06-27T14:18:20Z</time>
      </trkpt>
      <trkpt lat="42.3477620" lon="-3.8081780">
        <ele>836.4</ele>
        <time>2022-06-27T14:18:21Z</time>
      </trkpt>
      <trkpt lat="42.3477730" lon="-3.8083000">
        <ele>836.4</ele>
        <time>2022-06-27T14:18:22Z</time>
      </trkpt>
      <trkpt lat="42.3477820" lon="-3.8084190">
        <ele>836.4</ele>
        <time>2022-06-27T14:18:23Z</time>
      </trkpt>
      <trkpt lat="42.3477920" lon="-3.8085380">
        <ele>836.4</ele>
        <time>2022-06-27T14:18:24Z</time>
      </trkpt>
      <trkpt lat="42.3478040" lon="-3.8086550">
        <ele>836.4</ele>
        <time>2022-06-27T14:18:25Z</time>
      </trkpt>
      <trkpt lat="42.3478160" lon="-3.8087730">
        <ele>836.4</ele>
        <time>2022-06-27T14:18:26Z</time>
      </trkpt>
      <trkpt lat="42.3478270" lon="-3.8088910">
        <ele>836.4</ele>
        <time>2022-06-27T14:18:27Z</time>
      </trkpt>
      <trkpt lat="42.3478400" lon="-3.8090090">
        <ele>836.6</ele>
        <time>2022-06-27T14:18:28Z</time>
      </trkpt>
      <trkpt lat="42.3478510" lon="-3.8091280">
        <ele>836.6</ele>
        <time>2022-06-27T14:18:29Z</time>
      </trkpt>
      <trkpt lat="42.3478620" lon="-3.8092480">
        <ele>836.6</ele>
        <time>2022-06-27T14:18:30Z</time>
      </trkpt>
      <trkpt lat="42.3478730" lon="-3.8093670">
        <ele>836.6</ele>
        <time>2022-06-27T14:18:31Z</time>
      </trkpt>
      <trkpt lat="42.3478820" lon="-3.8094850">
        <ele>836.6</ele>
        <time>2022-06-27T14:18:32Z</time>
      </trkpt>
      <trkpt lat="42.3478940" lon="-3.8096030">
        <ele>836.6</ele>
        <time>2022-06-27T14:18:33Z</time>
      </trkpt>
      <trkpt lat="42.3479060" lon="-3.8097230">
        <ele>836.6</ele>
        <time>2022-06-27T14:18:34Z</time>
      </trkpt>
      <trkpt lat="42.3479180" lon="-3.8098420">
        <ele>836.6</ele>
        <time>2022-06-27T14:18:35Z</time>
      </trkpt>
      <trkpt lat="42.3479320" lon="-3.8099620">
        <ele>836.6</ele>
        <time>2022-06-27T14:18:36Z</time>
      </trkpt>
      <trkpt lat="42.3479450" lon="-3.8100830">
        <ele>836.6</ele>
        <time>2022-06-27T14:18:37Z</time>
      </trkpt>
      <trkpt lat="42.3479580" lon="-3.8102040">
        <ele>836.6</ele>
        <time>2022-06-27T14:18:38Z</time>
      </trkpt>
      <trkpt lat="42.3479720" lon="-3.8103240">
        <ele>836.4</ele>
        <time>2022-06-27T14:18:39Z</time>
      </trkpt>
      <trkpt lat="42.3479870" lon="-3.8104440">
        <ele>836.2</ele>
        <time>2022-06-27T14:18:40Z</time>
      </trkpt>
      <trkpt lat="42.3480030" lon="-3.8105640">
        <ele>836.0</ele>
        <time>2022-06-27T14:18:41Z</time>
      </trkpt>
      <trkpt lat="42.3480200" lon="-3.8106810">
        <ele>835.6</ele>
        <time>2022-06-27T14:18:42Z</time>
      </trkpt>
      <trkpt lat="42.3480370" lon="-3.8107980">
        <ele>835.6</ele>
        <time>2022-06-27T14:18:43Z</time>
      </trkpt>
      <trkpt lat="42.3480570" lon="-3.8109170">
        <ele>835.4</ele>
        <time>2022-06-27T14:18:44Z</time>
      </trkpt>
      <trkpt lat="42.3480770" lon="-3.8110350">
        <ele>835.4</ele>
        <time>2022-06-27T14:18:45Z</time>
      </trkpt>
      <trkpt lat="42.3480990" lon="-3.8111510">
        <ele>835.2</ele>
        <time>2022-06-27T14:18:46Z</time>
      </trkpt>
      <trkpt lat="42.3481190" lon="-3.8112670">
        <ele>835.0</ele>
        <time>2022-06-27T14:18:47Z</time>
      </trkpt>
      <trkpt lat="42.3481410" lon="-3.8113820">
        <ele>835.0</ele>
        <time>2022-06-27T14:18:48Z</time>
      </trkpt>
      <trkpt lat="42.3481630" lon="-3.8114970">
        <ele>834.8</ele>
        <time>2022-06-27T14:18:49Z</time>
      </trkpt>
      <trkpt lat="42.3481860" lon="-3.8116130">
        <ele>834.8</ele>
        <time>2022-06-27T14:18:50Z</time>
      </trkpt>
      <trkpt lat="42.3482080" lon="-3.8117280">
        <ele>834.8</ele>
        <time>2022-06-27T14:18:51Z</time>
      </trkpt>
      <trkpt lat="42.3482290" lon="-3.8118440">
        <ele>834.8</ele>
        <time>2022-06-27T14:18:52Z</time>
      </trkpt>
      <trkpt lat="42.3482510" lon="-3.8119610">
        <ele>834.8</ele>
        <time>2022-06-27T14:18:53Z</time>
      </trkpt>
      <trkpt lat="42.3482720" lon="-3.8120780">
        <ele>834.8</ele>
        <time>2022-06-27T14:18:54Z</time>
      </trkpt>
      <trkpt lat="42.3482930" lon="-3.8121950">
        <ele>834.8</ele>
        <time>2022-06-27T14:18:55Z</time>
      </trkpt>
      <trkpt lat="42.3483140" lon="-3.8123110">
        <ele>834.8</ele>
        <time>2022-06-27T14:18:56Z</time>
      </trkpt>
      <trkpt lat="42.3483360" lon="-3.8124270">
        <ele>834.8</ele>
        <time>2022-06-27T14:18:57Z</time>
      </trkpt>
      <trkpt lat="42.3483580" lon="-3.8125420">
        <ele>834.6</ele>
        <time>2022-06-27T14:18:58Z</time>
      </trkpt>
      <trkpt lat="42.3483790" lon="-3.8126570">
        <ele>834.6</ele>
        <time>2022-06-27T14:18:59Z</time>
      </trkpt>
      <trkpt lat="42.3484000" lon="-3.8127730">
        <ele>834.6</ele>
        <time>2022-06-27T14:19:00Z</time>
      </trkpt>
      <trkpt lat="42.3484210" lon="-3.8128890">
        <ele>834.6</ele>
        <time>2022-06-27T14:19:01Z</time>
      </trkpt>
      <trkpt lat="42.3484430" lon="-3.8130070">
        <ele>834.6</ele>
        <time>2022-06-27T14:19:02Z</time>
      </trkpt>
      <trkpt lat="42.3484680" lon="-3.8131260">
        <ele>834.6</ele>
        <time>2022-06-27T14:19:03Z</time>
      </trkpt>
      <trkpt lat="42.3484940" lon="-3.8132460">
        <ele>834.6</ele>
        <time>2022-06-27T14:19:04Z</time>
      </trkpt>
      <trkpt lat="42.3485220" lon="-3.8133640">
        <ele>834.6</ele>
        <time>2022-06-27T14:19:05Z</time>
      </trkpt>
      <trkpt lat="42.3485560" lon="-3.8134790">
        <ele>834.4</ele>
        <time>2022-06-27T14:19:06Z</time>
      </trkpt>
      <trkpt lat="42.3485940" lon="-3.8135910">
        <ele>834.4</ele>
        <time>2022-06-27T14:19:07Z</time>
      </trkpt>
      <trkpt lat="42.3486350" lon="-3.8137040">
        <ele>834.2</ele>
        <time>2022-06-27T14:19:08Z</time>
      </trkpt>
      <trkpt lat="42.3486790" lon="-3.8138150">
        <ele>834.2</ele>
        <time>2022-06-27T14:19:09Z</time>
      </trkpt>
      <trkpt lat="42.3487230" lon="-3.8139260">
        <ele>834.0</ele>
        <time>2022-06-27T14:19:10Z</time>
      </trkpt>
      <trkpt lat="42.3487660" lon="-3.8140350">
        <ele>834.0</ele>
        <time>2022-06-27T14:19:11Z</time>
      </trkpt>
      <trkpt lat="42.3488110" lon="-3.8141430">
        <ele>834.0</ele>
        <time>2022-06-27T14:19:12Z</time>
      </trkpt>
      <trkpt lat="42.3488550" lon="-3.8142500">
        <ele>834.0</ele>
        <time>2022-06-27T14:19:13Z</time>
      </trkpt>
      <trkpt lat="42.3488990" lon="-3.8143590">
        <ele>834.2</ele>
        <time>2022-06-27T14:19:14Z</time>
      </trkpt>
      <trkpt lat="42.3489440" lon="-3.8144670">
        <ele>834.2</ele>
        <time>2022-06-27T14:19:15Z</time>
      </trkpt>
      <trkpt lat="42.3489890" lon="-3.8145770">
        <ele>834.2</ele>
        <time>2022-06-27T14:19:16Z</time>
      </trkpt>
      <trkpt lat="42.3490330" lon="-3.8146870">
        <ele>834.2</ele>
        <time>2022-06-27T14:19:17Z</time>
      </trkpt>
      <trkpt lat="42.3490770" lon="-3.8147940">
        <ele>834.2</ele>
        <time>2022-06-27T14:19:18Z</time>
      </trkpt>
      <trkpt lat="42.3491230" lon="-3.8149010">
        <ele>834.2</ele>
        <time>2022-06-27T14:19:19Z</time>
      </trkpt>
      <trkpt lat="42.3491680" lon="-3.8150060">
        <ele>834.2</ele>
        <time>2022-06-27T14:19:20Z</time>
      </trkpt>
      <trkpt lat="42.3492140" lon="-3.8151100">
        <ele>834.4</ele>
        <time>2022-06-27T14:19:21Z</time>
      </trkpt>
      <trkpt lat="42.3492660" lon="-3.8152070">
        <ele>834.4</ele>
        <time>2022-06-27T14:19:22Z</time>
      </trkpt>
      <trkpt lat="42.3493190" lon="-3.8153000">
        <ele>834.4</ele>
        <time>2022-06-27T14:19:23Z</time>
      </trkpt>
      <trkpt lat="42.3493760" lon="-3.8153860">
        <ele>834.4</ele>
        <time>2022-06-27T14:19:24Z</time>
      </trkpt>
      <trkpt lat="42.3494370" lon="-3.8154620">
        <ele>834.4</ele>
        <time>2022-06-27T14:19:25Z</time>
      </trkpt>
      <trkpt lat="42.3495040" lon="-3.8155240">
        <ele>834.4</ele>
        <time>2022-06-27T14:19:26Z</time>
      </trkpt>
      <trkpt lat="42.3495730" lon="-3.8155720">
        <ele>834.4</ele>
        <time>2022-06-27T14:19:27Z</time>
      </trkpt>
      <trkpt lat="42.3496430" lon="-3.8156140">
        <ele>834.4</ele>
        <time>2022-06-27T14:19:28Z</time>
      </trkpt>
      <trkpt lat="42.3497110" lon="-3.8156520">
        <ele>834.4</ele>
        <time>2022-06-27T14:19:29Z</time>
      </trkpt>
      <trkpt lat="42.3497800" lon="-3.8156920">
        <ele>834.6</ele>
        <time>2022-06-27T14:19:30Z</time>
      </trkpt>
      <trkpt lat="42.3498480" lon="-3.8157360">
        <ele>834.8</ele>
        <time>2022-06-27T14:19:31Z</time>
      </trkpt>
      <trkpt lat="42.3499080" lon="-3.8157860">
        <ele>835.0</ele>
        <time>2022-06-27T14:19:32Z</time>
      </trkpt>
      <trkpt lat="42.3499600" lon="-3.8158390">
        <ele>835.0</ele>
        <time>2022-06-27T14:19:33Z</time>
      </trkpt>
      <trkpt lat="42.3500080" lon="-3.8158980">
        <ele>835.0</ele>
        <time>2022-06-27T14:19:34Z</time>
      </trkpt>
      <trkpt lat="42.3500530" lon="-3.8159670">
        <ele>835.2</ele>
        <time>2022-06-27T14:19:35Z</time>
      </trkpt>
      <trkpt lat="42.3500960" lon="-3.8160460">
        <ele>835.2</ele>
        <time>2022-06-27T14:19:36Z</time>
      </trkpt>
      <trkpt lat="42.3501360" lon="-3.8161320">
        <ele>835.6</ele>
        <time>2022-06-27T14:19:37Z</time>
      </trkpt>
      <trkpt lat="42.3501770" lon="-3.8162230">
        <ele>835.6</ele>
        <time>2022-06-27T14:19:38Z</time>
      </trkpt>
      <trkpt lat="42.3502160" lon="-3.8163130">
        <ele>835.8</ele>
        <time>2022-06-27T14:19:39Z</time>
      </trkpt>
      <trkpt lat="42.3502540" lon="-3.8164050">
        <ele>835.8</ele>
        <time>2022-06-27T14:19:40Z</time>
      </trkpt>
      <trkpt lat="42.3502910" lon="-3.8164970">
        <ele>835.8</ele>
        <time>2022-06-27T14:19:41Z</time>
      </trkpt>
      <trkpt lat="42.3503300" lon="-3.8165910">
        <ele>836.0</ele>
        <time>2022-06-27T14:19:42Z</time>
      </trkpt>
      <trkpt lat="42.3503710" lon="-3.8166860">
        <ele>836.0</ele>
        <time>2022-06-27T14:19:43Z</time>
      </trkpt>
      <trkpt lat="42.3504090" lon="-3.8167830">
        <ele>836.0</ele>
        <time>2022-06-27T14:19:44Z</time>
      </trkpt>
      <trkpt lat="42.3504470" lon="-3.8168770">
        <ele>836.0</ele>
        <time>2022-06-27T14:19:45Z</time>
      </trkpt>
      <trkpt lat="42.3504850" lon="-3.8169690">
        <ele>836.2</ele>
        <time>2022-06-27T14:19:46Z</time>
      </trkpt>
      <trkpt lat="42.3505240" lon="-3.8170610">
        <ele>836.2</ele>
        <time>2022-06-27T14:19:47Z</time>
      </trkpt>
      <trkpt lat="42.3505640" lon="-3.8171530">
        <ele>836.2</ele>
        <time>2022-06-27T14:19:48Z</time>
      </trkpt>
      <trkpt lat="42.3506030" lon="-3.8172430">
        <ele>836.2</ele>
        <time>2022-06-27T14:19:49Z</time>
      </trkpt>
      <trkpt lat="42.3506410" lon="-3.8173320">
        <ele>836.2</ele>
        <time>2022-06-27T14:19:50Z</time>
      </trkpt>
      <trkpt lat="42.3506780" lon="-3.8174230">
        <ele>836.2</ele>
        <time>2022-06-27T14:19:51Z</time>
      </trkpt>
      <trkpt lat="42.3507150" lon="-3.8175150">
        <ele>836.0</ele>
        <time>2022-06-27T14:19:52Z</time>
      </trkpt>
      <trkpt lat="42.3507540" lon="-3.8176050">
        <ele>836.0</ele>
        <time>2022-06-27T14:19:53Z</time>
      </trkpt>
      <trkpt lat="42.3507910" lon="-3.8176960">
        <ele>836.0</ele>
        <time>2022-06-27T14:19:54Z</time>
      </trkpt>
      <trkpt lat="42.3508280" lon="-3.8177860">
        <ele>836.0</ele>
        <time>2022-06-27T14:19:55Z</time>
      </trkpt>
      <trkpt lat="42.3508670" lon="-3.8178750">
        <ele>835.8</ele>
        <time>2022-06-27T14:19:56Z</time>
      </trkpt>
      <trkpt lat="42.3509080" lon="-3.8179630">
        <ele>835.8</ele>
        <time>2022-06-27T14:19:57Z</time>
      </trkpt>
      <trkpt lat="42.3509510" lon="-3.8180500">
        <ele>835.8</ele>
        <time>2022-06-27T14:19:58Z</time>
      </trkpt>
      <trkpt lat="42.3509970" lon="-3.8181340">
        <ele>836.0</ele>
        <time>2022-06-27T14:19:59Z</time>
      </trkpt>
      <trkpt lat="42.3510470" lon="-3.8182100">
        <ele>835.8</ele>
        <time>2022-06-27T14:20:00Z</time>
      </trkpt>
      <trkpt lat="42.3511030" lon="-3.8182820">
        <ele>835.8</ele>
        <time>2022-06-27T14:20:01Z</time>
      </trkpt>
      <trkpt lat="42.3511610" lon="-3.8183510">
        <ele>835.8</ele>
        <time>2022-06-27T14:20:02Z</time>
      </trkpt>
      <trkpt lat="42.3512220" lon="-3.8184140">
        <ele>835.8</ele>
        <time>2022-06-27T14:20:03Z</time>
      </trkpt>
      <trkpt lat="42.3512850" lon="-3.8184740">
        <ele>835.8</ele>
        <time>2022-06-27T14:20:04Z</time>
      </trkpt>
      <trkpt lat="42.3513520" lon="-3.8185320">
        <ele>835.8</ele>
        <time>2022-06-27T14:20:05Z</time>
      </trkpt>
      <trkpt lat="42.3514230" lon="-3.8185850">
        <ele>835.8</ele>
        <time>2022-06-27T14:20:06Z</time>
      </trkpt>
      <trkpt lat="42.3514930" lon="-3.8186360">
        <ele>835.8</ele>
        <time>2022-06-27T14:20:07Z</time>
      </trkpt>
      <trkpt lat="42.3515630" lon="-3.8186870">
        <ele>835.8</ele>
        <time>2022-06-27T14:20:08Z</time>
      </trkpt>
      <trkpt lat="42.3516340" lon="-3.8187360">
        <ele>835.8</ele>
        <time>2022-06-27T14:20:09Z</time>
      </trkpt>
      <trkpt lat="42.3517050" lon="-3.8187860">
        <ele>835.8</ele>
        <time>2022-06-27T14:20:10Z</time>
      </trkpt>
      <trkpt lat="42.3517770" lon="-3.8188350">
        <ele>835.6</ele>
        <time>2022-06-27T14:20:11Z</time>
      </trkpt>
      <trkpt lat="42.3518490" lon="-3.8188850">
        <ele>835.6</ele>
        <time>2022-06-27T14:20:12Z</time>
      </trkpt>
      <trkpt lat="42.3519210" lon="-3.8189350">
        <ele>835.6</ele>
        <time>2022-06-27T14:20:13Z</time>
      </trkpt>
      <trkpt lat="42.3519920" lon="-3.8189850">
        <ele>835.6</ele>
        <time>2022-06-27T14:20:14Z</time>
      </trkpt>
      <trkpt lat="42.3520650" lon="-3.8190330">
        <ele>835.4</ele>
        <time>2022-06-27T14:20:15Z</time>
      </trkpt>
      <trkpt lat="42.3521350" lon="-3.8190830">
        <ele>835.4</ele>
        <time>2022-06-27T14:20:16Z</time>
      </trkpt>
      <trkpt lat="42.3522060" lon="-3.8191310">
        <ele>835.4</ele>
        <time>2022-06-27T14:20:17Z</time>
      </trkpt>
      <trkpt lat="42.3522750" lon="-3.8191800">
        <ele>835.4</ele>
        <time>2022-06-27T14:20:18Z</time>
      </trkpt>
      <trkpt lat="42.3523450" lon="-3.8192280">
        <ele>835.4</ele>
        <time>2022-06-27T14:20:19Z</time>
      </trkpt>
      <trkpt lat="42.3524150" lon="-3.8192750">
        <ele>835.4</ele>
        <time>2022-06-27T14:20:20Z</time>
      </trkpt>
      <trkpt lat="42.3524850" lon="-3.8193220">
        <ele>835.4</ele>
        <time>2022-06-27T14:20:21Z</time>
      </trkpt>
      <trkpt lat="42.3525550" lon="-3.8193690">
        <ele>835.4</ele>
        <time>2022-06-27T14:20:22Z</time>
      </trkpt>
      <trkpt lat="42.3526260" lon="-3.8194170">
        <ele>835.4</ele>
        <time>2022-06-27T14:20:23Z</time>
      </trkpt>
      <trkpt lat="42.3526970" lon="-3.8194660">
        <ele>835.6</ele>
        <time>2022-06-27T14:20:24Z</time>
      </trkpt>
      <trkpt lat="42.3527680" lon="-3.8195140">
        <ele>835.6</ele>
        <time>2022-06-27T14:20:25Z</time>
      </trkpt>
      <trkpt lat="42.3528380" lon="-3.8195620">
        <ele>835.6</ele>
        <time>2022-06-27T14:20:26Z</time>
      </trkpt>
      <trkpt lat="42.3529070" lon="-3.8196100">
        <ele>835.6</ele>
        <time>2022-06-27T14:20:27Z</time>
      </trkpt>
      <trkpt lat="42.3529770" lon="-3.8196600">
        <ele>835.6</ele>
        <time>2022-06-27T14:20:28Z</time>
      </trkpt>
      <trkpt lat="42.3530450" lon="-3.8197090">
        <ele>835.6</ele>
        <time>2022-06-27T14:20:29Z</time>
      </trkpt>
      <trkpt lat="42.3531120" lon="-3.8197580">
        <ele>835.6</ele>
        <time>2022-06-27T14:20:30Z</time>
      </trkpt>
      <trkpt lat="42.3531810" lon="-3.8198070">
        <ele>835.6</ele>
        <time>2022-06-27T14:20:31Z</time>
      </trkpt>
      <trkpt lat="42.3532510" lon="-3.8198560">
        <ele>835.6</ele>
        <time>2022-06-27T14:20:32Z</time>
      </trkpt>
      <trkpt lat="42.3533210" lon="-3.8199060">
        <ele>835.6</ele>
        <time>2022-06-27T14:20:33Z</time>
      </trkpt>
      <trkpt lat="42.3533930" lon="-3.8199530">
        <ele>835.6</ele>
        <time>2022-06-27T14:20:34Z</time>
      </trkpt>
      <trkpt lat="42.3534620" lon="-3.8200020">
        <ele>835.4</ele>
        <time>2022-06-27T14:20:35Z</time>
      </trkpt>
      <trkpt lat="42.3535290" lon="-3.8200540">
        <ele>835.2</ele>
        <time>2022-06-27T14:20:36Z</time>
      </trkpt>
      <trkpt lat="42.3535980" lon="-3.8201020">
        <ele>835.2</ele>
        <time>2022-06-27T14:20:37Z</time>
      </trkpt>
      <trkpt lat="42.3536660" lon="-3.8201500">
        <ele>835.2</ele>
        <time>2022-06-27T14:20:38Z</time>
      </trkpt>
      <trkpt lat="42.3537340" lon="-3.8201980">
        <ele>835.0</ele>
        <time>2022-06-27T14:20:39Z</time>
      </trkpt>
      <trkpt lat="42.3538030" lon="-3.8202440">
        <ele>835.2</ele>
        <time>2022-06-27T14:20:40Z</time>
      </trkpt>
      <trkpt lat="42.3538710" lon="-3.8202900">
        <ele>835.2</ele>
        <time>2022-06-27T14:20:41Z</time>
      </trkpt>
      <trkpt lat="42.3539390" lon="-3.8203370">
        <ele>835.2</ele>
        <time>2022-06-27T14:20:42Z</time>
      </trkpt>
      <trkpt lat="42.3540080" lon="-3.8203830">
        <ele>835.2</ele>
        <time>2022-06-27T14:20:43Z</time>
      </trkpt>
      <trkpt lat="42.3540750" lon="-3.8204300">
        <ele>835.4</ele>
        <time>2022-06-27T14:20:44Z</time>
      </trkpt>
      <trkpt lat="42.3541430" lon="-3.8204780">
        <ele>835.6</ele>
        <time>2022-06-27T14:20:45Z</time>
      </trkpt>
      <trkpt lat="42.3542110" lon="-3.8205250">
        <ele>835.8</ele>
        <time>2022-06-27T14:20:46Z</time>
      </trkpt>
      <trkpt lat="42.3542790" lon="-3.8205730">
        <ele>835.8</ele>
        <time>2022-06-27T14:20:47Z</time>
      </trkpt>
      <trkpt lat="42.3543490" lon="-3.8206180">
        <ele>836.0</ele>
        <time>2022-06-27T14:20:48Z</time>
      </trkpt>
      <trkpt lat="42.3544190" lon="-3.8206670">
        <ele>836.0</ele>
        <time>2022-06-27T14:20:49Z</time>
      </trkpt>
      <trkpt lat="42.3544890" lon="-3.8207170">
        <ele>836.0</ele>
        <time>2022-06-27T14:20:50Z</time>
      </trkpt>
      <trkpt lat="42.3545600" lon="-3.8207670">
        <ele>836.0</ele>
        <time>2022-06-27T14:20:51Z</time>
      </trkpt>
      <trkpt lat="42.3546310" lon="-3.8208170">
        <ele>836.0</ele>
        <time>2022-06-27T14:20:52Z</time>
      </trkpt>
      <trkpt lat="42.3547020" lon="-3.8208680">
        <ele>836.0</ele>
        <time>2022-06-27T14:20:53Z</time>
      </trkpt>
      <trkpt lat="42.3547740" lon="-3.8209180">
        <ele>836.0</ele>
        <time>2022-06-27T14:20:54Z</time>
      </trkpt>
      <trkpt lat="42.3548470" lon="-3.8209680">
        <ele>836.0</ele>
        <time>2022-06-27T14:20:55Z</time>
      </trkpt>
      <trkpt lat="42.3549200" lon="-3.8210180">
        <ele>835.8</ele>
        <time>2022-06-27T14:20:56Z</time>
      </trkpt>
      <trkpt lat="42.3549920" lon="-3.8210680">
        <ele>835.8</ele>
        <time>2022-06-27T14:20:57Z</time>
      </trkpt>
      <trkpt lat="42.3550640" lon="-3.8211180">
        <ele>835.6</ele>
        <time>2022-06-27T14:20:58Z</time>
      </trkpt>
      <trkpt lat="42.3551350" lon="-3.8211690">
        <ele>835.6</ele>
        <time>2022-06-27T14:20:59Z</time>
      </trkpt>
      <trkpt lat="42.3552070" lon="-3.8212180">
        <ele>835.6</ele>
        <time>2022-06-27T14:21:00Z</time>
      </trkpt>
      <trkpt lat="42.3552800" lon="-3.8212660">
        <ele>835.8</ele>
        <time>2022-06-27T14:21:01Z</time>
      </trkpt>
      <trkpt lat="42.3553520" lon="-3.8213180">
        <ele>835.6</ele>
        <time>2022-06-27T14:21:02Z</time>
      </trkpt>
      <trkpt lat="42.3554240" lon="-3.8213710">
        <ele>835.8</ele>
        <time>2022-06-27T14:21:03Z</time>
      </trkpt>
      <trkpt lat="42.3554950" lon="-3.8214220">
        <ele>835.8</ele>
        <time>2022-06-27T14:21:04Z</time>
      </trkpt>
      <trkpt lat="42.3555650" lon="-3.8214720">
        <ele>835.8</ele>
        <time>2022-06-27T14:21:05Z</time>
      </trkpt>
      <trkpt lat="42.3556350" lon="-3.8215230">
        <ele>835.8</ele>
        <time>2022-06-27T14:21:06Z</time>
      </trkpt>
      <trkpt lat="42.3557060" lon="-3.8215740">
        <ele>835.4</ele>
        <time>2022-06-27T14:21:07Z</time>
      </trkpt>
      <trkpt lat="42.3557760" lon="-3.8216210">
        <ele>835.4</ele>
        <time>2022-06-27T14:21:08Z</time>
      </trkpt>
      <trkpt lat="42.3558480" lon="-3.8216690">
        <ele>835.6</ele>
        <time>2022-06-27T14:21:09Z</time>
      </trkpt>
      <trkpt lat="42.3559200" lon="-3.8217190">
        <ele>835.4</ele>
        <time>2022-06-27T14:21:10Z</time>
      </trkpt>
      <trkpt lat="42.3559930" lon="-3.8217700">
        <ele>835.2</ele>
        <time>2022-06-27T14:21:11Z</time>
      </trkpt>
      <trkpt lat="42.3560650" lon="-3.8218210">
        <ele>835.0</ele>
        <time>2022-06-27T14:21:12Z</time>
      </trkpt>
      <trkpt lat="42.3561370" lon="-3.8218720">
        <ele>834.8</ele>
        <time>2022-06-27T14:21:13Z</time>
      </trkpt>
      <trkpt lat="42.3562080" lon="-3.8219230">
        <ele>834.8</ele>
        <time>2022-06-27T14:21:14Z</time>
      </trkpt>
      <trkpt lat="42.3562790" lon="-3.8219720">
        <ele>834.8</ele>
        <time>2022-06-27T14:21:15Z</time>
      </trkpt>
      <trkpt lat="42.3563510" lon="-3.8220210">
        <ele>834.4</ele>
        <time>2022-06-27T14:21:16Z</time>
      </trkpt>
      <trkpt lat="42.3564220" lon="-3.8220700">
        <ele>834.2</ele>
        <time>2022-06-27T14:21:17Z</time>
      </trkpt>
      <trkpt lat="42.3564940" lon="-3.8221210">
        <ele>834.2</ele>
        <time>2022-06-27T14:21:18Z</time>
      </trkpt>
      <trkpt lat="42.3565650" lon="-3.8221730">
        <ele>834.2</ele>
        <time>2022-06-27T14:21:19Z</time>
      </trkpt>
      <trkpt lat="42.3566360" lon="-3.8222230">
        <ele>834.2</ele>
        <time>2022-06-27T14:21:20Z</time>
      </trkpt>
      <trkpt lat="42.3567070" lon="-3.8222750">
        <ele>834.2</ele>
        <time>2022-06-27T14:21:21Z</time>
      </trkpt>
      <trkpt lat="42.3567780" lon="-3.8223260">
        <ele>834.2</ele>
        <time>2022-06-27T14:21:22Z</time>
      </trkpt>
      <trkpt lat="42.3568490" lon="-3.8223740">
        <ele>834.2</ele>
        <time>2022-06-27T14:21:23Z</time>
      </trkpt>
      <trkpt lat="42.3569180" lon="-3.8224200">
        <ele>834.2</ele>
        <time>2022-06-27T14:21:24Z</time>
      </trkpt>
      <trkpt lat="42.3569890" lon="-3.8224680">
        <ele>834.2</ele>
        <time>2022-06-27T14:21:25Z</time>
      </trkpt>
      <trkpt lat="42.3570590" lon="-3.8225160">
        <ele>834.2</ele>
        <time>2022-06-27T14:21:26Z</time>
      </trkpt>
      <trkpt lat="42.3571290" lon="-3.8225650">
        <ele>834.2</ele>
        <time>2022-06-27T14:21:27Z</time>
      </trkpt>
      <trkpt lat="42.3571980" lon="-3.8226130">
        <ele>834.4</ele>
        <time>2022-06-27T14:21:28Z</time>
      </trkpt>
      <trkpt lat="42.3572690" lon="-3.8226600">
        <ele>834.4</ele>
        <time>2022-06-27T14:21:29Z</time>
      </trkpt>
      <trkpt lat="42.3573390" lon="-3.8227060">
        <ele>834.6</ele>
        <time>2022-06-27T14:21:30Z</time>
      </trkpt>
      <trkpt lat="42.3574100" lon="-3.8227540">
        <ele>834.6</ele>
        <time>2022-06-27T14:21:31Z</time>
      </trkpt>
      <trkpt lat="42.3574810" lon="-3.8228030">
        <ele>834.8</ele>
        <time>2022-06-27T14:21:32Z</time>
      </trkpt>
      <trkpt lat="42.3575510" lon="-3.8228530">
        <ele>834.6</ele>
        <time>2022-06-27T14:21:33Z</time>
      </trkpt>
      <trkpt lat="42.3576220" lon="-3.8229030">
        <ele>834.6</ele>
        <time>2022-06-27T14:21:34Z</time>
      </trkpt>
      <trkpt lat="42.3576940" lon="-3.8229510">
        <ele>834.4</ele>
        <time>2022-06-27T14:21:35Z</time>
      </trkpt>
      <trkpt lat="42.3577650" lon="-3.8229990">
        <ele>834.4</ele>
        <time>2022-06-27T14:21:36Z</time>
      </trkpt>
      <trkpt lat="42.3578370" lon="-3.8230470">
        <ele>834.2</ele>
        <time>2022-06-27T14:21:37Z</time>
      </trkpt>
      <trkpt lat="42.3579080" lon="-3.8230980">
        <ele>834.4</ele>
        <time>2022-06-27T14:21:38Z</time>
      </trkpt>
      <trkpt lat="42.3579800" lon="-3.8231470">
        <ele>834.4</ele>
        <time>2022-06-27T14:21:39Z</time>
      </trkpt>
      <trkpt lat="42.3580530" lon="-3.8231960">
        <ele>834.4</ele>
        <time>2022-06-27T14:21:40Z</time>
      </trkpt>
      <trkpt lat="42.3581270" lon="-3.8232460">
        <ele>834.4</ele>
        <time>2022-06-27T14:21:41Z</time>
      </trkpt>
      <trkpt lat="42.3582010" lon="-3.8232980">
        <ele>834.4</ele>
        <time>2022-06-27T14:21:42Z</time>
      </trkpt>
      <trkpt lat="42.3582740" lon="-3.8233500">
        <ele>834.6</ele>
        <time>2022-06-27T14:21:43Z</time>
      </trkpt>
      <trkpt lat="42.3583490" lon="-3.8234020">
        <ele>834.8</ele>
        <time>2022-06-27T14:21:44Z</time>
      </trkpt>
      <trkpt lat="42.3584240" lon="-3.8234550">
        <ele>835.0</ele>
        <time>2022-06-27T14:21:45Z</time>
      </trkpt>
      <trkpt lat="42.3584990" lon="-3.8235080">
        <ele>835.2</ele>
        <time>2022-06-27T14:21:46Z</time>
      </trkpt>
      <trkpt lat="42.3585740" lon="-3.8235610">
        <ele>835.4</ele>
        <time>2022-06-27T14:21:47Z</time>
      </trkpt>
      <trkpt lat="42.3586510" lon="-3.8236130">
        <ele>835.4</ele>
        <time>2022-06-27T14:21:48Z</time>
      </trkpt>
      <trkpt lat="42.3587290" lon="-3.8236650">
        <ele>835.2</ele>
        <time>2022-06-27T14:21:49Z</time>
      </trkpt>
      <trkpt lat="42.3588060" lon="-3.8237190">
        <ele>835.0</ele>
        <time>2022-06-27T14:21:50Z</time>
      </trkpt>
      <trkpt lat="42.3588800" lon="-3.8237730">
        <ele>835.0</ele>
        <time>2022-06-27T14:21:51Z</time>
      </trkpt>
      <trkpt lat="42.3589570" lon="-3.8238260">
        <ele>835.2</ele>
        <time>2022-06-27T14:21:52Z</time>
      </trkpt>
      <trkpt lat="42.3590340" lon="-3.8238790">
        <ele>834.8</ele>
        <time>2022-06-27T14:21:53Z</time>
      </trkpt>
      <trkpt lat="42.3591100" lon="-3.8239320">
        <ele>834.8</ele>
        <time>2022-06-27T14:21:54Z</time>
      </trkpt>
      <trkpt lat="42.3591840" lon="-3.8239860">
        <ele>834.6</ele>
        <time>2022-06-27T14:21:55Z</time>
      </trkpt>
      <trkpt lat="42.3592570" lon="-3.8240380">
        <ele>834.6</ele>
        <time>2022-06-27T14:21:56Z</time>
      </trkpt>
      <trkpt lat="42.3593310" lon="-3.8240890">
        <ele>834.6</ele>
        <time>2022-06-27T14:21:57Z</time>
      </trkpt>
      <trkpt lat="42.3594060" lon="-3.8241390">
        <ele>834.4</ele>
        <time>2022-06-27T14:21:58Z</time>
      </trkpt>
      <trkpt lat="42.3594800" lon="-3.8241900">
        <ele>834.4</ele>
        <time>2022-06-27T14:21:59Z</time>
      </trkpt>
      <trkpt lat="42.3595540" lon="-3.8242410">
        <ele>834.4</ele>
        <time>2022-06-27T14:22:00Z</time>
      </trkpt>
      <trkpt lat="42.3596290" lon="-3.8242920">
        <ele>834.4</ele>
        <time>2022-06-27T14:22:01Z</time>
      </trkpt>
      <trkpt lat="42.3597020" lon="-3.8243450">
        <ele>834.4</ele>
        <time>2022-06-27T14:22:02Z</time>
      </trkpt>
      <trkpt lat="42.3597750" lon="-3.8243970">
        <ele>834.6</ele>
        <time>2022-06-27T14:22:03Z</time>
      </trkpt>
      <trkpt lat="42.3598500" lon="-3.8244490">
        <ele>834.6</ele>
        <time>2022-06-27T14:22:04Z</time>
      </trkpt>
      <trkpt lat="42.3599250" lon="-3.8245000">
        <ele>834.6</ele>
        <time>2022-06-27T14:22:05Z</time>
      </trkpt>
      <trkpt lat="42.3600020" lon="-3.8245530">
        <ele>834.6</ele>
        <time>2022-06-27T14:22:06Z</time>
      </trkpt>
      <trkpt lat="42.3600780" lon="-3.8246050">
        <ele>834.4</ele>
        <time>2022-06-27T14:22:07Z</time>
      </trkpt>
      <trkpt lat="42.3601550" lon="-3.8246590">
        <ele>834.4</ele>
        <time>2022-06-27T14:22:08Z</time>
      </trkpt>
      <trkpt lat="42.3602320" lon="-3.8247120">
        <ele>834.4</ele>
        <time>2022-06-27T14:22:09Z</time>
      </trkpt>
      <trkpt lat="42.3603070" lon="-3.8247660">
        <ele>834.4</ele>
        <time>2022-06-27T14:22:10Z</time>
      </trkpt>
      <trkpt lat="42.3603820" lon="-3.8248150">
        <ele>834.4</ele>
        <time>2022-06-27T14:22:11Z</time>
      </trkpt>
      <trkpt lat="42.3604580" lon="-3.8248670">
        <ele>834.2</ele>
        <time>2022-06-27T14:22:12Z</time>
      </trkpt>
      <trkpt lat="42.3605320" lon="-3.8249180">
        <ele>834.2</ele>
        <time>2022-06-27T14:22:13Z</time>
      </trkpt>
      <trkpt lat="42.3606070" lon="-3.8249640">
        <ele>834.0</ele>
        <time>2022-06-27T14:22:14Z</time>
      </trkpt>
      <trkpt lat="42.3606780" lon="-3.8250170">
        <ele>834.0</ele>
        <time>2022-06-27T14:22:15Z</time>
      </trkpt>
      <trkpt lat="42.3607500" lon="-3.8250710">
        <ele>834.0</ele>
        <time>2022-06-27T14:22:16Z</time>
      </trkpt>
      <trkpt lat="42.3608240" lon="-3.8251230">
        <ele>833.8</ele>
        <time>2022-06-27T14:22:17Z</time>
      </trkpt>
      <trkpt lat="42.3609000" lon="-3.8251730">
        <ele>833.8</ele>
        <time>2022-06-27T14:22:18Z</time>
      </trkpt>
      <trkpt lat="42.3609760" lon="-3.8252220">
        <ele>833.6</ele>
        <time>2022-06-27T14:22:19Z</time>
      </trkpt>
      <trkpt lat="42.3610520" lon="-3.8252730">
        <ele>833.6</ele>
        <time>2022-06-27T14:22:20Z</time>
      </trkpt>
      <trkpt lat="42.3611260" lon="-3.8253240">
        <ele>833.8</ele>
        <time>2022-06-27T14:22:21Z</time>
      </trkpt>
      <trkpt lat="42.3612020" lon="-3.8253750">
        <ele>833.8</ele>
        <time>2022-06-27T14:22:22Z</time>
      </trkpt>
      <trkpt lat="42.3612770" lon="-3.8254280">
        <ele>833.6</ele>
        <time>2022-06-27T14:22:23Z</time>
      </trkpt>
      <trkpt lat="42.3613520" lon="-3.8254820">
        <ele>833.6</ele>
        <time>2022-06-27T14:22:24Z</time>
      </trkpt>
      <trkpt lat="42.3614280" lon="-3.8255360">
        <ele>833.6</ele>
        <time>2022-06-27T14:22:25Z</time>
      </trkpt>
      <trkpt lat="42.3615040" lon="-3.8255880">
        <ele>833.8</ele>
        <time>2022-06-27T14:22:26Z</time>
      </trkpt>
      <trkpt lat="42.3615790" lon="-3.8256400">
        <ele>833.8</ele>
        <time>2022-06-27T14:22:27Z</time>
      </trkpt>
      <trkpt lat="42.3616540" lon="-3.8256940">
        <ele>833.8</ele>
        <time>2022-06-27T14:22:28Z</time>
      </trkpt>
      <trkpt lat="42.3617290" lon="-3.8257470">
        <ele>833.8</ele>
        <time>2022-06-27T14:22:29Z</time>
      </trkpt>
      <trkpt lat="42.3618040" lon="-3.8258010">
        <ele>833.8</ele>
        <time>2022-06-27T14:22:30Z</time>
      </trkpt>
      <trkpt lat="42.3618790" lon="-3.8258530">
        <ele>833.8</ele>
        <time>2022-06-27T14:22:31Z</time>
      </trkpt>
      <trkpt lat="42.3619520" lon="-3.8259040">
        <ele>833.8</ele>
        <time>2022-06-27T14:22:32Z</time>
      </trkpt>
      <trkpt lat="42.3620240" lon="-3.8259540">
        <ele>833.8</ele>
        <time>2022-06-27T14:22:33Z</time>
      </trkpt>
      <trkpt lat="42.3620980" lon="-3.8260050">
        <ele>833.8</ele>
        <time>2022-06-27T14:22:34Z</time>
      </trkpt>
      <trkpt lat="42.3621710" lon="-3.8260550">
        <ele>833.8</ele>
        <time>2022-06-27T14:22:35Z</time>
      </trkpt>
      <trkpt lat="42.3622440" lon="-3.8261050">
        <ele>833.8</ele>
        <time>2022-06-27T14:22:36Z</time>
      </trkpt>
      <trkpt lat="42.3623160" lon="-3.8261550">
        <ele>833.8</ele>
        <time>2022-06-27T14:22:37Z</time>
      </trkpt>
      <trkpt lat="42.3623890" lon="-3.8262050">
        <ele>833.8</ele>
        <time>2022-06-27T14:22:38Z</time>
      </trkpt>
      <trkpt lat="42.3624620" lon="-3.8262560">
        <ele>833.8</ele>
        <time>2022-06-27T14:22:39Z</time>
      </trkpt>
      <trkpt lat="42.3625340" lon="-3.8263070">
        <ele>834.0</ele>
        <time>2022-06-27T14:22:40Z</time>
      </trkpt>
      <trkpt lat="42.3626050" lon="-3.8263550">
        <ele>834.0</ele>
        <time>2022-06-27T14:22:41Z</time>
      </trkpt>
      <trkpt lat="42.3626780" lon="-3.8264070">
        <ele>834.0</ele>
        <time>2022-06-27T14:22:42Z</time>
      </trkpt>
      <trkpt lat="42.3627490" lon="-3.8264570">
        <ele>834.2</ele>
        <time>2022-06-27T14:22:43Z</time>
      </trkpt>
      <trkpt lat="42.3628220" lon="-3.8265070">
        <ele>834.4</ele>
        <time>2022-06-27T14:22:44Z</time>
      </trkpt>
      <trkpt lat="42.3628930" lon="-3.8265560">
        <ele>834.2</ele>
        <time>2022-06-27T14:22:45Z</time>
      </trkpt>
      <trkpt lat="42.3629620" lon="-3.8266070">
        <ele>834.6</ele>
        <time>2022-06-27T14:22:46Z</time>
      </trkpt>
      <trkpt lat="42.3630310" lon="-3.8266550">
        <ele>834.6</ele>
        <time>2022-06-27T14:22:47Z</time>
      </trkpt>
      <trkpt lat="42.3631010" lon="-3.8267030">
        <ele>834.6</ele>
        <time>2022-06-27T14:22:48Z</time>
      </trkpt>
      <trkpt lat="42.3631710" lon="-3.8267520">
        <ele>834.6</ele>
        <time>2022-06-27T14:22:49Z</time>
      </trkpt>
      <trkpt lat="42.3632410" lon="-3.8268000">
        <ele>834.8</ele>
        <time>2022-06-27T14:22:50Z</time>
      </trkpt>
      <trkpt lat="42.3633100" lon="-3.8268490">
        <ele>835.0</ele>
        <time>2022-06-27T14:22:51Z</time>
      </trkpt>
      <trkpt lat="42.3633780" lon="-3.8268960">
        <ele>835.2</ele>
        <time>2022-06-27T14:22:52Z</time>
      </trkpt>
      <trkpt lat="42.3634460" lon="-3.8269440">
        <ele>835.2</ele>
        <time>2022-06-27T14:22:53Z</time>
      </trkpt>
      <trkpt lat="42.3635150" lon="-3.8269930">
        <ele>835.2</ele>
        <time>2022-06-27T14:22:54Z</time>
      </trkpt>
      <trkpt lat="42.3635840" lon="-3.8270410">
        <ele>835.2</ele>
        <time>2022-06-27T14:22:55Z</time>
      </trkpt>
      <trkpt lat="42.3636530" lon="-3.8270860">
        <ele>835.2</ele>
        <time>2022-06-27T14:22:56Z</time>
      </trkpt>
      <trkpt lat="42.3637230" lon="-3.8271340">
        <ele>835.2</ele>
        <time>2022-06-27T14:22:57Z</time>
      </trkpt>
      <trkpt lat="42.3637920" lon="-3.8271840">
        <ele>835.2</ele>
        <time>2022-06-27T14:22:58Z</time>
      </trkpt>
      <trkpt lat="42.3638610" lon="-3.8272340">
        <ele>835.2</ele>
        <time>2022-06-27T14:22:59Z</time>
      </trkpt>
      <trkpt lat="42.3639290" lon="-3.8272820">
        <ele>835.2</ele>
        <time>2022-06-27T14:23:00Z</time>
      </trkpt>
      <trkpt lat="42.3639990" lon="-3.8273300">
        <ele>835.2</ele>
        <time>2022-06-27T14:23:01Z</time>
      </trkpt>
      <trkpt lat="42.3640690" lon="-3.8273760">
        <ele>835.2</ele>
        <time>2022-06-27T14:23:02Z</time>
      </trkpt>
      <trkpt lat="42.3641390" lon="-3.8274250">
        <ele>835.2</ele>
        <time>2022-06-27T14:23:03Z</time>
      </trkpt>
      <trkpt lat="42.3642080" lon="-3.8274730">
        <ele>835.2</ele>
        <time>2022-06-27T14:23:04Z</time>
      </trkpt>
      <trkpt lat="42.3642780" lon="-3.8275230">
        <ele>835.4</ele>
        <time>2022-06-27T14:23:05Z</time>
      </trkpt>
      <trkpt lat="42.3643480" lon="-3.8275720">
        <ele>835.4</ele>
        <time>2022-06-27T14:23:06Z</time>
      </trkpt>
      <trkpt lat="42.3644180" lon="-3.8276190">
        <ele>835.4</ele>
        <time>2022-06-27T14:23:07Z</time>
      </trkpt>
      <trkpt lat="42.3644870" lon="-3.8276680">
        <ele>835.6</ele>
        <time>2022-06-27T14:23:08Z</time>
      </trkpt>
      <trkpt lat="42.3645560" lon="-3.8277170">
        <ele>835.6</ele>
        <time>2022-06-27T14:23:09Z</time>
      </trkpt>
      <trkpt lat="42.3646250" lon="-3.8277660">
        <ele>835.8</ele>
        <time>2022-06-27T14:23:10Z</time>
      </trkpt>
      <trkpt lat="42.3646930" lon="-3.8278140">
        <ele>835.8</ele>
        <time>2022-06-27T14:23:11Z</time>
      </trkpt>
      <trkpt lat="42.3647610" lon="-3.8278600">
        <ele>835.8</ele>
        <time>2022-06-27T14:23:12Z</time>
      </trkpt>
      <trkpt lat="42.3648280" lon="-3.8279080">
        <ele>836.0</ele>
        <time>2022-06-27T14:23:13Z</time>
      </trkpt>
      <trkpt lat="42.3649070" lon="-3.8279650">
        <ele>836.2</ele>
        <time>2022-06-27T14:23:14Z</time>
      </trkpt>
      <trkpt lat="42.3649610" lon="-3.8280030">
        <ele>836.2</ele>
        <time>2022-06-27T14:23:15Z</time>
      </trkpt>
      <trkpt lat="42.3650290" lon="-3.8280510">
        <ele>836.4</ele>
        <time>2022-06-27T14:23:16Z</time>
      </trkpt>
      <trkpt lat="42.3650950" lon="-3.8280980">
        <ele>836.4</ele>
        <time>2022-06-27T14:23:17Z</time>
      </trkpt>
      <trkpt lat="42.3651620" lon="-3.8281440">
        <ele>836.4</ele>
        <time>2022-06-27T14:23:18Z</time>
      </trkpt>
      <trkpt lat="42.3652280" lon="-3.8281910">
        <ele>836.4</ele>
        <time>2022-06-27T14:23:19Z</time>
      </trkpt>
      <trkpt lat="42.3652950" lon="-3.8282410">
        <ele>836.6</ele>
        <time>2022-06-27T14:23:20Z</time>
      </trkpt>
      <trkpt lat="42.3653610" lon="-3.8282930">
        <ele>836.6</ele>
        <time>2022-06-27T14:23:21Z</time>
      </trkpt>
      <trkpt lat="42.3654240" lon="-3.8283480">
        <ele>836.8</ele>
        <time>2022-06-27T14:23:22Z</time>
      </trkpt>
      <trkpt lat="42.3654870" lon="-3.8284050">
        <ele>836.8</ele>
        <time>2022-06-27T14:23:23Z</time>
      </trkpt>
      <trkpt lat="42.3655490" lon="-3.8284650">
        <ele>836.8</ele>
        <time>2022-06-27T14:23:24Z</time>
      </trkpt>
      <trkpt lat="42.3656120" lon="-3.8285290">
        <ele>836.8</ele>
        <time>2022-06-27T14:23:25Z</time>
      </trkpt>
      <trkpt lat="42.3656720" lon="-3.8285930">
        <ele>836.8</ele>
        <time>2022-06-27T14:23:26Z</time>
      </trkpt>
      <trkpt lat="42.3657310" lon="-3.8286580">
        <ele>836.8</ele>
        <time>2022-06-27T14:23:27Z</time>
      </trkpt>
      <trkpt lat="42.3657900" lon="-3.8287250">
        <ele>837.0</ele>
        <time>2022-06-27T14:23:28Z</time>
      </trkpt>
      <trkpt lat="42.3658480" lon="-3.8287940">
        <ele>837.2</ele>
        <time>2022-06-27T14:23:29Z</time>
      </trkpt>
      <trkpt lat="42.3659070" lon="-3.8288660">
        <ele>837.2</ele>
        <time>2022-06-27T14:23:30Z</time>
      </trkpt>
      <trkpt lat="42.3659650" lon="-3.8289420">
        <ele>837.2</ele>
        <time>2022-06-27T14:23:31Z</time>
      </trkpt>
      <trkpt lat="42.3660190" lon="-3.8290160">
        <ele>837.2</ele>
        <time>2022-06-27T14:23:32Z</time>
      </trkpt>
      <trkpt lat="42.3660720" lon="-3.8290910">
        <ele>837.2</ele>
        <time>2022-06-27T14:23:33Z</time>
      </trkpt>
      <trkpt lat="42.3661260" lon="-3.8291670">
        <ele>837.2</ele>
        <time>2022-06-27T14:23:34Z</time>
      </trkpt>
      <trkpt lat="42.3661780" lon="-3.8292450">
        <ele>837.2</ele>
        <time>2022-06-27T14:23:35Z</time>
      </trkpt>
      <trkpt lat="42.3662280" lon="-3.8293260">
        <ele>837.2</ele>
        <time>2022-06-27T14:23:36Z</time>
      </trkpt>
      <trkpt lat="42.3662770" lon="-3.8294080">
        <ele>837.2</ele>
        <time>2022-06-27T14:23:37Z</time>
      </trkpt>
      <trkpt lat="42.3663220" lon="-3.8294930">
        <ele>837.2</ele>
        <time>2022-06-27T14:23:38Z</time>
      </trkpt>
      <trkpt lat="42.3663670" lon="-3.8295790">
        <ele>837.0</ele>
        <time>2022-06-27T14:23:39Z</time>
      </trkpt>
      <trkpt lat="42.3664110" lon="-3.8296660">
        <ele>837.0</ele>
        <time>2022-06-27T14:23:40Z</time>
      </trkpt>
      <trkpt lat="42.3664540" lon="-3.8297540">
        <ele>836.8</ele>
        <time>2022-06-27T14:23:41Z</time>
      </trkpt>
      <trkpt lat="42.3665070" lon="-3.8298590">
        <ele>836.6</ele>
        <time>2022-06-27T14:23:42Z</time>
      </trkpt>
      <trkpt lat="42.3665410" lon="-3.8299300">
        <ele>836.6</ele>
        <time>2022-06-27T14:23:43Z</time>
      </trkpt>
      <trkpt lat="42.3665850" lon="-3.8300190">
        <ele>836.4</ele>
        <time>2022-06-27T14:23:44Z</time>
      </trkpt>
      <trkpt lat="42.3666300" lon="-3.8301070">
        <ele>836.4</ele>
        <time>2022-06-27T14:23:45Z</time>
      </trkpt>
      <trkpt lat="42.3666750" lon="-3.8301940">
        <ele>836.4</ele>
        <time>2022-06-27T14:23:46Z</time>
      </trkpt>
      <trkpt lat="42.3667210" lon="-3.8302830">
        <ele>836.4</ele>
        <time>2022-06-27T14:23:47Z</time>
      </trkpt>
      <trkpt lat="42.3667680" lon="-3.8303720">
        <ele>836.4</ele>
        <time>2022-06-27T14:23:48Z</time>
      </trkpt>
      <trkpt lat="42.3668130" lon="-3.8304630">
        <ele>836.4</ele>
        <time>2022-06-27T14:23:49Z</time>
      </trkpt>
      <trkpt lat="42.3668590" lon="-3.8305550">
        <ele>836.4</ele>
        <time>2022-06-27T14:23:50Z</time>
      </trkpt>
      <trkpt lat="42.3669040" lon="-3.8306480">
        <ele>836.2</ele>
        <time>2022-06-27T14:23:51Z</time>
      </trkpt>
      <trkpt lat="42.3669510" lon="-3.8307410">
        <ele>835.8</ele>
        <time>2022-06-27T14:23:52Z</time>
      </trkpt>
      <trkpt lat="42.3669970" lon="-3.8308350">
        <ele>835.6</ele>
        <time>2022-06-27T14:23:53Z</time>
      </trkpt>
      <trkpt lat="42.3670430" lon="-3.8309300">
        <ele>835.4</ele>
        <time>2022-06-27T14:23:54Z</time>
      </trkpt>
      <trkpt lat="42.3670870" lon="-3.8310230">
        <ele>835.4</ele>
        <time>2022-06-27T14:23:55Z</time>
      </trkpt>
      <trkpt lat="42.3671320" lon="-3.8311140">
        <ele>835.2</ele>
        <time>2022-06-27T14:23:56Z</time>
      </trkpt>
      <trkpt lat="42.3671780" lon="-3.8312050">
        <ele>835.2</ele>
        <time>2022-06-27T14:23:57Z</time>
      </trkpt>
      <trkpt lat="42.3672240" lon="-3.8312970">
        <ele>835.2</ele>
        <time>2022-06-27T14:23:58Z</time>
      </trkpt>
      <trkpt lat="42.3672680" lon="-3.8313910">
        <ele>835.0</ele>
        <time>2022-06-27T14:23:59Z</time>
      </trkpt>
      <trkpt lat="42.3673110" lon="-3.8314840">
        <ele>835.0</ele>
        <time>2022-06-27T14:24:00Z</time>
      </trkpt>
      <trkpt lat="42.3673570" lon="-3.8315750">
        <ele>835.2</ele>
        <time>2022-06-27T14:24:01Z</time>
      </trkpt>
      <trkpt lat="42.3674020" lon="-3.8316680">
        <ele>835.0</ele>
        <time>2022-06-27T14:24:02Z</time>
      </trkpt>
      <trkpt lat="42.3674480" lon="-3.8317600">
        <ele>835.2</ele>
        <time>2022-06-27T14:24:03Z</time>
      </trkpt>
      <trkpt lat="42.3674940" lon="-3.8318520">
        <ele>835.2</ele>
        <time>2022-06-27T14:24:04Z</time>
      </trkpt>
      <trkpt lat="42.3675410" lon="-3.8319450">
        <ele>835.2</ele>
        <time>2022-06-27T14:24:05Z</time>
      </trkpt>
      <trkpt lat="42.3675970" lon="-3.8320560">
        <ele>835.0</ele>
        <time>2022-06-27T14:24:06Z</time>
      </trkpt>
      <trkpt lat="42.3676330" lon="-3.8321300">
        <ele>835.0</ele>
        <time>2022-06-27T14:24:07Z</time>
      </trkpt>
      <trkpt lat="42.3676770" lon="-3.8322240">
        <ele>835.0</ele>
        <time>2022-06-27T14:24:08Z</time>
      </trkpt>
      <trkpt lat="42.3677210" lon="-3.8323180">
        <ele>835.2</ele>
        <time>2022-06-27T14:24:09Z</time>
      </trkpt>
      <trkpt lat="42.3677670" lon="-3.8324120">
        <ele>835.0</ele>
        <time>2022-06-27T14:24:10Z</time>
      </trkpt>
      <trkpt lat="42.3678140" lon="-3.8325050">
        <ele>835.0</ele>
        <time>2022-06-27T14:24:11Z</time>
      </trkpt>
      <trkpt lat="42.3678610" lon="-3.8326000">
        <ele>835.2</ele>
        <time>2022-06-27T14:24:12Z</time>
      </trkpt>
      <trkpt lat="42.3679060" lon="-3.8326930">
        <ele>835.4</ele>
        <time>2022-06-27T14:24:13Z</time>
      </trkpt>
      <trkpt lat="42.3679510" lon="-3.8327870">
        <ele>835.4</ele>
        <time>2022-06-27T14:24:14Z</time>
      </trkpt>
      <trkpt lat="42.3679970" lon="-3.8328790">
        <ele>835.6</ele>
        <time>2022-06-27T14:24:15Z</time>
      </trkpt>
      <trkpt lat="42.3680430" lon="-3.8329720">
        <ele>835.6</ele>
        <time>2022-06-27T14:24:16Z</time>
      </trkpt>
      <trkpt lat="42.3680870" lon="-3.8330650">
        <ele>835.6</ele>
        <time>2022-06-27T14:24:17Z</time>
      </trkpt>
      <trkpt lat="42.3681330" lon="-3.8331570">
        <ele>835.6</ele>
        <time>2022-06-27T14:24:18Z</time>
      </trkpt>
      <trkpt lat="42.3681790" lon="-3.8332510">
        <ele>835.6</ele>
        <time>2022-06-27T14:24:19Z</time>
      </trkpt>
      <trkpt lat="42.3682240" lon="-3.8333440">
        <ele>835.6</ele>
        <time>2022-06-27T14:24:20Z</time>
      </trkpt>
      <trkpt lat="42.3682700" lon="-3.8334350">
        <ele>835.6</ele>
        <time>2022-06-27T14:24:21Z</time>
      </trkpt>
      <trkpt lat="42.3683150" lon="-3.8335270">
        <ele>835.6</ele>
        <time>2022-06-27T14:24:22Z</time>
      </trkpt>
      <trkpt lat="42.3683580" lon="-3.8336180">
        <ele>835.6</ele>
        <time>2022-06-27T14:24:23Z</time>
      </trkpt>
      <trkpt lat="42.3684020" lon="-3.8337090">
        <ele>835.6</ele>
        <time>2022-06-27T14:24:24Z</time>
      </trkpt>
      <trkpt lat="42.3684440" lon="-3.8337980">
        <ele>835.8</ele>
        <time>2022-06-27T14:24:25Z</time>
      </trkpt>
      <trkpt lat="42.3684860" lon="-3.8338860">
        <ele>835.8</ele>
        <time>2022-06-27T14:24:26Z</time>
      </trkpt>
      <trkpt lat="42.3685280" lon="-3.8339720">
        <ele>835.8</ele>
        <time>2022-06-27T14:24:27Z</time>
      </trkpt>
      <trkpt lat="42.3685670" lon="-3.8340560">
        <ele>835.8</ele>
        <time>2022-06-27T14:24:28Z</time>
      </trkpt>
      <trkpt lat="42.3686060" lon="-3.8341390">
        <ele>835.8</ele>
        <time>2022-06-27T14:24:29Z</time>
      </trkpt>
      <trkpt lat="42.3686440" lon="-3.8342210">
        <ele>835.6</ele>
        <time>2022-06-27T14:24:30Z</time>
      </trkpt>
      <trkpt lat="42.3686810" lon="-3.8343010">
        <ele>835.8</ele>
        <time>2022-06-27T14:24:31Z</time>
      </trkpt>
      <trkpt lat="42.3687190" lon="-3.8343780">
        <ele>836.0</ele>
        <time>2022-06-27T14:24:32Z</time>
      </trkpt>
      <trkpt lat="42.3687580" lon="-3.8344530">
        <ele>836.0</ele>
        <time>2022-06-27T14:24:33Z</time>
      </trkpt>
      <trkpt lat="42.3687970" lon="-3.8345280">
        <ele>836.2</ele>
        <time>2022-06-27T14:24:34Z</time>
      </trkpt>
      <trkpt lat="42.3688350" lon="-3.8346020">
        <ele>836.4</ele>
        <time>2022-06-27T14:24:35Z</time>
      </trkpt>
      <trkpt lat="42.3688710" lon="-3.8346760">
        <ele>836.8</ele>
        <time>2022-06-27T14:24:36Z</time>
      </trkpt>
      <trkpt lat="42.3689080" lon="-3.8347470">
        <ele>837.0</ele>
        <time>2022-06-27T14:24:37Z</time>
      </trkpt>
      <trkpt lat="42.3689450" lon="-3.8348210">
        <ele>837.2</ele>
        <time>2022-06-27T14:24:38Z</time>
      </trkpt>
      <trkpt lat="42.3689890" lon="-3.8349100">
        <ele>837.4</ele>
        <time>2022-06-27T14:24:39Z</time>
      </trkpt>
      <trkpt lat="42.3690180" lon="-3.8349670">
        <ele>837.6</ele>
        <time>2022-06-27T14:24:40Z</time>
      </trkpt>
      <trkpt lat="42.3690530" lon="-3.8350410">
        <ele>837.6</ele>
        <time>2022-06-27T14:24:41Z</time>
      </trkpt>
      <trkpt lat="42.3690860" lon="-3.8351160">
        <ele>837.8</ele>
        <time>2022-06-27T14:24:42Z</time>
      </trkpt>
      <trkpt lat="42.3691180" lon="-3.8351880">
        <ele>838.0</ele>
        <time>2022-06-27T14:24:43Z</time>
      </trkpt>
      <trkpt lat="42.3691510" lon="-3.8352600">
        <ele>838.0</ele>
        <time>2022-06-27T14:24:44Z</time>
      </trkpt>
      <trkpt lat="42.3691830" lon="-3.8353290">
        <ele>838.2</ele>
        <time>2022-06-27T14:24:45Z</time>
      </trkpt>
      <trkpt lat="42.3692140" lon="-3.8353980">
        <ele>838.2</ele>
        <time>2022-06-27T14:24:46Z</time>
      </trkpt>
      <trkpt lat="42.3692450" lon="-3.8354670">
        <ele>838.4</ele>
        <time>2022-06-27T14:24:47Z</time>
      </trkpt>
      <trkpt lat="42.3692770" lon="-3.8355380">
        <ele>838.4</ele>
        <time>2022-06-27T14:24:48Z</time>
      </trkpt>
      <trkpt lat="42.3693080" lon="-3.8356090">
        <ele>838.4</ele>
        <time>2022-06-27T14:24:49Z</time>
      </trkpt>
      <trkpt lat="42.3693370" lon="-3.8356790">
        <ele>838.6</ele>
        <time>2022-06-27T14:24:50Z</time>
      </trkpt>
      <trkpt lat="42.3693650" lon="-3.8357470">
        <ele>838.6</ele>
        <time>2022-06-27T14:24:51Z</time>
      </trkpt>
      <trkpt lat="42.3693940" lon="-3.8358180">
        <ele>839.0</ele>
        <time>2022-06-27T14:24:52Z</time>
      </trkpt>
      <trkpt lat="42.3694260" lon="-3.8358880">
        <ele>839.0</ele>
        <time>2022-06-27T14:24:53Z</time>
      </trkpt>
      <trkpt lat="42.3694580" lon="-3.8359600">
        <ele>839.2</ele>
        <time>2022-06-27T14:24:54Z</time>
      </trkpt>
      <trkpt lat="42.3694910" lon="-3.8360340">
        <ele>839.2</ele>
        <time>2022-06-27T14:24:55Z</time>
      </trkpt>
      <trkpt lat="42.3695250" lon="-3.8361100">
        <ele>839.2</ele>
        <time>2022-06-27T14:24:56Z</time>
      </trkpt>
      <trkpt lat="42.3695610" lon="-3.8361870">
        <ele>839.4</ele>
        <time>2022-06-27T14:24:57Z</time>
      </trkpt>
      <trkpt lat="42.3695970" lon="-3.8362640">
        <ele>839.4</ele>
        <time>2022-06-27T14:24:58Z</time>
      </trkpt>
      <trkpt lat="42.3696320" lon="-3.8363430">
        <ele>839.6</ele>
        <time>2022-06-27T14:24:59Z</time>
      </trkpt>
      <trkpt lat="42.3696630" lon="-3.8364250">
        <ele>839.6</ele>
        <time>2022-06-27T14:25:00Z</time>
      </trkpt>
      <trkpt lat="42.3696940" lon="-3.8365100">
        <ele>839.6</ele>
        <time>2022-06-27T14:25:01Z</time>
      </trkpt>
      <trkpt lat="42.3697240" lon="-3.8365950">
        <ele>839.8</ele>
        <time>2022-06-27T14:25:02Z</time>
      </trkpt>
      <trkpt lat="42.3697560" lon="-3.8366820">
        <ele>840.0</ele>
        <time>2022-06-27T14:25:03Z</time>
      </trkpt>
      <trkpt lat="42.3697880" lon="-3.8367720">
        <ele>840.2</ele>
        <time>2022-06-27T14:25:04Z</time>
      </trkpt>
      <trkpt lat="42.3698210" lon="-3.8368640">
        <ele>840.2</ele>
        <time>2022-06-27T14:25:05Z</time>
      </trkpt>
      <trkpt lat="42.3698540" lon="-3.8369580">
        <ele>840.4</ele>
        <time>2022-06-27T14:25:06Z</time>
      </trkpt>
      <trkpt lat="42.3698910" lon="-3.8370720">
        <ele>840.6</ele>
        <time>2022-06-27T14:25:07Z</time>
      </trkpt>
      <trkpt lat="42.3699170" lon="-3.8371500">
        <ele>840.8</ele>
        <time>2022-06-27T14:25:08Z</time>
      </trkpt>
      <trkpt lat="42.3699480" lon="-3.8372480">
        <ele>840.8</ele>
        <time>2022-06-27T14:25:09Z</time>
      </trkpt>
      <trkpt lat="42.3699780" lon="-3.8373490">
        <ele>840.8</ele>
        <time>2022-06-27T14:25:10Z</time>
      </trkpt>
      <trkpt lat="42.3700080" lon="-3.8374510">
        <ele>840.8</ele>
        <time>2022-06-27T14:25:11Z</time>
      </trkpt>
      <trkpt lat="42.3700380" lon="-3.8375530">
        <ele>840.8</ele>
        <time>2022-06-27T14:25:12Z</time>
      </trkpt>
      <trkpt lat="42.3700670" lon="-3.8376550">
        <ele>840.8</ele>
        <time>2022-06-27T14:25:13Z</time>
      </trkpt>
      <trkpt lat="42.3700960" lon="-3.8377590">
        <ele>840.8</ele>
        <time>2022-06-27T14:25:14Z</time>
      </trkpt>
      <trkpt lat="42.3701240" lon="-3.8378640">
        <ele>841.0</ele>
        <time>2022-06-27T14:25:15Z</time>
      </trkpt>
      <trkpt lat="42.3701510" lon="-3.8379700">
        <ele>841.0</ele>
        <time>2022-06-27T14:25:16Z</time>
      </trkpt>
      <trkpt lat="42.3701770" lon="-3.8380750">
        <ele>841.2</ele>
        <time>2022-06-27T14:25:17Z</time>
      </trkpt>
      <trkpt lat="42.3702030" lon="-3.8381820">
        <ele>841.2</ele>
        <time>2022-06-27T14:25:18Z</time>
      </trkpt>
      <trkpt lat="42.3702280" lon="-3.8382880">
        <ele>841.2</ele>
        <time>2022-06-27T14:25:19Z</time>
      </trkpt>
      <trkpt lat="42.3702540" lon="-3.8383940">
        <ele>841.2</ele>
        <time>2022-06-27T14:25:20Z</time>
      </trkpt>
      <trkpt lat="42.3702810" lon="-3.8385000">
        <ele>841.2</ele>
        <time>2022-06-27T14:25:21Z</time>
      </trkpt>
      <trkpt lat="42.3703060" lon="-3.8386050">
        <ele>841.4</ele>
        <time>2022-06-27T14:25:22Z</time>
      </trkpt>
      <trkpt lat="42.3703300" lon="-3.8387080">
        <ele>841.4</ele>
        <time>2022-06-27T14:25:23Z</time>
      </trkpt>
      <trkpt lat="42.3703530" lon="-3.8388110">
        <ele>841.4</ele>
        <time>2022-06-27T14:25:24Z</time>
      </trkpt>
      <trkpt lat="42.3703770" lon="-3.8389160">
        <ele>841.6</ele>
        <time>2022-06-27T14:25:25Z</time>
      </trkpt>
      <trkpt lat="42.3704010" lon="-3.8390200">
        <ele>841.6</ele>
        <time>2022-06-27T14:25:26Z</time>
      </trkpt>
      <trkpt lat="42.3704250" lon="-3.8391250">
        <ele>841.6</ele>
        <time>2022-06-27T14:25:27Z</time>
      </trkpt>
      <trkpt lat="42.3704500" lon="-3.8392310">
        <ele>841.6</ele>
        <time>2022-06-27T14:25:28Z</time>
      </trkpt>
      <trkpt lat="42.3704740" lon="-3.8393360">
        <ele>841.6</ele>
        <time>2022-06-27T14:25:29Z</time>
      </trkpt>
      <trkpt lat="42.3704980" lon="-3.8394390">
        <ele>841.4</ele>
        <time>2022-06-27T14:25:30Z</time>
      </trkpt>
      <trkpt lat="42.3705220" lon="-3.8395440">
        <ele>841.4</ele>
        <time>2022-06-27T14:25:31Z</time>
      </trkpt>
      <trkpt lat="42.3705470" lon="-3.8396490">
        <ele>841.4</ele>
        <time>2022-06-27T14:25:32Z</time>
      </trkpt>
      <trkpt lat="42.3705690" lon="-3.8397530">
        <ele>841.2</ele>
        <time>2022-06-27T14:25:33Z</time>
      </trkpt>
      <trkpt lat="42.3705920" lon="-3.8398590">
        <ele>841.0</ele>
        <time>2022-06-27T14:25:34Z</time>
      </trkpt>
      <trkpt lat="42.3706200" lon="-3.8399840">
        <ele>841.0</ele>
        <time>2022-06-27T14:25:35Z</time>
      </trkpt>
      <trkpt lat="42.3706390" lon="-3.8400690">
        <ele>841.2</ele>
        <time>2022-06-27T14:25:36Z</time>
      </trkpt>
      <trkpt lat="42.3706610" lon="-3.8401760">
        <ele>841.2</ele>
        <time>2022-06-27T14:25:37Z</time>
      </trkpt>
      <trkpt lat="42.3706850" lon="-3.8402810">
        <ele>841.0</ele>
        <time>2022-06-27T14:25:38Z</time>
      </trkpt>
      <trkpt lat="42.3707100" lon="-3.8403860">
        <ele>841.0</ele>
        <time>2022-06-27T14:25:39Z</time>
      </trkpt>
      <trkpt lat="42.3707340" lon="-3.8404880">
        <ele>840.8</ele>
        <time>2022-06-27T14:25:40Z</time>
      </trkpt>
      <trkpt lat="42.3707580" lon="-3.8405940">
        <ele>840.8</ele>
        <time>2022-06-27T14:25:41Z</time>
      </trkpt>
      <trkpt lat="42.3707820" lon="-3.8407000">
        <ele>840.8</ele>
        <time>2022-06-27T14:25:42Z</time>
      </trkpt>
      <trkpt lat="42.3708060" lon="-3.8408060">
        <ele>841.0</ele>
        <time>2022-06-27T14:25:43Z</time>
      </trkpt>
      <trkpt lat="42.3708290" lon="-3.8409120">
        <ele>841.0</ele>
        <time>2022-06-27T14:25:44Z</time>
      </trkpt>
      <trkpt lat="42.3708510" lon="-3.8410170">
        <ele>841.0</ele>
        <time>2022-06-27T14:25:45Z</time>
      </trkpt>
      <trkpt lat="42.3708740" lon="-3.8411230">
        <ele>841.0</ele>
        <time>2022-06-27T14:25:46Z</time>
      </trkpt>
      <trkpt lat="42.3708960" lon="-3.8412280">
        <ele>841.0</ele>
        <time>2022-06-27T14:25:47Z</time>
      </trkpt>
      <trkpt lat="42.3709180" lon="-3.8413290">
        <ele>840.8</ele>
        <time>2022-06-27T14:25:48Z</time>
      </trkpt>
      <trkpt lat="42.3709460" lon="-3.8414530">
        <ele>840.8</ele>
        <time>2022-06-27T14:25:49Z</time>
      </trkpt>
      <trkpt lat="42.3709640" lon="-3.8415360">
        <ele>840.8</ele>
        <time>2022-06-27T14:25:50Z</time>
      </trkpt>
      <trkpt lat="42.3709860" lon="-3.8416400">
        <ele>840.8</ele>
        <time>2022-06-27T14:25:51Z</time>
      </trkpt>
      <trkpt lat="42.3710090" lon="-3.8417430">
        <ele>840.8</ele>
        <time>2022-06-27T14:25:52Z</time>
      </trkpt>
      <trkpt lat="42.3710310" lon="-3.8418440">
        <ele>841.0</ele>
        <time>2022-06-27T14:25:53Z</time>
      </trkpt>
      <trkpt lat="42.3710510" lon="-3.8419450">
        <ele>841.0</ele>
        <time>2022-06-27T14:25:54Z</time>
      </trkpt>
      <trkpt lat="42.3710740" lon="-3.8420450">
        <ele>841.4</ele>
        <time>2022-06-27T14:25:55Z</time>
      </trkpt>
      <trkpt lat="42.3710960" lon="-3.8421440">
        <ele>841.4</ele>
        <time>2022-06-27T14:25:56Z</time>
      </trkpt>
      <trkpt lat="42.3711210" lon="-3.8422440">
        <ele>841.6</ele>
        <time>2022-06-27T14:25:57Z</time>
      </trkpt>
      <trkpt lat="42.3711450" lon="-3.8423400">
        <ele>841.6</ele>
        <time>2022-06-27T14:25:58Z</time>
      </trkpt>
      <trkpt lat="42.3711670" lon="-3.8424360">
        <ele>841.8</ele>
        <time>2022-06-27T14:25:59Z</time>
      </trkpt>
      <trkpt lat="42.3711900" lon="-3.8425330">
        <ele>842.4</ele>
        <time>2022-06-27T14:26:00Z</time>
      </trkpt>
      <trkpt lat="42.3712120" lon="-3.8426310">
        <ele>842.6</ele>
        <time>2022-06-27T14:26:01Z</time>
      </trkpt>
      <trkpt lat="42.3712320" lon="-3.8427250">
        <ele>843.0</ele>
        <time>2022-06-27T14:26:02Z</time>
      </trkpt>
      <trkpt lat="42.3712550" lon="-3.8428370">
        <ele>843.2</ele>
        <time>2022-06-27T14:26:03Z</time>
      </trkpt>
      <trkpt lat="42.3712730" lon="-3.8429120">
        <ele>843.2</ele>
        <time>2022-06-27T14:26:04Z</time>
      </trkpt>
      <trkpt lat="42.3712960" lon="-3.8430050">
        <ele>843.4</ele>
        <time>2022-06-27T14:26:05Z</time>
      </trkpt>
      <trkpt lat="42.3713160" lon="-3.8430980">
        <ele>843.6</ele>
        <time>2022-06-27T14:26:06Z</time>
      </trkpt>
      <trkpt lat="42.3713370" lon="-3.8431910">
        <ele>843.8</ele>
        <time>2022-06-27T14:26:07Z</time>
      </trkpt>
      <trkpt lat="42.3713570" lon="-3.8432830">
        <ele>843.8</ele>
        <time>2022-06-27T14:26:08Z</time>
      </trkpt>
      <trkpt lat="42.3713770" lon="-3.8433770">
        <ele>844.0</ele>
        <time>2022-06-27T14:26:09Z</time>
      </trkpt>
      <trkpt lat="42.3713980" lon="-3.8434690">
        <ele>844.2</ele>
        <time>2022-06-27T14:26:10Z</time>
      </trkpt>
      <trkpt lat="42.3714200" lon="-3.8435600">
        <ele>844.4</ele>
        <time>2022-06-27T14:26:11Z</time>
      </trkpt>
      <trkpt lat="42.3714400" lon="-3.8436510">
        <ele>844.4</ele>
        <time>2022-06-27T14:26:12Z</time>
      </trkpt>
      <trkpt lat="42.3714620" lon="-3.8437420">
        <ele>844.6</ele>
        <time>2022-06-27T14:26:13Z</time>
      </trkpt>
      <trkpt lat="42.3714850" lon="-3.8438330">
        <ele>844.8</ele>
        <time>2022-06-27T14:26:14Z</time>
      </trkpt>
      <trkpt lat="42.3715050" lon="-3.8439250">
        <ele>844.8</ele>
        <time>2022-06-27T14:26:15Z</time>
      </trkpt>
      <trkpt lat="42.3715240" lon="-3.8440160">
        <ele>844.8</ele>
        <time>2022-06-27T14:26:16Z</time>
      </trkpt>
      <trkpt lat="42.3715440" lon="-3.8441090">
        <ele>844.8</ele>
        <time>2022-06-27T14:26:17Z</time>
      </trkpt>
      <trkpt lat="42.3715620" lon="-3.8442020">
        <ele>845.0</ele>
        <time>2022-06-27T14:26:18Z</time>
      </trkpt>
      <trkpt lat="42.3715830" lon="-3.8442950">
        <ele>845.0</ele>
        <time>2022-06-27T14:26:19Z</time>
      </trkpt>
      <trkpt lat="42.3716030" lon="-3.8443850">
        <ele>845.2</ele>
        <time>2022-06-27T14:26:20Z</time>
      </trkpt>
      <trkpt lat="42.3716220" lon="-3.8444780">
        <ele>845.2</ele>
        <time>2022-06-27T14:26:21Z</time>
      </trkpt>
      <trkpt lat="42.3716400" lon="-3.8445690">
        <ele>845.2</ele>
        <time>2022-06-27T14:26:22Z</time>
      </trkpt>
      <trkpt lat="42.3716600" lon="-3.8446580">
        <ele>845.4</ele>
        <time>2022-06-27T14:26:23Z</time>
      </trkpt>
      <trkpt lat="42.3716800" lon="-3.8447450">
        <ele>845.4</ele>
        <time>2022-06-27T14:26:24Z</time>
      </trkpt>
      <trkpt lat="42.3716990" lon="-3.8448330">
        <ele>845.4</ele>
        <time>2022-06-27T14:26:25Z</time>
      </trkpt>
      <trkpt lat="42.3717170" lon="-3.8449230">
        <ele>845.6</ele>
        <time>2022-06-27T14:26:26Z</time>
      </trkpt>
      <trkpt lat="42.3717380" lon="-3.8450170">
        <ele>845.6</ele>
        <time>2022-06-27T14:26:27Z</time>
      </trkpt>
      <trkpt lat="42.3717600" lon="-3.8451050">
        <ele>845.8</ele>
        <time>2022-06-27T14:26:28Z</time>
      </trkpt>
      <trkpt lat="42.3717830" lon="-3.8451950">
        <ele>845.8</ele>
        <time>2022-06-27T14:26:29Z</time>
      </trkpt>
      <trkpt lat="42.3718060" lon="-3.8452850">
        <ele>846.0</ele>
        <time>2022-06-27T14:26:30Z</time>
      </trkpt>
      <trkpt lat="42.3718290" lon="-3.8453780">
        <ele>846.0</ele>
        <time>2022-06-27T14:26:31Z</time>
      </trkpt>
      <trkpt lat="42.3718480" lon="-3.8454680">
        <ele>846.2</ele>
        <time>2022-06-27T14:26:32Z</time>
      </trkpt>
      <trkpt lat="42.3718700" lon="-3.8455570">
        <ele>846.2</ele>
        <time>2022-06-27T14:26:33Z</time>
      </trkpt>
      <trkpt lat="42.3718910" lon="-3.8456470">
        <ele>846.2</ele>
        <time>2022-06-27T14:26:34Z</time>
      </trkpt>
      <trkpt lat="42.3719120" lon="-3.8457380">
        <ele>846.2</ele>
        <time>2022-06-27T14:26:35Z</time>
      </trkpt>
      <trkpt lat="42.3719310" lon="-3.8458290">
        <ele>846.4</ele>
        <time>2022-06-27T14:26:36Z</time>
      </trkpt>
      <trkpt lat="42.3719510" lon="-3.8459180">
        <ele>846.6</ele>
        <time>2022-06-27T14:26:37Z</time>
      </trkpt>
      <trkpt lat="42.3719720" lon="-3.8460070">
        <ele>846.8</ele>
        <time>2022-06-27T14:26:38Z</time>
      </trkpt>
      <trkpt lat="42.3719920" lon="-3.8460950">
        <ele>847.0</ele>
        <time>2022-06-27T14:26:39Z</time>
      </trkpt>
      <trkpt lat="42.3720160" lon="-3.8462010">
        <ele>847.2</ele>
        <time>2022-06-27T14:26:40Z</time>
      </trkpt>
      <trkpt lat="42.3720310" lon="-3.8462710">
        <ele>847.4</ele>
        <time>2022-06-27T14:26:41Z</time>
      </trkpt>
      <trkpt lat="42.3720510" lon="-3.8463580">
        <ele>847.6</ele>
        <time>2022-06-27T14:26:42Z</time>
      </trkpt>
      <trkpt lat="42.3720720" lon="-3.8464440">
        <ele>847.6</ele>
        <time>2022-06-27T14:26:43Z</time>
      </trkpt>
      <trkpt lat="42.3720910" lon="-3.8465300">
        <ele>847.8</ele>
        <time>2022-06-27T14:26:44Z</time>
      </trkpt>
      <trkpt lat="42.3721100" lon="-3.8466170">
        <ele>848.0</ele>
        <time>2022-06-27T14:26:45Z</time>
      </trkpt>
      <trkpt lat="42.3721280" lon="-3.8467040">
        <ele>848.2</ele>
        <time>2022-06-27T14:26:46Z</time>
      </trkpt>
      <trkpt lat="42.3721470" lon="-3.8467910">
        <ele>848.2</ele>
        <time>2022-06-27T14:26:47Z</time>
      </trkpt>
      <trkpt lat="42.3721670" lon="-3.8468780">
        <ele>848.4</ele>
        <time>2022-06-27T14:26:48Z</time>
      </trkpt>
      <trkpt lat="42.3721860" lon="-3.8469650">
        <ele>848.6</ele>
        <time>2022-06-27T14:26:49Z</time>
      </trkpt>
      <trkpt lat="42.3722050" lon="-3.8470550">
        <ele>848.6</ele>
        <time>2022-06-27T14:26:50Z</time>
      </trkpt>
      <trkpt lat="42.3722240" lon="-3.8471420">
        <ele>848.8</ele>
        <time>2022-06-27T14:26:51Z</time>
      </trkpt>
      <trkpt lat="42.3722400" lon="-3.8472310">
        <ele>849.0</ele>
        <time>2022-06-27T14:26:52Z</time>
      </trkpt>
      <trkpt lat="42.3722590" lon="-3.8473200">
        <ele>849.2</ele>
        <time>2022-06-27T14:26:53Z</time>
      </trkpt>
      <trkpt lat="42.3722790" lon="-3.8474280">
        <ele>849.2</ele>
        <time>2022-06-27T14:26:54Z</time>
      </trkpt>
      <trkpt lat="42.3722910" lon="-3.8475010">
        <ele>849.2</ele>
        <time>2022-06-27T14:26:55Z</time>
      </trkpt>
      <trkpt lat="42.3723060" lon="-3.8475910">
        <ele>849.6</ele>
        <time>2022-06-27T14:26:56Z</time>
      </trkpt>
      <trkpt lat="42.3723190" lon="-3.8476810">
        <ele>849.6</ele>
        <time>2022-06-27T14:26:57Z</time>
      </trkpt>
      <trkpt lat="42.3723310" lon="-3.8477710">
        <ele>849.8</ele>
        <time>2022-06-27T14:26:58Z</time>
      </trkpt>
      <trkpt lat="42.3723420" lon="-3.8478610">
        <ele>849.8</ele>
        <time>2022-06-27T14:26:59Z</time>
      </trkpt>
      <trkpt lat="42.3723520" lon="-3.8479470">
        <ele>850.4</ele>
        <time>2022-06-27T14:27:00Z</time>
      </trkpt>
      <trkpt lat="42.3723600" lon="-3.8480360">
        <ele>850.4</ele>
        <time>2022-06-27T14:27:01Z</time>
      </trkpt>
      <trkpt lat="42.3723680" lon="-3.8481240">
        <ele>850.8</ele>
        <time>2022-06-27T14:27:02Z</time>
      </trkpt>
      <trkpt lat="42.3723760" lon="-3.8482110">
        <ele>851.2</ele>
        <time>2022-06-27T14:27:03Z</time>
      </trkpt>
      <trkpt lat="42.3723830" lon="-3.8482990">
        <ele>851.2</ele>
        <time>2022-06-27T14:27:04Z</time>
      </trkpt>
      <trkpt lat="42.3723910" lon="-3.8483860">
        <ele>851.6</ele>
        <time>2022-06-27T14:27:05Z</time>
      </trkpt>
      <trkpt lat="42.3723980" lon="-3.8484740">
        <ele>851.6</ele>
        <time>2022-06-27T14:27:06Z</time>
      </trkpt>
      <trkpt lat="42.3724060" lon="-3.8485630">
        <ele>851.8</ele>
        <time>2022-06-27T14:27:07Z</time>
      </trkpt>
      <trkpt lat="42.3724120" lon="-3.8486530">
        <ele>851.8</ele>
        <time>2022-06-27T14:27:08Z</time>
      </trkpt>
      <trkpt lat="42.3724180" lon="-3.8487410">
        <ele>851.6</ele>
        <time>2022-06-27T14:27:09Z</time>
      </trkpt>
      <trkpt lat="42.3724240" lon="-3.8488310">
        <ele>851.8</ele>
        <time>2022-06-27T14:27:10Z</time>
      </trkpt>
      <trkpt lat="42.3724320" lon="-3.8489220">
        <ele>852.0</ele>
        <time>2022-06-27T14:27:11Z</time>
      </trkpt>
      <trkpt lat="42.3724380" lon="-3.8490130">
        <ele>852.0</ele>
        <time>2022-06-27T14:27:12Z</time>
      </trkpt>
      <trkpt lat="42.3724440" lon="-3.8491050">
        <ele>852.0</ele>
        <time>2022-06-27T14:27:13Z</time>
      </trkpt>
      <trkpt lat="42.3724490" lon="-3.8491960">
        <ele>852.2</ele>
        <time>2022-06-27T14:27:14Z</time>
      </trkpt>
      <trkpt lat="42.3724540" lon="-3.8492890">
        <ele>852.2</ele>
        <time>2022-06-27T14:27:15Z</time>
      </trkpt>
      <trkpt lat="42.3724590" lon="-3.8493830">
        <ele>852.6</ele>
        <time>2022-06-27T14:27:16Z</time>
      </trkpt>
      <trkpt lat="42.3724630" lon="-3.8494750">
        <ele>852.8</ele>
        <time>2022-06-27T14:27:17Z</time>
      </trkpt>
      <trkpt lat="42.3724680" lon="-3.8495660">
        <ele>852.8</ele>
        <time>2022-06-27T14:27:18Z</time>
      </trkpt>
      <trkpt lat="42.3724740" lon="-3.8496560">
        <ele>853.0</ele>
        <time>2022-06-27T14:27:19Z</time>
      </trkpt>
      <trkpt lat="42.3724800" lon="-3.8497460">
        <ele>853.2</ele>
        <time>2022-06-27T14:27:20Z</time>
      </trkpt>
      <trkpt lat="42.3724860" lon="-3.8498370">
        <ele>853.2</ele>
        <time>2022-06-27T14:27:21Z</time>
      </trkpt>
      <trkpt lat="42.3724940" lon="-3.8499450">
        <ele>853.4</ele>
        <time>2022-06-27T14:27:22Z</time>
      </trkpt>
      <trkpt lat="42.3725000" lon="-3.8500180">
        <ele>853.4</ele>
        <time>2022-06-27T14:27:23Z</time>
      </trkpt>
      <trkpt lat="42.3725050" lon="-3.8501100">
        <ele>853.6</ele>
        <time>2022-06-27T14:27:24Z</time>
      </trkpt>
      <trkpt lat="42.3725100" lon="-3.8502000">
        <ele>853.8</ele>
        <time>2022-06-27T14:27:25Z</time>
      </trkpt>
      <trkpt lat="42.3725160" lon="-3.8502900">
        <ele>854.2</ele>
        <time>2022-06-27T14:27:26Z</time>
      </trkpt>
      <trkpt lat="42.3725200" lon="-3.8503800">
        <ele>854.4</ele>
        <time>2022-06-27T14:27:27Z</time>
      </trkpt>
      <trkpt lat="42.3725250" lon="-3.8504680">
        <ele>854.6</ele>
        <time>2022-06-27T14:27:28Z</time>
      </trkpt>
      <trkpt lat="42.3725310" lon="-3.8505570">
        <ele>854.8</ele>
        <time>2022-06-27T14:27:29Z</time>
      </trkpt>
      <trkpt lat="42.3725370" lon="-3.8506450">
        <ele>854.8</ele>
        <time>2022-06-27T14:27:30Z</time>
      </trkpt>
      <trkpt lat="42.3725410" lon="-3.8507340">
        <ele>854.8</ele>
        <time>2022-06-27T14:27:31Z</time>
      </trkpt>
      <trkpt lat="42.3725480" lon="-3.8508240">
        <ele>855.2</ele>
        <time>2022-06-27T14:27:32Z</time>
      </trkpt>
      <trkpt lat="42.3725540" lon="-3.8509130">
        <ele>855.4</ele>
        <time>2022-06-27T14:27:33Z</time>
      </trkpt>
      <trkpt lat="42.3725590" lon="-3.8510000">
        <ele>855.4</ele>
        <time>2022-06-27T14:27:34Z</time>
      </trkpt>
      <trkpt lat="42.3725640" lon="-3.8510910">
        <ele>855.4</ele>
        <time>2022-06-27T14:27:35Z</time>
      </trkpt>
      <trkpt lat="42.3725680" lon="-3.8511830">
        <ele>855.6</ele>
        <time>2022-06-27T14:27:36Z</time>
      </trkpt>
      <trkpt lat="42.3725720" lon="-3.8512740">
        <ele>855.8</ele>
        <time>2022-06-27T14:27:37Z</time>
      </trkpt>
      <trkpt lat="42.3725760" lon="-3.8513640">
        <ele>855.8</ele>
        <time>2022-06-27T14:27:38Z</time>
      </trkpt>
      <trkpt lat="42.3725800" lon="-3.8514530">
        <ele>856.0</ele>
        <time>2022-06-27T14:27:39Z</time>
      </trkpt>
      <trkpt lat="42.3725860" lon="-3.8515430">
        <ele>856.6</ele>
        <time>2022-06-27T14:27:40Z</time>
      </trkpt>
      <trkpt lat="42.3725910" lon="-3.8516330">
        <ele>856.8</ele>
        <time>2022-06-27T14:27:41Z</time>
      </trkpt>
      <trkpt lat="42.3725960" lon="-3.8517220">
        <ele>856.8</ele>
        <time>2022-06-27T14:27:42Z</time>
      </trkpt>
      <trkpt lat="42.3726000" lon="-3.8518080">
        <ele>857.0</ele>
        <time>2022-06-27T14:27:43Z</time>
      </trkpt>
      <trkpt lat="42.3726050" lon="-3.8518920">
        <ele>857.2</ele>
        <time>2022-06-27T14:27:44Z</time>
      </trkpt>
      <trkpt lat="42.3726070" lon="-3.8519730">
        <ele>857.2</ele>
        <time>2022-06-27T14:27:45Z</time>
      </trkpt>
      <trkpt lat="42.3726130" lon="-3.8520550">
        <ele>857.6</ele>
        <time>2022-06-27T14:27:46Z</time>
      </trkpt>
      <trkpt lat="42.3726200" lon="-3.8521360">
        <ele>857.8</ele>
        <time>2022-06-27T14:27:47Z</time>
      </trkpt>
      <trkpt lat="42.3726250" lon="-3.8522160">
        <ele>858.0</ele>
        <time>2022-06-27T14:27:48Z</time>
      </trkpt>
      <trkpt lat="42.3726290" lon="-3.8522950">
        <ele>858.2</ele>
        <time>2022-06-27T14:27:49Z</time>
      </trkpt>
      <trkpt lat="42.3726340" lon="-3.8523730">
        <ele>858.4</ele>
        <time>2022-06-27T14:27:50Z</time>
      </trkpt>
      <trkpt lat="42.3726390" lon="-3.8524510">
        <ele>858.6</ele>
        <time>2022-06-27T14:27:51Z</time>
      </trkpt>
      <trkpt lat="42.3726440" lon="-3.8525280">
        <ele>858.8</ele>
        <time>2022-06-27T14:27:52Z</time>
      </trkpt>
      <trkpt lat="42.3726500" lon="-3.8526040">
        <ele>858.8</ele>
        <time>2022-06-27T14:27:53Z</time>
      </trkpt>
      <trkpt lat="42.3726550" lon="-3.8526800">
        <ele>859.0</ele>
        <time>2022-06-27T14:27:54Z</time>
      </trkpt>
      <trkpt lat="42.3726580" lon="-3.8527550">
        <ele>859.2</ele>
        <time>2022-06-27T14:27:55Z</time>
      </trkpt>
      <trkpt lat="42.3726630" lon="-3.8528270">
        <ele>859.6</ele>
        <time>2022-06-27T14:27:56Z</time>
      </trkpt>
      <trkpt lat="42.3726680" lon="-3.8529010">
        <ele>859.8</ele>
        <time>2022-06-27T14:27:57Z</time>
      </trkpt>
      <trkpt lat="42.3726730" lon="-3.8529760">
        <ele>860.0</ele>
        <time>2022-06-27T14:27:58Z</time>
      </trkpt>
      <trkpt lat="42.3726780" lon="-3.8530490">
        <ele>860.2</ele>
        <time>2022-06-27T14:27:59Z</time>
      </trkpt>
      <trkpt lat="42.3726820" lon="-3.8531230">
        <ele>860.2</ele>
        <time>2022-06-27T14:28:00Z</time>
      </trkpt>
      <trkpt lat="42.3726880" lon="-3.8531960">
        <ele>860.4</ele>
        <time>2022-06-27T14:28:01Z</time>
      </trkpt>
      <trkpt lat="42.3726920" lon="-3.8532690">
        <ele>860.6</ele>
        <time>2022-06-27T14:28:02Z</time>
      </trkpt>
      <trkpt lat="42.3726960" lon="-3.8533440">
        <ele>861.0</ele>
        <time>2022-06-27T14:28:03Z</time>
      </trkpt>
      <trkpt lat="42.3727020" lon="-3.8534180">
        <ele>861.4</ele>
        <time>2022-06-27T14:28:04Z</time>
      </trkpt>
      <trkpt lat="42.3727060" lon="-3.8534920">
        <ele>861.8</ele>
        <time>2022-06-27T14:28:05Z</time>
      </trkpt>
      <trkpt lat="42.3727100" lon="-3.8535650">
        <ele>862.2</ele>
        <time>2022-06-27T14:28:06Z</time>
      </trkpt>
      <trkpt lat="42.3727140" lon="-3.8536360">
        <ele>862.6</ele>
        <time>2022-06-27T14:28:07Z</time>
      </trkpt>
      <trkpt lat="42.3727170" lon="-3.8537060">
        <ele>862.8</ele>
        <time>2022-06-27T14:28:08Z</time>
      </trkpt>
      <trkpt lat="42.3727220" lon="-3.8537760">
        <ele>863.0</ele>
        <time>2022-06-27T14:28:09Z</time>
      </trkpt>
      <trkpt lat="42.3727280" lon="-3.8538470">
        <ele>863.2</ele>
        <time>2022-06-27T14:28:10Z</time>
      </trkpt>
      <trkpt lat="42.3727340" lon="-3.8539210">
        <ele>863.4</ele>
        <time>2022-06-27T14:28:11Z</time>
      </trkpt>
      <trkpt lat="42.3727390" lon="-3.8539950">
        <ele>863.6</ele>
        <time>2022-06-27T14:28:12Z</time>
      </trkpt>
      <trkpt lat="42.3727430" lon="-3.8540670">
        <ele>863.8</ele>
        <time>2022-06-27T14:28:13Z</time>
      </trkpt>
      <trkpt lat="42.3727480" lon="-3.8541390">
        <ele>864.0</ele>
        <time>2022-06-27T14:28:14Z</time>
      </trkpt>
      <trkpt lat="42.3727520" lon="-3.8542110">
        <ele>864.4</ele>
        <time>2022-06-27T14:28:15Z</time>
      </trkpt>
      <trkpt lat="42.3727540" lon="-3.8542830">
        <ele>864.6</ele>
        <time>2022-06-27T14:28:16Z</time>
      </trkpt>
      <trkpt lat="42.3727570" lon="-3.8543540">
        <ele>864.8</ele>
        <time>2022-06-27T14:28:17Z</time>
      </trkpt>
      <trkpt lat="42.3727630" lon="-3.8544240">
        <ele>864.8</ele>
        <time>2022-06-27T14:28:18Z</time>
      </trkpt>
      <trkpt lat="42.3727680" lon="-3.8544930">
        <ele>865.0</ele>
        <time>2022-06-27T14:28:19Z</time>
      </trkpt>
      <trkpt lat="42.3727700" lon="-3.8545620">
        <ele>865.0</ele>
        <time>2022-06-27T14:28:20Z</time>
      </trkpt>
      <trkpt lat="42.3727730" lon="-3.8546320">
        <ele>865.2</ele>
        <time>2022-06-27T14:28:21Z</time>
      </trkpt>
      <trkpt lat="42.3727780" lon="-3.8547030">
        <ele>865.4</ele>
        <time>2022-06-27T14:28:22Z</time>
      </trkpt>
      <trkpt lat="42.3727810" lon="-3.8547730">
        <ele>865.4</ele>
        <time>2022-06-27T14:28:23Z</time>
      </trkpt>
      <trkpt lat="42.3727850" lon="-3.8548430">
        <ele>865.6</ele>
        <time>2022-06-27T14:28:24Z</time>
      </trkpt>
      <trkpt lat="42.3727890" lon="-3.8549140">
        <ele>865.8</ele>
        <time>2022-06-27T14:28:25Z</time>
      </trkpt>
      <trkpt lat="42.3727930" lon="-3.8549850">
        <ele>866.2</ele>
        <time>2022-06-27T14:28:26Z</time>
      </trkpt>
      <trkpt lat="42.3727940" lon="-3.8550550">
        <ele>866.6</ele>
        <time>2022-06-27T14:28:27Z</time>
      </trkpt>
      <trkpt lat="42.3727970" lon="-3.8551400">
        <ele>867.0</ele>
        <time>2022-06-27T14:28:28Z</time>
      </trkpt>
      <trkpt lat="42.3727990" lon="-3.8551980">
        <ele>867.2</ele>
        <time>2022-06-27T14:28:29Z</time>
      </trkpt>
      <trkpt lat="42.3728010" lon="-3.8552690">
        <ele>867.2</ele>
        <time>2022-06-27T14:28:30Z</time>
      </trkpt>
      <trkpt lat="42.3728040" lon="-3.8553400">
        <ele>867.6</ele>
        <time>2022-06-27T14:28:31Z</time>
      </trkpt>
      <trkpt lat="42.3728060" lon="-3.8554110">
        <ele>867.6</ele>
        <time>2022-06-27T14:28:32Z</time>
      </trkpt>
      <trkpt lat="42.3728080" lon="-3.8554810">
        <ele>867.8</ele>
        <time>2022-06-27T14:28:33Z</time>
      </trkpt>
      <trkpt lat="42.3728110" lon="-3.8555510">
        <ele>867.8</ele>
        <time>2022-06-27T14:28:34Z</time>
      </trkpt>
      <trkpt lat="42.3728120" lon="-3.8556200">
        <ele>868.0</ele>
        <time>2022-06-27T14:28:35Z</time>
      </trkpt>
      <trkpt lat="42.3728120" lon="-3.8556890">
        <ele>868.2</ele>
        <time>2022-06-27T14:28:36Z</time>
      </trkpt>
      <trkpt lat="42.3728150" lon="-3.8557590">
        <ele>868.2</ele>
        <time>2022-06-27T14:28:37Z</time>
      </trkpt>
      <trkpt lat="42.3728200" lon="-3.8558310">
        <ele>868.6</ele>
        <time>2022-06-27T14:28:38Z</time>
      </trkpt>
      <trkpt lat="42.3728260" lon="-3.8559030">
        <ele>868.8</ele>
        <time>2022-06-27T14:28:39Z</time>
      </trkpt>
      <trkpt lat="42.3728300" lon="-3.8559740">
        <ele>869.4</ele>
        <time>2022-06-27T14:28:40Z</time>
      </trkpt>
      <trkpt lat="42.3728340" lon="-3.8560470">
        <ele>869.4</ele>
        <time>2022-06-27T14:28:41Z</time>
      </trkpt>
      <trkpt lat="42.3728380" lon="-3.8561200">
        <ele>869.8</ele>
        <time>2022-06-27T14:28:42Z</time>
      </trkpt>
      <trkpt lat="42.3728430" lon="-3.8561900">
        <ele>870.0</ele>
        <time>2022-06-27T14:28:43Z</time>
      </trkpt>
      <trkpt lat="42.3728470" lon="-3.8562620">
        <ele>870.2</ele>
        <time>2022-06-27T14:28:44Z</time>
      </trkpt>
      <trkpt lat="42.3728510" lon="-3.8563340">
        <ele>870.4</ele>
        <time>2022-06-27T14:28:45Z</time>
      </trkpt>
      <trkpt lat="42.3728560" lon="-3.8564070">
        <ele>870.4</ele>
        <time>2022-06-27T14:28:46Z</time>
      </trkpt>
      <trkpt lat="42.3728620" lon="-3.8564790">
        <ele>871.0</ele>
        <time>2022-06-27T14:28:47Z</time>
      </trkpt>
      <trkpt lat="42.3728680" lon="-3.8565510">
        <ele>871.2</ele>
        <time>2022-06-27T14:28:48Z</time>
      </trkpt>
      <trkpt lat="42.3728760" lon="-3.8566200">
        <ele>871.8</ele>
        <time>2022-06-27T14:28:49Z</time>
      </trkpt>
      <trkpt lat="42.3728830" lon="-3.8566900">
        <ele>871.8</ele>
        <time>2022-06-27T14:28:50Z</time>
      </trkpt>
      <trkpt lat="42.3728890" lon="-3.8567590">
        <ele>872.2</ele>
        <time>2022-06-27T14:28:51Z</time>
      </trkpt>
      <trkpt lat="42.3728940" lon="-3.8568280">
        <ele>872.4</ele>
        <time>2022-06-27T14:28:52Z</time>
      </trkpt>
      <trkpt lat="42.3729000" lon="-3.8568990">
        <ele>872.6</ele>
        <time>2022-06-27T14:28:53Z</time>
      </trkpt>
      <trkpt lat="42.3729060" lon="-3.8569670">
        <ele>873.0</ele>
        <time>2022-06-27T14:28:54Z</time>
      </trkpt>
      <trkpt lat="42.3729120" lon="-3.8570340">
        <ele>873.0</ele>
        <time>2022-06-27T14:28:55Z</time>
      </trkpt>
      <trkpt lat="42.3729150" lon="-3.8571020">
        <ele>873.2</ele>
        <time>2022-06-27T14:28:56Z</time>
      </trkpt>
      <trkpt lat="42.3729180" lon="-3.8571700">
        <ele>873.2</ele>
        <time>2022-06-27T14:28:57Z</time>
      </trkpt>
      <trkpt lat="42.3729220" lon="-3.8572360">
        <ele>873.4</ele>
        <time>2022-06-27T14:28:58Z</time>
      </trkpt>
      <trkpt lat="42.3729250" lon="-3.8573020">
        <ele>873.6</ele>
        <time>2022-06-27T14:28:59Z</time>
      </trkpt>
      <trkpt lat="42.3729280" lon="-3.8573680">
        <ele>873.8</ele>
        <time>2022-06-27T14:29:00Z</time>
      </trkpt>
      <trkpt lat="42.3729310" lon="-3.8574340">
        <ele>874.0</ele>
        <time>2022-06-27T14:29:01Z</time>
      </trkpt>
      <trkpt lat="42.3729310" lon="-3.8574980">
        <ele>874.2</ele>
        <time>2022-06-27T14:29:02Z</time>
      </trkpt>
      <trkpt lat="42.3729340" lon="-3.8575640">
        <ele>874.4</ele>
        <time>2022-06-27T14:29:03Z</time>
      </trkpt>
      <trkpt lat="42.3729370" lon="-3.8576300">
        <ele>874.4</ele>
        <time>2022-06-27T14:29:04Z</time>
      </trkpt>
      <trkpt lat="42.3729390" lon="-3.8576970">
        <ele>874.8</ele>
        <time>2022-06-27T14:29:05Z</time>
      </trkpt>
      <trkpt lat="42.3729400" lon="-3.8577650">
        <ele>875.2</ele>
        <time>2022-06-27T14:29:06Z</time>
      </trkpt>
      <trkpt lat="42.3729420" lon="-3.8578340">
        <ele>875.2</ele>
        <time>2022-06-27T14:29:07Z</time>
      </trkpt>
      <trkpt lat="42.3729430" lon="-3.8579030">
        <ele>875.6</ele>
        <time>2022-06-27T14:29:08Z</time>
      </trkpt>
      <trkpt lat="42.3729440" lon="-3.8579730">
        <ele>875.8</ele>
        <time>2022-06-27T14:29:09Z</time>
      </trkpt>
      <trkpt lat="42.3729440" lon="-3.8580540">
        <ele>875.8</ele>
        <time>2022-06-27T14:29:10Z</time>
      </trkpt>
      <trkpt lat="42.3729430" lon="-3.8581080">
        <ele>876.0</ele>
        <time>2022-06-27T14:29:11Z</time>
      </trkpt>
      <trkpt lat="42.3729400" lon="-3.8581730">
        <ele>876.0</ele>
        <time>2022-06-27T14:29:12Z</time>
      </trkpt>
      <trkpt lat="42.3729380" lon="-3.8582360">
        <ele>876.4</ele>
        <time>2022-06-27T14:29:13Z</time>
      </trkpt>
      <trkpt lat="42.3729360" lon="-3.8583010">
        <ele>876.6</ele>
        <time>2022-06-27T14:29:14Z</time>
      </trkpt>
      <trkpt lat="42.3729360" lon="-3.8583680">
        <ele>876.8</ele>
        <time>2022-06-27T14:29:15Z</time>
      </trkpt>
      <trkpt lat="42.3729360" lon="-3.8584360">
        <ele>877.0</ele>
        <time>2022-06-27T14:29:16Z</time>
      </trkpt>
      <trkpt lat="42.3729360" lon="-3.8585050">
        <ele>877.2</ele>
        <time>2022-06-27T14:29:17Z</time>
      </trkpt>
      <trkpt lat="42.3729350" lon="-3.8585720">
        <ele>877.4</ele>
        <time>2022-06-27T14:29:18Z</time>
      </trkpt>
      <trkpt lat="42.3729330" lon="-3.8586370">
        <ele>878.2</ele>
        <time>2022-06-27T14:29:19Z</time>
      </trkpt>
      <trkpt lat="42.3729320" lon="-3.8587020">
        <ele>878.4</ele>
        <time>2022-06-27T14:29:20Z</time>
      </trkpt>
      <trkpt lat="42.3729300" lon="-3.8587650">
        <ele>878.8</ele>
        <time>2022-06-27T14:29:21Z</time>
      </trkpt>
      <trkpt lat="42.3729280" lon="-3.8588290">
        <ele>879.2</ele>
        <time>2022-06-27T14:29:22Z</time>
      </trkpt>
      <trkpt lat="42.3729260" lon="-3.8588910">
        <ele>879.2</ele>
        <time>2022-06-27T14:29:23Z</time>
      </trkpt>
      <trkpt lat="42.3729200" lon="-3.8589670">
        <ele>879.6</ele>
        <time>2022-06-27T14:29:24Z</time>
      </trkpt>
      <trkpt lat="42.3729150" lon="-3.8590160">
        <ele>879.6</ele>
        <time>2022-06-27T14:29:25Z</time>
      </trkpt>
      <trkpt lat="42.3729090" lon="-3.8590770">
        <ele>879.8</ele>
        <time>2022-06-27T14:29:26Z</time>
      </trkpt>
      <trkpt lat="42.3729010" lon="-3.8591370">
        <ele>879.8</ele>
        <time>2022-06-27T14:29:27Z</time>
      </trkpt>
      <trkpt lat="42.3728930" lon="-3.8591980">
        <ele>880.0</ele>
        <time>2022-06-27T14:29:28Z</time>
      </trkpt>
      <trkpt lat="42.3727280" lon="-3.8600800">
        <ele>884.8</ele>
        <time>2022-06-27T14:32:59Z</time>
      </trkpt>
      <trkpt lat="42.3727210" lon="-3.8601100">
        <ele>884.8</ele>
        <time>2022-06-27T14:33:00Z</time>
      </trkpt>
      <trkpt lat="42.3727080" lon="-3.8601710">
        <ele>884.8</ele>
        <time>2022-06-27T14:33:01Z</time>
      </trkpt>
      <trkpt lat="42.3726930" lon="-3.8602360">
        <ele>884.8</ele>
        <time>2022-06-27T14:33:02Z</time>
      </trkpt>
      <trkpt lat="42.3726730" lon="-3.8603040">
        <ele>884.8</ele>
        <time>2022-06-27T14:33:03Z</time>
      </trkpt>
      <trkpt lat="42.3726520" lon="-3.8603750">
        <ele>884.6</ele>
        <time>2022-06-27T14:33:04Z</time>
      </trkpt>
      <trkpt lat="42.3726320" lon="-3.8604480">
        <ele>884.6</ele>
        <time>2022-06-27T14:33:05Z</time>
      </trkpt>
      <trkpt lat="42.3726130" lon="-3.8605220">
        <ele>884.6</ele>
        <time>2022-06-27T14:33:06Z</time>
      </trkpt>
      <trkpt lat="42.3725950" lon="-3.8605990">
        <ele>884.6</ele>
        <time>2022-06-27T14:33:07Z</time>
      </trkpt>
      <trkpt lat="42.3725750" lon="-3.8606790">
        <ele>884.4</ele>
        <time>2022-06-27T14:33:08Z</time>
      </trkpt>
      <trkpt lat="42.3725530" lon="-3.8607600">
        <ele>884.4</ele>
        <time>2022-06-27T14:33:09Z</time>
      </trkpt>
      <trkpt lat="42.3725310" lon="-3.8608430">
        <ele>884.2</ele>
        <time>2022-06-27T14:33:10Z</time>
      </trkpt>
      <trkpt lat="42.3725100" lon="-3.8609270">
        <ele>884.2</ele>
        <time>2022-06-27T14:33:11Z</time>
      </trkpt>
      <trkpt lat="42.3724890" lon="-3.8610100">
        <ele>884.2</ele>
        <time>2022-06-27T14:33:12Z</time>
      </trkpt>
      <trkpt lat="42.3724660" lon="-3.8610950">
        <ele>884.2</ele>
        <time>2022-06-27T14:33:13Z</time>
      </trkpt>
      <trkpt lat="42.3724440" lon="-3.8611810">
        <ele>884.2</ele>
        <time>2022-06-27T14:33:14Z</time>
      </trkpt>
      <trkpt lat="42.3724150" lon="-3.8612880">
        <ele>884.2</ele>
        <time>2022-06-27T14:33:15Z</time>
      </trkpt>
      <trkpt lat="42.3723960" lon="-3.8613620">
        <ele>884.2</ele>
        <time>2022-06-27T14:33:16Z</time>
      </trkpt>
      <trkpt lat="42.3723730" lon="-3.8614530">
        <ele>884.2</ele>
        <time>2022-06-27T14:33:17Z</time>
      </trkpt>
      <trkpt lat="42.3723510" lon="-3.8615460">
        <ele>884.2</ele>
        <time>2022-06-27T14:33:18Z</time>
      </trkpt>
      <trkpt lat="42.3723290" lon="-3.8616390">
        <ele>884.0</ele>
        <time>2022-06-27T14:33:19Z</time>
      </trkpt>
      <trkpt lat="42.3723060" lon="-3.8617330">
        <ele>884.0</ele>
        <time>2022-06-27T14:33:20Z</time>
      </trkpt>
      <trkpt lat="42.3722850" lon="-3.8618290">
        <ele>884.2</ele>
        <time>2022-06-27T14:33:21Z</time>
      </trkpt>
      <trkpt lat="42.3722630" lon="-3.8619270">
        <ele>884.2</ele>
        <time>2022-06-27T14:33:22Z</time>
      </trkpt>
      <trkpt lat="42.3722430" lon="-3.8620270">
        <ele>884.0</ele>
        <time>2022-06-27T14:33:23Z</time>
      </trkpt>
      <trkpt lat="42.3722230" lon="-3.8621290">
        <ele>884.0</ele>
        <time>2022-06-27T14:33:24Z</time>
      </trkpt>
      <trkpt lat="42.3722050" lon="-3.8622330">
        <ele>884.0</ele>
        <time>2022-06-27T14:33:25Z</time>
      </trkpt>
      <trkpt lat="42.3721890" lon="-3.8623360">
        <ele>884.0</ele>
        <time>2022-06-27T14:33:26Z</time>
      </trkpt>
      <trkpt lat="42.3721720" lon="-3.8624420">
        <ele>884.0</ele>
        <time>2022-06-27T14:33:27Z</time>
      </trkpt>
      <trkpt lat="42.3721580" lon="-3.8625490">
        <ele>884.0</ele>
        <time>2022-06-27T14:33:28Z</time>
      </trkpt>
      <trkpt lat="42.3721400" lon="-3.8626780">
        <ele>883.8</ele>
        <time>2022-06-27T14:33:29Z</time>
      </trkpt>
      <trkpt lat="42.3721290" lon="-3.8627660">
        <ele>883.8</ele>
        <time>2022-06-27T14:33:30Z</time>
      </trkpt>
      <trkpt lat="42.3721150" lon="-3.8628760">
        <ele>884.0</ele>
        <time>2022-06-27T14:33:31Z</time>
      </trkpt>
      <trkpt lat="42.3721030" lon="-3.8629860">
        <ele>884.2</ele>
        <time>2022-06-27T14:33:32Z</time>
      </trkpt>
      <trkpt lat="42.3720910" lon="-3.8630950">
        <ele>884.2</ele>
        <time>2022-06-27T14:33:33Z</time>
      </trkpt>
      <trkpt lat="42.3720800" lon="-3.8632050">
        <ele>884.2</ele>
        <time>2022-06-27T14:33:34Z</time>
      </trkpt>
      <trkpt lat="42.3720690" lon="-3.8633150">
        <ele>884.0</ele>
        <time>2022-06-27T14:33:35Z</time>
      </trkpt>
      <trkpt lat="42.3720560" lon="-3.8634240">
        <ele>884.2</ele>
        <time>2022-06-27T14:33:36Z</time>
      </trkpt>
      <trkpt lat="42.3720440" lon="-3.8635320">
        <ele>884.2</ele>
        <time>2022-06-27T14:33:37Z</time>
      </trkpt>
      <trkpt lat="42.3720330" lon="-3.8636390">
        <ele>884.2</ele>
        <time>2022-06-27T14:33:38Z</time>
      </trkpt>
      <trkpt lat="42.3720220" lon="-3.8637460">
        <ele>884.2</ele>
        <time>2022-06-27T14:33:39Z</time>
      </trkpt>
      <trkpt lat="42.3720120" lon="-3.8638540">
        <ele>884.4</ele>
        <time>2022-06-27T14:33:40Z</time>
      </trkpt>
      <trkpt lat="42.3720020" lon="-3.8639600">
        <ele>884.4</ele>
        <time>2022-06-27T14:33:41Z</time>
      </trkpt>
      <trkpt lat="42.3719910" lon="-3.8640660">
        <ele>884.6</ele>
        <time>2022-06-27T14:33:42Z</time>
      </trkpt>
      <trkpt lat="42.3719790" lon="-3.8641920">
        <ele>884.8</ele>
        <time>2022-06-27T14:33:43Z</time>
      </trkpt>
      <trkpt lat="42.3719700" lon="-3.8642750">
        <ele>885.0</ele>
        <time>2022-06-27T14:33:44Z</time>
      </trkpt>
      <trkpt lat="42.3719600" lon="-3.8643780">
        <ele>885.2</ele>
        <time>2022-06-27T14:33:45Z</time>
      </trkpt>
      <trkpt lat="42.3719510" lon="-3.8644810">
        <ele>885.2</ele>
        <time>2022-06-27T14:33:46Z</time>
      </trkpt>
      <trkpt lat="42.3719420" lon="-3.8645840">
        <ele>885.4</ele>
        <time>2022-06-27T14:33:47Z</time>
      </trkpt>
      <trkpt lat="42.3719330" lon="-3.8646860">
        <ele>885.4</ele>
        <time>2022-06-27T14:33:48Z</time>
      </trkpt>
      <trkpt lat="42.3719220" lon="-3.8647870">
        <ele>885.6</ele>
        <time>2022-06-27T14:33:49Z</time>
      </trkpt>
      <trkpt lat="42.3719100" lon="-3.8648870">
        <ele>885.8</ele>
        <time>2022-06-27T14:33:50Z</time>
      </trkpt>
      <trkpt lat="42.3719000" lon="-3.8649870">
        <ele>886.0</ele>
        <time>2022-06-27T14:33:51Z</time>
      </trkpt>
      <trkpt lat="42.3718890" lon="-3.8650850">
        <ele>886.2</ele>
        <time>2022-06-27T14:33:52Z</time>
      </trkpt>
      <trkpt lat="42.3718790" lon="-3.8651840">
        <ele>886.2</ele>
        <time>2022-06-27T14:33:53Z</time>
      </trkpt>
      <trkpt lat="42.3718680" lon="-3.8652820">
        <ele>886.4</ele>
        <time>2022-06-27T14:33:54Z</time>
      </trkpt>
      <trkpt lat="42.3718560" lon="-3.8653790">
        <ele>886.6</ele>
        <time>2022-06-27T14:33:55Z</time>
      </trkpt>
      <trkpt lat="42.3718460" lon="-3.8654770">
        <ele>886.8</ele>
        <time>2022-06-27T14:33:56Z</time>
      </trkpt>
      <trkpt lat="42.3718350" lon="-3.8655740">
        <ele>887.0</ele>
        <time>2022-06-27T14:33:57Z</time>
      </trkpt>
      <trkpt lat="42.3718230" lon="-3.8656710">
        <ele>887.2</ele>
        <time>2022-06-27T14:33:58Z</time>
      </trkpt>
      <trkpt lat="42.3718130" lon="-3.8657690">
        <ele>887.4</ele>
        <time>2022-06-27T14:33:59Z</time>
      </trkpt>
      <trkpt lat="42.3718030" lon="-3.8658650">
        <ele>887.6</ele>
        <time>2022-06-27T14:34:00Z</time>
      </trkpt>
      <trkpt lat="42.3717940" lon="-3.8659630">
        <ele>887.8</ele>
        <time>2022-06-27T14:34:01Z</time>
      </trkpt>
      <trkpt lat="42.3717850" lon="-3.8660590">
        <ele>888.0</ele>
        <time>2022-06-27T14:34:02Z</time>
      </trkpt>
      <trkpt lat="42.3717740" lon="-3.8661550">
        <ele>888.2</ele>
        <time>2022-06-27T14:34:03Z</time>
      </trkpt>
      <trkpt lat="42.3717630" lon="-3.8662520">
        <ele>888.4</ele>
        <time>2022-06-27T14:34:04Z</time>
      </trkpt>
      <trkpt lat="42.3717530" lon="-3.8663500">
        <ele>888.6</ele>
        <time>2022-06-27T14:34:05Z</time>
      </trkpt>
      <trkpt lat="42.3717420" lon="-3.8664460">
        <ele>888.8</ele>
        <time>2022-06-27T14:34:06Z</time>
      </trkpt>
      <trkpt lat="42.3717310" lon="-3.8665440">
        <ele>889.0</ele>
        <time>2022-06-27T14:34:07Z</time>
      </trkpt>
      <trkpt lat="42.3717200" lon="-3.8666390">
        <ele>889.0</ele>
        <time>2022-06-27T14:34:08Z</time>
      </trkpt>
      <trkpt lat="42.3717080" lon="-3.8667350">
        <ele>889.0</ele>
        <time>2022-06-27T14:34:09Z</time>
      </trkpt>
      <trkpt lat="42.3716990" lon="-3.8668330">
        <ele>889.2</ele>
        <time>2022-06-27T14:34:10Z</time>
      </trkpt>
      <trkpt lat="42.3716890" lon="-3.8669320">
        <ele>889.4</ele>
        <time>2022-06-27T14:34:11Z</time>
      </trkpt>
      <trkpt lat="42.3716790" lon="-3.8670320">
        <ele>889.4</ele>
        <time>2022-06-27T14:34:12Z</time>
      </trkpt>
      <trkpt lat="42.3716690" lon="-3.8671300">
        <ele>889.8</ele>
        <time>2022-06-27T14:34:13Z</time>
      </trkpt>
      <trkpt lat="42.3716590" lon="-3.8672280">
        <ele>889.8</ele>
        <time>2022-06-27T14:34:14Z</time>
      </trkpt>
      <trkpt lat="42.3716490" lon="-3.8673270">
        <ele>890.2</ele>
        <time>2022-06-27T14:34:15Z</time>
      </trkpt>
      <trkpt lat="42.3716400" lon="-3.8674260">
        <ele>890.2</ele>
        <time>2022-06-27T14:34:16Z</time>
      </trkpt>
      <trkpt lat="42.3716300" lon="-3.8675260">
        <ele>890.4</ele>
        <time>2022-06-27T14:34:17Z</time>
      </trkpt>
      <trkpt lat="42.3716200" lon="-3.8676240">
        <ele>890.6</ele>
        <time>2022-06-27T14:34:18Z</time>
      </trkpt>
      <trkpt lat="42.3716100" lon="-3.8677230">
        <ele>890.6</ele>
        <time>2022-06-27T14:34:19Z</time>
      </trkpt>
      <trkpt lat="42.3716010" lon="-3.8678230">
        <ele>890.8</ele>
        <time>2022-06-27T14:34:20Z</time>
      </trkpt>
      <trkpt lat="42.3715910" lon="-3.8679230">
        <ele>890.8</ele>
        <time>2022-06-27T14:34:21Z</time>
      </trkpt>
      <trkpt lat="42.3715780" lon="-3.8680210">
        <ele>890.8</ele>
        <time>2022-06-27T14:34:22Z</time>
      </trkpt>
      <trkpt lat="42.3715660" lon="-3.8681200">
        <ele>891.0</ele>
        <time>2022-06-27T14:34:23Z</time>
      </trkpt>
      <trkpt lat="42.3715550" lon="-3.8682170">
        <ele>891.2</ele>
        <time>2022-06-27T14:34:24Z</time>
      </trkpt>
      <trkpt lat="42.3715440" lon="-3.8683160">
        <ele>891.2</ele>
        <time>2022-06-27T14:34:25Z</time>
      </trkpt>
      <trkpt lat="42.3715320" lon="-3.8684160">
        <ele>891.4</ele>
        <time>2022-06-27T14:34:26Z</time>
      </trkpt>
      <trkpt lat="42.3715200" lon="-3.8685160">
        <ele>891.6</ele>
        <time>2022-06-27T14:34:27Z</time>
      </trkpt>
      <trkpt lat="42.3715090" lon="-3.8686180">
        <ele>891.6</ele>
        <time>2022-06-27T14:34:28Z</time>
      </trkpt>
      <trkpt lat="42.3715000" lon="-3.8687210">
        <ele>891.8</ele>
        <time>2022-06-27T14:34:29Z</time>
      </trkpt>
      <trkpt lat="42.3714890" lon="-3.8688220">
        <ele>891.8</ele>
        <time>2022-06-27T14:34:30Z</time>
      </trkpt>
      <trkpt lat="42.3714790" lon="-3.8689230">
        <ele>892.2</ele>
        <time>2022-06-27T14:34:31Z</time>
      </trkpt>
      <trkpt lat="42.3714690" lon="-3.8690240">
        <ele>892.2</ele>
        <time>2022-06-27T14:34:32Z</time>
      </trkpt>
      <trkpt lat="42.3714590" lon="-3.8691240">
        <ele>892.4</ele>
        <time>2022-06-27T14:34:33Z</time>
      </trkpt>
      <trkpt lat="42.3714490" lon="-3.8692240">
        <ele>892.6</ele>
        <time>2022-06-27T14:34:34Z</time>
      </trkpt>
      <trkpt lat="42.3714390" lon="-3.8693240">
        <ele>892.6</ele>
        <time>2022-06-27T14:34:35Z</time>
      </trkpt>
      <trkpt lat="42.3714290" lon="-3.8694240">
        <ele>892.6</ele>
        <time>2022-06-27T14:34:36Z</time>
      </trkpt>
      <trkpt lat="42.3714190" lon="-3.8695250">
        <ele>892.6</ele>
        <time>2022-06-27T14:34:37Z</time>
      </trkpt>
      <trkpt lat="42.3714100" lon="-3.8696240">
        <ele>892.8</ele>
        <time>2022-06-27T14:34:38Z</time>
      </trkpt>
      <trkpt lat="42.3714010" lon="-3.8697230">
        <ele>892.8</ele>
        <time>2022-06-27T14:34:39Z</time>
      </trkpt>
      <trkpt lat="42.3713930" lon="-3.8698220">
        <ele>893.0</ele>
        <time>2022-06-27T14:34:40Z</time>
      </trkpt>
      <trkpt lat="42.3713830" lon="-3.8699210">
        <ele>893.2</ele>
        <time>2022-06-27T14:34:41Z</time>
      </trkpt>
      <trkpt lat="42.3713720" lon="-3.8700190">
        <ele>893.4</ele>
        <time>2022-06-27T14:34:42Z</time>
      </trkpt>
      <trkpt lat="42.3713600" lon="-3.8701170">
        <ele>893.4</ele>
        <time>2022-06-27T14:34:43Z</time>
      </trkpt>
      <trkpt lat="42.3713500" lon="-3.8702140">
        <ele>893.6</ele>
        <time>2022-06-27T14:34:44Z</time>
      </trkpt>
      <trkpt lat="42.3713400" lon="-3.8703080">
        <ele>893.8</ele>
        <time>2022-06-27T14:34:45Z</time>
      </trkpt>
      <trkpt lat="42.3713320" lon="-3.8704000">
        <ele>894.0</ele>
        <time>2022-06-27T14:34:46Z</time>
      </trkpt>
      <trkpt lat="42.3713230" lon="-3.8704910">
        <ele>894.4</ele>
        <time>2022-06-27T14:34:47Z</time>
      </trkpt>
      <trkpt lat="42.3713150" lon="-3.8705800">
        <ele>894.8</ele>
        <time>2022-06-27T14:34:48Z</time>
      </trkpt>
      <trkpt lat="42.3713080" lon="-3.8706690">
        <ele>895.0</ele>
        <time>2022-06-27T14:34:49Z</time>
      </trkpt>
      <trkpt lat="42.3713010" lon="-3.8707580">
        <ele>895.0</ele>
        <time>2022-06-27T14:34:50Z</time>
      </trkpt>
      <trkpt lat="42.3712940" lon="-3.8708460">
        <ele>895.2</ele>
        <time>2022-06-27T14:34:51Z</time>
      </trkpt>
      <trkpt lat="42.3712870" lon="-3.8709330">
        <ele>895.6</ele>
        <time>2022-06-27T14:34:52Z</time>
      </trkpt>
      <trkpt lat="42.3712820" lon="-3.8710190">
        <ele>896.0</ele>
        <time>2022-06-27T14:34:53Z</time>
      </trkpt>
      <trkpt lat="42.3712790" lon="-3.8711030">
        <ele>896.2</ele>
        <time>2022-06-27T14:34:54Z</time>
      </trkpt>
      <trkpt lat="42.3712760" lon="-3.8711840">
        <ele>896.4</ele>
        <time>2022-06-27T14:34:55Z</time>
      </trkpt>
      <trkpt lat="42.3712750" lon="-3.8712640">
        <ele>896.4</ele>
        <time>2022-06-27T14:34:56Z</time>
      </trkpt>
      <trkpt lat="42.3712750" lon="-3.8713430">
        <ele>897.2</ele>
        <time>2022-06-27T14:34:57Z</time>
      </trkpt>
      <trkpt lat="42.3712760" lon="-3.8714220">
        <ele>897.6</ele>
        <time>2022-06-27T14:34:58Z</time>
      </trkpt>
      <trkpt lat="42.3712780" lon="-3.8714970">
        <ele>898.0</ele>
        <time>2022-06-27T14:34:59Z</time>
      </trkpt>
      <trkpt lat="42.3712790" lon="-3.8715710">
        <ele>898.2</ele>
        <time>2022-06-27T14:35:00Z</time>
      </trkpt>
      <trkpt lat="42.3712820" lon="-3.8716460">
        <ele>898.6</ele>
        <time>2022-06-27T14:35:01Z</time>
      </trkpt>
      <trkpt lat="42.3712860" lon="-3.8717230">
        <ele>899.0</ele>
        <time>2022-06-27T14:35:02Z</time>
      </trkpt>
      <trkpt lat="42.3712900" lon="-3.8718010">
        <ele>899.4</ele>
        <time>2022-06-27T14:35:03Z</time>
      </trkpt>
      <trkpt lat="42.3712940" lon="-3.8718790">
        <ele>899.6</ele>
        <time>2022-06-27T14:35:04Z</time>
      </trkpt>
      <trkpt lat="42.3712980" lon="-3.8719570">
        <ele>899.8</ele>
        <time>2022-06-27T14:35:05Z</time>
      </trkpt>
      <trkpt lat="42.3713030" lon="-3.8720330">
        <ele>900.0</ele>
        <time>2022-06-27T14:35:06Z</time>
      </trkpt>
      <trkpt lat="42.3713090" lon="-3.8721230">
        <ele>900.2</ele>
        <time>2022-06-27T14:35:07Z</time>
      </trkpt>
      <trkpt lat="42.3713140" lon="-3.8721830">
        <ele>900.4</ele>
        <time>2022-06-27T14:35:08Z</time>
      </trkpt>
      <trkpt lat="42.3713210" lon="-3.8722590">
        <ele>900.6</ele>
        <time>2022-06-27T14:35:09Z</time>
      </trkpt>
      <trkpt lat="42.3713280" lon="-3.8723330">
        <ele>900.8</ele>
        <time>2022-06-27T14:35:10Z</time>
      </trkpt>
      <trkpt lat="42.3713350" lon="-3.8724040">
        <ele>901.2</ele>
        <time>2022-06-27T14:35:11Z</time>
      </trkpt>
      <trkpt lat="42.3713430" lon="-3.8724760">
        <ele>901.2</ele>
        <time>2022-06-27T14:35:12Z</time>
      </trkpt>
      <trkpt lat="42.3713510" lon="-3.8725480">
        <ele>901.6</ele>
        <time>2022-06-27T14:35:13Z</time>
      </trkpt>
      <trkpt lat="42.3713580" lon="-3.8726180">
        <ele>901.6</ele>
        <time>2022-06-27T14:35:14Z</time>
      </trkpt>
      <trkpt lat="42.3713670" lon="-3.8726890">
        <ele>902.0</ele>
        <time>2022-06-27T14:35:15Z</time>
      </trkpt>
      <trkpt lat="42.3713780" lon="-3.8727600">
        <ele>902.2</ele>
        <time>2022-06-27T14:35:16Z</time>
      </trkpt>
      <trkpt lat="42.3713860" lon="-3.8728290">
        <ele>902.2</ele>
        <time>2022-06-27T14:35:17Z</time>
      </trkpt>
      <trkpt lat="42.3713960" lon="-3.8728950">
        <ele>902.2</ele>
        <time>2022-06-27T14:35:18Z</time>
      </trkpt>
      <trkpt lat="42.3714040" lon="-3.8729590">
        <ele>902.4</ele>
        <time>2022-06-27T14:35:19Z</time>
      </trkpt>
      <trkpt lat="42.3714120" lon="-3.8730210">
        <ele>902.4</ele>
        <time>2022-06-27T14:35:20Z</time>
      </trkpt>
      <trkpt lat="42.3714240" lon="-3.8730940">
        <ele>902.6</ele>
        <time>2022-06-27T14:35:21Z</time>
      </trkpt>
      <trkpt lat="42.3714320" lon="-3.8731430">
        <ele>902.8</ele>
        <time>2022-06-27T14:35:22Z</time>
      </trkpt>
      <trkpt lat="42.3714400" lon="-3.8732040">
        <ele>903.0</ele>
        <time>2022-06-27T14:35:23Z</time>
      </trkpt>
      <trkpt lat="42.3714490" lon="-3.8732640">
        <ele>903.2</ele>
        <time>2022-06-27T14:35:24Z</time>
      </trkpt>
      <trkpt lat="42.3714570" lon="-3.8733230">
        <ele>903.4</ele>
        <time>2022-06-27T14:35:25Z</time>
      </trkpt>
      <trkpt lat="42.3714650" lon="-3.8733810">
        <ele>903.4</ele>
        <time>2022-06-27T14:35:26Z</time>
      </trkpt>
      <trkpt lat="42.3714720" lon="-3.8734400">
        <ele>903.6</ele>
        <time>2022-06-27T14:35:27Z</time>
      </trkpt>
      <trkpt lat="42.3714810" lon="-3.8735000">
        <ele>903.6</ele>
        <time>2022-06-27T14:35:28Z</time>
      </trkpt>
      <trkpt lat="42.3714930" lon="-3.8735580">
        <ele>904.0</ele>
        <time>2022-06-27T14:35:29Z</time>
      </trkpt>
      <trkpt lat="42.3715060" lon="-3.8736140">
        <ele>904.6</ele>
        <time>2022-06-27T14:35:30Z</time>
      </trkpt>
      <trkpt lat="42.3715180" lon="-3.8736680">
        <ele>904.8</ele>
        <time>2022-06-27T14:35:31Z</time>
      </trkpt>
      <trkpt lat="42.3715310" lon="-3.8737190">
        <ele>905.0</ele>
        <time>2022-06-27T14:35:32Z</time>
      </trkpt>
      <trkpt lat="42.3715420" lon="-3.8737720">
        <ele>905.2</ele>
        <time>2022-06-27T14:35:33Z</time>
      </trkpt>
      <trkpt lat="42.3715520" lon="-3.8738280">
        <ele>905.4</ele>
        <time>2022-06-27T14:35:34Z</time>
      </trkpt>
      <trkpt lat="42.3715620" lon="-3.8738830">
        <ele>905.4</ele>
        <time>2022-06-27T14:35:35Z</time>
      </trkpt>
      <trkpt lat="42.3715710" lon="-3.8739370">
        <ele>905.8</ele>
        <time>2022-06-27T14:35:36Z</time>
      </trkpt>
      <trkpt lat="42.3715800" lon="-3.8739900">
        <ele>906.2</ele>
        <time>2022-06-27T14:35:37Z</time>
      </trkpt>
      <trkpt lat="42.3715900" lon="-3.8740420">
        <ele>906.4</ele>
        <time>2022-06-27T14:35:38Z</time>
      </trkpt>
      <trkpt lat="42.3716000" lon="-3.8740950">
        <ele>906.8</ele>
        <time>2022-06-27T14:35:39Z</time>
      </trkpt>
      <trkpt lat="42.3716100" lon="-3.8741510">
        <ele>907.0</ele>
        <time>2022-06-27T14:35:40Z</time>
      </trkpt>
      <trkpt lat="42.3716180" lon="-3.8742070">
        <ele>907.4</ele>
        <time>2022-06-27T14:35:41Z</time>
      </trkpt>
      <trkpt lat="42.3716290" lon="-3.8742650">
        <ele>907.6</ele>
        <time>2022-06-27T14:35:42Z</time>
      </trkpt>
      <trkpt lat="42.3716380" lon="-3.8743240">
        <ele>907.8</ele>
        <time>2022-06-27T14:35:43Z</time>
      </trkpt>
      <trkpt lat="42.3716450" lon="-3.8743820">
        <ele>908.4</ele>
        <time>2022-06-27T14:35:44Z</time>
      </trkpt>
      <trkpt lat="42.3716530" lon="-3.8744420">
        <ele>908.6</ele>
        <time>2022-06-27T14:35:45Z</time>
      </trkpt>
      <trkpt lat="42.3716610" lon="-3.8745010">
        <ele>908.8</ele>
        <time>2022-06-27T14:35:46Z</time>
      </trkpt>
      <trkpt lat="42.3716680" lon="-3.8745580">
        <ele>909.0</ele>
        <time>2022-06-27T14:35:47Z</time>
      </trkpt>
      <trkpt lat="42.3716740" lon="-3.8746150">
        <ele>909.2</ele>
        <time>2022-06-27T14:35:48Z</time>
      </trkpt>
      <trkpt lat="42.3716800" lon="-3.8746840">
        <ele>909.4</ele>
        <time>2022-06-27T14:35:49Z</time>
      </trkpt>
      <trkpt lat="42.3716850" lon="-3.8747310">
        <ele>910.0</ele>
        <time>2022-06-27T14:35:50Z</time>
      </trkpt>
      <trkpt lat="42.3716920" lon="-3.8747890">
        <ele>910.2</ele>
        <time>2022-06-27T14:35:51Z</time>
      </trkpt>
      <trkpt lat="42.3716990" lon="-3.8748490">
        <ele>910.4</ele>
        <time>2022-06-27T14:35:52Z</time>
      </trkpt>
      <trkpt lat="42.3717050" lon="-3.8749100">
        <ele>910.6</ele>
        <time>2022-06-27T14:35:53Z</time>
      </trkpt>
      <trkpt lat="42.3717080" lon="-3.8749700">
        <ele>910.8</ele>
        <time>2022-06-27T14:35:54Z</time>
      </trkpt>
      <trkpt lat="42.3717120" lon="-3.8750300">
        <ele>911.0</ele>
        <time>2022-06-27T14:35:55Z</time>
      </trkpt>
      <trkpt lat="42.3717170" lon="-3.8750920">
        <ele>911.2</ele>
        <time>2022-06-27T14:35:56Z</time>
      </trkpt>
      <trkpt lat="42.3717210" lon="-3.8751530">
        <ele>911.4</ele>
        <time>2022-06-27T14:35:57Z</time>
      </trkpt>
      <trkpt lat="42.3717250" lon="-3.8752130">
        <ele>911.6</ele>
        <time>2022-06-27T14:35:58Z</time>
      </trkpt>
      <trkpt lat="42.3717280" lon="-3.8752740">
        <ele>911.8</ele>
        <time>2022-06-27T14:35:59Z</time>
      </trkpt>
      <trkpt lat="42.3717300" lon="-3.8753340">
        <ele>912.2</ele>
        <time>2022-06-27T14:36:00Z</time>
      </trkpt>
      <trkpt lat="42.3717320" lon="-3.8753930">
        <ele>912.4</ele>
        <time>2022-06-27T14:36:01Z</time>
      </trkpt>
      <trkpt lat="42.3717310" lon="-3.8754500">
        <ele>912.8</ele>
        <time>2022-06-27T14:36:02Z</time>
      </trkpt>
      <trkpt lat="42.3717310" lon="-3.8755070">
        <ele>913.0</ele>
        <time>2022-06-27T14:36:03Z</time>
      </trkpt>
      <trkpt lat="42.3717300" lon="-3.8755650">
        <ele>913.2</ele>
        <time>2022-06-27T14:36:04Z</time>
      </trkpt>
      <trkpt lat="42.3717290" lon="-3.8756250">
        <ele>913.6</ele>
        <time>2022-06-27T14:36:05Z</time>
      </trkpt>
      <trkpt lat="42.3717280" lon="-3.8756840">
        <ele>913.8</ele>
        <time>2022-06-27T14:36:06Z</time>
      </trkpt>
      <trkpt lat="42.3717290" lon="-3.8757410">
        <ele>914.2</ele>
        <time>2022-06-27T14:36:07Z</time>
      </trkpt>
      <trkpt lat="42.3717290" lon="-3.8757990">
        <ele>914.4</ele>
        <time>2022-06-27T14:36:08Z</time>
      </trkpt>
      <trkpt lat="42.3717290" lon="-3.8758580">
        <ele>914.8</ele>
        <time>2022-06-27T14:36:09Z</time>
      </trkpt>
      <trkpt lat="42.3717290" lon="-3.8759180">
        <ele>915.0</ele>
        <time>2022-06-27T14:36:10Z</time>
      </trkpt>
      <trkpt lat="42.3717270" lon="-3.8759770">
        <ele>915.4</ele>
        <time>2022-06-27T14:36:11Z</time>
      </trkpt>
      <trkpt lat="42.3717250" lon="-3.8760340">
        <ele>915.6</ele>
        <time>2022-06-27T14:36:12Z</time>
      </trkpt>
      <trkpt lat="42.3717220" lon="-3.8760920">
        <ele>915.8</ele>
        <time>2022-06-27T14:36:13Z</time>
      </trkpt>
      <trkpt lat="42.3717180" lon="-3.8761500">
        <ele>916.2</ele>
        <time>2022-06-27T14:36:14Z</time>
      </trkpt>
      <trkpt lat="42.3717140" lon="-3.8762090">
        <ele>916.4</ele>
        <time>2022-06-27T14:36:15Z</time>
      </trkpt>
      <trkpt lat="42.3717100" lon="-3.8762690">
        <ele>917.0</ele>
        <time>2022-06-27T14:36:16Z</time>
      </trkpt>
      <trkpt lat="42.3717050" lon="-3.8763290">
        <ele>917.0</ele>
        <time>2022-06-27T14:36:17Z</time>
      </trkpt>
      <trkpt lat="42.3717000" lon="-3.8763910">
        <ele>917.2</ele>
        <time>2022-06-27T14:36:18Z</time>
      </trkpt>
      <trkpt lat="42.3716950" lon="-3.8764550">
        <ele>917.4</ele>
        <time>2022-06-27T14:36:19Z</time>
      </trkpt>
      <trkpt lat="42.3716900" lon="-3.8765190">
        <ele>917.8</ele>
        <time>2022-06-27T14:36:20Z</time>
      </trkpt>
      <trkpt lat="42.3716840" lon="-3.8765830">
        <ele>918.2</ele>
        <time>2022-06-27T14:36:21Z</time>
      </trkpt>
      <trkpt lat="42.3716780" lon="-3.8766490">
        <ele>918.2</ele>
        <time>2022-06-27T14:36:22Z</time>
      </trkpt>
      <trkpt lat="42.3716750" lon="-3.8767150">
        <ele>918.6</ele>
        <time>2022-06-27T14:36:23Z</time>
      </trkpt>
      <trkpt lat="42.3716710" lon="-3.8767820">
        <ele>918.8</ele>
        <time>2022-06-27T14:36:24Z</time>
      </trkpt>
      <trkpt lat="42.3716670" lon="-3.8768500">
        <ele>919.0</ele>
        <time>2022-06-27T14:36:25Z</time>
      </trkpt>
      <trkpt lat="42.3716600" lon="-3.8769200">
        <ele>919.0</ele>
        <time>2022-06-27T14:36:26Z</time>
      </trkpt>
      <trkpt lat="42.3716530" lon="-3.8769920">
        <ele>919.4</ele>
        <time>2022-06-27T14:36:27Z</time>
      </trkpt>
      <trkpt lat="42.3716440" lon="-3.8770660">
        <ele>919.6</ele>
        <time>2022-06-27T14:36:28Z</time>
      </trkpt>
      <trkpt lat="42.3716360" lon="-3.8771410">
        <ele>919.6</ele>
        <time>2022-06-27T14:36:29Z</time>
      </trkpt>
      <trkpt lat="42.3716280" lon="-3.8772170">
        <ele>920.0</ele>
        <time>2022-06-27T14:36:30Z</time>
      </trkpt>
      <trkpt lat="42.3716220" lon="-3.8772950">
        <ele>920.2</ele>
        <time>2022-06-27T14:36:31Z</time>
      </trkpt>
      <trkpt lat="42.3716150" lon="-3.8773750">
        <ele>920.4</ele>
        <time>2022-06-27T14:36:32Z</time>
      </trkpt>
      <trkpt lat="42.3716050" lon="-3.8774560">
        <ele>920.4</ele>
        <time>2022-06-27T14:36:33Z</time>
      </trkpt>
      <trkpt lat="42.3715960" lon="-3.8775380">
        <ele>920.6</ele>
        <time>2022-06-27T14:36:34Z</time>
      </trkpt>
      <trkpt lat="42.3715880" lon="-3.8776210">
        <ele>920.8</ele>
        <time>2022-06-27T14:36:35Z</time>
      </trkpt>
      <trkpt lat="42.3715820" lon="-3.8777050">
        <ele>920.8</ele>
        <time>2022-06-27T14:36:36Z</time>
      </trkpt>
      <trkpt lat="42.3715740" lon="-3.8777880">
        <ele>921.2</ele>
        <time>2022-06-27T14:36:37Z</time>
      </trkpt>
      <trkpt lat="42.3715650" lon="-3.8778710">
        <ele>921.4</ele>
        <time>2022-06-27T14:36:38Z</time>
      </trkpt>
      <trkpt lat="42.3715570" lon="-3.8779540">
        <ele>921.6</ele>
        <time>2022-06-27T14:36:39Z</time>
      </trkpt>
      <trkpt lat="42.3715480" lon="-3.8780380">
        <ele>921.6</ele>
        <time>2022-06-27T14:36:40Z</time>
      </trkpt>
      <trkpt lat="42.3715420" lon="-3.8781210">
        <ele>921.8</ele>
        <time>2022-06-27T14:36:41Z</time>
      </trkpt>
      <trkpt lat="42.3715360" lon="-3.8782040">
        <ele>922.0</ele>
        <time>2022-06-27T14:36:42Z</time>
      </trkpt>
      <trkpt lat="42.3715300" lon="-3.8782870">
        <ele>922.2</ele>
        <time>2022-06-27T14:36:43Z</time>
      </trkpt>
      <trkpt lat="42.3715230" lon="-3.8783710">
        <ele>922.4</ele>
        <time>2022-06-27T14:36:44Z</time>
      </trkpt>
      <trkpt lat="42.3715160" lon="-3.8784560">
        <ele>922.4</ele>
        <time>2022-06-27T14:36:45Z</time>
      </trkpt>
      <trkpt lat="42.3715080" lon="-3.8785400">
        <ele>922.6</ele>
        <time>2022-06-27T14:36:46Z</time>
      </trkpt>
      <trkpt lat="42.3715020" lon="-3.8786240">
        <ele>922.6</ele>
        <time>2022-06-27T14:36:47Z</time>
      </trkpt>
      <trkpt lat="42.3714940" lon="-3.8787080">
        <ele>923.0</ele>
        <time>2022-06-27T14:36:48Z</time>
      </trkpt>
      <trkpt lat="42.3714860" lon="-3.8787930">
        <ele>923.2</ele>
        <time>2022-06-27T14:36:49Z</time>
      </trkpt>
      <trkpt lat="42.3714780" lon="-3.8788750">
        <ele>923.4</ele>
        <time>2022-06-27T14:36:50Z</time>
      </trkpt>
      <trkpt lat="42.3714720" lon="-3.8789600">
        <ele>923.6</ele>
        <time>2022-06-27T14:36:51Z</time>
      </trkpt>
      <trkpt lat="42.3714650" lon="-3.8790430">
        <ele>923.6</ele>
        <time>2022-06-27T14:36:52Z</time>
      </trkpt>
      <trkpt lat="42.3714580" lon="-3.8791270">
        <ele>923.8</ele>
        <time>2022-06-27T14:36:53Z</time>
      </trkpt>
      <trkpt lat="42.3714490" lon="-3.8792110">
        <ele>924.0</ele>
        <time>2022-06-27T14:36:54Z</time>
      </trkpt>
      <trkpt lat="42.3714410" lon="-3.8792950">
        <ele>924.2</ele>
        <time>2022-06-27T14:36:55Z</time>
      </trkpt>
      <trkpt lat="42.3714330" lon="-3.8793790">
        <ele>924.6</ele>
        <time>2022-06-27T14:36:56Z</time>
      </trkpt>
      <trkpt lat="42.3714250" lon="-3.8794630">
        <ele>924.6</ele>
        <time>2022-06-27T14:36:57Z</time>
      </trkpt>
      <trkpt lat="42.3714170" lon="-3.8795490">
        <ele>925.0</ele>
        <time>2022-06-27T14:36:58Z</time>
      </trkpt>
      <trkpt lat="42.3714070" lon="-3.8796510">
        <ele>925.2</ele>
        <time>2022-06-27T14:36:59Z</time>
      </trkpt>
      <trkpt lat="42.3714010" lon="-3.8797190">
        <ele>925.6</ele>
        <time>2022-06-27T14:37:00Z</time>
      </trkpt>
      <trkpt lat="42.3713920" lon="-3.8798030">
        <ele>926.0</ele>
        <time>2022-06-27T14:37:01Z</time>
      </trkpt>
      <trkpt lat="42.3713820" lon="-3.8798880">
        <ele>926.2</ele>
        <time>2022-06-27T14:37:02Z</time>
      </trkpt>
      <trkpt lat="42.3713760" lon="-3.8799730">
        <ele>926.4</ele>
        <time>2022-06-27T14:37:03Z</time>
      </trkpt>
      <trkpt lat="42.3713690" lon="-3.8800580">
        <ele>926.4</ele>
        <time>2022-06-27T14:37:04Z</time>
      </trkpt>
      <trkpt lat="42.3713620" lon="-3.8801420">
        <ele>926.6</ele>
        <time>2022-06-27T14:37:05Z</time>
      </trkpt>
      <trkpt lat="42.3713530" lon="-3.8802260">
        <ele>926.8</ele>
        <time>2022-06-27T14:37:06Z</time>
      </trkpt>
      <trkpt lat="42.3713480" lon="-3.8803120">
        <ele>926.8</ele>
        <time>2022-06-27T14:37:07Z</time>
      </trkpt>
      <trkpt lat="42.3713400" lon="-3.8803980">
        <ele>927.0</ele>
        <time>2022-06-27T14:37:08Z</time>
      </trkpt>
      <trkpt lat="42.3713310" lon="-3.8804830">
        <ele>927.0</ele>
        <time>2022-06-27T14:37:09Z</time>
      </trkpt>
      <trkpt lat="42.3713230" lon="-3.8805690">
        <ele>927.2</ele>
        <time>2022-06-27T14:37:10Z</time>
      </trkpt>
      <trkpt lat="42.3713160" lon="-3.8806550">
        <ele>927.4</ele>
        <time>2022-06-27T14:37:11Z</time>
      </trkpt>
      <trkpt lat="42.3713080" lon="-3.8807420">
        <ele>927.6</ele>
        <time>2022-06-27T14:37:12Z</time>
      </trkpt>
      <trkpt lat="42.3712980" lon="-3.8808460">
        <ele>927.8</ele>
        <time>2022-06-27T14:37:13Z</time>
      </trkpt>
      <trkpt lat="42.3712900" lon="-3.8809160">
        <ele>928.2</ele>
        <time>2022-06-27T14:37:14Z</time>
      </trkpt>
      <trkpt lat="42.3712820" lon="-3.8810020">
        <ele>928.2</ele>
        <time>2022-06-27T14:37:15Z</time>
      </trkpt>
      <trkpt lat="42.3712730" lon="-3.8810890">
        <ele>928.4</ele>
        <time>2022-06-27T14:37:16Z</time>
      </trkpt>
      <trkpt lat="42.3712630" lon="-3.8811770">
        <ele>928.6</ele>
        <time>2022-06-27T14:37:17Z</time>
      </trkpt>
      <trkpt lat="42.3712530" lon="-3.8812630">
        <ele>928.8</ele>
        <time>2022-06-27T14:37:18Z</time>
      </trkpt>
      <trkpt lat="42.3712430" lon="-3.8813500">
        <ele>929.0</ele>
        <time>2022-06-27T14:37:19Z</time>
      </trkpt>
      <trkpt lat="42.3712350" lon="-3.8814380">
        <ele>929.0</ele>
        <time>2022-06-27T14:37:20Z</time>
      </trkpt>
      <trkpt lat="42.3712270" lon="-3.8815250">
        <ele>929.2</ele>
        <time>2022-06-27T14:37:21Z</time>
      </trkpt>
      <trkpt lat="42.3712180" lon="-3.8816300">
        <ele>929.6</ele>
        <time>2022-06-27T14:37:22Z</time>
      </trkpt>
      <trkpt lat="42.3712130" lon="-3.8817000">
        <ele>929.8</ele>
        <time>2022-06-27T14:37:23Z</time>
      </trkpt>
      <trkpt lat="42.3712050" lon="-3.8817870">
        <ele>930.0</ele>
        <time>2022-06-27T14:37:24Z</time>
      </trkpt>
      <trkpt lat="42.3711970" lon="-3.8818750">
        <ele>930.2</ele>
        <time>2022-06-27T14:37:25Z</time>
      </trkpt>
      <trkpt lat="42.3711900" lon="-3.8819630">
        <ele>930.2</ele>
        <time>2022-06-27T14:37:26Z</time>
      </trkpt>
      <trkpt lat="42.3711820" lon="-3.8820510">
        <ele>930.4</ele>
        <time>2022-06-27T14:37:27Z</time>
      </trkpt>
      <trkpt lat="42.3711740" lon="-3.8821420">
        <ele>930.6</ele>
        <time>2022-06-27T14:37:28Z</time>
      </trkpt>
      <trkpt lat="42.3711650" lon="-3.8822350">
        <ele>930.8</ele>
        <time>2022-06-27T14:37:29Z</time>
      </trkpt>
      <trkpt lat="42.3711550" lon="-3.8823300">
        <ele>931.0</ele>
        <time>2022-06-27T14:37:30Z</time>
      </trkpt>
      <trkpt lat="42.3711450" lon="-3.8824290">
        <ele>931.2</ele>
        <time>2022-06-27T14:37:31Z</time>
      </trkpt>
      <trkpt lat="42.3711360" lon="-3.8825300">
        <ele>931.4</ele>
        <time>2022-06-27T14:37:32Z</time>
      </trkpt>
      <trkpt lat="42.3711260" lon="-3.8826350">
        <ele>931.4</ele>
        <time>2022-06-27T14:37:33Z</time>
      </trkpt>
      <trkpt lat="42.3711170" lon="-3.8827420">
        <ele>931.4</ele>
        <time>2022-06-27T14:37:34Z</time>
      </trkpt>
      <trkpt lat="42.3711060" lon="-3.8828510">
        <ele>931.8</ele>
        <time>2022-06-27T14:37:35Z</time>
      </trkpt>
      <trkpt lat="42.3710930" lon="-3.8829840">
        <ele>931.8</ele>
        <time>2022-06-27T14:37:36Z</time>
      </trkpt>
      <trkpt lat="42.3710840" lon="-3.8830740">
        <ele>931.8</ele>
        <time>2022-06-27T14:37:37Z</time>
      </trkpt>
      <trkpt lat="42.3710750" lon="-3.8831910">
        <ele>931.8</ele>
        <time>2022-06-27T14:37:38Z</time>
      </trkpt>
      <trkpt lat="42.3710660" lon="-3.8833110">
        <ele>931.8</ele>
        <time>2022-06-27T14:37:39Z</time>
      </trkpt>
      <trkpt lat="42.3710570" lon="-3.8834340">
        <ele>931.8</ele>
        <time>2022-06-27T14:37:40Z</time>
      </trkpt>
      <trkpt lat="42.3710450" lon="-3.8835600">
        <ele>931.8</ele>
        <time>2022-06-27T14:37:41Z</time>
      </trkpt>
      <trkpt lat="42.3710340" lon="-3.8836870">
        <ele>931.8</ele>
        <time>2022-06-27T14:37:42Z</time>
      </trkpt>
      <trkpt lat="42.3710220" lon="-3.8838160">
        <ele>931.8</ele>
        <time>2022-06-27T14:37:43Z</time>
      </trkpt>
      <trkpt lat="42.3710100" lon="-3.8839460">
        <ele>931.6</ele>
        <time>2022-06-27T14:37:44Z</time>
      </trkpt>
      <trkpt lat="42.3709960" lon="-3.8840780">
        <ele>931.4</ele>
        <time>2022-06-27T14:37:45Z</time>
      </trkpt>
      <trkpt lat="42.3709840" lon="-3.8842090">
        <ele>931.2</ele>
        <time>2022-06-27T14:37:46Z</time>
      </trkpt>
      <trkpt lat="42.3709730" lon="-3.8843440">
        <ele>931.0</ele>
        <time>2022-06-27T14:37:47Z</time>
      </trkpt>
      <trkpt lat="42.3709610" lon="-3.8844800">
        <ele>930.8</ele>
        <time>2022-06-27T14:37:48Z</time>
      </trkpt>
      <trkpt lat="42.3709500" lon="-3.8846170">
        <ele>930.6</ele>
        <time>2022-06-27T14:37:49Z</time>
      </trkpt>
      <trkpt lat="42.3709380" lon="-3.8847560">
        <ele>930.6</ele>
        <time>2022-06-27T14:37:50Z</time>
      </trkpt>
      <trkpt lat="42.3709240" lon="-3.8848960">
        <ele>930.4</ele>
        <time>2022-06-27T14:37:51Z</time>
      </trkpt>
      <trkpt lat="42.3709100" lon="-3.8850380">
        <ele>930.2</ele>
        <time>2022-06-27T14:37:52Z</time>
      </trkpt>
      <trkpt lat="42.3708970" lon="-3.8851780">
        <ele>930.2</ele>
        <time>2022-06-27T14:37:53Z</time>
      </trkpt>
      <trkpt lat="42.3708860" lon="-3.8853200">
        <ele>929.6</ele>
        <time>2022-06-27T14:37:54Z</time>
      </trkpt>
      <trkpt lat="42.3708740" lon="-3.8854620">
        <ele>929.4</ele>
        <time>2022-06-27T14:37:55Z</time>
      </trkpt>
      <trkpt lat="42.3708600" lon="-3.8856050">
        <ele>929.2</ele>
        <time>2022-06-27T14:37:56Z</time>
      </trkpt>
      <trkpt lat="42.3708470" lon="-3.8857500">
        <ele>929.2</ele>
        <time>2022-06-27T14:37:57Z</time>
      </trkpt>
      <trkpt lat="42.3708330" lon="-3.8858960">
        <ele>929.2</ele>
        <time>2022-06-27T14:37:58Z</time>
      </trkpt>
      <trkpt lat="42.3708220" lon="-3.8860440">
        <ele>929.0</ele>
        <time>2022-06-27T14:37:59Z</time>
      </trkpt>
      <trkpt lat="42.3708090" lon="-3.8861910">
        <ele>928.8</ele>
        <time>2022-06-27T14:38:00Z</time>
      </trkpt>
      <trkpt lat="42.3707980" lon="-3.8863390">
        <ele>928.4</ele>
        <time>2022-06-27T14:38:01Z</time>
      </trkpt>
      <trkpt lat="42.3707860" lon="-3.8864890">
        <ele>928.4</ele>
        <time>2022-06-27T14:38:02Z</time>
      </trkpt>
      <trkpt lat="42.3707760" lon="-3.8866410">
        <ele>928.2</ele>
        <time>2022-06-27T14:38:03Z</time>
      </trkpt>
      <trkpt lat="42.3707670" lon="-3.8867960">
        <ele>928.0</ele>
        <time>2022-06-27T14:38:04Z</time>
      </trkpt>
      <trkpt lat="42.3707630" lon="-3.8869570">
        <ele>927.6</ele>
        <time>2022-06-27T14:38:05Z</time>
      </trkpt>
      <trkpt lat="42.3707620" lon="-3.8871200">
        <ele>927.4</ele>
        <time>2022-06-27T14:38:06Z</time>
      </trkpt>
      <trkpt lat="42.3707650" lon="-3.8872850">
        <ele>927.2</ele>
        <time>2022-06-27T14:38:07Z</time>
      </trkpt>
      <trkpt lat="42.3707700" lon="-3.8874510">
        <ele>926.8</ele>
        <time>2022-06-27T14:38:08Z</time>
      </trkpt>
      <trkpt lat="42.3707790" lon="-3.8876200">
        <ele>926.6</ele>
        <time>2022-06-27T14:38:09Z</time>
      </trkpt>
      <trkpt lat="42.3707880" lon="-3.8877920">
        <ele>926.2</ele>
        <time>2022-06-27T14:38:10Z</time>
      </trkpt>
      <trkpt lat="42.3707990" lon="-3.8879660">
        <ele>925.8</ele>
        <time>2022-06-27T14:38:11Z</time>
      </trkpt>
      <trkpt lat="42.3708090" lon="-3.8881430">
        <ele>925.2</ele>
        <time>2022-06-27T14:38:12Z</time>
      </trkpt>
      <trkpt lat="42.3708200" lon="-3.8883200">
        <ele>925.0</ele>
        <time>2022-06-27T14:38:13Z</time>
      </trkpt>
      <trkpt lat="42.3708300" lon="-3.8885000">
        <ele>924.6</ele>
        <time>2022-06-27T14:38:14Z</time>
      </trkpt>
      <trkpt lat="42.3708380" lon="-3.8886820">
        <ele>924.4</ele>
        <time>2022-06-27T14:38:15Z</time>
      </trkpt>
      <trkpt lat="42.3708470" lon="-3.8888660">
        <ele>924.2</ele>
        <time>2022-06-27T14:38:16Z</time>
      </trkpt>
      <trkpt lat="42.3708550" lon="-3.8890500">
        <ele>923.8</ele>
        <time>2022-06-27T14:38:17Z</time>
      </trkpt>
      <trkpt lat="42.3708640" lon="-3.8892340">
        <ele>923.6</ele>
        <time>2022-06-27T14:38:18Z</time>
      </trkpt>
      <trkpt lat="42.3708750" lon="-3.8894190">
        <ele>923.0</ele>
        <time>2022-06-27T14:38:19Z</time>
      </trkpt>
      <trkpt lat="42.3708860" lon="-3.8896060">
        <ele>922.4</ele>
        <time>2022-06-27T14:38:20Z</time>
      </trkpt>
      <trkpt lat="42.3708980" lon="-3.8897910">
        <ele>921.2</ele>
        <time>2022-06-27T14:38:21Z</time>
      </trkpt>
      <trkpt lat="42.3709110" lon="-3.8899770">
        <ele>920.0</ele>
        <time>2022-06-27T14:38:22Z</time>
      </trkpt>
      <trkpt lat="42.3709210" lon="-3.8901600">
        <ele>919.6</ele>
        <time>2022-06-27T14:38:23Z</time>
      </trkpt>
      <trkpt lat="42.3709330" lon="-3.8903480">
        <ele>919.2</ele>
        <time>2022-06-27T14:38:24Z</time>
      </trkpt>
      <trkpt lat="42.3709430" lon="-3.8905330">
        <ele>919.0</ele>
        <time>2022-06-27T14:38:25Z</time>
      </trkpt>
      <trkpt lat="42.3709550" lon="-3.8907180">
        <ele>918.4</ele>
        <time>2022-06-27T14:38:26Z</time>
      </trkpt>
      <trkpt lat="42.3709680" lon="-3.8909010">
        <ele>918.4</ele>
        <time>2022-06-27T14:38:27Z</time>
      </trkpt>
      <trkpt lat="42.3709800" lon="-3.8910850">
        <ele>917.6</ele>
        <time>2022-06-27T14:38:28Z</time>
      </trkpt>
      <trkpt lat="42.3709940" lon="-3.8912690">
        <ele>917.0</ele>
        <time>2022-06-27T14:38:29Z</time>
      </trkpt>
      <trkpt lat="42.3710100" lon="-3.8914520">
        <ele>916.6</ele>
        <time>2022-06-27T14:38:30Z</time>
      </trkpt>
      <trkpt lat="42.3710260" lon="-3.8916360">
        <ele>916.2</ele>
        <time>2022-06-27T14:38:31Z</time>
      </trkpt>
      <trkpt lat="42.3710450" lon="-3.8918200">
        <ele>916.0</ele>
        <time>2022-06-27T14:38:32Z</time>
      </trkpt>
      <trkpt lat="42.3710670" lon="-3.8920010">
        <ele>915.6</ele>
        <time>2022-06-27T14:38:33Z</time>
      </trkpt>
      <trkpt lat="42.3710920" lon="-3.8921850">
        <ele>915.4</ele>
        <time>2022-06-27T14:38:34Z</time>
      </trkpt>
      <trkpt lat="42.3711230" lon="-3.8923680">
        <ele>914.6</ele>
        <time>2022-06-27T14:38:35Z</time>
      </trkpt>
      <trkpt lat="42.3711570" lon="-3.8925540">
        <ele>914.2</ele>
        <time>2022-06-27T14:38:36Z</time>
      </trkpt>
      <trkpt lat="42.3711940" lon="-3.8927390">
        <ele>913.8</ele>
        <time>2022-06-27T14:38:37Z</time>
      </trkpt>
      <trkpt lat="42.3712340" lon="-3.8929260">
        <ele>913.2</ele>
        <time>2022-06-27T14:38:38Z</time>
      </trkpt>
      <trkpt lat="42.3712800" lon="-3.8931100">
        <ele>912.8</ele>
        <time>2022-06-27T14:38:39Z</time>
      </trkpt>
      <trkpt lat="42.3713290" lon="-3.8932940">
        <ele>912.2</ele>
        <time>2022-06-27T14:38:40Z</time>
      </trkpt>
      <trkpt lat="42.3713830" lon="-3.8934760">
        <ele>912.0</ele>
        <time>2022-06-27T14:38:41Z</time>
      </trkpt>
      <trkpt lat="42.3714400" lon="-3.8936580">
        <ele>911.6</ele>
        <time>2022-06-27T14:38:42Z</time>
      </trkpt>
      <trkpt lat="42.3714990" lon="-3.8938410">
        <ele>911.2</ele>
        <time>2022-06-27T14:38:43Z</time>
      </trkpt>
      <trkpt lat="42.3715650" lon="-3.8940220">
        <ele>910.8</ele>
        <time>2022-06-27T14:38:44Z</time>
      </trkpt>
      <trkpt lat="42.3716360" lon="-3.8941990">
        <ele>910.2</ele>
        <time>2022-06-27T14:38:45Z</time>
      </trkpt>
      <trkpt lat="42.3717120" lon="-3.8943780">
        <ele>909.6</ele>
        <time>2022-06-27T14:38:46Z</time>
      </trkpt>
      <trkpt lat="42.3717900" lon="-3.8945550">
        <ele>908.8</ele>
        <time>2022-06-27T14:38:47Z</time>
      </trkpt>
      <trkpt lat="42.3718700" lon="-3.8947320">
        <ele>908.4</ele>
        <time>2022-06-27T14:38:48Z</time>
      </trkpt>
      <trkpt lat="42.3719540" lon="-3.8949050">
        <ele>907.6</ele>
        <time>2022-06-27T14:38:49Z</time>
      </trkpt>
      <trkpt lat="42.3720400" lon="-3.8950770">
        <ele>906.8</ele>
        <time>2022-06-27T14:38:50Z</time>
      </trkpt>
      <trkpt lat="42.3721290" lon="-3.8952470">
        <ele>906.2</ele>
        <time>2022-06-27T14:38:51Z</time>
      </trkpt>
      <trkpt lat="42.3722200" lon="-3.8954170">
        <ele>905.4</ele>
        <time>2022-06-27T14:38:52Z</time>
      </trkpt>
      <trkpt lat="42.3723100" lon="-3.8955860">
        <ele>904.8</ele>
        <time>2022-06-27T14:38:53Z</time>
      </trkpt>
      <trkpt lat="42.3724000" lon="-3.8957560">
        <ele>904.0</ele>
        <time>2022-06-27T14:38:54Z</time>
      </trkpt>
      <trkpt lat="42.3724880" lon="-3.8959270">
        <ele>903.6</ele>
        <time>2022-06-27T14:38:55Z</time>
      </trkpt>
      <trkpt lat="42.3725780" lon="-3.8960960">
        <ele>903.0</ele>
        <time>2022-06-27T14:38:56Z</time>
      </trkpt>
      <trkpt lat="42.3726690" lon="-3.8962650">
        <ele>902.2</ele>
        <time>2022-06-27T14:38:57Z</time>
      </trkpt>
      <trkpt lat="42.3727590" lon="-3.8964340">
        <ele>901.8</ele>
        <time>2022-06-27T14:38:58Z</time>
      </trkpt>
      <trkpt lat="42.3728470" lon="-3.8966050">
        <ele>901.2</ele>
        <time>2022-06-27T14:38:59Z</time>
      </trkpt>
      <trkpt lat="42.3729340" lon="-3.8967730">
        <ele>901.0</ele>
        <time>2022-06-27T14:39:00Z</time>
      </trkpt>
      <trkpt lat="42.3730210" lon="-3.8969400">
        <ele>900.4</ele>
        <time>2022-06-27T14:39:01Z</time>
      </trkpt>
      <trkpt lat="42.3731090" lon="-3.8971080">
        <ele>900.0</ele>
        <time>2022-06-27T14:39:02Z</time>
      </trkpt>
      <trkpt lat="42.3731950" lon="-3.8972740">
        <ele>899.6</ele>
        <time>2022-06-27T14:39:03Z</time>
      </trkpt>
      <trkpt lat="42.3732810" lon="-3.8974390">
        <ele>898.8</ele>
        <time>2022-06-27T14:39:04Z</time>
      </trkpt>
      <trkpt lat="42.3733620" lon="-3.8976020">
        <ele>898.6</ele>
        <time>2022-06-27T14:39:05Z</time>
      </trkpt>
      <trkpt lat="42.3734450" lon="-3.8977610">
        <ele>898.2</ele>
        <time>2022-06-27T14:39:06Z</time>
      </trkpt>
      <trkpt lat="42.3735270" lon="-3.8979190">
        <ele>898.0</ele>
        <time>2022-06-27T14:39:07Z</time>
      </trkpt>
      <trkpt lat="42.3736090" lon="-3.8980750">
        <ele>897.4</ele>
        <time>2022-06-27T14:39:08Z</time>
      </trkpt>
      <trkpt lat="42.3736910" lon="-3.8982330">
        <ele>897.0</ele>
        <time>2022-06-27T14:39:09Z</time>
      </trkpt>
      <trkpt lat="42.3737730" lon="-3.8983890">
        <ele>896.6</ele>
        <time>2022-06-27T14:39:10Z</time>
      </trkpt>
      <trkpt lat="42.3738520" lon="-3.8985430">
        <ele>896.0</ele>
        <time>2022-06-27T14:39:11Z</time>
      </trkpt>
      <trkpt lat="42.3739300" lon="-3.8986970">
        <ele>895.8</ele>
        <time>2022-06-27T14:39:12Z</time>
      </trkpt>
      <trkpt lat="42.3740090" lon="-3.8988510">
        <ele>895.0</ele>
        <time>2022-06-27T14:39:13Z</time>
      </trkpt>
      <trkpt lat="42.3740890" lon="-3.8990020">
        <ele>894.6</ele>
        <time>2022-06-27T14:39:14Z</time>
      </trkpt>
      <trkpt lat="42.3741680" lon="-3.8991520">
        <ele>894.0</ele>
        <time>2022-06-27T14:39:15Z</time>
      </trkpt>
      <trkpt lat="42.3742470" lon="-3.8993040">
        <ele>893.8</ele>
        <time>2022-06-27T14:39:16Z</time>
      </trkpt>
      <trkpt lat="42.3743240" lon="-3.8994560">
        <ele>893.4</ele>
        <time>2022-06-27T14:39:17Z</time>
      </trkpt>
      <trkpt lat="42.3744010" lon="-3.8996050">
        <ele>893.0</ele>
        <time>2022-06-27T14:39:18Z</time>
      </trkpt>
      <trkpt lat="42.3744800" lon="-3.8997530">
        <ele>892.8</ele>
        <time>2022-06-27T14:39:19Z</time>
      </trkpt>
      <trkpt lat="42.3745590" lon="-3.8999020">
        <ele>892.6</ele>
        <time>2022-06-27T14:39:20Z</time>
      </trkpt>
      <trkpt lat="42.3746380" lon="-3.9000510">
        <ele>892.2</ele>
        <time>2022-06-27T14:39:21Z</time>
      </trkpt>
      <trkpt lat="42.3747160" lon="-3.9002020">
        <ele>892.0</ele>
        <time>2022-06-27T14:39:22Z</time>
      </trkpt>
      <trkpt lat="42.3747940" lon="-3.9003540">
        <ele>891.6</ele>
        <time>2022-06-27T14:39:23Z</time>
      </trkpt>
      <trkpt lat="42.3748710" lon="-3.9005060">
        <ele>891.0</ele>
        <time>2022-06-27T14:39:24Z</time>
      </trkpt>
      <trkpt lat="42.3749480" lon="-3.9006580">
        <ele>890.4</ele>
        <time>2022-06-27T14:39:25Z</time>
      </trkpt>
      <trkpt lat="42.3750270" lon="-3.9008080">
        <ele>890.2</ele>
        <time>2022-06-27T14:39:26Z</time>
      </trkpt>
      <trkpt lat="42.3751060" lon="-3.9009590">
        <ele>890.0</ele>
        <time>2022-06-27T14:39:27Z</time>
      </trkpt>
      <trkpt lat="42.3751850" lon="-3.9011120">
        <ele>889.8</ele>
        <time>2022-06-27T14:39:28Z</time>
      </trkpt>
      <trkpt lat="42.3752640" lon="-3.9012640">
        <ele>889.2</ele>
        <time>2022-06-27T14:39:29Z</time>
      </trkpt>
      <trkpt lat="42.3753420" lon="-3.9014160">
        <ele>888.6</ele>
        <time>2022-06-27T14:39:30Z</time>
      </trkpt>
      <trkpt lat="42.3754160" lon="-3.9015670">
        <ele>887.6</ele>
        <time>2022-06-27T14:39:31Z</time>
      </trkpt>
      <trkpt lat="42.3754930" lon="-3.9017180">
        <ele>887.2</ele>
        <time>2022-06-27T14:39:32Z</time>
      </trkpt>
      <trkpt lat="42.3755720" lon="-3.9018680">
        <ele>887.0</ele>
        <time>2022-06-27T14:39:33Z</time>
      </trkpt>
      <trkpt lat="42.3756500" lon="-3.9020170">
        <ele>886.8</ele>
        <time>2022-06-27T14:39:34Z</time>
      </trkpt>
      <trkpt lat="42.3757270" lon="-3.9021670">
        <ele>886.6</ele>
        <time>2022-06-27T14:39:35Z</time>
      </trkpt>
      <trkpt lat="42.3758010" lon="-3.9023170">
        <ele>886.2</ele>
        <time>2022-06-27T14:39:36Z</time>
      </trkpt>
      <trkpt lat="42.3758790" lon="-3.9024660">
        <ele>886.0</ele>
        <time>2022-06-27T14:39:37Z</time>
      </trkpt>
      <trkpt lat="42.3759560" lon="-3.9026160">
        <ele>885.4</ele>
        <time>2022-06-27T14:39:38Z</time>
      </trkpt>
      <trkpt lat="42.3760340" lon="-3.9027660">
        <ele>885.2</ele>
        <time>2022-06-27T14:39:39Z</time>
      </trkpt>
      <trkpt lat="42.3761120" lon="-3.9029150">
        <ele>885.0</ele>
        <time>2022-06-27T14:39:40Z</time>
      </trkpt>
      <trkpt lat="42.3761900" lon="-3.9030650">
        <ele>884.8</ele>
        <time>2022-06-27T14:39:41Z</time>
      </trkpt>
      <trkpt lat="42.3762670" lon="-3.9032140">
        <ele>884.6</ele>
        <time>2022-06-27T14:39:42Z</time>
      </trkpt>
      <trkpt lat="42.3763430" lon="-3.9033610">
        <ele>884.4</ele>
        <time>2022-06-27T14:39:43Z</time>
      </trkpt>
      <trkpt lat="42.3764190" lon="-3.9035080">
        <ele>883.8</ele>
        <time>2022-06-27T14:39:44Z</time>
      </trkpt>
      <trkpt lat="42.3764950" lon="-3.9036530">
        <ele>883.2</ele>
        <time>2022-06-27T14:39:45Z</time>
      </trkpt>
      <trkpt lat="42.3765710" lon="-3.9038010">
        <ele>882.6</ele>
        <time>2022-06-27T14:39:46Z</time>
      </trkpt>
      <trkpt lat="42.3766480" lon="-3.9039500">
        <ele>882.2</ele>
        <time>2022-06-27T14:39:47Z</time>
      </trkpt>
      <trkpt lat="42.3767260" lon="-3.9041000">
        <ele>881.8</ele>
        <time>2022-06-27T14:39:48Z</time>
      </trkpt>
      <trkpt lat="42.3768040" lon="-3.9042500">
        <ele>881.6</ele>
        <time>2022-06-27T14:39:49Z</time>
      </trkpt>
      <trkpt lat="42.3768820" lon="-3.9044010">
        <ele>881.2</ele>
        <time>2022-06-27T14:39:50Z</time>
      </trkpt>
      <trkpt lat="42.3769600" lon="-3.9045510">
        <ele>880.8</ele>
        <time>2022-06-27T14:39:51Z</time>
      </trkpt>
      <trkpt lat="42.3770390" lon="-3.9046990">
        <ele>879.8</ele>
        <time>2022-06-27T14:39:52Z</time>
      </trkpt>
      <trkpt lat="42.3771190" lon="-3.9048470">
        <ele>879.2</ele>
        <time>2022-06-27T14:39:53Z</time>
      </trkpt>
      <trkpt lat="42.3771980" lon="-3.9049960">
        <ele>878.8</ele>
        <time>2022-06-27T14:39:54Z</time>
      </trkpt>
      <trkpt lat="42.3772760" lon="-3.9051490">
        <ele>878.2</ele>
        <time>2022-06-27T14:39:55Z</time>
      </trkpt>
      <trkpt lat="42.3773550" lon="-3.9053040">
        <ele>878.2</ele>
        <time>2022-06-27T14:39:56Z</time>
      </trkpt>
      <trkpt lat="42.3774360" lon="-3.9054600">
        <ele>877.6</ele>
        <time>2022-06-27T14:39:57Z</time>
      </trkpt>
      <trkpt lat="42.3775180" lon="-3.9056150">
        <ele>877.4</ele>
        <time>2022-06-27T14:39:58Z</time>
      </trkpt>
      <trkpt lat="42.3776000" lon="-3.9057730">
        <ele>877.0</ele>
        <time>2022-06-27T14:39:59Z</time>
      </trkpt>
      <trkpt lat="42.3776810" lon="-3.9059310">
        <ele>876.4</ele>
        <time>2022-06-27T14:40:00Z</time>
      </trkpt>
      <trkpt lat="42.3777790" lon="-3.9061200">
        <ele>876.0</ele>
        <time>2022-06-27T14:40:01Z</time>
      </trkpt>
      <trkpt lat="42.3778460" lon="-3.9062430">
        <ele>875.6</ele>
        <time>2022-06-27T14:40:02Z</time>
      </trkpt>
      <trkpt lat="42.3779320" lon="-3.9063950">
        <ele>875.4</ele>
        <time>2022-06-27T14:40:03Z</time>
      </trkpt>
      <trkpt lat="42.3780200" lon="-3.9065440">
        <ele>875.2</ele>
        <time>2022-06-27T14:40:04Z</time>
      </trkpt>
      <trkpt lat="42.3781120" lon="-3.9066900">
        <ele>875.0</ele>
        <time>2022-06-27T14:40:05Z</time>
      </trkpt>
      <trkpt lat="42.3782080" lon="-3.9068300">
        <ele>874.6</ele>
        <time>2022-06-27T14:40:06Z</time>
      </trkpt>
      <trkpt lat="42.3783040" lon="-3.9069630">
        <ele>873.2</ele>
        <time>2022-06-27T14:40:07Z</time>
      </trkpt>
      <trkpt lat="42.3784030" lon="-3.9070930">
        <ele>872.8</ele>
        <time>2022-06-27T14:40:08Z</time>
      </trkpt>
      <trkpt lat="42.3785010" lon="-3.9072180">
        <ele>872.2</ele>
        <time>2022-06-27T14:40:09Z</time>
      </trkpt>
      <trkpt lat="42.3786000" lon="-3.9073410">
        <ele>872.0</ele>
        <time>2022-06-27T14:40:10Z</time>
      </trkpt>
      <trkpt lat="42.3787010" lon="-3.9074640">
        <ele>871.6</ele>
        <time>2022-06-27T14:40:11Z</time>
      </trkpt>
      <trkpt lat="42.3788000" lon="-3.9075840">
        <ele>871.6</ele>
        <time>2022-06-27T14:40:12Z</time>
      </trkpt>
      <trkpt lat="42.3789010" lon="-3.9077050">
        <ele>871.4</ele>
        <time>2022-06-27T14:40:13Z</time>
      </trkpt>
      <trkpt lat="42.3790020" lon="-3.9078240">
        <ele>871.0</ele>
        <time>2022-06-27T14:40:14Z</time>
      </trkpt>
      <trkpt lat="42.3791020" lon="-3.9079420">
        <ele>871.0</ele>
        <time>2022-06-27T14:40:15Z</time>
      </trkpt>
      <trkpt lat="42.3792020" lon="-3.9080590">
        <ele>870.2</ele>
        <time>2022-06-27T14:40:16Z</time>
      </trkpt>
      <trkpt lat="42.3793030" lon="-3.9081760">
        <ele>870.0</ele>
        <time>2022-06-27T14:40:17Z</time>
      </trkpt>
      <trkpt lat="42.3794030" lon="-3.9082940">
        <ele>869.4</ele>
        <time>2022-06-27T14:40:18Z</time>
      </trkpt>
      <trkpt lat="42.3795030" lon="-3.9084110">
        <ele>869.0</ele>
        <time>2022-06-27T14:40:19Z</time>
      </trkpt>
      <trkpt lat="42.3796010" lon="-3.9085320">
        <ele>868.6</ele>
        <time>2022-06-27T14:40:20Z</time>
      </trkpt>
      <trkpt lat="42.3796980" lon="-3.9086520">
        <ele>868.0</ele>
        <time>2022-06-27T14:40:21Z</time>
      </trkpt>
      <trkpt lat="42.3797930" lon="-3.9087720">
        <ele>867.8</ele>
        <time>2022-06-27T14:40:22Z</time>
      </trkpt>
      <trkpt lat="42.3798850" lon="-3.9088940">
        <ele>867.8</ele>
        <time>2022-06-27T14:40:23Z</time>
      </trkpt>
      <trkpt lat="42.3799740" lon="-3.9090170">
        <ele>867.6</ele>
        <time>2022-06-27T14:40:24Z</time>
      </trkpt>
      <trkpt lat="42.3800590" lon="-3.9091440">
        <ele>867.4</ele>
        <time>2022-06-27T14:40:25Z</time>
      </trkpt>
      <trkpt lat="42.3801400" lon="-3.9092740">
        <ele>867.2</ele>
        <time>2022-06-27T14:40:26Z</time>
      </trkpt>
      <trkpt lat="42.3802180" lon="-3.9094090">
        <ele>866.8</ele>
        <time>2022-06-27T14:40:27Z</time>
      </trkpt>
      <trkpt lat="42.3802950" lon="-3.9095490">
        <ele>866.2</ele>
        <time>2022-06-27T14:40:28Z</time>
      </trkpt>
      <trkpt lat="42.3803680" lon="-3.9096930">
        <ele>866.0</ele>
        <time>2022-06-27T14:40:29Z</time>
      </trkpt>
      <trkpt lat="42.3804360" lon="-3.9098400">
        <ele>865.8</ele>
        <time>2022-06-27T14:40:30Z</time>
      </trkpt>
      <trkpt lat="42.3804990" lon="-3.9099910">
        <ele>865.6</ele>
        <time>2022-06-27T14:40:31Z</time>
      </trkpt>
      <trkpt lat="42.3805580" lon="-3.9101470">
        <ele>865.4</ele>
        <time>2022-06-27T14:40:32Z</time>
      </trkpt>
      <trkpt lat="42.3806110" lon="-3.9103060">
        <ele>865.2</ele>
        <time>2022-06-27T14:40:33Z</time>
      </trkpt>
      <trkpt lat="42.3806590" lon="-3.9104680">
        <ele>864.8</ele>
        <time>2022-06-27T14:40:34Z</time>
      </trkpt>
      <trkpt lat="42.3807050" lon="-3.9106320">
        <ele>864.6</ele>
        <time>2022-06-27T14:40:35Z</time>
      </trkpt>
      <trkpt lat="42.3807490" lon="-3.9107970">
        <ele>864.2</ele>
        <time>2022-06-27T14:40:36Z</time>
      </trkpt>
      <trkpt lat="42.3807870" lon="-3.9109660">
        <ele>863.8</ele>
        <time>2022-06-27T14:40:37Z</time>
      </trkpt>
      <trkpt lat="42.3808200" lon="-3.9111340">
        <ele>863.6</ele>
        <time>2022-06-27T14:40:38Z</time>
      </trkpt>
      <trkpt lat="42.3808520" lon="-3.9113030">
        <ele>863.4</ele>
        <time>2022-06-27T14:40:39Z</time>
      </trkpt>
      <trkpt lat="42.3808790" lon="-3.9114740">
        <ele>863.2</ele>
        <time>2022-06-27T14:40:40Z</time>
      </trkpt>
      <trkpt lat="42.3809010" lon="-3.9116460">
        <ele>862.6</ele>
        <time>2022-06-27T14:40:41Z</time>
      </trkpt>
      <trkpt lat="42.3809180" lon="-3.9118180">
        <ele>862.2</ele>
        <time>2022-06-27T14:40:42Z</time>
      </trkpt>
      <trkpt lat="42.3809280" lon="-3.9119920">
        <ele>862.0</ele>
        <time>2022-06-27T14:40:43Z</time>
      </trkpt>
      <trkpt lat="42.3809350" lon="-3.9121680">
        <ele>861.6</ele>
        <time>2022-06-27T14:40:44Z</time>
      </trkpt>
      <trkpt lat="42.3809350" lon="-3.9123420">
        <ele>861.6</ele>
        <time>2022-06-27T14:40:45Z</time>
      </trkpt>
      <trkpt lat="42.3809330" lon="-3.9125210">
        <ele>861.2</ele>
        <time>2022-06-27T14:40:46Z</time>
      </trkpt>
      <trkpt lat="42.3809260" lon="-3.9127010">
        <ele>861.0</ele>
        <time>2022-06-27T14:40:47Z</time>
      </trkpt>
      <trkpt lat="42.3809140" lon="-3.9128810">
        <ele>860.4</ele>
        <time>2022-06-27T14:40:48Z</time>
      </trkpt>
      <trkpt lat="42.3808950" lon="-3.9130610">
        <ele>860.0</ele>
        <time>2022-06-27T14:40:49Z</time>
      </trkpt>
      <trkpt lat="42.3808700" lon="-3.9132410">
        <ele>859.6</ele>
        <time>2022-06-27T14:40:50Z</time>
      </trkpt>
      <trkpt lat="42.3808400" lon="-3.9134210">
        <ele>859.0</ele>
        <time>2022-06-27T14:40:51Z</time>
      </trkpt>
      <trkpt lat="42.3808070" lon="-3.9136010">
        <ele>859.0</ele>
        <time>2022-06-27T14:40:52Z</time>
      </trkpt>
      <trkpt lat="42.3807680" lon="-3.9137810">
        <ele>858.4</ele>
        <time>2022-06-27T14:40:53Z</time>
      </trkpt>
      <trkpt lat="42.3807270" lon="-3.9139600">
        <ele>858.2</ele>
        <time>2022-06-27T14:40:54Z</time>
      </trkpt>
      <trkpt lat="42.3806850" lon="-3.9141400">
        <ele>858.0</ele>
        <time>2022-06-27T14:40:55Z</time>
      </trkpt>
      <trkpt lat="42.3806400" lon="-3.9143210">
        <ele>857.6</ele>
        <time>2022-06-27T14:40:56Z</time>
      </trkpt>
      <trkpt lat="42.3805950" lon="-3.9145030">
        <ele>856.2</ele>
        <time>2022-06-27T14:40:57Z</time>
      </trkpt>
      <trkpt lat="42.3805500" lon="-3.9146860">
        <ele>855.6</ele>
        <time>2022-06-27T14:40:58Z</time>
      </trkpt>
      <trkpt lat="42.3805040" lon="-3.9148700">
        <ele>855.4</ele>
        <time>2022-06-27T14:40:59Z</time>
      </trkpt>
      <trkpt lat="42.3804580" lon="-3.9150540">
        <ele>854.4</ele>
        <time>2022-06-27T14:41:00Z</time>
      </trkpt>
      <trkpt lat="42.3804100" lon="-3.9152400">
        <ele>853.8</ele>
        <time>2022-06-27T14:41:01Z</time>
      </trkpt>
      <trkpt lat="42.3803630" lon="-3.9154250">
        <ele>852.8</ele>
        <time>2022-06-27T14:41:02Z</time>
      </trkpt>
      <trkpt lat="42.3803180" lon="-3.9156100">
        <ele>852.6</ele>
        <time>2022-06-27T14:41:03Z</time>
      </trkpt>
      <trkpt lat="42.3802730" lon="-3.9157940">
        <ele>851.8</ele>
        <time>2022-06-27T14:41:04Z</time>
      </trkpt>
      <trkpt lat="42.3802310" lon="-3.9159770">
        <ele>851.2</ele>
        <time>2022-06-27T14:41:05Z</time>
      </trkpt>
      <trkpt lat="42.3801930" lon="-3.9161600">
        <ele>850.8</ele>
        <time>2022-06-27T14:41:06Z</time>
      </trkpt>
      <trkpt lat="42.3801610" lon="-3.9163420">
        <ele>850.4</ele>
        <time>2022-06-27T14:41:07Z</time>
      </trkpt>
      <trkpt lat="42.3801320" lon="-3.9165220">
        <ele>850.4</ele>
        <time>2022-06-27T14:41:08Z</time>
      </trkpt>
      <trkpt lat="42.3801050" lon="-3.9167010">
        <ele>850.0</ele>
        <time>2022-06-27T14:41:09Z</time>
      </trkpt>
      <trkpt lat="42.3800820" lon="-3.9168800">
        <ele>849.8</ele>
        <time>2022-06-27T14:41:10Z</time>
      </trkpt>
      <trkpt lat="42.3800610" lon="-3.9170560">
        <ele>849.2</ele>
        <time>2022-06-27T14:41:11Z</time>
      </trkpt>
      <trkpt lat="42.3800410" lon="-3.9172310">
        <ele>848.6</ele>
        <time>2022-06-27T14:41:12Z</time>
      </trkpt>
      <trkpt lat="42.3800200" lon="-3.9174040">
        <ele>848.6</ele>
        <time>2022-06-27T14:41:13Z</time>
      </trkpt>
      <trkpt lat="42.3800010" lon="-3.9175770">
        <ele>848.4</ele>
        <time>2022-06-27T14:41:14Z</time>
      </trkpt>
      <trkpt lat="42.3799800" lon="-3.9177480">
        <ele>848.4</ele>
        <time>2022-06-27T14:41:15Z</time>
      </trkpt>
      <trkpt lat="42.3799580" lon="-3.9179150">
        <ele>848.4</ele>
        <time>2022-06-27T14:41:16Z</time>
      </trkpt>
      <trkpt lat="42.3799360" lon="-3.9180790">
        <ele>848.4</ele>
        <time>2022-06-27T14:41:17Z</time>
      </trkpt>
      <trkpt lat="42.3799110" lon="-3.9182410">
        <ele>848.4</ele>
        <time>2022-06-27T14:41:18Z</time>
      </trkpt>
      <trkpt lat="42.3798840" lon="-3.9184030">
        <ele>848.4</ele>
        <time>2022-06-27T14:41:19Z</time>
      </trkpt>
      <trkpt lat="42.3798580" lon="-3.9185620">
        <ele>848.4</ele>
        <time>2022-06-27T14:41:20Z</time>
      </trkpt>
      <trkpt lat="42.3798280" lon="-3.9187210">
        <ele>848.4</ele>
        <time>2022-06-27T14:41:21Z</time>
      </trkpt>
      <trkpt lat="42.3797950" lon="-3.9188780">
        <ele>848.4</ele>
        <time>2022-06-27T14:41:22Z</time>
      </trkpt>
      <trkpt lat="42.3797590" lon="-3.9190340">
        <ele>848.4</ele>
        <time>2022-06-27T14:41:23Z</time>
      </trkpt>
      <trkpt lat="42.3797210" lon="-3.9191900">
        <ele>848.4</ele>
        <time>2022-06-27T14:41:24Z</time>
      </trkpt>
      <trkpt lat="42.3796830" lon="-3.9193460">
        <ele>848.4</ele>
        <time>2022-06-27T14:41:25Z</time>
      </trkpt>
      <trkpt lat="42.3796440" lon="-3.9195030">
        <ele>848.4</ele>
        <time>2022-06-27T14:41:26Z</time>
      </trkpt>
      <trkpt lat="42.3796050" lon="-3.9196580">
        <ele>848.4</ele>
        <time>2022-06-27T14:41:27Z</time>
      </trkpt>
      <trkpt lat="42.3795680" lon="-3.9198100">
        <ele>848.4</ele>
        <time>2022-06-27T14:41:28Z</time>
      </trkpt>
      <trkpt lat="42.3795290" lon="-3.9199610">
        <ele>848.4</ele>
        <time>2022-06-27T14:41:29Z</time>
      </trkpt>
      <trkpt lat="42.3794900" lon="-3.9201130">
        <ele>848.6</ele>
        <time>2022-06-27T14:41:30Z</time>
      </trkpt>
      <trkpt lat="42.3794550" lon="-3.9202670">
        <ele>848.6</ele>
        <time>2022-06-27T14:41:31Z</time>
      </trkpt>
      <trkpt lat="42.3794200" lon="-3.9204190">
        <ele>848.6</ele>
        <time>2022-06-27T14:41:32Z</time>
      </trkpt>
      <trkpt lat="42.3793880" lon="-3.9205710">
        <ele>848.6</ele>
        <time>2022-06-27T14:41:33Z</time>
      </trkpt>
      <trkpt lat="42.3793570" lon="-3.9207230">
        <ele>848.6</ele>
        <time>2022-06-27T14:41:34Z</time>
      </trkpt>
      <trkpt lat="42.3793260" lon="-3.9208760">
        <ele>848.6</ele>
        <time>2022-06-27T14:41:35Z</time>
      </trkpt>
      <trkpt lat="42.3792970" lon="-3.9210280">
        <ele>848.6</ele>
        <time>2022-06-27T14:41:36Z</time>
      </trkpt>
      <trkpt lat="42.3792700" lon="-3.9211790">
        <ele>848.8</ele>
        <time>2022-06-27T14:41:37Z</time>
      </trkpt>
      <trkpt lat="42.3792430" lon="-3.9213280">
        <ele>848.8</ele>
        <time>2022-06-27T14:41:38Z</time>
      </trkpt>
      <trkpt lat="42.3792170" lon="-3.9214780">
        <ele>848.8</ele>
        <time>2022-06-27T14:41:39Z</time>
      </trkpt>
      <trkpt lat="42.3791910" lon="-3.9216290">
        <ele>848.8</ele>
        <time>2022-06-27T14:41:40Z</time>
      </trkpt>
      <trkpt lat="42.3791650" lon="-3.9217790">
        <ele>848.8</ele>
        <time>2022-06-27T14:41:41Z</time>
      </trkpt>
      <trkpt lat="42.3791400" lon="-3.9219280">
        <ele>849.2</ele>
        <time>2022-06-27T14:41:42Z</time>
      </trkpt>
      <trkpt lat="42.3791090" lon="-3.9221050">
        <ele>849.4</ele>
        <time>2022-06-27T14:41:43Z</time>
      </trkpt>
      <trkpt lat="42.3790870" lon="-3.9222470">
        <ele>849.6</ele>
        <time>2022-06-27T14:41:44Z</time>
      </trkpt>
      <trkpt lat="42.3790650" lon="-3.9223890">
        <ele>849.6</ele>
        <time>2022-06-27T14:41:45Z</time>
      </trkpt>
      <trkpt lat="42.3790440" lon="-3.9225300">
        <ele>849.8</ele>
        <time>2022-06-27T14:41:46Z</time>
      </trkpt>
      <trkpt lat="42.3790200" lon="-3.9226690">
        <ele>850.0</ele>
        <time>2022-06-27T14:41:47Z</time>
      </trkpt>
      <trkpt lat="42.3790010" lon="-3.9227800">
        <ele>850.0</ele>
        <time>2022-06-27T14:41:48Z</time>
      </trkpt>
      <trkpt lat="42.3789730" lon="-3.9229460">
        <ele>850.4</ele>
        <time>2022-06-27T14:41:49Z</time>
      </trkpt>
      <trkpt lat="42.3789550" lon="-3.9230550">
        <ele>850.4</ele>
        <time>2022-06-27T14:41:50Z</time>
      </trkpt>
      <trkpt lat="42.3789340" lon="-3.9231910">
        <ele>850.8</ele>
        <time>2022-06-27T14:41:51Z</time>
      </trkpt>
      <trkpt lat="42.3789110" lon="-3.9233240">
        <ele>851.0</ele>
        <time>2022-06-27T14:41:52Z</time>
      </trkpt>
      <trkpt lat="42.3788860" lon="-3.9234880">
        <ele>851.0</ele>
        <time>2022-06-27T14:41:53Z</time>
      </trkpt>
      <trkpt lat="42.3788720" lon="-3.9235990">
        <ele>851.2</ele>
        <time>2022-06-27T14:41:54Z</time>
      </trkpt>
      <trkpt lat="42.3788530" lon="-3.9237650">
        <ele>851.2</ele>
        <time>2022-06-27T14:41:55Z</time>
      </trkpt>
      <trkpt lat="42.3788430" lon="-3.9238760">
        <ele>851.2</ele>
        <time>2022-06-27T14:41:56Z</time>
      </trkpt>
      <trkpt lat="42.3788310" lon="-3.9240150">
        <ele>851.2</ele>
        <time>2022-06-27T14:41:57Z</time>
      </trkpt>
      <trkpt lat="42.3788190" lon="-3.9241850">
        <ele>851.4</ele>
        <time>2022-06-27T14:41:58Z</time>
      </trkpt>
      <trkpt lat="42.3788110" lon="-3.9243290">
        <ele>851.4</ele>
        <time>2022-06-27T14:41:59Z</time>
      </trkpt>
      <trkpt lat="42.3788050" lon="-3.9244740">
        <ele>851.4</ele>
        <time>2022-06-27T14:42:00Z</time>
      </trkpt>
      <trkpt lat="42.3788040" lon="-3.9245900">
        <ele>851.4</ele>
        <time>2022-06-27T14:42:01Z</time>
      </trkpt>
      <trkpt lat="42.3788070" lon="-3.9247370">
        <ele>851.2</ele>
        <time>2022-06-27T14:42:02Z</time>
      </trkpt>
      <trkpt lat="42.3788170" lon="-3.9249130">
        <ele>851.2</ele>
        <time>2022-06-27T14:42:03Z</time>
      </trkpt>
      <trkpt lat="42.3788280" lon="-3.9250610">
        <ele>851.2</ele>
        <time>2022-06-27T14:42:04Z</time>
      </trkpt>
      <trkpt lat="42.3788410" lon="-3.9252130">
        <ele>851.0</ele>
        <time>2022-06-27T14:42:05Z</time>
      </trkpt>
      <trkpt lat="42.3788540" lon="-3.9253360">
        <ele>851.0</ele>
        <time>2022-06-27T14:42:06Z</time>
      </trkpt>
      <trkpt lat="42.3788740" lon="-3.9254900">
        <ele>850.6</ele>
        <time>2022-06-27T14:42:07Z</time>
      </trkpt>
      <trkpt lat="42.3788960" lon="-3.9256420">
        <ele>850.6</ele>
        <time>2022-06-27T14:42:08Z</time>
      </trkpt>
      <trkpt lat="42.3789190" lon="-3.9257950">
        <ele>850.4</ele>
        <time>2022-06-27T14:42:09Z</time>
      </trkpt>
      <trkpt lat="42.3789450" lon="-3.9259470">
        <ele>850.2</ele>
        <time>2022-06-27T14:42:10Z</time>
      </trkpt>
      <trkpt lat="42.3789760" lon="-3.9260970">
        <ele>850.2</ele>
        <time>2022-06-27T14:42:11Z</time>
      </trkpt>
      <trkpt lat="42.3790130" lon="-3.9262480">
        <ele>850.0</ele>
        <time>2022-06-27T14:42:12Z</time>
      </trkpt>
      <trkpt lat="42.3790500" lon="-3.9264000">
        <ele>849.8</ele>
        <time>2022-06-27T14:42:13Z</time>
      </trkpt>
      <trkpt lat="42.3790940" lon="-3.9265520">
        <ele>849.6</ele>
        <time>2022-06-27T14:42:14Z</time>
      </trkpt>
      <trkpt lat="42.3791420" lon="-3.9267030">
        <ele>849.4</ele>
        <time>2022-06-27T14:42:15Z</time>
      </trkpt>
      <trkpt lat="42.3791950" lon="-3.9268530">
        <ele>849.2</ele>
        <time>2022-06-27T14:42:16Z</time>
      </trkpt>
      <trkpt lat="42.3792480" lon="-3.9270010">
        <ele>848.8</ele>
        <time>2022-06-27T14:42:17Z</time>
      </trkpt>
      <trkpt lat="42.3793040" lon="-3.9271460">
        <ele>848.6</ele>
        <time>2022-06-27T14:42:18Z</time>
      </trkpt>
      <trkpt lat="42.3793620" lon="-3.9272890">
        <ele>848.2</ele>
        <time>2022-06-27T14:42:19Z</time>
      </trkpt>
      <trkpt lat="42.3794230" lon="-3.9274290">
        <ele>848.0</ele>
        <time>2022-06-27T14:42:20Z</time>
      </trkpt>
      <trkpt lat="42.3794850" lon="-3.9275680">
        <ele>847.6</ele>
        <time>2022-06-27T14:42:21Z</time>
      </trkpt>
      <trkpt lat="42.3795460" lon="-3.9277080">
        <ele>847.6</ele>
        <time>2022-06-27T14:42:22Z</time>
      </trkpt>
      <trkpt lat="42.3796060" lon="-3.9278480">
        <ele>846.4</ele>
        <time>2022-06-27T14:42:23Z</time>
      </trkpt>
      <trkpt lat="42.3796630" lon="-3.9279850">
        <ele>846.0</ele>
        <time>2022-06-27T14:42:24Z</time>
      </trkpt>
      <trkpt lat="42.3797200" lon="-3.9281230">
        <ele>845.4</ele>
        <time>2022-06-27T14:42:25Z</time>
      </trkpt>
      <trkpt lat="42.3797750" lon="-3.9282600">
        <ele>844.8</ele>
        <time>2022-06-27T14:42:26Z</time>
      </trkpt>
      <trkpt lat="42.3798300" lon="-3.9283950">
        <ele>844.6</ele>
        <time>2022-06-27T14:42:27Z</time>
      </trkpt>
      <trkpt lat="42.3798830" lon="-3.9285290">
        <ele>844.0</ele>
        <time>2022-06-27T14:42:28Z</time>
      </trkpt>
      <trkpt lat="42.3799360" lon="-3.9286610">
        <ele>843.8</ele>
        <time>2022-06-27T14:42:29Z</time>
      </trkpt>
      <trkpt lat="42.3799870" lon="-3.9287890">
        <ele>843.6</ele>
        <time>2022-06-27T14:42:30Z</time>
      </trkpt>
      <trkpt lat="42.3800370" lon="-3.9289150">
        <ele>843.4</ele>
        <time>2022-06-27T14:42:31Z</time>
      </trkpt>
      <trkpt lat="42.3800870" lon="-3.9290390">
        <ele>843.4</ele>
        <time>2022-06-27T14:42:32Z</time>
      </trkpt>
      <trkpt lat="42.3801360" lon="-3.9291600">
        <ele>843.4</ele>
        <time>2022-06-27T14:42:33Z</time>
      </trkpt>
      <trkpt lat="42.3801850" lon="-3.9292810">
        <ele>843.4</ele>
        <time>2022-06-27T14:42:34Z</time>
      </trkpt>
      <trkpt lat="42.3802330" lon="-3.9294020">
        <ele>843.4</ele>
        <time>2022-06-27T14:42:35Z</time>
      </trkpt>
      <trkpt lat="42.3802790" lon="-3.9295210">
        <ele>843.4</ele>
        <time>2022-06-27T14:42:36Z</time>
      </trkpt>
      <trkpt lat="42.3803240" lon="-3.9296380">
        <ele>843.4</ele>
        <time>2022-06-27T14:42:37Z</time>
      </trkpt>
      <trkpt lat="42.3803700" lon="-3.9297530">
        <ele>843.4</ele>
        <time>2022-06-27T14:42:38Z</time>
      </trkpt>
      <trkpt lat="42.3804170" lon="-3.9298660">
        <ele>843.4</ele>
        <time>2022-06-27T14:42:39Z</time>
      </trkpt>
      <trkpt lat="42.3804640" lon="-3.9299800">
        <ele>843.6</ele>
        <time>2022-06-27T14:42:40Z</time>
      </trkpt>
      <trkpt lat="42.3805100" lon="-3.9300940">
        <ele>843.6</ele>
        <time>2022-06-27T14:42:41Z</time>
      </trkpt>
      <trkpt lat="42.3805540" lon="-3.9302100">
        <ele>843.6</ele>
        <time>2022-06-27T14:42:42Z</time>
      </trkpt>
      <trkpt lat="42.3805990" lon="-3.9303250">
        <ele>843.6</ele>
        <time>2022-06-27T14:42:43Z</time>
      </trkpt>
      <trkpt lat="42.3806450" lon="-3.9304390">
        <ele>843.4</ele>
        <time>2022-06-27T14:42:44Z</time>
      </trkpt>
      <trkpt lat="42.3806910" lon="-3.9305560">
        <ele>843.4</ele>
        <time>2022-06-27T14:42:45Z</time>
      </trkpt>
      <trkpt lat="42.3807380" lon="-3.9306690">
        <ele>843.4</ele>
        <time>2022-06-27T14:42:46Z</time>
      </trkpt>
      <trkpt lat="42.3807850" lon="-3.9307810">
        <ele>843.2</ele>
        <time>2022-06-27T14:42:47Z</time>
      </trkpt>
      <trkpt lat="42.3808300" lon="-3.9308910">
        <ele>843.2</ele>
        <time>2022-06-27T14:42:48Z</time>
      </trkpt>
      <trkpt lat="42.3808770" lon="-3.9310020">
        <ele>843.2</ele>
        <time>2022-06-27T14:42:49Z</time>
      </trkpt>
      <trkpt lat="42.3809240" lon="-3.9311120">
        <ele>843.2</ele>
        <time>2022-06-27T14:42:50Z</time>
      </trkpt>
      <trkpt lat="42.3809690" lon="-3.9312240">
        <ele>843.2</ele>
        <time>2022-06-27T14:42:51Z</time>
      </trkpt>
      <trkpt lat="42.3810150" lon="-3.9313320">
        <ele>843.2</ele>
        <time>2022-06-27T14:42:52Z</time>
      </trkpt>
      <trkpt lat="42.3810600" lon="-3.9314420">
        <ele>843.2</ele>
        <time>2022-06-27T14:42:53Z</time>
      </trkpt>
      <trkpt lat="42.3811020" lon="-3.9315510">
        <ele>843.2</ele>
        <time>2022-06-27T14:42:54Z</time>
      </trkpt>
      <trkpt lat="42.3811460" lon="-3.9316580">
        <ele>843.2</ele>
        <time>2022-06-27T14:42:55Z</time>
      </trkpt>
      <trkpt lat="42.3811890" lon="-3.9317630">
        <ele>843.2</ele>
        <time>2022-06-27T14:42:56Z</time>
      </trkpt>
      <trkpt lat="42.3812310" lon="-3.9318650">
        <ele>843.2</ele>
        <time>2022-06-27T14:42:57Z</time>
      </trkpt>
      <trkpt lat="42.3812710" lon="-3.9319680">
        <ele>843.4</ele>
        <time>2022-06-27T14:42:58Z</time>
      </trkpt>
      <trkpt lat="42.3813100" lon="-3.9320670">
        <ele>843.4</ele>
        <time>2022-06-27T14:42:59Z</time>
      </trkpt>
      <trkpt lat="42.3813490" lon="-3.9321650">
        <ele>843.4</ele>
        <time>2022-06-27T14:43:00Z</time>
      </trkpt>
      <trkpt lat="42.3813900" lon="-3.9322620">
        <ele>843.4</ele>
        <time>2022-06-27T14:43:01Z</time>
      </trkpt>
      <trkpt lat="42.3814320" lon="-3.9323600">
        <ele>843.4</ele>
        <time>2022-06-27T14:43:02Z</time>
      </trkpt>
      <trkpt lat="42.3814720" lon="-3.9324560">
        <ele>843.4</ele>
        <time>2022-06-27T14:43:03Z</time>
      </trkpt>
      <trkpt lat="42.3815110" lon="-3.9325510">
        <ele>843.6</ele>
        <time>2022-06-27T14:43:04Z</time>
      </trkpt>
      <trkpt lat="42.3815490" lon="-3.9326500">
        <ele>843.6</ele>
        <time>2022-06-27T14:43:05Z</time>
      </trkpt>
      <trkpt lat="42.3815890" lon="-3.9327470">
        <ele>843.8</ele>
        <time>2022-06-27T14:43:06Z</time>
      </trkpt>
      <trkpt lat="42.3816280" lon="-3.9328440">
        <ele>844.0</ele>
        <time>2022-06-27T14:43:07Z</time>
      </trkpt>
      <trkpt lat="42.3816640" lon="-3.9329370">
        <ele>844.2</ele>
        <time>2022-06-27T14:43:08Z</time>
      </trkpt>
      <trkpt lat="42.3816990" lon="-3.9330290">
        <ele>844.2</ele>
        <time>2022-06-27T14:43:09Z</time>
      </trkpt>
      <trkpt lat="42.3817320" lon="-3.9331190">
        <ele>844.4</ele>
        <time>2022-06-27T14:43:10Z</time>
      </trkpt>
      <trkpt lat="42.3817670" lon="-3.9332070">
        <ele>844.4</ele>
        <time>2022-06-27T14:43:11Z</time>
      </trkpt>
      <trkpt lat="42.3818050" lon="-3.9332920">
        <ele>844.8</ele>
        <time>2022-06-27T14:43:12Z</time>
      </trkpt>
      <trkpt lat="42.3818420" lon="-3.9333780">
        <ele>845.2</ele>
        <time>2022-06-27T14:43:13Z</time>
      </trkpt>
      <trkpt lat="42.3818780" lon="-3.9334700">
        <ele>845.4</ele>
        <time>2022-06-27T14:43:14Z</time>
      </trkpt>
      <trkpt lat="42.3819150" lon="-3.9335610">
        <ele>845.6</ele>
        <time>2022-06-27T14:43:15Z</time>
      </trkpt>
      <trkpt lat="42.3819520" lon="-3.9336550">
        <ele>845.6</ele>
        <time>2022-06-27T14:43:16Z</time>
      </trkpt>
      <trkpt lat="42.3819890" lon="-3.9337480">
        <ele>845.8</ele>
        <time>2022-06-27T14:43:17Z</time>
      </trkpt>
      <trkpt lat="42.3820230" lon="-3.9338390">
        <ele>845.8</ele>
        <time>2022-06-27T14:43:18Z</time>
      </trkpt>
      <trkpt lat="42.3820570" lon="-3.9339310">
        <ele>845.8</ele>
        <time>2022-06-27T14:43:19Z</time>
      </trkpt>
      <trkpt lat="42.3820910" lon="-3.9340230">
        <ele>845.8</ele>
        <time>2022-06-27T14:43:20Z</time>
      </trkpt>
      <trkpt lat="42.3821280" lon="-3.9341140">
        <ele>846.0</ele>
        <time>2022-06-27T14:43:21Z</time>
      </trkpt>
      <trkpt lat="42.3821670" lon="-3.9342050">
        <ele>846.2</ele>
        <time>2022-06-27T14:43:22Z</time>
      </trkpt>
      <trkpt lat="42.3822030" lon="-3.9342970">
        <ele>846.2</ele>
        <time>2022-06-27T14:43:23Z</time>
      </trkpt>
      <trkpt lat="42.3822390" lon="-3.9343890">
        <ele>846.4</ele>
        <time>2022-06-27T14:43:24Z</time>
      </trkpt>
      <trkpt lat="42.3822750" lon="-3.9344830">
        <ele>846.4</ele>
        <time>2022-06-27T14:43:25Z</time>
      </trkpt>
      <trkpt lat="42.3823110" lon="-3.9345760">
        <ele>846.6</ele>
        <time>2022-06-27T14:43:26Z</time>
      </trkpt>
      <trkpt lat="42.3823460" lon="-3.9346680">
        <ele>846.8</ele>
        <time>2022-06-27T14:43:27Z</time>
      </trkpt>
      <trkpt lat="42.3823810" lon="-3.9347610">
        <ele>847.2</ele>
        <time>2022-06-27T14:43:28Z</time>
      </trkpt>
      <trkpt lat="42.3824150" lon="-3.9348560">
        <ele>847.2</ele>
        <time>2022-06-27T14:43:29Z</time>
      </trkpt>
      <trkpt lat="42.3824460" lon="-3.9349530">
        <ele>847.2</ele>
        <time>2022-06-27T14:43:30Z</time>
      </trkpt>
      <trkpt lat="42.3824740" lon="-3.9350510">
        <ele>847.4</ele>
        <time>2022-06-27T14:43:31Z</time>
      </trkpt>
      <trkpt lat="42.3825020" lon="-3.9351470">
        <ele>847.4</ele>
        <time>2022-06-27T14:43:32Z</time>
      </trkpt>
      <trkpt lat="42.3825290" lon="-3.9352460">
        <ele>847.6</ele>
        <time>2022-06-27T14:43:33Z</time>
      </trkpt>
      <trkpt lat="42.3825540" lon="-3.9353440">
        <ele>847.6</ele>
        <time>2022-06-27T14:43:34Z</time>
      </trkpt>
      <trkpt lat="42.3825760" lon="-3.9354380">
        <ele>847.6</ele>
        <time>2022-06-27T14:43:35Z</time>
      </trkpt>
      <trkpt lat="42.3825990" lon="-3.9355350">
        <ele>847.8</ele>
        <time>2022-06-27T14:43:36Z</time>
      </trkpt>
      <trkpt lat="42.3826210" lon="-3.9356340">
        <ele>847.8</ele>
        <time>2022-06-27T14:43:37Z</time>
      </trkpt>
      <trkpt lat="42.3826430" lon="-3.9357320">
        <ele>848.0</ele>
        <time>2022-06-27T14:43:38Z</time>
      </trkpt>
      <trkpt lat="42.3826640" lon="-3.9358300">
        <ele>848.0</ele>
        <time>2022-06-27T14:43:39Z</time>
      </trkpt>
      <trkpt lat="42.3826830" lon="-3.9359290">
        <ele>848.2</ele>
        <time>2022-06-27T14:43:40Z</time>
      </trkpt>
      <trkpt lat="42.3826990" lon="-3.9360280">
        <ele>848.4</ele>
        <time>2022-06-27T14:43:41Z</time>
      </trkpt>
      <trkpt lat="42.3827150" lon="-3.9361240">
        <ele>848.6</ele>
        <time>2022-06-27T14:43:42Z</time>
      </trkpt>
      <trkpt lat="42.3827310" lon="-3.9362210">
        <ele>848.8</ele>
        <time>2022-06-27T14:43:43Z</time>
      </trkpt>
      <trkpt lat="42.3827460" lon="-3.9363180">
        <ele>848.8</ele>
        <time>2022-06-27T14:43:44Z</time>
      </trkpt>
      <trkpt lat="42.3827580" lon="-3.9364150">
        <ele>849.0</ele>
        <time>2022-06-27T14:43:45Z</time>
      </trkpt>
      <trkpt lat="42.3827690" lon="-3.9365140">
        <ele>849.0</ele>
        <time>2022-06-27T14:43:46Z</time>
      </trkpt>
      <trkpt lat="42.3827810" lon="-3.9366120">
        <ele>849.0</ele>
        <time>2022-06-27T14:43:47Z</time>
      </trkpt>
      <trkpt lat="42.3827900" lon="-3.9367110">
        <ele>849.2</ele>
        <time>2022-06-27T14:43:48Z</time>
      </trkpt>
      <trkpt lat="42.3827970" lon="-3.9368080">
        <ele>849.4</ele>
        <time>2022-06-27T14:43:49Z</time>
      </trkpt>
      <trkpt lat="42.3828020" lon="-3.9369050">
        <ele>849.6</ele>
        <time>2022-06-27T14:43:50Z</time>
      </trkpt>
      <trkpt lat="42.3828090" lon="-3.9370020">
        <ele>849.6</ele>
        <time>2022-06-27T14:43:51Z</time>
      </trkpt>
      <trkpt lat="42.3828160" lon="-3.9370990">
        <ele>849.8</ele>
        <time>2022-06-27T14:43:52Z</time>
      </trkpt>
      <trkpt lat="42.3828190" lon="-3.9371960">
        <ele>850.0</ele>
        <time>2022-06-27T14:43:53Z</time>
      </trkpt>
      <trkpt lat="42.3828210" lon="-3.9372950">
        <ele>850.2</ele>
        <time>2022-06-27T14:43:54Z</time>
      </trkpt>
      <trkpt lat="42.3828200" lon="-3.9373920">
        <ele>850.2</ele>
        <time>2022-06-27T14:43:55Z</time>
      </trkpt>
      <trkpt lat="42.3828190" lon="-3.9374920">
        <ele>850.4</ele>
        <time>2022-06-27T14:43:56Z</time>
      </trkpt>
      <trkpt lat="42.3828170" lon="-3.9375910">
        <ele>850.4</ele>
        <time>2022-06-27T14:43:57Z</time>
      </trkpt>
      <trkpt lat="42.3828140" lon="-3.9376920">
        <ele>850.6</ele>
        <time>2022-06-27T14:43:58Z</time>
      </trkpt>
      <trkpt lat="42.3828120" lon="-3.9377920">
        <ele>850.8</ele>
        <time>2022-06-27T14:43:59Z</time>
      </trkpt>
      <trkpt lat="42.3828070" lon="-3.9378940">
        <ele>850.8</ele>
        <time>2022-06-27T14:44:00Z</time>
      </trkpt>
      <trkpt lat="42.3828010" lon="-3.9379960">
        <ele>851.0</ele>
        <time>2022-06-27T14:44:01Z</time>
      </trkpt>
      <trkpt lat="42.3827920" lon="-3.9380990">
        <ele>851.2</ele>
        <time>2022-06-27T14:44:02Z</time>
      </trkpt>
      <trkpt lat="42.3827820" lon="-3.9382020">
        <ele>851.4</ele>
        <time>2022-06-27T14:44:03Z</time>
      </trkpt>
      <trkpt lat="42.3827710" lon="-3.9383060">
        <ele>851.8</ele>
        <time>2022-06-27T14:44:04Z</time>
      </trkpt>
      <trkpt lat="42.3827610" lon="-3.9384080">
        <ele>852.0</ele>
        <time>2022-06-27T14:44:05Z</time>
      </trkpt>
      <trkpt lat="42.3827490" lon="-3.9385110">
        <ele>852.2</ele>
        <time>2022-06-27T14:44:06Z</time>
      </trkpt>
      <trkpt lat="42.3827350" lon="-3.9386160">
        <ele>852.4</ele>
        <time>2022-06-27T14:44:07Z</time>
      </trkpt>
      <trkpt lat="42.3827170" lon="-3.9387210">
        <ele>852.6</ele>
        <time>2022-06-27T14:44:08Z</time>
      </trkpt>
      <trkpt lat="42.3827010" lon="-3.9388270">
        <ele>852.8</ele>
        <time>2022-06-27T14:44:09Z</time>
      </trkpt>
      <trkpt lat="42.3826830" lon="-3.9389330">
        <ele>852.8</ele>
        <time>2022-06-27T14:44:10Z</time>
      </trkpt>
      <trkpt lat="42.3826650" lon="-3.9390390">
        <ele>853.0</ele>
        <time>2022-06-27T14:44:11Z</time>
      </trkpt>
      <trkpt lat="42.3826490" lon="-3.9391460">
        <ele>853.2</ele>
        <time>2022-06-27T14:44:12Z</time>
      </trkpt>
      <trkpt lat="42.3826310" lon="-3.9392500">
        <ele>853.4</ele>
        <time>2022-06-27T14:44:13Z</time>
      </trkpt>
      <trkpt lat="42.3826140" lon="-3.9393560">
        <ele>853.4</ele>
        <time>2022-06-27T14:44:14Z</time>
      </trkpt>
      <trkpt lat="42.3825970" lon="-3.9394620">
        <ele>853.4</ele>
        <time>2022-06-27T14:44:15Z</time>
      </trkpt>
      <trkpt lat="42.3825780" lon="-3.9395670">
        <ele>853.6</ele>
        <time>2022-06-27T14:44:16Z</time>
      </trkpt>
      <trkpt lat="42.3825610" lon="-3.9396720">
        <ele>853.8</ele>
        <time>2022-06-27T14:44:17Z</time>
      </trkpt>
      <trkpt lat="42.3825440" lon="-3.9397750">
        <ele>854.0</ele>
        <time>2022-06-27T14:44:18Z</time>
      </trkpt>
      <trkpt lat="42.3825260" lon="-3.9398800">
        <ele>854.0</ele>
        <time>2022-06-27T14:44:19Z</time>
      </trkpt>
      <trkpt lat="42.3825090" lon="-3.9399820">
        <ele>854.2</ele>
        <time>2022-06-27T14:44:20Z</time>
      </trkpt>
      <trkpt lat="42.3824920" lon="-3.9400860">
        <ele>854.2</ele>
        <time>2022-06-27T14:44:21Z</time>
      </trkpt>
      <trkpt lat="42.3824750" lon="-3.9401900">
        <ele>854.6</ele>
        <time>2022-06-27T14:44:22Z</time>
      </trkpt>
      <trkpt lat="42.3824570" lon="-3.9402920">
        <ele>854.8</ele>
        <time>2022-06-27T14:44:23Z</time>
      </trkpt>
      <trkpt lat="42.3824410" lon="-3.9403920">
        <ele>855.2</ele>
        <time>2022-06-27T14:44:24Z</time>
      </trkpt>
      <trkpt lat="42.3824250" lon="-3.9404930">
        <ele>855.2</ele>
        <time>2022-06-27T14:44:25Z</time>
      </trkpt>
      <trkpt lat="42.3824080" lon="-3.9405970">
        <ele>855.4</ele>
        <time>2022-06-27T14:44:26Z</time>
      </trkpt>
      <trkpt lat="42.3823900" lon="-3.9406990">
        <ele>855.6</ele>
        <time>2022-06-27T14:44:27Z</time>
      </trkpt>
      <trkpt lat="42.3823730" lon="-3.9407980">
        <ele>855.8</ele>
        <time>2022-06-27T14:44:28Z</time>
      </trkpt>
      <trkpt lat="42.3823560" lon="-3.9408980">
        <ele>856.0</ele>
        <time>2022-06-27T14:44:29Z</time>
      </trkpt>
      <trkpt lat="42.3823380" lon="-3.9409980">
        <ele>856.2</ele>
        <time>2022-06-27T14:44:30Z</time>
      </trkpt>
      <trkpt lat="42.3823210" lon="-3.9410990">
        <ele>856.4</ele>
        <time>2022-06-27T14:44:31Z</time>
      </trkpt>
      <trkpt lat="42.3823070" lon="-3.9412000">
        <ele>856.4</ele>
        <time>2022-06-27T14:44:32Z</time>
      </trkpt>
      <trkpt lat="42.3822910" lon="-3.9413000">
        <ele>856.8</ele>
        <time>2022-06-27T14:44:33Z</time>
      </trkpt>
      <trkpt lat="42.3822730" lon="-3.9413990">
        <ele>856.8</ele>
        <time>2022-06-27T14:44:34Z</time>
      </trkpt>
      <trkpt lat="42.3822550" lon="-3.9414980">
        <ele>857.0</ele>
        <time>2022-06-27T14:44:35Z</time>
      </trkpt>
      <trkpt lat="42.3822390" lon="-3.9415980">
        <ele>857.4</ele>
        <time>2022-06-27T14:44:36Z</time>
      </trkpt>
      <trkpt lat="42.3822210" lon="-3.9416950">
        <ele>857.6</ele>
        <time>2022-06-27T14:44:37Z</time>
      </trkpt>
      <trkpt lat="42.3822070" lon="-3.9417940">
        <ele>857.8</ele>
        <time>2022-06-27T14:44:38Z</time>
      </trkpt>
      <trkpt lat="42.3821920" lon="-3.9418940">
        <ele>857.8</ele>
        <time>2022-06-27T14:44:39Z</time>
      </trkpt>
      <trkpt lat="42.3821760" lon="-3.9419950">
        <ele>858.4</ele>
        <time>2022-06-27T14:44:40Z</time>
      </trkpt>
      <trkpt lat="42.3821590" lon="-3.9420940">
        <ele>859.0</ele>
        <time>2022-06-27T14:44:41Z</time>
      </trkpt>
      <trkpt lat="42.3821420" lon="-3.9421950">
        <ele>859.2</ele>
        <time>2022-06-27T14:44:42Z</time>
      </trkpt>
      <trkpt lat="42.3821260" lon="-3.9422960">
        <ele>859.4</ele>
        <time>2022-06-27T14:44:43Z</time>
      </trkpt>
      <trkpt lat="42.3821110" lon="-3.9423970">
        <ele>859.6</ele>
        <time>2022-06-27T14:44:44Z</time>
      </trkpt>
      <trkpt lat="42.3820960" lon="-3.9424980">
        <ele>859.8</ele>
        <time>2022-06-27T14:44:45Z</time>
      </trkpt>
      <trkpt lat="42.3820800" lon="-3.9426000">
        <ele>859.8</ele>
        <time>2022-06-27T14:44:46Z</time>
      </trkpt>
      <trkpt lat="42.3820670" lon="-3.9427020">
        <ele>860.0</ele>
        <time>2022-06-27T14:44:47Z</time>
      </trkpt>
      <trkpt lat="42.3820520" lon="-3.9428050">
        <ele>860.0</ele>
        <time>2022-06-27T14:44:48Z</time>
      </trkpt>
      <trkpt lat="42.3820360" lon="-3.9429080">
        <ele>860.2</ele>
        <time>2022-06-27T14:44:49Z</time>
      </trkpt>
      <trkpt lat="42.3820250" lon="-3.9430110">
        <ele>860.2</ele>
        <time>2022-06-27T14:44:50Z</time>
      </trkpt>
      <trkpt lat="42.3820140" lon="-3.9431150">
        <ele>860.4</ele>
        <time>2022-06-27T14:44:51Z</time>
      </trkpt>
      <trkpt lat="42.3820050" lon="-3.9432190">
        <ele>860.6</ele>
        <time>2022-06-27T14:44:52Z</time>
      </trkpt>
      <trkpt lat="42.3819940" lon="-3.9433220">
        <ele>860.6</ele>
        <time>2022-06-27T14:44:53Z</time>
      </trkpt>
      <trkpt lat="42.3819840" lon="-3.9434260">
        <ele>860.6</ele>
        <time>2022-06-27T14:44:54Z</time>
      </trkpt>
      <trkpt lat="42.3819740" lon="-3.9435300">
        <ele>860.8</ele>
        <time>2022-06-27T14:44:55Z</time>
      </trkpt>
      <trkpt lat="42.3819670" lon="-3.9436320">
        <ele>860.8</ele>
        <time>2022-06-27T14:44:56Z</time>
      </trkpt>
      <trkpt lat="42.3819600" lon="-3.9437350">
        <ele>861.0</ele>
        <time>2022-06-27T14:44:57Z</time>
      </trkpt>
      <trkpt lat="42.3819540" lon="-3.9438380">
        <ele>861.2</ele>
        <time>2022-06-27T14:44:58Z</time>
      </trkpt>
      <trkpt lat="42.3819490" lon="-3.9439390">
        <ele>861.2</ele>
        <time>2022-06-27T14:44:59Z</time>
      </trkpt>
      <trkpt lat="42.3819440" lon="-3.9440600">
        <ele>861.4</ele>
        <time>2022-06-27T14:45:00Z</time>
      </trkpt>
      <trkpt lat="42.3819390" lon="-3.9441630">
        <ele>861.6</ele>
        <time>2022-06-27T14:45:01Z</time>
      </trkpt>
      <trkpt lat="42.3819360" lon="-3.9442440">
        <ele>862.0</ele>
        <time>2022-06-27T14:45:02Z</time>
      </trkpt>
      <trkpt lat="42.3819340" lon="-3.9443470">
        <ele>862.0</ele>
        <time>2022-06-27T14:45:03Z</time>
      </trkpt>
      <trkpt lat="42.3819320" lon="-3.9444500">
        <ele>862.2</ele>
        <time>2022-06-27T14:45:04Z</time>
      </trkpt>
      <trkpt lat="42.3819300" lon="-3.9445520">
        <ele>862.4</ele>
        <time>2022-06-27T14:45:05Z</time>
      </trkpt>
      <trkpt lat="42.3819270" lon="-3.9446540">
        <ele>862.6</ele>
        <time>2022-06-27T14:45:06Z</time>
      </trkpt>
      <trkpt lat="42.3819240" lon="-3.9447570">
        <ele>862.6</ele>
        <time>2022-06-27T14:45:07Z</time>
      </trkpt>
      <trkpt lat="42.3819210" lon="-3.9448610">
        <ele>862.8</ele>
        <time>2022-06-27T14:45:08Z</time>
      </trkpt>
      <trkpt lat="42.3819170" lon="-3.9449650">
        <ele>863.0</ele>
        <time>2022-06-27T14:45:09Z</time>
      </trkpt>
      <trkpt lat="42.3819140" lon="-3.9450690">
        <ele>863.0</ele>
        <time>2022-06-27T14:45:10Z</time>
      </trkpt>
      <trkpt lat="42.3819110" lon="-3.9451920">
        <ele>863.2</ele>
        <time>2022-06-27T14:45:11Z</time>
      </trkpt>
      <trkpt lat="42.3819090" lon="-3.9452960">
        <ele>863.2</ele>
        <time>2022-06-27T14:45:12Z</time>
      </trkpt>
      <trkpt lat="42.3819070" lon="-3.9453790">
        <ele>863.6</ele>
        <time>2022-06-27T14:45:13Z</time>
      </trkpt>
      <trkpt lat="42.3819040" lon="-3.9454850">
        <ele>863.6</ele>
        <time>2022-06-27T14:45:14Z</time>
      </trkpt>
      <trkpt lat="42.3819020" lon="-3.9455900">
        <ele>863.8</ele>
        <time>2022-06-27T14:45:15Z</time>
      </trkpt>
      <trkpt lat="42.3818990" lon="-3.9457170">
        <ele>864.2</ele>
        <time>2022-06-27T14:45:16Z</time>
      </trkpt>
      <trkpt lat="42.3818940" lon="-3.9458220">
        <ele>864.2</ele>
        <time>2022-06-27T14:45:17Z</time>
      </trkpt>
      <trkpt lat="42.3818920" lon="-3.9459080">
        <ele>864.4</ele>
        <time>2022-06-27T14:45:18Z</time>
      </trkpt>
      <trkpt lat="42.3818870" lon="-3.9460130">
        <ele>864.4</ele>
        <time>2022-06-27T14:45:19Z</time>
      </trkpt>
      <trkpt lat="42.3818830" lon="-3.9461430">
        <ele>864.4</ele>
        <time>2022-06-27T14:45:20Z</time>
      </trkpt>
      <trkpt lat="42.3818810" lon="-3.9462500">
        <ele>864.4</ele>
        <time>2022-06-27T14:45:21Z</time>
      </trkpt>
      <trkpt lat="42.3818790" lon="-3.9463360">
        <ele>864.6</ele>
        <time>2022-06-27T14:45:22Z</time>
      </trkpt>
      <trkpt lat="42.3818750" lon="-3.9464440">
        <ele>864.8</ele>
        <time>2022-06-27T14:45:23Z</time>
      </trkpt>
      <trkpt lat="42.3818710" lon="-3.9465510">
        <ele>864.8</ele>
        <time>2022-06-27T14:45:24Z</time>
      </trkpt>
      <trkpt lat="42.3818680" lon="-3.9466790">
        <ele>865.0</ele>
        <time>2022-06-27T14:45:25Z</time>
      </trkpt>
      <trkpt lat="42.3818660" lon="-3.9467640">
        <ele>865.2</ele>
        <time>2022-06-27T14:45:26Z</time>
      </trkpt>
      <trkpt lat="42.3818640" lon="-3.9468710">
        <ele>865.4</ele>
        <time>2022-06-27T14:45:27Z</time>
      </trkpt>
      <trkpt lat="42.3818620" lon="-3.9469780">
        <ele>865.6</ele>
        <time>2022-06-27T14:45:28Z</time>
      </trkpt>
      <trkpt lat="42.3818590" lon="-3.9470860">
        <ele>865.6</ele>
        <time>2022-06-27T14:45:29Z</time>
      </trkpt>
      <trkpt lat="42.3818550" lon="-3.9471920">
        <ele>865.8</ele>
        <time>2022-06-27T14:45:30Z</time>
      </trkpt>
      <trkpt lat="42.3818510" lon="-3.9473190">
        <ele>865.8</ele>
        <time>2022-06-27T14:45:31Z</time>
      </trkpt>
      <trkpt lat="42.3818500" lon="-3.9474260">
        <ele>865.8</ele>
        <time>2022-06-27T14:45:32Z</time>
      </trkpt>
      <trkpt lat="42.3818490" lon="-3.9475130">
        <ele>865.8</ele>
        <time>2022-06-27T14:45:33Z</time>
      </trkpt>
      <trkpt lat="42.3818450" lon="-3.9476200">
        <ele>865.8</ele>
        <time>2022-06-27T14:45:34Z</time>
      </trkpt>
      <trkpt lat="42.3818410" lon="-3.9477490">
        <ele>865.8</ele>
        <time>2022-06-27T14:45:35Z</time>
      </trkpt>
      <trkpt lat="42.3818370" lon="-3.9478570">
        <ele>866.0</ele>
        <time>2022-06-27T14:45:36Z</time>
      </trkpt>
      <trkpt lat="42.3818350" lon="-3.9479660">
        <ele>866.2</ele>
        <time>2022-06-27T14:45:37Z</time>
      </trkpt>
      <trkpt lat="42.3818350" lon="-3.9480530">
        <ele>866.2</ele>
        <time>2022-06-27T14:45:38Z</time>
      </trkpt>
      <trkpt lat="42.3818330" lon="-3.9481600">
        <ele>866.4</ele>
        <time>2022-06-27T14:45:39Z</time>
      </trkpt>
      <trkpt lat="42.3818280" lon="-3.9482640">
        <ele>866.4</ele>
        <time>2022-06-27T14:45:40Z</time>
      </trkpt>
      <trkpt lat="42.3818250" lon="-3.9483670">
        <ele>866.4</ele>
        <time>2022-06-27T14:45:41Z</time>
      </trkpt>
      <trkpt lat="42.3818210" lon="-3.9484690">
        <ele>866.6</ele>
        <time>2022-06-27T14:45:42Z</time>
      </trkpt>
      <trkpt lat="42.3818190" lon="-3.9485720">
        <ele>867.0</ele>
        <time>2022-06-27T14:45:43Z</time>
      </trkpt>
      <trkpt lat="42.3818160" lon="-3.9486730">
        <ele>867.2</ele>
        <time>2022-06-27T14:45:44Z</time>
      </trkpt>
      <trkpt lat="42.3818130" lon="-3.9487710">
        <ele>867.4</ele>
        <time>2022-06-27T14:45:45Z</time>
      </trkpt>
      <trkpt lat="42.3818100" lon="-3.9488640">
        <ele>867.6</ele>
        <time>2022-06-27T14:45:46Z</time>
      </trkpt>
      <trkpt lat="42.3818050" lon="-3.9489600">
        <ele>867.8</ele>
        <time>2022-06-27T14:45:47Z</time>
      </trkpt>
      <trkpt lat="42.3818010" lon="-3.9490560">
        <ele>868.0</ele>
        <time>2022-06-27T14:45:48Z</time>
      </trkpt>
      <trkpt lat="42.3818020" lon="-3.9491530">
        <ele>868.2</ele>
        <time>2022-06-27T14:45:49Z</time>
      </trkpt>
      <trkpt lat="42.3818000" lon="-3.9492470">
        <ele>868.6</ele>
        <time>2022-06-27T14:45:50Z</time>
      </trkpt>
      <trkpt lat="42.3817970" lon="-3.9493410">
        <ele>868.6</ele>
        <time>2022-06-27T14:45:51Z</time>
      </trkpt>
      <trkpt lat="42.3817960" lon="-3.9494320">
        <ele>869.0</ele>
        <time>2022-06-27T14:45:52Z</time>
      </trkpt>
      <trkpt lat="42.3817940" lon="-3.9495230">
        <ele>869.2</ele>
        <time>2022-06-27T14:45:53Z</time>
      </trkpt>
      <trkpt lat="42.3817940" lon="-3.9496110">
        <ele>869.4</ele>
        <time>2022-06-27T14:45:54Z</time>
      </trkpt>
      <trkpt lat="42.3817970" lon="-3.9496960">
        <ele>869.6</ele>
        <time>2022-06-27T14:45:55Z</time>
      </trkpt>
      <trkpt lat="42.3817980" lon="-3.9497810">
        <ele>870.0</ele>
        <time>2022-06-27T14:45:56Z</time>
      </trkpt>
      <trkpt lat="42.3817970" lon="-3.9498660">
        <ele>870.4</ele>
        <time>2022-06-27T14:45:57Z</time>
      </trkpt>
      <trkpt lat="42.3817970" lon="-3.9499510">
        <ele>870.6</ele>
        <time>2022-06-27T14:45:58Z</time>
      </trkpt>
      <trkpt lat="42.3817980" lon="-3.9500360">
        <ele>871.0</ele>
        <time>2022-06-27T14:45:59Z</time>
      </trkpt>
      <trkpt lat="42.3817970" lon="-3.9501220">
        <ele>871.4</ele>
        <time>2022-06-27T14:46:00Z</time>
      </trkpt>
      <trkpt lat="42.3817970" lon="-3.9502080">
        <ele>871.4</ele>
        <time>2022-06-27T14:46:01Z</time>
      </trkpt>
      <trkpt lat="42.3817970" lon="-3.9502930">
        <ele>871.6</ele>
        <time>2022-06-27T14:46:02Z</time>
      </trkpt>
      <trkpt lat="42.3817980" lon="-3.9503760">
        <ele>871.8</ele>
        <time>2022-06-27T14:46:03Z</time>
      </trkpt>
      <trkpt lat="42.3817990" lon="-3.9504600">
        <ele>871.8</ele>
        <time>2022-06-27T14:46:04Z</time>
      </trkpt>
      <trkpt lat="42.3818000" lon="-3.9505450">
        <ele>872.0</ele>
        <time>2022-06-27T14:46:05Z</time>
      </trkpt>
      <trkpt lat="42.3817980" lon="-3.9506320">
        <ele>872.2</ele>
        <time>2022-06-27T14:46:06Z</time>
      </trkpt>
      <trkpt lat="42.3817980" lon="-3.9507210">
        <ele>872.2</ele>
        <time>2022-06-27T14:46:07Z</time>
      </trkpt>
      <trkpt lat="42.3818010" lon="-3.9508100">
        <ele>872.2</ele>
        <time>2022-06-27T14:46:08Z</time>
      </trkpt>
      <trkpt lat="42.3818040" lon="-3.9509020">
        <ele>872.4</ele>
        <time>2022-06-27T14:46:09Z</time>
      </trkpt>
      <trkpt lat="42.3818070" lon="-3.9509970">
        <ele>872.6</ele>
        <time>2022-06-27T14:46:10Z</time>
      </trkpt>
      <trkpt lat="42.3818100" lon="-3.9510920">
        <ele>872.8</ele>
        <time>2022-06-27T14:46:11Z</time>
      </trkpt>
      <trkpt lat="42.3818140" lon="-3.9511890">
        <ele>873.0</ele>
        <time>2022-06-27T14:46:12Z</time>
      </trkpt>
      <trkpt lat="42.3818170" lon="-3.9512840">
        <ele>873.2</ele>
        <time>2022-06-27T14:46:13Z</time>
      </trkpt>
      <trkpt lat="42.3818200" lon="-3.9513780">
        <ele>873.4</ele>
        <time>2022-06-27T14:46:14Z</time>
      </trkpt>
      <trkpt lat="42.3818230" lon="-3.9514740">
        <ele>873.6</ele>
        <time>2022-06-27T14:46:15Z</time>
      </trkpt>
      <trkpt lat="42.3818290" lon="-3.9515660">
        <ele>873.8</ele>
        <time>2022-06-27T14:46:16Z</time>
      </trkpt>
      <trkpt lat="42.3818350" lon="-3.9516600">
        <ele>873.8</ele>
        <time>2022-06-27T14:46:17Z</time>
      </trkpt>
      <trkpt lat="42.3818400" lon="-3.9517560">
        <ele>874.0</ele>
        <time>2022-06-27T14:46:18Z</time>
      </trkpt>
      <trkpt lat="42.3818440" lon="-3.9518490">
        <ele>874.0</ele>
        <time>2022-06-27T14:46:19Z</time>
      </trkpt>
      <trkpt lat="42.3818450" lon="-3.9519420">
        <ele>874.0</ele>
        <time>2022-06-27T14:46:20Z</time>
      </trkpt>
      <trkpt lat="42.3818490" lon="-3.9520340">
        <ele>874.0</ele>
        <time>2022-06-27T14:46:21Z</time>
      </trkpt>
      <trkpt lat="42.3818550" lon="-3.9521260">
        <ele>874.0</ele>
        <time>2022-06-27T14:46:22Z</time>
      </trkpt>
      <trkpt lat="42.3818610" lon="-3.9522190">
        <ele>874.2</ele>
        <time>2022-06-27T14:46:23Z</time>
      </trkpt>
      <trkpt lat="42.3818670" lon="-3.9523120">
        <ele>874.4</ele>
        <time>2022-06-27T14:46:24Z</time>
      </trkpt>
      <trkpt lat="42.3818750" lon="-3.9524060">
        <ele>874.6</ele>
        <time>2022-06-27T14:46:25Z</time>
      </trkpt>
      <trkpt lat="42.3818840" lon="-3.9525010">
        <ele>874.8</ele>
        <time>2022-06-27T14:46:26Z</time>
      </trkpt>
      <trkpt lat="42.3818920" lon="-3.9525930">
        <ele>875.0</ele>
        <time>2022-06-27T14:46:27Z</time>
      </trkpt>
      <trkpt lat="42.3819000" lon="-3.9526850">
        <ele>875.2</ele>
        <time>2022-06-27T14:46:28Z</time>
      </trkpt>
      <trkpt lat="42.3819100" lon="-3.9527760">
        <ele>875.2</ele>
        <time>2022-06-27T14:46:29Z</time>
      </trkpt>
      <trkpt lat="42.3819200" lon="-3.9528660">
        <ele>875.4</ele>
        <time>2022-06-27T14:46:30Z</time>
      </trkpt>
      <trkpt lat="42.3819280" lon="-3.9529590">
        <ele>875.6</ele>
        <time>2022-06-27T14:46:31Z</time>
      </trkpt>
      <trkpt lat="42.3819360" lon="-3.9530540">
        <ele>875.8</ele>
        <time>2022-06-27T14:46:32Z</time>
      </trkpt>
      <trkpt lat="42.3819450" lon="-3.9531500">
        <ele>875.8</ele>
        <time>2022-06-27T14:46:33Z</time>
      </trkpt>
      <trkpt lat="42.3819530" lon="-3.9532460">
        <ele>876.0</ele>
        <time>2022-06-27T14:46:34Z</time>
      </trkpt>
      <trkpt lat="42.3819620" lon="-3.9533440">
        <ele>876.4</ele>
        <time>2022-06-27T14:46:35Z</time>
      </trkpt>
      <trkpt lat="42.3819710" lon="-3.9534410">
        <ele>876.6</ele>
        <time>2022-06-27T14:46:36Z</time>
      </trkpt>
      <trkpt lat="42.3819810" lon="-3.9535360">
        <ele>876.6</ele>
        <time>2022-06-27T14:46:37Z</time>
      </trkpt>
      <trkpt lat="42.3819920" lon="-3.9536310">
        <ele>877.0</ele>
        <time>2022-06-27T14:46:38Z</time>
      </trkpt>
      <trkpt lat="42.3820030" lon="-3.9537260">
        <ele>877.2</ele>
        <time>2022-06-27T14:46:39Z</time>
      </trkpt>
      <trkpt lat="42.3820150" lon="-3.9538210">
        <ele>877.2</ele>
        <time>2022-06-27T14:46:40Z</time>
      </trkpt>
      <trkpt lat="42.3820250" lon="-3.9539160">
        <ele>877.4</ele>
        <time>2022-06-27T14:46:41Z</time>
      </trkpt>
      <trkpt lat="42.3820360" lon="-3.9540110">
        <ele>877.6</ele>
        <time>2022-06-27T14:46:42Z</time>
      </trkpt>
      <trkpt lat="42.3820470" lon="-3.9541080">
        <ele>877.8</ele>
        <time>2022-06-27T14:46:43Z</time>
      </trkpt>
      <trkpt lat="42.3820590" lon="-3.9542040">
        <ele>877.8</ele>
        <time>2022-06-27T14:46:44Z</time>
      </trkpt>
      <trkpt lat="42.3820720" lon="-3.9543000">
        <ele>877.8</ele>
        <time>2022-06-27T14:46:45Z</time>
      </trkpt>
      <trkpt lat="42.3820860" lon="-3.9543960">
        <ele>878.0</ele>
        <time>2022-06-27T14:46:46Z</time>
      </trkpt>
      <trkpt lat="42.3820990" lon="-3.9544930">
        <ele>878.2</ele>
        <time>2022-06-27T14:46:47Z</time>
      </trkpt>
      <trkpt lat="42.3821130" lon="-3.9545890">
        <ele>878.4</ele>
        <time>2022-06-27T14:46:48Z</time>
      </trkpt>
      <trkpt lat="42.3821270" lon="-3.9546850">
        <ele>878.6</ele>
        <time>2022-06-27T14:46:49Z</time>
      </trkpt>
      <trkpt lat="42.3821400" lon="-3.9547820">
        <ele>878.8</ele>
        <time>2022-06-27T14:46:50Z</time>
      </trkpt>
      <trkpt lat="42.3821540" lon="-3.9548800">
        <ele>879.0</ele>
        <time>2022-06-27T14:46:51Z</time>
      </trkpt>
      <trkpt lat="42.3821690" lon="-3.9549790">
        <ele>879.0</ele>
        <time>2022-06-27T14:46:52Z</time>
      </trkpt>
      <trkpt lat="42.3821850" lon="-3.9550760">
        <ele>879.0</ele>
        <time>2022-06-27T14:46:53Z</time>
      </trkpt>
      <trkpt lat="42.3822000" lon="-3.9551750">
        <ele>879.2</ele>
        <time>2022-06-27T14:46:54Z</time>
      </trkpt>
      <trkpt lat="42.3822160" lon="-3.9552720">
        <ele>879.2</ele>
        <time>2022-06-27T14:46:55Z</time>
      </trkpt>
      <trkpt lat="42.3822310" lon="-3.9553700">
        <ele>879.4</ele>
        <time>2022-06-27T14:46:56Z</time>
      </trkpt>
      <trkpt lat="42.3822470" lon="-3.9554680">
        <ele>879.6</ele>
        <time>2022-06-27T14:46:57Z</time>
      </trkpt>
      <trkpt lat="42.3822640" lon="-3.9555650">
        <ele>879.8</ele>
        <time>2022-06-27T14:46:58Z</time>
      </trkpt>
      <trkpt lat="42.3822810" lon="-3.9556640">
        <ele>879.8</ele>
        <time>2022-06-27T14:46:59Z</time>
      </trkpt>
      <trkpt lat="42.3822980" lon="-3.9557620">
        <ele>880.0</ele>
        <time>2022-06-27T14:47:00Z</time>
      </trkpt>
      <trkpt lat="42.3823160" lon="-3.9558600">
        <ele>880.2</ele>
        <time>2022-06-27T14:47:01Z</time>
      </trkpt>
      <trkpt lat="42.3823350" lon="-3.9559580">
        <ele>880.2</ele>
        <time>2022-06-27T14:47:02Z</time>
      </trkpt>
      <trkpt lat="42.3823530" lon="-3.9560550">
        <ele>880.4</ele>
        <time>2022-06-27T14:47:03Z</time>
      </trkpt>
      <trkpt lat="42.3823700" lon="-3.9561530">
        <ele>880.6</ele>
        <time>2022-06-27T14:47:04Z</time>
      </trkpt>
      <trkpt lat="42.3823890" lon="-3.9562520">
        <ele>880.8</ele>
        <time>2022-06-27T14:47:05Z</time>
      </trkpt>
      <trkpt lat="42.3824080" lon="-3.9563510">
        <ele>880.8</ele>
        <time>2022-06-27T14:47:06Z</time>
      </trkpt>
      <trkpt lat="42.3824280" lon="-3.9564490">
        <ele>880.8</ele>
        <time>2022-06-27T14:47:07Z</time>
      </trkpt>
      <trkpt lat="42.3824490" lon="-3.9565500">
        <ele>881.0</ele>
        <time>2022-06-27T14:47:08Z</time>
      </trkpt>
      <trkpt lat="42.3824690" lon="-3.9566500">
        <ele>881.2</ele>
        <time>2022-06-27T14:47:09Z</time>
      </trkpt>
      <trkpt lat="42.3824900" lon="-3.9567500">
        <ele>881.4</ele>
        <time>2022-06-27T14:47:10Z</time>
      </trkpt>
      <trkpt lat="42.3825120" lon="-3.9568500">
        <ele>881.6</ele>
        <time>2022-06-27T14:47:11Z</time>
      </trkpt>
      <trkpt lat="42.3825330" lon="-3.9569500">
        <ele>881.8</ele>
        <time>2022-06-27T14:47:12Z</time>
      </trkpt>
      <trkpt lat="42.3825570" lon="-3.9570500">
        <ele>882.0</ele>
        <time>2022-06-27T14:47:13Z</time>
      </trkpt>
      <trkpt lat="42.3825790" lon="-3.9571490">
        <ele>882.2</ele>
        <time>2022-06-27T14:47:14Z</time>
      </trkpt>
      <trkpt lat="42.3826000" lon="-3.9572470">
        <ele>882.2</ele>
        <time>2022-06-27T14:47:15Z</time>
      </trkpt>
      <trkpt lat="42.3826230" lon="-3.9573460">
        <ele>882.4</ele>
        <time>2022-06-27T14:47:16Z</time>
      </trkpt>
      <trkpt lat="42.3826460" lon="-3.9574440">
        <ele>882.4</ele>
        <time>2022-06-27T14:47:17Z</time>
      </trkpt>
      <trkpt lat="42.3826700" lon="-3.9575430">
        <ele>882.6</ele>
        <time>2022-06-27T14:47:18Z</time>
      </trkpt>
      <trkpt lat="42.3826940" lon="-3.9576410">
        <ele>882.8</ele>
        <time>2022-06-27T14:47:19Z</time>
      </trkpt>
      <trkpt lat="42.3827190" lon="-3.9577370">
        <ele>882.8</ele>
        <time>2022-06-27T14:47:20Z</time>
      </trkpt>
      <trkpt lat="42.3827440" lon="-3.9578340">
        <ele>883.2</ele>
        <time>2022-06-27T14:47:21Z</time>
      </trkpt>
      <trkpt lat="42.3827680" lon="-3.9579300">
        <ele>883.2</ele>
        <time>2022-06-27T14:47:22Z</time>
      </trkpt>
      <trkpt lat="42.3827910" lon="-3.9580270">
        <ele>883.4</ele>
        <time>2022-06-27T14:47:23Z</time>
      </trkpt>
      <trkpt lat="42.3828150" lon="-3.9581280">
        <ele>883.6</ele>
        <time>2022-06-27T14:47:24Z</time>
      </trkpt>
      <trkpt lat="42.3828380" lon="-3.9582280">
        <ele>883.8</ele>
        <time>2022-06-27T14:47:25Z</time>
      </trkpt>
      <trkpt lat="42.3828640" lon="-3.9583280">
        <ele>883.8</ele>
        <time>2022-06-27T14:47:26Z</time>
      </trkpt>
      <trkpt lat="42.3828910" lon="-3.9584290">
        <ele>884.0</ele>
        <time>2022-06-27T14:47:27Z</time>
      </trkpt>
      <trkpt lat="42.3829170" lon="-3.9585300">
        <ele>884.0</ele>
        <time>2022-06-27T14:47:28Z</time>
      </trkpt>
      <trkpt lat="42.3829420" lon="-3.9586320">
        <ele>884.2</ele>
        <time>2022-06-27T14:47:29Z</time>
      </trkpt>
      <trkpt lat="42.3829680" lon="-3.9587350">
        <ele>884.2</ele>
        <time>2022-06-27T14:47:30Z</time>
      </trkpt>
      <trkpt lat="42.3829930" lon="-3.9588400">
        <ele>884.2</ele>
        <time>2022-06-27T14:47:31Z</time>
      </trkpt>
      <trkpt lat="42.3830180" lon="-3.9589460">
        <ele>884.4</ele>
        <time>2022-06-27T14:47:32Z</time>
      </trkpt>
      <trkpt lat="42.3830420" lon="-3.9590520">
        <ele>884.4</ele>
        <time>2022-06-27T14:47:33Z</time>
      </trkpt>
      <trkpt lat="42.3830630" lon="-3.9591570">
        <ele>884.6</ele>
        <time>2022-06-27T14:47:34Z</time>
      </trkpt>
      <trkpt lat="42.3830830" lon="-3.9592620">
        <ele>884.6</ele>
        <time>2022-06-27T14:47:35Z</time>
      </trkpt>
      <trkpt lat="42.3831070" lon="-3.9593710">
        <ele>884.8</ele>
        <time>2022-06-27T14:47:36Z</time>
      </trkpt>
      <trkpt lat="42.3831300" lon="-3.9594820">
        <ele>884.8</ele>
        <time>2022-06-27T14:47:37Z</time>
      </trkpt>
      <trkpt lat="42.3831510" lon="-3.9595900">
        <ele>884.8</ele>
        <time>2022-06-27T14:47:38Z</time>
      </trkpt>
      <trkpt lat="42.3831720" lon="-3.9596990">
        <ele>885.0</ele>
        <time>2022-06-27T14:47:39Z</time>
      </trkpt>
      <trkpt lat="42.3831920" lon="-3.9598090">
        <ele>885.0</ele>
        <time>2022-06-27T14:47:40Z</time>
      </trkpt>
      <trkpt lat="42.3832130" lon="-3.9599200">
        <ele>885.0</ele>
        <time>2022-06-27T14:47:41Z</time>
      </trkpt>
      <trkpt lat="42.3832320" lon="-3.9600320">
        <ele>885.0</ele>
        <time>2022-06-27T14:47:42Z</time>
      </trkpt>
      <trkpt lat="42.3832490" lon="-3.9601460">
        <ele>885.0</ele>
        <time>2022-06-27T14:47:43Z</time>
      </trkpt>
      <trkpt lat="42.3832660" lon="-3.9602590">
        <ele>885.0</ele>
        <time>2022-06-27T14:47:44Z</time>
      </trkpt>
      <trkpt lat="42.3832830" lon="-3.9603720">
        <ele>885.0</ele>
        <time>2022-06-27T14:47:45Z</time>
      </trkpt>
      <trkpt lat="42.3833000" lon="-3.9604860">
        <ele>885.0</ele>
        <time>2022-06-27T14:47:46Z</time>
      </trkpt>
      <trkpt lat="42.3833180" lon="-3.9606000">
        <ele>885.0</ele>
        <time>2022-06-27T14:47:47Z</time>
      </trkpt>
      <trkpt lat="42.3833340" lon="-3.9607120">
        <ele>885.0</ele>
        <time>2022-06-27T14:47:48Z</time>
      </trkpt>
      <trkpt lat="42.3833520" lon="-3.9608230">
        <ele>885.0</ele>
        <time>2022-06-27T14:47:49Z</time>
      </trkpt>
      <trkpt lat="42.3833680" lon="-3.9609330">
        <ele>885.0</ele>
        <time>2022-06-27T14:47:50Z</time>
      </trkpt>
      <trkpt lat="42.3833850" lon="-3.9610420">
        <ele>885.0</ele>
        <time>2022-06-27T14:47:51Z</time>
      </trkpt>
      <trkpt lat="42.3834010" lon="-3.9611500">
        <ele>885.0</ele>
        <time>2022-06-27T14:47:52Z</time>
      </trkpt>
      <trkpt lat="42.3834180" lon="-3.9612580">
        <ele>885.2</ele>
        <time>2022-06-27T14:47:53Z</time>
      </trkpt>
      <trkpt lat="42.3834340" lon="-3.9613670">
        <ele>885.2</ele>
        <time>2022-06-27T14:47:54Z</time>
      </trkpt>
      <trkpt lat="42.3834490" lon="-3.9614760">
        <ele>885.2</ele>
        <time>2022-06-27T14:47:55Z</time>
      </trkpt>
      <trkpt lat="42.3834660" lon="-3.9615830">
        <ele>885.4</ele>
        <time>2022-06-27T14:47:56Z</time>
      </trkpt>
      <trkpt lat="42.3834820" lon="-3.9616920">
        <ele>885.6</ele>
        <time>2022-06-27T14:47:57Z</time>
      </trkpt>
      <trkpt lat="42.3834980" lon="-3.9618000">
        <ele>885.6</ele>
        <time>2022-06-27T14:47:58Z</time>
      </trkpt>
      <trkpt lat="42.3835150" lon="-3.9619050">
        <ele>885.6</ele>
        <time>2022-06-27T14:47:59Z</time>
      </trkpt>
      <trkpt lat="42.3835310" lon="-3.9620120">
        <ele>885.8</ele>
        <time>2022-06-27T14:48:00Z</time>
      </trkpt>
      <trkpt lat="42.3835470" lon="-3.9621160">
        <ele>886.0</ele>
        <time>2022-06-27T14:48:01Z</time>
      </trkpt>
      <trkpt lat="42.3835640" lon="-3.9622190">
        <ele>886.0</ele>
        <time>2022-06-27T14:48:02Z</time>
      </trkpt>
      <trkpt lat="42.3835790" lon="-3.9623220">
        <ele>886.0</ele>
        <time>2022-06-27T14:48:03Z</time>
      </trkpt>
      <trkpt lat="42.3835920" lon="-3.9624230">
        <ele>886.2</ele>
        <time>2022-06-27T14:48:04Z</time>
      </trkpt>
      <trkpt lat="42.3836050" lon="-3.9625240">
        <ele>886.4</ele>
        <time>2022-06-27T14:48:05Z</time>
      </trkpt>
      <trkpt lat="42.3836200" lon="-3.9626230">
        <ele>886.4</ele>
        <time>2022-06-27T14:48:06Z</time>
      </trkpt>
      <trkpt lat="42.3836330" lon="-3.9627220">
        <ele>886.8</ele>
        <time>2022-06-27T14:48:07Z</time>
      </trkpt>
      <trkpt lat="42.3836500" lon="-3.9628190">
        <ele>887.2</ele>
        <time>2022-06-27T14:48:08Z</time>
      </trkpt>
      <trkpt lat="42.3836660" lon="-3.9629150">
        <ele>887.4</ele>
        <time>2022-06-27T14:48:09Z</time>
      </trkpt>
      <trkpt lat="42.3836820" lon="-3.9630110">
        <ele>887.8</ele>
        <time>2022-06-27T14:48:10Z</time>
      </trkpt>
      <trkpt lat="42.3837000" lon="-3.9631050">
        <ele>888.0</ele>
        <time>2022-06-27T14:48:11Z</time>
      </trkpt>
      <trkpt lat="42.3837180" lon="-3.9631980">
        <ele>888.6</ele>
        <time>2022-06-27T14:48:12Z</time>
      </trkpt>
      <trkpt lat="42.3837350" lon="-3.9632900">
        <ele>888.8</ele>
        <time>2022-06-27T14:48:13Z</time>
      </trkpt>
      <trkpt lat="42.3837540" lon="-3.9633820">
        <ele>888.8</ele>
        <time>2022-06-27T14:48:14Z</time>
      </trkpt>
      <trkpt lat="42.3837730" lon="-3.9634730">
        <ele>889.0</ele>
        <time>2022-06-27T14:48:15Z</time>
      </trkpt>
      <trkpt lat="42.3837950" lon="-3.9635640">
        <ele>889.0</ele>
        <time>2022-06-27T14:48:16Z</time>
      </trkpt>
      <trkpt lat="42.3838160" lon="-3.9636550">
        <ele>889.2</ele>
        <time>2022-06-27T14:48:17Z</time>
      </trkpt>
      <trkpt lat="42.3838370" lon="-3.9637460">
        <ele>889.2</ele>
        <time>2022-06-27T14:48:18Z</time>
      </trkpt>
      <trkpt lat="42.3838590" lon="-3.9638370">
        <ele>889.4</ele>
        <time>2022-06-27T14:48:19Z</time>
      </trkpt>
      <trkpt lat="42.3838830" lon="-3.9639280">
        <ele>889.4</ele>
        <time>2022-06-27T14:48:20Z</time>
      </trkpt>
      <trkpt lat="42.3839080" lon="-3.9640170">
        <ele>889.4</ele>
        <time>2022-06-27T14:48:21Z</time>
      </trkpt>
      <trkpt lat="42.3839340" lon="-3.9641050">
        <ele>889.6</ele>
        <time>2022-06-27T14:48:22Z</time>
      </trkpt>
      <trkpt lat="42.3839620" lon="-3.9641910">
        <ele>890.2</ele>
        <time>2022-06-27T14:48:23Z</time>
      </trkpt>
      <trkpt lat="42.3839890" lon="-3.9642770">
        <ele>890.6</ele>
        <time>2022-06-27T14:48:24Z</time>
      </trkpt>
      <trkpt lat="42.3840140" lon="-3.9643630">
        <ele>890.6</ele>
        <time>2022-06-27T14:48:25Z</time>
      </trkpt>
      <trkpt lat="42.3840440" lon="-3.9644480">
        <ele>891.0</ele>
        <time>2022-06-27T14:48:26Z</time>
      </trkpt>
      <trkpt lat="42.3840730" lon="-3.9645330">
        <ele>891.2</ele>
        <time>2022-06-27T14:48:27Z</time>
      </trkpt>
      <trkpt lat="42.3841020" lon="-3.9646180">
        <ele>891.4</ele>
        <time>2022-06-27T14:48:28Z</time>
      </trkpt>
      <trkpt lat="42.3841310" lon="-3.9647020">
        <ele>891.6</ele>
        <time>2022-06-27T14:48:29Z</time>
      </trkpt>
      <trkpt lat="42.3841600" lon="-3.9647870">
        <ele>891.6</ele>
        <time>2022-06-27T14:48:30Z</time>
      </trkpt>
      <trkpt lat="42.3841880" lon="-3.9648720">
        <ele>891.8</ele>
        <time>2022-06-27T14:48:31Z</time>
      </trkpt>
      <trkpt lat="42.3842160" lon="-3.9649560">
        <ele>892.0</ele>
        <time>2022-06-27T14:48:32Z</time>
      </trkpt>
      <trkpt lat="42.3842430" lon="-3.9650380">
        <ele>892.2</ele>
        <time>2022-06-27T14:48:33Z</time>
      </trkpt>
      <trkpt lat="42.3842700" lon="-3.9651200">
        <ele>892.4</ele>
        <time>2022-06-27T14:48:34Z</time>
      </trkpt>
      <trkpt lat="42.3842970" lon="-3.9652000">
        <ele>892.6</ele>
        <time>2022-06-27T14:48:35Z</time>
      </trkpt>
      <trkpt lat="42.3843230" lon="-3.9652810">
        <ele>892.8</ele>
        <time>2022-06-27T14:48:36Z</time>
      </trkpt>
      <trkpt lat="42.3843490" lon="-3.9653610">
        <ele>892.8</ele>
        <time>2022-06-27T14:48:37Z</time>
      </trkpt>
      <trkpt lat="42.3843770" lon="-3.9654420">
        <ele>893.0</ele>
        <time>2022-06-27T14:48:38Z</time>
      </trkpt>
      <trkpt lat="42.3844040" lon="-3.9655240">
        <ele>893.0</ele>
        <time>2022-06-27T14:48:39Z</time>
      </trkpt>
      <trkpt lat="42.3844320" lon="-3.9656050">
        <ele>893.2</ele>
        <time>2022-06-27T14:48:40Z</time>
      </trkpt>
      <trkpt lat="42.3844610" lon="-3.9656860">
        <ele>893.6</ele>
        <time>2022-06-27T14:48:41Z</time>
      </trkpt>
      <trkpt lat="42.3844890" lon="-3.9657660">
        <ele>894.2</ele>
        <time>2022-06-27T14:48:42Z</time>
      </trkpt>
      <trkpt lat="42.3845170" lon="-3.9658480">
        <ele>894.4</ele>
        <time>2022-06-27T14:48:43Z</time>
      </trkpt>
      <trkpt lat="42.3845440" lon="-3.9659290">
        <ele>894.4</ele>
        <time>2022-06-27T14:48:44Z</time>
      </trkpt>
      <trkpt lat="42.3845710" lon="-3.9660110">
        <ele>894.8</ele>
        <time>2022-06-27T14:48:45Z</time>
      </trkpt>
      <trkpt lat="42.3845980" lon="-3.9660920">
        <ele>894.8</ele>
        <time>2022-06-27T14:48:46Z</time>
      </trkpt>
      <trkpt lat="42.3846260" lon="-3.9661730">
        <ele>895.2</ele>
        <time>2022-06-27T14:48:47Z</time>
      </trkpt>
      <trkpt lat="42.3846530" lon="-3.9662550">
        <ele>895.4</ele>
        <time>2022-06-27T14:48:48Z</time>
      </trkpt>
      <trkpt lat="42.3846800" lon="-3.9663360">
        <ele>895.6</ele>
        <time>2022-06-27T14:48:49Z</time>
      </trkpt>
      <trkpt lat="42.3847070" lon="-3.9664180">
        <ele>895.8</ele>
        <time>2022-06-27T14:48:50Z</time>
      </trkpt>
      <trkpt lat="42.3847340" lon="-3.9664980">
        <ele>895.8</ele>
        <time>2022-06-27T14:48:51Z</time>
      </trkpt>
      <trkpt lat="42.3847610" lon="-3.9665780">
        <ele>896.2</ele>
        <time>2022-06-27T14:48:52Z</time>
      </trkpt>
      <trkpt lat="42.3847870" lon="-3.9666580">
        <ele>896.2</ele>
        <time>2022-06-27T14:48:53Z</time>
      </trkpt>
      <trkpt lat="42.3848120" lon="-3.9667380">
        <ele>896.4</ele>
        <time>2022-06-27T14:48:54Z</time>
      </trkpt>
      <trkpt lat="42.3848370" lon="-3.9668170">
        <ele>896.6</ele>
        <time>2022-06-27T14:48:55Z</time>
      </trkpt>
      <trkpt lat="42.3848620" lon="-3.9668970">
        <ele>896.8</ele>
        <time>2022-06-27T14:48:56Z</time>
      </trkpt>
      <trkpt lat="42.3848870" lon="-3.9669750">
        <ele>896.8</ele>
        <time>2022-06-27T14:48:57Z</time>
      </trkpt>
      <trkpt lat="42.3849150" lon="-3.9670550">
        <ele>897.0</ele>
        <time>2022-06-27T14:48:58Z</time>
      </trkpt>
      <trkpt lat="42.3849450" lon="-3.9671330">
        <ele>897.2</ele>
        <time>2022-06-27T14:48:59Z</time>
      </trkpt>
      <trkpt lat="42.3849740" lon="-3.9672110">
        <ele>897.2</ele>
        <time>2022-06-27T14:49:00Z</time>
      </trkpt>
      <trkpt lat="42.3850030" lon="-3.9672920">
        <ele>897.4</ele>
        <time>2022-06-27T14:49:01Z</time>
      </trkpt>
      <trkpt lat="42.3850310" lon="-3.9673720">
        <ele>897.6</ele>
        <time>2022-06-27T14:49:02Z</time>
      </trkpt>
      <trkpt lat="42.3850610" lon="-3.9674530">
        <ele>897.8</ele>
        <time>2022-06-27T14:49:03Z</time>
      </trkpt>
      <trkpt lat="42.3850930" lon="-3.9675320">
        <ele>898.0</ele>
        <time>2022-06-27T14:49:04Z</time>
      </trkpt>
      <trkpt lat="42.3851280" lon="-3.9676080">
        <ele>898.2</ele>
        <time>2022-06-27T14:49:05Z</time>
      </trkpt>
      <trkpt lat="42.3851660" lon="-3.9676820">
        <ele>898.4</ele>
        <time>2022-06-27T14:49:06Z</time>
      </trkpt>
      <trkpt lat="42.3852030" lon="-3.9677540">
        <ele>898.4</ele>
        <time>2022-06-27T14:49:07Z</time>
      </trkpt>
      <trkpt lat="42.3852420" lon="-3.9678260">
        <ele>898.8</ele>
        <time>2022-06-27T14:49:08Z</time>
      </trkpt>
      <trkpt lat="42.3852800" lon="-3.9678970">
        <ele>898.8</ele>
        <time>2022-06-27T14:49:09Z</time>
      </trkpt>
      <trkpt lat="42.3853200" lon="-3.9679690">
        <ele>899.0</ele>
        <time>2022-06-27T14:49:10Z</time>
      </trkpt>
      <trkpt lat="42.3853590" lon="-3.9680410">
        <ele>899.0</ele>
        <time>2022-06-27T14:49:11Z</time>
      </trkpt>
      <trkpt lat="42.3854000" lon="-3.9681100">
        <ele>899.2</ele>
        <time>2022-06-27T14:49:12Z</time>
      </trkpt>
      <trkpt lat="42.3854430" lon="-3.9681780">
        <ele>899.4</ele>
        <time>2022-06-27T14:49:13Z</time>
      </trkpt>
      <trkpt lat="42.3854870" lon="-3.9682430">
        <ele>899.4</ele>
        <time>2022-06-27T14:49:14Z</time>
      </trkpt>
      <trkpt lat="42.3855320" lon="-3.9683060">
        <ele>899.6</ele>
        <time>2022-06-27T14:49:15Z</time>
      </trkpt>
      <trkpt lat="42.3855770" lon="-3.9683670">
        <ele>899.8</ele>
        <time>2022-06-27T14:49:16Z</time>
      </trkpt>
      <trkpt lat="42.3856210" lon="-3.9684290">
        <ele>900.0</ele>
        <time>2022-06-27T14:49:17Z</time>
      </trkpt>
      <trkpt lat="42.3856660" lon="-3.9684860">
        <ele>900.2</ele>
        <time>2022-06-27T14:49:18Z</time>
      </trkpt>
      <trkpt lat="42.3857120" lon="-3.9685410">
        <ele>900.4</ele>
        <time>2022-06-27T14:49:19Z</time>
      </trkpt>
      <trkpt lat="42.3857590" lon="-3.9685970">
        <ele>900.8</ele>
        <time>2022-06-27T14:49:20Z</time>
      </trkpt>
      <trkpt lat="42.3858050" lon="-3.9686530">
        <ele>901.0</ele>
        <time>2022-06-27T14:49:21Z</time>
      </trkpt>
      <trkpt lat="42.3858500" lon="-3.9687080">
        <ele>901.2</ele>
        <time>2022-06-27T14:49:22Z</time>
      </trkpt>
      <trkpt lat="42.3858940" lon="-3.9687640">
        <ele>901.6</ele>
        <time>2022-06-27T14:49:23Z</time>
      </trkpt>
      <trkpt lat="42.3859360" lon="-3.9688220">
        <ele>901.8</ele>
        <time>2022-06-27T14:49:24Z</time>
      </trkpt>
      <trkpt lat="42.3859790" lon="-3.9688800">
        <ele>902.0</ele>
        <time>2022-06-27T14:49:25Z</time>
      </trkpt>
      <trkpt lat="42.3860190" lon="-3.9689390">
        <ele>902.0</ele>
        <time>2022-06-27T14:49:26Z</time>
      </trkpt>
      <trkpt lat="42.3860580" lon="-3.9689990">
        <ele>902.4</ele>
        <time>2022-06-27T14:49:27Z</time>
      </trkpt>
      <trkpt lat="42.3860990" lon="-3.9690580">
        <ele>902.6</ele>
        <time>2022-06-27T14:49:28Z</time>
      </trkpt>
      <trkpt lat="42.3861390" lon="-3.9691170">
        <ele>903.0</ele>
        <time>2022-06-27T14:49:29Z</time>
      </trkpt>
      <trkpt lat="42.3861790" lon="-3.9691750">
        <ele>903.2</ele>
        <time>2022-06-27T14:49:30Z</time>
      </trkpt>
      <trkpt lat="42.3862170" lon="-3.9692330">
        <ele>903.6</ele>
        <time>2022-06-27T14:49:31Z</time>
      </trkpt>
      <trkpt lat="42.3862530" lon="-3.9692930">
        <ele>903.6</ele>
        <time>2022-06-27T14:49:32Z</time>
      </trkpt>
      <trkpt lat="42.3862880" lon="-3.9693540">
        <ele>903.8</ele>
        <time>2022-06-27T14:49:33Z</time>
      </trkpt>
      <trkpt lat="42.3863220" lon="-3.9694160">
        <ele>904.2</ele>
        <time>2022-06-27T14:49:34Z</time>
      </trkpt>
      <trkpt lat="42.3863570" lon="-3.9694770">
        <ele>904.4</ele>
        <time>2022-06-27T14:49:35Z</time>
      </trkpt>
      <trkpt lat="42.3863910" lon="-3.9695400">
        <ele>904.6</ele>
        <time>2022-06-27T14:49:36Z</time>
      </trkpt>
      <trkpt lat="42.3864240" lon="-3.9696050">
        <ele>904.8</ele>
        <time>2022-06-27T14:49:37Z</time>
      </trkpt>
      <trkpt lat="42.3864560" lon="-3.9696700">
        <ele>905.0</ele>
        <time>2022-06-27T14:49:38Z</time>
      </trkpt>
      <trkpt lat="42.3864860" lon="-3.9697370">
        <ele>905.0</ele>
        <time>2022-06-27T14:49:39Z</time>
      </trkpt>
      <trkpt lat="42.3865150" lon="-3.9698050">
        <ele>905.4</ele>
        <time>2022-06-27T14:49:40Z</time>
      </trkpt>
      <trkpt lat="42.3865420" lon="-3.9698740">
        <ele>905.6</ele>
        <time>2022-06-27T14:49:41Z</time>
      </trkpt>
      <trkpt lat="42.3865680" lon="-3.9699450">
        <ele>905.8</ele>
        <time>2022-06-27T14:49:42Z</time>
      </trkpt>
      <trkpt lat="42.3865940" lon="-3.9700150">
        <ele>906.0</ele>
        <time>2022-06-27T14:49:43Z</time>
      </trkpt>
      <trkpt lat="42.3866180" lon="-3.9700840">
        <ele>906.0</ele>
        <time>2022-06-27T14:49:44Z</time>
      </trkpt>
      <trkpt lat="42.3866410" lon="-3.9701540">
        <ele>906.2</ele>
        <time>2022-06-27T14:49:45Z</time>
      </trkpt>
      <trkpt lat="42.3866640" lon="-3.9702240">
        <ele>906.2</ele>
        <time>2022-06-27T14:49:46Z</time>
      </trkpt>
      <trkpt lat="42.3866850" lon="-3.9702920">
        <ele>906.6</ele>
        <time>2022-06-27T14:49:47Z</time>
      </trkpt>
      <trkpt lat="42.3867050" lon="-3.9703630">
        <ele>906.8</ele>
        <time>2022-06-27T14:49:48Z</time>
      </trkpt>
      <trkpt lat="42.3867240" lon="-3.9704350">
        <ele>907.0</ele>
        <time>2022-06-27T14:49:49Z</time>
      </trkpt>
      <trkpt lat="42.3867430" lon="-3.9705080">
        <ele>907.2</ele>
        <time>2022-06-27T14:49:50Z</time>
      </trkpt>
      <trkpt lat="42.3867630" lon="-3.9705810">
        <ele>907.4</ele>
        <time>2022-06-27T14:49:51Z</time>
      </trkpt>
      <trkpt lat="42.3867820" lon="-3.9706560">
        <ele>907.8</ele>
        <time>2022-06-27T14:49:52Z</time>
      </trkpt>
      <trkpt lat="42.3868000" lon="-3.9707330">
        <ele>908.0</ele>
        <time>2022-06-27T14:49:53Z</time>
      </trkpt>
      <trkpt lat="42.3868170" lon="-3.9708090">
        <ele>908.2</ele>
        <time>2022-06-27T14:49:54Z</time>
      </trkpt>
      <trkpt lat="42.3868320" lon="-3.9708840">
        <ele>908.4</ele>
        <time>2022-06-27T14:49:55Z</time>
      </trkpt>
      <trkpt lat="42.3868480" lon="-3.9709580">
        <ele>908.6</ele>
        <time>2022-06-27T14:49:56Z</time>
      </trkpt>
      <trkpt lat="42.3868640" lon="-3.9710350">
        <ele>908.8</ele>
        <time>2022-06-27T14:49:57Z</time>
      </trkpt>
      <trkpt lat="42.3868810" lon="-3.9711110">
        <ele>909.0</ele>
        <time>2022-06-27T14:49:58Z</time>
      </trkpt>
      <trkpt lat="42.3868970" lon="-3.9711840">
        <ele>909.4</ele>
        <time>2022-06-27T14:49:59Z</time>
      </trkpt>
      <trkpt lat="42.3869160" lon="-3.9712580">
        <ele>909.6</ele>
        <time>2022-06-27T14:50:00Z</time>
      </trkpt>
      <trkpt lat="42.3869330" lon="-3.9713320">
        <ele>909.8</ele>
        <time>2022-06-27T14:50:01Z</time>
      </trkpt>
      <trkpt lat="42.3869530" lon="-3.9714050">
        <ele>910.0</ele>
        <time>2022-06-27T14:50:02Z</time>
      </trkpt>
      <trkpt lat="42.3869750" lon="-3.9714780">
        <ele>910.0</ele>
        <time>2022-06-27T14:50:03Z</time>
      </trkpt>
      <trkpt lat="42.3870000" lon="-3.9715500">
        <ele>910.2</ele>
        <time>2022-06-27T14:50:04Z</time>
      </trkpt>
      <trkpt lat="42.3870250" lon="-3.9716200">
        <ele>910.4</ele>
        <time>2022-06-27T14:50:05Z</time>
      </trkpt>
      <trkpt lat="42.3870490" lon="-3.9716920">
        <ele>910.6</ele>
        <time>2022-06-27T14:50:06Z</time>
      </trkpt>
      <trkpt lat="42.3870750" lon="-3.9717630">
        <ele>910.6</ele>
        <time>2022-06-27T14:50:07Z</time>
      </trkpt>
      <trkpt lat="42.3871020" lon="-3.9718330">
        <ele>911.0</ele>
        <time>2022-06-27T14:50:08Z</time>
      </trkpt>
      <trkpt lat="42.3871310" lon="-3.9719000">
        <ele>911.2</ele>
        <time>2022-06-27T14:50:09Z</time>
      </trkpt>
      <trkpt lat="42.3871620" lon="-3.9719680">
        <ele>911.2</ele>
        <time>2022-06-27T14:50:10Z</time>
      </trkpt>
      <trkpt lat="42.3871930" lon="-3.9720350">
        <ele>911.4</ele>
        <time>2022-06-27T14:50:11Z</time>
      </trkpt>
      <trkpt lat="42.3872250" lon="-3.9721010">
        <ele>911.6</ele>
        <time>2022-06-27T14:50:12Z</time>
      </trkpt>
      <trkpt lat="42.3872590" lon="-3.9721650">
        <ele>911.8</ele>
        <time>2022-06-27T14:50:13Z</time>
      </trkpt>
      <trkpt lat="42.3872930" lon="-3.9722270">
        <ele>912.0</ele>
        <time>2022-06-27T14:50:14Z</time>
      </trkpt>
      <trkpt lat="42.3873280" lon="-3.9722890">
        <ele>912.2</ele>
        <time>2022-06-27T14:50:15Z</time>
      </trkpt>
      <trkpt lat="42.3873640" lon="-3.9723520">
        <ele>912.6</ele>
        <time>2022-06-27T14:50:16Z</time>
      </trkpt>
      <trkpt lat="42.3874010" lon="-3.9724140">
        <ele>912.8</ele>
        <time>2022-06-27T14:50:17Z</time>
      </trkpt>
      <trkpt lat="42.3874410" lon="-3.9724740">
        <ele>913.0</ele>
        <time>2022-06-27T14:50:18Z</time>
      </trkpt>
      <trkpt lat="42.3874820" lon="-3.9725310">
        <ele>913.0</ele>
        <time>2022-06-27T14:50:19Z</time>
      </trkpt>
      <trkpt lat="42.3875230" lon="-3.9725860">
        <ele>913.4</ele>
        <time>2022-06-27T14:50:20Z</time>
      </trkpt>
      <trkpt lat="42.3875640" lon="-3.9726400">
        <ele>913.6</ele>
        <time>2022-06-27T14:50:21Z</time>
      </trkpt>
      <trkpt lat="42.3876060" lon="-3.9726950">
        <ele>913.8</ele>
        <time>2022-06-27T14:50:22Z</time>
      </trkpt>
      <trkpt lat="42.3876490" lon="-3.9727470">
        <ele>914.0</ele>
        <time>2022-06-27T14:50:23Z</time>
      </trkpt>
      <trkpt lat="42.3876930" lon="-3.9727990">
        <ele>914.2</ele>
        <time>2022-06-27T14:50:24Z</time>
      </trkpt>
      <trkpt lat="42.3877370" lon="-3.9728500">
        <ele>914.4</ele>
        <time>2022-06-27T14:50:25Z</time>
      </trkpt>
      <trkpt lat="42.3877790" lon="-3.9729030">
        <ele>914.4</ele>
        <time>2022-06-27T14:50:26Z</time>
      </trkpt>
      <trkpt lat="42.3878210" lon="-3.9729570">
        <ele>914.8</ele>
        <time>2022-06-27T14:50:27Z</time>
      </trkpt>
      <trkpt lat="42.3878640" lon="-3.9730080">
        <ele>914.8</ele>
        <time>2022-06-27T14:50:28Z</time>
      </trkpt>
      <trkpt lat="42.3879060" lon="-3.9730630">
        <ele>915.6</ele>
        <time>2022-06-27T14:50:29Z</time>
      </trkpt>
      <trkpt lat="42.3879470" lon="-3.9731180">
        <ele>916.0</ele>
        <time>2022-06-27T14:50:30Z</time>
      </trkpt>
      <trkpt lat="42.3879870" lon="-3.9731730">
        <ele>916.0</ele>
        <time>2022-06-27T14:50:31Z</time>
      </trkpt>
      <trkpt lat="42.3880260" lon="-3.9732280">
        <ele>916.2</ele>
        <time>2022-06-27T14:50:32Z</time>
      </trkpt>
      <trkpt lat="42.3880650" lon="-3.9732820">
        <ele>916.2</ele>
        <time>2022-06-27T14:50:33Z</time>
      </trkpt>
      <trkpt lat="42.3881050" lon="-3.9733390">
        <ele>916.4</ele>
        <time>2022-06-27T14:50:34Z</time>
      </trkpt>
      <trkpt lat="42.3881430" lon="-3.9733950">
        <ele>916.4</ele>
        <time>2022-06-27T14:50:35Z</time>
      </trkpt>
      <trkpt lat="42.3881800" lon="-3.9734530">
        <ele>916.8</ele>
        <time>2022-06-27T14:50:36Z</time>
      </trkpt>
      <trkpt lat="42.3882150" lon="-3.9735140">
        <ele>917.6</ele>
        <time>2022-06-27T14:50:37Z</time>
      </trkpt>
      <trkpt lat="42.3882500" lon="-3.9735790">
        <ele>917.8</ele>
        <time>2022-06-27T14:50:38Z</time>
      </trkpt>
      <trkpt lat="42.3882840" lon="-3.9736460">
        <ele>918.2</ele>
        <time>2022-06-27T14:50:39Z</time>
      </trkpt>
      <trkpt lat="42.3883160" lon="-3.9737140">
        <ele>918.2</ele>
        <time>2022-06-27T14:50:40Z</time>
      </trkpt>
      <trkpt lat="42.3883470" lon="-3.9737800">
        <ele>918.4</ele>
        <time>2022-06-27T14:50:41Z</time>
      </trkpt>
      <trkpt lat="42.3883760" lon="-3.9738500">
        <ele>918.6</ele>
        <time>2022-06-27T14:50:42Z</time>
      </trkpt>
      <trkpt lat="42.3884060" lon="-3.9739190">
        <ele>918.6</ele>
        <time>2022-06-27T14:50:43Z</time>
      </trkpt>
      <trkpt lat="42.3884340" lon="-3.9739890">
        <ele>918.8</ele>
        <time>2022-06-27T14:50:44Z</time>
      </trkpt>
      <trkpt lat="42.3884610" lon="-3.9740600">
        <ele>918.8</ele>
        <time>2022-06-27T14:50:45Z</time>
      </trkpt>
      <trkpt lat="42.3884870" lon="-3.9741310">
        <ele>919.0</ele>
        <time>2022-06-27T14:50:46Z</time>
      </trkpt>
      <trkpt lat="42.3885090" lon="-3.9742010">
        <ele>919.0</ele>
        <time>2022-06-27T14:50:47Z</time>
      </trkpt>
      <trkpt lat="42.3885330" lon="-3.9742740">
        <ele>919.4</ele>
        <time>2022-06-27T14:50:48Z</time>
      </trkpt>
      <trkpt lat="42.3885540" lon="-3.9743470">
        <ele>919.4</ele>
        <time>2022-06-27T14:50:49Z</time>
      </trkpt>
      <trkpt lat="42.3885730" lon="-3.9744210">
        <ele>919.8</ele>
        <time>2022-06-27T14:50:50Z</time>
      </trkpt>
      <trkpt lat="42.3885910" lon="-3.9744950">
        <ele>920.2</ele>
        <time>2022-06-27T14:50:51Z</time>
      </trkpt>
      <trkpt lat="42.3886070" lon="-3.9745720">
        <ele>920.4</ele>
        <time>2022-06-27T14:50:52Z</time>
      </trkpt>
      <trkpt lat="42.3886220" lon="-3.9746500">
        <ele>920.4</ele>
        <time>2022-06-27T14:50:53Z</time>
      </trkpt>
      <trkpt lat="42.3886350" lon="-3.9747300">
        <ele>920.6</ele>
        <time>2022-06-27T14:50:54Z</time>
      </trkpt>
      <trkpt lat="42.3886480" lon="-3.9748080">
        <ele>920.8</ele>
        <time>2022-06-27T14:50:55Z</time>
      </trkpt>
      <trkpt lat="42.3886590" lon="-3.9748890">
        <ele>921.0</ele>
        <time>2022-06-27T14:50:56Z</time>
      </trkpt>
      <trkpt lat="42.3886690" lon="-3.9749710">
        <ele>921.4</ele>
        <time>2022-06-27T14:50:57Z</time>
      </trkpt>
      <trkpt lat="42.3886780" lon="-3.9750540">
        <ele>922.0</ele>
        <time>2022-06-27T14:50:58Z</time>
      </trkpt>
      <trkpt lat="42.3886860" lon="-3.9751370">
        <ele>922.2</ele>
        <time>2022-06-27T14:50:59Z</time>
      </trkpt>
      <trkpt lat="42.3886900" lon="-3.9752210">
        <ele>922.6</ele>
        <time>2022-06-27T14:51:00Z</time>
      </trkpt>
      <trkpt lat="42.3886940" lon="-3.9753060">
        <ele>922.8</ele>
        <time>2022-06-27T14:51:01Z</time>
      </trkpt>
      <trkpt lat="42.3886950" lon="-3.9753880">
        <ele>923.0</ele>
        <time>2022-06-27T14:51:02Z</time>
      </trkpt>
      <trkpt lat="42.3886950" lon="-3.9754710">
        <ele>923.2</ele>
        <time>2022-06-27T14:51:03Z</time>
      </trkpt>
      <trkpt lat="42.3886940" lon="-3.9755560">
        <ele>923.4</ele>
        <time>2022-06-27T14:51:04Z</time>
      </trkpt>
      <trkpt lat="42.3886910" lon="-3.9756400">
        <ele>923.6</ele>
        <time>2022-06-27T14:51:05Z</time>
      </trkpt>
      <trkpt lat="42.3886860" lon="-3.9757260">
        <ele>923.8</ele>
        <time>2022-06-27T14:51:06Z</time>
      </trkpt>
      <trkpt lat="42.3886790" lon="-3.9758090">
        <ele>924.0</ele>
        <time>2022-06-27T14:51:07Z</time>
      </trkpt>
      <trkpt lat="42.3886700" lon="-3.9758940">
        <ele>924.0</ele>
        <time>2022-06-27T14:51:08Z</time>
      </trkpt>
      <trkpt lat="42.3886580" lon="-3.9759780">
        <ele>924.0</ele>
        <time>2022-06-27T14:51:09Z</time>
      </trkpt>
      <trkpt lat="42.3886450" lon="-3.9760630">
        <ele>924.2</ele>
        <time>2022-06-27T14:51:10Z</time>
      </trkpt>
      <trkpt lat="42.3886320" lon="-3.9761500">
        <ele>924.2</ele>
        <time>2022-06-27T14:51:11Z</time>
      </trkpt>
      <trkpt lat="42.3886180" lon="-3.9762380">
        <ele>924.6</ele>
        <time>2022-06-27T14:51:12Z</time>
      </trkpt>
      <trkpt lat="42.3886030" lon="-3.9763260">
        <ele>924.8</ele>
        <time>2022-06-27T14:51:13Z</time>
      </trkpt>
      <trkpt lat="42.3885870" lon="-3.9764140">
        <ele>924.8</ele>
        <time>2022-06-27T14:51:14Z</time>
      </trkpt>
      <trkpt lat="42.3885700" lon="-3.9765030">
        <ele>925.0</ele>
        <time>2022-06-27T14:51:15Z</time>
      </trkpt>
      <trkpt lat="42.3885530" lon="-3.9765900">
        <ele>925.0</ele>
        <time>2022-06-27T14:51:16Z</time>
      </trkpt>
      <trkpt lat="42.3885340" lon="-3.9766800">
        <ele>925.2</ele>
        <time>2022-06-27T14:51:17Z</time>
      </trkpt>
      <trkpt lat="42.3885150" lon="-3.9767700">
        <ele>925.4</ele>
        <time>2022-06-27T14:51:18Z</time>
      </trkpt>
      <trkpt lat="42.3884910" lon="-3.9768780">
        <ele>925.4</ele>
        <time>2022-06-27T14:51:19Z</time>
      </trkpt>
      <trkpt lat="42.3884760" lon="-3.9769490">
        <ele>925.8</ele>
        <time>2022-06-27T14:51:20Z</time>
      </trkpt>
      <trkpt lat="42.3884560" lon="-3.9770600">
        <ele>926.2</ele>
        <time>2022-06-27T14:51:21Z</time>
      </trkpt>
      <trkpt lat="42.3884410" lon="-3.9771350">
        <ele>926.4</ele>
        <time>2022-06-27T14:51:22Z</time>
      </trkpt>
      <trkpt lat="42.3884230" lon="-3.9772270">
        <ele>926.8</ele>
        <time>2022-06-27T14:51:23Z</time>
      </trkpt>
      <trkpt lat="42.3884060" lon="-3.9773200">
        <ele>926.8</ele>
        <time>2022-06-27T14:51:24Z</time>
      </trkpt>
      <trkpt lat="42.3883840" lon="-3.9774330">
        <ele>927.4</ele>
        <time>2022-06-27T14:51:25Z</time>
      </trkpt>
      <trkpt lat="42.3883650" lon="-3.9775270">
        <ele>927.4</ele>
        <time>2022-06-27T14:51:26Z</time>
      </trkpt>
      <trkpt lat="42.3883510" lon="-3.9776020">
        <ele>927.8</ele>
        <time>2022-06-27T14:51:27Z</time>
      </trkpt>
      <trkpt lat="42.3883350" lon="-3.9776970">
        <ele>928.0</ele>
        <time>2022-06-27T14:51:28Z</time>
      </trkpt>
      <trkpt lat="42.3883190" lon="-3.9778130">
        <ele>928.2</ele>
        <time>2022-06-27T14:51:29Z</time>
      </trkpt>
      <trkpt lat="42.3883110" lon="-3.9778910">
        <ele>928.2</ele>
        <time>2022-06-27T14:51:30Z</time>
      </trkpt>
      <trkpt lat="42.3883020" lon="-3.9779880">
        <ele>928.2</ele>
        <time>2022-06-27T14:51:31Z</time>
      </trkpt>
      <trkpt lat="42.3882950" lon="-3.9780850">
        <ele>928.4</ele>
        <time>2022-06-27T14:51:32Z</time>
      </trkpt>
      <trkpt lat="42.3882910" lon="-3.9781820">
        <ele>928.6</ele>
        <time>2022-06-27T14:51:33Z</time>
      </trkpt>
      <trkpt lat="42.3882890" lon="-3.9782790">
        <ele>928.8</ele>
        <time>2022-06-27T14:51:34Z</time>
      </trkpt>
      <trkpt lat="42.3882880" lon="-3.9783780">
        <ele>929.0</ele>
        <time>2022-06-27T14:51:35Z</time>
      </trkpt>
      <trkpt lat="42.3882910" lon="-3.9784760">
        <ele>929.2</ele>
        <time>2022-06-27T14:51:36Z</time>
      </trkpt>
      <trkpt lat="42.3882960" lon="-3.9785750">
        <ele>929.4</ele>
        <time>2022-06-27T14:51:37Z</time>
      </trkpt>
      <trkpt lat="42.3883040" lon="-3.9786730">
        <ele>929.6</ele>
        <time>2022-06-27T14:51:38Z</time>
      </trkpt>
      <trkpt lat="42.3883150" lon="-3.9787720">
        <ele>929.8</ele>
        <time>2022-06-27T14:51:39Z</time>
      </trkpt>
      <trkpt lat="42.3883270" lon="-3.9788700">
        <ele>930.0</ele>
        <time>2022-06-27T14:51:40Z</time>
      </trkpt>
      <trkpt lat="42.3883400" lon="-3.9789670">
        <ele>930.6</ele>
        <time>2022-06-27T14:51:41Z</time>
      </trkpt>
      <trkpt lat="42.3883560" lon="-3.9790630">
        <ele>931.0</ele>
        <time>2022-06-27T14:51:42Z</time>
      </trkpt>
      <trkpt lat="42.3883740" lon="-3.9791580">
        <ele>931.0</ele>
        <time>2022-06-27T14:51:43Z</time>
      </trkpt>
      <trkpt lat="42.3883960" lon="-3.9792490">
        <ele>931.4</ele>
        <time>2022-06-27T14:51:44Z</time>
      </trkpt>
      <trkpt lat="42.3884200" lon="-3.9793400">
        <ele>931.6</ele>
        <time>2022-06-27T14:51:45Z</time>
      </trkpt>
      <trkpt lat="42.3884440" lon="-3.9794320">
        <ele>931.8</ele>
        <time>2022-06-27T14:51:46Z</time>
      </trkpt>
      <trkpt lat="42.3884700" lon="-3.9795220">
        <ele>931.8</ele>
        <time>2022-06-27T14:51:47Z</time>
      </trkpt>
      <trkpt lat="42.3884980" lon="-3.9796100">
        <ele>932.0</ele>
        <time>2022-06-27T14:51:48Z</time>
      </trkpt>
      <trkpt lat="42.3885240" lon="-3.9796990">
        <ele>932.2</ele>
        <time>2022-06-27T14:51:49Z</time>
      </trkpt>
      <trkpt lat="42.3885530" lon="-3.9797860">
        <ele>932.2</ele>
        <time>2022-06-27T14:51:50Z</time>
      </trkpt>
      <trkpt lat="42.3885820" lon="-3.9798730">
        <ele>932.6</ele>
        <time>2022-06-27T14:51:51Z</time>
      </trkpt>
      <trkpt lat="42.3886120" lon="-3.9799600">
        <ele>932.8</ele>
        <time>2022-06-27T14:51:52Z</time>
      </trkpt>
      <trkpt lat="42.3886410" lon="-3.9800440">
        <ele>933.0</ele>
        <time>2022-06-27T14:51:53Z</time>
      </trkpt>
      <trkpt lat="42.3886710" lon="-3.9801300">
        <ele>933.2</ele>
        <time>2022-06-27T14:51:54Z</time>
      </trkpt>
      <trkpt lat="42.3887000" lon="-3.9802180">
        <ele>933.6</ele>
        <time>2022-06-27T14:51:55Z</time>
      </trkpt>
      <trkpt lat="42.3887280" lon="-3.9803030">
        <ele>933.8</ele>
        <time>2022-06-27T14:51:56Z</time>
      </trkpt>
      <trkpt lat="42.3887570" lon="-3.9803890">
        <ele>934.0</ele>
        <time>2022-06-27T14:51:57Z</time>
      </trkpt>
      <trkpt lat="42.3887850" lon="-3.9804750">
        <ele>934.2</ele>
        <time>2022-06-27T14:51:58Z</time>
      </trkpt>
      <trkpt lat="42.3888110" lon="-3.9805610">
        <ele>934.4</ele>
        <time>2022-06-27T14:51:59Z</time>
      </trkpt>
      <trkpt lat="42.3888370" lon="-3.9806460">
        <ele>935.0</ele>
        <time>2022-06-27T14:52:00Z</time>
      </trkpt>
      <trkpt lat="42.3888610" lon="-3.9807320">
        <ele>935.4</ele>
        <time>2022-06-27T14:52:01Z</time>
      </trkpt>
      <trkpt lat="42.3888860" lon="-3.9808190">
        <ele>935.4</ele>
        <time>2022-06-27T14:52:02Z</time>
      </trkpt>
      <trkpt lat="42.3889090" lon="-3.9809080">
        <ele>936.0</ele>
        <time>2022-06-27T14:52:03Z</time>
      </trkpt>
      <trkpt lat="42.3889320" lon="-3.9809990">
        <ele>936.2</ele>
        <time>2022-06-27T14:52:04Z</time>
      </trkpt>
      <trkpt lat="42.3889540" lon="-3.9810920">
        <ele>936.4</ele>
        <time>2022-06-27T14:52:05Z</time>
      </trkpt>
      <trkpt lat="42.3889760" lon="-3.9811870">
        <ele>936.6</ele>
        <time>2022-06-27T14:52:06Z</time>
      </trkpt>
      <trkpt lat="42.3889980" lon="-3.9812840">
        <ele>936.8</ele>
        <time>2022-06-27T14:52:07Z</time>
      </trkpt>
      <trkpt lat="42.3890210" lon="-3.9813810">
        <ele>937.0</ele>
        <time>2022-06-27T14:52:08Z</time>
      </trkpt>
      <trkpt lat="42.3890430" lon="-3.9814800">
        <ele>937.2</ele>
        <time>2022-06-27T14:52:09Z</time>
      </trkpt>
      <trkpt lat="42.3890630" lon="-3.9815800">
        <ele>937.6</ele>
        <time>2022-06-27T14:52:10Z</time>
      </trkpt>
      <trkpt lat="42.3890840" lon="-3.9816830">
        <ele>937.8</ele>
        <time>2022-06-27T14:52:11Z</time>
      </trkpt>
      <trkpt lat="42.3891060" lon="-3.9817880">
        <ele>938.0</ele>
        <time>2022-06-27T14:52:12Z</time>
      </trkpt>
      <trkpt lat="42.3891290" lon="-3.9818930">
        <ele>938.0</ele>
        <time>2022-06-27T14:52:13Z</time>
      </trkpt>
      <trkpt lat="42.3891520" lon="-3.9820000">
        <ele>938.2</ele>
        <time>2022-06-27T14:52:14Z</time>
      </trkpt>
      <trkpt lat="42.3891770" lon="-3.9821100">
        <ele>938.2</ele>
        <time>2022-06-27T14:52:15Z</time>
      </trkpt>
      <trkpt lat="42.3892000" lon="-3.9822210">
        <ele>938.4</ele>
        <time>2022-06-27T14:52:16Z</time>
      </trkpt>
      <trkpt lat="42.3892230" lon="-3.9823340">
        <ele>938.6</ele>
        <time>2022-06-27T14:52:17Z</time>
      </trkpt>
      <trkpt lat="42.3892450" lon="-3.9824480">
        <ele>938.6</ele>
        <time>2022-06-27T14:52:18Z</time>
      </trkpt>
      <trkpt lat="42.3892690" lon="-3.9825610">
        <ele>938.6</ele>
        <time>2022-06-27T14:52:19Z</time>
      </trkpt>
      <trkpt lat="42.3892920" lon="-3.9826740">
        <ele>938.6</ele>
        <time>2022-06-27T14:52:20Z</time>
      </trkpt>
      <trkpt lat="42.3893160" lon="-3.9827890">
        <ele>938.6</ele>
        <time>2022-06-27T14:52:21Z</time>
      </trkpt>
      <trkpt lat="42.3893420" lon="-3.9829060">
        <ele>938.8</ele>
        <time>2022-06-27T14:52:22Z</time>
      </trkpt>
      <trkpt lat="42.3893660" lon="-3.9830240">
        <ele>939.0</ele>
        <time>2022-06-27T14:52:23Z</time>
      </trkpt>
      <trkpt lat="42.3893900" lon="-3.9831430">
        <ele>939.2</ele>
        <time>2022-06-27T14:52:24Z</time>
      </trkpt>
      <trkpt lat="42.3894160" lon="-3.9832630">
        <ele>939.2</ele>
        <time>2022-06-27T14:52:25Z</time>
      </trkpt>
      <trkpt lat="42.3894390" lon="-3.9833830">
        <ele>939.2</ele>
        <time>2022-06-27T14:52:26Z</time>
      </trkpt>
      <trkpt lat="42.3894620" lon="-3.9835050">
        <ele>939.2</ele>
        <time>2022-06-27T14:52:27Z</time>
      </trkpt>
      <trkpt lat="42.3894860" lon="-3.9836250">
        <ele>939.2</ele>
        <time>2022-06-27T14:52:28Z</time>
      </trkpt>
      <trkpt lat="42.3895110" lon="-3.9837460">
        <ele>939.2</ele>
        <time>2022-06-27T14:52:29Z</time>
      </trkpt>
      <trkpt lat="42.3895360" lon="-3.9838690">
        <ele>939.4</ele>
        <time>2022-06-27T14:52:30Z</time>
      </trkpt>
      <trkpt lat="42.3895620" lon="-3.9839900">
        <ele>939.4</ele>
        <time>2022-06-27T14:52:31Z</time>
      </trkpt>
      <trkpt lat="42.3895870" lon="-3.9841160">
        <ele>939.6</ele>
        <time>2022-06-27T14:52:32Z</time>
      </trkpt>
      <trkpt lat="42.3896130" lon="-3.9842400">
        <ele>939.8</ele>
        <time>2022-06-27T14:52:33Z</time>
      </trkpt>
      <trkpt lat="42.3896380" lon="-3.9843670">
        <ele>939.8</ele>
        <time>2022-06-27T14:52:34Z</time>
      </trkpt>
      <trkpt lat="42.3896640" lon="-3.9844930">
        <ele>939.8</ele>
        <time>2022-06-27T14:52:35Z</time>
      </trkpt>
      <trkpt lat="42.3896900" lon="-3.9846200">
        <ele>939.8</ele>
        <time>2022-06-27T14:52:36Z</time>
      </trkpt>
      <trkpt lat="42.3897170" lon="-3.9847460">
        <ele>940.0</ele>
        <time>2022-06-27T14:52:37Z</time>
      </trkpt>
      <trkpt lat="42.3897430" lon="-3.9848720">
        <ele>940.2</ele>
        <time>2022-06-27T14:52:38Z</time>
      </trkpt>
      <trkpt lat="42.3897700" lon="-3.9849970">
        <ele>940.4</ele>
        <time>2022-06-27T14:52:39Z</time>
      </trkpt>
      <trkpt lat="42.3897960" lon="-3.9851210">
        <ele>940.6</ele>
        <time>2022-06-27T14:52:40Z</time>
      </trkpt>
      <trkpt lat="42.3898270" lon="-3.9852700">
        <ele>940.6</ele>
        <time>2022-06-27T14:52:41Z</time>
      </trkpt>
      <trkpt lat="42.3898480" lon="-3.9853700">
        <ele>940.6</ele>
        <time>2022-06-27T14:52:42Z</time>
      </trkpt>
      <trkpt lat="42.3898740" lon="-3.9854950">
        <ele>940.8</ele>
        <time>2022-06-27T14:52:43Z</time>
      </trkpt>
      <trkpt lat="42.3898990" lon="-3.9856200">
        <ele>940.8</ele>
        <time>2022-06-27T14:52:44Z</time>
      </trkpt>
      <trkpt lat="42.3899250" lon="-3.9857460">
        <ele>940.8</ele>
        <time>2022-06-27T14:52:45Z</time>
      </trkpt>
      <trkpt lat="42.3899580" lon="-3.9858960">
        <ele>940.8</ele>
        <time>2022-06-27T14:52:46Z</time>
      </trkpt>
      <trkpt lat="42.3899800" lon="-3.9859980">
        <ele>940.8</ele>
        <time>2022-06-27T14:52:47Z</time>
      </trkpt>
      <trkpt lat="42.3900060" lon="-3.9861240">
        <ele>940.8</ele>
        <time>2022-06-27T14:52:48Z</time>
      </trkpt>
      <trkpt lat="42.3900330" lon="-3.9862500">
        <ele>940.6</ele>
        <time>2022-06-27T14:52:49Z</time>
      </trkpt>
      <trkpt lat="42.3900610" lon="-3.9863750">
        <ele>940.6</ele>
        <time>2022-06-27T14:52:50Z</time>
      </trkpt>
      <trkpt lat="42.3900920" lon="-3.9865260">
        <ele>940.6</ele>
        <time>2022-06-27T14:52:51Z</time>
      </trkpt>
      <trkpt lat="42.3901120" lon="-3.9866280">
        <ele>940.6</ele>
        <time>2022-06-27T14:52:52Z</time>
      </trkpt>
      <trkpt lat="42.3901380" lon="-3.9867570">
        <ele>940.6</ele>
        <time>2022-06-27T14:52:53Z</time>
      </trkpt>
      <trkpt lat="42.3901630" lon="-3.9868850">
        <ele>940.6</ele>
        <time>2022-06-27T14:52:54Z</time>
      </trkpt>
      <trkpt lat="42.3901900" lon="-3.9870110">
        <ele>940.6</ele>
        <time>2022-06-27T14:52:55Z</time>
      </trkpt>
      <trkpt lat="42.3902160" lon="-3.9871390">
        <ele>940.6</ele>
        <time>2022-06-27T14:52:56Z</time>
      </trkpt>
      <trkpt lat="42.3902420" lon="-3.9872650">
        <ele>940.6</ele>
        <time>2022-06-27T14:52:57Z</time>
      </trkpt>
      <trkpt lat="42.3902690" lon="-3.9873920">
        <ele>940.6</ele>
        <time>2022-06-27T14:52:58Z</time>
      </trkpt>
      <trkpt lat="42.3902960" lon="-3.9875170">
        <ele>940.6</ele>
        <time>2022-06-27T14:52:59Z</time>
      </trkpt>
      <trkpt lat="42.3903270" lon="-3.9876680">
        <ele>940.8</ele>
        <time>2022-06-27T14:53:00Z</time>
      </trkpt>
      <trkpt lat="42.3903490" lon="-3.9877710">
        <ele>940.8</ele>
        <time>2022-06-27T14:53:01Z</time>
      </trkpt>
      <trkpt lat="42.3903740" lon="-3.9878980">
        <ele>940.8</ele>
        <time>2022-06-27T14:53:02Z</time>
      </trkpt>
      <trkpt lat="42.3904010" lon="-3.9880250">
        <ele>941.0</ele>
        <time>2022-06-27T14:53:03Z</time>
      </trkpt>
      <trkpt lat="42.3904280" lon="-3.9881520">
        <ele>941.0</ele>
        <time>2022-06-27T14:53:04Z</time>
      </trkpt>
      <trkpt lat="42.3904540" lon="-3.9882780">
        <ele>941.2</ele>
        <time>2022-06-27T14:53:05Z</time>
      </trkpt>
      <trkpt lat="42.3904800" lon="-3.9884030">
        <ele>941.4</ele>
        <time>2022-06-27T14:53:06Z</time>
      </trkpt>
      <trkpt lat="42.3905060" lon="-3.9885300">
        <ele>941.6</ele>
        <time>2022-06-27T14:53:07Z</time>
      </trkpt>
      <trkpt lat="42.3905320" lon="-3.9886570">
        <ele>941.8</ele>
        <time>2022-06-27T14:53:08Z</time>
      </trkpt>
      <trkpt lat="42.3905580" lon="-3.9887830">
        <ele>941.8</ele>
        <time>2022-06-27T14:53:09Z</time>
      </trkpt>
      <trkpt lat="42.3905870" lon="-3.9889090">
        <ele>941.8</ele>
        <time>2022-06-27T14:53:10Z</time>
      </trkpt>
      <trkpt lat="42.3906140" lon="-3.9890350">
        <ele>941.8</ele>
        <time>2022-06-27T14:53:11Z</time>
      </trkpt>
      <trkpt lat="42.3906400" lon="-3.9891620">
        <ele>942.0</ele>
        <time>2022-06-27T14:53:12Z</time>
      </trkpt>
      <trkpt lat="42.3906650" lon="-3.9892890">
        <ele>941.8</ele>
        <time>2022-06-27T14:53:13Z</time>
      </trkpt>
      <trkpt lat="42.3906910" lon="-3.9894160">
        <ele>942.0</ele>
        <time>2022-06-27T14:53:14Z</time>
      </trkpt>
      <trkpt lat="42.3907160" lon="-3.9895440">
        <ele>941.8</ele>
        <time>2022-06-27T14:53:15Z</time>
      </trkpt>
      <trkpt lat="42.3907430" lon="-3.9896720">
        <ele>941.8</ele>
        <time>2022-06-27T14:53:16Z</time>
      </trkpt>
      <trkpt lat="42.3907680" lon="-3.9898010">
        <ele>942.2</ele>
        <time>2022-06-27T14:53:17Z</time>
      </trkpt>
      <trkpt lat="42.3907950" lon="-3.9899290">
        <ele>942.2</ele>
        <time>2022-06-27T14:53:18Z</time>
      </trkpt>
      <trkpt lat="42.3908210" lon="-3.9900570">
        <ele>942.2</ele>
        <time>2022-06-27T14:53:19Z</time>
      </trkpt>
      <trkpt lat="42.3908470" lon="-3.9901850">
        <ele>942.2</ele>
        <time>2022-06-27T14:53:20Z</time>
      </trkpt>
      <trkpt lat="42.3908730" lon="-3.9903140">
        <ele>942.2</ele>
        <time>2022-06-27T14:53:21Z</time>
      </trkpt>
      <trkpt lat="42.3908990" lon="-3.9904430">
        <ele>942.2</ele>
        <time>2022-06-27T14:53:22Z</time>
      </trkpt>
      <trkpt lat="42.3909250" lon="-3.9905710">
        <ele>942.2</ele>
        <time>2022-06-27T14:53:23Z</time>
      </trkpt>
      <trkpt lat="42.3909510" lon="-3.9907010">
        <ele>942.2</ele>
        <time>2022-06-27T14:53:24Z</time>
      </trkpt>
      <trkpt lat="42.3909790" lon="-3.9908310">
        <ele>942.2</ele>
        <time>2022-06-27T14:53:25Z</time>
      </trkpt>
      <trkpt lat="42.3910060" lon="-3.9909590">
        <ele>942.2</ele>
        <time>2022-06-27T14:53:26Z</time>
      </trkpt>
      <trkpt lat="42.3910340" lon="-3.9910870">
        <ele>942.2</ele>
        <time>2022-06-27T14:53:27Z</time>
      </trkpt>
      <trkpt lat="42.3910670" lon="-3.9912450">
        <ele>942.2</ele>
        <time>2022-06-27T14:53:28Z</time>
      </trkpt>
      <trkpt lat="42.3910900" lon="-3.9913490">
        <ele>942.2</ele>
        <time>2022-06-27T14:53:29Z</time>
      </trkpt>
      <trkpt lat="42.3911180" lon="-3.9914820">
        <ele>942.2</ele>
        <time>2022-06-27T14:53:30Z</time>
      </trkpt>
      <trkpt lat="42.3911490" lon="-3.9916150">
        <ele>942.2</ele>
        <time>2022-06-27T14:53:31Z</time>
      </trkpt>
      <trkpt lat="42.3911820" lon="-3.9917460">
        <ele>942.2</ele>
        <time>2022-06-27T14:53:32Z</time>
      </trkpt>
      <trkpt lat="42.3912140" lon="-3.9918800">
        <ele>942.2</ele>
        <time>2022-06-27T14:53:33Z</time>
      </trkpt>
      <trkpt lat="42.3912460" lon="-3.9920120">
        <ele>942.2</ele>
        <time>2022-06-27T14:53:34Z</time>
      </trkpt>
      <trkpt lat="42.3912830" lon="-3.9921470">
        <ele>942.0</ele>
        <time>2022-06-27T14:53:35Z</time>
      </trkpt>
      <trkpt lat="42.3913230" lon="-3.9922800">
        <ele>942.0</ele>
        <time>2022-06-27T14:53:36Z</time>
      </trkpt>
      <trkpt lat="42.3913660" lon="-3.9924140">
        <ele>942.0</ele>
        <time>2022-06-27T14:53:37Z</time>
      </trkpt>
      <trkpt lat="42.3914130" lon="-3.9925510">
        <ele>941.8</ele>
        <time>2022-06-27T14:53:38Z</time>
      </trkpt>
      <trkpt lat="42.3914640" lon="-3.9926870">
        <ele>941.8</ele>
        <time>2022-06-27T14:53:39Z</time>
      </trkpt>
      <trkpt lat="42.3915180" lon="-3.9928240">
        <ele>941.6</ele>
        <time>2022-06-27T14:53:40Z</time>
      </trkpt>
      <trkpt lat="42.3915750" lon="-3.9929620">
        <ele>941.4</ele>
        <time>2022-06-27T14:53:41Z</time>
      </trkpt>
      <trkpt lat="42.3916350" lon="-3.9931010">
        <ele>941.2</ele>
        <time>2022-06-27T14:53:42Z</time>
      </trkpt>
      <trkpt lat="42.3916970" lon="-3.9932400">
        <ele>940.6</ele>
        <time>2022-06-27T14:53:43Z</time>
      </trkpt>
      <trkpt lat="42.3917650" lon="-3.9933770">
        <ele>940.4</ele>
        <time>2022-06-27T14:53:44Z</time>
      </trkpt>
      <trkpt lat="42.3918350" lon="-3.9935160">
        <ele>940.0</ele>
        <time>2022-06-27T14:53:45Z</time>
      </trkpt>
      <trkpt lat="42.3919050" lon="-3.9936560">
        <ele>939.8</ele>
        <time>2022-06-27T14:53:46Z</time>
      </trkpt>
      <trkpt lat="42.3919750" lon="-3.9938000">
        <ele>939.2</ele>
        <time>2022-06-27T14:53:47Z</time>
      </trkpt>
      <trkpt lat="42.3920480" lon="-3.9939480">
        <ele>938.8</ele>
        <time>2022-06-27T14:53:48Z</time>
      </trkpt>
      <trkpt lat="42.3921220" lon="-3.9940990">
        <ele>938.0</ele>
        <time>2022-06-27T14:53:49Z</time>
      </trkpt>
      <trkpt lat="42.3921970" lon="-3.9942520">
        <ele>937.6</ele>
        <time>2022-06-27T14:53:50Z</time>
      </trkpt>
      <trkpt lat="42.3922730" lon="-3.9944090">
        <ele>937.4</ele>
        <time>2022-06-27T14:53:51Z</time>
      </trkpt>
      <trkpt lat="42.3923500" lon="-3.9945670">
        <ele>937.0</ele>
        <time>2022-06-27T14:53:52Z</time>
      </trkpt>
      <trkpt lat="42.3924260" lon="-3.9947300">
        <ele>936.6</ele>
        <time>2022-06-27T14:53:53Z</time>
      </trkpt>
      <trkpt lat="42.3925020" lon="-3.9948940">
        <ele>935.0</ele>
        <time>2022-06-27T14:53:54Z</time>
      </trkpt>
      <trkpt lat="42.3925730" lon="-3.9950620">
        <ele>934.0</ele>
        <time>2022-06-27T14:53:55Z</time>
      </trkpt>
      <trkpt lat="42.3926550" lon="-3.9952710">
        <ele>933.0</ele>
        <time>2022-06-27T14:53:56Z</time>
      </trkpt>
      <trkpt lat="42.3927050" lon="-3.9954180">
        <ele>932.2</ele>
        <time>2022-06-27T14:53:57Z</time>
      </trkpt>
      <trkpt lat="42.3927650" lon="-3.9956040">
        <ele>931.8</ele>
        <time>2022-06-27T14:53:58Z</time>
      </trkpt>
      <trkpt lat="42.3928200" lon="-3.9957920">
        <ele>930.4</ele>
        <time>2022-06-27T14:53:59Z</time>
      </trkpt>
      <trkpt lat="42.3928730" lon="-3.9959860">
        <ele>930.0</ele>
        <time>2022-06-27T14:54:00Z</time>
      </trkpt>
      <trkpt lat="42.3929320" lon="-3.9962270">
        <ele>928.6</ele>
        <time>2022-06-27T14:54:01Z</time>
      </trkpt>
      <trkpt lat="42.3929700" lon="-3.9963890">
        <ele>928.0</ele>
        <time>2022-06-27T14:54:02Z</time>
      </trkpt>
      <trkpt lat="42.3930190" lon="-3.9965920">
        <ele>927.0</ele>
        <time>2022-06-27T14:54:03Z</time>
      </trkpt>
      <trkpt lat="42.3930670" lon="-3.9967980">
        <ele>925.8</ele>
        <time>2022-06-27T14:54:04Z</time>
      </trkpt>
      <trkpt lat="42.3931160" lon="-3.9970060">
        <ele>925.2</ele>
        <time>2022-06-27T14:54:05Z</time>
      </trkpt>
      <trkpt lat="42.3931650" lon="-3.9972140">
        <ele>924.0</ele>
        <time>2022-06-27T14:54:06Z</time>
      </trkpt>
      <trkpt lat="42.3932130" lon="-3.9974230">
        <ele>922.8</ele>
        <time>2022-06-27T14:54:07Z</time>
      </trkpt>
      <trkpt lat="42.3932620" lon="-3.9976330">
        <ele>921.4</ele>
        <time>2022-06-27T14:54:08Z</time>
      </trkpt>
      <trkpt lat="42.3933110" lon="-3.9978460">
        <ele>920.4</ele>
        <time>2022-06-27T14:54:09Z</time>
      </trkpt>
      <trkpt lat="42.3933600" lon="-3.9980610">
        <ele>919.2</ele>
        <time>2022-06-27T14:54:10Z</time>
      </trkpt>
      <trkpt lat="42.3934110" lon="-3.9982760">
        <ele>918.4</ele>
        <time>2022-06-27T14:54:11Z</time>
      </trkpt>
      <trkpt lat="42.3934600" lon="-3.9984930">
        <ele>918.0</ele>
        <time>2022-06-27T14:54:12Z</time>
      </trkpt>
      <trkpt lat="42.3935120" lon="-3.9987110">
        <ele>916.8</ele>
        <time>2022-06-27T14:54:13Z</time>
      </trkpt>
      <trkpt lat="42.3935630" lon="-3.9989310">
        <ele>916.4</ele>
        <time>2022-06-27T14:54:14Z</time>
      </trkpt>
      <trkpt lat="42.3936140" lon="-3.9991510">
        <ele>914.2</ele>
        <time>2022-06-27T14:54:15Z</time>
      </trkpt>
      <trkpt lat="42.3936670" lon="-3.9993700">
        <ele>913.6</ele>
        <time>2022-06-27T14:54:16Z</time>
      </trkpt>
      <trkpt lat="42.3937210" lon="-3.9995900">
        <ele>912.0</ele>
        <time>2022-06-27T14:54:17Z</time>
      </trkpt>
      <trkpt lat="42.3937770" lon="-3.9998090">
        <ele>910.4</ele>
        <time>2022-06-27T14:54:18Z</time>
      </trkpt>
      <trkpt lat="42.3938360" lon="-4.0000290">
        <ele>909.8</ele>
        <time>2022-06-27T14:54:19Z</time>
      </trkpt>
      <trkpt lat="42.3938970" lon="-4.0002470">
        <ele>908.2</ele>
        <time>2022-06-27T14:54:20Z</time>
      </trkpt>
      <trkpt lat="42.3939610" lon="-4.0004650">
        <ele>907.8</ele>
        <time>2022-06-27T14:54:21Z</time>
      </trkpt>
      <trkpt lat="42.3940260" lon="-4.0006850">
        <ele>906.6</ele>
        <time>2022-06-27T14:54:22Z</time>
      </trkpt>
      <trkpt lat="42.3940920" lon="-4.0009060">
        <ele>906.0</ele>
        <time>2022-06-27T14:54:23Z</time>
      </trkpt>
      <trkpt lat="42.3941560" lon="-4.0011270">
        <ele>904.4</ele>
        <time>2022-06-27T14:54:24Z</time>
      </trkpt>
      <trkpt lat="42.3942210" lon="-4.0013490">
        <ele>902.4</ele>
        <time>2022-06-27T14:54:25Z</time>
      </trkpt>
      <trkpt lat="42.3942860" lon="-4.0015700">
        <ele>901.8</ele>
        <time>2022-06-27T14:54:26Z</time>
      </trkpt>
      <trkpt lat="42.3943530" lon="-4.0017910">
        <ele>900.6</ele>
        <time>2022-06-27T14:54:27Z</time>
      </trkpt>
      <trkpt lat="42.3944200" lon="-4.0020120">
        <ele>900.2</ele>
        <time>2022-06-27T14:54:28Z</time>
      </trkpt>
      <trkpt lat="42.3944990" lon="-4.0022770">
        <ele>899.4</ele>
        <time>2022-06-27T14:54:29Z</time>
      </trkpt>
      <trkpt lat="42.3945510" lon="-4.0024540">
        <ele>899.0</ele>
        <time>2022-06-27T14:54:30Z</time>
      </trkpt>
      <trkpt lat="42.3946170" lon="-4.0026740">
        <ele>896.6</ele>
        <time>2022-06-27T14:54:31Z</time>
      </trkpt>
      <trkpt lat="42.3946820" lon="-4.0028940">
        <ele>894.8</ele>
        <time>2022-06-27T14:54:32Z</time>
      </trkpt>
      <trkpt lat="42.3947470" lon="-4.0031150">
        <ele>894.2</ele>
        <time>2022-06-27T14:54:33Z</time>
      </trkpt>
      <trkpt lat="42.3948110" lon="-4.0033340">
        <ele>892.2</ele>
        <time>2022-06-27T14:54:34Z</time>
      </trkpt>
      <trkpt lat="42.3948720" lon="-4.0035550">
        <ele>891.4</ele>
        <time>2022-06-27T14:54:35Z</time>
      </trkpt>
      <trkpt lat="42.3949300" lon="-4.0037770">
        <ele>889.8</ele>
        <time>2022-06-27T14:54:36Z</time>
      </trkpt>
      <trkpt lat="42.3949810" lon="-4.0040030">
        <ele>889.2</ele>
        <time>2022-06-27T14:54:37Z</time>
      </trkpt>
      <trkpt lat="42.3950290" lon="-4.0042290">
        <ele>888.0</ele>
        <time>2022-06-27T14:54:38Z</time>
      </trkpt>
      <trkpt lat="42.3950800" lon="-4.0045030">
        <ele>887.4</ele>
        <time>2022-06-27T14:54:39Z</time>
      </trkpt>
      <trkpt lat="42.3951090" lon="-4.0046850">
        <ele>886.6</ele>
        <time>2022-06-27T14:54:40Z</time>
      </trkpt>
      <trkpt lat="42.3951430" lon="-4.0049140">
        <ele>885.4</ele>
        <time>2022-06-27T14:54:41Z</time>
      </trkpt>
      <trkpt lat="42.3951720" lon="-4.0051440">
        <ele>884.8</ele>
        <time>2022-06-27T14:54:42Z</time>
      </trkpt>
      <trkpt lat="42.3951970" lon="-4.0053750">
        <ele>883.6</ele>
        <time>2022-06-27T14:54:43Z</time>
      </trkpt>
      <trkpt lat="42.3952180" lon="-4.0056080">
        <ele>883.0</ele>
        <time>2022-06-27T14:54:44Z</time>
      </trkpt>
      <trkpt lat="42.3952330" lon="-4.0058420">
        <ele>881.4</ele>
        <time>2022-06-27T14:54:45Z</time>
      </trkpt>
      <trkpt lat="42.3952430" lon="-4.0060760">
        <ele>880.4</ele>
        <time>2022-06-27T14:54:46Z</time>
      </trkpt>
      <trkpt lat="42.3952460" lon="-4.0063100">
        <ele>880.2</ele>
        <time>2022-06-27T14:54:47Z</time>
      </trkpt>
      <trkpt lat="42.3952460" lon="-4.0065450">
        <ele>879.4</ele>
        <time>2022-06-27T14:54:48Z</time>
      </trkpt>
      <trkpt lat="42.3952420" lon="-4.0067770">
        <ele>879.2</ele>
        <time>2022-06-27T14:54:49Z</time>
      </trkpt>
      <trkpt lat="42.3952340" lon="-4.0070040">
        <ele>878.4</ele>
        <time>2022-06-27T14:54:50Z</time>
      </trkpt>
      <trkpt lat="42.3952230" lon="-4.0072290">
        <ele>878.0</ele>
        <time>2022-06-27T14:54:51Z</time>
      </trkpt>
      <trkpt lat="42.3952070" lon="-4.0074550">
        <ele>876.8</ele>
        <time>2022-06-27T14:54:52Z</time>
      </trkpt>
      <trkpt lat="42.3951890" lon="-4.0076790">
        <ele>875.8</ele>
        <time>2022-06-27T14:54:53Z</time>
      </trkpt>
      <trkpt lat="42.3951700" lon="-4.0079000">
        <ele>875.6</ele>
        <time>2022-06-27T14:54:54Z</time>
      </trkpt>
      <trkpt lat="42.3951470" lon="-4.0081200">
        <ele>874.2</ele>
        <time>2022-06-27T14:54:55Z</time>
      </trkpt>
      <trkpt lat="42.3951240" lon="-4.0083390">
        <ele>873.6</ele>
        <time>2022-06-27T14:54:56Z</time>
      </trkpt>
      <trkpt lat="42.3951030" lon="-4.0085540">
        <ele>872.4</ele>
        <time>2022-06-27T14:54:57Z</time>
      </trkpt>
      <trkpt lat="42.3950820" lon="-4.0087700">
        <ele>872.2</ele>
        <time>2022-06-27T14:54:58Z</time>
      </trkpt>
      <trkpt lat="42.3950610" lon="-4.0089850">
        <ele>871.6</ele>
        <time>2022-06-27T14:54:59Z</time>
      </trkpt>
      <trkpt lat="42.3950410" lon="-4.0091970">
        <ele>871.4</ele>
        <time>2022-06-27T14:55:00Z</time>
      </trkpt>
      <trkpt lat="42.3950190" lon="-4.0094090">
        <ele>871.2</ele>
        <time>2022-06-27T14:55:01Z</time>
      </trkpt>
      <trkpt lat="42.3949990" lon="-4.0096210">
        <ele>871.0</ele>
        <time>2022-06-27T14:55:02Z</time>
      </trkpt>
      <trkpt lat="42.3949800" lon="-4.0098320">
        <ele>870.8</ele>
        <time>2022-06-27T14:55:03Z</time>
      </trkpt>
      <trkpt lat="42.3949610" lon="-4.0100400">
        <ele>870.6</ele>
        <time>2022-06-27T14:55:04Z</time>
      </trkpt>
      <trkpt lat="42.3949410" lon="-4.0102470">
        <ele>870.4</ele>
        <time>2022-06-27T14:55:05Z</time>
      </trkpt>
      <trkpt lat="42.3949190" lon="-4.0104530">
        <ele>869.8</ele>
        <time>2022-06-27T14:55:06Z</time>
      </trkpt>
      <trkpt lat="42.3948970" lon="-4.0106610">
        <ele>869.8</ele>
        <time>2022-06-27T14:55:07Z</time>
      </trkpt>
      <trkpt lat="42.3948750" lon="-4.0108710">
        <ele>869.2</ele>
        <time>2022-06-27T14:55:08Z</time>
      </trkpt>
      <trkpt lat="42.3948550" lon="-4.0110790">
        <ele>868.8</ele>
        <time>2022-06-27T14:55:09Z</time>
      </trkpt>
      <trkpt lat="42.3948300" lon="-4.0113330">
        <ele>868.8</ele>
        <time>2022-06-27T14:55:10Z</time>
      </trkpt>
      <trkpt lat="42.3948140" lon="-4.0115020">
        <ele>868.2</ele>
        <time>2022-06-27T14:55:11Z</time>
      </trkpt>
      <trkpt lat="42.3947880" lon="-4.0117520">
        <ele>867.8</ele>
        <time>2022-06-27T14:55:12Z</time>
      </trkpt>
      <trkpt lat="42.3947740" lon="-4.0119180">
        <ele>867.2</ele>
        <time>2022-06-27T14:55:13Z</time>
      </trkpt>
      <trkpt lat="42.3947580" lon="-4.0121250">
        <ele>867.0</ele>
        <time>2022-06-27T14:55:14Z</time>
      </trkpt>
      <trkpt lat="42.3947450" lon="-4.0123320">
        <ele>866.4</ele>
        <time>2022-06-27T14:55:15Z</time>
      </trkpt>
      <trkpt lat="42.3947310" lon="-4.0125820">
        <ele>865.8</ele>
        <time>2022-06-27T14:55:16Z</time>
      </trkpt>
      <trkpt lat="42.3947240" lon="-4.0127470">
        <ele>865.6</ele>
        <time>2022-06-27T14:55:17Z</time>
      </trkpt>
      <trkpt lat="42.3947160" lon="-4.0129570">
        <ele>865.2</ele>
        <time>2022-06-27T14:55:18Z</time>
      </trkpt>
      <trkpt lat="42.3947090" lon="-4.0131670">
        <ele>864.8</ele>
        <time>2022-06-27T14:55:19Z</time>
      </trkpt>
      <trkpt lat="42.3947020" lon="-4.0133790">
        <ele>864.4</ele>
        <time>2022-06-27T14:55:20Z</time>
      </trkpt>
      <trkpt lat="42.3946960" lon="-4.0135930">
        <ele>864.0</ele>
        <time>2022-06-27T14:55:21Z</time>
      </trkpt>
      <trkpt lat="42.3946900" lon="-4.0138080">
        <ele>863.6</ele>
        <time>2022-06-27T14:55:22Z</time>
      </trkpt>
      <trkpt lat="42.3946850" lon="-4.0140220">
        <ele>863.2</ele>
        <time>2022-06-27T14:55:23Z</time>
      </trkpt>
      <trkpt lat="42.3946800" lon="-4.0142360">
        <ele>862.8</ele>
        <time>2022-06-27T14:55:24Z</time>
      </trkpt>
      <trkpt lat="42.3946730" lon="-4.0144510">
        <ele>862.2</ele>
        <time>2022-06-27T14:55:25Z</time>
      </trkpt>
      <trkpt lat="42.3946690" lon="-4.0146660">
        <ele>862.2</ele>
        <time>2022-06-27T14:55:26Z</time>
      </trkpt>
      <trkpt lat="42.3946690" lon="-4.0149210">
        <ele>862.0</ele>
        <time>2022-06-27T14:55:27Z</time>
      </trkpt>
      <trkpt lat="42.3946710" lon="-4.0150890">
        <ele>861.6</ele>
        <time>2022-06-27T14:55:28Z</time>
      </trkpt>
      <trkpt lat="42.3946770" lon="-4.0152960">
        <ele>861.2</ele>
        <time>2022-06-27T14:55:29Z</time>
      </trkpt>
      <trkpt lat="42.3946880" lon="-4.0154990">
        <ele>860.8</ele>
        <time>2022-06-27T14:55:30Z</time>
      </trkpt>
      <trkpt lat="42.3947060" lon="-4.0157020">
        <ele>860.2</ele>
        <time>2022-06-27T14:55:31Z</time>
      </trkpt>
      <trkpt lat="42.3947310" lon="-4.0159020">
        <ele>859.8</ele>
        <time>2022-06-27T14:55:32Z</time>
      </trkpt>
      <trkpt lat="42.3947590" lon="-4.0161000">
        <ele>859.6</ele>
        <time>2022-06-27T14:55:33Z</time>
      </trkpt>
      <trkpt lat="42.3947930" lon="-4.0162940">
        <ele>859.0</ele>
        <time>2022-06-27T14:55:34Z</time>
      </trkpt>
      <trkpt lat="42.3948300" lon="-4.0164840">
        <ele>858.6</ele>
        <time>2022-06-27T14:55:35Z</time>
      </trkpt>
      <trkpt lat="42.3948700" lon="-4.0166700">
        <ele>858.4</ele>
        <time>2022-06-27T14:55:36Z</time>
      </trkpt>
      <trkpt lat="42.3949160" lon="-4.0168530">
        <ele>858.0</ele>
        <time>2022-06-27T14:55:37Z</time>
      </trkpt>
      <trkpt lat="42.3949670" lon="-4.0170320">
        <ele>857.8</ele>
        <time>2022-06-27T14:55:38Z</time>
      </trkpt>
      <trkpt lat="42.3950210" lon="-4.0172070">
        <ele>857.2</ele>
        <time>2022-06-27T14:55:39Z</time>
      </trkpt>
      <trkpt lat="42.3950780" lon="-4.0173750">
        <ele>856.8</ele>
        <time>2022-06-27T14:55:40Z</time>
      </trkpt>
      <trkpt lat="42.3951400" lon="-4.0175350">
        <ele>856.6</ele>
        <time>2022-06-27T14:55:41Z</time>
      </trkpt>
      <trkpt lat="42.3952030" lon="-4.0176880">
        <ele>856.4</ele>
        <time>2022-06-27T14:55:42Z</time>
      </trkpt>
      <trkpt lat="42.3952660" lon="-4.0178360">
        <ele>856.2</ele>
        <time>2022-06-27T14:55:43Z</time>
      </trkpt>
      <trkpt lat="42.3953310" lon="-4.0179770">
        <ele>856.2</ele>
        <time>2022-06-27T14:55:44Z</time>
      </trkpt>
      <trkpt lat="42.3953960" lon="-4.0181100">
        <ele>856.2</ele>
        <time>2022-06-27T14:55:45Z</time>
      </trkpt>
      <trkpt lat="42.3954610" lon="-4.0182390">
        <ele>856.2</ele>
        <time>2022-06-27T14:55:46Z</time>
      </trkpt>
      <trkpt lat="42.3955260" lon="-4.0183640">
        <ele>856.2</ele>
        <time>2022-06-27T14:55:47Z</time>
      </trkpt>
      <trkpt lat="42.3955880" lon="-4.0184870">
        <ele>856.4</ele>
        <time>2022-06-27T14:55:48Z</time>
      </trkpt>
      <trkpt lat="42.3956480" lon="-4.0186090">
        <ele>856.6</ele>
        <time>2022-06-27T14:55:49Z</time>
      </trkpt>
      <trkpt lat="42.3957070" lon="-4.0187270">
        <ele>857.0</ele>
        <time>2022-06-27T14:55:50Z</time>
      </trkpt>
      <trkpt lat="42.3957640" lon="-4.0188420">
        <ele>857.4</ele>
        <time>2022-06-27T14:55:51Z</time>
      </trkpt>
      <trkpt lat="42.3958200" lon="-4.0189560">
        <ele>857.6</ele>
        <time>2022-06-27T14:55:52Z</time>
      </trkpt>
      <trkpt lat="42.3958720" lon="-4.0190730">
        <ele>858.0</ele>
        <time>2022-06-27T14:55:53Z</time>
      </trkpt>
      <trkpt lat="42.3959190" lon="-4.0191920">
        <ele>858.2</ele>
        <time>2022-06-27T14:55:54Z</time>
      </trkpt>
      <trkpt lat="42.3959640" lon="-4.0193120">
        <ele>858.4</ele>
        <time>2022-06-27T14:55:55Z</time>
      </trkpt>
      <trkpt lat="42.3960090" lon="-4.0194290">
        <ele>858.8</ele>
        <time>2022-06-27T14:55:56Z</time>
      </trkpt>
      <trkpt lat="42.3960500" lon="-4.0195480">
        <ele>859.0</ele>
        <time>2022-06-27T14:55:57Z</time>
      </trkpt>
      <trkpt lat="42.3960890" lon="-4.0196700">
        <ele>859.2</ele>
        <time>2022-06-27T14:55:58Z</time>
      </trkpt>
      <trkpt lat="42.3961260" lon="-4.0197930">
        <ele>859.4</ele>
        <time>2022-06-27T14:55:59Z</time>
      </trkpt>
      <trkpt lat="42.3961620" lon="-4.0199180">
        <ele>859.6</ele>
        <time>2022-06-27T14:56:00Z</time>
      </trkpt>
      <trkpt lat="42.3961950" lon="-4.0200430">
        <ele>859.6</ele>
        <time>2022-06-27T14:56:01Z</time>
      </trkpt>
      <trkpt lat="42.3962260" lon="-4.0201690">
        <ele>859.8</ele>
        <time>2022-06-27T14:56:02Z</time>
      </trkpt>
      <trkpt lat="42.3962540" lon="-4.0202960">
        <ele>859.8</ele>
        <time>2022-06-27T14:56:03Z</time>
      </trkpt>
      <trkpt lat="42.3962790" lon="-4.0204240">
        <ele>860.0</ele>
        <time>2022-06-27T14:56:04Z</time>
      </trkpt>
      <trkpt lat="42.3963020" lon="-4.0205530">
        <ele>860.6</ele>
        <time>2022-06-27T14:56:05Z</time>
      </trkpt>
      <trkpt lat="42.3963220" lon="-4.0206830">
        <ele>860.6</ele>
        <time>2022-06-27T14:56:06Z</time>
      </trkpt>
      <trkpt lat="42.3963410" lon="-4.0208140">
        <ele>860.8</ele>
        <time>2022-06-27T14:56:07Z</time>
      </trkpt>
      <trkpt lat="42.3963590" lon="-4.0209480">
        <ele>860.8</ele>
        <time>2022-06-27T14:56:08Z</time>
      </trkpt>
      <trkpt lat="42.3963710" lon="-4.0210830">
        <ele>860.8</ele>
        <time>2022-06-27T14:56:09Z</time>
      </trkpt>
      <trkpt lat="42.3963800" lon="-4.0212210">
        <ele>860.8</ele>
        <time>2022-06-27T14:56:10Z</time>
      </trkpt>
      <trkpt lat="42.3963880" lon="-4.0213610">
        <ele>860.4</ele>
        <time>2022-06-27T14:56:11Z</time>
      </trkpt>
      <trkpt lat="42.3963950" lon="-4.0215010">
        <ele>860.2</ele>
        <time>2022-06-27T14:56:12Z</time>
      </trkpt>
      <trkpt lat="42.3963980" lon="-4.0216440">
        <ele>860.2</ele>
        <time>2022-06-27T14:56:13Z</time>
      </trkpt>
      <trkpt lat="42.3963980" lon="-4.0217870">
        <ele>860.2</ele>
        <time>2022-06-27T14:56:14Z</time>
      </trkpt>
      <trkpt lat="42.3963980" lon="-4.0219300">
        <ele>860.2</ele>
        <time>2022-06-27T14:56:15Z</time>
      </trkpt>
      <trkpt lat="42.3963970" lon="-4.0220740">
        <ele>859.8</ele>
        <time>2022-06-27T14:56:16Z</time>
      </trkpt>
      <trkpt lat="42.3963920" lon="-4.0222180">
        <ele>859.8</ele>
        <time>2022-06-27T14:56:17Z</time>
      </trkpt>
      <trkpt lat="42.3963810" lon="-4.0223650">
        <ele>859.6</ele>
        <time>2022-06-27T14:56:18Z</time>
      </trkpt>
      <trkpt lat="42.3963680" lon="-4.0225130">
        <ele>859.4</ele>
        <time>2022-06-27T14:56:19Z</time>
      </trkpt>
      <trkpt lat="42.3963500" lon="-4.0226630">
        <ele>859.4</ele>
        <time>2022-06-27T14:56:20Z</time>
      </trkpt>
      <trkpt lat="42.3963280" lon="-4.0228130">
        <ele>859.4</ele>
        <time>2022-06-27T14:56:21Z</time>
      </trkpt>
      <trkpt lat="42.3963040" lon="-4.0229620">
        <ele>859.4</ele>
        <time>2022-06-27T14:56:22Z</time>
      </trkpt>
      <trkpt lat="42.3962800" lon="-4.0231110">
        <ele>859.2</ele>
        <time>2022-06-27T14:56:23Z</time>
      </trkpt>
      <trkpt lat="42.3962530" lon="-4.0232600">
        <ele>859.2</ele>
        <time>2022-06-27T14:56:24Z</time>
      </trkpt>
      <trkpt lat="42.3962240" lon="-4.0234130">
        <ele>858.4</ele>
        <time>2022-06-27T14:56:25Z</time>
      </trkpt>
      <trkpt lat="42.3961940" lon="-4.0235660">
        <ele>858.0</ele>
        <time>2022-06-27T14:56:26Z</time>
      </trkpt>
      <trkpt lat="42.3961630" lon="-4.0237220">
        <ele>857.8</ele>
        <time>2022-06-27T14:56:27Z</time>
      </trkpt>
      <trkpt lat="42.3961320" lon="-4.0238800">
        <ele>857.6</ele>
        <time>2022-06-27T14:56:28Z</time>
      </trkpt>
      <trkpt lat="42.3961010" lon="-4.0240420">
        <ele>857.4</ele>
        <time>2022-06-27T14:56:29Z</time>
      </trkpt>
      <trkpt lat="42.3960720" lon="-4.0242050">
        <ele>856.8</ele>
        <time>2022-06-27T14:56:30Z</time>
      </trkpt>
      <trkpt lat="42.3960470" lon="-4.0243720">
        <ele>856.6</ele>
        <time>2022-06-27T14:56:31Z</time>
      </trkpt>
      <trkpt lat="42.3960250" lon="-4.0245440">
        <ele>856.0</ele>
        <time>2022-06-27T14:56:32Z</time>
      </trkpt>
      <trkpt lat="42.3960060" lon="-4.0247220">
        <ele>855.4</ele>
        <time>2022-06-27T14:56:33Z</time>
      </trkpt>
      <trkpt lat="42.3959890" lon="-4.0249020">
        <ele>855.2</ele>
        <time>2022-06-27T14:56:34Z</time>
      </trkpt>
      <trkpt lat="42.3959780" lon="-4.0251180">
        <ele>854.8</ele>
        <time>2022-06-27T14:56:35Z</time>
      </trkpt>
      <trkpt lat="42.3959750" lon="-4.0252660">
        <ele>854.0</ele>
        <time>2022-06-27T14:56:36Z</time>
      </trkpt>
      <trkpt lat="42.3959720" lon="-4.0254510">
        <ele>853.2</ele>
        <time>2022-06-27T14:56:37Z</time>
      </trkpt>
      <trkpt lat="42.3959760" lon="-4.0256390">
        <ele>852.8</ele>
        <time>2022-06-27T14:56:38Z</time>
      </trkpt>
      <trkpt lat="42.3959860" lon="-4.0258300">
        <ele>851.6</ele>
        <time>2022-06-27T14:56:39Z</time>
      </trkpt>
      <trkpt lat="42.3959990" lon="-4.0260220">
        <ele>850.4</ele>
        <time>2022-06-27T14:56:40Z</time>
      </trkpt>
      <trkpt lat="42.3960160" lon="-4.0262130">
        <ele>849.8</ele>
        <time>2022-06-27T14:56:41Z</time>
      </trkpt>
      <trkpt lat="42.3960360" lon="-4.0264030">
        <ele>849.0</ele>
        <time>2022-06-27T14:56:42Z</time>
      </trkpt>
      <trkpt lat="42.3960600" lon="-4.0265940">
        <ele>848.6</ele>
        <time>2022-06-27T14:56:43Z</time>
      </trkpt>
      <trkpt lat="42.3960870" lon="-4.0267830">
        <ele>847.8</ele>
        <time>2022-06-27T14:56:44Z</time>
      </trkpt>
      <trkpt lat="42.3961170" lon="-4.0269670">
        <ele>847.6</ele>
        <time>2022-06-27T14:56:45Z</time>
      </trkpt>
      <trkpt lat="42.3961490" lon="-4.0271490">
        <ele>847.2</ele>
        <time>2022-06-27T14:56:46Z</time>
      </trkpt>
      <trkpt lat="42.3961810" lon="-4.0273300">
        <ele>846.4</ele>
        <time>2022-06-27T14:56:47Z</time>
      </trkpt>
      <trkpt lat="42.3962130" lon="-4.0275100">
        <ele>845.8</ele>
        <time>2022-06-27T14:56:48Z</time>
      </trkpt>
      <trkpt lat="42.3962450" lon="-4.0276860">
        <ele>845.0</ele>
        <time>2022-06-27T14:56:49Z</time>
      </trkpt>
      <trkpt lat="42.3962810" lon="-4.0278610">
        <ele>844.8</ele>
        <time>2022-06-27T14:56:50Z</time>
      </trkpt>
      <trkpt lat="42.3963180" lon="-4.0280350">
        <ele>844.2</ele>
        <time>2022-06-27T14:56:51Z</time>
      </trkpt>
      <trkpt lat="42.3963540" lon="-4.0282090">
        <ele>844.0</ele>
        <time>2022-06-27T14:56:52Z</time>
      </trkpt>
      <trkpt lat="42.3963910" lon="-4.0283800">
        <ele>843.6</ele>
        <time>2022-06-27T14:56:53Z</time>
      </trkpt>
      <trkpt lat="42.3964350" lon="-4.0285820">
        <ele>842.8</ele>
        <time>2022-06-27T14:56:54Z</time>
      </trkpt>
      <trkpt lat="42.3964670" lon="-4.0287170">
        <ele>842.4</ele>
        <time>2022-06-27T14:56:55Z</time>
      </trkpt>
      <trkpt lat="42.3965080" lon="-4.0288840">
        <ele>842.0</ele>
        <time>2022-06-27T14:56:56Z</time>
      </trkpt>
      <trkpt lat="42.3965500" lon="-4.0290510">
        <ele>841.8</ele>
        <time>2022-06-27T14:56:57Z</time>
      </trkpt>
      <trkpt lat="42.3965950" lon="-4.0292150">
        <ele>841.4</ele>
        <time>2022-06-27T14:56:58Z</time>
      </trkpt>
      <trkpt lat="42.3966390" lon="-4.0293820">
        <ele>841.4</ele>
        <time>2022-06-27T14:56:59Z</time>
      </trkpt>
      <trkpt lat="42.3966840" lon="-4.0295510">
        <ele>840.8</ele>
        <time>2022-06-27T14:57:00Z</time>
      </trkpt>
      <trkpt lat="42.3967290" lon="-4.0297190">
        <ele>840.8</ele>
        <time>2022-06-27T14:57:01Z</time>
      </trkpt>
      <trkpt lat="42.3967770" lon="-4.0298840">
        <ele>840.6</ele>
        <time>2022-06-27T14:57:02Z</time>
      </trkpt>
      <trkpt lat="42.3968240" lon="-4.0300470">
        <ele>840.2</ele>
        <time>2022-06-27T14:57:03Z</time>
      </trkpt>
      <trkpt lat="42.3968720" lon="-4.0302070">
        <ele>840.0</ele>
        <time>2022-06-27T14:57:04Z</time>
      </trkpt>
      <trkpt lat="42.3969190" lon="-4.0303670">
        <ele>839.6</ele>
        <time>2022-06-27T14:57:05Z</time>
      </trkpt>
      <trkpt lat="42.3969660" lon="-4.0305230">
        <ele>839.6</ele>
        <time>2022-06-27T14:57:06Z</time>
      </trkpt>
      <trkpt lat="42.3970130" lon="-4.0306790">
        <ele>839.2</ele>
        <time>2022-06-27T14:57:07Z</time>
      </trkpt>
      <trkpt lat="42.3970600" lon="-4.0308340">
        <ele>838.8</ele>
        <time>2022-06-27T14:57:08Z</time>
      </trkpt>
      <trkpt lat="42.3971050" lon="-4.0309900">
        <ele>838.6</ele>
        <time>2022-06-27T14:57:09Z</time>
      </trkpt>
      <trkpt lat="42.3971530" lon="-4.0311480">
        <ele>838.4</ele>
        <time>2022-06-27T14:57:10Z</time>
      </trkpt>
      <trkpt lat="42.3972000" lon="-4.0313040">
        <ele>838.2</ele>
        <time>2022-06-27T14:57:11Z</time>
      </trkpt>
      <trkpt lat="42.3972470" lon="-4.0314600">
        <ele>837.6</ele>
        <time>2022-06-27T14:57:12Z</time>
      </trkpt>
      <trkpt lat="42.3972940" lon="-4.0316160">
        <ele>837.6</ele>
        <time>2022-06-27T14:57:13Z</time>
      </trkpt>
      <trkpt lat="42.3973420" lon="-4.0317720">
        <ele>837.2</ele>
        <time>2022-06-27T14:57:14Z</time>
      </trkpt>
      <trkpt lat="42.3973910" lon="-4.0319270">
        <ele>837.2</ele>
        <time>2022-06-27T14:57:15Z</time>
      </trkpt>
      <trkpt lat="42.3974400" lon="-4.0320830">
        <ele>836.8</ele>
        <time>2022-06-27T14:57:16Z</time>
      </trkpt>
      <trkpt lat="42.3974880" lon="-4.0322400">
        <ele>836.6</ele>
        <time>2022-06-27T14:57:17Z</time>
      </trkpt>
      <trkpt lat="42.3975360" lon="-4.0323980">
        <ele>836.4</ele>
        <time>2022-06-27T14:57:18Z</time>
      </trkpt>
      <trkpt lat="42.3975860" lon="-4.0325540">
        <ele>836.2</ele>
        <time>2022-06-27T14:57:19Z</time>
      </trkpt>
      <trkpt lat="42.3976390" lon="-4.0327100">
        <ele>836.0</ele>
        <time>2022-06-27T14:57:20Z</time>
      </trkpt>
      <trkpt lat="42.3976910" lon="-4.0328660">
        <ele>835.8</ele>
        <time>2022-06-27T14:57:21Z</time>
      </trkpt>
      <trkpt lat="42.3977520" lon="-4.0330540">
        <ele>835.6</ele>
        <time>2022-06-27T14:57:22Z</time>
      </trkpt>
      <trkpt lat="42.3977940" lon="-4.0331770">
        <ele>835.2</ele>
        <time>2022-06-27T14:57:23Z</time>
      </trkpt>
      <trkpt lat="42.3978470" lon="-4.0333300">
        <ele>834.8</ele>
        <time>2022-06-27T14:57:24Z</time>
      </trkpt>
      <trkpt lat="42.3978990" lon="-4.0334850">
        <ele>834.6</ele>
        <time>2022-06-27T14:57:25Z</time>
      </trkpt>
      <trkpt lat="42.3979520" lon="-4.0336390">
        <ele>834.0</ele>
        <time>2022-06-27T14:57:26Z</time>
      </trkpt>
      <trkpt lat="42.3980040" lon="-4.0337920">
        <ele>833.6</ele>
        <time>2022-06-27T14:57:27Z</time>
      </trkpt>
      <trkpt lat="42.3980570" lon="-4.0339440">
        <ele>833.0</ele>
        <time>2022-06-27T14:57:28Z</time>
      </trkpt>
      <trkpt lat="42.3981090" lon="-4.0340960">
        <ele>832.8</ele>
        <time>2022-06-27T14:57:29Z</time>
      </trkpt>
      <trkpt lat="42.3981650" lon="-4.0342470">
        <ele>832.4</ele>
        <time>2022-06-27T14:57:30Z</time>
      </trkpt>
      <trkpt lat="42.3982190" lon="-4.0343960">
        <ele>832.4</ele>
        <time>2022-06-27T14:57:31Z</time>
      </trkpt>
      <trkpt lat="42.3982730" lon="-4.0345450">
        <ele>832.2</ele>
        <time>2022-06-27T14:57:32Z</time>
      </trkpt>
      <trkpt lat="42.3983270" lon="-4.0346920">
        <ele>832.2</ele>
        <time>2022-06-27T14:57:33Z</time>
      </trkpt>
      <trkpt lat="42.3983830" lon="-4.0348370">
        <ele>832.2</ele>
        <time>2022-06-27T14:57:34Z</time>
      </trkpt>
      <trkpt lat="42.3984380" lon="-4.0349820">
        <ele>831.8</ele>
        <time>2022-06-27T14:57:35Z</time>
      </trkpt>
      <trkpt lat="42.3984920" lon="-4.0351260">
        <ele>831.6</ele>
        <time>2022-06-27T14:57:36Z</time>
      </trkpt>
      <trkpt lat="42.3985470" lon="-4.0352680">
        <ele>831.6</ele>
        <time>2022-06-27T14:57:37Z</time>
      </trkpt>
      <trkpt lat="42.3986020" lon="-4.0354090">
        <ele>831.8</ele>
        <time>2022-06-27T14:57:38Z</time>
      </trkpt>
      <trkpt lat="42.3986580" lon="-4.0355460">
        <ele>831.6</ele>
        <time>2022-06-27T14:57:39Z</time>
      </trkpt>
      <trkpt lat="42.3987120" lon="-4.0356870">
        <ele>831.6</ele>
        <time>2022-06-27T14:57:40Z</time>
      </trkpt>
      <trkpt lat="42.3987650" lon="-4.0358280">
        <ele>831.4</ele>
        <time>2022-06-27T14:57:41Z</time>
      </trkpt>
      <trkpt lat="42.3988180" lon="-4.0359670">
        <ele>831.4</ele>
        <time>2022-06-27T14:57:42Z</time>
      </trkpt>
      <trkpt lat="42.3988720" lon="-4.0361060">
        <ele>831.2</ele>
        <time>2022-06-27T14:57:43Z</time>
      </trkpt>
      <trkpt lat="42.3989250" lon="-4.0362460">
        <ele>831.2</ele>
        <time>2022-06-27T14:57:44Z</time>
      </trkpt>
      <trkpt lat="42.3989760" lon="-4.0363870">
        <ele>831.0</ele>
        <time>2022-06-27T14:57:45Z</time>
      </trkpt>
      <trkpt lat="42.3990280" lon="-4.0365270">
        <ele>831.0</ele>
        <time>2022-06-27T14:57:46Z</time>
      </trkpt>
      <trkpt lat="42.3990810" lon="-4.0366650">
        <ele>830.8</ele>
        <time>2022-06-27T14:57:47Z</time>
      </trkpt>
      <trkpt lat="42.3991320" lon="-4.0368060">
        <ele>830.6</ele>
        <time>2022-06-27T14:57:48Z</time>
      </trkpt>
      <trkpt lat="42.3991790" lon="-4.0369490">
        <ele>830.6</ele>
        <time>2022-06-27T14:57:49Z</time>
      </trkpt>
      <trkpt lat="42.3992280" lon="-4.0371260">
        <ele>830.4</ele>
        <time>2022-06-27T14:57:50Z</time>
      </trkpt>
      <trkpt lat="42.3992520" lon="-4.0372470">
        <ele>830.2</ele>
        <time>2022-06-27T14:57:51Z</time>
      </trkpt>
      <trkpt lat="42.3992780" lon="-4.0374040">
        <ele>830.0</ele>
        <time>2022-06-27T14:57:52Z</time>
      </trkpt>
      <trkpt lat="42.3992950" lon="-4.0375650">
        <ele>830.0</ele>
        <time>2022-06-27T14:57:53Z</time>
      </trkpt>
      <trkpt lat="42.3993020" lon="-4.0377300">
        <ele>829.6</ele>
        <time>2022-06-27T14:57:54Z</time>
      </trkpt>
      <trkpt lat="42.3993030" lon="-4.0378960">
        <ele>829.6</ele>
        <time>2022-06-27T14:57:55Z</time>
      </trkpt>
      <trkpt lat="42.3992990" lon="-4.0380630">
        <ele>829.4</ele>
        <time>2022-06-27T14:57:56Z</time>
      </trkpt>
      <trkpt lat="42.3992870" lon="-4.0382310">
        <ele>829.2</ele>
        <time>2022-06-27T14:57:57Z</time>
      </trkpt>
      <trkpt lat="42.3992730" lon="-4.0383950">
        <ele>828.8</ele>
        <time>2022-06-27T14:57:58Z</time>
      </trkpt>
      <trkpt lat="42.3992530" lon="-4.0385610">
        <ele>828.4</ele>
        <time>2022-06-27T14:57:59Z</time>
      </trkpt>
      <trkpt lat="42.3992340" lon="-4.0387280">
        <ele>828.4</ele>
        <time>2022-06-27T14:58:00Z</time>
      </trkpt>
      <trkpt lat="42.3992140" lon="-4.0388950">
        <ele>828.0</ele>
        <time>2022-06-27T14:58:01Z</time>
      </trkpt>
      <trkpt lat="42.3991920" lon="-4.0390630">
        <ele>827.8</ele>
        <time>2022-06-27T14:58:02Z</time>
      </trkpt>
      <trkpt lat="42.3991720" lon="-4.0392310">
        <ele>827.4</ele>
        <time>2022-06-27T14:58:03Z</time>
      </trkpt>
      <trkpt lat="42.3991500" lon="-4.0394000">
        <ele>827.0</ele>
        <time>2022-06-27T14:58:04Z</time>
      </trkpt>
      <trkpt lat="42.3991270" lon="-4.0395690">
        <ele>826.6</ele>
        <time>2022-06-27T14:58:05Z</time>
      </trkpt>
      <trkpt lat="42.3991040" lon="-4.0397400">
        <ele>826.4</ele>
        <time>2022-06-27T14:58:06Z</time>
      </trkpt>
      <trkpt lat="42.3990820" lon="-4.0399090">
        <ele>826.2</ele>
        <time>2022-06-27T14:58:07Z</time>
      </trkpt>
      <trkpt lat="42.3990590" lon="-4.0400780">
        <ele>826.2</ele>
        <time>2022-06-27T14:58:08Z</time>
      </trkpt>
      <trkpt lat="42.3990370" lon="-4.0402460">
        <ele>826.0</ele>
        <time>2022-06-27T14:58:09Z</time>
      </trkpt>
      <trkpt lat="42.3990180" lon="-4.0404120">
        <ele>825.8</ele>
        <time>2022-06-27T14:58:10Z</time>
      </trkpt>
      <trkpt lat="42.3989990" lon="-4.0405760">
        <ele>825.8</ele>
        <time>2022-06-27T14:58:11Z</time>
      </trkpt>
      <trkpt lat="42.3989770" lon="-4.0407420">
        <ele>825.8</ele>
        <time>2022-06-27T14:58:12Z</time>
      </trkpt>
      <trkpt lat="42.3989550" lon="-4.0409070">
        <ele>825.6</ele>
        <time>2022-06-27T14:58:13Z</time>
      </trkpt>
      <trkpt lat="42.3989350" lon="-4.0410700">
        <ele>825.6</ele>
        <time>2022-06-27T14:58:14Z</time>
      </trkpt>
      <trkpt lat="42.3989140" lon="-4.0412330">
        <ele>825.6</ele>
        <time>2022-06-27T14:58:15Z</time>
      </trkpt>
      <trkpt lat="42.3988930" lon="-4.0413930">
        <ele>825.4</ele>
        <time>2022-06-27T14:58:16Z</time>
      </trkpt>
      <trkpt lat="42.3988720" lon="-4.0415540">
        <ele>825.4</ele>
        <time>2022-06-27T14:58:17Z</time>
      </trkpt>
      <trkpt lat="42.3988520" lon="-4.0417150">
        <ele>825.2</ele>
        <time>2022-06-27T14:58:18Z</time>
      </trkpt>
      <trkpt lat="42.3988320" lon="-4.0418730">
        <ele>825.0</ele>
        <time>2022-06-27T14:58:19Z</time>
      </trkpt>
      <trkpt lat="42.3988120" lon="-4.0420320">
        <ele>824.8</ele>
        <time>2022-06-27T14:58:20Z</time>
      </trkpt>
      <trkpt lat="42.3987930" lon="-4.0421900">
        <ele>824.8</ele>
        <time>2022-06-27T14:58:21Z</time>
      </trkpt>
      <trkpt lat="42.3987740" lon="-4.0423480">
        <ele>824.6</ele>
        <time>2022-06-27T14:58:22Z</time>
      </trkpt>
      <trkpt lat="42.3987550" lon="-4.0425050">
        <ele>824.6</ele>
        <time>2022-06-27T14:58:23Z</time>
      </trkpt>
      <trkpt lat="42.3987350" lon="-4.0426620">
        <ele>824.4</ele>
        <time>2022-06-27T14:58:24Z</time>
      </trkpt>
      <trkpt lat="42.3987140" lon="-4.0428190">
        <ele>824.4</ele>
        <time>2022-06-27T14:58:25Z</time>
      </trkpt>
      <trkpt lat="42.3986940" lon="-4.0429760">
        <ele>824.2</ele>
        <time>2022-06-27T14:58:26Z</time>
      </trkpt>
      <trkpt lat="42.3986760" lon="-4.0431310">
        <ele>824.0</ele>
        <time>2022-06-27T14:58:27Z</time>
      </trkpt>
      <trkpt lat="42.3986560" lon="-4.0432840">
        <ele>824.0</ele>
        <time>2022-06-27T14:58:28Z</time>
      </trkpt>
      <trkpt lat="42.3986370" lon="-4.0434370">
        <ele>823.8</ele>
        <time>2022-06-27T14:58:29Z</time>
      </trkpt>
      <trkpt lat="42.3986190" lon="-4.0435920">
        <ele>823.8</ele>
        <time>2022-06-27T14:58:30Z</time>
      </trkpt>
      <trkpt lat="42.3985990" lon="-4.0437460">
        <ele>823.8</ele>
        <time>2022-06-27T14:58:31Z</time>
      </trkpt>
      <trkpt lat="42.3985790" lon="-4.0439010">
        <ele>823.8</ele>
        <time>2022-06-27T14:58:32Z</time>
      </trkpt>
      <trkpt lat="42.3985590" lon="-4.0440530">
        <ele>823.6</ele>
        <time>2022-06-27T14:58:33Z</time>
      </trkpt>
      <trkpt lat="42.3985380" lon="-4.0442060">
        <ele>823.6</ele>
        <time>2022-06-27T14:58:34Z</time>
      </trkpt>
      <trkpt lat="42.3985190" lon="-4.0443570">
        <ele>823.6</ele>
        <time>2022-06-27T14:58:35Z</time>
      </trkpt>
      <trkpt lat="42.3985000" lon="-4.0445060">
        <ele>823.6</ele>
        <time>2022-06-27T14:58:36Z</time>
      </trkpt>
      <trkpt lat="42.3984820" lon="-4.0446530">
        <ele>823.6</ele>
        <time>2022-06-27T14:58:37Z</time>
      </trkpt>
      <trkpt lat="42.3984650" lon="-4.0447990">
        <ele>823.4</ele>
        <time>2022-06-27T14:58:38Z</time>
      </trkpt>
      <trkpt lat="42.3984480" lon="-4.0449440">
        <ele>823.4</ele>
        <time>2022-06-27T14:58:39Z</time>
      </trkpt>
      <trkpt lat="42.3984310" lon="-4.0450860">
        <ele>823.4</ele>
        <time>2022-06-27T14:58:40Z</time>
      </trkpt>
      <trkpt lat="42.3984130" lon="-4.0452280">
        <ele>823.6</ele>
        <time>2022-06-27T14:58:41Z</time>
      </trkpt>
      <trkpt lat="42.3983960" lon="-4.0453680">
        <ele>823.6</ele>
        <time>2022-06-27T14:58:42Z</time>
      </trkpt>
      <trkpt lat="42.3983800" lon="-4.0455060">
        <ele>823.8</ele>
        <time>2022-06-27T14:58:43Z</time>
      </trkpt>
      <trkpt lat="42.3983630" lon="-4.0456450">
        <ele>823.6</ele>
        <time>2022-06-27T14:58:44Z</time>
      </trkpt>
      <trkpt lat="42.3983440" lon="-4.0457830">
        <ele>824.0</ele>
        <time>2022-06-27T14:58:45Z</time>
      </trkpt>
      <trkpt lat="42.3983280" lon="-4.0459200">
        <ele>824.0</ele>
        <time>2022-06-27T14:58:46Z</time>
      </trkpt>
      <trkpt lat="42.3983110" lon="-4.0460550">
        <ele>824.0</ele>
        <time>2022-06-27T14:58:47Z</time>
      </trkpt>
      <trkpt lat="42.3982950" lon="-4.0461870">
        <ele>824.0</ele>
        <time>2022-06-27T14:58:48Z</time>
      </trkpt>
      <trkpt lat="42.3982800" lon="-4.0463190">
        <ele>824.0</ele>
        <time>2022-06-27T14:58:49Z</time>
      </trkpt>
      <trkpt lat="42.3982640" lon="-4.0464500">
        <ele>824.2</ele>
        <time>2022-06-27T14:58:50Z</time>
      </trkpt>
      <trkpt lat="42.3982490" lon="-4.0465800">
        <ele>824.2</ele>
        <time>2022-06-27T14:58:51Z</time>
      </trkpt>
      <trkpt lat="42.3982340" lon="-4.0467090">
        <ele>824.2</ele>
        <time>2022-06-27T14:58:52Z</time>
      </trkpt>
      <trkpt lat="42.3982190" lon="-4.0468380">
        <ele>824.4</ele>
        <time>2022-06-27T14:58:53Z</time>
      </trkpt>
      <trkpt lat="42.3982020" lon="-4.0469680">
        <ele>824.6</ele>
        <time>2022-06-27T14:58:54Z</time>
      </trkpt>
      <trkpt lat="42.3981880" lon="-4.0470980">
        <ele>824.8</ele>
        <time>2022-06-27T14:58:55Z</time>
      </trkpt>
      <trkpt lat="42.3981720" lon="-4.0472280">
        <ele>825.0</ele>
        <time>2022-06-27T14:58:56Z</time>
      </trkpt>
      <trkpt lat="42.3981570" lon="-4.0473580">
        <ele>825.0</ele>
        <time>2022-06-27T14:58:57Z</time>
      </trkpt>
      <trkpt lat="42.3981410" lon="-4.0474860">
        <ele>825.0</ele>
        <time>2022-06-27T14:58:58Z</time>
      </trkpt>
      <trkpt lat="42.3981240" lon="-4.0476150">
        <ele>825.0</ele>
        <time>2022-06-27T14:58:59Z</time>
      </trkpt>
      <trkpt lat="42.3981090" lon="-4.0477420">
        <ele>825.0</ele>
        <time>2022-06-27T14:59:00Z</time>
      </trkpt>
      <trkpt lat="42.3980930" lon="-4.0478690">
        <ele>825.2</ele>
        <time>2022-06-27T14:59:01Z</time>
      </trkpt>
      <trkpt lat="42.3980780" lon="-4.0479980">
        <ele>825.2</ele>
        <time>2022-06-27T14:59:02Z</time>
      </trkpt>
      <trkpt lat="42.3980620" lon="-4.0481270">
        <ele>825.2</ele>
        <time>2022-06-27T14:59:03Z</time>
      </trkpt>
      <trkpt lat="42.3980480" lon="-4.0482550">
        <ele>825.4</ele>
        <time>2022-06-27T14:59:04Z</time>
      </trkpt>
      <trkpt lat="42.3980310" lon="-4.0483820">
        <ele>825.4</ele>
        <time>2022-06-27T14:59:05Z</time>
      </trkpt>
      <trkpt lat="42.3980160" lon="-4.0485070">
        <ele>825.4</ele>
        <time>2022-06-27T14:59:06Z</time>
      </trkpt>
      <trkpt lat="42.3979990" lon="-4.0486330">
        <ele>825.4</ele>
        <time>2022-06-27T14:59:07Z</time>
      </trkpt>
      <trkpt lat="42.3979820" lon="-4.0487580">
        <ele>825.4</ele>
        <time>2022-06-27T14:59:08Z</time>
      </trkpt>
      <trkpt lat="42.3979650" lon="-4.0488850">
        <ele>825.6</ele>
        <time>2022-06-27T14:59:09Z</time>
      </trkpt>
      <trkpt lat="42.3979490" lon="-4.0490110">
        <ele>825.8</ele>
        <time>2022-06-27T14:59:10Z</time>
      </trkpt>
      <trkpt lat="42.3979330" lon="-4.0491380">
        <ele>825.8</ele>
        <time>2022-06-27T14:59:11Z</time>
      </trkpt>
      <trkpt lat="42.3979180" lon="-4.0492650">
        <ele>825.8</ele>
        <time>2022-06-27T14:59:12Z</time>
      </trkpt>
      <trkpt lat="42.3979030" lon="-4.0493930">
        <ele>826.0</ele>
        <time>2022-06-27T14:59:13Z</time>
      </trkpt>
      <trkpt lat="42.3978850" lon="-4.0495470">
        <ele>826.0</ele>
        <time>2022-06-27T14:59:14Z</time>
      </trkpt>
      <trkpt lat="42.3978730" lon="-4.0496490">
        <ele>826.2</ele>
        <time>2022-06-27T14:59:15Z</time>
      </trkpt>
      <trkpt lat="42.3978560" lon="-4.0497780">
        <ele>826.2</ele>
        <time>2022-06-27T14:59:16Z</time>
      </trkpt>
      <trkpt lat="42.3978380" lon="-4.0499080">
        <ele>826.2</ele>
        <time>2022-06-27T14:59:17Z</time>
      </trkpt>
      <trkpt lat="42.3978220" lon="-4.0500410">
        <ele>826.2</ele>
        <time>2022-06-27T14:59:18Z</time>
      </trkpt>
      <trkpt lat="42.3978060" lon="-4.0501740">
        <ele>826.2</ele>
        <time>2022-06-27T14:59:19Z</time>
      </trkpt>
      <trkpt lat="42.3977910" lon="-4.0503090">
        <ele>826.2</ele>
        <time>2022-06-27T14:59:20Z</time>
      </trkpt>
      <trkpt lat="42.3977760" lon="-4.0504440">
        <ele>826.2</ele>
        <time>2022-06-27T14:59:21Z</time>
      </trkpt>
      <trkpt lat="42.3977580" lon="-4.0505800">
        <ele>826.2</ele>
        <time>2022-06-27T14:59:22Z</time>
      </trkpt>
      <trkpt lat="42.3977410" lon="-4.0507160">
        <ele>826.2</ele>
        <time>2022-06-27T14:59:23Z</time>
      </trkpt>
      <trkpt lat="42.3977230" lon="-4.0508510">
        <ele>826.2</ele>
        <time>2022-06-27T14:59:24Z</time>
      </trkpt>
      <trkpt lat="42.3977040" lon="-4.0509870">
        <ele>826.2</ele>
        <time>2022-06-27T14:59:25Z</time>
      </trkpt>
      <trkpt lat="42.3976850" lon="-4.0511220">
        <ele>826.2</ele>
        <time>2022-06-27T14:59:26Z</time>
      </trkpt>
      <trkpt lat="42.3976690" lon="-4.0512580">
        <ele>826.0</ele>
        <time>2022-06-27T14:59:27Z</time>
      </trkpt>
      <trkpt lat="42.3976530" lon="-4.0513940">
        <ele>826.0</ele>
        <time>2022-06-27T14:59:28Z</time>
      </trkpt>
      <trkpt lat="42.3976370" lon="-4.0515310">
        <ele>826.0</ele>
        <time>2022-06-27T14:59:29Z</time>
      </trkpt>
      <trkpt lat="42.3976200" lon="-4.0516680">
        <ele>826.0</ele>
        <time>2022-06-27T14:59:30Z</time>
      </trkpt>
      <trkpt lat="42.3976030" lon="-4.0518030">
        <ele>826.0</ele>
        <time>2022-06-27T14:59:31Z</time>
      </trkpt>
      <trkpt lat="42.3975850" lon="-4.0519390">
        <ele>826.0</ele>
        <time>2022-06-27T14:59:32Z</time>
      </trkpt>
      <trkpt lat="42.3975680" lon="-4.0520750">
        <ele>826.0</ele>
        <time>2022-06-27T14:59:33Z</time>
      </trkpt>
      <trkpt lat="42.3975520" lon="-4.0522110">
        <ele>826.0</ele>
        <time>2022-06-27T14:59:34Z</time>
      </trkpt>
      <trkpt lat="42.3975360" lon="-4.0523470">
        <ele>825.8</ele>
        <time>2022-06-27T14:59:35Z</time>
      </trkpt>
      <trkpt lat="42.3975180" lon="-4.0524840">
        <ele>825.8</ele>
        <time>2022-06-27T14:59:36Z</time>
      </trkpt>
      <trkpt lat="42.3975020" lon="-4.0526210">
        <ele>825.8</ele>
        <time>2022-06-27T14:59:37Z</time>
      </trkpt>
      <trkpt lat="42.3974860" lon="-4.0527600">
        <ele>825.6</ele>
        <time>2022-06-27T14:59:38Z</time>
      </trkpt>
      <trkpt lat="42.3974700" lon="-4.0528980">
        <ele>825.6</ele>
        <time>2022-06-27T14:59:39Z</time>
      </trkpt>
      <trkpt lat="42.3974550" lon="-4.0530360">
        <ele>825.4</ele>
        <time>2022-06-27T14:59:40Z</time>
      </trkpt>
      <trkpt lat="42.3974380" lon="-4.0531730">
        <ele>825.4</ele>
        <time>2022-06-27T14:59:41Z</time>
      </trkpt>
      <trkpt lat="42.3974220" lon="-4.0533090">
        <ele>825.4</ele>
        <time>2022-06-27T14:59:42Z</time>
      </trkpt>
      <trkpt lat="42.3974040" lon="-4.0534470">
        <ele>825.2</ele>
        <time>2022-06-27T14:59:43Z</time>
      </trkpt>
      <trkpt lat="42.3973860" lon="-4.0535870">
        <ele>825.2</ele>
        <time>2022-06-27T14:59:44Z</time>
      </trkpt>
      <trkpt lat="42.3973690" lon="-4.0537270">
        <ele>825.2</ele>
        <time>2022-06-27T14:59:45Z</time>
      </trkpt>
      <trkpt lat="42.3973520" lon="-4.0538680">
        <ele>825.2</ele>
        <time>2022-06-27T14:59:46Z</time>
      </trkpt>
      <trkpt lat="42.3973340" lon="-4.0540110">
        <ele>825.2</ele>
        <time>2022-06-27T14:59:47Z</time>
      </trkpt>
      <trkpt lat="42.3973170" lon="-4.0541550">
        <ele>825.2</ele>
        <time>2022-06-27T14:59:48Z</time>
      </trkpt>
      <trkpt lat="42.3972990" lon="-4.0543000">
        <ele>825.2</ele>
        <time>2022-06-27T14:59:49Z</time>
      </trkpt>
      <trkpt lat="42.3972810" lon="-4.0544460">
        <ele>825.2</ele>
        <time>2022-06-27T14:59:50Z</time>
      </trkpt>
      <trkpt lat="42.3972630" lon="-4.0545920">
        <ele>825.2</ele>
        <time>2022-06-27T14:59:51Z</time>
      </trkpt>
      <trkpt lat="42.3972460" lon="-4.0547390">
        <ele>825.2</ele>
        <time>2022-06-27T14:59:52Z</time>
      </trkpt>
      <trkpt lat="42.3972270" lon="-4.0548850">
        <ele>825.0</ele>
        <time>2022-06-27T14:59:53Z</time>
      </trkpt>
      <trkpt lat="42.3972070" lon="-4.0550310">
        <ele>825.0</ele>
        <time>2022-06-27T14:59:54Z</time>
      </trkpt>
      <trkpt lat="42.3971880" lon="-4.0551760">
        <ele>825.0</ele>
        <time>2022-06-27T14:59:55Z</time>
      </trkpt>
      <trkpt lat="42.3971700" lon="-4.0553220">
        <ele>825.0</ele>
        <time>2022-06-27T14:59:56Z</time>
      </trkpt>
      <trkpt lat="42.3971520" lon="-4.0554700">
        <ele>825.0</ele>
        <time>2022-06-27T14:59:57Z</time>
      </trkpt>
      <trkpt lat="42.3971340" lon="-4.0556180">
        <ele>825.0</ele>
        <time>2022-06-27T14:59:58Z</time>
      </trkpt>
      <trkpt lat="42.3971160" lon="-4.0557660">
        <ele>824.8</ele>
        <time>2022-06-27T14:59:59Z</time>
      </trkpt>
      <trkpt lat="42.3970980" lon="-4.0559140">
        <ele>824.6</ele>
        <time>2022-06-27T15:00:00Z</time>
      </trkpt>
      <trkpt lat="42.3970790" lon="-4.0560920">
        <ele>824.4</ele>
        <time>2022-06-27T15:00:01Z</time>
      </trkpt>
      <trkpt lat="42.3970650" lon="-4.0562130">
        <ele>824.2</ele>
        <time>2022-06-27T15:00:02Z</time>
      </trkpt>
      <trkpt lat="42.3970480" lon="-4.0563650">
        <ele>824.2</ele>
        <time>2022-06-27T15:00:03Z</time>
      </trkpt>
      <trkpt lat="42.3970300" lon="-4.0565170">
        <ele>824.0</ele>
        <time>2022-06-27T15:00:04Z</time>
      </trkpt>
      <trkpt lat="42.3970120" lon="-4.0566680">
        <ele>823.8</ele>
        <time>2022-06-27T15:00:05Z</time>
      </trkpt>
      <trkpt lat="42.3969920" lon="-4.0568200">
        <ele>823.6</ele>
        <time>2022-06-27T15:00:06Z</time>
      </trkpt>
      <trkpt lat="42.3969700" lon="-4.0569740">
        <ele>823.6</ele>
        <time>2022-06-27T15:00:07Z</time>
      </trkpt>
      <trkpt lat="42.3969500" lon="-4.0571260">
        <ele>823.4</ele>
        <time>2022-06-27T15:00:08Z</time>
      </trkpt>
      <trkpt lat="42.3969320" lon="-4.0572790">
        <ele>823.2</ele>
        <time>2022-06-27T15:00:09Z</time>
      </trkpt>
      <trkpt lat="42.3969140" lon="-4.0574320">
        <ele>823.2</ele>
        <time>2022-06-27T15:00:10Z</time>
      </trkpt>
      <trkpt lat="42.3968940" lon="-4.0575870">
        <ele>823.2</ele>
        <time>2022-06-27T15:00:11Z</time>
      </trkpt>
      <trkpt lat="42.3968740" lon="-4.0577420">
        <ele>823.2</ele>
        <time>2022-06-27T15:00:12Z</time>
      </trkpt>
      <trkpt lat="42.3968560" lon="-4.0578990">
        <ele>823.0</ele>
        <time>2022-06-27T15:00:13Z</time>
      </trkpt>
      <trkpt lat="42.3968360" lon="-4.0580550">
        <ele>822.8</ele>
        <time>2022-06-27T15:00:14Z</time>
      </trkpt>
      <trkpt lat="42.3968150" lon="-4.0582110">
        <ele>822.6</ele>
        <time>2022-06-27T15:00:15Z</time>
      </trkpt>
      <trkpt lat="42.3967950" lon="-4.0583670">
        <ele>822.0</ele>
        <time>2022-06-27T15:00:16Z</time>
      </trkpt>
      <trkpt lat="42.3967760" lon="-4.0585230">
        <ele>821.8</ele>
        <time>2022-06-27T15:00:17Z</time>
      </trkpt>
      <trkpt lat="42.3967580" lon="-4.0586820">
        <ele>821.6</ele>
        <time>2022-06-27T15:00:18Z</time>
      </trkpt>
      <trkpt lat="42.3967390" lon="-4.0588420">
        <ele>821.6</ele>
        <time>2022-06-27T15:00:19Z</time>
      </trkpt>
      <trkpt lat="42.3967200" lon="-4.0590010">
        <ele>821.4</ele>
        <time>2022-06-27T15:00:20Z</time>
      </trkpt>
      <trkpt lat="42.3966990" lon="-4.0591640">
        <ele>821.2</ele>
        <time>2022-06-27T15:00:21Z</time>
      </trkpt>
      <trkpt lat="42.3966780" lon="-4.0593280">
        <ele>821.0</ele>
        <time>2022-06-27T15:00:22Z</time>
      </trkpt>
      <trkpt lat="42.3966560" lon="-4.0594920">
        <ele>821.0</ele>
        <time>2022-06-27T15:00:23Z</time>
      </trkpt>
      <trkpt lat="42.3966350" lon="-4.0596560">
        <ele>820.8</ele>
        <time>2022-06-27T15:00:24Z</time>
      </trkpt>
      <trkpt lat="42.3966140" lon="-4.0598210">
        <ele>820.4</ele>
        <time>2022-06-27T15:00:25Z</time>
      </trkpt>
      <trkpt lat="42.3965930" lon="-4.0599860">
        <ele>820.4</ele>
        <time>2022-06-27T15:00:26Z</time>
      </trkpt>
      <trkpt lat="42.3965740" lon="-4.0601510">
        <ele>820.0</ele>
        <time>2022-06-27T15:00:27Z</time>
      </trkpt>
      <trkpt lat="42.3965540" lon="-4.0603160">
        <ele>819.8</ele>
        <time>2022-06-27T15:00:28Z</time>
      </trkpt>
      <trkpt lat="42.3965310" lon="-4.0605180">
        <ele>819.6</ele>
        <time>2022-06-27T15:00:29Z</time>
      </trkpt>
      <trkpt lat="42.3965150" lon="-4.0606520">
        <ele>819.4</ele>
        <time>2022-06-27T15:00:30Z</time>
      </trkpt>
      <trkpt lat="42.3964930" lon="-4.0608220">
        <ele>819.4</ele>
        <time>2022-06-27T15:00:31Z</time>
      </trkpt>
      <trkpt lat="42.3964710" lon="-4.0609920">
        <ele>819.2</ele>
        <time>2022-06-27T15:00:32Z</time>
      </trkpt>
      <trkpt lat="42.3964510" lon="-4.0611600">
        <ele>819.2</ele>
        <time>2022-06-27T15:00:33Z</time>
      </trkpt>
      <trkpt lat="42.3964280" lon="-4.0613280">
        <ele>819.0</ele>
        <time>2022-06-27T15:00:34Z</time>
      </trkpt>
      <trkpt lat="42.3964060" lon="-4.0614980">
        <ele>818.8</ele>
        <time>2022-06-27T15:00:35Z</time>
      </trkpt>
      <trkpt lat="42.3963840" lon="-4.0616680">
        <ele>818.6</ele>
        <time>2022-06-27T15:00:36Z</time>
      </trkpt>
      <trkpt lat="42.3963640" lon="-4.0618360">
        <ele>818.2</ele>
        <time>2022-06-27T15:00:37Z</time>
      </trkpt>
      <trkpt lat="42.3963440" lon="-4.0620050">
        <ele>818.0</ele>
        <time>2022-06-27T15:00:38Z</time>
      </trkpt>
      <trkpt lat="42.3963230" lon="-4.0621750">
        <ele>817.8</ele>
        <time>2022-06-27T15:00:39Z</time>
      </trkpt>
      <trkpt lat="42.3963010" lon="-4.0623460">
        <ele>817.6</ele>
        <time>2022-06-27T15:00:40Z</time>
      </trkpt>
      <trkpt lat="42.3962790" lon="-4.0625180">
        <ele>817.4</ele>
        <time>2022-06-27T15:00:41Z</time>
      </trkpt>
      <trkpt lat="42.3962580" lon="-4.0626860">
        <ele>817.4</ele>
        <time>2022-06-27T15:00:42Z</time>
      </trkpt>
      <trkpt lat="42.3962320" lon="-4.0628900">
        <ele>817.0</ele>
        <time>2022-06-27T15:00:43Z</time>
      </trkpt>
      <trkpt lat="42.3962170" lon="-4.0630250">
        <ele>817.0</ele>
        <time>2022-06-27T15:00:44Z</time>
      </trkpt>
      <trkpt lat="42.3961960" lon="-4.0631940">
        <ele>816.8</ele>
        <time>2022-06-27T15:00:45Z</time>
      </trkpt>
      <trkpt lat="42.3961750" lon="-4.0633620">
        <ele>816.8</ele>
        <time>2022-06-27T15:00:46Z</time>
      </trkpt>
      <trkpt lat="42.3961540" lon="-4.0635300">
        <ele>816.8</ele>
        <time>2022-06-27T15:00:47Z</time>
      </trkpt>
      <trkpt lat="42.3961330" lon="-4.0636980">
        <ele>816.8</ele>
        <time>2022-06-27T15:00:48Z</time>
      </trkpt>
      <trkpt lat="42.3961130" lon="-4.0638640">
        <ele>816.6</ele>
        <time>2022-06-27T15:00:49Z</time>
      </trkpt>
      <trkpt lat="42.3960910" lon="-4.0640300">
        <ele>816.4</ele>
        <time>2022-06-27T15:00:50Z</time>
      </trkpt>
      <trkpt lat="42.3960710" lon="-4.0641940">
        <ele>816.2</ele>
        <time>2022-06-27T15:00:51Z</time>
      </trkpt>
      <trkpt lat="42.3960510" lon="-4.0643580">
        <ele>816.2</ele>
        <time>2022-06-27T15:00:52Z</time>
      </trkpt>
      <trkpt lat="42.3960310" lon="-4.0645210">
        <ele>816.2</ele>
        <time>2022-06-27T15:00:53Z</time>
      </trkpt>
      <trkpt lat="42.3960120" lon="-4.0646850">
        <ele>816.2</ele>
        <time>2022-06-27T15:00:54Z</time>
      </trkpt>
      <trkpt lat="42.3959920" lon="-4.0648480">
        <ele>816.0</ele>
        <time>2022-06-27T15:00:55Z</time>
      </trkpt>
      <trkpt lat="42.3959710" lon="-4.0650120">
        <ele>816.0</ele>
        <time>2022-06-27T15:00:56Z</time>
      </trkpt>
      <trkpt lat="42.3959490" lon="-4.0651770">
        <ele>815.8</ele>
        <time>2022-06-27T15:00:57Z</time>
      </trkpt>
      <trkpt lat="42.3959240" lon="-4.0653400">
        <ele>815.6</ele>
        <time>2022-06-27T15:00:58Z</time>
      </trkpt>
      <trkpt lat="42.3958970" lon="-4.0655030">
        <ele>815.6</ele>
        <time>2022-06-27T15:00:59Z</time>
      </trkpt>
      <trkpt lat="42.3958680" lon="-4.0656650">
        <ele>815.4</ele>
        <time>2022-06-27T15:01:00Z</time>
      </trkpt>
      <trkpt lat="42.3958370" lon="-4.0658270">
        <ele>815.4</ele>
        <time>2022-06-27T15:01:01Z</time>
      </trkpt>
      <trkpt lat="42.3958020" lon="-4.0659860">
        <ele>815.4</ele>
        <time>2022-06-27T15:01:02Z</time>
      </trkpt>
      <trkpt lat="42.3957630" lon="-4.0661440">
        <ele>815.2</ele>
        <time>2022-06-27T15:01:03Z</time>
      </trkpt>
      <trkpt lat="42.3957240" lon="-4.0663000">
        <ele>815.2</ele>
        <time>2022-06-27T15:01:04Z</time>
      </trkpt>
      <trkpt lat="42.3956810" lon="-4.0664550">
        <ele>814.8</ele>
        <time>2022-06-27T15:01:05Z</time>
      </trkpt>
      <trkpt lat="42.3956370" lon="-4.0666060">
        <ele>814.6</ele>
        <time>2022-06-27T15:01:06Z</time>
      </trkpt>
      <trkpt lat="42.3955880" lon="-4.0667540">
        <ele>814.4</ele>
        <time>2022-06-27T15:01:07Z</time>
      </trkpt>
      <trkpt lat="42.3955360" lon="-4.0669010">
        <ele>814.2</ele>
        <time>2022-06-27T15:01:08Z</time>
      </trkpt>
      <trkpt lat="42.3954810" lon="-4.0670460">
        <ele>813.8</ele>
        <time>2022-06-27T15:01:09Z</time>
      </trkpt>
      <trkpt lat="42.3954240" lon="-4.0671840">
        <ele>813.6</ele>
        <time>2022-06-27T15:01:10Z</time>
      </trkpt>
      <trkpt lat="42.3953610" lon="-4.0673220">
        <ele>813.6</ele>
        <time>2022-06-27T15:01:11Z</time>
      </trkpt>
      <trkpt lat="42.3952970" lon="-4.0674570">
        <ele>813.4</ele>
        <time>2022-06-27T15:01:12Z</time>
      </trkpt>
      <trkpt lat="42.3952310" lon="-4.0675890">
        <ele>813.2</ele>
        <time>2022-06-27T15:01:13Z</time>
      </trkpt>
      <trkpt lat="42.3951640" lon="-4.0677180">
        <ele>813.0</ele>
        <time>2022-06-27T15:01:14Z</time>
      </trkpt>
      <trkpt lat="42.3950930" lon="-4.0678450">
        <ele>813.0</ele>
        <time>2022-06-27T15:01:15Z</time>
      </trkpt>
      <trkpt lat="42.3950210" lon="-4.0679700">
        <ele>813.0</ele>
        <time>2022-06-27T15:01:16Z</time>
      </trkpt>
      <trkpt lat="42.3949450" lon="-4.0680910">
        <ele>813.0</ele>
        <time>2022-06-27T15:01:17Z</time>
      </trkpt>
      <trkpt lat="42.3948680" lon="-4.0682080">
        <ele>813.0</ele>
        <time>2022-06-27T15:01:18Z</time>
      </trkpt>
      <trkpt lat="42.3947730" lon="-4.0683500">
        <ele>812.8</ele>
        <time>2022-06-27T15:01:19Z</time>
      </trkpt>
      <trkpt lat="42.3947080" lon="-4.0684420">
        <ele>812.8</ele>
        <time>2022-06-27T15:01:20Z</time>
      </trkpt>
      <trkpt lat="42.3946270" lon="-4.0685580">
        <ele>812.8</ele>
        <time>2022-06-27T15:01:21Z</time>
      </trkpt>
      <trkpt lat="42.3945470" lon="-4.0686710">
        <ele>812.8</ele>
        <time>2022-06-27T15:01:22Z</time>
      </trkpt>
      <trkpt lat="42.3944660" lon="-4.0687830">
        <ele>812.4</ele>
        <time>2022-06-27T15:01:23Z</time>
      </trkpt>
      <trkpt lat="42.3943850" lon="-4.0688960">
        <ele>812.2</ele>
        <time>2022-06-27T15:01:24Z</time>
      </trkpt>
      <trkpt lat="42.3943060" lon="-4.0690110">
        <ele>812.0</ele>
        <time>2022-06-27T15:01:25Z</time>
      </trkpt>
      <trkpt lat="42.3942280" lon="-4.0691280">
        <ele>811.6</ele>
        <time>2022-06-27T15:01:26Z</time>
      </trkpt>
      <trkpt lat="42.3941500" lon="-4.0692440">
        <ele>811.6</ele>
        <time>2022-06-27T15:01:27Z</time>
      </trkpt>
      <trkpt lat="42.3940740" lon="-4.0693600">
        <ele>811.6</ele>
        <time>2022-06-27T15:01:28Z</time>
      </trkpt>
      <trkpt lat="42.3939980" lon="-4.0694780">
        <ele>811.6</ele>
        <time>2022-06-27T15:01:29Z</time>
      </trkpt>
      <trkpt lat="42.3939230" lon="-4.0695980">
        <ele>811.6</ele>
        <time>2022-06-27T15:01:30Z</time>
      </trkpt>
      <trkpt lat="42.3938510" lon="-4.0697200">
        <ele>811.8</ele>
        <time>2022-06-27T15:01:31Z</time>
      </trkpt>
      <trkpt lat="42.3937810" lon="-4.0698460">
        <ele>811.8</ele>
        <time>2022-06-27T15:01:32Z</time>
      </trkpt>
      <trkpt lat="42.3937120" lon="-4.0699730">
        <ele>811.8</ele>
        <time>2022-06-27T15:01:33Z</time>
      </trkpt>
      <trkpt lat="42.3936460" lon="-4.0701020">
        <ele>811.8</ele>
        <time>2022-06-27T15:01:34Z</time>
      </trkpt>
      <trkpt lat="42.3935820" lon="-4.0702340">
        <ele>812.0</ele>
        <time>2022-06-27T15:01:35Z</time>
      </trkpt>
      <trkpt lat="42.3935210" lon="-4.0703700">
        <ele>812.0</ele>
        <time>2022-06-27T15:01:36Z</time>
      </trkpt>
      <trkpt lat="42.3934600" lon="-4.0705070">
        <ele>811.8</ele>
        <time>2022-06-27T15:01:37Z</time>
      </trkpt>
      <trkpt lat="42.3934030" lon="-4.0706430">
        <ele>812.0</ele>
        <time>2022-06-27T15:01:38Z</time>
      </trkpt>
      <trkpt lat="42.3933480" lon="-4.0707820">
        <ele>811.8</ele>
        <time>2022-06-27T15:01:39Z</time>
      </trkpt>
      <trkpt lat="42.3932950" lon="-4.0709220">
        <ele>811.6</ele>
        <time>2022-06-27T15:01:40Z</time>
      </trkpt>
      <trkpt lat="42.3932470" lon="-4.0710660">
        <ele>811.4</ele>
        <time>2022-06-27T15:01:41Z</time>
      </trkpt>
      <trkpt lat="42.3932010" lon="-4.0712110">
        <ele>811.4</ele>
        <time>2022-06-27T15:01:42Z</time>
      </trkpt>
      <trkpt lat="42.3931570" lon="-4.0713570">
        <ele>811.2</ele>
        <time>2022-06-27T15:01:43Z</time>
      </trkpt>
      <trkpt lat="42.3931170" lon="-4.0715050">
        <ele>811.2</ele>
        <time>2022-06-27T15:01:44Z</time>
      </trkpt>
      <trkpt lat="42.3930790" lon="-4.0716530">
        <ele>811.2</ele>
        <time>2022-06-27T15:01:45Z</time>
      </trkpt>
      <trkpt lat="42.3930430" lon="-4.0718020">
        <ele>811.2</ele>
        <time>2022-06-27T15:01:46Z</time>
      </trkpt>
      <trkpt lat="42.3930100" lon="-4.0719530">
        <ele>811.2</ele>
        <time>2022-06-27T15:01:47Z</time>
      </trkpt>
      <trkpt lat="42.3929810" lon="-4.0721040">
        <ele>811.0</ele>
        <time>2022-06-27T15:01:48Z</time>
      </trkpt>
      <trkpt lat="42.3929530" lon="-4.0722550">
        <ele>811.0</ele>
        <time>2022-06-27T15:01:49Z</time>
      </trkpt>
      <trkpt lat="42.3929280" lon="-4.0724070">
        <ele>811.0</ele>
        <time>2022-06-27T15:01:50Z</time>
      </trkpt>
      <trkpt lat="42.3929050" lon="-4.0725590">
        <ele>810.8</ele>
        <time>2022-06-27T15:01:51Z</time>
      </trkpt>
      <trkpt lat="42.3928850" lon="-4.0727110">
        <ele>810.6</ele>
        <time>2022-06-27T15:01:52Z</time>
      </trkpt>
      <trkpt lat="42.3928670" lon="-4.0728930">
        <ele>810.2</ele>
        <time>2022-06-27T15:01:53Z</time>
      </trkpt>
      <trkpt lat="42.3928600" lon="-4.0730130">
        <ele>810.4</ele>
        <time>2022-06-27T15:01:54Z</time>
      </trkpt>
      <trkpt lat="42.3928550" lon="-4.0731640">
        <ele>809.8</ele>
        <time>2022-06-27T15:01:55Z</time>
      </trkpt>
      <trkpt lat="42.3928530" lon="-4.0733140">
        <ele>809.6</ele>
        <time>2022-06-27T15:01:56Z</time>
      </trkpt>
      <trkpt lat="42.3928520" lon="-4.0734650">
        <ele>809.6</ele>
        <time>2022-06-27T15:01:57Z</time>
      </trkpt>
      <trkpt lat="42.3928510" lon="-4.0736150">
        <ele>809.6</ele>
        <time>2022-06-27T15:01:58Z</time>
      </trkpt>
      <trkpt lat="42.3928510" lon="-4.0737630">
        <ele>809.6</ele>
        <time>2022-06-27T15:01:59Z</time>
      </trkpt>
      <trkpt lat="42.3928520" lon="-4.0739130">
        <ele>809.4</ele>
        <time>2022-06-27T15:02:00Z</time>
      </trkpt>
      <trkpt lat="42.3928530" lon="-4.0740610">
        <ele>809.4</ele>
        <time>2022-06-27T15:02:01Z</time>
      </trkpt>
      <trkpt lat="42.3928550" lon="-4.0742070">
        <ele>809.6</ele>
        <time>2022-06-27T15:02:02Z</time>
      </trkpt>
      <trkpt lat="42.3928580" lon="-4.0743510">
        <ele>809.4</ele>
        <time>2022-06-27T15:02:03Z</time>
      </trkpt>
      <trkpt lat="42.3928620" lon="-4.0744930">
        <ele>809.4</ele>
        <time>2022-06-27T15:02:04Z</time>
      </trkpt>
      <trkpt lat="42.3928660" lon="-4.0746340">
        <ele>809.6</ele>
        <time>2022-06-27T15:02:05Z</time>
      </trkpt>
      <trkpt lat="42.3928700" lon="-4.0747750">
        <ele>809.8</ele>
        <time>2022-06-27T15:02:06Z</time>
      </trkpt>
      <trkpt lat="42.3928770" lon="-4.0749440">
        <ele>810.0</ele>
        <time>2022-06-27T15:02:07Z</time>
      </trkpt>
      <trkpt lat="42.3928810" lon="-4.0750550">
        <ele>810.2</ele>
        <time>2022-06-27T15:02:08Z</time>
      </trkpt>
      <trkpt lat="42.3928810" lon="-4.0751930">
        <ele>810.0</ele>
        <time>2022-06-27T15:02:09Z</time>
      </trkpt>
      <trkpt lat="42.3928800" lon="-4.0753320">
        <ele>810.2</ele>
        <time>2022-06-27T15:02:10Z</time>
      </trkpt>
      <trkpt lat="42.3928790" lon="-4.0754710">
        <ele>810.2</ele>
        <time>2022-06-27T15:02:11Z</time>
      </trkpt>
      <trkpt lat="42.3928810" lon="-4.0756120">
        <ele>810.0</ele>
        <time>2022-06-27T15:02:12Z</time>
      </trkpt>
      <trkpt lat="42.3928810" lon="-4.0757550">
        <ele>810.0</ele>
        <time>2022-06-27T15:02:13Z</time>
      </trkpt>
      <trkpt lat="42.3928810" lon="-4.0759000">
        <ele>810.0</ele>
        <time>2022-06-27T15:02:14Z</time>
      </trkpt>
      <trkpt lat="42.3928780" lon="-4.0760430">
        <ele>810.0</ele>
        <time>2022-06-27T15:02:15Z</time>
      </trkpt>
      <trkpt lat="42.3928760" lon="-4.0761900">
        <ele>810.2</ele>
        <time>2022-06-27T15:02:16Z</time>
      </trkpt>
      <trkpt lat="42.3928730" lon="-4.0763350">
        <ele>810.4</ele>
        <time>2022-06-27T15:02:17Z</time>
      </trkpt>
      <trkpt lat="42.3928680" lon="-4.0764830">
        <ele>810.4</ele>
        <time>2022-06-27T15:02:18Z</time>
      </trkpt>
      <trkpt lat="42.3928600" lon="-4.0766350">
        <ele>810.4</ele>
        <time>2022-06-27T15:02:19Z</time>
      </trkpt>
      <trkpt lat="42.3928520" lon="-4.0767860">
        <ele>810.4</ele>
        <time>2022-06-27T15:02:20Z</time>
      </trkpt>
      <trkpt lat="42.3928430" lon="-4.0769360">
        <ele>810.2</ele>
        <time>2022-06-27T15:02:21Z</time>
      </trkpt>
      <trkpt lat="42.3928320" lon="-4.0770850">
        <ele>810.2</ele>
        <time>2022-06-27T15:02:22Z</time>
      </trkpt>
      <trkpt lat="42.3928190" lon="-4.0772350">
        <ele>810.2</ele>
        <time>2022-06-27T15:02:23Z</time>
      </trkpt>
      <trkpt lat="42.3928040" lon="-4.0773850">
        <ele>810.2</ele>
        <time>2022-06-27T15:02:24Z</time>
      </trkpt>
      <trkpt lat="42.3927870" lon="-4.0775350">
        <ele>810.2</ele>
        <time>2022-06-27T15:02:25Z</time>
      </trkpt>
      <trkpt lat="42.3927680" lon="-4.0776840">
        <ele>810.0</ele>
        <time>2022-06-27T15:02:26Z</time>
      </trkpt>
      <trkpt lat="42.3927440" lon="-4.0778330">
        <ele>810.0</ele>
        <time>2022-06-27T15:02:27Z</time>
      </trkpt>
      <trkpt lat="42.3927190" lon="-4.0779810">
        <ele>809.8</ele>
        <time>2022-06-27T15:02:28Z</time>
      </trkpt>
      <trkpt lat="42.3926920" lon="-4.0781290">
        <ele>809.8</ele>
        <time>2022-06-27T15:02:29Z</time>
      </trkpt>
      <trkpt lat="42.3926650" lon="-4.0782750">
        <ele>809.8</ele>
        <time>2022-06-27T15:02:30Z</time>
      </trkpt>
      <trkpt lat="42.3926360" lon="-4.0784200">
        <ele>809.8</ele>
        <time>2022-06-27T15:02:31Z</time>
      </trkpt>
      <trkpt lat="42.3926050" lon="-4.0785640">
        <ele>810.0</ele>
        <time>2022-06-27T15:02:32Z</time>
      </trkpt>
      <trkpt lat="42.3925730" lon="-4.0787060">
        <ele>810.0</ele>
        <time>2022-06-27T15:02:33Z</time>
      </trkpt>
      <trkpt lat="42.3925400" lon="-4.0788450">
        <ele>810.0</ele>
        <time>2022-06-27T15:02:34Z</time>
      </trkpt>
      <trkpt lat="42.3924960" lon="-4.0790070">
        <ele>809.8</ele>
        <time>2022-06-27T15:02:35Z</time>
      </trkpt>
      <trkpt lat="42.3924670" lon="-4.0791160">
        <ele>809.8</ele>
        <time>2022-06-27T15:02:36Z</time>
      </trkpt>
      <trkpt lat="42.3924320" lon="-4.0792530">
        <ele>810.0</ele>
        <time>2022-06-27T15:02:37Z</time>
      </trkpt>
      <trkpt lat="42.3923940" lon="-4.0793900">
        <ele>809.8</ele>
        <time>2022-06-27T15:02:38Z</time>
      </trkpt>
      <trkpt lat="42.3923520" lon="-4.0795270">
        <ele>809.8</ele>
        <time>2022-06-27T15:02:39Z</time>
      </trkpt>
      <trkpt lat="42.3923080" lon="-4.0796580">
        <ele>809.8</ele>
        <time>2022-06-27T15:02:40Z</time>
      </trkpt>
      <trkpt lat="42.3922660" lon="-4.0797920">
        <ele>809.6</ele>
        <time>2022-06-27T15:02:41Z</time>
      </trkpt>
      <trkpt lat="42.3922220" lon="-4.0799230">
        <ele>809.6</ele>
        <time>2022-06-27T15:02:42Z</time>
      </trkpt>
      <trkpt lat="42.3921740" lon="-4.0800510">
        <ele>809.6</ele>
        <time>2022-06-27T15:02:43Z</time>
      </trkpt>
      <trkpt lat="42.3921240" lon="-4.0801820">
        <ele>809.4</ele>
        <time>2022-06-27T15:02:44Z</time>
      </trkpt>
      <trkpt lat="42.3920740" lon="-4.0803110">
        <ele>809.2</ele>
        <time>2022-06-27T15:02:45Z</time>
      </trkpt>
      <trkpt lat="42.3920220" lon="-4.0804410">
        <ele>808.8</ele>
        <time>2022-06-27T15:02:46Z</time>
      </trkpt>
      <trkpt lat="42.3919690" lon="-4.0805680">
        <ele>808.6</ele>
        <time>2022-06-27T15:02:47Z</time>
      </trkpt>
      <trkpt lat="42.3919140" lon="-4.0806960">
        <ele>808.6</ele>
        <time>2022-06-27T15:02:48Z</time>
      </trkpt>
      <trkpt lat="42.3918550" lon="-4.0808250">
        <ele>808.4</ele>
        <time>2022-06-27T15:02:49Z</time>
      </trkpt>
      <trkpt lat="42.3917950" lon="-4.0809520">
        <ele>808.4</ele>
        <time>2022-06-27T15:02:50Z</time>
      </trkpt>
      <trkpt lat="42.3917340" lon="-4.0810750">
        <ele>808.4</ele>
        <time>2022-06-27T15:02:51Z</time>
      </trkpt>
      <trkpt lat="42.3916720" lon="-4.0811990">
        <ele>808.4</ele>
        <time>2022-06-27T15:02:52Z</time>
      </trkpt>
      <trkpt lat="42.3916090" lon="-4.0813210">
        <ele>808.4</ele>
        <time>2022-06-27T15:02:53Z</time>
      </trkpt>
      <trkpt lat="42.3915430" lon="-4.0814420">
        <ele>808.4</ele>
        <time>2022-06-27T15:02:54Z</time>
      </trkpt>
      <trkpt lat="42.3914760" lon="-4.0815650">
        <ele>808.4</ele>
        <time>2022-06-27T15:02:55Z</time>
      </trkpt>
      <trkpt lat="42.3914070" lon="-4.0816870">
        <ele>808.4</ele>
        <time>2022-06-27T15:02:56Z</time>
      </trkpt>
      <trkpt lat="42.3913400" lon="-4.0818050">
        <ele>808.4</ele>
        <time>2022-06-27T15:02:57Z</time>
      </trkpt>
      <trkpt lat="42.3912710" lon="-4.0819250">
        <ele>808.4</ele>
        <time>2022-06-27T15:02:58Z</time>
      </trkpt>
      <trkpt lat="42.3912000" lon="-4.0820480">
        <ele>808.2</ele>
        <time>2022-06-27T15:02:59Z</time>
      </trkpt>
      <trkpt lat="42.3911280" lon="-4.0821700">
        <ele>808.2</ele>
        <time>2022-06-27T15:03:00Z</time>
      </trkpt>
      <trkpt lat="42.3910530" lon="-4.0822920">
        <ele>808.0</ele>
        <time>2022-06-27T15:03:01Z</time>
      </trkpt>
      <trkpt lat="42.3909740" lon="-4.0824110">
        <ele>808.0</ele>
        <time>2022-06-27T15:03:02Z</time>
      </trkpt>
      <trkpt lat="42.3908920" lon="-4.0825330">
        <ele>807.8</ele>
        <time>2022-06-27T15:03:03Z</time>
      </trkpt>
      <trkpt lat="42.3908090" lon="-4.0826520">
        <ele>807.6</ele>
        <time>2022-06-27T15:03:04Z</time>
      </trkpt>
      <trkpt lat="42.3907260" lon="-4.0827710">
        <ele>807.4</ele>
        <time>2022-06-27T15:03:05Z</time>
      </trkpt>
      <trkpt lat="42.3906450" lon="-4.0828920">
        <ele>807.2</ele>
        <time>2022-06-27T15:03:06Z</time>
      </trkpt>
      <trkpt lat="42.3905650" lon="-4.0830130">
        <ele>807.2</ele>
        <time>2022-06-27T15:03:07Z</time>
      </trkpt>
      <trkpt lat="42.3904840" lon="-4.0831350">
        <ele>807.2</ele>
        <time>2022-06-27T15:03:08Z</time>
      </trkpt>
      <trkpt lat="42.3904030" lon="-4.0832570">
        <ele>807.2</ele>
        <time>2022-06-27T15:03:09Z</time>
      </trkpt>
      <trkpt lat="42.3903210" lon="-4.0833780">
        <ele>807.0</ele>
        <time>2022-06-27T15:03:10Z</time>
      </trkpt>
      <trkpt lat="42.3902390" lon="-4.0835010">
        <ele>807.0</ele>
        <time>2022-06-27T15:03:11Z</time>
      </trkpt>
      <trkpt lat="42.3901560" lon="-4.0836230">
        <ele>807.0</ele>
        <time>2022-06-27T15:03:12Z</time>
      </trkpt>
      <trkpt lat="42.3900740" lon="-4.0837420">
        <ele>807.0</ele>
        <time>2022-06-27T15:03:13Z</time>
      </trkpt>
      <trkpt lat="42.3899930" lon="-4.0838630">
        <ele>807.0</ele>
        <time>2022-06-27T15:03:14Z</time>
      </trkpt>
      <trkpt lat="42.3899120" lon="-4.0839840">
        <ele>807.0</ele>
        <time>2022-06-27T15:03:15Z</time>
      </trkpt>
      <trkpt lat="42.3898310" lon="-4.0841070">
        <ele>807.0</ele>
        <time>2022-06-27T15:03:16Z</time>
      </trkpt>
      <trkpt lat="42.3897490" lon="-4.0842300">
        <ele>806.8</ele>
        <time>2022-06-27T15:03:17Z</time>
      </trkpt>
      <trkpt lat="42.3896670" lon="-4.0843530">
        <ele>806.8</ele>
        <time>2022-06-27T15:03:18Z</time>
      </trkpt>
      <trkpt lat="42.3895830" lon="-4.0844760">
        <ele>806.6</ele>
        <time>2022-06-27T15:03:19Z</time>
      </trkpt>
      <trkpt lat="42.3894990" lon="-4.0845970">
        <ele>806.4</ele>
        <time>2022-06-27T15:03:20Z</time>
      </trkpt>
      <trkpt lat="42.3894170" lon="-4.0847190">
        <ele>806.4</ele>
        <time>2022-06-27T15:03:21Z</time>
      </trkpt>
      <trkpt lat="42.3893360" lon="-4.0848420">
        <ele>806.2</ele>
        <time>2022-06-27T15:03:22Z</time>
      </trkpt>
      <trkpt lat="42.3892530" lon="-4.0849650">
        <ele>806.0</ele>
        <time>2022-06-27T15:03:23Z</time>
      </trkpt>
      <trkpt lat="42.3891710" lon="-4.0850870">
        <ele>805.8</ele>
        <time>2022-06-27T15:03:24Z</time>
      </trkpt>
      <trkpt lat="42.3890890" lon="-4.0852060">
        <ele>805.6</ele>
        <time>2022-06-27T15:03:25Z</time>
      </trkpt>
      <trkpt lat="42.3890070" lon="-4.0853300">
        <ele>805.6</ele>
        <time>2022-06-27T15:03:26Z</time>
      </trkpt>
      <trkpt lat="42.3889250" lon="-4.0854540">
        <ele>805.6</ele>
        <time>2022-06-27T15:03:27Z</time>
      </trkpt>
      <trkpt lat="42.3888420" lon="-4.0855780">
        <ele>805.6</ele>
        <time>2022-06-27T15:03:28Z</time>
      </trkpt>
      <trkpt lat="42.3887600" lon="-4.0857020">
        <ele>805.4</ele>
        <time>2022-06-27T15:03:29Z</time>
      </trkpt>
      <trkpt lat="42.3886770" lon="-4.0858260">
        <ele>805.4</ele>
        <time>2022-06-27T15:03:30Z</time>
      </trkpt>
      <trkpt lat="42.3885940" lon="-4.0859490">
        <ele>805.4</ele>
        <time>2022-06-27T15:03:31Z</time>
      </trkpt>
      <trkpt lat="42.3885100" lon="-4.0860740">
        <ele>805.4</ele>
        <time>2022-06-27T15:03:32Z</time>
      </trkpt>
      <trkpt lat="42.3884260" lon="-4.0862000">
        <ele>805.4</ele>
        <time>2022-06-27T15:03:33Z</time>
      </trkpt>
      <trkpt lat="42.3883420" lon="-4.0863250">
        <ele>805.6</ele>
        <time>2022-06-27T15:03:34Z</time>
      </trkpt>
      <trkpt lat="42.3882580" lon="-4.0864480">
        <ele>805.4</ele>
        <time>2022-06-27T15:03:35Z</time>
      </trkpt>
      <trkpt lat="42.3881760" lon="-4.0865720">
        <ele>805.2</ele>
        <time>2022-06-27T15:03:36Z</time>
      </trkpt>
      <trkpt lat="42.3880930" lon="-4.0866940">
        <ele>805.2</ele>
        <time>2022-06-27T15:03:37Z</time>
      </trkpt>
      <trkpt lat="42.3880100" lon="-4.0868170">
        <ele>805.2</ele>
        <time>2022-06-27T15:03:38Z</time>
      </trkpt>
      <trkpt lat="42.3879270" lon="-4.0869400">
        <ele>805.2</ele>
        <time>2022-06-27T15:03:39Z</time>
      </trkpt>
      <trkpt lat="42.3878440" lon="-4.0870640">
        <ele>805.4</ele>
        <time>2022-06-27T15:03:40Z</time>
      </trkpt>
      <trkpt lat="42.3877610" lon="-4.0871880">
        <ele>805.4</ele>
        <time>2022-06-27T15:03:41Z</time>
      </trkpt>
      <trkpt lat="42.3876780" lon="-4.0873120">
        <ele>805.4</ele>
        <time>2022-06-27T15:03:42Z</time>
      </trkpt>
      <trkpt lat="42.3875960" lon="-4.0874350">
        <ele>805.4</ele>
        <time>2022-06-27T15:03:43Z</time>
      </trkpt>
      <trkpt lat="42.3875140" lon="-4.0875550">
        <ele>805.4</ele>
        <time>2022-06-27T15:03:44Z</time>
      </trkpt>
      <trkpt lat="42.3874330" lon="-4.0876750">
        <ele>805.4</ele>
        <time>2022-06-27T15:03:45Z</time>
      </trkpt>
      <trkpt lat="42.3873540" lon="-4.0877950">
        <ele>805.4</ele>
        <time>2022-06-27T15:03:46Z</time>
      </trkpt>
      <trkpt lat="42.3872710" lon="-4.0879180">
        <ele>805.4</ele>
        <time>2022-06-27T15:03:47Z</time>
      </trkpt>
      <trkpt lat="42.3871870" lon="-4.0880430">
        <ele>805.4</ele>
        <time>2022-06-27T15:03:48Z</time>
      </trkpt>
      <trkpt lat="42.3871020" lon="-4.0881670">
        <ele>805.4</ele>
        <time>2022-06-27T15:03:49Z</time>
      </trkpt>
      <trkpt lat="42.3870170" lon="-4.0882910">
        <ele>805.4</ele>
        <time>2022-06-27T15:03:50Z</time>
      </trkpt>
      <trkpt lat="42.3869300" lon="-4.0884160">
        <ele>805.4</ele>
        <time>2022-06-27T15:03:51Z</time>
      </trkpt>
      <trkpt lat="42.3868460" lon="-4.0885430">
        <ele>805.4</ele>
        <time>2022-06-27T15:03:52Z</time>
      </trkpt>
      <trkpt lat="42.3867610" lon="-4.0886710">
        <ele>805.4</ele>
        <time>2022-06-27T15:03:53Z</time>
      </trkpt>
      <trkpt lat="42.3866750" lon="-4.0887980">
        <ele>805.4</ele>
        <time>2022-06-27T15:03:54Z</time>
      </trkpt>
      <trkpt lat="42.3865880" lon="-4.0889250">
        <ele>805.2</ele>
        <time>2022-06-27T15:03:55Z</time>
      </trkpt>
      <trkpt lat="42.3865020" lon="-4.0890510">
        <ele>805.2</ele>
        <time>2022-06-27T15:03:56Z</time>
      </trkpt>
      <trkpt lat="42.3864170" lon="-4.0891770">
        <ele>805.0</ele>
        <time>2022-06-27T15:03:57Z</time>
      </trkpt>
      <trkpt lat="42.3863360" lon="-4.0892990">
        <ele>805.0</ele>
        <time>2022-06-27T15:03:58Z</time>
      </trkpt>
      <trkpt lat="42.3862540" lon="-4.0894250">
        <ele>805.0</ele>
        <time>2022-06-27T15:03:59Z</time>
      </trkpt>
      <trkpt lat="42.3861720" lon="-4.0895490">
        <ele>805.0</ele>
        <time>2022-06-27T15:04:00Z</time>
      </trkpt>
      <trkpt lat="42.3860900" lon="-4.0896740">
        <ele>804.8</ele>
        <time>2022-06-27T15:04:01Z</time>
      </trkpt>
      <trkpt lat="42.3860090" lon="-4.0897980">
        <ele>804.8</ele>
        <time>2022-06-27T15:04:02Z</time>
      </trkpt>
      <trkpt lat="42.3859260" lon="-4.0899210">
        <ele>804.8</ele>
        <time>2022-06-27T15:04:03Z</time>
      </trkpt>
      <trkpt lat="42.3858440" lon="-4.0900430">
        <ele>804.8</ele>
        <time>2022-06-27T15:04:04Z</time>
      </trkpt>
      <trkpt lat="42.3857620" lon="-4.0901650">
        <ele>804.8</ele>
        <time>2022-06-27T15:04:05Z</time>
      </trkpt>
      <trkpt lat="42.3856800" lon="-4.0902870">
        <ele>804.8</ele>
        <time>2022-06-27T15:04:06Z</time>
      </trkpt>
      <trkpt lat="42.3856000" lon="-4.0904070">
        <ele>804.8</ele>
        <time>2022-06-27T15:04:07Z</time>
      </trkpt>
      <trkpt lat="42.3855050" lon="-4.0905480">
        <ele>804.8</ele>
        <time>2022-06-27T15:04:08Z</time>
      </trkpt>
      <trkpt lat="42.3854420" lon="-4.0906420">
        <ele>804.8</ele>
        <time>2022-06-27T15:04:09Z</time>
      </trkpt>
      <trkpt lat="42.3853620" lon="-4.0907620">
        <ele>804.8</ele>
        <time>2022-06-27T15:04:10Z</time>
      </trkpt>
      <trkpt lat="42.3852820" lon="-4.0908820">
        <ele>805.0</ele>
        <time>2022-06-27T15:04:11Z</time>
      </trkpt>
      <trkpt lat="42.3852010" lon="-4.0910040">
        <ele>805.0</ele>
        <time>2022-06-27T15:04:12Z</time>
      </trkpt>
      <trkpt lat="42.3851190" lon="-4.0911240">
        <ele>805.0</ele>
        <time>2022-06-27T15:04:13Z</time>
      </trkpt>
      <trkpt lat="42.3850380" lon="-4.0912430">
        <ele>805.0</ele>
        <time>2022-06-27T15:04:14Z</time>
      </trkpt>
      <trkpt lat="42.3849570" lon="-4.0913610">
        <ele>805.0</ele>
        <time>2022-06-27T15:04:15Z</time>
      </trkpt>
      <trkpt lat="42.3848770" lon="-4.0914760">
        <ele>805.0</ele>
        <time>2022-06-27T15:04:16Z</time>
      </trkpt>
      <trkpt lat="42.3847960" lon="-4.0915950">
        <ele>805.0</ele>
        <time>2022-06-27T15:04:17Z</time>
      </trkpt>
      <trkpt lat="42.3847170" lon="-4.0917170">
        <ele>805.0</ele>
        <time>2022-06-27T15:04:18Z</time>
      </trkpt>
      <trkpt lat="42.3846370" lon="-4.0918350">
        <ele>805.2</ele>
        <time>2022-06-27T15:04:19Z</time>
      </trkpt>
      <trkpt lat="42.3845560" lon="-4.0919550">
        <ele>805.2</ele>
        <time>2022-06-27T15:04:20Z</time>
      </trkpt>
      <trkpt lat="42.3844750" lon="-4.0920740">
        <ele>805.2</ele>
        <time>2022-06-27T15:04:21Z</time>
      </trkpt>
      <trkpt lat="42.3843930" lon="-4.0921930">
        <ele>805.0</ele>
        <time>2022-06-27T15:04:22Z</time>
      </trkpt>
      <trkpt lat="42.3843140" lon="-4.0923120">
        <ele>804.8</ele>
        <time>2022-06-27T15:04:23Z</time>
      </trkpt>
      <trkpt lat="42.3842340" lon="-4.0924310">
        <ele>804.8</ele>
        <time>2022-06-27T15:04:24Z</time>
      </trkpt>
      <trkpt lat="42.3841540" lon="-4.0925510">
        <ele>804.8</ele>
        <time>2022-06-27T15:04:25Z</time>
      </trkpt>
      <trkpt lat="42.3840760" lon="-4.0926700">
        <ele>804.6</ele>
        <time>2022-06-27T15:04:26Z</time>
      </trkpt>
      <trkpt lat="42.3839970" lon="-4.0927880">
        <ele>804.6</ele>
        <time>2022-06-27T15:04:27Z</time>
      </trkpt>
      <trkpt lat="42.3839180" lon="-4.0929050">
        <ele>804.6</ele>
        <time>2022-06-27T15:04:28Z</time>
      </trkpt>
      <trkpt lat="42.3838390" lon="-4.0930240">
        <ele>804.4</ele>
        <time>2022-06-27T15:04:29Z</time>
      </trkpt>
      <trkpt lat="42.3837620" lon="-4.0931420">
        <ele>804.4</ele>
        <time>2022-06-27T15:04:30Z</time>
      </trkpt>
      <trkpt lat="42.3836840" lon="-4.0932590">
        <ele>804.4</ele>
        <time>2022-06-27T15:04:31Z</time>
      </trkpt>
      <trkpt lat="42.3836030" lon="-4.0933780">
        <ele>804.4</ele>
        <time>2022-06-27T15:04:32Z</time>
      </trkpt>
      <trkpt lat="42.3835250" lon="-4.0934960">
        <ele>804.4</ele>
        <time>2022-06-27T15:04:33Z</time>
      </trkpt>
      <trkpt lat="42.3834480" lon="-4.0936140">
        <ele>804.6</ele>
        <time>2022-06-27T15:04:34Z</time>
      </trkpt>
      <trkpt lat="42.3833710" lon="-4.0937300">
        <ele>804.4</ele>
        <time>2022-06-27T15:04:35Z</time>
      </trkpt>
      <trkpt lat="42.3832950" lon="-4.0938450">
        <ele>804.6</ele>
        <time>2022-06-27T15:04:36Z</time>
      </trkpt>
      <trkpt lat="42.3832180" lon="-4.0939590">
        <ele>804.6</ele>
        <time>2022-06-27T15:04:37Z</time>
      </trkpt>
      <trkpt lat="42.3831390" lon="-4.0940720">
        <ele>804.6</ele>
        <time>2022-06-27T15:04:38Z</time>
      </trkpt>
      <trkpt lat="42.3830630" lon="-4.0941860">
        <ele>804.8</ele>
        <time>2022-06-27T15:04:39Z</time>
      </trkpt>
      <trkpt lat="42.3829850" lon="-4.0943020">
        <ele>804.8</ele>
        <time>2022-06-27T15:04:40Z</time>
      </trkpt>
      <trkpt lat="42.3829080" lon="-4.0944180">
        <ele>804.8</ele>
        <time>2022-06-27T15:04:41Z</time>
      </trkpt>
      <trkpt lat="42.3828300" lon="-4.0945370">
        <ele>804.8</ele>
        <time>2022-06-27T15:04:42Z</time>
      </trkpt>
      <trkpt lat="42.3827530" lon="-4.0946550">
        <ele>804.8</ele>
        <time>2022-06-27T15:04:43Z</time>
      </trkpt>
      <trkpt lat="42.3826750" lon="-4.0947710">
        <ele>804.8</ele>
        <time>2022-06-27T15:04:44Z</time>
      </trkpt>
      <trkpt lat="42.3825980" lon="-4.0948840">
        <ele>804.8</ele>
        <time>2022-06-27T15:04:45Z</time>
      </trkpt>
      <trkpt lat="42.3825200" lon="-4.0949980">
        <ele>804.8</ele>
        <time>2022-06-27T15:04:46Z</time>
      </trkpt>
      <trkpt lat="42.3824440" lon="-4.0951130">
        <ele>804.8</ele>
        <time>2022-06-27T15:04:47Z</time>
      </trkpt>
      <trkpt lat="42.3823680" lon="-4.0952260">
        <ele>804.8</ele>
        <time>2022-06-27T15:04:48Z</time>
      </trkpt>
      <trkpt lat="42.3822920" lon="-4.0953420">
        <ele>804.8</ele>
        <time>2022-06-27T15:04:49Z</time>
      </trkpt>
      <trkpt lat="42.3822160" lon="-4.0954570">
        <ele>804.8</ele>
        <time>2022-06-27T15:04:50Z</time>
      </trkpt>
      <trkpt lat="42.3821400" lon="-4.0955700">
        <ele>804.8</ele>
        <time>2022-06-27T15:04:51Z</time>
      </trkpt>
      <trkpt lat="42.3820650" lon="-4.0956810">
        <ele>804.8</ele>
        <time>2022-06-27T15:04:52Z</time>
      </trkpt>
      <trkpt lat="42.3819900" lon="-4.0957900">
        <ele>804.8</ele>
        <time>2022-06-27T15:04:53Z</time>
      </trkpt>
      <trkpt lat="42.3819160" lon="-4.0959010">
        <ele>804.8</ele>
        <time>2022-06-27T15:04:54Z</time>
      </trkpt>
      <trkpt lat="42.3818410" lon="-4.0960120">
        <ele>804.8</ele>
        <time>2022-06-27T15:04:55Z</time>
      </trkpt>
      <trkpt lat="42.3817660" lon="-4.0961260">
        <ele>804.8</ele>
        <time>2022-06-27T15:04:56Z</time>
      </trkpt>
      <trkpt lat="42.3816910" lon="-4.0962380">
        <ele>804.8</ele>
        <time>2022-06-27T15:04:57Z</time>
      </trkpt>
      <trkpt lat="42.3816140" lon="-4.0963520">
        <ele>804.8</ele>
        <time>2022-06-27T15:04:58Z</time>
      </trkpt>
      <trkpt lat="42.3815390" lon="-4.0964640">
        <ele>805.0</ele>
        <time>2022-06-27T15:04:59Z</time>
      </trkpt>
      <trkpt lat="42.3814640" lon="-4.0965750">
        <ele>805.0</ele>
        <time>2022-06-27T15:05:00Z</time>
      </trkpt>
      <trkpt lat="42.3813880" lon="-4.0966860">
        <ele>804.8</ele>
        <time>2022-06-27T15:05:01Z</time>
      </trkpt>
      <trkpt lat="42.3813110" lon="-4.0967990">
        <ele>804.8</ele>
        <time>2022-06-27T15:05:02Z</time>
      </trkpt>
      <trkpt lat="42.3812360" lon="-4.0969100">
        <ele>804.6</ele>
        <time>2022-06-27T15:05:03Z</time>
      </trkpt>
      <trkpt lat="42.3811450" lon="-4.0970440">
        <ele>804.4</ele>
        <time>2022-06-27T15:05:04Z</time>
      </trkpt>
      <trkpt lat="42.3810860" lon="-4.0971330">
        <ele>804.4</ele>
        <time>2022-06-27T15:05:05Z</time>
      </trkpt>
      <trkpt lat="42.3810140" lon="-4.0972430">
        <ele>804.2</ele>
        <time>2022-06-27T15:05:06Z</time>
      </trkpt>
      <trkpt lat="42.3809420" lon="-4.0973520">
        <ele>804.0</ele>
        <time>2022-06-27T15:05:07Z</time>
      </trkpt>
      <trkpt lat="42.3808680" lon="-4.0974630">
        <ele>804.0</ele>
        <time>2022-06-27T15:05:08Z</time>
      </trkpt>
      <trkpt lat="42.3807950" lon="-4.0975700">
        <ele>804.0</ele>
        <time>2022-06-27T15:05:09Z</time>
      </trkpt>
      <trkpt lat="42.3807210" lon="-4.0976780">
        <ele>804.0</ele>
        <time>2022-06-27T15:05:10Z</time>
      </trkpt>
      <trkpt lat="42.3806500" lon="-4.0977860">
        <ele>804.0</ele>
        <time>2022-06-27T15:05:11Z</time>
      </trkpt>
      <trkpt lat="42.3805790" lon="-4.0978920">
        <ele>804.0</ele>
        <time>2022-06-27T15:05:12Z</time>
      </trkpt>
      <trkpt lat="42.3805090" lon="-4.0979970">
        <ele>804.0</ele>
        <time>2022-06-27T15:05:13Z</time>
      </trkpt>
      <trkpt lat="42.3804360" lon="-4.0981040">
        <ele>803.8</ele>
        <time>2022-06-27T15:05:14Z</time>
      </trkpt>
      <trkpt lat="42.3803640" lon="-4.0982100">
        <ele>803.8</ele>
        <time>2022-06-27T15:05:15Z</time>
      </trkpt>
      <trkpt lat="42.3802930" lon="-4.0983160">
        <ele>803.8</ele>
        <time>2022-06-27T15:05:16Z</time>
      </trkpt>
      <trkpt lat="42.3802200" lon="-4.0984250">
        <ele>803.8</ele>
        <time>2022-06-27T15:05:17Z</time>
      </trkpt>
      <trkpt lat="42.3801480" lon="-4.0985350">
        <ele>803.8</ele>
        <time>2022-06-27T15:05:18Z</time>
      </trkpt>
      <trkpt lat="42.3800770" lon="-4.0986400">
        <ele>803.8</ele>
        <time>2022-06-27T15:05:19Z</time>
      </trkpt>
      <trkpt lat="42.3800060" lon="-4.0987460">
        <ele>803.8</ele>
        <time>2022-06-27T15:05:20Z</time>
      </trkpt>
      <trkpt lat="42.3799330" lon="-4.0988500">
        <ele>803.6</ele>
        <time>2022-06-27T15:05:21Z</time>
      </trkpt>
      <trkpt lat="42.3798600" lon="-4.0989560">
        <ele>803.4</ele>
        <time>2022-06-27T15:05:22Z</time>
      </trkpt>
      <trkpt lat="42.3797890" lon="-4.0990640">
        <ele>803.4</ele>
        <time>2022-06-27T15:05:23Z</time>
      </trkpt>
      <trkpt lat="42.3797170" lon="-4.0991730">
        <ele>803.6</ele>
        <time>2022-06-27T15:05:24Z</time>
      </trkpt>
      <trkpt lat="42.3796460" lon="-4.0992800">
        <ele>803.4</ele>
        <time>2022-06-27T15:05:25Z</time>
      </trkpt>
      <trkpt lat="42.3795750" lon="-4.0993860">
        <ele>803.4</ele>
        <time>2022-06-27T15:05:26Z</time>
      </trkpt>
      <trkpt lat="42.3795040" lon="-4.0994920">
        <ele>803.6</ele>
        <time>2022-06-27T15:05:27Z</time>
      </trkpt>
      <trkpt lat="42.3794320" lon="-4.0995980">
        <ele>803.4</ele>
        <time>2022-06-27T15:05:28Z</time>
      </trkpt>
      <trkpt lat="42.3793610" lon="-4.0997060">
        <ele>803.4</ele>
        <time>2022-06-27T15:05:29Z</time>
      </trkpt>
      <trkpt lat="42.3792890" lon="-4.0998140">
        <ele>803.6</ele>
        <time>2022-06-27T15:05:30Z</time>
      </trkpt>
      <trkpt lat="42.3792160" lon="-4.0999220">
        <ele>803.6</ele>
        <time>2022-06-27T15:05:31Z</time>
      </trkpt>
      <trkpt lat="42.3791440" lon="-4.1000300">
        <ele>803.6</ele>
        <time>2022-06-27T15:05:32Z</time>
      </trkpt>
      <trkpt lat="42.3790720" lon="-4.1001380">
        <ele>803.6</ele>
        <time>2022-06-27T15:05:33Z</time>
      </trkpt>
      <trkpt lat="42.3790010" lon="-4.1002440">
        <ele>803.6</ele>
        <time>2022-06-27T15:05:34Z</time>
      </trkpt>
      <trkpt lat="42.3789300" lon="-4.1003500">
        <ele>803.6</ele>
        <time>2022-06-27T15:05:35Z</time>
      </trkpt>
      <trkpt lat="42.3788600" lon="-4.1004560">
        <ele>803.6</ele>
        <time>2022-06-27T15:05:36Z</time>
      </trkpt>
      <trkpt lat="42.3787880" lon="-4.1005610">
        <ele>803.6</ele>
        <time>2022-06-27T15:05:37Z</time>
      </trkpt>
      <trkpt lat="42.3787170" lon="-4.1006670">
        <ele>803.6</ele>
        <time>2022-06-27T15:05:38Z</time>
      </trkpt>
      <trkpt lat="42.3786460" lon="-4.1007710">
        <ele>803.6</ele>
        <time>2022-06-27T15:05:39Z</time>
      </trkpt>
      <trkpt lat="42.3785740" lon="-4.1008740">
        <ele>803.8</ele>
        <time>2022-06-27T15:05:40Z</time>
      </trkpt>
      <trkpt lat="42.3785000" lon="-4.1009810">
        <ele>803.8</ele>
        <time>2022-06-27T15:05:41Z</time>
      </trkpt>
      <trkpt lat="42.3784300" lon="-4.1010900">
        <ele>803.8</ele>
        <time>2022-06-27T15:05:42Z</time>
      </trkpt>
      <trkpt lat="42.3783590" lon="-4.1011980">
        <ele>803.8</ele>
        <time>2022-06-27T15:05:43Z</time>
      </trkpt>
      <trkpt lat="42.3782860" lon="-4.1013070">
        <ele>804.0</ele>
        <time>2022-06-27T15:05:44Z</time>
      </trkpt>
      <trkpt lat="42.3782120" lon="-4.1014170">
        <ele>804.0</ele>
        <time>2022-06-27T15:05:45Z</time>
      </trkpt>
      <trkpt lat="42.3781230" lon="-4.1015460">
        <ele>804.0</ele>
        <time>2022-06-27T15:05:46Z</time>
      </trkpt>
      <trkpt lat="42.3780650" lon="-4.1016310">
        <ele>804.0</ele>
        <time>2022-06-27T15:05:47Z</time>
      </trkpt>
      <trkpt lat="42.3779930" lon="-4.1017390">
        <ele>804.0</ele>
        <time>2022-06-27T15:05:48Z</time>
      </trkpt>
      <trkpt lat="42.3779180" lon="-4.1018480">
        <ele>804.0</ele>
        <time>2022-06-27T15:05:49Z</time>
      </trkpt>
      <trkpt lat="42.3778440" lon="-4.1019550">
        <ele>803.8</ele>
        <time>2022-06-27T15:05:50Z</time>
      </trkpt>
      <trkpt lat="42.3777720" lon="-4.1020640">
        <ele>803.8</ele>
        <time>2022-06-27T15:05:51Z</time>
      </trkpt>
      <trkpt lat="42.3776990" lon="-4.1021730">
        <ele>804.0</ele>
        <time>2022-06-27T15:05:52Z</time>
      </trkpt>
      <trkpt lat="42.3776250" lon="-4.1022820">
        <ele>804.0</ele>
        <time>2022-06-27T15:05:53Z</time>
      </trkpt>
      <trkpt lat="42.3775510" lon="-4.1023900">
        <ele>804.0</ele>
        <time>2022-06-27T15:05:54Z</time>
      </trkpt>
      <trkpt lat="42.3774760" lon="-4.1025000">
        <ele>804.0</ele>
        <time>2022-06-27T15:05:55Z</time>
      </trkpt>
      <trkpt lat="42.3774030" lon="-4.1026080">
        <ele>804.0</ele>
        <time>2022-06-27T15:05:56Z</time>
      </trkpt>
      <trkpt lat="42.3773320" lon="-4.1027170">
        <ele>804.0</ele>
        <time>2022-06-27T15:05:57Z</time>
      </trkpt>
      <trkpt lat="42.3772590" lon="-4.1028270">
        <ele>803.8</ele>
        <time>2022-06-27T15:05:58Z</time>
      </trkpt>
      <trkpt lat="42.3771860" lon="-4.1029360">
        <ele>803.8</ele>
        <time>2022-06-27T15:05:59Z</time>
      </trkpt>
      <trkpt lat="42.3771120" lon="-4.1030450">
        <ele>803.8</ele>
        <time>2022-06-27T15:06:00Z</time>
      </trkpt>
      <trkpt lat="42.3770380" lon="-4.1031550">
        <ele>803.8</ele>
        <time>2022-06-27T15:06:01Z</time>
      </trkpt>
      <trkpt lat="42.3769630" lon="-4.1032640">
        <ele>803.8</ele>
        <time>2022-06-27T15:06:02Z</time>
      </trkpt>
      <trkpt lat="42.3768890" lon="-4.1033740">
        <ele>803.8</ele>
        <time>2022-06-27T15:06:03Z</time>
      </trkpt>
      <trkpt lat="42.3768160" lon="-4.1034860">
        <ele>803.8</ele>
        <time>2022-06-27T15:06:04Z</time>
      </trkpt>
      <trkpt lat="42.3767440" lon="-4.1035990">
        <ele>803.8</ele>
        <time>2022-06-27T15:06:05Z</time>
      </trkpt>
      <trkpt lat="42.3766750" lon="-4.1037120">
        <ele>803.8</ele>
        <time>2022-06-27T15:06:06Z</time>
      </trkpt>
      <trkpt lat="42.3766080" lon="-4.1038290">
        <ele>803.8</ele>
        <time>2022-06-27T15:06:07Z</time>
      </trkpt>
      <trkpt lat="42.3765410" lon="-4.1039480">
        <ele>803.8</ele>
        <time>2022-06-27T15:06:08Z</time>
      </trkpt>
      <trkpt lat="42.3764750" lon="-4.1040680">
        <ele>804.0</ele>
        <time>2022-06-27T15:06:09Z</time>
      </trkpt>
      <trkpt lat="42.3764130" lon="-4.1041910">
        <ele>804.2</ele>
        <time>2022-06-27T15:06:10Z</time>
      </trkpt>
      <trkpt lat="42.3763540" lon="-4.1043170">
        <ele>804.4</ele>
        <time>2022-06-27T15:06:11Z</time>
      </trkpt>
      <trkpt lat="42.3762980" lon="-4.1044460">
        <ele>804.6</ele>
        <time>2022-06-27T15:06:12Z</time>
      </trkpt>
      <trkpt lat="42.3762450" lon="-4.1045760">
        <ele>804.2</ele>
        <time>2022-06-27T15:06:13Z</time>
      </trkpt>
      <trkpt lat="42.3761920" lon="-4.1047090">
        <ele>804.6</ele>
        <time>2022-06-27T15:06:14Z</time>
      </trkpt>
      <trkpt lat="42.3761440" lon="-4.1048430">
        <ele>804.6</ele>
        <time>2022-06-27T15:06:15Z</time>
      </trkpt>
      <trkpt lat="42.3760980" lon="-4.1049770">
        <ele>804.6</ele>
        <time>2022-06-27T15:06:16Z</time>
      </trkpt>
      <trkpt lat="42.3760540" lon="-4.1051130">
        <ele>804.6</ele>
        <time>2022-06-27T15:06:17Z</time>
      </trkpt>
      <trkpt lat="42.3760140" lon="-4.1052480">
        <ele>804.6</ele>
        <time>2022-06-27T15:06:18Z</time>
      </trkpt>
      <trkpt lat="42.3759730" lon="-4.1053860">
        <ele>804.6</ele>
        <time>2022-06-27T15:06:19Z</time>
      </trkpt>
      <trkpt lat="42.3759350" lon="-4.1055250">
        <ele>804.8</ele>
        <time>2022-06-27T15:06:20Z</time>
      </trkpt>
      <trkpt lat="42.3759020" lon="-4.1056640">
        <ele>804.8</ele>
        <time>2022-06-27T15:06:21Z</time>
      </trkpt>
      <trkpt lat="42.3758720" lon="-4.1058030">
        <ele>804.8</ele>
        <time>2022-06-27T15:06:22Z</time>
      </trkpt>
      <trkpt lat="42.3758440" lon="-4.1059430">
        <ele>804.8</ele>
        <time>2022-06-27T15:06:23Z</time>
      </trkpt>
      <trkpt lat="42.3758180" lon="-4.1060830">
        <ele>804.8</ele>
        <time>2022-06-27T15:06:24Z</time>
      </trkpt>
      <trkpt lat="42.3757960" lon="-4.1062230">
        <ele>804.8</ele>
        <time>2022-06-27T15:06:25Z</time>
      </trkpt>
      <trkpt lat="42.3757770" lon="-4.1063610">
        <ele>804.8</ele>
        <time>2022-06-27T15:06:26Z</time>
      </trkpt>
      <trkpt lat="42.3757590" lon="-4.1065000">
        <ele>804.6</ele>
        <time>2022-06-27T15:06:27Z</time>
      </trkpt>
      <trkpt lat="42.3757450" lon="-4.1066410">
        <ele>804.6</ele>
        <time>2022-06-27T15:06:28Z</time>
      </trkpt>
      <trkpt lat="42.3757330" lon="-4.1067840">
        <ele>804.8</ele>
        <time>2022-06-27T15:06:29Z</time>
      </trkpt>
      <trkpt lat="42.3757230" lon="-4.1069260">
        <ele>804.8</ele>
        <time>2022-06-27T15:06:30Z</time>
      </trkpt>
      <trkpt lat="42.3757150" lon="-4.1070680">
        <ele>804.8</ele>
        <time>2022-06-27T15:06:31Z</time>
      </trkpt>
      <trkpt lat="42.3757110" lon="-4.1072100">
        <ele>804.6</ele>
        <time>2022-06-27T15:06:32Z</time>
      </trkpt>
      <trkpt lat="42.3757100" lon="-4.1073510">
        <ele>804.6</ele>
        <time>2022-06-27T15:06:33Z</time>
      </trkpt>
      <trkpt lat="42.3757110" lon="-4.1074910">
        <ele>804.6</ele>
        <time>2022-06-27T15:06:34Z</time>
      </trkpt>
      <trkpt lat="42.3757140" lon="-4.1076280">
        <ele>804.6</ele>
        <time>2022-06-27T15:06:35Z</time>
      </trkpt>
      <trkpt lat="42.3757190" lon="-4.1077650">
        <ele>804.6</ele>
        <time>2022-06-27T15:06:36Z</time>
      </trkpt>
      <trkpt lat="42.3757240" lon="-4.1079030">
        <ele>804.8</ele>
        <time>2022-06-27T15:06:37Z</time>
      </trkpt>
      <trkpt lat="42.3757280" lon="-4.1080400">
        <ele>805.0</ele>
        <time>2022-06-27T15:06:38Z</time>
      </trkpt>
      <trkpt lat="42.3757320" lon="-4.1081770">
        <ele>805.0</ele>
        <time>2022-06-27T15:06:39Z</time>
      </trkpt>
      <trkpt lat="42.3757360" lon="-4.1083130">
        <ele>805.2</ele>
        <time>2022-06-27T15:06:40Z</time>
      </trkpt>
      <trkpt lat="42.3757400" lon="-4.1084460">
        <ele>805.2</ele>
        <time>2022-06-27T15:06:41Z</time>
      </trkpt>
      <trkpt lat="42.3757450" lon="-4.1085770">
        <ele>805.4</ele>
        <time>2022-06-27T15:06:42Z</time>
      </trkpt>
      <trkpt lat="42.3757480" lon="-4.1087080">
        <ele>805.6</ele>
        <time>2022-06-27T15:06:43Z</time>
      </trkpt>
      <trkpt lat="42.3757520" lon="-4.1088370">
        <ele>805.6</ele>
        <time>2022-06-27T15:06:44Z</time>
      </trkpt>
      <trkpt lat="42.3757570" lon="-4.1089650">
        <ele>805.6</ele>
        <time>2022-06-27T15:06:45Z</time>
      </trkpt>
      <trkpt lat="42.3757620" lon="-4.1090930">
        <ele>805.8</ele>
        <time>2022-06-27T15:06:46Z</time>
      </trkpt>
      <trkpt lat="42.3757660" lon="-4.1092210">
        <ele>806.2</ele>
        <time>2022-06-27T15:06:47Z</time>
      </trkpt>
      <trkpt lat="42.3757730" lon="-4.1093480">
        <ele>806.4</ele>
        <time>2022-06-27T15:06:48Z</time>
      </trkpt>
      <trkpt lat="42.3757800" lon="-4.1094730">
        <ele>806.6</ele>
        <time>2022-06-27T15:06:49Z</time>
      </trkpt>
      <trkpt lat="42.3757890" lon="-4.1095990">
        <ele>806.6</ele>
        <time>2022-06-27T15:06:50Z</time>
      </trkpt>
      <trkpt lat="42.3757990" lon="-4.1097230">
        <ele>806.8</ele>
        <time>2022-06-27T15:06:51Z</time>
      </trkpt>
      <trkpt lat="42.3758090" lon="-4.1098490">
        <ele>806.8</ele>
        <time>2022-06-27T15:06:52Z</time>
      </trkpt>
      <trkpt lat="42.3758200" lon="-4.1099740">
        <ele>806.8</ele>
        <time>2022-06-27T15:06:53Z</time>
      </trkpt>
      <trkpt lat="42.3758350" lon="-4.1100990">
        <ele>807.0</ele>
        <time>2022-06-27T15:06:54Z</time>
      </trkpt>
      <trkpt lat="42.3758530" lon="-4.1102190">
        <ele>807.0</ele>
        <time>2022-06-27T15:06:55Z</time>
      </trkpt>
      <trkpt lat="42.3758720" lon="-4.1103370">
        <ele>807.0</ele>
        <time>2022-06-27T15:06:56Z</time>
      </trkpt>
      <trkpt lat="42.3758930" lon="-4.1104530">
        <ele>807.0</ele>
        <time>2022-06-27T15:06:57Z</time>
      </trkpt>
      <trkpt lat="42.3759160" lon="-4.1105650">
        <ele>807.0</ele>
        <time>2022-06-27T15:06:58Z</time>
      </trkpt>
      <trkpt lat="42.3759400" lon="-4.1106810">
        <ele>807.2</ele>
        <time>2022-06-27T15:06:59Z</time>
      </trkpt>
      <trkpt lat="42.3759660" lon="-4.1107930">
        <ele>807.2</ele>
        <time>2022-06-27T15:07:00Z</time>
      </trkpt>
      <trkpt lat="42.3759890" lon="-4.1109070">
        <ele>807.2</ele>
        <time>2022-06-27T15:07:01Z</time>
      </trkpt>
      <trkpt lat="42.3760150" lon="-4.1110180">
        <ele>807.2</ele>
        <time>2022-06-27T15:07:02Z</time>
      </trkpt>
      <trkpt lat="42.3760440" lon="-4.1111290">
        <ele>807.2</ele>
        <time>2022-06-27T15:07:03Z</time>
      </trkpt>
      <trkpt lat="42.3760720" lon="-4.1112400">
        <ele>807.4</ele>
        <time>2022-06-27T15:07:04Z</time>
      </trkpt>
      <trkpt lat="42.3761010" lon="-4.1113500">
        <ele>807.4</ele>
        <time>2022-06-27T15:07:05Z</time>
      </trkpt>
      <trkpt lat="42.3761310" lon="-4.1114610">
        <ele>807.4</ele>
        <time>2022-06-27T15:07:06Z</time>
      </trkpt>
      <trkpt lat="42.3761640" lon="-4.1115740">
        <ele>807.8</ele>
        <time>2022-06-27T15:07:07Z</time>
      </trkpt>
      <trkpt lat="42.3761990" lon="-4.1116870">
        <ele>807.8</ele>
        <time>2022-06-27T15:07:08Z</time>
      </trkpt>
      <trkpt lat="42.3762370" lon="-4.1117990">
        <ele>808.0</ele>
        <time>2022-06-27T15:07:09Z</time>
      </trkpt>
      <trkpt lat="42.3762780" lon="-4.1119120">
        <ele>808.2</ele>
        <time>2022-06-27T15:07:10Z</time>
      </trkpt>
      <trkpt lat="42.3763260" lon="-4.1120500">
        <ele>808.4</ele>
        <time>2022-06-27T15:07:11Z</time>
      </trkpt>
      <trkpt lat="42.3763600" lon="-4.1121440">
        <ele>808.4</ele>
        <time>2022-06-27T15:07:12Z</time>
      </trkpt>
      <trkpt lat="42.3764020" lon="-4.1122600">
        <ele>808.6</ele>
        <time>2022-06-27T15:07:13Z</time>
      </trkpt>
      <trkpt lat="42.3764430" lon="-4.1123760">
        <ele>808.6</ele>
        <time>2022-06-27T15:07:14Z</time>
      </trkpt>
      <trkpt lat="42.3764930" lon="-4.1125150">
        <ele>809.0</ele>
        <time>2022-06-27T15:07:15Z</time>
      </trkpt>
      <trkpt lat="42.3765250" lon="-4.1126060">
        <ele>809.0</ele>
        <time>2022-06-27T15:07:16Z</time>
      </trkpt>
      <trkpt lat="42.3765690" lon="-4.1127190">
        <ele>809.2</ele>
        <time>2022-06-27T15:07:17Z</time>
      </trkpt>
      <trkpt lat="42.3766120" lon="-4.1128340">
        <ele>809.2</ele>
        <time>2022-06-27T15:07:18Z</time>
      </trkpt>
      <trkpt lat="42.3766550" lon="-4.1129490">
        <ele>809.2</ele>
        <time>2022-06-27T15:07:19Z</time>
      </trkpt>
      <trkpt lat="42.3766960" lon="-4.1130660">
        <ele>809.2</ele>
        <time>2022-06-27T15:07:20Z</time>
      </trkpt>
      <trkpt lat="42.3767380" lon="-4.1131850">
        <ele>809.4</ele>
        <time>2022-06-27T15:07:21Z</time>
      </trkpt>
      <trkpt lat="42.3767780" lon="-4.1133060">
        <ele>809.4</ele>
        <time>2022-06-27T15:07:22Z</time>
      </trkpt>
      <trkpt lat="42.3768200" lon="-4.1134280">
        <ele>809.8</ele>
        <time>2022-06-27T15:07:23Z</time>
      </trkpt>
      <trkpt lat="42.3768630" lon="-4.1135480">
        <ele>809.8</ele>
        <time>2022-06-27T15:07:24Z</time>
      </trkpt>
      <trkpt lat="42.3769060" lon="-4.1136680">
        <ele>809.8</ele>
        <time>2022-06-27T15:07:25Z</time>
      </trkpt>
      <trkpt lat="42.3769480" lon="-4.1137880">
        <ele>809.8</ele>
        <time>2022-06-27T15:07:26Z</time>
      </trkpt>
      <trkpt lat="42.3769900" lon="-4.1139080">
        <ele>810.0</ele>
        <time>2022-06-27T15:07:27Z</time>
      </trkpt>
      <trkpt lat="42.3770330" lon="-4.1140250">
        <ele>810.0</ele>
        <time>2022-06-27T15:07:28Z</time>
      </trkpt>
      <trkpt lat="42.3770780" lon="-4.1141410">
        <ele>810.0</ele>
        <time>2022-06-27T15:07:29Z</time>
      </trkpt>
      <trkpt lat="42.3771230" lon="-4.1142580">
        <ele>810.0</ele>
        <time>2022-06-27T15:07:30Z</time>
      </trkpt>
      <trkpt lat="42.3771660" lon="-4.1143790">
        <ele>810.4</ele>
        <time>2022-06-27T15:07:31Z</time>
      </trkpt>
      <trkpt lat="42.3772110" lon="-4.1144980">
        <ele>810.4</ele>
        <time>2022-06-27T15:07:32Z</time>
      </trkpt>
      <trkpt lat="42.3772540" lon="-4.1146190">
        <ele>810.4</ele>
        <time>2022-06-27T15:07:33Z</time>
      </trkpt>
      <trkpt lat="42.3772980" lon="-4.1147380">
        <ele>810.8</ele>
        <time>2022-06-27T15:07:34Z</time>
      </trkpt>
      <trkpt lat="42.3773440" lon="-4.1148590">
        <ele>811.0</ele>
        <time>2022-06-27T15:07:35Z</time>
      </trkpt>
      <trkpt lat="42.3773880" lon="-4.1149820">
        <ele>811.0</ele>
        <time>2022-06-27T15:07:36Z</time>
      </trkpt>
      <trkpt lat="42.3774300" lon="-4.1151060">
        <ele>811.2</ele>
        <time>2022-06-27T15:07:37Z</time>
      </trkpt>
      <trkpt lat="42.3774750" lon="-4.1152290">
        <ele>811.4</ele>
        <time>2022-06-27T15:07:38Z</time>
      </trkpt>
      <trkpt lat="42.3775210" lon="-4.1153490">
        <ele>811.6</ele>
        <time>2022-06-27T15:07:39Z</time>
      </trkpt>
      <trkpt lat="42.3775640" lon="-4.1154680">
        <ele>811.8</ele>
        <time>2022-06-27T15:07:40Z</time>
      </trkpt>
      <trkpt lat="42.3776070" lon="-4.1155910">
        <ele>811.8</ele>
        <time>2022-06-27T15:07:41Z</time>
      </trkpt>
      <trkpt lat="42.3776500" lon="-4.1157140">
        <ele>811.8</ele>
        <time>2022-06-27T15:07:42Z</time>
      </trkpt>
      <trkpt lat="42.3776920" lon="-4.1158370">
        <ele>811.8</ele>
        <time>2022-06-27T15:07:43Z</time>
      </trkpt>
      <trkpt lat="42.3777350" lon="-4.1159570">
        <ele>812.0</ele>
        <time>2022-06-27T15:07:44Z</time>
      </trkpt>
      <trkpt lat="42.3777790" lon="-4.1160760">
        <ele>812.0</ele>
        <time>2022-06-27T15:07:45Z</time>
      </trkpt>
      <trkpt lat="42.3778230" lon="-4.1161940">
        <ele>812.0</ele>
        <time>2022-06-27T15:07:46Z</time>
      </trkpt>
      <trkpt lat="42.3778650" lon="-4.1163150">
        <ele>812.2</ele>
        <time>2022-06-27T15:07:47Z</time>
      </trkpt>
      <trkpt lat="42.3779160" lon="-4.1164610">
        <ele>812.2</ele>
        <time>2022-06-27T15:07:48Z</time>
      </trkpt>
      <trkpt lat="42.3779520" lon="-4.1165590">
        <ele>812.4</ele>
        <time>2022-06-27T15:07:49Z</time>
      </trkpt>
      <trkpt lat="42.3779950" lon="-4.1166820">
        <ele>812.6</ele>
        <time>2022-06-27T15:07:50Z</time>
      </trkpt>
      <trkpt lat="42.3780400" lon="-4.1168050">
        <ele>812.6</ele>
        <time>2022-06-27T15:07:51Z</time>
      </trkpt>
      <trkpt lat="42.3780830" lon="-4.1169280">
        <ele>812.8</ele>
        <time>2022-06-27T15:07:52Z</time>
      </trkpt>
      <trkpt lat="42.3781280" lon="-4.1170490">
        <ele>812.8</ele>
        <time>2022-06-27T15:07:53Z</time>
      </trkpt>
      <trkpt lat="42.3781730" lon="-4.1171710">
        <ele>812.8</ele>
        <time>2022-06-27T15:07:54Z</time>
      </trkpt>
      <trkpt lat="42.3782180" lon="-4.1172940">
        <ele>812.8</ele>
        <time>2022-06-27T15:07:55Z</time>
      </trkpt>
      <trkpt lat="42.3782600" lon="-4.1174170">
        <ele>812.8</ele>
        <time>2022-06-27T15:07:56Z</time>
      </trkpt>
      <trkpt lat="42.3783020" lon="-4.1175410">
        <ele>813.0</ele>
        <time>2022-06-27T15:07:57Z</time>
      </trkpt>
      <trkpt lat="42.3783480" lon="-4.1176630">
        <ele>813.0</ele>
        <time>2022-06-27T15:07:58Z</time>
      </trkpt>
      <trkpt lat="42.3783930" lon="-4.1177850">
        <ele>813.0</ele>
        <time>2022-06-27T15:07:59Z</time>
      </trkpt>
      <trkpt lat="42.3784390" lon="-4.1179060">
        <ele>813.0</ele>
        <time>2022-06-27T15:08:00Z</time>
      </trkpt>
      <trkpt lat="42.3784840" lon="-4.1180280">
        <ele>813.2</ele>
        <time>2022-06-27T15:08:01Z</time>
      </trkpt>
      <trkpt lat="42.3785260" lon="-4.1181530">
        <ele>813.4</ele>
        <time>2022-06-27T15:08:02Z</time>
      </trkpt>
      <trkpt lat="42.3785700" lon="-4.1182760">
        <ele>813.4</ele>
        <time>2022-06-27T15:08:03Z</time>
      </trkpt>
      <trkpt lat="42.3786140" lon="-4.1183980">
        <ele>813.6</ele>
        <time>2022-06-27T15:08:04Z</time>
      </trkpt>
      <trkpt lat="42.3786580" lon="-4.1185200">
        <ele>813.6</ele>
        <time>2022-06-27T15:08:05Z</time>
      </trkpt>
      <trkpt lat="42.3787020" lon="-4.1186400">
        <ele>813.6</ele>
        <time>2022-06-27T15:08:06Z</time>
      </trkpt>
      <trkpt lat="42.3787460" lon="-4.1187590">
        <ele>813.6</ele>
        <time>2022-06-27T15:08:07Z</time>
      </trkpt>
      <trkpt lat="42.3787900" lon="-4.1188790">
        <ele>813.6</ele>
        <time>2022-06-27T15:08:08Z</time>
      </trkpt>
      <trkpt lat="42.3788310" lon="-4.1189990">
        <ele>813.8</ele>
        <time>2022-06-27T15:08:09Z</time>
      </trkpt>
      <trkpt lat="42.3788740" lon="-4.1191200">
        <ele>813.8</ele>
        <time>2022-06-27T15:08:10Z</time>
      </trkpt>
      <trkpt lat="42.3789180" lon="-4.1192400">
        <ele>813.8</ele>
        <time>2022-06-27T15:08:11Z</time>
      </trkpt>
      <trkpt lat="42.3789620" lon="-4.1193610">
        <ele>813.8</ele>
        <time>2022-06-27T15:08:12Z</time>
      </trkpt>
      <trkpt lat="42.3790050" lon="-4.1194820">
        <ele>813.8</ele>
        <time>2022-06-27T15:08:13Z</time>
      </trkpt>
      <trkpt lat="42.3790480" lon="-4.1196010">
        <ele>813.8</ele>
        <time>2022-06-27T15:08:14Z</time>
      </trkpt>
      <trkpt lat="42.3790910" lon="-4.1197210">
        <ele>813.8</ele>
        <time>2022-06-27T15:08:15Z</time>
      </trkpt>
      <trkpt lat="42.3791450" lon="-4.1198650">
        <ele>813.8</ele>
        <time>2022-06-27T15:08:16Z</time>
      </trkpt>
      <trkpt lat="42.3791790" lon="-4.1199610">
        <ele>813.8</ele>
        <time>2022-06-27T15:08:17Z</time>
      </trkpt>
      <trkpt lat="42.3792220" lon="-4.1200810">
        <ele>813.8</ele>
        <time>2022-06-27T15:08:18Z</time>
      </trkpt>
      <trkpt lat="42.3792640" lon="-4.1202020">
        <ele>813.8</ele>
        <time>2022-06-27T15:08:19Z</time>
      </trkpt>
      <trkpt lat="42.3793070" lon="-4.1203230">
        <ele>813.8</ele>
        <time>2022-06-27T15:08:20Z</time>
      </trkpt>
      <trkpt lat="42.3793510" lon="-4.1204430">
        <ele>813.6</ele>
        <time>2022-06-27T15:08:21Z</time>
      </trkpt>
      <trkpt lat="42.3793950" lon="-4.1205650">
        <ele>813.6</ele>
        <time>2022-06-27T15:08:22Z</time>
      </trkpt>
      <trkpt lat="42.3794400" lon="-4.1206860">
        <ele>813.6</ele>
        <time>2022-06-27T15:08:23Z</time>
      </trkpt>
      <trkpt lat="42.3794850" lon="-4.1208090">
        <ele>813.8</ele>
        <time>2022-06-27T15:08:24Z</time>
      </trkpt>
      <trkpt lat="42.3795310" lon="-4.1209310">
        <ele>813.8</ele>
        <time>2022-06-27T15:08:25Z</time>
      </trkpt>
      <trkpt lat="42.3795760" lon="-4.1210510">
        <ele>813.6</ele>
        <time>2022-06-27T15:08:26Z</time>
      </trkpt>
      <trkpt lat="42.3796210" lon="-4.1211750">
        <ele>813.8</ele>
        <time>2022-06-27T15:08:27Z</time>
      </trkpt>
      <trkpt lat="42.3796640" lon="-4.1213010">
        <ele>813.8</ele>
        <time>2022-06-27T15:08:28Z</time>
      </trkpt>
      <trkpt lat="42.3797090" lon="-4.1214280">
        <ele>813.8</ele>
        <time>2022-06-27T15:08:29Z</time>
      </trkpt>
      <trkpt lat="42.3797630" lon="-4.1215820">
        <ele>813.8</ele>
        <time>2022-06-27T15:08:30Z</time>
      </trkpt>
      <trkpt lat="42.3798000" lon="-4.1216850">
        <ele>813.8</ele>
        <time>2022-06-27T15:08:31Z</time>
      </trkpt>
      <trkpt lat="42.3798470" lon="-4.1218130">
        <ele>813.8</ele>
        <time>2022-06-27T15:08:32Z</time>
      </trkpt>
      <trkpt lat="42.3798940" lon="-4.1219410">
        <ele>814.0</ele>
        <time>2022-06-27T15:08:33Z</time>
      </trkpt>
      <trkpt lat="42.3799400" lon="-4.1220700">
        <ele>814.0</ele>
        <time>2022-06-27T15:08:34Z</time>
      </trkpt>
      <trkpt lat="42.3799850" lon="-4.1221990">
        <ele>814.0</ele>
        <time>2022-06-27T15:08:35Z</time>
      </trkpt>
      <trkpt lat="42.3800310" lon="-4.1223280">
        <ele>814.2</ele>
        <time>2022-06-27T15:08:36Z</time>
      </trkpt>
      <trkpt lat="42.3800790" lon="-4.1224560">
        <ele>814.2</ele>
        <time>2022-06-27T15:08:37Z</time>
      </trkpt>
      <trkpt lat="42.3801250" lon="-4.1225850">
        <ele>814.2</ele>
        <time>2022-06-27T15:08:38Z</time>
      </trkpt>
      <trkpt lat="42.3801710" lon="-4.1227110">
        <ele>814.2</ele>
        <time>2022-06-27T15:08:39Z</time>
      </trkpt>
      <trkpt lat="42.3802180" lon="-4.1228380">
        <ele>814.2</ele>
        <time>2022-06-27T15:08:40Z</time>
      </trkpt>
      <trkpt lat="42.3802640" lon="-4.1229640">
        <ele>814.2</ele>
        <time>2022-06-27T15:08:41Z</time>
      </trkpt>
      <trkpt lat="42.3803090" lon="-4.1230930">
        <ele>814.2</ele>
        <time>2022-06-27T15:08:42Z</time>
      </trkpt>
      <trkpt lat="42.3803530" lon="-4.1232210">
        <ele>814.2</ele>
        <time>2022-06-27T15:08:43Z</time>
      </trkpt>
      <trkpt lat="42.3804070" lon="-4.1233730">
        <ele>814.4</ele>
        <time>2022-06-27T15:08:44Z</time>
      </trkpt>
      <trkpt lat="42.3804440" lon="-4.1234760">
        <ele>814.4</ele>
        <time>2022-06-27T15:08:45Z</time>
      </trkpt>
      <trkpt lat="42.3804900" lon="-4.1236040">
        <ele>814.4</ele>
        <time>2022-06-27T15:08:46Z</time>
      </trkpt>
      <trkpt lat="42.3805450" lon="-4.1237580">
        <ele>814.4</ele>
        <time>2022-06-27T15:08:47Z</time>
      </trkpt>
      <trkpt lat="42.3805810" lon="-4.1238610">
        <ele>814.4</ele>
        <time>2022-06-27T15:08:48Z</time>
      </trkpt>
      <trkpt lat="42.3806260" lon="-4.1239920">
        <ele>814.4</ele>
        <time>2022-06-27T15:08:49Z</time>
      </trkpt>
      <trkpt lat="42.3806730" lon="-4.1241210">
        <ele>814.6</ele>
        <time>2022-06-27T15:08:50Z</time>
      </trkpt>
      <trkpt lat="42.3807200" lon="-4.1242490">
        <ele>814.6</ele>
        <time>2022-06-27T15:08:51Z</time>
      </trkpt>
      <trkpt lat="42.3807740" lon="-4.1244010">
        <ele>814.4</ele>
        <time>2022-06-27T15:08:52Z</time>
      </trkpt>
      <trkpt lat="42.3808220" lon="-4.1245260">
        <ele>814.4</ele>
        <time>2022-06-27T15:08:53Z</time>
      </trkpt>
      <trkpt lat="42.3808700" lon="-4.1246520">
        <ele>814.4</ele>
        <time>2022-06-27T15:08:54Z</time>
      </trkpt>
      <trkpt lat="42.3809080" lon="-4.1247530">
        <ele>814.4</ele>
        <time>2022-06-27T15:08:55Z</time>
      </trkpt>
      <trkpt lat="42.3809540" lon="-4.1248800">
        <ele>814.4</ele>
        <time>2022-06-27T15:08:56Z</time>
      </trkpt>
      <trkpt lat="42.3810080" lon="-4.1250330">
        <ele>814.4</ele>
        <time>2022-06-27T15:08:57Z</time>
      </trkpt>
      <trkpt lat="42.3810530" lon="-4.1251620">
        <ele>814.4</ele>
        <time>2022-06-27T15:08:58Z</time>
      </trkpt>
      <trkpt lat="42.3810900" lon="-4.1252660">
        <ele>814.4</ele>
        <time>2022-06-27T15:08:59Z</time>
      </trkpt>
      <trkpt lat="42.3811340" lon="-4.1253950">
        <ele>814.4</ele>
        <time>2022-06-27T15:09:00Z</time>
      </trkpt>
      <trkpt lat="42.3811890" lon="-4.1255480">
        <ele>814.4</ele>
        <time>2022-06-27T15:09:01Z</time>
      </trkpt>
      <trkpt lat="42.3812340" lon="-4.1256750">
        <ele>814.6</ele>
        <time>2022-06-27T15:09:02Z</time>
      </trkpt>
      <trkpt lat="42.3812760" lon="-4.1258010">
        <ele>814.8</ele>
        <time>2022-06-27T15:09:03Z</time>
      </trkpt>
      <trkpt lat="42.3813110" lon="-4.1259010">
        <ele>815.0</ele>
        <time>2022-06-27T15:09:04Z</time>
      </trkpt>
      <trkpt lat="42.3813550" lon="-4.1260250">
        <ele>815.2</ele>
        <time>2022-06-27T15:09:05Z</time>
      </trkpt>
      <trkpt lat="42.3813990" lon="-4.1261460">
        <ele>815.6</ele>
        <time>2022-06-27T15:09:06Z</time>
      </trkpt>
      <trkpt lat="42.3814500" lon="-4.1262900">
        <ele>815.6</ele>
        <time>2022-06-27T15:09:07Z</time>
      </trkpt>
      <trkpt lat="42.3814840" lon="-4.1263860">
        <ele>816.0</ele>
        <time>2022-06-27T15:09:08Z</time>
      </trkpt>
      <trkpt lat="42.3815280" lon="-4.1265040">
        <ele>816.4</ele>
        <time>2022-06-27T15:09:09Z</time>
      </trkpt>
      <trkpt lat="42.3815830" lon="-4.1266430">
        <ele>816.6</ele>
        <time>2022-06-27T15:09:10Z</time>
      </trkpt>
      <trkpt lat="42.3816240" lon="-4.1267600">
        <ele>817.0</ele>
        <time>2022-06-27T15:09:11Z</time>
      </trkpt>
      <trkpt lat="42.3816670" lon="-4.1268760">
        <ele>817.0</ele>
        <time>2022-06-27T15:09:12Z</time>
      </trkpt>
      <trkpt lat="42.3817020" lon="-4.1269660">
        <ele>817.4</ele>
        <time>2022-06-27T15:09:13Z</time>
      </trkpt>
      <trkpt lat="42.3817430" lon="-4.1270800">
        <ele>817.6</ele>
        <time>2022-06-27T15:09:14Z</time>
      </trkpt>
      <trkpt lat="42.3817900" lon="-4.1272140">
        <ele>817.8</ele>
        <time>2022-06-27T15:09:15Z</time>
      </trkpt>
      <trkpt lat="42.3818310" lon="-4.1273250">
        <ele>817.8</ele>
        <time>2022-06-27T15:09:16Z</time>
      </trkpt>
      <trkpt lat="42.3818710" lon="-4.1274350">
        <ele>817.8</ele>
        <time>2022-06-27T15:09:17Z</time>
      </trkpt>
      <trkpt lat="42.3819040" lon="-4.1275210">
        <ele>817.8</ele>
        <time>2022-06-27T15:09:18Z</time>
      </trkpt>
      <trkpt lat="42.3819440" lon="-4.1276290">
        <ele>817.8</ele>
        <time>2022-06-27T15:09:19Z</time>
      </trkpt>
      <trkpt lat="42.3819880" lon="-4.1277570">
        <ele>817.8</ele>
        <time>2022-06-27T15:09:20Z</time>
      </trkpt>
      <trkpt lat="42.3820270" lon="-4.1278640">
        <ele>818.0</ele>
        <time>2022-06-27T15:09:21Z</time>
      </trkpt>
      <trkpt lat="42.3820580" lon="-4.1279490">
        <ele>818.2</ele>
        <time>2022-06-27T15:09:22Z</time>
      </trkpt>
      <trkpt lat="42.3820980" lon="-4.1280530">
        <ele>818.2</ele>
        <time>2022-06-27T15:09:23Z</time>
      </trkpt>
      <trkpt lat="42.3821440" lon="-4.1281800">
        <ele>818.4</ele>
        <time>2022-06-27T15:09:24Z</time>
      </trkpt>
      <trkpt lat="42.3821830" lon="-4.1282870">
        <ele>818.4</ele>
        <time>2022-06-27T15:09:25Z</time>
      </trkpt>
      <trkpt lat="42.3822220" lon="-4.1283920">
        <ele>818.4</ele>
        <time>2022-06-27T15:09:26Z</time>
      </trkpt>
      <trkpt lat="42.3822530" lon="-4.1284780">
        <ele>818.4</ele>
        <time>2022-06-27T15:09:27Z</time>
      </trkpt>
      <trkpt lat="42.3822910" lon="-4.1285820">
        <ele>818.4</ele>
        <time>2022-06-27T15:09:28Z</time>
      </trkpt>
      <trkpt lat="42.3823300" lon="-4.1286870">
        <ele>818.4</ele>
        <time>2022-06-27T15:09:29Z</time>
      </trkpt>
      <trkpt lat="42.3823760" lon="-4.1288140">
        <ele>818.4</ele>
        <time>2022-06-27T15:09:30Z</time>
      </trkpt>
      <trkpt lat="42.3824100" lon="-4.1288980">
        <ele>818.4</ele>
        <time>2022-06-27T15:09:31Z</time>
      </trkpt>
      <trkpt lat="42.3824470" lon="-4.1290040">
        <ele>818.2</ele>
        <time>2022-06-27T15:09:32Z</time>
      </trkpt>
      <trkpt lat="42.3824910" lon="-4.1291310">
        <ele>818.2</ele>
        <time>2022-06-27T15:09:33Z</time>
      </trkpt>
      <trkpt lat="42.3825290" lon="-4.1292360">
        <ele>818.2</ele>
        <time>2022-06-27T15:09:34Z</time>
      </trkpt>
      <trkpt lat="42.3825670" lon="-4.1293400">
        <ele>818.2</ele>
        <time>2022-06-27T15:09:35Z</time>
      </trkpt>
      <trkpt lat="42.3825970" lon="-4.1294260">
        <ele>818.2</ele>
        <time>2022-06-27T15:09:36Z</time>
      </trkpt>
      <trkpt lat="42.3826360" lon="-4.1295330">
        <ele>818.2</ele>
        <time>2022-06-27T15:09:37Z</time>
      </trkpt>
      <trkpt lat="42.3826820" lon="-4.1296590">
        <ele>818.2</ele>
        <time>2022-06-27T15:09:38Z</time>
      </trkpt>
      <trkpt lat="42.3827220" lon="-4.1297650">
        <ele>818.2</ele>
        <time>2022-06-27T15:09:39Z</time>
      </trkpt>
      <trkpt lat="42.3827620" lon="-4.1298710">
        <ele>818.2</ele>
        <time>2022-06-27T15:09:40Z</time>
      </trkpt>
      <trkpt lat="42.3827930" lon="-4.1299570">
        <ele>818.4</ele>
        <time>2022-06-27T15:09:41Z</time>
      </trkpt>
      <trkpt lat="42.3828310" lon="-4.1300630">
        <ele>818.4</ele>
        <time>2022-06-27T15:09:42Z</time>
      </trkpt>
      <trkpt lat="42.3828760" lon="-4.1301920">
        <ele>818.6</ele>
        <time>2022-06-27T15:09:43Z</time>
      </trkpt>
      <trkpt lat="42.3829140" lon="-4.1302990">
        <ele>818.8</ele>
        <time>2022-06-27T15:09:44Z</time>
      </trkpt>
      <trkpt lat="42.3829450" lon="-4.1303830">
        <ele>818.8</ele>
        <time>2022-06-27T15:09:45Z</time>
      </trkpt>
      <trkpt lat="42.3829820" lon="-4.1304890">
        <ele>818.8</ele>
        <time>2022-06-27T15:09:46Z</time>
      </trkpt>
      <trkpt lat="42.3830260" lon="-4.1306150">
        <ele>819.0</ele>
        <time>2022-06-27T15:09:47Z</time>
      </trkpt>
      <trkpt lat="42.3830640" lon="-4.1307210">
        <ele>819.2</ele>
        <time>2022-06-27T15:09:48Z</time>
      </trkpt>
      <trkpt lat="42.3830950" lon="-4.1308050">
        <ele>819.2</ele>
        <time>2022-06-27T15:09:49Z</time>
      </trkpt>
      <trkpt lat="42.3831340" lon="-4.1309090">
        <ele>819.4</ele>
        <time>2022-06-27T15:09:50Z</time>
      </trkpt>
      <trkpt lat="42.3831700" lon="-4.1310150">
        <ele>819.6</ele>
        <time>2022-06-27T15:09:51Z</time>
      </trkpt>
      <trkpt lat="42.3832100" lon="-4.1311190">
        <ele>819.6</ele>
        <time>2022-06-27T15:09:52Z</time>
      </trkpt>
      <trkpt lat="42.3832600" lon="-4.1312420">
        <ele>819.6</ele>
        <time>2022-06-27T15:09:53Z</time>
      </trkpt>
      <trkpt lat="42.3833020" lon="-4.1313450">
        <ele>819.6</ele>
        <time>2022-06-27T15:09:54Z</time>
      </trkpt>
      <trkpt lat="42.3833350" lon="-4.1314250">
        <ele>819.8</ele>
        <time>2022-06-27T15:09:55Z</time>
      </trkpt>
      <trkpt lat="42.3833860" lon="-4.1315480">
        <ele>819.6</ele>
        <time>2022-06-27T15:09:56Z</time>
      </trkpt>
      <trkpt lat="42.3834300" lon="-4.1316500">
        <ele>819.8</ele>
        <time>2022-06-27T15:09:57Z</time>
      </trkpt>
      <trkpt lat="42.3834730" lon="-4.1317500">
        <ele>819.8</ele>
        <time>2022-06-27T15:09:58Z</time>
      </trkpt>
      <trkpt lat="42.3835110" lon="-4.1318310">
        <ele>819.8</ele>
        <time>2022-06-27T15:09:59Z</time>
      </trkpt>
      <trkpt lat="42.3835580" lon="-4.1319340">
        <ele>819.8</ele>
        <time>2022-06-27T15:10:00Z</time>
      </trkpt>
      <trkpt lat="42.3836150" lon="-4.1320560">
        <ele>819.8</ele>
        <time>2022-06-27T15:10:01Z</time>
      </trkpt>
      <trkpt lat="42.3836640" lon="-4.1321580">
        <ele>819.6</ele>
        <time>2022-06-27T15:10:02Z</time>
      </trkpt>
      <trkpt lat="42.3837130" lon="-4.1322600">
        <ele>819.6</ele>
        <time>2022-06-27T15:10:03Z</time>
      </trkpt>
      <trkpt lat="42.3837550" lon="-4.1323400">
        <ele>819.6</ele>
        <time>2022-06-27T15:10:04Z</time>
      </trkpt>
      <trkpt lat="42.3838180" lon="-4.1324630">
        <ele>819.6</ele>
        <time>2022-06-27T15:10:05Z</time>
      </trkpt>
      <trkpt lat="42.3838700" lon="-4.1325670">
        <ele>819.6</ele>
        <time>2022-06-27T15:10:06Z</time>
      </trkpt>
      <trkpt lat="42.3839240" lon="-4.1326690">
        <ele>819.4</ele>
        <time>2022-06-27T15:10:07Z</time>
      </trkpt>
      <trkpt lat="42.3839690" lon="-4.1327510">
        <ele>819.4</ele>
        <time>2022-06-27T15:10:08Z</time>
      </trkpt>
      <trkpt lat="42.3840230" lon="-4.1328540">
        <ele>819.2</ele>
        <time>2022-06-27T15:10:09Z</time>
      </trkpt>
      <trkpt lat="42.3840860" lon="-4.1329780">
        <ele>819.2</ele>
        <time>2022-06-27T15:10:10Z</time>
      </trkpt>
      <trkpt lat="42.3841390" lon="-4.1330810">
        <ele>819.0</ele>
        <time>2022-06-27T15:10:11Z</time>
      </trkpt>
      <trkpt lat="42.3841920" lon="-4.1331840">
        <ele>818.8</ele>
        <time>2022-06-27T15:10:12Z</time>
      </trkpt>
      <trkpt lat="42.3842360" lon="-4.1332660">
        <ele>818.8</ele>
        <time>2022-06-27T15:10:13Z</time>
      </trkpt>
      <trkpt lat="42.3842900" lon="-4.1333720">
        <ele>818.8</ele>
        <time>2022-06-27T15:10:14Z</time>
      </trkpt>
      <trkpt lat="42.3843450" lon="-4.1334780">
        <ele>818.8</ele>
        <time>2022-06-27T15:10:15Z</time>
      </trkpt>
      <trkpt lat="42.3844110" lon="-4.1336040">
        <ele>818.8</ele>
        <time>2022-06-27T15:10:16Z</time>
      </trkpt>
      <trkpt lat="42.3844670" lon="-4.1337090">
        <ele>818.8</ele>
        <time>2022-06-27T15:10:17Z</time>
      </trkpt>
      <trkpt lat="42.3845120" lon="-4.1337940">
        <ele>818.8</ele>
        <time>2022-06-27T15:10:18Z</time>
      </trkpt>
      <trkpt lat="42.3845780" lon="-4.1339220">
        <ele>818.6</ele>
        <time>2022-06-27T15:10:19Z</time>
      </trkpt>
      <trkpt lat="42.3846320" lon="-4.1340290">
        <ele>818.6</ele>
        <time>2022-06-27T15:10:20Z</time>
      </trkpt>
      <trkpt lat="42.3846860" lon="-4.1341360">
        <ele>818.6</ele>
        <time>2022-06-27T15:10:21Z</time>
      </trkpt>
      <trkpt lat="42.3847290" lon="-4.1342230">
        <ele>818.6</ele>
        <time>2022-06-27T15:10:22Z</time>
      </trkpt>
      <trkpt lat="42.3847840" lon="-4.1343310">
        <ele>818.4</ele>
        <time>2022-06-27T15:10:23Z</time>
      </trkpt>
      <trkpt lat="42.3848490" lon="-4.1344580">
        <ele>818.4</ele>
        <time>2022-06-27T15:10:24Z</time>
      </trkpt>
      <trkpt lat="42.3849040" lon="-4.1345640">
        <ele>818.4</ele>
        <time>2022-06-27T15:10:25Z</time>
      </trkpt>
      <trkpt lat="42.3849590" lon="-4.1346710">
        <ele>818.0</ele>
        <time>2022-06-27T15:10:26Z</time>
      </trkpt>
      <trkpt lat="42.3850030" lon="-4.1347560">
        <ele>818.0</ele>
        <time>2022-06-27T15:10:27Z</time>
      </trkpt>
      <trkpt lat="42.3850590" lon="-4.1348630">
        <ele>817.8</ele>
        <time>2022-06-27T15:10:28Z</time>
      </trkpt>
      <trkpt lat="42.3851250" lon="-4.1349900">
        <ele>817.8</ele>
        <time>2022-06-27T15:10:29Z</time>
      </trkpt>
      <trkpt lat="42.3851810" lon="-4.1350980">
        <ele>817.6</ele>
        <time>2022-06-27T15:10:30Z</time>
      </trkpt>
      <trkpt lat="42.3852260" lon="-4.1351840">
        <ele>817.6</ele>
        <time>2022-06-27T15:10:31Z</time>
      </trkpt>
      <trkpt lat="42.3852810" lon="-4.1352920">
        <ele>817.6</ele>
        <time>2022-06-27T15:10:32Z</time>
      </trkpt>
      <trkpt lat="42.3853470" lon="-4.1354190">
        <ele>817.4</ele>
        <time>2022-06-27T15:10:33Z</time>
      </trkpt>
      <trkpt lat="42.3854020" lon="-4.1355260">
        <ele>817.4</ele>
        <time>2022-06-27T15:10:34Z</time>
      </trkpt>
      <trkpt lat="42.3854570" lon="-4.1356320">
        <ele>817.4</ele>
        <time>2022-06-27T15:10:35Z</time>
      </trkpt>
      <trkpt lat="42.3854990" lon="-4.1357150">
        <ele>817.4</ele>
        <time>2022-06-27T15:10:36Z</time>
      </trkpt>
      <trkpt lat="42.3855530" lon="-4.1358210">
        <ele>817.4</ele>
        <time>2022-06-27T15:10:37Z</time>
      </trkpt>
      <trkpt lat="42.3856200" lon="-4.1359480">
        <ele>817.2</ele>
        <time>2022-06-27T15:10:38Z</time>
      </trkpt>
      <trkpt lat="42.3856740" lon="-4.1360550">
        <ele>817.2</ele>
        <time>2022-06-27T15:10:39Z</time>
      </trkpt>
      <trkpt lat="42.3857290" lon="-4.1361620">
        <ele>817.0</ele>
        <time>2022-06-27T15:10:40Z</time>
      </trkpt>
      <trkpt lat="42.3857750" lon="-4.1362470">
        <ele>817.0</ele>
        <time>2022-06-27T15:10:41Z</time>
      </trkpt>
      <trkpt lat="42.3858310" lon="-4.1363540">
        <ele>817.0</ele>
        <time>2022-06-27T15:10:42Z</time>
      </trkpt>
      <trkpt lat="42.3858960" lon="-4.1364820">
        <ele>816.8</ele>
        <time>2022-06-27T15:10:43Z</time>
      </trkpt>
      <trkpt lat="42.3859520" lon="-4.1365880">
        <ele>816.8</ele>
        <time>2022-06-27T15:10:44Z</time>
      </trkpt>
      <trkpt lat="42.3859950" lon="-4.1366730">
        <ele>816.6</ele>
        <time>2022-06-27T15:10:45Z</time>
      </trkpt>
      <trkpt lat="42.3860490" lon="-4.1367790">
        <ele>816.4</ele>
        <time>2022-06-27T15:10:46Z</time>
      </trkpt>
      <trkpt lat="42.3861140" lon="-4.1369050">
        <ele>816.4</ele>
        <time>2022-06-27T15:10:47Z</time>
      </trkpt>
      <trkpt lat="42.3861660" lon="-4.1370100">
        <ele>816.4</ele>
        <time>2022-06-27T15:10:48Z</time>
      </trkpt>
      <trkpt lat="42.3862190" lon="-4.1371130">
        <ele>816.2</ele>
        <time>2022-06-27T15:10:49Z</time>
      </trkpt>
      <trkpt lat="42.3862620" lon="-4.1371950">
        <ele>816.2</ele>
        <time>2022-06-27T15:10:50Z</time>
      </trkpt>
      <trkpt lat="42.3863150" lon="-4.1372980">
        <ele>816.2</ele>
        <time>2022-06-27T15:10:51Z</time>
      </trkpt>
      <trkpt lat="42.3863780" lon="-4.1374220">
        <ele>816.2</ele>
        <time>2022-06-27T15:10:52Z</time>
      </trkpt>
      <trkpt lat="42.3864310" lon="-4.1375250">
        <ele>816.4</ele>
        <time>2022-06-27T15:10:53Z</time>
      </trkpt>
      <trkpt lat="42.3864720" lon="-4.1376070">
        <ele>816.4</ele>
        <time>2022-06-27T15:10:54Z</time>
      </trkpt>
      <trkpt lat="42.3865250" lon="-4.1377100">
        <ele>816.4</ele>
        <time>2022-06-27T15:10:55Z</time>
      </trkpt>
      <trkpt lat="42.3865870" lon="-4.1378330">
        <ele>816.4</ele>
        <time>2022-06-27T15:10:56Z</time>
      </trkpt>
      <trkpt lat="42.3866280" lon="-4.1379160">
        <ele>816.4</ele>
        <time>2022-06-27T15:10:57Z</time>
      </trkpt>
      <trkpt lat="42.3866920" lon="-4.1380390">
        <ele>816.6</ele>
        <time>2022-06-27T15:10:58Z</time>
      </trkpt>
      <trkpt lat="42.3867350" lon="-4.1381210">
        <ele>816.6</ele>
        <time>2022-06-27T15:10:59Z</time>
      </trkpt>
      <trkpt lat="42.3867880" lon="-4.1382240">
        <ele>816.6</ele>
        <time>2022-06-27T15:11:00Z</time>
      </trkpt>
      <trkpt lat="42.3868520" lon="-4.1383440">
        <ele>816.6</ele>
        <time>2022-06-27T15:11:01Z</time>
      </trkpt>
      <trkpt lat="42.3869040" lon="-4.1384440">
        <ele>816.6</ele>
        <time>2022-06-27T15:11:02Z</time>
      </trkpt>
      <trkpt lat="42.3869570" lon="-4.1385450">
        <ele>816.6</ele>
        <time>2022-06-27T15:11:03Z</time>
      </trkpt>
      <trkpt lat="42.3869980" lon="-4.1386260">
        <ele>816.6</ele>
        <time>2022-06-27T15:11:04Z</time>
      </trkpt>
      <trkpt lat="42.3870620" lon="-4.1387480">
        <ele>816.6</ele>
        <time>2022-06-27T15:11:05Z</time>
      </trkpt>
      <trkpt lat="42.3871140" lon="-4.1388490">
        <ele>816.6</ele>
        <time>2022-06-27T15:11:06Z</time>
      </trkpt>
      <trkpt lat="42.3871570" lon="-4.1389300">
        <ele>816.6</ele>
        <time>2022-06-27T15:11:07Z</time>
      </trkpt>
      <trkpt lat="42.3872100" lon="-4.1390310">
        <ele>816.4</ele>
        <time>2022-06-27T15:11:08Z</time>
      </trkpt>
      <trkpt lat="42.3872620" lon="-4.1391310">
        <ele>816.4</ele>
        <time>2022-06-27T15:11:09Z</time>
      </trkpt>
      <trkpt lat="42.3873250" lon="-4.1392500">
        <ele>816.4</ele>
        <time>2022-06-27T15:11:10Z</time>
      </trkpt>
      <trkpt lat="42.3873780" lon="-4.1393500">
        <ele>816.2</ele>
        <time>2022-06-27T15:11:11Z</time>
      </trkpt>
      <trkpt lat="42.3874310" lon="-4.1394500">
        <ele>816.2</ele>
        <time>2022-06-27T15:11:12Z</time>
      </trkpt>
      <trkpt lat="42.3874720" lon="-4.1395310">
        <ele>816.2</ele>
        <time>2022-06-27T15:11:13Z</time>
      </trkpt>
      <trkpt lat="42.3875230" lon="-4.1396320">
        <ele>816.0</ele>
        <time>2022-06-27T15:11:14Z</time>
      </trkpt>
      <trkpt lat="42.3875860" lon="-4.1397530">
        <ele>816.0</ele>
        <time>2022-06-27T15:11:15Z</time>
      </trkpt>
      <trkpt lat="42.3876420" lon="-4.1398500">
        <ele>815.8</ele>
        <time>2022-06-27T15:11:16Z</time>
      </trkpt>
      <trkpt lat="42.3876850" lon="-4.1399290">
        <ele>815.6</ele>
        <time>2022-06-27T15:11:17Z</time>
      </trkpt>
      <trkpt lat="42.3877380" lon="-4.1400310">
        <ele>815.6</ele>
        <time>2022-06-27T15:11:18Z</time>
      </trkpt>
      <trkpt lat="42.3878010" lon="-4.1401510">
        <ele>815.4</ele>
        <time>2022-06-27T15:11:19Z</time>
      </trkpt>
      <trkpt lat="42.3878540" lon="-4.1402510">
        <ele>815.4</ele>
        <time>2022-06-27T15:11:20Z</time>
      </trkpt>
      <trkpt lat="42.3879070" lon="-4.1403510">
        <ele>815.4</ele>
        <time>2022-06-27T15:11:21Z</time>
      </trkpt>
      <trkpt lat="42.3879490" lon="-4.1404320">
        <ele>815.6</ele>
        <time>2022-06-27T15:11:22Z</time>
      </trkpt>
      <trkpt lat="42.3880010" lon="-4.1405330">
        <ele>815.4</ele>
        <time>2022-06-27T15:11:23Z</time>
      </trkpt>
      <trkpt lat="42.3880650" lon="-4.1406530">
        <ele>815.4</ele>
        <time>2022-06-27T15:11:24Z</time>
      </trkpt>
      <trkpt lat="42.3881180" lon="-4.1407530">
        <ele>815.4</ele>
        <time>2022-06-27T15:11:25Z</time>
      </trkpt>
      <trkpt lat="42.3881700" lon="-4.1408540">
        <ele>815.2</ele>
        <time>2022-06-27T15:11:26Z</time>
      </trkpt>
      <trkpt lat="42.3882230" lon="-4.1409540">
        <ele>815.2</ele>
        <time>2022-06-27T15:11:27Z</time>
      </trkpt>
      <trkpt lat="42.3882750" lon="-4.1410550">
        <ele>815.4</ele>
        <time>2022-06-27T15:11:28Z</time>
      </trkpt>
      <trkpt lat="42.3883260" lon="-4.1411570">
        <ele>815.4</ele>
        <time>2022-06-27T15:11:29Z</time>
      </trkpt>
      <trkpt lat="42.3883790" lon="-4.1412570">
        <ele>815.4</ele>
        <time>2022-06-27T15:11:30Z</time>
      </trkpt>
      <trkpt lat="42.3884220" lon="-4.1413380">
        <ele>815.4</ele>
        <time>2022-06-27T15:11:31Z</time>
      </trkpt>
      <trkpt lat="42.3884740" lon="-4.1414410">
        <ele>815.4</ele>
        <time>2022-06-27T15:11:32Z</time>
      </trkpt>
      <trkpt lat="42.3885370" lon="-4.1415630">
        <ele>815.6</ele>
        <time>2022-06-27T15:11:33Z</time>
      </trkpt>
      <trkpt lat="42.3885900" lon="-4.1416650">
        <ele>815.6</ele>
        <time>2022-06-27T15:11:34Z</time>
      </trkpt>
      <trkpt lat="42.3886300" lon="-4.1417470">
        <ele>815.6</ele>
        <time>2022-06-27T15:11:35Z</time>
      </trkpt>
      <trkpt lat="42.3886810" lon="-4.1418490">
        <ele>815.6</ele>
        <time>2022-06-27T15:11:36Z</time>
      </trkpt>
      <trkpt lat="42.3887430" lon="-4.1419690">
        <ele>815.6</ele>
        <time>2022-06-27T15:11:37Z</time>
      </trkpt>
      <trkpt lat="42.3887960" lon="-4.1420690">
        <ele>815.6</ele>
        <time>2022-06-27T15:11:38Z</time>
      </trkpt>
      <trkpt lat="42.3888490" lon="-4.1421690">
        <ele>815.6</ele>
        <time>2022-06-27T15:11:39Z</time>
      </trkpt>
      <trkpt lat="42.3888900" lon="-4.1422480">
        <ele>815.6</ele>
        <time>2022-06-27T15:11:40Z</time>
      </trkpt>
      <trkpt lat="42.3889430" lon="-4.1423480">
        <ele>815.6</ele>
        <time>2022-06-27T15:11:41Z</time>
      </trkpt>
      <trkpt lat="42.3890050" lon="-4.1424690">
        <ele>815.6</ele>
        <time>2022-06-27T15:11:42Z</time>
      </trkpt>
      <trkpt lat="42.3890570" lon="-4.1425670">
        <ele>815.6</ele>
        <time>2022-06-27T15:11:43Z</time>
      </trkpt>
      <trkpt lat="42.3891080" lon="-4.1426660">
        <ele>815.8</ele>
        <time>2022-06-27T15:11:44Z</time>
      </trkpt>
      <trkpt lat="42.3891500" lon="-4.1427450">
        <ele>815.8</ele>
        <time>2022-06-27T15:11:45Z</time>
      </trkpt>
      <trkpt lat="42.3892010" lon="-4.1428440">
        <ele>815.8</ele>
        <time>2022-06-27T15:11:46Z</time>
      </trkpt>
      <trkpt lat="42.3892610" lon="-4.1429620">
        <ele>815.8</ele>
        <time>2022-06-27T15:11:47Z</time>
      </trkpt>
      <trkpt lat="42.3893020" lon="-4.1430410">
        <ele>816.0</ele>
        <time>2022-06-27T15:11:48Z</time>
      </trkpt>
      <trkpt lat="42.3893530" lon="-4.1431390">
        <ele>816.0</ele>
        <time>2022-06-27T15:11:49Z</time>
      </trkpt>
      <trkpt lat="42.3894040" lon="-4.1432360">
        <ele>816.2</ele>
        <time>2022-06-27T15:11:50Z</time>
      </trkpt>
      <trkpt lat="42.3894610" lon="-4.1433490">
        <ele>816.4</ele>
        <time>2022-06-27T15:11:51Z</time>
      </trkpt>
      <trkpt lat="42.3895110" lon="-4.1434420">
        <ele>816.4</ele>
        <time>2022-06-27T15:11:52Z</time>
      </trkpt>
      <trkpt lat="42.3895610" lon="-4.1435370">
        <ele>816.6</ele>
        <time>2022-06-27T15:11:53Z</time>
      </trkpt>
      <trkpt lat="42.3896020" lon="-4.1436120">
        <ele>816.6</ele>
        <time>2022-06-27T15:11:54Z</time>
      </trkpt>
      <trkpt lat="42.3896530" lon="-4.1437060">
        <ele>816.6</ele>
        <time>2022-06-27T15:11:55Z</time>
      </trkpt>
      <trkpt lat="42.3897100" lon="-4.1438200">
        <ele>816.6</ele>
        <time>2022-06-27T15:11:56Z</time>
      </trkpt>
      <trkpt lat="42.3897570" lon="-4.1439140">
        <ele>816.6</ele>
        <time>2022-06-27T15:11:57Z</time>
      </trkpt>
      <trkpt lat="42.3898030" lon="-4.1440080">
        <ele>816.6</ele>
        <time>2022-06-27T15:11:58Z</time>
      </trkpt>
      <trkpt lat="42.3898410" lon="-4.1440820">
        <ele>816.8</ele>
        <time>2022-06-27T15:11:59Z</time>
      </trkpt>
      <trkpt lat="42.3898980" lon="-4.1441920">
        <ele>816.8</ele>
        <time>2022-06-27T15:12:00Z</time>
      </trkpt>
      <trkpt lat="42.3899370" lon="-4.1442670">
        <ele>817.0</ele>
        <time>2022-06-27T15:12:01Z</time>
      </trkpt>
      <trkpt lat="42.3899950" lon="-4.1443780">
        <ele>817.0</ele>
        <time>2022-06-27T15:12:02Z</time>
      </trkpt>
      <trkpt lat="42.3900340" lon="-4.1444520">
        <ele>817.0</ele>
        <time>2022-06-27T15:12:03Z</time>
      </trkpt>
      <trkpt lat="42.3900820" lon="-4.1445430">
        <ele>817.0</ele>
        <time>2022-06-27T15:12:04Z</time>
      </trkpt>
      <trkpt lat="42.3901290" lon="-4.1446360">
        <ele>817.2</ele>
        <time>2022-06-27T15:12:05Z</time>
      </trkpt>
      <trkpt lat="42.3901760" lon="-4.1447270">
        <ele>817.2</ele>
        <time>2022-06-27T15:12:06Z</time>
      </trkpt>
      <trkpt lat="42.3902230" lon="-4.1448170">
        <ele>817.2</ele>
        <time>2022-06-27T15:12:07Z</time>
      </trkpt>
      <trkpt lat="42.3902670" lon="-4.1449080">
        <ele>817.4</ele>
        <time>2022-06-27T15:12:08Z</time>
      </trkpt>
      <trkpt lat="42.3903130" lon="-4.1449990">
        <ele>817.4</ele>
        <time>2022-06-27T15:12:09Z</time>
      </trkpt>
      <trkpt lat="42.3903540" lon="-4.1450880">
        <ele>817.6</ele>
        <time>2022-06-27T15:12:10Z</time>
      </trkpt>
      <trkpt lat="42.3904110" lon="-4.1451930">
        <ele>817.6</ele>
        <time>2022-06-27T15:12:11Z</time>
      </trkpt>
      <trkpt lat="42.3904580" lon="-4.1452810">
        <ele>817.6</ele>
        <time>2022-06-27T15:12:12Z</time>
      </trkpt>
      <trkpt lat="42.3904960" lon="-4.1453530">
        <ele>817.6</ele>
        <time>2022-06-27T15:12:13Z</time>
      </trkpt>
      <trkpt lat="42.3905510" lon="-4.1454590">
        <ele>817.4</ele>
        <time>2022-06-27T15:12:14Z</time>
      </trkpt>
      <trkpt lat="42.3905960" lon="-4.1455480">
        <ele>817.4</ele>
        <time>2022-06-27T15:12:15Z</time>
      </trkpt>
      <trkpt lat="42.3906400" lon="-4.1456360">
        <ele>817.4</ele>
        <time>2022-06-27T15:12:16Z</time>
      </trkpt>
      <trkpt lat="42.3906750" lon="-4.1457060">
        <ele>817.4</ele>
        <time>2022-06-27T15:12:17Z</time>
      </trkpt>
      <trkpt lat="42.3907180" lon="-4.1457910">
        <ele>817.4</ele>
        <time>2022-06-27T15:12:18Z</time>
      </trkpt>
      <trkpt lat="42.3907720" lon="-4.1458930">
        <ele>817.4</ele>
        <time>2022-06-27T15:12:19Z</time>
      </trkpt>
      <trkpt lat="42.3908150" lon="-4.1459830">
        <ele>817.4</ele>
        <time>2022-06-27T15:12:20Z</time>
      </trkpt>
      <trkpt lat="42.3908510" lon="-4.1460570">
        <ele>817.4</ele>
        <time>2022-06-27T15:12:21Z</time>
      </trkpt>
      <trkpt lat="42.3908970" lon="-4.1461480">
        <ele>817.4</ele>
        <time>2022-06-27T15:12:22Z</time>
      </trkpt>
      <trkpt lat="42.3909450" lon="-4.1462420">
        <ele>817.4</ele>
        <time>2022-06-27T15:12:23Z</time>
      </trkpt>
      <trkpt lat="42.3910050" lon="-4.1463550">
        <ele>817.4</ele>
        <time>2022-06-27T15:12:24Z</time>
      </trkpt>
      <trkpt lat="42.3910570" lon="-4.1464510">
        <ele>817.4</ele>
        <time>2022-06-27T15:12:25Z</time>
      </trkpt>
      <trkpt lat="42.3911090" lon="-4.1465510">
        <ele>817.4</ele>
        <time>2022-06-27T15:12:26Z</time>
      </trkpt>
      <trkpt lat="42.3911510" lon="-4.1466350">
        <ele>817.4</ele>
        <time>2022-06-27T15:12:27Z</time>
      </trkpt>
      <trkpt lat="42.3912150" lon="-4.1467630">
        <ele>817.4</ele>
        <time>2022-06-27T15:12:28Z</time>
      </trkpt>
      <trkpt lat="42.3912730" lon="-4.1468670">
        <ele>817.4</ele>
        <time>2022-06-27T15:12:29Z</time>
      </trkpt>
      <trkpt lat="42.3913340" lon="-4.1469720">
        <ele>817.4</ele>
        <time>2022-06-27T15:12:30Z</time>
      </trkpt>
      <trkpt lat="42.3913820" lon="-4.1470620">
        <ele>817.2</ele>
        <time>2022-06-27T15:12:31Z</time>
      </trkpt>
      <trkpt lat="42.3914410" lon="-4.1471720">
        <ele>817.0</ele>
        <time>2022-06-27T15:12:32Z</time>
      </trkpt>
      <trkpt lat="42.3915120" lon="-4.1473040">
        <ele>816.8</ele>
        <time>2022-06-27T15:12:33Z</time>
      </trkpt>
      <trkpt lat="42.3915710" lon="-4.1474170">
        <ele>816.8</ele>
        <time>2022-06-27T15:12:34Z</time>
      </trkpt>
      <trkpt lat="42.3916290" lon="-4.1475330">
        <ele>816.6</ele>
        <time>2022-06-27T15:12:35Z</time>
      </trkpt>
      <trkpt lat="42.3916760" lon="-4.1476250">
        <ele>816.6</ele>
        <time>2022-06-27T15:12:36Z</time>
      </trkpt>
      <trkpt lat="42.3917470" lon="-4.1477650">
        <ele>816.6</ele>
        <time>2022-06-27T15:12:37Z</time>
      </trkpt>
      <trkpt lat="42.3918070" lon="-4.1478800">
        <ele>816.4</ele>
        <time>2022-06-27T15:12:38Z</time>
      </trkpt>
      <trkpt lat="42.3918690" lon="-4.1479970">
        <ele>816.4</ele>
        <time>2022-06-27T15:12:39Z</time>
      </trkpt>
      <trkpt lat="42.3919160" lon="-4.1480910">
        <ele>816.2</ele>
        <time>2022-06-27T15:12:40Z</time>
      </trkpt>
      <trkpt lat="42.3919760" lon="-4.1482070">
        <ele>816.2</ele>
        <time>2022-06-27T15:12:41Z</time>
      </trkpt>
      <trkpt lat="42.3920500" lon="-4.1483460">
        <ele>816.0</ele>
        <time>2022-06-27T15:12:42Z</time>
      </trkpt>
      <trkpt lat="42.3921110" lon="-4.1484620">
        <ele>815.8</ele>
        <time>2022-06-27T15:12:43Z</time>
      </trkpt>
      <trkpt lat="42.3921710" lon="-4.1485800">
        <ele>815.8</ele>
        <time>2022-06-27T15:12:44Z</time>
      </trkpt>
      <trkpt lat="42.3922180" lon="-4.1486730">
        <ele>815.2</ele>
        <time>2022-06-27T15:12:45Z</time>
      </trkpt>
      <trkpt lat="42.3922780" lon="-4.1487890">
        <ele>814.8</ele>
        <time>2022-06-27T15:12:46Z</time>
      </trkpt>
      <trkpt lat="42.3923370" lon="-4.1489040">
        <ele>814.4</ele>
        <time>2022-06-27T15:12:47Z</time>
      </trkpt>
      <trkpt lat="42.3924060" lon="-4.1490390">
        <ele>814.4</ele>
        <time>2022-06-27T15:12:48Z</time>
      </trkpt>
      <trkpt lat="42.3924660" lon="-4.1491500">
        <ele>814.2</ele>
        <time>2022-06-27T15:12:49Z</time>
      </trkpt>
      <trkpt lat="42.3925150" lon="-4.1492350">
        <ele>814.2</ele>
        <time>2022-06-27T15:12:50Z</time>
      </trkpt>
      <trkpt lat="42.3925850" lon="-4.1493670">
        <ele>814.2</ele>
        <time>2022-06-27T15:12:51Z</time>
      </trkpt>
      <trkpt lat="42.3926420" lon="-4.1494750">
        <ele>814.0</ele>
        <time>2022-06-27T15:12:52Z</time>
      </trkpt>
      <trkpt lat="42.3926970" lon="-4.1495810">
        <ele>814.0</ele>
        <time>2022-06-27T15:12:53Z</time>
      </trkpt>
      <trkpt lat="42.3927400" lon="-4.1496650">
        <ele>814.0</ele>
        <time>2022-06-27T15:12:54Z</time>
      </trkpt>
      <trkpt lat="42.3927920" lon="-4.1497670">
        <ele>814.0</ele>
        <time>2022-06-27T15:12:55Z</time>
      </trkpt>
      <trkpt lat="42.3928410" lon="-4.1498670">
        <ele>814.0</ele>
        <time>2022-06-27T15:12:56Z</time>
      </trkpt>
      <trkpt lat="42.3928960" lon="-4.1499830">
        <ele>814.0</ele>
        <time>2022-06-27T15:12:57Z</time>
      </trkpt>
      <trkpt lat="42.3929450" lon="-4.1500740">
        <ele>814.0</ele>
        <time>2022-06-27T15:12:58Z</time>
      </trkpt>
      <trkpt lat="42.3929830" lon="-4.1501450">
        <ele>814.2</ele>
        <time>2022-06-27T15:12:59Z</time>
      </trkpt>
      <trkpt lat="42.3930360" lon="-4.1502490">
        <ele>814.4</ele>
        <time>2022-06-27T15:13:00Z</time>
      </trkpt>
      <trkpt lat="42.3930780" lon="-4.1503330">
        <ele>814.8</ele>
        <time>2022-06-27T15:13:01Z</time>
      </trkpt>
      <trkpt lat="42.3931210" lon="-4.1504140">
        <ele>814.8</ele>
        <time>2022-06-27T15:13:02Z</time>
      </trkpt>
      <trkpt lat="42.3931540" lon="-4.1504750">
        <ele>815.0</ele>
        <time>2022-06-27T15:13:03Z</time>
      </trkpt>
      <trkpt lat="42.3931940" lon="-4.1505540">
        <ele>815.2</ele>
        <time>2022-06-27T15:13:04Z</time>
      </trkpt>
      <trkpt lat="42.3932340" lon="-4.1506300">
        <ele>815.4</ele>
        <time>2022-06-27T15:13:05Z</time>
      </trkpt>
      <trkpt lat="42.3932810" lon="-4.1507170">
        <ele>815.8</ele>
        <time>2022-06-27T15:13:06Z</time>
      </trkpt>
      <trkpt lat="42.3933190" lon="-4.1507900">
        <ele>816.0</ele>
        <time>2022-06-27T15:13:07Z</time>
      </trkpt>
      <trkpt lat="42.3933500" lon="-4.1508490">
        <ele>816.2</ele>
        <time>2022-06-27T15:13:08Z</time>
      </trkpt>
      <trkpt lat="42.3933890" lon="-4.1509240">
        <ele>816.6</ele>
        <time>2022-06-27T15:13:09Z</time>
      </trkpt>
      <trkpt lat="42.3934330" lon="-4.1510120">
        <ele>817.2</ele>
        <time>2022-06-27T15:13:10Z</time>
      </trkpt>
      <trkpt lat="42.3934670" lon="-4.1510860">
        <ele>817.4</ele>
        <time>2022-06-27T15:13:11Z</time>
      </trkpt>
      <trkpt lat="42.3935040" lon="-4.1511570">
        <ele>817.8</ele>
        <time>2022-06-27T15:13:12Z</time>
      </trkpt>
      <trkpt lat="42.3935350" lon="-4.1512120">
        <ele>818.2</ele>
        <time>2022-06-27T15:13:13Z</time>
      </trkpt>
      <trkpt lat="42.3935800" lon="-4.1513000">
        <ele>818.4</ele>
        <time>2022-06-27T15:13:14Z</time>
      </trkpt>
      <trkpt lat="42.3936170" lon="-4.1513750">
        <ele>819.0</ele>
        <time>2022-06-27T15:13:15Z</time>
      </trkpt>
      <trkpt lat="42.3936520" lon="-4.1514520">
        <ele>819.2</ele>
        <time>2022-06-27T15:13:16Z</time>
      </trkpt>
      <trkpt lat="42.3936800" lon="-4.1515140">
        <ele>819.4</ele>
        <time>2022-06-27T15:13:17Z</time>
      </trkpt>
      <trkpt lat="42.3937150" lon="-4.1515920">
        <ele>819.4</ele>
        <time>2022-06-27T15:13:18Z</time>
      </trkpt>
      <trkpt lat="42.3937640" lon="-4.1516870">
        <ele>819.6</ele>
        <time>2022-06-27T15:13:19Z</time>
      </trkpt>
      <trkpt lat="42.3938070" lon="-4.1517670">
        <ele>819.6</ele>
        <time>2022-06-27T15:13:20Z</time>
      </trkpt>
      <trkpt lat="42.3938490" lon="-4.1518500">
        <ele>819.8</ele>
        <time>2022-06-27T15:13:21Z</time>
      </trkpt>
      <trkpt lat="42.3938840" lon="-4.1519170">
        <ele>820.0</ele>
        <time>2022-06-27T15:13:22Z</time>
      </trkpt>
      <trkpt lat="42.3939350" lon="-4.1520170">
        <ele>820.0</ele>
        <time>2022-06-27T15:13:23Z</time>
      </trkpt>
      <trkpt lat="42.3939780" lon="-4.1521030">
        <ele>820.0</ele>
        <time>2022-06-27T15:13:24Z</time>
      </trkpt>
      <trkpt lat="42.3940240" lon="-4.1521880">
        <ele>820.0</ele>
        <time>2022-06-27T15:13:25Z</time>
      </trkpt>
      <trkpt lat="42.3940620" lon="-4.1522560">
        <ele>820.0</ele>
        <time>2022-06-27T15:13:26Z</time>
      </trkpt>
      <trkpt lat="42.3941070" lon="-4.1523440">
        <ele>820.0</ele>
        <time>2022-06-27T15:13:27Z</time>
      </trkpt>
      <trkpt lat="42.3941630" lon="-4.1524520">
        <ele>820.0</ele>
        <time>2022-06-27T15:13:28Z</time>
      </trkpt>
      <trkpt lat="42.3942090" lon="-4.1525420">
        <ele>820.0</ele>
        <time>2022-06-27T15:13:29Z</time>
      </trkpt>
      <trkpt lat="42.3942550" lon="-4.1526310">
        <ele>819.8</ele>
        <time>2022-06-27T15:13:30Z</time>
      </trkpt>
      <trkpt lat="42.3942910" lon="-4.1527040">
        <ele>819.8</ele>
        <time>2022-06-27T15:13:31Z</time>
      </trkpt>
      <trkpt lat="42.3943390" lon="-4.1527970">
        <ele>819.8</ele>
        <time>2022-06-27T15:13:32Z</time>
      </trkpt>
      <trkpt lat="42.3943970" lon="-4.1529080">
        <ele>819.6</ele>
        <time>2022-06-27T15:13:33Z</time>
      </trkpt>
      <trkpt lat="42.3944420" lon="-4.1530010">
        <ele>819.6</ele>
        <time>2022-06-27T15:13:34Z</time>
      </trkpt>
      <trkpt lat="42.3944900" lon="-4.1530950">
        <ele>819.6</ele>
        <time>2022-06-27T15:13:35Z</time>
      </trkpt>
      <trkpt lat="42.3945290" lon="-4.1531690">
        <ele>819.6</ele>
        <time>2022-06-27T15:13:36Z</time>
      </trkpt>
      <trkpt lat="42.3945880" lon="-4.1532810">
        <ele>819.6</ele>
        <time>2022-06-27T15:13:37Z</time>
      </trkpt>
      <trkpt lat="42.3946380" lon="-4.1533760">
        <ele>819.6</ele>
        <time>2022-06-27T15:13:38Z</time>
      </trkpt>
      <trkpt lat="42.3946850" lon="-4.1534700">
        <ele>819.6</ele>
        <time>2022-06-27T15:13:39Z</time>
      </trkpt>
      <trkpt lat="42.3947210" lon="-4.1535460">
        <ele>819.6</ele>
        <time>2022-06-27T15:13:40Z</time>
      </trkpt>
      <trkpt lat="42.3947680" lon="-4.1536430">
        <ele>819.6</ele>
        <time>2022-06-27T15:13:41Z</time>
      </trkpt>
      <trkpt lat="42.3948250" lon="-4.1537590">
        <ele>819.6</ele>
        <time>2022-06-27T15:13:42Z</time>
      </trkpt>
      <trkpt lat="42.3948730" lon="-4.1538570">
        <ele>819.6</ele>
        <time>2022-06-27T15:13:43Z</time>
      </trkpt>
      <trkpt lat="42.3949230" lon="-4.1539560">
        <ele>819.6</ele>
        <time>2022-06-27T15:13:44Z</time>
      </trkpt>
      <trkpt lat="42.3949640" lon="-4.1540350">
        <ele>819.6</ele>
        <time>2022-06-27T15:13:45Z</time>
      </trkpt>
      <trkpt lat="42.3950260" lon="-4.1541530">
        <ele>819.6</ele>
        <time>2022-06-27T15:13:46Z</time>
      </trkpt>
      <trkpt lat="42.3950790" lon="-4.1542540">
        <ele>819.8</ele>
        <time>2022-06-27T15:13:47Z</time>
      </trkpt>
      <trkpt lat="42.3951310" lon="-4.1543570">
        <ele>820.0</ele>
        <time>2022-06-27T15:13:48Z</time>
      </trkpt>
      <trkpt lat="42.3951720" lon="-4.1544420">
        <ele>820.0</ele>
        <time>2022-06-27T15:13:49Z</time>
      </trkpt>
      <trkpt lat="42.3952250" lon="-4.1545480">
        <ele>820.0</ele>
        <time>2022-06-27T15:13:50Z</time>
      </trkpt>
      <trkpt lat="42.3952890" lon="-4.1546760">
        <ele>820.0</ele>
        <time>2022-06-27T15:13:51Z</time>
      </trkpt>
      <trkpt lat="42.3953430" lon="-4.1547810">
        <ele>820.0</ele>
        <time>2022-06-27T15:13:52Z</time>
      </trkpt>
      <trkpt lat="42.3953980" lon="-4.1548860">
        <ele>820.0</ele>
        <time>2022-06-27T15:13:53Z</time>
      </trkpt>
      <trkpt lat="42.3954420" lon="-4.1549710">
        <ele>820.0</ele>
        <time>2022-06-27T15:13:54Z</time>
      </trkpt>
      <trkpt lat="42.3954960" lon="-4.1550770">
        <ele>820.0</ele>
        <time>2022-06-27T15:13:55Z</time>
      </trkpt>
      <trkpt lat="42.3955600" lon="-4.1552020">
        <ele>819.8</ele>
        <time>2022-06-27T15:13:56Z</time>
      </trkpt>
      <trkpt lat="42.3956140" lon="-4.1553040">
        <ele>819.6</ele>
        <time>2022-06-27T15:13:57Z</time>
      </trkpt>
      <trkpt lat="42.3956560" lon="-4.1553840">
        <ele>819.4</ele>
        <time>2022-06-27T15:13:58Z</time>
      </trkpt>
      <trkpt lat="42.3957090" lon="-4.1554860">
        <ele>819.4</ele>
        <time>2022-06-27T15:13:59Z</time>
      </trkpt>
      <trkpt lat="42.3957720" lon="-4.1556080">
        <ele>819.2</ele>
        <time>2022-06-27T15:14:00Z</time>
      </trkpt>
      <trkpt lat="42.3958250" lon="-4.1557100">
        <ele>819.2</ele>
        <time>2022-06-27T15:14:01Z</time>
      </trkpt>
      <trkpt lat="42.3958780" lon="-4.1558130">
        <ele>819.2</ele>
        <time>2022-06-27T15:14:02Z</time>
      </trkpt>
      <trkpt lat="42.3959180" lon="-4.1558950">
        <ele>819.0</ele>
        <time>2022-06-27T15:14:03Z</time>
      </trkpt>
      <trkpt lat="42.3959710" lon="-4.1559990">
        <ele>819.0</ele>
        <time>2022-06-27T15:14:04Z</time>
      </trkpt>
      <trkpt lat="42.3960340" lon="-4.1561260">
        <ele>818.8</ele>
        <time>2022-06-27T15:14:05Z</time>
      </trkpt>
      <trkpt lat="42.3960870" lon="-4.1562320">
        <ele>818.8</ele>
        <time>2022-06-27T15:14:06Z</time>
      </trkpt>
      <trkpt lat="42.3961420" lon="-4.1563380">
        <ele>818.8</ele>
        <time>2022-06-27T15:14:07Z</time>
      </trkpt>
      <trkpt lat="42.3961860" lon="-4.1564220">
        <ele>818.6</ele>
        <time>2022-06-27T15:14:08Z</time>
      </trkpt>
      <trkpt lat="42.3962510" lon="-4.1565480">
        <ele>818.4</ele>
        <time>2022-06-27T15:14:09Z</time>
      </trkpt>
      <trkpt lat="42.3963060" lon="-4.1566520">
        <ele>818.2</ele>
        <time>2022-06-27T15:14:10Z</time>
      </trkpt>
      <trkpt lat="42.3963610" lon="-4.1567550">
        <ele>818.0</ele>
        <time>2022-06-27T15:14:11Z</time>
      </trkpt>
      <trkpt lat="42.3964040" lon="-4.1568380">
        <ele>818.0</ele>
        <time>2022-06-27T15:14:12Z</time>
      </trkpt>
      <trkpt lat="42.3964580" lon="-4.1569430">
        <ele>817.6</ele>
        <time>2022-06-27T15:14:13Z</time>
      </trkpt>
      <trkpt lat="42.3965120" lon="-4.1570450">
        <ele>817.6</ele>
        <time>2022-06-27T15:14:14Z</time>
      </trkpt>
      <trkpt lat="42.3965760" lon="-4.1571700">
        <ele>817.4</ele>
        <time>2022-06-27T15:14:15Z</time>
      </trkpt>
      <trkpt lat="42.3966280" lon="-4.1572760">
        <ele>817.2</ele>
        <time>2022-06-27T15:14:16Z</time>
      </trkpt>
      <trkpt lat="42.3966700" lon="-4.1573590">
        <ele>816.8</ele>
        <time>2022-06-27T15:14:17Z</time>
      </trkpt>
      <trkpt lat="42.3967340" lon="-4.1574820">
        <ele>816.4</ele>
        <time>2022-06-27T15:14:18Z</time>
      </trkpt>
      <trkpt lat="42.3967870" lon="-4.1575830">
        <ele>816.4</ele>
        <time>2022-06-27T15:14:19Z</time>
      </trkpt>
      <trkpt lat="42.3968410" lon="-4.1576850">
        <ele>816.4</ele>
        <time>2022-06-27T15:14:20Z</time>
      </trkpt>
      <trkpt lat="42.3968830" lon="-4.1577650">
        <ele>816.2</ele>
        <time>2022-06-27T15:14:21Z</time>
      </trkpt>
      <trkpt lat="42.3969350" lon="-4.1578670">
        <ele>816.2</ele>
        <time>2022-06-27T15:14:22Z</time>
      </trkpt>
      <trkpt lat="42.3969960" lon="-4.1579910">
        <ele>816.2</ele>
        <time>2022-06-27T15:14:23Z</time>
      </trkpt>
      <trkpt lat="42.3970470" lon="-4.1580940">
        <ele>816.0</ele>
        <time>2022-06-27T15:14:24Z</time>
      </trkpt>
      <trkpt lat="42.3971000" lon="-4.1581950">
        <ele>816.0</ele>
        <time>2022-06-27T15:14:25Z</time>
      </trkpt>
      <trkpt lat="42.3971430" lon="-4.1582760">
        <ele>816.0</ele>
        <time>2022-06-27T15:14:26Z</time>
      </trkpt>
      <trkpt lat="42.3971960" lon="-4.1583770">
        <ele>816.0</ele>
        <time>2022-06-27T15:14:27Z</time>
      </trkpt>
      <trkpt lat="42.3972570" lon="-4.1584970">
        <ele>816.0</ele>
        <time>2022-06-27T15:14:28Z</time>
      </trkpt>
      <trkpt lat="42.3973090" lon="-4.1585970">
        <ele>816.0</ele>
        <time>2022-06-27T15:14:29Z</time>
      </trkpt>
      <trkpt lat="42.3973470" lon="-4.1586770">
        <ele>815.8</ele>
        <time>2022-06-27T15:14:30Z</time>
      </trkpt>
      <trkpt lat="42.3973980" lon="-4.1587760">
        <ele>815.8</ele>
        <time>2022-06-27T15:14:31Z</time>
      </trkpt>
      <trkpt lat="42.3974600" lon="-4.1588920">
        <ele>815.8</ele>
        <time>2022-06-27T15:14:32Z</time>
      </trkpt>
      <trkpt lat="42.3975110" lon="-4.1589900">
        <ele>816.0</ele>
        <time>2022-06-27T15:14:33Z</time>
      </trkpt>
      <trkpt lat="42.3975620" lon="-4.1590890">
        <ele>816.0</ele>
        <time>2022-06-27T15:14:34Z</time>
      </trkpt>
      <trkpt lat="42.3976030" lon="-4.1591670">
        <ele>816.0</ele>
        <time>2022-06-27T15:14:35Z</time>
      </trkpt>
      <trkpt lat="42.3976540" lon="-4.1592640">
        <ele>816.0</ele>
        <time>2022-06-27T15:14:36Z</time>
      </trkpt>
      <trkpt lat="42.3977130" lon="-4.1593810">
        <ele>816.2</ele>
        <time>2022-06-27T15:14:37Z</time>
      </trkpt>
      <trkpt lat="42.3977640" lon="-4.1594770">
        <ele>816.2</ele>
        <time>2022-06-27T15:14:38Z</time>
      </trkpt>
      <trkpt lat="42.3978130" lon="-4.1595730">
        <ele>816.2</ele>
        <time>2022-06-27T15:14:39Z</time>
      </trkpt>
      <trkpt lat="42.3978530" lon="-4.1596480">
        <ele>816.2</ele>
        <time>2022-06-27T15:14:40Z</time>
      </trkpt>
      <trkpt lat="42.3979140" lon="-4.1597610">
        <ele>816.2</ele>
        <time>2022-06-27T15:14:41Z</time>
      </trkpt>
      <trkpt lat="42.3979520" lon="-4.1598350">
        <ele>816.2</ele>
        <time>2022-06-27T15:14:42Z</time>
      </trkpt>
      <trkpt lat="42.3980110" lon="-4.1599460">
        <ele>816.2</ele>
        <time>2022-06-27T15:14:43Z</time>
      </trkpt>
      <trkpt lat="42.3980500" lon="-4.1600220">
        <ele>816.2</ele>
        <time>2022-06-27T15:14:44Z</time>
      </trkpt>
      <trkpt lat="42.3980980" lon="-4.1601170">
        <ele>816.0</ele>
        <time>2022-06-27T15:14:45Z</time>
      </trkpt>
      <trkpt lat="42.3981550" lon="-4.1602290">
        <ele>816.0</ele>
        <time>2022-06-27T15:14:46Z</time>
      </trkpt>
      <trkpt lat="42.3982050" lon="-4.1603210">
        <ele>816.0</ele>
        <time>2022-06-27T15:14:47Z</time>
      </trkpt>
      <trkpt lat="42.3982540" lon="-4.1604140">
        <ele>816.0</ele>
        <time>2022-06-27T15:14:48Z</time>
      </trkpt>
      <trkpt lat="42.3983040" lon="-4.1605060">
        <ele>816.0</ele>
        <time>2022-06-27T15:14:49Z</time>
      </trkpt>
      <trkpt lat="42.3983420" lon="-4.1605800">
        <ele>816.0</ele>
        <time>2022-06-27T15:14:50Z</time>
      </trkpt>
      <trkpt lat="42.3983920" lon="-4.1606730">
        <ele>815.8</ele>
        <time>2022-06-27T15:14:51Z</time>
      </trkpt>
      <trkpt lat="42.3984390" lon="-4.1607680">
        <ele>815.6</ele>
        <time>2022-06-27T15:14:52Z</time>
      </trkpt>
      <trkpt lat="42.3984880" lon="-4.1608620">
        <ele>815.6</ele>
        <time>2022-06-27T15:14:53Z</time>
      </trkpt>
      <trkpt lat="42.3985350" lon="-4.1609570">
        <ele>815.6</ele>
        <time>2022-06-27T15:14:54Z</time>
      </trkpt>
      <trkpt lat="42.3985830" lon="-4.1610520">
        <ele>815.4</ele>
        <time>2022-06-27T15:14:55Z</time>
      </trkpt>
      <trkpt lat="42.3986330" lon="-4.1611470">
        <ele>815.4</ele>
        <time>2022-06-27T15:14:56Z</time>
      </trkpt>
      <trkpt lat="42.3986840" lon="-4.1612420">
        <ele>815.4</ele>
        <time>2022-06-27T15:14:57Z</time>
      </trkpt>
      <trkpt lat="42.3987360" lon="-4.1613380">
        <ele>815.2</ele>
        <time>2022-06-27T15:14:58Z</time>
      </trkpt>
      <trkpt lat="42.3987860" lon="-4.1614360">
        <ele>815.2</ele>
        <time>2022-06-27T15:14:59Z</time>
      </trkpt>
      <trkpt lat="42.3988360" lon="-4.1615350">
        <ele>815.2</ele>
        <time>2022-06-27T15:15:00Z</time>
      </trkpt>
      <trkpt lat="42.3988870" lon="-4.1616330">
        <ele>815.0</ele>
        <time>2022-06-27T15:15:01Z</time>
      </trkpt>
      <trkpt lat="42.3989370" lon="-4.1617320">
        <ele>814.8</ele>
        <time>2022-06-27T15:15:02Z</time>
      </trkpt>
      <trkpt lat="42.3989890" lon="-4.1618300">
        <ele>814.8</ele>
        <time>2022-06-27T15:15:03Z</time>
      </trkpt>
      <trkpt lat="42.3990410" lon="-4.1619290">
        <ele>814.6</ele>
        <time>2022-06-27T15:15:04Z</time>
      </trkpt>
      <trkpt lat="42.3990920" lon="-4.1620300">
        <ele>814.6</ele>
        <time>2022-06-27T15:15:05Z</time>
      </trkpt>
      <trkpt lat="42.3991440" lon="-4.1621300">
        <ele>814.4</ele>
        <time>2022-06-27T15:15:06Z</time>
      </trkpt>
      <trkpt lat="42.3991970" lon="-4.1622320">
        <ele>814.4</ele>
        <time>2022-06-27T15:15:07Z</time>
      </trkpt>
      <trkpt lat="42.3992610" lon="-4.1623520">
        <ele>814.4</ele>
        <time>2022-06-27T15:15:08Z</time>
      </trkpt>
      <trkpt lat="42.3993040" lon="-4.1624350">
        <ele>814.4</ele>
        <time>2022-06-27T15:15:09Z</time>
      </trkpt>
      <trkpt lat="42.3993590" lon="-4.1625350">
        <ele>814.4</ele>
        <time>2022-06-27T15:15:10Z</time>
      </trkpt>
      <trkpt lat="42.3994140" lon="-4.1626380">
        <ele>814.4</ele>
        <time>2022-06-27T15:15:11Z</time>
      </trkpt>
      <trkpt lat="42.3994640" lon="-4.1627430">
        <ele>814.4</ele>
        <time>2022-06-27T15:15:12Z</time>
      </trkpt>
      <trkpt lat="42.3995180" lon="-4.1628510">
        <ele>814.4</ele>
        <time>2022-06-27T15:15:13Z</time>
      </trkpt>
      <trkpt lat="42.3995750" lon="-4.1629590">
        <ele>814.4</ele>
        <time>2022-06-27T15:15:14Z</time>
      </trkpt>
      <trkpt lat="42.3996310" lon="-4.1630690">
        <ele>814.4</ele>
        <time>2022-06-27T15:15:15Z</time>
      </trkpt>
      <trkpt lat="42.3996880" lon="-4.1631780">
        <ele>814.4</ele>
        <time>2022-06-27T15:15:16Z</time>
      </trkpt>
      <trkpt lat="42.3997450" lon="-4.1632880">
        <ele>814.4</ele>
        <time>2022-06-27T15:15:17Z</time>
      </trkpt>
      <trkpt lat="42.3998030" lon="-4.1633990">
        <ele>814.4</ele>
        <time>2022-06-27T15:15:18Z</time>
      </trkpt>
      <trkpt lat="42.3998610" lon="-4.1635110">
        <ele>814.4</ele>
        <time>2022-06-27T15:15:19Z</time>
      </trkpt>
      <trkpt lat="42.3999200" lon="-4.1636250">
        <ele>814.4</ele>
        <time>2022-06-27T15:15:20Z</time>
      </trkpt>
      <trkpt lat="42.3999780" lon="-4.1637390">
        <ele>814.2</ele>
        <time>2022-06-27T15:15:21Z</time>
      </trkpt>
      <trkpt lat="42.4000370" lon="-4.1638530">
        <ele>814.2</ele>
        <time>2022-06-27T15:15:22Z</time>
      </trkpt>
      <trkpt lat="42.4000950" lon="-4.1639660">
        <ele>814.0</ele>
        <time>2022-06-27T15:15:23Z</time>
      </trkpt>
      <trkpt lat="42.4001530" lon="-4.1640790">
        <ele>813.8</ele>
        <time>2022-06-27T15:15:24Z</time>
      </trkpt>
      <trkpt lat="42.4002130" lon="-4.1641950">
        <ele>813.6</ele>
        <time>2022-06-27T15:15:25Z</time>
      </trkpt>
      <trkpt lat="42.4002730" lon="-4.1643100">
        <ele>813.6</ele>
        <time>2022-06-27T15:15:26Z</time>
      </trkpt>
      <trkpt lat="42.4003330" lon="-4.1644270">
        <ele>813.4</ele>
        <time>2022-06-27T15:15:27Z</time>
      </trkpt>
      <trkpt lat="42.4003920" lon="-4.1645420">
        <ele>813.2</ele>
        <time>2022-06-27T15:15:28Z</time>
      </trkpt>
      <trkpt lat="42.4004530" lon="-4.1646550">
        <ele>813.2</ele>
        <time>2022-06-27T15:15:29Z</time>
      </trkpt>
      <trkpt lat="42.4005130" lon="-4.1647710">
        <ele>812.6</ele>
        <time>2022-06-27T15:15:30Z</time>
      </trkpt>
      <trkpt lat="42.4005730" lon="-4.1648880">
        <ele>812.4</ele>
        <time>2022-06-27T15:15:31Z</time>
      </trkpt>
      <trkpt lat="42.4006330" lon="-4.1650050">
        <ele>812.2</ele>
        <time>2022-06-27T15:15:32Z</time>
      </trkpt>
      <trkpt lat="42.4006930" lon="-4.1651240">
        <ele>812.2</ele>
        <time>2022-06-27T15:15:33Z</time>
      </trkpt>
      <trkpt lat="42.4007530" lon="-4.1652420">
        <ele>812.0</ele>
        <time>2022-06-27T15:15:34Z</time>
      </trkpt>
      <trkpt lat="42.4008260" lon="-4.1653830">
        <ele>811.6</ele>
        <time>2022-06-27T15:15:35Z</time>
      </trkpt>
      <trkpt lat="42.4008740" lon="-4.1654770">
        <ele>811.4</ele>
        <time>2022-06-27T15:15:36Z</time>
      </trkpt>
      <trkpt lat="42.4009340" lon="-4.1655910">
        <ele>811.2</ele>
        <time>2022-06-27T15:15:37Z</time>
      </trkpt>
      <trkpt lat="42.4010060" lon="-4.1657270">
        <ele>811.2</ele>
        <time>2022-06-27T15:15:38Z</time>
      </trkpt>
      <trkpt lat="42.4010630" lon="-4.1658470">
        <ele>811.0</ele>
        <time>2022-06-27T15:15:39Z</time>
      </trkpt>
      <trkpt lat="42.4011210" lon="-4.1659660">
        <ele>810.8</ele>
        <time>2022-06-27T15:15:40Z</time>
      </trkpt>
      <trkpt lat="42.4011680" lon="-4.1660530">
        <ele>810.6</ele>
        <time>2022-06-27T15:15:41Z</time>
      </trkpt>
      <trkpt lat="42.4012210" lon="-4.1661560">
        <ele>810.4</ele>
        <time>2022-06-27T15:15:42Z</time>
      </trkpt>
      <trkpt lat="42.4012760" lon="-4.1662600">
        <ele>810.2</ele>
        <time>2022-06-27T15:15:43Z</time>
      </trkpt>
      <trkpt lat="42.4013380" lon="-4.1663670">
        <ele>810.0</ele>
        <time>2022-06-27T15:15:44Z</time>
      </trkpt>
      <trkpt lat="42.4014150" lon="-4.1664870">
        <ele>810.0</ele>
        <time>2022-06-27T15:15:45Z</time>
      </trkpt>
      <trkpt lat="42.4014610" lon="-4.1665700">
        <ele>809.8</ele>
        <time>2022-06-27T15:15:46Z</time>
      </trkpt>
      <trkpt lat="42.4015140" lon="-4.1666770">
        <ele>809.8</ele>
        <time>2022-06-27T15:15:47Z</time>
      </trkpt>
      <trkpt lat="42.4015680" lon="-4.1667850">
        <ele>809.6</ele>
        <time>2022-06-27T15:15:48Z</time>
      </trkpt>
      <trkpt lat="42.4016250" lon="-4.1668930">
        <ele>809.6</ele>
        <time>2022-06-27T15:15:49Z</time>
      </trkpt>
      <trkpt lat="42.4016820" lon="-4.1670010">
        <ele>809.4</ele>
        <time>2022-06-27T15:15:50Z</time>
      </trkpt>
      <trkpt lat="42.4017380" lon="-4.1671090">
        <ele>809.4</ele>
        <time>2022-06-27T15:15:51Z</time>
      </trkpt>
      <trkpt lat="42.4017950" lon="-4.1672180">
        <ele>809.4</ele>
        <time>2022-06-27T15:15:52Z</time>
      </trkpt>
      <trkpt lat="42.4018520" lon="-4.1673260">
        <ele>809.0</ele>
        <time>2022-06-27T15:15:53Z</time>
      </trkpt>
      <trkpt lat="42.4019070" lon="-4.1674350">
        <ele>809.0</ele>
        <time>2022-06-27T15:15:54Z</time>
      </trkpt>
      <trkpt lat="42.4019630" lon="-4.1675430">
        <ele>808.6</ele>
        <time>2022-06-27T15:15:55Z</time>
      </trkpt>
      <trkpt lat="42.4020180" lon="-4.1676520">
        <ele>808.4</ele>
        <time>2022-06-27T15:15:56Z</time>
      </trkpt>
      <trkpt lat="42.4020720" lon="-4.1677590">
        <ele>808.8</ele>
        <time>2022-06-27T15:15:57Z</time>
      </trkpt>
      <trkpt lat="42.4021280" lon="-4.1678660">
        <ele>808.8</ele>
        <time>2022-06-27T15:15:58Z</time>
      </trkpt>
      <trkpt lat="42.4021830" lon="-4.1679720">
        <ele>808.8</ele>
        <time>2022-06-27T15:15:59Z</time>
      </trkpt>
      <trkpt lat="42.4022370" lon="-4.1680800">
        <ele>808.8</ele>
        <time>2022-06-27T15:16:00Z</time>
      </trkpt>
      <trkpt lat="42.4022910" lon="-4.1681880">
        <ele>808.8</ele>
        <time>2022-06-27T15:16:01Z</time>
      </trkpt>
      <trkpt lat="42.4023460" lon="-4.1682940">
        <ele>808.8</ele>
        <time>2022-06-27T15:16:02Z</time>
      </trkpt>
      <trkpt lat="42.4024010" lon="-4.1684000">
        <ele>808.8</ele>
        <time>2022-06-27T15:16:03Z</time>
      </trkpt>
      <trkpt lat="42.4024540" lon="-4.1685040">
        <ele>808.8</ele>
        <time>2022-06-27T15:16:04Z</time>
      </trkpt>
      <trkpt lat="42.4025070" lon="-4.1686090">
        <ele>809.0</ele>
        <time>2022-06-27T15:16:05Z</time>
      </trkpt>
      <trkpt lat="42.4025630" lon="-4.1687130">
        <ele>809.0</ele>
        <time>2022-06-27T15:16:06Z</time>
      </trkpt>
      <trkpt lat="42.4026180" lon="-4.1688170">
        <ele>809.2</ele>
        <time>2022-06-27T15:16:07Z</time>
      </trkpt>
      <trkpt lat="42.4026690" lon="-4.1689220">
        <ele>809.2</ele>
        <time>2022-06-27T15:16:08Z</time>
      </trkpt>
      <trkpt lat="42.4027230" lon="-4.1690250">
        <ele>809.2</ele>
        <time>2022-06-27T15:16:09Z</time>
      </trkpt>
      <trkpt lat="42.4027760" lon="-4.1691270">
        <ele>809.2</ele>
        <time>2022-06-27T15:16:10Z</time>
      </trkpt>
      <trkpt lat="42.4028300" lon="-4.1692310">
        <ele>809.2</ele>
        <time>2022-06-27T15:16:11Z</time>
      </trkpt>
      <trkpt lat="42.4028840" lon="-4.1693330">
        <ele>809.2</ele>
        <time>2022-06-27T15:16:12Z</time>
      </trkpt>
      <trkpt lat="42.4029370" lon="-4.1694350">
        <ele>809.0</ele>
        <time>2022-06-27T15:16:13Z</time>
      </trkpt>
      <trkpt lat="42.4029890" lon="-4.1695380">
        <ele>809.2</ele>
        <time>2022-06-27T15:16:14Z</time>
      </trkpt>
      <trkpt lat="42.4030430" lon="-4.1696390">
        <ele>809.0</ele>
        <time>2022-06-27T15:16:15Z</time>
      </trkpt>
      <trkpt lat="42.4030960" lon="-4.1697400">
        <ele>809.0</ele>
        <time>2022-06-27T15:16:16Z</time>
      </trkpt>
      <trkpt lat="42.4031500" lon="-4.1698410">
        <ele>809.0</ele>
        <time>2022-06-27T15:16:17Z</time>
      </trkpt>
      <trkpt lat="42.4032030" lon="-4.1699420">
        <ele>809.0</ele>
        <time>2022-06-27T15:16:18Z</time>
      </trkpt>
      <trkpt lat="42.4032560" lon="-4.1700440">
        <ele>809.0</ele>
        <time>2022-06-27T15:16:19Z</time>
      </trkpt>
      <trkpt lat="42.4033080" lon="-4.1701450">
        <ele>809.0</ele>
        <time>2022-06-27T15:16:20Z</time>
      </trkpt>
      <trkpt lat="42.4033600" lon="-4.1702450">
        <ele>809.0</ele>
        <time>2022-06-27T15:16:21Z</time>
      </trkpt>
      <trkpt lat="42.4034140" lon="-4.1703430">
        <ele>809.0</ele>
        <time>2022-06-27T15:16:22Z</time>
      </trkpt>
      <trkpt lat="42.4034660" lon="-4.1704430">
        <ele>809.0</ele>
        <time>2022-06-27T15:16:23Z</time>
      </trkpt>
      <trkpt lat="42.4035190" lon="-4.1705420">
        <ele>809.0</ele>
        <time>2022-06-27T15:16:24Z</time>
      </trkpt>
      <trkpt lat="42.4035700" lon="-4.1706430">
        <ele>809.0</ele>
        <time>2022-06-27T15:16:25Z</time>
      </trkpt>
      <trkpt lat="42.4036310" lon="-4.1707650">
        <ele>809.0</ele>
        <time>2022-06-27T15:16:26Z</time>
      </trkpt>
      <trkpt lat="42.4036730" lon="-4.1708460">
        <ele>809.0</ele>
        <time>2022-06-27T15:16:27Z</time>
      </trkpt>
      <trkpt lat="42.4037350" lon="-4.1709680">
        <ele>809.0</ele>
        <time>2022-06-27T15:16:28Z</time>
      </trkpt>
      <trkpt lat="42.4037760" lon="-4.1710500">
        <ele>809.0</ele>
        <time>2022-06-27T15:16:29Z</time>
      </trkpt>
      <trkpt lat="42.4038300" lon="-4.1711500">
        <ele>809.0</ele>
        <time>2022-06-27T15:16:30Z</time>
      </trkpt>
      <trkpt lat="42.4038820" lon="-4.1712500">
        <ele>809.0</ele>
        <time>2022-06-27T15:16:31Z</time>
      </trkpt>
      <trkpt lat="42.4039440" lon="-4.1713700">
        <ele>809.0</ele>
        <time>2022-06-27T15:16:32Z</time>
      </trkpt>
      <trkpt lat="42.4039850" lon="-4.1714490">
        <ele>809.2</ele>
        <time>2022-06-27T15:16:33Z</time>
      </trkpt>
      <trkpt lat="42.4040370" lon="-4.1715500">
        <ele>809.2</ele>
        <time>2022-06-27T15:16:34Z</time>
      </trkpt>
      <trkpt lat="42.4040980" lon="-4.1716690">
        <ele>809.2</ele>
        <time>2022-06-27T15:16:35Z</time>
      </trkpt>
      <trkpt lat="42.4041380" lon="-4.1717490">
        <ele>809.2</ele>
        <time>2022-06-27T15:16:36Z</time>
      </trkpt>
      <trkpt lat="42.4041990" lon="-4.1718690">
        <ele>809.4</ele>
        <time>2022-06-27T15:16:37Z</time>
      </trkpt>
      <trkpt lat="42.4042420" lon="-4.1719490">
        <ele>809.4</ele>
        <time>2022-06-27T15:16:38Z</time>
      </trkpt>
      <trkpt lat="42.4042940" lon="-4.1720500">
        <ele>809.4</ele>
        <time>2022-06-27T15:16:39Z</time>
      </trkpt>
      <trkpt lat="42.4043440" lon="-4.1721500">
        <ele>809.4</ele>
        <time>2022-06-27T15:16:40Z</time>
      </trkpt>
      <trkpt lat="42.4043950" lon="-4.1722500">
        <ele>809.6</ele>
        <time>2022-06-27T15:16:41Z</time>
      </trkpt>
      <trkpt lat="42.4044590" lon="-4.1723690">
        <ele>809.6</ele>
        <time>2022-06-27T15:16:42Z</time>
      </trkpt>
      <trkpt lat="42.4045000" lon="-4.1724500">
        <ele>809.6</ele>
        <time>2022-06-27T15:16:43Z</time>
      </trkpt>
      <trkpt lat="42.4045520" lon="-4.1725510">
        <ele>809.4</ele>
        <time>2022-06-27T15:16:44Z</time>
      </trkpt>
      <trkpt lat="42.4046150" lon="-4.1726720">
        <ele>809.4</ele>
        <time>2022-06-27T15:16:45Z</time>
      </trkpt>
      <trkpt lat="42.4046570" lon="-4.1727520">
        <ele>809.4</ele>
        <time>2022-06-27T15:16:46Z</time>
      </trkpt>
      <trkpt lat="42.4047080" lon="-4.1728520">
        <ele>809.4</ele>
        <time>2022-06-27T15:16:47Z</time>
      </trkpt>
      <trkpt lat="42.4047610" lon="-4.1729520">
        <ele>809.4</ele>
        <time>2022-06-27T15:16:48Z</time>
      </trkpt>
      <trkpt lat="42.4048130" lon="-4.1730530">
        <ele>809.4</ele>
        <time>2022-06-27T15:16:49Z</time>
      </trkpt>
      <trkpt lat="42.4048660" lon="-4.1731530">
        <ele>809.4</ele>
        <time>2022-06-27T15:16:50Z</time>
      </trkpt>
      <trkpt lat="42.4049300" lon="-4.1732750">
        <ele>809.4</ele>
        <time>2022-06-27T15:16:51Z</time>
      </trkpt>
      <trkpt lat="42.4049730" lon="-4.1733590">
        <ele>809.4</ele>
        <time>2022-06-27T15:16:52Z</time>
      </trkpt>
      <trkpt lat="42.4050270" lon="-4.1734620">
        <ele>809.4</ele>
        <time>2022-06-27T15:16:53Z</time>
      </trkpt>
      <trkpt lat="42.4050910" lon="-4.1735860">
        <ele>809.4</ele>
        <time>2022-06-27T15:16:54Z</time>
      </trkpt>
      <trkpt lat="42.4051350" lon="-4.1736700">
        <ele>809.4</ele>
        <time>2022-06-27T15:16:55Z</time>
      </trkpt>
      <trkpt lat="42.4051890" lon="-4.1737730">
        <ele>809.4</ele>
        <time>2022-06-27T15:16:56Z</time>
      </trkpt>
      <trkpt lat="42.4052430" lon="-4.1738750">
        <ele>809.6</ele>
        <time>2022-06-27T15:16:57Z</time>
      </trkpt>
      <trkpt lat="42.4052970" lon="-4.1739780">
        <ele>809.8</ele>
        <time>2022-06-27T15:16:58Z</time>
      </trkpt>
      <trkpt lat="42.4053520" lon="-4.1740800">
        <ele>809.8</ele>
        <time>2022-06-27T15:16:59Z</time>
      </trkpt>
      <trkpt lat="42.4054170" lon="-4.1742050">
        <ele>809.8</ele>
        <time>2022-06-27T15:17:00Z</time>
      </trkpt>
      <trkpt lat="42.4054600" lon="-4.1742880">
        <ele>809.8</ele>
        <time>2022-06-27T15:17:01Z</time>
      </trkpt>
      <trkpt lat="42.4055120" lon="-4.1743930">
        <ele>810.0</ele>
        <time>2022-06-27T15:17:02Z</time>
      </trkpt>
      <trkpt lat="42.4055650" lon="-4.1744970">
        <ele>810.0</ele>
        <time>2022-06-27T15:17:03Z</time>
      </trkpt>
      <trkpt lat="42.4056280" lon="-4.1746230">
        <ele>810.0</ele>
        <time>2022-06-27T15:17:04Z</time>
      </trkpt>
      <trkpt lat="42.4056790" lon="-4.1747280">
        <ele>810.0</ele>
        <time>2022-06-27T15:17:05Z</time>
      </trkpt>
      <trkpt lat="42.4057190" lon="-4.1748120">
        <ele>810.0</ele>
        <time>2022-06-27T15:17:06Z</time>
      </trkpt>
      <trkpt lat="42.4057650" lon="-4.1749180">
        <ele>810.0</ele>
        <time>2022-06-27T15:17:07Z</time>
      </trkpt>
      <trkpt lat="42.4058090" lon="-4.1750250">
        <ele>810.0</ele>
        <time>2022-06-27T15:17:08Z</time>
      </trkpt>
      <trkpt lat="42.4058510" lon="-4.1751350">
        <ele>810.0</ele>
        <time>2022-06-27T15:17:09Z</time>
      </trkpt>
      <trkpt lat="42.4058940" lon="-4.1752470">
        <ele>810.0</ele>
        <time>2022-06-27T15:17:10Z</time>
      </trkpt>
      <trkpt lat="42.4059320" lon="-4.1753620">
        <ele>810.0</ele>
        <time>2022-06-27T15:17:11Z</time>
      </trkpt>
      <trkpt lat="42.4059690" lon="-4.1754770">
        <ele>810.0</ele>
        <time>2022-06-27T15:17:12Z</time>
      </trkpt>
      <trkpt lat="42.4060030" lon="-4.1755940">
        <ele>810.0</ele>
        <time>2022-06-27T15:17:13Z</time>
      </trkpt>
      <trkpt lat="42.4060390" lon="-4.1757380">
        <ele>810.2</ele>
        <time>2022-06-27T15:17:14Z</time>
      </trkpt>
      <trkpt lat="42.4060650" lon="-4.1758600">
        <ele>810.2</ele>
        <time>2022-06-27T15:17:15Z</time>
      </trkpt>
      <trkpt lat="42.4060840" lon="-4.1759580">
        <ele>810.2</ele>
        <time>2022-06-27T15:17:16Z</time>
      </trkpt>
      <trkpt lat="42.4061040" lon="-4.1760820">
        <ele>810.2</ele>
        <time>2022-06-27T15:17:17Z</time>
      </trkpt>
      <trkpt lat="42.4061210" lon="-4.1762060">
        <ele>810.2</ele>
        <time>2022-06-27T15:17:18Z</time>
      </trkpt>
      <trkpt lat="42.4061350" lon="-4.1763300">
        <ele>810.0</ele>
        <time>2022-06-27T15:17:19Z</time>
      </trkpt>
      <trkpt lat="42.4061470" lon="-4.1764550">
        <ele>810.0</ele>
        <time>2022-06-27T15:17:20Z</time>
      </trkpt>
      <trkpt lat="42.4061580" lon="-4.1765810">
        <ele>809.8</ele>
        <time>2022-06-27T15:17:21Z</time>
      </trkpt>
      <trkpt lat="42.4061680" lon="-4.1767090">
        <ele>809.6</ele>
        <time>2022-06-27T15:17:22Z</time>
      </trkpt>
      <trkpt lat="42.4061750" lon="-4.1768650">
        <ele>809.4</ele>
        <time>2022-06-27T15:17:23Z</time>
      </trkpt>
      <trkpt lat="42.4061750" lon="-4.1769690">
        <ele>809.4</ele>
        <time>2022-06-27T15:17:24Z</time>
      </trkpt>
      <trkpt lat="42.4061710" lon="-4.1770970">
        <ele>809.2</ele>
        <time>2022-06-27T15:17:25Z</time>
      </trkpt>
      <trkpt lat="42.4061610" lon="-4.1772240">
        <ele>809.0</ele>
        <time>2022-06-27T15:17:26Z</time>
      </trkpt>
      <trkpt lat="42.4061490" lon="-4.1773530">
        <ele>809.0</ele>
        <time>2022-06-27T15:17:27Z</time>
      </trkpt>
      <trkpt lat="42.4061360" lon="-4.1774840">
        <ele>809.0</ele>
        <time>2022-06-27T15:17:28Z</time>
      </trkpt>
      <trkpt lat="42.4061160" lon="-4.1776440">
        <ele>809.0</ele>
        <time>2022-06-27T15:17:29Z</time>
      </trkpt>
      <trkpt lat="42.4061030" lon="-4.1777510">
        <ele>809.0</ele>
        <time>2022-06-27T15:17:30Z</time>
      </trkpt>
      <trkpt lat="42.4060860" lon="-4.1778840">
        <ele>808.8</ele>
        <time>2022-06-27T15:17:31Z</time>
      </trkpt>
      <trkpt lat="42.4060680" lon="-4.1780170">
        <ele>808.8</ele>
        <time>2022-06-27T15:17:32Z</time>
      </trkpt>
      <trkpt lat="42.4060500" lon="-4.1781500">
        <ele>809.0</ele>
        <time>2022-06-27T15:17:33Z</time>
      </trkpt>
      <trkpt lat="42.4060290" lon="-4.1783090">
        <ele>809.0</ele>
        <time>2022-06-27T15:17:34Z</time>
      </trkpt>
      <trkpt lat="42.4060130" lon="-4.1784160">
        <ele>809.0</ele>
        <time>2022-06-27T15:17:35Z</time>
      </trkpt>
      <trkpt lat="42.4059950" lon="-4.1785490">
        <ele>809.0</ele>
        <time>2022-06-27T15:17:36Z</time>
      </trkpt>
      <trkpt lat="42.4059770" lon="-4.1786820">
        <ele>809.0</ele>
        <time>2022-06-27T15:17:37Z</time>
      </trkpt>
      <trkpt lat="42.4059590" lon="-4.1788140">
        <ele>809.0</ele>
        <time>2022-06-27T15:17:38Z</time>
      </trkpt>
      <trkpt lat="42.4059400" lon="-4.1789480">
        <ele>809.0</ele>
        <time>2022-06-27T15:17:39Z</time>
      </trkpt>
      <trkpt lat="42.4059210" lon="-4.1790830">
        <ele>809.0</ele>
        <time>2022-06-27T15:17:40Z</time>
      </trkpt>
      <trkpt lat="42.4059040" lon="-4.1792180">
        <ele>809.0</ele>
        <time>2022-06-27T15:17:41Z</time>
      </trkpt>
      <trkpt lat="42.4058860" lon="-4.1793520">
        <ele>809.2</ele>
        <time>2022-06-27T15:17:42Z</time>
      </trkpt>
      <trkpt lat="42.4058620" lon="-4.1795110">
        <ele>809.2</ele>
        <time>2022-06-27T15:17:43Z</time>
      </trkpt>
      <trkpt lat="42.4058460" lon="-4.1796180">
        <ele>809.2</ele>
        <time>2022-06-27T15:17:44Z</time>
      </trkpt>
      <trkpt lat="42.4058270" lon="-4.1797500">
        <ele>809.2</ele>
        <time>2022-06-27T15:17:45Z</time>
      </trkpt>
      <trkpt lat="42.4058070" lon="-4.1799060">
        <ele>809.2</ele>
        <time>2022-06-27T15:17:46Z</time>
      </trkpt>
      <trkpt lat="42.4057940" lon="-4.1800100">
        <ele>809.2</ele>
        <time>2022-06-27T15:17:47Z</time>
      </trkpt>
      <trkpt lat="42.4057760" lon="-4.1801390">
        <ele>809.2</ele>
        <time>2022-06-27T15:17:48Z</time>
      </trkpt>
      <trkpt lat="42.4057590" lon="-4.1802680">
        <ele>809.4</ele>
        <time>2022-06-27T15:17:49Z</time>
      </trkpt>
      <trkpt lat="42.4057410" lon="-4.1803970">
        <ele>809.4</ele>
        <time>2022-06-27T15:17:50Z</time>
      </trkpt>
      <trkpt lat="42.4057220" lon="-4.1805260">
        <ele>809.4</ele>
        <time>2022-06-27T15:17:51Z</time>
      </trkpt>
      <trkpt lat="42.4057040" lon="-4.1806550">
        <ele>809.6</ele>
        <time>2022-06-27T15:17:52Z</time>
      </trkpt>
      <trkpt lat="42.4056870" lon="-4.1807840">
        <ele>809.6</ele>
        <time>2022-06-27T15:17:53Z</time>
      </trkpt>
      <trkpt lat="42.4056700" lon="-4.1809120">
        <ele>809.8</ele>
        <time>2022-06-27T15:17:54Z</time>
      </trkpt>
      <trkpt lat="42.4056540" lon="-4.1810400">
        <ele>809.8</ele>
        <time>2022-06-27T15:17:55Z</time>
      </trkpt>
      <trkpt lat="42.4056370" lon="-4.1811670">
        <ele>809.8</ele>
        <time>2022-06-27T15:17:56Z</time>
      </trkpt>
      <trkpt lat="42.4056190" lon="-4.1812960">
        <ele>809.8</ele>
        <time>2022-06-27T15:17:57Z</time>
      </trkpt>
      <trkpt lat="42.4056020" lon="-4.1814230">
        <ele>809.8</ele>
        <time>2022-06-27T15:17:58Z</time>
      </trkpt>
      <trkpt lat="42.4055850" lon="-4.1815510">
        <ele>809.8</ele>
        <time>2022-06-27T15:17:59Z</time>
      </trkpt>
      <trkpt lat="42.4055680" lon="-4.1816790">
        <ele>809.8</ele>
        <time>2022-06-27T15:18:00Z</time>
      </trkpt>
      <trkpt lat="42.4055520" lon="-4.1818080">
        <ele>809.8</ele>
        <time>2022-06-27T15:18:01Z</time>
      </trkpt>
      <trkpt lat="42.4055340" lon="-4.1819360">
        <ele>809.8</ele>
        <time>2022-06-27T15:18:02Z</time>
      </trkpt>
      <trkpt lat="42.4055170" lon="-4.1820630">
        <ele>810.0</ele>
        <time>2022-06-27T15:18:03Z</time>
      </trkpt>
      <trkpt lat="42.4055000" lon="-4.1821900">
        <ele>810.0</ele>
        <time>2022-06-27T15:18:04Z</time>
      </trkpt>
      <trkpt lat="42.4054830" lon="-4.1823170">
        <ele>810.0</ele>
        <time>2022-06-27T15:18:05Z</time>
      </trkpt>
      <trkpt lat="42.4054660" lon="-4.1824430">
        <ele>810.2</ele>
        <time>2022-06-27T15:18:06Z</time>
      </trkpt>
      <trkpt lat="42.4054490" lon="-4.1825680">
        <ele>810.2</ele>
        <time>2022-06-27T15:18:07Z</time>
      </trkpt>
      <trkpt lat="42.4054330" lon="-4.1826920">
        <ele>810.2</ele>
        <time>2022-06-27T15:18:08Z</time>
      </trkpt>
      <trkpt lat="42.4054170" lon="-4.1828170">
        <ele>810.2</ele>
        <time>2022-06-27T15:18:09Z</time>
      </trkpt>
      <trkpt lat="42.4054000" lon="-4.1829400">
        <ele>810.4</ele>
        <time>2022-06-27T15:18:10Z</time>
      </trkpt>
      <trkpt lat="42.4053830" lon="-4.1830640">
        <ele>810.4</ele>
        <time>2022-06-27T15:18:11Z</time>
      </trkpt>
      <trkpt lat="42.4053660" lon="-4.1831840">
        <ele>810.6</ele>
        <time>2022-06-27T15:18:12Z</time>
      </trkpt>
      <trkpt lat="42.4053480" lon="-4.1833070">
        <ele>810.8</ele>
        <time>2022-06-27T15:18:13Z</time>
      </trkpt>
      <trkpt lat="42.4053310" lon="-4.1834280">
        <ele>810.8</ele>
        <time>2022-06-27T15:18:14Z</time>
      </trkpt>
      <trkpt lat="42.4053140" lon="-4.1835500">
        <ele>811.2</ele>
        <time>2022-06-27T15:18:15Z</time>
      </trkpt>
      <trkpt lat="42.4052980" lon="-4.1836700">
        <ele>811.2</ele>
        <time>2022-06-27T15:18:16Z</time>
      </trkpt>
      <trkpt lat="42.4052820" lon="-4.1837890">
        <ele>811.2</ele>
        <time>2022-06-27T15:18:17Z</time>
      </trkpt>
      <trkpt lat="42.4052650" lon="-4.1839070">
        <ele>811.4</ele>
        <time>2022-06-27T15:18:18Z</time>
      </trkpt>
      <trkpt lat="42.4052470" lon="-4.1840260">
        <ele>811.6</ele>
        <time>2022-06-27T15:18:19Z</time>
      </trkpt>
      <trkpt lat="42.4052290" lon="-4.1841430">
        <ele>811.8</ele>
        <time>2022-06-27T15:18:20Z</time>
      </trkpt>
      <trkpt lat="42.4052130" lon="-4.1842600">
        <ele>812.0</ele>
        <time>2022-06-27T15:18:21Z</time>
      </trkpt>
      <trkpt lat="42.4051970" lon="-4.1843790">
        <ele>812.0</ele>
        <time>2022-06-27T15:18:22Z</time>
      </trkpt>
      <trkpt lat="42.4051820" lon="-4.1845000">
        <ele>812.0</ele>
        <time>2022-06-27T15:18:23Z</time>
      </trkpt>
      <trkpt lat="42.4051670" lon="-4.1846200">
        <ele>812.4</ele>
        <time>2022-06-27T15:18:24Z</time>
      </trkpt>
      <trkpt lat="42.4051500" lon="-4.1847370">
        <ele>812.4</ele>
        <time>2022-06-27T15:18:25Z</time>
      </trkpt>
      <trkpt lat="42.4051310" lon="-4.1848550">
        <ele>812.6</ele>
        <time>2022-06-27T15:18:26Z</time>
      </trkpt>
      <trkpt lat="42.4051120" lon="-4.1849710">
        <ele>812.6</ele>
        <time>2022-06-27T15:18:27Z</time>
      </trkpt>
      <trkpt lat="42.4050930" lon="-4.1850880">
        <ele>812.6</ele>
        <time>2022-06-27T15:18:28Z</time>
      </trkpt>
      <trkpt lat="42.4050750" lon="-4.1852040">
        <ele>812.8</ele>
        <time>2022-06-27T15:18:29Z</time>
      </trkpt>
      <trkpt lat="42.4050580" lon="-4.1853190">
        <ele>812.8</ele>
        <time>2022-06-27T15:18:30Z</time>
      </trkpt>
      <trkpt lat="42.4050420" lon="-4.1854340">
        <ele>813.0</ele>
        <time>2022-06-27T15:18:31Z</time>
      </trkpt>
      <trkpt lat="42.4050280" lon="-4.1855510">
        <ele>813.0</ele>
        <time>2022-06-27T15:18:32Z</time>
      </trkpt>
      <trkpt lat="42.4050150" lon="-4.1856680">
        <ele>813.0</ele>
        <time>2022-06-27T15:18:33Z</time>
      </trkpt>
      <trkpt lat="42.4050020" lon="-4.1857830">
        <ele>813.0</ele>
        <time>2022-06-27T15:18:34Z</time>
      </trkpt>
      <trkpt lat="42.4049890" lon="-4.1858990">
        <ele>813.0</ele>
        <time>2022-06-27T15:18:35Z</time>
      </trkpt>
      <trkpt lat="42.4049740" lon="-4.1860160">
        <ele>813.2</ele>
        <time>2022-06-27T15:18:36Z</time>
      </trkpt>
      <trkpt lat="42.4049570" lon="-4.1861310">
        <ele>813.2</ele>
        <time>2022-06-27T15:18:37Z</time>
      </trkpt>
      <trkpt lat="42.4049400" lon="-4.1862480">
        <ele>813.4</ele>
        <time>2022-06-27T15:18:38Z</time>
      </trkpt>
      <trkpt lat="42.4049250" lon="-4.1863670">
        <ele>813.4</ele>
        <time>2022-06-27T15:18:39Z</time>
      </trkpt>
      <trkpt lat="42.4049110" lon="-4.1864850">
        <ele>813.6</ele>
        <time>2022-06-27T15:18:40Z</time>
      </trkpt>
      <trkpt lat="42.4048970" lon="-4.1866020">
        <ele>813.8</ele>
        <time>2022-06-27T15:18:41Z</time>
      </trkpt>
      <trkpt lat="42.4048830" lon="-4.1867210">
        <ele>813.8</ele>
        <time>2022-06-27T15:18:42Z</time>
      </trkpt>
      <trkpt lat="42.4048680" lon="-4.1868390">
        <ele>814.0</ele>
        <time>2022-06-27T15:18:43Z</time>
      </trkpt>
      <trkpt lat="42.4048530" lon="-4.1869550">
        <ele>814.2</ele>
        <time>2022-06-27T15:18:44Z</time>
      </trkpt>
      <trkpt lat="42.4048350" lon="-4.1870740">
        <ele>814.4</ele>
        <time>2022-06-27T15:18:45Z</time>
      </trkpt>
      <trkpt lat="42.4048160" lon="-4.1871930">
        <ele>814.6</ele>
        <time>2022-06-27T15:18:46Z</time>
      </trkpt>
      <trkpt lat="42.4047970" lon="-4.1873140">
        <ele>814.8</ele>
        <time>2022-06-27T15:18:47Z</time>
      </trkpt>
      <trkpt lat="42.4047800" lon="-4.1874340">
        <ele>815.0</ele>
        <time>2022-06-27T15:18:48Z</time>
      </trkpt>
      <trkpt lat="42.4047620" lon="-4.1875550">
        <ele>815.0</ele>
        <time>2022-06-27T15:18:49Z</time>
      </trkpt>
      <trkpt lat="42.4047450" lon="-4.1876770">
        <ele>815.0</ele>
        <time>2022-06-27T15:18:50Z</time>
      </trkpt>
      <trkpt lat="42.4047270" lon="-4.1877990">
        <ele>815.2</ele>
        <time>2022-06-27T15:18:51Z</time>
      </trkpt>
      <trkpt lat="42.4047100" lon="-4.1879210">
        <ele>815.2</ele>
        <time>2022-06-27T15:18:52Z</time>
      </trkpt>
      <trkpt lat="42.4046950" lon="-4.1880400">
        <ele>815.4</ele>
        <time>2022-06-27T15:18:53Z</time>
      </trkpt>
      <trkpt lat="42.4046770" lon="-4.1881600">
        <ele>815.6</ele>
        <time>2022-06-27T15:18:54Z</time>
      </trkpt>
      <trkpt lat="42.4046610" lon="-4.1882770">
        <ele>815.8</ele>
        <time>2022-06-27T15:18:55Z</time>
      </trkpt>
      <trkpt lat="42.4046440" lon="-4.1883920">
        <ele>816.0</ele>
        <time>2022-06-27T15:18:56Z</time>
      </trkpt>
      <trkpt lat="42.4046290" lon="-4.1885070">
        <ele>816.0</ele>
        <time>2022-06-27T15:18:57Z</time>
      </trkpt>
      <trkpt lat="42.4046150" lon="-4.1886200">
        <ele>816.0</ele>
        <time>2022-06-27T15:18:58Z</time>
      </trkpt>
      <trkpt lat="42.4045990" lon="-4.1887340">
        <ele>816.0</ele>
        <time>2022-06-27T15:18:59Z</time>
      </trkpt>
      <trkpt lat="42.4045840" lon="-4.1888460">
        <ele>816.0</ele>
        <time>2022-06-27T15:19:00Z</time>
      </trkpt>
      <trkpt lat="42.4045690" lon="-4.1889570">
        <ele>816.2</ele>
        <time>2022-06-27T15:19:01Z</time>
      </trkpt>
      <trkpt lat="42.4045560" lon="-4.1890690">
        <ele>816.2</ele>
        <time>2022-06-27T15:19:02Z</time>
      </trkpt>
      <trkpt lat="42.4045410" lon="-4.1891830">
        <ele>816.4</ele>
        <time>2022-06-27T15:19:03Z</time>
      </trkpt>
      <trkpt lat="42.4045250" lon="-4.1892980">
        <ele>816.4</ele>
        <time>2022-06-27T15:19:04Z</time>
      </trkpt>
      <trkpt lat="42.4045080" lon="-4.1894130">
        <ele>816.4</ele>
        <time>2022-06-27T15:19:05Z</time>
      </trkpt>
      <trkpt lat="42.4044920" lon="-4.1895490">
        <ele>816.4</ele>
        <time>2022-06-27T15:19:06Z</time>
      </trkpt>
      <trkpt lat="42.4044790" lon="-4.1896620">
        <ele>816.4</ele>
        <time>2022-06-27T15:19:07Z</time>
      </trkpt>
      <trkpt lat="42.4044670" lon="-4.1897510">
        <ele>816.6</ele>
        <time>2022-06-27T15:19:08Z</time>
      </trkpt>
      <trkpt lat="42.4044520" lon="-4.1898610">
        <ele>816.6</ele>
        <time>2022-06-27T15:19:09Z</time>
      </trkpt>
      <trkpt lat="42.4044380" lon="-4.1899720">
        <ele>816.6</ele>
        <time>2022-06-27T15:19:10Z</time>
      </trkpt>
      <trkpt lat="42.4044220" lon="-4.1900840">
        <ele>816.6</ele>
        <time>2022-06-27T15:19:11Z</time>
      </trkpt>
      <trkpt lat="42.4044060" lon="-4.1901970">
        <ele>816.8</ele>
        <time>2022-06-27T15:19:12Z</time>
      </trkpt>
      <trkpt lat="42.4043870" lon="-4.1903320">
        <ele>816.8</ele>
        <time>2022-06-27T15:19:13Z</time>
      </trkpt>
      <trkpt lat="42.4043740" lon="-4.1904230">
        <ele>816.8</ele>
        <time>2022-06-27T15:19:14Z</time>
      </trkpt>
      <trkpt lat="42.4043550" lon="-4.1905610">
        <ele>816.8</ele>
        <time>2022-06-27T15:19:15Z</time>
      </trkpt>
      <trkpt lat="42.4043410" lon="-4.1906780">
        <ele>816.8</ele>
        <time>2022-06-27T15:19:16Z</time>
      </trkpt>
      <trkpt lat="42.4043300" lon="-4.1907710">
        <ele>816.8</ele>
        <time>2022-06-27T15:19:17Z</time>
      </trkpt>
      <trkpt lat="42.4043130" lon="-4.1908920">
        <ele>816.8</ele>
        <time>2022-06-27T15:19:18Z</time>
      </trkpt>
      <trkpt lat="42.4042960" lon="-4.1910150">
        <ele>816.8</ele>
        <time>2022-06-27T15:19:19Z</time>
      </trkpt>
      <trkpt lat="42.4042780" lon="-4.1911390">
        <ele>817.0</ele>
        <time>2022-06-27T15:19:20Z</time>
      </trkpt>
      <trkpt lat="42.4042570" lon="-4.1912890">
        <ele>817.0</ele>
        <time>2022-06-27T15:19:21Z</time>
      </trkpt>
      <trkpt lat="42.4042400" lon="-4.1914180">
        <ele>817.2</ele>
        <time>2022-06-27T15:19:22Z</time>
      </trkpt>
      <trkpt lat="42.4042250" lon="-4.1915230">
        <ele>817.2</ele>
        <time>2022-06-27T15:19:23Z</time>
      </trkpt>
      <trkpt lat="42.4042050" lon="-4.1916570">
        <ele>817.2</ele>
        <time>2022-06-27T15:19:24Z</time>
      </trkpt>
      <trkpt lat="42.4041840" lon="-4.1917930">
        <ele>817.0</ele>
        <time>2022-06-27T15:19:25Z</time>
      </trkpt>
      <trkpt lat="42.4041610" lon="-4.1919590">
        <ele>816.8</ele>
        <time>2022-06-27T15:19:26Z</time>
      </trkpt>
      <trkpt lat="42.4041460" lon="-4.1920700">
        <ele>816.8</ele>
        <time>2022-06-27T15:19:27Z</time>
      </trkpt>
      <trkpt lat="42.4041270" lon="-4.1922120">
        <ele>816.4</ele>
        <time>2022-06-27T15:19:28Z</time>
      </trkpt>
      <trkpt lat="42.4041030" lon="-4.1923860">
        <ele>816.2</ele>
        <time>2022-06-27T15:19:29Z</time>
      </trkpt>
      <trkpt lat="42.4040840" lon="-4.1925310">
        <ele>815.8</ele>
        <time>2022-06-27T15:19:30Z</time>
      </trkpt>
      <trkpt lat="42.4040660" lon="-4.1926520">
        <ele>815.8</ele>
        <time>2022-06-27T15:19:31Z</time>
      </trkpt>
      <trkpt lat="42.4040440" lon="-4.1928030">
        <ele>815.2</ele>
        <time>2022-06-27T15:19:32Z</time>
      </trkpt>
      <trkpt lat="42.4040210" lon="-4.1929580">
        <ele>815.0</ele>
        <time>2022-06-27T15:19:33Z</time>
      </trkpt>
      <trkpt lat="42.4039950" lon="-4.1931440">
        <ele>814.6</ele>
        <time>2022-06-27T15:19:34Z</time>
      </trkpt>
      <trkpt lat="42.4039710" lon="-4.1933010">
        <ele>814.6</ele>
        <time>2022-06-27T15:19:35Z</time>
      </trkpt>
      <trkpt lat="42.4039480" lon="-4.1934570">
        <ele>814.2</ele>
        <time>2022-06-27T15:19:36Z</time>
      </trkpt>
      <trkpt lat="42.4039310" lon="-4.1935850">
        <ele>813.8</ele>
        <time>2022-06-27T15:19:37Z</time>
      </trkpt>
      <trkpt lat="42.4039060" lon="-4.1937760">
        <ele>813.6</ele>
        <time>2022-06-27T15:19:38Z</time>
      </trkpt>
      <trkpt lat="42.4038830" lon="-4.1939360">
        <ele>813.0</ele>
        <time>2022-06-27T15:19:39Z</time>
      </trkpt>
      <trkpt lat="42.4038650" lon="-4.1940640">
        <ele>812.4</ele>
        <time>2022-06-27T15:19:40Z</time>
      </trkpt>
      <trkpt lat="42.4038430" lon="-4.1942230">
        <ele>811.8</ele>
        <time>2022-06-27T15:19:41Z</time>
      </trkpt>
      <trkpt lat="42.4038200" lon="-4.1943810">
        <ele>811.8</ele>
        <time>2022-06-27T15:19:42Z</time>
      </trkpt>
      <trkpt lat="42.4037980" lon="-4.1945380">
        <ele>811.4</ele>
        <time>2022-06-27T15:19:43Z</time>
      </trkpt>
      <trkpt lat="42.4037780" lon="-4.1946940">
        <ele>811.2</ele>
        <time>2022-06-27T15:19:44Z</time>
      </trkpt>
      <trkpt lat="42.4037530" lon="-4.1948770">
        <ele>811.0</ele>
        <time>2022-06-27T15:19:45Z</time>
      </trkpt>
      <trkpt lat="42.4037390" lon="-4.1949980">
        <ele>810.8</ele>
        <time>2022-06-27T15:19:46Z</time>
      </trkpt>
      <trkpt lat="42.4037180" lon="-4.1951530">
        <ele>810.6</ele>
        <time>2022-06-27T15:19:47Z</time>
      </trkpt>
      <trkpt lat="42.4036920" lon="-4.1953370">
        <ele>810.2</ele>
        <time>2022-06-27T15:19:48Z</time>
      </trkpt>
      <trkpt lat="42.4036710" lon="-4.1954900">
        <ele>810.0</ele>
        <time>2022-06-27T15:19:49Z</time>
      </trkpt>
      <trkpt lat="42.4036540" lon="-4.1956110">
        <ele>809.8</ele>
        <time>2022-06-27T15:19:50Z</time>
      </trkpt>
      <trkpt lat="42.4036310" lon="-4.1957620">
        <ele>809.4</ele>
        <time>2022-06-27T15:19:51Z</time>
      </trkpt>
      <trkpt lat="42.4036100" lon="-4.1959090">
        <ele>809.4</ele>
        <time>2022-06-27T15:19:52Z</time>
      </trkpt>
      <trkpt lat="42.4035850" lon="-4.1960880">
        <ele>809.2</ele>
        <time>2022-06-27T15:19:53Z</time>
      </trkpt>
      <trkpt lat="42.4035630" lon="-4.1962370">
        <ele>809.0</ele>
        <time>2022-06-27T15:19:54Z</time>
      </trkpt>
      <trkpt lat="42.4035470" lon="-4.1963530">
        <ele>809.0</ele>
        <time>2022-06-27T15:19:55Z</time>
      </trkpt>
      <trkpt lat="42.4035260" lon="-4.1965000">
        <ele>809.0</ele>
        <time>2022-06-27T15:19:56Z</time>
      </trkpt>
      <trkpt lat="42.4035020" lon="-4.1966750">
        <ele>809.0</ele>
        <time>2022-06-27T15:19:57Z</time>
      </trkpt>
      <trkpt lat="42.4034810" lon="-4.1968210">
        <ele>809.0</ele>
        <time>2022-06-27T15:19:58Z</time>
      </trkpt>
      <trkpt lat="42.4034650" lon="-4.1969350">
        <ele>809.0</ele>
        <time>2022-06-27T15:19:59Z</time>
      </trkpt>
      <trkpt lat="42.4034420" lon="-4.1970810">
        <ele>809.2</ele>
        <time>2022-06-27T15:20:00Z</time>
      </trkpt>
      <trkpt lat="42.4034180" lon="-4.1972550">
        <ele>809.2</ele>
        <time>2022-06-27T15:20:01Z</time>
      </trkpt>
      <trkpt lat="42.4034040" lon="-4.1973720">
        <ele>809.2</ele>
        <time>2022-06-27T15:20:02Z</time>
      </trkpt>
      <trkpt lat="42.4033800" lon="-4.1975460">
        <ele>809.2</ele>
        <time>2022-06-27T15:20:03Z</time>
      </trkpt>
      <trkpt lat="42.4033640" lon="-4.1976620">
        <ele>809.2</ele>
        <time>2022-06-27T15:20:04Z</time>
      </trkpt>
      <trkpt lat="42.4033420" lon="-4.1978090">
        <ele>809.4</ele>
        <time>2022-06-27T15:20:05Z</time>
      </trkpt>
      <trkpt lat="42.4033230" lon="-4.1979520">
        <ele>809.4</ele>
        <time>2022-06-27T15:20:06Z</time>
      </trkpt>
      <trkpt lat="42.4032990" lon="-4.1981250">
        <ele>809.2</ele>
        <time>2022-06-27T15:20:07Z</time>
      </trkpt>
      <trkpt lat="42.4032800" lon="-4.1982690">
        <ele>809.2</ele>
        <time>2022-06-27T15:20:08Z</time>
      </trkpt>
      <trkpt lat="42.4032650" lon="-4.1983840">
        <ele>809.2</ele>
        <time>2022-06-27T15:20:09Z</time>
      </trkpt>
      <trkpt lat="42.4032460" lon="-4.1985280">
        <ele>809.2</ele>
        <time>2022-06-27T15:20:10Z</time>
      </trkpt>
      <trkpt lat="42.4032230" lon="-4.1987010">
        <ele>809.2</ele>
        <time>2022-06-27T15:20:11Z</time>
      </trkpt>
      <trkpt lat="42.4032040" lon="-4.1988450">
        <ele>809.2</ele>
        <time>2022-06-27T15:20:12Z</time>
      </trkpt>
      <trkpt lat="42.4031900" lon="-4.1989600">
        <ele>809.2</ele>
        <time>2022-06-27T15:20:13Z</time>
      </trkpt>
      <trkpt lat="42.4031700" lon="-4.1991040">
        <ele>809.2</ele>
        <time>2022-06-27T15:20:14Z</time>
      </trkpt>
      <trkpt lat="42.4031500" lon="-4.1992480">
        <ele>809.0</ele>
        <time>2022-06-27T15:20:15Z</time>
      </trkpt>
      <trkpt lat="42.4031260" lon="-4.1994200">
        <ele>809.0</ele>
        <time>2022-06-27T15:20:16Z</time>
      </trkpt>
      <trkpt lat="42.4031030" lon="-4.1995630">
        <ele>809.0</ele>
        <time>2022-06-27T15:20:17Z</time>
      </trkpt>
      <trkpt lat="42.4030870" lon="-4.1996770">
        <ele>809.0</ele>
        <time>2022-06-27T15:20:18Z</time>
      </trkpt>
      <trkpt lat="42.4030650" lon="-4.1998190">
        <ele>809.0</ele>
        <time>2022-06-27T15:20:19Z</time>
      </trkpt>
      <trkpt lat="42.4030420" lon="-4.1999910">
        <ele>809.0</ele>
        <time>2022-06-27T15:20:20Z</time>
      </trkpt>
      <trkpt lat="42.4030220" lon="-4.2001330">
        <ele>809.0</ele>
        <time>2022-06-27T15:20:21Z</time>
      </trkpt>
      <trkpt lat="42.4030080" lon="-4.2002480">
        <ele>809.0</ele>
        <time>2022-06-27T15:20:22Z</time>
      </trkpt>
      <trkpt lat="42.4029920" lon="-4.2003910">
        <ele>808.8</ele>
        <time>2022-06-27T15:20:23Z</time>
      </trkpt>
      <trkpt lat="42.4029750" lon="-4.2005340">
        <ele>808.8</ele>
        <time>2022-06-27T15:20:24Z</time>
      </trkpt>
      <trkpt lat="42.4029580" lon="-4.2007050">
        <ele>808.8</ele>
        <time>2022-06-27T15:20:25Z</time>
      </trkpt>
      <trkpt lat="42.4029460" lon="-4.2008480">
        <ele>808.8</ele>
        <time>2022-06-27T15:20:26Z</time>
      </trkpt>
      <trkpt lat="42.4029360" lon="-4.2009640">
        <ele>808.8</ele>
        <time>2022-06-27T15:20:27Z</time>
      </trkpt>
      <trkpt lat="42.4029250" lon="-4.2011090">
        <ele>808.8</ele>
        <time>2022-06-27T15:20:28Z</time>
      </trkpt>
      <trkpt lat="42.4029150" lon="-4.2012830">
        <ele>808.8</ele>
        <time>2022-06-27T15:20:29Z</time>
      </trkpt>
      <trkpt lat="42.4029090" lon="-4.2014270">
        <ele>808.8</ele>
        <time>2022-06-27T15:20:30Z</time>
      </trkpt>
      <trkpt lat="42.4029060" lon="-4.2015420">
        <ele>808.8</ele>
        <time>2022-06-27T15:20:31Z</time>
      </trkpt>
      <trkpt lat="42.4029050" lon="-4.2016840">
        <ele>808.8</ele>
        <time>2022-06-27T15:20:32Z</time>
      </trkpt>
      <trkpt lat="42.4029050" lon="-4.2018560">
        <ele>808.8</ele>
        <time>2022-06-27T15:20:33Z</time>
      </trkpt>
      <trkpt lat="42.4029070" lon="-4.2019710">
        <ele>808.8</ele>
        <time>2022-06-27T15:20:34Z</time>
      </trkpt>
      <trkpt lat="42.4029110" lon="-4.2021420">
        <ele>808.8</ele>
        <time>2022-06-27T15:20:35Z</time>
      </trkpt>
      <trkpt lat="42.4029160" lon="-4.2022550">
        <ele>808.6</ele>
        <time>2022-06-27T15:20:36Z</time>
      </trkpt>
      <trkpt lat="42.4029230" lon="-4.2023960">
        <ele>808.6</ele>
        <time>2022-06-27T15:20:37Z</time>
      </trkpt>
      <trkpt lat="42.4029320" lon="-4.2025650">
        <ele>808.6</ele>
        <time>2022-06-27T15:20:38Z</time>
      </trkpt>
      <trkpt lat="42.4029410" lon="-4.2027030">
        <ele>808.6</ele>
        <time>2022-06-27T15:20:39Z</time>
      </trkpt>
      <trkpt lat="42.4029500" lon="-4.2028130">
        <ele>808.6</ele>
        <time>2022-06-27T15:20:40Z</time>
      </trkpt>
      <trkpt lat="42.4029620" lon="-4.2029510">
        <ele>808.6</ele>
        <time>2022-06-27T15:20:41Z</time>
      </trkpt>
      <trkpt lat="42.4029760" lon="-4.2030900">
        <ele>808.6</ele>
        <time>2022-06-27T15:20:42Z</time>
      </trkpt>
      <trkpt lat="42.4029910" lon="-4.2032280">
        <ele>808.6</ele>
        <time>2022-06-27T15:20:43Z</time>
      </trkpt>
      <trkpt lat="42.4030120" lon="-4.2033930">
        <ele>808.6</ele>
        <time>2022-06-27T15:20:44Z</time>
      </trkpt>
      <trkpt lat="42.4030280" lon="-4.2035010">
        <ele>808.6</ele>
        <time>2022-06-27T15:20:45Z</time>
      </trkpt>
      <trkpt lat="42.4030490" lon="-4.2036360">
        <ele>808.8</ele>
        <time>2022-06-27T15:20:46Z</time>
      </trkpt>
      <trkpt lat="42.4030760" lon="-4.2037950">
        <ele>809.0</ele>
        <time>2022-06-27T15:20:47Z</time>
      </trkpt>
      <trkpt lat="42.4031010" lon="-4.2039250">
        <ele>809.2</ele>
        <time>2022-06-27T15:20:48Z</time>
      </trkpt>
      <trkpt lat="42.4031230" lon="-4.2040290">
        <ele>809.0</ele>
        <time>2022-06-27T15:20:49Z</time>
      </trkpt>
      <trkpt lat="42.4031480" lon="-4.2041610">
        <ele>809.2</ele>
        <time>2022-06-27T15:20:50Z</time>
      </trkpt>
      <trkpt lat="42.4031760" lon="-4.2042920">
        <ele>809.4</ele>
        <time>2022-06-27T15:20:51Z</time>
      </trkpt>
      <trkpt lat="42.4032110" lon="-4.2044480">
        <ele>809.4</ele>
        <time>2022-06-27T15:20:52Z</time>
      </trkpt>
      <trkpt lat="42.4032420" lon="-4.2045760">
        <ele>809.4</ele>
        <time>2022-06-27T15:20:53Z</time>
      </trkpt>
      <trkpt lat="42.4032690" lon="-4.2046760">
        <ele>809.6</ele>
        <time>2022-06-27T15:20:54Z</time>
      </trkpt>
      <trkpt lat="42.4033040" lon="-4.2047990">
        <ele>809.6</ele>
        <time>2022-06-27T15:20:55Z</time>
      </trkpt>
      <trkpt lat="42.4033380" lon="-4.2049210">
        <ele>809.8</ele>
        <time>2022-06-27T15:20:56Z</time>
      </trkpt>
      <trkpt lat="42.4033760" lon="-4.2050390">
        <ele>809.8</ele>
        <time>2022-06-27T15:20:57Z</time>
      </trkpt>
      <trkpt lat="42.4034130" lon="-4.2051590">
        <ele>809.6</ele>
        <time>2022-06-27T15:20:58Z</time>
      </trkpt>
      <trkpt lat="42.4034510" lon="-4.2052770">
        <ele>809.8</ele>
        <time>2022-06-27T15:20:59Z</time>
      </trkpt>
      <trkpt lat="42.4034890" lon="-4.2053940">
        <ele>809.8</ele>
        <time>2022-06-27T15:21:00Z</time>
      </trkpt>
      <trkpt lat="42.4035290" lon="-4.2055090">
        <ele>809.8</ele>
        <time>2022-06-27T15:21:01Z</time>
      </trkpt>
      <trkpt lat="42.4035700" lon="-4.2056230">
        <ele>809.8</ele>
        <time>2022-06-27T15:21:02Z</time>
      </trkpt>
      <trkpt lat="42.4036120" lon="-4.2057360">
        <ele>809.8</ele>
        <time>2022-06-27T15:21:03Z</time>
      </trkpt>
      <trkpt lat="42.4036540" lon="-4.2058450">
        <ele>809.8</ele>
        <time>2022-06-27T15:21:04Z</time>
      </trkpt>
      <trkpt lat="42.4036950" lon="-4.2059550">
        <ele>809.8</ele>
        <time>2022-06-27T15:21:05Z</time>
      </trkpt>
      <trkpt lat="42.4037360" lon="-4.2060650">
        <ele>810.0</ele>
        <time>2022-06-27T15:21:06Z</time>
      </trkpt>
      <trkpt lat="42.4037780" lon="-4.2061730">
        <ele>810.0</ele>
        <time>2022-06-27T15:21:07Z</time>
      </trkpt>
      <trkpt lat="42.4038200" lon="-4.2062830">
        <ele>810.0</ele>
        <time>2022-06-27T15:21:08Z</time>
      </trkpt>
      <trkpt lat="42.4038610" lon="-4.2063940">
        <ele>810.0</ele>
        <time>2022-06-27T15:21:09Z</time>
      </trkpt>
      <trkpt lat="42.4039020" lon="-4.2065020">
        <ele>810.2</ele>
        <time>2022-06-27T15:21:10Z</time>
      </trkpt>
      <trkpt lat="42.4039460" lon="-4.2066110">
        <ele>810.2</ele>
        <time>2022-06-27T15:21:11Z</time>
      </trkpt>
      <trkpt lat="42.4040010" lon="-4.2067400">
        <ele>810.4</ele>
        <time>2022-06-27T15:21:12Z</time>
      </trkpt>
      <trkpt lat="42.4040350" lon="-4.2068300">
        <ele>810.4</ele>
        <time>2022-06-27T15:21:13Z</time>
      </trkpt>
      <trkpt lat="42.4040790" lon="-4.2069410">
        <ele>810.6</ele>
        <time>2022-06-27T15:21:14Z</time>
      </trkpt>
      <trkpt lat="42.4041230" lon="-4.2070540">
        <ele>810.6</ele>
        <time>2022-06-27T15:21:15Z</time>
      </trkpt>
      <trkpt lat="42.4041640" lon="-4.2071680">
        <ele>810.8</ele>
        <time>2022-06-27T15:21:16Z</time>
      </trkpt>
      <trkpt lat="42.4042020" lon="-4.2072840">
        <ele>811.0</ele>
        <time>2022-06-27T15:21:17Z</time>
      </trkpt>
      <trkpt lat="42.4042370" lon="-4.2073980">
        <ele>811.0</ele>
        <time>2022-06-27T15:21:18Z</time>
      </trkpt>
      <trkpt lat="42.4042720" lon="-4.2075120">
        <ele>811.0</ele>
        <time>2022-06-27T15:21:19Z</time>
      </trkpt>
      <trkpt lat="42.4043050" lon="-4.2076290">
        <ele>811.2</ele>
        <time>2022-06-27T15:21:20Z</time>
      </trkpt>
      <trkpt lat="42.4043330" lon="-4.2077470">
        <ele>811.4</ele>
        <time>2022-06-27T15:21:21Z</time>
      </trkpt>
      <trkpt lat="42.4043590" lon="-4.2078650">
        <ele>811.4</ele>
        <time>2022-06-27T15:21:22Z</time>
      </trkpt>
      <trkpt lat="42.4043850" lon="-4.2079810">
        <ele>811.6</ele>
        <time>2022-06-27T15:21:23Z</time>
      </trkpt>
      <trkpt lat="42.4044090" lon="-4.2081010">
        <ele>811.6</ele>
        <time>2022-06-27T15:21:24Z</time>
      </trkpt>
      <trkpt lat="42.4044310" lon="-4.2082220">
        <ele>811.6</ele>
        <time>2022-06-27T15:21:25Z</time>
      </trkpt>
      <trkpt lat="42.4044480" lon="-4.2083430">
        <ele>812.0</ele>
        <time>2022-06-27T15:21:26Z</time>
      </trkpt>
      <trkpt lat="42.4044650" lon="-4.2084630">
        <ele>812.0</ele>
        <time>2022-06-27T15:21:27Z</time>
      </trkpt>
      <trkpt lat="42.4044800" lon="-4.2085830">
        <ele>812.0</ele>
        <time>2022-06-27T15:21:28Z</time>
      </trkpt>
      <trkpt lat="42.4044960" lon="-4.2087000">
        <ele>812.0</ele>
        <time>2022-06-27T15:21:29Z</time>
      </trkpt>
      <trkpt lat="42.4045100" lon="-4.2088180">
        <ele>812.0</ele>
        <time>2022-06-27T15:21:30Z</time>
      </trkpt>
      <trkpt lat="42.4045210" lon="-4.2089380">
        <ele>812.0</ele>
        <time>2022-06-27T15:21:31Z</time>
      </trkpt>
      <trkpt lat="42.4045300" lon="-4.2090580">
        <ele>812.0</ele>
        <time>2022-06-27T15:21:32Z</time>
      </trkpt>
      <trkpt lat="42.4045350" lon="-4.2091780">
        <ele>812.0</ele>
        <time>2022-06-27T15:21:33Z</time>
      </trkpt>
      <trkpt lat="42.4045390" lon="-4.2093000">
        <ele>812.0</ele>
        <time>2022-06-27T15:21:34Z</time>
      </trkpt>
      <trkpt lat="42.4045420" lon="-4.2094460">
        <ele>812.0</ele>
        <time>2022-06-27T15:21:35Z</time>
      </trkpt>
      <trkpt lat="42.4045400" lon="-4.2095430">
        <ele>812.0</ele>
        <time>2022-06-27T15:21:36Z</time>
      </trkpt>
      <trkpt lat="42.4045370" lon="-4.2096650">
        <ele>812.0</ele>
        <time>2022-06-27T15:21:37Z</time>
      </trkpt>
      <trkpt lat="42.4045340" lon="-4.2097840">
        <ele>812.0</ele>
        <time>2022-06-27T15:21:38Z</time>
      </trkpt>
      <trkpt lat="42.4045270" lon="-4.2099290">
        <ele>812.0</ele>
        <time>2022-06-27T15:21:39Z</time>
      </trkpt>
      <trkpt lat="42.4045190" lon="-4.2100500">
        <ele>812.0</ele>
        <time>2022-06-27T15:21:40Z</time>
      </trkpt>
      <trkpt lat="42.4045110" lon="-4.2101450">
        <ele>812.0</ele>
        <time>2022-06-27T15:21:41Z</time>
      </trkpt>
      <trkpt lat="42.4044970" lon="-4.2102660">
        <ele>811.8</ele>
        <time>2022-06-27T15:21:42Z</time>
      </trkpt>
      <trkpt lat="42.4044780" lon="-4.2104100">
        <ele>811.8</ele>
        <time>2022-06-27T15:21:43Z</time>
      </trkpt>
      <trkpt lat="42.4044640" lon="-4.2105060">
        <ele>811.8</ele>
        <time>2022-06-27T15:21:44Z</time>
      </trkpt>
      <trkpt lat="42.4044430" lon="-4.2106520">
        <ele>811.8</ele>
        <time>2022-06-27T15:21:45Z</time>
      </trkpt>
      <trkpt lat="42.4044280" lon="-4.2107490">
        <ele>811.8</ele>
        <time>2022-06-27T15:21:46Z</time>
      </trkpt>
      <trkpt lat="42.4044060" lon="-4.2108700">
        <ele>811.8</ele>
        <time>2022-06-27T15:21:47Z</time>
      </trkpt>
      <trkpt lat="42.4043810" lon="-4.2109910">
        <ele>811.8</ele>
        <time>2022-06-27T15:21:48Z</time>
      </trkpt>
      <trkpt lat="42.4043450" lon="-4.2111350">
        <ele>811.8</ele>
        <time>2022-06-27T15:21:49Z</time>
      </trkpt>
      <trkpt lat="42.4043210" lon="-4.2112300">
        <ele>812.0</ele>
        <time>2022-06-27T15:21:50Z</time>
      </trkpt>
      <trkpt lat="42.4042910" lon="-4.2113470">
        <ele>812.4</ele>
        <time>2022-06-27T15:21:51Z</time>
      </trkpt>
      <trkpt lat="42.4042580" lon="-4.2114640">
        <ele>812.8</ele>
        <time>2022-06-27T15:21:52Z</time>
      </trkpt>
      <trkpt lat="42.4042250" lon="-4.2115780">
        <ele>812.8</ele>
        <time>2022-06-27T15:21:53Z</time>
      </trkpt>
      <trkpt lat="42.4041890" lon="-4.2116920">
        <ele>812.8</ele>
        <time>2022-06-27T15:21:54Z</time>
      </trkpt>
      <trkpt lat="42.4041500" lon="-4.2118040">
        <ele>812.8</ele>
        <time>2022-06-27T15:21:55Z</time>
      </trkpt>
      <trkpt lat="42.4041090" lon="-4.2119170">
        <ele>813.0</ele>
        <time>2022-06-27T15:21:56Z</time>
      </trkpt>
      <trkpt lat="42.4040670" lon="-4.2120290">
        <ele>813.0</ele>
        <time>2022-06-27T15:21:57Z</time>
      </trkpt>
      <trkpt lat="42.4040230" lon="-4.2121400">
        <ele>813.0</ele>
        <time>2022-06-27T15:21:58Z</time>
      </trkpt>
      <trkpt lat="42.4039690" lon="-4.2122710">
        <ele>813.0</ele>
        <time>2022-06-27T15:21:59Z</time>
      </trkpt>
      <trkpt lat="42.4039280" lon="-4.2123560">
        <ele>813.0</ele>
        <time>2022-06-27T15:22:00Z</time>
      </trkpt>
      <trkpt lat="42.4038780" lon="-4.2124610">
        <ele>813.0</ele>
        <time>2022-06-27T15:22:01Z</time>
      </trkpt>
      <trkpt lat="42.4038250" lon="-4.2125680">
        <ele>813.0</ele>
        <time>2022-06-27T15:22:02Z</time>
      </trkpt>
      <trkpt lat="42.4037610" lon="-4.2126910">
        <ele>813.0</ele>
        <time>2022-06-27T15:22:03Z</time>
      </trkpt>
      <trkpt lat="42.4037170" lon="-4.2127710">
        <ele>813.0</ele>
        <time>2022-06-27T15:22:04Z</time>
      </trkpt>
      <trkpt lat="42.4036600" lon="-4.2128720">
        <ele>813.0</ele>
        <time>2022-06-27T15:22:05Z</time>
      </trkpt>
      <trkpt lat="42.4036030" lon="-4.2129730">
        <ele>813.0</ele>
        <time>2022-06-27T15:22:06Z</time>
      </trkpt>
      <trkpt lat="42.4035430" lon="-4.2130700">
        <ele>813.2</ele>
        <time>2022-06-27T15:22:07Z</time>
      </trkpt>
      <trkpt lat="42.4034690" lon="-4.2131830">
        <ele>813.2</ele>
        <time>2022-06-27T15:22:08Z</time>
      </trkpt>
      <trkpt lat="42.4034200" lon="-4.2132570">
        <ele>813.2</ele>
        <time>2022-06-27T15:22:09Z</time>
      </trkpt>
      <trkpt lat="42.4033560" lon="-4.2133490">
        <ele>813.2</ele>
        <time>2022-06-27T15:22:10Z</time>
      </trkpt>
      <trkpt lat="42.4032900" lon="-4.2134380">
        <ele>813.4</ele>
        <time>2022-06-27T15:22:11Z</time>
      </trkpt>
      <trkpt lat="42.4032110" lon="-4.2135410">
        <ele>813.4</ele>
        <time>2022-06-27T15:22:12Z</time>
      </trkpt>
      <trkpt lat="42.4031560" lon="-4.2136080">
        <ele>813.4</ele>
        <time>2022-06-27T15:22:13Z</time>
      </trkpt>
      <trkpt lat="42.4030870" lon="-4.2136890">
        <ele>813.2</ele>
        <time>2022-06-27T15:22:14Z</time>
      </trkpt>
      <trkpt lat="42.4030170" lon="-4.2137670">
        <ele>813.2</ele>
        <time>2022-06-27T15:22:15Z</time>
      </trkpt>
      <trkpt lat="42.4029460" lon="-4.2138450">
        <ele>813.2</ele>
        <time>2022-06-27T15:22:16Z</time>
      </trkpt>
      <trkpt lat="42.4028600" lon="-4.2139360">
        <ele>813.2</ele>
        <time>2022-06-27T15:22:17Z</time>
      </trkpt>
      <trkpt lat="42.4028030" lon="-4.2139940">
        <ele>813.2</ele>
        <time>2022-06-27T15:22:18Z</time>
      </trkpt>
      <trkpt lat="42.4027300" lon="-4.2140670">
        <ele>813.2</ele>
        <time>2022-06-27T15:22:19Z</time>
      </trkpt>
      <trkpt lat="42.4026570" lon="-4.2141380">
        <ele>813.4</ele>
        <time>2022-06-27T15:22:20Z</time>
      </trkpt>
      <trkpt lat="42.4025840" lon="-4.2142100">
        <ele>813.4</ele>
        <time>2022-06-27T15:22:21Z</time>
      </trkpt>
      <trkpt lat="42.4025100" lon="-4.2142820">
        <ele>813.4</ele>
        <time>2022-06-27T15:22:22Z</time>
      </trkpt>
      <trkpt lat="42.4024360" lon="-4.2143560">
        <ele>813.6</ele>
        <time>2022-06-27T15:22:23Z</time>
      </trkpt>
      <trkpt lat="42.4023610" lon="-4.2144290">
        <ele>813.6</ele>
        <time>2022-06-27T15:22:24Z</time>
      </trkpt>
      <trkpt lat="42.4022860" lon="-4.2145020">
        <ele>813.8</ele>
        <time>2022-06-27T15:22:25Z</time>
      </trkpt>
      <trkpt lat="42.4021950" lon="-4.2145900">
        <ele>814.0</ele>
        <time>2022-06-27T15:22:26Z</time>
      </trkpt>
      <trkpt lat="42.4021350" lon="-4.2146480">
        <ele>814.0</ele>
        <time>2022-06-27T15:22:27Z</time>
      </trkpt>
      <trkpt lat="42.4020590" lon="-4.2147180">
        <ele>814.0</ele>
        <time>2022-06-27T15:22:28Z</time>
      </trkpt>
      <trkpt lat="42.4019680" lon="-4.2148030">
        <ele>814.0</ele>
        <time>2022-06-27T15:22:29Z</time>
      </trkpt>
      <trkpt lat="42.4018920" lon="-4.2148730">
        <ele>814.2</ele>
        <time>2022-06-27T15:22:30Z</time>
      </trkpt>
      <trkpt lat="42.4018330" lon="-4.2149270">
        <ele>814.2</ele>
        <time>2022-06-27T15:22:31Z</time>
      </trkpt>
      <trkpt lat="42.4017590" lon="-4.2149960">
        <ele>814.2</ele>
        <time>2022-06-27T15:22:32Z</time>
      </trkpt>
      <trkpt lat="42.4016850" lon="-4.2150650">
        <ele>814.4</ele>
        <time>2022-06-27T15:22:33Z</time>
      </trkpt>
      <trkpt lat="42.4016120" lon="-4.2151360">
        <ele>814.8</ele>
        <time>2022-06-27T15:22:34Z</time>
      </trkpt>
      <trkpt lat="42.4015400" lon="-4.2152060">
        <ele>815.0</ele>
        <time>2022-06-27T15:22:35Z</time>
      </trkpt>
      <trkpt lat="42.4014660" lon="-4.2152760">
        <ele>815.0</ele>
        <time>2022-06-27T15:22:36Z</time>
      </trkpt>
      <trkpt lat="42.4013940" lon="-4.2153450">
        <ele>815.2</ele>
        <time>2022-06-27T15:22:37Z</time>
      </trkpt>
      <trkpt lat="42.4013230" lon="-4.2154140">
        <ele>815.4</ele>
        <time>2022-06-27T15:22:38Z</time>
      </trkpt>
      <trkpt lat="42.4012520" lon="-4.2154820">
        <ele>815.6</ele>
        <time>2022-06-27T15:22:39Z</time>
      </trkpt>
      <trkpt lat="42.4011650" lon="-4.2155630">
        <ele>815.8</ele>
        <time>2022-06-27T15:22:40Z</time>
      </trkpt>
      <trkpt lat="42.4011040" lon="-4.2156190">
        <ele>815.8</ele>
        <time>2022-06-27T15:22:41Z</time>
      </trkpt>
      <trkpt lat="42.4010310" lon="-4.2156870">
        <ele>815.8</ele>
        <time>2022-06-27T15:22:42Z</time>
      </trkpt>
      <trkpt lat="42.4009450" lon="-4.2157730">
        <ele>815.8</ele>
        <time>2022-06-27T15:22:43Z</time>
      </trkpt>
      <trkpt lat="42.4008870" lon="-4.2158310">
        <ele>815.8</ele>
        <time>2022-06-27T15:22:44Z</time>
      </trkpt>
      <trkpt lat="42.4008150" lon="-4.2159060">
        <ele>816.0</ele>
        <time>2022-06-27T15:22:45Z</time>
      </trkpt>
      <trkpt lat="42.4007430" lon="-4.2159860">
        <ele>816.0</ele>
        <time>2022-06-27T15:22:46Z</time>
      </trkpt>
      <trkpt lat="42.4006720" lon="-4.2160660">
        <ele>816.2</ele>
        <time>2022-06-27T15:22:47Z</time>
      </trkpt>
      <trkpt lat="42.4005860" lon="-4.2161620">
        <ele>816.2</ele>
        <time>2022-06-27T15:22:48Z</time>
      </trkpt>
      <trkpt lat="42.4005150" lon="-4.2162420">
        <ele>816.2</ele>
        <time>2022-06-27T15:22:49Z</time>
      </trkpt>
      <trkpt lat="42.4004590" lon="-4.2163070">
        <ele>816.2</ele>
        <time>2022-06-27T15:22:50Z</time>
      </trkpt>
      <trkpt lat="42.4003910" lon="-4.2163880">
        <ele>816.2</ele>
        <time>2022-06-27T15:22:51Z</time>
      </trkpt>
      <trkpt lat="42.4003100" lon="-4.2164890">
        <ele>816.4</ele>
        <time>2022-06-27T15:22:52Z</time>
      </trkpt>
      <trkpt lat="42.4002590" lon="-4.2165570">
        <ele>816.4</ele>
        <time>2022-06-27T15:22:53Z</time>
      </trkpt>
      <trkpt lat="42.4001840" lon="-4.2166580">
        <ele>816.8</ele>
        <time>2022-06-27T15:22:54Z</time>
      </trkpt>
      <trkpt lat="42.4001360" lon="-4.2167290">
        <ele>817.0</ele>
        <time>2022-06-27T15:22:55Z</time>
      </trkpt>
      <trkpt lat="42.4000740" lon="-4.2168210">
        <ele>817.2</ele>
        <time>2022-06-27T15:22:56Z</time>
      </trkpt>
      <trkpt lat="42.4000140" lon="-4.2169140">
        <ele>817.2</ele>
        <time>2022-06-27T15:22:57Z</time>
      </trkpt>
      <trkpt lat="42.3999550" lon="-4.2170090">
        <ele>817.2</ele>
        <time>2022-06-27T15:22:58Z</time>
      </trkpt>
      <trkpt lat="42.3998980" lon="-4.2171080">
        <ele>817.2</ele>
        <time>2022-06-27T15:22:59Z</time>
      </trkpt>
      <trkpt lat="42.3998420" lon="-4.2172080">
        <ele>817.2</ele>
        <time>2022-06-27T15:23:00Z</time>
      </trkpt>
      <trkpt lat="42.3997910" lon="-4.2173110">
        <ele>817.4</ele>
        <time>2022-06-27T15:23:01Z</time>
      </trkpt>
      <trkpt lat="42.3997410" lon="-4.2174150">
        <ele>817.4</ele>
        <time>2022-06-27T15:23:02Z</time>
      </trkpt>
      <trkpt lat="42.3996930" lon="-4.2175210">
        <ele>817.4</ele>
        <time>2022-06-27T15:23:03Z</time>
      </trkpt>
      <trkpt lat="42.3996470" lon="-4.2176270">
        <ele>817.6</ele>
        <time>2022-06-27T15:23:04Z</time>
      </trkpt>
      <trkpt lat="42.3996020" lon="-4.2177350">
        <ele>817.6</ele>
        <time>2022-06-27T15:23:05Z</time>
      </trkpt>
      <trkpt lat="42.3995590" lon="-4.2178440">
        <ele>818.0</ele>
        <time>2022-06-27T15:23:06Z</time>
      </trkpt>
      <trkpt lat="42.3995180" lon="-4.2179570">
        <ele>818.0</ele>
        <time>2022-06-27T15:23:07Z</time>
      </trkpt>
      <trkpt lat="42.3994800" lon="-4.2180730">
        <ele>818.2</ele>
        <time>2022-06-27T15:23:08Z</time>
      </trkpt>
      <trkpt lat="42.3994430" lon="-4.2181900">
        <ele>818.2</ele>
        <time>2022-06-27T15:23:09Z</time>
      </trkpt>
      <trkpt lat="42.3994080" lon="-4.2183080">
        <ele>818.2</ele>
        <time>2022-06-27T15:23:10Z</time>
      </trkpt>
      <trkpt lat="42.3993740" lon="-4.2184260">
        <ele>818.2</ele>
        <time>2022-06-27T15:23:11Z</time>
      </trkpt>
      <trkpt lat="42.3993410" lon="-4.2185490">
        <ele>818.2</ele>
        <time>2022-06-27T15:23:12Z</time>
      </trkpt>
      <trkpt lat="42.3993100" lon="-4.2186730">
        <ele>818.2</ele>
        <time>2022-06-27T15:23:13Z</time>
      </trkpt>
      <trkpt lat="42.3992810" lon="-4.2187990">
        <ele>818.2</ele>
        <time>2022-06-27T15:23:14Z</time>
      </trkpt>
      <trkpt lat="42.3992550" lon="-4.2189280">
        <ele>818.2</ele>
        <time>2022-06-27T15:23:15Z</time>
      </trkpt>
      <trkpt lat="42.3992310" lon="-4.2190580">
        <ele>818.2</ele>
        <time>2022-06-27T15:23:16Z</time>
      </trkpt>
      <trkpt lat="42.3992080" lon="-4.2191900">
        <ele>818.2</ele>
        <time>2022-06-27T15:23:17Z</time>
      </trkpt>
      <trkpt lat="42.3991890" lon="-4.2193220">
        <ele>818.0</ele>
        <time>2022-06-27T15:23:18Z</time>
      </trkpt>
      <trkpt lat="42.3991730" lon="-4.2194540">
        <ele>818.0</ele>
        <time>2022-06-27T15:23:19Z</time>
      </trkpt>
      <trkpt lat="42.3991590" lon="-4.2195860">
        <ele>818.0</ele>
        <time>2022-06-27T15:23:20Z</time>
      </trkpt>
      <trkpt lat="42.3991460" lon="-4.2197200">
        <ele>818.0</ele>
        <time>2022-06-27T15:23:21Z</time>
      </trkpt>
      <trkpt lat="42.3991330" lon="-4.2198560">
        <ele>817.8</ele>
        <time>2022-06-27T15:23:22Z</time>
      </trkpt>
      <trkpt lat="42.3991260" lon="-4.2199920">
        <ele>817.8</ele>
        <time>2022-06-27T15:23:23Z</time>
      </trkpt>
      <trkpt lat="42.3991210" lon="-4.2201290">
        <ele>817.8</ele>
        <time>2022-06-27T15:23:24Z</time>
      </trkpt>
      <trkpt lat="42.3991170" lon="-4.2202660">
        <ele>817.6</ele>
        <time>2022-06-27T15:23:25Z</time>
      </trkpt>
      <trkpt lat="42.3991180" lon="-4.2204050">
        <ele>817.4</ele>
        <time>2022-06-27T15:23:26Z</time>
      </trkpt>
      <trkpt lat="42.3991220" lon="-4.2205440">
        <ele>817.4</ele>
        <time>2022-06-27T15:23:27Z</time>
      </trkpt>
      <trkpt lat="42.3991270" lon="-4.2206850">
        <ele>817.4</ele>
        <time>2022-06-27T15:23:28Z</time>
      </trkpt>
      <trkpt lat="42.3991350" lon="-4.2208260">
        <ele>817.2</ele>
        <time>2022-06-27T15:23:29Z</time>
      </trkpt>
      <trkpt lat="42.3991470" lon="-4.2209650">
        <ele>817.2</ele>
        <time>2022-06-27T15:23:30Z</time>
      </trkpt>
      <trkpt lat="42.3991620" lon="-4.2211040">
        <ele>817.0</ele>
        <time>2022-06-27T15:23:31Z</time>
      </trkpt>
      <trkpt lat="42.3991770" lon="-4.2212460">
        <ele>816.8</ele>
        <time>2022-06-27T15:23:32Z</time>
      </trkpt>
      <trkpt lat="42.3991950" lon="-4.2213890">
        <ele>816.6</ele>
        <time>2022-06-27T15:23:33Z</time>
      </trkpt>
      <trkpt lat="42.3992160" lon="-4.2215320">
        <ele>816.6</ele>
        <time>2022-06-27T15:23:34Z</time>
      </trkpt>
      <trkpt lat="42.3992400" lon="-4.2216740">
        <ele>816.6</ele>
        <time>2022-06-27T15:23:35Z</time>
      </trkpt>
      <trkpt lat="42.3992680" lon="-4.2218150">
        <ele>816.4</ele>
        <time>2022-06-27T15:23:36Z</time>
      </trkpt>
      <trkpt lat="42.3993050" lon="-4.2219830">
        <ele>816.4</ele>
        <time>2022-06-27T15:23:37Z</time>
      </trkpt>
      <trkpt lat="42.3993360" lon="-4.2220920">
        <ele>816.2</ele>
        <time>2022-06-27T15:23:38Z</time>
      </trkpt>
      <trkpt lat="42.3993730" lon="-4.2222310">
        <ele>816.0</ele>
        <time>2022-06-27T15:23:39Z</time>
      </trkpt>
      <trkpt lat="42.3994130" lon="-4.2223680">
        <ele>815.8</ele>
        <time>2022-06-27T15:23:40Z</time>
      </trkpt>
      <trkpt lat="42.3994550" lon="-4.2225070">
        <ele>815.8</ele>
        <time>2022-06-27T15:23:41Z</time>
      </trkpt>
      <trkpt lat="42.3995000" lon="-4.2226430">
        <ele>815.8</ele>
        <time>2022-06-27T15:23:42Z</time>
      </trkpt>
      <trkpt lat="42.3995470" lon="-4.2227790">
        <ele>815.4</ele>
        <time>2022-06-27T15:23:43Z</time>
      </trkpt>
      <trkpt lat="42.3995970" lon="-4.2229120">
        <ele>815.4</ele>
        <time>2022-06-27T15:23:44Z</time>
      </trkpt>
      <trkpt lat="42.3996480" lon="-4.2230400">
        <ele>815.2</ele>
        <time>2022-06-27T15:23:45Z</time>
      </trkpt>
      <trkpt lat="42.3997050" lon="-4.2231680">
        <ele>815.2</ele>
        <time>2022-06-27T15:23:46Z</time>
      </trkpt>
      <trkpt lat="42.3997640" lon="-4.2232950">
        <ele>814.8</ele>
        <time>2022-06-27T15:23:47Z</time>
      </trkpt>
      <trkpt lat="42.3998260" lon="-4.2234210">
        <ele>814.4</ele>
        <time>2022-06-27T15:23:48Z</time>
      </trkpt>
      <trkpt lat="42.3998900" lon="-4.2235440">
        <ele>814.4</ele>
        <time>2022-06-27T15:23:49Z</time>
      </trkpt>
      <trkpt lat="42.3999590" lon="-4.2236620">
        <ele>814.2</ele>
        <time>2022-06-27T15:23:50Z</time>
      </trkpt>
      <trkpt lat="42.4000320" lon="-4.2237790">
        <ele>814.0</ele>
        <time>2022-06-27T15:23:51Z</time>
      </trkpt>
      <trkpt lat="42.4001050" lon="-4.2238940">
        <ele>813.8</ele>
        <time>2022-06-27T15:23:52Z</time>
      </trkpt>
      <trkpt lat="42.4001780" lon="-4.2240090">
        <ele>813.6</ele>
        <time>2022-06-27T15:23:53Z</time>
      </trkpt>
      <trkpt lat="42.4002540" lon="-4.2241170">
        <ele>813.4</ele>
        <time>2022-06-27T15:23:54Z</time>
      </trkpt>
      <trkpt lat="42.4003300" lon="-4.2242240">
        <ele>813.2</ele>
        <time>2022-06-27T15:23:55Z</time>
      </trkpt>
      <trkpt lat="42.4004070" lon="-4.2243300">
        <ele>813.0</ele>
        <time>2022-06-27T15:23:56Z</time>
      </trkpt>
      <trkpt lat="42.4004840" lon="-4.2244350">
        <ele>812.6</ele>
        <time>2022-06-27T15:23:57Z</time>
      </trkpt>
      <trkpt lat="42.4005600" lon="-4.2245370">
        <ele>812.4</ele>
        <time>2022-06-27T15:23:58Z</time>
      </trkpt>
      <trkpt lat="42.4006340" lon="-4.2246390">
        <ele>812.0</ele>
        <time>2022-06-27T15:23:59Z</time>
      </trkpt>
      <trkpt lat="42.4007070" lon="-4.2247420">
        <ele>811.8</ele>
        <time>2022-06-27T15:24:00Z</time>
      </trkpt>
      <trkpt lat="42.4007790" lon="-4.2248440">
        <ele>811.6</ele>
        <time>2022-06-27T15:24:01Z</time>
      </trkpt>
      <trkpt lat="42.4008480" lon="-4.2249460">
        <ele>811.2</ele>
        <time>2022-06-27T15:24:02Z</time>
      </trkpt>
      <trkpt lat="42.4009180" lon="-4.2250490">
        <ele>811.0</ele>
        <time>2022-06-27T15:24:03Z</time>
      </trkpt>
      <trkpt lat="42.4009850" lon="-4.2251520">
        <ele>811.0</ele>
        <time>2022-06-27T15:24:04Z</time>
      </trkpt>
      <trkpt lat="42.4010500" lon="-4.2252570">
        <ele>810.8</ele>
        <time>2022-06-27T15:24:05Z</time>
      </trkpt>
      <trkpt lat="42.4011130" lon="-4.2253630">
        <ele>810.8</ele>
        <time>2022-06-27T15:24:06Z</time>
      </trkpt>
      <trkpt lat="42.4011760" lon="-4.2254700">
        <ele>810.8</ele>
        <time>2022-06-27T15:24:07Z</time>
      </trkpt>
      <trkpt lat="42.4012400" lon="-4.2255770">
        <ele>810.8</ele>
        <time>2022-06-27T15:24:08Z</time>
      </trkpt>
      <trkpt lat="42.4013010" lon="-4.2256870">
        <ele>810.8</ele>
        <time>2022-06-27T15:24:09Z</time>
      </trkpt>
      <trkpt lat="42.4013610" lon="-4.2257970">
        <ele>810.8</ele>
        <time>2022-06-27T15:24:10Z</time>
      </trkpt>
      <trkpt lat="42.4014200" lon="-4.2259080">
        <ele>810.6</ele>
        <time>2022-06-27T15:24:11Z</time>
      </trkpt>
      <trkpt lat="42.4014780" lon="-4.2260200">
        <ele>810.6</ele>
        <time>2022-06-27T15:24:12Z</time>
      </trkpt>
      <trkpt lat="42.4015340" lon="-4.2261340">
        <ele>810.4</ele>
        <time>2022-06-27T15:24:13Z</time>
      </trkpt>
      <trkpt lat="42.4015860" lon="-4.2262500">
        <ele>810.4</ele>
        <time>2022-06-27T15:24:14Z</time>
      </trkpt>
      <trkpt lat="42.4016380" lon="-4.2263670">
        <ele>810.2</ele>
        <time>2022-06-27T15:24:15Z</time>
      </trkpt>
      <trkpt lat="42.4016840" lon="-4.2264830">
        <ele>810.2</ele>
        <time>2022-06-27T15:24:16Z</time>
      </trkpt>
      <trkpt lat="42.4017290" lon="-4.2266030">
        <ele>810.2</ele>
        <time>2022-06-27T15:24:17Z</time>
      </trkpt>
      <trkpt lat="42.4017760" lon="-4.2267220">
        <ele>810.0</ele>
        <time>2022-06-27T15:24:18Z</time>
      </trkpt>
      <trkpt lat="42.4018310" lon="-4.2268650">
        <ele>810.0</ele>
        <time>2022-06-27T15:24:19Z</time>
      </trkpt>
      <trkpt lat="42.4018660" lon="-4.2269610">
        <ele>809.8</ele>
        <time>2022-06-27T15:24:20Z</time>
      </trkpt>
      <trkpt lat="42.4019090" lon="-4.2270830">
        <ele>809.8</ele>
        <time>2022-06-27T15:24:21Z</time>
      </trkpt>
      <trkpt lat="42.4019490" lon="-4.2272070">
        <ele>809.8</ele>
        <time>2022-06-27T15:24:22Z</time>
      </trkpt>
      <trkpt lat="42.4019890" lon="-4.2273320">
        <ele>809.8</ele>
        <time>2022-06-27T15:24:23Z</time>
      </trkpt>
      <trkpt lat="42.4020260" lon="-4.2274580">
        <ele>809.8</ele>
        <time>2022-06-27T15:24:24Z</time>
      </trkpt>
      <trkpt lat="42.4020630" lon="-4.2275830">
        <ele>809.8</ele>
        <time>2022-06-27T15:24:25Z</time>
      </trkpt>
      <trkpt lat="42.4021000" lon="-4.2277110">
        <ele>809.8</ele>
        <time>2022-06-27T15:24:26Z</time>
      </trkpt>
      <trkpt lat="42.4021340" lon="-4.2278380">
        <ele>809.8</ele>
        <time>2022-06-27T15:24:27Z</time>
      </trkpt>
      <trkpt lat="42.4021670" lon="-4.2279660">
        <ele>809.8</ele>
        <time>2022-06-27T15:24:28Z</time>
      </trkpt>
      <trkpt lat="42.4021980" lon="-4.2280920">
        <ele>809.6</ele>
        <time>2022-06-27T15:24:29Z</time>
      </trkpt>
      <trkpt lat="42.4022280" lon="-4.2282190">
        <ele>809.4</ele>
        <time>2022-06-27T15:24:30Z</time>
      </trkpt>
      <trkpt lat="42.4022560" lon="-4.2283470">
        <ele>809.2</ele>
        <time>2022-06-27T15:24:31Z</time>
      </trkpt>
      <trkpt lat="42.4022830" lon="-4.2284760">
        <ele>809.0</ele>
        <time>2022-06-27T15:24:32Z</time>
      </trkpt>
      <trkpt lat="42.4023050" lon="-4.2286060">
        <ele>808.8</ele>
        <time>2022-06-27T15:24:33Z</time>
      </trkpt>
      <trkpt lat="42.4023290" lon="-4.2287360">
        <ele>808.6</ele>
        <time>2022-06-27T15:24:34Z</time>
      </trkpt>
      <trkpt lat="42.4023470" lon="-4.2288670">
        <ele>808.4</ele>
        <time>2022-06-27T15:24:35Z</time>
      </trkpt>
      <trkpt lat="42.4023670" lon="-4.2289970">
        <ele>808.2</ele>
        <time>2022-06-27T15:24:36Z</time>
      </trkpt>
      <trkpt lat="42.4023880" lon="-4.2291250">
        <ele>808.2</ele>
        <time>2022-06-27T15:24:37Z</time>
      </trkpt>
      <trkpt lat="42.4024060" lon="-4.2292560">
        <ele>808.2</ele>
        <time>2022-06-27T15:24:38Z</time>
      </trkpt>
      <trkpt lat="42.4024250" lon="-4.2293870">
        <ele>808.2</ele>
        <time>2022-06-27T15:24:39Z</time>
      </trkpt>
      <trkpt lat="42.4024400" lon="-4.2295210">
        <ele>808.2</ele>
        <time>2022-06-27T15:24:40Z</time>
      </trkpt>
      <trkpt lat="42.4024530" lon="-4.2296560">
        <ele>808.2</ele>
        <time>2022-06-27T15:24:41Z</time>
      </trkpt>
      <trkpt lat="42.4024650" lon="-4.2297870">
        <ele>808.2</ele>
        <time>2022-06-27T15:24:42Z</time>
      </trkpt>
      <trkpt lat="42.4024740" lon="-4.2299220">
        <ele>808.2</ele>
        <time>2022-06-27T15:24:43Z</time>
      </trkpt>
      <trkpt lat="42.4024820" lon="-4.2300590">
        <ele>808.2</ele>
        <time>2022-06-27T15:24:44Z</time>
      </trkpt>
      <trkpt lat="42.4024910" lon="-4.2301960">
        <ele>808.2</ele>
        <time>2022-06-27T15:24:45Z</time>
      </trkpt>
      <trkpt lat="42.4024980" lon="-4.2303330">
        <ele>808.2</ele>
        <time>2022-06-27T15:24:46Z</time>
      </trkpt>
      <trkpt lat="42.4025040" lon="-4.2304710">
        <ele>808.2</ele>
        <time>2022-06-27T15:24:47Z</time>
      </trkpt>
      <trkpt lat="42.4025080" lon="-4.2306110">
        <ele>808.2</ele>
        <time>2022-06-27T15:24:48Z</time>
      </trkpt>
      <trkpt lat="42.4025100" lon="-4.2307520">
        <ele>808.2</ele>
        <time>2022-06-27T15:24:49Z</time>
      </trkpt>
      <trkpt lat="42.4025150" lon="-4.2308910">
        <ele>807.8</ele>
        <time>2022-06-27T15:24:50Z</time>
      </trkpt>
      <trkpt lat="42.4025220" lon="-4.2310570">
        <ele>807.6</ele>
        <time>2022-06-27T15:24:51Z</time>
      </trkpt>
      <trkpt lat="42.4025270" lon="-4.2311660">
        <ele>807.6</ele>
        <time>2022-06-27T15:24:52Z</time>
      </trkpt>
      <trkpt lat="42.4025310" lon="-4.2313030">
        <ele>807.4</ele>
        <time>2022-06-27T15:24:53Z</time>
      </trkpt>
      <trkpt lat="42.4025370" lon="-4.2314380">
        <ele>807.4</ele>
        <time>2022-06-27T15:24:54Z</time>
      </trkpt>
      <trkpt lat="42.4025440" lon="-4.2315710">
        <ele>807.4</ele>
        <time>2022-06-27T15:24:55Z</time>
      </trkpt>
      <trkpt lat="42.4025500" lon="-4.2317060">
        <ele>807.2</ele>
        <time>2022-06-27T15:24:56Z</time>
      </trkpt>
      <trkpt lat="42.4025540" lon="-4.2318410">
        <ele>807.0</ele>
        <time>2022-06-27T15:24:57Z</time>
      </trkpt>
      <trkpt lat="42.4025600" lon="-4.2320020">
        <ele>807.0</ele>
        <time>2022-06-27T15:24:58Z</time>
      </trkpt>
      <trkpt lat="42.4025650" lon="-4.2321090">
        <ele>807.0</ele>
        <time>2022-06-27T15:24:59Z</time>
      </trkpt>
      <trkpt lat="42.4025710" lon="-4.2322720">
        <ele>807.4</ele>
        <time>2022-06-27T15:25:00Z</time>
      </trkpt>
      <trkpt lat="42.4025760" lon="-4.2323820">
        <ele>807.4</ele>
        <time>2022-06-27T15:25:01Z</time>
      </trkpt>
      <trkpt lat="42.4025810" lon="-4.2325200">
        <ele>807.6</ele>
        <time>2022-06-27T15:25:02Z</time>
      </trkpt>
      <trkpt lat="42.4025860" lon="-4.2326850">
        <ele>807.6</ele>
        <time>2022-06-27T15:25:03Z</time>
      </trkpt>
      <trkpt lat="42.4025910" lon="-4.2327970">
        <ele>807.6</ele>
        <time>2022-06-27T15:25:04Z</time>
      </trkpt>
      <trkpt lat="42.4025950" lon="-4.2329630">
        <ele>807.4</ele>
        <time>2022-06-27T15:25:05Z</time>
      </trkpt>
      <trkpt lat="42.4025990" lon="-4.2330740">
        <ele>807.2</ele>
        <time>2022-06-27T15:25:06Z</time>
      </trkpt>
      <trkpt lat="42.4026040" lon="-4.2332130">
        <ele>807.4</ele>
        <time>2022-06-27T15:25:07Z</time>
      </trkpt>
      <trkpt lat="42.4026110" lon="-4.2333510">
        <ele>807.4</ele>
        <time>2022-06-27T15:25:08Z</time>
      </trkpt>
      <trkpt lat="42.4026170" lon="-4.2335200">
        <ele>807.4</ele>
        <time>2022-06-27T15:25:09Z</time>
      </trkpt>
      <trkpt lat="42.4026200" lon="-4.2336330">
        <ele>807.2</ele>
        <time>2022-06-27T15:25:10Z</time>
      </trkpt>
      <trkpt lat="42.4026230" lon="-4.2337730">
        <ele>807.2</ele>
        <time>2022-06-27T15:25:11Z</time>
      </trkpt>
      <trkpt lat="42.4026300" lon="-4.2339380">
        <ele>807.2</ele>
        <time>2022-06-27T15:25:12Z</time>
      </trkpt>
      <trkpt lat="42.4026350" lon="-4.2340770">
        <ele>807.0</ele>
        <time>2022-06-27T15:25:13Z</time>
      </trkpt>
      <trkpt lat="42.4026400" lon="-4.2341860">
        <ele>806.8</ele>
        <time>2022-06-27T15:25:14Z</time>
      </trkpt>
      <trkpt lat="42.4026460" lon="-4.2343230">
        <ele>806.8</ele>
        <time>2022-06-27T15:25:15Z</time>
      </trkpt>
      <trkpt lat="42.4026510" lon="-4.2344610">
        <ele>807.0</ele>
        <time>2022-06-27T15:25:16Z</time>
      </trkpt>
      <trkpt lat="42.4026550" lon="-4.2345970">
        <ele>806.8</ele>
        <time>2022-06-27T15:25:17Z</time>
      </trkpt>
      <trkpt lat="42.4026620" lon="-4.2347570">
        <ele>806.6</ele>
        <time>2022-06-27T15:25:18Z</time>
      </trkpt>
      <trkpt lat="42.4026660" lon="-4.2348920">
        <ele>806.6</ele>
        <time>2022-06-27T15:25:19Z</time>
      </trkpt>
      <trkpt lat="42.4026700" lon="-4.2349980">
        <ele>806.8</ele>
        <time>2022-06-27T15:25:20Z</time>
      </trkpt>
      <trkpt lat="42.4026740" lon="-4.2351310">
        <ele>806.8</ele>
        <time>2022-06-27T15:25:21Z</time>
      </trkpt>
      <trkpt lat="42.4026790" lon="-4.2352610">
        <ele>806.8</ele>
        <time>2022-06-27T15:25:22Z</time>
      </trkpt>
      <trkpt lat="42.4026860" lon="-4.2354140">
        <ele>806.8</ele>
        <time>2022-06-27T15:25:23Z</time>
      </trkpt>
      <trkpt lat="42.4026920" lon="-4.2355150">
        <ele>807.0</ele>
        <time>2022-06-27T15:25:24Z</time>
      </trkpt>
      <trkpt lat="42.4026980" lon="-4.2356440">
        <ele>807.0</ele>
        <time>2022-06-27T15:25:25Z</time>
      </trkpt>
      <trkpt lat="42.4027030" lon="-4.2357950">
        <ele>807.0</ele>
        <time>2022-06-27T15:25:26Z</time>
      </trkpt>
      <trkpt lat="42.4027090" lon="-4.2359180">
        <ele>806.8</ele>
        <time>2022-06-27T15:25:27Z</time>
      </trkpt>
      <trkpt lat="42.4027100" lon="-4.2360170">
        <ele>806.8</ele>
        <time>2022-06-27T15:25:28Z</time>
      </trkpt>
      <trkpt lat="42.4027130" lon="-4.2361360">
        <ele>806.8</ele>
        <time>2022-06-27T15:25:29Z</time>
      </trkpt>
      <trkpt lat="42.4027160" lon="-4.2362530">
        <ele>807.0</ele>
        <time>2022-06-27T15:25:30Z</time>
      </trkpt>
      <trkpt lat="42.4027230" lon="-4.2363870">
        <ele>807.0</ele>
        <time>2022-06-27T15:25:31Z</time>
      </trkpt>
      <trkpt lat="42.4027260" lon="-4.2364760">
        <ele>807.0</ele>
        <time>2022-06-27T15:25:32Z</time>
      </trkpt>
      <trkpt lat="42.4027290" lon="-4.2365830">
        <ele>807.0</ele>
        <time>2022-06-27T15:25:33Z</time>
      </trkpt>
      <trkpt lat="42.4027320" lon="-4.2366900">
        <ele>807.2</ele>
        <time>2022-06-27T15:25:34Z</time>
      </trkpt>
      <trkpt lat="42.4027360" lon="-4.2368160">
        <ele>807.4</ele>
        <time>2022-06-27T15:25:35Z</time>
      </trkpt>
      <trkpt lat="42.4027390" lon="-4.2368990">
        <ele>807.4</ele>
        <time>2022-06-27T15:25:36Z</time>
      </trkpt>
      <trkpt lat="42.4027460" lon="-4.2370220">
        <ele>807.8</ele>
        <time>2022-06-27T15:25:37Z</time>
      </trkpt>
      <trkpt lat="42.4027500" lon="-4.2371040">
        <ele>807.8</ele>
        <time>2022-06-27T15:25:38Z</time>
      </trkpt>
      <trkpt lat="42.4027580" lon="-4.2372030">
        <ele>808.2</ele>
        <time>2022-06-27T15:25:39Z</time>
      </trkpt>
      <trkpt lat="42.4027640" lon="-4.2373200">
        <ele>808.8</ele>
        <time>2022-06-27T15:25:40Z</time>
      </trkpt>
      <trkpt lat="42.4027670" lon="-4.2374210">
        <ele>809.4</ele>
        <time>2022-06-27T15:25:41Z</time>
      </trkpt>
      <trkpt lat="42.4027700" lon="-4.2375010">
        <ele>809.8</ele>
        <time>2022-06-27T15:25:42Z</time>
      </trkpt>
      <trkpt lat="42.4027740" lon="-4.2375990">
        <ele>809.8</ele>
        <time>2022-06-27T15:25:43Z</time>
      </trkpt>
      <trkpt lat="42.4027790" lon="-4.2376970">
        <ele>810.2</ele>
        <time>2022-06-27T15:25:44Z</time>
      </trkpt>
      <trkpt lat="42.4027850" lon="-4.2377930">
        <ele>810.2</ele>
        <time>2022-06-27T15:25:45Z</time>
      </trkpt>
      <trkpt lat="42.4027900" lon="-4.2379050">
        <ele>810.4</ele>
        <time>2022-06-27T15:25:46Z</time>
      </trkpt>
      <trkpt lat="42.4027920" lon="-4.2380010">
        <ele>810.4</ele>
        <time>2022-06-27T15:25:47Z</time>
      </trkpt>
      <trkpt lat="42.4027940" lon="-4.2380760">
        <ele>810.6</ele>
        <time>2022-06-27T15:25:48Z</time>
      </trkpt>
      <trkpt lat="42.4027960" lon="-4.2381900">
        <ele>811.0</ele>
        <time>2022-06-27T15:25:49Z</time>
      </trkpt>
      <trkpt lat="42.4027980" lon="-4.2382650">
        <ele>811.0</ele>
        <time>2022-06-27T15:25:50Z</time>
      </trkpt>
      <trkpt lat="42.4028020" lon="-4.2383590">
        <ele>811.4</ele>
        <time>2022-06-27T15:25:51Z</time>
      </trkpt>
      <trkpt lat="42.4028040" lon="-4.2384540">
        <ele>811.6</ele>
        <time>2022-06-27T15:25:52Z</time>
      </trkpt>
      <trkpt lat="42.4028040" lon="-4.2385490">
        <ele>812.0</ele>
        <time>2022-06-27T15:25:53Z</time>
      </trkpt>
      <trkpt lat="42.4028080" lon="-4.2386550">
        <ele>812.2</ele>
        <time>2022-06-27T15:25:54Z</time>
      </trkpt>
      <trkpt lat="42.4028110" lon="-4.2387450">
        <ele>812.4</ele>
        <time>2022-06-27T15:25:55Z</time>
      </trkpt>
      <trkpt lat="42.4028130" lon="-4.2388350">
        <ele>812.6</ele>
        <time>2022-06-27T15:25:56Z</time>
      </trkpt>
      <trkpt lat="42.4028170" lon="-4.2389050">
        <ele>813.0</ele>
        <time>2022-06-27T15:25:57Z</time>
      </trkpt>
      <trkpt lat="42.4028200" lon="-4.2389910">
        <ele>813.4</ele>
        <time>2022-06-27T15:25:58Z</time>
      </trkpt>
      <trkpt lat="42.4028240" lon="-4.2390930">
        <ele>813.4</ele>
        <time>2022-06-27T15:25:59Z</time>
      </trkpt>
      <trkpt lat="42.4028280" lon="-4.2391810">
        <ele>813.6</ele>
        <time>2022-06-27T15:26:00Z</time>
      </trkpt>
      <trkpt lat="42.4028320" lon="-4.2392470">
        <ele>813.8</ele>
        <time>2022-06-27T15:26:01Z</time>
      </trkpt>
      <trkpt lat="42.4028360" lon="-4.2393280">
        <ele>814.4</ele>
        <time>2022-06-27T15:26:02Z</time>
      </trkpt>
      <trkpt lat="42.4028380" lon="-4.2394130">
        <ele>814.6</ele>
        <time>2022-06-27T15:26:03Z</time>
      </trkpt>
      <trkpt lat="42.4028400" lon="-4.2394980">
        <ele>814.8</ele>
        <time>2022-06-27T15:26:04Z</time>
      </trkpt>
      <trkpt lat="42.4028440" lon="-4.2395980">
        <ele>815.0</ele>
        <time>2022-06-27T15:26:05Z</time>
      </trkpt>
      <trkpt lat="42.4028470" lon="-4.2396630">
        <ele>815.2</ele>
        <time>2022-06-27T15:26:06Z</time>
      </trkpt>
      <trkpt lat="42.4028480" lon="-4.2397460">
        <ele>815.8</ele>
        <time>2022-06-27T15:26:07Z</time>
      </trkpt>
      <trkpt lat="42.4028520" lon="-4.2398460">
        <ele>816.0</ele>
        <time>2022-06-27T15:26:08Z</time>
      </trkpt>
      <trkpt lat="42.4028540" lon="-4.2399340">
        <ele>816.2</ele>
        <time>2022-06-27T15:26:09Z</time>
      </trkpt>
      <trkpt lat="42.4028560" lon="-4.2400030">
        <ele>816.4</ele>
        <time>2022-06-27T15:26:10Z</time>
      </trkpt>
      <trkpt lat="42.4028570" lon="-4.2400900">
        <ele>816.6</ele>
        <time>2022-06-27T15:26:11Z</time>
      </trkpt>
      <trkpt lat="42.4028580" lon="-4.2401790">
        <ele>816.8</ele>
        <time>2022-06-27T15:26:12Z</time>
      </trkpt>
      <trkpt lat="42.4028580" lon="-4.2402680">
        <ele>817.0</ele>
        <time>2022-06-27T15:26:13Z</time>
      </trkpt>
      <trkpt lat="42.4028600" lon="-4.2403710">
        <ele>817.2</ele>
        <time>2022-06-27T15:26:14Z</time>
      </trkpt>
      <trkpt lat="42.4028630" lon="-4.2404430">
        <ele>817.4</ele>
        <time>2022-06-27T15:26:15Z</time>
      </trkpt>
      <trkpt lat="42.4028650" lon="-4.2405330">
        <ele>817.8</ele>
        <time>2022-06-27T15:26:16Z</time>
      </trkpt>
      <trkpt lat="42.4028690" lon="-4.2406440">
        <ele>818.0</ele>
        <time>2022-06-27T15:26:17Z</time>
      </trkpt>
      <trkpt lat="42.4028740" lon="-4.2407340">
        <ele>818.0</ele>
        <time>2022-06-27T15:26:18Z</time>
      </trkpt>
      <trkpt lat="42.4028780" lon="-4.2408070">
        <ele>818.2</ele>
        <time>2022-06-27T15:26:19Z</time>
      </trkpt>
      <trkpt lat="42.4028830" lon="-4.2409050">
        <ele>818.4</ele>
        <time>2022-06-27T15:26:20Z</time>
      </trkpt>
      <trkpt lat="42.4028840" lon="-4.2410090">
        <ele>818.4</ele>
        <time>2022-06-27T15:26:21Z</time>
      </trkpt>
      <trkpt lat="42.4028860" lon="-4.2411110">
        <ele>818.4</ele>
        <time>2022-06-27T15:26:22Z</time>
      </trkpt>
      <trkpt lat="42.4028900" lon="-4.2412350">
        <ele>818.4</ele>
        <time>2022-06-27T15:26:23Z</time>
      </trkpt>
      <trkpt lat="42.4028920" lon="-4.2413190">
        <ele>818.4</ele>
        <time>2022-06-27T15:26:24Z</time>
      </trkpt>
      <trkpt lat="42.4028960" lon="-4.2414260">
        <ele>818.4</ele>
        <time>2022-06-27T15:26:25Z</time>
      </trkpt>
      <trkpt lat="42.4029040" lon="-4.2415290">
        <ele>818.4</ele>
        <time>2022-06-27T15:26:26Z</time>
      </trkpt>
      <trkpt lat="42.4029100" lon="-4.2416350">
        <ele>818.4</ele>
        <time>2022-06-27T15:26:27Z</time>
      </trkpt>
      <trkpt lat="42.4029170" lon="-4.2417600">
        <ele>818.4</ele>
        <time>2022-06-27T15:26:28Z</time>
      </trkpt>
      <trkpt lat="42.4029200" lon="-4.2418440">
        <ele>818.4</ele>
        <time>2022-06-27T15:26:29Z</time>
      </trkpt>
      <trkpt lat="42.4029240" lon="-4.2419490">
        <ele>818.2</ele>
        <time>2022-06-27T15:26:30Z</time>
      </trkpt>
      <trkpt lat="42.4029270" lon="-4.2420760">
        <ele>818.2</ele>
        <time>2022-06-27T15:26:31Z</time>
      </trkpt>
      <trkpt lat="42.4029330" lon="-4.2421860">
        <ele>818.2</ele>
        <time>2022-06-27T15:26:32Z</time>
      </trkpt>
      <trkpt lat="42.4029340" lon="-4.2422740">
        <ele>818.2</ele>
        <time>2022-06-27T15:26:33Z</time>
      </trkpt>
      <trkpt lat="42.4029340" lon="-4.2423830">
        <ele>818.0</ele>
        <time>2022-06-27T15:26:34Z</time>
      </trkpt>
      <trkpt lat="42.4029340" lon="-4.2424920">
        <ele>818.0</ele>
        <time>2022-06-27T15:26:35Z</time>
      </trkpt>
      <trkpt lat="42.4029350" lon="-4.2426000">
        <ele>817.8</ele>
        <time>2022-06-27T15:26:36Z</time>
      </trkpt>
      <trkpt lat="42.4029400" lon="-4.2427230">
        <ele>817.8</ele>
        <time>2022-06-27T15:26:37Z</time>
      </trkpt>
      <trkpt lat="42.4029440" lon="-4.2427970">
        <ele>817.8</ele>
        <time>2022-06-27T15:26:38Z</time>
      </trkpt>
      <trkpt lat="42.4029470" lon="-4.2428780">
        <ele>817.8</ele>
        <time>2022-06-27T15:26:39Z</time>
      </trkpt>
      <trkpt lat="42.4029510" lon="-4.2429390">
        <ele>817.6</ele>
        <time>2022-06-27T15:26:40Z</time>
      </trkpt>
      <trkpt lat="42.4029490" lon="-4.2429850">
        <ele>817.6</ele>
        <time>2022-06-27T15:26:41Z</time>
      </trkpt>
      <trkpt lat="42.4029360" lon="-4.2430400">
        <ele>817.4</ele>
        <time>2022-06-27T15:26:42Z</time>
      </trkpt>
      <trkpt lat="42.4029260" lon="-4.2430780">
        <ele>817.4</ele>
        <time>2022-06-27T15:26:43Z</time>
      </trkpt>
      <trkpt lat="42.4029060" lon="-4.2431310">
        <ele>817.2</ele>
        <time>2022-06-27T15:26:44Z</time>
      </trkpt>
      <trkpt lat="42.4028740" lon="-4.2431870">
        <ele>817.2</ele>
        <time>2022-06-27T15:26:45Z</time>
      </trkpt>
      <trkpt lat="42.4028320" lon="-4.2432450">
        <ele>817.2</ele>
        <time>2022-06-27T15:26:46Z</time>
      </trkpt>
      <trkpt lat="42.4027840" lon="-4.2433010">
        <ele>817.0</ele>
        <time>2022-06-27T15:26:47Z</time>
      </trkpt>
      <trkpt lat="42.4027340" lon="-4.2433590">
        <ele>817.0</ele>
        <time>2022-06-27T15:26:48Z</time>
      </trkpt>
      <trkpt lat="42.4026850" lon="-4.2434220">
        <ele>817.0</ele>
        <time>2022-06-27T15:26:49Z</time>
      </trkpt>
      <trkpt lat="42.4026380" lon="-4.2434920">
        <ele>817.0</ele>
        <time>2022-06-27T15:26:50Z</time>
      </trkpt>
      <trkpt lat="42.4025760" lon="-4.2435810">
        <ele>816.8</ele>
        <time>2022-06-27T15:26:51Z</time>
      </trkpt>
      <trkpt lat="42.4025350" lon="-4.2436450">
        <ele>816.6</ele>
        <time>2022-06-27T15:26:52Z</time>
      </trkpt>
      <trkpt lat="42.4024840" lon="-4.2437230">
        <ele>816.4</ele>
        <time>2022-06-27T15:26:53Z</time>
      </trkpt>
      <trkpt lat="42.4024200" lon="-4.2438120">
        <ele>816.2</ele>
        <time>2022-06-27T15:26:54Z</time>
      </trkpt>
      <trkpt lat="42.4023660" lon="-4.2438880">
        <ele>816.2</ele>
        <time>2022-06-27T15:26:55Z</time>
      </trkpt>
      <trkpt lat="42.4023220" lon="-4.2439510">
        <ele>816.0</ele>
        <time>2022-06-27T15:26:56Z</time>
      </trkpt>
      <trkpt lat="42.4022720" lon="-4.2440340">
        <ele>816.0</ele>
        <time>2022-06-27T15:26:57Z</time>
      </trkpt>
      <trkpt lat="42.4022220" lon="-4.2441220">
        <ele>816.0</ele>
        <time>2022-06-27T15:26:58Z</time>
      </trkpt>
      <trkpt lat="42.4021740" lon="-4.2442110">
        <ele>815.8</ele>
        <time>2022-06-27T15:26:59Z</time>
      </trkpt>
      <trkpt lat="42.4021150" lon="-4.2443190">
        <ele>815.6</ele>
        <time>2022-06-27T15:27:00Z</time>
      </trkpt>
      <trkpt lat="42.4020690" lon="-4.2444120">
        <ele>815.6</ele>
        <time>2022-06-27T15:27:01Z</time>
      </trkpt>
      <trkpt lat="42.4020380" lon="-4.2444910">
        <ele>815.6</ele>
        <time>2022-06-27T15:27:02Z</time>
      </trkpt>
      <trkpt lat="42.4020050" lon="-4.2445960">
        <ele>815.2</ele>
        <time>2022-06-27T15:27:03Z</time>
      </trkpt>
      <trkpt lat="42.4019780" lon="-4.2447030">
        <ele>815.2</ele>
        <time>2022-06-27T15:27:04Z</time>
      </trkpt>
      <trkpt lat="42.4019560" lon="-4.2448110">
        <ele>815.0</ele>
        <time>2022-06-27T15:27:05Z</time>
      </trkpt>
      <trkpt lat="42.4019400" lon="-4.2449190">
        <ele>814.6</ele>
        <time>2022-06-27T15:27:06Z</time>
      </trkpt>
      <trkpt lat="42.4019260" lon="-4.2450300">
        <ele>814.6</ele>
        <time>2022-06-27T15:27:07Z</time>
      </trkpt>
      <trkpt lat="42.4019160" lon="-4.2451410">
        <ele>814.4</ele>
        <time>2022-06-27T15:27:08Z</time>
      </trkpt>
      <trkpt lat="42.4019020" lon="-4.2452790">
        <ele>814.4</ele>
        <time>2022-06-27T15:27:09Z</time>
      </trkpt>
      <trkpt lat="42.4018960" lon="-4.2453740">
        <ele>814.2</ele>
        <time>2022-06-27T15:27:10Z</time>
      </trkpt>
      <trkpt lat="42.4018880" lon="-4.2454940">
        <ele>814.2</ele>
        <time>2022-06-27T15:27:11Z</time>
      </trkpt>
      <trkpt lat="42.4018790" lon="-4.2456150">
        <ele>814.2</ele>
        <time>2022-06-27T15:27:12Z</time>
      </trkpt>
      <trkpt lat="42.4018690" lon="-4.2457340">
        <ele>814.0</ele>
        <time>2022-06-27T15:27:13Z</time>
      </trkpt>
      <trkpt lat="42.4018630" lon="-4.2458790">
        <ele>814.0</ele>
        <time>2022-06-27T15:27:14Z</time>
      </trkpt>
      <trkpt lat="42.4018610" lon="-4.2460000">
        <ele>814.2</ele>
        <time>2022-06-27T15:27:15Z</time>
      </trkpt>
      <trkpt lat="42.4018620" lon="-4.2460970">
        <ele>814.2</ele>
        <time>2022-06-27T15:27:16Z</time>
      </trkpt>
      <trkpt lat="42.4018640" lon="-4.2462180">
        <ele>814.0</ele>
        <time>2022-06-27T15:27:17Z</time>
      </trkpt>
      <trkpt lat="42.4018700" lon="-4.2463360">
        <ele>814.0</ele>
        <time>2022-06-27T15:27:18Z</time>
      </trkpt>
      <trkpt lat="42.4018830" lon="-4.2464770">
        <ele>814.0</ele>
        <time>2022-06-27T15:27:19Z</time>
      </trkpt>
      <trkpt lat="42.4018970" lon="-4.2465680">
        <ele>813.8</ele>
        <time>2022-06-27T15:27:20Z</time>
      </trkpt>
      <trkpt lat="42.4019160" lon="-4.2466830">
        <ele>813.8</ele>
        <time>2022-06-27T15:27:21Z</time>
      </trkpt>
      <trkpt lat="42.4019370" lon="-4.2468210">
        <ele>813.8</ele>
        <time>2022-06-27T15:27:22Z</time>
      </trkpt>
      <trkpt lat="42.4019530" lon="-4.2469390">
        <ele>813.8</ele>
        <time>2022-06-27T15:27:23Z</time>
      </trkpt>
      <trkpt lat="42.4019650" lon="-4.2470350">
        <ele>813.6</ele>
        <time>2022-06-27T15:27:24Z</time>
      </trkpt>
      <trkpt lat="42.4019850" lon="-4.2471500">
        <ele>813.4</ele>
        <time>2022-06-27T15:27:25Z</time>
      </trkpt>
      <trkpt lat="42.4020040" lon="-4.2472660">
        <ele>813.4</ele>
        <time>2022-06-27T15:27:26Z</time>
      </trkpt>
      <trkpt lat="42.4020220" lon="-4.2473860">
        <ele>813.2</ele>
        <time>2022-06-27T15:27:27Z</time>
      </trkpt>
      <trkpt lat="42.4020410" lon="-4.2475060">
        <ele>813.2</ele>
        <time>2022-06-27T15:27:28Z</time>
      </trkpt>
      <trkpt lat="42.4020590" lon="-4.2476290">
        <ele>813.2</ele>
        <time>2022-06-27T15:27:29Z</time>
      </trkpt>
      <trkpt lat="42.4020790" lon="-4.2477480">
        <ele>813.2</ele>
        <time>2022-06-27T15:27:30Z</time>
      </trkpt>
      <trkpt lat="42.4020990" lon="-4.2478670">
        <ele>813.0</ele>
        <time>2022-06-27T15:27:31Z</time>
      </trkpt>
      <trkpt lat="42.4021210" lon="-4.2480130">
        <ele>813.0</ele>
        <time>2022-06-27T15:27:32Z</time>
      </trkpt>
      <trkpt lat="42.4021390" lon="-4.2481340">
        <ele>813.0</ele>
        <time>2022-06-27T15:27:33Z</time>
      </trkpt>
      <trkpt lat="42.4021540" lon="-4.2482300">
        <ele>813.0</ele>
        <time>2022-06-27T15:27:34Z</time>
      </trkpt>
      <trkpt lat="42.4021740" lon="-4.2483540">
        <ele>813.0</ele>
        <time>2022-06-27T15:27:35Z</time>
      </trkpt>
      <trkpt lat="42.4021990" lon="-4.2485020">
        <ele>813.0</ele>
        <time>2022-06-27T15:27:36Z</time>
      </trkpt>
      <trkpt lat="42.4022150" lon="-4.2486020">
        <ele>812.8</ele>
        <time>2022-06-27T15:27:37Z</time>
      </trkpt>
      <trkpt lat="42.4022370" lon="-4.2487530">
        <ele>812.8</ele>
        <time>2022-06-27T15:27:38Z</time>
      </trkpt>
      <trkpt lat="42.4022530" lon="-4.2488490">
        <ele>812.8</ele>
        <time>2022-06-27T15:27:39Z</time>
      </trkpt>
      <trkpt lat="42.4022730" lon="-4.2489670">
        <ele>812.4</ele>
        <time>2022-06-27T15:27:40Z</time>
      </trkpt>
      <trkpt lat="42.4022970" lon="-4.2491120">
        <ele>812.2</ele>
        <time>2022-06-27T15:27:41Z</time>
      </trkpt>
      <trkpt lat="42.4023120" lon="-4.2492100">
        <ele>812.0</ele>
        <time>2022-06-27T15:27:42Z</time>
      </trkpt>
      <trkpt lat="42.4023310" lon="-4.2493320">
        <ele>811.8</ele>
        <time>2022-06-27T15:27:43Z</time>
      </trkpt>
      <trkpt lat="42.4023470" lon="-4.2494550">
        <ele>811.8</ele>
        <time>2022-06-27T15:27:44Z</time>
      </trkpt>
      <trkpt lat="42.4023660" lon="-4.2495770">
        <ele>811.8</ele>
        <time>2022-06-27T15:27:45Z</time>
      </trkpt>
      <trkpt lat="42.4023850" lon="-4.2497010">
        <ele>811.8</ele>
        <time>2022-06-27T15:27:46Z</time>
      </trkpt>
      <trkpt lat="42.4024100" lon="-4.2498450">
        <ele>811.8</ele>
        <time>2022-06-27T15:27:47Z</time>
      </trkpt>
      <trkpt lat="42.4024280" lon="-4.2499400">
        <ele>811.8</ele>
        <time>2022-06-27T15:27:48Z</time>
      </trkpt>
      <trkpt lat="42.4024460" lon="-4.2500620">
        <ele>811.6</ele>
        <time>2022-06-27T15:27:49Z</time>
      </trkpt>
      <trkpt lat="42.4024600" lon="-4.2501820">
        <ele>811.6</ele>
        <time>2022-06-27T15:27:50Z</time>
      </trkpt>
      <trkpt lat="42.4024590" lon="-4.2503310">
        <ele>811.6</ele>
        <time>2022-06-27T15:27:51Z</time>
      </trkpt>
      <trkpt lat="42.4024400" lon="-4.2504300">
        <ele>811.4</ele>
        <time>2022-06-27T15:27:52Z</time>
      </trkpt>
      <trkpt lat="42.4024000" lon="-4.2505450">
        <ele>811.4</ele>
        <time>2022-06-27T15:27:53Z</time>
      </trkpt>
      <trkpt lat="42.4023440" lon="-4.2506470">
        <ele>811.2</ele>
        <time>2022-06-27T15:27:54Z</time>
      </trkpt>
      <trkpt lat="42.4022700" lon="-4.2507370">
        <ele>811.2</ele>
        <time>2022-06-27T15:27:55Z</time>
      </trkpt>
      <trkpt lat="42.4021680" lon="-4.2508260">
        <ele>811.0</ele>
        <time>2022-06-27T15:27:56Z</time>
      </trkpt>
      <trkpt lat="42.4020750" lon="-4.2508810">
        <ele>810.8</ele>
        <time>2022-06-27T15:27:57Z</time>
      </trkpt>
      <trkpt lat="42.4019970" lon="-4.2509150">
        <ele>810.6</ele>
        <time>2022-06-27T15:27:58Z</time>
      </trkpt>
      <trkpt lat="42.4019000" lon="-4.2509570">
        <ele>810.2</ele>
        <time>2022-06-27T15:27:59Z</time>
      </trkpt>
      <trkpt lat="42.4017850" lon="-4.2510170">
        <ele>810.0</ele>
        <time>2022-06-27T15:28:00Z</time>
      </trkpt>
      <trkpt lat="42.4016930" lon="-4.2510870">
        <ele>809.4</ele>
        <time>2022-06-27T15:28:01Z</time>
      </trkpt>
      <trkpt lat="42.4016300" lon="-4.2511600">
        <ele>809.0</ele>
        <time>2022-06-27T15:28:02Z</time>
      </trkpt>
      <trkpt lat="42.4015750" lon="-4.2512620">
        <ele>808.0</ele>
        <time>2022-06-27T15:28:03Z</time>
      </trkpt>
      <trkpt lat="42.4015510" lon="-4.2513780">
        <ele>807.6</ele>
        <time>2022-06-27T15:28:04Z</time>
      </trkpt>
      <trkpt lat="42.4015640" lon="-4.2515250">
        <ele>807.4</ele>
        <time>2022-06-27T15:28:05Z</time>
      </trkpt>
      <trkpt lat="42.4016030" lon="-4.2516220">
        <ele>806.8</ele>
        <time>2022-06-27T15:28:06Z</time>
      </trkpt>
      <trkpt lat="42.4016580" lon="-4.2517390">
        <ele>806.6</ele>
        <time>2022-06-27T15:28:07Z</time>
      </trkpt>
      <trkpt lat="42.4017140" lon="-4.2518570">
        <ele>805.6</ele>
        <time>2022-06-27T15:28:08Z</time>
      </trkpt>
      <trkpt lat="42.4017720" lon="-4.2519730">
        <ele>805.4</ele>
        <time>2022-06-27T15:28:09Z</time>
      </trkpt>
      <trkpt lat="42.4018300" lon="-4.2520850">
        <ele>804.4</ele>
        <time>2022-06-27T15:28:10Z</time>
      </trkpt>
      <trkpt lat="42.4018850" lon="-4.2521940">
        <ele>804.2</ele>
        <time>2022-06-27T15:28:11Z</time>
      </trkpt>
      <trkpt lat="42.4019390" lon="-4.2522990">
        <ele>804.0</ele>
        <time>2022-06-27T15:28:12Z</time>
      </trkpt>
      <trkpt lat="42.4019900" lon="-4.2524040">
        <ele>803.8</ele>
        <time>2022-06-27T15:28:13Z</time>
      </trkpt>
      <trkpt lat="42.4020390" lon="-4.2525070">
        <ele>803.8</ele>
        <time>2022-06-27T15:28:14Z</time>
      </trkpt>
      <trkpt lat="42.4020880" lon="-4.2526030">
        <ele>803.6</ele>
        <time>2022-06-27T15:28:15Z</time>
      </trkpt>
      <trkpt lat="42.4021370" lon="-4.2527000">
        <ele>803.6</ele>
        <time>2022-06-27T15:28:16Z</time>
      </trkpt>
      <trkpt lat="42.4021840" lon="-4.2527960">
        <ele>803.4</ele>
        <time>2022-06-27T15:28:17Z</time>
      </trkpt>
      <trkpt lat="42.4022380" lon="-4.2529120">
        <ele>803.4</ele>
        <time>2022-06-27T15:28:18Z</time>
      </trkpt>
      <trkpt lat="42.4022770" lon="-4.2529900">
        <ele>803.2</ele>
        <time>2022-06-27T15:28:19Z</time>
      </trkpt>
      <trkpt lat="42.4023350" lon="-4.2531060">
        <ele>803.0</ele>
        <time>2022-06-27T15:28:20Z</time>
      </trkpt>
      <trkpt lat="42.4023750" lon="-4.2531830">
        <ele>803.0</ele>
        <time>2022-06-27T15:28:21Z</time>
      </trkpt>
      <trkpt lat="42.4024240" lon="-4.2532820">
        <ele>803.2</ele>
        <time>2022-06-27T15:28:22Z</time>
      </trkpt>
      <trkpt lat="42.4024810" lon="-4.2534010">
        <ele>803.2</ele>
        <time>2022-06-27T15:28:23Z</time>
      </trkpt>
      <trkpt lat="42.4025290" lon="-4.2534960">
        <ele>803.0</ele>
        <time>2022-06-27T15:28:24Z</time>
      </trkpt>
      <trkpt lat="42.4025660" lon="-4.2535720">
        <ele>803.2</ele>
        <time>2022-06-27T15:28:25Z</time>
      </trkpt>
      <trkpt lat="42.4026130" lon="-4.2536700">
        <ele>803.2</ele>
        <time>2022-06-27T15:28:26Z</time>
      </trkpt>
      <trkpt lat="42.4026630" lon="-4.2537700">
        <ele>803.2</ele>
        <time>2022-06-27T15:28:27Z</time>
      </trkpt>
      <trkpt lat="42.4027100" lon="-4.2538750">
        <ele>803.2</ele>
        <time>2022-06-27T15:28:28Z</time>
      </trkpt>
      <trkpt lat="42.4027640" lon="-4.2540040">
        <ele>803.2</ele>
        <time>2022-06-27T15:28:29Z</time>
      </trkpt>
      <trkpt lat="42.4027970" lon="-4.2540920">
        <ele>803.2</ele>
        <time>2022-06-27T15:28:30Z</time>
      </trkpt>
      <trkpt lat="42.4028350" lon="-4.2542050">
        <ele>803.2</ele>
        <time>2022-06-27T15:28:31Z</time>
      </trkpt>
      <trkpt lat="42.4028670" lon="-4.2543220">
        <ele>803.0</ele>
        <time>2022-06-27T15:28:32Z</time>
      </trkpt>
      <trkpt lat="42.4028970" lon="-4.2544660">
        <ele>803.0</ele>
        <time>2022-06-27T15:28:33Z</time>
      </trkpt>
      <trkpt lat="42.4029200" lon="-4.2545870">
        <ele>802.6</ele>
        <time>2022-06-27T15:28:34Z</time>
      </trkpt>
      <trkpt lat="42.4029370" lon="-4.2546820">
        <ele>802.6</ele>
        <time>2022-06-27T15:28:35Z</time>
      </trkpt>
      <trkpt lat="42.4029570" lon="-4.2548010">
        <ele>802.2</ele>
        <time>2022-06-27T15:28:36Z</time>
      </trkpt>
      <trkpt lat="42.4029750" lon="-4.2549200">
        <ele>802.0</ele>
        <time>2022-06-27T15:28:37Z</time>
      </trkpt>
      <trkpt lat="42.4030020" lon="-4.2550570">
        <ele>801.8</ele>
        <time>2022-06-27T15:28:38Z</time>
      </trkpt>
      <trkpt lat="42.4030240" lon="-4.2551680">
        <ele>801.6</ele>
        <time>2022-06-27T15:28:39Z</time>
      </trkpt>
      <trkpt lat="42.4030400" lon="-4.2552630">
        <ele>801.6</ele>
        <time>2022-06-27T15:28:40Z</time>
      </trkpt>
      <trkpt lat="42.4030600" lon="-4.2553830">
        <ele>801.4</ele>
        <time>2022-06-27T15:28:41Z</time>
      </trkpt>
      <trkpt lat="42.4030820" lon="-4.2555030">
        <ele>801.4</ele>
        <time>2022-06-27T15:28:42Z</time>
      </trkpt>
      <trkpt lat="42.4031050" lon="-4.2556500">
        <ele>801.2</ele>
        <time>2022-06-27T15:28:43Z</time>
      </trkpt>
      <trkpt lat="42.4031210" lon="-4.2557490">
        <ele>801.0</ele>
        <time>2022-06-27T15:28:44Z</time>
      </trkpt>
      <trkpt lat="42.4031380" lon="-4.2558720">
        <ele>801.0</ele>
        <time>2022-06-27T15:28:45Z</time>
      </trkpt>
      <trkpt lat="42.4031630" lon="-4.2560160">
        <ele>801.0</ele>
        <time>2022-06-27T15:28:46Z</time>
      </trkpt>
      <trkpt lat="42.4031850" lon="-4.2561360">
        <ele>801.0</ele>
        <time>2022-06-27T15:28:47Z</time>
      </trkpt>
      <trkpt lat="42.4032010" lon="-4.2562330">
        <ele>801.0</ele>
        <time>2022-06-27T15:28:48Z</time>
      </trkpt>
      <trkpt lat="42.4032220" lon="-4.2563530">
        <ele>801.0</ele>
        <time>2022-06-27T15:28:49Z</time>
      </trkpt>
      <trkpt lat="42.4032450" lon="-4.2564750">
        <ele>801.0</ele>
        <time>2022-06-27T15:28:50Z</time>
      </trkpt>
      <trkpt lat="42.4032700" lon="-4.2565950">
        <ele>801.0</ele>
        <time>2022-06-27T15:28:51Z</time>
      </trkpt>
      <trkpt lat="42.4032930" lon="-4.2567190">
        <ele>800.8</ele>
        <time>2022-06-27T15:28:52Z</time>
      </trkpt>
      <trkpt lat="42.4033130" lon="-4.2568430">
        <ele>800.8</ele>
        <time>2022-06-27T15:28:53Z</time>
      </trkpt>
      <trkpt lat="42.4033340" lon="-4.2569640">
        <ele>800.8</ele>
        <time>2022-06-27T15:28:54Z</time>
      </trkpt>
      <trkpt lat="42.4033570" lon="-4.2570820">
        <ele>800.8</ele>
        <time>2022-06-27T15:28:55Z</time>
      </trkpt>
      <trkpt lat="42.4033800" lon="-4.2571970">
        <ele>800.8</ele>
        <time>2022-06-27T15:28:56Z</time>
      </trkpt>
      <trkpt lat="42.4034020" lon="-4.2573160">
        <ele>800.6</ele>
        <time>2022-06-27T15:28:57Z</time>
      </trkpt>
      <trkpt lat="42.4034250" lon="-4.2574340">
        <ele>800.6</ele>
        <time>2022-06-27T15:28:58Z</time>
      </trkpt>
      <trkpt lat="42.4034480" lon="-4.2575510">
        <ele>800.6</ele>
        <time>2022-06-27T15:28:59Z</time>
      </trkpt>
      <trkpt lat="42.4034710" lon="-4.2576690">
        <ele>800.6</ele>
        <time>2022-06-27T15:29:00Z</time>
      </trkpt>
      <trkpt lat="42.4034950" lon="-4.2577860">
        <ele>800.6</ele>
        <time>2022-06-27T15:29:01Z</time>
      </trkpt>
      <trkpt lat="42.4035170" lon="-4.2579030">
        <ele>800.4</ele>
        <time>2022-06-27T15:29:02Z</time>
      </trkpt>
      <trkpt lat="42.4035390" lon="-4.2580170">
        <ele>800.4</ele>
        <time>2022-06-27T15:29:03Z</time>
      </trkpt>
      <trkpt lat="42.4035560" lon="-4.2581330">
        <ele>800.4</ele>
        <time>2022-06-27T15:29:04Z</time>
      </trkpt>
      <trkpt lat="42.4035760" lon="-4.2582480">
        <ele>800.4</ele>
        <time>2022-06-27T15:29:05Z</time>
      </trkpt>
      <trkpt lat="42.4036020" lon="-4.2583840">
        <ele>800.2</ele>
        <time>2022-06-27T15:29:06Z</time>
      </trkpt>
      <trkpt lat="42.4036190" lon="-4.2584750">
        <ele>800.2</ele>
        <time>2022-06-27T15:29:07Z</time>
      </trkpt>
      <trkpt lat="42.4036380" lon="-4.2585890">
        <ele>800.2</ele>
        <time>2022-06-27T15:29:08Z</time>
      </trkpt>
      <trkpt lat="42.4036620" lon="-4.2587230">
        <ele>800.2</ele>
        <time>2022-06-27T15:29:09Z</time>
      </trkpt>
      <trkpt lat="42.4036840" lon="-4.2588330">
        <ele>800.2</ele>
        <time>2022-06-27T15:29:10Z</time>
      </trkpt>
      <trkpt lat="42.4037000" lon="-4.2589240">
        <ele>800.2</ele>
        <time>2022-06-27T15:29:11Z</time>
      </trkpt>
      <trkpt lat="42.4037200" lon="-4.2590360">
        <ele>800.2</ele>
        <time>2022-06-27T15:29:12Z</time>
      </trkpt>
      <trkpt lat="42.4037400" lon="-4.2591490">
        <ele>800.6</ele>
        <time>2022-06-27T15:29:13Z</time>
      </trkpt>
      <trkpt lat="42.4037620" lon="-4.2592610">
        <ele>800.8</ele>
        <time>2022-06-27T15:29:14Z</time>
      </trkpt>
      <trkpt lat="42.4037830" lon="-4.2593740">
        <ele>800.8</ele>
        <time>2022-06-27T15:29:15Z</time>
      </trkpt>
      <trkpt lat="42.4038050" lon="-4.2594860">
        <ele>801.0</ele>
        <time>2022-06-27T15:29:16Z</time>
      </trkpt>
      <trkpt lat="42.4038250" lon="-4.2595980">
        <ele>801.0</ele>
        <time>2022-06-27T15:29:17Z</time>
      </trkpt>
      <trkpt lat="42.4038470" lon="-4.2597060">
        <ele>801.0</ele>
        <time>2022-06-27T15:29:18Z</time>
      </trkpt>
      <trkpt lat="42.4038690" lon="-4.2598140">
        <ele>801.0</ele>
        <time>2022-06-27T15:29:19Z</time>
      </trkpt>
      <trkpt lat="42.4038910" lon="-4.2599230">
        <ele>801.0</ele>
        <time>2022-06-27T15:29:20Z</time>
      </trkpt>
      <trkpt lat="42.4039120" lon="-4.2600330">
        <ele>801.0</ele>
        <time>2022-06-27T15:29:21Z</time>
      </trkpt>
      <trkpt lat="42.4039320" lon="-4.2601430">
        <ele>801.0</ele>
        <time>2022-06-27T15:29:22Z</time>
      </trkpt>
      <trkpt lat="42.4039520" lon="-4.2602540">
        <ele>801.0</ele>
        <time>2022-06-27T15:29:23Z</time>
      </trkpt>
      <trkpt lat="42.4039760" lon="-4.2603870">
        <ele>801.0</ele>
        <time>2022-06-27T15:29:24Z</time>
      </trkpt>
      <trkpt lat="42.4039940" lon="-4.2605010">
        <ele>801.0</ele>
        <time>2022-06-27T15:29:25Z</time>
      </trkpt>
      <trkpt lat="42.4040090" lon="-4.2605920">
        <ele>801.0</ele>
        <time>2022-06-27T15:29:26Z</time>
      </trkpt>
      <trkpt lat="42.4040290" lon="-4.2607050">
        <ele>801.0</ele>
        <time>2022-06-27T15:29:27Z</time>
      </trkpt>
      <trkpt lat="42.4040480" lon="-4.2608210">
        <ele>801.0</ele>
        <time>2022-06-27T15:29:28Z</time>
      </trkpt>
      <trkpt lat="42.4040680" lon="-4.2609350">
        <ele>801.0</ele>
        <time>2022-06-27T15:29:29Z</time>
      </trkpt>
      <trkpt lat="42.4040920" lon="-4.2610740">
        <ele>801.0</ele>
        <time>2022-06-27T15:29:30Z</time>
      </trkpt>
      <trkpt lat="42.4041080" lon="-4.2611660">
        <ele>800.8</ele>
        <time>2022-06-27T15:29:31Z</time>
      </trkpt>
      <trkpt lat="42.4041270" lon="-4.2612820">
        <ele>800.8</ele>
        <time>2022-06-27T15:29:32Z</time>
      </trkpt>
      <trkpt lat="42.4041510" lon="-4.2614230">
        <ele>800.8</ele>
        <time>2022-06-27T15:29:33Z</time>
      </trkpt>
      <trkpt lat="42.4041730" lon="-4.2615410">
        <ele>800.8</ele>
        <time>2022-06-27T15:29:34Z</time>
      </trkpt>
      <trkpt lat="42.4041900" lon="-4.2616360">
        <ele>800.8</ele>
        <time>2022-06-27T15:29:35Z</time>
      </trkpt>
      <trkpt lat="42.4042120" lon="-4.2617550">
        <ele>800.8</ele>
        <time>2022-06-27T15:29:36Z</time>
      </trkpt>
      <trkpt lat="42.4042340" lon="-4.2618730">
        <ele>800.8</ele>
        <time>2022-06-27T15:29:37Z</time>
      </trkpt>
      <trkpt lat="42.4042610" lon="-4.2620130">
        <ele>800.8</ele>
        <time>2022-06-27T15:29:38Z</time>
      </trkpt>
      <trkpt lat="42.4042820" lon="-4.2621310">
        <ele>800.8</ele>
        <time>2022-06-27T15:29:39Z</time>
      </trkpt>
      <trkpt lat="42.4043020" lon="-4.2622500">
        <ele>800.8</ele>
        <time>2022-06-27T15:29:40Z</time>
      </trkpt>
      <trkpt lat="42.4043190" lon="-4.2623460">
        <ele>800.6</ele>
        <time>2022-06-27T15:29:41Z</time>
      </trkpt>
      <trkpt lat="42.4043420" lon="-4.2624640">
        <ele>800.6</ele>
        <time>2022-06-27T15:29:42Z</time>
      </trkpt>
      <trkpt lat="42.4043660" lon="-4.2625940">
        <ele>800.6</ele>
        <time>2022-06-27T15:29:43Z</time>
      </trkpt>
      <trkpt lat="42.4044000" lon="-4.2627790">
        <ele>800.6</ele>
        <time>2022-06-27T15:29:44Z</time>
      </trkpt>
      <trkpt lat="42.4044090" lon="-4.2628340">
        <ele>800.6</ele>
        <time>2022-06-27T15:29:45Z</time>
      </trkpt>
      <trkpt lat="42.4044390" lon="-4.2630020">
        <ele>800.6</ele>
        <time>2022-06-27T15:29:46Z</time>
      </trkpt>
      <trkpt lat="42.4044500" lon="-4.2630610">
        <ele>800.6</ele>
        <time>2022-06-27T15:29:47Z</time>
      </trkpt>
      <trkpt lat="42.4044720" lon="-4.2631790">
        <ele>800.6</ele>
        <time>2022-06-27T15:29:48Z</time>
      </trkpt>
      <trkpt lat="42.4044940" lon="-4.2632980">
        <ele>800.6</ele>
        <time>2022-06-27T15:29:49Z</time>
      </trkpt>
      <trkpt lat="42.4045320" lon="-4.2635130">
        <ele>800.4</ele>
        <time>2022-06-27T15:29:50Z</time>
      </trkpt>
      <trkpt lat="42.4045490" lon="-4.2636080">
        <ele>800.2</ele>
        <time>2022-06-27T15:29:51Z</time>
      </trkpt>
      <trkpt lat="42.4045830" lon="-4.2637990">
        <ele>800.0</ele>
        <time>2022-06-27T15:29:52Z</time>
      </trkpt>
      <trkpt lat="42.4045830" lon="-4.2637990">
        <ele>800.2</ele>
        <time>2022-06-27T15:29:53Z</time>
      </trkpt>
      <trkpt lat="42.4046000" lon="-4.2638930">
        <ele>800.2</ele>
        <time>2022-06-27T15:29:54Z</time>
      </trkpt>
      <trkpt lat="42.4046300" lon="-4.2640730">
        <ele>800.2</ele>
        <time>2022-06-27T15:29:55Z</time>
      </trkpt>
      <trkpt lat="42.4046410" lon="-4.2641330">
        <ele>800.2</ele>
        <time>2022-06-27T15:29:56Z</time>
      </trkpt>
      <trkpt lat="42.4046790" lon="-4.2643430">
        <ele>800.2</ele>
        <time>2022-06-27T15:29:57Z</time>
      </trkpt>
      <trkpt lat="42.4046960" lon="-4.2644330">
        <ele>800.2</ele>
        <time>2022-06-27T15:29:58Z</time>
      </trkpt>
      <trkpt lat="42.4047290" lon="-4.2646140">
        <ele>800.2</ele>
        <time>2022-06-27T15:29:59Z</time>
      </trkpt>
      <trkpt lat="42.4047550" lon="-4.2647580">
        <ele>800.2</ele>
        <time>2022-06-27T15:30:00Z</time>
      </trkpt>
      <trkpt lat="42.4047700" lon="-4.2648430">
        <ele>800.2</ele>
        <time>2022-06-27T15:30:01Z</time>
      </trkpt>
      <trkpt lat="42.4047860" lon="-4.2649270">
        <ele>800.2</ele>
        <time>2022-06-27T15:30:02Z</time>
      </trkpt>
      <trkpt lat="42.4048160" lon="-4.2650960">
        <ele>800.4</ele>
        <time>2022-06-27T15:30:03Z</time>
      </trkpt>
      <trkpt lat="42.4048280" lon="-4.2651570">
        <ele>800.4</ele>
        <time>2022-06-27T15:30:04Z</time>
      </trkpt>
      <trkpt lat="42.4048390" lon="-4.2652180">
        <ele>800.6</ele>
        <time>2022-06-27T15:30:05Z</time>
      </trkpt>
      <trkpt lat="42.4048820" lon="-4.2654650">
        <ele>800.6</ele>
        <time>2022-06-27T15:30:06Z</time>
      </trkpt>
      <trkpt lat="42.4049100" lon="-4.2656130">
        <ele>800.6</ele>
        <time>2022-06-27T15:30:07Z</time>
      </trkpt>
      <trkpt lat="42.4049270" lon="-4.2657050">
        <ele>800.6</ele>
        <time>2022-06-27T15:30:08Z</time>
      </trkpt>
      <trkpt lat="42.4049450" lon="-4.2657970">
        <ele>800.6</ele>
        <time>2022-06-27T15:30:09Z</time>
      </trkpt>
      <trkpt lat="42.4049810" lon="-4.2659810">
        <ele>800.6</ele>
        <time>2022-06-27T15:30:10Z</time>
      </trkpt>
      <trkpt lat="42.4050030" lon="-4.2661050">
        <ele>800.6</ele>
        <time>2022-06-27T15:30:11Z</time>
      </trkpt>
      <trkpt lat="42.4050130" lon="-4.2661600">
        <ele>800.6</ele>
        <time>2022-06-27T15:30:12Z</time>
      </trkpt>
      <trkpt lat="42.4050230" lon="-4.2662150">
        <ele>800.6</ele>
        <time>2022-06-27T15:30:13Z</time>
      </trkpt>
      <trkpt lat="42.4050580" lon="-4.2664170">
        <ele>800.6</ele>
        <time>2022-06-27T15:30:14Z</time>
      </trkpt>
      <trkpt lat="42.4050740" lon="-4.2665080">
        <ele>800.8</ele>
        <time>2022-06-27T15:30:15Z</time>
      </trkpt>
      <trkpt lat="42.4051070" lon="-4.2666900">
        <ele>800.8</ele>
        <time>2022-06-27T15:30:16Z</time>
      </trkpt>
      <trkpt lat="42.4051290" lon="-4.2668090">
        <ele>800.8</ele>
        <time>2022-06-27T15:30:17Z</time>
      </trkpt>
      <trkpt lat="42.4051460" lon="-4.2669040">
        <ele>801.0</ele>
        <time>2022-06-27T15:30:18Z</time>
      </trkpt>
      <trkpt lat="42.4051630" lon="-4.2669990">
        <ele>801.0</ele>
        <time>2022-06-27T15:30:19Z</time>
      </trkpt>
      <trkpt lat="42.4051970" lon="-4.2671900">
        <ele>801.0</ele>
        <time>2022-06-27T15:30:20Z</time>
      </trkpt>
      <trkpt lat="42.4052200" lon="-4.2673070">
        <ele>801.0</ele>
        <time>2022-06-27T15:30:21Z</time>
      </trkpt>
      <trkpt lat="42.4052290" lon="-4.2673530">
        <ele>801.0</ele>
        <time>2022-06-27T15:30:22Z</time>
      </trkpt>
      <trkpt lat="42.4052380" lon="-4.2673990">
        <ele>801.0</ele>
        <time>2022-06-27T15:30:23Z</time>
      </trkpt>
      <trkpt lat="42.4052700" lon="-4.2675880">
        <ele>801.0</ele>
        <time>2022-06-27T15:30:24Z</time>
      </trkpt>
      <trkpt lat="42.4053020" lon="-4.2677770">
        <ele>801.0</ele>
        <time>2022-06-27T15:30:25Z</time>
      </trkpt>
      <trkpt lat="42.4053190" lon="-4.2678720">
        <ele>801.0</ele>
        <time>2022-06-27T15:30:26Z</time>
      </trkpt>
      <trkpt lat="42.4053410" lon="-4.2679890">
        <ele>801.0</ele>
        <time>2022-06-27T15:30:27Z</time>
      </trkpt>
      <trkpt lat="42.4053570" lon="-4.2680820">
        <ele>801.0</ele>
        <time>2022-06-27T15:30:28Z</time>
      </trkpt>
      <trkpt lat="42.4053740" lon="-4.2681740">
        <ele>801.0</ele>
        <time>2022-06-27T15:30:29Z</time>
      </trkpt>
      <trkpt lat="42.4054060" lon="-4.2683590">
        <ele>801.0</ele>
        <time>2022-06-27T15:30:30Z</time>
      </trkpt>
      <trkpt lat="42.4054220" lon="-4.2684510">
        <ele>801.0</ele>
        <time>2022-06-27T15:30:31Z</time>
      </trkpt>
      <trkpt lat="42.4054380" lon="-4.2685370">
        <ele>801.2</ele>
        <time>2022-06-27T15:30:32Z</time>
      </trkpt>
      <trkpt lat="42.4054530" lon="-4.2686220">
        <ele>801.2</ele>
        <time>2022-06-27T15:30:33Z</time>
      </trkpt>
      <trkpt lat="42.4054850" lon="-4.2687940">
        <ele>801.2</ele>
        <time>2022-06-27T15:30:34Z</time>
      </trkpt>
      <trkpt lat="42.4055080" lon="-4.2689310">
        <ele>801.2</ele>
        <time>2022-06-27T15:30:35Z</time>
      </trkpt>
      <trkpt lat="42.4055210" lon="-4.2690260">
        <ele>801.2</ele>
        <time>2022-06-27T15:30:36Z</time>
      </trkpt>
      <trkpt lat="42.4055390" lon="-4.2691200">
        <ele>801.4</ele>
        <time>2022-06-27T15:30:37Z</time>
      </trkpt>
      <trkpt lat="42.4055560" lon="-4.2692130">
        <ele>801.4</ele>
        <time>2022-06-27T15:30:38Z</time>
      </trkpt>
      <trkpt lat="42.4055920" lon="-4.2694000">
        <ele>801.4</ele>
        <time>2022-06-27T15:30:39Z</time>
      </trkpt>
      <trkpt lat="42.4056090" lon="-4.2694940">
        <ele>801.4</ele>
        <time>2022-06-27T15:30:40Z</time>
      </trkpt>
      <trkpt lat="42.4056320" lon="-4.2696100">
        <ele>801.4</ele>
        <time>2022-06-27T15:30:41Z</time>
      </trkpt>
      <trkpt lat="42.4056320" lon="-4.2696100">
        <ele>801.6</ele>
        <time>2022-06-27T15:30:42Z</time>
      </trkpt>
      <trkpt lat="42.4056750" lon="-4.2698410">
        <ele>801.6</ele>
        <time>2022-06-27T15:30:43Z</time>
      </trkpt>
      <trkpt lat="42.4057000" lon="-4.2699800">
        <ele>801.6</ele>
        <time>2022-06-27T15:30:44Z</time>
      </trkpt>
      <trkpt lat="42.4057170" lon="-4.2700740">
        <ele>801.6</ele>
        <time>2022-06-27T15:30:45Z</time>
      </trkpt>
      <trkpt lat="42.4057330" lon="-4.2701670">
        <ele>801.6</ele>
        <time>2022-06-27T15:30:46Z</time>
      </trkpt>
      <trkpt lat="42.4057500" lon="-4.2702610">
        <ele>801.4</ele>
        <time>2022-06-27T15:30:47Z</time>
      </trkpt>
      <trkpt lat="42.4057830" lon="-4.2704480">
        <ele>801.4</ele>
        <time>2022-06-27T15:30:48Z</time>
      </trkpt>
      <trkpt lat="42.4058040" lon="-4.2705660">
        <ele>801.2</ele>
        <time>2022-06-27T15:30:49Z</time>
      </trkpt>
      <trkpt lat="42.4058190" lon="-4.2706600">
        <ele>801.0</ele>
        <time>2022-06-27T15:30:50Z</time>
      </trkpt>
      <trkpt lat="42.4058390" lon="-4.2707770">
        <ele>801.0</ele>
        <time>2022-06-27T15:30:51Z</time>
      </trkpt>
      <trkpt lat="42.4058640" lon="-4.2709170">
        <ele>801.0</ele>
        <time>2022-06-27T15:30:52Z</time>
      </trkpt>
      <trkpt lat="42.4058870" lon="-4.2710340">
        <ele>801.0</ele>
        <time>2022-06-27T15:30:53Z</time>
      </trkpt>
      <trkpt lat="42.4059050" lon="-4.2711270">
        <ele>800.8</ele>
        <time>2022-06-27T15:30:54Z</time>
      </trkpt>
      <trkpt lat="42.4059270" lon="-4.2712420">
        <ele>800.8</ele>
        <time>2022-06-27T15:30:55Z</time>
      </trkpt>
      <trkpt lat="42.4059540" lon="-4.2713790">
        <ele>800.8</ele>
        <time>2022-06-27T15:30:56Z</time>
      </trkpt>
      <trkpt lat="42.4059750" lon="-4.2714920">
        <ele>800.8</ele>
        <time>2022-06-27T15:30:57Z</time>
      </trkpt>
      <trkpt lat="42.4059920" lon="-4.2715840">
        <ele>800.8</ele>
        <time>2022-06-27T15:30:58Z</time>
      </trkpt>
      <trkpt lat="42.4060120" lon="-4.2717000">
        <ele>801.0</ele>
        <time>2022-06-27T15:30:59Z</time>
      </trkpt>
      <trkpt lat="42.4060280" lon="-4.2717860">
        <ele>800.8</ele>
        <time>2022-06-27T15:31:00Z</time>
      </trkpt>
      <trkpt lat="42.4060430" lon="-4.2718710">
        <ele>801.0</ele>
        <time>2022-06-27T15:31:01Z</time>
      </trkpt>
      <trkpt lat="42.4060730" lon="-4.2720430">
        <ele>801.0</ele>
        <time>2022-06-27T15:31:02Z</time>
      </trkpt>
      <trkpt lat="42.4060980" lon="-4.2721790">
        <ele>801.0</ele>
        <time>2022-06-27T15:31:03Z</time>
      </trkpt>
      <trkpt lat="42.4061140" lon="-4.2722710">
        <ele>800.8</ele>
        <time>2022-06-27T15:31:04Z</time>
      </trkpt>
      <trkpt lat="42.4061140" lon="-4.2722710">
        <ele>801.0</ele>
        <time>2022-06-27T15:31:05Z</time>
      </trkpt>
      <trkpt lat="42.4061360" lon="-4.2723860">
        <ele>801.0</ele>
        <time>2022-06-27T15:31:06Z</time>
      </trkpt>
      <trkpt lat="42.4061820" lon="-4.2726420">
        <ele>801.0</ele>
        <time>2022-06-27T15:31:07Z</time>
      </trkpt>
      <trkpt lat="42.4061980" lon="-4.2727360">
        <ele>801.0</ele>
        <time>2022-06-27T15:31:08Z</time>
      </trkpt>
      <trkpt lat="42.4062160" lon="-4.2728520">
        <ele>801.0</ele>
        <time>2022-06-27T15:31:09Z</time>
      </trkpt>
      <trkpt lat="42.4062400" lon="-4.2729920">
        <ele>801.0</ele>
        <time>2022-06-27T15:31:10Z</time>
      </trkpt>
      <trkpt lat="42.4062600" lon="-4.2731100">
        <ele>801.0</ele>
        <time>2022-06-27T15:31:11Z</time>
      </trkpt>
      <trkpt lat="42.4062800" lon="-4.2732270">
        <ele>800.8</ele>
        <time>2022-06-27T15:31:12Z</time>
      </trkpt>
      <trkpt lat="42.4062960" lon="-4.2733210">
        <ele>800.8</ele>
        <time>2022-06-27T15:31:13Z</time>
      </trkpt>
      <trkpt lat="42.4063050" lon="-4.2733800">
        <ele>801.0</ele>
        <time>2022-06-27T15:31:14Z</time>
      </trkpt>
      <trkpt lat="42.4063140" lon="-4.2734380">
        <ele>801.0</ele>
        <time>2022-06-27T15:31:15Z</time>
      </trkpt>
      <trkpt lat="42.4063450" lon="-4.2736110">
        <ele>801.0</ele>
        <time>2022-06-27T15:31:16Z</time>
      </trkpt>
      <trkpt lat="42.4063760" lon="-4.2737850">
        <ele>801.0</ele>
        <time>2022-06-27T15:31:17Z</time>
      </trkpt>
      <trkpt lat="42.4063970" lon="-4.2739010">
        <ele>801.0</ele>
        <time>2022-06-27T15:31:18Z</time>
      </trkpt>
      <trkpt lat="42.4064230" lon="-4.2740380">
        <ele>800.8</ele>
        <time>2022-06-27T15:31:19Z</time>
      </trkpt>
      <trkpt lat="42.4064410" lon="-4.2741310">
        <ele>800.8</ele>
        <time>2022-06-27T15:31:20Z</time>
      </trkpt>
      <trkpt lat="42.4064660" lon="-4.2742710">
        <ele>800.8</ele>
        <time>2022-06-27T15:31:21Z</time>
      </trkpt>
      <trkpt lat="42.4064810" lon="-4.2743600">
        <ele>800.8</ele>
        <time>2022-06-27T15:31:22Z</time>
      </trkpt>
      <trkpt lat="42.4064960" lon="-4.2744480">
        <ele>801.0</ele>
        <time>2022-06-27T15:31:23Z</time>
      </trkpt>
      <trkpt lat="42.4065260" lon="-4.2746240">
        <ele>801.0</ele>
        <time>2022-06-27T15:31:24Z</time>
      </trkpt>
      <trkpt lat="42.4065400" lon="-4.2747070">
        <ele>801.0</ele>
        <time>2022-06-27T15:31:25Z</time>
      </trkpt>
      <trkpt lat="42.4065540" lon="-4.2747890">
        <ele>801.0</ele>
        <time>2022-06-27T15:31:26Z</time>
      </trkpt>
      <trkpt lat="42.4065830" lon="-4.2749530">
        <ele>801.0</ele>
        <time>2022-06-27T15:31:27Z</time>
      </trkpt>
      <trkpt lat="42.4066000" lon="-4.2750460">
        <ele>801.2</ele>
        <time>2022-06-27T15:31:28Z</time>
      </trkpt>
      <trkpt lat="42.4066160" lon="-4.2751380">
        <ele>801.2</ele>
        <time>2022-06-27T15:31:29Z</time>
      </trkpt>
      <trkpt lat="42.4066490" lon="-4.2753230">
        <ele>801.2</ele>
        <time>2022-06-27T15:31:30Z</time>
      </trkpt>
      <trkpt lat="42.4066690" lon="-4.2754400">
        <ele>801.2</ele>
        <time>2022-06-27T15:31:31Z</time>
      </trkpt>
      <trkpt lat="42.4066840" lon="-4.2755340">
        <ele>801.2</ele>
        <time>2022-06-27T15:31:32Z</time>
      </trkpt>
      <trkpt lat="42.4067040" lon="-4.2756520">
        <ele>801.2</ele>
        <time>2022-06-27T15:31:33Z</time>
      </trkpt>
      <trkpt lat="42.4067290" lon="-4.2757940">
        <ele>801.4</ele>
        <time>2022-06-27T15:31:34Z</time>
      </trkpt>
      <trkpt lat="42.4067520" lon="-4.2759120">
        <ele>801.4</ele>
        <time>2022-06-27T15:31:35Z</time>
      </trkpt>
      <trkpt lat="42.4067700" lon="-4.2760060">
        <ele>801.4</ele>
        <time>2022-06-27T15:31:36Z</time>
      </trkpt>
      <trkpt lat="42.4067920" lon="-4.2761250">
        <ele>801.2</ele>
        <time>2022-06-27T15:31:37Z</time>
      </trkpt>
      <trkpt lat="42.4068120" lon="-4.2762450">
        <ele>801.4</ele>
        <time>2022-06-27T15:31:38Z</time>
      </trkpt>
      <trkpt lat="42.4068320" lon="-4.2763650">
        <ele>801.4</ele>
        <time>2022-06-27T15:31:39Z</time>
      </trkpt>
      <trkpt lat="42.4068590" lon="-4.2765030">
        <ele>801.4</ele>
        <time>2022-06-27T15:31:40Z</time>
      </trkpt>
      <trkpt lat="42.4068760" lon="-4.2765940">
        <ele>801.4</ele>
        <time>2022-06-27T15:31:41Z</time>
      </trkpt>
      <trkpt lat="42.4068910" lon="-4.2766800">
        <ele>801.4</ele>
        <time>2022-06-27T15:31:42Z</time>
      </trkpt>
      <trkpt lat="42.4069070" lon="-4.2767660">
        <ele>801.4</ele>
        <time>2022-06-27T15:31:43Z</time>
      </trkpt>
      <trkpt lat="42.4069370" lon="-4.2769370">
        <ele>801.6</ele>
        <time>2022-06-27T15:31:44Z</time>
      </trkpt>
      <trkpt lat="42.4069610" lon="-4.2770720">
        <ele>801.6</ele>
        <time>2022-06-27T15:31:45Z</time>
      </trkpt>
      <trkpt lat="42.4069760" lon="-4.2771570">
        <ele>801.8</ele>
        <time>2022-06-27T15:31:46Z</time>
      </trkpt>
      <trkpt lat="42.4069900" lon="-4.2772370">
        <ele>801.8</ele>
        <time>2022-06-27T15:31:47Z</time>
      </trkpt>
      <trkpt lat="42.4070030" lon="-4.2773180">
        <ele>801.8</ele>
        <time>2022-06-27T15:31:48Z</time>
      </trkpt>
      <trkpt lat="42.4070310" lon="-4.2774780">
        <ele>802.2</ele>
        <time>2022-06-27T15:31:49Z</time>
      </trkpt>
      <trkpt lat="42.4070460" lon="-4.2775530">
        <ele>802.2</ele>
        <time>2022-06-27T15:31:50Z</time>
      </trkpt>
      <trkpt lat="42.4070650" lon="-4.2776480">
        <ele>802.4</ele>
        <time>2022-06-27T15:31:51Z</time>
      </trkpt>
      <trkpt lat="42.4070860" lon="-4.2777600">
        <ele>802.4</ele>
        <time>2022-06-27T15:31:52Z</time>
      </trkpt>
      <trkpt lat="42.4071000" lon="-4.2778330">
        <ele>802.6</ele>
        <time>2022-06-27T15:31:53Z</time>
      </trkpt>
      <trkpt lat="42.4071210" lon="-4.2779430">
        <ele>803.0</ele>
        <time>2022-06-27T15:31:54Z</time>
      </trkpt>
      <trkpt lat="42.4071340" lon="-4.2780140">
        <ele>803.2</ele>
        <time>2022-06-27T15:31:55Z</time>
      </trkpt>
      <trkpt lat="42.4071470" lon="-4.2780800">
        <ele>804.0</ele>
        <time>2022-06-27T15:31:56Z</time>
      </trkpt>
      <trkpt lat="42.4071600" lon="-4.2781460">
        <ele>804.2</ele>
        <time>2022-06-27T15:31:57Z</time>
      </trkpt>
      <trkpt lat="42.4071850" lon="-4.2782770">
        <ele>804.4</ele>
        <time>2022-06-27T15:31:58Z</time>
      </trkpt>
      <trkpt lat="42.4072000" lon="-4.2783450">
        <ele>804.6</ele>
        <time>2022-06-27T15:31:59Z</time>
      </trkpt>
      <trkpt lat="42.4072140" lon="-4.2784130">
        <ele>804.8</ele>
        <time>2022-06-27T15:32:00Z</time>
      </trkpt>
      <trkpt lat="42.4072430" lon="-4.2785490">
        <ele>805.0</ele>
        <time>2022-06-27T15:32:01Z</time>
      </trkpt>
      <trkpt lat="42.4072580" lon="-4.2786160">
        <ele>805.0</ele>
        <time>2022-06-27T15:32:02Z</time>
      </trkpt>
      <trkpt lat="42.4072840" lon="-4.2787140">
        <ele>805.2</ele>
        <time>2022-06-27T15:32:03Z</time>
      </trkpt>
      <trkpt lat="42.4073040" lon="-4.2787780">
        <ele>805.2</ele>
        <time>2022-06-27T15:32:04Z</time>
      </trkpt>
      <trkpt lat="42.4073300" lon="-4.2788590">
        <ele>805.6</ele>
        <time>2022-06-27T15:32:05Z</time>
      </trkpt>
      <trkpt lat="42.4073580" lon="-4.2789410">
        <ele>805.6</ele>
        <time>2022-06-27T15:32:06Z</time>
      </trkpt>
      <trkpt lat="42.4073900" lon="-4.2790200">
        <ele>805.8</ele>
        <time>2022-06-27T15:32:07Z</time>
      </trkpt>
      <trkpt lat="42.4074270" lon="-4.2791130">
        <ele>806.0</ele>
        <time>2022-06-27T15:32:08Z</time>
      </trkpt>
      <trkpt lat="42.4074530" lon="-4.2791720">
        <ele>806.2</ele>
        <time>2022-06-27T15:32:09Z</time>
      </trkpt>
      <trkpt lat="42.4074800" lon="-4.2792280">
        <ele>806.4</ele>
        <time>2022-06-27T15:32:10Z</time>
      </trkpt>
      <trkpt lat="42.4075060" lon="-4.2792840">
        <ele>806.4</ele>
        <time>2022-06-27T15:32:11Z</time>
      </trkpt>
      <trkpt lat="42.4075580" lon="-4.2793960">
        <ele>807.0</ele>
        <time>2022-06-27T15:32:12Z</time>
      </trkpt>
      <trkpt lat="42.4075900" lon="-4.2794630">
        <ele>807.0</ele>
        <time>2022-06-27T15:32:13Z</time>
      </trkpt>
      <trkpt lat="42.4076160" lon="-4.2795150">
        <ele>807.2</ele>
        <time>2022-06-27T15:32:14Z</time>
      </trkpt>
      <trkpt lat="42.4076470" lon="-4.2795780">
        <ele>807.6</ele>
        <time>2022-06-27T15:32:15Z</time>
      </trkpt>
      <trkpt lat="42.4076850" lon="-4.2796520">
        <ele>807.8</ele>
        <time>2022-06-27T15:32:16Z</time>
      </trkpt>
      <trkpt lat="42.4077180" lon="-4.2797130">
        <ele>808.2</ele>
        <time>2022-06-27T15:32:17Z</time>
      </trkpt>
      <trkpt lat="42.4077440" lon="-4.2797580">
        <ele>808.6</ele>
        <time>2022-06-27T15:32:18Z</time>
      </trkpt>
      <trkpt lat="42.4077750" lon="-4.2798120">
        <ele>808.8</ele>
        <time>2022-06-27T15:32:19Z</time>
      </trkpt>
      <trkpt lat="42.4078070" lon="-4.2798630">
        <ele>809.2</ele>
        <time>2022-06-27T15:32:20Z</time>
      </trkpt>
      <trkpt lat="42.4078450" lon="-4.2799230">
        <ele>809.4</ele>
        <time>2022-06-27T15:32:21Z</time>
      </trkpt>
      <trkpt lat="42.4078750" lon="-4.2799750">
        <ele>809.8</ele>
        <time>2022-06-27T15:32:22Z</time>
      </trkpt>
      <trkpt lat="42.4079000" lon="-4.2800140">
        <ele>810.0</ele>
        <time>2022-06-27T15:32:23Z</time>
      </trkpt>
      <trkpt lat="42.4079280" lon="-4.2800520">
        <ele>810.4</ele>
        <time>2022-06-27T15:32:24Z</time>
      </trkpt>
      <trkpt lat="42.4079550" lon="-4.2800900">
        <ele>810.6</ele>
        <time>2022-06-27T15:32:25Z</time>
      </trkpt>
      <trkpt lat="42.4080100" lon="-4.2801660">
        <ele>811.0</ele>
        <time>2022-06-27T15:32:26Z</time>
      </trkpt>
      <trkpt lat="42.4080450" lon="-4.2802130">
        <ele>811.4</ele>
        <time>2022-06-27T15:32:27Z</time>
      </trkpt>
      <trkpt lat="42.4080730" lon="-4.2802510">
        <ele>811.6</ele>
        <time>2022-06-27T15:32:28Z</time>
      </trkpt>
      <trkpt lat="42.4081150" lon="-4.2803060">
        <ele>811.8</ele>
        <time>2022-06-27T15:32:29Z</time>
      </trkpt>
      <trkpt lat="42.4081520" lon="-4.2803500">
        <ele>812.0</ele>
        <time>2022-06-27T15:32:30Z</time>
      </trkpt>
      <trkpt lat="42.4081910" lon="-4.2803940">
        <ele>812.6</ele>
        <time>2022-06-27T15:32:31Z</time>
      </trkpt>
      <trkpt lat="42.4082220" lon="-4.2804280">
        <ele>812.6</ele>
        <time>2022-06-27T15:32:32Z</time>
      </trkpt>
      <trkpt lat="42.4082590" lon="-4.2804710">
        <ele>812.8</ele>
        <time>2022-06-27T15:32:33Z</time>
      </trkpt>
      <trkpt lat="42.4083050" lon="-4.2805190">
        <ele>813.2</ele>
        <time>2022-06-27T15:32:34Z</time>
      </trkpt>
      <trkpt lat="42.4083460" lon="-4.2805590">
        <ele>813.2</ele>
        <time>2022-06-27T15:32:35Z</time>
      </trkpt>
      <trkpt lat="42.4083850" lon="-4.2806050">
        <ele>813.4</ele>
        <time>2022-06-27T15:32:36Z</time>
      </trkpt>
      <trkpt lat="42.4084170" lon="-4.2806410">
        <ele>813.4</ele>
        <time>2022-06-27T15:32:37Z</time>
      </trkpt>
      <trkpt lat="42.4084510" lon="-4.2806790">
        <ele>813.4</ele>
        <time>2022-06-27T15:32:38Z</time>
      </trkpt>
      <trkpt lat="42.4084840" lon="-4.2807170">
        <ele>813.6</ele>
        <time>2022-06-27T15:32:39Z</time>
      </trkpt>
      <trkpt lat="42.4085510" lon="-4.2807940">
        <ele>813.6</ele>
        <time>2022-06-27T15:32:40Z</time>
      </trkpt>
      <trkpt lat="42.4085840" lon="-4.2808370">
        <ele>813.8</ele>
        <time>2022-06-27T15:32:41Z</time>
      </trkpt>
      <trkpt lat="42.4086240" lon="-4.2808910">
        <ele>814.0</ele>
        <time>2022-06-27T15:32:42Z</time>
      </trkpt>
      <trkpt lat="42.4086760" lon="-4.2809540">
        <ele>814.2</ele>
        <time>2022-06-27T15:32:43Z</time>
      </trkpt>
      <trkpt lat="42.4087230" lon="-4.2810070">
        <ele>814.2</ele>
        <time>2022-06-27T15:32:44Z</time>
      </trkpt>
      <trkpt lat="42.4087610" lon="-4.2810490">
        <ele>814.2</ele>
        <time>2022-06-27T15:32:45Z</time>
      </trkpt>
      <trkpt lat="42.4088030" lon="-4.2811000">
        <ele>814.4</ele>
        <time>2022-06-27T15:32:46Z</time>
      </trkpt>
      <trkpt lat="42.4088470" lon="-4.2811520">
        <ele>814.6</ele>
        <time>2022-06-27T15:32:47Z</time>
      </trkpt>
      <trkpt lat="42.4089010" lon="-4.2812140">
        <ele>814.8</ele>
        <time>2022-06-27T15:32:48Z</time>
      </trkpt>
      <trkpt lat="42.4089330" lon="-4.2812490">
        <ele>814.8</ele>
        <time>2022-06-27T15:32:49Z</time>
      </trkpt>
      <trkpt lat="42.4089650" lon="-4.2812830">
        <ele>815.0</ele>
        <time>2022-06-27T15:32:50Z</time>
      </trkpt>
      <trkpt lat="42.4090290" lon="-4.2813520">
        <ele>815.2</ele>
        <time>2022-06-27T15:32:51Z</time>
      </trkpt>
      <trkpt lat="42.4090620" lon="-4.2813910">
        <ele>815.4</ele>
        <time>2022-06-27T15:32:52Z</time>
      </trkpt>
      <trkpt lat="42.4090940" lon="-4.2814310">
        <ele>815.4</ele>
        <time>2022-06-27T15:32:53Z</time>
      </trkpt>
      <trkpt lat="42.4091590" lon="-4.2815090">
        <ele>815.4</ele>
        <time>2022-06-27T15:32:54Z</time>
      </trkpt>
      <trkpt lat="42.4092110" lon="-4.2815730">
        <ele>815.6</ele>
        <time>2022-06-27T15:32:55Z</time>
      </trkpt>
      <trkpt lat="42.4092450" lon="-4.2816170">
        <ele>815.8</ele>
        <time>2022-06-27T15:32:56Z</time>
      </trkpt>
      <trkpt lat="42.4092900" lon="-4.2816720">
        <ele>816.2</ele>
        <time>2022-06-27T15:32:57Z</time>
      </trkpt>
      <trkpt lat="42.4093350" lon="-4.2817280">
        <ele>816.2</ele>
        <time>2022-06-27T15:32:58Z</time>
      </trkpt>
      <trkpt lat="42.4093900" lon="-4.2817970">
        <ele>816.6</ele>
        <time>2022-06-27T15:32:59Z</time>
      </trkpt>
      <trkpt lat="42.4094280" lon="-4.2818440">
        <ele>816.6</ele>
        <time>2022-06-27T15:33:00Z</time>
      </trkpt>
      <trkpt lat="42.4094780" lon="-4.2819020">
        <ele>816.6</ele>
        <time>2022-06-27T15:33:01Z</time>
      </trkpt>
      <trkpt lat="42.4095350" lon="-4.2819750">
        <ele>816.6</ele>
        <time>2022-06-27T15:33:02Z</time>
      </trkpt>
      <trkpt lat="42.4095810" lon="-4.2820400">
        <ele>816.6</ele>
        <time>2022-06-27T15:33:03Z</time>
      </trkpt>
      <trkpt lat="42.4096170" lon="-4.2820930">
        <ele>816.6</ele>
        <time>2022-06-27T15:33:04Z</time>
      </trkpt>
      <trkpt lat="42.4096620" lon="-4.2821620">
        <ele>816.6</ele>
        <time>2022-06-27T15:33:05Z</time>
      </trkpt>
      <trkpt lat="42.4096970" lon="-4.2822150">
        <ele>816.6</ele>
        <time>2022-06-27T15:33:06Z</time>
      </trkpt>
      <trkpt lat="42.4097330" lon="-4.2822690">
        <ele>816.6</ele>
        <time>2022-06-27T15:33:07Z</time>
      </trkpt>
      <trkpt lat="42.4098040" lon="-4.2823750">
        <ele>816.6</ele>
        <time>2022-06-27T15:33:08Z</time>
      </trkpt>
      <trkpt lat="42.4098610" lon="-4.2824660">
        <ele>816.6</ele>
        <time>2022-06-27T15:33:09Z</time>
      </trkpt>
      <trkpt lat="42.4098990" lon="-4.2825290">
        <ele>816.6</ele>
        <time>2022-06-27T15:33:10Z</time>
      </trkpt>
      <trkpt lat="42.4099560" lon="-4.2826250">
        <ele>816.6</ele>
        <time>2022-06-27T15:33:11Z</time>
      </trkpt>
      <trkpt lat="42.4099950" lon="-4.2826940">
        <ele>816.6</ele>
        <time>2022-06-27T15:33:12Z</time>
      </trkpt>
      <trkpt lat="42.4100540" lon="-4.2828020">
        <ele>816.6</ele>
        <time>2022-06-27T15:33:13Z</time>
      </trkpt>
      <trkpt lat="42.4100930" lon="-4.2828800">
        <ele>816.6</ele>
        <time>2022-06-27T15:33:14Z</time>
      </trkpt>
      <trkpt lat="42.4101450" lon="-4.2829760">
        <ele>816.4</ele>
        <time>2022-06-27T15:33:15Z</time>
      </trkpt>
      <trkpt lat="42.4101930" lon="-4.2830800">
        <ele>816.4</ele>
        <time>2022-06-27T15:33:16Z</time>
      </trkpt>
      <trkpt lat="42.4102490" lon="-4.2832080">
        <ele>816.4</ele>
        <time>2022-06-27T15:33:17Z</time>
      </trkpt>
      <trkpt lat="42.4102920" lon="-4.2833200">
        <ele>816.0</ele>
        <time>2022-06-27T15:33:18Z</time>
      </trkpt>
      <trkpt lat="42.4103250" lon="-4.2834100">
        <ele>816.0</ele>
        <time>2022-06-27T15:33:19Z</time>
      </trkpt>
      <trkpt lat="42.4103580" lon="-4.2835030">
        <ele>815.6</ele>
        <time>2022-06-27T15:33:20Z</time>
      </trkpt>
      <trkpt lat="42.4103920" lon="-4.2835960">
        <ele>815.6</ele>
        <time>2022-06-27T15:33:21Z</time>
      </trkpt>
      <trkpt lat="42.4104580" lon="-4.2837820">
        <ele>815.2</ele>
        <time>2022-06-27T15:33:22Z</time>
      </trkpt>
      <trkpt lat="42.4104850" lon="-4.2838710">
        <ele>815.0</ele>
        <time>2022-06-27T15:33:23Z</time>
      </trkpt>
      <trkpt lat="42.4105110" lon="-4.2839610">
        <ele>814.8</ele>
        <time>2022-06-27T15:33:24Z</time>
      </trkpt>
      <trkpt lat="42.4105640" lon="-4.2841390">
        <ele>814.0</ele>
        <time>2022-06-27T15:33:25Z</time>
      </trkpt>
      <trkpt lat="42.4105870" lon="-4.2842350">
        <ele>813.8</ele>
        <time>2022-06-27T15:33:26Z</time>
      </trkpt>
      <trkpt lat="42.4106160" lon="-4.2843560">
        <ele>813.4</ele>
        <time>2022-06-27T15:33:27Z</time>
      </trkpt>
      <trkpt lat="42.4106450" lon="-4.2844710">
        <ele>813.4</ele>
        <time>2022-06-27T15:33:28Z</time>
      </trkpt>
      <trkpt lat="42.4106730" lon="-4.2845850">
        <ele>813.2</ele>
        <time>2022-06-27T15:33:29Z</time>
      </trkpt>
      <trkpt lat="42.4107010" lon="-4.2847040">
        <ele>813.0</ele>
        <time>2022-06-27T15:33:30Z</time>
      </trkpt>
      <trkpt lat="42.4107270" lon="-4.2848250">
        <ele>812.8</ele>
        <time>2022-06-27T15:33:31Z</time>
      </trkpt>
      <trkpt lat="42.4107580" lon="-4.2849660">
        <ele>812.6</ele>
        <time>2022-06-27T15:33:32Z</time>
      </trkpt>
      <trkpt lat="42.4107760" lon="-4.2850610">
        <ele>812.6</ele>
        <time>2022-06-27T15:33:33Z</time>
      </trkpt>
      <trkpt lat="42.4107960" lon="-4.2851530">
        <ele>812.6</ele>
        <time>2022-06-27T15:33:34Z</time>
      </trkpt>
      <trkpt lat="42.4108150" lon="-4.2852450">
        <ele>812.4</ele>
        <time>2022-06-27T15:33:35Z</time>
      </trkpt>
      <trkpt lat="42.4108550" lon="-4.2854300">
        <ele>812.4</ele>
        <time>2022-06-27T15:33:36Z</time>
      </trkpt>
      <trkpt lat="42.4108770" lon="-4.2855420">
        <ele>812.4</ele>
        <time>2022-06-27T15:33:37Z</time>
      </trkpt>
      <trkpt lat="42.4108920" lon="-4.2856330">
        <ele>812.2</ele>
        <time>2022-06-27T15:33:38Z</time>
      </trkpt>
      <trkpt lat="42.4109190" lon="-4.2857700">
        <ele>812.2</ele>
        <time>2022-06-27T15:33:39Z</time>
      </trkpt>
      <trkpt lat="42.4109420" lon="-4.2858820">
        <ele>812.2</ele>
        <time>2022-06-27T15:33:40Z</time>
      </trkpt>
      <trkpt lat="42.4109590" lon="-4.2859730">
        <ele>812.2</ele>
        <time>2022-06-27T15:33:41Z</time>
      </trkpt>
      <trkpt lat="42.4109800" lon="-4.2860850">
        <ele>812.2</ele>
        <time>2022-06-27T15:33:42Z</time>
      </trkpt>
      <trkpt lat="42.4110000" lon="-4.2861960">
        <ele>812.2</ele>
        <time>2022-06-27T15:33:43Z</time>
      </trkpt>
      <trkpt lat="42.4110270" lon="-4.2863300">
        <ele>812.0</ele>
        <time>2022-06-27T15:33:44Z</time>
      </trkpt>
      <trkpt lat="42.4110480" lon="-4.2864430">
        <ele>812.0</ele>
        <time>2022-06-27T15:33:45Z</time>
      </trkpt>
      <trkpt lat="42.4110680" lon="-4.2865570">
        <ele>811.8</ele>
        <time>2022-06-27T15:33:46Z</time>
      </trkpt>
      <trkpt lat="42.4110850" lon="-4.2866480">
        <ele>811.8</ele>
        <time>2022-06-27T15:33:47Z</time>
      </trkpt>
      <trkpt lat="42.4111020" lon="-4.2867320">
        <ele>811.8</ele>
        <time>2022-06-27T15:33:48Z</time>
      </trkpt>
      <trkpt lat="42.4111180" lon="-4.2868160">
        <ele>811.8</ele>
        <time>2022-06-27T15:33:49Z</time>
      </trkpt>
      <trkpt lat="42.4111510" lon="-4.2869840">
        <ele>812.0</ele>
        <time>2022-06-27T15:33:50Z</time>
      </trkpt>
      <trkpt lat="42.4111730" lon="-4.2870960">
        <ele>812.0</ele>
        <time>2022-06-27T15:33:51Z</time>
      </trkpt>
      <trkpt lat="42.4111940" lon="-4.2872090">
        <ele>812.0</ele>
        <time>2022-06-27T15:33:52Z</time>
      </trkpt>
      <trkpt lat="42.4112150" lon="-4.2873210">
        <ele>812.0</ele>
        <time>2022-06-27T15:33:53Z</time>
      </trkpt>
      <trkpt lat="42.4112350" lon="-4.2874300">
        <ele>812.0</ele>
        <time>2022-06-27T15:33:54Z</time>
      </trkpt>
      <trkpt lat="42.4112610" lon="-4.2875620">
        <ele>812.0</ele>
        <time>2022-06-27T15:33:55Z</time>
      </trkpt>
      <trkpt lat="42.4112810" lon="-4.2876510">
        <ele>812.0</ele>
        <time>2022-06-27T15:33:56Z</time>
      </trkpt>
      <trkpt lat="42.4113040" lon="-4.2877660">
        <ele>812.0</ele>
        <time>2022-06-27T15:33:57Z</time>
      </trkpt>
      <trkpt lat="42.4113310" lon="-4.2879030">
        <ele>812.2</ele>
        <time>2022-06-27T15:33:58Z</time>
      </trkpt>
      <trkpt lat="42.4113470" lon="-4.2879830">
        <ele>812.2</ele>
        <time>2022-06-27T15:33:59Z</time>
      </trkpt>
      <trkpt lat="42.4113630" lon="-4.2880630">
        <ele>812.2</ele>
        <time>2022-06-27T15:34:00Z</time>
      </trkpt>
      <trkpt lat="42.4113950" lon="-4.2882230">
        <ele>812.4</ele>
        <time>2022-06-27T15:34:01Z</time>
      </trkpt>
      <trkpt lat="42.4114130" lon="-4.2883160">
        <ele>812.4</ele>
        <time>2022-06-27T15:34:02Z</time>
      </trkpt>
      <trkpt lat="42.4114310" lon="-4.2884090">
        <ele>812.4</ele>
        <time>2022-06-27T15:34:03Z</time>
      </trkpt>
      <trkpt lat="42.4114670" lon="-4.2885950">
        <ele>812.4</ele>
        <time>2022-06-27T15:34:04Z</time>
      </trkpt>
      <trkpt lat="42.4114870" lon="-4.2886860">
        <ele>812.4</ele>
        <time>2022-06-27T15:34:05Z</time>
      </trkpt>
      <trkpt lat="42.4115120" lon="-4.2888000">
        <ele>812.4</ele>
        <time>2022-06-27T15:34:06Z</time>
      </trkpt>
      <trkpt lat="42.4115420" lon="-4.2889370">
        <ele>812.2</ele>
        <time>2022-06-27T15:34:07Z</time>
      </trkpt>
      <trkpt lat="42.4115620" lon="-4.2890270">
        <ele>812.2</ele>
        <time>2022-06-27T15:34:08Z</time>
      </trkpt>
      <trkpt lat="42.4115840" lon="-4.2891410">
        <ele>812.0</ele>
        <time>2022-06-27T15:34:09Z</time>
      </trkpt>
      <trkpt lat="42.4116080" lon="-4.2892520">
        <ele>812.0</ele>
        <time>2022-06-27T15:34:10Z</time>
      </trkpt>
      <trkpt lat="42.4116320" lon="-4.2893660">
        <ele>812.0</ele>
        <time>2022-06-27T15:34:11Z</time>
      </trkpt>
      <trkpt lat="42.4116590" lon="-4.2895020">
        <ele>812.0</ele>
        <time>2022-06-27T15:34:12Z</time>
      </trkpt>
      <trkpt lat="42.4116770" lon="-4.2895930">
        <ele>812.0</ele>
        <time>2022-06-27T15:34:13Z</time>
      </trkpt>
      <trkpt lat="42.4117040" lon="-4.2897280">
        <ele>812.0</ele>
        <time>2022-06-27T15:34:14Z</time>
      </trkpt>
      <trkpt lat="42.4117200" lon="-4.2898190">
        <ele>812.0</ele>
        <time>2022-06-27T15:34:15Z</time>
      </trkpt>
      <trkpt lat="42.4117370" lon="-4.2899050">
        <ele>812.0</ele>
        <time>2022-06-27T15:34:16Z</time>
      </trkpt>
      <trkpt lat="42.4117540" lon="-4.2899910">
        <ele>812.0</ele>
        <time>2022-06-27T15:34:17Z</time>
      </trkpt>
      <trkpt lat="42.4117880" lon="-4.2901630">
        <ele>812.0</ele>
        <time>2022-06-27T15:34:18Z</time>
      </trkpt>
      <trkpt lat="42.4118130" lon="-4.2902790">
        <ele>812.0</ele>
        <time>2022-06-27T15:34:19Z</time>
      </trkpt>
      <trkpt lat="42.4118360" lon="-4.2903940">
        <ele>811.8</ele>
        <time>2022-06-27T15:34:20Z</time>
      </trkpt>
      <trkpt lat="42.4118590" lon="-4.2905060">
        <ele>811.8</ele>
        <time>2022-06-27T15:34:21Z</time>
      </trkpt>
      <trkpt lat="42.4118820" lon="-4.2906210">
        <ele>811.8</ele>
        <time>2022-06-27T15:34:22Z</time>
      </trkpt>
      <trkpt lat="42.4119040" lon="-4.2907360">
        <ele>811.8</ele>
        <time>2022-06-27T15:34:23Z</time>
      </trkpt>
      <trkpt lat="42.4119260" lon="-4.2908520">
        <ele>811.8</ele>
        <time>2022-06-27T15:34:24Z</time>
      </trkpt>
      <trkpt lat="42.4119470" lon="-4.2909690">
        <ele>811.8</ele>
        <time>2022-06-27T15:34:25Z</time>
      </trkpt>
      <trkpt lat="42.4119710" lon="-4.2910840">
        <ele>811.8</ele>
        <time>2022-06-27T15:34:26Z</time>
      </trkpt>
      <trkpt lat="42.4119960" lon="-4.2911980">
        <ele>811.8</ele>
        <time>2022-06-27T15:34:27Z</time>
      </trkpt>
      <trkpt lat="42.4120200" lon="-4.2913120">
        <ele>811.8</ele>
        <time>2022-06-27T15:34:28Z</time>
      </trkpt>
      <trkpt lat="42.4120410" lon="-4.2914280">
        <ele>811.8</ele>
        <time>2022-06-27T15:34:29Z</time>
      </trkpt>
      <trkpt lat="42.4120640" lon="-4.2915400">
        <ele>811.8</ele>
        <time>2022-06-27T15:34:30Z</time>
      </trkpt>
      <trkpt lat="42.4120860" lon="-4.2916530">
        <ele>812.0</ele>
        <time>2022-06-27T15:34:31Z</time>
      </trkpt>
      <trkpt lat="42.4121100" lon="-4.2917670">
        <ele>812.2</ele>
        <time>2022-06-27T15:34:32Z</time>
      </trkpt>
      <trkpt lat="42.4121320" lon="-4.2918820">
        <ele>812.2</ele>
        <time>2022-06-27T15:34:33Z</time>
      </trkpt>
      <trkpt lat="42.4121550" lon="-4.2919940">
        <ele>812.4</ele>
        <time>2022-06-27T15:34:34Z</time>
      </trkpt>
      <trkpt lat="42.4121720" lon="-4.2920770">
        <ele>812.4</ele>
        <time>2022-06-27T15:34:35Z</time>
      </trkpt>
      <trkpt lat="42.4121900" lon="-4.2921600">
        <ele>812.4</ele>
        <time>2022-06-27T15:34:36Z</time>
      </trkpt>
      <trkpt lat="42.4122240" lon="-4.2923260">
        <ele>812.6</ele>
        <time>2022-06-27T15:34:37Z</time>
      </trkpt>
      <trkpt lat="42.4122520" lon="-4.2924610">
        <ele>812.6</ele>
        <time>2022-06-27T15:34:38Z</time>
      </trkpt>
      <trkpt lat="42.4122680" lon="-4.2925510">
        <ele>812.6</ele>
        <time>2022-06-27T15:34:39Z</time>
      </trkpt>
      <trkpt lat="42.4122920" lon="-4.2926600">
        <ele>812.6</ele>
        <time>2022-06-27T15:34:40Z</time>
      </trkpt>
      <trkpt lat="42.4123170" lon="-4.2927930">
        <ele>812.6</ele>
        <time>2022-06-27T15:34:41Z</time>
      </trkpt>
      <trkpt lat="42.4123390" lon="-4.2929060">
        <ele>812.4</ele>
        <time>2022-06-27T15:34:42Z</time>
      </trkpt>
      <trkpt lat="42.4123570" lon="-4.2929960">
        <ele>812.6</ele>
        <time>2022-06-27T15:34:43Z</time>
      </trkpt>
      <trkpt lat="42.4123790" lon="-4.2931090">
        <ele>812.6</ele>
        <time>2022-06-27T15:34:44Z</time>
      </trkpt>
      <trkpt lat="42.4124010" lon="-4.2932210">
        <ele>812.6</ele>
        <time>2022-06-27T15:34:45Z</time>
      </trkpt>
      <trkpt lat="42.4124290" lon="-4.2933530">
        <ele>812.6</ele>
        <time>2022-06-27T15:34:46Z</time>
      </trkpt>
      <trkpt lat="42.4124520" lon="-4.2934640">
        <ele>812.6</ele>
        <time>2022-06-27T15:34:47Z</time>
      </trkpt>
      <trkpt lat="42.4124700" lon="-4.2935540">
        <ele>812.6</ele>
        <time>2022-06-27T15:34:48Z</time>
      </trkpt>
      <trkpt lat="42.4124870" lon="-4.2936440">
        <ele>812.4</ele>
        <time>2022-06-27T15:34:49Z</time>
      </trkpt>
      <trkpt lat="42.4125050" lon="-4.2937330">
        <ele>812.4</ele>
        <time>2022-06-27T15:34:50Z</time>
      </trkpt>
      <trkpt lat="42.4125390" lon="-4.2939120">
        <ele>812.6</ele>
        <time>2022-06-27T15:34:51Z</time>
      </trkpt>
      <trkpt lat="42.4125580" lon="-4.2939990">
        <ele>812.6</ele>
        <time>2022-06-27T15:34:52Z</time>
      </trkpt>
      <trkpt lat="42.4125750" lon="-4.2940880">
        <ele>812.6</ele>
        <time>2022-06-27T15:34:53Z</time>
      </trkpt>
      <trkpt lat="42.4125930" lon="-4.2941770">
        <ele>812.6</ele>
        <time>2022-06-27T15:34:54Z</time>
      </trkpt>
      <trkpt lat="42.4126280" lon="-4.2943540">
        <ele>812.6</ele>
        <time>2022-06-27T15:34:55Z</time>
      </trkpt>
      <trkpt lat="42.4126460" lon="-4.2944420">
        <ele>812.6</ele>
        <time>2022-06-27T15:34:56Z</time>
      </trkpt>
      <trkpt lat="42.4126680" lon="-4.2945540">
        <ele>812.6</ele>
        <time>2022-06-27T15:34:57Z</time>
      </trkpt>
      <trkpt lat="42.4126880" lon="-4.2946650">
        <ele>812.8</ele>
        <time>2022-06-27T15:34:58Z</time>
      </trkpt>
      <trkpt lat="42.4127130" lon="-4.2947990">
        <ele>812.8</ele>
        <time>2022-06-27T15:34:59Z</time>
      </trkpt>
      <trkpt lat="42.4127360" lon="-4.2949110">
        <ele>812.8</ele>
        <time>2022-06-27T15:35:00Z</time>
      </trkpt>
      <trkpt lat="42.4127580" lon="-4.2950220">
        <ele>813.0</ele>
        <time>2022-06-27T15:35:01Z</time>
      </trkpt>
      <trkpt lat="42.4127760" lon="-4.2951100">
        <ele>813.0</ele>
        <time>2022-06-27T15:35:02Z</time>
      </trkpt>
      <trkpt lat="42.4127930" lon="-4.2951990">
        <ele>813.0</ele>
        <time>2022-06-27T15:35:03Z</time>
      </trkpt>
      <trkpt lat="42.4128110" lon="-4.2952880">
        <ele>813.0</ele>
        <time>2022-06-27T15:35:04Z</time>
      </trkpt>
      <trkpt lat="42.4128470" lon="-4.2954670">
        <ele>813.2</ele>
        <time>2022-06-27T15:35:05Z</time>
      </trkpt>
      <trkpt lat="42.4128660" lon="-4.2955560">
        <ele>813.2</ele>
        <time>2022-06-27T15:35:06Z</time>
      </trkpt>
      <trkpt lat="42.4128900" lon="-4.2956670">
        <ele>813.2</ele>
        <time>2022-06-27T15:35:07Z</time>
      </trkpt>
      <trkpt lat="42.4129170" lon="-4.2958000">
        <ele>813.2</ele>
        <time>2022-06-27T15:35:08Z</time>
      </trkpt>
      <trkpt lat="42.4129320" lon="-4.2958780">
        <ele>813.2</ele>
        <time>2022-06-27T15:35:09Z</time>
      </trkpt>
      <trkpt lat="42.4129470" lon="-4.2959560">
        <ele>813.4</ele>
        <time>2022-06-27T15:35:10Z</time>
      </trkpt>
      <trkpt lat="42.4129770" lon="-4.2961120">
        <ele>813.2</ele>
        <time>2022-06-27T15:35:11Z</time>
      </trkpt>
      <trkpt lat="42.4129940" lon="-4.2961970">
        <ele>813.2</ele>
        <time>2022-06-27T15:35:12Z</time>
      </trkpt>
      <trkpt lat="42.4130100" lon="-4.2962830">
        <ele>813.4</ele>
        <time>2022-06-27T15:35:13Z</time>
      </trkpt>
      <trkpt lat="42.4130430" lon="-4.2964550">
        <ele>813.4</ele>
        <time>2022-06-27T15:35:14Z</time>
      </trkpt>
      <trkpt lat="42.4130630" lon="-4.2965690">
        <ele>813.4</ele>
        <time>2022-06-27T15:35:15Z</time>
      </trkpt>
      <trkpt lat="42.4130830" lon="-4.2966830">
        <ele>813.4</ele>
        <time>2022-06-27T15:35:16Z</time>
      </trkpt>
      <trkpt lat="42.4131010" lon="-4.2967720">
        <ele>813.6</ele>
        <time>2022-06-27T15:35:17Z</time>
      </trkpt>
      <trkpt lat="42.4131200" lon="-4.2968610">
        <ele>813.6</ele>
        <time>2022-06-27T15:35:18Z</time>
      </trkpt>
      <trkpt lat="42.4131570" lon="-4.2970390">
        <ele>813.6</ele>
        <time>2022-06-27T15:35:19Z</time>
      </trkpt>
      <trkpt lat="42.4131730" lon="-4.2971300">
        <ele>813.6</ele>
        <time>2022-06-27T15:35:20Z</time>
      </trkpt>
      <trkpt lat="42.4131960" lon="-4.2972440">
        <ele>813.6</ele>
        <time>2022-06-27T15:35:21Z</time>
      </trkpt>
      <trkpt lat="42.4132180" lon="-4.2973580">
        <ele>813.6</ele>
        <time>2022-06-27T15:35:22Z</time>
      </trkpt>
      <trkpt lat="42.4132410" lon="-4.2974740">
        <ele>813.8</ele>
        <time>2022-06-27T15:35:23Z</time>
      </trkpt>
      <trkpt lat="42.4132680" lon="-4.2976110">
        <ele>813.6</ele>
        <time>2022-06-27T15:35:24Z</time>
      </trkpt>
      <trkpt lat="42.4132870" lon="-4.2977020">
        <ele>813.6</ele>
        <time>2022-06-27T15:35:25Z</time>
      </trkpt>
      <trkpt lat="42.4133100" lon="-4.2978170">
        <ele>813.6</ele>
        <time>2022-06-27T15:35:26Z</time>
      </trkpt>
      <trkpt lat="42.4133380" lon="-4.2979560">
        <ele>813.6</ele>
        <time>2022-06-27T15:35:27Z</time>
      </trkpt>
      <trkpt lat="42.4133620" lon="-4.2980720">
        <ele>813.6</ele>
        <time>2022-06-27T15:35:28Z</time>
      </trkpt>
      <trkpt lat="42.4133810" lon="-4.2981640">
        <ele>813.8</ele>
        <time>2022-06-27T15:35:29Z</time>
      </trkpt>
      <trkpt lat="42.4134040" lon="-4.2982810">
        <ele>814.0</ele>
        <time>2022-06-27T15:35:30Z</time>
      </trkpt>
      <trkpt lat="42.4134270" lon="-4.2983960">
        <ele>814.0</ele>
        <time>2022-06-27T15:35:31Z</time>
      </trkpt>
      <trkpt lat="42.4134480" lon="-4.2985110">
        <ele>814.2</ele>
        <time>2022-06-27T15:35:32Z</time>
      </trkpt>
      <trkpt lat="42.4134740" lon="-4.2986480">
        <ele>814.2</ele>
        <time>2022-06-27T15:35:33Z</time>
      </trkpt>
      <trkpt lat="42.4134900" lon="-4.2987260">
        <ele>814.2</ele>
        <time>2022-06-27T15:35:34Z</time>
      </trkpt>
      <trkpt lat="42.4135070" lon="-4.2988050">
        <ele>814.2</ele>
        <time>2022-06-27T15:35:35Z</time>
      </trkpt>
      <trkpt lat="42.4135390" lon="-4.2989620">
        <ele>814.2</ele>
        <time>2022-06-27T15:35:36Z</time>
      </trkpt>
      <trkpt lat="42.4135670" lon="-4.2990980">
        <ele>814.2</ele>
        <time>2022-06-27T15:35:37Z</time>
      </trkpt>
      <trkpt lat="42.4135860" lon="-4.2991890">
        <ele>814.2</ele>
        <time>2022-06-27T15:35:38Z</time>
      </trkpt>
      <trkpt lat="42.4136080" lon="-4.2993020">
        <ele>814.2</ele>
        <time>2022-06-27T15:35:39Z</time>
      </trkpt>
      <trkpt lat="42.4136270" lon="-4.2994150">
        <ele>814.2</ele>
        <time>2022-06-27T15:35:40Z</time>
      </trkpt>
      <trkpt lat="42.4136450" lon="-4.2995050">
        <ele>814.4</ele>
        <time>2022-06-27T15:35:41Z</time>
      </trkpt>
      <trkpt lat="42.4136630" lon="-4.2995960">
        <ele>814.4</ele>
        <time>2022-06-27T15:35:42Z</time>
      </trkpt>
      <trkpt lat="42.4136990" lon="-4.2997760">
        <ele>814.4</ele>
        <time>2022-06-27T15:35:43Z</time>
      </trkpt>
      <trkpt lat="42.4137170" lon="-4.2998660">
        <ele>814.6</ele>
        <time>2022-06-27T15:35:44Z</time>
      </trkpt>
      <trkpt lat="42.4137350" lon="-4.2999560">
        <ele>814.6</ele>
        <time>2022-06-27T15:35:45Z</time>
      </trkpt>
      <trkpt lat="42.4137540" lon="-4.3000470">
        <ele>814.6</ele>
        <time>2022-06-27T15:35:46Z</time>
      </trkpt>
      <trkpt lat="42.4137910" lon="-4.3002280">
        <ele>814.6</ele>
        <time>2022-06-27T15:35:47Z</time>
      </trkpt>
      <trkpt lat="42.4138080" lon="-4.3003200">
        <ele>814.6</ele>
        <time>2022-06-27T15:35:48Z</time>
      </trkpt>
      <trkpt lat="42.4138320" lon="-4.3004310">
        <ele>814.4</ele>
        <time>2022-06-27T15:35:49Z</time>
      </trkpt>
      <trkpt lat="42.4138610" lon="-4.3005680">
        <ele>814.4</ele>
        <time>2022-06-27T15:35:50Z</time>
      </trkpt>
      <trkpt lat="42.4138840" lon="-4.3006810">
        <ele>814.2</ele>
        <time>2022-06-27T15:35:51Z</time>
      </trkpt>
      <trkpt lat="42.4139030" lon="-4.3007730">
        <ele>814.2</ele>
        <time>2022-06-27T15:35:52Z</time>
      </trkpt>
      <trkpt lat="42.4139270" lon="-4.3008870">
        <ele>814.2</ele>
        <time>2022-06-27T15:35:53Z</time>
      </trkpt>
      <trkpt lat="42.4139440" lon="-4.3009720">
        <ele>814.0</ele>
        <time>2022-06-27T15:35:54Z</time>
      </trkpt>
      <trkpt lat="42.4139620" lon="-4.3010570">
        <ele>814.0</ele>
        <time>2022-06-27T15:35:55Z</time>
      </trkpt>
      <trkpt lat="42.4139960" lon="-4.3012270">
        <ele>814.0</ele>
        <time>2022-06-27T15:35:56Z</time>
      </trkpt>
      <trkpt lat="42.4140180" lon="-4.3013430">
        <ele>814.0</ele>
        <time>2022-06-27T15:35:57Z</time>
      </trkpt>
      <trkpt lat="42.4140420" lon="-4.3014560">
        <ele>814.0</ele>
        <time>2022-06-27T15:35:58Z</time>
      </trkpt>
      <trkpt lat="42.4140620" lon="-4.3015480">
        <ele>814.0</ele>
        <time>2022-06-27T15:35:59Z</time>
      </trkpt>
      <trkpt lat="42.4140810" lon="-4.3016400">
        <ele>814.0</ele>
        <time>2022-06-27T15:36:00Z</time>
      </trkpt>
      <trkpt lat="42.4141200" lon="-4.3018230">
        <ele>814.0</ele>
        <time>2022-06-27T15:36:01Z</time>
      </trkpt>
      <trkpt lat="42.4141370" lon="-4.3019100">
        <ele>814.0</ele>
        <time>2022-06-27T15:36:02Z</time>
      </trkpt>
      <trkpt lat="42.4141530" lon="-4.3019960">
        <ele>814.2</ele>
        <time>2022-06-27T15:36:03Z</time>
      </trkpt>
      <trkpt lat="42.4141870" lon="-4.3021690">
        <ele>814.2</ele>
        <time>2022-06-27T15:36:04Z</time>
      </trkpt>
      <trkpt lat="42.4142080" lon="-4.3022850">
        <ele>814.2</ele>
        <time>2022-06-27T15:36:05Z</time>
      </trkpt>
      <trkpt lat="42.4142240" lon="-4.3023780">
        <ele>814.2</ele>
        <time>2022-06-27T15:36:06Z</time>
      </trkpt>
      <trkpt lat="42.4142450" lon="-4.3024930">
        <ele>814.4</ele>
        <time>2022-06-27T15:36:07Z</time>
      </trkpt>
      <trkpt lat="42.4142680" lon="-4.3026080">
        <ele>814.2</ele>
        <time>2022-06-27T15:36:08Z</time>
      </trkpt>
      <trkpt lat="42.4142900" lon="-4.3027240">
        <ele>814.2</ele>
        <time>2022-06-27T15:36:09Z</time>
      </trkpt>
      <trkpt lat="42.4143140" lon="-4.3028390">
        <ele>814.2</ele>
        <time>2022-06-27T15:36:10Z</time>
      </trkpt>
      <trkpt lat="42.4143360" lon="-4.3029530">
        <ele>814.2</ele>
        <time>2022-06-27T15:36:11Z</time>
      </trkpt>
      <trkpt lat="42.4143580" lon="-4.3030680">
        <ele>814.0</ele>
        <time>2022-06-27T15:36:12Z</time>
      </trkpt>
      <trkpt lat="42.4143740" lon="-4.3031540">
        <ele>814.0</ele>
        <time>2022-06-27T15:36:13Z</time>
      </trkpt>
      <trkpt lat="42.4143890" lon="-4.3032400">
        <ele>814.2</ele>
        <time>2022-06-27T15:36:14Z</time>
      </trkpt>
      <trkpt lat="42.4144210" lon="-4.3034110">
        <ele>814.0</ele>
        <time>2022-06-27T15:36:15Z</time>
      </trkpt>
      <trkpt lat="42.4144430" lon="-4.3035270">
        <ele>814.0</ele>
        <time>2022-06-27T15:36:16Z</time>
      </trkpt>
      <trkpt lat="42.4144680" lon="-4.3036400">
        <ele>814.0</ele>
        <time>2022-06-27T15:36:17Z</time>
      </trkpt>
      <trkpt lat="42.4144910" lon="-4.3037530">
        <ele>814.0</ele>
        <time>2022-06-27T15:36:18Z</time>
      </trkpt>
      <trkpt lat="42.4145150" lon="-4.3038660">
        <ele>814.2</ele>
        <time>2022-06-27T15:36:19Z</time>
      </trkpt>
      <trkpt lat="42.4145360" lon="-4.3039790">
        <ele>814.2</ele>
        <time>2022-06-27T15:36:20Z</time>
      </trkpt>
      <trkpt lat="42.4145570" lon="-4.3040920">
        <ele>814.2</ele>
        <time>2022-06-27T15:36:21Z</time>
      </trkpt>
      <trkpt lat="42.4145800" lon="-4.3042050">
        <ele>814.4</ele>
        <time>2022-06-27T15:36:22Z</time>
      </trkpt>
      <trkpt lat="42.4146020" lon="-4.3043170">
        <ele>814.2</ele>
        <time>2022-06-27T15:36:23Z</time>
      </trkpt>
      <trkpt lat="42.4146250" lon="-4.3044300">
        <ele>814.2</ele>
        <time>2022-06-27T15:36:24Z</time>
      </trkpt>
      <trkpt lat="42.4146470" lon="-4.3045420">
        <ele>814.2</ele>
        <time>2022-06-27T15:36:25Z</time>
      </trkpt>
      <trkpt lat="42.4146710" lon="-4.3046520">
        <ele>814.2</ele>
        <time>2022-06-27T15:36:26Z</time>
      </trkpt>
      <trkpt lat="42.4146880" lon="-4.3047360">
        <ele>814.2</ele>
        <time>2022-06-27T15:36:27Z</time>
      </trkpt>
      <trkpt lat="42.4147050" lon="-4.3048200">
        <ele>814.4</ele>
        <time>2022-06-27T15:36:28Z</time>
      </trkpt>
      <trkpt lat="42.4147390" lon="-4.3049890">
        <ele>814.4</ele>
        <time>2022-06-27T15:36:29Z</time>
      </trkpt>
      <trkpt lat="42.4147610" lon="-4.3051030">
        <ele>814.8</ele>
        <time>2022-06-27T15:36:30Z</time>
      </trkpt>
      <trkpt lat="42.4147820" lon="-4.3052150">
        <ele>814.8</ele>
        <time>2022-06-27T15:36:31Z</time>
      </trkpt>
      <trkpt lat="42.4148040" lon="-4.3053290">
        <ele>815.0</ele>
        <time>2022-06-27T15:36:32Z</time>
      </trkpt>
      <trkpt lat="42.4148270" lon="-4.3054410">
        <ele>815.2</ele>
        <time>2022-06-27T15:36:33Z</time>
      </trkpt>
      <trkpt lat="42.4148500" lon="-4.3055520">
        <ele>815.4</ele>
        <time>2022-06-27T15:36:34Z</time>
      </trkpt>
      <trkpt lat="42.4148780" lon="-4.3056870">
        <ele>815.4</ele>
        <time>2022-06-27T15:36:35Z</time>
      </trkpt>
      <trkpt lat="42.4148960" lon="-4.3057780">
        <ele>815.4</ele>
        <time>2022-06-27T15:36:36Z</time>
      </trkpt>
      <trkpt lat="42.4149190" lon="-4.3058920">
        <ele>815.4</ele>
        <time>2022-06-27T15:36:37Z</time>
      </trkpt>
      <trkpt lat="42.4149420" lon="-4.3060030">
        <ele>815.6</ele>
        <time>2022-06-27T15:36:38Z</time>
      </trkpt>
      <trkpt lat="42.4149640" lon="-4.3061150">
        <ele>815.4</ele>
        <time>2022-06-27T15:36:39Z</time>
      </trkpt>
      <trkpt lat="42.4149840" lon="-4.3062270">
        <ele>815.4</ele>
        <time>2022-06-27T15:36:40Z</time>
      </trkpt>
      <trkpt lat="42.4150060" lon="-4.3063390">
        <ele>815.4</ele>
        <time>2022-06-27T15:36:41Z</time>
      </trkpt>
      <trkpt lat="42.4150290" lon="-4.3064510">
        <ele>815.2</ele>
        <time>2022-06-27T15:36:42Z</time>
      </trkpt>
      <trkpt lat="42.4150590" lon="-4.3065810">
        <ele>815.2</ele>
        <time>2022-06-27T15:36:43Z</time>
      </trkpt>
      <trkpt lat="42.4150820" lon="-4.3066950">
        <ele>815.2</ele>
        <time>2022-06-27T15:36:44Z</time>
      </trkpt>
      <trkpt lat="42.4150960" lon="-4.3067870">
        <ele>815.2</ele>
        <time>2022-06-27T15:36:45Z</time>
      </trkpt>
      <trkpt lat="42.4151180" lon="-4.3069020">
        <ele>815.2</ele>
        <time>2022-06-27T15:36:46Z</time>
      </trkpt>
      <trkpt lat="42.4151460" lon="-4.3070390">
        <ele>815.2</ele>
        <time>2022-06-27T15:36:47Z</time>
      </trkpt>
      <trkpt lat="42.4151630" lon="-4.3071170">
        <ele>815.4</ele>
        <time>2022-06-27T15:36:48Z</time>
      </trkpt>
      <trkpt lat="42.4151800" lon="-4.3071960">
        <ele>815.6</ele>
        <time>2022-06-27T15:36:49Z</time>
      </trkpt>
      <trkpt lat="42.4152140" lon="-4.3073540">
        <ele>815.8</ele>
        <time>2022-06-27T15:36:50Z</time>
      </trkpt>
      <trkpt lat="42.4152300" lon="-4.3074440">
        <ele>815.8</ele>
        <time>2022-06-27T15:36:51Z</time>
      </trkpt>
      <trkpt lat="42.4152470" lon="-4.3075340">
        <ele>815.8</ele>
        <time>2022-06-27T15:36:52Z</time>
      </trkpt>
      <trkpt lat="42.4152800" lon="-4.3077150">
        <ele>816.0</ele>
        <time>2022-06-27T15:36:53Z</time>
      </trkpt>
      <trkpt lat="42.4152960" lon="-4.3078000">
        <ele>816.0</ele>
        <time>2022-06-27T15:36:54Z</time>
      </trkpt>
      <trkpt lat="42.4153120" lon="-4.3078860">
        <ele>816.0</ele>
        <time>2022-06-27T15:36:55Z</time>
      </trkpt>
      <trkpt lat="42.4153450" lon="-4.3080570">
        <ele>816.2</ele>
        <time>2022-06-27T15:36:56Z</time>
      </trkpt>
      <trkpt lat="42.4153700" lon="-4.3081710">
        <ele>816.2</ele>
        <time>2022-06-27T15:36:57Z</time>
      </trkpt>
      <trkpt lat="42.4153890" lon="-4.3082640">
        <ele>816.2</ele>
        <time>2022-06-27T15:36:58Z</time>
      </trkpt>
      <trkpt lat="42.4154130" lon="-4.3083790">
        <ele>816.2</ele>
        <time>2022-06-27T15:36:59Z</time>
      </trkpt>
      <trkpt lat="42.4154340" lon="-4.3084930">
        <ele>816.2</ele>
        <time>2022-06-27T15:37:00Z</time>
      </trkpt>
      <trkpt lat="42.4154610" lon="-4.3086310">
        <ele>816.2</ele>
        <time>2022-06-27T15:37:01Z</time>
      </trkpt>
      <trkpt lat="42.4154860" lon="-4.3087450">
        <ele>816.4</ele>
        <time>2022-06-27T15:37:02Z</time>
      </trkpt>
      <trkpt lat="42.4155050" lon="-4.3088360">
        <ele>816.4</ele>
        <time>2022-06-27T15:37:03Z</time>
      </trkpt>
      <trkpt lat="42.4155290" lon="-4.3089500">
        <ele>816.4</ele>
        <time>2022-06-27T15:37:04Z</time>
      </trkpt>
      <trkpt lat="42.4155460" lon="-4.3090360">
        <ele>816.2</ele>
        <time>2022-06-27T15:37:05Z</time>
      </trkpt>
      <trkpt lat="42.4155630" lon="-4.3091210">
        <ele>816.4</ele>
        <time>2022-06-27T15:37:06Z</time>
      </trkpt>
      <trkpt lat="42.4155980" lon="-4.3092920">
        <ele>816.4</ele>
        <time>2022-06-27T15:37:07Z</time>
      </trkpt>
      <trkpt lat="42.4156150" lon="-4.3093820">
        <ele>816.6</ele>
        <time>2022-06-27T15:37:08Z</time>
      </trkpt>
      <trkpt lat="42.4156320" lon="-4.3094730">
        <ele>816.6</ele>
        <time>2022-06-27T15:37:09Z</time>
      </trkpt>
      <trkpt lat="42.4156660" lon="-4.3096550">
        <ele>816.6</ele>
        <time>2022-06-27T15:37:10Z</time>
      </trkpt>
      <trkpt lat="42.4156880" lon="-4.3097690">
        <ele>816.6</ele>
        <time>2022-06-27T15:37:11Z</time>
      </trkpt>
      <trkpt lat="42.4157070" lon="-4.3098600">
        <ele>816.4</ele>
        <time>2022-06-27T15:37:12Z</time>
      </trkpt>
      <trkpt lat="42.4157310" lon="-4.3099740">
        <ele>816.6</ele>
        <time>2022-06-27T15:37:13Z</time>
      </trkpt>
      <trkpt lat="42.4157490" lon="-4.3100670">
        <ele>816.6</ele>
        <time>2022-06-27T15:37:14Z</time>
      </trkpt>
      <trkpt lat="42.4157680" lon="-4.3101590">
        <ele>816.6</ele>
        <time>2022-06-27T15:37:15Z</time>
      </trkpt>
      <trkpt lat="42.4158040" lon="-4.3103440">
        <ele>816.6</ele>
        <time>2022-06-27T15:37:16Z</time>
      </trkpt>
      <trkpt lat="42.4158280" lon="-4.3104610">
        <ele>816.6</ele>
        <time>2022-06-27T15:37:17Z</time>
      </trkpt>
      <trkpt lat="42.4158470" lon="-4.3105530">
        <ele>816.6</ele>
        <time>2022-06-27T15:37:18Z</time>
      </trkpt>
      <trkpt lat="42.4158730" lon="-4.3106920">
        <ele>816.6</ele>
        <time>2022-06-27T15:37:19Z</time>
      </trkpt>
      <trkpt lat="42.4158910" lon="-4.3107860">
        <ele>816.6</ele>
        <time>2022-06-27T15:37:20Z</time>
      </trkpt>
      <trkpt lat="42.4159180" lon="-4.3109250">
        <ele>816.6</ele>
        <time>2022-06-27T15:37:21Z</time>
      </trkpt>
      <trkpt lat="42.4159350" lon="-4.3110170">
        <ele>816.6</ele>
        <time>2022-06-27T15:37:22Z</time>
      </trkpt>
      <trkpt lat="42.4159580" lon="-4.3111320">
        <ele>816.8</ele>
        <time>2022-06-27T15:37:23Z</time>
      </trkpt>
      <trkpt lat="42.4159860" lon="-4.3112710">
        <ele>816.8</ele>
        <time>2022-06-27T15:37:24Z</time>
      </trkpt>
      <trkpt lat="42.4160010" lon="-4.3113540">
        <ele>816.8</ele>
        <time>2022-06-27T15:37:25Z</time>
      </trkpt>
      <trkpt lat="42.4160170" lon="-4.3114380">
        <ele>816.8</ele>
        <time>2022-06-27T15:37:26Z</time>
      </trkpt>
      <trkpt lat="42.4160480" lon="-4.3116060">
        <ele>816.8</ele>
        <time>2022-06-27T15:37:27Z</time>
      </trkpt>
      <trkpt lat="42.4160670" lon="-4.3117010">
        <ele>816.8</ele>
        <time>2022-06-27T15:37:28Z</time>
      </trkpt>
      <trkpt lat="42.4160850" lon="-4.3117960">
        <ele>816.8</ele>
        <time>2022-06-27T15:37:29Z</time>
      </trkpt>
      <trkpt lat="42.4161230" lon="-4.3119860">
        <ele>816.6</ele>
        <time>2022-06-27T15:37:30Z</time>
      </trkpt>
      <trkpt lat="42.4161460" lon="-4.3121020">
        <ele>816.6</ele>
        <time>2022-06-27T15:37:31Z</time>
      </trkpt>
      <trkpt lat="42.4161640" lon="-4.3121950">
        <ele>816.6</ele>
        <time>2022-06-27T15:37:32Z</time>
      </trkpt>
      <trkpt lat="42.4161920" lon="-4.3123310">
        <ele>817.0</ele>
        <time>2022-06-27T15:37:33Z</time>
      </trkpt>
      <trkpt lat="42.4162180" lon="-4.3124430">
        <ele>817.0</ele>
        <time>2022-06-27T15:37:34Z</time>
      </trkpt>
      <trkpt lat="42.4162380" lon="-4.3125340">
        <ele>817.0</ele>
        <time>2022-06-27T15:37:35Z</time>
      </trkpt>
      <trkpt lat="42.4162620" lon="-4.3126460">
        <ele>816.8</ele>
        <time>2022-06-27T15:37:36Z</time>
      </trkpt>
      <trkpt lat="42.4162840" lon="-4.3127600">
        <ele>816.8</ele>
        <time>2022-06-27T15:37:37Z</time>
      </trkpt>
      <trkpt lat="42.4163070" lon="-4.3128720">
        <ele>816.6</ele>
        <time>2022-06-27T15:37:38Z</time>
      </trkpt>
      <trkpt lat="42.4163330" lon="-4.3130060">
        <ele>816.6</ele>
        <time>2022-06-27T15:37:39Z</time>
      </trkpt>
      <trkpt lat="42.4163480" lon="-4.3130850">
        <ele>816.6</ele>
        <time>2022-06-27T15:37:40Z</time>
      </trkpt>
      <trkpt lat="42.4163630" lon="-4.3131640">
        <ele>816.6</ele>
        <time>2022-06-27T15:37:41Z</time>
      </trkpt>
      <trkpt lat="42.4163940" lon="-4.3133230">
        <ele>816.6</ele>
        <time>2022-06-27T15:37:42Z</time>
      </trkpt>
      <trkpt lat="42.4164210" lon="-4.3134570">
        <ele>816.8</ele>
        <time>2022-06-27T15:37:43Z</time>
      </trkpt>
      <trkpt lat="42.4164410" lon="-4.3135670">
        <ele>816.8</ele>
        <time>2022-06-27T15:37:44Z</time>
      </trkpt>
      <trkpt lat="42.4164590" lon="-4.3136570">
        <ele>816.8</ele>
        <time>2022-06-27T15:37:45Z</time>
      </trkpt>
      <trkpt lat="42.4164800" lon="-4.3137700">
        <ele>816.8</ele>
        <time>2022-06-27T15:37:46Z</time>
      </trkpt>
      <trkpt lat="42.4165060" lon="-4.3139050">
        <ele>817.0</ele>
        <time>2022-06-27T15:37:47Z</time>
      </trkpt>
      <trkpt lat="42.4165230" lon="-4.3139960">
        <ele>817.0</ele>
        <time>2022-06-27T15:37:48Z</time>
      </trkpt>
      <trkpt lat="42.4165480" lon="-4.3141320">
        <ele>817.0</ele>
        <time>2022-06-27T15:37:49Z</time>
      </trkpt>
      <trkpt lat="42.4165660" lon="-4.3142220">
        <ele>817.2</ele>
        <time>2022-06-27T15:37:50Z</time>
      </trkpt>
      <trkpt lat="42.4165880" lon="-4.3143350">
        <ele>817.2</ele>
        <time>2022-06-27T15:37:51Z</time>
      </trkpt>
      <trkpt lat="42.4166150" lon="-4.3144710">
        <ele>817.4</ele>
        <time>2022-06-27T15:37:52Z</time>
      </trkpt>
      <trkpt lat="42.4166380" lon="-4.3145840">
        <ele>817.4</ele>
        <time>2022-06-27T15:37:53Z</time>
      </trkpt>
      <trkpt lat="42.4166570" lon="-4.3146740">
        <ele>817.6</ele>
        <time>2022-06-27T15:37:54Z</time>
      </trkpt>
      <trkpt lat="42.4166800" lon="-4.3147880">
        <ele>817.8</ele>
        <time>2022-06-27T15:37:55Z</time>
      </trkpt>
      <trkpt lat="42.4167020" lon="-4.3149030">
        <ele>817.8</ele>
        <time>2022-06-27T15:37:56Z</time>
      </trkpt>
      <trkpt lat="42.4167250" lon="-4.3150170">
        <ele>818.0</ele>
        <time>2022-06-27T15:37:57Z</time>
      </trkpt>
      <trkpt lat="42.4167520" lon="-4.3151550">
        <ele>818.0</ele>
        <time>2022-06-27T15:37:58Z</time>
      </trkpt>
      <trkpt lat="42.4167710" lon="-4.3152470">
        <ele>818.0</ele>
        <time>2022-06-27T15:37:59Z</time>
      </trkpt>
      <trkpt lat="42.4167960" lon="-4.3153620">
        <ele>818.0</ele>
        <time>2022-06-27T15:38:00Z</time>
      </trkpt>
      <trkpt lat="42.4168250" lon="-4.3155000">
        <ele>818.0</ele>
        <time>2022-06-27T15:38:01Z</time>
      </trkpt>
      <trkpt lat="42.4168480" lon="-4.3156160">
        <ele>818.0</ele>
        <time>2022-06-27T15:38:02Z</time>
      </trkpt>
      <trkpt lat="42.4168670" lon="-4.3157070">
        <ele>818.0</ele>
        <time>2022-06-27T15:38:03Z</time>
      </trkpt>
      <trkpt lat="42.4168910" lon="-4.3158230">
        <ele>818.0</ele>
        <time>2022-06-27T15:38:04Z</time>
      </trkpt>
      <trkpt lat="42.4169140" lon="-4.3159400">
        <ele>818.0</ele>
        <time>2022-06-27T15:38:05Z</time>
      </trkpt>
      <trkpt lat="42.4169430" lon="-4.3160800">
        <ele>818.0</ele>
        <time>2022-06-27T15:38:06Z</time>
      </trkpt>
      <trkpt lat="42.4169670" lon="-4.3161950">
        <ele>818.0</ele>
        <time>2022-06-27T15:38:07Z</time>
      </trkpt>
      <trkpt lat="42.4169900" lon="-4.3163120">
        <ele>818.0</ele>
        <time>2022-06-27T15:38:08Z</time>
      </trkpt>
      <trkpt lat="42.4170080" lon="-4.3164050">
        <ele>818.2</ele>
        <time>2022-06-27T15:38:09Z</time>
      </trkpt>
      <trkpt lat="42.4170340" lon="-4.3165440">
        <ele>818.2</ele>
        <time>2022-06-27T15:38:10Z</time>
      </trkpt>
      <trkpt lat="42.4170570" lon="-4.3166590">
        <ele>818.4</ele>
        <time>2022-06-27T15:38:11Z</time>
      </trkpt>
      <trkpt lat="42.4170760" lon="-4.3167530">
        <ele>818.2</ele>
        <time>2022-06-27T15:38:12Z</time>
      </trkpt>
      <trkpt lat="42.4171000" lon="-4.3168690">
        <ele>818.2</ele>
        <time>2022-06-27T15:38:13Z</time>
      </trkpt>
      <trkpt lat="42.4171250" lon="-4.3169840">
        <ele>818.2</ele>
        <time>2022-06-27T15:38:14Z</time>
      </trkpt>
      <trkpt lat="42.4171470" lon="-4.3171030">
        <ele>818.2</ele>
        <time>2022-06-27T15:38:15Z</time>
      </trkpt>
      <trkpt lat="42.4171750" lon="-4.3172440">
        <ele>818.4</ele>
        <time>2022-06-27T15:38:16Z</time>
      </trkpt>
      <trkpt lat="42.4171990" lon="-4.3173610">
        <ele>818.4</ele>
        <time>2022-06-27T15:38:17Z</time>
      </trkpt>
      <trkpt lat="42.4172190" lon="-4.3174560">
        <ele>818.2</ele>
        <time>2022-06-27T15:38:18Z</time>
      </trkpt>
      <trkpt lat="42.4172420" lon="-4.3175740">
        <ele>818.2</ele>
        <time>2022-06-27T15:38:19Z</time>
      </trkpt>
      <trkpt lat="42.4172710" lon="-4.3177160">
        <ele>818.0</ele>
        <time>2022-06-27T15:38:20Z</time>
      </trkpt>
      <trkpt lat="42.4172950" lon="-4.3178340">
        <ele>818.0</ele>
        <time>2022-06-27T15:38:21Z</time>
      </trkpt>
      <trkpt lat="42.4173100" lon="-4.3179300">
        <ele>818.0</ele>
        <time>2022-06-27T15:38:22Z</time>
      </trkpt>
      <trkpt lat="42.4173330" lon="-4.3180480">
        <ele>817.8</ele>
        <time>2022-06-27T15:38:23Z</time>
      </trkpt>
      <trkpt lat="42.4173570" lon="-4.3181670">
        <ele>817.8</ele>
        <time>2022-06-27T15:38:24Z</time>
      </trkpt>
      <trkpt lat="42.4173810" lon="-4.3182850">
        <ele>818.0</ele>
        <time>2022-06-27T15:38:25Z</time>
      </trkpt>
      <trkpt lat="42.4174090" lon="-4.3184260">
        <ele>818.0</ele>
        <time>2022-06-27T15:38:26Z</time>
      </trkpt>
      <trkpt lat="42.4174290" lon="-4.3185210">
        <ele>817.8</ele>
        <time>2022-06-27T15:38:27Z</time>
      </trkpt>
      <trkpt lat="42.4174530" lon="-4.3186390">
        <ele>817.8</ele>
        <time>2022-06-27T15:38:28Z</time>
      </trkpt>
      <trkpt lat="42.4174760" lon="-4.3187560">
        <ele>817.8</ele>
        <time>2022-06-27T15:38:29Z</time>
      </trkpt>
      <trkpt lat="42.4175030" lon="-4.3188990">
        <ele>817.8</ele>
        <time>2022-06-27T15:38:30Z</time>
      </trkpt>
      <trkpt lat="42.4175220" lon="-4.3189950">
        <ele>817.8</ele>
        <time>2022-06-27T15:38:31Z</time>
      </trkpt>
      <trkpt lat="42.4175450" lon="-4.3191160">
        <ele>817.6</ele>
        <time>2022-06-27T15:38:32Z</time>
      </trkpt>
      <trkpt lat="42.4175760" lon="-4.3192600">
        <ele>817.6</ele>
        <time>2022-06-27T15:38:33Z</time>
      </trkpt>
      <trkpt lat="42.4176020" lon="-4.3193800">
        <ele>817.6</ele>
        <time>2022-06-27T15:38:34Z</time>
      </trkpt>
      <trkpt lat="42.4176260" lon="-4.3195030">
        <ele>817.6</ele>
        <time>2022-06-27T15:38:35Z</time>
      </trkpt>
      <trkpt lat="42.4176440" lon="-4.3196010">
        <ele>817.4</ele>
        <time>2022-06-27T15:38:36Z</time>
      </trkpt>
      <trkpt lat="42.4176680" lon="-4.3197240">
        <ele>817.4</ele>
        <time>2022-06-27T15:38:37Z</time>
      </trkpt>
      <trkpt lat="42.4176990" lon="-4.3198710">
        <ele>817.4</ele>
        <time>2022-06-27T15:38:38Z</time>
      </trkpt>
      <trkpt lat="42.4177230" lon="-4.3199930">
        <ele>817.4</ele>
        <time>2022-06-27T15:38:39Z</time>
      </trkpt>
      <trkpt lat="42.4177470" lon="-4.3201150">
        <ele>817.4</ele>
        <time>2022-06-27T15:38:40Z</time>
      </trkpt>
      <trkpt lat="42.4177660" lon="-4.3202130">
        <ele>817.4</ele>
        <time>2022-06-27T15:38:41Z</time>
      </trkpt>
      <trkpt lat="42.4177920" lon="-4.3203340">
        <ele>817.4</ele>
        <time>2022-06-27T15:38:42Z</time>
      </trkpt>
      <trkpt lat="42.4178230" lon="-4.3204820">
        <ele>817.2</ele>
        <time>2022-06-27T15:38:43Z</time>
      </trkpt>
      <trkpt lat="42.4178470" lon="-4.3206070">
        <ele>817.2</ele>
        <time>2022-06-27T15:38:44Z</time>
      </trkpt>
      <trkpt lat="42.4178670" lon="-4.3207080">
        <ele>817.2</ele>
        <time>2022-06-27T15:38:45Z</time>
      </trkpt>
      <trkpt lat="42.4178910" lon="-4.3208350">
        <ele>817.2</ele>
        <time>2022-06-27T15:38:46Z</time>
      </trkpt>
      <trkpt lat="42.4179210" lon="-4.3209890">
        <ele>817.0</ele>
        <time>2022-06-27T15:38:47Z</time>
      </trkpt>
      <trkpt lat="42.4179420" lon="-4.3210900">
        <ele>816.8</ele>
        <time>2022-06-27T15:38:48Z</time>
      </trkpt>
      <trkpt lat="42.4179710" lon="-4.3212430">
        <ele>816.8</ele>
        <time>2022-06-27T15:38:49Z</time>
      </trkpt>
      <trkpt lat="42.4179900" lon="-4.3213460">
        <ele>816.4</ele>
        <time>2022-06-27T15:38:50Z</time>
      </trkpt>
      <trkpt lat="42.4180150" lon="-4.3214740">
        <ele>816.2</ele>
        <time>2022-06-27T15:38:51Z</time>
      </trkpt>
      <trkpt lat="42.4180430" lon="-4.3216300">
        <ele>816.2</ele>
        <time>2022-06-27T15:38:52Z</time>
      </trkpt>
      <trkpt lat="42.4180690" lon="-4.3217600">
        <ele>816.0</ele>
        <time>2022-06-27T15:38:53Z</time>
      </trkpt>
      <trkpt lat="42.4180890" lon="-4.3218620">
        <ele>815.8</ele>
        <time>2022-06-27T15:38:54Z</time>
      </trkpt>
      <trkpt lat="42.4181110" lon="-4.3219910">
        <ele>815.8</ele>
        <time>2022-06-27T15:38:55Z</time>
      </trkpt>
      <trkpt lat="42.4181320" lon="-4.3220930">
        <ele>815.8</ele>
        <time>2022-06-27T15:38:56Z</time>
      </trkpt>
      <trkpt lat="42.4181530" lon="-4.3221940">
        <ele>815.6</ele>
        <time>2022-06-27T15:38:57Z</time>
      </trkpt>
      <trkpt lat="42.4181940" lon="-4.3223970">
        <ele>815.4</ele>
        <time>2022-06-27T15:38:58Z</time>
      </trkpt>
      <trkpt lat="42.4182160" lon="-4.3224990">
        <ele>815.4</ele>
        <time>2022-06-27T15:38:59Z</time>
      </trkpt>
      <trkpt lat="42.4182400" lon="-4.3226270">
        <ele>815.6</ele>
        <time>2022-06-27T15:39:00Z</time>
      </trkpt>
      <trkpt lat="42.4182720" lon="-4.3227790">
        <ele>815.8</ele>
        <time>2022-06-27T15:39:01Z</time>
      </trkpt>
      <trkpt lat="42.4182980" lon="-4.3229070">
        <ele>815.8</ele>
        <time>2022-06-27T15:39:02Z</time>
      </trkpt>
      <trkpt lat="42.4183170" lon="-4.3230090">
        <ele>815.8</ele>
        <time>2022-06-27T15:39:03Z</time>
      </trkpt>
      <trkpt lat="42.4183410" lon="-4.3231340">
        <ele>815.6</ele>
        <time>2022-06-27T15:39:04Z</time>
      </trkpt>
      <trkpt lat="42.4183640" lon="-4.3232590">
        <ele>815.6</ele>
        <time>2022-06-27T15:39:05Z</time>
      </trkpt>
      <trkpt lat="42.4183880" lon="-4.3233840">
        <ele>815.4</ele>
        <time>2022-06-27T15:39:06Z</time>
      </trkpt>
      <trkpt lat="42.4184140" lon="-4.3235080">
        <ele>815.4</ele>
        <time>2022-06-27T15:39:07Z</time>
      </trkpt>
      <trkpt lat="42.4184400" lon="-4.3236320">
        <ele>815.4</ele>
        <time>2022-06-27T15:39:08Z</time>
      </trkpt>
      <trkpt lat="42.4184670" lon="-4.3237530">
        <ele>815.4</ele>
        <time>2022-06-27T15:39:09Z</time>
      </trkpt>
      <trkpt lat="42.4184910" lon="-4.3238750">
        <ele>815.6</ele>
        <time>2022-06-27T15:39:10Z</time>
      </trkpt>
      <trkpt lat="42.4185140" lon="-4.3239980">
        <ele>815.6</ele>
        <time>2022-06-27T15:39:11Z</time>
      </trkpt>
      <trkpt lat="42.4185360" lon="-4.3241210">
        <ele>815.4</ele>
        <time>2022-06-27T15:39:12Z</time>
      </trkpt>
      <trkpt lat="42.4185650" lon="-4.3242660">
        <ele>815.4</ele>
        <time>2022-06-27T15:39:13Z</time>
      </trkpt>
      <trkpt lat="42.4185840" lon="-4.3243620">
        <ele>815.2</ele>
        <time>2022-06-27T15:39:14Z</time>
      </trkpt>
      <trkpt lat="42.4186120" lon="-4.3245040">
        <ele>815.0</ele>
        <time>2022-06-27T15:39:15Z</time>
      </trkpt>
      <trkpt lat="42.4186290" lon="-4.3245990">
        <ele>814.8</ele>
        <time>2022-06-27T15:39:16Z</time>
      </trkpt>
      <trkpt lat="42.4186500" lon="-4.3247180">
        <ele>814.8</ele>
        <time>2022-06-27T15:39:17Z</time>
      </trkpt>
      <trkpt lat="42.4186730" lon="-4.3248370">
        <ele>815.0</ele>
        <time>2022-06-27T15:39:18Z</time>
      </trkpt>
      <trkpt lat="42.4186940" lon="-4.3249570">
        <ele>815.0</ele>
        <time>2022-06-27T15:39:19Z</time>
      </trkpt>
      <trkpt lat="42.4187170" lon="-4.3250740">
        <ele>815.0</ele>
        <time>2022-06-27T15:39:20Z</time>
      </trkpt>
      <trkpt lat="42.4187400" lon="-4.3251890">
        <ele>815.0</ele>
        <time>2022-06-27T15:39:21Z</time>
      </trkpt>
      <trkpt lat="42.4187690" lon="-4.3253280">
        <ele>815.0</ele>
        <time>2022-06-27T15:39:22Z</time>
      </trkpt>
      <trkpt lat="42.4187880" lon="-4.3254210">
        <ele>815.0</ele>
        <time>2022-06-27T15:39:23Z</time>
      </trkpt>
      <trkpt lat="42.4188120" lon="-4.3255390">
        <ele>815.0</ele>
        <time>2022-06-27T15:39:24Z</time>
      </trkpt>
      <trkpt lat="42.4188360" lon="-4.3256570">
        <ele>815.0</ele>
        <time>2022-06-27T15:39:25Z</time>
      </trkpt>
      <trkpt lat="42.4188640" lon="-4.3257980">
        <ele>815.0</ele>
        <time>2022-06-27T15:39:26Z</time>
      </trkpt>
      <trkpt lat="42.4188810" lon="-4.3258920">
        <ele>815.4</ele>
        <time>2022-06-27T15:39:27Z</time>
      </trkpt>
      <trkpt lat="42.4189050" lon="-4.3260050">
        <ele>815.4</ele>
        <time>2022-06-27T15:39:28Z</time>
      </trkpt>
      <trkpt lat="42.4189270" lon="-4.3261220">
        <ele>815.4</ele>
        <time>2022-06-27T15:39:29Z</time>
      </trkpt>
      <trkpt lat="42.4189500" lon="-4.3262390">
        <ele>815.6</ele>
        <time>2022-06-27T15:39:30Z</time>
      </trkpt>
      <trkpt lat="42.4189750" lon="-4.3263560">
        <ele>815.6</ele>
        <time>2022-06-27T15:39:31Z</time>
      </trkpt>
      <trkpt lat="42.4189980" lon="-4.3264730">
        <ele>815.4</ele>
        <time>2022-06-27T15:39:32Z</time>
      </trkpt>
      <trkpt lat="42.4190220" lon="-4.3265860">
        <ele>815.4</ele>
        <time>2022-06-27T15:39:33Z</time>
      </trkpt>
      <trkpt lat="42.4190450" lon="-4.3267010">
        <ele>815.2</ele>
        <time>2022-06-27T15:39:34Z</time>
      </trkpt>
      <trkpt lat="42.4190690" lon="-4.3268160">
        <ele>815.2</ele>
        <time>2022-06-27T15:39:35Z</time>
      </trkpt>
      <trkpt lat="42.4190980" lon="-4.3269530">
        <ele>815.2</ele>
        <time>2022-06-27T15:39:36Z</time>
      </trkpt>
      <trkpt lat="42.4191170" lon="-4.3270450">
        <ele>815.2</ele>
        <time>2022-06-27T15:39:37Z</time>
      </trkpt>
      <trkpt lat="42.4191400" lon="-4.3271620">
        <ele>815.2</ele>
        <time>2022-06-27T15:39:38Z</time>
      </trkpt>
      <trkpt lat="42.4191680" lon="-4.3273040">
        <ele>815.0</ele>
        <time>2022-06-27T15:39:39Z</time>
      </trkpt>
      <trkpt lat="42.4191930" lon="-4.3274230">
        <ele>815.0</ele>
        <time>2022-06-27T15:39:40Z</time>
      </trkpt>
      <trkpt lat="42.4192120" lon="-4.3275200">
        <ele>815.0</ele>
        <time>2022-06-27T15:39:41Z</time>
      </trkpt>
      <trkpt lat="42.4192360" lon="-4.3276410">
        <ele>815.0</ele>
        <time>2022-06-27T15:39:42Z</time>
      </trkpt>
      <trkpt lat="42.4192590" lon="-4.3277640">
        <ele>815.0</ele>
        <time>2022-06-27T15:39:43Z</time>
      </trkpt>
      <trkpt lat="42.4192840" lon="-4.3278860">
        <ele>815.0</ele>
        <time>2022-06-27T15:39:44Z</time>
      </trkpt>
      <trkpt lat="42.4193120" lon="-4.3280350">
        <ele>815.0</ele>
        <time>2022-06-27T15:39:45Z</time>
      </trkpt>
      <trkpt lat="42.4193310" lon="-4.3281360">
        <ele>815.0</ele>
        <time>2022-06-27T15:39:46Z</time>
      </trkpt>
      <trkpt lat="42.4193500" lon="-4.3282290">
        <ele>814.8</ele>
        <time>2022-06-27T15:39:47Z</time>
      </trkpt>
      <trkpt lat="42.4193690" lon="-4.3283230">
        <ele>814.8</ele>
        <time>2022-06-27T15:39:48Z</time>
      </trkpt>
      <trkpt lat="42.4194080" lon="-4.3285110">
        <ele>814.8</ele>
        <time>2022-06-27T15:39:49Z</time>
      </trkpt>
      <trkpt lat="42.4194320" lon="-4.3286380">
        <ele>814.8</ele>
        <time>2022-06-27T15:39:50Z</time>
      </trkpt>
      <trkpt lat="42.4194560" lon="-4.3287670">
        <ele>814.8</ele>
        <time>2022-06-27T15:39:51Z</time>
      </trkpt>
      <trkpt lat="42.4194810" lon="-4.3288950">
        <ele>814.8</ele>
        <time>2022-06-27T15:39:52Z</time>
      </trkpt>
      <trkpt lat="42.4195070" lon="-4.3290240">
        <ele>814.8</ele>
        <time>2022-06-27T15:39:53Z</time>
      </trkpt>
      <trkpt lat="42.4195330" lon="-4.3291540">
        <ele>814.6</ele>
        <time>2022-06-27T15:39:54Z</time>
      </trkpt>
      <trkpt lat="42.4195590" lon="-4.3292820">
        <ele>814.6</ele>
        <time>2022-06-27T15:39:55Z</time>
      </trkpt>
      <trkpt lat="42.4195860" lon="-4.3294100">
        <ele>814.6</ele>
        <time>2022-06-27T15:39:56Z</time>
      </trkpt>
      <trkpt lat="42.4196130" lon="-4.3295320">
        <ele>814.6</ele>
        <time>2022-06-27T15:39:57Z</time>
      </trkpt>
      <trkpt lat="42.4196380" lon="-4.3296540">
        <ele>814.8</ele>
        <time>2022-06-27T15:39:58Z</time>
      </trkpt>
      <trkpt lat="42.4196620" lon="-4.3297790">
        <ele>814.8</ele>
        <time>2022-06-27T15:39:59Z</time>
      </trkpt>
      <trkpt lat="42.4196850" lon="-4.3299060">
        <ele>814.8</ele>
        <time>2022-06-27T15:40:00Z</time>
      </trkpt>
      <trkpt lat="42.4197110" lon="-4.3300320">
        <ele>814.6</ele>
        <time>2022-06-27T15:40:01Z</time>
      </trkpt>
      <trkpt lat="42.4197360" lon="-4.3301560">
        <ele>814.6</ele>
        <time>2022-06-27T15:40:02Z</time>
      </trkpt>
      <trkpt lat="42.4197610" lon="-4.3302790">
        <ele>814.6</ele>
        <time>2022-06-27T15:40:03Z</time>
      </trkpt>
      <trkpt lat="42.4197840" lon="-4.3304030">
        <ele>814.4</ele>
        <time>2022-06-27T15:40:04Z</time>
      </trkpt>
      <trkpt lat="42.4198070" lon="-4.3305270">
        <ele>814.4</ele>
        <time>2022-06-27T15:40:05Z</time>
      </trkpt>
      <trkpt lat="42.4198310" lon="-4.3306530">
        <ele>814.4</ele>
        <time>2022-06-27T15:40:06Z</time>
      </trkpt>
      <trkpt lat="42.4198540" lon="-4.3307770">
        <ele>814.4</ele>
        <time>2022-06-27T15:40:07Z</time>
      </trkpt>
      <trkpt lat="42.4198770" lon="-4.3309010">
        <ele>814.4</ele>
        <time>2022-06-27T15:40:08Z</time>
      </trkpt>
      <trkpt lat="42.4199030" lon="-4.3310240">
        <ele>814.4</ele>
        <time>2022-06-27T15:40:09Z</time>
      </trkpt>
      <trkpt lat="42.4199280" lon="-4.3311450">
        <ele>814.2</ele>
        <time>2022-06-27T15:40:10Z</time>
      </trkpt>
      <trkpt lat="42.4199500" lon="-4.3312690">
        <ele>814.2</ele>
        <time>2022-06-27T15:40:11Z</time>
      </trkpt>
      <trkpt lat="42.4199700" lon="-4.3313900">
        <ele>814.2</ele>
        <time>2022-06-27T15:40:12Z</time>
      </trkpt>
      <trkpt lat="42.4199930" lon="-4.3315110">
        <ele>814.2</ele>
        <time>2022-06-27T15:40:13Z</time>
      </trkpt>
      <trkpt lat="42.4200160" lon="-4.3316310">
        <ele>814.0</ele>
        <time>2022-06-27T15:40:14Z</time>
      </trkpt>
      <trkpt lat="42.4200390" lon="-4.3317500">
        <ele>814.0</ele>
        <time>2022-06-27T15:40:15Z</time>
      </trkpt>
      <trkpt lat="42.4200630" lon="-4.3318700">
        <ele>813.8</ele>
        <time>2022-06-27T15:40:16Z</time>
      </trkpt>
      <trkpt lat="42.4200860" lon="-4.3319900">
        <ele>813.8</ele>
        <time>2022-06-27T15:40:17Z</time>
      </trkpt>
      <trkpt lat="42.4201100" lon="-4.3321100">
        <ele>813.8</ele>
        <time>2022-06-27T15:40:18Z</time>
      </trkpt>
      <trkpt lat="42.4201320" lon="-4.3322300">
        <ele>813.4</ele>
        <time>2022-06-27T15:40:19Z</time>
      </trkpt>
      <trkpt lat="42.4201530" lon="-4.3323480">
        <ele>813.6</ele>
        <time>2022-06-27T15:40:20Z</time>
      </trkpt>
      <trkpt lat="42.4201740" lon="-4.3324670">
        <ele>813.4</ele>
        <time>2022-06-27T15:40:21Z</time>
      </trkpt>
      <trkpt lat="42.4201960" lon="-4.3325830">
        <ele>813.4</ele>
        <time>2022-06-27T15:40:22Z</time>
      </trkpt>
      <trkpt lat="42.4202200" lon="-4.3326990">
        <ele>813.2</ele>
        <time>2022-06-27T15:40:23Z</time>
      </trkpt>
      <trkpt lat="42.4202450" lon="-4.3328170">
        <ele>813.2</ele>
        <time>2022-06-27T15:40:24Z</time>
      </trkpt>
      <trkpt lat="42.4202700" lon="-4.3329340">
        <ele>813.2</ele>
        <time>2022-06-27T15:40:25Z</time>
      </trkpt>
      <trkpt lat="42.4202920" lon="-4.3330510">
        <ele>813.2</ele>
        <time>2022-06-27T15:40:26Z</time>
      </trkpt>
      <trkpt lat="42.4203160" lon="-4.3331670">
        <ele>813.2</ele>
        <time>2022-06-27T15:40:27Z</time>
      </trkpt>
      <trkpt lat="42.4203390" lon="-4.3332840">
        <ele>813.2</ele>
        <time>2022-06-27T15:40:28Z</time>
      </trkpt>
      <trkpt lat="42.4203610" lon="-4.3334030">
        <ele>813.2</ele>
        <time>2022-06-27T15:40:29Z</time>
      </trkpt>
      <trkpt lat="42.4203860" lon="-4.3335190">
        <ele>813.4</ele>
        <time>2022-06-27T15:40:30Z</time>
      </trkpt>
      <trkpt lat="42.4204090" lon="-4.3336370">
        <ele>813.6</ele>
        <time>2022-06-27T15:40:31Z</time>
      </trkpt>
      <trkpt lat="42.4204300" lon="-4.3337550">
        <ele>813.6</ele>
        <time>2022-06-27T15:40:32Z</time>
      </trkpt>
      <trkpt lat="42.4204510" lon="-4.3338730">
        <ele>813.6</ele>
        <time>2022-06-27T15:40:33Z</time>
      </trkpt>
      <trkpt lat="42.4204750" lon="-4.3339900">
        <ele>813.8</ele>
        <time>2022-06-27T15:40:34Z</time>
      </trkpt>
      <trkpt lat="42.4204970" lon="-4.3341090">
        <ele>813.8</ele>
        <time>2022-06-27T15:40:35Z</time>
      </trkpt>
      <trkpt lat="42.4205210" lon="-4.3342270">
        <ele>813.8</ele>
        <time>2022-06-27T15:40:36Z</time>
      </trkpt>
      <trkpt lat="42.4205480" lon="-4.3343700">
        <ele>813.8</ele>
        <time>2022-06-27T15:40:37Z</time>
      </trkpt>
      <trkpt lat="42.4205680" lon="-4.3344650">
        <ele>813.8</ele>
        <time>2022-06-27T15:40:38Z</time>
      </trkpt>
      <trkpt lat="42.4205930" lon="-4.3345810">
        <ele>813.8</ele>
        <time>2022-06-27T15:40:39Z</time>
      </trkpt>
      <trkpt lat="42.4206170" lon="-4.3346970">
        <ele>813.6</ele>
        <time>2022-06-27T15:40:40Z</time>
      </trkpt>
      <trkpt lat="42.4206420" lon="-4.3348130">
        <ele>813.6</ele>
        <time>2022-06-27T15:40:41Z</time>
      </trkpt>
      <trkpt lat="42.4206650" lon="-4.3349290">
        <ele>813.6</ele>
        <time>2022-06-27T15:40:42Z</time>
      </trkpt>
      <trkpt lat="42.4206880" lon="-4.3350450">
        <ele>813.6</ele>
        <time>2022-06-27T15:40:43Z</time>
      </trkpt>
      <trkpt lat="42.4207120" lon="-4.3351620">
        <ele>813.4</ele>
        <time>2022-06-27T15:40:44Z</time>
      </trkpt>
      <trkpt lat="42.4207360" lon="-4.3352790">
        <ele>813.6</ele>
        <time>2022-06-27T15:40:45Z</time>
      </trkpt>
      <trkpt lat="42.4207590" lon="-4.3353960">
        <ele>813.6</ele>
        <time>2022-06-27T15:40:46Z</time>
      </trkpt>
      <trkpt lat="42.4207810" lon="-4.3355130">
        <ele>813.6</ele>
        <time>2022-06-27T15:40:47Z</time>
      </trkpt>
      <trkpt lat="42.4208030" lon="-4.3356310">
        <ele>813.6</ele>
        <time>2022-06-27T15:40:48Z</time>
      </trkpt>
      <trkpt lat="42.4208230" lon="-4.3357490">
        <ele>813.6</ele>
        <time>2022-06-27T15:40:49Z</time>
      </trkpt>
      <trkpt lat="42.4208460" lon="-4.3358660">
        <ele>813.6</ele>
        <time>2022-06-27T15:40:50Z</time>
      </trkpt>
      <trkpt lat="42.4208700" lon="-4.3359840">
        <ele>813.6</ele>
        <time>2022-06-27T15:40:51Z</time>
      </trkpt>
      <trkpt lat="42.4208950" lon="-4.3361010">
        <ele>813.8</ele>
        <time>2022-06-27T15:40:52Z</time>
      </trkpt>
      <trkpt lat="42.4209190" lon="-4.3362150">
        <ele>813.8</ele>
        <time>2022-06-27T15:40:53Z</time>
      </trkpt>
      <trkpt lat="42.4209420" lon="-4.3363310">
        <ele>813.8</ele>
        <time>2022-06-27T15:40:54Z</time>
      </trkpt>
      <trkpt lat="42.4209650" lon="-4.3364500">
        <ele>814.0</ele>
        <time>2022-06-27T15:40:55Z</time>
      </trkpt>
      <trkpt lat="42.4209910" lon="-4.3365900">
        <ele>814.0</ele>
        <time>2022-06-27T15:40:56Z</time>
      </trkpt>
      <trkpt lat="42.4210080" lon="-4.3366830">
        <ele>813.8</ele>
        <time>2022-06-27T15:40:57Z</time>
      </trkpt>
      <trkpt lat="42.4210330" lon="-4.3367970">
        <ele>813.8</ele>
        <time>2022-06-27T15:40:58Z</time>
      </trkpt>
      <trkpt lat="42.4210570" lon="-4.3369120">
        <ele>813.8</ele>
        <time>2022-06-27T15:40:59Z</time>
      </trkpt>
      <trkpt lat="42.4210800" lon="-4.3370270">
        <ele>813.8</ele>
        <time>2022-06-27T15:41:00Z</time>
      </trkpt>
      <trkpt lat="42.4211020" lon="-4.3371410">
        <ele>813.8</ele>
        <time>2022-06-27T15:41:01Z</time>
      </trkpt>
      <trkpt lat="42.4211240" lon="-4.3372550">
        <ele>813.8</ele>
        <time>2022-06-27T15:41:02Z</time>
      </trkpt>
      <trkpt lat="42.4211450" lon="-4.3373700">
        <ele>813.8</ele>
        <time>2022-06-27T15:41:03Z</time>
      </trkpt>
      <trkpt lat="42.4211690" lon="-4.3374860">
        <ele>813.8</ele>
        <time>2022-06-27T15:41:04Z</time>
      </trkpt>
      <trkpt lat="42.4211910" lon="-4.3376030">
        <ele>813.8</ele>
        <time>2022-06-27T15:41:05Z</time>
      </trkpt>
      <trkpt lat="42.4212140" lon="-4.3377190">
        <ele>813.8</ele>
        <time>2022-06-27T15:41:06Z</time>
      </trkpt>
      <trkpt lat="42.4212380" lon="-4.3378340">
        <ele>813.8</ele>
        <time>2022-06-27T15:41:07Z</time>
      </trkpt>
      <trkpt lat="42.4212600" lon="-4.3379500">
        <ele>814.0</ele>
        <time>2022-06-27T15:41:08Z</time>
      </trkpt>
      <trkpt lat="42.4212830" lon="-4.3380640">
        <ele>814.0</ele>
        <time>2022-06-27T15:41:09Z</time>
      </trkpt>
      <trkpt lat="42.4213050" lon="-4.3381790">
        <ele>814.2</ele>
        <time>2022-06-27T15:41:10Z</time>
      </trkpt>
      <trkpt lat="42.4213290" lon="-4.3382950">
        <ele>814.2</ele>
        <time>2022-06-27T15:41:11Z</time>
      </trkpt>
      <trkpt lat="42.4213530" lon="-4.3384120">
        <ele>814.2</ele>
        <time>2022-06-27T15:41:12Z</time>
      </trkpt>
      <trkpt lat="42.4213770" lon="-4.3385280">
        <ele>814.2</ele>
        <time>2022-06-27T15:41:13Z</time>
      </trkpt>
      <trkpt lat="42.4213980" lon="-4.3386470">
        <ele>814.2</ele>
        <time>2022-06-27T15:41:14Z</time>
      </trkpt>
      <trkpt lat="42.4214200" lon="-4.3387660">
        <ele>814.2</ele>
        <time>2022-06-27T15:41:15Z</time>
      </trkpt>
      <trkpt lat="42.4214420" lon="-4.3388830">
        <ele>814.2</ele>
        <time>2022-06-27T15:41:16Z</time>
      </trkpt>
      <trkpt lat="42.4214650" lon="-4.3389990">
        <ele>814.2</ele>
        <time>2022-06-27T15:41:17Z</time>
      </trkpt>
      <trkpt lat="42.4214890" lon="-4.3391150">
        <ele>814.2</ele>
        <time>2022-06-27T15:41:18Z</time>
      </trkpt>
      <trkpt lat="42.4215050" lon="-4.3392010">
        <ele>814.2</ele>
        <time>2022-06-27T15:41:19Z</time>
      </trkpt>
      <trkpt lat="42.4215220" lon="-4.3392860">
        <ele>814.2</ele>
        <time>2022-06-27T15:41:20Z</time>
      </trkpt>
      <trkpt lat="42.4215560" lon="-4.3394570">
        <ele>814.4</ele>
        <time>2022-06-27T15:41:21Z</time>
      </trkpt>
      <trkpt lat="42.4215780" lon="-4.3395670">
        <ele>814.4</ele>
        <time>2022-06-27T15:41:22Z</time>
      </trkpt>
      <trkpt lat="42.4215990" lon="-4.3396770">
        <ele>814.4</ele>
        <time>2022-06-27T15:41:23Z</time>
      </trkpt>
      <trkpt lat="42.4216200" lon="-4.3397880">
        <ele>814.4</ele>
        <time>2022-06-27T15:41:24Z</time>
      </trkpt>
      <trkpt lat="42.4216400" lon="-4.3398980">
        <ele>814.4</ele>
        <time>2022-06-27T15:41:25Z</time>
      </trkpt>
      <trkpt lat="42.4216610" lon="-4.3400070">
        <ele>814.4</ele>
        <time>2022-06-27T15:41:26Z</time>
      </trkpt>
      <trkpt lat="42.4216840" lon="-4.3401180">
        <ele>814.4</ele>
        <time>2022-06-27T15:41:27Z</time>
      </trkpt>
      <trkpt lat="42.4217040" lon="-4.3402290">
        <ele>814.4</ele>
        <time>2022-06-27T15:41:28Z</time>
      </trkpt>
      <trkpt lat="42.4217230" lon="-4.3403410">
        <ele>814.4</ele>
        <time>2022-06-27T15:41:29Z</time>
      </trkpt>
      <trkpt lat="42.4217470" lon="-4.3404520">
        <ele>814.2</ele>
        <time>2022-06-27T15:41:30Z</time>
      </trkpt>
      <trkpt lat="42.4217700" lon="-4.3405630">
        <ele>814.2</ele>
        <time>2022-06-27T15:41:31Z</time>
      </trkpt>
      <trkpt lat="42.4217920" lon="-4.3406750">
        <ele>814.0</ele>
        <time>2022-06-27T15:41:32Z</time>
      </trkpt>
      <trkpt lat="42.4218130" lon="-4.3407860">
        <ele>814.0</ele>
        <time>2022-06-27T15:41:33Z</time>
      </trkpt>
      <trkpt lat="42.4218370" lon="-4.3408950">
        <ele>814.0</ele>
        <time>2022-06-27T15:41:34Z</time>
      </trkpt>
      <trkpt lat="42.4218600" lon="-4.3410070">
        <ele>814.0</ele>
        <time>2022-06-27T15:41:35Z</time>
      </trkpt>
      <trkpt lat="42.4218820" lon="-4.3411220">
        <ele>814.0</ele>
        <time>2022-06-27T15:41:36Z</time>
      </trkpt>
      <trkpt lat="42.4219040" lon="-4.3412350">
        <ele>814.0</ele>
        <time>2022-06-27T15:41:37Z</time>
      </trkpt>
      <trkpt lat="42.4219260" lon="-4.3413460">
        <ele>814.0</ele>
        <time>2022-06-27T15:41:38Z</time>
      </trkpt>
      <trkpt lat="42.4219480" lon="-4.3414550">
        <ele>814.0</ele>
        <time>2022-06-27T15:41:39Z</time>
      </trkpt>
      <trkpt lat="42.4219710" lon="-4.3415610">
        <ele>814.0</ele>
        <time>2022-06-27T15:41:40Z</time>
      </trkpt>
      <trkpt lat="42.4219940" lon="-4.3416650">
        <ele>814.0</ele>
        <time>2022-06-27T15:41:41Z</time>
      </trkpt>
      <trkpt lat="42.4220180" lon="-4.3417710">
        <ele>814.0</ele>
        <time>2022-06-27T15:41:42Z</time>
      </trkpt>
      <trkpt lat="42.4220420" lon="-4.3418810">
        <ele>814.0</ele>
        <time>2022-06-27T15:41:43Z</time>
      </trkpt>
      <trkpt lat="42.4220650" lon="-4.3419890">
        <ele>814.0</ele>
        <time>2022-06-27T15:41:44Z</time>
      </trkpt>
      <trkpt lat="42.4220890" lon="-4.3420960">
        <ele>814.0</ele>
        <time>2022-06-27T15:41:45Z</time>
      </trkpt>
      <trkpt lat="42.4221130" lon="-4.3422020">
        <ele>814.0</ele>
        <time>2022-06-27T15:41:46Z</time>
      </trkpt>
      <trkpt lat="42.4221370" lon="-4.3423070">
        <ele>814.0</ele>
        <time>2022-06-27T15:41:47Z</time>
      </trkpt>
      <trkpt lat="42.4221590" lon="-4.3424150">
        <ele>814.0</ele>
        <time>2022-06-27T15:41:48Z</time>
      </trkpt>
      <trkpt lat="42.4221800" lon="-4.3425260">
        <ele>814.0</ele>
        <time>2022-06-27T15:41:49Z</time>
      </trkpt>
      <trkpt lat="42.4222000" lon="-4.3426400">
        <ele>814.0</ele>
        <time>2022-06-27T15:41:50Z</time>
      </trkpt>
      <trkpt lat="42.4222210" lon="-4.3427510">
        <ele>814.0</ele>
        <time>2022-06-27T15:41:51Z</time>
      </trkpt>
      <trkpt lat="42.4222450" lon="-4.3428610">
        <ele>814.0</ele>
        <time>2022-06-27T15:41:52Z</time>
      </trkpt>
      <trkpt lat="42.4222670" lon="-4.3429720">
        <ele>814.0</ele>
        <time>2022-06-27T15:41:53Z</time>
      </trkpt>
      <trkpt lat="42.4222890" lon="-4.3430820">
        <ele>813.8</ele>
        <time>2022-06-27T15:41:54Z</time>
      </trkpt>
      <trkpt lat="42.4223120" lon="-4.3431920">
        <ele>813.8</ele>
        <time>2022-06-27T15:41:55Z</time>
      </trkpt>
      <trkpt lat="42.4223330" lon="-4.3433010">
        <ele>813.8</ele>
        <time>2022-06-27T15:41:56Z</time>
      </trkpt>
      <trkpt lat="42.4223530" lon="-4.3434110">
        <ele>813.8</ele>
        <time>2022-06-27T15:41:57Z</time>
      </trkpt>
      <trkpt lat="42.4223730" lon="-4.3435210">
        <ele>813.8</ele>
        <time>2022-06-27T15:41:58Z</time>
      </trkpt>
      <trkpt lat="42.4223940" lon="-4.3436320">
        <ele>813.8</ele>
        <time>2022-06-27T15:41:59Z</time>
      </trkpt>
      <trkpt lat="42.4224160" lon="-4.3437410">
        <ele>813.6</ele>
        <time>2022-06-27T15:42:00Z</time>
      </trkpt>
      <trkpt lat="42.4224370" lon="-4.3438520">
        <ele>813.6</ele>
        <time>2022-06-27T15:42:01Z</time>
      </trkpt>
      <trkpt lat="42.4224560" lon="-4.3439620">
        <ele>813.4</ele>
        <time>2022-06-27T15:42:02Z</time>
      </trkpt>
      <trkpt lat="42.4224750" lon="-4.3440690">
        <ele>813.6</ele>
        <time>2022-06-27T15:42:03Z</time>
      </trkpt>
      <trkpt lat="42.4224950" lon="-4.3441760">
        <ele>813.6</ele>
        <time>2022-06-27T15:42:04Z</time>
      </trkpt>
      <trkpt lat="42.4225160" lon="-4.3442850">
        <ele>813.6</ele>
        <time>2022-06-27T15:42:05Z</time>
      </trkpt>
      <trkpt lat="42.4225370" lon="-4.3443920">
        <ele>813.6</ele>
        <time>2022-06-27T15:42:06Z</time>
      </trkpt>
      <trkpt lat="42.4225600" lon="-4.3445000">
        <ele>813.8</ele>
        <time>2022-06-27T15:42:07Z</time>
      </trkpt>
      <trkpt lat="42.4225820" lon="-4.3446080">
        <ele>813.8</ele>
        <time>2022-06-27T15:42:08Z</time>
      </trkpt>
      <trkpt lat="42.4226040" lon="-4.3447160">
        <ele>813.8</ele>
        <time>2022-06-27T15:42:09Z</time>
      </trkpt>
      <trkpt lat="42.4226260" lon="-4.3448230">
        <ele>813.6</ele>
        <time>2022-06-27T15:42:10Z</time>
      </trkpt>
      <trkpt lat="42.4226480" lon="-4.3449310">
        <ele>813.8</ele>
        <time>2022-06-27T15:42:11Z</time>
      </trkpt>
      <trkpt lat="42.4226710" lon="-4.3450360">
        <ele>813.8</ele>
        <time>2022-06-27T15:42:12Z</time>
      </trkpt>
      <trkpt lat="42.4226920" lon="-4.3451420">
        <ele>813.8</ele>
        <time>2022-06-27T15:42:13Z</time>
      </trkpt>
      <trkpt lat="42.4227130" lon="-4.3452470">
        <ele>814.0</ele>
        <time>2022-06-27T15:42:14Z</time>
      </trkpt>
      <trkpt lat="42.4227340" lon="-4.3453540">
        <ele>814.2</ele>
        <time>2022-06-27T15:42:15Z</time>
      </trkpt>
      <trkpt lat="42.4227540" lon="-4.3454600">
        <ele>814.2</ele>
        <time>2022-06-27T15:42:16Z</time>
      </trkpt>
      <trkpt lat="42.4227700" lon="-4.3455380">
        <ele>814.2</ele>
        <time>2022-06-27T15:42:17Z</time>
      </trkpt>
      <trkpt lat="42.4227860" lon="-4.3456170">
        <ele>814.2</ele>
        <time>2022-06-27T15:42:18Z</time>
      </trkpt>
      <trkpt lat="42.4228180" lon="-4.3457740">
        <ele>814.2</ele>
        <time>2022-06-27T15:42:19Z</time>
      </trkpt>
      <trkpt lat="42.4228400" lon="-4.3458780">
        <ele>814.4</ele>
        <time>2022-06-27T15:42:20Z</time>
      </trkpt>
      <trkpt lat="42.4228600" lon="-4.3459840">
        <ele>814.4</ele>
        <time>2022-06-27T15:42:21Z</time>
      </trkpt>
      <trkpt lat="42.4228810" lon="-4.3460910">
        <ele>814.4</ele>
        <time>2022-06-27T15:42:22Z</time>
      </trkpt>
      <trkpt lat="42.4229000" lon="-4.3462010">
        <ele>814.4</ele>
        <time>2022-06-27T15:42:23Z</time>
      </trkpt>
      <trkpt lat="42.4229200" lon="-4.3463060">
        <ele>814.4</ele>
        <time>2022-06-27T15:42:24Z</time>
      </trkpt>
      <trkpt lat="42.4229420" lon="-4.3464120">
        <ele>814.4</ele>
        <time>2022-06-27T15:42:25Z</time>
      </trkpt>
      <trkpt lat="42.4229620" lon="-4.3465200">
        <ele>814.0</ele>
        <time>2022-06-27T15:42:26Z</time>
      </trkpt>
      <trkpt lat="42.4229800" lon="-4.3466310">
        <ele>813.8</ele>
        <time>2022-06-27T15:42:27Z</time>
      </trkpt>
      <trkpt lat="42.4229990" lon="-4.3467400">
        <ele>813.6</ele>
        <time>2022-06-27T15:42:28Z</time>
      </trkpt>
      <trkpt lat="42.4230190" lon="-4.3468470">
        <ele>813.6</ele>
        <time>2022-06-27T15:42:29Z</time>
      </trkpt>
      <trkpt lat="42.4230410" lon="-4.3469510">
        <ele>813.6</ele>
        <time>2022-06-27T15:42:30Z</time>
      </trkpt>
      <trkpt lat="42.4230610" lon="-4.3470550">
        <ele>813.4</ele>
        <time>2022-06-27T15:42:31Z</time>
      </trkpt>
      <trkpt lat="42.4230820" lon="-4.3471590">
        <ele>813.4</ele>
        <time>2022-06-27T15:42:32Z</time>
      </trkpt>
      <trkpt lat="42.4231030" lon="-4.3472620">
        <ele>813.4</ele>
        <time>2022-06-27T15:42:33Z</time>
      </trkpt>
      <trkpt lat="42.4231230" lon="-4.3473670">
        <ele>813.6</ele>
        <time>2022-06-27T15:42:34Z</time>
      </trkpt>
      <trkpt lat="42.4231450" lon="-4.3474720">
        <ele>813.6</ele>
        <time>2022-06-27T15:42:35Z</time>
      </trkpt>
      <trkpt lat="42.4231670" lon="-4.3475790">
        <ele>813.8</ele>
        <time>2022-06-27T15:42:36Z</time>
      </trkpt>
      <trkpt lat="42.4231900" lon="-4.3476850">
        <ele>813.8</ele>
        <time>2022-06-27T15:42:37Z</time>
      </trkpt>
      <trkpt lat="42.4232120" lon="-4.3477890">
        <ele>813.8</ele>
        <time>2022-06-27T15:42:38Z</time>
      </trkpt>
      <trkpt lat="42.4232280" lon="-4.3478680">
        <ele>813.8</ele>
        <time>2022-06-27T15:42:39Z</time>
      </trkpt>
      <trkpt lat="42.4232440" lon="-4.3479460">
        <ele>813.8</ele>
        <time>2022-06-27T15:42:40Z</time>
      </trkpt>
      <trkpt lat="42.4232770" lon="-4.3481040">
        <ele>814.0</ele>
        <time>2022-06-27T15:42:41Z</time>
      </trkpt>
      <trkpt lat="42.4232980" lon="-4.3482070">
        <ele>814.0</ele>
        <time>2022-06-27T15:42:42Z</time>
      </trkpt>
      <trkpt lat="42.4233210" lon="-4.3483100">
        <ele>814.0</ele>
        <time>2022-06-27T15:42:43Z</time>
      </trkpt>
      <trkpt lat="42.4233450" lon="-4.3484100">
        <ele>814.0</ele>
        <time>2022-06-27T15:42:44Z</time>
      </trkpt>
      <trkpt lat="42.4233680" lon="-4.3485110">
        <ele>814.0</ele>
        <time>2022-06-27T15:42:45Z</time>
      </trkpt>
      <trkpt lat="42.4233940" lon="-4.3486080">
        <ele>813.8</ele>
        <time>2022-06-27T15:42:46Z</time>
      </trkpt>
      <trkpt lat="42.4234200" lon="-4.3487040">
        <ele>813.8</ele>
        <time>2022-06-27T15:42:47Z</time>
      </trkpt>
      <trkpt lat="42.4234460" lon="-4.3487990">
        <ele>813.8</ele>
        <time>2022-06-27T15:42:48Z</time>
      </trkpt>
      <trkpt lat="42.4234690" lon="-4.3488920">
        <ele>813.6</ele>
        <time>2022-06-27T15:42:49Z</time>
      </trkpt>
      <trkpt lat="42.4234830" lon="-4.3489840">
        <ele>813.4</ele>
        <time>2022-06-27T15:42:50Z</time>
      </trkpt>
      <trkpt lat="42.4234810" lon="-4.3490700">
        <ele>813.4</ele>
        <time>2022-06-27T15:42:51Z</time>
      </trkpt>
      <trkpt lat="42.4234580" lon="-4.3491480">
        <ele>813.4</ele>
        <time>2022-06-27T15:42:52Z</time>
      </trkpt>
      <trkpt lat="42.4234190" lon="-4.3492160">
        <ele>813.4</ele>
        <time>2022-06-27T15:42:53Z</time>
      </trkpt>
      <trkpt lat="42.4233680" lon="-4.3492700">
        <ele>813.4</ele>
        <time>2022-06-27T15:42:54Z</time>
      </trkpt>
      <trkpt lat="42.4233080" lon="-4.3493200">
        <ele>813.4</ele>
        <time>2022-06-27T15:42:55Z</time>
      </trkpt>
      <trkpt lat="42.4232410" lon="-4.3493610">
        <ele>813.6</ele>
        <time>2022-06-27T15:42:56Z</time>
      </trkpt>
      <trkpt lat="42.4231720" lon="-4.3493920">
        <ele>813.6</ele>
        <time>2022-06-27T15:42:57Z</time>
      </trkpt>
      <trkpt lat="42.4231010" lon="-4.3494200">
        <ele>813.6</ele>
        <time>2022-06-27T15:42:58Z</time>
      </trkpt>
      <trkpt lat="42.4230290" lon="-4.3494490">
        <ele>813.6</ele>
        <time>2022-06-27T15:42:59Z</time>
      </trkpt>
      <trkpt lat="42.4229560" lon="-4.3494780">
        <ele>813.8</ele>
        <time>2022-06-27T15:43:00Z</time>
      </trkpt>
      <trkpt lat="42.4228810" lon="-4.3495040">
        <ele>813.8</ele>
        <time>2022-06-27T15:43:01Z</time>
      </trkpt>
      <trkpt lat="42.4228060" lon="-4.3495310">
        <ele>814.0</ele>
        <time>2022-06-27T15:43:02Z</time>
      </trkpt>
      <trkpt lat="42.4227340" lon="-4.3495550">
        <ele>814.2</ele>
        <time>2022-06-27T15:43:03Z</time>
      </trkpt>
      <trkpt lat="42.4226620" lon="-4.3495770">
        <ele>814.2</ele>
        <time>2022-06-27T15:43:04Z</time>
      </trkpt>
      <trkpt lat="42.4225890" lon="-4.3496010">
        <ele>814.4</ele>
        <time>2022-06-27T15:43:05Z</time>
      </trkpt>
      <trkpt lat="42.4225150" lon="-4.3496250">
        <ele>814.4</ele>
        <time>2022-06-27T15:43:06Z</time>
      </trkpt>
      <trkpt lat="42.4224280" lon="-4.3496560">
        <ele>814.6</ele>
        <time>2022-06-27T15:43:07Z</time>
      </trkpt>
      <trkpt lat="42.4223680" lon="-4.3496780">
        <ele>814.6</ele>
        <time>2022-06-27T15:43:08Z</time>
      </trkpt>
      <trkpt lat="42.4222920" lon="-4.3497010">
        <ele>814.8</ele>
        <time>2022-06-27T15:43:09Z</time>
      </trkpt>
      <trkpt lat="42.4222150" lon="-4.3497250">
        <ele>814.8</ele>
        <time>2022-06-27T15:43:10Z</time>
      </trkpt>
      <trkpt lat="42.4221380" lon="-4.3497490">
        <ele>815.0</ele>
        <time>2022-06-27T15:43:11Z</time>
      </trkpt>
      <trkpt lat="42.4220600" lon="-4.3497760">
        <ele>815.0</ele>
        <time>2022-06-27T15:43:12Z</time>
      </trkpt>
      <trkpt lat="42.4219820" lon="-4.3498080">
        <ele>815.0</ele>
        <time>2022-06-27T15:43:13Z</time>
      </trkpt>
      <trkpt lat="42.4219030" lon="-4.3498390">
        <ele>815.0</ele>
        <time>2022-06-27T15:43:14Z</time>
      </trkpt>
      <trkpt lat="42.4218240" lon="-4.3498700">
        <ele>815.2</ele>
        <time>2022-06-27T15:43:15Z</time>
      </trkpt>
      <trkpt lat="42.4217450" lon="-4.3499020">
        <ele>815.4</ele>
        <time>2022-06-27T15:43:16Z</time>
      </trkpt>
      <trkpt lat="42.4216660" lon="-4.3499340">
        <ele>815.4</ele>
        <time>2022-06-27T15:43:17Z</time>
      </trkpt>
      <trkpt lat="42.4215880" lon="-4.3499690">
        <ele>815.6</ele>
        <time>2022-06-27T15:43:18Z</time>
      </trkpt>
      <trkpt lat="42.4215080" lon="-4.3500020">
        <ele>815.6</ele>
        <time>2022-06-27T15:43:19Z</time>
      </trkpt>
      <trkpt lat="42.4214260" lon="-4.3500380">
        <ele>815.6</ele>
        <time>2022-06-27T15:43:20Z</time>
      </trkpt>
      <trkpt lat="42.4213310" lon="-4.3500800">
        <ele>815.8</ele>
        <time>2022-06-27T15:43:21Z</time>
      </trkpt>
      <trkpt lat="42.4212670" lon="-4.3501060">
        <ele>816.0</ele>
        <time>2022-06-27T15:43:22Z</time>
      </trkpt>
      <trkpt lat="42.4211880" lon="-4.3501380">
        <ele>816.0</ele>
        <time>2022-06-27T15:43:23Z</time>
      </trkpt>
      <trkpt lat="42.4211100" lon="-4.3501720">
        <ele>816.2</ele>
        <time>2022-06-27T15:43:24Z</time>
      </trkpt>
      <trkpt lat="42.4210320" lon="-4.3502060">
        <ele>816.2</ele>
        <time>2022-06-27T15:43:25Z</time>
      </trkpt>
      <trkpt lat="42.4209550" lon="-4.3502400">
        <ele>816.2</ele>
        <time>2022-06-27T15:43:26Z</time>
      </trkpt>
      <trkpt lat="42.4208800" lon="-4.3502760">
        <ele>815.8</ele>
        <time>2022-06-27T15:43:27Z</time>
      </trkpt>
      <trkpt lat="42.4208040" lon="-4.3503100">
        <ele>815.8</ele>
        <time>2022-06-27T15:43:28Z</time>
      </trkpt>
      <trkpt lat="42.4207240" lon="-4.3503440">
        <ele>815.8</ele>
        <time>2022-06-27T15:43:29Z</time>
      </trkpt>
      <trkpt lat="42.4206270" lon="-4.3503870">
        <ele>815.8</ele>
        <time>2022-06-27T15:43:30Z</time>
      </trkpt>
      <trkpt lat="42.4205620" lon="-4.3504170">
        <ele>815.8</ele>
        <time>2022-06-27T15:43:31Z</time>
      </trkpt>
      <trkpt lat="42.4204790" lon="-4.3504540">
        <ele>815.8</ele>
        <time>2022-06-27T15:43:32Z</time>
      </trkpt>
      <trkpt lat="42.4203960" lon="-4.3504890">
        <ele>815.8</ele>
        <time>2022-06-27T15:43:33Z</time>
      </trkpt>
      <trkpt lat="42.4203130" lon="-4.3505210">
        <ele>815.6</ele>
        <time>2022-06-27T15:43:34Z</time>
      </trkpt>
      <trkpt lat="42.4202320" lon="-4.3505520">
        <ele>815.6</ele>
        <time>2022-06-27T15:43:35Z</time>
      </trkpt>
      <trkpt lat="42.4201510" lon="-4.3505850">
        <ele>815.4</ele>
        <time>2022-06-27T15:43:36Z</time>
      </trkpt>
      <trkpt lat="42.4200680" lon="-4.3506190">
        <ele>815.4</ele>
        <time>2022-06-27T15:43:37Z</time>
      </trkpt>
      <trkpt lat="42.4199860" lon="-4.3506550">
        <ele>815.2</ele>
        <time>2022-06-27T15:43:38Z</time>
      </trkpt>
      <trkpt lat="42.4199030" lon="-4.3506910">
        <ele>814.8</ele>
        <time>2022-06-27T15:43:39Z</time>
      </trkpt>
      <trkpt lat="42.4198190" lon="-4.3507260">
        <ele>814.6</ele>
        <time>2022-06-27T15:43:40Z</time>
      </trkpt>
      <trkpt lat="42.4197350" lon="-4.3507590">
        <ele>814.4</ele>
        <time>2022-06-27T15:43:41Z</time>
      </trkpt>
      <trkpt lat="42.4196510" lon="-4.3507930">
        <ele>814.6</ele>
        <time>2022-06-27T15:43:42Z</time>
      </trkpt>
      <trkpt lat="42.4195680" lon="-4.3508290">
        <ele>814.2</ele>
        <time>2022-06-27T15:43:43Z</time>
      </trkpt>
      <trkpt lat="42.4194660" lon="-4.3508710">
        <ele>814.2</ele>
        <time>2022-06-27T15:43:44Z</time>
      </trkpt>
      <trkpt lat="42.4193980" lon="-4.3508980">
        <ele>814.2</ele>
        <time>2022-06-27T15:43:45Z</time>
      </trkpt>
      <trkpt lat="42.4193130" lon="-4.3509320">
        <ele>814.2</ele>
        <time>2022-06-27T15:43:46Z</time>
      </trkpt>
      <trkpt lat="42.4192300" lon="-4.3509650">
        <ele>814.0</ele>
        <time>2022-06-27T15:43:47Z</time>
      </trkpt>
      <trkpt lat="42.4191450" lon="-4.3509970">
        <ele>814.0</ele>
        <time>2022-06-27T15:43:48Z</time>
      </trkpt>
      <trkpt lat="42.4190620" lon="-4.3510310">
        <ele>814.0</ele>
        <time>2022-06-27T15:43:49Z</time>
      </trkpt>
      <trkpt lat="42.4189780" lon="-4.3510640">
        <ele>814.2</ele>
        <time>2022-06-27T15:43:50Z</time>
      </trkpt>
      <trkpt lat="42.4188970" lon="-4.3510970">
        <ele>814.2</ele>
        <time>2022-06-27T15:43:51Z</time>
      </trkpt>
      <trkpt lat="42.4188150" lon="-4.3511290">
        <ele>814.2</ele>
        <time>2022-06-27T15:43:52Z</time>
      </trkpt>
      <trkpt lat="42.4187330" lon="-4.3511610">
        <ele>814.2</ele>
        <time>2022-06-27T15:43:53Z</time>
      </trkpt>
      <trkpt lat="42.4186510" lon="-4.3511930">
        <ele>814.2</ele>
        <time>2022-06-27T15:43:54Z</time>
      </trkpt>
      <trkpt lat="42.4185690" lon="-4.3512240">
        <ele>814.0</ele>
        <time>2022-06-27T15:43:55Z</time>
      </trkpt>
      <trkpt lat="42.4184860" lon="-4.3512550">
        <ele>814.2</ele>
        <time>2022-06-27T15:43:56Z</time>
      </trkpt>
      <trkpt lat="42.4184050" lon="-4.3512880">
        <ele>814.2</ele>
        <time>2022-06-27T15:43:57Z</time>
      </trkpt>
      <trkpt lat="42.4183230" lon="-4.3513210">
        <ele>814.2</ele>
        <time>2022-06-27T15:43:58Z</time>
      </trkpt>
      <trkpt lat="42.4182420" lon="-4.3513550">
        <ele>814.0</ele>
        <time>2022-06-27T15:43:59Z</time>
      </trkpt>
      <trkpt lat="42.4181600" lon="-4.3513890">
        <ele>814.0</ele>
        <time>2022-06-27T15:44:00Z</time>
      </trkpt>
      <trkpt lat="42.4180800" lon="-4.3514220">
        <ele>814.0</ele>
        <time>2022-06-27T15:44:01Z</time>
      </trkpt>
      <trkpt lat="42.4180010" lon="-4.3514540">
        <ele>814.0</ele>
        <time>2022-06-27T15:44:02Z</time>
      </trkpt>
      <trkpt lat="42.4179240" lon="-4.3514860">
        <ele>814.0</ele>
        <time>2022-06-27T15:44:03Z</time>
      </trkpt>
      <trkpt lat="42.4178460" lon="-4.3515220">
        <ele>814.2</ele>
        <time>2022-06-27T15:44:04Z</time>
      </trkpt>
      <trkpt lat="42.4177680" lon="-4.3515600">
        <ele>814.2</ele>
        <time>2022-06-27T15:44:05Z</time>
      </trkpt>
      <trkpt lat="42.4176880" lon="-4.3515950">
        <ele>814.4</ele>
        <time>2022-06-27T15:44:06Z</time>
      </trkpt>
      <trkpt lat="42.4176090" lon="-4.3516310">
        <ele>814.4</ele>
        <time>2022-06-27T15:44:07Z</time>
      </trkpt>
      <trkpt lat="42.4175300" lon="-4.3516650">
        <ele>814.4</ele>
        <time>2022-06-27T15:44:08Z</time>
      </trkpt>
      <trkpt lat="42.4174500" lon="-4.3516970">
        <ele>814.4</ele>
        <time>2022-06-27T15:44:09Z</time>
      </trkpt>
      <trkpt lat="42.4173710" lon="-4.3517290">
        <ele>814.6</ele>
        <time>2022-06-27T15:44:10Z</time>
      </trkpt>
      <trkpt lat="42.4172930" lon="-4.3517610">
        <ele>814.6</ele>
        <time>2022-06-27T15:44:11Z</time>
      </trkpt>
      <trkpt lat="42.4172140" lon="-4.3517920">
        <ele>814.6</ele>
        <time>2022-06-27T15:44:12Z</time>
      </trkpt>
      <trkpt lat="42.4171340" lon="-4.3518240">
        <ele>814.6</ele>
        <time>2022-06-27T15:44:13Z</time>
      </trkpt>
      <trkpt lat="42.4170540" lon="-4.3518580">
        <ele>814.6</ele>
        <time>2022-06-27T15:44:14Z</time>
      </trkpt>
      <trkpt lat="42.4169750" lon="-4.3518920">
        <ele>814.6</ele>
        <time>2022-06-27T15:44:15Z</time>
      </trkpt>
      <trkpt lat="42.4168970" lon="-4.3519280">
        <ele>814.4</ele>
        <time>2022-06-27T15:44:16Z</time>
      </trkpt>
      <trkpt lat="42.4168160" lon="-4.3519620">
        <ele>814.4</ele>
        <time>2022-06-27T15:44:17Z</time>
      </trkpt>
      <trkpt lat="42.4167360" lon="-4.3519950">
        <ele>814.6</ele>
        <time>2022-06-27T15:44:18Z</time>
      </trkpt>
      <trkpt lat="42.4166550" lon="-4.3520290">
        <ele>814.8</ele>
        <time>2022-06-27T15:44:19Z</time>
      </trkpt>
      <trkpt lat="42.4165710" lon="-4.3520620">
        <ele>814.6</ele>
        <time>2022-06-27T15:44:20Z</time>
      </trkpt>
      <trkpt lat="42.4164840" lon="-4.3520980">
        <ele>814.4</ele>
        <time>2022-06-27T15:44:21Z</time>
      </trkpt>
      <trkpt lat="42.4163970" lon="-4.3521350">
        <ele>814.2</ele>
        <time>2022-06-27T15:44:22Z</time>
      </trkpt>
      <trkpt lat="42.4163090" lon="-4.3521720">
        <ele>814.2</ele>
        <time>2022-06-27T15:44:23Z</time>
      </trkpt>
      <trkpt lat="42.4162220" lon="-4.3522090">
        <ele>814.2</ele>
        <time>2022-06-27T15:44:24Z</time>
      </trkpt>
      <trkpt lat="42.4161360" lon="-4.3522440">
        <ele>814.2</ele>
        <time>2022-06-27T15:44:25Z</time>
      </trkpt>
      <trkpt lat="42.4160500" lon="-4.3522800">
        <ele>814.2</ele>
        <time>2022-06-27T15:44:26Z</time>
      </trkpt>
      <trkpt lat="42.4159640" lon="-4.3523150">
        <ele>814.0</ele>
        <time>2022-06-27T15:44:27Z</time>
      </trkpt>
      <trkpt lat="42.4158800" lon="-4.3523500">
        <ele>814.0</ele>
        <time>2022-06-27T15:44:28Z</time>
      </trkpt>
      <trkpt lat="42.4157970" lon="-4.3523860">
        <ele>813.8</ele>
        <time>2022-06-27T15:44:29Z</time>
      </trkpt>
      <trkpt lat="42.4157150" lon="-4.3524210">
        <ele>813.8</ele>
        <time>2022-06-27T15:44:30Z</time>
      </trkpt>
      <trkpt lat="42.4156310" lon="-4.3524560">
        <ele>813.8</ele>
        <time>2022-06-27T15:44:31Z</time>
      </trkpt>
      <trkpt lat="42.4155470" lon="-4.3524920">
        <ele>813.8</ele>
        <time>2022-06-27T15:44:32Z</time>
      </trkpt>
      <trkpt lat="42.4154630" lon="-4.3525270">
        <ele>814.0</ele>
        <time>2022-06-27T15:44:33Z</time>
      </trkpt>
      <trkpt lat="42.4153810" lon="-4.3525640">
        <ele>814.2</ele>
        <time>2022-06-27T15:44:34Z</time>
      </trkpt>
      <trkpt lat="42.4152810" lon="-4.3526060">
        <ele>814.2</ele>
        <time>2022-06-27T15:44:35Z</time>
      </trkpt>
      <trkpt lat="42.4152140" lon="-4.3526340">
        <ele>814.2</ele>
        <time>2022-06-27T15:44:36Z</time>
      </trkpt>
      <trkpt lat="42.4151290" lon="-4.3526680">
        <ele>814.2</ele>
        <time>2022-06-27T15:44:37Z</time>
      </trkpt>
      <trkpt lat="42.4150450" lon="-4.3527030">
        <ele>814.2</ele>
        <time>2022-06-27T15:44:38Z</time>
      </trkpt>
      <trkpt lat="42.4149610" lon="-4.3527360">
        <ele>814.4</ele>
        <time>2022-06-27T15:44:39Z</time>
      </trkpt>
      <trkpt lat="42.4148760" lon="-4.3527720">
        <ele>814.4</ele>
        <time>2022-06-27T15:44:40Z</time>
      </trkpt>
      <trkpt lat="42.4147920" lon="-4.3528070">
        <ele>814.6</ele>
        <time>2022-06-27T15:44:41Z</time>
      </trkpt>
      <trkpt lat="42.4147060" lon="-4.3528420">
        <ele>814.6</ele>
        <time>2022-06-27T15:44:42Z</time>
      </trkpt>
      <trkpt lat="42.4146220" lon="-4.3528770">
        <ele>814.8</ele>
        <time>2022-06-27T15:44:43Z</time>
      </trkpt>
      <trkpt lat="42.4145370" lon="-4.3529120">
        <ele>814.8</ele>
        <time>2022-06-27T15:44:44Z</time>
      </trkpt>
      <trkpt lat="42.4144520" lon="-4.3529490">
        <ele>815.0</ele>
        <time>2022-06-27T15:44:45Z</time>
      </trkpt>
      <trkpt lat="42.4143660" lon="-4.3529860">
        <ele>815.0</ele>
        <time>2022-06-27T15:44:46Z</time>
      </trkpt>
      <trkpt lat="42.4142790" lon="-4.3530240">
        <ele>815.0</ele>
        <time>2022-06-27T15:44:47Z</time>
      </trkpt>
      <trkpt lat="42.4141920" lon="-4.3530630">
        <ele>815.0</ele>
        <time>2022-06-27T15:44:48Z</time>
      </trkpt>
      <trkpt lat="42.4141050" lon="-4.3531010">
        <ele>815.0</ele>
        <time>2022-06-27T15:44:49Z</time>
      </trkpt>
      <trkpt lat="42.4140180" lon="-4.3531370">
        <ele>814.8</ele>
        <time>2022-06-27T15:44:50Z</time>
      </trkpt>
      <trkpt lat="42.4139290" lon="-4.3531740">
        <ele>814.8</ele>
        <time>2022-06-27T15:44:51Z</time>
      </trkpt>
      <trkpt lat="42.4138410" lon="-4.3532090">
        <ele>814.8</ele>
        <time>2022-06-27T15:44:52Z</time>
      </trkpt>
      <trkpt lat="42.4137540" lon="-4.3532450">
        <ele>814.8</ele>
        <time>2022-06-27T15:44:53Z</time>
      </trkpt>
      <trkpt lat="42.4136690" lon="-4.3532820">
        <ele>814.8</ele>
        <time>2022-06-27T15:44:54Z</time>
      </trkpt>
      <trkpt lat="42.4135830" lon="-4.3533200">
        <ele>814.8</ele>
        <time>2022-06-27T15:44:55Z</time>
      </trkpt>
      <trkpt lat="42.4134960" lon="-4.3533580">
        <ele>814.8</ele>
        <time>2022-06-27T15:44:56Z</time>
      </trkpt>
      <trkpt lat="42.4134070" lon="-4.3533960">
        <ele>814.8</ele>
        <time>2022-06-27T15:44:57Z</time>
      </trkpt>
      <trkpt lat="42.4133190" lon="-4.3534320">
        <ele>814.8</ele>
        <time>2022-06-27T15:44:58Z</time>
      </trkpt>
      <trkpt lat="42.4132330" lon="-4.3534670">
        <ele>814.8</ele>
        <time>2022-06-27T15:44:59Z</time>
      </trkpt>
      <trkpt lat="42.4131470" lon="-4.3535030">
        <ele>814.8</ele>
        <time>2022-06-27T15:45:00Z</time>
      </trkpt>
      <trkpt lat="42.4130610" lon="-4.3535390">
        <ele>814.8</ele>
        <time>2022-06-27T15:45:01Z</time>
      </trkpt>
      <trkpt lat="42.4129730" lon="-4.3535740">
        <ele>814.6</ele>
        <time>2022-06-27T15:45:02Z</time>
      </trkpt>
      <trkpt lat="42.4128840" lon="-4.3536100">
        <ele>814.6</ele>
        <time>2022-06-27T15:45:03Z</time>
      </trkpt>
      <trkpt lat="42.4127930" lon="-4.3536470">
        <ele>814.6</ele>
        <time>2022-06-27T15:45:04Z</time>
      </trkpt>
      <trkpt lat="42.4127040" lon="-4.3536840">
        <ele>814.4</ele>
        <time>2022-06-27T15:45:05Z</time>
      </trkpt>
      <trkpt lat="42.4126150" lon="-4.3537220">
        <ele>814.4</ele>
        <time>2022-06-27T15:45:06Z</time>
      </trkpt>
      <trkpt lat="42.4125270" lon="-4.3537580">
        <ele>814.4</ele>
        <time>2022-06-27T15:45:07Z</time>
      </trkpt>
      <trkpt lat="42.4124370" lon="-4.3537930">
        <ele>814.4</ele>
        <time>2022-06-27T15:45:08Z</time>
      </trkpt>
      <trkpt lat="42.4123460" lon="-4.3538300">
        <ele>814.4</ele>
        <time>2022-06-27T15:45:09Z</time>
      </trkpt>
      <trkpt lat="42.4122540" lon="-4.3538670">
        <ele>814.4</ele>
        <time>2022-06-27T15:45:10Z</time>
      </trkpt>
      <trkpt lat="42.4121650" lon="-4.3539010">
        <ele>814.4</ele>
        <time>2022-06-27T15:45:11Z</time>
      </trkpt>
      <trkpt lat="42.4120760" lon="-4.3539390">
        <ele>814.4</ele>
        <time>2022-06-27T15:45:12Z</time>
      </trkpt>
      <trkpt lat="42.4119860" lon="-4.3539770">
        <ele>814.4</ele>
        <time>2022-06-27T15:45:13Z</time>
      </trkpt>
      <trkpt lat="42.4118970" lon="-4.3540150">
        <ele>814.4</ele>
        <time>2022-06-27T15:45:14Z</time>
      </trkpt>
      <trkpt lat="42.4118090" lon="-4.3540520">
        <ele>814.6</ele>
        <time>2022-06-27T15:45:15Z</time>
      </trkpt>
      <trkpt lat="42.4117200" lon="-4.3540890">
        <ele>814.6</ele>
        <time>2022-06-27T15:45:16Z</time>
      </trkpt>
      <trkpt lat="42.4116320" lon="-4.3541260">
        <ele>814.6</ele>
        <time>2022-06-27T15:45:17Z</time>
      </trkpt>
      <trkpt lat="42.4115260" lon="-4.3541700">
        <ele>814.6</ele>
        <time>2022-06-27T15:45:18Z</time>
      </trkpt>
      <trkpt lat="42.4114570" lon="-4.3542000">
        <ele>814.6</ele>
        <time>2022-06-27T15:45:19Z</time>
      </trkpt>
      <trkpt lat="42.4113710" lon="-4.3542370">
        <ele>814.6</ele>
        <time>2022-06-27T15:45:20Z</time>
      </trkpt>
      <trkpt lat="42.4112850" lon="-4.3542750">
        <ele>814.8</ele>
        <time>2022-06-27T15:45:21Z</time>
      </trkpt>
      <trkpt lat="42.4112000" lon="-4.3543130">
        <ele>814.8</ele>
        <time>2022-06-27T15:45:22Z</time>
      </trkpt>
      <trkpt lat="42.4111160" lon="-4.3543500">
        <ele>814.8</ele>
        <time>2022-06-27T15:45:23Z</time>
      </trkpt>
      <trkpt lat="42.4110290" lon="-4.3543840">
        <ele>814.8</ele>
        <time>2022-06-27T15:45:24Z</time>
      </trkpt>
      <trkpt lat="42.4109440" lon="-4.3544150">
        <ele>814.8</ele>
        <time>2022-06-27T15:45:25Z</time>
      </trkpt>
      <trkpt lat="42.4108580" lon="-4.3544470">
        <ele>814.8</ele>
        <time>2022-06-27T15:45:26Z</time>
      </trkpt>
      <trkpt lat="42.4107730" lon="-4.3544800">
        <ele>815.0</ele>
        <time>2022-06-27T15:45:27Z</time>
      </trkpt>
      <trkpt lat="42.4106870" lon="-4.3545150">
        <ele>815.0</ele>
        <time>2022-06-27T15:45:28Z</time>
      </trkpt>
      <trkpt lat="42.4106010" lon="-4.3545520">
        <ele>815.0</ele>
        <time>2022-06-27T15:45:29Z</time>
      </trkpt>
      <trkpt lat="42.4105150" lon="-4.3545900">
        <ele>815.2</ele>
        <time>2022-06-27T15:45:30Z</time>
      </trkpt>
      <trkpt lat="42.4104280" lon="-4.3546260">
        <ele>815.2</ele>
        <time>2022-06-27T15:45:31Z</time>
      </trkpt>
      <trkpt lat="42.4103250" lon="-4.3546690">
        <ele>815.2</ele>
        <time>2022-06-27T15:45:32Z</time>
      </trkpt>
      <trkpt lat="42.4102570" lon="-4.3546980">
        <ele>815.2</ele>
        <time>2022-06-27T15:45:33Z</time>
      </trkpt>
      <trkpt lat="42.4101720" lon="-4.3547320">
        <ele>815.2</ele>
        <time>2022-06-27T15:45:34Z</time>
      </trkpt>
      <trkpt lat="42.4100870" lon="-4.3547670">
        <ele>815.0</ele>
        <time>2022-06-27T15:45:35Z</time>
      </trkpt>
      <trkpt lat="42.4100020" lon="-4.3548030">
        <ele>815.0</ele>
        <time>2022-06-27T15:45:36Z</time>
      </trkpt>
      <trkpt lat="42.4099180" lon="-4.3548380">
        <ele>815.0</ele>
        <time>2022-06-27T15:45:37Z</time>
      </trkpt>
      <trkpt lat="42.4098370" lon="-4.3548710">
        <ele>815.0</ele>
        <time>2022-06-27T15:45:38Z</time>
      </trkpt>
      <trkpt lat="42.4097580" lon="-4.3549060">
        <ele>814.8</ele>
        <time>2022-06-27T15:45:39Z</time>
      </trkpt>
      <trkpt lat="42.4096810" lon="-4.3549380">
        <ele>814.8</ele>
        <time>2022-06-27T15:45:40Z</time>
      </trkpt>
      <trkpt lat="42.4096050" lon="-4.3549690">
        <ele>814.8</ele>
        <time>2022-06-27T15:45:41Z</time>
      </trkpt>
      <trkpt lat="42.4095310" lon="-4.3550000">
        <ele>814.8</ele>
        <time>2022-06-27T15:45:42Z</time>
      </trkpt>
      <trkpt lat="42.4094590" lon="-4.3550260">
        <ele>814.8</ele>
        <time>2022-06-27T15:45:43Z</time>
      </trkpt>
      <trkpt lat="42.4093890" lon="-4.3550560">
        <ele>814.8</ele>
        <time>2022-06-27T15:45:44Z</time>
      </trkpt>
      <trkpt lat="42.4093200" lon="-4.3550880">
        <ele>814.8</ele>
        <time>2022-06-27T15:45:45Z</time>
      </trkpt>
      <trkpt lat="42.4092480" lon="-4.3551200">
        <ele>815.0</ele>
        <time>2022-06-27T15:45:46Z</time>
      </trkpt>
      <trkpt lat="42.4091750" lon="-4.3551490">
        <ele>815.0</ele>
        <time>2022-06-27T15:45:47Z</time>
      </trkpt>
      <trkpt lat="42.4091020" lon="-4.3551780">
        <ele>815.0</ele>
        <time>2022-06-27T15:45:48Z</time>
      </trkpt>
      <trkpt lat="42.4090270" lon="-4.3552080">
        <ele>815.0</ele>
        <time>2022-06-27T15:45:49Z</time>
      </trkpt>
      <trkpt lat="42.4089530" lon="-4.3552390">
        <ele>815.0</ele>
        <time>2022-06-27T15:45:50Z</time>
      </trkpt>
      <trkpt lat="42.4088810" lon="-4.3552720">
        <ele>815.2</ele>
        <time>2022-06-27T15:45:51Z</time>
      </trkpt>
      <trkpt lat="42.4088090" lon="-4.3553030">
        <ele>815.2</ele>
        <time>2022-06-27T15:45:52Z</time>
      </trkpt>
      <trkpt lat="42.4087370" lon="-4.3553320">
        <ele>815.2</ele>
        <time>2022-06-27T15:45:53Z</time>
      </trkpt>
      <trkpt lat="42.4086660" lon="-4.3553580">
        <ele>815.2</ele>
        <time>2022-06-27T15:45:54Z</time>
      </trkpt>
      <trkpt lat="42.4085830" lon="-4.3553950">
        <ele>815.4</ele>
        <time>2022-06-27T15:45:55Z</time>
      </trkpt>
      <trkpt lat="42.4085290" lon="-4.3554220">
        <ele>815.4</ele>
        <time>2022-06-27T15:45:56Z</time>
      </trkpt>
      <trkpt lat="42.4084610" lon="-4.3554540">
        <ele>815.6</ele>
        <time>2022-06-27T15:45:57Z</time>
      </trkpt>
      <trkpt lat="42.4083940" lon="-4.3554820">
        <ele>815.6</ele>
        <time>2022-06-27T15:45:58Z</time>
      </trkpt>
      <trkpt lat="42.4083320" lon="-4.3555120">
        <ele>815.8</ele>
        <time>2022-06-27T15:45:59Z</time>
      </trkpt>
      <trkpt lat="42.4082710" lon="-4.3555500">
        <ele>816.0</ele>
        <time>2022-06-27T15:46:00Z</time>
      </trkpt>
      <trkpt lat="42.4082090" lon="-4.3555900">
        <ele>816.2</ele>
        <time>2022-06-27T15:46:01Z</time>
      </trkpt>
      <trkpt lat="42.4081490" lon="-4.3556300">
        <ele>816.2</ele>
        <time>2022-06-27T15:46:02Z</time>
      </trkpt>
      <trkpt lat="42.4080900" lon="-4.3556700">
        <ele>816.4</ele>
        <time>2022-06-27T15:46:03Z</time>
      </trkpt>
      <trkpt lat="42.4080340" lon="-4.3557120">
        <ele>816.6</ele>
        <time>2022-06-27T15:46:04Z</time>
      </trkpt>
      <trkpt lat="42.4079790" lon="-4.3557560">
        <ele>816.8</ele>
        <time>2022-06-27T15:46:05Z</time>
      </trkpt>
      <trkpt lat="42.4079250" lon="-4.3558010">
        <ele>817.0</ele>
        <time>2022-06-27T15:46:06Z</time>
      </trkpt>
      <trkpt lat="42.4078730" lon="-4.3558470">
        <ele>817.2</ele>
        <time>2022-06-27T15:46:07Z</time>
      </trkpt>
    </trkseg>
  </trk>
</gpx>
